<?xml version="1.0" encoding="UTF-8"?>
<gpx version="1.1" creator="https://www.youtrack.es" xsi:schemaLocation="http://www.topografix.com/GPX/1/1 http://www.topografix.com/GPX/1/1/gpx.xsd http://www.garmin.com/xmlschemas/GpxExtensions/v3 http://www.garmin.com/xmlschemas/GpxExtensionsv3.xsd http://www.garmin.com/xmlschemas/TrackPointExtension/v1 http://www.garmin.com/xmlschemas/TrackPointExtensionv1.xsd" xmlns:gpxtpx="http://www.garmin.com/xmlschemas/TrackPointExtension/v1" xmlns:gpxx="http://www.garmin.com/xmlschemas/GpxExtensions/v3" xmlns:xsi="http://www.w3.org/2001/XMLSchema-instance">
  <metadata>
    <link href="https://www.youtrack.es">
      <text>YouTrack.es</text>
    </link>
    <time>2026-05-08T04:34:56Z</time>
  </metadata>
  <trk>
    <src>https://www.youtrack.es</src>
    <link href="https://www.youtrack.es/ruta/14670-transpirenaica">
      <text>YouTrack.es</text>
    </link>
    <trkseg>
      <trkpt lat="42.8252150" lon="-1.6591850">
        <ele>415.6</ele>
        <time>2020-07-25T10:00:37Z</time>
      </trkpt>
      <trkpt lat="42.8252570" lon="-1.6590880">
        <ele>415.8</ele>
        <time>2020-07-25T10:00:39Z</time>
      </trkpt>
      <trkpt lat="42.8253200" lon="-1.6589060">
        <ele>416.0</ele>
        <time>2020-07-25T10:00:42Z</time>
      </trkpt>
      <trkpt lat="42.8253010" lon="-1.6587110">
        <ele>416.2</ele>
        <time>2020-07-25T10:00:45Z</time>
      </trkpt>
      <trkpt lat="42.8251900" lon="-1.6585500">
        <ele>416.4</ele>
        <time>2020-07-25T10:00:48Z</time>
      </trkpt>
      <trkpt lat="42.8251030" lon="-1.6584370">
        <ele>416.4</ele>
        <time>2020-07-25T10:00:50Z</time>
      </trkpt>
      <trkpt lat="42.8250150" lon="-1.6583100">
        <ele>416.4</ele>
        <time>2020-07-25T10:00:52Z</time>
      </trkpt>
      <trkpt lat="42.8249430" lon="-1.6580640">
        <ele>416.4</ele>
        <time>2020-07-25T10:00:55Z</time>
      </trkpt>
      <trkpt lat="42.8249530" lon="-1.6578770">
        <ele>416.2</ele>
        <time>2020-07-25T10:00:57Z</time>
      </trkpt>
      <trkpt lat="42.8249780" lon="-1.6575940">
        <ele>415.4</ele>
        <time>2020-07-25T10:01:00Z</time>
      </trkpt>
      <trkpt lat="42.8249920" lon="-1.6575020">
        <ele>415.2</ele>
        <time>2020-07-25T10:01:01Z</time>
      </trkpt>
      <trkpt lat="42.8250910" lon="-1.6571430">
        <ele>414.8</ele>
        <time>2020-07-25T10:01:05Z</time>
      </trkpt>
      <trkpt lat="42.8251330" lon="-1.6569810">
        <ele>414.8</ele>
        <time>2020-07-25T10:01:07Z</time>
      </trkpt>
      <trkpt lat="42.8251310" lon="-1.6569110">
        <ele>414.6</ele>
        <time>2020-07-25T10:01:08Z</time>
      </trkpt>
      <trkpt lat="42.8250330" lon="-1.6566410">
        <ele>414.4</ele>
        <time>2020-07-25T10:01:12Z</time>
      </trkpt>
      <trkpt lat="42.8247880" lon="-1.6560040">
        <ele>413.8</ele>
        <time>2020-07-25T10:01:21Z</time>
      </trkpt>
      <trkpt lat="42.8245760" lon="-1.6556930">
        <ele>413.8</ele>
        <time>2020-07-25T10:01:26Z</time>
      </trkpt>
      <trkpt lat="42.8243740" lon="-1.6554290">
        <ele>413.6</ele>
        <time>2020-07-25T10:01:30Z</time>
      </trkpt>
      <trkpt lat="42.8243290" lon="-1.6553570">
        <ele>413.6</ele>
        <time>2020-07-25T10:01:31Z</time>
      </trkpt>
      <trkpt lat="42.8241920" lon="-1.6551550">
        <ele>412.6</ele>
        <time>2020-07-25T10:01:34Z</time>
      </trkpt>
      <trkpt lat="42.8239700" lon="-1.6548260">
        <ele>411.8</ele>
        <time>2020-07-25T10:01:39Z</time>
      </trkpt>
      <trkpt lat="42.8238300" lon="-1.6546440">
        <ele>411.6</ele>
        <time>2020-07-25T10:01:42Z</time>
      </trkpt>
      <trkpt lat="42.8236690" lon="-1.6545020">
        <ele>411.6</ele>
        <time>2020-07-25T10:01:45Z</time>
      </trkpt>
      <trkpt lat="42.8236140" lon="-1.6544590">
        <ele>411.6</ele>
        <time>2020-07-25T10:01:46Z</time>
      </trkpt>
      <trkpt lat="42.8232340" lon="-1.6541640">
        <ele>411.6</ele>
        <time>2020-07-25T10:01:53Z</time>
      </trkpt>
      <trkpt lat="42.8229990" lon="-1.6541130">
        <ele>411.6</ele>
        <time>2020-07-25T10:01:57Z</time>
      </trkpt>
      <trkpt lat="42.8229410" lon="-1.6541310">
        <ele>411.6</ele>
        <time>2020-07-25T10:01:58Z</time>
      </trkpt>
      <trkpt lat="42.8227680" lon="-1.6541870">
        <ele>411.6</ele>
        <time>2020-07-25T10:02:01Z</time>
      </trkpt>
      <trkpt lat="42.8227110" lon="-1.6541770">
        <ele>411.6</ele>
        <time>2020-07-25T10:02:02Z</time>
      </trkpt>
      <trkpt lat="42.8225650" lon="-1.6540430">
        <ele>411.8</ele>
        <time>2020-07-25T10:02:05Z</time>
      </trkpt>
      <trkpt lat="42.8224880" lon="-1.6539020">
        <ele>411.8</ele>
        <time>2020-07-25T10:02:07Z</time>
      </trkpt>
      <trkpt lat="42.8223630" lon="-1.6536730">
        <ele>411.8</ele>
        <time>2020-07-25T10:02:10Z</time>
      </trkpt>
      <trkpt lat="42.8223090" lon="-1.6536040">
        <ele>411.8</ele>
        <time>2020-07-25T10:02:11Z</time>
      </trkpt>
      <trkpt lat="42.8221200" lon="-1.6534360">
        <ele>411.8</ele>
        <time>2020-07-25T10:02:14Z</time>
      </trkpt>
      <trkpt lat="42.8217710" lon="-1.6530990">
        <ele>411.0</ele>
        <time>2020-07-25T10:02:20Z</time>
      </trkpt>
      <trkpt lat="42.8213460" lon="-1.6526370">
        <ele>410.6</ele>
        <time>2020-07-25T10:02:28Z</time>
      </trkpt>
      <trkpt lat="42.8210850" lon="-1.6522200">
        <ele>410.6</ele>
        <time>2020-07-25T10:02:34Z</time>
      </trkpt>
      <trkpt lat="42.8208040" lon="-1.6515760">
        <ele>410.8</ele>
        <time>2020-07-25T10:02:42Z</time>
      </trkpt>
      <trkpt lat="42.8207010" lon="-1.6511190">
        <ele>411.0</ele>
        <time>2020-07-25T10:02:47Z</time>
      </trkpt>
      <trkpt lat="42.8206950" lon="-1.6510250">
        <ele>411.0</ele>
        <time>2020-07-25T10:02:48Z</time>
      </trkpt>
      <trkpt lat="42.8206980" lon="-1.6507440">
        <ele>411.2</ele>
        <time>2020-07-25T10:02:51Z</time>
      </trkpt>
      <trkpt lat="42.8207100" lon="-1.6506530">
        <ele>411.2</ele>
        <time>2020-07-25T10:02:52Z</time>
      </trkpt>
      <trkpt lat="42.8207740" lon="-1.6503920">
        <ele>411.2</ele>
        <time>2020-07-25T10:02:55Z</time>
      </trkpt>
      <trkpt lat="42.8208240" lon="-1.6502260">
        <ele>411.4</ele>
        <time>2020-07-25T10:02:57Z</time>
      </trkpt>
      <trkpt lat="42.8210240" lon="-1.6496720">
        <ele>411.8</ele>
        <time>2020-07-25T10:03:04Z</time>
      </trkpt>
      <trkpt lat="42.8211510" lon="-1.6492810">
        <ele>411.4</ele>
        <time>2020-07-25T10:03:09Z</time>
      </trkpt>
      <trkpt lat="42.8211680" lon="-1.6491090">
        <ele>411.4</ele>
        <time>2020-07-25T10:03:11Z</time>
      </trkpt>
      <trkpt lat="42.8211760" lon="-1.6490230">
        <ele>411.4</ele>
        <time>2020-07-25T10:03:12Z</time>
      </trkpt>
      <trkpt lat="42.8212710" lon="-1.6487950">
        <ele>411.2</ele>
        <time>2020-07-25T10:03:15Z</time>
      </trkpt>
      <trkpt lat="42.8214240" lon="-1.6485080">
        <ele>411.2</ele>
        <time>2020-07-25T10:03:19Z</time>
      </trkpt>
      <trkpt lat="42.8214560" lon="-1.6484310">
        <ele>411.2</ele>
        <time>2020-07-25T10:03:20Z</time>
      </trkpt>
      <trkpt lat="42.8216830" lon="-1.6477790">
        <ele>411.8</ele>
        <time>2020-07-25T10:03:28Z</time>
      </trkpt>
      <trkpt lat="42.8218890" lon="-1.6471930">
        <ele>412.4</ele>
        <time>2020-07-25T10:03:35Z</time>
      </trkpt>
      <trkpt lat="42.8220550" lon="-1.6467180">
        <ele>412.4</ele>
        <time>2020-07-25T10:03:41Z</time>
      </trkpt>
      <trkpt lat="42.8221380" lon="-1.6464840">
        <ele>412.4</ele>
        <time>2020-07-25T10:03:44Z</time>
      </trkpt>
      <trkpt lat="42.8223920" lon="-1.6457640">
        <ele>412.6</ele>
        <time>2020-07-25T10:03:53Z</time>
      </trkpt>
      <trkpt lat="42.8224510" lon="-1.6454090">
        <ele>412.8</ele>
        <time>2020-07-25T10:03:57Z</time>
      </trkpt>
      <trkpt lat="42.8225850" lon="-1.6452260">
        <ele>412.8</ele>
        <time>2020-07-25T10:04:00Z</time>
      </trkpt>
      <trkpt lat="42.8227690" lon="-1.6452420">
        <ele>412.8</ele>
        <time>2020-07-25T10:04:03Z</time>
      </trkpt>
      <trkpt lat="42.8228860" lon="-1.6453250">
        <ele>413.0</ele>
        <time>2020-07-25T10:04:05Z</time>
      </trkpt>
      <trkpt lat="42.8229510" lon="-1.6453600">
        <ele>413.2</ele>
        <time>2020-07-25T10:04:06Z</time>
      </trkpt>
      <trkpt lat="42.8230210" lon="-1.6453780">
        <ele>413.2</ele>
        <time>2020-07-25T10:04:07Z</time>
      </trkpt>
      <trkpt lat="42.8232330" lon="-1.6453490">
        <ele>413.2</ele>
        <time>2020-07-25T10:04:10Z</time>
      </trkpt>
      <trkpt lat="42.8233020" lon="-1.6453300">
        <ele>413.2</ele>
        <time>2020-07-25T10:04:11Z</time>
      </trkpt>
      <trkpt lat="42.8237550" lon="-1.6452280">
        <ele>412.8</ele>
        <time>2020-07-25T10:04:18Z</time>
      </trkpt>
      <trkpt lat="42.8242020" lon="-1.6451050">
        <ele>412.6</ele>
        <time>2020-07-25T10:04:25Z</time>
      </trkpt>
      <trkpt lat="42.8247690" lon="-1.6449630">
        <ele>412.8</ele>
        <time>2020-07-25T10:04:34Z</time>
      </trkpt>
      <trkpt lat="42.8248270" lon="-1.6449470">
        <ele>412.8</ele>
        <time>2020-07-25T10:04:35Z</time>
      </trkpt>
      <trkpt lat="42.8248830" lon="-1.6449440">
        <ele>412.8</ele>
        <time>2020-07-25T10:04:36Z</time>
      </trkpt>
      <trkpt lat="42.8250570" lon="-1.6449930">
        <ele>413.0</ele>
        <time>2020-07-25T10:04:39Z</time>
      </trkpt>
      <trkpt lat="42.8252310" lon="-1.6449620">
        <ele>413.2</ele>
        <time>2020-07-25T10:04:42Z</time>
      </trkpt>
      <trkpt lat="42.8253450" lon="-1.6449070">
        <ele>413.4</ele>
        <time>2020-07-25T10:04:44Z</time>
      </trkpt>
      <trkpt lat="42.8254020" lon="-1.6448790">
        <ele>413.6</ele>
        <time>2020-07-25T10:04:45Z</time>
      </trkpt>
      <trkpt lat="42.8255030" lon="-1.6448180">
        <ele>414.0</ele>
        <time>2020-07-25T10:04:47Z</time>
      </trkpt>
      <trkpt lat="42.8257170" lon="-1.6446830">
        <ele>414.6</ele>
        <time>2020-07-25T10:04:51Z</time>
      </trkpt>
      <trkpt lat="42.8257750" lon="-1.6446480">
        <ele>414.8</ele>
        <time>2020-07-25T10:04:52Z</time>
      </trkpt>
      <trkpt lat="42.8258290" lon="-1.6446080">
        <ele>414.8</ele>
        <time>2020-07-25T10:04:53Z</time>
      </trkpt>
      <trkpt lat="42.8260010" lon="-1.6445050">
        <ele>415.0</ele>
        <time>2020-07-25T10:04:56Z</time>
      </trkpt>
      <trkpt lat="42.8263910" lon="-1.6443730">
        <ele>415.2</ele>
        <time>2020-07-25T10:05:02Z</time>
      </trkpt>
      <trkpt lat="42.8269180" lon="-1.6442140">
        <ele>415.6</ele>
        <time>2020-07-25T10:05:10Z</time>
      </trkpt>
      <trkpt lat="42.8269840" lon="-1.6441900">
        <ele>415.8</ele>
        <time>2020-07-25T10:05:11Z</time>
      </trkpt>
      <trkpt lat="42.8274290" lon="-1.6440090">
        <ele>416.0</ele>
        <time>2020-07-25T10:05:18Z</time>
      </trkpt>
      <trkpt lat="42.8278920" lon="-1.6437220">
        <ele>416.6</ele>
        <time>2020-07-25T10:05:26Z</time>
      </trkpt>
      <trkpt lat="42.8283330" lon="-1.6434550">
        <ele>417.4</ele>
        <time>2020-07-25T10:05:34Z</time>
      </trkpt>
      <trkpt lat="42.8284360" lon="-1.6433920">
        <ele>417.8</ele>
        <time>2020-07-25T10:05:36Z</time>
      </trkpt>
      <trkpt lat="42.8287480" lon="-1.6432050">
        <ele>418.6</ele>
        <time>2020-07-25T10:05:42Z</time>
      </trkpt>
      <trkpt lat="42.8288520" lon="-1.6431410">
        <ele>419.0</ele>
        <time>2020-07-25T10:05:44Z</time>
      </trkpt>
      <trkpt lat="42.8291510" lon="-1.6429370">
        <ele>420.2</ele>
        <time>2020-07-25T10:05:50Z</time>
      </trkpt>
      <trkpt lat="42.8292410" lon="-1.6428550">
        <ele>420.4</ele>
        <time>2020-07-25T10:05:52Z</time>
      </trkpt>
      <trkpt lat="42.8293260" lon="-1.6427620">
        <ele>420.8</ele>
        <time>2020-07-25T10:05:54Z</time>
      </trkpt>
      <trkpt lat="42.8294840" lon="-1.6425520">
        <ele>421.0</ele>
        <time>2020-07-25T10:05:58Z</time>
      </trkpt>
      <trkpt lat="42.8296840" lon="-1.6422920">
        <ele>421.2</ele>
        <time>2020-07-25T10:06:03Z</time>
      </trkpt>
      <trkpt lat="42.8298400" lon="-1.6420750">
        <ele>421.8</ele>
        <time>2020-07-25T10:06:07Z</time>
      </trkpt>
      <trkpt lat="42.8299930" lon="-1.6418510">
        <ele>422.4</ele>
        <time>2020-07-25T10:06:11Z</time>
      </trkpt>
      <trkpt lat="42.8301140" lon="-1.6416820">
        <ele>423.0</ele>
        <time>2020-07-25T10:06:14Z</time>
      </trkpt>
      <trkpt lat="42.8302350" lon="-1.6415100">
        <ele>423.4</ele>
        <time>2020-07-25T10:06:17Z</time>
      </trkpt>
      <trkpt lat="42.8304790" lon="-1.6411660">
        <ele>424.0</ele>
        <time>2020-07-25T10:06:23Z</time>
      </trkpt>
      <trkpt lat="42.8306040" lon="-1.6410120">
        <ele>424.4</ele>
        <time>2020-07-25T10:06:26Z</time>
      </trkpt>
      <trkpt lat="42.8307800" lon="-1.6408070">
        <ele>424.6</ele>
        <time>2020-07-25T10:06:30Z</time>
      </trkpt>
      <trkpt lat="42.8308170" lon="-1.6407450">
        <ele>424.8</ele>
        <time>2020-07-25T10:06:31Z</time>
      </trkpt>
      <trkpt lat="42.8308990" lon="-1.6405310">
        <ele>425.2</ele>
        <time>2020-07-25T10:06:34Z</time>
      </trkpt>
      <trkpt lat="42.8309480" lon="-1.6403850">
        <ele>425.6</ele>
        <time>2020-07-25T10:06:36Z</time>
      </trkpt>
      <trkpt lat="42.8309900" lon="-1.6401510">
        <ele>425.8</ele>
        <time>2020-07-25T10:06:39Z</time>
      </trkpt>
      <trkpt lat="42.8309930" lon="-1.6400710">
        <ele>425.8</ele>
        <time>2020-07-25T10:06:40Z</time>
      </trkpt>
      <trkpt lat="42.8309830" lon="-1.6397440">
        <ele>425.8</ele>
        <time>2020-07-25T10:06:44Z</time>
      </trkpt>
      <trkpt lat="42.8309890" lon="-1.6396630">
        <ele>425.8</ele>
        <time>2020-07-25T10:06:45Z</time>
      </trkpt>
      <trkpt lat="42.8310600" lon="-1.6391220">
        <ele>426.0</ele>
        <time>2020-07-25T10:06:52Z</time>
      </trkpt>
      <trkpt lat="42.8311300" lon="-1.6386710">
        <ele>426.2</ele>
        <time>2020-07-25T10:06:58Z</time>
      </trkpt>
      <trkpt lat="42.8312000" lon="-1.6381340">
        <ele>426.6</ele>
        <time>2020-07-25T10:07:05Z</time>
      </trkpt>
      <trkpt lat="42.8312100" lon="-1.6380540">
        <ele>426.6</ele>
        <time>2020-07-25T10:07:06Z</time>
      </trkpt>
      <trkpt lat="42.8312900" lon="-1.6372960">
        <ele>426.8</ele>
        <time>2020-07-25T10:07:15Z</time>
      </trkpt>
      <trkpt lat="42.8312990" lon="-1.6371230">
        <ele>427.0</ele>
        <time>2020-07-25T10:07:17Z</time>
      </trkpt>
      <trkpt lat="42.8313150" lon="-1.6363220">
        <ele>427.2</ele>
        <time>2020-07-25T10:07:26Z</time>
      </trkpt>
      <trkpt lat="42.8313170" lon="-1.6362310">
        <ele>427.2</ele>
        <time>2020-07-25T10:07:27Z</time>
      </trkpt>
      <trkpt lat="42.8313240" lon="-1.6355240">
        <ele>427.4</ele>
        <time>2020-07-25T10:07:35Z</time>
      </trkpt>
      <trkpt lat="42.8313270" lon="-1.6353450">
        <ele>427.6</ele>
        <time>2020-07-25T10:07:37Z</time>
      </trkpt>
      <trkpt lat="42.8313430" lon="-1.6347180">
        <ele>427.8</ele>
        <time>2020-07-25T10:07:44Z</time>
      </trkpt>
      <trkpt lat="42.8313520" lon="-1.6338940">
        <ele>427.8</ele>
        <time>2020-07-25T10:07:53Z</time>
      </trkpt>
      <trkpt lat="42.8313520" lon="-1.6338030">
        <ele>427.8</ele>
        <time>2020-07-25T10:07:54Z</time>
      </trkpt>
      <trkpt lat="42.8313620" lon="-1.6329900">
        <ele>428.0</ele>
        <time>2020-07-25T10:08:03Z</time>
      </trkpt>
      <trkpt lat="42.8313650" lon="-1.6328120">
        <ele>428.0</ele>
        <time>2020-07-25T10:08:05Z</time>
      </trkpt>
      <trkpt lat="42.8313890" lon="-1.6321380">
        <ele>428.6</ele>
        <time>2020-07-25T10:08:13Z</time>
      </trkpt>
      <trkpt lat="42.8314000" lon="-1.6315160">
        <ele>429.0</ele>
        <time>2020-07-25T10:08:21Z</time>
      </trkpt>
      <trkpt lat="42.8314170" lon="-1.6308110">
        <ele>429.0</ele>
        <time>2020-07-25T10:08:30Z</time>
      </trkpt>
      <trkpt lat="42.8314230" lon="-1.6303890">
        <ele>429.4</ele>
        <time>2020-07-25T10:08:36Z</time>
      </trkpt>
      <trkpt lat="42.8314250" lon="-1.6303170">
        <ele>429.4</ele>
        <time>2020-07-25T10:08:37Z</time>
      </trkpt>
      <trkpt lat="42.8314360" lon="-1.6299510">
        <ele>430.0</ele>
        <time>2020-07-25T10:08:43Z</time>
      </trkpt>
      <trkpt lat="42.8314500" lon="-1.6289210">
        <ele>431.0</ele>
        <time>2020-07-25T10:09:09Z</time>
      </trkpt>
      <trkpt lat="42.8314550" lon="-1.6287610">
        <ele>430.8</ele>
        <time>2020-07-25T10:09:11Z</time>
      </trkpt>
      <trkpt lat="42.8314620" lon="-1.6280850">
        <ele>430.6</ele>
        <time>2020-07-25T10:09:19Z</time>
      </trkpt>
      <trkpt lat="42.8314640" lon="-1.6279980">
        <ele>430.6</ele>
        <time>2020-07-25T10:09:20Z</time>
      </trkpt>
      <trkpt lat="42.8314650" lon="-1.6272090">
        <ele>430.6</ele>
        <time>2020-07-25T10:09:29Z</time>
      </trkpt>
      <trkpt lat="42.8314710" lon="-1.6264190">
        <ele>430.8</ele>
        <time>2020-07-25T10:09:38Z</time>
      </trkpt>
      <trkpt lat="42.8314730" lon="-1.6262400">
        <ele>430.8</ele>
        <time>2020-07-25T10:09:40Z</time>
      </trkpt>
      <trkpt lat="42.8314780" lon="-1.6254210">
        <ele>431.0</ele>
        <time>2020-07-25T10:09:49Z</time>
      </trkpt>
      <trkpt lat="42.8314690" lon="-1.6247310">
        <ele>431.0</ele>
        <time>2020-07-25T10:09:56Z</time>
      </trkpt>
      <trkpt lat="42.8314670" lon="-1.6239660">
        <ele>430.8</ele>
        <time>2020-07-25T10:10:04Z</time>
      </trkpt>
      <trkpt lat="42.8314680" lon="-1.6237770">
        <ele>430.8</ele>
        <time>2020-07-25T10:10:06Z</time>
      </trkpt>
      <trkpt lat="42.8314570" lon="-1.6230350">
        <ele>431.2</ele>
        <time>2020-07-25T10:10:14Z</time>
      </trkpt>
      <trkpt lat="42.8314560" lon="-1.6229430">
        <ele>431.2</ele>
        <time>2020-07-25T10:10:15Z</time>
      </trkpt>
      <trkpt lat="42.8314510" lon="-1.6222200">
        <ele>431.4</ele>
        <time>2020-07-25T10:10:23Z</time>
      </trkpt>
      <trkpt lat="42.8314450" lon="-1.6221380">
        <ele>431.6</ele>
        <time>2020-07-25T10:10:24Z</time>
      </trkpt>
      <trkpt lat="42.8314010" lon="-1.6219900">
        <ele>431.8</ele>
        <time>2020-07-25T10:10:26Z</time>
      </trkpt>
      <trkpt lat="42.8312420" lon="-1.6218730">
        <ele>432.0</ele>
        <time>2020-07-25T10:10:29Z</time>
      </trkpt>
      <trkpt lat="42.8311110" lon="-1.6218450">
        <ele>432.0</ele>
        <time>2020-07-25T10:10:31Z</time>
      </trkpt>
      <trkpt lat="42.8310460" lon="-1.6218300">
        <ele>432.2</ele>
        <time>2020-07-25T10:10:32Z</time>
      </trkpt>
      <trkpt lat="42.8309820" lon="-1.6218100">
        <ele>432.2</ele>
        <time>2020-07-25T10:10:33Z</time>
      </trkpt>
      <trkpt lat="42.8308600" lon="-1.6217500">
        <ele>432.2</ele>
        <time>2020-07-25T10:10:35Z</time>
      </trkpt>
      <trkpt lat="42.8305060" lon="-1.6215350">
        <ele>432.0</ele>
        <time>2020-07-25T10:10:41Z</time>
      </trkpt>
      <trkpt lat="42.8300770" lon="-1.6211420">
        <ele>432.2</ele>
        <time>2020-07-25T10:10:49Z</time>
      </trkpt>
      <trkpt lat="42.8299020" lon="-1.6208820">
        <ele>432.2</ele>
        <time>2020-07-25T10:10:54Z</time>
      </trkpt>
      <trkpt lat="42.8298320" lon="-1.6208410">
        <ele>432.2</ele>
        <time>2020-07-25T10:10:56Z</time>
      </trkpt>
      <trkpt lat="42.8297400" lon="-1.6208650">
        <ele>432.2</ele>
        <time>2020-07-25T10:10:58Z</time>
      </trkpt>
      <trkpt lat="42.8295570" lon="-1.6210290">
        <ele>432.2</ele>
        <time>2020-07-25T10:11:02Z</time>
      </trkpt>
      <trkpt lat="42.8295140" lon="-1.6210720">
        <ele>432.0</ele>
        <time>2020-07-25T10:11:03Z</time>
      </trkpt>
      <trkpt lat="42.8294260" lon="-1.6210880">
        <ele>432.0</ele>
        <time>2020-07-25T10:11:05Z</time>
      </trkpt>
      <trkpt lat="42.8293460" lon="-1.6209290">
        <ele>432.0</ele>
        <time>2020-07-25T10:11:08Z</time>
      </trkpt>
      <trkpt lat="42.8293230" lon="-1.6208570">
        <ele>431.8</ele>
        <time>2020-07-25T10:11:09Z</time>
      </trkpt>
      <trkpt lat="42.8291930" lon="-1.6205710">
        <ele>431.4</ele>
        <time>2020-07-25T10:11:13Z</time>
      </trkpt>
      <trkpt lat="42.8290260" lon="-1.6203250">
        <ele>431.0</ele>
        <time>2020-07-25T10:11:17Z</time>
      </trkpt>
      <trkpt lat="42.8289870" lon="-1.6202990">
        <ele>431.0</ele>
        <time>2020-07-25T10:11:18Z</time>
      </trkpt>
      <trkpt lat="42.8288340" lon="-1.6202970">
        <ele>430.2</ele>
        <time>2020-07-25T10:11:21Z</time>
      </trkpt>
      <trkpt lat="42.8287720" lon="-1.6203010">
        <ele>429.8</ele>
        <time>2020-07-25T10:11:22Z</time>
      </trkpt>
      <trkpt lat="42.8285620" lon="-1.6203560">
        <ele>429.6</ele>
        <time>2020-07-25T10:11:25Z</time>
      </trkpt>
      <trkpt lat="42.8281030" lon="-1.6206070">
        <ele>428.8</ele>
        <time>2020-07-25T10:11:31Z</time>
      </trkpt>
      <trkpt lat="42.8280220" lon="-1.6206540">
        <ele>428.2</ele>
        <time>2020-07-25T10:11:32Z</time>
      </trkpt>
      <trkpt lat="42.8279400" lon="-1.6207020">
        <ele>427.6</ele>
        <time>2020-07-25T10:11:33Z</time>
      </trkpt>
      <trkpt lat="42.8277760" lon="-1.6208030">
        <ele>426.2</ele>
        <time>2020-07-25T10:11:35Z</time>
      </trkpt>
      <trkpt lat="42.8275280" lon="-1.6209430">
        <ele>425.0</ele>
        <time>2020-07-25T10:11:38Z</time>
      </trkpt>
      <trkpt lat="42.8273690" lon="-1.6210360">
        <ele>424.6</ele>
        <time>2020-07-25T10:11:40Z</time>
      </trkpt>
      <trkpt lat="42.8270630" lon="-1.6212100">
        <ele>423.8</ele>
        <time>2020-07-25T10:11:44Z</time>
      </trkpt>
      <trkpt lat="42.8269190" lon="-1.6212940">
        <ele>423.6</ele>
        <time>2020-07-25T10:11:46Z</time>
      </trkpt>
      <trkpt lat="42.8266040" lon="-1.6214820">
        <ele>423.4</ele>
        <time>2020-07-25T10:11:51Z</time>
      </trkpt>
      <trkpt lat="42.8264490" lon="-1.6215920">
        <ele>423.4</ele>
        <time>2020-07-25T10:11:55Z</time>
      </trkpt>
      <trkpt lat="42.8248610" lon="-1.6223470">
        <ele>423.6</ele>
        <time>2020-07-25T10:12:28Z</time>
      </trkpt>
      <trkpt lat="42.8248290" lon="-1.6223540">
        <ele>423.4</ele>
        <time>2020-07-25T10:12:29Z</time>
      </trkpt>
      <trkpt lat="42.8245000" lon="-1.6223920">
        <ele>422.8</ele>
        <time>2020-07-25T10:12:34Z</time>
      </trkpt>
      <trkpt lat="42.8243660" lon="-1.6223930">
        <ele>422.8</ele>
        <time>2020-07-25T10:12:36Z</time>
      </trkpt>
      <trkpt lat="42.8238980" lon="-1.6223140">
        <ele>422.6</ele>
        <time>2020-07-25T10:12:43Z</time>
      </trkpt>
      <trkpt lat="42.8234970" lon="-1.6221210">
        <ele>422.6</ele>
        <time>2020-07-25T10:12:49Z</time>
      </trkpt>
      <trkpt lat="42.8230470" lon="-1.6217940">
        <ele>422.4</ele>
        <time>2020-07-25T10:12:56Z</time>
      </trkpt>
      <trkpt lat="42.8226380" lon="-1.6213860">
        <ele>422.2</ele>
        <time>2020-07-25T10:13:03Z</time>
      </trkpt>
      <trkpt lat="42.8224690" lon="-1.6212260">
        <ele>422.2</ele>
        <time>2020-07-25T10:13:06Z</time>
      </trkpt>
      <trkpt lat="42.8223630" lon="-1.6211730">
        <ele>422.2</ele>
        <time>2020-07-25T10:13:08Z</time>
      </trkpt>
      <trkpt lat="42.8222560" lon="-1.6211790">
        <ele>422.2</ele>
        <time>2020-07-25T10:13:10Z</time>
      </trkpt>
      <trkpt lat="42.8221500" lon="-1.6211840">
        <ele>422.4</ele>
        <time>2020-07-25T10:13:12Z</time>
      </trkpt>
      <trkpt lat="42.8220100" lon="-1.6210820">
        <ele>423.2</ele>
        <time>2020-07-25T10:13:15Z</time>
      </trkpt>
      <trkpt lat="42.8219720" lon="-1.6209480">
        <ele>423.8</ele>
        <time>2020-07-25T10:13:17Z</time>
      </trkpt>
      <trkpt lat="42.8219760" lon="-1.6208750">
        <ele>424.2</ele>
        <time>2020-07-25T10:13:18Z</time>
      </trkpt>
      <trkpt lat="42.8220560" lon="-1.6206610">
        <ele>425.0</ele>
        <time>2020-07-25T10:13:21Z</time>
      </trkpt>
      <trkpt lat="42.8221910" lon="-1.6204630">
        <ele>425.2</ele>
        <time>2020-07-25T10:13:24Z</time>
      </trkpt>
      <trkpt lat="42.8222950" lon="-1.6203370">
        <ele>425.2</ele>
        <time>2020-07-25T10:13:26Z</time>
      </trkpt>
      <trkpt lat="42.8226890" lon="-1.6198790">
        <ele>424.6</ele>
        <time>2020-07-25T10:13:33Z</time>
      </trkpt>
      <trkpt lat="42.8228560" lon="-1.6196850">
        <ele>423.8</ele>
        <time>2020-07-25T10:13:36Z</time>
      </trkpt>
      <trkpt lat="42.8230680" lon="-1.6194460">
        <ele>423.6</ele>
        <time>2020-07-25T10:13:40Z</time>
      </trkpt>
      <trkpt lat="42.8231080" lon="-1.6193860">
        <ele>423.6</ele>
        <time>2020-07-25T10:13:41Z</time>
      </trkpt>
      <trkpt lat="42.8231860" lon="-1.6192530">
        <ele>423.6</ele>
        <time>2020-07-25T10:13:43Z</time>
      </trkpt>
      <trkpt lat="42.8232350" lon="-1.6191970">
        <ele>423.6</ele>
        <time>2020-07-25T10:13:44Z</time>
      </trkpt>
      <trkpt lat="42.8236400" lon="-1.6187700">
        <ele>424.2</ele>
        <time>2020-07-25T10:13:52Z</time>
      </trkpt>
      <trkpt lat="42.8240120" lon="-1.6183330">
        <ele>424.4</ele>
        <time>2020-07-25T10:14:00Z</time>
      </trkpt>
      <trkpt lat="42.8242450" lon="-1.6180820">
        <ele>425.0</ele>
        <time>2020-07-25T10:14:05Z</time>
      </trkpt>
      <trkpt lat="42.8243400" lon="-1.6179830">
        <ele>425.0</ele>
        <time>2020-07-25T10:14:07Z</time>
      </trkpt>
      <trkpt lat="42.8247580" lon="-1.6175310">
        <ele>425.8</ele>
        <time>2020-07-25T10:14:16Z</time>
      </trkpt>
      <trkpt lat="42.8248420" lon="-1.6174300">
        <ele>426.0</ele>
        <time>2020-07-25T10:14:18Z</time>
      </trkpt>
      <trkpt lat="42.8249910" lon="-1.6172410">
        <ele>426.2</ele>
        <time>2020-07-25T10:14:22Z</time>
      </trkpt>
      <trkpt lat="42.8251470" lon="-1.6170530">
        <ele>426.8</ele>
        <time>2020-07-25T10:14:27Z</time>
      </trkpt>
      <trkpt lat="42.8251810" lon="-1.6170170">
        <ele>427.0</ele>
        <time>2020-07-25T10:14:28Z</time>
      </trkpt>
      <trkpt lat="42.8252160" lon="-1.6169770">
        <ele>427.0</ele>
        <time>2020-07-25T10:14:29Z</time>
      </trkpt>
      <trkpt lat="42.8254260" lon="-1.6167350">
        <ele>427.8</ele>
        <time>2020-07-25T10:14:34Z</time>
      </trkpt>
      <trkpt lat="42.8255610" lon="-1.6165570">
        <ele>428.0</ele>
        <time>2020-07-25T10:14:37Z</time>
      </trkpt>
      <trkpt lat="42.8258330" lon="-1.6161770">
        <ele>428.0</ele>
        <time>2020-07-25T10:14:43Z</time>
      </trkpt>
      <trkpt lat="42.8261660" lon="-1.6157120">
        <ele>428.4</ele>
        <time>2020-07-25T10:14:51Z</time>
      </trkpt>
      <trkpt lat="42.8263010" lon="-1.6155350">
        <ele>428.8</ele>
        <time>2020-07-25T10:14:56Z</time>
      </trkpt>
      <trkpt lat="42.8263360" lon="-1.6155060">
        <ele>429.0</ele>
        <time>2020-07-25T10:14:57Z</time>
      </trkpt>
      <trkpt lat="42.8264560" lon="-1.6153140">
        <ele>430.0</ele>
        <time>2020-07-25T10:15:01Z</time>
      </trkpt>
      <trkpt lat="42.8264880" lon="-1.6152630">
        <ele>430.0</ele>
        <time>2020-07-25T10:15:02Z</time>
      </trkpt>
      <trkpt lat="42.8267410" lon="-1.6148900">
        <ele>430.4</ele>
        <time>2020-07-25T10:15:09Z</time>
      </trkpt>
      <trkpt lat="42.8270430" lon="-1.6144400">
        <ele>430.4</ele>
        <time>2020-07-25T10:15:17Z</time>
      </trkpt>
      <trkpt lat="42.8273960" lon="-1.6139010">
        <ele>430.6</ele>
        <time>2020-07-25T10:15:26Z</time>
      </trkpt>
      <trkpt lat="42.8277260" lon="-1.6134180">
        <ele>431.2</ele>
        <time>2020-07-25T10:15:34Z</time>
      </trkpt>
      <trkpt lat="42.8278500" lon="-1.6132480">
        <ele>431.4</ele>
        <time>2020-07-25T10:15:37Z</time>
      </trkpt>
      <trkpt lat="42.8279580" lon="-1.6130820">
        <ele>431.6</ele>
        <time>2020-07-25T10:15:40Z</time>
      </trkpt>
      <trkpt lat="42.8280070" lon="-1.6129880">
        <ele>431.6</ele>
        <time>2020-07-25T10:15:42Z</time>
      </trkpt>
      <trkpt lat="42.8280710" lon="-1.6128370">
        <ele>431.8</ele>
        <time>2020-07-25T10:15:45Z</time>
      </trkpt>
      <trkpt lat="42.8281040" lon="-1.6127790">
        <ele>431.8</ele>
        <time>2020-07-25T10:15:46Z</time>
      </trkpt>
      <trkpt lat="42.8282480" lon="-1.6126380">
        <ele>431.8</ele>
        <time>2020-07-25T10:15:49Z</time>
      </trkpt>
      <trkpt lat="42.8283000" lon="-1.6125890">
        <ele>431.8</ele>
        <time>2020-07-25T10:15:50Z</time>
      </trkpt>
      <trkpt lat="42.8285160" lon="-1.6122770">
        <ele>431.2</ele>
        <time>2020-07-25T10:15:55Z</time>
      </trkpt>
      <trkpt lat="42.8289110" lon="-1.6116860">
        <ele>430.8</ele>
        <time>2020-07-25T10:16:04Z</time>
      </trkpt>
      <trkpt lat="42.8293050" lon="-1.6111080">
        <ele>431.0</ele>
        <time>2020-07-25T10:16:13Z</time>
      </trkpt>
      <trkpt lat="42.8293900" lon="-1.6109800">
        <ele>431.0</ele>
        <time>2020-07-25T10:16:15Z</time>
      </trkpt>
      <trkpt lat="42.8296330" lon="-1.6106110">
        <ele>431.0</ele>
        <time>2020-07-25T10:16:21Z</time>
      </trkpt>
      <trkpt lat="42.8296600" lon="-1.6105430">
        <ele>431.0</ele>
        <time>2020-07-25T10:16:22Z</time>
      </trkpt>
      <trkpt lat="42.8297140" lon="-1.6103990">
        <ele>431.4</ele>
        <time>2020-07-25T10:16:24Z</time>
      </trkpt>
      <trkpt lat="42.8298090" lon="-1.6102980">
        <ele>431.6</ele>
        <time>2020-07-25T10:16:26Z</time>
      </trkpt>
      <trkpt lat="42.8299140" lon="-1.6102080">
        <ele>431.6</ele>
        <time>2020-07-25T10:16:28Z</time>
      </trkpt>
      <trkpt lat="42.8300500" lon="-1.6100270">
        <ele>431.8</ele>
        <time>2020-07-25T10:16:31Z</time>
      </trkpt>
      <trkpt lat="42.8304560" lon="-1.6094500">
        <ele>431.8</ele>
        <time>2020-07-25T10:16:40Z</time>
      </trkpt>
      <trkpt lat="42.8306020" lon="-1.6092490">
        <ele>431.8</ele>
        <time>2020-07-25T10:16:44Z</time>
      </trkpt>
      <trkpt lat="42.8306310" lon="-1.6092070">
        <ele>432.0</ele>
        <time>2020-07-25T10:16:45Z</time>
      </trkpt>
      <trkpt lat="42.8309260" lon="-1.6087040">
        <ele>433.2</ele>
        <time>2020-07-25T10:17:43Z</time>
      </trkpt>
      <trkpt lat="42.8309190" lon="-1.6086730">
        <ele>433.2</ele>
        <time>2020-07-25T10:17:44Z</time>
      </trkpt>
      <trkpt lat="42.8307650" lon="-1.6083220">
        <ele>433.0</ele>
        <time>2020-07-25T10:17:49Z</time>
      </trkpt>
      <trkpt lat="42.8306030" lon="-1.6080080">
        <ele>431.8</ele>
        <time>2020-07-25T10:17:53Z</time>
      </trkpt>
      <trkpt lat="42.8304790" lon="-1.6077590">
        <ele>430.4</ele>
        <time>2020-07-25T10:17:56Z</time>
      </trkpt>
      <trkpt lat="42.8303490" lon="-1.6075010">
        <ele>429.2</ele>
        <time>2020-07-25T10:17:59Z</time>
      </trkpt>
      <trkpt lat="42.8301500" lon="-1.6070700">
        <ele>428.2</ele>
        <time>2020-07-25T10:18:04Z</time>
      </trkpt>
      <trkpt lat="42.8301110" lon="-1.6069860">
        <ele>428.0</ele>
        <time>2020-07-25T10:18:05Z</time>
      </trkpt>
      <trkpt lat="42.8299820" lon="-1.6067140">
        <ele>427.6</ele>
        <time>2020-07-25T10:18:09Z</time>
      </trkpt>
      <trkpt lat="42.8299450" lon="-1.6066640">
        <ele>427.6</ele>
        <time>2020-07-25T10:18:10Z</time>
      </trkpt>
      <trkpt lat="42.8298430" lon="-1.6066070">
        <ele>427.4</ele>
        <time>2020-07-25T10:18:12Z</time>
      </trkpt>
      <trkpt lat="42.8297090" lon="-1.6064900">
        <ele>427.2</ele>
        <time>2020-07-25T10:18:15Z</time>
      </trkpt>
      <trkpt lat="42.8296770" lon="-1.6063540">
        <ele>427.0</ele>
        <time>2020-07-25T10:18:17Z</time>
      </trkpt>
      <trkpt lat="42.8296500" lon="-1.6062010">
        <ele>426.8</ele>
        <time>2020-07-25T10:18:19Z</time>
      </trkpt>
      <trkpt lat="42.8296290" lon="-1.6061170">
        <ele>426.6</ele>
        <time>2020-07-25T10:18:20Z</time>
      </trkpt>
      <trkpt lat="42.8295020" lon="-1.6056810">
        <ele>426.4</ele>
        <time>2020-07-25T10:18:25Z</time>
      </trkpt>
      <trkpt lat="42.8294590" lon="-1.6054090">
        <ele>426.2</ele>
        <time>2020-07-25T10:18:28Z</time>
      </trkpt>
      <trkpt lat="42.8294600" lon="-1.6052280">
        <ele>426.2</ele>
        <time>2020-07-25T10:18:30Z</time>
      </trkpt>
      <trkpt lat="42.8294970" lon="-1.6048860">
        <ele>426.2</ele>
        <time>2020-07-25T10:18:34Z</time>
      </trkpt>
      <trkpt lat="42.8295470" lon="-1.6047220">
        <ele>426.2</ele>
        <time>2020-07-25T10:18:36Z</time>
      </trkpt>
      <trkpt lat="42.8296180" lon="-1.6045600">
        <ele>426.0</ele>
        <time>2020-07-25T10:18:38Z</time>
      </trkpt>
      <trkpt lat="42.8297080" lon="-1.6044070">
        <ele>426.0</ele>
        <time>2020-07-25T10:18:40Z</time>
      </trkpt>
      <trkpt lat="42.8297580" lon="-1.6043320">
        <ele>426.0</ele>
        <time>2020-07-25T10:18:41Z</time>
      </trkpt>
      <trkpt lat="42.8300730" lon="-1.6038310">
        <ele>425.8</ele>
        <time>2020-07-25T10:18:48Z</time>
      </trkpt>
      <trkpt lat="42.8303830" lon="-1.6034820">
        <ele>425.8</ele>
        <time>2020-07-25T10:18:54Z</time>
      </trkpt>
      <trkpt lat="42.8309030" lon="-1.6030660">
        <ele>426.0</ele>
        <time>2020-07-25T10:19:03Z</time>
      </trkpt>
      <trkpt lat="42.8309630" lon="-1.6030190">
        <ele>426.0</ele>
        <time>2020-07-25T10:19:04Z</time>
      </trkpt>
      <trkpt lat="42.8314360" lon="-1.6026380">
        <ele>426.4</ele>
        <time>2020-07-25T10:19:12Z</time>
      </trkpt>
      <trkpt lat="42.8316700" lon="-1.6024500">
        <ele>426.6</ele>
        <time>2020-07-25T10:19:16Z</time>
      </trkpt>
      <trkpt lat="42.8321400" lon="-1.6020740">
        <ele>427.0</ele>
        <time>2020-07-25T10:19:24Z</time>
      </trkpt>
      <trkpt lat="42.8322560" lon="-1.6019760">
        <ele>427.0</ele>
        <time>2020-07-25T10:19:26Z</time>
      </trkpt>
      <trkpt lat="42.8326620" lon="-1.6016380">
        <ele>427.0</ele>
        <time>2020-07-25T10:19:33Z</time>
      </trkpt>
      <trkpt lat="42.8328860" lon="-1.6014480">
        <ele>427.2</ele>
        <time>2020-07-25T10:19:37Z</time>
      </trkpt>
      <trkpt lat="42.8329420" lon="-1.6014060">
        <ele>427.2</ele>
        <time>2020-07-25T10:19:38Z</time>
      </trkpt>
      <trkpt lat="42.8330990" lon="-1.6012650">
        <ele>427.4</ele>
        <time>2020-07-25T10:19:41Z</time>
      </trkpt>
      <trkpt lat="42.8334930" lon="-1.6008630">
        <ele>428.4</ele>
        <time>2020-07-25T10:19:49Z</time>
      </trkpt>
      <trkpt lat="42.8335410" lon="-1.6008110">
        <ele>428.4</ele>
        <time>2020-07-25T10:19:50Z</time>
      </trkpt>
      <trkpt lat="42.8337260" lon="-1.6005890">
        <ele>428.8</ele>
        <time>2020-07-25T10:19:54Z</time>
      </trkpt>
      <trkpt lat="42.8338150" lon="-1.6004720">
        <ele>428.8</ele>
        <time>2020-07-25T10:19:56Z</time>
      </trkpt>
      <trkpt lat="42.8340140" lon="-1.6001820">
        <ele>429.0</ele>
        <time>2020-07-25T10:20:01Z</time>
      </trkpt>
      <trkpt lat="42.8340970" lon="-1.5999710">
        <ele>429.2</ele>
        <time>2020-07-25T10:20:04Z</time>
      </trkpt>
      <trkpt lat="42.8341240" lon="-1.5998130">
        <ele>429.2</ele>
        <time>2020-07-25T10:20:06Z</time>
      </trkpt>
      <trkpt lat="42.8341280" lon="-1.5994900">
        <ele>429.2</ele>
        <time>2020-07-25T10:20:10Z</time>
      </trkpt>
      <trkpt lat="42.8341120" lon="-1.5993230">
        <ele>429.2</ele>
        <time>2020-07-25T10:20:12Z</time>
      </trkpt>
      <trkpt lat="42.8340370" lon="-1.5988400">
        <ele>429.4</ele>
        <time>2020-07-25T10:20:18Z</time>
      </trkpt>
      <trkpt lat="42.8340210" lon="-1.5987620">
        <ele>429.4</ele>
        <time>2020-07-25T10:20:19Z</time>
      </trkpt>
      <trkpt lat="42.8339470" lon="-1.5982800">
        <ele>429.4</ele>
        <time>2020-07-25T10:20:25Z</time>
      </trkpt>
      <trkpt lat="42.8339320" lon="-1.5982040">
        <ele>429.4</ele>
        <time>2020-07-25T10:20:26Z</time>
      </trkpt>
      <trkpt lat="42.8338060" lon="-1.5978630">
        <ele>429.8</ele>
        <time>2020-07-25T10:20:31Z</time>
      </trkpt>
      <trkpt lat="42.8335890" lon="-1.5974920">
        <ele>430.4</ele>
        <time>2020-07-25T10:20:37Z</time>
      </trkpt>
      <trkpt lat="42.8335500" lon="-1.5974360">
        <ele>430.4</ele>
        <time>2020-07-25T10:20:38Z</time>
      </trkpt>
      <trkpt lat="42.8332590" lon="-1.5969710">
        <ele>431.4</ele>
        <time>2020-07-25T10:20:46Z</time>
      </trkpt>
      <trkpt lat="42.8330340" lon="-1.5966470">
        <ele>432.4</ele>
        <time>2020-07-25T10:20:52Z</time>
      </trkpt>
      <trkpt lat="42.8329520" lon="-1.5965530">
        <ele>432.8</ele>
        <time>2020-07-25T10:20:54Z</time>
      </trkpt>
      <trkpt lat="42.8327770" lon="-1.5963630">
        <ele>433.6</ele>
        <time>2020-07-25T10:20:58Z</time>
      </trkpt>
      <trkpt lat="42.8326470" lon="-1.5962370">
        <ele>434.0</ele>
        <time>2020-07-25T10:21:01Z</time>
      </trkpt>
      <trkpt lat="42.8322990" lon="-1.5959520">
        <ele>434.6</ele>
        <time>2020-07-25T10:21:09Z</time>
      </trkpt>
      <trkpt lat="42.8322540" lon="-1.5959200">
        <ele>434.6</ele>
        <time>2020-07-25T10:21:10Z</time>
      </trkpt>
      <trkpt lat="42.8319790" lon="-1.5957330">
        <ele>436.0</ele>
        <time>2020-07-25T10:21:16Z</time>
      </trkpt>
      <trkpt lat="42.8319300" lon="-1.5957090">
        <ele>436.4</ele>
        <time>2020-07-25T10:21:17Z</time>
      </trkpt>
      <trkpt lat="42.8318840" lon="-1.5956810">
        <ele>436.8</ele>
        <time>2020-07-25T10:21:18Z</time>
      </trkpt>
      <trkpt lat="42.8318410" lon="-1.5956480">
        <ele>437.0</ele>
        <time>2020-07-25T10:21:19Z</time>
      </trkpt>
      <trkpt lat="42.8315360" lon="-1.5954190">
        <ele>438.4</ele>
        <time>2020-07-25T10:21:26Z</time>
      </trkpt>
      <trkpt lat="42.8314910" lon="-1.5953880">
        <ele>438.4</ele>
        <time>2020-07-25T10:21:27Z</time>
      </trkpt>
      <trkpt lat="42.8312850" lon="-1.5951930">
        <ele>439.4</ele>
        <time>2020-07-25T10:21:32Z</time>
      </trkpt>
      <trkpt lat="42.8312550" lon="-1.5951390">
        <ele>439.8</ele>
        <time>2020-07-25T10:21:33Z</time>
      </trkpt>
      <trkpt lat="42.8311890" lon="-1.5948740">
        <ele>440.2</ele>
        <time>2020-07-25T10:21:37Z</time>
      </trkpt>
      <trkpt lat="42.8311820" lon="-1.5948030">
        <ele>440.4</ele>
        <time>2020-07-25T10:21:38Z</time>
      </trkpt>
      <trkpt lat="42.8311770" lon="-1.5947310">
        <ele>440.4</ele>
        <time>2020-07-25T10:21:39Z</time>
      </trkpt>
      <trkpt lat="42.8311540" lon="-1.5942960">
        <ele>440.6</ele>
        <time>2020-07-25T10:21:45Z</time>
      </trkpt>
      <trkpt lat="42.8311580" lon="-1.5940670">
        <ele>440.6</ele>
        <time>2020-07-25T10:21:48Z</time>
      </trkpt>
      <trkpt lat="42.8311600" lon="-1.5939280">
        <ele>440.6</ele>
        <time>2020-07-25T10:21:50Z</time>
      </trkpt>
      <trkpt lat="42.8311470" lon="-1.5937170">
        <ele>440.6</ele>
        <time>2020-07-25T10:21:53Z</time>
      </trkpt>
      <trkpt lat="42.8311640" lon="-1.5935820">
        <ele>440.6</ele>
        <time>2020-07-25T10:21:55Z</time>
      </trkpt>
      <trkpt lat="42.8312750" lon="-1.5931010">
        <ele>440.6</ele>
        <time>2020-07-25T10:22:02Z</time>
      </trkpt>
      <trkpt lat="42.8313440" lon="-1.5927150">
        <ele>440.8</ele>
        <time>2020-07-25T10:22:08Z</time>
      </trkpt>
      <trkpt lat="42.8314490" lon="-1.5921810">
        <ele>442.4</ele>
        <time>2020-07-25T10:22:42Z</time>
      </trkpt>
      <trkpt lat="42.8315260" lon="-1.5918440">
        <ele>442.2</ele>
        <time>2020-07-25T10:22:48Z</time>
      </trkpt>
      <trkpt lat="42.8316480" lon="-1.5912390">
        <ele>442.0</ele>
        <time>2020-07-25T10:22:57Z</time>
      </trkpt>
      <trkpt lat="42.8317560" lon="-1.5905560">
        <ele>442.4</ele>
        <time>2020-07-25T10:23:06Z</time>
      </trkpt>
      <trkpt lat="42.8317850" lon="-1.5904070">
        <ele>442.4</ele>
        <time>2020-07-25T10:23:08Z</time>
      </trkpt>
      <trkpt lat="42.8318030" lon="-1.5900870">
        <ele>442.8</ele>
        <time>2020-07-25T10:23:12Z</time>
      </trkpt>
      <trkpt lat="42.8318100" lon="-1.5899220">
        <ele>443.0</ele>
        <time>2020-07-25T10:23:14Z</time>
      </trkpt>
      <trkpt lat="42.8318390" lon="-1.5895070">
        <ele>443.4</ele>
        <time>2020-07-25T10:23:19Z</time>
      </trkpt>
      <trkpt lat="42.8318620" lon="-1.5892630">
        <ele>443.4</ele>
        <time>2020-07-25T10:23:22Z</time>
      </trkpt>
      <trkpt lat="42.8318830" lon="-1.5890300">
        <ele>443.6</ele>
        <time>2020-07-25T10:23:25Z</time>
      </trkpt>
      <trkpt lat="42.8319190" lon="-1.5888830">
        <ele>443.6</ele>
        <time>2020-07-25T10:23:27Z</time>
      </trkpt>
      <trkpt lat="42.8320810" lon="-1.5882650">
        <ele>443.8</ele>
        <time>2020-07-25T10:23:35Z</time>
      </trkpt>
      <trkpt lat="42.8322300" lon="-1.5876800">
        <ele>443.4</ele>
        <time>2020-07-25T10:23:42Z</time>
      </trkpt>
      <trkpt lat="42.8323500" lon="-1.5871400">
        <ele>442.4</ele>
        <time>2020-07-25T10:23:48Z</time>
      </trkpt>
      <trkpt lat="42.8323750" lon="-1.5869900">
        <ele>442.2</ele>
        <time>2020-07-25T10:23:50Z</time>
      </trkpt>
      <trkpt lat="42.8324010" lon="-1.5867780">
        <ele>442.0</ele>
        <time>2020-07-25T10:23:54Z</time>
      </trkpt>
      <trkpt lat="42.8324370" lon="-1.5864100">
        <ele>442.0</ele>
        <time>2020-07-25T10:24:01Z</time>
      </trkpt>
      <trkpt lat="42.8324410" lon="-1.5862040">
        <ele>442.4</ele>
        <time>2020-07-25T10:24:05Z</time>
      </trkpt>
      <trkpt lat="42.8324300" lon="-1.5861460">
        <ele>442.4</ele>
        <time>2020-07-25T10:24:06Z</time>
      </trkpt>
      <trkpt lat="42.8323320" lon="-1.5858910">
        <ele>442.6</ele>
        <time>2020-07-25T10:24:10Z</time>
      </trkpt>
      <trkpt lat="42.8323340" lon="-1.5856860">
        <ele>442.6</ele>
        <time>2020-07-25T10:24:13Z</time>
      </trkpt>
      <trkpt lat="42.8324400" lon="-1.5855540">
        <ele>442.6</ele>
        <time>2020-07-25T10:24:16Z</time>
      </trkpt>
      <trkpt lat="42.8325860" lon="-1.5855900">
        <ele>443.2</ele>
        <time>2020-07-25T10:24:19Z</time>
      </trkpt>
      <trkpt lat="42.8326300" lon="-1.5856370">
        <ele>444.0</ele>
        <time>2020-07-25T10:24:20Z</time>
      </trkpt>
      <trkpt lat="42.8327150" lon="-1.5857610">
        <ele>444.4</ele>
        <time>2020-07-25T10:24:22Z</time>
      </trkpt>
      <trkpt lat="42.8327590" lon="-1.5858260">
        <ele>444.6</ele>
        <time>2020-07-25T10:24:23Z</time>
      </trkpt>
      <trkpt lat="42.8328080" lon="-1.5858850">
        <ele>444.6</ele>
        <time>2020-07-25T10:24:24Z</time>
      </trkpt>
      <trkpt lat="42.8329750" lon="-1.5860120">
        <ele>444.6</ele>
        <time>2020-07-25T10:24:27Z</time>
      </trkpt>
      <trkpt lat="42.8330930" lon="-1.5860530">
        <ele>444.8</ele>
        <time>2020-07-25T10:24:29Z</time>
      </trkpt>
      <trkpt lat="42.8331540" lon="-1.5860610">
        <ele>444.8</ele>
        <time>2020-07-25T10:24:30Z</time>
      </trkpt>
      <trkpt lat="42.8332760" lon="-1.5860580">
        <ele>445.0</ele>
        <time>2020-07-25T10:24:32Z</time>
      </trkpt>
      <trkpt lat="42.8333950" lon="-1.5860560">
        <ele>445.0</ele>
        <time>2020-07-25T10:24:34Z</time>
      </trkpt>
      <trkpt lat="42.8338530" lon="-1.5860340">
        <ele>445.2</ele>
        <time>2020-07-25T10:24:42Z</time>
      </trkpt>
      <trkpt lat="42.8339120" lon="-1.5860180">
        <ele>445.4</ele>
        <time>2020-07-25T10:24:43Z</time>
      </trkpt>
      <trkpt lat="42.8340890" lon="-1.5859290">
        <ele>445.6</ele>
        <time>2020-07-25T10:24:46Z</time>
      </trkpt>
      <trkpt lat="42.8342060" lon="-1.5858620">
        <ele>445.8</ele>
        <time>2020-07-25T10:24:48Z</time>
      </trkpt>
      <trkpt lat="42.8343320" lon="-1.5858560">
        <ele>445.8</ele>
        <time>2020-07-25T10:24:50Z</time>
      </trkpt>
      <trkpt lat="42.8345150" lon="-1.5859640">
        <ele>445.8</ele>
        <time>2020-07-25T10:24:53Z</time>
      </trkpt>
      <trkpt lat="42.8345770" lon="-1.5859980">
        <ele>445.8</ele>
        <time>2020-07-25T10:24:54Z</time>
      </trkpt>
      <trkpt lat="42.8348950" lon="-1.5860700">
        <ele>445.6</ele>
        <time>2020-07-25T10:24:59Z</time>
      </trkpt>
      <trkpt lat="42.8354320" lon="-1.5861550">
        <ele>445.8</ele>
        <time>2020-07-25T10:25:08Z</time>
      </trkpt>
      <trkpt lat="42.8354870" lon="-1.5861590">
        <ele>445.8</ele>
        <time>2020-07-25T10:25:09Z</time>
      </trkpt>
      <trkpt lat="42.8355420" lon="-1.5861490">
        <ele>446.0</ele>
        <time>2020-07-25T10:25:10Z</time>
      </trkpt>
      <trkpt lat="42.8356520" lon="-1.5861070">
        <ele>446.2</ele>
        <time>2020-07-25T10:25:12Z</time>
      </trkpt>
      <trkpt lat="42.8358250" lon="-1.5861250">
        <ele>446.4</ele>
        <time>2020-07-25T10:25:15Z</time>
      </trkpt>
      <trkpt lat="42.8359330" lon="-1.5861910">
        <ele>446.8</ele>
        <time>2020-07-25T10:25:17Z</time>
      </trkpt>
      <trkpt lat="42.8360440" lon="-1.5862450">
        <ele>447.0</ele>
        <time>2020-07-25T10:25:19Z</time>
      </trkpt>
      <trkpt lat="42.8361010" lon="-1.5862590">
        <ele>447.0</ele>
        <time>2020-07-25T10:25:20Z</time>
      </trkpt>
      <trkpt lat="42.8361580" lon="-1.5862710">
        <ele>447.0</ele>
        <time>2020-07-25T10:25:21Z</time>
      </trkpt>
      <trkpt lat="42.8367470" lon="-1.5863760">
        <ele>447.8</ele>
        <time>2020-07-25T10:25:31Z</time>
      </trkpt>
      <trkpt lat="42.8368090" lon="-1.5863920">
        <ele>447.8</ele>
        <time>2020-07-25T10:25:32Z</time>
      </trkpt>
      <trkpt lat="42.8372870" lon="-1.5865170">
        <ele>447.6</ele>
        <time>2020-07-25T10:25:40Z</time>
      </trkpt>
      <trkpt lat="42.8378260" lon="-1.5865650">
        <ele>447.8</ele>
        <time>2020-07-25T10:25:49Z</time>
      </trkpt>
      <trkpt lat="42.8379470" lon="-1.5865860">
        <ele>448.2</ele>
        <time>2020-07-25T10:25:51Z</time>
      </trkpt>
      <trkpt lat="42.8383130" lon="-1.5866250">
        <ele>448.6</ele>
        <time>2020-07-25T10:25:57Z</time>
      </trkpt>
      <trkpt lat="42.8389100" lon="-1.5866630">
        <ele>449.0</ele>
        <time>2020-07-25T10:26:07Z</time>
      </trkpt>
      <trkpt lat="42.8390800" lon="-1.5866740">
        <ele>449.0</ele>
        <time>2020-07-25T10:26:10Z</time>
      </trkpt>
      <trkpt lat="42.8393560" lon="-1.5866940">
        <ele>449.2</ele>
        <time>2020-07-25T10:26:15Z</time>
      </trkpt>
      <trkpt lat="42.8396340" lon="-1.5867090">
        <ele>449.6</ele>
        <time>2020-07-25T10:26:20Z</time>
      </trkpt>
      <trkpt lat="42.8400780" lon="-1.5867290">
        <ele>450.2</ele>
        <time>2020-07-25T10:26:28Z</time>
      </trkpt>
      <trkpt lat="42.8401280" lon="-1.5867210">
        <ele>450.2</ele>
        <time>2020-07-25T10:26:29Z</time>
      </trkpt>
      <trkpt lat="42.8403000" lon="-1.5866030">
        <ele>450.6</ele>
        <time>2020-07-25T10:26:33Z</time>
      </trkpt>
      <trkpt lat="42.8403400" lon="-1.5865600">
        <ele>450.8</ele>
        <time>2020-07-25T10:26:34Z</time>
      </trkpt>
      <trkpt lat="42.8403830" lon="-1.5865220">
        <ele>450.8</ele>
        <time>2020-07-25T10:26:35Z</time>
      </trkpt>
      <trkpt lat="42.8405350" lon="-1.5864750">
        <ele>451.0</ele>
        <time>2020-07-25T10:26:38Z</time>
      </trkpt>
      <trkpt lat="42.8406820" lon="-1.5865610">
        <ele>451.4</ele>
        <time>2020-07-25T10:26:41Z</time>
      </trkpt>
      <trkpt lat="42.8407270" lon="-1.5866050">
        <ele>451.4</ele>
        <time>2020-07-25T10:26:42Z</time>
      </trkpt>
      <trkpt lat="42.8408250" lon="-1.5866830">
        <ele>451.6</ele>
        <time>2020-07-25T10:26:44Z</time>
      </trkpt>
      <trkpt lat="42.8409360" lon="-1.5867250">
        <ele>451.8</ele>
        <time>2020-07-25T10:26:46Z</time>
      </trkpt>
      <trkpt lat="42.8410510" lon="-1.5867360">
        <ele>451.8</ele>
        <time>2020-07-25T10:26:48Z</time>
      </trkpt>
      <trkpt lat="42.8412830" lon="-1.5867250">
        <ele>451.8</ele>
        <time>2020-07-25T10:26:52Z</time>
      </trkpt>
      <trkpt lat="42.8418190" lon="-1.5866570">
        <ele>452.0</ele>
        <time>2020-07-25T10:27:01Z</time>
      </trkpt>
      <trkpt lat="42.8424060" lon="-1.5865760">
        <ele>452.0</ele>
        <time>2020-07-25T10:27:11Z</time>
      </trkpt>
      <trkpt lat="42.8429980" lon="-1.5864940">
        <ele>452.0</ele>
        <time>2020-07-25T10:27:21Z</time>
      </trkpt>
      <trkpt lat="42.8430590" lon="-1.5864860">
        <ele>452.0</ele>
        <time>2020-07-25T10:27:22Z</time>
      </trkpt>
      <trkpt lat="42.8433050" lon="-1.5864480">
        <ele>452.4</ele>
        <time>2020-07-25T10:27:26Z</time>
      </trkpt>
      <trkpt lat="42.8436770" lon="-1.5863960">
        <ele>453.0</ele>
        <time>2020-07-25T10:27:32Z</time>
      </trkpt>
      <trkpt lat="42.8442140" lon="-1.5862720">
        <ele>453.4</ele>
        <time>2020-07-25T10:27:41Z</time>
      </trkpt>
      <trkpt lat="42.8442730" lon="-1.5862540">
        <ele>453.4</ele>
        <time>2020-07-25T10:27:42Z</time>
      </trkpt>
      <trkpt lat="42.8445030" lon="-1.5861770">
        <ele>453.4</ele>
        <time>2020-07-25T10:27:46Z</time>
      </trkpt>
      <trkpt lat="42.8448940" lon="-1.5860330">
        <ele>453.6</ele>
        <time>2020-07-25T10:27:53Z</time>
      </trkpt>
      <trkpt lat="42.8453360" lon="-1.5858670">
        <ele>454.2</ele>
        <time>2020-07-25T10:28:01Z</time>
      </trkpt>
      <trkpt lat="42.8455060" lon="-1.5857980">
        <ele>454.4</ele>
        <time>2020-07-25T10:28:04Z</time>
      </trkpt>
      <trkpt lat="42.8455620" lon="-1.5857740">
        <ele>454.6</ele>
        <time>2020-07-25T10:28:05Z</time>
      </trkpt>
      <trkpt lat="42.8460060" lon="-1.5855730">
        <ele>455.6</ele>
        <time>2020-07-25T10:28:13Z</time>
      </trkpt>
      <trkpt lat="42.8461140" lon="-1.5855240">
        <ele>455.6</ele>
        <time>2020-07-25T10:28:15Z</time>
      </trkpt>
      <trkpt lat="42.8464440" lon="-1.5853770">
        <ele>456.8</ele>
        <time>2020-07-25T10:28:21Z</time>
      </trkpt>
      <trkpt lat="42.8466770" lon="-1.5852770">
        <ele>457.4</ele>
        <time>2020-07-25T10:28:25Z</time>
      </trkpt>
      <trkpt lat="42.8472210" lon="-1.5850310">
        <ele>457.4</ele>
        <time>2020-07-25T10:28:34Z</time>
      </trkpt>
      <trkpt lat="42.8477650" lon="-1.5847570">
        <ele>456.8</ele>
        <time>2020-07-25T10:28:43Z</time>
      </trkpt>
      <trkpt lat="42.8480740" lon="-1.5846120">
        <ele>456.6</ele>
        <time>2020-07-25T10:28:48Z</time>
      </trkpt>
      <trkpt lat="42.8486630" lon="-1.5844170">
        <ele>456.8</ele>
        <time>2020-07-25T10:28:57Z</time>
      </trkpt>
      <trkpt lat="42.8492070" lon="-1.5842790">
        <ele>456.6</ele>
        <time>2020-07-25T10:29:05Z</time>
      </trkpt>
      <trkpt lat="42.8492750" lon="-1.5842620">
        <ele>456.6</ele>
        <time>2020-07-25T10:29:06Z</time>
      </trkpt>
      <trkpt lat="42.8498720" lon="-1.5841070">
        <ele>456.8</ele>
        <time>2020-07-25T10:29:15Z</time>
      </trkpt>
      <trkpt lat="42.8500050" lon="-1.5840750">
        <ele>456.8</ele>
        <time>2020-07-25T10:29:17Z</time>
      </trkpt>
      <trkpt lat="42.8505420" lon="-1.5839220">
        <ele>456.6</ele>
        <time>2020-07-25T10:29:25Z</time>
      </trkpt>
      <trkpt lat="42.8508120" lon="-1.5838330">
        <ele>456.4</ele>
        <time>2020-07-25T10:29:29Z</time>
      </trkpt>
      <trkpt lat="42.8513480" lon="-1.5836400">
        <ele>456.6</ele>
        <time>2020-07-25T10:29:37Z</time>
      </trkpt>
      <trkpt lat="42.8516130" lon="-1.5835420">
        <ele>456.4</ele>
        <time>2020-07-25T10:29:41Z</time>
      </trkpt>
      <trkpt lat="42.8520370" lon="-1.5833820">
        <ele>456.6</ele>
        <time>2020-07-25T10:29:48Z</time>
      </trkpt>
      <trkpt lat="42.8525550" lon="-1.5831750">
        <ele>458.0</ele>
        <time>2020-07-25T10:29:58Z</time>
      </trkpt>
      <trkpt lat="42.8527890" lon="-1.5830790">
        <ele>459.2</ele>
        <time>2020-07-25T10:30:03Z</time>
      </trkpt>
      <trkpt lat="42.8529540" lon="-1.5829920">
        <ele>459.8</ele>
        <time>2020-07-25T10:30:07Z</time>
      </trkpt>
      <trkpt lat="42.8530320" lon="-1.5829480">
        <ele>460.2</ele>
        <time>2020-07-25T10:30:09Z</time>
      </trkpt>
      <trkpt lat="42.8531750" lon="-1.5828520">
        <ele>461.4</ele>
        <time>2020-07-25T10:30:13Z</time>
      </trkpt>
      <trkpt lat="42.8532760" lon="-1.5827800">
        <ele>462.0</ele>
        <time>2020-07-25T10:30:16Z</time>
      </trkpt>
      <trkpt lat="42.8533420" lon="-1.5827330">
        <ele>462.6</ele>
        <time>2020-07-25T10:30:18Z</time>
      </trkpt>
      <trkpt lat="42.8535290" lon="-1.5825750">
        <ele>463.8</ele>
        <time>2020-07-25T10:30:24Z</time>
      </trkpt>
      <trkpt lat="42.8536170" lon="-1.5824950">
        <ele>464.6</ele>
        <time>2020-07-25T10:30:27Z</time>
      </trkpt>
      <trkpt lat="42.8536450" lon="-1.5824670">
        <ele>464.8</ele>
        <time>2020-07-25T10:30:28Z</time>
      </trkpt>
      <trkpt lat="42.8537600" lon="-1.5823480">
        <ele>466.0</ele>
        <time>2020-07-25T10:30:32Z</time>
      </trkpt>
      <trkpt lat="42.8538790" lon="-1.5822240">
        <ele>467.0</ele>
        <time>2020-07-25T10:30:36Z</time>
      </trkpt>
      <trkpt lat="42.8539090" lon="-1.5821930">
        <ele>467.4</ele>
        <time>2020-07-25T10:30:37Z</time>
      </trkpt>
      <trkpt lat="42.8539670" lon="-1.5821310">
        <ele>468.2</ele>
        <time>2020-07-25T10:30:39Z</time>
      </trkpt>
      <trkpt lat="42.8540550" lon="-1.5820360">
        <ele>469.2</ele>
        <time>2020-07-25T10:30:42Z</time>
      </trkpt>
      <trkpt lat="42.8541780" lon="-1.5819040">
        <ele>470.2</ele>
        <time>2020-07-25T10:30:46Z</time>
      </trkpt>
      <trkpt lat="42.8542380" lon="-1.5818410">
        <ele>470.8</ele>
        <time>2020-07-25T10:30:48Z</time>
      </trkpt>
      <trkpt lat="42.8542970" lon="-1.5817780">
        <ele>471.2</ele>
        <time>2020-07-25T10:30:50Z</time>
      </trkpt>
      <trkpt lat="42.8544130" lon="-1.5816560">
        <ele>472.4</ele>
        <time>2020-07-25T10:30:54Z</time>
      </trkpt>
      <trkpt lat="42.8545320" lon="-1.5815320">
        <ele>473.2</ele>
        <time>2020-07-25T10:30:58Z</time>
      </trkpt>
      <trkpt lat="42.8545620" lon="-1.5815010">
        <ele>473.6</ele>
        <time>2020-07-25T10:30:59Z</time>
      </trkpt>
      <trkpt lat="42.8546810" lon="-1.5813730">
        <ele>474.8</ele>
        <time>2020-07-25T10:31:03Z</time>
      </trkpt>
      <trkpt lat="42.8548310" lon="-1.5812160">
        <ele>476.0</ele>
        <time>2020-07-25T10:31:08Z</time>
      </trkpt>
      <trkpt lat="42.8549860" lon="-1.5810500">
        <ele>476.8</ele>
        <time>2020-07-25T10:31:13Z</time>
      </trkpt>
      <trkpt lat="42.8550820" lon="-1.5809580">
        <ele>477.2</ele>
        <time>2020-07-25T10:31:16Z</time>
      </trkpt>
      <trkpt lat="42.8551470" lon="-1.5808920">
        <ele>477.6</ele>
        <time>2020-07-25T10:31:18Z</time>
      </trkpt>
      <trkpt lat="42.8552420" lon="-1.5807880">
        <ele>478.2</ele>
        <time>2020-07-25T10:31:21Z</time>
      </trkpt>
      <trkpt lat="42.8554670" lon="-1.5805410">
        <ele>479.2</ele>
        <time>2020-07-25T10:31:28Z</time>
      </trkpt>
      <trkpt lat="42.8555010" lon="-1.5805050">
        <ele>479.2</ele>
        <time>2020-07-25T10:31:29Z</time>
      </trkpt>
      <trkpt lat="42.8557790" lon="-1.5802140">
        <ele>480.0</ele>
        <time>2020-07-25T10:31:37Z</time>
      </trkpt>
      <trkpt lat="42.8559260" lon="-1.5800580">
        <ele>480.2</ele>
        <time>2020-07-25T10:31:41Z</time>
      </trkpt>
      <trkpt lat="42.8561990" lon="-1.5797530">
        <ele>480.4</ele>
        <time>2020-07-25T10:31:48Z</time>
      </trkpt>
      <trkpt lat="42.8565080" lon="-1.5793820">
        <ele>480.6</ele>
        <time>2020-07-25T10:31:55Z</time>
      </trkpt>
      <trkpt lat="42.8569340" lon="-1.5788740">
        <ele>479.8</ele>
        <time>2020-07-25T10:32:04Z</time>
      </trkpt>
      <trkpt lat="42.8570400" lon="-1.5787510">
        <ele>479.4</ele>
        <time>2020-07-25T10:32:06Z</time>
      </trkpt>
      <trkpt lat="42.8571530" lon="-1.5786200">
        <ele>479.2</ele>
        <time>2020-07-25T10:32:08Z</time>
      </trkpt>
      <trkpt lat="42.8575050" lon="-1.5781910">
        <ele>478.4</ele>
        <time>2020-07-25T10:32:14Z</time>
      </trkpt>
      <trkpt lat="42.8576940" lon="-1.5779550">
        <ele>477.6</ele>
        <time>2020-07-25T10:32:17Z</time>
      </trkpt>
      <trkpt lat="42.8578920" lon="-1.5777090">
        <ele>476.8</ele>
        <time>2020-07-25T10:32:20Z</time>
      </trkpt>
      <trkpt lat="42.8580250" lon="-1.5775390">
        <ele>476.4</ele>
        <time>2020-07-25T10:32:22Z</time>
      </trkpt>
      <trkpt lat="42.8582290" lon="-1.5772750">
        <ele>475.6</ele>
        <time>2020-07-25T10:32:25Z</time>
      </trkpt>
      <trkpt lat="42.8584380" lon="-1.5770010">
        <ele>474.2</ele>
        <time>2020-07-25T10:32:28Z</time>
      </trkpt>
      <trkpt lat="42.8587260" lon="-1.5766290">
        <ele>473.2</ele>
        <time>2020-07-25T10:32:32Z</time>
      </trkpt>
      <trkpt lat="42.8587980" lon="-1.5765350">
        <ele>472.8</ele>
        <time>2020-07-25T10:32:33Z</time>
      </trkpt>
      <trkpt lat="42.8592400" lon="-1.5759650">
        <ele>472.0</ele>
        <time>2020-07-25T10:32:39Z</time>
      </trkpt>
      <trkpt lat="42.8595340" lon="-1.5755870">
        <ele>471.8</ele>
        <time>2020-07-25T10:32:43Z</time>
      </trkpt>
      <trkpt lat="42.8597520" lon="-1.5753160">
        <ele>470.8</ele>
        <time>2020-07-25T10:32:46Z</time>
      </trkpt>
      <trkpt lat="42.8601600" lon="-1.5748740">
        <ele>470.4</ele>
        <time>2020-07-25T10:32:52Z</time>
      </trkpt>
      <trkpt lat="42.8602300" lon="-1.5748210">
        <ele>470.4</ele>
        <time>2020-07-25T10:32:53Z</time>
      </trkpt>
      <trkpt lat="42.8604510" lon="-1.5747040">
        <ele>470.4</ele>
        <time>2020-07-25T10:32:56Z</time>
      </trkpt>
      <trkpt lat="42.8608870" lon="-1.5745060">
        <ele>472.0</ele>
        <time>2020-07-25T10:33:02Z</time>
      </trkpt>
      <trkpt lat="42.8609540" lon="-1.5744670">
        <ele>472.2</ele>
        <time>2020-07-25T10:33:03Z</time>
      </trkpt>
      <trkpt lat="42.8612450" lon="-1.5742290">
        <ele>473.0</ele>
        <time>2020-07-25T10:33:08Z</time>
      </trkpt>
      <trkpt lat="42.8612970" lon="-1.5741810">
        <ele>473.0</ele>
        <time>2020-07-25T10:33:09Z</time>
      </trkpt>
      <trkpt lat="42.8615960" lon="-1.5739130">
        <ele>474.4</ele>
        <time>2020-07-25T10:33:15Z</time>
      </trkpt>
      <trkpt lat="42.8616480" lon="-1.5738750">
        <ele>475.0</ele>
        <time>2020-07-25T10:33:16Z</time>
      </trkpt>
      <trkpt lat="42.8617560" lon="-1.5737990">
        <ele>475.8</ele>
        <time>2020-07-25T10:33:18Z</time>
      </trkpt>
      <trkpt lat="42.8619850" lon="-1.5736590">
        <ele>476.8</ele>
        <time>2020-07-25T10:33:22Z</time>
      </trkpt>
      <trkpt lat="42.8621010" lon="-1.5735940">
        <ele>477.0</ele>
        <time>2020-07-25T10:33:24Z</time>
      </trkpt>
      <trkpt lat="42.8626120" lon="-1.5733320">
        <ele>477.4</ele>
        <time>2020-07-25T10:33:33Z</time>
      </trkpt>
      <trkpt lat="42.8627910" lon="-1.5732590">
        <ele>477.8</ele>
        <time>2020-07-25T10:33:36Z</time>
      </trkpt>
      <trkpt lat="42.8630530" lon="-1.5731850">
        <ele>478.4</ele>
        <time>2020-07-25T10:33:40Z</time>
      </trkpt>
      <trkpt lat="42.8635050" lon="-1.5730900">
        <ele>478.4</ele>
        <time>2020-07-25T10:33:46Z</time>
      </trkpt>
      <trkpt lat="42.8639920" lon="-1.5729870">
        <ele>476.6</ele>
        <time>2020-07-25T10:33:52Z</time>
      </trkpt>
      <trkpt lat="42.8641440" lon="-1.5729570">
        <ele>476.0</ele>
        <time>2020-07-25T10:33:54Z</time>
      </trkpt>
      <trkpt lat="42.8646890" lon="-1.5728440">
        <ele>475.8</ele>
        <time>2020-07-25T10:34:02Z</time>
      </trkpt>
      <trkpt lat="42.8647520" lon="-1.5728310">
        <ele>475.6</ele>
        <time>2020-07-25T10:34:03Z</time>
      </trkpt>
      <trkpt lat="42.8652290" lon="-1.5727120">
        <ele>476.4</ele>
        <time>2020-07-25T10:34:11Z</time>
      </trkpt>
      <trkpt lat="42.8655910" lon="-1.5726030">
        <ele>477.0</ele>
        <time>2020-07-25T10:34:18Z</time>
      </trkpt>
      <trkpt lat="42.8656870" lon="-1.5725680">
        <ele>477.6</ele>
        <time>2020-07-25T10:34:20Z</time>
      </trkpt>
      <trkpt lat="42.8659120" lon="-1.5724840">
        <ele>479.0</ele>
        <time>2020-07-25T10:34:25Z</time>
      </trkpt>
      <trkpt lat="42.8660410" lon="-1.5724330">
        <ele>479.4</ele>
        <time>2020-07-25T10:34:28Z</time>
      </trkpt>
      <trkpt lat="42.8662540" lon="-1.5723490">
        <ele>480.0</ele>
        <time>2020-07-25T10:34:33Z</time>
      </trkpt>
      <trkpt lat="42.8663820" lon="-1.5722980">
        <ele>480.4</ele>
        <time>2020-07-25T10:34:36Z</time>
      </trkpt>
      <trkpt lat="42.8664670" lon="-1.5722650">
        <ele>481.0</ele>
        <time>2020-07-25T10:34:38Z</time>
      </trkpt>
      <trkpt lat="42.8667620" lon="-1.5721480">
        <ele>482.0</ele>
        <time>2020-07-25T10:34:45Z</time>
      </trkpt>
      <trkpt lat="42.8669310" lon="-1.5720810">
        <ele>483.0</ele>
        <time>2020-07-25T10:34:49Z</time>
      </trkpt>
      <trkpt lat="42.8669730" lon="-1.5720640">
        <ele>483.2</ele>
        <time>2020-07-25T10:34:50Z</time>
      </trkpt>
      <trkpt lat="42.8672680" lon="-1.5719460">
        <ele>484.2</ele>
        <time>2020-07-25T10:34:57Z</time>
      </trkpt>
      <trkpt lat="42.8673090" lon="-1.5719300">
        <ele>484.2</ele>
        <time>2020-07-25T10:34:58Z</time>
      </trkpt>
      <trkpt lat="42.8675560" lon="-1.5718320">
        <ele>485.2</ele>
        <time>2020-07-25T10:35:04Z</time>
      </trkpt>
      <trkpt lat="42.8676800" lon="-1.5717830">
        <ele>486.2</ele>
        <time>2020-07-25T10:35:07Z</time>
      </trkpt>
      <trkpt lat="42.8677210" lon="-1.5717670">
        <ele>486.4</ele>
        <time>2020-07-25T10:35:08Z</time>
      </trkpt>
      <trkpt lat="42.8680060" lon="-1.5716590">
        <ele>487.6</ele>
        <time>2020-07-25T10:35:15Z</time>
      </trkpt>
      <trkpt lat="42.8681250" lon="-1.5716140">
        <ele>488.0</ele>
        <time>2020-07-25T10:35:18Z</time>
      </trkpt>
      <trkpt lat="42.8682460" lon="-1.5715740">
        <ele>488.6</ele>
        <time>2020-07-25T10:35:21Z</time>
      </trkpt>
      <trkpt lat="42.8684520" lon="-1.5715090">
        <ele>489.6</ele>
        <time>2020-07-25T10:35:26Z</time>
      </trkpt>
      <trkpt lat="42.8685330" lon="-1.5714890">
        <ele>490.0</ele>
        <time>2020-07-25T10:35:28Z</time>
      </trkpt>
      <trkpt lat="42.8687020" lon="-1.5714510">
        <ele>490.8</ele>
        <time>2020-07-25T10:35:32Z</time>
      </trkpt>
      <trkpt lat="42.8688790" lon="-1.5714330">
        <ele>491.4</ele>
        <time>2020-07-25T10:35:36Z</time>
      </trkpt>
      <trkpt lat="42.8690120" lon="-1.5714240">
        <ele>491.8</ele>
        <time>2020-07-25T10:35:39Z</time>
      </trkpt>
      <trkpt lat="42.8692830" lon="-1.5714150">
        <ele>493.0</ele>
        <time>2020-07-25T10:35:45Z</time>
      </trkpt>
      <trkpt lat="42.8693710" lon="-1.5714130">
        <ele>493.4</ele>
        <time>2020-07-25T10:35:47Z</time>
      </trkpt>
      <trkpt lat="42.8695960" lon="-1.5714030">
        <ele>494.0</ele>
        <time>2020-07-25T10:35:52Z</time>
      </trkpt>
      <trkpt lat="42.8698680" lon="-1.5713860">
        <ele>494.4</ele>
        <time>2020-07-25T10:35:58Z</time>
      </trkpt>
      <trkpt lat="42.8701830" lon="-1.5713480">
        <ele>494.8</ele>
        <time>2020-07-25T10:36:04Z</time>
      </trkpt>
      <trkpt lat="42.8705470" lon="-1.5712010">
        <ele>494.8</ele>
        <time>2020-07-25T10:36:10Z</time>
      </trkpt>
      <trkpt lat="42.8711050" lon="-1.5708620">
        <ele>493.8</ele>
        <time>2020-07-25T10:36:19Z</time>
      </trkpt>
      <trkpt lat="42.8714520" lon="-1.5706460">
        <ele>493.0</ele>
        <time>2020-07-25T10:36:24Z</time>
      </trkpt>
      <trkpt lat="42.8717560" lon="-1.5704810">
        <ele>492.0</ele>
        <time>2020-07-25T10:36:28Z</time>
      </trkpt>
      <trkpt lat="42.8718390" lon="-1.5704420">
        <ele>491.6</ele>
        <time>2020-07-25T10:36:29Z</time>
      </trkpt>
      <trkpt lat="42.8720120" lon="-1.5703650">
        <ele>490.6</ele>
        <time>2020-07-25T10:36:31Z</time>
      </trkpt>
      <trkpt lat="42.8722910" lon="-1.5702300">
        <ele>490.0</ele>
        <time>2020-07-25T10:36:34Z</time>
      </trkpt>
      <trkpt lat="42.8724870" lon="-1.5701200">
        <ele>489.2</ele>
        <time>2020-07-25T10:36:36Z</time>
      </trkpt>
      <trkpt lat="42.8727830" lon="-1.5699300">
        <ele>487.6</ele>
        <time>2020-07-25T10:36:39Z</time>
      </trkpt>
      <trkpt lat="42.8728840" lon="-1.5698630">
        <ele>486.8</ele>
        <time>2020-07-25T10:36:40Z</time>
      </trkpt>
      <trkpt lat="42.8729860" lon="-1.5697950">
        <ele>486.4</ele>
        <time>2020-07-25T10:36:41Z</time>
      </trkpt>
      <trkpt lat="42.8731960" lon="-1.5696570">
        <ele>485.2</ele>
        <time>2020-07-25T10:36:43Z</time>
      </trkpt>
      <trkpt lat="42.8734060" lon="-1.5695170">
        <ele>483.8</ele>
        <time>2020-07-25T10:36:45Z</time>
      </trkpt>
      <trkpt lat="42.8737270" lon="-1.5693080">
        <ele>482.2</ele>
        <time>2020-07-25T10:36:48Z</time>
      </trkpt>
      <trkpt lat="42.8738330" lon="-1.5692370">
        <ele>481.8</ele>
        <time>2020-07-25T10:36:49Z</time>
      </trkpt>
      <trkpt lat="42.8740390" lon="-1.5690970">
        <ele>480.8</ele>
        <time>2020-07-25T10:36:51Z</time>
      </trkpt>
      <trkpt lat="42.8742370" lon="-1.5689670">
        <ele>479.8</ele>
        <time>2020-07-25T10:36:53Z</time>
      </trkpt>
      <trkpt lat="42.8744240" lon="-1.5688420">
        <ele>479.2</ele>
        <time>2020-07-25T10:36:55Z</time>
      </trkpt>
      <trkpt lat="42.8745160" lon="-1.5687810">
        <ele>478.8</ele>
        <time>2020-07-25T10:36:56Z</time>
      </trkpt>
      <trkpt lat="42.8746960" lon="-1.5686610">
        <ele>477.4</ele>
        <time>2020-07-25T10:36:58Z</time>
      </trkpt>
      <trkpt lat="42.8748700" lon="-1.5685450">
        <ele>476.2</ele>
        <time>2020-07-25T10:37:00Z</time>
      </trkpt>
      <trkpt lat="42.8751220" lon="-1.5683800">
        <ele>475.8</ele>
        <time>2020-07-25T10:37:03Z</time>
      </trkpt>
      <trkpt lat="42.8756740" lon="-1.5680170">
        <ele>475.4</ele>
        <time>2020-07-25T10:37:10Z</time>
      </trkpt>
      <trkpt lat="42.8761790" lon="-1.5676780">
        <ele>475.6</ele>
        <time>2020-07-25T10:37:17Z</time>
      </trkpt>
      <trkpt lat="42.8762450" lon="-1.5676340">
        <ele>475.6</ele>
        <time>2020-07-25T10:37:18Z</time>
      </trkpt>
      <trkpt lat="42.8767310" lon="-1.5673170">
        <ele>476.4</ele>
        <time>2020-07-25T10:37:26Z</time>
      </trkpt>
      <trkpt lat="42.8769650" lon="-1.5671660">
        <ele>477.4</ele>
        <time>2020-07-25T10:37:30Z</time>
      </trkpt>
      <trkpt lat="42.8773270" lon="-1.5669400">
        <ele>478.2</ele>
        <time>2020-07-25T10:37:36Z</time>
      </trkpt>
      <trkpt lat="42.8775730" lon="-1.5667860">
        <ele>478.4</ele>
        <time>2020-07-25T10:37:40Z</time>
      </trkpt>
      <trkpt lat="42.8779530" lon="-1.5665560">
        <ele>478.8</ele>
        <time>2020-07-25T10:37:46Z</time>
      </trkpt>
      <trkpt lat="42.8784570" lon="-1.5662490">
        <ele>479.2</ele>
        <time>2020-07-25T10:37:54Z</time>
      </trkpt>
      <trkpt lat="42.8786470" lon="-1.5661340">
        <ele>479.4</ele>
        <time>2020-07-25T10:37:57Z</time>
      </trkpt>
      <trkpt lat="42.8790980" lon="-1.5658540">
        <ele>479.6</ele>
        <time>2020-07-25T10:38:04Z</time>
      </trkpt>
      <trkpt lat="42.8793550" lon="-1.5657030">
        <ele>479.6</ele>
        <time>2020-07-25T10:38:08Z</time>
      </trkpt>
      <trkpt lat="42.8798540" lon="-1.5654010">
        <ele>479.8</ele>
        <time>2020-07-25T10:38:16Z</time>
      </trkpt>
      <trkpt lat="42.8799750" lon="-1.5653170">
        <ele>480.0</ele>
        <time>2020-07-25T10:38:18Z</time>
      </trkpt>
      <trkpt lat="42.8802770" lon="-1.5651260">
        <ele>480.6</ele>
        <time>2020-07-25T10:38:23Z</time>
      </trkpt>
      <trkpt lat="42.8806450" lon="-1.5649010">
        <ele>480.8</ele>
        <time>2020-07-25T10:38:29Z</time>
      </trkpt>
      <trkpt lat="42.8811950" lon="-1.5645620">
        <ele>481.2</ele>
        <time>2020-07-25T10:38:38Z</time>
      </trkpt>
      <trkpt lat="42.8813780" lon="-1.5644490">
        <ele>481.2</ele>
        <time>2020-07-25T10:38:41Z</time>
      </trkpt>
      <trkpt lat="42.8816260" lon="-1.5643070">
        <ele>481.6</ele>
        <time>2020-07-25T10:38:45Z</time>
      </trkpt>
      <trkpt lat="42.8819350" lon="-1.5641520">
        <ele>482.6</ele>
        <time>2020-07-25T10:38:50Z</time>
      </trkpt>
      <trkpt lat="42.8819980" lon="-1.5641260">
        <ele>483.0</ele>
        <time>2020-07-25T10:38:51Z</time>
      </trkpt>
      <trkpt lat="42.8825100" lon="-1.5639820">
        <ele>483.6</ele>
        <time>2020-07-25T10:38:59Z</time>
      </trkpt>
      <trkpt lat="42.8827030" lon="-1.5639510">
        <ele>484.0</ele>
        <time>2020-07-25T10:39:02Z</time>
      </trkpt>
      <trkpt lat="42.8829670" lon="-1.5639100">
        <ele>484.6</ele>
        <time>2020-07-25T10:39:06Z</time>
      </trkpt>
      <trkpt lat="42.8831640" lon="-1.5638860">
        <ele>485.0</ele>
        <time>2020-07-25T10:39:09Z</time>
      </trkpt>
      <trkpt lat="42.8835380" lon="-1.5638320">
        <ele>485.6</ele>
        <time>2020-07-25T10:39:15Z</time>
      </trkpt>
      <trkpt lat="42.8837760" lon="-1.5637990">
        <ele>486.2</ele>
        <time>2020-07-25T10:39:19Z</time>
      </trkpt>
      <trkpt lat="42.8840840" lon="-1.5637750">
        <ele>486.2</ele>
        <time>2020-07-25T10:39:24Z</time>
      </trkpt>
      <trkpt lat="42.8846090" lon="-1.5637710">
        <ele>486.2</ele>
        <time>2020-07-25T10:39:32Z</time>
      </trkpt>
      <trkpt lat="42.8851290" lon="-1.5637860">
        <ele>485.0</ele>
        <time>2020-07-25T10:39:39Z</time>
      </trkpt>
      <trkpt lat="42.8856680" lon="-1.5637780">
        <ele>484.0</ele>
        <time>2020-07-25T10:39:45Z</time>
      </trkpt>
      <trkpt lat="42.8857620" lon="-1.5637660">
        <ele>483.8</ele>
        <time>2020-07-25T10:39:46Z</time>
      </trkpt>
      <trkpt lat="42.8859440" lon="-1.5637270">
        <ele>482.6</ele>
        <time>2020-07-25T10:39:48Z</time>
      </trkpt>
      <trkpt lat="42.8861160" lon="-1.5636710">
        <ele>482.4</ele>
        <time>2020-07-25T10:39:50Z</time>
      </trkpt>
      <trkpt lat="42.8863530" lon="-1.5635560">
        <ele>481.6</ele>
        <time>2020-07-25T10:39:53Z</time>
      </trkpt>
      <trkpt lat="42.8865740" lon="-1.5634120">
        <ele>481.2</ele>
        <time>2020-07-25T10:39:56Z</time>
      </trkpt>
      <trkpt lat="42.8869500" lon="-1.5630690">
        <ele>481.4</ele>
        <time>2020-07-25T10:40:02Z</time>
      </trkpt>
      <trkpt lat="42.8872370" lon="-1.5627310">
        <ele>482.6</ele>
        <time>2020-07-25T10:40:08Z</time>
      </trkpt>
      <trkpt lat="42.8872840" lon="-1.5626780">
        <ele>483.0</ele>
        <time>2020-07-25T10:40:09Z</time>
      </trkpt>
      <trkpt lat="42.8873740" lon="-1.5625730">
        <ele>483.8</ele>
        <time>2020-07-25T10:40:11Z</time>
      </trkpt>
      <trkpt lat="42.8876030" lon="-1.5623030">
        <ele>485.4</ele>
        <time>2020-07-25T10:40:16Z</time>
      </trkpt>
      <trkpt lat="42.8876970" lon="-1.5621900">
        <ele>486.0</ele>
        <time>2020-07-25T10:40:18Z</time>
      </trkpt>
      <trkpt lat="42.8877930" lon="-1.5620810">
        <ele>486.4</ele>
        <time>2020-07-25T10:40:20Z</time>
      </trkpt>
      <trkpt lat="42.8880630" lon="-1.5617600">
        <ele>487.4</ele>
        <time>2020-07-25T10:40:26Z</time>
      </trkpt>
      <trkpt lat="42.8882480" lon="-1.5615420">
        <ele>487.6</ele>
        <time>2020-07-25T10:40:30Z</time>
      </trkpt>
      <trkpt lat="42.8884270" lon="-1.5613340">
        <ele>487.8</ele>
        <time>2020-07-25T10:40:34Z</time>
      </trkpt>
      <trkpt lat="42.8888670" lon="-1.5608140">
        <ele>488.0</ele>
        <time>2020-07-25T10:40:44Z</time>
      </trkpt>
      <trkpt lat="42.8889120" lon="-1.5607610">
        <ele>488.0</ele>
        <time>2020-07-25T10:40:45Z</time>
      </trkpt>
      <trkpt lat="42.8893420" lon="-1.5602510">
        <ele>488.0</ele>
        <time>2020-07-25T10:40:55Z</time>
      </trkpt>
      <trkpt lat="42.8893840" lon="-1.5601990">
        <ele>488.0</ele>
        <time>2020-07-25T10:40:56Z</time>
      </trkpt>
      <trkpt lat="42.8895970" lon="-1.5599480">
        <ele>488.6</ele>
        <time>2020-07-25T10:41:01Z</time>
      </trkpt>
      <trkpt lat="42.8897260" lon="-1.5597960">
        <ele>488.8</ele>
        <time>2020-07-25T10:41:04Z</time>
      </trkpt>
      <trkpt lat="42.8901630" lon="-1.5592820">
        <ele>489.4</ele>
        <time>2020-07-25T10:41:14Z</time>
      </trkpt>
      <trkpt lat="42.8905590" lon="-1.5588170">
        <ele>489.2</ele>
        <time>2020-07-25T10:41:23Z</time>
      </trkpt>
      <trkpt lat="42.8909190" lon="-1.5583910">
        <ele>489.4</ele>
        <time>2020-07-25T10:41:31Z</time>
      </trkpt>
      <trkpt lat="42.8913390" lon="-1.5578930">
        <ele>489.6</ele>
        <time>2020-07-25T10:41:40Z</time>
      </trkpt>
      <trkpt lat="42.8914320" lon="-1.5577810">
        <ele>489.6</ele>
        <time>2020-07-25T10:41:42Z</time>
      </trkpt>
      <trkpt lat="42.8918690" lon="-1.5572610">
        <ele>489.6</ele>
        <time>2020-07-25T10:41:51Z</time>
      </trkpt>
      <trkpt lat="42.8919680" lon="-1.5571440">
        <ele>489.8</ele>
        <time>2020-07-25T10:41:53Z</time>
      </trkpt>
      <trkpt lat="42.8924120" lon="-1.5566070">
        <ele>490.2</ele>
        <time>2020-07-25T10:42:02Z</time>
      </trkpt>
      <trkpt lat="42.8924610" lon="-1.5565510">
        <ele>490.2</ele>
        <time>2020-07-25T10:42:03Z</time>
      </trkpt>
      <trkpt lat="42.8929490" lon="-1.5560690">
        <ele>490.6</ele>
        <time>2020-07-25T10:42:12Z</time>
      </trkpt>
      <trkpt lat="42.8934490" lon="-1.5556860">
        <ele>490.8</ele>
        <time>2020-07-25T10:42:20Z</time>
      </trkpt>
      <trkpt lat="42.8935110" lon="-1.5556400">
        <ele>490.8</ele>
        <time>2020-07-25T10:42:21Z</time>
      </trkpt>
      <trkpt lat="42.8939980" lon="-1.5552850">
        <ele>489.8</ele>
        <time>2020-07-25T10:42:29Z</time>
      </trkpt>
      <trkpt lat="42.8940570" lon="-1.5552430">
        <ele>489.8</ele>
        <time>2020-07-25T10:42:30Z</time>
      </trkpt>
      <trkpt lat="42.8944210" lon="-1.5550070">
        <ele>489.4</ele>
        <time>2020-07-25T10:42:36Z</time>
      </trkpt>
      <trkpt lat="42.8949250" lon="-1.5547060">
        <ele>489.2</ele>
        <time>2020-07-25T10:42:44Z</time>
      </trkpt>
      <trkpt lat="42.8949880" lon="-1.5546690">
        <ele>489.2</ele>
        <time>2020-07-25T10:42:45Z</time>
      </trkpt>
      <trkpt lat="42.8954740" lon="-1.5543500">
        <ele>489.0</ele>
        <time>2020-07-25T10:42:53Z</time>
      </trkpt>
      <trkpt lat="42.8955310" lon="-1.5543080">
        <ele>489.0</ele>
        <time>2020-07-25T10:42:54Z</time>
      </trkpt>
      <trkpt lat="42.8959840" lon="-1.5539580">
        <ele>489.4</ele>
        <time>2020-07-25T10:43:02Z</time>
      </trkpt>
      <trkpt lat="42.8964550" lon="-1.5535890">
        <ele>490.2</ele>
        <time>2020-07-25T10:43:10Z</time>
      </trkpt>
      <trkpt lat="42.8968480" lon="-1.5532610">
        <ele>490.6</ele>
        <time>2020-07-25T10:43:17Z</time>
      </trkpt>
      <trkpt lat="42.8969010" lon="-1.5532070">
        <ele>490.6</ele>
        <time>2020-07-25T10:43:18Z</time>
      </trkpt>
      <trkpt lat="42.8971350" lon="-1.5528950">
        <ele>491.2</ele>
        <time>2020-07-25T10:43:23Z</time>
      </trkpt>
      <trkpt lat="42.8974920" lon="-1.5523290">
        <ele>491.6</ele>
        <time>2020-07-25T10:43:31Z</time>
      </trkpt>
      <trkpt lat="42.8975850" lon="-1.5521860">
        <ele>491.8</ele>
        <time>2020-07-25T10:43:33Z</time>
      </trkpt>
      <trkpt lat="42.8979610" lon="-1.5515770">
        <ele>492.4</ele>
        <time>2020-07-25T10:43:42Z</time>
      </trkpt>
      <trkpt lat="42.8980440" lon="-1.5514400">
        <ele>492.8</ele>
        <time>2020-07-25T10:43:44Z</time>
      </trkpt>
      <trkpt lat="42.8982530" lon="-1.5510850">
        <ele>493.2</ele>
        <time>2020-07-25T10:43:49Z</time>
      </trkpt>
      <trkpt lat="42.8985980" lon="-1.5505210">
        <ele>493.4</ele>
        <time>2020-07-25T10:43:57Z</time>
      </trkpt>
      <trkpt lat="42.8987830" lon="-1.5502250">
        <ele>494.0</ele>
        <time>2020-07-25T10:44:01Z</time>
      </trkpt>
      <trkpt lat="42.8989760" lon="-1.5499230">
        <ele>494.2</ele>
        <time>2020-07-25T10:44:05Z</time>
      </trkpt>
      <trkpt lat="42.8993590" lon="-1.5493120">
        <ele>494.4</ele>
        <time>2020-07-25T10:44:13Z</time>
      </trkpt>
      <trkpt lat="42.8997210" lon="-1.5487130">
        <ele>494.6</ele>
        <time>2020-07-25T10:44:21Z</time>
      </trkpt>
      <trkpt lat="42.8997630" lon="-1.5486400">
        <ele>494.4</ele>
        <time>2020-07-25T10:44:22Z</time>
      </trkpt>
      <trkpt lat="42.8998710" lon="-1.5484460">
        <ele>495.0</ele>
        <time>2020-07-25T10:44:25Z</time>
      </trkpt>
      <trkpt lat="42.9000580" lon="-1.5480170">
        <ele>497.8</ele>
        <time>2020-07-25T10:48:59Z</time>
      </trkpt>
      <trkpt lat="42.9001990" lon="-1.5475950">
        <ele>497.8</ele>
        <time>2020-07-25T10:49:06Z</time>
      </trkpt>
      <trkpt lat="42.9003470" lon="-1.5469530">
        <ele>497.6</ele>
        <time>2020-07-25T10:49:15Z</time>
      </trkpt>
      <trkpt lat="42.9004620" lon="-1.5462470">
        <ele>497.6</ele>
        <time>2020-07-25T10:49:24Z</time>
      </trkpt>
      <trkpt lat="42.9005740" lon="-1.5455700">
        <ele>498.0</ele>
        <time>2020-07-25T10:49:32Z</time>
      </trkpt>
      <trkpt lat="42.9007880" lon="-1.5448750">
        <ele>498.2</ele>
        <time>2020-07-25T10:49:40Z</time>
      </trkpt>
      <trkpt lat="42.9010750" lon="-1.5443590">
        <ele>498.2</ele>
        <time>2020-07-25T10:49:47Z</time>
      </trkpt>
      <trkpt lat="42.9012530" lon="-1.5440980">
        <ele>499.2</ele>
        <time>2020-07-25T10:49:51Z</time>
      </trkpt>
      <trkpt lat="42.9014430" lon="-1.5438720">
        <ele>500.0</ele>
        <time>2020-07-25T10:49:55Z</time>
      </trkpt>
      <trkpt lat="42.9015360" lon="-1.5437640">
        <ele>500.2</ele>
        <time>2020-07-25T10:49:57Z</time>
      </trkpt>
      <trkpt lat="42.9018650" lon="-1.5433870">
        <ele>501.4</ele>
        <time>2020-07-25T10:50:04Z</time>
      </trkpt>
      <trkpt lat="42.9019120" lon="-1.5433310">
        <ele>501.4</ele>
        <time>2020-07-25T10:50:05Z</time>
      </trkpt>
      <trkpt lat="42.9022970" lon="-1.5429000">
        <ele>502.4</ele>
        <time>2020-07-25T10:50:13Z</time>
      </trkpt>
      <trkpt lat="42.9023910" lon="-1.5427910">
        <ele>502.6</ele>
        <time>2020-07-25T10:50:15Z</time>
      </trkpt>
      <trkpt lat="42.9026990" lon="-1.5423890">
        <ele>503.0</ele>
        <time>2020-07-25T10:50:22Z</time>
      </trkpt>
      <trkpt lat="42.9028220" lon="-1.5422020">
        <ele>503.4</ele>
        <time>2020-07-25T10:50:25Z</time>
      </trkpt>
      <trkpt lat="42.9029740" lon="-1.5419280">
        <ele>503.6</ele>
        <time>2020-07-25T10:50:29Z</time>
      </trkpt>
      <trkpt lat="42.9032130" lon="-1.5413050">
        <ele>504.0</ele>
        <time>2020-07-25T10:50:37Z</time>
      </trkpt>
      <trkpt lat="42.9033470" lon="-1.5406950">
        <ele>503.8</ele>
        <time>2020-07-25T10:50:44Z</time>
      </trkpt>
      <trkpt lat="42.9034560" lon="-1.5399610">
        <ele>503.4</ele>
        <time>2020-07-25T10:50:52Z</time>
      </trkpt>
      <trkpt lat="42.9035890" lon="-1.5393260">
        <ele>503.0</ele>
        <time>2020-07-25T10:50:59Z</time>
      </trkpt>
      <trkpt lat="42.9038140" lon="-1.5387320">
        <ele>503.0</ele>
        <time>2020-07-25T10:51:06Z</time>
      </trkpt>
      <trkpt lat="42.9040830" lon="-1.5382750">
        <ele>503.0</ele>
        <time>2020-07-25T10:51:12Z</time>
      </trkpt>
      <trkpt lat="42.9045010" lon="-1.5377250">
        <ele>503.2</ele>
        <time>2020-07-25T10:51:20Z</time>
      </trkpt>
      <trkpt lat="42.9045550" lon="-1.5376590">
        <ele>503.2</ele>
        <time>2020-07-25T10:51:21Z</time>
      </trkpt>
      <trkpt lat="42.9048780" lon="-1.5372690">
        <ele>502.2</ele>
        <time>2020-07-25T10:51:27Z</time>
      </trkpt>
      <trkpt lat="42.9050360" lon="-1.5370780">
        <ele>502.2</ele>
        <time>2020-07-25T10:51:30Z</time>
      </trkpt>
      <trkpt lat="42.9054600" lon="-1.5365600">
        <ele>502.6</ele>
        <time>2020-07-25T10:51:38Z</time>
      </trkpt>
      <trkpt lat="42.9056170" lon="-1.5363670">
        <ele>502.8</ele>
        <time>2020-07-25T10:51:41Z</time>
      </trkpt>
      <trkpt lat="42.9060360" lon="-1.5358900">
        <ele>503.2</ele>
        <time>2020-07-25T10:51:49Z</time>
      </trkpt>
      <trkpt lat="42.9063190" lon="-1.5356770">
        <ele>503.2</ele>
        <time>2020-07-25T10:51:54Z</time>
      </trkpt>
      <trkpt lat="42.9063810" lon="-1.5356470">
        <ele>503.6</ele>
        <time>2020-07-25T10:51:55Z</time>
      </trkpt>
      <trkpt lat="42.9068950" lon="-1.5354600">
        <ele>504.2</ele>
        <time>2020-07-25T10:52:03Z</time>
      </trkpt>
      <trkpt lat="42.9071460" lon="-1.5353790">
        <ele>504.4</ele>
        <time>2020-07-25T10:52:07Z</time>
      </trkpt>
      <trkpt lat="42.9074030" lon="-1.5352950">
        <ele>504.6</ele>
        <time>2020-07-25T10:52:11Z</time>
      </trkpt>
      <trkpt lat="42.9077950" lon="-1.5351530">
        <ele>504.6</ele>
        <time>2020-07-25T10:52:17Z</time>
      </trkpt>
      <trkpt lat="42.9082110" lon="-1.5349230">
        <ele>504.6</ele>
        <time>2020-07-25T10:52:24Z</time>
      </trkpt>
      <trkpt lat="42.9085200" lon="-1.5346640">
        <ele>505.0</ele>
        <time>2020-07-25T10:52:30Z</time>
      </trkpt>
      <trkpt lat="42.9086620" lon="-1.5345140">
        <ele>505.4</ele>
        <time>2020-07-25T10:52:33Z</time>
      </trkpt>
      <trkpt lat="42.9088260" lon="-1.5342980">
        <ele>506.0</ele>
        <time>2020-07-25T10:52:37Z</time>
      </trkpt>
      <trkpt lat="42.9089670" lon="-1.5340700">
        <ele>506.4</ele>
        <time>2020-07-25T10:52:41Z</time>
      </trkpt>
      <trkpt lat="42.9090950" lon="-1.5338230">
        <ele>507.4</ele>
        <time>2020-07-25T10:52:45Z</time>
      </trkpt>
      <trkpt lat="42.9091500" lon="-1.5336890">
        <ele>507.8</ele>
        <time>2020-07-25T10:52:47Z</time>
      </trkpt>
      <trkpt lat="42.9093250" lon="-1.5331870">
        <ele>508.8</ele>
        <time>2020-07-25T10:52:54Z</time>
      </trkpt>
      <trkpt lat="42.9094350" lon="-1.5328050">
        <ele>508.8</ele>
        <time>2020-07-25T10:52:59Z</time>
      </trkpt>
      <trkpt lat="42.9095230" lon="-1.5324930">
        <ele>509.0</ele>
        <time>2020-07-25T10:53:03Z</time>
      </trkpt>
      <trkpt lat="42.9097280" lon="-1.5317820">
        <ele>509.4</ele>
        <time>2020-07-25T10:53:12Z</time>
      </trkpt>
      <trkpt lat="42.9099290" lon="-1.5310860">
        <ele>509.8</ele>
        <time>2020-07-25T10:53:21Z</time>
      </trkpt>
      <trkpt lat="42.9099500" lon="-1.5310110">
        <ele>510.0</ele>
        <time>2020-07-25T10:53:22Z</time>
      </trkpt>
      <trkpt lat="42.9099930" lon="-1.5308620">
        <ele>510.0</ele>
        <time>2020-07-25T10:53:24Z</time>
      </trkpt>
      <trkpt lat="42.9101620" lon="-1.5302710">
        <ele>510.4</ele>
        <time>2020-07-25T10:53:32Z</time>
      </trkpt>
      <trkpt lat="42.9103060" lon="-1.5297540">
        <ele>511.0</ele>
        <time>2020-07-25T10:53:39Z</time>
      </trkpt>
      <trkpt lat="42.9103890" lon="-1.5294590">
        <ele>511.4</ele>
        <time>2020-07-25T10:53:43Z</time>
      </trkpt>
      <trkpt lat="42.9105930" lon="-1.5287100">
        <ele>512.0</ele>
        <time>2020-07-25T10:53:53Z</time>
      </trkpt>
      <trkpt lat="42.9106130" lon="-1.5286340">
        <ele>512.0</ele>
        <time>2020-07-25T10:53:54Z</time>
      </trkpt>
      <trkpt lat="42.9106340" lon="-1.5285580">
        <ele>512.0</ele>
        <time>2020-07-25T10:53:55Z</time>
      </trkpt>
      <trkpt lat="42.9108390" lon="-1.5277960">
        <ele>512.8</ele>
        <time>2020-07-25T10:54:05Z</time>
      </trkpt>
      <trkpt lat="42.9108600" lon="-1.5277160">
        <ele>512.8</ele>
        <time>2020-07-25T10:54:06Z</time>
      </trkpt>
      <trkpt lat="42.9109140" lon="-1.5274710">
        <ele>513.0</ele>
        <time>2020-07-25T10:54:09Z</time>
      </trkpt>
      <trkpt lat="42.9109870" lon="-1.5270360">
        <ele>513.2</ele>
        <time>2020-07-25T10:54:14Z</time>
      </trkpt>
      <trkpt lat="42.9110590" lon="-1.5263020">
        <ele>513.2</ele>
        <time>2020-07-25T10:54:22Z</time>
      </trkpt>
      <trkpt lat="42.9110770" lon="-1.5260180">
        <ele>513.0</ele>
        <time>2020-07-25T10:54:25Z</time>
      </trkpt>
      <trkpt lat="42.9111240" lon="-1.5252470">
        <ele>512.6</ele>
        <time>2020-07-25T10:54:33Z</time>
      </trkpt>
      <trkpt lat="42.9111690" lon="-1.5247680">
        <ele>512.6</ele>
        <time>2020-07-25T10:54:38Z</time>
      </trkpt>
      <trkpt lat="42.9113190" lon="-1.5241230">
        <ele>512.8</ele>
        <time>2020-07-25T10:54:45Z</time>
      </trkpt>
      <trkpt lat="42.9115450" lon="-1.5236280">
        <ele>513.2</ele>
        <time>2020-07-25T10:54:51Z</time>
      </trkpt>
      <trkpt lat="42.9118990" lon="-1.5231450">
        <ele>513.4</ele>
        <time>2020-07-25T10:54:58Z</time>
      </trkpt>
      <trkpt lat="42.9123230" lon="-1.5227890">
        <ele>513.6</ele>
        <time>2020-07-25T10:55:05Z</time>
      </trkpt>
      <trkpt lat="42.9127850" lon="-1.5224980">
        <ele>514.0</ele>
        <time>2020-07-25T10:55:12Z</time>
      </trkpt>
      <trkpt lat="42.9133060" lon="-1.5221570">
        <ele>514.0</ele>
        <time>2020-07-25T10:55:20Z</time>
      </trkpt>
      <trkpt lat="42.9133690" lon="-1.5221090">
        <ele>514.0</ele>
        <time>2020-07-25T10:55:21Z</time>
      </trkpt>
      <trkpt lat="42.9137200" lon="-1.5217710">
        <ele>514.0</ele>
        <time>2020-07-25T10:55:27Z</time>
      </trkpt>
      <trkpt lat="42.9139260" lon="-1.5215060">
        <ele>514.0</ele>
        <time>2020-07-25T10:55:31Z</time>
      </trkpt>
      <trkpt lat="42.9139730" lon="-1.5214350">
        <ele>514.0</ele>
        <time>2020-07-25T10:55:32Z</time>
      </trkpt>
      <trkpt lat="42.9140140" lon="-1.5213610">
        <ele>514.2</ele>
        <time>2020-07-25T10:55:33Z</time>
      </trkpt>
      <trkpt lat="42.9141820" lon="-1.5210600">
        <ele>514.2</ele>
        <time>2020-07-25T10:55:37Z</time>
      </trkpt>
      <trkpt lat="42.9144260" lon="-1.5206050">
        <ele>514.8</ele>
        <time>2020-07-25T10:55:43Z</time>
      </trkpt>
      <trkpt lat="42.9144630" lon="-1.5205280">
        <ele>515.0</ele>
        <time>2020-07-25T10:55:44Z</time>
      </trkpt>
      <trkpt lat="42.9145520" lon="-1.5203730">
        <ele>515.4</ele>
        <time>2020-07-25T10:55:46Z</time>
      </trkpt>
      <trkpt lat="42.9146080" lon="-1.5202990">
        <ele>515.4</ele>
        <time>2020-07-25T10:55:47Z</time>
      </trkpt>
      <trkpt lat="42.9147940" lon="-1.5199470">
        <ele>515.8</ele>
        <time>2020-07-25T10:55:52Z</time>
      </trkpt>
      <trkpt lat="42.9149660" lon="-1.5196080">
        <ele>516.2</ele>
        <time>2020-07-25T10:55:57Z</time>
      </trkpt>
      <trkpt lat="42.9151260" lon="-1.5192730">
        <ele>517.0</ele>
        <time>2020-07-25T10:56:02Z</time>
      </trkpt>
      <trkpt lat="42.9151730" lon="-1.5192060">
        <ele>517.2</ele>
        <time>2020-07-25T10:56:03Z</time>
      </trkpt>
      <trkpt lat="42.9152540" lon="-1.5190770">
        <ele>517.4</ele>
        <time>2020-07-25T10:56:05Z</time>
      </trkpt>
      <trkpt lat="42.9152800" lon="-1.5190150">
        <ele>517.6</ele>
        <time>2020-07-25T10:56:06Z</time>
      </trkpt>
      <trkpt lat="42.9153580" lon="-1.5188990">
        <ele>518.0</ele>
        <time>2020-07-25T10:56:08Z</time>
      </trkpt>
      <trkpt lat="42.9154160" lon="-1.5188430">
        <ele>518.2</ele>
        <time>2020-07-25T10:56:09Z</time>
      </trkpt>
      <trkpt lat="42.9154680" lon="-1.5187880">
        <ele>518.6</ele>
        <time>2020-07-25T10:56:10Z</time>
      </trkpt>
      <trkpt lat="42.9155790" lon="-1.5186850">
        <ele>519.0</ele>
        <time>2020-07-25T10:56:12Z</time>
      </trkpt>
      <trkpt lat="42.9156320" lon="-1.5186360">
        <ele>519.2</ele>
        <time>2020-07-25T10:56:13Z</time>
      </trkpt>
      <trkpt lat="42.9157330" lon="-1.5185370">
        <ele>519.2</ele>
        <time>2020-07-25T10:56:15Z</time>
      </trkpt>
      <trkpt lat="42.9157960" lon="-1.5184930">
        <ele>519.4</ele>
        <time>2020-07-25T10:56:16Z</time>
      </trkpt>
      <trkpt lat="42.9160260" lon="-1.5183130">
        <ele>519.6</ele>
        <time>2020-07-25T10:56:20Z</time>
      </trkpt>
      <trkpt lat="42.9162580" lon="-1.5181220">
        <ele>519.6</ele>
        <time>2020-07-25T10:56:24Z</time>
      </trkpt>
      <trkpt lat="42.9166740" lon="-1.5177840">
        <ele>519.4</ele>
        <time>2020-07-25T10:56:31Z</time>
      </trkpt>
      <trkpt lat="42.9167380" lon="-1.5177370">
        <ele>519.4</ele>
        <time>2020-07-25T10:56:32Z</time>
      </trkpt>
      <trkpt lat="42.9168700" lon="-1.5176420">
        <ele>519.2</ele>
        <time>2020-07-25T10:56:34Z</time>
      </trkpt>
      <trkpt lat="42.9170200" lon="-1.5174790">
        <ele>519.2</ele>
        <time>2020-07-25T10:56:37Z</time>
      </trkpt>
      <trkpt lat="42.9170790" lon="-1.5174280">
        <ele>519.2</ele>
        <time>2020-07-25T10:56:38Z</time>
      </trkpt>
      <trkpt lat="42.9174890" lon="-1.5170610">
        <ele>519.2</ele>
        <time>2020-07-25T10:56:45Z</time>
      </trkpt>
      <trkpt lat="42.9179780" lon="-1.5166330">
        <ele>519.2</ele>
        <time>2020-07-25T10:56:53Z</time>
      </trkpt>
      <trkpt lat="42.9180360" lon="-1.5165790">
        <ele>519.2</ele>
        <time>2020-07-25T10:56:54Z</time>
      </trkpt>
      <trkpt lat="42.9184270" lon="-1.5162530">
        <ele>519.2</ele>
        <time>2020-07-25T10:57:00Z</time>
      </trkpt>
      <trkpt lat="42.9187340" lon="-1.5159510">
        <ele>518.8</ele>
        <time>2020-07-25T10:57:05Z</time>
      </trkpt>
      <trkpt lat="42.9190400" lon="-1.5155550">
        <ele>518.8</ele>
        <time>2020-07-25T10:57:11Z</time>
      </trkpt>
      <trkpt lat="42.9193030" lon="-1.5152420">
        <ele>519.2</ele>
        <time>2020-07-25T10:57:16Z</time>
      </trkpt>
      <trkpt lat="42.9193590" lon="-1.5151820">
        <ele>519.2</ele>
        <time>2020-07-25T10:57:17Z</time>
      </trkpt>
      <trkpt lat="42.9195860" lon="-1.5148740">
        <ele>520.6</ele>
        <time>2020-07-25T10:57:22Z</time>
      </trkpt>
      <trkpt lat="42.9196460" lon="-1.5148150">
        <ele>520.8</ele>
        <time>2020-07-25T10:57:23Z</time>
      </trkpt>
      <trkpt lat="42.9198240" lon="-1.5145690">
        <ele>521.4</ele>
        <time>2020-07-25T10:57:27Z</time>
      </trkpt>
      <trkpt lat="42.9199030" lon="-1.5144410">
        <ele>521.6</ele>
        <time>2020-07-25T10:57:29Z</time>
      </trkpt>
      <trkpt lat="42.9201280" lon="-1.5140560">
        <ele>522.8</ele>
        <time>2020-07-25T10:57:35Z</time>
      </trkpt>
      <trkpt lat="42.9201970" lon="-1.5139330">
        <ele>522.8</ele>
        <time>2020-07-25T10:57:37Z</time>
      </trkpt>
      <trkpt lat="42.9204280" lon="-1.5135080">
        <ele>523.8</ele>
        <time>2020-07-25T10:57:44Z</time>
      </trkpt>
      <trkpt lat="42.9205280" lon="-1.5133330">
        <ele>524.2</ele>
        <time>2020-07-25T10:57:47Z</time>
      </trkpt>
      <trkpt lat="42.9207010" lon="-1.5130390">
        <ele>525.0</ele>
        <time>2020-07-25T10:57:52Z</time>
      </trkpt>
      <trkpt lat="42.9209240" lon="-1.5126880">
        <ele>526.0</ele>
        <time>2020-07-25T10:57:58Z</time>
      </trkpt>
      <trkpt lat="42.9209880" lon="-1.5125680">
        <ele>526.4</ele>
        <time>2020-07-25T10:58:00Z</time>
      </trkpt>
      <trkpt lat="42.9210990" lon="-1.5123950">
        <ele>526.6</ele>
        <time>2020-07-25T10:58:03Z</time>
      </trkpt>
      <trkpt lat="42.9212390" lon="-1.5121640">
        <ele>527.0</ele>
        <time>2020-07-25T10:58:07Z</time>
      </trkpt>
      <trkpt lat="42.9213920" lon="-1.5119510">
        <ele>527.8</ele>
        <time>2020-07-25T10:58:11Z</time>
      </trkpt>
      <trkpt lat="42.9214740" lon="-1.5118500">
        <ele>528.0</ele>
        <time>2020-07-25T10:58:13Z</time>
      </trkpt>
      <trkpt lat="42.9216860" lon="-1.5115920">
        <ele>528.8</ele>
        <time>2020-07-25T10:58:18Z</time>
      </trkpt>
      <trkpt lat="42.9217290" lon="-1.5115390">
        <ele>529.0</ele>
        <time>2020-07-25T10:58:19Z</time>
      </trkpt>
      <trkpt lat="42.9218670" lon="-1.5113790">
        <ele>529.4</ele>
        <time>2020-07-25T10:58:22Z</time>
      </trkpt>
      <trkpt lat="42.9219640" lon="-1.5112710">
        <ele>529.6</ele>
        <time>2020-07-25T10:58:24Z</time>
      </trkpt>
      <trkpt lat="42.9223350" lon="-1.5108260">
        <ele>529.8</ele>
        <time>2020-07-25T10:58:32Z</time>
      </trkpt>
      <trkpt lat="42.9226190" lon="-1.5104840">
        <ele>530.2</ele>
        <time>2020-07-25T10:58:38Z</time>
      </trkpt>
      <trkpt lat="42.9226680" lon="-1.5104260">
        <ele>530.2</ele>
        <time>2020-07-25T10:58:39Z</time>
      </trkpt>
      <trkpt lat="42.9231100" lon="-1.5099180">
        <ele>530.4</ele>
        <time>2020-07-25T10:58:48Z</time>
      </trkpt>
      <trkpt lat="42.9235370" lon="-1.5094600">
        <ele>530.8</ele>
        <time>2020-07-25T10:58:56Z</time>
      </trkpt>
      <trkpt lat="42.9235970" lon="-1.5094040">
        <ele>530.8</ele>
        <time>2020-07-25T10:58:57Z</time>
      </trkpt>
      <trkpt lat="42.9240500" lon="-1.5090440">
        <ele>530.8</ele>
        <time>2020-07-25T10:59:04Z</time>
      </trkpt>
      <trkpt lat="42.9245350" lon="-1.5086750">
        <ele>529.0</ele>
        <time>2020-07-25T10:59:11Z</time>
      </trkpt>
      <trkpt lat="42.9246740" lon="-1.5085670">
        <ele>529.0</ele>
        <time>2020-07-25T10:59:13Z</time>
      </trkpt>
      <trkpt lat="42.9251620" lon="-1.5082000">
        <ele>528.2</ele>
        <time>2020-07-25T10:59:20Z</time>
      </trkpt>
      <trkpt lat="42.9252330" lon="-1.5081480">
        <ele>528.0</ele>
        <time>2020-07-25T10:59:21Z</time>
      </trkpt>
      <trkpt lat="42.9253710" lon="-1.5080460">
        <ele>528.0</ele>
        <time>2020-07-25T10:59:23Z</time>
      </trkpt>
      <trkpt lat="42.9258460" lon="-1.5076560">
        <ele>528.0</ele>
        <time>2020-07-25T10:59:30Z</time>
      </trkpt>
      <trkpt lat="42.9263020" lon="-1.5072510">
        <ele>528.2</ele>
        <time>2020-07-25T10:59:37Z</time>
      </trkpt>
      <trkpt lat="42.9264330" lon="-1.5071340">
        <ele>528.4</ele>
        <time>2020-07-25T10:59:39Z</time>
      </trkpt>
      <trkpt lat="42.9268900" lon="-1.5067220">
        <ele>528.4</ele>
        <time>2020-07-25T10:59:46Z</time>
      </trkpt>
      <trkpt lat="42.9270190" lon="-1.5066060">
        <ele>528.6</ele>
        <time>2020-07-25T10:59:48Z</time>
      </trkpt>
      <trkpt lat="42.9274900" lon="-1.5062040">
        <ele>528.6</ele>
        <time>2020-07-25T10:59:55Z</time>
      </trkpt>
      <trkpt lat="42.9275600" lon="-1.5061490">
        <ele>528.6</ele>
        <time>2020-07-25T10:59:56Z</time>
      </trkpt>
      <trkpt lat="42.9280750" lon="-1.5058150">
        <ele>528.6</ele>
        <time>2020-07-25T11:00:03Z</time>
      </trkpt>
      <trkpt lat="42.9285330" lon="-1.5055950">
        <ele>528.6</ele>
        <time>2020-07-25T11:00:09Z</time>
      </trkpt>
      <trkpt lat="42.9291100" lon="-1.5053180">
        <ele>528.6</ele>
        <time>2020-07-25T11:00:17Z</time>
      </trkpt>
      <trkpt lat="42.9292460" lon="-1.5052470">
        <ele>528.6</ele>
        <time>2020-07-25T11:00:19Z</time>
      </trkpt>
      <trkpt lat="42.9297800" lon="-1.5049650">
        <ele>528.6</ele>
        <time>2020-07-25T11:00:27Z</time>
      </trkpt>
      <trkpt lat="42.9300520" lon="-1.5048020">
        <ele>528.8</ele>
        <time>2020-07-25T11:00:32Z</time>
      </trkpt>
      <trkpt lat="42.9301020" lon="-1.5047720">
        <ele>528.8</ele>
        <time>2020-07-25T11:00:33Z</time>
      </trkpt>
      <trkpt lat="42.9312290" lon="-1.5043230">
        <ele>848.8</ele>
        <time>2020-07-25T11:06:11Z</time>
      </trkpt>
      <trkpt lat="42.9312510" lon="-1.5043010">
        <ele>691.6</ele>
        <time>2020-07-25T11:06:12Z</time>
      </trkpt>
      <trkpt lat="42.9313080" lon="-1.5042920">
        <ele>612.2</ele>
        <time>2020-07-25T11:06:13Z</time>
      </trkpt>
      <trkpt lat="42.9313510" lon="-1.5042950">
        <ele>572.0</ele>
        <time>2020-07-25T11:06:14Z</time>
      </trkpt>
      <trkpt lat="42.9313870" lon="-1.5042920">
        <ele>551.8</ele>
        <time>2020-07-25T11:06:15Z</time>
      </trkpt>
      <trkpt lat="42.9314270" lon="-1.5042840">
        <ele>541.8</ele>
        <time>2020-07-25T11:06:16Z</time>
      </trkpt>
      <trkpt lat="42.9314720" lon="-1.5042770">
        <ele>533.4</ele>
        <time>2020-07-25T11:06:17Z</time>
      </trkpt>
      <trkpt lat="42.9315240" lon="-1.5042660">
        <ele>532.0</ele>
        <time>2020-07-25T11:06:18Z</time>
      </trkpt>
      <trkpt lat="42.9316310" lon="-1.5042520">
        <ele>531.0</ele>
        <time>2020-07-25T11:06:20Z</time>
      </trkpt>
      <trkpt lat="42.9316800" lon="-1.5042110">
        <ele>530.8</ele>
        <time>2020-07-25T11:06:21Z</time>
      </trkpt>
      <trkpt lat="42.9317810" lon="-1.5041790">
        <ele>530.8</ele>
        <time>2020-07-25T11:06:23Z</time>
      </trkpt>
      <trkpt lat="42.9321050" lon="-1.5041020">
        <ele>530.8</ele>
        <time>2020-07-25T11:06:29Z</time>
      </trkpt>
      <trkpt lat="42.9326140" lon="-1.5039830">
        <ele>531.2</ele>
        <time>2020-07-25T11:06:38Z</time>
      </trkpt>
      <trkpt lat="42.9329580" lon="-1.5039030">
        <ele>532.0</ele>
        <time>2020-07-25T11:06:44Z</time>
      </trkpt>
      <trkpt lat="42.9331290" lon="-1.5038600">
        <ele>532.2</ele>
        <time>2020-07-25T11:06:47Z</time>
      </trkpt>
      <trkpt lat="42.9335940" lon="-1.5037550">
        <ele>532.4</ele>
        <time>2020-07-25T11:06:55Z</time>
      </trkpt>
      <trkpt lat="42.9341740" lon="-1.5036240">
        <ele>532.6</ele>
        <time>2020-07-25T11:07:05Z</time>
      </trkpt>
      <trkpt lat="42.9343540" lon="-1.5035830">
        <ele>533.0</ele>
        <time>2020-07-25T11:07:08Z</time>
      </trkpt>
      <trkpt lat="42.9348430" lon="-1.5034740">
        <ele>533.8</ele>
        <time>2020-07-25T11:07:16Z</time>
      </trkpt>
      <trkpt lat="42.9352660" lon="-1.5033810">
        <ele>534.0</ele>
        <time>2020-07-25T11:07:23Z</time>
      </trkpt>
      <trkpt lat="42.9355040" lon="-1.5033200">
        <ele>534.2</ele>
        <time>2020-07-25T11:07:27Z</time>
      </trkpt>
      <trkpt lat="42.9356210" lon="-1.5032690">
        <ele>534.2</ele>
        <time>2020-07-25T11:07:29Z</time>
      </trkpt>
      <trkpt lat="42.9358410" lon="-1.5031220">
        <ele>534.2</ele>
        <time>2020-07-25T11:07:33Z</time>
      </trkpt>
      <trkpt lat="42.9361220" lon="-1.5028160">
        <ele>534.2</ele>
        <time>2020-07-25T11:07:39Z</time>
      </trkpt>
      <trkpt lat="42.9364140" lon="-1.5023250">
        <ele>534.2</ele>
        <time>2020-07-25T11:07:47Z</time>
      </trkpt>
      <trkpt lat="42.9367030" lon="-1.5017670">
        <ele>535.2</ele>
        <time>2020-07-25T11:07:56Z</time>
      </trkpt>
      <trkpt lat="42.9367330" lon="-1.5017080">
        <ele>535.4</ele>
        <time>2020-07-25T11:07:57Z</time>
      </trkpt>
      <trkpt lat="42.9369430" lon="-1.5013010">
        <ele>536.2</ele>
        <time>2020-07-25T11:08:04Z</time>
      </trkpt>
      <trkpt lat="42.9370670" lon="-1.5010830">
        <ele>537.2</ele>
        <time>2020-07-25T11:08:08Z</time>
      </trkpt>
      <trkpt lat="42.9373220" lon="-1.5006140">
        <ele>538.4</ele>
        <time>2020-07-25T11:08:17Z</time>
      </trkpt>
      <trkpt lat="42.9374040" lon="-1.5004630">
        <ele>538.6</ele>
        <time>2020-07-25T11:08:20Z</time>
      </trkpt>
      <trkpt lat="42.9375660" lon="-1.5001540">
        <ele>539.6</ele>
        <time>2020-07-25T11:08:26Z</time>
      </trkpt>
      <trkpt lat="42.9377270" lon="-1.4998540">
        <ele>540.2</ele>
        <time>2020-07-25T11:08:32Z</time>
      </trkpt>
      <trkpt lat="42.9378030" lon="-1.4997150">
        <ele>540.6</ele>
        <time>2020-07-25T11:08:35Z</time>
      </trkpt>
      <trkpt lat="42.9379530" lon="-1.4994250">
        <ele>541.2</ele>
        <time>2020-07-25T11:08:41Z</time>
      </trkpt>
      <trkpt lat="42.9380570" lon="-1.4992330">
        <ele>541.6</ele>
        <time>2020-07-25T11:08:45Z</time>
      </trkpt>
      <trkpt lat="42.9382040" lon="-1.4989540">
        <ele>542.8</ele>
        <time>2020-07-25T11:08:51Z</time>
      </trkpt>
      <trkpt lat="42.9383280" lon="-1.4987210">
        <ele>543.8</ele>
        <time>2020-07-25T11:08:56Z</time>
      </trkpt>
      <trkpt lat="42.9384020" lon="-1.4985810">
        <ele>544.4</ele>
        <time>2020-07-25T11:08:59Z</time>
      </trkpt>
      <trkpt lat="42.9384490" lon="-1.4984900">
        <ele>545.0</ele>
        <time>2020-07-25T11:09:01Z</time>
      </trkpt>
      <trkpt lat="42.9386380" lon="-1.4981270">
        <ele>545.8</ele>
        <time>2020-07-25T11:09:09Z</time>
      </trkpt>
      <trkpt lat="42.9387140" lon="-1.4979880">
        <ele>546.6</ele>
        <time>2020-07-25T11:09:12Z</time>
      </trkpt>
      <trkpt lat="42.9387680" lon="-1.4978990">
        <ele>547.0</ele>
        <time>2020-07-25T11:09:14Z</time>
      </trkpt>
      <trkpt lat="42.9389980" lon="-1.4975510">
        <ele>548.0</ele>
        <time>2020-07-25T11:09:22Z</time>
      </trkpt>
      <trkpt lat="42.9392840" lon="-1.4971580">
        <ele>549.0</ele>
        <time>2020-07-25T11:09:31Z</time>
      </trkpt>
      <trkpt lat="42.9393810" lon="-1.4970270">
        <ele>549.2</ele>
        <time>2020-07-25T11:09:34Z</time>
      </trkpt>
      <trkpt lat="42.9394150" lon="-1.4969830">
        <ele>549.4</ele>
        <time>2020-07-25T11:09:35Z</time>
      </trkpt>
      <trkpt lat="42.9396420" lon="-1.4966640">
        <ele>550.0</ele>
        <time>2020-07-25T11:09:42Z</time>
      </trkpt>
      <trkpt lat="42.9398290" lon="-1.4963980">
        <ele>551.0</ele>
        <time>2020-07-25T11:09:48Z</time>
      </trkpt>
      <trkpt lat="42.9398590" lon="-1.4963560">
        <ele>551.2</ele>
        <time>2020-07-25T11:09:49Z</time>
      </trkpt>
      <trkpt lat="42.9401080" lon="-1.4959830">
        <ele>552.6</ele>
        <time>2020-07-25T11:09:58Z</time>
      </trkpt>
      <trkpt lat="42.9401330" lon="-1.4959410">
        <ele>552.8</ele>
        <time>2020-07-25T11:09:59Z</time>
      </trkpt>
      <trkpt lat="42.9402230" lon="-1.4957580">
        <ele>553.8</ele>
        <time>2020-07-25T11:10:03Z</time>
      </trkpt>
      <trkpt lat="42.9402800" lon="-1.4956130">
        <ele>554.6</ele>
        <time>2020-07-25T11:10:06Z</time>
      </trkpt>
      <trkpt lat="42.9403110" lon="-1.4955100">
        <ele>554.8</ele>
        <time>2020-07-25T11:10:08Z</time>
      </trkpt>
      <trkpt lat="42.9403790" lon="-1.4952780">
        <ele>556.0</ele>
        <time>2020-07-25T11:10:13Z</time>
      </trkpt>
      <trkpt lat="42.9403980" lon="-1.4952340">
        <ele>556.2</ele>
        <time>2020-07-25T11:10:14Z</time>
      </trkpt>
      <trkpt lat="42.9405400" lon="-1.4950650">
        <ele>557.0</ele>
        <time>2020-07-25T11:10:19Z</time>
      </trkpt>
      <trkpt lat="42.9406820" lon="-1.4950140">
        <ele>558.2</ele>
        <time>2020-07-25T11:10:23Z</time>
      </trkpt>
      <trkpt lat="42.9407220" lon="-1.4950120">
        <ele>558.4</ele>
        <time>2020-07-25T11:10:24Z</time>
      </trkpt>
      <trkpt lat="42.9408410" lon="-1.4950110">
        <ele>559.4</ele>
        <time>2020-07-25T11:10:27Z</time>
      </trkpt>
      <trkpt lat="42.9410770" lon="-1.4950180">
        <ele>560.4</ele>
        <time>2020-07-25T11:10:33Z</time>
      </trkpt>
      <trkpt lat="42.9413220" lon="-1.4949890">
        <ele>561.4</ele>
        <time>2020-07-25T11:10:39Z</time>
      </trkpt>
      <trkpt lat="42.9414380" lon="-1.4949670">
        <ele>562.0</ele>
        <time>2020-07-25T11:10:42Z</time>
      </trkpt>
      <trkpt lat="42.9415830" lon="-1.4949230">
        <ele>562.6</ele>
        <time>2020-07-25T11:10:46Z</time>
      </trkpt>
      <trkpt lat="42.9416500" lon="-1.4948970">
        <ele>563.0</ele>
        <time>2020-07-25T11:10:48Z</time>
      </trkpt>
      <trkpt lat="42.9417920" lon="-1.4948400">
        <ele>563.8</ele>
        <time>2020-07-25T11:10:52Z</time>
      </trkpt>
      <trkpt lat="42.9418980" lon="-1.4948040">
        <ele>565.0</ele>
        <time>2020-07-25T11:10:55Z</time>
      </trkpt>
      <trkpt lat="42.9419720" lon="-1.4947840">
        <ele>565.4</ele>
        <time>2020-07-25T11:10:57Z</time>
      </trkpt>
      <trkpt lat="42.9420850" lon="-1.4947580">
        <ele>566.2</ele>
        <time>2020-07-25T11:11:00Z</time>
      </trkpt>
      <trkpt lat="42.9422860" lon="-1.4947490">
        <ele>566.6</ele>
        <time>2020-07-25T11:11:05Z</time>
      </trkpt>
      <trkpt lat="42.9423690" lon="-1.4947550">
        <ele>567.0</ele>
        <time>2020-07-25T11:11:07Z</time>
      </trkpt>
      <trkpt lat="42.9425650" lon="-1.4947930">
        <ele>567.8</ele>
        <time>2020-07-25T11:11:12Z</time>
      </trkpt>
      <trkpt lat="42.9426440" lon="-1.4948040">
        <ele>568.2</ele>
        <time>2020-07-25T11:11:14Z</time>
      </trkpt>
      <trkpt lat="42.9428070" lon="-1.4948150">
        <ele>568.8</ele>
        <time>2020-07-25T11:11:18Z</time>
      </trkpt>
      <trkpt lat="42.9429300" lon="-1.4948020">
        <ele>569.0</ele>
        <time>2020-07-25T11:11:21Z</time>
      </trkpt>
      <trkpt lat="42.9429720" lon="-1.4947930">
        <ele>569.2</ele>
        <time>2020-07-25T11:11:22Z</time>
      </trkpt>
      <trkpt lat="42.9432260" lon="-1.4947000">
        <ele>569.8</ele>
        <time>2020-07-25T11:11:28Z</time>
      </trkpt>
      <trkpt lat="42.9433760" lon="-1.4945970">
        <ele>570.4</ele>
        <time>2020-07-25T11:11:32Z</time>
      </trkpt>
      <trkpt lat="42.9435200" lon="-1.4944610">
        <ele>570.8</ele>
        <time>2020-07-25T11:11:36Z</time>
      </trkpt>
      <trkpt lat="42.9437400" lon="-1.4941640">
        <ele>571.4</ele>
        <time>2020-07-25T11:11:43Z</time>
      </trkpt>
      <trkpt lat="42.9437660" lon="-1.4941130">
        <ele>571.6</ele>
        <time>2020-07-25T11:11:44Z</time>
      </trkpt>
      <trkpt lat="42.9438310" lon="-1.4938740">
        <ele>572.0</ele>
        <time>2020-07-25T11:11:48Z</time>
      </trkpt>
      <trkpt lat="42.9438470" lon="-1.4937540">
        <ele>572.0</ele>
        <time>2020-07-25T11:11:50Z</time>
      </trkpt>
      <trkpt lat="42.9438690" lon="-1.4935200">
        <ele>572.2</ele>
        <time>2020-07-25T11:11:54Z</time>
      </trkpt>
      <trkpt lat="42.9438820" lon="-1.4934640">
        <ele>572.4</ele>
        <time>2020-07-25T11:11:55Z</time>
      </trkpt>
      <trkpt lat="42.9439190" lon="-1.4933530">
        <ele>572.6</ele>
        <time>2020-07-25T11:11:57Z</time>
      </trkpt>
      <trkpt lat="42.9439670" lon="-1.4932470">
        <ele>573.2</ele>
        <time>2020-07-25T11:11:59Z</time>
      </trkpt>
      <trkpt lat="42.9440250" lon="-1.4931600">
        <ele>573.8</ele>
        <time>2020-07-25T11:12:01Z</time>
      </trkpt>
      <trkpt lat="42.9441680" lon="-1.4930410">
        <ele>574.6</ele>
        <time>2020-07-25T11:12:05Z</time>
      </trkpt>
      <trkpt lat="42.9442400" lon="-1.4929970">
        <ele>575.0</ele>
        <time>2020-07-25T11:12:07Z</time>
      </trkpt>
      <trkpt lat="42.9444380" lon="-1.4928840">
        <ele>576.0</ele>
        <time>2020-07-25T11:12:13Z</time>
      </trkpt>
      <trkpt lat="42.9444720" lon="-1.4928670">
        <ele>576.2</ele>
        <time>2020-07-25T11:12:14Z</time>
      </trkpt>
      <trkpt lat="42.9446100" lon="-1.4927770">
        <ele>577.4</ele>
        <time>2020-07-25T11:12:18Z</time>
      </trkpt>
      <trkpt lat="42.9447120" lon="-1.4927010">
        <ele>578.2</ele>
        <time>2020-07-25T11:12:21Z</time>
      </trkpt>
      <trkpt lat="42.9448060" lon="-1.4926080">
        <ele>578.6</ele>
        <time>2020-07-25T11:12:24Z</time>
      </trkpt>
      <trkpt lat="42.9448820" lon="-1.4925030">
        <ele>578.8</ele>
        <time>2020-07-25T11:12:27Z</time>
      </trkpt>
      <trkpt lat="42.9449750" lon="-1.4923440">
        <ele>579.6</ele>
        <time>2020-07-25T11:12:31Z</time>
      </trkpt>
      <trkpt lat="42.9450330" lon="-1.4922060">
        <ele>580.2</ele>
        <time>2020-07-25T11:12:34Z</time>
      </trkpt>
      <trkpt lat="42.9450860" lon="-1.4920640">
        <ele>580.8</ele>
        <time>2020-07-25T11:12:37Z</time>
      </trkpt>
      <trkpt lat="42.9452130" lon="-1.4917460">
        <ele>581.6</ele>
        <time>2020-07-25T11:12:44Z</time>
      </trkpt>
      <trkpt lat="42.9452330" lon="-1.4917030">
        <ele>581.8</ele>
        <time>2020-07-25T11:12:45Z</time>
      </trkpt>
      <trkpt lat="42.9453200" lon="-1.4915290">
        <ele>583.0</ele>
        <time>2020-07-25T11:12:49Z</time>
      </trkpt>
      <trkpt lat="42.9454150" lon="-1.4913580">
        <ele>584.0</ele>
        <time>2020-07-25T11:12:53Z</time>
      </trkpt>
      <trkpt lat="42.9455370" lon="-1.4911480">
        <ele>585.2</ele>
        <time>2020-07-25T11:12:58Z</time>
      </trkpt>
      <trkpt lat="42.9456320" lon="-1.4909810">
        <ele>586.0</ele>
        <time>2020-07-25T11:13:02Z</time>
      </trkpt>
      <trkpt lat="42.9456720" lon="-1.4908960">
        <ele>586.2</ele>
        <time>2020-07-25T11:13:04Z</time>
      </trkpt>
      <trkpt lat="42.9457230" lon="-1.4907000">
        <ele>587.0</ele>
        <time>2020-07-25T11:13:08Z</time>
      </trkpt>
      <trkpt lat="42.9457270" lon="-1.4905980">
        <ele>587.4</ele>
        <time>2020-07-25T11:13:10Z</time>
      </trkpt>
      <trkpt lat="42.9457040" lon="-1.4904540">
        <ele>587.8</ele>
        <time>2020-07-25T11:13:13Z</time>
      </trkpt>
      <trkpt lat="42.9456630" lon="-1.4903180">
        <ele>588.6</ele>
        <time>2020-07-25T11:13:16Z</time>
      </trkpt>
      <trkpt lat="42.9456000" lon="-1.4900760">
        <ele>589.4</ele>
        <time>2020-07-25T11:13:21Z</time>
      </trkpt>
      <trkpt lat="42.9455390" lon="-1.4898340">
        <ele>590.6</ele>
        <time>2020-07-25T11:13:26Z</time>
      </trkpt>
      <trkpt lat="42.9455080" lon="-1.4896860">
        <ele>591.2</ele>
        <time>2020-07-25T11:13:29Z</time>
      </trkpt>
      <trkpt lat="42.9454880" lon="-1.4895380">
        <ele>591.8</ele>
        <time>2020-07-25T11:13:32Z</time>
      </trkpt>
      <trkpt lat="42.9454880" lon="-1.4893440">
        <ele>592.8</ele>
        <time>2020-07-25T11:13:36Z</time>
      </trkpt>
      <trkpt lat="42.9455540" lon="-1.4892160">
        <ele>593.2</ele>
        <time>2020-07-25T11:13:39Z</time>
      </trkpt>
      <trkpt lat="42.9455870" lon="-1.4891840">
        <ele>593.6</ele>
        <time>2020-07-25T11:13:40Z</time>
      </trkpt>
      <trkpt lat="42.9457360" lon="-1.4891070">
        <ele>594.4</ele>
        <time>2020-07-25T11:13:44Z</time>
      </trkpt>
      <trkpt lat="42.9457740" lon="-1.4890940">
        <ele>594.6</ele>
        <time>2020-07-25T11:13:45Z</time>
      </trkpt>
      <trkpt lat="42.9460850" lon="-1.4889970">
        <ele>595.4</ele>
        <time>2020-07-25T11:13:53Z</time>
      </trkpt>
      <trkpt lat="42.9461240" lon="-1.4889840">
        <ele>595.6</ele>
        <time>2020-07-25T11:13:54Z</time>
      </trkpt>
      <trkpt lat="42.9462930" lon="-1.4888850">
        <ele>596.4</ele>
        <time>2020-07-25T11:13:59Z</time>
      </trkpt>
      <trkpt lat="42.9463150" lon="-1.4888420">
        <ele>596.6</ele>
        <time>2020-07-25T11:14:00Z</time>
      </trkpt>
      <trkpt lat="42.9462890" lon="-1.4886960">
        <ele>596.8</ele>
        <time>2020-07-25T11:14:03Z</time>
      </trkpt>
      <trkpt lat="42.9461890" lon="-1.4886120">
        <ele>597.4</ele>
        <time>2020-07-25T11:14:06Z</time>
      </trkpt>
      <trkpt lat="42.9461530" lon="-1.4885910">
        <ele>597.6</ele>
        <time>2020-07-25T11:14:07Z</time>
      </trkpt>
      <trkpt lat="42.9459840" lon="-1.4884790">
        <ele>598.6</ele>
        <time>2020-07-25T11:14:12Z</time>
      </trkpt>
      <trkpt lat="42.9459570" lon="-1.4884440">
        <ele>598.8</ele>
        <time>2020-07-25T11:14:13Z</time>
      </trkpt>
      <trkpt lat="42.9458950" lon="-1.4882480">
        <ele>599.4</ele>
        <time>2020-07-25T11:14:17Z</time>
      </trkpt>
      <trkpt lat="42.9458930" lon="-1.4881940">
        <ele>599.6</ele>
        <time>2020-07-25T11:14:18Z</time>
      </trkpt>
      <trkpt lat="42.9459260" lon="-1.4880400">
        <ele>600.4</ele>
        <time>2020-07-25T11:14:21Z</time>
      </trkpt>
      <trkpt lat="42.9460000" lon="-1.4879210">
        <ele>600.8</ele>
        <time>2020-07-25T11:14:24Z</time>
      </trkpt>
      <trkpt lat="42.9460540" lon="-1.4878520">
        <ele>601.2</ele>
        <time>2020-07-25T11:14:26Z</time>
      </trkpt>
      <trkpt lat="42.9461050" lon="-1.4877840">
        <ele>601.8</ele>
        <time>2020-07-25T11:14:28Z</time>
      </trkpt>
      <trkpt lat="42.9462450" lon="-1.4875830">
        <ele>603.0</ele>
        <time>2020-07-25T11:14:34Z</time>
      </trkpt>
      <trkpt lat="42.9463270" lon="-1.4874370">
        <ele>604.0</ele>
        <time>2020-07-25T11:14:38Z</time>
      </trkpt>
      <trkpt lat="42.9464170" lon="-1.4872480">
        <ele>604.8</ele>
        <time>2020-07-25T11:14:43Z</time>
      </trkpt>
      <trkpt lat="42.9464330" lon="-1.4872090">
        <ele>605.0</ele>
        <time>2020-07-25T11:14:44Z</time>
      </trkpt>
      <trkpt lat="42.9465180" lon="-1.4870160">
        <ele>606.0</ele>
        <time>2020-07-25T11:14:49Z</time>
      </trkpt>
      <trkpt lat="42.9465650" lon="-1.4868960">
        <ele>606.8</ele>
        <time>2020-07-25T11:14:52Z</time>
      </trkpt>
      <trkpt lat="42.9466010" lon="-1.4868220">
        <ele>607.2</ele>
        <time>2020-07-25T11:14:54Z</time>
      </trkpt>
      <trkpt lat="42.9466750" lon="-1.4866870">
        <ele>608.4</ele>
        <time>2020-07-25T11:14:58Z</time>
      </trkpt>
      <trkpt lat="42.9467120" lon="-1.4866220">
        <ele>609.0</ele>
        <time>2020-07-25T11:15:00Z</time>
      </trkpt>
      <trkpt lat="42.9467570" lon="-1.4865690">
        <ele>609.6</ele>
        <time>2020-07-25T11:15:02Z</time>
      </trkpt>
      <trkpt lat="42.9468610" lon="-1.4864770">
        <ele>610.6</ele>
        <time>2020-07-25T11:15:06Z</time>
      </trkpt>
      <trkpt lat="42.9468860" lon="-1.4864620">
        <ele>610.8</ele>
        <time>2020-07-25T11:15:07Z</time>
      </trkpt>
      <trkpt lat="42.9470750" lon="-1.4864080">
        <ele>611.6</ele>
        <time>2020-07-25T11:15:13Z</time>
      </trkpt>
      <trkpt lat="42.9471060" lon="-1.4864060">
        <ele>611.6</ele>
        <time>2020-07-25T11:15:14Z</time>
      </trkpt>
      <trkpt lat="42.9472990" lon="-1.4864700">
        <ele>612.4</ele>
        <time>2020-07-25T11:15:20Z</time>
      </trkpt>
      <trkpt lat="42.9473570" lon="-1.4865150">
        <ele>612.8</ele>
        <time>2020-07-25T11:15:22Z</time>
      </trkpt>
      <trkpt lat="42.9474790" lon="-1.4865990">
        <ele>614.0</ele>
        <time>2020-07-25T11:15:26Z</time>
      </trkpt>
      <trkpt lat="42.9475420" lon="-1.4866340">
        <ele>614.6</ele>
        <time>2020-07-25T11:15:28Z</time>
      </trkpt>
      <trkpt lat="42.9476370" lon="-1.4866760">
        <ele>615.2</ele>
        <time>2020-07-25T11:15:31Z</time>
      </trkpt>
      <trkpt lat="42.9477710" lon="-1.4866680">
        <ele>616.2</ele>
        <time>2020-07-25T11:15:35Z</time>
      </trkpt>
      <trkpt lat="42.9479020" lon="-1.4865340">
        <ele>617.2</ele>
        <time>2020-07-25T11:15:40Z</time>
      </trkpt>
      <trkpt lat="42.9480050" lon="-1.4862660">
        <ele>618.2</ele>
        <time>2020-07-25T11:15:47Z</time>
      </trkpt>
      <trkpt lat="42.9480200" lon="-1.4862290">
        <ele>618.4</ele>
        <time>2020-07-25T11:15:48Z</time>
      </trkpt>
      <trkpt lat="42.9480830" lon="-1.4860380">
        <ele>619.6</ele>
        <time>2020-07-25T11:15:53Z</time>
      </trkpt>
      <trkpt lat="42.9481280" lon="-1.4859270">
        <ele>620.4</ele>
        <time>2020-07-25T11:15:56Z</time>
      </trkpt>
      <trkpt lat="42.9481610" lon="-1.4858530">
        <ele>620.8</ele>
        <time>2020-07-25T11:15:58Z</time>
      </trkpt>
      <trkpt lat="42.9482250" lon="-1.4856970">
        <ele>621.6</ele>
        <time>2020-07-25T11:16:02Z</time>
      </trkpt>
      <trkpt lat="42.9482470" lon="-1.4856170">
        <ele>622.0</ele>
        <time>2020-07-25T11:16:04Z</time>
      </trkpt>
      <trkpt lat="42.9482660" lon="-1.4854400">
        <ele>622.8</ele>
        <time>2020-07-25T11:16:08Z</time>
      </trkpt>
      <trkpt lat="42.9482590" lon="-1.4853480">
        <ele>623.2</ele>
        <time>2020-07-25T11:16:10Z</time>
      </trkpt>
      <trkpt lat="42.9482110" lon="-1.4852310">
        <ele>623.8</ele>
        <time>2020-07-25T11:16:13Z</time>
      </trkpt>
      <trkpt lat="42.9481910" lon="-1.4852000">
        <ele>624.0</ele>
        <time>2020-07-25T11:16:14Z</time>
      </trkpt>
      <trkpt lat="42.9480560" lon="-1.4851190">
        <ele>624.6</ele>
        <time>2020-07-25T11:16:19Z</time>
      </trkpt>
      <trkpt lat="42.9480230" lon="-1.4851130">
        <ele>624.8</ele>
        <time>2020-07-25T11:16:20Z</time>
      </trkpt>
      <trkpt lat="42.9478630" lon="-1.4851230">
        <ele>626.0</ele>
        <time>2020-07-25T11:16:25Z</time>
      </trkpt>
      <trkpt lat="42.9477950" lon="-1.4851300">
        <ele>626.2</ele>
        <time>2020-07-25T11:16:27Z</time>
      </trkpt>
      <trkpt lat="42.9476850" lon="-1.4851270">
        <ele>627.0</ele>
        <time>2020-07-25T11:16:30Z</time>
      </trkpt>
      <trkpt lat="42.9476120" lon="-1.4850910">
        <ele>627.8</ele>
        <time>2020-07-25T11:16:32Z</time>
      </trkpt>
      <trkpt lat="42.9475580" lon="-1.4850210">
        <ele>628.4</ele>
        <time>2020-07-25T11:16:34Z</time>
      </trkpt>
      <trkpt lat="42.9475270" lon="-1.4849260">
        <ele>629.0</ele>
        <time>2020-07-25T11:16:36Z</time>
      </trkpt>
      <trkpt lat="42.9475280" lon="-1.4848330">
        <ele>629.4</ele>
        <time>2020-07-25T11:16:38Z</time>
      </trkpt>
      <trkpt lat="42.9475500" lon="-1.4847320">
        <ele>630.0</ele>
        <time>2020-07-25T11:16:40Z</time>
      </trkpt>
      <trkpt lat="42.9476010" lon="-1.4845920">
        <ele>630.6</ele>
        <time>2020-07-25T11:16:43Z</time>
      </trkpt>
      <trkpt lat="42.9476720" lon="-1.4844230">
        <ele>631.4</ele>
        <time>2020-07-25T11:16:47Z</time>
      </trkpt>
      <trkpt lat="42.9477080" lon="-1.4843460">
        <ele>631.8</ele>
        <time>2020-07-25T11:16:49Z</time>
      </trkpt>
      <trkpt lat="42.9478040" lon="-1.4841780">
        <ele>632.8</ele>
        <time>2020-07-25T11:16:54Z</time>
      </trkpt>
      <trkpt lat="42.9478960" lon="-1.4840790">
        <ele>634.0</ele>
        <time>2020-07-25T11:16:58Z</time>
      </trkpt>
      <trkpt lat="42.9479420" lon="-1.4840400">
        <ele>634.4</ele>
        <time>2020-07-25T11:17:00Z</time>
      </trkpt>
      <trkpt lat="42.9480450" lon="-1.4839820">
        <ele>635.2</ele>
        <time>2020-07-25T11:17:04Z</time>
      </trkpt>
      <trkpt lat="42.9481550" lon="-1.4839350">
        <ele>636.0</ele>
        <time>2020-07-25T11:17:08Z</time>
      </trkpt>
      <trkpt lat="42.9481830" lon="-1.4839240">
        <ele>636.2</ele>
        <time>2020-07-25T11:17:09Z</time>
      </trkpt>
      <trkpt lat="42.9483590" lon="-1.4838780">
        <ele>637.4</ele>
        <time>2020-07-25T11:17:15Z</time>
      </trkpt>
      <trkpt lat="42.9485470" lon="-1.4838530">
        <ele>638.4</ele>
        <time>2020-07-25T11:17:21Z</time>
      </trkpt>
      <trkpt lat="42.9486440" lon="-1.4838400">
        <ele>639.0</ele>
        <time>2020-07-25T11:17:24Z</time>
      </trkpt>
      <trkpt lat="42.9487090" lon="-1.4838130">
        <ele>639.6</ele>
        <time>2020-07-25T11:17:26Z</time>
      </trkpt>
      <trkpt lat="42.9488210" lon="-1.4837300">
        <ele>640.2</ele>
        <time>2020-07-25T11:17:30Z</time>
      </trkpt>
      <trkpt lat="42.9488930" lon="-1.4835900">
        <ele>640.6</ele>
        <time>2020-07-25T11:17:34Z</time>
      </trkpt>
      <trkpt lat="42.9489200" lon="-1.4835090">
        <ele>641.0</ele>
        <time>2020-07-25T11:17:36Z</time>
      </trkpt>
      <trkpt lat="42.9489390" lon="-1.4833390">
        <ele>641.6</ele>
        <time>2020-07-25T11:17:40Z</time>
      </trkpt>
      <trkpt lat="42.9489300" lon="-1.4832540">
        <ele>641.8</ele>
        <time>2020-07-25T11:17:42Z</time>
      </trkpt>
      <trkpt lat="42.9489000" lon="-1.4830450">
        <ele>642.6</ele>
        <time>2020-07-25T11:17:47Z</time>
      </trkpt>
      <trkpt lat="42.9488950" lon="-1.4830070">
        <ele>642.8</ele>
        <time>2020-07-25T11:17:48Z</time>
      </trkpt>
      <trkpt lat="42.9488910" lon="-1.4829690">
        <ele>643.0</ele>
        <time>2020-07-25T11:17:49Z</time>
      </trkpt>
      <trkpt lat="42.9488880" lon="-1.4828460">
        <ele>643.8</ele>
        <time>2020-07-25T11:17:52Z</time>
      </trkpt>
      <trkpt lat="42.9489100" lon="-1.4827270">
        <ele>645.0</ele>
        <time>2020-07-25T11:17:55Z</time>
      </trkpt>
      <trkpt lat="42.9489860" lon="-1.4825910">
        <ele>646.0</ele>
        <time>2020-07-25T11:17:59Z</time>
      </trkpt>
      <trkpt lat="42.9490120" lon="-1.4825620">
        <ele>646.2</ele>
        <time>2020-07-25T11:18:00Z</time>
      </trkpt>
      <trkpt lat="42.9491180" lon="-1.4824550">
        <ele>647.0</ele>
        <time>2020-07-25T11:18:04Z</time>
      </trkpt>
      <trkpt lat="42.9492230" lon="-1.4823450">
        <ele>647.8</ele>
        <time>2020-07-25T11:18:08Z</time>
      </trkpt>
      <trkpt lat="42.9493030" lon="-1.4822580">
        <ele>648.2</ele>
        <time>2020-07-25T11:18:11Z</time>
      </trkpt>
      <trkpt lat="42.9494300" lon="-1.4820940">
        <ele>648.8</ele>
        <time>2020-07-25T11:18:16Z</time>
      </trkpt>
      <trkpt lat="42.9494970" lon="-1.4819830">
        <ele>649.2</ele>
        <time>2020-07-25T11:18:19Z</time>
      </trkpt>
      <trkpt lat="42.9495690" lon="-1.4818220">
        <ele>650.0</ele>
        <time>2020-07-25T11:18:23Z</time>
      </trkpt>
      <trkpt lat="42.9496240" lon="-1.4817050">
        <ele>650.2</ele>
        <time>2020-07-25T11:18:26Z</time>
      </trkpt>
      <trkpt lat="42.9497050" lon="-1.4815080">
        <ele>651.0</ele>
        <time>2020-07-25T11:18:31Z</time>
      </trkpt>
      <trkpt lat="42.9497310" lon="-1.4814280">
        <ele>651.4</ele>
        <time>2020-07-25T11:18:33Z</time>
      </trkpt>
      <trkpt lat="42.9498170" lon="-1.4811830">
        <ele>652.6</ele>
        <time>2020-07-25T11:18:39Z</time>
      </trkpt>
      <trkpt lat="42.9498810" lon="-1.4809790">
        <ele>653.4</ele>
        <time>2020-07-25T11:18:44Z</time>
      </trkpt>
      <trkpt lat="42.9499340" lon="-1.4808150">
        <ele>654.2</ele>
        <time>2020-07-25T11:18:48Z</time>
      </trkpt>
      <trkpt lat="42.9499470" lon="-1.4807730">
        <ele>654.6</ele>
        <time>2020-07-25T11:18:49Z</time>
      </trkpt>
      <trkpt lat="42.9500070" lon="-1.4805030">
        <ele>655.4</ele>
        <time>2020-07-25T11:18:55Z</time>
      </trkpt>
      <trkpt lat="42.9500130" lon="-1.4804560">
        <ele>655.6</ele>
        <time>2020-07-25T11:18:56Z</time>
      </trkpt>
      <trkpt lat="42.9499920" lon="-1.4801830">
        <ele>656.4</ele>
        <time>2020-07-25T11:19:02Z</time>
      </trkpt>
      <trkpt lat="42.9499680" lon="-1.4800980">
        <ele>656.6</ele>
        <time>2020-07-25T11:19:04Z</time>
      </trkpt>
      <trkpt lat="42.9499300" lon="-1.4799300">
        <ele>657.2</ele>
        <time>2020-07-25T11:19:08Z</time>
      </trkpt>
      <trkpt lat="42.9499200" lon="-1.4798470">
        <ele>657.6</ele>
        <time>2020-07-25T11:19:10Z</time>
      </trkpt>
      <trkpt lat="42.9499300" lon="-1.4796730">
        <ele>658.8</ele>
        <time>2020-07-25T11:19:14Z</time>
      </trkpt>
      <trkpt lat="42.9499420" lon="-1.4795320">
        <ele>660.2</ele>
        <time>2020-07-25T11:19:17Z</time>
      </trkpt>
      <trkpt lat="42.9499500" lon="-1.4793410">
        <ele>661.4</ele>
        <time>2020-07-25T11:19:21Z</time>
      </trkpt>
      <trkpt lat="42.9498780" lon="-1.4791320">
        <ele>662.2</ele>
        <time>2020-07-25T11:19:26Z</time>
      </trkpt>
      <trkpt lat="42.9498440" lon="-1.4790610">
        <ele>662.6</ele>
        <time>2020-07-25T11:19:28Z</time>
      </trkpt>
      <trkpt lat="42.9497430" lon="-1.4788550">
        <ele>663.6</ele>
        <time>2020-07-25T11:19:34Z</time>
      </trkpt>
      <trkpt lat="42.9496860" lon="-1.4786650">
        <ele>664.8</ele>
        <time>2020-07-25T11:19:39Z</time>
      </trkpt>
      <trkpt lat="42.9496810" lon="-1.4785830">
        <ele>665.2</ele>
        <time>2020-07-25T11:19:41Z</time>
      </trkpt>
      <trkpt lat="42.9496800" lon="-1.4784070">
        <ele>666.0</ele>
        <time>2020-07-25T11:19:45Z</time>
      </trkpt>
      <trkpt lat="42.9496690" lon="-1.4782390">
        <ele>667.0</ele>
        <time>2020-07-25T11:19:49Z</time>
      </trkpt>
      <trkpt lat="42.9496700" lon="-1.4781970">
        <ele>667.0</ele>
        <time>2020-07-25T11:19:50Z</time>
      </trkpt>
      <trkpt lat="42.9496660" lon="-1.4779870">
        <ele>668.0</ele>
        <time>2020-07-25T11:19:55Z</time>
      </trkpt>
      <trkpt lat="42.9496650" lon="-1.4779460">
        <ele>668.4</ele>
        <time>2020-07-25T11:19:56Z</time>
      </trkpt>
      <trkpt lat="42.9496210" lon="-1.4778020">
        <ele>669.4</ele>
        <time>2020-07-25T11:20:00Z</time>
      </trkpt>
      <trkpt lat="42.9495990" lon="-1.4777790">
        <ele>669.4</ele>
        <time>2020-07-25T11:20:01Z</time>
      </trkpt>
      <trkpt lat="42.9494860" lon="-1.4777680">
        <ele>670.0</ele>
        <time>2020-07-25T11:20:05Z</time>
      </trkpt>
      <trkpt lat="42.9493430" lon="-1.4778590">
        <ele>670.4</ele>
        <time>2020-07-25T11:20:10Z</time>
      </trkpt>
      <trkpt lat="42.9492880" lon="-1.4779100">
        <ele>671.2</ele>
        <time>2020-07-25T11:20:12Z</time>
      </trkpt>
      <trkpt lat="42.9492600" lon="-1.4779370">
        <ele>671.6</ele>
        <time>2020-07-25T11:20:13Z</time>
      </trkpt>
      <trkpt lat="42.9491820" lon="-1.4780040">
        <ele>672.6</ele>
        <time>2020-07-25T11:20:16Z</time>
      </trkpt>
      <trkpt lat="42.9491110" lon="-1.4780750">
        <ele>673.4</ele>
        <time>2020-07-25T11:20:19Z</time>
      </trkpt>
      <trkpt lat="42.9490690" lon="-1.4781180">
        <ele>673.8</ele>
        <time>2020-07-25T11:20:21Z</time>
      </trkpt>
      <trkpt lat="42.9489950" lon="-1.4781810">
        <ele>674.2</ele>
        <time>2020-07-25T11:20:24Z</time>
      </trkpt>
      <trkpt lat="42.9488980" lon="-1.4782830">
        <ele>675.0</ele>
        <time>2020-07-25T11:20:28Z</time>
      </trkpt>
      <trkpt lat="42.9488110" lon="-1.4783850">
        <ele>675.8</ele>
        <time>2020-07-25T11:20:32Z</time>
      </trkpt>
      <trkpt lat="42.9486950" lon="-1.4785910">
        <ele>677.0</ele>
        <time>2020-07-25T11:20:38Z</time>
      </trkpt>
      <trkpt lat="42.9485930" lon="-1.4787570">
        <ele>678.2</ele>
        <time>2020-07-25T11:20:43Z</time>
      </trkpt>
      <trkpt lat="42.9485670" lon="-1.4787800">
        <ele>678.4</ele>
        <time>2020-07-25T11:20:44Z</time>
      </trkpt>
      <trkpt lat="42.9484190" lon="-1.4788240">
        <ele>679.4</ele>
        <time>2020-07-25T11:20:49Z</time>
      </trkpt>
      <trkpt lat="42.9482690" lon="-1.4787870">
        <ele>680.2</ele>
        <time>2020-07-25T11:20:54Z</time>
      </trkpt>
      <trkpt lat="42.9482090" lon="-1.4787740">
        <ele>680.6</ele>
        <time>2020-07-25T11:20:56Z</time>
      </trkpt>
      <trkpt lat="42.9480540" lon="-1.4787690">
        <ele>681.2</ele>
        <time>2020-07-25T11:21:01Z</time>
      </trkpt>
      <trkpt lat="42.9479920" lon="-1.4787860">
        <ele>681.6</ele>
        <time>2020-07-25T11:21:03Z</time>
      </trkpt>
      <trkpt lat="42.9479090" lon="-1.4788420">
        <ele>682.2</ele>
        <time>2020-07-25T11:21:06Z</time>
      </trkpt>
      <trkpt lat="42.9478540" lon="-1.4788940">
        <ele>683.0</ele>
        <time>2020-07-25T11:21:08Z</time>
      </trkpt>
      <trkpt lat="42.9477950" lon="-1.4789460">
        <ele>683.4</ele>
        <time>2020-07-25T11:21:10Z</time>
      </trkpt>
      <trkpt lat="42.9476610" lon="-1.4790930">
        <ele>684.6</ele>
        <time>2020-07-25T11:21:15Z</time>
      </trkpt>
      <trkpt lat="42.9475530" lon="-1.4791900">
        <ele>685.6</ele>
        <time>2020-07-25T11:21:19Z</time>
      </trkpt>
      <trkpt lat="42.9474890" lon="-1.4792150">
        <ele>686.0</ele>
        <time>2020-07-25T11:21:21Z</time>
      </trkpt>
      <trkpt lat="42.9474240" lon="-1.4792310">
        <ele>686.6</ele>
        <time>2020-07-25T11:21:23Z</time>
      </trkpt>
      <trkpt lat="42.9472970" lon="-1.4792090">
        <ele>687.6</ele>
        <time>2020-07-25T11:21:27Z</time>
      </trkpt>
      <trkpt lat="42.9472660" lon="-1.4791900">
        <ele>687.6</ele>
        <time>2020-07-25T11:21:28Z</time>
      </trkpt>
      <trkpt lat="42.9471240" lon="-1.4790640">
        <ele>688.6</ele>
        <time>2020-07-25T11:21:33Z</time>
      </trkpt>
      <trkpt lat="42.9470970" lon="-1.4790350">
        <ele>688.8</ele>
        <time>2020-07-25T11:21:34Z</time>
      </trkpt>
      <trkpt lat="42.9469040" lon="-1.4788950">
        <ele>689.6</ele>
        <time>2020-07-25T11:21:40Z</time>
      </trkpt>
      <trkpt lat="42.9468400" lon="-1.4788800">
        <ele>689.8</ele>
        <time>2020-07-25T11:21:42Z</time>
      </trkpt>
      <trkpt lat="42.9466770" lon="-1.4788670">
        <ele>690.6</ele>
        <time>2020-07-25T11:21:47Z</time>
      </trkpt>
      <trkpt lat="42.9466080" lon="-1.4788640">
        <ele>691.0</ele>
        <time>2020-07-25T11:21:49Z</time>
      </trkpt>
      <trkpt lat="42.9464750" lon="-1.4788460">
        <ele>692.0</ele>
        <time>2020-07-25T11:21:53Z</time>
      </trkpt>
      <trkpt lat="42.9464430" lon="-1.4788360">
        <ele>692.2</ele>
        <time>2020-07-25T11:21:54Z</time>
      </trkpt>
      <trkpt lat="42.9463150" lon="-1.4787740">
        <ele>693.2</ele>
        <time>2020-07-25T11:21:58Z</time>
      </trkpt>
      <trkpt lat="42.9461740" lon="-1.4786630">
        <ele>694.0</ele>
        <time>2020-07-25T11:22:03Z</time>
      </trkpt>
      <trkpt lat="42.9460090" lon="-1.4785280">
        <ele>695.0</ele>
        <time>2020-07-25T11:22:09Z</time>
      </trkpt>
      <trkpt lat="42.9459010" lon="-1.4784390">
        <ele>695.6</ele>
        <time>2020-07-25T11:22:13Z</time>
      </trkpt>
      <trkpt lat="42.9458500" lon="-1.4783940">
        <ele>696.2</ele>
        <time>2020-07-25T11:22:15Z</time>
      </trkpt>
      <trkpt lat="42.9457420" lon="-1.4782980">
        <ele>697.2</ele>
        <time>2020-07-25T11:22:19Z</time>
      </trkpt>
      <trkpt lat="42.9456210" lon="-1.4781610">
        <ele>698.2</ele>
        <time>2020-07-25T11:22:24Z</time>
      </trkpt>
      <trkpt lat="42.9455510" lon="-1.4780630">
        <ele>699.0</ele>
        <time>2020-07-25T11:22:27Z</time>
      </trkpt>
      <trkpt lat="42.9455090" lon="-1.4779970">
        <ele>699.4</ele>
        <time>2020-07-25T11:22:29Z</time>
      </trkpt>
      <trkpt lat="42.9454130" lon="-1.4778270">
        <ele>700.4</ele>
        <time>2020-07-25T11:22:34Z</time>
      </trkpt>
      <trkpt lat="42.9453520" lon="-1.4776380">
        <ele>701.6</ele>
        <time>2020-07-25T11:22:39Z</time>
      </trkpt>
      <trkpt lat="42.9453360" lon="-1.4775590">
        <ele>701.8</ele>
        <time>2020-07-25T11:22:41Z</time>
      </trkpt>
      <trkpt lat="42.9453210" lon="-1.4773850">
        <ele>702.8</ele>
        <time>2020-07-25T11:22:45Z</time>
      </trkpt>
      <trkpt lat="42.9453320" lon="-1.4772600">
        <ele>703.2</ele>
        <time>2020-07-25T11:22:48Z</time>
      </trkpt>
      <trkpt lat="42.9453770" lon="-1.4770290">
        <ele>704.0</ele>
        <time>2020-07-25T11:22:53Z</time>
      </trkpt>
      <trkpt lat="42.9453930" lon="-1.4769860">
        <ele>704.2</ele>
        <time>2020-07-25T11:22:54Z</time>
      </trkpt>
      <trkpt lat="42.9454710" lon="-1.4768940">
        <ele>704.6</ele>
        <time>2020-07-25T11:22:57Z</time>
      </trkpt>
      <trkpt lat="42.9455030" lon="-1.4769030">
        <ele>705.0</ele>
        <time>2020-07-25T11:22:58Z</time>
      </trkpt>
      <trkpt lat="42.9455550" lon="-1.4770280">
        <ele>705.6</ele>
        <time>2020-07-25T11:23:01Z</time>
      </trkpt>
      <trkpt lat="42.9455560" lon="-1.4771740">
        <ele>706.2</ele>
        <time>2020-07-25T11:23:04Z</time>
      </trkpt>
      <trkpt lat="42.9455520" lon="-1.4772720">
        <ele>706.4</ele>
        <time>2020-07-25T11:23:06Z</time>
      </trkpt>
      <trkpt lat="42.9455930" lon="-1.4776520">
        <ele>707.2</ele>
        <time>2020-07-25T11:23:14Z</time>
      </trkpt>
      <trkpt lat="42.9457180" lon="-1.4778680">
        <ele>708.0</ele>
        <time>2020-07-25T11:23:20Z</time>
      </trkpt>
      <trkpt lat="42.9457990" lon="-1.4779430">
        <ele>708.2</ele>
        <time>2020-07-25T11:23:23Z</time>
      </trkpt>
      <trkpt lat="42.9459170" lon="-1.4780240">
        <ele>709.4</ele>
        <time>2020-07-25T11:23:27Z</time>
      </trkpt>
      <trkpt lat="42.9460640" lon="-1.4781510">
        <ele>710.6</ele>
        <time>2020-07-25T11:23:32Z</time>
      </trkpt>
      <trkpt lat="42.9461530" lon="-1.4782180">
        <ele>711.0</ele>
        <time>2020-07-25T11:23:35Z</time>
      </trkpt>
      <trkpt lat="42.9462420" lon="-1.4782850">
        <ele>711.6</ele>
        <time>2020-07-25T11:23:38Z</time>
      </trkpt>
      <trkpt lat="42.9463990" lon="-1.4783570">
        <ele>712.6</ele>
        <time>2020-07-25T11:23:43Z</time>
      </trkpt>
      <trkpt lat="42.9464310" lon="-1.4783580">
        <ele>712.8</ele>
        <time>2020-07-25T11:23:44Z</time>
      </trkpt>
      <trkpt lat="42.9465150" lon="-1.4783120">
        <ele>713.4</ele>
        <time>2020-07-25T11:23:47Z</time>
      </trkpt>
      <trkpt lat="42.9465340" lon="-1.4782300">
        <ele>713.8</ele>
        <time>2020-07-25T11:23:49Z</time>
      </trkpt>
      <trkpt lat="42.9465290" lon="-1.4781850">
        <ele>714.0</ele>
        <time>2020-07-25T11:23:50Z</time>
      </trkpt>
      <trkpt lat="42.9464620" lon="-1.4781080">
        <ele>714.2</ele>
        <time>2020-07-25T11:23:53Z</time>
      </trkpt>
      <trkpt lat="42.9464040" lon="-1.4780860">
        <ele>714.6</ele>
        <time>2020-07-25T11:23:55Z</time>
      </trkpt>
      <trkpt lat="42.9463090" lon="-1.4780660">
        <ele>715.0</ele>
        <time>2020-07-25T11:23:58Z</time>
      </trkpt>
      <trkpt lat="42.9462450" lon="-1.4780570">
        <ele>715.2</ele>
        <time>2020-07-25T11:24:00Z</time>
      </trkpt>
      <trkpt lat="42.9460930" lon="-1.4779990">
        <ele>716.0</ele>
        <time>2020-07-25T11:24:05Z</time>
      </trkpt>
      <trkpt lat="42.9460410" lon="-1.4779590">
        <ele>716.4</ele>
        <time>2020-07-25T11:24:07Z</time>
      </trkpt>
      <trkpt lat="42.9459670" lon="-1.4778880">
        <ele>717.4</ele>
        <time>2020-07-25T11:24:10Z</time>
      </trkpt>
      <trkpt lat="42.9458990" lon="-1.4777950">
        <ele>718.0</ele>
        <time>2020-07-25T11:24:13Z</time>
      </trkpt>
      <trkpt lat="42.9458630" lon="-1.4777250">
        <ele>718.4</ele>
        <time>2020-07-25T11:24:15Z</time>
      </trkpt>
      <trkpt lat="42.9458140" lon="-1.4775630">
        <ele>719.4</ele>
        <time>2020-07-25T11:24:19Z</time>
      </trkpt>
      <trkpt lat="42.9458090" lon="-1.4775200">
        <ele>719.6</ele>
        <time>2020-07-25T11:24:20Z</time>
      </trkpt>
      <trkpt lat="42.9457920" lon="-1.4772050">
        <ele>720.8</ele>
        <time>2020-07-25T11:24:27Z</time>
      </trkpt>
      <trkpt lat="42.9457970" lon="-1.4770660">
        <ele>721.8</ele>
        <time>2020-07-25T11:24:30Z</time>
      </trkpt>
      <trkpt lat="42.9457970" lon="-1.4768410">
        <ele>722.6</ele>
        <time>2020-07-25T11:24:35Z</time>
      </trkpt>
      <trkpt lat="42.9458130" lon="-1.4767080">
        <ele>723.0</ele>
        <time>2020-07-25T11:24:38Z</time>
      </trkpt>
      <trkpt lat="42.9458500" lon="-1.4765830">
        <ele>723.4</ele>
        <time>2020-07-25T11:24:41Z</time>
      </trkpt>
      <trkpt lat="42.9459850" lon="-1.4763990">
        <ele>724.0</ele>
        <time>2020-07-25T11:24:47Z</time>
      </trkpt>
      <trkpt lat="42.9460120" lon="-1.4763740">
        <ele>724.2</ele>
        <time>2020-07-25T11:24:48Z</time>
      </trkpt>
      <trkpt lat="42.9460970" lon="-1.4763040">
        <ele>725.2</ele>
        <time>2020-07-25T11:24:51Z</time>
      </trkpt>
      <trkpt lat="42.9462380" lon="-1.4761910">
        <ele>726.2</ele>
        <time>2020-07-25T11:24:56Z</time>
      </trkpt>
      <trkpt lat="42.9462650" lon="-1.4761670">
        <ele>726.4</ele>
        <time>2020-07-25T11:24:57Z</time>
      </trkpt>
      <trkpt lat="42.9464160" lon="-1.4760010">
        <ele>727.4</ele>
        <time>2020-07-25T11:25:03Z</time>
      </trkpt>
      <trkpt lat="42.9464370" lon="-1.4759670">
        <ele>727.6</ele>
        <time>2020-07-25T11:25:04Z</time>
      </trkpt>
      <trkpt lat="42.9465280" lon="-1.4757620">
        <ele>728.6</ele>
        <time>2020-07-25T11:25:10Z</time>
      </trkpt>
      <trkpt lat="42.9465600" lon="-1.4756820">
        <ele>729.0</ele>
        <time>2020-07-25T11:25:12Z</time>
      </trkpt>
      <trkpt lat="42.9465790" lon="-1.4755940">
        <ele>729.8</ele>
        <time>2020-07-25T11:25:14Z</time>
      </trkpt>
      <trkpt lat="42.9465820" lon="-1.4754160">
        <ele>730.2</ele>
        <time>2020-07-25T11:25:18Z</time>
      </trkpt>
      <trkpt lat="42.9465500" lon="-1.4752480">
        <ele>730.8</ele>
        <time>2020-07-25T11:25:22Z</time>
      </trkpt>
      <trkpt lat="42.9465090" lon="-1.4750840">
        <ele>731.8</ele>
        <time>2020-07-25T11:25:26Z</time>
      </trkpt>
      <trkpt lat="42.9464980" lon="-1.4750420">
        <ele>732.0</ele>
        <time>2020-07-25T11:25:27Z</time>
      </trkpt>
      <trkpt lat="42.9464890" lon="-1.4748110">
        <ele>733.0</ele>
        <time>2020-07-25T11:25:32Z</time>
      </trkpt>
      <trkpt lat="42.9465830" lon="-1.4746210">
        <ele>734.2</ele>
        <time>2020-07-25T11:25:37Z</time>
      </trkpt>
      <trkpt lat="42.9467220" lon="-1.4744200">
        <ele>735.4</ele>
        <time>2020-07-25T11:25:43Z</time>
      </trkpt>
      <trkpt lat="42.9468060" lon="-1.4742770">
        <ele>736.4</ele>
        <time>2020-07-25T11:25:47Z</time>
      </trkpt>
      <trkpt lat="42.9468830" lon="-1.4741340">
        <ele>737.4</ele>
        <time>2020-07-25T11:25:51Z</time>
      </trkpt>
      <trkpt lat="42.9469020" lon="-1.4740980">
        <ele>737.6</ele>
        <time>2020-07-25T11:25:52Z</time>
      </trkpt>
      <trkpt lat="42.9469940" lon="-1.4739150">
        <ele>738.6</ele>
        <time>2020-07-25T11:25:57Z</time>
      </trkpt>
      <trkpt lat="42.9470240" lon="-1.4738360">
        <ele>738.8</ele>
        <time>2020-07-25T11:25:59Z</time>
      </trkpt>
      <trkpt lat="42.9470470" lon="-1.4737110">
        <ele>739.6</ele>
        <time>2020-07-25T11:26:02Z</time>
      </trkpt>
      <trkpt lat="42.9470440" lon="-1.4736260">
        <ele>740.2</ele>
        <time>2020-07-25T11:26:04Z</time>
      </trkpt>
      <trkpt lat="42.9470220" lon="-1.4735070">
        <ele>740.6</ele>
        <time>2020-07-25T11:26:07Z</time>
      </trkpt>
      <trkpt lat="42.9469990" lon="-1.4734340">
        <ele>741.0</ele>
        <time>2020-07-25T11:26:09Z</time>
      </trkpt>
      <trkpt lat="42.9469370" lon="-1.4732410">
        <ele>741.8</ele>
        <time>2020-07-25T11:26:14Z</time>
      </trkpt>
      <trkpt lat="42.9469220" lon="-1.4731160">
        <ele>742.2</ele>
        <time>2020-07-25T11:26:17Z</time>
      </trkpt>
      <trkpt lat="42.9469250" lon="-1.4729940">
        <ele>742.8</ele>
        <time>2020-07-25T11:26:20Z</time>
      </trkpt>
      <trkpt lat="42.9469430" lon="-1.4728760">
        <ele>743.8</ele>
        <time>2020-07-25T11:26:23Z</time>
      </trkpt>
      <trkpt lat="42.9469540" lon="-1.4728350">
        <ele>744.0</ele>
        <time>2020-07-25T11:26:24Z</time>
      </trkpt>
      <trkpt lat="42.9470330" lon="-1.4726540">
        <ele>745.0</ele>
        <time>2020-07-25T11:26:29Z</time>
      </trkpt>
      <trkpt lat="42.9470600" lon="-1.4726230">
        <ele>745.2</ele>
        <time>2020-07-25T11:26:30Z</time>
      </trkpt>
      <trkpt lat="42.9471760" lon="-1.4724630">
        <ele>746.2</ele>
        <time>2020-07-25T11:26:35Z</time>
      </trkpt>
      <trkpt lat="42.9472310" lon="-1.4723520">
        <ele>747.0</ele>
        <time>2020-07-25T11:26:38Z</time>
      </trkpt>
      <trkpt lat="42.9472460" lon="-1.4723130">
        <ele>747.2</ele>
        <time>2020-07-25T11:26:39Z</time>
      </trkpt>
      <trkpt lat="42.9473180" lon="-1.4720750">
        <ele>748.4</ele>
        <time>2020-07-25T11:26:45Z</time>
      </trkpt>
      <trkpt lat="42.9473280" lon="-1.4720350">
        <ele>748.4</ele>
        <time>2020-07-25T11:26:46Z</time>
      </trkpt>
      <trkpt lat="42.9473800" lon="-1.4718320">
        <ele>749.4</ele>
        <time>2020-07-25T11:26:51Z</time>
      </trkpt>
      <trkpt lat="42.9474250" lon="-1.4716720">
        <ele>750.0</ele>
        <time>2020-07-25T11:26:55Z</time>
      </trkpt>
      <trkpt lat="42.9474470" lon="-1.4715880">
        <ele>750.2</ele>
        <time>2020-07-25T11:26:57Z</time>
      </trkpt>
      <trkpt lat="42.9474860" lon="-1.4713830">
        <ele>751.4</ele>
        <time>2020-07-25T11:27:02Z</time>
      </trkpt>
      <trkpt lat="42.9474930" lon="-1.4713410">
        <ele>751.4</ele>
        <time>2020-07-25T11:27:03Z</time>
      </trkpt>
      <trkpt lat="42.9475240" lon="-1.4711750">
        <ele>752.4</ele>
        <time>2020-07-25T11:27:07Z</time>
      </trkpt>
      <trkpt lat="42.9475410" lon="-1.4710470">
        <ele>753.2</ele>
        <time>2020-07-25T11:27:10Z</time>
      </trkpt>
      <trkpt lat="42.9475450" lon="-1.4710060">
        <ele>753.6</ele>
        <time>2020-07-25T11:27:11Z</time>
      </trkpt>
      <trkpt lat="42.9475990" lon="-1.4707080">
        <ele>754.4</ele>
        <time>2020-07-25T11:27:18Z</time>
      </trkpt>
      <trkpt lat="42.9476330" lon="-1.4704560">
        <ele>755.6</ele>
        <time>2020-07-25T11:27:24Z</time>
      </trkpt>
      <trkpt lat="42.9476440" lon="-1.4703280">
        <ele>756.2</ele>
        <time>2020-07-25T11:27:27Z</time>
      </trkpt>
      <trkpt lat="42.9476470" lon="-1.4702400">
        <ele>756.8</ele>
        <time>2020-07-25T11:27:29Z</time>
      </trkpt>
      <trkpt lat="42.9476280" lon="-1.4700710">
        <ele>758.0</ele>
        <time>2020-07-25T11:27:33Z</time>
      </trkpt>
      <trkpt lat="42.9476190" lon="-1.4700320">
        <ele>758.2</ele>
        <time>2020-07-25T11:27:34Z</time>
      </trkpt>
      <trkpt lat="42.9475680" lon="-1.4698760">
        <ele>759.0</ele>
        <time>2020-07-25T11:27:38Z</time>
      </trkpt>
      <trkpt lat="42.9475110" lon="-1.4697650">
        <ele>759.8</ele>
        <time>2020-07-25T11:27:41Z</time>
      </trkpt>
      <trkpt lat="42.9474570" lon="-1.4697070">
        <ele>760.0</ele>
        <time>2020-07-25T11:27:43Z</time>
      </trkpt>
      <trkpt lat="42.9473600" lon="-1.4696670">
        <ele>760.2</ele>
        <time>2020-07-25T11:27:46Z</time>
      </trkpt>
      <trkpt lat="42.9471710" lon="-1.4697050">
        <ele>760.8</ele>
        <time>2020-07-25T11:27:52Z</time>
      </trkpt>
      <trkpt lat="42.9471410" lon="-1.4697170">
        <ele>761.2</ele>
        <time>2020-07-25T11:27:53Z</time>
      </trkpt>
      <trkpt lat="42.9470480" lon="-1.4697540">
        <ele>761.8</ele>
        <time>2020-07-25T11:27:56Z</time>
      </trkpt>
      <trkpt lat="42.9469250" lon="-1.4698170">
        <ele>762.8</ele>
        <time>2020-07-25T11:28:00Z</time>
      </trkpt>
      <trkpt lat="42.9468950" lon="-1.4698370">
        <ele>763.0</ele>
        <time>2020-07-25T11:28:01Z</time>
      </trkpt>
      <trkpt lat="42.9467170" lon="-1.4699420">
        <ele>764.0</ele>
        <time>2020-07-25T11:28:07Z</time>
      </trkpt>
      <trkpt lat="42.9466880" lon="-1.4699620">
        <ele>764.2</ele>
        <time>2020-07-25T11:28:08Z</time>
      </trkpt>
      <trkpt lat="42.9465170" lon="-1.4700690">
        <ele>765.2</ele>
        <time>2020-07-25T11:28:14Z</time>
      </trkpt>
      <trkpt lat="42.9463780" lon="-1.4701370">
        <ele>766.2</ele>
        <time>2020-07-25T11:28:19Z</time>
      </trkpt>
      <trkpt lat="42.9461900" lon="-1.4701490">
        <ele>767.2</ele>
        <time>2020-07-25T11:28:25Z</time>
      </trkpt>
      <trkpt lat="42.9461610" lon="-1.4701480">
        <ele>767.4</ele>
        <time>2020-07-25T11:28:26Z</time>
      </trkpt>
      <trkpt lat="42.9460150" lon="-1.4701270">
        <ele>768.4</ele>
        <time>2020-07-25T11:28:31Z</time>
      </trkpt>
      <trkpt lat="42.9459850" lon="-1.4701160">
        <ele>768.6</ele>
        <time>2020-07-25T11:28:32Z</time>
      </trkpt>
      <trkpt lat="42.9458300" lon="-1.4700730">
        <ele>769.4</ele>
        <time>2020-07-25T11:28:37Z</time>
      </trkpt>
      <trkpt lat="42.9457090" lon="-1.4700560">
        <ele>770.0</ele>
        <time>2020-07-25T11:28:41Z</time>
      </trkpt>
      <trkpt lat="42.9456180" lon="-1.4700610">
        <ele>770.4</ele>
        <time>2020-07-25T11:28:44Z</time>
      </trkpt>
      <trkpt lat="42.9454890" lon="-1.4700940">
        <ele>771.0</ele>
        <time>2020-07-25T11:28:48Z</time>
      </trkpt>
      <trkpt lat="42.9453660" lon="-1.4701580">
        <ele>771.6</ele>
        <time>2020-07-25T11:28:52Z</time>
      </trkpt>
      <trkpt lat="42.9452820" lon="-1.4702200">
        <ele>772.0</ele>
        <time>2020-07-25T11:28:55Z</time>
      </trkpt>
      <trkpt lat="42.9452130" lon="-1.4702920">
        <ele>772.4</ele>
        <time>2020-07-25T11:28:58Z</time>
      </trkpt>
      <trkpt lat="42.9450920" lon="-1.4704270">
        <ele>773.4</ele>
        <time>2020-07-25T11:29:03Z</time>
      </trkpt>
      <trkpt lat="42.9450690" lon="-1.4704530">
        <ele>773.6</ele>
        <time>2020-07-25T11:29:04Z</time>
      </trkpt>
      <trkpt lat="42.9449460" lon="-1.4706260">
        <ele>774.6</ele>
        <time>2020-07-25T11:29:10Z</time>
      </trkpt>
      <trkpt lat="42.9448310" lon="-1.4708230">
        <ele>775.6</ele>
        <time>2020-07-25T11:29:16Z</time>
      </trkpt>
      <trkpt lat="42.9447870" lon="-1.4708890">
        <ele>776.0</ele>
        <time>2020-07-25T11:29:18Z</time>
      </trkpt>
      <trkpt lat="42.9446850" lon="-1.4710040">
        <ele>776.6</ele>
        <time>2020-07-25T11:29:22Z</time>
      </trkpt>
      <trkpt lat="42.9446230" lon="-1.4710470">
        <ele>777.0</ele>
        <time>2020-07-25T11:29:24Z</time>
      </trkpt>
      <trkpt lat="42.9444930" lon="-1.4710990">
        <ele>777.8</ele>
        <time>2020-07-25T11:29:28Z</time>
      </trkpt>
      <trkpt lat="42.9443940" lon="-1.4710960">
        <ele>778.4</ele>
        <time>2020-07-25T11:29:31Z</time>
      </trkpt>
      <trkpt lat="42.9443300" lon="-1.4710800">
        <ele>778.8</ele>
        <time>2020-07-25T11:29:33Z</time>
      </trkpt>
      <trkpt lat="42.9442040" lon="-1.4710140">
        <ele>780.0</ele>
        <time>2020-07-25T11:29:37Z</time>
      </trkpt>
      <trkpt lat="42.9440000" lon="-1.4708660">
        <ele>781.2</ele>
        <time>2020-07-25T11:29:44Z</time>
      </trkpt>
      <trkpt lat="42.9438490" lon="-1.4707790">
        <ele>781.8</ele>
        <time>2020-07-25T11:29:49Z</time>
      </trkpt>
      <trkpt lat="42.9437880" lon="-1.4707550">
        <ele>782.2</ele>
        <time>2020-07-25T11:29:51Z</time>
      </trkpt>
      <trkpt lat="42.9436570" lon="-1.4707200">
        <ele>783.0</ele>
        <time>2020-07-25T11:29:55Z</time>
      </trkpt>
      <trkpt lat="42.9435910" lon="-1.4707070">
        <ele>783.4</ele>
        <time>2020-07-25T11:29:57Z</time>
      </trkpt>
      <trkpt lat="42.9434290" lon="-1.4707020">
        <ele>784.4</ele>
        <time>2020-07-25T11:30:02Z</time>
      </trkpt>
      <trkpt lat="42.9432250" lon="-1.4707180">
        <ele>785.6</ele>
        <time>2020-07-25T11:30:08Z</time>
      </trkpt>
      <trkpt lat="42.9431610" lon="-1.4707290">
        <ele>786.0</ele>
        <time>2020-07-25T11:30:10Z</time>
      </trkpt>
      <trkpt lat="42.9430330" lon="-1.4707580">
        <ele>786.6</ele>
        <time>2020-07-25T11:30:14Z</time>
      </trkpt>
      <trkpt lat="42.9430000" lon="-1.4707670">
        <ele>786.8</ele>
        <time>2020-07-25T11:30:15Z</time>
      </trkpt>
      <trkpt lat="42.9428700" lon="-1.4708110">
        <ele>787.6</ele>
        <time>2020-07-25T11:30:19Z</time>
      </trkpt>
      <trkpt lat="42.9427700" lon="-1.4708410">
        <ele>788.0</ele>
        <time>2020-07-25T11:30:22Z</time>
      </trkpt>
      <trkpt lat="42.9426700" lon="-1.4708590">
        <ele>789.4</ele>
        <time>2020-07-25T11:30:25Z</time>
      </trkpt>
      <trkpt lat="42.9424680" lon="-1.4709050">
        <ele>790.6</ele>
        <time>2020-07-25T11:30:31Z</time>
      </trkpt>
      <trkpt lat="42.9422150" lon="-1.4709360">
        <ele>791.6</ele>
        <time>2020-07-25T11:30:38Z</time>
      </trkpt>
      <trkpt lat="42.9420120" lon="-1.4709040">
        <ele>792.8</ele>
        <time>2020-07-25T11:30:44Z</time>
      </trkpt>
      <trkpt lat="42.9419790" lon="-1.4708980">
        <ele>793.0</ele>
        <time>2020-07-25T11:30:45Z</time>
      </trkpt>
      <trkpt lat="42.9418800" lon="-1.4708780">
        <ele>794.0</ele>
        <time>2020-07-25T11:30:48Z</time>
      </trkpt>
      <trkpt lat="42.9417150" lon="-1.4707940">
        <ele>795.0</ele>
        <time>2020-07-25T11:30:53Z</time>
      </trkpt>
      <trkpt lat="42.9415970" lon="-1.4706200">
        <ele>795.6</ele>
        <time>2020-07-25T11:30:58Z</time>
      </trkpt>
      <trkpt lat="42.9415820" lon="-1.4704270">
        <ele>796.2</ele>
        <time>2020-07-25T11:31:02Z</time>
      </trkpt>
      <trkpt lat="42.9415980" lon="-1.4703190">
        <ele>796.4</ele>
        <time>2020-07-25T11:31:04Z</time>
      </trkpt>
      <trkpt lat="42.9416290" lon="-1.4702070">
        <ele>796.4</ele>
        <time>2020-07-25T11:31:06Z</time>
      </trkpt>
      <trkpt lat="42.9416530" lon="-1.4701510">
        <ele>796.4</ele>
        <time>2020-07-25T11:31:07Z</time>
      </trkpt>
      <trkpt lat="42.9417830" lon="-1.4697840">
        <ele>796.4</ele>
        <time>2020-07-25T11:31:12Z</time>
      </trkpt>
      <trkpt lat="42.9418890" lon="-1.4692940">
        <ele>795.0</ele>
        <time>2020-07-25T11:31:17Z</time>
      </trkpt>
      <trkpt lat="42.9419000" lon="-1.4691810">
        <ele>795.0</ele>
        <time>2020-07-25T11:31:18Z</time>
      </trkpt>
      <trkpt lat="42.9419040" lon="-1.4689440">
        <ele>793.8</ele>
        <time>2020-07-25T11:31:20Z</time>
      </trkpt>
      <trkpt lat="42.9419010" lon="-1.4688250">
        <ele>792.8</ele>
        <time>2020-07-25T11:31:21Z</time>
      </trkpt>
      <trkpt lat="42.9419030" lon="-1.4687100">
        <ele>792.4</ele>
        <time>2020-07-25T11:31:22Z</time>
      </trkpt>
      <trkpt lat="42.9419130" lon="-1.4686020">
        <ele>791.6</ele>
        <time>2020-07-25T11:31:23Z</time>
      </trkpt>
      <trkpt lat="42.9419370" lon="-1.4684980">
        <ele>791.4</ele>
        <time>2020-07-25T11:31:24Z</time>
      </trkpt>
      <trkpt lat="42.9419800" lon="-1.4684010">
        <ele>790.6</ele>
        <time>2020-07-25T11:31:25Z</time>
      </trkpt>
      <trkpt lat="42.9421160" lon="-1.4682580">
        <ele>789.6</ele>
        <time>2020-07-25T11:31:27Z</time>
      </trkpt>
      <trkpt lat="42.9422010" lon="-1.4682200">
        <ele>789.2</ele>
        <time>2020-07-25T11:31:28Z</time>
      </trkpt>
      <trkpt lat="42.9423910" lon="-1.4682060">
        <ele>788.4</ele>
        <time>2020-07-25T11:31:30Z</time>
      </trkpt>
      <trkpt lat="42.9425940" lon="-1.4682620">
        <ele>788.0</ele>
        <time>2020-07-25T11:31:32Z</time>
      </trkpt>
      <trkpt lat="42.9426940" lon="-1.4683010">
        <ele>787.6</ele>
        <time>2020-07-25T11:31:33Z</time>
      </trkpt>
      <trkpt lat="42.9428940" lon="-1.4683750">
        <ele>786.8</ele>
        <time>2020-07-25T11:31:35Z</time>
      </trkpt>
      <trkpt lat="42.9431030" lon="-1.4684250">
        <ele>785.8</ele>
        <time>2020-07-25T11:31:37Z</time>
      </trkpt>
      <trkpt lat="42.9432110" lon="-1.4684270">
        <ele>785.0</ele>
        <time>2020-07-25T11:31:38Z</time>
      </trkpt>
      <trkpt lat="42.9433190" lon="-1.4684110">
        <ele>784.2</ele>
        <time>2020-07-25T11:31:39Z</time>
      </trkpt>
      <trkpt lat="42.9435290" lon="-1.4683280">
        <ele>782.8</ele>
        <time>2020-07-25T11:31:41Z</time>
      </trkpt>
      <trkpt lat="42.9437290" lon="-1.4681910">
        <ele>781.6</ele>
        <time>2020-07-25T11:31:43Z</time>
      </trkpt>
      <trkpt lat="42.9439220" lon="-1.4680250">
        <ele>780.6</ele>
        <time>2020-07-25T11:31:45Z</time>
      </trkpt>
      <trkpt lat="42.9441170" lon="-1.4678490">
        <ele>779.0</ele>
        <time>2020-07-25T11:31:47Z</time>
      </trkpt>
      <trkpt lat="42.9442170" lon="-1.4677670">
        <ele>777.2</ele>
        <time>2020-07-25T11:31:48Z</time>
      </trkpt>
      <trkpt lat="42.9443060" lon="-1.4676900">
        <ele>776.6</ele>
        <time>2020-07-25T11:31:49Z</time>
      </trkpt>
      <trkpt lat="42.9443750" lon="-1.4676050">
        <ele>776.0</ele>
        <time>2020-07-25T11:31:50Z</time>
      </trkpt>
      <trkpt lat="42.9444660" lon="-1.4672520">
        <ele>774.8</ele>
        <time>2020-07-25T11:31:53Z</time>
      </trkpt>
      <trkpt lat="42.9443850" lon="-1.4670050">
        <ele>773.2</ele>
        <time>2020-07-25T11:31:55Z</time>
      </trkpt>
      <trkpt lat="42.9442370" lon="-1.4668230">
        <ele>772.4</ele>
        <time>2020-07-25T11:31:57Z</time>
      </trkpt>
      <trkpt lat="42.9441650" lon="-1.4667280">
        <ele>772.2</ele>
        <time>2020-07-25T11:31:58Z</time>
      </trkpt>
      <trkpt lat="42.9441010" lon="-1.4666160">
        <ele>771.6</ele>
        <time>2020-07-25T11:31:59Z</time>
      </trkpt>
      <trkpt lat="42.9440570" lon="-1.4664870">
        <ele>770.8</ele>
        <time>2020-07-25T11:32:00Z</time>
      </trkpt>
      <trkpt lat="42.9440410" lon="-1.4663450">
        <ele>769.8</ele>
        <time>2020-07-25T11:32:01Z</time>
      </trkpt>
      <trkpt lat="42.9440530" lon="-1.4662000">
        <ele>769.0</ele>
        <time>2020-07-25T11:32:02Z</time>
      </trkpt>
      <trkpt lat="42.9440910" lon="-1.4660670">
        <ele>768.2</ele>
        <time>2020-07-25T11:32:03Z</time>
      </trkpt>
      <trkpt lat="42.9441320" lon="-1.4659350">
        <ele>767.6</ele>
        <time>2020-07-25T11:32:04Z</time>
      </trkpt>
      <trkpt lat="42.9441610" lon="-1.4656500">
        <ele>767.0</ele>
        <time>2020-07-25T11:32:06Z</time>
      </trkpt>
      <trkpt lat="42.9440960" lon="-1.4653810">
        <ele>766.2</ele>
        <time>2020-07-25T11:32:08Z</time>
      </trkpt>
      <trkpt lat="42.9439380" lon="-1.4652060">
        <ele>765.0</ele>
        <time>2020-07-25T11:32:10Z</time>
      </trkpt>
      <trkpt lat="42.9437340" lon="-1.4651180">
        <ele>763.8</ele>
        <time>2020-07-25T11:32:12Z</time>
      </trkpt>
      <trkpt lat="42.9436250" lon="-1.4650800">
        <ele>763.2</ele>
        <time>2020-07-25T11:32:13Z</time>
      </trkpt>
      <trkpt lat="42.9435150" lon="-1.4650450">
        <ele>762.8</ele>
        <time>2020-07-25T11:32:14Z</time>
      </trkpt>
      <trkpt lat="42.9431800" lon="-1.4649330">
        <ele>760.8</ele>
        <time>2020-07-25T11:32:17Z</time>
      </trkpt>
      <trkpt lat="42.9428280" lon="-1.4648480">
        <ele>759.4</ele>
        <time>2020-07-25T11:32:20Z</time>
      </trkpt>
      <trkpt lat="42.9425870" lon="-1.4647770">
        <ele>758.2</ele>
        <time>2020-07-25T11:32:22Z</time>
      </trkpt>
      <trkpt lat="42.9423420" lon="-1.4647050">
        <ele>757.0</ele>
        <time>2020-07-25T11:32:24Z</time>
      </trkpt>
      <trkpt lat="42.9420980" lon="-1.4646350">
        <ele>755.4</ele>
        <time>2020-07-25T11:32:26Z</time>
      </trkpt>
      <trkpt lat="42.9418590" lon="-1.4645630">
        <ele>753.8</ele>
        <time>2020-07-25T11:32:28Z</time>
      </trkpt>
      <trkpt lat="42.9416350" lon="-1.4644750">
        <ele>752.0</ele>
        <time>2020-07-25T11:32:30Z</time>
      </trkpt>
      <trkpt lat="42.9415280" lon="-1.4644180">
        <ele>751.2</ele>
        <time>2020-07-25T11:32:31Z</time>
      </trkpt>
      <trkpt lat="42.9414260" lon="-1.4643440">
        <ele>750.4</ele>
        <time>2020-07-25T11:32:32Z</time>
      </trkpt>
      <trkpt lat="42.9412580" lon="-1.4641310">
        <ele>748.8</ele>
        <time>2020-07-25T11:32:34Z</time>
      </trkpt>
      <trkpt lat="42.9411990" lon="-1.4639940">
        <ele>748.0</ele>
        <time>2020-07-25T11:32:35Z</time>
      </trkpt>
      <trkpt lat="42.9411580" lon="-1.4638470">
        <ele>747.4</ele>
        <time>2020-07-25T11:32:36Z</time>
      </trkpt>
      <trkpt lat="42.9411170" lon="-1.4635430">
        <ele>747.0</ele>
        <time>2020-07-25T11:32:38Z</time>
      </trkpt>
      <trkpt lat="42.9411960" lon="-1.4631080">
        <ele>746.2</ele>
        <time>2020-07-25T11:32:41Z</time>
      </trkpt>
      <trkpt lat="42.9413650" lon="-1.4628950">
        <ele>744.6</ele>
        <time>2020-07-25T11:32:43Z</time>
      </trkpt>
      <trkpt lat="42.9414650" lon="-1.4628070">
        <ele>743.0</ele>
        <time>2020-07-25T11:32:44Z</time>
      </trkpt>
      <trkpt lat="42.9415710" lon="-1.4627240">
        <ele>742.4</ele>
        <time>2020-07-25T11:32:45Z</time>
      </trkpt>
      <trkpt lat="42.9416800" lon="-1.4626440">
        <ele>741.8</ele>
        <time>2020-07-25T11:32:46Z</time>
      </trkpt>
      <trkpt lat="42.9417930" lon="-1.4625640">
        <ele>741.6</ele>
        <time>2020-07-25T11:32:47Z</time>
      </trkpt>
      <trkpt lat="42.9421130" lon="-1.4623090">
        <ele>740.8</ele>
        <time>2020-07-25T11:32:50Z</time>
      </trkpt>
      <trkpt lat="42.9422680" lon="-1.4621270">
        <ele>740.0</ele>
        <time>2020-07-25T11:32:52Z</time>
      </trkpt>
      <trkpt lat="42.9423190" lon="-1.4620270">
        <ele>739.4</ele>
        <time>2020-07-25T11:32:53Z</time>
      </trkpt>
      <trkpt lat="42.9423400" lon="-1.4619250">
        <ele>738.8</ele>
        <time>2020-07-25T11:32:54Z</time>
      </trkpt>
      <trkpt lat="42.9423340" lon="-1.4618210">
        <ele>737.8</ele>
        <time>2020-07-25T11:32:55Z</time>
      </trkpt>
      <trkpt lat="42.9423050" lon="-1.4617260">
        <ele>737.0</ele>
        <time>2020-07-25T11:32:56Z</time>
      </trkpt>
      <trkpt lat="42.9422500" lon="-1.4616610">
        <ele>736.6</ele>
        <time>2020-07-25T11:32:57Z</time>
      </trkpt>
      <trkpt lat="42.9421740" lon="-1.4616200">
        <ele>736.4</ele>
        <time>2020-07-25T11:32:58Z</time>
      </trkpt>
      <trkpt lat="42.9419010" lon="-1.4615930">
        <ele>735.8</ele>
        <time>2020-07-25T11:33:01Z</time>
      </trkpt>
      <trkpt lat="42.9416980" lon="-1.4615940">
        <ele>735.4</ele>
        <time>2020-07-25T11:33:03Z</time>
      </trkpt>
      <trkpt lat="42.9414850" lon="-1.4615860">
        <ele>734.4</ele>
        <time>2020-07-25T11:33:05Z</time>
      </trkpt>
      <trkpt lat="42.9412680" lon="-1.4615670">
        <ele>733.2</ele>
        <time>2020-07-25T11:33:07Z</time>
      </trkpt>
      <trkpt lat="42.9410480" lon="-1.4615340">
        <ele>731.8</ele>
        <time>2020-07-25T11:33:09Z</time>
      </trkpt>
      <trkpt lat="42.9408200" lon="-1.4614910">
        <ele>730.4</ele>
        <time>2020-07-25T11:33:11Z</time>
      </trkpt>
      <trkpt lat="42.9407020" lon="-1.4614610">
        <ele>728.8</ele>
        <time>2020-07-25T11:33:12Z</time>
      </trkpt>
      <trkpt lat="42.9405850" lon="-1.4614260">
        <ele>728.2</ele>
        <time>2020-07-25T11:33:13Z</time>
      </trkpt>
      <trkpt lat="42.9404690" lon="-1.4613860">
        <ele>727.4</ele>
        <time>2020-07-25T11:33:14Z</time>
      </trkpt>
      <trkpt lat="42.9402420" lon="-1.4612810">
        <ele>726.4</ele>
        <time>2020-07-25T11:33:16Z</time>
      </trkpt>
      <trkpt lat="42.9401350" lon="-1.4612190">
        <ele>725.6</ele>
        <time>2020-07-25T11:33:17Z</time>
      </trkpt>
      <trkpt lat="42.9400340" lon="-1.4611460">
        <ele>724.8</ele>
        <time>2020-07-25T11:33:18Z</time>
      </trkpt>
      <trkpt lat="42.9398500" lon="-1.4609510">
        <ele>723.2</ele>
        <time>2020-07-25T11:33:20Z</time>
      </trkpt>
      <trkpt lat="42.9397440" lon="-1.4606700">
        <ele>721.8</ele>
        <time>2020-07-25T11:33:22Z</time>
      </trkpt>
      <trkpt lat="42.9397180" lon="-1.4603820">
        <ele>720.4</ele>
        <time>2020-07-25T11:33:24Z</time>
      </trkpt>
      <trkpt lat="42.9397020" lon="-1.4602500">
        <ele>719.8</ele>
        <time>2020-07-25T11:33:25Z</time>
      </trkpt>
      <trkpt lat="42.9396230" lon="-1.4600450">
        <ele>719.2</ele>
        <time>2020-07-25T11:33:27Z</time>
      </trkpt>
      <trkpt lat="42.9394560" lon="-1.4599380">
        <ele>718.0</ele>
        <time>2020-07-25T11:33:29Z</time>
      </trkpt>
      <trkpt lat="42.9393590" lon="-1.4598990">
        <ele>717.4</ele>
        <time>2020-07-25T11:33:30Z</time>
      </trkpt>
      <trkpt lat="42.9392590" lon="-1.4598600">
        <ele>716.4</ele>
        <time>2020-07-25T11:33:31Z</time>
      </trkpt>
      <trkpt lat="42.9390520" lon="-1.4597780">
        <ele>715.2</ele>
        <time>2020-07-25T11:33:33Z</time>
      </trkpt>
      <trkpt lat="42.9389460" lon="-1.4597360">
        <ele>714.8</ele>
        <time>2020-07-25T11:33:34Z</time>
      </trkpt>
      <trkpt lat="42.9387300" lon="-1.4596400">
        <ele>714.0</ele>
        <time>2020-07-25T11:33:36Z</time>
      </trkpt>
      <trkpt lat="42.9384100" lon="-1.4594550">
        <ele>712.0</ele>
        <time>2020-07-25T11:33:39Z</time>
      </trkpt>
      <trkpt lat="42.9382220" lon="-1.4592930">
        <ele>710.2</ele>
        <time>2020-07-25T11:33:41Z</time>
      </trkpt>
      <trkpt lat="42.9381430" lon="-1.4592000">
        <ele>709.2</ele>
        <time>2020-07-25T11:33:42Z</time>
      </trkpt>
      <trkpt lat="42.9380830" lon="-1.4591000">
        <ele>708.6</ele>
        <time>2020-07-25T11:33:43Z</time>
      </trkpt>
      <trkpt lat="42.9380490" lon="-1.4590000">
        <ele>708.0</ele>
        <time>2020-07-25T11:33:44Z</time>
      </trkpt>
      <trkpt lat="42.9380710" lon="-1.4587690">
        <ele>707.4</ele>
        <time>2020-07-25T11:33:46Z</time>
      </trkpt>
      <trkpt lat="42.9382090" lon="-1.4585910">
        <ele>706.2</ele>
        <time>2020-07-25T11:33:48Z</time>
      </trkpt>
      <trkpt lat="42.9383880" lon="-1.4584600">
        <ele>705.4</ele>
        <time>2020-07-25T11:33:50Z</time>
      </trkpt>
      <trkpt lat="42.9384810" lon="-1.4583890">
        <ele>705.2</ele>
        <time>2020-07-25T11:33:51Z</time>
      </trkpt>
      <trkpt lat="42.9385730" lon="-1.4583110">
        <ele>704.8</ele>
        <time>2020-07-25T11:33:52Z</time>
      </trkpt>
      <trkpt lat="42.9387440" lon="-1.4581430">
        <ele>703.8</ele>
        <time>2020-07-25T11:33:54Z</time>
      </trkpt>
      <trkpt lat="42.9388090" lon="-1.4580370">
        <ele>703.4</ele>
        <time>2020-07-25T11:33:55Z</time>
      </trkpt>
      <trkpt lat="42.9388540" lon="-1.4579070">
        <ele>702.8</ele>
        <time>2020-07-25T11:33:56Z</time>
      </trkpt>
      <trkpt lat="42.9388670" lon="-1.4577630">
        <ele>702.0</ele>
        <time>2020-07-25T11:33:57Z</time>
      </trkpt>
      <trkpt lat="42.9388500" lon="-1.4576190">
        <ele>701.2</ele>
        <time>2020-07-25T11:33:58Z</time>
      </trkpt>
      <trkpt lat="42.9388200" lon="-1.4574750">
        <ele>700.4</ele>
        <time>2020-07-25T11:33:59Z</time>
      </trkpt>
      <trkpt lat="42.9387990" lon="-1.4573250">
        <ele>699.4</ele>
        <time>2020-07-25T11:34:00Z</time>
      </trkpt>
      <trkpt lat="42.9388010" lon="-1.4570210">
        <ele>698.0</ele>
        <time>2020-07-25T11:34:02Z</time>
      </trkpt>
      <trkpt lat="42.9388130" lon="-1.4568670">
        <ele>697.4</ele>
        <time>2020-07-25T11:34:03Z</time>
      </trkpt>
      <trkpt lat="42.9388250" lon="-1.4567110">
        <ele>697.0</ele>
        <time>2020-07-25T11:34:04Z</time>
      </trkpt>
      <trkpt lat="42.9388580" lon="-1.4564030">
        <ele>695.6</ele>
        <time>2020-07-25T11:34:06Z</time>
      </trkpt>
      <trkpt lat="42.9388890" lon="-1.4562600">
        <ele>695.2</ele>
        <time>2020-07-25T11:34:07Z</time>
      </trkpt>
      <trkpt lat="42.9389370" lon="-1.4561290">
        <ele>692.8</ele>
        <time>2020-07-25T11:34:08Z</time>
      </trkpt>
      <trkpt lat="42.9390090" lon="-1.4560170">
        <ele>691.6</ele>
        <time>2020-07-25T11:34:09Z</time>
      </trkpt>
      <trkpt lat="42.9391030" lon="-1.4559420">
        <ele>690.6</ele>
        <time>2020-07-25T11:34:10Z</time>
      </trkpt>
      <trkpt lat="42.9392030" lon="-1.4558960">
        <ele>690.2</ele>
        <time>2020-07-25T11:34:11Z</time>
      </trkpt>
      <trkpt lat="42.9393860" lon="-1.4558010">
        <ele>689.4</ele>
        <time>2020-07-25T11:34:13Z</time>
      </trkpt>
      <trkpt lat="42.9394570" lon="-1.4557340">
        <ele>689.2</ele>
        <time>2020-07-25T11:34:14Z</time>
      </trkpt>
      <trkpt lat="42.9395090" lon="-1.4556470">
        <ele>688.6</ele>
        <time>2020-07-25T11:34:15Z</time>
      </trkpt>
      <trkpt lat="42.9395090" lon="-1.4554280">
        <ele>687.6</ele>
        <time>2020-07-25T11:34:17Z</time>
      </trkpt>
      <trkpt lat="42.9393820" lon="-1.4552740">
        <ele>687.0</ele>
        <time>2020-07-25T11:34:19Z</time>
      </trkpt>
      <trkpt lat="42.9393070" lon="-1.4552320">
        <ele>686.8</ele>
        <time>2020-07-25T11:34:20Z</time>
      </trkpt>
      <trkpt lat="42.9392420" lon="-1.4551880">
        <ele>686.6</ele>
        <time>2020-07-25T11:34:21Z</time>
      </trkpt>
      <trkpt lat="42.9391950" lon="-1.4551240">
        <ele>686.4</ele>
        <time>2020-07-25T11:34:22Z</time>
      </trkpt>
      <trkpt lat="42.9391840" lon="-1.4549350">
        <ele>685.2</ele>
        <time>2020-07-25T11:34:24Z</time>
      </trkpt>
      <trkpt lat="42.9392890" lon="-1.4547560">
        <ele>683.8</ele>
        <time>2020-07-25T11:34:26Z</time>
      </trkpt>
      <trkpt lat="42.9393620" lon="-1.4546800">
        <ele>683.6</ele>
        <time>2020-07-25T11:34:27Z</time>
      </trkpt>
      <trkpt lat="42.9396970" lon="-1.4543400">
        <ele>682.6</ele>
        <time>2020-07-25T11:34:31Z</time>
      </trkpt>
      <trkpt lat="42.9399800" lon="-1.4540600">
        <ele>681.2</ele>
        <time>2020-07-25T11:34:34Z</time>
      </trkpt>
      <trkpt lat="42.9400790" lon="-1.4539630">
        <ele>679.6</ele>
        <time>2020-07-25T11:34:35Z</time>
      </trkpt>
      <trkpt lat="42.9402760" lon="-1.4537610">
        <ele>678.0</ele>
        <time>2020-07-25T11:34:37Z</time>
      </trkpt>
      <trkpt lat="42.9404790" lon="-1.4535590">
        <ele>676.6</ele>
        <time>2020-07-25T11:34:39Z</time>
      </trkpt>
      <trkpt lat="42.9406920" lon="-1.4533580">
        <ele>675.0</ele>
        <time>2020-07-25T11:34:41Z</time>
      </trkpt>
      <trkpt lat="42.9409080" lon="-1.4531560">
        <ele>673.2</ele>
        <time>2020-07-25T11:34:43Z</time>
      </trkpt>
      <trkpt lat="42.9411190" lon="-1.4529310">
        <ele>671.8</ele>
        <time>2020-07-25T11:34:45Z</time>
      </trkpt>
      <trkpt lat="42.9413140" lon="-1.4526860">
        <ele>670.4</ele>
        <time>2020-07-25T11:34:47Z</time>
      </trkpt>
      <trkpt lat="42.9413990" lon="-1.4525590">
        <ele>669.4</ele>
        <time>2020-07-25T11:34:48Z</time>
      </trkpt>
      <trkpt lat="42.9414710" lon="-1.4524210">
        <ele>668.4</ele>
        <time>2020-07-25T11:34:49Z</time>
      </trkpt>
      <trkpt lat="42.9415180" lon="-1.4522680">
        <ele>667.8</ele>
        <time>2020-07-25T11:34:50Z</time>
      </trkpt>
      <trkpt lat="42.9415290" lon="-1.4521050">
        <ele>667.2</ele>
        <time>2020-07-25T11:34:51Z</time>
      </trkpt>
      <trkpt lat="42.9415090" lon="-1.4519450">
        <ele>666.4</ele>
        <time>2020-07-25T11:34:52Z</time>
      </trkpt>
      <trkpt lat="42.9414620" lon="-1.4517960">
        <ele>665.2</ele>
        <time>2020-07-25T11:34:53Z</time>
      </trkpt>
      <trkpt lat="42.9414000" lon="-1.4516590">
        <ele>664.0</ele>
        <time>2020-07-25T11:34:54Z</time>
      </trkpt>
      <trkpt lat="42.9413340" lon="-1.4515340">
        <ele>663.2</ele>
        <time>2020-07-25T11:34:55Z</time>
      </trkpt>
      <trkpt lat="42.9412660" lon="-1.4514140">
        <ele>662.6</ele>
        <time>2020-07-25T11:34:56Z</time>
      </trkpt>
      <trkpt lat="42.9410050" lon="-1.4509880">
        <ele>661.8</ele>
        <time>2020-07-25T11:35:00Z</time>
      </trkpt>
      <trkpt lat="42.9407930" lon="-1.4505970">
        <ele>661.8</ele>
        <time>2020-07-25T11:35:04Z</time>
      </trkpt>
      <trkpt lat="42.9407600" lon="-1.4504940">
        <ele>661.8</ele>
        <time>2020-07-25T11:35:05Z</time>
      </trkpt>
      <trkpt lat="42.9406950" lon="-1.4500630">
        <ele>663.4</ele>
        <time>2020-07-25T11:35:09Z</time>
      </trkpt>
      <trkpt lat="42.9406920" lon="-1.4499550">
        <ele>663.8</ele>
        <time>2020-07-25T11:35:10Z</time>
      </trkpt>
      <trkpt lat="42.9407050" lon="-1.4495610">
        <ele>665.2</ele>
        <time>2020-07-25T11:35:14Z</time>
      </trkpt>
      <trkpt lat="42.9408140" lon="-1.4493190">
        <ele>666.2</ele>
        <time>2020-07-25T11:35:17Z</time>
      </trkpt>
      <trkpt lat="42.9408760" lon="-1.4492620">
        <ele>666.2</ele>
        <time>2020-07-25T11:35:18Z</time>
      </trkpt>
      <trkpt lat="42.9410250" lon="-1.4492000">
        <ele>666.4</ele>
        <time>2020-07-25T11:35:20Z</time>
      </trkpt>
      <trkpt lat="42.9411920" lon="-1.4491750">
        <ele>666.4</ele>
        <time>2020-07-25T11:35:22Z</time>
      </trkpt>
      <trkpt lat="42.9414680" lon="-1.4491560">
        <ele>666.4</ele>
        <time>2020-07-25T11:35:25Z</time>
      </trkpt>
      <trkpt lat="42.9420570" lon="-1.4491330">
        <ele>665.4</ele>
        <time>2020-07-25T11:35:31Z</time>
      </trkpt>
      <trkpt lat="42.9421540" lon="-1.4491260">
        <ele>664.2</ele>
        <time>2020-07-25T11:35:32Z</time>
      </trkpt>
      <trkpt lat="42.9422520" lon="-1.4491040">
        <ele>663.8</ele>
        <time>2020-07-25T11:35:33Z</time>
      </trkpt>
      <trkpt lat="42.9423470" lon="-1.4490500">
        <ele>662.8</ele>
        <time>2020-07-25T11:35:34Z</time>
      </trkpt>
      <trkpt lat="42.9424730" lon="-1.4488510">
        <ele>661.8</ele>
        <time>2020-07-25T11:35:36Z</time>
      </trkpt>
      <trkpt lat="42.9424920" lon="-1.4486060">
        <ele>660.4</ele>
        <time>2020-07-25T11:35:38Z</time>
      </trkpt>
      <trkpt lat="42.9424850" lon="-1.4484850">
        <ele>659.8</ele>
        <time>2020-07-25T11:35:39Z</time>
      </trkpt>
      <trkpt lat="42.9424760" lon="-1.4482500">
        <ele>659.0</ele>
        <time>2020-07-25T11:35:41Z</time>
      </trkpt>
      <trkpt lat="42.9424510" lon="-1.4478240">
        <ele>658.6</ele>
        <time>2020-07-25T11:35:45Z</time>
      </trkpt>
      <trkpt lat="42.9424390" lon="-1.4472830">
        <ele>658.6</ele>
        <time>2020-07-25T11:35:51Z</time>
      </trkpt>
      <trkpt lat="42.9424880" lon="-1.4469090">
        <ele>659.8</ele>
        <time>2020-07-25T11:35:56Z</time>
      </trkpt>
      <trkpt lat="42.9425040" lon="-1.4468400">
        <ele>660.2</ele>
        <time>2020-07-25T11:35:57Z</time>
      </trkpt>
      <trkpt lat="42.9425350" lon="-1.4467080">
        <ele>661.4</ele>
        <time>2020-07-25T11:35:59Z</time>
      </trkpt>
      <trkpt lat="42.9425640" lon="-1.4465820">
        <ele>662.4</ele>
        <time>2020-07-25T11:36:01Z</time>
      </trkpt>
      <trkpt lat="42.9426070" lon="-1.4464010">
        <ele>663.6</ele>
        <time>2020-07-25T11:36:04Z</time>
      </trkpt>
      <trkpt lat="42.9426200" lon="-1.4463430">
        <ele>664.0</ele>
        <time>2020-07-25T11:36:05Z</time>
      </trkpt>
      <trkpt lat="42.9426600" lon="-1.4461670">
        <ele>664.6</ele>
        <time>2020-07-25T11:36:08Z</time>
      </trkpt>
      <trkpt lat="42.9427030" lon="-1.4460060">
        <ele>665.4</ele>
        <time>2020-07-25T11:36:11Z</time>
      </trkpt>
      <trkpt lat="42.9427160" lon="-1.4459510">
        <ele>665.8</ele>
        <time>2020-07-25T11:36:12Z</time>
      </trkpt>
      <trkpt lat="42.9427980" lon="-1.4455770">
        <ele>666.8</ele>
        <time>2020-07-25T11:36:19Z</time>
      </trkpt>
      <trkpt lat="42.9428220" lon="-1.4454730">
        <ele>667.4</ele>
        <time>2020-07-25T11:36:21Z</time>
      </trkpt>
      <trkpt lat="42.9428350" lon="-1.4454230">
        <ele>667.8</ele>
        <time>2020-07-25T11:36:22Z</time>
      </trkpt>
      <trkpt lat="42.9428720" lon="-1.4452750">
        <ele>668.8</ele>
        <time>2020-07-25T11:36:25Z</time>
      </trkpt>
      <trkpt lat="42.9429030" lon="-1.4451300">
        <ele>670.0</ele>
        <time>2020-07-25T11:36:28Z</time>
      </trkpt>
      <trkpt lat="42.9429590" lon="-1.4448860">
        <ele>671.2</ele>
        <time>2020-07-25T11:36:33Z</time>
      </trkpt>
      <trkpt lat="42.9430170" lon="-1.4446390">
        <ele>672.2</ele>
        <time>2020-07-25T11:36:38Z</time>
      </trkpt>
      <trkpt lat="42.9430600" lon="-1.4444420">
        <ele>673.2</ele>
        <time>2020-07-25T11:36:42Z</time>
      </trkpt>
      <trkpt lat="42.9430710" lon="-1.4443930">
        <ele>673.4</ele>
        <time>2020-07-25T11:36:43Z</time>
      </trkpt>
      <trkpt lat="42.9431510" lon="-1.4440500">
        <ele>674.6</ele>
        <time>2020-07-25T11:36:50Z</time>
      </trkpt>
      <trkpt lat="42.9432350" lon="-1.4437030">
        <ele>675.8</ele>
        <time>2020-07-25T11:36:57Z</time>
      </trkpt>
      <trkpt lat="42.9433220" lon="-1.4434050">
        <ele>676.4</ele>
        <time>2020-07-25T11:37:03Z</time>
      </trkpt>
      <trkpt lat="42.9433710" lon="-1.4432600">
        <ele>676.8</ele>
        <time>2020-07-25T11:37:06Z</time>
      </trkpt>
      <trkpt lat="42.9434370" lon="-1.4430690">
        <ele>677.4</ele>
        <time>2020-07-25T11:37:10Z</time>
      </trkpt>
      <trkpt lat="42.9434550" lon="-1.4430200">
        <ele>677.8</ele>
        <time>2020-07-25T11:37:11Z</time>
      </trkpt>
      <trkpt lat="42.9435960" lon="-1.4426240">
        <ele>679.0</ele>
        <time>2020-07-25T11:37:19Z</time>
      </trkpt>
      <trkpt lat="42.9436140" lon="-1.4425740">
        <ele>679.2</ele>
        <time>2020-07-25T11:37:20Z</time>
      </trkpt>
      <trkpt lat="42.9436830" lon="-1.4423670">
        <ele>680.4</ele>
        <time>2020-07-25T11:37:24Z</time>
      </trkpt>
      <trkpt lat="42.9438170" lon="-1.4419870">
        <ele>681.6</ele>
        <time>2020-07-25T11:37:31Z</time>
      </trkpt>
      <trkpt lat="42.9440010" lon="-1.4414900">
        <ele>682.2</ele>
        <time>2020-07-25T11:37:39Z</time>
      </trkpt>
      <trkpt lat="42.9442020" lon="-1.4410070">
        <ele>682.2</ele>
        <time>2020-07-25T11:37:45Z</time>
      </trkpt>
      <trkpt lat="42.9444340" lon="-1.4404510">
        <ele>681.8</ele>
        <time>2020-07-25T11:37:50Z</time>
      </trkpt>
      <trkpt lat="42.9445380" lon="-1.4401990">
        <ele>680.2</ele>
        <time>2020-07-25T11:37:52Z</time>
      </trkpt>
      <trkpt lat="42.9446410" lon="-1.4399440">
        <ele>679.2</ele>
        <time>2020-07-25T11:37:54Z</time>
      </trkpt>
      <trkpt lat="42.9447470" lon="-1.4396960">
        <ele>678.0</ele>
        <time>2020-07-25T11:37:56Z</time>
      </trkpt>
      <trkpt lat="42.9447950" lon="-1.4395830">
        <ele>677.4</ele>
        <time>2020-07-25T11:37:57Z</time>
      </trkpt>
      <trkpt lat="42.9448400" lon="-1.4394750">
        <ele>676.8</ele>
        <time>2020-07-25T11:37:58Z</time>
      </trkpt>
      <trkpt lat="42.9449940" lon="-1.4390890">
        <ele>676.4</ele>
        <time>2020-07-25T11:38:02Z</time>
      </trkpt>
      <trkpt lat="42.9451810" lon="-1.4386300">
        <ele>676.8</ele>
        <time>2020-07-25T11:38:08Z</time>
      </trkpt>
      <trkpt lat="42.9452560" lon="-1.4384410">
        <ele>678.2</ele>
        <time>2020-07-25T11:38:11Z</time>
      </trkpt>
      <trkpt lat="42.9453030" lon="-1.4383250">
        <ele>679.6</ele>
        <time>2020-07-25T11:38:13Z</time>
      </trkpt>
      <trkpt lat="42.9453490" lon="-1.4382160">
        <ele>680.6</ele>
        <time>2020-07-25T11:38:15Z</time>
      </trkpt>
      <trkpt lat="42.9454340" lon="-1.4380030">
        <ele>682.2</ele>
        <time>2020-07-25T11:38:19Z</time>
      </trkpt>
      <trkpt lat="42.9454930" lon="-1.4378530">
        <ele>683.2</ele>
        <time>2020-07-25T11:38:22Z</time>
      </trkpt>
      <trkpt lat="42.9455130" lon="-1.4378050">
        <ele>683.6</ele>
        <time>2020-07-25T11:38:23Z</time>
      </trkpt>
      <trkpt lat="42.9455870" lon="-1.4376100">
        <ele>684.4</ele>
        <time>2020-07-25T11:38:27Z</time>
      </trkpt>
      <trkpt lat="42.9456900" lon="-1.4373700">
        <ele>685.6</ele>
        <time>2020-07-25T11:38:32Z</time>
      </trkpt>
      <trkpt lat="42.9457960" lon="-1.4371910">
        <ele>686.8</ele>
        <time>2020-07-25T11:38:36Z</time>
      </trkpt>
      <trkpt lat="42.9459100" lon="-1.4370240">
        <ele>688.0</ele>
        <time>2020-07-25T11:38:40Z</time>
      </trkpt>
      <trkpt lat="42.9460510" lon="-1.4368210">
        <ele>689.0</ele>
        <time>2020-07-25T11:38:45Z</time>
      </trkpt>
      <trkpt lat="42.9461670" lon="-1.4366610">
        <ele>690.4</ele>
        <time>2020-07-25T11:38:49Z</time>
      </trkpt>
      <trkpt lat="42.9461970" lon="-1.4366190">
        <ele>690.6</ele>
        <time>2020-07-25T11:38:50Z</time>
      </trkpt>
      <trkpt lat="42.9463150" lon="-1.4364450">
        <ele>691.6</ele>
        <time>2020-07-25T11:38:54Z</time>
      </trkpt>
      <trkpt lat="42.9464880" lon="-1.4362260">
        <ele>692.4</ele>
        <time>2020-07-25T11:38:59Z</time>
      </trkpt>
      <trkpt lat="42.9466520" lon="-1.4360540">
        <ele>692.6</ele>
        <time>2020-07-25T11:39:03Z</time>
      </trkpt>
      <trkpt lat="42.9467950" lon="-1.4359240">
        <ele>692.6</ele>
        <time>2020-07-25T11:39:06Z</time>
      </trkpt>
      <trkpt lat="42.9471880" lon="-1.4356580">
        <ele>692.6</ele>
        <time>2020-07-25T11:39:13Z</time>
      </trkpt>
      <trkpt lat="42.9476950" lon="-1.4353930">
        <ele>692.2</ele>
        <time>2020-07-25T11:39:21Z</time>
      </trkpt>
      <trkpt lat="42.9478250" lon="-1.4353230">
        <ele>692.2</ele>
        <time>2020-07-25T11:39:23Z</time>
      </trkpt>
      <trkpt lat="42.9483320" lon="-1.4350300">
        <ele>691.8</ele>
        <time>2020-07-25T11:39:31Z</time>
      </trkpt>
      <trkpt lat="42.9484560" lon="-1.4349400">
        <ele>691.8</ele>
        <time>2020-07-25T11:39:33Z</time>
      </trkpt>
      <trkpt lat="42.9489250" lon="-1.4345440">
        <ele>691.8</ele>
        <time>2020-07-25T11:39:41Z</time>
      </trkpt>
      <trkpt lat="42.9489800" lon="-1.4344910">
        <ele>692.0</ele>
        <time>2020-07-25T11:39:42Z</time>
      </trkpt>
      <trkpt lat="42.9491790" lon="-1.4342560">
        <ele>692.2</ele>
        <time>2020-07-25T11:39:46Z</time>
      </trkpt>
      <trkpt lat="42.9492560" lon="-1.4341140">
        <ele>692.4</ele>
        <time>2020-07-25T11:39:48Z</time>
      </trkpt>
      <trkpt lat="42.9493400" lon="-1.4338840">
        <ele>692.6</ele>
        <time>2020-07-25T11:39:51Z</time>
      </trkpt>
      <trkpt lat="42.9493790" lon="-1.4337290">
        <ele>692.8</ele>
        <time>2020-07-25T11:39:53Z</time>
      </trkpt>
      <trkpt lat="42.9494810" lon="-1.4332330">
        <ele>693.4</ele>
        <time>2020-07-25T11:40:00Z</time>
      </trkpt>
      <trkpt lat="42.9495130" lon="-1.4331030">
        <ele>693.8</ele>
        <time>2020-07-25T11:40:02Z</time>
      </trkpt>
      <trkpt lat="42.9495940" lon="-1.4327730">
        <ele>694.8</ele>
        <time>2020-07-25T11:40:07Z</time>
      </trkpt>
      <trkpt lat="42.9496570" lon="-1.4325150">
        <ele>696.2</ele>
        <time>2020-07-25T11:40:11Z</time>
      </trkpt>
      <trkpt lat="42.9496730" lon="-1.4324520">
        <ele>696.4</ele>
        <time>2020-07-25T11:40:12Z</time>
      </trkpt>
      <trkpt lat="42.9497730" lon="-1.4321590">
        <ele>697.4</ele>
        <time>2020-07-25T11:40:17Z</time>
      </trkpt>
      <trkpt lat="42.9498010" lon="-1.4321080">
        <ele>697.6</ele>
        <time>2020-07-25T11:40:18Z</time>
      </trkpt>
      <trkpt lat="42.9498340" lon="-1.4320620">
        <ele>697.8</ele>
        <time>2020-07-25T11:40:19Z</time>
      </trkpt>
      <trkpt lat="42.9499480" lon="-1.4319520">
        <ele>698.0</ele>
        <time>2020-07-25T11:40:22Z</time>
      </trkpt>
      <trkpt lat="42.9500300" lon="-1.4318930">
        <ele>698.6</ele>
        <time>2020-07-25T11:40:24Z</time>
      </trkpt>
      <trkpt lat="42.9502790" lon="-1.4317160">
        <ele>699.6</ele>
        <time>2020-07-25T11:40:30Z</time>
      </trkpt>
      <trkpt lat="42.9503550" lon="-1.4316480">
        <ele>699.8</ele>
        <time>2020-07-25T11:40:32Z</time>
      </trkpt>
      <trkpt lat="42.9505710" lon="-1.4314250">
        <ele>700.8</ele>
        <time>2020-07-25T11:40:38Z</time>
      </trkpt>
      <trkpt lat="42.9506460" lon="-1.4313660">
        <ele>701.2</ele>
        <time>2020-07-25T11:40:40Z</time>
      </trkpt>
      <trkpt lat="42.9507610" lon="-1.4312940">
        <ele>701.8</ele>
        <time>2020-07-25T11:40:43Z</time>
      </trkpt>
      <trkpt lat="42.9508000" lon="-1.4312780">
        <ele>702.0</ele>
        <time>2020-07-25T11:40:44Z</time>
      </trkpt>
      <trkpt lat="42.9508770" lon="-1.4312500">
        <ele>702.4</ele>
        <time>2020-07-25T11:40:46Z</time>
      </trkpt>
      <trkpt lat="42.9509160" lon="-1.4312390">
        <ele>702.6</ele>
        <time>2020-07-25T11:40:47Z</time>
      </trkpt>
      <trkpt lat="42.9509970" lon="-1.4312170">
        <ele>703.2</ele>
        <time>2020-07-25T11:40:49Z</time>
      </trkpt>
      <trkpt lat="42.9512090" lon="-1.4311740">
        <ele>704.4</ele>
        <time>2020-07-25T11:40:54Z</time>
      </trkpt>
      <trkpt lat="42.9512920" lon="-1.4311630">
        <ele>705.2</ele>
        <time>2020-07-25T11:40:56Z</time>
      </trkpt>
      <trkpt lat="42.9513330" lon="-1.4311580">
        <ele>705.4</ele>
        <time>2020-07-25T11:40:57Z</time>
      </trkpt>
      <trkpt lat="42.9516170" lon="-1.4311050">
        <ele>706.4</ele>
        <time>2020-07-25T11:41:04Z</time>
      </trkpt>
      <trkpt lat="42.9516580" lon="-1.4310980">
        <ele>706.6</ele>
        <time>2020-07-25T11:41:05Z</time>
      </trkpt>
      <trkpt lat="42.9517830" lon="-1.4310800">
        <ele>707.6</ele>
        <time>2020-07-25T11:41:08Z</time>
      </trkpt>
      <trkpt lat="42.9519160" lon="-1.4310650">
        <ele>708.2</ele>
        <time>2020-07-25T11:41:11Z</time>
      </trkpt>
      <trkpt lat="42.9520600" lon="-1.4310740">
        <ele>708.6</ele>
        <time>2020-07-25T11:41:14Z</time>
      </trkpt>
      <trkpt lat="42.9521630" lon="-1.4310890">
        <ele>708.6</ele>
        <time>2020-07-25T11:41:16Z</time>
      </trkpt>
      <trkpt lat="42.9524920" lon="-1.4311300">
        <ele>708.6</ele>
        <time>2020-07-25T11:41:22Z</time>
      </trkpt>
      <trkpt lat="42.9529020" lon="-1.4310890">
        <ele>708.6</ele>
        <time>2020-07-25T11:41:29Z</time>
      </trkpt>
      <trkpt lat="42.9534500" lon="-1.4310030">
        <ele>709.0</ele>
        <time>2020-07-25T11:41:38Z</time>
      </trkpt>
      <trkpt lat="42.9535740" lon="-1.4309870">
        <ele>709.0</ele>
        <time>2020-07-25T11:41:40Z</time>
      </trkpt>
      <trkpt lat="42.9541420" lon="-1.4309660">
        <ele>709.4</ele>
        <time>2020-07-25T11:41:49Z</time>
      </trkpt>
      <trkpt lat="42.9545170" lon="-1.4310780">
        <ele>709.6</ele>
        <time>2020-07-25T11:41:55Z</time>
      </trkpt>
      <trkpt lat="42.9545780" lon="-1.4311110">
        <ele>709.6</ele>
        <time>2020-07-25T11:41:56Z</time>
      </trkpt>
      <trkpt lat="42.9549480" lon="-1.4313340">
        <ele>710.0</ele>
        <time>2020-07-25T11:42:02Z</time>
      </trkpt>
      <trkpt lat="42.9554120" lon="-1.4316500">
        <ele>710.2</ele>
        <time>2020-07-25T11:42:10Z</time>
      </trkpt>
      <trkpt lat="42.9558200" lon="-1.4320310">
        <ele>710.4</ele>
        <time>2020-07-25T11:42:18Z</time>
      </trkpt>
      <trkpt lat="42.9559740" lon="-1.4321610">
        <ele>710.8</ele>
        <time>2020-07-25T11:42:21Z</time>
      </trkpt>
      <trkpt lat="42.9563460" lon="-1.4324320">
        <ele>711.2</ele>
        <time>2020-07-25T11:42:28Z</time>
      </trkpt>
      <trkpt lat="42.9565000" lon="-1.4325380">
        <ele>711.8</ele>
        <time>2020-07-25T11:42:31Z</time>
      </trkpt>
      <trkpt lat="42.9567530" lon="-1.4327100">
        <ele>712.8</ele>
        <time>2020-07-25T11:42:36Z</time>
      </trkpt>
      <trkpt lat="42.9568510" lon="-1.4327780">
        <ele>713.0</ele>
        <time>2020-07-25T11:42:38Z</time>
      </trkpt>
      <trkpt lat="42.9572310" lon="-1.4330360">
        <ele>713.8</ele>
        <time>2020-07-25T11:42:46Z</time>
      </trkpt>
      <trkpt lat="42.9573250" lon="-1.4330980">
        <ele>713.8</ele>
        <time>2020-07-25T11:42:48Z</time>
      </trkpt>
      <trkpt lat="42.9575610" lon="-1.4332430">
        <ele>714.0</ele>
        <time>2020-07-25T11:42:53Z</time>
      </trkpt>
      <trkpt lat="42.9578970" lon="-1.4334680">
        <ele>715.4</ele>
        <time>2020-07-25T11:43:00Z</time>
      </trkpt>
      <trkpt lat="42.9580420" lon="-1.4335660">
        <ele>715.8</ele>
        <time>2020-07-25T11:43:03Z</time>
      </trkpt>
      <trkpt lat="42.9582400" lon="-1.4336770">
        <ele>716.6</ele>
        <time>2020-07-25T11:43:07Z</time>
      </trkpt>
      <trkpt lat="42.9584420" lon="-1.4337490">
        <ele>717.2</ele>
        <time>2020-07-25T11:43:11Z</time>
      </trkpt>
      <trkpt lat="42.9586470" lon="-1.4337520">
        <ele>717.8</ele>
        <time>2020-07-25T11:43:15Z</time>
      </trkpt>
      <trkpt lat="42.9587490" lon="-1.4337270">
        <ele>718.0</ele>
        <time>2020-07-25T11:43:17Z</time>
      </trkpt>
      <trkpt lat="42.9588930" lon="-1.4336670">
        <ele>718.2</ele>
        <time>2020-07-25T11:43:20Z</time>
      </trkpt>
      <trkpt lat="42.9590290" lon="-1.4335930">
        <ele>718.4</ele>
        <time>2020-07-25T11:43:23Z</time>
      </trkpt>
      <trkpt lat="42.9592550" lon="-1.4334910">
        <ele>719.0</ele>
        <time>2020-07-25T11:43:28Z</time>
      </trkpt>
      <trkpt lat="42.9593950" lon="-1.4334490">
        <ele>719.4</ele>
        <time>2020-07-25T11:43:31Z</time>
      </trkpt>
      <trkpt lat="42.9597280" lon="-1.4334160">
        <ele>719.8</ele>
        <time>2020-07-25T11:43:38Z</time>
      </trkpt>
      <trkpt lat="42.9597760" lon="-1.4334110">
        <ele>720.0</ele>
        <time>2020-07-25T11:43:39Z</time>
      </trkpt>
      <trkpt lat="42.9599200" lon="-1.4333880">
        <ele>721.0</ele>
        <time>2020-07-25T11:43:42Z</time>
      </trkpt>
      <trkpt lat="42.9601020" lon="-1.4333160">
        <ele>721.8</ele>
        <time>2020-07-25T11:43:46Z</time>
      </trkpt>
      <trkpt lat="42.9601900" lon="-1.4332710">
        <ele>722.2</ele>
        <time>2020-07-25T11:43:48Z</time>
      </trkpt>
      <trkpt lat="42.9604940" lon="-1.4330570">
        <ele>722.6</ele>
        <time>2020-07-25T11:43:55Z</time>
      </trkpt>
      <trkpt lat="42.9606200" lon="-1.4329470">
        <ele>723.2</ele>
        <time>2020-07-25T11:43:58Z</time>
      </trkpt>
      <trkpt lat="42.9609250" lon="-1.4326930">
        <ele>723.8</ele>
        <time>2020-07-25T11:44:05Z</time>
      </trkpt>
      <trkpt lat="42.9612080" lon="-1.4325460">
        <ele>724.2</ele>
        <time>2020-07-25T11:44:11Z</time>
      </trkpt>
      <trkpt lat="42.9615560" lon="-1.4325140">
        <ele>725.0</ele>
        <time>2020-07-25T11:44:18Z</time>
      </trkpt>
      <trkpt lat="42.9616560" lon="-1.4325160">
        <ele>725.4</ele>
        <time>2020-07-25T11:44:20Z</time>
      </trkpt>
      <trkpt lat="42.9619990" lon="-1.4325210">
        <ele>726.6</ele>
        <time>2020-07-25T11:44:27Z</time>
      </trkpt>
      <trkpt lat="42.9621400" lon="-1.4325120">
        <ele>727.2</ele>
        <time>2020-07-25T11:44:30Z</time>
      </trkpt>
      <trkpt lat="42.9622350" lon="-1.4325060">
        <ele>727.6</ele>
        <time>2020-07-25T11:44:32Z</time>
      </trkpt>
      <trkpt lat="42.9625570" lon="-1.4324660">
        <ele>728.6</ele>
        <time>2020-07-25T11:44:39Z</time>
      </trkpt>
      <trkpt lat="42.9626020" lon="-1.4324600">
        <ele>728.8</ele>
        <time>2020-07-25T11:44:40Z</time>
      </trkpt>
      <trkpt lat="42.9628270" lon="-1.4324220">
        <ele>730.0</ele>
        <time>2020-07-25T11:44:45Z</time>
      </trkpt>
      <trkpt lat="42.9630460" lon="-1.4323470">
        <ele>731.0</ele>
        <time>2020-07-25T11:44:50Z</time>
      </trkpt>
      <trkpt lat="42.9630870" lon="-1.4323250">
        <ele>731.2</ele>
        <time>2020-07-25T11:44:51Z</time>
      </trkpt>
      <trkpt lat="42.9632560" lon="-1.4322190">
        <ele>732.4</ele>
        <time>2020-07-25T11:44:55Z</time>
      </trkpt>
      <trkpt lat="42.9634200" lon="-1.4321010">
        <ele>733.2</ele>
        <time>2020-07-25T11:44:59Z</time>
      </trkpt>
      <trkpt lat="42.9634980" lon="-1.4320450">
        <ele>733.4</ele>
        <time>2020-07-25T11:45:01Z</time>
      </trkpt>
      <trkpt lat="42.9637880" lon="-1.4317960">
        <ele>734.6</ele>
        <time>2020-07-25T11:45:09Z</time>
      </trkpt>
      <trkpt lat="42.9638220" lon="-1.4317590">
        <ele>734.8</ele>
        <time>2020-07-25T11:45:10Z</time>
      </trkpt>
      <trkpt lat="42.9639720" lon="-1.4315450">
        <ele>735.6</ele>
        <time>2020-07-25T11:45:15Z</time>
      </trkpt>
      <trkpt lat="42.9640920" lon="-1.4313740">
        <ele>736.2</ele>
        <time>2020-07-25T11:45:19Z</time>
      </trkpt>
      <trkpt lat="42.9641800" lon="-1.4312410">
        <ele>736.6</ele>
        <time>2020-07-25T11:45:22Z</time>
      </trkpt>
      <trkpt lat="42.9643780" lon="-1.4309200">
        <ele>737.8</ele>
        <time>2020-07-25T11:45:29Z</time>
      </trkpt>
      <trkpt lat="42.9644060" lon="-1.4308740">
        <ele>737.8</ele>
        <time>2020-07-25T11:45:30Z</time>
      </trkpt>
      <trkpt lat="42.9645700" lon="-1.4305910">
        <ele>738.8</ele>
        <time>2020-07-25T11:45:36Z</time>
      </trkpt>
      <trkpt lat="42.9646730" lon="-1.4303970">
        <ele>739.4</ele>
        <time>2020-07-25T11:45:40Z</time>
      </trkpt>
      <trkpt lat="42.9647510" lon="-1.4302560">
        <ele>739.8</ele>
        <time>2020-07-25T11:45:43Z</time>
      </trkpt>
      <trkpt lat="42.9648710" lon="-1.4300180">
        <ele>741.0</ele>
        <time>2020-07-25T11:45:48Z</time>
      </trkpt>
      <trkpt lat="42.9649430" lon="-1.4298770">
        <ele>742.0</ele>
        <time>2020-07-25T11:45:51Z</time>
      </trkpt>
      <trkpt lat="42.9649650" lon="-1.4298300">
        <ele>742.2</ele>
        <time>2020-07-25T11:45:52Z</time>
      </trkpt>
      <trkpt lat="42.9651220" lon="-1.4295950">
        <ele>743.0</ele>
        <time>2020-07-25T11:45:58Z</time>
      </trkpt>
      <trkpt lat="42.9651510" lon="-1.4295590">
        <ele>743.2</ele>
        <time>2020-07-25T11:45:59Z</time>
      </trkpt>
      <trkpt lat="42.9653060" lon="-1.4294040">
        <ele>744.4</ele>
        <time>2020-07-25T11:46:04Z</time>
      </trkpt>
      <trkpt lat="42.9653720" lon="-1.4293570">
        <ele>744.8</ele>
        <time>2020-07-25T11:46:06Z</time>
      </trkpt>
      <trkpt lat="42.9655040" lon="-1.4292590">
        <ele>745.8</ele>
        <time>2020-07-25T11:46:10Z</time>
      </trkpt>
      <trkpt lat="42.9656680" lon="-1.4291420">
        <ele>746.4</ele>
        <time>2020-07-25T11:46:15Z</time>
      </trkpt>
      <trkpt lat="42.9656990" lon="-1.4291170">
        <ele>747.0</ele>
        <time>2020-07-25T11:46:16Z</time>
      </trkpt>
      <trkpt lat="42.9658830" lon="-1.4289440">
        <ele>748.2</ele>
        <time>2020-07-25T11:46:22Z</time>
      </trkpt>
      <trkpt lat="42.9659360" lon="-1.4288790">
        <ele>748.6</ele>
        <time>2020-07-25T11:46:24Z</time>
      </trkpt>
      <trkpt lat="42.9659870" lon="-1.4288160">
        <ele>749.2</ele>
        <time>2020-07-25T11:46:26Z</time>
      </trkpt>
      <trkpt lat="42.9660900" lon="-1.4286350">
        <ele>750.2</ele>
        <time>2020-07-25T11:46:31Z</time>
      </trkpt>
      <trkpt lat="42.9661590" lon="-1.4284770">
        <ele>751.4</ele>
        <time>2020-07-25T11:46:35Z</time>
      </trkpt>
      <trkpt lat="42.9662220" lon="-1.4283240">
        <ele>752.4</ele>
        <time>2020-07-25T11:46:39Z</time>
      </trkpt>
      <trkpt lat="42.9662340" lon="-1.4282860">
        <ele>752.6</ele>
        <time>2020-07-25T11:46:40Z</time>
      </trkpt>
      <trkpt lat="42.9662780" lon="-1.4281670">
        <ele>753.6</ele>
        <time>2020-07-25T11:46:43Z</time>
      </trkpt>
      <trkpt lat="42.9663660" lon="-1.4279820">
        <ele>754.6</ele>
        <time>2020-07-25T11:46:48Z</time>
      </trkpt>
      <trkpt lat="42.9663850" lon="-1.4279470">
        <ele>755.0</ele>
        <time>2020-07-25T11:46:49Z</time>
      </trkpt>
      <trkpt lat="42.9664900" lon="-1.4277750">
        <ele>755.8</ele>
        <time>2020-07-25T11:46:54Z</time>
      </trkpt>
      <trkpt lat="42.9665800" lon="-1.4276480">
        <ele>757.0</ele>
        <time>2020-07-25T11:46:58Z</time>
      </trkpt>
      <trkpt lat="42.9666880" lon="-1.4274840">
        <ele>758.0</ele>
        <time>2020-07-25T11:47:03Z</time>
      </trkpt>
      <trkpt lat="42.9667770" lon="-1.4273050">
        <ele>759.0</ele>
        <time>2020-07-25T11:47:08Z</time>
      </trkpt>
      <trkpt lat="42.9668510" lon="-1.4270450">
        <ele>760.0</ele>
        <time>2020-07-25T11:47:15Z</time>
      </trkpt>
      <trkpt lat="42.9668760" lon="-1.4269290">
        <ele>760.4</ele>
        <time>2020-07-25T11:47:18Z</time>
      </trkpt>
      <trkpt lat="42.9669070" lon="-1.4268120">
        <ele>761.2</ele>
        <time>2020-07-25T11:47:21Z</time>
      </trkpt>
      <trkpt lat="42.9669800" lon="-1.4265800">
        <ele>762.4</ele>
        <time>2020-07-25T11:47:27Z</time>
      </trkpt>
      <trkpt lat="42.9669930" lon="-1.4265430">
        <ele>762.6</ele>
        <time>2020-07-25T11:47:28Z</time>
      </trkpt>
      <trkpt lat="42.9670790" lon="-1.4263230">
        <ele>763.6</ele>
        <time>2020-07-25T11:47:34Z</time>
      </trkpt>
      <trkpt lat="42.9671470" lon="-1.4261860">
        <ele>764.2</ele>
        <time>2020-07-25T11:47:38Z</time>
      </trkpt>
      <trkpt lat="42.9671810" lon="-1.4261160">
        <ele>765.0</ele>
        <time>2020-07-25T11:47:40Z</time>
      </trkpt>
      <trkpt lat="42.9672570" lon="-1.4258910">
        <ele>766.0</ele>
        <time>2020-07-25T11:47:46Z</time>
      </trkpt>
      <trkpt lat="42.9672660" lon="-1.4258540">
        <ele>766.2</ele>
        <time>2020-07-25T11:47:47Z</time>
      </trkpt>
      <trkpt lat="42.9673060" lon="-1.4256570">
        <ele>767.2</ele>
        <time>2020-07-25T11:47:52Z</time>
      </trkpt>
      <trkpt lat="42.9673320" lon="-1.4254920">
        <ele>768.2</ele>
        <time>2020-07-25T11:47:56Z</time>
      </trkpt>
      <trkpt lat="42.9673390" lon="-1.4254500">
        <ele>768.4</ele>
        <time>2020-07-25T11:47:57Z</time>
      </trkpt>
      <trkpt lat="42.9673850" lon="-1.4251530">
        <ele>769.4</ele>
        <time>2020-07-25T11:48:04Z</time>
      </trkpt>
      <trkpt lat="42.9674040" lon="-1.4250270">
        <ele>770.0</ele>
        <time>2020-07-25T11:48:07Z</time>
      </trkpt>
      <trkpt lat="42.9674100" lon="-1.4249840">
        <ele>770.6</ele>
        <time>2020-07-25T11:48:08Z</time>
      </trkpt>
      <trkpt lat="42.9674600" lon="-1.4246410">
        <ele>771.8</ele>
        <time>2020-07-25T11:48:16Z</time>
      </trkpt>
      <trkpt lat="42.9674660" lon="-1.4245970">
        <ele>772.2</ele>
        <time>2020-07-25T11:48:17Z</time>
      </trkpt>
      <trkpt lat="42.9674800" lon="-1.4245100">
        <ele>772.8</ele>
        <time>2020-07-25T11:48:19Z</time>
      </trkpt>
      <trkpt lat="42.9675190" lon="-1.4242030">
        <ele>773.8</ele>
        <time>2020-07-25T11:48:26Z</time>
      </trkpt>
      <trkpt lat="42.9675410" lon="-1.4239880">
        <ele>774.8</ele>
        <time>2020-07-25T11:48:31Z</time>
      </trkpt>
      <trkpt lat="42.9675570" lon="-1.4238110">
        <ele>775.6</ele>
        <time>2020-07-25T11:48:35Z</time>
      </trkpt>
      <trkpt lat="42.9675620" lon="-1.4237240">
        <ele>776.0</ele>
        <time>2020-07-25T11:48:37Z</time>
      </trkpt>
      <trkpt lat="42.9675600" lon="-1.4234570">
        <ele>777.2</ele>
        <time>2020-07-25T11:48:43Z</time>
      </trkpt>
      <trkpt lat="42.9675570" lon="-1.4234130">
        <ele>777.2</ele>
        <time>2020-07-25T11:48:44Z</time>
      </trkpt>
      <trkpt lat="42.9675270" lon="-1.4231960">
        <ele>778.0</ele>
        <time>2020-07-25T11:48:49Z</time>
      </trkpt>
      <trkpt lat="42.9675180" lon="-1.4231540">
        <ele>778.2</ele>
        <time>2020-07-25T11:48:50Z</time>
      </trkpt>
      <trkpt lat="42.9674990" lon="-1.4230670">
        <ele>778.6</ele>
        <time>2020-07-25T11:48:52Z</time>
      </trkpt>
      <trkpt lat="42.9674810" lon="-1.4229230">
        <ele>779.0</ele>
        <time>2020-07-25T11:48:55Z</time>
      </trkpt>
      <trkpt lat="42.9674730" lon="-1.4227600">
        <ele>779.6</ele>
        <time>2020-07-25T11:48:58Z</time>
      </trkpt>
      <trkpt lat="42.9674750" lon="-1.4227010">
        <ele>779.8</ele>
        <time>2020-07-25T11:48:59Z</time>
      </trkpt>
      <trkpt lat="42.9674840" lon="-1.4225730">
        <ele>780.0</ele>
        <time>2020-07-25T11:49:01Z</time>
      </trkpt>
      <trkpt lat="42.9675300" lon="-1.4223390">
        <ele>780.2</ele>
        <time>2020-07-25T11:49:04Z</time>
      </trkpt>
      <trkpt lat="42.9677110" lon="-1.4218970">
        <ele>780.2</ele>
        <time>2020-07-25T11:49:09Z</time>
      </trkpt>
      <trkpt lat="42.9678980" lon="-1.4214740">
        <ele>779.0</ele>
        <time>2020-07-25T11:49:13Z</time>
      </trkpt>
      <trkpt lat="42.9680010" lon="-1.4212440">
        <ele>778.2</ele>
        <time>2020-07-25T11:49:15Z</time>
      </trkpt>
      <trkpt lat="42.9680530" lon="-1.4211250">
        <ele>777.8</ele>
        <time>2020-07-25T11:49:16Z</time>
      </trkpt>
      <trkpt lat="42.9681400" lon="-1.4208690">
        <ele>776.8</ele>
        <time>2020-07-25T11:49:18Z</time>
      </trkpt>
      <trkpt lat="42.9681700" lon="-1.4207310">
        <ele>776.0</ele>
        <time>2020-07-25T11:49:19Z</time>
      </trkpt>
      <trkpt lat="42.9681940" lon="-1.4205910">
        <ele>775.0</ele>
        <time>2020-07-25T11:49:20Z</time>
      </trkpt>
      <trkpt lat="42.9682050" lon="-1.4204510">
        <ele>774.2</ele>
        <time>2020-07-25T11:49:21Z</time>
      </trkpt>
      <trkpt lat="42.9682000" lon="-1.4203140">
        <ele>773.8</ele>
        <time>2020-07-25T11:49:22Z</time>
      </trkpt>
      <trkpt lat="42.9681810" lon="-1.4201840">
        <ele>773.0</ele>
        <time>2020-07-25T11:49:23Z</time>
      </trkpt>
      <trkpt lat="42.9681520" lon="-1.4200610">
        <ele>772.2</ele>
        <time>2020-07-25T11:49:24Z</time>
      </trkpt>
      <trkpt lat="42.9681200" lon="-1.4199410">
        <ele>771.6</ele>
        <time>2020-07-25T11:49:25Z</time>
      </trkpt>
      <trkpt lat="42.9680250" lon="-1.4195980">
        <ele>771.2</ele>
        <time>2020-07-25T11:49:28Z</time>
      </trkpt>
      <trkpt lat="42.9679300" lon="-1.4190710">
        <ele>771.0</ele>
        <time>2020-07-25T11:49:33Z</time>
      </trkpt>
      <trkpt lat="42.9679530" lon="-1.4186990">
        <ele>772.2</ele>
        <time>2020-07-25T11:49:37Z</time>
      </trkpt>
      <trkpt lat="42.9679660" lon="-1.4186130">
        <ele>772.6</ele>
        <time>2020-07-25T11:49:38Z</time>
      </trkpt>
      <trkpt lat="42.9679920" lon="-1.4184530">
        <ele>773.2</ele>
        <time>2020-07-25T11:49:40Z</time>
      </trkpt>
      <trkpt lat="42.9680540" lon="-1.4181070">
        <ele>774.4</ele>
        <time>2020-07-25T11:49:45Z</time>
      </trkpt>
      <trkpt lat="42.9681280" lon="-1.4178050">
        <ele>775.4</ele>
        <time>2020-07-25T11:49:50Z</time>
      </trkpt>
      <trkpt lat="42.9681740" lon="-1.4176790">
        <ele>776.2</ele>
        <time>2020-07-25T11:49:52Z</time>
      </trkpt>
      <trkpt lat="42.9682020" lon="-1.4176140">
        <ele>776.8</ele>
        <time>2020-07-25T11:49:53Z</time>
      </trkpt>
      <trkpt lat="42.9683570" lon="-1.4172470">
        <ele>777.4</ele>
        <time>2020-07-25T11:49:58Z</time>
      </trkpt>
      <trkpt lat="42.9686320" lon="-1.4166070">
        <ele>776.4</ele>
        <time>2020-07-25T11:50:05Z</time>
      </trkpt>
      <trkpt lat="42.9687210" lon="-1.4163960">
        <ele>775.4</ele>
        <time>2020-07-25T11:50:07Z</time>
      </trkpt>
      <trkpt lat="42.9689050" lon="-1.4159600">
        <ele>774.2</ele>
        <time>2020-07-25T11:50:11Z</time>
      </trkpt>
      <trkpt lat="42.9690400" lon="-1.4156470">
        <ele>773.0</ele>
        <time>2020-07-25T11:50:14Z</time>
      </trkpt>
      <trkpt lat="42.9691240" lon="-1.4154390">
        <ele>771.8</ele>
        <time>2020-07-25T11:50:16Z</time>
      </trkpt>
      <trkpt lat="42.9692070" lon="-1.4152360">
        <ele>771.0</ele>
        <time>2020-07-25T11:50:18Z</time>
      </trkpt>
      <trkpt lat="42.9693880" lon="-1.4147870">
        <ele>770.8</ele>
        <time>2020-07-25T11:50:23Z</time>
      </trkpt>
      <trkpt lat="42.9695580" lon="-1.4143670">
        <ele>772.4</ele>
        <time>2020-07-25T11:50:29Z</time>
      </trkpt>
      <trkpt lat="42.9695830" lon="-1.4143010">
        <ele>773.0</ele>
        <time>2020-07-25T11:50:30Z</time>
      </trkpt>
      <trkpt lat="42.9696290" lon="-1.4141740">
        <ele>774.4</ele>
        <time>2020-07-25T11:50:32Z</time>
      </trkpt>
      <trkpt lat="42.9696940" lon="-1.4139860">
        <ele>775.8</ele>
        <time>2020-07-25T11:50:35Z</time>
      </trkpt>
      <trkpt lat="42.9697590" lon="-1.4138040">
        <ele>777.0</ele>
        <time>2020-07-25T11:50:38Z</time>
      </trkpt>
      <trkpt lat="42.9698600" lon="-1.4135150">
        <ele>778.2</ele>
        <time>2020-07-25T11:50:43Z</time>
      </trkpt>
      <trkpt lat="42.9698970" lon="-1.4134060">
        <ele>778.8</ele>
        <time>2020-07-25T11:50:45Z</time>
      </trkpt>
      <trkpt lat="42.9699560" lon="-1.4132410">
        <ele>779.2</ele>
        <time>2020-07-25T11:50:48Z</time>
      </trkpt>
      <trkpt lat="42.9700170" lon="-1.4130690">
        <ele>780.2</ele>
        <time>2020-07-25T11:50:51Z</time>
      </trkpt>
      <trkpt lat="42.9700550" lon="-1.4129500">
        <ele>780.8</ele>
        <time>2020-07-25T11:50:53Z</time>
      </trkpt>
      <trkpt lat="42.9700880" lon="-1.4128230">
        <ele>781.6</ele>
        <time>2020-07-25T11:50:55Z</time>
      </trkpt>
      <trkpt lat="42.9701280" lon="-1.4125210">
        <ele>782.4</ele>
        <time>2020-07-25T11:50:59Z</time>
      </trkpt>
      <trkpt lat="42.9701130" lon="-1.4120490">
        <ele>782.4</ele>
        <time>2020-07-25T11:51:04Z</time>
      </trkpt>
      <trkpt lat="42.9700760" lon="-1.4118380">
        <ele>782.4</ele>
        <time>2020-07-25T11:51:06Z</time>
      </trkpt>
      <trkpt lat="42.9700060" lon="-1.4116280">
        <ele>782.0</ele>
        <time>2020-07-25T11:51:08Z</time>
      </trkpt>
      <trkpt lat="42.9697970" lon="-1.4113960">
        <ele>781.2</ele>
        <time>2020-07-25T11:51:11Z</time>
      </trkpt>
      <trkpt lat="42.9696480" lon="-1.4112710">
        <ele>780.4</ele>
        <time>2020-07-25T11:51:13Z</time>
      </trkpt>
      <trkpt lat="42.9696020" lon="-1.4111750">
        <ele>780.2</ele>
        <time>2020-07-25T11:51:14Z</time>
      </trkpt>
      <trkpt lat="42.9695890" lon="-1.4109370">
        <ele>779.2</ele>
        <time>2020-07-25T11:51:16Z</time>
      </trkpt>
      <trkpt lat="42.9696700" lon="-1.4107010">
        <ele>777.8</ele>
        <time>2020-07-25T11:51:18Z</time>
      </trkpt>
      <trkpt lat="42.9697330" lon="-1.4105890">
        <ele>777.0</ele>
        <time>2020-07-25T11:51:19Z</time>
      </trkpt>
      <trkpt lat="42.9698060" lon="-1.4104810">
        <ele>776.2</ele>
        <time>2020-07-25T11:51:20Z</time>
      </trkpt>
      <trkpt lat="42.9699590" lon="-1.4102560">
        <ele>775.2</ele>
        <time>2020-07-25T11:51:22Z</time>
      </trkpt>
      <trkpt lat="42.9700390" lon="-1.4101410">
        <ele>773.6</ele>
        <time>2020-07-25T11:51:23Z</time>
      </trkpt>
      <trkpt lat="42.9701180" lon="-1.4100260">
        <ele>772.8</ele>
        <time>2020-07-25T11:51:24Z</time>
      </trkpt>
      <trkpt lat="42.9701970" lon="-1.4099080">
        <ele>772.2</ele>
        <time>2020-07-25T11:51:25Z</time>
      </trkpt>
      <trkpt lat="42.9703600" lon="-1.4096660">
        <ele>771.0</ele>
        <time>2020-07-25T11:51:27Z</time>
      </trkpt>
      <trkpt lat="42.9705280" lon="-1.4094210">
        <ele>769.4</ele>
        <time>2020-07-25T11:51:29Z</time>
      </trkpt>
      <trkpt lat="42.9706990" lon="-1.4091690">
        <ele>767.8</ele>
        <time>2020-07-25T11:51:31Z</time>
      </trkpt>
      <trkpt lat="42.9708540" lon="-1.4088920">
        <ele>766.8</ele>
        <time>2020-07-25T11:51:33Z</time>
      </trkpt>
      <trkpt lat="42.9709830" lon="-1.4086000">
        <ele>765.4</ele>
        <time>2020-07-25T11:51:35Z</time>
      </trkpt>
      <trkpt lat="42.9710800" lon="-1.4083320">
        <ele>763.8</ele>
        <time>2020-07-25T11:51:37Z</time>
      </trkpt>
      <trkpt lat="42.9711060" lon="-1.4082000">
        <ele>762.8</ele>
        <time>2020-07-25T11:51:38Z</time>
      </trkpt>
      <trkpt lat="42.9711090" lon="-1.4079130">
        <ele>761.4</ele>
        <time>2020-07-25T11:51:40Z</time>
      </trkpt>
      <trkpt lat="42.9710820" lon="-1.4077640">
        <ele>760.6</ele>
        <time>2020-07-25T11:51:41Z</time>
      </trkpt>
      <trkpt lat="42.9710330" lon="-1.4076240">
        <ele>760.0</ele>
        <time>2020-07-25T11:51:42Z</time>
      </trkpt>
      <trkpt lat="42.9708920" lon="-1.4073810">
        <ele>759.2</ele>
        <time>2020-07-25T11:51:44Z</time>
      </trkpt>
      <trkpt lat="42.9708220" lon="-1.4072610">
        <ele>758.8</ele>
        <time>2020-07-25T11:51:45Z</time>
      </trkpt>
      <trkpt lat="42.9707270" lon="-1.4069850">
        <ele>757.6</ele>
        <time>2020-07-25T11:51:47Z</time>
      </trkpt>
      <trkpt lat="42.9706870" lon="-1.4066960">
        <ele>755.6</ele>
        <time>2020-07-25T11:51:49Z</time>
      </trkpt>
      <trkpt lat="42.9706840" lon="-1.4065500">
        <ele>754.2</ele>
        <time>2020-07-25T11:51:50Z</time>
      </trkpt>
      <trkpt lat="42.9706850" lon="-1.4064070">
        <ele>752.0</ele>
        <time>2020-07-25T11:51:51Z</time>
      </trkpt>
      <trkpt lat="42.9706730" lon="-1.4061270">
        <ele>751.2</ele>
        <time>2020-07-25T11:51:53Z</time>
      </trkpt>
      <trkpt lat="42.9706480" lon="-1.4059970">
        <ele>751.0</ele>
        <time>2020-07-25T11:51:54Z</time>
      </trkpt>
      <trkpt lat="42.9704920" lon="-1.4056960">
        <ele>750.8</ele>
        <time>2020-07-25T11:51:57Z</time>
      </trkpt>
      <trkpt lat="42.9702900" lon="-1.4055050">
        <ele>750.8</ele>
        <time>2020-07-25T11:52:00Z</time>
      </trkpt>
      <trkpt lat="42.9701570" lon="-1.4053920">
        <ele>750.8</ele>
        <time>2020-07-25T11:52:02Z</time>
      </trkpt>
      <trkpt lat="42.9699170" lon="-1.4051580">
        <ele>752.2</ele>
        <time>2020-07-25T11:52:06Z</time>
      </trkpt>
      <trkpt lat="42.9698100" lon="-1.4050280">
        <ele>752.8</ele>
        <time>2020-07-25T11:52:08Z</time>
      </trkpt>
      <trkpt lat="42.9695940" lon="-1.4047620">
        <ele>753.2</ele>
        <time>2020-07-25T11:52:12Z</time>
      </trkpt>
      <trkpt lat="42.9693760" lon="-1.4044990">
        <ele>754.0</ele>
        <time>2020-07-25T11:52:16Z</time>
      </trkpt>
      <trkpt lat="42.9693230" lon="-1.4044320">
        <ele>754.6</ele>
        <time>2020-07-25T11:52:17Z</time>
      </trkpt>
      <trkpt lat="42.9690180" lon="-1.4040400">
        <ele>755.6</ele>
        <time>2020-07-25T11:52:23Z</time>
      </trkpt>
      <trkpt lat="42.9689690" lon="-1.4039770">
        <ele>755.8</ele>
        <time>2020-07-25T11:52:24Z</time>
      </trkpt>
      <trkpt lat="42.9686990" lon="-1.4036060">
        <ele>756.6</ele>
        <time>2020-07-25T11:52:30Z</time>
      </trkpt>
      <trkpt lat="42.9686220" lon="-1.4034820">
        <ele>757.2</ele>
        <time>2020-07-25T11:52:32Z</time>
      </trkpt>
      <trkpt lat="42.9685890" lon="-1.4034160">
        <ele>757.4</ele>
        <time>2020-07-25T11:52:33Z</time>
      </trkpt>
      <trkpt lat="42.9685610" lon="-1.4033460">
        <ele>757.8</ele>
        <time>2020-07-25T11:52:34Z</time>
      </trkpt>
      <trkpt lat="42.9685000" lon="-1.4031320">
        <ele>758.4</ele>
        <time>2020-07-25T11:52:37Z</time>
      </trkpt>
      <trkpt lat="42.9684680" lon="-1.4029000">
        <ele>758.8</ele>
        <time>2020-07-25T11:52:40Z</time>
      </trkpt>
      <trkpt lat="42.9684610" lon="-1.4026610">
        <ele>759.2</ele>
        <time>2020-07-25T11:52:43Z</time>
      </trkpt>
      <trkpt lat="42.9685050" lon="-1.4021180">
        <ele>759.6</ele>
        <time>2020-07-25T11:52:50Z</time>
      </trkpt>
      <trkpt lat="42.9685800" lon="-1.4018200">
        <ele>759.8</ele>
        <time>2020-07-25T11:52:54Z</time>
      </trkpt>
      <trkpt lat="42.9686640" lon="-1.4015340">
        <ele>760.2</ele>
        <time>2020-07-25T11:52:58Z</time>
      </trkpt>
      <trkpt lat="42.9688460" lon="-1.4011520">
        <ele>760.8</ele>
        <time>2020-07-25T11:53:04Z</time>
      </trkpt>
      <trkpt lat="42.9688850" lon="-1.4010980">
        <ele>760.8</ele>
        <time>2020-07-25T11:53:05Z</time>
      </trkpt>
      <trkpt lat="42.9689680" lon="-1.4010030">
        <ele>761.0</ele>
        <time>2020-07-25T11:53:07Z</time>
      </trkpt>
      <trkpt lat="42.9691020" lon="-1.4008850">
        <ele>761.2</ele>
        <time>2020-07-25T11:53:10Z</time>
      </trkpt>
      <trkpt lat="42.9691490" lon="-1.4008530">
        <ele>761.2</ele>
        <time>2020-07-25T11:53:11Z</time>
      </trkpt>
      <trkpt lat="42.9693870" lon="-1.4007430">
        <ele>761.6</ele>
        <time>2020-07-25T11:53:16Z</time>
      </trkpt>
      <trkpt lat="42.9695220" lon="-1.4006960">
        <ele>762.0</ele>
        <time>2020-07-25T11:53:19Z</time>
      </trkpt>
      <trkpt lat="42.9697350" lon="-1.4006550">
        <ele>763.0</ele>
        <time>2020-07-25T11:53:24Z</time>
      </trkpt>
      <trkpt lat="42.9697770" lon="-1.4006540">
        <ele>763.2</ele>
        <time>2020-07-25T11:53:25Z</time>
      </trkpt>
      <trkpt lat="42.9700060" lon="-1.4006960">
        <ele>764.4</ele>
        <time>2020-07-25T11:53:31Z</time>
      </trkpt>
      <trkpt lat="42.9702020" lon="-1.4007810">
        <ele>765.4</ele>
        <time>2020-07-25T11:53:37Z</time>
      </trkpt>
      <trkpt lat="42.9702620" lon="-1.4008080">
        <ele>765.8</ele>
        <time>2020-07-25T11:53:39Z</time>
      </trkpt>
      <trkpt lat="42.9703550" lon="-1.4008390">
        <ele>766.6</ele>
        <time>2020-07-25T11:53:42Z</time>
      </trkpt>
      <trkpt lat="42.9704800" lon="-1.4008660">
        <ele>767.6</ele>
        <time>2020-07-25T11:53:46Z</time>
      </trkpt>
      <trkpt lat="42.9705100" lon="-1.4008730">
        <ele>767.8</ele>
        <time>2020-07-25T11:53:47Z</time>
      </trkpt>
      <trkpt lat="42.9706260" lon="-1.4008890">
        <ele>768.8</ele>
        <time>2020-07-25T11:53:51Z</time>
      </trkpt>
      <trkpt lat="42.9707410" lon="-1.4009060">
        <ele>769.4</ele>
        <time>2020-07-25T11:53:55Z</time>
      </trkpt>
      <trkpt lat="42.9707980" lon="-1.4009090">
        <ele>770.0</ele>
        <time>2020-07-25T11:53:57Z</time>
      </trkpt>
      <trkpt lat="42.9709380" lon="-1.4009130">
        <ele>771.2</ele>
        <time>2020-07-25T11:54:02Z</time>
      </trkpt>
      <trkpt lat="42.9709660" lon="-1.4009130">
        <ele>771.4</ele>
        <time>2020-07-25T11:54:03Z</time>
      </trkpt>
      <trkpt lat="42.9710810" lon="-1.4009110">
        <ele>772.2</ele>
        <time>2020-07-25T11:54:07Z</time>
      </trkpt>
      <trkpt lat="42.9711940" lon="-1.4009100">
        <ele>773.4</ele>
        <time>2020-07-25T11:54:11Z</time>
      </trkpt>
      <trkpt lat="42.9712220" lon="-1.4009070">
        <ele>773.4</ele>
        <time>2020-07-25T11:54:12Z</time>
      </trkpt>
      <trkpt lat="42.9714180" lon="-1.4008970">
        <ele>774.6</ele>
        <time>2020-07-25T11:54:19Z</time>
      </trkpt>
      <trkpt lat="42.9715000" lon="-1.4008910">
        <ele>775.0</ele>
        <time>2020-07-25T11:54:22Z</time>
      </trkpt>
      <trkpt lat="42.9716140" lon="-1.4008760">
        <ele>775.8</ele>
        <time>2020-07-25T11:54:26Z</time>
      </trkpt>
      <trkpt lat="42.9717890" lon="-1.4008690">
        <ele>776.6</ele>
        <time>2020-07-25T11:54:32Z</time>
      </trkpt>
      <trkpt lat="42.9718190" lon="-1.4008690">
        <ele>776.8</ele>
        <time>2020-07-25T11:54:33Z</time>
      </trkpt>
      <trkpt lat="42.9719980" lon="-1.4008760">
        <ele>778.2</ele>
        <time>2020-07-25T11:54:39Z</time>
      </trkpt>
      <trkpt lat="42.9720590" lon="-1.4008780">
        <ele>778.4</ele>
        <time>2020-07-25T11:54:41Z</time>
      </trkpt>
      <trkpt lat="42.9722080" lon="-1.4008840">
        <ele>779.4</ele>
        <time>2020-07-25T11:54:46Z</time>
      </trkpt>
      <trkpt lat="42.9723010" lon="-1.4008800">
        <ele>779.6</ele>
        <time>2020-07-25T11:54:49Z</time>
      </trkpt>
      <trkpt lat="42.9723950" lon="-1.4008560">
        <ele>780.4</ele>
        <time>2020-07-25T11:54:52Z</time>
      </trkpt>
      <trkpt lat="42.9725110" lon="-1.4007990">
        <ele>781.2</ele>
        <time>2020-07-25T11:54:56Z</time>
      </trkpt>
      <trkpt lat="42.9725920" lon="-1.4007410">
        <ele>781.4</ele>
        <time>2020-07-25T11:54:59Z</time>
      </trkpt>
      <trkpt lat="42.9726200" lon="-1.4007240">
        <ele>781.6</ele>
        <time>2020-07-25T11:55:00Z</time>
      </trkpt>
      <trkpt lat="42.9727230" lon="-1.4006400">
        <ele>782.4</ele>
        <time>2020-07-25T11:55:04Z</time>
      </trkpt>
      <trkpt lat="42.9727490" lon="-1.4006200">
        <ele>782.6</ele>
        <time>2020-07-25T11:55:05Z</time>
      </trkpt>
      <trkpt lat="42.9728820" lon="-1.4005290">
        <ele>783.8</ele>
        <time>2020-07-25T11:55:10Z</time>
      </trkpt>
      <trkpt lat="42.9729600" lon="-1.4004730">
        <ele>784.4</ele>
        <time>2020-07-25T11:55:13Z</time>
      </trkpt>
      <trkpt lat="42.9730130" lon="-1.4004350">
        <ele>784.8</ele>
        <time>2020-07-25T11:55:15Z</time>
      </trkpt>
      <trkpt lat="42.9731680" lon="-1.4003220">
        <ele>786.0</ele>
        <time>2020-07-25T11:55:21Z</time>
      </trkpt>
      <trkpt lat="42.9732490" lon="-1.4002770">
        <ele>786.6</ele>
        <time>2020-07-25T11:55:24Z</time>
      </trkpt>
      <trkpt lat="42.9733320" lon="-1.4002340">
        <ele>787.0</ele>
        <time>2020-07-25T11:55:27Z</time>
      </trkpt>
      <trkpt lat="42.9735260" lon="-1.4001430">
        <ele>788.2</ele>
        <time>2020-07-25T11:55:34Z</time>
      </trkpt>
      <trkpt lat="42.9735560" lon="-1.4001280">
        <ele>788.4</ele>
        <time>2020-07-25T11:55:35Z</time>
      </trkpt>
      <trkpt lat="42.9737220" lon="-1.4000410">
        <ele>789.2</ele>
        <time>2020-07-25T11:55:41Z</time>
      </trkpt>
      <trkpt lat="42.9737490" lon="-1.4000260">
        <ele>789.4</ele>
        <time>2020-07-25T11:55:42Z</time>
      </trkpt>
      <trkpt lat="42.9738830" lon="-1.3999400">
        <ele>790.2</ele>
        <time>2020-07-25T11:55:47Z</time>
      </trkpt>
      <trkpt lat="42.9740230" lon="-1.3998560">
        <ele>791.0</ele>
        <time>2020-07-25T11:55:52Z</time>
      </trkpt>
      <trkpt lat="42.9740780" lon="-1.3998240">
        <ele>791.2</ele>
        <time>2020-07-25T11:55:54Z</time>
      </trkpt>
      <trkpt lat="42.9742170" lon="-1.3997570">
        <ele>792.2</ele>
        <time>2020-07-25T11:55:59Z</time>
      </trkpt>
      <trkpt lat="42.9743010" lon="-1.3997260">
        <ele>793.0</ele>
        <time>2020-07-25T11:56:02Z</time>
      </trkpt>
      <trkpt lat="42.9743590" lon="-1.3997120">
        <ele>793.4</ele>
        <time>2020-07-25T11:56:04Z</time>
      </trkpt>
      <trkpt lat="42.9745230" lon="-1.3996040">
        <ele>794.4</ele>
        <time>2020-07-25T11:56:10Z</time>
      </trkpt>
      <trkpt lat="42.9746960" lon="-1.3994200">
        <ele>795.4</ele>
        <time>2020-07-25T11:56:17Z</time>
      </trkpt>
      <trkpt lat="42.9747690" lon="-1.3993360">
        <ele>796.0</ele>
        <time>2020-07-25T11:56:20Z</time>
      </trkpt>
      <trkpt lat="42.9748460" lon="-1.3992580">
        <ele>796.6</ele>
        <time>2020-07-25T11:56:23Z</time>
      </trkpt>
      <trkpt lat="42.9750010" lon="-1.3991110">
        <ele>797.8</ele>
        <time>2020-07-25T11:56:29Z</time>
      </trkpt>
      <trkpt lat="42.9750250" lon="-1.3990860">
        <ele>798.2</ele>
        <time>2020-07-25T11:56:30Z</time>
      </trkpt>
      <trkpt lat="42.9751030" lon="-1.3990190">
        <ele>798.8</ele>
        <time>2020-07-25T11:56:33Z</time>
      </trkpt>
      <trkpt lat="42.9752780" lon="-1.3988720">
        <ele>800.0</ele>
        <time>2020-07-25T11:56:40Z</time>
      </trkpt>
      <trkpt lat="42.9754210" lon="-1.3987430">
        <ele>801.2</ele>
        <time>2020-07-25T11:56:46Z</time>
      </trkpt>
      <trkpt lat="42.9754980" lon="-1.3986730">
        <ele>802.0</ele>
        <time>2020-07-25T11:56:49Z</time>
      </trkpt>
      <trkpt lat="42.9755540" lon="-1.3986270">
        <ele>802.4</ele>
        <time>2020-07-25T11:56:51Z</time>
      </trkpt>
      <trkpt lat="42.9757180" lon="-1.3984930">
        <ele>803.4</ele>
        <time>2020-07-25T11:56:57Z</time>
      </trkpt>
      <trkpt lat="42.9758070" lon="-1.3984320">
        <ele>804.4</ele>
        <time>2020-07-25T11:57:00Z</time>
      </trkpt>
      <trkpt lat="42.9758670" lon="-1.3984000">
        <ele>804.6</ele>
        <time>2020-07-25T11:57:02Z</time>
      </trkpt>
      <trkpt lat="42.9760260" lon="-1.3983620">
        <ele>805.4</ele>
        <time>2020-07-25T11:57:07Z</time>
      </trkpt>
      <trkpt lat="42.9760570" lon="-1.3983610">
        <ele>805.8</ele>
        <time>2020-07-25T11:57:08Z</time>
      </trkpt>
      <trkpt lat="42.9762140" lon="-1.3984120">
        <ele>806.6</ele>
        <time>2020-07-25T11:57:13Z</time>
      </trkpt>
      <trkpt lat="42.9762720" lon="-1.3984440">
        <ele>806.8</ele>
        <time>2020-07-25T11:57:15Z</time>
      </trkpt>
      <trkpt lat="42.9763990" lon="-1.3985300">
        <ele>808.0</ele>
        <time>2020-07-25T11:57:20Z</time>
      </trkpt>
      <trkpt lat="42.9765440" lon="-1.3985620">
        <ele>809.2</ele>
        <time>2020-07-25T11:57:25Z</time>
      </trkpt>
      <trkpt lat="42.9765720" lon="-1.3985550">
        <ele>809.6</ele>
        <time>2020-07-25T11:57:26Z</time>
      </trkpt>
      <trkpt lat="42.9766380" lon="-1.3984730">
        <ele>810.0</ele>
        <time>2020-07-25T11:57:29Z</time>
      </trkpt>
      <trkpt lat="42.9766490" lon="-1.3984350">
        <ele>810.2</ele>
        <time>2020-07-25T11:57:30Z</time>
      </trkpt>
      <trkpt lat="42.9766440" lon="-1.3982440">
        <ele>811.2</ele>
        <time>2020-07-25T11:57:35Z</time>
      </trkpt>
      <trkpt lat="42.9765620" lon="-1.3979500">
        <ele>812.2</ele>
        <time>2020-07-25T11:57:43Z</time>
      </trkpt>
      <trkpt lat="42.9765290" lon="-1.3977620">
        <ele>813.2</ele>
        <time>2020-07-25T11:57:48Z</time>
      </trkpt>
      <trkpt lat="42.9765240" lon="-1.3976110">
        <ele>813.8</ele>
        <time>2020-07-25T11:57:52Z</time>
      </trkpt>
      <trkpt lat="42.9765360" lon="-1.3975350">
        <ele>814.4</ele>
        <time>2020-07-25T11:57:54Z</time>
      </trkpt>
      <trkpt lat="42.9765800" lon="-1.3973490">
        <ele>815.2</ele>
        <time>2020-07-25T11:57:59Z</time>
      </trkpt>
      <trkpt lat="42.9765930" lon="-1.3973160">
        <ele>815.4</ele>
        <time>2020-07-25T11:58:00Z</time>
      </trkpt>
      <trkpt lat="42.9766740" lon="-1.3971500">
        <ele>816.6</ele>
        <time>2020-07-25T11:58:05Z</time>
      </trkpt>
      <trkpt lat="42.9767560" lon="-1.3969960">
        <ele>817.6</ele>
        <time>2020-07-25T11:58:10Z</time>
      </trkpt>
      <trkpt lat="42.9767710" lon="-1.3969640">
        <ele>817.8</ele>
        <time>2020-07-25T11:58:11Z</time>
      </trkpt>
      <trkpt lat="42.9768670" lon="-1.3967710">
        <ele>818.8</ele>
        <time>2020-07-25T11:58:17Z</time>
      </trkpt>
      <trkpt lat="42.9769220" lon="-1.3966790">
        <ele>819.4</ele>
        <time>2020-07-25T11:58:20Z</time>
      </trkpt>
      <trkpt lat="42.9769600" lon="-1.3966200">
        <ele>820.0</ele>
        <time>2020-07-25T11:58:22Z</time>
      </trkpt>
      <trkpt lat="42.9770700" lon="-1.3964340">
        <ele>821.0</ele>
        <time>2020-07-25T11:58:28Z</time>
      </trkpt>
      <trkpt lat="42.9771610" lon="-1.3962790">
        <ele>822.2</ele>
        <time>2020-07-25T11:58:33Z</time>
      </trkpt>
      <trkpt lat="42.9772000" lon="-1.3961810">
        <ele>822.8</ele>
        <time>2020-07-25T11:58:36Z</time>
      </trkpt>
      <trkpt lat="42.9772290" lon="-1.3961140">
        <ele>823.2</ele>
        <time>2020-07-25T11:58:38Z</time>
      </trkpt>
      <trkpt lat="42.9773320" lon="-1.3958310">
        <ele>824.2</ele>
        <time>2020-07-25T11:58:46Z</time>
      </trkpt>
      <trkpt lat="42.9773410" lon="-1.3957930">
        <ele>824.4</ele>
        <time>2020-07-25T11:58:47Z</time>
      </trkpt>
      <trkpt lat="42.9773610" lon="-1.3956830">
        <ele>825.4</ele>
        <time>2020-07-25T11:58:50Z</time>
      </trkpt>
      <trkpt lat="42.9773800" lon="-1.3955530">
        <ele>826.0</ele>
        <time>2020-07-25T11:58:54Z</time>
      </trkpt>
      <trkpt lat="42.9773860" lon="-1.3954950">
        <ele>826.4</ele>
        <time>2020-07-25T11:58:56Z</time>
      </trkpt>
      <trkpt lat="42.9773990" lon="-1.3954190">
        <ele>827.4</ele>
        <time>2020-07-25T11:58:59Z</time>
      </trkpt>
      <trkpt lat="42.9774020" lon="-1.3953880">
        <ele>827.6</ele>
        <time>2020-07-25T11:59:00Z</time>
      </trkpt>
      <trkpt lat="42.9774160" lon="-1.3952170">
        <ele>828.6</ele>
        <time>2020-07-25T11:59:05Z</time>
      </trkpt>
      <trkpt lat="42.9774150" lon="-1.3951310">
        <ele>829.0</ele>
        <time>2020-07-25T11:59:07Z</time>
      </trkpt>
      <trkpt lat="42.9774180" lon="-1.3950020">
        <ele>829.6</ele>
        <time>2020-07-25T11:59:10Z</time>
      </trkpt>
      <trkpt lat="42.9774140" lon="-1.3948330">
        <ele>830.6</ele>
        <time>2020-07-25T11:59:14Z</time>
      </trkpt>
      <trkpt lat="42.9774120" lon="-1.3947890">
        <ele>830.8</ele>
        <time>2020-07-25T11:59:15Z</time>
      </trkpt>
      <trkpt lat="42.9774020" lon="-1.3945350">
        <ele>831.8</ele>
        <time>2020-07-25T11:59:21Z</time>
      </trkpt>
      <trkpt lat="42.9773820" lon="-1.3942930">
        <ele>833.0</ele>
        <time>2020-07-25T11:59:27Z</time>
      </trkpt>
      <trkpt lat="42.9773830" lon="-1.3942500">
        <ele>833.0</ele>
        <time>2020-07-25T11:59:28Z</time>
      </trkpt>
      <trkpt lat="42.9773970" lon="-1.3940630">
        <ele>834.0</ele>
        <time>2020-07-25T11:59:33Z</time>
      </trkpt>
      <trkpt lat="42.9774110" lon="-1.3939930">
        <ele>834.6</ele>
        <time>2020-07-25T11:59:35Z</time>
      </trkpt>
      <trkpt lat="42.9774180" lon="-1.3939610">
        <ele>834.8</ele>
        <time>2020-07-25T11:59:36Z</time>
      </trkpt>
      <trkpt lat="42.9774290" lon="-1.3939330">
        <ele>835.2</ele>
        <time>2020-07-25T11:59:37Z</time>
      </trkpt>
      <trkpt lat="42.9774440" lon="-1.3938720">
        <ele>835.8</ele>
        <time>2020-07-25T11:59:39Z</time>
      </trkpt>
      <trkpt lat="42.9774580" lon="-1.3937940">
        <ele>836.2</ele>
        <time>2020-07-25T11:59:41Z</time>
      </trkpt>
      <trkpt lat="42.9774850" lon="-1.3936850">
        <ele>837.0</ele>
        <time>2020-07-25T11:59:44Z</time>
      </trkpt>
      <trkpt lat="42.9774990" lon="-1.3936000">
        <ele>837.4</ele>
        <time>2020-07-25T11:59:46Z</time>
      </trkpt>
      <trkpt lat="42.9775440" lon="-1.3934440">
        <ele>838.4</ele>
        <time>2020-07-25T11:59:50Z</time>
      </trkpt>
      <trkpt lat="42.9776030" lon="-1.3932130">
        <ele>839.6</ele>
        <time>2020-07-25T11:59:56Z</time>
      </trkpt>
      <trkpt lat="42.9776110" lon="-1.3931730">
        <ele>839.8</ele>
        <time>2020-07-25T11:59:57Z</time>
      </trkpt>
      <trkpt lat="42.9776570" lon="-1.3929790">
        <ele>840.6</ele>
        <time>2020-07-25T12:00:02Z</time>
      </trkpt>
      <trkpt lat="42.9776670" lon="-1.3929420">
        <ele>841.0</ele>
        <time>2020-07-25T12:00:03Z</time>
      </trkpt>
      <trkpt lat="42.9777330" lon="-1.3927710">
        <ele>841.8</ele>
        <time>2020-07-25T12:00:08Z</time>
      </trkpt>
      <trkpt lat="42.9777690" lon="-1.3927060">
        <ele>842.0</ele>
        <time>2020-07-25T12:00:10Z</time>
      </trkpt>
      <trkpt lat="42.9778410" lon="-1.3925740">
        <ele>842.8</ele>
        <time>2020-07-25T12:00:14Z</time>
      </trkpt>
      <trkpt lat="42.9778940" lon="-1.3924700">
        <ele>843.8</ele>
        <time>2020-07-25T12:00:17Z</time>
      </trkpt>
      <trkpt lat="42.9779110" lon="-1.3924360">
        <ele>844.0</ele>
        <time>2020-07-25T12:00:18Z</time>
      </trkpt>
      <trkpt lat="42.9779630" lon="-1.3923330">
        <ele>845.0</ele>
        <time>2020-07-25T12:00:21Z</time>
      </trkpt>
      <trkpt lat="42.9780340" lon="-1.3921590">
        <ele>845.4</ele>
        <time>2020-07-25T12:00:26Z</time>
      </trkpt>
      <trkpt lat="42.9780490" lon="-1.3920320">
        <ele>846.0</ele>
        <time>2020-07-25T12:00:29Z</time>
      </trkpt>
      <trkpt lat="42.9780300" lon="-1.3919050">
        <ele>846.4</ele>
        <time>2020-07-25T12:00:32Z</time>
      </trkpt>
      <trkpt lat="42.9779790" lon="-1.3917570">
        <ele>847.0</ele>
        <time>2020-07-25T12:00:36Z</time>
      </trkpt>
      <trkpt lat="42.9779060" lon="-1.3915780">
        <ele>848.2</ele>
        <time>2020-07-25T12:00:41Z</time>
      </trkpt>
      <trkpt lat="42.9778900" lon="-1.3915400">
        <ele>848.4</ele>
        <time>2020-07-25T12:00:42Z</time>
      </trkpt>
      <trkpt lat="42.9778610" lon="-1.3914660">
        <ele>849.2</ele>
        <time>2020-07-25T12:00:44Z</time>
      </trkpt>
      <trkpt lat="42.9778000" lon="-1.3912750">
        <ele>850.4</ele>
        <time>2020-07-25T12:00:49Z</time>
      </trkpt>
      <trkpt lat="42.9777790" lon="-1.3912000">
        <ele>850.8</ele>
        <time>2020-07-25T12:00:51Z</time>
      </trkpt>
      <trkpt lat="42.9777540" lon="-1.3910840">
        <ele>851.4</ele>
        <time>2020-07-25T12:00:54Z</time>
      </trkpt>
      <trkpt lat="42.9777230" lon="-1.3908820">
        <ele>852.2</ele>
        <time>2020-07-25T12:00:59Z</time>
      </trkpt>
      <trkpt lat="42.9777140" lon="-1.3907990">
        <ele>852.6</ele>
        <time>2020-07-25T12:01:01Z</time>
      </trkpt>
      <trkpt lat="42.9776980" lon="-1.3906820">
        <ele>853.2</ele>
        <time>2020-07-25T12:01:04Z</time>
      </trkpt>
      <trkpt lat="42.9776700" lon="-1.3905780">
        <ele>853.8</ele>
        <time>2020-07-25T12:01:07Z</time>
      </trkpt>
      <trkpt lat="42.9776460" lon="-1.3904720">
        <ele>854.4</ele>
        <time>2020-07-25T12:01:10Z</time>
      </trkpt>
      <trkpt lat="42.9776400" lon="-1.3903130">
        <ele>855.4</ele>
        <time>2020-07-25T12:01:14Z</time>
      </trkpt>
      <trkpt lat="42.9776380" lon="-1.3902770">
        <ele>855.8</ele>
        <time>2020-07-25T12:01:15Z</time>
      </trkpt>
      <trkpt lat="42.9776250" lon="-1.3901710">
        <ele>856.6</ele>
        <time>2020-07-25T12:01:18Z</time>
      </trkpt>
      <trkpt lat="42.9775930" lon="-1.3900220">
        <ele>857.6</ele>
        <time>2020-07-25T12:01:22Z</time>
      </trkpt>
      <trkpt lat="42.9775160" lon="-1.3898050">
        <ele>858.6</ele>
        <time>2020-07-25T12:01:29Z</time>
      </trkpt>
      <trkpt lat="42.9774670" lon="-1.3895960">
        <ele>859.8</ele>
        <time>2020-07-25T12:01:35Z</time>
      </trkpt>
      <trkpt lat="42.9774590" lon="-1.3895570">
        <ele>860.0</ele>
        <time>2020-07-25T12:01:36Z</time>
      </trkpt>
      <trkpt lat="42.9774270" lon="-1.3894000">
        <ele>861.0</ele>
        <time>2020-07-25T12:01:40Z</time>
      </trkpt>
      <trkpt lat="42.9773820" lon="-1.3892150">
        <ele>862.0</ele>
        <time>2020-07-25T12:01:45Z</time>
      </trkpt>
      <trkpt lat="42.9773720" lon="-1.3891780">
        <ele>862.2</ele>
        <time>2020-07-25T12:01:46Z</time>
      </trkpt>
      <trkpt lat="42.9772940" lon="-1.3890280">
        <ele>862.8</ele>
        <time>2020-07-25T12:01:51Z</time>
      </trkpt>
      <trkpt lat="42.9772770" lon="-1.3889980">
        <ele>862.8</ele>
        <time>2020-07-25T12:01:52Z</time>
      </trkpt>
      <trkpt lat="42.9771710" lon="-1.3888940">
        <ele>863.8</ele>
        <time>2020-07-25T12:01:57Z</time>
      </trkpt>
      <trkpt lat="42.9771030" lon="-1.3888590">
        <ele>864.4</ele>
        <time>2020-07-25T12:02:00Z</time>
      </trkpt>
      <trkpt lat="42.9770520" lon="-1.3888410">
        <ele>864.8</ele>
        <time>2020-07-25T12:02:02Z</time>
      </trkpt>
      <trkpt lat="42.9770050" lon="-1.3888250">
        <ele>865.4</ele>
        <time>2020-07-25T12:02:04Z</time>
      </trkpt>
      <trkpt lat="42.9769340" lon="-1.3887990">
        <ele>866.2</ele>
        <time>2020-07-25T12:02:07Z</time>
      </trkpt>
      <trkpt lat="42.9768370" lon="-1.3887380">
        <ele>867.4</ele>
        <time>2020-07-25T12:02:11Z</time>
      </trkpt>
      <trkpt lat="42.9766900" lon="-1.3886220">
        <ele>868.4</ele>
        <time>2020-07-25T12:02:17Z</time>
      </trkpt>
      <trkpt lat="42.9766330" lon="-1.3885880">
        <ele>868.8</ele>
        <time>2020-07-25T12:02:19Z</time>
      </trkpt>
      <trkpt lat="42.9765510" lon="-1.3885290">
        <ele>869.4</ele>
        <time>2020-07-25T12:02:22Z</time>
      </trkpt>
      <trkpt lat="42.9764460" lon="-1.3884420">
        <ele>870.0</ele>
        <time>2020-07-25T12:02:26Z</time>
      </trkpt>
      <trkpt lat="42.9763790" lon="-1.3883700">
        <ele>870.6</ele>
        <time>2020-07-25T12:02:29Z</time>
      </trkpt>
      <trkpt lat="42.9762700" lon="-1.3882390">
        <ele>871.6</ele>
        <time>2020-07-25T12:02:34Z</time>
      </trkpt>
      <trkpt lat="42.9762300" lon="-1.3881820">
        <ele>872.2</ele>
        <time>2020-07-25T12:02:36Z</time>
      </trkpt>
      <trkpt lat="42.9761850" lon="-1.3880820">
        <ele>872.8</ele>
        <time>2020-07-25T12:02:39Z</time>
      </trkpt>
      <trkpt lat="42.9760850" lon="-1.3878490">
        <ele>874.0</ele>
        <time>2020-07-25T12:02:46Z</time>
      </trkpt>
      <trkpt lat="42.9760260" lon="-1.3877170">
        <ele>875.2</ele>
        <time>2020-07-25T12:02:50Z</time>
      </trkpt>
      <trkpt lat="42.9759560" lon="-1.3875570">
        <ele>875.8</ele>
        <time>2020-07-25T12:02:55Z</time>
      </trkpt>
      <trkpt lat="42.9759260" lon="-1.3874940">
        <ele>876.2</ele>
        <time>2020-07-25T12:02:57Z</time>
      </trkpt>
      <trkpt lat="42.9758350" lon="-1.3872580">
        <ele>877.6</ele>
        <time>2020-07-25T12:03:04Z</time>
      </trkpt>
      <trkpt lat="42.9758300" lon="-1.3872190">
        <ele>877.6</ele>
        <time>2020-07-25T12:03:05Z</time>
      </trkpt>
      <trkpt lat="42.9758640" lon="-1.3870750">
        <ele>878.2</ele>
        <time>2020-07-25T12:03:09Z</time>
      </trkpt>
      <trkpt lat="42.9759150" lon="-1.3870380">
        <ele>878.6</ele>
        <time>2020-07-25T12:03:11Z</time>
      </trkpt>
      <trkpt lat="42.9759750" lon="-1.3870460">
        <ele>879.0</ele>
        <time>2020-07-25T12:03:13Z</time>
      </trkpt>
      <trkpt lat="42.9760620" lon="-1.3870990">
        <ele>879.4</ele>
        <time>2020-07-25T12:03:16Z</time>
      </trkpt>
      <trkpt lat="42.9761240" lon="-1.3871440">
        <ele>879.8</ele>
        <time>2020-07-25T12:03:18Z</time>
      </trkpt>
      <trkpt lat="42.9761570" lon="-1.3871680">
        <ele>880.0</ele>
        <time>2020-07-25T12:03:19Z</time>
      </trkpt>
      <trkpt lat="42.9762540" lon="-1.3872460">
        <ele>880.8</ele>
        <time>2020-07-25T12:03:22Z</time>
      </trkpt>
      <trkpt lat="42.9764110" lon="-1.3873460">
        <ele>881.2</ele>
        <time>2020-07-25T12:03:27Z</time>
      </trkpt>
      <trkpt lat="42.9765380" lon="-1.3873850">
        <ele>881.8</ele>
        <time>2020-07-25T12:03:31Z</time>
      </trkpt>
      <trkpt lat="42.9766320" lon="-1.3873890">
        <ele>882.6</ele>
        <time>2020-07-25T12:03:34Z</time>
      </trkpt>
      <trkpt lat="42.9766620" lon="-1.3873880">
        <ele>882.8</ele>
        <time>2020-07-25T12:03:35Z</time>
      </trkpt>
      <trkpt lat="42.9768740" lon="-1.3873460">
        <ele>883.8</ele>
        <time>2020-07-25T12:03:42Z</time>
      </trkpt>
      <trkpt lat="42.9769030" lon="-1.3873380">
        <ele>884.0</ele>
        <time>2020-07-25T12:03:43Z</time>
      </trkpt>
      <trkpt lat="42.9770460" lon="-1.3872930">
        <ele>885.0</ele>
        <time>2020-07-25T12:03:48Z</time>
      </trkpt>
      <trkpt lat="42.9771010" lon="-1.3872750">
        <ele>885.6</ele>
        <time>2020-07-25T12:03:50Z</time>
      </trkpt>
      <trkpt lat="42.9771930" lon="-1.3872550">
        <ele>886.2</ele>
        <time>2020-07-25T12:03:53Z</time>
      </trkpt>
      <trkpt lat="42.9773470" lon="-1.3872330">
        <ele>887.4</ele>
        <time>2020-07-25T12:03:58Z</time>
      </trkpt>
      <trkpt lat="42.9774080" lon="-1.3872350">
        <ele>888.0</ele>
        <time>2020-07-25T12:04:00Z</time>
      </trkpt>
      <trkpt lat="42.9775010" lon="-1.3872470">
        <ele>888.6</ele>
        <time>2020-07-25T12:04:03Z</time>
      </trkpt>
      <trkpt lat="42.9776520" lon="-1.3872740">
        <ele>889.8</ele>
        <time>2020-07-25T12:04:08Z</time>
      </trkpt>
      <trkpt lat="42.9777110" lon="-1.3872920">
        <ele>890.2</ele>
        <time>2020-07-25T12:04:10Z</time>
      </trkpt>
      <trkpt lat="42.9777980" lon="-1.3873270">
        <ele>891.0</ele>
        <time>2020-07-25T12:04:13Z</time>
      </trkpt>
      <trkpt lat="42.9779080" lon="-1.3873950">
        <ele>892.2</ele>
        <time>2020-07-25T12:04:17Z</time>
      </trkpt>
      <trkpt lat="42.9779360" lon="-1.3874160">
        <ele>892.4</ele>
        <time>2020-07-25T12:04:18Z</time>
      </trkpt>
      <trkpt lat="42.9780720" lon="-1.3875640">
        <ele>893.2</ele>
        <time>2020-07-25T12:04:24Z</time>
      </trkpt>
      <trkpt lat="42.9781710" lon="-1.3877160">
        <ele>894.4</ele>
        <time>2020-07-25T12:04:29Z</time>
      </trkpt>
      <trkpt lat="42.9781910" lon="-1.3877480">
        <ele>894.6</ele>
        <time>2020-07-25T12:04:30Z</time>
      </trkpt>
      <trkpt lat="42.9783270" lon="-1.3879070">
        <ele>895.4</ele>
        <time>2020-07-25T12:04:37Z</time>
      </trkpt>
      <trkpt lat="42.9784130" lon="-1.3879650">
        <ele>896.4</ele>
        <time>2020-07-25T12:04:42Z</time>
      </trkpt>
      <trkpt lat="42.9784550" lon="-1.3879800">
        <ele>896.6</ele>
        <time>2020-07-25T12:04:44Z</time>
      </trkpt>
      <trkpt lat="42.9785350" lon="-1.3879970">
        <ele>897.6</ele>
        <time>2020-07-25T12:04:47Z</time>
      </trkpt>
      <trkpt lat="42.9786290" lon="-1.3879960">
        <ele>898.2</ele>
        <time>2020-07-25T12:04:50Z</time>
      </trkpt>
      <trkpt lat="42.9786870" lon="-1.3879870">
        <ele>898.6</ele>
        <time>2020-07-25T12:04:52Z</time>
      </trkpt>
      <trkpt lat="42.9787900" lon="-1.3879710">
        <ele>899.8</ele>
        <time>2020-07-25T12:04:56Z</time>
      </trkpt>
      <trkpt lat="42.9788150" lon="-1.3879660">
        <ele>899.8</ele>
        <time>2020-07-25T12:04:57Z</time>
      </trkpt>
      <trkpt lat="42.9789490" lon="-1.3879480">
        <ele>900.6</ele>
        <time>2020-07-25T12:05:02Z</time>
      </trkpt>
      <trkpt lat="42.9790250" lon="-1.3879310">
        <ele>901.4</ele>
        <time>2020-07-25T12:05:05Z</time>
      </trkpt>
      <trkpt lat="42.9790830" lon="-1.3879160">
        <ele>901.8</ele>
        <time>2020-07-25T12:05:07Z</time>
      </trkpt>
      <trkpt lat="42.9791870" lon="-1.3878910">
        <ele>902.8</ele>
        <time>2020-07-25T12:05:11Z</time>
      </trkpt>
      <trkpt lat="42.9792060" lon="-1.3878810">
        <ele>902.8</ele>
        <time>2020-07-25T12:05:12Z</time>
      </trkpt>
      <trkpt lat="42.9793030" lon="-1.3878350">
        <ele>903.8</ele>
        <time>2020-07-25T12:05:17Z</time>
      </trkpt>
      <trkpt lat="42.9793230" lon="-1.3878270">
        <ele>904.0</ele>
        <time>2020-07-25T12:05:18Z</time>
      </trkpt>
      <trkpt lat="42.9794440" lon="-1.3877900">
        <ele>905.0</ele>
        <time>2020-07-25T12:05:23Z</time>
      </trkpt>
      <trkpt lat="42.9795420" lon="-1.3877840">
        <ele>905.8</ele>
        <time>2020-07-25T12:05:27Z</time>
      </trkpt>
      <trkpt lat="42.9795730" lon="-1.3877870">
        <ele>906.0</ele>
        <time>2020-07-25T12:05:28Z</time>
      </trkpt>
      <trkpt lat="42.9796890" lon="-1.3877950">
        <ele>906.8</ele>
        <time>2020-07-25T12:05:32Z</time>
      </trkpt>
      <trkpt lat="42.9797550" lon="-1.3878000">
        <ele>907.0</ele>
        <time>2020-07-25T12:05:34Z</time>
      </trkpt>
      <trkpt lat="42.9798990" lon="-1.3877960">
        <ele>907.6</ele>
        <time>2020-07-25T12:05:38Z</time>
      </trkpt>
      <trkpt lat="42.9799730" lon="-1.3877480">
        <ele>908.2</ele>
        <time>2020-07-25T12:05:40Z</time>
      </trkpt>
      <trkpt lat="42.9800160" lon="-1.3876790">
        <ele>908.4</ele>
        <time>2020-07-25T12:05:42Z</time>
      </trkpt>
      <trkpt lat="42.9799960" lon="-1.3875560">
        <ele>908.8</ele>
        <time>2020-07-25T12:05:46Z</time>
      </trkpt>
      <trkpt lat="42.9799500" lon="-1.3874850">
        <ele>909.0</ele>
        <time>2020-07-25T12:05:49Z</time>
      </trkpt>
      <trkpt lat="42.9798870" lon="-1.3874180">
        <ele>910.4</ele>
        <time>2020-07-25T12:05:52Z</time>
      </trkpt>
      <trkpt lat="42.9798670" lon="-1.3873930">
        <ele>910.8</ele>
        <time>2020-07-25T12:05:53Z</time>
      </trkpt>
      <trkpt lat="42.9798000" lon="-1.3873140">
        <ele>911.6</ele>
        <time>2020-07-25T12:05:56Z</time>
      </trkpt>
      <trkpt lat="42.9797480" lon="-1.3872200">
        <ele>912.8</ele>
        <time>2020-07-25T12:05:59Z</time>
      </trkpt>
      <trkpt lat="42.9797270" lon="-1.3871430">
        <ele>913.0</ele>
        <time>2020-07-25T12:06:01Z</time>
      </trkpt>
      <trkpt lat="42.9797330" lon="-1.3869740">
        <ele>913.8</ele>
        <time>2020-07-25T12:06:05Z</time>
      </trkpt>
      <trkpt lat="42.9797400" lon="-1.3869300">
        <ele>913.8</ele>
        <time>2020-07-25T12:06:06Z</time>
      </trkpt>
      <trkpt lat="42.9798240" lon="-1.3866730">
        <ele>915.2</ele>
        <time>2020-07-25T12:06:12Z</time>
      </trkpt>
      <trkpt lat="42.9798430" lon="-1.3866340">
        <ele>915.2</ele>
        <time>2020-07-25T12:06:13Z</time>
      </trkpt>
      <trkpt lat="42.9799540" lon="-1.3864350">
        <ele>915.8</ele>
        <time>2020-07-25T12:06:18Z</time>
      </trkpt>
      <trkpt lat="42.9799840" lon="-1.3864000">
        <ele>915.8</ele>
        <time>2020-07-25T12:06:19Z</time>
      </trkpt>
      <trkpt lat="42.9800180" lon="-1.3863680">
        <ele>915.8</ele>
        <time>2020-07-25T12:06:20Z</time>
      </trkpt>
      <trkpt lat="42.9801180" lon="-1.3863130">
        <ele>915.8</ele>
        <time>2020-07-25T12:06:22Z</time>
      </trkpt>
      <trkpt lat="42.9803130" lon="-1.3862910">
        <ele>915.8</ele>
        <time>2020-07-25T12:06:25Z</time>
      </trkpt>
      <trkpt lat="42.9803800" lon="-1.3862920">
        <ele>915.8</ele>
        <time>2020-07-25T12:06:26Z</time>
      </trkpt>
      <trkpt lat="42.9807300" lon="-1.3863390">
        <ele>914.2</ele>
        <time>2020-07-25T12:06:31Z</time>
      </trkpt>
      <trkpt lat="42.9808110" lon="-1.3863640">
        <ele>913.6</ele>
        <time>2020-07-25T12:06:32Z</time>
      </trkpt>
      <trkpt lat="42.9809810" lon="-1.3864110">
        <ele>912.4</ele>
        <time>2020-07-25T12:06:34Z</time>
      </trkpt>
      <trkpt lat="42.9811600" lon="-1.3864290">
        <ele>911.2</ele>
        <time>2020-07-25T12:06:36Z</time>
      </trkpt>
      <trkpt lat="42.9813390" lon="-1.3864350">
        <ele>910.0</ele>
        <time>2020-07-25T12:06:38Z</time>
      </trkpt>
      <trkpt lat="42.9815830" lon="-1.3864340">
        <ele>909.0</ele>
        <time>2020-07-25T12:06:41Z</time>
      </trkpt>
      <trkpt lat="42.9816550" lon="-1.3864140">
        <ele>908.8</ele>
        <time>2020-07-25T12:06:42Z</time>
      </trkpt>
      <trkpt lat="42.9817080" lon="-1.3862810">
        <ele>908.4</ele>
        <time>2020-07-25T12:06:44Z</time>
      </trkpt>
      <trkpt lat="42.9816270" lon="-1.3861080">
        <ele>908.2</ele>
        <time>2020-07-25T12:06:46Z</time>
      </trkpt>
      <trkpt lat="42.9815540" lon="-1.3860540">
        <ele>908.0</ele>
        <time>2020-07-25T12:06:47Z</time>
      </trkpt>
      <trkpt lat="42.9814660" lon="-1.3860290">
        <ele>907.4</ele>
        <time>2020-07-25T12:06:48Z</time>
      </trkpt>
      <trkpt lat="42.9813770" lon="-1.3860150">
        <ele>907.2</ele>
        <time>2020-07-25T12:06:49Z</time>
      </trkpt>
      <trkpt lat="42.9812860" lon="-1.3859900">
        <ele>907.0</ele>
        <time>2020-07-25T12:06:50Z</time>
      </trkpt>
      <trkpt lat="42.9811960" lon="-1.3859530">
        <ele>906.8</ele>
        <time>2020-07-25T12:06:51Z</time>
      </trkpt>
      <trkpt lat="42.9811090" lon="-1.3859000">
        <ele>906.0</ele>
        <time>2020-07-25T12:06:52Z</time>
      </trkpt>
      <trkpt lat="42.9810230" lon="-1.3858350">
        <ele>905.0</ele>
        <time>2020-07-25T12:06:53Z</time>
      </trkpt>
      <trkpt lat="42.9809370" lon="-1.3857690">
        <ele>904.0</ele>
        <time>2020-07-25T12:06:54Z</time>
      </trkpt>
      <trkpt lat="42.9808490" lon="-1.3857020">
        <ele>903.2</ele>
        <time>2020-07-25T12:06:55Z</time>
      </trkpt>
      <trkpt lat="42.9806920" lon="-1.3855540">
        <ele>901.6</ele>
        <time>2020-07-25T12:06:57Z</time>
      </trkpt>
      <trkpt lat="42.9806070" lon="-1.3853220">
        <ele>900.6</ele>
        <time>2020-07-25T12:06:59Z</time>
      </trkpt>
      <trkpt lat="42.9806100" lon="-1.3851820">
        <ele>900.4</ele>
        <time>2020-07-25T12:07:00Z</time>
      </trkpt>
      <trkpt lat="42.9806380" lon="-1.3850440">
        <ele>900.0</ele>
        <time>2020-07-25T12:07:01Z</time>
      </trkpt>
      <trkpt lat="42.9807550" lon="-1.3848010">
        <ele>898.8</ele>
        <time>2020-07-25T12:07:03Z</time>
      </trkpt>
      <trkpt lat="42.9808320" lon="-1.3846950">
        <ele>898.6</ele>
        <time>2020-07-25T12:07:04Z</time>
      </trkpt>
      <trkpt lat="42.9810000" lon="-1.3844950">
        <ele>897.4</ele>
        <time>2020-07-25T12:07:06Z</time>
      </trkpt>
      <trkpt lat="42.9811640" lon="-1.3842850">
        <ele>895.8</ele>
        <time>2020-07-25T12:07:08Z</time>
      </trkpt>
      <trkpt lat="42.9812420" lon="-1.3841730">
        <ele>895.0</ele>
        <time>2020-07-25T12:07:09Z</time>
      </trkpt>
      <trkpt lat="42.9813150" lon="-1.3840530">
        <ele>894.2</ele>
        <time>2020-07-25T12:07:10Z</time>
      </trkpt>
      <trkpt lat="42.9813810" lon="-1.3839240">
        <ele>893.2</ele>
        <time>2020-07-25T12:07:11Z</time>
      </trkpt>
      <trkpt lat="42.9815020" lon="-1.3836560">
        <ele>891.8</ele>
        <time>2020-07-25T12:07:13Z</time>
      </trkpt>
      <trkpt lat="42.9816190" lon="-1.3833850">
        <ele>890.6</ele>
        <time>2020-07-25T12:07:15Z</time>
      </trkpt>
      <trkpt lat="42.9816760" lon="-1.3832480">
        <ele>889.4</ele>
        <time>2020-07-25T12:07:16Z</time>
      </trkpt>
      <trkpt lat="42.9818460" lon="-1.3828290">
        <ele>887.8</ele>
        <time>2020-07-25T12:07:19Z</time>
      </trkpt>
      <trkpt lat="42.9818910" lon="-1.3826780">
        <ele>887.2</ele>
        <time>2020-07-25T12:07:20Z</time>
      </trkpt>
      <trkpt lat="42.9819250" lon="-1.3825210">
        <ele>886.4</ele>
        <time>2020-07-25T12:07:21Z</time>
      </trkpt>
      <trkpt lat="42.9819390" lon="-1.3821940">
        <ele>885.2</ele>
        <time>2020-07-25T12:07:23Z</time>
      </trkpt>
      <trkpt lat="42.9819130" lon="-1.3820300">
        <ele>884.8</ele>
        <time>2020-07-25T12:07:24Z</time>
      </trkpt>
      <trkpt lat="42.9817500" lon="-1.3815690">
        <ele>883.8</ele>
        <time>2020-07-25T12:07:27Z</time>
      </trkpt>
      <trkpt lat="42.9816350" lon="-1.3812570">
        <ele>882.4</ele>
        <time>2020-07-25T12:07:29Z</time>
      </trkpt>
      <trkpt lat="42.9815970" lon="-1.3810880">
        <ele>881.2</ele>
        <time>2020-07-25T12:07:30Z</time>
      </trkpt>
      <trkpt lat="42.9815710" lon="-1.3807310">
        <ele>879.8</ele>
        <time>2020-07-25T12:07:32Z</time>
      </trkpt>
      <trkpt lat="42.9815680" lon="-1.3805490">
        <ele>879.2</ele>
        <time>2020-07-25T12:07:33Z</time>
      </trkpt>
      <trkpt lat="42.9815710" lon="-1.3803690">
        <ele>878.4</ele>
        <time>2020-07-25T12:07:34Z</time>
      </trkpt>
      <trkpt lat="42.9815910" lon="-1.3800060">
        <ele>876.6</ele>
        <time>2020-07-25T12:07:36Z</time>
      </trkpt>
      <trkpt lat="42.9816340" lon="-1.3796380">
        <ele>875.6</ele>
        <time>2020-07-25T12:07:38Z</time>
      </trkpt>
      <trkpt lat="42.9816970" lon="-1.3792720">
        <ele>873.8</ele>
        <time>2020-07-25T12:07:40Z</time>
      </trkpt>
      <trkpt lat="42.9817290" lon="-1.3790920">
        <ele>872.4</ele>
        <time>2020-07-25T12:07:41Z</time>
      </trkpt>
      <trkpt lat="42.9817590" lon="-1.3789150">
        <ele>871.2</ele>
        <time>2020-07-25T12:07:42Z</time>
      </trkpt>
      <trkpt lat="42.9818050" lon="-1.3785700">
        <ele>869.2</ele>
        <time>2020-07-25T12:07:44Z</time>
      </trkpt>
      <trkpt lat="42.9818200" lon="-1.3784030">
        <ele>868.2</ele>
        <time>2020-07-25T12:07:45Z</time>
      </trkpt>
      <trkpt lat="42.9818360" lon="-1.3779330">
        <ele>867.0</ele>
        <time>2020-07-25T12:07:48Z</time>
      </trkpt>
      <trkpt lat="42.9818390" lon="-1.3770970">
        <ele>867.0</ele>
        <time>2020-07-25T12:07:54Z</time>
      </trkpt>
      <trkpt lat="42.9819180" lon="-1.3764520">
        <ele>868.2</ele>
        <time>2020-07-25T12:07:59Z</time>
      </trkpt>
      <trkpt lat="42.9819430" lon="-1.3763210">
        <ele>868.4</ele>
        <time>2020-07-25T12:08:00Z</time>
      </trkpt>
      <trkpt lat="42.9820140" lon="-1.3759010">
        <ele>868.8</ele>
        <time>2020-07-25T12:08:03Z</time>
      </trkpt>
      <trkpt lat="42.9820120" lon="-1.3755990">
        <ele>868.8</ele>
        <time>2020-07-25T12:08:05Z</time>
      </trkpt>
      <trkpt lat="42.9819870" lon="-1.3754490">
        <ele>868.8</ele>
        <time>2020-07-25T12:08:06Z</time>
      </trkpt>
      <trkpt lat="42.9818970" lon="-1.3751670">
        <ele>868.8</ele>
        <time>2020-07-25T12:08:08Z</time>
      </trkpt>
      <trkpt lat="42.9816880" lon="-1.3748250">
        <ele>867.0</ele>
        <time>2020-07-25T12:08:11Z</time>
      </trkpt>
      <trkpt lat="42.9816060" lon="-1.3747370">
        <ele>865.0</ele>
        <time>2020-07-25T12:08:12Z</time>
      </trkpt>
      <trkpt lat="42.9815230" lon="-1.3746590">
        <ele>863.8</ele>
        <time>2020-07-25T12:08:13Z</time>
      </trkpt>
      <trkpt lat="42.9813610" lon="-1.3745210">
        <ele>863.0</ele>
        <time>2020-07-25T12:08:15Z</time>
      </trkpt>
      <trkpt lat="42.9812130" lon="-1.3743890">
        <ele>862.8</ele>
        <time>2020-07-25T12:08:17Z</time>
      </trkpt>
      <trkpt lat="42.9809440" lon="-1.3741420">
        <ele>862.8</ele>
        <time>2020-07-25T12:08:21Z</time>
      </trkpt>
      <trkpt lat="42.9806030" lon="-1.3738260">
        <ele>864.0</ele>
        <time>2020-07-25T12:08:27Z</time>
      </trkpt>
      <trkpt lat="42.9804590" lon="-1.3736810">
        <ele>865.0</ele>
        <time>2020-07-25T12:08:30Z</time>
      </trkpt>
      <trkpt lat="42.9803280" lon="-1.3735310">
        <ele>866.0</ele>
        <time>2020-07-25T12:08:33Z</time>
      </trkpt>
      <trkpt lat="42.9802910" lon="-1.3734750">
        <ele>866.4</ele>
        <time>2020-07-25T12:08:34Z</time>
      </trkpt>
      <trkpt lat="42.9801690" lon="-1.3732340">
        <ele>867.4</ele>
        <time>2020-07-25T12:08:38Z</time>
      </trkpt>
      <trkpt lat="42.9801450" lon="-1.3731700">
        <ele>867.8</ele>
        <time>2020-07-25T12:08:39Z</time>
      </trkpt>
      <trkpt lat="42.9801020" lon="-1.3730350">
        <ele>868.6</ele>
        <time>2020-07-25T12:08:41Z</time>
      </trkpt>
      <trkpt lat="42.9800030" lon="-1.3727400">
        <ele>869.8</ele>
        <time>2020-07-25T12:08:45Z</time>
      </trkpt>
      <trkpt lat="42.9798230" lon="-1.3721630">
        <ele>869.8</ele>
        <time>2020-07-25T12:08:51Z</time>
      </trkpt>
      <trkpt lat="42.9797030" lon="-1.3717360">
        <ele>868.6</ele>
        <time>2020-07-25T12:08:55Z</time>
      </trkpt>
      <trkpt lat="42.9796120" lon="-1.3714040">
        <ele>866.8</ele>
        <time>2020-07-25T12:08:58Z</time>
      </trkpt>
      <trkpt lat="42.9795470" lon="-1.3711800">
        <ele>865.6</ele>
        <time>2020-07-25T12:09:00Z</time>
      </trkpt>
      <trkpt lat="42.9794470" lon="-1.3708400">
        <ele>864.6</ele>
        <time>2020-07-25T12:09:03Z</time>
      </trkpt>
      <trkpt lat="42.9793290" lon="-1.3703870">
        <ele>863.8</ele>
        <time>2020-07-25T12:09:07Z</time>
      </trkpt>
      <trkpt lat="42.9792980" lon="-1.3702770">
        <ele>863.4</ele>
        <time>2020-07-25T12:09:08Z</time>
      </trkpt>
      <trkpt lat="42.9791290" lon="-1.3696290">
        <ele>862.6</ele>
        <time>2020-07-25T12:09:14Z</time>
      </trkpt>
      <trkpt lat="42.9790190" lon="-1.3691790">
        <ele>862.6</ele>
        <time>2020-07-25T12:09:19Z</time>
      </trkpt>
      <trkpt lat="42.9788760" lon="-1.3684660">
        <ele>863.2</ele>
        <time>2020-07-25T12:09:27Z</time>
      </trkpt>
      <trkpt lat="42.9788580" lon="-1.3683710">
        <ele>863.2</ele>
        <time>2020-07-25T12:09:28Z</time>
      </trkpt>
      <trkpt lat="42.9787620" lon="-1.3676480">
        <ele>863.6</ele>
        <time>2020-07-25T12:09:36Z</time>
      </trkpt>
      <trkpt lat="42.9787220" lon="-1.3671460">
        <ele>864.0</ele>
        <time>2020-07-25T12:09:43Z</time>
      </trkpt>
      <trkpt lat="42.9787120" lon="-1.3670280">
        <ele>864.2</ele>
        <time>2020-07-25T12:09:45Z</time>
      </trkpt>
      <trkpt lat="42.9786790" lon="-1.3667600">
        <ele>865.4</ele>
        <time>2020-07-25T12:09:50Z</time>
      </trkpt>
      <trkpt lat="42.9786430" lon="-1.3665550">
        <ele>866.6</ele>
        <time>2020-07-25T12:09:54Z</time>
      </trkpt>
      <trkpt lat="42.9786110" lon="-1.3664040">
        <ele>867.6</ele>
        <time>2020-07-25T12:09:57Z</time>
      </trkpt>
      <trkpt lat="42.9785760" lon="-1.3662500">
        <ele>868.6</ele>
        <time>2020-07-25T12:10:00Z</time>
      </trkpt>
      <trkpt lat="42.9785650" lon="-1.3661980">
        <ele>869.0</ele>
        <time>2020-07-25T12:10:01Z</time>
      </trkpt>
      <trkpt lat="42.9785060" lon="-1.3659380">
        <ele>870.2</ele>
        <time>2020-07-25T12:10:06Z</time>
      </trkpt>
      <trkpt lat="42.9784770" lon="-1.3657690">
        <ele>870.8</ele>
        <time>2020-07-25T12:10:09Z</time>
      </trkpt>
      <trkpt lat="42.9784400" lon="-1.3655830">
        <ele>871.4</ele>
        <time>2020-07-25T12:10:12Z</time>
      </trkpt>
      <trkpt lat="42.9783670" lon="-1.3653130">
        <ele>871.6</ele>
        <time>2020-07-25T12:10:16Z</time>
      </trkpt>
      <trkpt lat="42.9782240" lon="-1.3648950">
        <ele>871.6</ele>
        <time>2020-07-25T12:10:21Z</time>
      </trkpt>
      <trkpt lat="42.9780240" lon="-1.3644090">
        <ele>870.4</ele>
        <time>2020-07-25T12:10:26Z</time>
      </trkpt>
      <trkpt lat="42.9779350" lon="-1.3642000">
        <ele>869.8</ele>
        <time>2020-07-25T12:10:28Z</time>
      </trkpt>
      <trkpt lat="42.9778920" lon="-1.3640920">
        <ele>869.2</ele>
        <time>2020-07-25T12:10:29Z</time>
      </trkpt>
      <trkpt lat="42.9778460" lon="-1.3639810">
        <ele>867.4</ele>
        <time>2020-07-25T12:10:30Z</time>
      </trkpt>
      <trkpt lat="42.9777480" lon="-1.3637530">
        <ele>866.4</ele>
        <time>2020-07-25T12:10:32Z</time>
      </trkpt>
      <trkpt lat="42.9776520" lon="-1.3635150">
        <ele>865.6</ele>
        <time>2020-07-25T12:10:34Z</time>
      </trkpt>
      <trkpt lat="42.9776040" lon="-1.3633940">
        <ele>865.2</ele>
        <time>2020-07-25T12:10:35Z</time>
      </trkpt>
      <trkpt lat="42.9775000" lon="-1.3631520">
        <ele>864.0</ele>
        <time>2020-07-25T12:10:37Z</time>
      </trkpt>
      <trkpt lat="42.9773960" lon="-1.3628970">
        <ele>862.8</ele>
        <time>2020-07-25T12:10:39Z</time>
      </trkpt>
      <trkpt lat="42.9773430" lon="-1.3627640">
        <ele>862.2</ele>
        <time>2020-07-25T12:10:40Z</time>
      </trkpt>
      <trkpt lat="42.9772880" lon="-1.3626280">
        <ele>861.8</ele>
        <time>2020-07-25T12:10:41Z</time>
      </trkpt>
      <trkpt lat="42.9771720" lon="-1.3623470">
        <ele>860.6</ele>
        <time>2020-07-25T12:10:43Z</time>
      </trkpt>
      <trkpt lat="42.9770510" lon="-1.3620540">
        <ele>859.6</ele>
        <time>2020-07-25T12:10:45Z</time>
      </trkpt>
      <trkpt lat="42.9769890" lon="-1.3619020">
        <ele>858.8</ele>
        <time>2020-07-25T12:10:46Z</time>
      </trkpt>
      <trkpt lat="42.9769290" lon="-1.3617460">
        <ele>858.0</ele>
        <time>2020-07-25T12:10:47Z</time>
      </trkpt>
      <trkpt lat="42.9768040" lon="-1.3614300">
        <ele>856.4</ele>
        <time>2020-07-25T12:10:49Z</time>
      </trkpt>
      <trkpt lat="42.9766790" lon="-1.3611110">
        <ele>854.4</ele>
        <time>2020-07-25T12:10:51Z</time>
      </trkpt>
      <trkpt lat="42.9765540" lon="-1.3608000">
        <ele>852.6</ele>
        <time>2020-07-25T12:10:53Z</time>
      </trkpt>
      <trkpt lat="42.9764920" lon="-1.3606520">
        <ele>851.6</ele>
        <time>2020-07-25T12:10:54Z</time>
      </trkpt>
      <trkpt lat="42.9764310" lon="-1.3605080">
        <ele>850.4</ele>
        <time>2020-07-25T12:10:55Z</time>
      </trkpt>
      <trkpt lat="42.9763730" lon="-1.3603680">
        <ele>849.2</ele>
        <time>2020-07-25T12:10:56Z</time>
      </trkpt>
      <trkpt lat="42.9763170" lon="-1.3602340">
        <ele>847.8</ele>
        <time>2020-07-25T12:10:57Z</time>
      </trkpt>
      <trkpt lat="42.9762630" lon="-1.3601060">
        <ele>846.8</ele>
        <time>2020-07-25T12:10:58Z</time>
      </trkpt>
      <trkpt lat="42.9762110" lon="-1.3599840">
        <ele>846.6</ele>
        <time>2020-07-25T12:10:59Z</time>
      </trkpt>
      <trkpt lat="42.9759780" lon="-1.3594340">
        <ele>846.4</ele>
        <time>2020-07-25T12:11:04Z</time>
      </trkpt>
      <trkpt lat="42.9758120" lon="-1.3590540">
        <ele>848.4</ele>
        <time>2020-07-25T12:11:08Z</time>
      </trkpt>
      <trkpt lat="42.9757380" lon="-1.3588870">
        <ele>849.6</ele>
        <time>2020-07-25T12:11:10Z</time>
      </trkpt>
      <trkpt lat="42.9756380" lon="-1.3586650">
        <ele>850.8</ele>
        <time>2020-07-25T12:11:13Z</time>
      </trkpt>
      <trkpt lat="42.9755440" lon="-1.3584660">
        <ele>852.2</ele>
        <time>2020-07-25T12:11:16Z</time>
      </trkpt>
      <trkpt lat="42.9754870" lon="-1.3583410">
        <ele>853.2</ele>
        <time>2020-07-25T12:11:18Z</time>
      </trkpt>
      <trkpt lat="42.9754340" lon="-1.3582250">
        <ele>854.6</ele>
        <time>2020-07-25T12:11:20Z</time>
      </trkpt>
      <trkpt lat="42.9753640" lon="-1.3580550">
        <ele>856.0</ele>
        <time>2020-07-25T12:11:23Z</time>
      </trkpt>
      <trkpt lat="42.9752930" lon="-1.3578940">
        <ele>857.2</ele>
        <time>2020-07-25T12:11:26Z</time>
      </trkpt>
      <trkpt lat="42.9752220" lon="-1.3577390">
        <ele>858.2</ele>
        <time>2020-07-25T12:11:29Z</time>
      </trkpt>
      <trkpt lat="42.9751480" lon="-1.3575920">
        <ele>859.0</ele>
        <time>2020-07-25T12:11:32Z</time>
      </trkpt>
      <trkpt lat="42.9751220" lon="-1.3575470">
        <ele>859.4</ele>
        <time>2020-07-25T12:11:33Z</time>
      </trkpt>
      <trkpt lat="42.9749890" lon="-1.3573360">
        <ele>860.4</ele>
        <time>2020-07-25T12:11:38Z</time>
      </trkpt>
      <trkpt lat="42.9749650" lon="-1.3572960">
        <ele>860.6</ele>
        <time>2020-07-25T12:11:39Z</time>
      </trkpt>
      <trkpt lat="42.9748330" lon="-1.3571170">
        <ele>861.4</ele>
        <time>2020-07-25T12:11:44Z</time>
      </trkpt>
      <trkpt lat="42.9747560" lon="-1.3570150">
        <ele>862.0</ele>
        <time>2020-07-25T12:11:47Z</time>
      </trkpt>
      <trkpt lat="42.9747060" lon="-1.3569480">
        <ele>862.4</ele>
        <time>2020-07-25T12:11:49Z</time>
      </trkpt>
      <trkpt lat="42.9745850" lon="-1.3567890">
        <ele>864.0</ele>
        <time>2020-07-25T12:11:54Z</time>
      </trkpt>
      <trkpt lat="42.9744600" lon="-1.3566430">
        <ele>865.0</ele>
        <time>2020-07-25T12:11:59Z</time>
      </trkpt>
      <trkpt lat="42.9744360" lon="-1.3566110">
        <ele>865.2</ele>
        <time>2020-07-25T12:12:00Z</time>
      </trkpt>
      <trkpt lat="42.9743180" lon="-1.3564620">
        <ele>866.0</ele>
        <time>2020-07-25T12:12:05Z</time>
      </trkpt>
      <trkpt lat="42.9742940" lon="-1.3564310">
        <ele>866.4</ele>
        <time>2020-07-25T12:12:06Z</time>
      </trkpt>
      <trkpt lat="42.9742210" lon="-1.3563370">
        <ele>867.2</ele>
        <time>2020-07-25T12:12:09Z</time>
      </trkpt>
      <trkpt lat="42.9741230" lon="-1.3562090">
        <ele>868.2</ele>
        <time>2020-07-25T12:12:13Z</time>
      </trkpt>
      <trkpt lat="42.9740540" lon="-1.3561140">
        <ele>869.2</ele>
        <time>2020-07-25T12:12:16Z</time>
      </trkpt>
      <trkpt lat="42.9740320" lon="-1.3560820">
        <ele>869.4</ele>
        <time>2020-07-25T12:12:17Z</time>
      </trkpt>
      <trkpt lat="42.9739190" lon="-1.3559280">
        <ele>870.2</ele>
        <time>2020-07-25T12:12:22Z</time>
      </trkpt>
      <trkpt lat="42.9738970" lon="-1.3558980">
        <ele>870.4</ele>
        <time>2020-07-25T12:12:23Z</time>
      </trkpt>
      <trkpt lat="42.9738010" lon="-1.3557810">
        <ele>871.2</ele>
        <time>2020-07-25T12:12:27Z</time>
      </trkpt>
      <trkpt lat="42.9736980" lon="-1.3556670">
        <ele>872.2</ele>
        <time>2020-07-25T12:12:31Z</time>
      </trkpt>
      <trkpt lat="42.9735750" lon="-1.3555550">
        <ele>873.4</ele>
        <time>2020-07-25T12:12:35Z</time>
      </trkpt>
      <trkpt lat="42.9735040" lon="-1.3554950">
        <ele>873.6</ele>
        <time>2020-07-25T12:12:37Z</time>
      </trkpt>
      <trkpt lat="42.9734070" lon="-1.3554040">
        <ele>874.0</ele>
        <time>2020-07-25T12:12:40Z</time>
      </trkpt>
      <trkpt lat="42.9733120" lon="-1.3552830">
        <ele>874.0</ele>
        <time>2020-07-25T12:12:43Z</time>
      </trkpt>
      <trkpt lat="42.9732050" lon="-1.3551150">
        <ele>874.0</ele>
        <time>2020-07-25T12:12:46Z</time>
      </trkpt>
      <trkpt lat="42.9731700" lon="-1.3550530">
        <ele>874.0</ele>
        <time>2020-07-25T12:12:47Z</time>
      </trkpt>
      <trkpt lat="42.9728730" lon="-1.3545470">
        <ele>873.6</ele>
        <time>2020-07-25T12:12:54Z</time>
      </trkpt>
      <trkpt lat="42.9726900" lon="-1.3542160">
        <ele>872.4</ele>
        <time>2020-07-25T12:12:58Z</time>
      </trkpt>
      <trkpt lat="42.9726570" lon="-1.3541200">
        <ele>872.0</ele>
        <time>2020-07-25T12:12:59Z</time>
      </trkpt>
      <trkpt lat="42.9726330" lon="-1.3538040">
        <ele>871.0</ele>
        <time>2020-07-25T12:13:02Z</time>
      </trkpt>
      <trkpt lat="42.9727280" lon="-1.3534740">
        <ele>870.4</ele>
        <time>2020-07-25T12:13:05Z</time>
      </trkpt>
      <trkpt lat="42.9727890" lon="-1.3533780">
        <ele>869.8</ele>
        <time>2020-07-25T12:13:06Z</time>
      </trkpt>
      <trkpt lat="42.9729330" lon="-1.3531970">
        <ele>869.0</ele>
        <time>2020-07-25T12:13:08Z</time>
      </trkpt>
      <trkpt lat="42.9730110" lon="-1.3531070">
        <ele>868.4</ele>
        <time>2020-07-25T12:13:09Z</time>
      </trkpt>
      <trkpt lat="42.9732510" lon="-1.3528340">
        <ele>867.2</ele>
        <time>2020-07-25T12:13:12Z</time>
      </trkpt>
      <trkpt lat="42.9735640" lon="-1.3524670">
        <ele>865.8</ele>
        <time>2020-07-25T12:13:16Z</time>
      </trkpt>
      <trkpt lat="42.9736400" lon="-1.3523800">
        <ele>865.0</ele>
        <time>2020-07-25T12:13:17Z</time>
      </trkpt>
      <trkpt lat="42.9737140" lon="-1.3522960">
        <ele>863.2</ele>
        <time>2020-07-25T12:13:18Z</time>
      </trkpt>
      <trkpt lat="42.9738550" lon="-1.3521380">
        <ele>862.0</ele>
        <time>2020-07-25T12:13:20Z</time>
      </trkpt>
      <trkpt lat="42.9740430" lon="-1.3519290">
        <ele>861.8</ele>
        <time>2020-07-25T12:13:23Z</time>
      </trkpt>
      <trkpt lat="42.9743530" lon="-1.3515920">
        <ele>861.8</ele>
        <time>2020-07-25T12:13:29Z</time>
      </trkpt>
      <trkpt lat="42.9745450" lon="-1.3513780">
        <ele>863.2</ele>
        <time>2020-07-25T12:13:33Z</time>
      </trkpt>
      <trkpt lat="42.9746940" lon="-1.3512130">
        <ele>864.6</ele>
        <time>2020-07-25T12:13:36Z</time>
      </trkpt>
      <trkpt lat="42.9749520" lon="-1.3509300">
        <ele>864.6</ele>
        <time>2020-07-25T12:13:41Z</time>
      </trkpt>
      <trkpt lat="42.9753730" lon="-1.3504600">
        <ele>864.6</ele>
        <time>2020-07-25T12:13:49Z</time>
      </trkpt>
      <trkpt lat="42.9755390" lon="-1.3502780">
        <ele>864.4</ele>
        <time>2020-07-25T12:13:52Z</time>
      </trkpt>
      <trkpt lat="42.9759920" lon="-1.3497700">
        <ele>864.2</ele>
        <time>2020-07-25T12:14:00Z</time>
      </trkpt>
      <trkpt lat="42.9761110" lon="-1.3496370">
        <ele>864.2</ele>
        <time>2020-07-25T12:14:02Z</time>
      </trkpt>
      <trkpt lat="42.9765410" lon="-1.3491610">
        <ele>863.6</ele>
        <time>2020-07-25T12:14:09Z</time>
      </trkpt>
      <trkpt lat="42.9768230" lon="-1.3488140">
        <ele>863.2</ele>
        <time>2020-07-25T12:14:14Z</time>
      </trkpt>
      <trkpt lat="42.9771960" lon="-1.3483870">
        <ele>863.4</ele>
        <time>2020-07-25T12:14:21Z</time>
      </trkpt>
      <trkpt lat="42.9774960" lon="-1.3480740">
        <ele>864.6</ele>
        <time>2020-07-25T12:14:27Z</time>
      </trkpt>
      <trkpt lat="42.9776420" lon="-1.3479360">
        <ele>865.2</ele>
        <time>2020-07-25T12:14:30Z</time>
      </trkpt>
      <trkpt lat="42.9777800" lon="-1.3477990">
        <ele>865.6</ele>
        <time>2020-07-25T12:14:33Z</time>
      </trkpt>
      <trkpt lat="42.9779540" lon="-1.3476190">
        <ele>866.4</ele>
        <time>2020-07-25T12:14:37Z</time>
      </trkpt>
      <trkpt lat="42.9780730" lon="-1.3474710">
        <ele>866.8</ele>
        <time>2020-07-25T12:14:40Z</time>
      </trkpt>
      <trkpt lat="42.9782310" lon="-1.3472850">
        <ele>867.2</ele>
        <time>2020-07-25T12:14:44Z</time>
      </trkpt>
      <trkpt lat="42.9783520" lon="-1.3471440">
        <ele>867.8</ele>
        <time>2020-07-25T12:14:47Z</time>
      </trkpt>
      <trkpt lat="42.9784630" lon="-1.3470060">
        <ele>868.0</ele>
        <time>2020-07-25T12:14:50Z</time>
      </trkpt>
      <trkpt lat="42.9786600" lon="-1.3467960">
        <ele>868.6</ele>
        <time>2020-07-25T12:14:55Z</time>
      </trkpt>
      <trkpt lat="42.9786990" lon="-1.3467560">
        <ele>868.8</ele>
        <time>2020-07-25T12:14:56Z</time>
      </trkpt>
      <trkpt lat="42.9787340" lon="-1.3467120">
        <ele>869.0</ele>
        <time>2020-07-25T12:14:57Z</time>
      </trkpt>
      <trkpt lat="42.9788070" lon="-1.3466330">
        <ele>869.2</ele>
        <time>2020-07-25T12:14:59Z</time>
      </trkpt>
      <trkpt lat="42.9788820" lon="-1.3465550">
        <ele>869.4</ele>
        <time>2020-07-25T12:15:01Z</time>
      </trkpt>
      <trkpt lat="42.9790780" lon="-1.3463540">
        <ele>870.0</ele>
        <time>2020-07-25T12:15:06Z</time>
      </trkpt>
      <trkpt lat="42.9791900" lon="-1.3462330">
        <ele>870.8</ele>
        <time>2020-07-25T12:15:09Z</time>
      </trkpt>
      <trkpt lat="42.9792640" lon="-1.3461560">
        <ele>871.2</ele>
        <time>2020-07-25T12:15:11Z</time>
      </trkpt>
      <trkpt lat="42.9794130" lon="-1.3459920">
        <ele>871.6</ele>
        <time>2020-07-25T12:15:15Z</time>
      </trkpt>
      <trkpt lat="42.9795250" lon="-1.3458630">
        <ele>872.4</ele>
        <time>2020-07-25T12:15:18Z</time>
      </trkpt>
      <trkpt lat="42.9797250" lon="-1.3456520">
        <ele>873.4</ele>
        <time>2020-07-25T12:15:23Z</time>
      </trkpt>
      <trkpt lat="42.9800010" lon="-1.3453530">
        <ele>874.2</ele>
        <time>2020-07-25T12:15:30Z</time>
      </trkpt>
      <trkpt lat="42.9800350" lon="-1.3453080">
        <ele>874.2</ele>
        <time>2020-07-25T12:15:31Z</time>
      </trkpt>
      <trkpt lat="42.9801060" lon="-1.3452230">
        <ele>874.4</ele>
        <time>2020-07-25T12:15:33Z</time>
      </trkpt>
      <trkpt lat="42.9801440" lon="-1.3451840">
        <ele>874.4</ele>
        <time>2020-07-25T12:15:34Z</time>
      </trkpt>
      <trkpt lat="42.9801830" lon="-1.3451460">
        <ele>874.6</ele>
        <time>2020-07-25T12:15:35Z</time>
      </trkpt>
      <trkpt lat="42.9804390" lon="-1.3448670">
        <ele>875.4</ele>
        <time>2020-07-25T12:15:42Z</time>
      </trkpt>
      <trkpt lat="42.9805020" lon="-1.3447860">
        <ele>875.8</ele>
        <time>2020-07-25T12:15:44Z</time>
      </trkpt>
      <trkpt lat="42.9805770" lon="-1.3447030">
        <ele>876.0</ele>
        <time>2020-07-25T12:15:46Z</time>
      </trkpt>
      <trkpt lat="42.9807190" lon="-1.3445460">
        <ele>876.6</ele>
        <time>2020-07-25T12:15:50Z</time>
      </trkpt>
      <trkpt lat="42.9807500" lon="-1.3445070">
        <ele>876.8</ele>
        <time>2020-07-25T12:15:51Z</time>
      </trkpt>
      <trkpt lat="42.9807820" lon="-1.3444690">
        <ele>877.0</ele>
        <time>2020-07-25T12:15:52Z</time>
      </trkpt>
      <trkpt lat="42.9808810" lon="-1.3443540">
        <ele>877.2</ele>
        <time>2020-07-25T12:15:55Z</time>
      </trkpt>
      <trkpt lat="42.9809820" lon="-1.3442390">
        <ele>877.2</ele>
        <time>2020-07-25T12:15:58Z</time>
      </trkpt>
      <trkpt lat="42.9810840" lon="-1.3441210">
        <ele>877.8</ele>
        <time>2020-07-25T12:16:01Z</time>
      </trkpt>
      <trkpt lat="42.9813040" lon="-1.3438800">
        <ele>878.4</ele>
        <time>2020-07-25T12:16:07Z</time>
      </trkpt>
      <trkpt lat="42.9816050" lon="-1.3435490">
        <ele>878.8</ele>
        <time>2020-07-25T12:16:14Z</time>
      </trkpt>
      <trkpt lat="42.9819830" lon="-1.3431050">
        <ele>878.2</ele>
        <time>2020-07-25T12:16:21Z</time>
      </trkpt>
      <trkpt lat="42.9822800" lon="-1.3427460">
        <ele>877.0</ele>
        <time>2020-07-25T12:16:26Z</time>
      </trkpt>
      <trkpt lat="42.9823440" lon="-1.3426790">
        <ele>876.6</ele>
        <time>2020-07-25T12:16:27Z</time>
      </trkpt>
      <trkpt lat="42.9824060" lon="-1.3426050">
        <ele>876.2</ele>
        <time>2020-07-25T12:16:28Z</time>
      </trkpt>
      <trkpt lat="42.9825890" lon="-1.3423710">
        <ele>875.2</ele>
        <time>2020-07-25T12:16:31Z</time>
      </trkpt>
      <trkpt lat="42.9827710" lon="-1.3421380">
        <ele>874.0</ele>
        <time>2020-07-25T12:16:34Z</time>
      </trkpt>
      <trkpt lat="42.9828940" lon="-1.3419920">
        <ele>873.4</ele>
        <time>2020-07-25T12:16:36Z</time>
      </trkpt>
      <trkpt lat="42.9833100" lon="-1.3414900">
        <ele>873.0</ele>
        <time>2020-07-25T12:16:43Z</time>
      </trkpt>
      <trkpt lat="42.9834250" lon="-1.3413470">
        <ele>872.8</ele>
        <time>2020-07-25T12:16:45Z</time>
      </trkpt>
      <trkpt lat="42.9838410" lon="-1.3408430">
        <ele>872.4</ele>
        <time>2020-07-25T12:16:52Z</time>
      </trkpt>
      <trkpt lat="42.9838970" lon="-1.3407740">
        <ele>872.4</ele>
        <time>2020-07-25T12:16:53Z</time>
      </trkpt>
      <trkpt lat="42.9842190" lon="-1.3403900">
        <ele>872.4</ele>
        <time>2020-07-25T12:16:59Z</time>
      </trkpt>
      <trkpt lat="42.9846360" lon="-1.3398860">
        <ele>873.4</ele>
        <time>2020-07-25T12:17:08Z</time>
      </trkpt>
      <trkpt lat="42.9848030" lon="-1.3396830">
        <ele>874.2</ele>
        <time>2020-07-25T12:17:12Z</time>
      </trkpt>
      <trkpt lat="42.9850040" lon="-1.3394350">
        <ele>875.4</ele>
        <time>2020-07-25T12:17:17Z</time>
      </trkpt>
      <trkpt lat="42.9850440" lon="-1.3393870">
        <ele>875.6</ele>
        <time>2020-07-25T12:17:18Z</time>
      </trkpt>
      <trkpt lat="42.9852780" lon="-1.3390960">
        <ele>876.8</ele>
        <time>2020-07-25T12:17:24Z</time>
      </trkpt>
      <trkpt lat="42.9854370" lon="-1.3389080">
        <ele>877.4</ele>
        <time>2020-07-25T12:17:28Z</time>
      </trkpt>
      <trkpt lat="42.9855160" lon="-1.3388130">
        <ele>877.8</ele>
        <time>2020-07-25T12:17:30Z</time>
      </trkpt>
      <trkpt lat="42.9858300" lon="-1.3384270">
        <ele>878.8</ele>
        <time>2020-07-25T12:17:38Z</time>
      </trkpt>
      <trkpt lat="42.9858680" lon="-1.3383770">
        <ele>878.8</ele>
        <time>2020-07-25T12:17:39Z</time>
      </trkpt>
      <trkpt lat="42.9862250" lon="-1.3379430">
        <ele>880.0</ele>
        <time>2020-07-25T12:17:48Z</time>
      </trkpt>
      <trkpt lat="42.9862620" lon="-1.3378950">
        <ele>880.2</ele>
        <time>2020-07-25T12:17:49Z</time>
      </trkpt>
      <trkpt lat="42.9865290" lon="-1.3375520">
        <ele>881.0</ele>
        <time>2020-07-25T12:17:56Z</time>
      </trkpt>
      <trkpt lat="42.9866560" lon="-1.3374050">
        <ele>881.2</ele>
        <time>2020-07-25T12:17:59Z</time>
      </trkpt>
      <trkpt lat="42.9869640" lon="-1.3371720">
        <ele>881.8</ele>
        <time>2020-07-25T12:18:05Z</time>
      </trkpt>
      <trkpt lat="42.9873470" lon="-1.3369720">
        <ele>882.0</ele>
        <time>2020-07-25T12:18:12Z</time>
      </trkpt>
      <trkpt lat="42.9875560" lon="-1.3368670">
        <ele>882.0</ele>
        <time>2020-07-25T12:18:16Z</time>
      </trkpt>
      <trkpt lat="42.9877140" lon="-1.3367850">
        <ele>882.4</ele>
        <time>2020-07-25T12:18:19Z</time>
      </trkpt>
      <trkpt lat="42.9879830" lon="-1.3366560">
        <ele>883.0</ele>
        <time>2020-07-25T12:18:24Z</time>
      </trkpt>
      <trkpt lat="42.9880920" lon="-1.3366080">
        <ele>883.6</ele>
        <time>2020-07-25T12:18:26Z</time>
      </trkpt>
      <trkpt lat="42.9884470" lon="-1.3364420">
        <ele>884.0</ele>
        <time>2020-07-25T12:18:33Z</time>
      </trkpt>
      <trkpt lat="42.9885400" lon="-1.3363900">
        <ele>884.2</ele>
        <time>2020-07-25T12:18:35Z</time>
      </trkpt>
      <trkpt lat="42.9887380" lon="-1.3362810">
        <ele>884.6</ele>
        <time>2020-07-25T12:18:39Z</time>
      </trkpt>
      <trkpt lat="42.9890220" lon="-1.3361000">
        <ele>885.0</ele>
        <time>2020-07-25T12:18:45Z</time>
      </trkpt>
      <trkpt lat="42.9891620" lon="-1.3360020">
        <ele>885.2</ele>
        <time>2020-07-25T12:18:48Z</time>
      </trkpt>
      <trkpt lat="42.9893160" lon="-1.3358860">
        <ele>886.4</ele>
        <time>2020-07-25T12:18:52Z</time>
      </trkpt>
      <trkpt lat="42.9893260" lon="-1.3358510">
        <ele>886.6</ele>
        <time>2020-07-25T12:18:53Z</time>
      </trkpt>
      <trkpt lat="42.9893160" lon="-1.3357870">
        <ele>886.8</ele>
        <time>2020-07-25T12:18:55Z</time>
      </trkpt>
      <trkpt lat="42.9892980" lon="-1.3357360">
        <ele>887.0</ele>
        <time>2020-07-25T12:18:57Z</time>
      </trkpt>
      <trkpt lat="42.9892660" lon="-1.3355890">
        <ele>888.2</ele>
        <time>2020-07-25T12:20:15Z</time>
      </trkpt>
      <trkpt lat="42.9892630" lon="-1.3355910">
        <ele>888.2</ele>
        <time>2020-07-25T12:20:16Z</time>
      </trkpt>
      <trkpt lat="42.9892630" lon="-1.3356170">
        <ele>888.2</ele>
        <time>2020-07-25T12:20:18Z</time>
      </trkpt>
      <trkpt lat="42.9892760" lon="-1.3356750">
        <ele>888.0</ele>
        <time>2020-07-25T12:20:21Z</time>
      </trkpt>
      <trkpt lat="42.9893680" lon="-1.3357830">
        <ele>888.0</ele>
        <time>2020-07-25T12:20:26Z</time>
      </trkpt>
      <trkpt lat="42.9895040" lon="-1.3356800">
        <ele>888.0</ele>
        <time>2020-07-25T12:20:31Z</time>
      </trkpt>
      <trkpt lat="42.9895350" lon="-1.3356560">
        <ele>888.0</ele>
        <time>2020-07-25T12:20:32Z</time>
      </trkpt>
      <trkpt lat="42.9897140" lon="-1.3355410">
        <ele>888.6</ele>
        <time>2020-07-25T12:20:37Z</time>
      </trkpt>
      <trkpt lat="42.9897520" lon="-1.3355130">
        <ele>888.6</ele>
        <time>2020-07-25T12:20:38Z</time>
      </trkpt>
      <trkpt lat="42.9899100" lon="-1.3353980">
        <ele>889.0</ele>
        <time>2020-07-25T12:20:42Z</time>
      </trkpt>
      <trkpt lat="42.9901070" lon="-1.3352400">
        <ele>889.2</ele>
        <time>2020-07-25T12:20:47Z</time>
      </trkpt>
      <trkpt lat="42.9903890" lon="-1.3349980">
        <ele>890.0</ele>
        <time>2020-07-25T12:20:54Z</time>
      </trkpt>
      <trkpt lat="42.9905830" lon="-1.3348530">
        <ele>890.2</ele>
        <time>2020-07-25T12:20:58Z</time>
      </trkpt>
      <trkpt lat="42.9906260" lon="-1.3348100">
        <ele>890.2</ele>
        <time>2020-07-25T12:20:59Z</time>
      </trkpt>
      <trkpt lat="42.9906690" lon="-1.3347580">
        <ele>890.2</ele>
        <time>2020-07-25T12:21:00Z</time>
      </trkpt>
      <trkpt lat="42.9909550" lon="-1.3342790">
        <ele>890.2</ele>
        <time>2020-07-25T12:21:07Z</time>
      </trkpt>
      <trkpt lat="42.9911970" lon="-1.3337520">
        <ele>889.2</ele>
        <time>2020-07-25T12:21:14Z</time>
      </trkpt>
      <trkpt lat="42.9912690" lon="-1.3335960">
        <ele>889.0</ele>
        <time>2020-07-25T12:21:16Z</time>
      </trkpt>
      <trkpt lat="42.9915630" lon="-1.3329480">
        <ele>888.6</ele>
        <time>2020-07-25T12:21:24Z</time>
      </trkpt>
      <trkpt lat="42.9916350" lon="-1.3327830">
        <ele>888.2</ele>
        <time>2020-07-25T12:21:26Z</time>
      </trkpt>
      <trkpt lat="42.9916720" lon="-1.3327020">
        <ele>888.2</ele>
        <time>2020-07-25T12:21:27Z</time>
      </trkpt>
      <trkpt lat="42.9919530" lon="-1.3320560">
        <ele>888.0</ele>
        <time>2020-07-25T12:21:35Z</time>
      </trkpt>
      <trkpt lat="42.9920210" lon="-1.3318980">
        <ele>888.0</ele>
        <time>2020-07-25T12:21:37Z</time>
      </trkpt>
      <trkpt lat="42.9922430" lon="-1.3314040">
        <ele>888.0</ele>
        <time>2020-07-25T12:21:44Z</time>
      </trkpt>
      <trkpt lat="42.9924320" lon="-1.3310630">
        <ele>889.2</ele>
        <time>2020-07-25T12:21:50Z</time>
      </trkpt>
      <trkpt lat="42.9924670" lon="-1.3310160">
        <ele>889.6</ele>
        <time>2020-07-25T12:21:51Z</time>
      </trkpt>
      <trkpt lat="42.9925420" lon="-1.3309300">
        <ele>890.2</ele>
        <time>2020-07-25T12:21:53Z</time>
      </trkpt>
      <trkpt lat="42.9926950" lon="-1.3307740">
        <ele>891.4</ele>
        <time>2020-07-25T12:21:57Z</time>
      </trkpt>
      <trkpt lat="42.9927710" lon="-1.3306950">
        <ele>891.8</ele>
        <time>2020-07-25T12:21:59Z</time>
      </trkpt>
      <trkpt lat="42.9928900" lon="-1.3305770">
        <ele>892.4</ele>
        <time>2020-07-25T12:22:02Z</time>
      </trkpt>
      <trkpt lat="42.9931150" lon="-1.3303610">
        <ele>893.6</ele>
        <time>2020-07-25T12:22:08Z</time>
      </trkpt>
      <trkpt lat="42.9933870" lon="-1.3300930">
        <ele>894.6</ele>
        <time>2020-07-25T12:22:16Z</time>
      </trkpt>
      <trkpt lat="42.9934560" lon="-1.3300250">
        <ele>895.0</ele>
        <time>2020-07-25T12:22:18Z</time>
      </trkpt>
      <trkpt lat="42.9935980" lon="-1.3298880">
        <ele>895.8</ele>
        <time>2020-07-25T12:22:22Z</time>
      </trkpt>
      <trkpt lat="42.9937820" lon="-1.3297100">
        <ele>896.8</ele>
        <time>2020-07-25T12:22:27Z</time>
      </trkpt>
      <trkpt lat="42.9938210" lon="-1.3296740">
        <ele>897.0</ele>
        <time>2020-07-25T12:22:28Z</time>
      </trkpt>
      <trkpt lat="42.9942390" lon="-1.3292710">
        <ele>897.8</ele>
        <time>2020-07-25T12:22:39Z</time>
      </trkpt>
      <trkpt lat="42.9942780" lon="-1.3292330">
        <ele>898.0</ele>
        <time>2020-07-25T12:22:40Z</time>
      </trkpt>
      <trkpt lat="42.9945860" lon="-1.3289310">
        <ele>898.4</ele>
        <time>2020-07-25T12:22:48Z</time>
      </trkpt>
      <trkpt lat="42.9948210" lon="-1.3287060">
        <ele>899.0</ele>
        <time>2020-07-25T12:22:54Z</time>
      </trkpt>
      <trkpt lat="42.9950190" lon="-1.3285150">
        <ele>899.2</ele>
        <time>2020-07-25T12:22:59Z</time>
      </trkpt>
      <trkpt lat="42.9953700" lon="-1.3281670">
        <ele>900.0</ele>
        <time>2020-07-25T12:23:08Z</time>
      </trkpt>
      <trkpt lat="42.9954080" lon="-1.3281290">
        <ele>900.2</ele>
        <time>2020-07-25T12:23:09Z</time>
      </trkpt>
      <trkpt lat="42.9956770" lon="-1.3278730">
        <ele>901.0</ele>
        <time>2020-07-25T12:23:16Z</time>
      </trkpt>
      <trkpt lat="42.9957590" lon="-1.3278050">
        <ele>901.0</ele>
        <time>2020-07-25T12:23:18Z</time>
      </trkpt>
      <trkpt lat="42.9961050" lon="-1.3274620">
        <ele>902.0</ele>
        <time>2020-07-25T12:23:27Z</time>
      </trkpt>
      <trkpt lat="42.9964200" lon="-1.3271530">
        <ele>902.8</ele>
        <time>2020-07-25T12:23:35Z</time>
      </trkpt>
      <trkpt lat="42.9965390" lon="-1.3270300">
        <ele>903.0</ele>
        <time>2020-07-25T12:23:38Z</time>
      </trkpt>
      <trkpt lat="42.9967400" lon="-1.3268290">
        <ele>903.8</ele>
        <time>2020-07-25T12:23:43Z</time>
      </trkpt>
      <trkpt lat="42.9968210" lon="-1.3267490">
        <ele>904.0</ele>
        <time>2020-07-25T12:23:45Z</time>
      </trkpt>
      <trkpt lat="42.9970100" lon="-1.3265460">
        <ele>904.6</ele>
        <time>2020-07-25T12:23:50Z</time>
      </trkpt>
      <trkpt lat="42.9970480" lon="-1.3265080">
        <ele>904.6</ele>
        <time>2020-07-25T12:23:51Z</time>
      </trkpt>
      <trkpt lat="42.9972420" lon="-1.3263250">
        <ele>905.0</ele>
        <time>2020-07-25T12:23:56Z</time>
      </trkpt>
      <trkpt lat="42.9973520" lon="-1.3262140">
        <ele>905.2</ele>
        <time>2020-07-25T12:23:59Z</time>
      </trkpt>
      <trkpt lat="42.9975080" lon="-1.3260670">
        <ele>905.6</ele>
        <time>2020-07-25T12:24:03Z</time>
      </trkpt>
      <trkpt lat="42.9975890" lon="-1.3259940">
        <ele>906.0</ele>
        <time>2020-07-25T12:24:05Z</time>
      </trkpt>
      <trkpt lat="42.9976310" lon="-1.3259510">
        <ele>906.0</ele>
        <time>2020-07-25T12:24:06Z</time>
      </trkpt>
      <trkpt lat="42.9980080" lon="-1.3255810">
        <ele>906.8</ele>
        <time>2020-07-25T12:24:16Z</time>
      </trkpt>
      <trkpt lat="42.9981490" lon="-1.3254370">
        <ele>907.0</ele>
        <time>2020-07-25T12:24:20Z</time>
      </trkpt>
      <trkpt lat="42.9982580" lon="-1.3253310">
        <ele>907.4</ele>
        <time>2020-07-25T12:24:23Z</time>
      </trkpt>
      <trkpt lat="42.9983710" lon="-1.3252220">
        <ele>908.0</ele>
        <time>2020-07-25T12:24:26Z</time>
      </trkpt>
      <trkpt lat="42.9985170" lon="-1.3250690">
        <ele>908.4</ele>
        <time>2020-07-25T12:24:30Z</time>
      </trkpt>
      <trkpt lat="42.9987830" lon="-1.3248210">
        <ele>908.8</ele>
        <time>2020-07-25T12:24:37Z</time>
      </trkpt>
      <trkpt lat="42.9988240" lon="-1.3247880">
        <ele>909.0</ele>
        <time>2020-07-25T12:24:38Z</time>
      </trkpt>
      <trkpt lat="42.9989730" lon="-1.3246500">
        <ele>909.4</ele>
        <time>2020-07-25T12:24:42Z</time>
      </trkpt>
      <trkpt lat="42.9991590" lon="-1.3244760">
        <ele>910.0</ele>
        <time>2020-07-25T12:24:47Z</time>
      </trkpt>
      <trkpt lat="42.9991930" lon="-1.3244380">
        <ele>910.0</ele>
        <time>2020-07-25T12:24:48Z</time>
      </trkpt>
      <trkpt lat="42.9993030" lon="-1.3243280">
        <ele>910.2</ele>
        <time>2020-07-25T12:24:51Z</time>
      </trkpt>
      <trkpt lat="42.9993390" lon="-1.3242910">
        <ele>910.2</ele>
        <time>2020-07-25T12:24:52Z</time>
      </trkpt>
      <trkpt lat="42.9994070" lon="-1.3242170">
        <ele>910.6</ele>
        <time>2020-07-25T12:24:54Z</time>
      </trkpt>
      <trkpt lat="42.9995590" lon="-1.3240730">
        <ele>910.8</ele>
        <time>2020-07-25T12:24:58Z</time>
      </trkpt>
      <trkpt lat="42.9996280" lon="-1.3240000">
        <ele>911.0</ele>
        <time>2020-07-25T12:25:00Z</time>
      </trkpt>
      <trkpt lat="42.9998760" lon="-1.3237400">
        <ele>911.8</ele>
        <time>2020-07-25T12:25:07Z</time>
      </trkpt>
      <trkpt lat="43.0000260" lon="-1.3235880">
        <ele>912.2</ele>
        <time>2020-07-25T12:25:11Z</time>
      </trkpt>
      <trkpt lat="43.0002120" lon="-1.3234040">
        <ele>912.8</ele>
        <time>2020-07-25T12:25:16Z</time>
      </trkpt>
      <trkpt lat="43.0004530" lon="-1.3231790">
        <ele>913.4</ele>
        <time>2020-07-25T12:25:22Z</time>
      </trkpt>
      <trkpt lat="43.0006550" lon="-1.3229910">
        <ele>914.2</ele>
        <time>2020-07-25T12:25:27Z</time>
      </trkpt>
      <trkpt lat="43.0007350" lon="-1.3229140">
        <ele>914.2</ele>
        <time>2020-07-25T12:25:29Z</time>
      </trkpt>
      <trkpt lat="43.0010100" lon="-1.3226450">
        <ele>914.8</ele>
        <time>2020-07-25T12:25:36Z</time>
      </trkpt>
      <trkpt lat="43.0012190" lon="-1.3224420">
        <ele>915.6</ele>
        <time>2020-07-25T12:25:41Z</time>
      </trkpt>
      <trkpt lat="43.0013400" lon="-1.3223230">
        <ele>916.2</ele>
        <time>2020-07-25T12:25:44Z</time>
      </trkpt>
      <trkpt lat="43.0014560" lon="-1.3222020">
        <ele>916.4</ele>
        <time>2020-07-25T12:25:47Z</time>
      </trkpt>
      <trkpt lat="43.0016590" lon="-1.3220100">
        <ele>916.8</ele>
        <time>2020-07-25T12:25:52Z</time>
      </trkpt>
      <trkpt lat="43.0017780" lon="-1.3218940">
        <ele>917.0</ele>
        <time>2020-07-25T12:25:55Z</time>
      </trkpt>
      <trkpt lat="43.0019830" lon="-1.3216950">
        <ele>917.6</ele>
        <time>2020-07-25T12:26:00Z</time>
      </trkpt>
      <trkpt lat="43.0020230" lon="-1.3216510">
        <ele>917.8</ele>
        <time>2020-07-25T12:26:01Z</time>
      </trkpt>
      <trkpt lat="43.0021500" lon="-1.3215240">
        <ele>918.6</ele>
        <time>2020-07-25T12:26:04Z</time>
      </trkpt>
      <trkpt lat="43.0023230" lon="-1.3213700">
        <ele>919.2</ele>
        <time>2020-07-25T12:26:08Z</time>
      </trkpt>
      <trkpt lat="43.0025710" lon="-1.3211340">
        <ele>919.6</ele>
        <time>2020-07-25T12:26:14Z</time>
      </trkpt>
      <trkpt lat="43.0026130" lon="-1.3210960">
        <ele>919.8</ele>
        <time>2020-07-25T12:26:15Z</time>
      </trkpt>
      <trkpt lat="43.0027750" lon="-1.3209430">
        <ele>920.2</ele>
        <time>2020-07-25T12:26:19Z</time>
      </trkpt>
      <trkpt lat="43.0028580" lon="-1.3208690">
        <ele>920.6</ele>
        <time>2020-07-25T12:26:21Z</time>
      </trkpt>
      <trkpt lat="43.0028970" lon="-1.3208270">
        <ele>920.8</ele>
        <time>2020-07-25T12:26:22Z</time>
      </trkpt>
      <trkpt lat="43.0030500" lon="-1.3206690">
        <ele>921.0</ele>
        <time>2020-07-25T12:26:26Z</time>
      </trkpt>
      <trkpt lat="43.0030910" lon="-1.3206310">
        <ele>921.2</ele>
        <time>2020-07-25T12:26:27Z</time>
      </trkpt>
      <trkpt lat="43.0031760" lon="-1.3205680">
        <ele>921.4</ele>
        <time>2020-07-25T12:26:29Z</time>
      </trkpt>
      <trkpt lat="43.0032560" lon="-1.3204950">
        <ele>921.4</ele>
        <time>2020-07-25T12:26:31Z</time>
      </trkpt>
      <trkpt lat="43.0033770" lon="-1.3203870">
        <ele>921.6</ele>
        <time>2020-07-25T12:26:34Z</time>
      </trkpt>
      <trkpt lat="43.0034550" lon="-1.3203110">
        <ele>922.0</ele>
        <time>2020-07-25T12:26:36Z</time>
      </trkpt>
      <trkpt lat="43.0036100" lon="-1.3201840">
        <ele>922.8</ele>
        <time>2020-07-25T12:26:40Z</time>
      </trkpt>
      <trkpt lat="43.0036520" lon="-1.3201510">
        <ele>922.8</ele>
        <time>2020-07-25T12:26:41Z</time>
      </trkpt>
      <trkpt lat="43.0037750" lon="-1.3200590">
        <ele>923.4</ele>
        <time>2020-07-25T12:26:44Z</time>
      </trkpt>
      <trkpt lat="43.0038930" lon="-1.3199640">
        <ele>923.8</ele>
        <time>2020-07-25T12:26:47Z</time>
      </trkpt>
      <trkpt lat="43.0039340" lon="-1.3199300">
        <ele>923.8</ele>
        <time>2020-07-25T12:26:48Z</time>
      </trkpt>
      <trkpt lat="43.0042240" lon="-1.3196990">
        <ele>924.4</ele>
        <time>2020-07-25T12:26:55Z</time>
      </trkpt>
      <trkpt lat="43.0044900" lon="-1.3195250">
        <ele>924.8</ele>
        <time>2020-07-25T12:27:01Z</time>
      </trkpt>
      <trkpt lat="43.0045340" lon="-1.3195010">
        <ele>924.8</ele>
        <time>2020-07-25T12:27:02Z</time>
      </trkpt>
      <trkpt lat="43.0047660" lon="-1.3193850">
        <ele>925.6</ele>
        <time>2020-07-25T12:27:08Z</time>
      </trkpt>
      <trkpt lat="43.0048040" lon="-1.3193720">
        <ele>925.6</ele>
        <time>2020-07-25T12:27:09Z</time>
      </trkpt>
      <trkpt lat="43.0049210" lon="-1.3193320">
        <ele>925.8</ele>
        <time>2020-07-25T12:27:12Z</time>
      </trkpt>
      <trkpt lat="43.0049620" lon="-1.3193150">
        <ele>925.8</ele>
        <time>2020-07-25T12:27:13Z</time>
      </trkpt>
      <trkpt lat="43.0052230" lon="-1.3192490">
        <ele>926.6</ele>
        <time>2020-07-25T12:27:19Z</time>
      </trkpt>
      <trkpt lat="43.0054340" lon="-1.3192070">
        <ele>926.8</ele>
        <time>2020-07-25T12:27:24Z</time>
      </trkpt>
      <trkpt lat="43.0055680" lon="-1.3191810">
        <ele>927.2</ele>
        <time>2020-07-25T12:27:28Z</time>
      </trkpt>
      <trkpt lat="43.0056060" lon="-1.3191770">
        <ele>927.4</ele>
        <time>2020-07-25T12:27:29Z</time>
      </trkpt>
      <trkpt lat="43.0057310" lon="-1.3191710">
        <ele>928.0</ele>
        <time>2020-07-25T12:27:32Z</time>
      </trkpt>
      <trkpt lat="43.0057790" lon="-1.3191700">
        <ele>928.2</ele>
        <time>2020-07-25T12:27:33Z</time>
      </trkpt>
      <trkpt lat="43.0059910" lon="-1.3191900">
        <ele>928.4</ele>
        <time>2020-07-25T12:27:38Z</time>
      </trkpt>
      <trkpt lat="43.0061240" lon="-1.3192010">
        <ele>928.8</ele>
        <time>2020-07-25T12:27:41Z</time>
      </trkpt>
      <trkpt lat="43.0062260" lon="-1.3192120">
        <ele>929.2</ele>
        <time>2020-07-25T12:27:43Z</time>
      </trkpt>
      <trkpt lat="43.0063830" lon="-1.3192220">
        <ele>929.8</ele>
        <time>2020-07-25T12:27:46Z</time>
      </trkpt>
      <trkpt lat="43.0064410" lon="-1.3192210">
        <ele>930.0</ele>
        <time>2020-07-25T12:27:47Z</time>
      </trkpt>
      <trkpt lat="43.0064910" lon="-1.3192280">
        <ele>930.2</ele>
        <time>2020-07-25T12:27:48Z</time>
      </trkpt>
      <trkpt lat="43.0066010" lon="-1.3192460">
        <ele>930.4</ele>
        <time>2020-07-25T12:27:50Z</time>
      </trkpt>
      <trkpt lat="43.0067190" lon="-1.3192630">
        <ele>930.8</ele>
        <time>2020-07-25T12:27:52Z</time>
      </trkpt>
      <trkpt lat="43.0067780" lon="-1.3192710">
        <ele>931.0</ele>
        <time>2020-07-25T12:27:53Z</time>
      </trkpt>
      <trkpt lat="43.0072160" lon="-1.3193160">
        <ele>931.6</ele>
        <time>2020-07-25T12:28:00Z</time>
      </trkpt>
      <trkpt lat="43.0074930" lon="-1.3193650">
        <ele>932.0</ele>
        <time>2020-07-25T12:28:05Z</time>
      </trkpt>
      <trkpt lat="43.0076540" lon="-1.3193880">
        <ele>932.8</ele>
        <time>2020-07-25T12:28:08Z</time>
      </trkpt>
      <trkpt lat="43.0077060" lon="-1.3193980">
        <ele>933.2</ele>
        <time>2020-07-25T12:28:09Z</time>
      </trkpt>
      <trkpt lat="43.0079530" lon="-1.3194450">
        <ele>934.2</ele>
        <time>2020-07-25T12:28:14Z</time>
      </trkpt>
      <trkpt lat="43.0080800" lon="-1.3194830">
        <ele>934.8</ele>
        <time>2020-07-25T12:28:17Z</time>
      </trkpt>
      <trkpt lat="43.0081910" lon="-1.3194940">
        <ele>935.2</ele>
        <time>2020-07-25T12:28:21Z</time>
      </trkpt>
      <trkpt lat="43.0085820" lon="-1.3197590">
        <ele>939.2</ele>
        <time>2020-07-25T13:02:25Z</time>
      </trkpt>
      <trkpt lat="43.0087000" lon="-1.3198500">
        <ele>939.4</ele>
        <time>2020-07-25T13:02:30Z</time>
      </trkpt>
      <trkpt lat="43.0089010" lon="-1.3200280">
        <ele>940.0</ele>
        <time>2020-07-25T13:02:39Z</time>
      </trkpt>
      <trkpt lat="43.0089220" lon="-1.3200520">
        <ele>940.4</ele>
        <time>2020-07-25T13:02:40Z</time>
      </trkpt>
      <trkpt lat="43.0090020" lon="-1.3201590">
        <ele>941.6</ele>
        <time>2020-07-25T13:02:44Z</time>
      </trkpt>
      <trkpt lat="43.0091030" lon="-1.3202900">
        <ele>942.2</ele>
        <time>2020-07-25T13:02:49Z</time>
      </trkpt>
      <trkpt lat="43.0091410" lon="-1.3203470">
        <ele>942.8</ele>
        <time>2020-07-25T13:02:51Z</time>
      </trkpt>
      <trkpt lat="43.0092110" lon="-1.3204590">
        <ele>944.2</ele>
        <time>2020-07-25T13:02:55Z</time>
      </trkpt>
      <trkpt lat="43.0092240" lon="-1.3204940">
        <ele>944.4</ele>
        <time>2020-07-25T13:02:56Z</time>
      </trkpt>
      <trkpt lat="43.0092780" lon="-1.3207100">
        <ele>945.2</ele>
        <time>2020-07-25T13:03:02Z</time>
      </trkpt>
      <trkpt lat="43.0092880" lon="-1.3208220">
        <ele>946.2</ele>
        <time>2020-07-25T13:03:05Z</time>
      </trkpt>
      <trkpt lat="43.0092850" lon="-1.3210020">
        <ele>947.2</ele>
        <time>2020-07-25T13:03:10Z</time>
      </trkpt>
      <trkpt lat="43.0092720" lon="-1.3212040">
        <ele>948.2</ele>
        <time>2020-07-25T13:03:15Z</time>
      </trkpt>
      <trkpt lat="43.0092700" lon="-1.3212470">
        <ele>948.4</ele>
        <time>2020-07-25T13:03:16Z</time>
      </trkpt>
      <trkpt lat="43.0092970" lon="-1.3214990">
        <ele>949.4</ele>
        <time>2020-07-25T13:03:22Z</time>
      </trkpt>
      <trkpt lat="43.0093050" lon="-1.3215390">
        <ele>949.6</ele>
        <time>2020-07-25T13:03:23Z</time>
      </trkpt>
      <trkpt lat="43.0093810" lon="-1.3217610">
        <ele>950.4</ele>
        <time>2020-07-25T13:03:29Z</time>
      </trkpt>
      <trkpt lat="43.0093960" lon="-1.3217970">
        <ele>950.6</ele>
        <time>2020-07-25T13:03:30Z</time>
      </trkpt>
      <trkpt lat="43.0095420" lon="-1.3220900">
        <ele>951.8</ele>
        <time>2020-07-25T13:03:38Z</time>
      </trkpt>
      <trkpt lat="43.0095980" lon="-1.3221000">
        <ele>952.2</ele>
        <time>2020-07-25T13:03:40Z</time>
      </trkpt>
      <trkpt lat="43.0096210" lon="-1.3220820">
        <ele>952.4</ele>
        <time>2020-07-25T13:03:41Z</time>
      </trkpt>
      <trkpt lat="43.0096330" lon="-1.3220160">
        <ele>952.8</ele>
        <time>2020-07-25T13:03:43Z</time>
      </trkpt>
      <trkpt lat="43.0096270" lon="-1.3219750">
        <ele>953.0</ele>
        <time>2020-07-25T13:03:44Z</time>
      </trkpt>
      <trkpt lat="43.0095990" lon="-1.3218930">
        <ele>953.2</ele>
        <time>2020-07-25T13:03:46Z</time>
      </trkpt>
      <trkpt lat="43.0095560" lon="-1.3217570">
        <ele>954.0</ele>
        <time>2020-07-25T13:03:49Z</time>
      </trkpt>
      <trkpt lat="43.0095460" lon="-1.3217100">
        <ele>954.2</ele>
        <time>2020-07-25T13:03:50Z</time>
      </trkpt>
      <trkpt lat="43.0095580" lon="-1.3214120">
        <ele>955.0</ele>
        <time>2020-07-25T13:03:56Z</time>
      </trkpt>
      <trkpt lat="43.0096570" lon="-1.3212000">
        <ele>955.4</ele>
        <time>2020-07-25T13:04:01Z</time>
      </trkpt>
      <trkpt lat="43.0098130" lon="-1.3210790">
        <ele>956.0</ele>
        <time>2020-07-25T13:04:06Z</time>
      </trkpt>
      <trkpt lat="43.0098830" lon="-1.3210300">
        <ele>956.2</ele>
        <time>2020-07-25T13:04:08Z</time>
      </trkpt>
      <trkpt lat="43.0101020" lon="-1.3207920">
        <ele>956.6</ele>
        <time>2020-07-25T13:04:15Z</time>
      </trkpt>
      <trkpt lat="43.0101500" lon="-1.3206980">
        <ele>956.8</ele>
        <time>2020-07-25T13:04:17Z</time>
      </trkpt>
      <trkpt lat="43.0101690" lon="-1.3206460">
        <ele>956.8</ele>
        <time>2020-07-25T13:04:18Z</time>
      </trkpt>
      <trkpt lat="43.0102140" lon="-1.3204930">
        <ele>957.2</ele>
        <time>2020-07-25T13:04:21Z</time>
      </trkpt>
      <trkpt lat="43.0102830" lon="-1.3202610">
        <ele>958.0</ele>
        <time>2020-07-25T13:04:26Z</time>
      </trkpt>
      <trkpt lat="43.0103200" lon="-1.3201780">
        <ele>958.0</ele>
        <time>2020-07-25T13:04:28Z</time>
      </trkpt>
      <trkpt lat="43.0104770" lon="-1.3199820">
        <ele>958.8</ele>
        <time>2020-07-25T13:04:34Z</time>
      </trkpt>
      <trkpt lat="43.0105000" lon="-1.3199550">
        <ele>959.0</ele>
        <time>2020-07-25T13:04:35Z</time>
      </trkpt>
      <trkpt lat="43.0106030" lon="-1.3198730">
        <ele>959.4</ele>
        <time>2020-07-25T13:04:39Z</time>
      </trkpt>
      <trkpt lat="43.0106600" lon="-1.3198390">
        <ele>959.8</ele>
        <time>2020-07-25T13:04:41Z</time>
      </trkpt>
      <trkpt lat="43.0107150" lon="-1.3198060">
        <ele>960.0</ele>
        <time>2020-07-25T13:04:43Z</time>
      </trkpt>
      <trkpt lat="43.0107970" lon="-1.3197590">
        <ele>961.0</ele>
        <time>2020-07-25T13:04:46Z</time>
      </trkpt>
      <trkpt lat="43.0108740" lon="-1.3197230">
        <ele>961.8</ele>
        <time>2020-07-25T13:04:49Z</time>
      </trkpt>
      <trkpt lat="43.0109180" lon="-1.3197160">
        <ele>962.4</ele>
        <time>2020-07-25T13:04:51Z</time>
      </trkpt>
      <trkpt lat="43.0109760" lon="-1.3196970">
        <ele>962.8</ele>
        <time>2020-07-25T13:04:53Z</time>
      </trkpt>
      <trkpt lat="43.0110820" lon="-1.3196840">
        <ele>963.6</ele>
        <time>2020-07-25T13:04:57Z</time>
      </trkpt>
      <trkpt lat="43.0111060" lon="-1.3196860">
        <ele>963.6</ele>
        <time>2020-07-25T13:04:58Z</time>
      </trkpt>
      <trkpt lat="43.0112460" lon="-1.3196930">
        <ele>964.4</ele>
        <time>2020-07-25T13:05:04Z</time>
      </trkpt>
      <trkpt lat="43.0114080" lon="-1.3197140">
        <ele>965.4</ele>
        <time>2020-07-25T13:05:09Z</time>
      </trkpt>
      <trkpt lat="43.0114720" lon="-1.3197230">
        <ele>966.0</ele>
        <time>2020-07-25T13:05:11Z</time>
      </trkpt>
      <trkpt lat="43.0115390" lon="-1.3197300">
        <ele>966.4</ele>
        <time>2020-07-25T13:05:13Z</time>
      </trkpt>
      <trkpt lat="43.0115680" lon="-1.3197390">
        <ele>966.6</ele>
        <time>2020-07-25T13:05:14Z</time>
      </trkpt>
      <trkpt lat="43.0116560" lon="-1.3197590">
        <ele>967.2</ele>
        <time>2020-07-25T13:05:17Z</time>
      </trkpt>
      <trkpt lat="43.0117200" lon="-1.3197650">
        <ele>968.0</ele>
        <time>2020-07-25T13:05:19Z</time>
      </trkpt>
      <trkpt lat="43.0118780" lon="-1.3197640">
        <ele>969.2</ele>
        <time>2020-07-25T13:05:24Z</time>
      </trkpt>
      <trkpt lat="43.0119100" lon="-1.3197600">
        <ele>969.6</ele>
        <time>2020-07-25T13:05:25Z</time>
      </trkpt>
      <trkpt lat="43.0120340" lon="-1.3197240">
        <ele>970.4</ele>
        <time>2020-07-25T13:05:29Z</time>
      </trkpt>
      <trkpt lat="43.0121750" lon="-1.3196600">
        <ele>971.4</ele>
        <time>2020-07-25T13:05:34Z</time>
      </trkpt>
      <trkpt lat="43.0121990" lon="-1.3196440">
        <ele>971.4</ele>
        <time>2020-07-25T13:05:35Z</time>
      </trkpt>
      <trkpt lat="43.0123060" lon="-1.3195810">
        <ele>972.2</ele>
        <time>2020-07-25T13:05:40Z</time>
      </trkpt>
      <trkpt lat="43.0123550" lon="-1.3195670">
        <ele>972.4</ele>
        <time>2020-07-25T13:05:42Z</time>
      </trkpt>
      <trkpt lat="43.0124570" lon="-1.3195410">
        <ele>973.4</ele>
        <time>2020-07-25T13:05:46Z</time>
      </trkpt>
      <trkpt lat="43.0124820" lon="-1.3195320">
        <ele>974.0</ele>
        <time>2020-07-25T13:05:47Z</time>
      </trkpt>
      <trkpt lat="43.0125750" lon="-1.3194900">
        <ele>975.2</ele>
        <time>2020-07-25T13:05:51Z</time>
      </trkpt>
      <trkpt lat="43.0126340" lon="-1.3194810">
        <ele>975.6</ele>
        <time>2020-07-25T13:05:53Z</time>
      </trkpt>
      <trkpt lat="43.0127170" lon="-1.3194700">
        <ele>975.8</ele>
        <time>2020-07-25T13:05:56Z</time>
      </trkpt>
      <trkpt lat="43.0127790" lon="-1.3194530">
        <ele>976.2</ele>
        <time>2020-07-25T13:05:58Z</time>
      </trkpt>
      <trkpt lat="43.0128330" lon="-1.3194380">
        <ele>976.6</ele>
        <time>2020-07-25T13:06:00Z</time>
      </trkpt>
      <trkpt lat="43.0129710" lon="-1.3193910">
        <ele>977.2</ele>
        <time>2020-07-25T13:06:05Z</time>
      </trkpt>
      <trkpt lat="43.0130020" lon="-1.3193840">
        <ele>977.4</ele>
        <time>2020-07-25T13:06:06Z</time>
      </trkpt>
      <trkpt lat="43.0131460" lon="-1.3193590">
        <ele>978.4</ele>
        <time>2020-07-25T13:06:11Z</time>
      </trkpt>
      <trkpt lat="43.0132510" lon="-1.3193380">
        <ele>979.4</ele>
        <time>2020-07-25T13:06:15Z</time>
      </trkpt>
      <trkpt lat="43.0133010" lon="-1.3193300">
        <ele>979.6</ele>
        <time>2020-07-25T13:06:17Z</time>
      </trkpt>
      <trkpt lat="43.0134960" lon="-1.3192800">
        <ele>980.4</ele>
        <time>2020-07-25T13:06:24Z</time>
      </trkpt>
      <trkpt lat="43.0135240" lon="-1.3192750">
        <ele>980.8</ele>
        <time>2020-07-25T13:06:25Z</time>
      </trkpt>
      <trkpt lat="43.0136070" lon="-1.3192610">
        <ele>982.2</ele>
        <time>2020-07-25T13:06:28Z</time>
      </trkpt>
      <trkpt lat="43.0137170" lon="-1.3192490">
        <ele>982.8</ele>
        <time>2020-07-25T13:06:32Z</time>
      </trkpt>
      <trkpt lat="43.0137990" lon="-1.3192500">
        <ele>983.4</ele>
        <time>2020-07-25T13:06:35Z</time>
      </trkpt>
      <trkpt lat="43.0139300" lon="-1.3192450">
        <ele>984.4</ele>
        <time>2020-07-25T13:06:40Z</time>
      </trkpt>
      <trkpt lat="43.0139820" lon="-1.3192440">
        <ele>984.8</ele>
        <time>2020-07-25T13:06:42Z</time>
      </trkpt>
      <trkpt lat="43.0140350" lon="-1.3192410">
        <ele>985.2</ele>
        <time>2020-07-25T13:06:44Z</time>
      </trkpt>
      <trkpt lat="43.0141960" lon="-1.3192300">
        <ele>986.2</ele>
        <time>2020-07-25T13:06:50Z</time>
      </trkpt>
      <trkpt lat="43.0142230" lon="-1.3192340">
        <ele>986.2</ele>
        <time>2020-07-25T13:06:51Z</time>
      </trkpt>
      <trkpt lat="43.0143260" lon="-1.3192530">
        <ele>987.4</ele>
        <time>2020-07-25T13:06:55Z</time>
      </trkpt>
      <trkpt lat="43.0144040" lon="-1.3192780">
        <ele>988.0</ele>
        <time>2020-07-25T13:06:58Z</time>
      </trkpt>
      <trkpt lat="43.0144830" lon="-1.3193100">
        <ele>988.2</ele>
        <time>2020-07-25T13:07:01Z</time>
      </trkpt>
      <trkpt lat="43.0146370" lon="-1.3194090">
        <ele>989.4</ele>
        <time>2020-07-25T13:07:07Z</time>
      </trkpt>
      <trkpt lat="43.0146610" lon="-1.3194300">
        <ele>989.4</ele>
        <time>2020-07-25T13:07:08Z</time>
      </trkpt>
      <trkpt lat="43.0147310" lon="-1.3194920">
        <ele>990.6</ele>
        <time>2020-07-25T13:07:11Z</time>
      </trkpt>
      <trkpt lat="43.0148460" lon="-1.3195960">
        <ele>991.0</ele>
        <time>2020-07-25T13:07:16Z</time>
      </trkpt>
      <trkpt lat="43.0149080" lon="-1.3196630">
        <ele>992.0</ele>
        <time>2020-07-25T13:07:19Z</time>
      </trkpt>
      <trkpt lat="43.0149860" lon="-1.3197600">
        <ele>993.0</ele>
        <time>2020-07-25T13:07:23Z</time>
      </trkpt>
      <trkpt lat="43.0150250" lon="-1.3198070">
        <ele>993.2</ele>
        <time>2020-07-25T13:07:25Z</time>
      </trkpt>
      <trkpt lat="43.0151030" lon="-1.3199000">
        <ele>994.2</ele>
        <time>2020-07-25T13:07:29Z</time>
      </trkpt>
      <trkpt lat="43.0151980" lon="-1.3200170">
        <ele>995.2</ele>
        <time>2020-07-25T13:07:34Z</time>
      </trkpt>
      <trkpt lat="43.0152170" lon="-1.3200400">
        <ele>995.4</ele>
        <time>2020-07-25T13:07:35Z</time>
      </trkpt>
      <trkpt lat="43.0153110" lon="-1.3201610">
        <ele>996.4</ele>
        <time>2020-07-25T13:07:40Z</time>
      </trkpt>
      <trkpt lat="43.0154060" lon="-1.3202850">
        <ele>997.0</ele>
        <time>2020-07-25T13:07:45Z</time>
      </trkpt>
      <trkpt lat="43.0154230" lon="-1.3203110">
        <ele>997.4</ele>
        <time>2020-07-25T13:07:46Z</time>
      </trkpt>
      <trkpt lat="43.0154960" lon="-1.3204080">
        <ele>998.4</ele>
        <time>2020-07-25T13:07:50Z</time>
      </trkpt>
      <trkpt lat="43.0156130" lon="-1.3205480">
        <ele>999.2</ele>
        <time>2020-07-25T13:07:56Z</time>
      </trkpt>
      <trkpt lat="43.0156330" lon="-1.3205710">
        <ele>999.6</ele>
        <time>2020-07-25T13:07:57Z</time>
      </trkpt>
      <trkpt lat="43.0157100" lon="-1.3206660">
        <ele>1000.6</ele>
        <time>2020-07-25T13:08:01Z</time>
      </trkpt>
      <trkpt lat="43.0158080" lon="-1.3207880">
        <ele>1001.4</ele>
        <time>2020-07-25T13:08:06Z</time>
      </trkpt>
      <trkpt lat="43.0159040" lon="-1.3209090">
        <ele>1002.6</ele>
        <time>2020-07-25T13:08:11Z</time>
      </trkpt>
      <trkpt lat="43.0159810" lon="-1.3210100">
        <ele>1003.8</ele>
        <time>2020-07-25T13:08:15Z</time>
      </trkpt>
      <trkpt lat="43.0160380" lon="-1.3210920">
        <ele>1004.2</ele>
        <time>2020-07-25T13:08:18Z</time>
      </trkpt>
      <trkpt lat="43.0160910" lon="-1.3211750">
        <ele>1004.6</ele>
        <time>2020-07-25T13:08:21Z</time>
      </trkpt>
      <trkpt lat="43.0161590" lon="-1.3212900">
        <ele>1005.8</ele>
        <time>2020-07-25T13:08:25Z</time>
      </trkpt>
      <trkpt lat="43.0162370" lon="-1.3214340">
        <ele>1006.8</ele>
        <time>2020-07-25T13:08:30Z</time>
      </trkpt>
      <trkpt lat="43.0162500" lon="-1.3214660">
        <ele>1006.8</ele>
        <time>2020-07-25T13:08:31Z</time>
      </trkpt>
      <trkpt lat="43.0163300" lon="-1.3216090">
        <ele>1007.8</ele>
        <time>2020-07-25T13:08:36Z</time>
      </trkpt>
      <trkpt lat="43.0163630" lon="-1.3216750">
        <ele>1008.2</ele>
        <time>2020-07-25T13:08:38Z</time>
      </trkpt>
      <trkpt lat="43.0163800" lon="-1.3217150">
        <ele>1008.2</ele>
        <time>2020-07-25T13:08:39Z</time>
      </trkpt>
      <trkpt lat="43.0164210" lon="-1.3218290">
        <ele>1008.8</ele>
        <time>2020-07-25T13:08:42Z</time>
      </trkpt>
      <trkpt lat="43.0164330" lon="-1.3219000">
        <ele>1009.2</ele>
        <time>2020-07-25T13:08:44Z</time>
      </trkpt>
      <trkpt lat="43.0164660" lon="-1.3220240">
        <ele>1010.0</ele>
        <time>2020-07-25T13:08:48Z</time>
      </trkpt>
      <trkpt lat="43.0164820" lon="-1.3220880">
        <ele>1010.8</ele>
        <time>2020-07-25T13:08:50Z</time>
      </trkpt>
      <trkpt lat="43.0164910" lon="-1.3221210">
        <ele>1011.2</ele>
        <time>2020-07-25T13:08:51Z</time>
      </trkpt>
      <trkpt lat="43.0165300" lon="-1.3222480">
        <ele>1012.2</ele>
        <time>2020-07-25T13:08:55Z</time>
      </trkpt>
      <trkpt lat="43.0165530" lon="-1.3223560">
        <ele>1012.8</ele>
        <time>2020-07-25T13:08:58Z</time>
      </trkpt>
      <trkpt lat="43.0165910" lon="-1.3224550">
        <ele>1013.2</ele>
        <time>2020-07-25T13:09:01Z</time>
      </trkpt>
      <trkpt lat="43.0166520" lon="-1.3225800">
        <ele>1014.2</ele>
        <time>2020-07-25T13:09:05Z</time>
      </trkpt>
      <trkpt lat="43.0167050" lon="-1.3226650">
        <ele>1014.8</ele>
        <time>2020-07-25T13:09:08Z</time>
      </trkpt>
      <trkpt lat="43.0167430" lon="-1.3227170">
        <ele>1015.4</ele>
        <time>2020-07-25T13:09:10Z</time>
      </trkpt>
      <trkpt lat="43.0168640" lon="-1.3228690">
        <ele>1016.2</ele>
        <time>2020-07-25T13:09:16Z</time>
      </trkpt>
      <trkpt lat="43.0168880" lon="-1.3228890">
        <ele>1016.4</ele>
        <time>2020-07-25T13:09:17Z</time>
      </trkpt>
      <trkpt lat="43.0169810" lon="-1.3229700">
        <ele>1017.4</ele>
        <time>2020-07-25T13:09:21Z</time>
      </trkpt>
      <trkpt lat="43.0170320" lon="-1.3230000">
        <ele>1018.0</ele>
        <time>2020-07-25T13:09:23Z</time>
      </trkpt>
      <trkpt lat="43.0171050" lon="-1.3230510">
        <ele>1018.2</ele>
        <time>2020-07-25T13:09:26Z</time>
      </trkpt>
      <trkpt lat="43.0171790" lon="-1.3230970">
        <ele>1019.2</ele>
        <time>2020-07-25T13:09:29Z</time>
      </trkpt>
      <trkpt lat="43.0172050" lon="-1.3231110">
        <ele>1019.2</ele>
        <time>2020-07-25T13:09:30Z</time>
      </trkpt>
      <trkpt lat="43.0173490" lon="-1.3231980">
        <ele>1020.4</ele>
        <time>2020-07-25T13:09:36Z</time>
      </trkpt>
      <trkpt lat="43.0173750" lon="-1.3232090">
        <ele>1020.8</ele>
        <time>2020-07-25T13:09:37Z</time>
      </trkpt>
      <trkpt lat="43.0174520" lon="-1.3232370">
        <ele>1021.6</ele>
        <time>2020-07-25T13:09:40Z</time>
      </trkpt>
      <trkpt lat="43.0175250" lon="-1.3232640">
        <ele>1022.4</ele>
        <time>2020-07-25T13:09:43Z</time>
      </trkpt>
      <trkpt lat="43.0175690" lon="-1.3232760">
        <ele>1022.6</ele>
        <time>2020-07-25T13:09:45Z</time>
      </trkpt>
      <trkpt lat="43.0176810" lon="-1.3233160">
        <ele>1023.4</ele>
        <time>2020-07-25T13:09:50Z</time>
      </trkpt>
      <trkpt lat="43.0176960" lon="-1.3233230">
        <ele>1023.6</ele>
        <time>2020-07-25T13:09:51Z</time>
      </trkpt>
      <trkpt lat="43.0177640" lon="-1.3233460">
        <ele>1024.0</ele>
        <time>2020-07-25T13:09:54Z</time>
      </trkpt>
      <trkpt lat="43.0178510" lon="-1.3233820">
        <ele>1024.4</ele>
        <time>2020-07-25T13:09:57Z</time>
      </trkpt>
      <trkpt lat="43.0179400" lon="-1.3234040">
        <ele>1025.2</ele>
        <time>2020-07-25T13:10:00Z</time>
      </trkpt>
      <trkpt lat="43.0180360" lon="-1.3234240">
        <ele>1025.6</ele>
        <time>2020-07-25T13:10:03Z</time>
      </trkpt>
      <trkpt lat="43.0181890" lon="-1.3234560">
        <ele>1026.4</ele>
        <time>2020-07-25T13:10:08Z</time>
      </trkpt>
      <trkpt lat="43.0182190" lon="-1.3234580">
        <ele>1026.8</ele>
        <time>2020-07-25T13:10:09Z</time>
      </trkpt>
      <trkpt lat="43.0183890" lon="-1.3234900">
        <ele>1027.6</ele>
        <time>2020-07-25T13:10:15Z</time>
      </trkpt>
      <trkpt lat="43.0184090" lon="-1.3234950">
        <ele>1028.0</ele>
        <time>2020-07-25T13:10:16Z</time>
      </trkpt>
      <trkpt lat="43.0185160" lon="-1.3235140">
        <ele>1028.6</ele>
        <time>2020-07-25T13:10:20Z</time>
      </trkpt>
      <trkpt lat="43.0185710" lon="-1.3235200">
        <ele>1029.2</ele>
        <time>2020-07-25T13:10:22Z</time>
      </trkpt>
      <trkpt lat="43.0187390" lon="-1.3235460">
        <ele>1030.4</ele>
        <time>2020-07-25T13:10:28Z</time>
      </trkpt>
      <trkpt lat="43.0187680" lon="-1.3235490">
        <ele>1030.6</ele>
        <time>2020-07-25T13:10:29Z</time>
      </trkpt>
      <trkpt lat="43.0188860" lon="-1.3235650">
        <ele>1031.4</ele>
        <time>2020-07-25T13:10:33Z</time>
      </trkpt>
      <trkpt lat="43.0190050" lon="-1.3235900">
        <ele>1032.2</ele>
        <time>2020-07-25T13:10:37Z</time>
      </trkpt>
      <trkpt lat="43.0190970" lon="-1.3236180">
        <ele>1033.0</ele>
        <time>2020-07-25T13:10:40Z</time>
      </trkpt>
      <trkpt lat="43.0191580" lon="-1.3236340">
        <ele>1033.2</ele>
        <time>2020-07-25T13:10:42Z</time>
      </trkpt>
      <trkpt lat="43.0193240" lon="-1.3236960">
        <ele>1034.4</ele>
        <time>2020-07-25T13:10:48Z</time>
      </trkpt>
      <trkpt lat="43.0193780" lon="-1.3237280">
        <ele>1035.0</ele>
        <time>2020-07-25T13:10:50Z</time>
      </trkpt>
      <trkpt lat="43.0194570" lon="-1.3237790">
        <ele>1035.6</ele>
        <time>2020-07-25T13:10:53Z</time>
      </trkpt>
      <trkpt lat="43.0195620" lon="-1.3238410">
        <ele>1036.6</ele>
        <time>2020-07-25T13:10:57Z</time>
      </trkpt>
      <trkpt lat="43.0196350" lon="-1.3238990">
        <ele>1037.2</ele>
        <time>2020-07-25T13:11:00Z</time>
      </trkpt>
      <trkpt lat="43.0197260" lon="-1.3239810">
        <ele>1037.8</ele>
        <time>2020-07-25T13:11:04Z</time>
      </trkpt>
      <trkpt lat="43.0198620" lon="-1.3240980">
        <ele>1038.8</ele>
        <time>2020-07-25T13:11:10Z</time>
      </trkpt>
      <trkpt lat="43.0198830" lon="-1.3241150">
        <ele>1039.0</ele>
        <time>2020-07-25T13:11:11Z</time>
      </trkpt>
      <trkpt lat="43.0203400" lon="-1.3245320">
        <ele>1040.6</ele>
        <time>2020-07-25T13:15:46Z</time>
      </trkpt>
      <trkpt lat="43.0204260" lon="-1.3246050">
        <ele>1040.2</ele>
        <time>2020-07-25T13:15:48Z</time>
      </trkpt>
      <trkpt lat="43.0206240" lon="-1.3248100">
        <ele>1039.4</ele>
        <time>2020-07-25T13:15:52Z</time>
      </trkpt>
      <trkpt lat="43.0206800" lon="-1.3248720">
        <ele>1039.4</ele>
        <time>2020-07-25T13:15:53Z</time>
      </trkpt>
      <trkpt lat="43.0208640" lon="-1.3250840">
        <ele>1038.4</ele>
        <time>2020-07-25T13:15:56Z</time>
      </trkpt>
      <trkpt lat="43.0210000" lon="-1.3252510">
        <ele>1037.8</ele>
        <time>2020-07-25T13:15:58Z</time>
      </trkpt>
      <trkpt lat="43.0211510" lon="-1.3254290">
        <ele>1036.8</ele>
        <time>2020-07-25T13:16:00Z</time>
      </trkpt>
      <trkpt lat="43.0212300" lon="-1.3255240">
        <ele>1035.2</ele>
        <time>2020-07-25T13:16:01Z</time>
      </trkpt>
      <trkpt lat="43.0213950" lon="-1.3257270">
        <ele>1033.6</ele>
        <time>2020-07-25T13:16:03Z</time>
      </trkpt>
      <trkpt lat="43.0215690" lon="-1.3259380">
        <ele>1032.0</ele>
        <time>2020-07-25T13:16:05Z</time>
      </trkpt>
      <trkpt lat="43.0217530" lon="-1.3261520">
        <ele>1030.2</ele>
        <time>2020-07-25T13:16:07Z</time>
      </trkpt>
      <trkpt lat="43.0218470" lon="-1.3262610">
        <ele>1029.2</ele>
        <time>2020-07-25T13:16:08Z</time>
      </trkpt>
      <trkpt lat="43.0219420" lon="-1.3263730">
        <ele>1028.0</ele>
        <time>2020-07-25T13:16:09Z</time>
      </trkpt>
      <trkpt lat="43.0220370" lon="-1.3264880">
        <ele>1027.0</ele>
        <time>2020-07-25T13:16:10Z</time>
      </trkpt>
      <trkpt lat="43.0221350" lon="-1.3266030">
        <ele>1026.0</ele>
        <time>2020-07-25T13:16:11Z</time>
      </trkpt>
      <trkpt lat="43.0222340" lon="-1.3267190">
        <ele>1024.6</ele>
        <time>2020-07-25T13:16:12Z</time>
      </trkpt>
      <trkpt lat="43.0223350" lon="-1.3268350">
        <ele>1023.2</ele>
        <time>2020-07-25T13:16:13Z</time>
      </trkpt>
      <trkpt lat="43.0224340" lon="-1.3269500">
        <ele>1022.0</ele>
        <time>2020-07-25T13:16:14Z</time>
      </trkpt>
      <trkpt lat="43.0226200" lon="-1.3271710">
        <ele>1019.8</ele>
        <time>2020-07-25T13:16:16Z</time>
      </trkpt>
      <trkpt lat="43.0227030" lon="-1.3272840">
        <ele>1018.6</ele>
        <time>2020-07-25T13:16:17Z</time>
      </trkpt>
      <trkpt lat="43.0227820" lon="-1.3274010">
        <ele>1017.6</ele>
        <time>2020-07-25T13:16:18Z</time>
      </trkpt>
      <trkpt lat="43.0228550" lon="-1.3275260">
        <ele>1016.6</ele>
        <time>2020-07-25T13:16:19Z</time>
      </trkpt>
      <trkpt lat="43.0229160" lon="-1.3276580">
        <ele>1015.6</ele>
        <time>2020-07-25T13:16:20Z</time>
      </trkpt>
      <trkpt lat="43.0229640" lon="-1.3277970">
        <ele>1014.4</ele>
        <time>2020-07-25T13:16:21Z</time>
      </trkpt>
      <trkpt lat="43.0229950" lon="-1.3280950">
        <ele>1012.6</ele>
        <time>2020-07-25T13:16:23Z</time>
      </trkpt>
      <trkpt lat="43.0229480" lon="-1.3283940">
        <ele>1011.2</ele>
        <time>2020-07-25T13:16:25Z</time>
      </trkpt>
      <trkpt lat="43.0229130" lon="-1.3285420">
        <ele>1010.4</ele>
        <time>2020-07-25T13:16:26Z</time>
      </trkpt>
      <trkpt lat="43.0228840" lon="-1.3286920">
        <ele>1009.6</ele>
        <time>2020-07-25T13:16:27Z</time>
      </trkpt>
      <trkpt lat="43.0228480" lon="-1.3290030">
        <ele>1007.8</ele>
        <time>2020-07-25T13:16:29Z</time>
      </trkpt>
      <trkpt lat="43.0228430" lon="-1.3291650">
        <ele>1007.4</ele>
        <time>2020-07-25T13:16:30Z</time>
      </trkpt>
      <trkpt lat="43.0228450" lon="-1.3293280">
        <ele>1006.2</ele>
        <time>2020-07-25T13:16:31Z</time>
      </trkpt>
      <trkpt lat="43.0228670" lon="-1.3298060">
        <ele>1004.8</ele>
        <time>2020-07-25T13:16:34Z</time>
      </trkpt>
      <trkpt lat="43.0228760" lon="-1.3299500">
        <ele>1004.6</ele>
        <time>2020-07-25T13:16:35Z</time>
      </trkpt>
      <trkpt lat="43.0229120" lon="-1.3302050">
        <ele>1004.0</ele>
        <time>2020-07-25T13:16:37Z</time>
      </trkpt>
      <trkpt lat="43.0229610" lon="-1.3303160">
        <ele>1003.2</ele>
        <time>2020-07-25T13:16:38Z</time>
      </trkpt>
      <trkpt lat="43.0231150" lon="-1.3304530">
        <ele>1001.8</ele>
        <time>2020-07-25T13:16:40Z</time>
      </trkpt>
      <trkpt lat="43.0233970" lon="-1.3304830">
        <ele>1000.4</ele>
        <time>2020-07-25T13:16:43Z</time>
      </trkpt>
      <trkpt lat="43.0234880" lon="-1.3304740">
        <ele>1000.2</ele>
        <time>2020-07-25T13:16:44Z</time>
      </trkpt>
      <trkpt lat="43.0236890" lon="-1.3304490">
        <ele>999.2</ele>
        <time>2020-07-25T13:16:46Z</time>
      </trkpt>
      <trkpt lat="43.0239060" lon="-1.3303960">
        <ele>997.6</ele>
        <time>2020-07-25T13:16:48Z</time>
      </trkpt>
      <trkpt lat="43.0241140" lon="-1.3303220">
        <ele>996.0</ele>
        <time>2020-07-25T13:16:50Z</time>
      </trkpt>
      <trkpt lat="43.0242230" lon="-1.3303050">
        <ele>995.4</ele>
        <time>2020-07-25T13:16:51Z</time>
      </trkpt>
      <trkpt lat="43.0243350" lon="-1.3302990">
        <ele>994.6</ele>
        <time>2020-07-25T13:16:52Z</time>
      </trkpt>
      <trkpt lat="43.0244500" lon="-1.3303150">
        <ele>993.8</ele>
        <time>2020-07-25T13:16:53Z</time>
      </trkpt>
      <trkpt lat="43.0245650" lon="-1.3303600">
        <ele>993.0</ele>
        <time>2020-07-25T13:16:54Z</time>
      </trkpt>
      <trkpt lat="43.0247840" lon="-1.3305010">
        <ele>990.6</ele>
        <time>2020-07-25T13:16:56Z</time>
      </trkpt>
      <trkpt lat="43.0248850" lon="-1.3305860">
        <ele>990.0</ele>
        <time>2020-07-25T13:16:57Z</time>
      </trkpt>
      <trkpt lat="43.0249880" lon="-1.3306730">
        <ele>989.4</ele>
        <time>2020-07-25T13:16:58Z</time>
      </trkpt>
      <trkpt lat="43.0251970" lon="-1.3308620">
        <ele>987.4</ele>
        <time>2020-07-25T13:17:00Z</time>
      </trkpt>
      <trkpt lat="43.0252990" lon="-1.3309600">
        <ele>986.4</ele>
        <time>2020-07-25T13:17:01Z</time>
      </trkpt>
      <trkpt lat="43.0254030" lon="-1.3310640">
        <ele>985.6</ele>
        <time>2020-07-25T13:17:02Z</time>
      </trkpt>
      <trkpt lat="43.0256120" lon="-1.3312810">
        <ele>984.0</ele>
        <time>2020-07-25T13:17:04Z</time>
      </trkpt>
      <trkpt lat="43.0258140" lon="-1.3315160">
        <ele>982.2</ele>
        <time>2020-07-25T13:17:06Z</time>
      </trkpt>
      <trkpt lat="43.0260170" lon="-1.3317550">
        <ele>980.6</ele>
        <time>2020-07-25T13:17:08Z</time>
      </trkpt>
      <trkpt lat="43.0262180" lon="-1.3319940">
        <ele>978.8</ele>
        <time>2020-07-25T13:17:10Z</time>
      </trkpt>
      <trkpt lat="43.0263840" lon="-1.3322500">
        <ele>977.2</ele>
        <time>2020-07-25T13:17:12Z</time>
      </trkpt>
      <trkpt lat="43.0264670" lon="-1.3323810">
        <ele>976.2</ele>
        <time>2020-07-25T13:17:13Z</time>
      </trkpt>
      <trkpt lat="43.0265470" lon="-1.3325160">
        <ele>975.4</ele>
        <time>2020-07-25T13:17:14Z</time>
      </trkpt>
      <trkpt lat="43.0266210" lon="-1.3326570">
        <ele>974.4</ele>
        <time>2020-07-25T13:17:15Z</time>
      </trkpt>
      <trkpt lat="43.0266900" lon="-1.3328040">
        <ele>973.8</ele>
        <time>2020-07-25T13:17:16Z</time>
      </trkpt>
      <trkpt lat="43.0267480" lon="-1.3329520">
        <ele>973.0</ele>
        <time>2020-07-25T13:17:17Z</time>
      </trkpt>
      <trkpt lat="43.0268750" lon="-1.3332470">
        <ele>971.2</ele>
        <time>2020-07-25T13:17:19Z</time>
      </trkpt>
      <trkpt lat="43.0269520" lon="-1.3333750">
        <ele>970.4</ele>
        <time>2020-07-25T13:17:20Z</time>
      </trkpt>
      <trkpt lat="43.0270360" lon="-1.3334830">
        <ele>969.4</ele>
        <time>2020-07-25T13:17:21Z</time>
      </trkpt>
      <trkpt lat="43.0271020" lon="-1.3336040">
        <ele>968.4</ele>
        <time>2020-07-25T13:17:22Z</time>
      </trkpt>
      <trkpt lat="43.0271420" lon="-1.3337400">
        <ele>966.6</ele>
        <time>2020-07-25T13:17:23Z</time>
      </trkpt>
      <trkpt lat="43.0271470" lon="-1.3340510">
        <ele>965.6</ele>
        <time>2020-07-25T13:17:25Z</time>
      </trkpt>
      <trkpt lat="43.0269760" lon="-1.3344660">
        <ele>964.8</ele>
        <time>2020-07-25T13:17:28Z</time>
      </trkpt>
      <trkpt lat="43.0269140" lon="-1.3345920">
        <ele>964.6</ele>
        <time>2020-07-25T13:17:29Z</time>
      </trkpt>
      <trkpt lat="43.0268330" lon="-1.3348450">
        <ele>963.6</ele>
        <time>2020-07-25T13:17:31Z</time>
      </trkpt>
      <trkpt lat="43.0268590" lon="-1.3351190">
        <ele>962.0</ele>
        <time>2020-07-25T13:17:33Z</time>
      </trkpt>
      <trkpt lat="43.0270180" lon="-1.3353110">
        <ele>960.8</ele>
        <time>2020-07-25T13:17:35Z</time>
      </trkpt>
      <trkpt lat="43.0272210" lon="-1.3354080">
        <ele>960.2</ele>
        <time>2020-07-25T13:17:37Z</time>
      </trkpt>
      <trkpt lat="43.0273180" lon="-1.3354620">
        <ele>959.8</ele>
        <time>2020-07-25T13:17:38Z</time>
      </trkpt>
      <trkpt lat="43.0275650" lon="-1.3357100">
        <ele>958.2</ele>
        <time>2020-07-25T13:17:41Z</time>
      </trkpt>
      <trkpt lat="43.0277040" lon="-1.3359340">
        <ele>957.2</ele>
        <time>2020-07-25T13:17:43Z</time>
      </trkpt>
      <trkpt lat="43.0277730" lon="-1.3360600">
        <ele>956.8</ele>
        <time>2020-07-25T13:17:44Z</time>
      </trkpt>
      <trkpt lat="43.0278320" lon="-1.3361970">
        <ele>956.8</ele>
        <time>2020-07-25T13:17:45Z</time>
      </trkpt>
      <trkpt lat="43.0279200" lon="-1.3365000">
        <ele>955.8</ele>
        <time>2020-07-25T13:17:47Z</time>
      </trkpt>
      <trkpt lat="43.0279450" lon="-1.3366670">
        <ele>955.4</ele>
        <time>2020-07-25T13:17:48Z</time>
      </trkpt>
      <trkpt lat="43.0279790" lon="-1.3368310">
        <ele>955.0</ele>
        <time>2020-07-25T13:17:49Z</time>
      </trkpt>
      <trkpt lat="43.0280210" lon="-1.3369970">
        <ele>954.2</ele>
        <time>2020-07-25T13:17:50Z</time>
      </trkpt>
      <trkpt lat="43.0280710" lon="-1.3371600">
        <ele>952.8</ele>
        <time>2020-07-25T13:17:51Z</time>
      </trkpt>
      <trkpt lat="43.0281240" lon="-1.3373200">
        <ele>952.0</ele>
        <time>2020-07-25T13:17:52Z</time>
      </trkpt>
      <trkpt lat="43.0281820" lon="-1.3374760">
        <ele>951.0</ele>
        <time>2020-07-25T13:17:53Z</time>
      </trkpt>
      <trkpt lat="43.0282580" lon="-1.3376220">
        <ele>950.0</ele>
        <time>2020-07-25T13:17:54Z</time>
      </trkpt>
      <trkpt lat="43.0283560" lon="-1.3377490">
        <ele>949.0</ele>
        <time>2020-07-25T13:17:55Z</time>
      </trkpt>
      <trkpt lat="43.0284720" lon="-1.3378540">
        <ele>948.0</ele>
        <time>2020-07-25T13:17:56Z</time>
      </trkpt>
      <trkpt lat="43.0285950" lon="-1.3379290">
        <ele>946.8</ele>
        <time>2020-07-25T13:17:57Z</time>
      </trkpt>
      <trkpt lat="43.0287220" lon="-1.3379810">
        <ele>945.8</ele>
        <time>2020-07-25T13:17:58Z</time>
      </trkpt>
      <trkpt lat="43.0288510" lon="-1.3380090">
        <ele>945.0</ele>
        <time>2020-07-25T13:17:59Z</time>
      </trkpt>
      <trkpt lat="43.0289780" lon="-1.3380320">
        <ele>944.2</ele>
        <time>2020-07-25T13:18:00Z</time>
      </trkpt>
      <trkpt lat="43.0291010" lon="-1.3380530">
        <ele>943.2</ele>
        <time>2020-07-25T13:18:01Z</time>
      </trkpt>
      <trkpt lat="43.0292280" lon="-1.3380870">
        <ele>942.2</ele>
        <time>2020-07-25T13:18:02Z</time>
      </trkpt>
      <trkpt lat="43.0293490" lon="-1.3381400">
        <ele>941.0</ele>
        <time>2020-07-25T13:18:03Z</time>
      </trkpt>
      <trkpt lat="43.0294620" lon="-1.3382130">
        <ele>939.6</ele>
        <time>2020-07-25T13:18:04Z</time>
      </trkpt>
      <trkpt lat="43.0295620" lon="-1.3383130">
        <ele>938.4</ele>
        <time>2020-07-25T13:18:05Z</time>
      </trkpt>
      <trkpt lat="43.0296270" lon="-1.3384390">
        <ele>937.2</ele>
        <time>2020-07-25T13:18:06Z</time>
      </trkpt>
      <trkpt lat="43.0296610" lon="-1.3385890">
        <ele>936.4</ele>
        <time>2020-07-25T13:18:07Z</time>
      </trkpt>
      <trkpt lat="43.0296920" lon="-1.3387530">
        <ele>935.4</ele>
        <time>2020-07-25T13:18:08Z</time>
      </trkpt>
      <trkpt lat="43.0297090" lon="-1.3390970">
        <ele>934.4</ele>
        <time>2020-07-25T13:18:10Z</time>
      </trkpt>
      <trkpt lat="43.0297370" lon="-1.3394300">
        <ele>933.2</ele>
        <time>2020-07-25T13:18:12Z</time>
      </trkpt>
      <trkpt lat="43.0298170" lon="-1.3397480">
        <ele>932.0</ele>
        <time>2020-07-25T13:18:14Z</time>
      </trkpt>
      <trkpt lat="43.0299230" lon="-1.3400520">
        <ele>930.4</ele>
        <time>2020-07-25T13:18:16Z</time>
      </trkpt>
      <trkpt lat="43.0300060" lon="-1.3403550">
        <ele>927.6</ele>
        <time>2020-07-25T13:18:18Z</time>
      </trkpt>
      <trkpt lat="43.0300320" lon="-1.3406760">
        <ele>925.8</ele>
        <time>2020-07-25T13:18:20Z</time>
      </trkpt>
      <trkpt lat="43.0300260" lon="-1.3408300">
        <ele>925.0</ele>
        <time>2020-07-25T13:18:21Z</time>
      </trkpt>
      <trkpt lat="43.0300160" lon="-1.3409730">
        <ele>924.2</ele>
        <time>2020-07-25T13:18:22Z</time>
      </trkpt>
      <trkpt lat="43.0300070" lon="-1.3411680">
        <ele>923.2</ele>
        <time>2020-07-25T13:18:24Z</time>
      </trkpt>
      <trkpt lat="43.0300450" lon="-1.3412790">
        <ele>922.2</ele>
        <time>2020-07-25T13:18:26Z</time>
      </trkpt>
      <trkpt lat="43.0301030" lon="-1.3412800">
        <ele>922.0</ele>
        <time>2020-07-25T13:18:27Z</time>
      </trkpt>
      <trkpt lat="43.0301600" lon="-1.3412610">
        <ele>921.6</ele>
        <time>2020-07-25T13:18:28Z</time>
      </trkpt>
      <trkpt lat="43.0302230" lon="-1.3410960">
        <ele>921.2</ele>
        <time>2020-07-25T13:18:30Z</time>
      </trkpt>
      <trkpt lat="43.0302180" lon="-1.3408870">
        <ele>920.6</ele>
        <time>2020-07-25T13:18:32Z</time>
      </trkpt>
      <trkpt lat="43.0302110" lon="-1.3407760">
        <ele>920.4</ele>
        <time>2020-07-25T13:18:33Z</time>
      </trkpt>
      <trkpt lat="43.0301840" lon="-1.3404360">
        <ele>920.0</ele>
        <time>2020-07-25T13:18:36Z</time>
      </trkpt>
      <trkpt lat="43.0301600" lon="-1.3403160">
        <ele>919.6</ele>
        <time>2020-07-25T13:18:37Z</time>
      </trkpt>
      <trkpt lat="43.0300310" lon="-1.3399320">
        <ele>918.4</ele>
        <time>2020-07-25T13:18:40Z</time>
      </trkpt>
      <trkpt lat="43.0299950" lon="-1.3397930">
        <ele>917.8</ele>
        <time>2020-07-25T13:18:41Z</time>
      </trkpt>
      <trkpt lat="43.0299690" lon="-1.3396460">
        <ele>917.4</ele>
        <time>2020-07-25T13:18:42Z</time>
      </trkpt>
      <trkpt lat="43.0299600" lon="-1.3393430">
        <ele>916.4</ele>
        <time>2020-07-25T13:18:44Z</time>
      </trkpt>
      <trkpt lat="43.0299820" lon="-1.3391950">
        <ele>915.6</ele>
        <time>2020-07-25T13:18:45Z</time>
      </trkpt>
      <trkpt lat="43.0300500" lon="-1.3389090">
        <ele>914.6</ele>
        <time>2020-07-25T13:18:47Z</time>
      </trkpt>
      <trkpt lat="43.0300950" lon="-1.3386090">
        <ele>913.0</ele>
        <time>2020-07-25T13:18:49Z</time>
      </trkpt>
      <trkpt lat="43.0301060" lon="-1.3384570">
        <ele>912.2</ele>
        <time>2020-07-25T13:18:50Z</time>
      </trkpt>
      <trkpt lat="43.0301010" lon="-1.3383010">
        <ele>911.4</ele>
        <time>2020-07-25T13:18:51Z</time>
      </trkpt>
      <trkpt lat="43.0300460" lon="-1.3379850">
        <ele>910.0</ele>
        <time>2020-07-25T13:18:53Z</time>
      </trkpt>
      <trkpt lat="43.0299950" lon="-1.3378390">
        <ele>909.2</ele>
        <time>2020-07-25T13:18:54Z</time>
      </trkpt>
      <trkpt lat="43.0299260" lon="-1.3377080">
        <ele>908.2</ele>
        <time>2020-07-25T13:18:55Z</time>
      </trkpt>
      <trkpt lat="43.0297550" lon="-1.3374640">
        <ele>906.6</ele>
        <time>2020-07-25T13:18:57Z</time>
      </trkpt>
      <trkpt lat="43.0295420" lon="-1.3372860">
        <ele>904.8</ele>
        <time>2020-07-25T13:18:59Z</time>
      </trkpt>
      <trkpt lat="43.0294260" lon="-1.3372280">
        <ele>904.2</ele>
        <time>2020-07-25T13:19:00Z</time>
      </trkpt>
      <trkpt lat="43.0293070" lon="-1.3371830">
        <ele>903.4</ele>
        <time>2020-07-25T13:19:01Z</time>
      </trkpt>
      <trkpt lat="43.0290800" lon="-1.3370980">
        <ele>902.2</ele>
        <time>2020-07-25T13:19:03Z</time>
      </trkpt>
      <trkpt lat="43.0288880" lon="-1.3370120">
        <ele>900.8</ele>
        <time>2020-07-25T13:19:05Z</time>
      </trkpt>
      <trkpt lat="43.0288150" lon="-1.3369360">
        <ele>899.8</ele>
        <time>2020-07-25T13:19:06Z</time>
      </trkpt>
      <trkpt lat="43.0287750" lon="-1.3368150">
        <ele>899.0</ele>
        <time>2020-07-25T13:19:07Z</time>
      </trkpt>
      <trkpt lat="43.0287690" lon="-1.3366890">
        <ele>898.0</ele>
        <time>2020-07-25T13:19:08Z</time>
      </trkpt>
      <trkpt lat="43.0287930" lon="-1.3365590">
        <ele>897.2</ele>
        <time>2020-07-25T13:19:09Z</time>
      </trkpt>
      <trkpt lat="43.0288350" lon="-1.3364280">
        <ele>896.6</ele>
        <time>2020-07-25T13:19:10Z</time>
      </trkpt>
      <trkpt lat="43.0288990" lon="-1.3361730">
        <ele>895.8</ele>
        <time>2020-07-25T13:19:12Z</time>
      </trkpt>
      <trkpt lat="43.0288920" lon="-1.3360370">
        <ele>895.4</ele>
        <time>2020-07-25T13:19:13Z</time>
      </trkpt>
      <trkpt lat="43.0288020" lon="-1.3357750">
        <ele>894.0</ele>
        <time>2020-07-25T13:19:15Z</time>
      </trkpt>
      <trkpt lat="43.0286410" lon="-1.3355500">
        <ele>892.8</ele>
        <time>2020-07-25T13:19:17Z</time>
      </trkpt>
      <trkpt lat="43.0285480" lon="-1.3354570">
        <ele>892.0</ele>
        <time>2020-07-25T13:19:18Z</time>
      </trkpt>
      <trkpt lat="43.0284660" lon="-1.3353700">
        <ele>891.2</ele>
        <time>2020-07-25T13:19:19Z</time>
      </trkpt>
      <trkpt lat="43.0283640" lon="-1.3351710">
        <ele>889.6</ele>
        <time>2020-07-25T13:19:21Z</time>
      </trkpt>
      <trkpt lat="43.0283980" lon="-1.3349160">
        <ele>888.2</ele>
        <time>2020-07-25T13:19:23Z</time>
      </trkpt>
      <trkpt lat="43.0285570" lon="-1.3347810">
        <ele>886.6</ele>
        <time>2020-07-25T13:19:25Z</time>
      </trkpt>
      <trkpt lat="43.0286580" lon="-1.3347330">
        <ele>886.2</ele>
        <time>2020-07-25T13:19:26Z</time>
      </trkpt>
      <trkpt lat="43.0287540" lon="-1.3346670">
        <ele>886.0</ele>
        <time>2020-07-25T13:19:27Z</time>
      </trkpt>
      <trkpt lat="43.0288370" lon="-1.3345750">
        <ele>885.6</ele>
        <time>2020-07-25T13:19:28Z</time>
      </trkpt>
      <trkpt lat="43.0288990" lon="-1.3344700">
        <ele>885.4</ele>
        <time>2020-07-25T13:19:29Z</time>
      </trkpt>
      <trkpt lat="43.0289480" lon="-1.3343440">
        <ele>885.2</ele>
        <time>2020-07-25T13:19:30Z</time>
      </trkpt>
      <trkpt lat="43.0289480" lon="-1.3340760">
        <ele>883.6</ele>
        <time>2020-07-25T13:19:32Z</time>
      </trkpt>
      <trkpt lat="43.0289060" lon="-1.3339660">
        <ele>882.6</ele>
        <time>2020-07-25T13:19:33Z</time>
      </trkpt>
      <trkpt lat="43.0288590" lon="-1.3338730">
        <ele>881.6</ele>
        <time>2020-07-25T13:19:34Z</time>
      </trkpt>
      <trkpt lat="43.0288440" lon="-1.3336900">
        <ele>879.8</ele>
        <time>2020-07-25T13:19:36Z</time>
      </trkpt>
      <trkpt lat="43.0289660" lon="-1.3336110">
        <ele>878.4</ele>
        <time>2020-07-25T13:19:38Z</time>
      </trkpt>
      <trkpt lat="43.0290560" lon="-1.3336300">
        <ele>877.2</ele>
        <time>2020-07-25T13:19:39Z</time>
      </trkpt>
      <trkpt lat="43.0292430" lon="-1.3337100">
        <ele>876.6</ele>
        <time>2020-07-25T13:19:41Z</time>
      </trkpt>
      <trkpt lat="43.0293380" lon="-1.3337640">
        <ele>876.6</ele>
        <time>2020-07-25T13:19:42Z</time>
      </trkpt>
      <trkpt lat="43.0295250" lon="-1.3338770">
        <ele>876.0</ele>
        <time>2020-07-25T13:19:44Z</time>
      </trkpt>
      <trkpt lat="43.0295940" lon="-1.3339470">
        <ele>875.6</ele>
        <time>2020-07-25T13:19:45Z</time>
      </trkpt>
      <trkpt lat="43.0296410" lon="-1.3340420">
        <ele>875.0</ele>
        <time>2020-07-25T13:19:46Z</time>
      </trkpt>
      <trkpt lat="43.0296540" lon="-1.3341490">
        <ele>874.6</ele>
        <time>2020-07-25T13:19:47Z</time>
      </trkpt>
      <trkpt lat="43.0296280" lon="-1.3342600">
        <ele>873.8</ele>
        <time>2020-07-25T13:19:48Z</time>
      </trkpt>
      <trkpt lat="43.0295760" lon="-1.3343670">
        <ele>873.0</ele>
        <time>2020-07-25T13:19:49Z</time>
      </trkpt>
      <trkpt lat="43.0295150" lon="-1.3344570">
        <ele>872.2</ele>
        <time>2020-07-25T13:19:50Z</time>
      </trkpt>
      <trkpt lat="43.0293610" lon="-1.3345670">
        <ele>870.8</ele>
        <time>2020-07-25T13:19:52Z</time>
      </trkpt>
      <trkpt lat="43.0292380" lon="-1.3347540">
        <ele>869.6</ele>
        <time>2020-07-25T13:19:54Z</time>
      </trkpt>
      <trkpt lat="43.0292370" lon="-1.3350080">
        <ele>868.6</ele>
        <time>2020-07-25T13:19:56Z</time>
      </trkpt>
      <trkpt lat="43.0294120" lon="-1.3353470">
        <ele>866.8</ele>
        <time>2020-07-25T13:19:59Z</time>
      </trkpt>
      <trkpt lat="43.0294740" lon="-1.3354710">
        <ele>866.2</ele>
        <time>2020-07-25T13:20:00Z</time>
      </trkpt>
      <trkpt lat="43.0295220" lon="-1.3356120">
        <ele>865.4</ele>
        <time>2020-07-25T13:20:01Z</time>
      </trkpt>
      <trkpt lat="43.0295600" lon="-1.3357610">
        <ele>864.6</ele>
        <time>2020-07-25T13:20:02Z</time>
      </trkpt>
      <trkpt lat="43.0295990" lon="-1.3359110">
        <ele>863.6</ele>
        <time>2020-07-25T13:20:03Z</time>
      </trkpt>
      <trkpt lat="43.0296490" lon="-1.3360550">
        <ele>862.8</ele>
        <time>2020-07-25T13:20:04Z</time>
      </trkpt>
      <trkpt lat="43.0297230" lon="-1.3361790">
        <ele>862.0</ele>
        <time>2020-07-25T13:20:05Z</time>
      </trkpt>
      <trkpt lat="43.0298150" lon="-1.3362860">
        <ele>859.8</ele>
        <time>2020-07-25T13:20:06Z</time>
      </trkpt>
      <trkpt lat="43.0299190" lon="-1.3363680">
        <ele>858.8</ele>
        <time>2020-07-25T13:20:07Z</time>
      </trkpt>
      <trkpt lat="43.0300390" lon="-1.3364200">
        <ele>857.6</ele>
        <time>2020-07-25T13:20:08Z</time>
      </trkpt>
      <trkpt lat="43.0301540" lon="-1.3364700">
        <ele>856.8</ele>
        <time>2020-07-25T13:20:09Z</time>
      </trkpt>
      <trkpt lat="43.0302690" lon="-1.3365230">
        <ele>855.6</ele>
        <time>2020-07-25T13:20:10Z</time>
      </trkpt>
      <trkpt lat="43.0303810" lon="-1.3365800">
        <ele>854.6</ele>
        <time>2020-07-25T13:20:11Z</time>
      </trkpt>
      <trkpt lat="43.0304890" lon="-1.3366510">
        <ele>853.8</ele>
        <time>2020-07-25T13:20:12Z</time>
      </trkpt>
      <trkpt lat="43.0305880" lon="-1.3367400">
        <ele>852.8</ele>
        <time>2020-07-25T13:20:13Z</time>
      </trkpt>
      <trkpt lat="43.0306800" lon="-1.3368460">
        <ele>851.6</ele>
        <time>2020-07-25T13:20:14Z</time>
      </trkpt>
      <trkpt lat="43.0307660" lon="-1.3369670">
        <ele>850.4</ele>
        <time>2020-07-25T13:20:15Z</time>
      </trkpt>
      <trkpt lat="43.0308470" lon="-1.3370990">
        <ele>849.2</ele>
        <time>2020-07-25T13:20:16Z</time>
      </trkpt>
      <trkpt lat="43.0309280" lon="-1.3372370">
        <ele>848.4</ele>
        <time>2020-07-25T13:20:17Z</time>
      </trkpt>
      <trkpt lat="43.0310050" lon="-1.3373800">
        <ele>847.6</ele>
        <time>2020-07-25T13:20:18Z</time>
      </trkpt>
      <trkpt lat="43.0310760" lon="-1.3375250">
        <ele>846.8</ele>
        <time>2020-07-25T13:20:19Z</time>
      </trkpt>
      <trkpt lat="43.0311460" lon="-1.3376690">
        <ele>846.0</ele>
        <time>2020-07-25T13:20:20Z</time>
      </trkpt>
      <trkpt lat="43.0312030" lon="-1.3378250">
        <ele>845.2</ele>
        <time>2020-07-25T13:20:21Z</time>
      </trkpt>
      <trkpt lat="43.0312320" lon="-1.3380010">
        <ele>844.4</ele>
        <time>2020-07-25T13:20:22Z</time>
      </trkpt>
      <trkpt lat="43.0312270" lon="-1.3383690">
        <ele>842.8</ele>
        <time>2020-07-25T13:20:24Z</time>
      </trkpt>
      <trkpt lat="43.0312260" lon="-1.3385400">
        <ele>842.0</ele>
        <time>2020-07-25T13:20:25Z</time>
      </trkpt>
      <trkpt lat="43.0312280" lon="-1.3387040">
        <ele>841.2</ele>
        <time>2020-07-25T13:20:26Z</time>
      </trkpt>
      <trkpt lat="43.0312390" lon="-1.3388640">
        <ele>840.2</ele>
        <time>2020-07-25T13:20:27Z</time>
      </trkpt>
      <trkpt lat="43.0312600" lon="-1.3390200">
        <ele>839.4</ele>
        <time>2020-07-25T13:20:28Z</time>
      </trkpt>
      <trkpt lat="43.0313700" lon="-1.3393060">
        <ele>838.2</ele>
        <time>2020-07-25T13:20:30Z</time>
      </trkpt>
      <trkpt lat="43.0314470" lon="-1.3394250">
        <ele>837.2</ele>
        <time>2020-07-25T13:20:31Z</time>
      </trkpt>
      <trkpt lat="43.0315190" lon="-1.3395400">
        <ele>836.2</ele>
        <time>2020-07-25T13:20:32Z</time>
      </trkpt>
      <trkpt lat="43.0315650" lon="-1.3396680">
        <ele>834.8</ele>
        <time>2020-07-25T13:20:33Z</time>
      </trkpt>
      <trkpt lat="43.0315970" lon="-1.3399660">
        <ele>833.8</ele>
        <time>2020-07-25T13:20:35Z</time>
      </trkpt>
      <trkpt lat="43.0315560" lon="-1.3401450">
        <ele>833.2</ele>
        <time>2020-07-25T13:20:36Z</time>
      </trkpt>
      <trkpt lat="43.0315030" lon="-1.3403110">
        <ele>832.2</ele>
        <time>2020-07-25T13:20:37Z</time>
      </trkpt>
      <trkpt lat="43.0314450" lon="-1.3404600">
        <ele>831.4</ele>
        <time>2020-07-25T13:20:38Z</time>
      </trkpt>
      <trkpt lat="43.0313900" lon="-1.3405950">
        <ele>830.8</ele>
        <time>2020-07-25T13:20:39Z</time>
      </trkpt>
      <trkpt lat="43.0313500" lon="-1.3407340">
        <ele>830.2</ele>
        <time>2020-07-25T13:20:40Z</time>
      </trkpt>
      <trkpt lat="43.0313420" lon="-1.3410340">
        <ele>828.8</ele>
        <time>2020-07-25T13:20:42Z</time>
      </trkpt>
      <trkpt lat="43.0314430" lon="-1.3413150">
        <ele>827.0</ele>
        <time>2020-07-25T13:20:44Z</time>
      </trkpt>
      <trkpt lat="43.0314950" lon="-1.3414660">
        <ele>826.0</ele>
        <time>2020-07-25T13:20:45Z</time>
      </trkpt>
      <trkpt lat="43.0315290" lon="-1.3416150">
        <ele>825.2</ele>
        <time>2020-07-25T13:20:46Z</time>
      </trkpt>
      <trkpt lat="43.0315250" lon="-1.3417690">
        <ele>824.4</ele>
        <time>2020-07-25T13:20:47Z</time>
      </trkpt>
      <trkpt lat="43.0315100" lon="-1.3419050">
        <ele>823.4</ele>
        <time>2020-07-25T13:20:48Z</time>
      </trkpt>
      <trkpt lat="43.0314520" lon="-1.3421470">
        <ele>821.6</ele>
        <time>2020-07-25T13:20:50Z</time>
      </trkpt>
      <trkpt lat="43.0314330" lon="-1.3423430">
        <ele>821.0</ele>
        <time>2020-07-25T13:20:52Z</time>
      </trkpt>
      <trkpt lat="43.0314630" lon="-1.3424330">
        <ele>820.6</ele>
        <time>2020-07-25T13:20:53Z</time>
      </trkpt>
      <trkpt lat="43.0315790" lon="-1.3425330">
        <ele>820.6</ele>
        <time>2020-07-25T13:20:55Z</time>
      </trkpt>
      <trkpt lat="43.0317040" lon="-1.3424360">
        <ele>820.2</ele>
        <time>2020-07-25T13:20:57Z</time>
      </trkpt>
      <trkpt lat="43.0319190" lon="-1.3420860">
        <ele>819.6</ele>
        <time>2020-07-25T13:21:01Z</time>
      </trkpt>
      <trkpt lat="43.0319760" lon="-1.3420090">
        <ele>819.4</ele>
        <time>2020-07-25T13:21:02Z</time>
      </trkpt>
      <trkpt lat="43.0320390" lon="-1.3419450">
        <ele>819.4</ele>
        <time>2020-07-25T13:21:03Z</time>
      </trkpt>
      <trkpt lat="43.0321130" lon="-1.3419030">
        <ele>819.2</ele>
        <time>2020-07-25T13:21:04Z</time>
      </trkpt>
      <trkpt lat="43.0323750" lon="-1.3419320">
        <ele>818.6</ele>
        <time>2020-07-25T13:21:07Z</time>
      </trkpt>
      <trkpt lat="43.0324630" lon="-1.3419900">
        <ele>818.2</ele>
        <time>2020-07-25T13:21:08Z</time>
      </trkpt>
      <trkpt lat="43.0326430" lon="-1.3421350">
        <ele>817.2</ele>
        <time>2020-07-25T13:21:10Z</time>
      </trkpt>
      <trkpt lat="43.0327310" lon="-1.3422220">
        <ele>817.0</ele>
        <time>2020-07-25T13:21:11Z</time>
      </trkpt>
      <trkpt lat="43.0328170" lon="-1.3423200">
        <ele>816.6</ele>
        <time>2020-07-25T13:21:12Z</time>
      </trkpt>
      <trkpt lat="43.0329770" lon="-1.3425430">
        <ele>815.4</ele>
        <time>2020-07-25T13:21:14Z</time>
      </trkpt>
      <trkpt lat="43.0331050" lon="-1.3427620">
        <ele>813.6</ele>
        <time>2020-07-25T13:21:16Z</time>
      </trkpt>
      <trkpt lat="43.0331900" lon="-1.3428260">
        <ele>812.8</ele>
        <time>2020-07-25T13:21:17Z</time>
      </trkpt>
      <trkpt lat="43.0332760" lon="-1.3428550">
        <ele>812.0</ele>
        <time>2020-07-25T13:21:18Z</time>
      </trkpt>
      <trkpt lat="43.0333700" lon="-1.3428330">
        <ele>811.2</ele>
        <time>2020-07-25T13:21:19Z</time>
      </trkpt>
      <trkpt lat="43.0334490" lon="-1.3427600">
        <ele>810.4</ele>
        <time>2020-07-25T13:21:20Z</time>
      </trkpt>
      <trkpt lat="43.0334890" lon="-1.3426570">
        <ele>809.4</ele>
        <time>2020-07-25T13:21:21Z</time>
      </trkpt>
      <trkpt lat="43.0334880" lon="-1.3425370">
        <ele>808.6</ele>
        <time>2020-07-25T13:21:22Z</time>
      </trkpt>
      <trkpt lat="43.0334590" lon="-1.3424100">
        <ele>808.0</ele>
        <time>2020-07-25T13:21:23Z</time>
      </trkpt>
      <trkpt lat="43.0334130" lon="-1.3422840">
        <ele>807.4</ele>
        <time>2020-07-25T13:21:24Z</time>
      </trkpt>
      <trkpt lat="43.0333610" lon="-1.3421500">
        <ele>806.8</ele>
        <time>2020-07-25T13:21:25Z</time>
      </trkpt>
      <trkpt lat="43.0333100" lon="-1.3420120">
        <ele>806.2</ele>
        <time>2020-07-25T13:21:26Z</time>
      </trkpt>
      <trkpt lat="43.0332160" lon="-1.3417190">
        <ele>803.8</ele>
        <time>2020-07-25T13:21:28Z</time>
      </trkpt>
      <trkpt lat="43.0331760" lon="-1.3413950">
        <ele>802.0</ele>
        <time>2020-07-25T13:21:30Z</time>
      </trkpt>
      <trkpt lat="43.0331860" lon="-1.3410650">
        <ele>800.0</ele>
        <time>2020-07-25T13:21:32Z</time>
      </trkpt>
      <trkpt lat="43.0332090" lon="-1.3409030">
        <ele>799.0</ele>
        <time>2020-07-25T13:21:33Z</time>
      </trkpt>
      <trkpt lat="43.0332470" lon="-1.3407470">
        <ele>798.0</ele>
        <time>2020-07-25T13:21:34Z</time>
      </trkpt>
      <trkpt lat="43.0333630" lon="-1.3404600">
        <ele>796.0</ele>
        <time>2020-07-25T13:21:36Z</time>
      </trkpt>
      <trkpt lat="43.0334450" lon="-1.3403330">
        <ele>795.0</ele>
        <time>2020-07-25T13:21:37Z</time>
      </trkpt>
      <trkpt lat="43.0335360" lon="-1.3402070">
        <ele>794.0</ele>
        <time>2020-07-25T13:21:38Z</time>
      </trkpt>
      <trkpt lat="43.0336300" lon="-1.3400770">
        <ele>792.8</ele>
        <time>2020-07-25T13:21:39Z</time>
      </trkpt>
      <trkpt lat="43.0337270" lon="-1.3399450">
        <ele>791.6</ele>
        <time>2020-07-25T13:21:40Z</time>
      </trkpt>
      <trkpt lat="43.0338280" lon="-1.3398100">
        <ele>790.6</ele>
        <time>2020-07-25T13:21:41Z</time>
      </trkpt>
      <trkpt lat="43.0339300" lon="-1.3396760">
        <ele>789.4</ele>
        <time>2020-07-25T13:21:42Z</time>
      </trkpt>
      <trkpt lat="43.0340310" lon="-1.3395380">
        <ele>788.2</ele>
        <time>2020-07-25T13:21:43Z</time>
      </trkpt>
      <trkpt lat="43.0341320" lon="-1.3393960">
        <ele>787.4</ele>
        <time>2020-07-25T13:21:44Z</time>
      </trkpt>
      <trkpt lat="43.0342340" lon="-1.3392570">
        <ele>786.6</ele>
        <time>2020-07-25T13:21:45Z</time>
      </trkpt>
      <trkpt lat="43.0344350" lon="-1.3389610">
        <ele>784.8</ele>
        <time>2020-07-25T13:21:47Z</time>
      </trkpt>
      <trkpt lat="43.0345270" lon="-1.3388030">
        <ele>783.8</ele>
        <time>2020-07-25T13:21:48Z</time>
      </trkpt>
      <trkpt lat="43.0347040" lon="-1.3384940">
        <ele>781.4</ele>
        <time>2020-07-25T13:21:50Z</time>
      </trkpt>
      <trkpt lat="43.0348010" lon="-1.3383570">
        <ele>780.2</ele>
        <time>2020-07-25T13:21:51Z</time>
      </trkpt>
      <trkpt lat="43.0349060" lon="-1.3382380">
        <ele>779.0</ele>
        <time>2020-07-25T13:21:52Z</time>
      </trkpt>
      <trkpt lat="43.0350230" lon="-1.3381260">
        <ele>777.8</ele>
        <time>2020-07-25T13:21:53Z</time>
      </trkpt>
      <trkpt lat="43.0351430" lon="-1.3380180">
        <ele>776.4</ele>
        <time>2020-07-25T13:21:54Z</time>
      </trkpt>
      <trkpt lat="43.0352680" lon="-1.3379070">
        <ele>774.2</ele>
        <time>2020-07-25T13:21:55Z</time>
      </trkpt>
      <trkpt lat="43.0353950" lon="-1.3377940">
        <ele>772.8</ele>
        <time>2020-07-25T13:21:56Z</time>
      </trkpt>
      <trkpt lat="43.0355220" lon="-1.3376790">
        <ele>771.8</ele>
        <time>2020-07-25T13:21:57Z</time>
      </trkpt>
      <trkpt lat="43.0356450" lon="-1.3375570">
        <ele>770.6</ele>
        <time>2020-07-25T13:21:58Z</time>
      </trkpt>
      <trkpt lat="43.0357590" lon="-1.3374230">
        <ele>769.6</ele>
        <time>2020-07-25T13:21:59Z</time>
      </trkpt>
      <trkpt lat="43.0358620" lon="-1.3372720">
        <ele>768.6</ele>
        <time>2020-07-25T13:22:00Z</time>
      </trkpt>
      <trkpt lat="43.0359500" lon="-1.3371040">
        <ele>767.6</ele>
        <time>2020-07-25T13:22:01Z</time>
      </trkpt>
      <trkpt lat="43.0361030" lon="-1.3367490">
        <ele>766.2</ele>
        <time>2020-07-25T13:22:03Z</time>
      </trkpt>
      <trkpt lat="43.0362780" lon="-1.3364210">
        <ele>763.8</ele>
        <time>2020-07-25T13:22:05Z</time>
      </trkpt>
      <trkpt lat="43.0363880" lon="-1.3362940">
        <ele>762.4</ele>
        <time>2020-07-25T13:22:06Z</time>
      </trkpt>
      <trkpt lat="43.0365040" lon="-1.3361990">
        <ele>761.4</ele>
        <time>2020-07-25T13:22:07Z</time>
      </trkpt>
      <trkpt lat="43.0366240" lon="-1.3361370">
        <ele>760.2</ele>
        <time>2020-07-25T13:22:08Z</time>
      </trkpt>
      <trkpt lat="43.0367460" lon="-1.3361070">
        <ele>758.8</ele>
        <time>2020-07-25T13:22:09Z</time>
      </trkpt>
      <trkpt lat="43.0368680" lon="-1.3361060">
        <ele>757.6</ele>
        <time>2020-07-25T13:22:10Z</time>
      </trkpt>
      <trkpt lat="43.0371030" lon="-1.3361030">
        <ele>755.6</ele>
        <time>2020-07-25T13:22:12Z</time>
      </trkpt>
      <trkpt lat="43.0372140" lon="-1.3360440">
        <ele>754.4</ele>
        <time>2020-07-25T13:22:13Z</time>
      </trkpt>
      <trkpt lat="43.0373100" lon="-1.3359430">
        <ele>752.8</ele>
        <time>2020-07-25T13:22:14Z</time>
      </trkpt>
      <trkpt lat="43.0373860" lon="-1.3358140">
        <ele>751.6</ele>
        <time>2020-07-25T13:22:15Z</time>
      </trkpt>
      <trkpt lat="43.0375140" lon="-1.3355200">
        <ele>750.4</ele>
        <time>2020-07-25T13:22:17Z</time>
      </trkpt>
      <trkpt lat="43.0377890" lon="-1.3349220">
        <ele>749.2</ele>
        <time>2020-07-25T13:22:21Z</time>
      </trkpt>
      <trkpt lat="43.0378270" lon="-1.3347540">
        <ele>747.6</ele>
        <time>2020-07-25T13:22:22Z</time>
      </trkpt>
      <trkpt lat="43.0378680" lon="-1.3344260">
        <ele>745.2</ele>
        <time>2020-07-25T13:22:24Z</time>
      </trkpt>
      <trkpt lat="43.0378820" lon="-1.3342830">
        <ele>743.8</ele>
        <time>2020-07-25T13:22:25Z</time>
      </trkpt>
      <trkpt lat="43.0379040" lon="-1.3341540">
        <ele>742.6</ele>
        <time>2020-07-25T13:22:26Z</time>
      </trkpt>
      <trkpt lat="43.0379390" lon="-1.3340420">
        <ele>741.8</ele>
        <time>2020-07-25T13:22:27Z</time>
      </trkpt>
      <trkpt lat="43.0379890" lon="-1.3339540">
        <ele>740.8</ele>
        <time>2020-07-25T13:22:28Z</time>
      </trkpt>
      <trkpt lat="43.0380560" lon="-1.3339000">
        <ele>739.8</ele>
        <time>2020-07-25T13:22:29Z</time>
      </trkpt>
      <trkpt lat="43.0381470" lon="-1.3339030">
        <ele>738.6</ele>
        <time>2020-07-25T13:22:30Z</time>
      </trkpt>
      <trkpt lat="43.0382460" lon="-1.3339390">
        <ele>737.8</ele>
        <time>2020-07-25T13:22:31Z</time>
      </trkpt>
      <trkpt lat="43.0383440" lon="-1.3340040">
        <ele>737.4</ele>
        <time>2020-07-25T13:22:32Z</time>
      </trkpt>
      <trkpt lat="43.0385290" lon="-1.3341780">
        <ele>736.8</ele>
        <time>2020-07-25T13:22:34Z</time>
      </trkpt>
      <trkpt lat="43.0387340" lon="-1.3343560">
        <ele>736.0</ele>
        <time>2020-07-25T13:22:36Z</time>
      </trkpt>
      <trkpt lat="43.0388320" lon="-1.3344340">
        <ele>735.6</ele>
        <time>2020-07-25T13:22:37Z</time>
      </trkpt>
      <trkpt lat="43.0389310" lon="-1.3344840">
        <ele>734.8</ele>
        <time>2020-07-25T13:22:38Z</time>
      </trkpt>
      <trkpt lat="43.0391200" lon="-1.3344670">
        <ele>733.0</ele>
        <time>2020-07-25T13:22:40Z</time>
      </trkpt>
      <trkpt lat="43.0392300" lon="-1.3342690">
        <ele>731.2</ele>
        <time>2020-07-25T13:22:42Z</time>
      </trkpt>
      <trkpt lat="43.0392370" lon="-1.3340210">
        <ele>729.8</ele>
        <time>2020-07-25T13:22:44Z</time>
      </trkpt>
      <trkpt lat="43.0392300" lon="-1.3338860">
        <ele>729.2</ele>
        <time>2020-07-25T13:22:45Z</time>
      </trkpt>
      <trkpt lat="43.0392330" lon="-1.3336050">
        <ele>728.4</ele>
        <time>2020-07-25T13:22:47Z</time>
      </trkpt>
      <trkpt lat="43.0392470" lon="-1.3334640">
        <ele>728.2</ele>
        <time>2020-07-25T13:22:48Z</time>
      </trkpt>
      <trkpt lat="43.0392590" lon="-1.3333150">
        <ele>727.6</ele>
        <time>2020-07-25T13:22:49Z</time>
      </trkpt>
      <trkpt lat="43.0392510" lon="-1.3331650">
        <ele>725.2</ele>
        <time>2020-07-25T13:22:50Z</time>
      </trkpt>
      <trkpt lat="43.0392360" lon="-1.3330130">
        <ele>724.0</ele>
        <time>2020-07-25T13:22:51Z</time>
      </trkpt>
      <trkpt lat="43.0392180" lon="-1.3328600">
        <ele>723.0</ele>
        <time>2020-07-25T13:22:52Z</time>
      </trkpt>
      <trkpt lat="43.0391800" lon="-1.3325390">
        <ele>721.2</ele>
        <time>2020-07-25T13:22:54Z</time>
      </trkpt>
      <trkpt lat="43.0391580" lon="-1.3322470">
        <ele>719.2</ele>
        <time>2020-07-25T13:22:56Z</time>
      </trkpt>
      <trkpt lat="43.0391680" lon="-1.3321120">
        <ele>718.2</ele>
        <time>2020-07-25T13:22:57Z</time>
      </trkpt>
      <trkpt lat="43.0392580" lon="-1.3318670">
        <ele>716.2</ele>
        <time>2020-07-25T13:22:59Z</time>
      </trkpt>
      <trkpt lat="43.0394070" lon="-1.3316470">
        <ele>714.2</ele>
        <time>2020-07-25T13:23:01Z</time>
      </trkpt>
      <trkpt lat="43.0394950" lon="-1.3315420">
        <ele>712.8</ele>
        <time>2020-07-25T13:23:02Z</time>
      </trkpt>
      <trkpt lat="43.0395890" lon="-1.3314410">
        <ele>711.6</ele>
        <time>2020-07-25T13:23:03Z</time>
      </trkpt>
      <trkpt lat="43.0396860" lon="-1.3313430">
        <ele>711.0</ele>
        <time>2020-07-25T13:23:04Z</time>
      </trkpt>
      <trkpt lat="43.0397870" lon="-1.3312520">
        <ele>710.2</ele>
        <time>2020-07-25T13:23:05Z</time>
      </trkpt>
      <trkpt lat="43.0398920" lon="-1.3311600">
        <ele>709.6</ele>
        <time>2020-07-25T13:23:06Z</time>
      </trkpt>
      <trkpt lat="43.0399980" lon="-1.3310650">
        <ele>709.0</ele>
        <time>2020-07-25T13:23:07Z</time>
      </trkpt>
      <trkpt lat="43.0402130" lon="-1.3308740">
        <ele>707.0</ele>
        <time>2020-07-25T13:23:09Z</time>
      </trkpt>
      <trkpt lat="43.0403220" lon="-1.3307760">
        <ele>705.4</ele>
        <time>2020-07-25T13:23:10Z</time>
      </trkpt>
      <trkpt lat="43.0404230" lon="-1.3306850">
        <ele>704.2</ele>
        <time>2020-07-25T13:23:11Z</time>
      </trkpt>
      <trkpt lat="43.0406350" lon="-1.3304960">
        <ele>702.6</ele>
        <time>2020-07-25T13:23:13Z</time>
      </trkpt>
      <trkpt lat="43.0407470" lon="-1.3304020">
        <ele>702.2</ele>
        <time>2020-07-25T13:23:14Z</time>
      </trkpt>
      <trkpt lat="43.0408600" lon="-1.3303070">
        <ele>701.6</ele>
        <time>2020-07-25T13:23:15Z</time>
      </trkpt>
      <trkpt lat="43.0410950" lon="-1.3301200">
        <ele>699.0</ele>
        <time>2020-07-25T13:23:17Z</time>
      </trkpt>
      <trkpt lat="43.0412150" lon="-1.3300280">
        <ele>697.6</ele>
        <time>2020-07-25T13:23:18Z</time>
      </trkpt>
      <trkpt lat="43.0413360" lon="-1.3299380">
        <ele>696.4</ele>
        <time>2020-07-25T13:23:19Z</time>
      </trkpt>
      <trkpt lat="43.0414560" lon="-1.3298490">
        <ele>695.4</ele>
        <time>2020-07-25T13:23:20Z</time>
      </trkpt>
      <trkpt lat="43.0416930" lon="-1.3296740">
        <ele>694.0</ele>
        <time>2020-07-25T13:23:22Z</time>
      </trkpt>
      <trkpt lat="43.0419370" lon="-1.3295240">
        <ele>692.0</ele>
        <time>2020-07-25T13:23:24Z</time>
      </trkpt>
      <trkpt lat="43.0420670" lon="-1.3294570">
        <ele>690.8</ele>
        <time>2020-07-25T13:23:25Z</time>
      </trkpt>
      <trkpt lat="43.0421960" lon="-1.3293950">
        <ele>689.8</ele>
        <time>2020-07-25T13:23:26Z</time>
      </trkpt>
      <trkpt lat="43.0423220" lon="-1.3293330">
        <ele>688.8</ele>
        <time>2020-07-25T13:23:27Z</time>
      </trkpt>
      <trkpt lat="43.0424480" lon="-1.3292740">
        <ele>687.8</ele>
        <time>2020-07-25T13:23:28Z</time>
      </trkpt>
      <trkpt lat="43.0425750" lon="-1.3292260">
        <ele>686.6</ele>
        <time>2020-07-25T13:23:29Z</time>
      </trkpt>
      <trkpt lat="43.0427000" lon="-1.3291900">
        <ele>685.6</ele>
        <time>2020-07-25T13:23:30Z</time>
      </trkpt>
      <trkpt lat="43.0428180" lon="-1.3291770">
        <ele>684.4</ele>
        <time>2020-07-25T13:23:31Z</time>
      </trkpt>
      <trkpt lat="43.0430280" lon="-1.3292350">
        <ele>682.8</ele>
        <time>2020-07-25T13:23:33Z</time>
      </trkpt>
      <trkpt lat="43.0431160" lon="-1.3293010">
        <ele>681.8</ele>
        <time>2020-07-25T13:23:34Z</time>
      </trkpt>
      <trkpt lat="43.0431940" lon="-1.3293650">
        <ele>680.8</ele>
        <time>2020-07-25T13:23:35Z</time>
      </trkpt>
      <trkpt lat="43.0432670" lon="-1.3294000">
        <ele>680.4</ele>
        <time>2020-07-25T13:23:36Z</time>
      </trkpt>
      <trkpt lat="43.0433320" lon="-1.3293820">
        <ele>680.0</ele>
        <time>2020-07-25T13:23:37Z</time>
      </trkpt>
      <trkpt lat="43.0433620" lon="-1.3293250">
        <ele>679.8</ele>
        <time>2020-07-25T13:23:38Z</time>
      </trkpt>
      <trkpt lat="43.0433620" lon="-1.3292470">
        <ele>679.6</ele>
        <time>2020-07-25T13:23:39Z</time>
      </trkpt>
      <trkpt lat="43.0432790" lon="-1.3291230">
        <ele>679.4</ele>
        <time>2020-07-25T13:23:41Z</time>
      </trkpt>
      <trkpt lat="43.0430250" lon="-1.3290290">
        <ele>679.0</ele>
        <time>2020-07-25T13:23:44Z</time>
      </trkpt>
      <trkpt lat="43.0428290" lon="-1.3290300">
        <ele>678.6</ele>
        <time>2020-07-25T13:23:46Z</time>
      </trkpt>
      <trkpt lat="43.0427350" lon="-1.3290500">
        <ele>678.4</ele>
        <time>2020-07-25T13:23:47Z</time>
      </trkpt>
      <trkpt lat="43.0426360" lon="-1.3290840">
        <ele>678.2</ele>
        <time>2020-07-25T13:23:48Z</time>
      </trkpt>
      <trkpt lat="43.0425340" lon="-1.3291120">
        <ele>677.6</ele>
        <time>2020-07-25T13:23:49Z</time>
      </trkpt>
      <trkpt lat="43.0423200" lon="-1.3291450">
        <ele>676.6</ele>
        <time>2020-07-25T13:23:51Z</time>
      </trkpt>
      <trkpt lat="43.0421040" lon="-1.3291570">
        <ele>675.0</ele>
        <time>2020-07-25T13:23:53Z</time>
      </trkpt>
      <trkpt lat="43.0419930" lon="-1.3291630">
        <ele>674.0</ele>
        <time>2020-07-25T13:23:54Z</time>
      </trkpt>
      <trkpt lat="43.0417610" lon="-1.3291890">
        <ele>672.6</ele>
        <time>2020-07-25T13:23:56Z</time>
      </trkpt>
      <trkpt lat="43.0415240" lon="-1.3292270">
        <ele>671.0</ele>
        <time>2020-07-25T13:23:58Z</time>
      </trkpt>
      <trkpt lat="43.0412850" lon="-1.3292930">
        <ele>669.4</ele>
        <time>2020-07-25T13:24:00Z</time>
      </trkpt>
      <trkpt lat="43.0411700" lon="-1.3293340">
        <ele>668.8</ele>
        <time>2020-07-25T13:24:01Z</time>
      </trkpt>
      <trkpt lat="43.0410520" lon="-1.3293720">
        <ele>667.8</ele>
        <time>2020-07-25T13:24:02Z</time>
      </trkpt>
      <trkpt lat="43.0409240" lon="-1.3293960">
        <ele>667.0</ele>
        <time>2020-07-25T13:24:03Z</time>
      </trkpt>
      <trkpt lat="43.0408020" lon="-1.3293870">
        <ele>666.0</ele>
        <time>2020-07-25T13:24:04Z</time>
      </trkpt>
      <trkpt lat="43.0406890" lon="-1.3293500">
        <ele>665.0</ele>
        <time>2020-07-25T13:24:05Z</time>
      </trkpt>
      <trkpt lat="43.0405810" lon="-1.3293010">
        <ele>664.0</ele>
        <time>2020-07-25T13:24:06Z</time>
      </trkpt>
      <trkpt lat="43.0404770" lon="-1.3292580">
        <ele>663.0</ele>
        <time>2020-07-25T13:24:07Z</time>
      </trkpt>
      <trkpt lat="43.0403660" lon="-1.3292350">
        <ele>662.0</ele>
        <time>2020-07-25T13:24:08Z</time>
      </trkpt>
      <trkpt lat="43.0402570" lon="-1.3292350">
        <ele>661.0</ele>
        <time>2020-07-25T13:24:09Z</time>
      </trkpt>
      <trkpt lat="43.0400370" lon="-1.3293320">
        <ele>658.4</ele>
        <time>2020-07-25T13:24:11Z</time>
      </trkpt>
      <trkpt lat="43.0398280" lon="-1.3294820">
        <ele>656.6</ele>
        <time>2020-07-25T13:24:13Z</time>
      </trkpt>
      <trkpt lat="43.0397330" lon="-1.3295900">
        <ele>656.0</ele>
        <time>2020-07-25T13:24:14Z</time>
      </trkpt>
      <trkpt lat="43.0396560" lon="-1.3297190">
        <ele>655.6</ele>
        <time>2020-07-25T13:24:15Z</time>
      </trkpt>
      <trkpt lat="43.0395960" lon="-1.3298670">
        <ele>655.0</ele>
        <time>2020-07-25T13:24:16Z</time>
      </trkpt>
      <trkpt lat="43.0395410" lon="-1.3300130">
        <ele>654.2</ele>
        <time>2020-07-25T13:24:17Z</time>
      </trkpt>
      <trkpt lat="43.0394160" lon="-1.3302850">
        <ele>652.6</ele>
        <time>2020-07-25T13:24:19Z</time>
      </trkpt>
      <trkpt lat="43.0393340" lon="-1.3303980">
        <ele>651.6</ele>
        <time>2020-07-25T13:24:20Z</time>
      </trkpt>
      <trkpt lat="43.0392390" lon="-1.3304900">
        <ele>650.6</ele>
        <time>2020-07-25T13:24:21Z</time>
      </trkpt>
      <trkpt lat="43.0391430" lon="-1.3305730">
        <ele>649.2</ele>
        <time>2020-07-25T13:24:22Z</time>
      </trkpt>
      <trkpt lat="43.0390400" lon="-1.3306360">
        <ele>648.2</ele>
        <time>2020-07-25T13:24:23Z</time>
      </trkpt>
      <trkpt lat="43.0388250" lon="-1.3307030">
        <ele>647.0</ele>
        <time>2020-07-25T13:24:25Z</time>
      </trkpt>
      <trkpt lat="43.0387180" lon="-1.3307130">
        <ele>646.6</ele>
        <time>2020-07-25T13:24:26Z</time>
      </trkpt>
      <trkpt lat="43.0385100" lon="-1.3306960">
        <ele>646.2</ele>
        <time>2020-07-25T13:24:28Z</time>
      </trkpt>
      <trkpt lat="43.0383000" lon="-1.3306620">
        <ele>646.0</ele>
        <time>2020-07-25T13:24:30Z</time>
      </trkpt>
      <trkpt lat="43.0380580" lon="-1.3305780">
        <ele>645.6</ele>
        <time>2020-07-25T13:24:33Z</time>
      </trkpt>
      <trkpt lat="43.0379940" lon="-1.3304240">
        <ele>645.6</ele>
        <time>2020-07-25T13:24:35Z</time>
      </trkpt>
      <trkpt lat="43.0380530" lon="-1.3302870">
        <ele>645.4</ele>
        <time>2020-07-25T13:24:37Z</time>
      </trkpt>
      <trkpt lat="43.0381920" lon="-1.3302840">
        <ele>645.0</ele>
        <time>2020-07-25T13:24:39Z</time>
      </trkpt>
      <trkpt lat="43.0383650" lon="-1.3303660">
        <ele>644.8</ele>
        <time>2020-07-25T13:24:41Z</time>
      </trkpt>
      <trkpt lat="43.0384560" lon="-1.3304100">
        <ele>644.8</ele>
        <time>2020-07-25T13:24:42Z</time>
      </trkpt>
      <trkpt lat="43.0385510" lon="-1.3304420">
        <ele>644.8</ele>
        <time>2020-07-25T13:24:43Z</time>
      </trkpt>
      <trkpt lat="43.0387580" lon="-1.3304390">
        <ele>644.6</ele>
        <time>2020-07-25T13:24:45Z</time>
      </trkpt>
      <trkpt lat="43.0390580" lon="-1.3302620">
        <ele>643.2</ele>
        <time>2020-07-25T13:24:48Z</time>
      </trkpt>
      <trkpt lat="43.0392160" lon="-1.3300330">
        <ele>641.0</ele>
        <time>2020-07-25T13:24:50Z</time>
      </trkpt>
      <trkpt lat="43.0392620" lon="-1.3298930">
        <ele>640.0</ele>
        <time>2020-07-25T13:24:51Z</time>
      </trkpt>
      <trkpt lat="43.0392890" lon="-1.3297410">
        <ele>639.0</ele>
        <time>2020-07-25T13:24:52Z</time>
      </trkpt>
      <trkpt lat="43.0393070" lon="-1.3295850">
        <ele>638.4</ele>
        <time>2020-07-25T13:24:53Z</time>
      </trkpt>
      <trkpt lat="43.0393620" lon="-1.3292790">
        <ele>637.2</ele>
        <time>2020-07-25T13:24:55Z</time>
      </trkpt>
      <trkpt lat="43.0394060" lon="-1.3291380">
        <ele>636.6</ele>
        <time>2020-07-25T13:24:56Z</time>
      </trkpt>
      <trkpt lat="43.0394660" lon="-1.3290110">
        <ele>635.8</ele>
        <time>2020-07-25T13:24:57Z</time>
      </trkpt>
      <trkpt lat="43.0395400" lon="-1.3288950">
        <ele>634.6</ele>
        <time>2020-07-25T13:24:58Z</time>
      </trkpt>
      <trkpt lat="43.0396260" lon="-1.3287860">
        <ele>633.8</ele>
        <time>2020-07-25T13:24:59Z</time>
      </trkpt>
      <trkpt lat="43.0397180" lon="-1.3286920">
        <ele>632.8</ele>
        <time>2020-07-25T13:25:00Z</time>
      </trkpt>
      <trkpt lat="43.0398170" lon="-1.3286120">
        <ele>631.4</ele>
        <time>2020-07-25T13:25:01Z</time>
      </trkpt>
      <trkpt lat="43.0399240" lon="-1.3285290">
        <ele>630.0</ele>
        <time>2020-07-25T13:25:02Z</time>
      </trkpt>
      <trkpt lat="43.0400310" lon="-1.3284530">
        <ele>628.6</ele>
        <time>2020-07-25T13:25:03Z</time>
      </trkpt>
      <trkpt lat="43.0402460" lon="-1.3283130">
        <ele>627.0</ele>
        <time>2020-07-25T13:25:05Z</time>
      </trkpt>
      <trkpt lat="43.0404690" lon="-1.3281930">
        <ele>625.6</ele>
        <time>2020-07-25T13:25:07Z</time>
      </trkpt>
      <trkpt lat="43.0405930" lon="-1.3281460">
        <ele>624.8</ele>
        <time>2020-07-25T13:25:08Z</time>
      </trkpt>
      <trkpt lat="43.0407180" lon="-1.3280960">
        <ele>623.8</ele>
        <time>2020-07-25T13:25:09Z</time>
      </trkpt>
      <trkpt lat="43.0409650" lon="-1.3280070">
        <ele>622.0</ele>
        <time>2020-07-25T13:25:11Z</time>
      </trkpt>
      <trkpt lat="43.0410860" lon="-1.3279570">
        <ele>620.8</ele>
        <time>2020-07-25T13:25:12Z</time>
      </trkpt>
      <trkpt lat="43.0412040" lon="-1.3279210">
        <ele>619.8</ele>
        <time>2020-07-25T13:25:13Z</time>
      </trkpt>
      <trkpt lat="43.0413300" lon="-1.3278830">
        <ele>618.8</ele>
        <time>2020-07-25T13:25:14Z</time>
      </trkpt>
      <trkpt lat="43.0415810" lon="-1.3278390">
        <ele>617.0</ele>
        <time>2020-07-25T13:25:16Z</time>
      </trkpt>
      <trkpt lat="43.0417040" lon="-1.3278480">
        <ele>616.4</ele>
        <time>2020-07-25T13:25:17Z</time>
      </trkpt>
      <trkpt lat="43.0418380" lon="-1.3278660">
        <ele>615.4</ele>
        <time>2020-07-25T13:25:18Z</time>
      </trkpt>
      <trkpt lat="43.0419720" lon="-1.3278730">
        <ele>614.0</ele>
        <time>2020-07-25T13:25:19Z</time>
      </trkpt>
      <trkpt lat="43.0421080" lon="-1.3278540">
        <ele>613.0</ele>
        <time>2020-07-25T13:25:20Z</time>
      </trkpt>
      <trkpt lat="43.0423590" lon="-1.3277360">
        <ele>611.4</ele>
        <time>2020-07-25T13:25:22Z</time>
      </trkpt>
      <trkpt lat="43.0424690" lon="-1.3276380">
        <ele>610.6</ele>
        <time>2020-07-25T13:25:23Z</time>
      </trkpt>
      <trkpt lat="43.0425760" lon="-1.3275270">
        <ele>610.0</ele>
        <time>2020-07-25T13:25:24Z</time>
      </trkpt>
      <trkpt lat="43.0426810" lon="-1.3274230">
        <ele>609.6</ele>
        <time>2020-07-25T13:25:25Z</time>
      </trkpt>
      <trkpt lat="43.0427910" lon="-1.3273310">
        <ele>609.2</ele>
        <time>2020-07-25T13:25:26Z</time>
      </trkpt>
      <trkpt lat="43.0429050" lon="-1.3272340">
        <ele>608.6</ele>
        <time>2020-07-25T13:25:27Z</time>
      </trkpt>
      <trkpt lat="43.0430920" lon="-1.3269890">
        <ele>607.0</ele>
        <time>2020-07-25T13:25:29Z</time>
      </trkpt>
      <trkpt lat="43.0431700" lon="-1.3268470">
        <ele>606.6</ele>
        <time>2020-07-25T13:25:30Z</time>
      </trkpt>
      <trkpt lat="43.0432450" lon="-1.3267130">
        <ele>606.0</ele>
        <time>2020-07-25T13:25:31Z</time>
      </trkpt>
      <trkpt lat="43.0433360" lon="-1.3265930">
        <ele>605.0</ele>
        <time>2020-07-25T13:25:32Z</time>
      </trkpt>
      <trkpt lat="43.0434380" lon="-1.3264820">
        <ele>602.6</ele>
        <time>2020-07-25T13:25:33Z</time>
      </trkpt>
      <trkpt lat="43.0435380" lon="-1.3263790">
        <ele>601.4</ele>
        <time>2020-07-25T13:25:34Z</time>
      </trkpt>
      <trkpt lat="43.0436980" lon="-1.3261590">
        <ele>599.6</ele>
        <time>2020-07-25T13:25:36Z</time>
      </trkpt>
      <trkpt lat="43.0437540" lon="-1.3260520">
        <ele>598.8</ele>
        <time>2020-07-25T13:25:37Z</time>
      </trkpt>
      <trkpt lat="43.0438030" lon="-1.3259550">
        <ele>598.4</ele>
        <time>2020-07-25T13:25:38Z</time>
      </trkpt>
      <trkpt lat="43.0438510" lon="-1.3258740">
        <ele>597.6</ele>
        <time>2020-07-25T13:25:39Z</time>
      </trkpt>
      <trkpt lat="43.0439050" lon="-1.3258290">
        <ele>596.6</ele>
        <time>2020-07-25T13:25:40Z</time>
      </trkpt>
      <trkpt lat="43.0440500" lon="-1.3258650">
        <ele>595.6</ele>
        <time>2020-07-25T13:25:42Z</time>
      </trkpt>
      <trkpt lat="43.0442370" lon="-1.3261120">
        <ele>595.2</ele>
        <time>2020-07-25T13:25:45Z</time>
      </trkpt>
      <trkpt lat="43.0443160" lon="-1.3264860">
        <ele>594.6</ele>
        <time>2020-07-25T13:25:48Z</time>
      </trkpt>
      <trkpt lat="43.0443050" lon="-1.3266150">
        <ele>594.6</ele>
        <time>2020-07-25T13:25:49Z</time>
      </trkpt>
      <trkpt lat="43.0443330" lon="-1.3268230">
        <ele>594.2</ele>
        <time>2020-07-25T13:25:51Z</time>
      </trkpt>
      <trkpt lat="43.0444450" lon="-1.3268740">
        <ele>594.0</ele>
        <time>2020-07-25T13:25:53Z</time>
      </trkpt>
      <trkpt lat="43.0445450" lon="-1.3267560">
        <ele>593.8</ele>
        <time>2020-07-25T13:25:55Z</time>
      </trkpt>
      <trkpt lat="43.0445720" lon="-1.3266600">
        <ele>593.0</ele>
        <time>2020-07-25T13:25:56Z</time>
      </trkpt>
      <trkpt lat="43.0445990" lon="-1.3265560">
        <ele>592.6</ele>
        <time>2020-07-25T13:25:57Z</time>
      </trkpt>
      <trkpt lat="43.0446570" lon="-1.3263480">
        <ele>592.0</ele>
        <time>2020-07-25T13:25:59Z</time>
      </trkpt>
      <trkpt lat="43.0446740" lon="-1.3262430">
        <ele>591.8</ele>
        <time>2020-07-25T13:26:00Z</time>
      </trkpt>
      <trkpt lat="43.0446530" lon="-1.3260240">
        <ele>591.6</ele>
        <time>2020-07-25T13:26:02Z</time>
      </trkpt>
      <trkpt lat="43.0445900" lon="-1.3258080">
        <ele>591.4</ele>
        <time>2020-07-25T13:26:04Z</time>
      </trkpt>
      <trkpt lat="43.0445300" lon="-1.3255810">
        <ele>590.8</ele>
        <time>2020-07-25T13:26:06Z</time>
      </trkpt>
      <trkpt lat="43.0445200" lon="-1.3252290">
        <ele>589.4</ele>
        <time>2020-07-25T13:26:09Z</time>
      </trkpt>
      <trkpt lat="43.0446640" lon="-1.3249630">
        <ele>588.2</ele>
        <time>2020-07-25T13:26:12Z</time>
      </trkpt>
      <trkpt lat="43.0447250" lon="-1.3248870">
        <ele>588.2</ele>
        <time>2020-07-25T13:26:13Z</time>
      </trkpt>
      <trkpt lat="43.0447880" lon="-1.3248220">
        <ele>587.6</ele>
        <time>2020-07-25T13:26:14Z</time>
      </trkpt>
      <trkpt lat="43.0448540" lon="-1.3247710">
        <ele>587.0</ele>
        <time>2020-07-25T13:26:15Z</time>
      </trkpt>
      <trkpt lat="43.0449190" lon="-1.3247250">
        <ele>586.4</ele>
        <time>2020-07-25T13:26:16Z</time>
      </trkpt>
      <trkpt lat="43.0449960" lon="-1.3246900">
        <ele>586.0</ele>
        <time>2020-07-25T13:26:17Z</time>
      </trkpt>
      <trkpt lat="43.0452740" lon="-1.3245830">
        <ele>584.8</ele>
        <time>2020-07-25T13:26:20Z</time>
      </trkpt>
      <trkpt lat="43.0453710" lon="-1.3245330">
        <ele>584.6</ele>
        <time>2020-07-25T13:26:21Z</time>
      </trkpt>
      <trkpt lat="43.0455530" lon="-1.3243780">
        <ele>584.0</ele>
        <time>2020-07-25T13:26:23Z</time>
      </trkpt>
      <trkpt lat="43.0456260" lon="-1.3242720">
        <ele>583.6</ele>
        <time>2020-07-25T13:26:24Z</time>
      </trkpt>
      <trkpt lat="43.0457340" lon="-1.3240260">
        <ele>582.8</ele>
        <time>2020-07-25T13:26:26Z</time>
      </trkpt>
      <trkpt lat="43.0457680" lon="-1.3238920">
        <ele>582.0</ele>
        <time>2020-07-25T13:26:27Z</time>
      </trkpt>
      <trkpt lat="43.0457900" lon="-1.3237500">
        <ele>581.8</ele>
        <time>2020-07-25T13:26:28Z</time>
      </trkpt>
      <trkpt lat="43.0458130" lon="-1.3236070">
        <ele>581.6</ele>
        <time>2020-07-25T13:26:29Z</time>
      </trkpt>
      <trkpt lat="43.0459460" lon="-1.3232060">
        <ele>581.0</ele>
        <time>2020-07-25T13:26:32Z</time>
      </trkpt>
      <trkpt lat="43.0459990" lon="-1.3230800">
        <ele>580.6</ele>
        <time>2020-07-25T13:26:33Z</time>
      </trkpt>
      <trkpt lat="43.0460560" lon="-1.3229580">
        <ele>580.0</ele>
        <time>2020-07-25T13:26:34Z</time>
      </trkpt>
      <trkpt lat="43.0461250" lon="-1.3228530">
        <ele>579.4</ele>
        <time>2020-07-25T13:26:35Z</time>
      </trkpt>
      <trkpt lat="43.0462010" lon="-1.3227740">
        <ele>578.4</ele>
        <time>2020-07-25T13:26:36Z</time>
      </trkpt>
      <trkpt lat="43.0462840" lon="-1.3227160">
        <ele>577.6</ele>
        <time>2020-07-25T13:26:37Z</time>
      </trkpt>
      <trkpt lat="43.0464860" lon="-1.3226740">
        <ele>576.8</ele>
        <time>2020-07-25T13:26:39Z</time>
      </trkpt>
      <trkpt lat="43.0465840" lon="-1.3226300">
        <ele>576.6</ele>
        <time>2020-07-25T13:26:40Z</time>
      </trkpt>
      <trkpt lat="43.0466750" lon="-1.3225590">
        <ele>576.0</ele>
        <time>2020-07-25T13:26:41Z</time>
      </trkpt>
      <trkpt lat="43.0467510" lon="-1.3224590">
        <ele>575.2</ele>
        <time>2020-07-25T13:26:42Z</time>
      </trkpt>
      <trkpt lat="43.0468160" lon="-1.3223490">
        <ele>574.8</ele>
        <time>2020-07-25T13:26:43Z</time>
      </trkpt>
      <trkpt lat="43.0468790" lon="-1.3222310">
        <ele>574.4</ele>
        <time>2020-07-25T13:26:44Z</time>
      </trkpt>
      <trkpt lat="43.0469480" lon="-1.3221130">
        <ele>574.0</ele>
        <time>2020-07-25T13:26:45Z</time>
      </trkpt>
      <trkpt lat="43.0471630" lon="-1.3217530">
        <ele>573.2</ele>
        <time>2020-07-25T13:26:48Z</time>
      </trkpt>
      <trkpt lat="43.0472180" lon="-1.3216140">
        <ele>572.8</ele>
        <time>2020-07-25T13:26:49Z</time>
      </trkpt>
      <trkpt lat="43.0472860" lon="-1.3213120">
        <ele>572.4</ele>
        <time>2020-07-25T13:26:51Z</time>
      </trkpt>
      <trkpt lat="43.0473180" lon="-1.3211620">
        <ele>571.6</ele>
        <time>2020-07-25T13:26:52Z</time>
      </trkpt>
      <trkpt lat="43.0473640" lon="-1.3210250">
        <ele>570.4</ele>
        <time>2020-07-25T13:26:53Z</time>
      </trkpt>
      <trkpt lat="43.0474290" lon="-1.3209150">
        <ele>569.0</ele>
        <time>2020-07-25T13:26:54Z</time>
      </trkpt>
      <trkpt lat="43.0475070" lon="-1.3208370">
        <ele>567.8</ele>
        <time>2020-07-25T13:26:55Z</time>
      </trkpt>
      <trkpt lat="43.0475940" lon="-1.3207920">
        <ele>567.6</ele>
        <time>2020-07-25T13:26:56Z</time>
      </trkpt>
      <trkpt lat="43.0477780" lon="-1.3207840">
        <ele>566.4</ele>
        <time>2020-07-25T13:26:58Z</time>
      </trkpt>
      <trkpt lat="43.0478770" lon="-1.3207940">
        <ele>565.4</ele>
        <time>2020-07-25T13:26:59Z</time>
      </trkpt>
      <trkpt lat="43.0480710" lon="-1.3208090">
        <ele>564.2</ele>
        <time>2020-07-25T13:27:01Z</time>
      </trkpt>
      <trkpt lat="43.0481780" lon="-1.3208030">
        <ele>564.0</ele>
        <time>2020-07-25T13:27:02Z</time>
      </trkpt>
      <trkpt lat="43.0483810" lon="-1.3207490">
        <ele>563.6</ele>
        <time>2020-07-25T13:27:04Z</time>
      </trkpt>
      <trkpt lat="43.0486400" lon="-1.3205220">
        <ele>563.4</ele>
        <time>2020-07-25T13:27:07Z</time>
      </trkpt>
      <trkpt lat="43.0487040" lon="-1.3204130">
        <ele>563.2</ele>
        <time>2020-07-25T13:27:08Z</time>
      </trkpt>
      <trkpt lat="43.0488080" lon="-1.3201800">
        <ele>562.8</ele>
        <time>2020-07-25T13:27:10Z</time>
      </trkpt>
      <trkpt lat="43.0489880" lon="-1.3199460">
        <ele>562.2</ele>
        <time>2020-07-25T13:27:13Z</time>
      </trkpt>
      <trkpt lat="43.0490530" lon="-1.3199240">
        <ele>562.0</ele>
        <time>2020-07-25T13:27:14Z</time>
      </trkpt>
      <trkpt lat="43.0491720" lon="-1.3199850">
        <ele>560.4</ele>
        <time>2020-07-25T13:27:16Z</time>
      </trkpt>
      <trkpt lat="43.0492430" lon="-1.3201720">
        <ele>559.0</ele>
        <time>2020-07-25T13:27:18Z</time>
      </trkpt>
      <trkpt lat="43.0492610" lon="-1.3202740">
        <ele>558.8</ele>
        <time>2020-07-25T13:27:19Z</time>
      </trkpt>
      <trkpt lat="43.0493050" lon="-1.3203550">
        <ele>558.4</ele>
        <time>2020-07-25T13:27:20Z</time>
      </trkpt>
      <trkpt lat="43.0493630" lon="-1.3204040">
        <ele>558.2</ele>
        <time>2020-07-25T13:27:21Z</time>
      </trkpt>
      <trkpt lat="43.0494370" lon="-1.3204140">
        <ele>557.8</ele>
        <time>2020-07-25T13:27:22Z</time>
      </trkpt>
      <trkpt lat="43.0495150" lon="-1.3203900">
        <ele>557.6</ele>
        <time>2020-07-25T13:27:23Z</time>
      </trkpt>
      <trkpt lat="43.0496540" lon="-1.3202760">
        <ele>556.4</ele>
        <time>2020-07-25T13:27:25Z</time>
      </trkpt>
      <trkpt lat="43.0497280" lon="-1.3201980">
        <ele>555.8</ele>
        <time>2020-07-25T13:27:26Z</time>
      </trkpt>
      <trkpt lat="43.0498970" lon="-1.3200540">
        <ele>555.2</ele>
        <time>2020-07-25T13:27:28Z</time>
      </trkpt>
      <trkpt lat="43.0499910" lon="-1.3199940">
        <ele>554.6</ele>
        <time>2020-07-25T13:27:29Z</time>
      </trkpt>
      <trkpt lat="43.0500910" lon="-1.3199350">
        <ele>554.0</ele>
        <time>2020-07-25T13:27:30Z</time>
      </trkpt>
      <trkpt lat="43.0501910" lon="-1.3198730">
        <ele>553.0</ele>
        <time>2020-07-25T13:27:31Z</time>
      </trkpt>
      <trkpt lat="43.0502930" lon="-1.3198050">
        <ele>551.8</ele>
        <time>2020-07-25T13:27:32Z</time>
      </trkpt>
      <trkpt lat="43.0503950" lon="-1.3197360">
        <ele>550.8</ele>
        <time>2020-07-25T13:27:33Z</time>
      </trkpt>
      <trkpt lat="43.0504960" lon="-1.3196620">
        <ele>549.4</ele>
        <time>2020-07-25T13:27:34Z</time>
      </trkpt>
      <trkpt lat="43.0505970" lon="-1.3195770">
        <ele>548.0</ele>
        <time>2020-07-25T13:27:35Z</time>
      </trkpt>
      <trkpt lat="43.0506880" lon="-1.3194740">
        <ele>546.8</ele>
        <time>2020-07-25T13:27:36Z</time>
      </trkpt>
      <trkpt lat="43.0508340" lon="-1.3192260">
        <ele>545.6</ele>
        <time>2020-07-25T13:27:38Z</time>
      </trkpt>
      <trkpt lat="43.0508910" lon="-1.3190820">
        <ele>545.0</ele>
        <time>2020-07-25T13:27:39Z</time>
      </trkpt>
      <trkpt lat="43.0509360" lon="-1.3189310">
        <ele>543.8</ele>
        <time>2020-07-25T13:27:40Z</time>
      </trkpt>
      <trkpt lat="43.0509670" lon="-1.3187730">
        <ele>542.8</ele>
        <time>2020-07-25T13:27:41Z</time>
      </trkpt>
      <trkpt lat="43.0509830" lon="-1.3186170">
        <ele>542.0</ele>
        <time>2020-07-25T13:27:42Z</time>
      </trkpt>
      <trkpt lat="43.0509850" lon="-1.3184700">
        <ele>541.6</ele>
        <time>2020-07-25T13:27:43Z</time>
      </trkpt>
      <trkpt lat="43.0509830" lon="-1.3183340">
        <ele>540.4</ele>
        <time>2020-07-25T13:27:44Z</time>
      </trkpt>
      <trkpt lat="43.0509890" lon="-1.3182040">
        <ele>539.6</ele>
        <time>2020-07-25T13:27:45Z</time>
      </trkpt>
      <trkpt lat="43.0510170" lon="-1.3180810">
        <ele>538.6</ele>
        <time>2020-07-25T13:27:46Z</time>
      </trkpt>
      <trkpt lat="43.0510710" lon="-1.3179720">
        <ele>537.8</ele>
        <time>2020-07-25T13:27:47Z</time>
      </trkpt>
      <trkpt lat="43.0511390" lon="-1.3178750">
        <ele>537.4</ele>
        <time>2020-07-25T13:27:48Z</time>
      </trkpt>
      <trkpt lat="43.0512080" lon="-1.3177720">
        <ele>535.6</ele>
        <time>2020-07-25T13:27:49Z</time>
      </trkpt>
      <trkpt lat="43.0512680" lon="-1.3176530">
        <ele>535.0</ele>
        <time>2020-07-25T13:27:50Z</time>
      </trkpt>
      <trkpt lat="43.0513400" lon="-1.3173690">
        <ele>534.4</ele>
        <time>2020-07-25T13:27:52Z</time>
      </trkpt>
      <trkpt lat="43.0513620" lon="-1.3172160">
        <ele>534.0</ele>
        <time>2020-07-25T13:27:53Z</time>
      </trkpt>
      <trkpt lat="43.0514040" lon="-1.3169020">
        <ele>533.2</ele>
        <time>2020-07-25T13:27:55Z</time>
      </trkpt>
      <trkpt lat="43.0515190" lon="-1.3164370">
        <ele>531.8</ele>
        <time>2020-07-25T13:27:58Z</time>
      </trkpt>
      <trkpt lat="43.0515790" lon="-1.3162890">
        <ele>530.8</ele>
        <time>2020-07-25T13:27:59Z</time>
      </trkpt>
      <trkpt lat="43.0516420" lon="-1.3161440">
        <ele>529.6</ele>
        <time>2020-07-25T13:28:00Z</time>
      </trkpt>
      <trkpt lat="43.0517530" lon="-1.3158490">
        <ele>528.6</ele>
        <time>2020-07-25T13:28:02Z</time>
      </trkpt>
      <trkpt lat="43.0518100" lon="-1.3157090">
        <ele>527.8</ele>
        <time>2020-07-25T13:28:03Z</time>
      </trkpt>
      <trkpt lat="43.0518820" lon="-1.3155860">
        <ele>527.0</ele>
        <time>2020-07-25T13:28:04Z</time>
      </trkpt>
      <trkpt lat="43.0519670" lon="-1.3154940">
        <ele>526.4</ele>
        <time>2020-07-25T13:28:05Z</time>
      </trkpt>
      <trkpt lat="43.0520660" lon="-1.3154260">
        <ele>525.4</ele>
        <time>2020-07-25T13:28:06Z</time>
      </trkpt>
      <trkpt lat="43.0521780" lon="-1.3153900">
        <ele>524.2</ele>
        <time>2020-07-25T13:28:07Z</time>
      </trkpt>
      <trkpt lat="43.0524120" lon="-1.3153700">
        <ele>522.2</ele>
        <time>2020-07-25T13:28:09Z</time>
      </trkpt>
      <trkpt lat="43.0525270" lon="-1.3153720">
        <ele>520.8</ele>
        <time>2020-07-25T13:28:10Z</time>
      </trkpt>
      <trkpt lat="43.0526460" lon="-1.3153780">
        <ele>519.4</ele>
        <time>2020-07-25T13:28:11Z</time>
      </trkpt>
      <trkpt lat="43.0527650" lon="-1.3153760">
        <ele>518.2</ele>
        <time>2020-07-25T13:28:12Z</time>
      </trkpt>
      <trkpt lat="43.0528880" lon="-1.3153540">
        <ele>517.2</ele>
        <time>2020-07-25T13:28:13Z</time>
      </trkpt>
      <trkpt lat="43.0530070" lon="-1.3152980">
        <ele>516.4</ele>
        <time>2020-07-25T13:28:14Z</time>
      </trkpt>
      <trkpt lat="43.0531090" lon="-1.3152190">
        <ele>515.8</ele>
        <time>2020-07-25T13:28:15Z</time>
      </trkpt>
      <trkpt lat="43.0532010" lon="-1.3151180">
        <ele>514.2</ele>
        <time>2020-07-25T13:28:16Z</time>
      </trkpt>
      <trkpt lat="43.0532890" lon="-1.3150060">
        <ele>513.4</ele>
        <time>2020-07-25T13:28:17Z</time>
      </trkpt>
      <trkpt lat="43.0533760" lon="-1.3148900">
        <ele>512.6</ele>
        <time>2020-07-25T13:28:18Z</time>
      </trkpt>
      <trkpt lat="43.0535350" lon="-1.3146510">
        <ele>511.2</ele>
        <time>2020-07-25T13:28:20Z</time>
      </trkpt>
      <trkpt lat="43.0537110" lon="-1.3144140">
        <ele>509.8</ele>
        <time>2020-07-25T13:28:22Z</time>
      </trkpt>
      <trkpt lat="43.0539270" lon="-1.3142550">
        <ele>507.6</ele>
        <time>2020-07-25T13:28:24Z</time>
      </trkpt>
      <trkpt lat="43.0540340" lon="-1.3141690">
        <ele>506.4</ele>
        <time>2020-07-25T13:28:25Z</time>
      </trkpt>
      <trkpt lat="43.0542180" lon="-1.3139530">
        <ele>504.2</ele>
        <time>2020-07-25T13:28:27Z</time>
      </trkpt>
      <trkpt lat="43.0543010" lon="-1.3138270">
        <ele>503.2</ele>
        <time>2020-07-25T13:28:28Z</time>
      </trkpt>
      <trkpt lat="43.0543750" lon="-1.3136930">
        <ele>502.8</ele>
        <time>2020-07-25T13:28:29Z</time>
      </trkpt>
      <trkpt lat="43.0544440" lon="-1.3135540">
        <ele>502.0</ele>
        <time>2020-07-25T13:28:30Z</time>
      </trkpt>
      <trkpt lat="43.0545110" lon="-1.3134130">
        <ele>501.0</ele>
        <time>2020-07-25T13:28:31Z</time>
      </trkpt>
      <trkpt lat="43.0545770" lon="-1.3132740">
        <ele>500.0</ele>
        <time>2020-07-25T13:28:32Z</time>
      </trkpt>
      <trkpt lat="43.0546410" lon="-1.3131340">
        <ele>499.0</ele>
        <time>2020-07-25T13:28:33Z</time>
      </trkpt>
      <trkpt lat="43.0547670" lon="-1.3128660">
        <ele>498.0</ele>
        <time>2020-07-25T13:28:35Z</time>
      </trkpt>
      <trkpt lat="43.0548690" lon="-1.3125970">
        <ele>497.4</ele>
        <time>2020-07-25T13:28:37Z</time>
      </trkpt>
      <trkpt lat="43.0548990" lon="-1.3124520">
        <ele>497.2</ele>
        <time>2020-07-25T13:28:38Z</time>
      </trkpt>
      <trkpt lat="43.0549130" lon="-1.3121520">
        <ele>496.8</ele>
        <time>2020-07-25T13:28:40Z</time>
      </trkpt>
      <trkpt lat="43.0548960" lon="-1.3120060">
        <ele>496.8</ele>
        <time>2020-07-25T13:28:41Z</time>
      </trkpt>
      <trkpt lat="43.0548890" lon="-1.3115800">
        <ele>496.2</ele>
        <time>2020-07-25T13:28:44Z</time>
      </trkpt>
      <trkpt lat="43.0550050" lon="-1.3113470">
        <ele>495.8</ele>
        <time>2020-07-25T13:28:46Z</time>
      </trkpt>
      <trkpt lat="43.0551870" lon="-1.3112330">
        <ele>494.8</ele>
        <time>2020-07-25T13:28:48Z</time>
      </trkpt>
      <trkpt lat="43.0552920" lon="-1.3112120">
        <ele>493.8</ele>
        <time>2020-07-25T13:28:49Z</time>
      </trkpt>
      <trkpt lat="43.0554020" lon="-1.3112130">
        <ele>493.2</ele>
        <time>2020-07-25T13:28:50Z</time>
      </trkpt>
      <trkpt lat="43.0556320" lon="-1.3112700">
        <ele>492.6</ele>
        <time>2020-07-25T13:28:52Z</time>
      </trkpt>
      <trkpt lat="43.0557450" lon="-1.3113180">
        <ele>491.8</ele>
        <time>2020-07-25T13:28:53Z</time>
      </trkpt>
      <trkpt lat="43.0559670" lon="-1.3114370">
        <ele>489.8</ele>
        <time>2020-07-25T13:28:55Z</time>
      </trkpt>
      <trkpt lat="43.0560810" lon="-1.3115050">
        <ele>488.4</ele>
        <time>2020-07-25T13:28:56Z</time>
      </trkpt>
      <trkpt lat="43.0561910" lon="-1.3115700">
        <ele>487.6</ele>
        <time>2020-07-25T13:28:57Z</time>
      </trkpt>
      <trkpt lat="43.0563120" lon="-1.3116260">
        <ele>486.6</ele>
        <time>2020-07-25T13:28:58Z</time>
      </trkpt>
      <trkpt lat="43.0564390" lon="-1.3116640">
        <ele>485.8</ele>
        <time>2020-07-25T13:28:59Z</time>
      </trkpt>
      <trkpt lat="43.0565660" lon="-1.3116720">
        <ele>484.6</ele>
        <time>2020-07-25T13:29:00Z</time>
      </trkpt>
      <trkpt lat="43.0568180" lon="-1.3115930">
        <ele>483.4</ele>
        <time>2020-07-25T13:29:02Z</time>
      </trkpt>
      <trkpt lat="43.0570150" lon="-1.3114130">
        <ele>482.6</ele>
        <time>2020-07-25T13:29:04Z</time>
      </trkpt>
      <trkpt lat="43.0571200" lon="-1.3111250">
        <ele>482.4</ele>
        <time>2020-07-25T13:29:06Z</time>
      </trkpt>
      <trkpt lat="43.0571680" lon="-1.3108300">
        <ele>481.2</ele>
        <time>2020-07-25T13:29:08Z</time>
      </trkpt>
      <trkpt lat="43.0572140" lon="-1.3107040">
        <ele>480.4</ele>
        <time>2020-07-25T13:29:09Z</time>
      </trkpt>
      <trkpt lat="43.0572770" lon="-1.3105960">
        <ele>478.6</ele>
        <time>2020-07-25T13:29:10Z</time>
      </trkpt>
      <trkpt lat="43.0574440" lon="-1.3104310">
        <ele>477.4</ele>
        <time>2020-07-25T13:29:12Z</time>
      </trkpt>
      <trkpt lat="43.0575380" lon="-1.3103580">
        <ele>476.4</ele>
        <time>2020-07-25T13:29:13Z</time>
      </trkpt>
      <trkpt lat="43.0577260" lon="-1.3102080">
        <ele>474.8</ele>
        <time>2020-07-25T13:29:15Z</time>
      </trkpt>
      <trkpt lat="43.0581280" lon="-1.3099300">
        <ele>473.4</ele>
        <time>2020-07-25T13:29:19Z</time>
      </trkpt>
      <trkpt lat="43.0583390" lon="-1.3097900">
        <ele>471.8</ele>
        <time>2020-07-25T13:29:21Z</time>
      </trkpt>
      <trkpt lat="43.0584470" lon="-1.3097280">
        <ele>470.8</ele>
        <time>2020-07-25T13:29:22Z</time>
      </trkpt>
      <trkpt lat="43.0585510" lon="-1.3096810">
        <ele>469.8</ele>
        <time>2020-07-25T13:29:23Z</time>
      </trkpt>
      <trkpt lat="43.0586610" lon="-1.3096490">
        <ele>468.8</ele>
        <time>2020-07-25T13:29:24Z</time>
      </trkpt>
      <trkpt lat="43.0587810" lon="-1.3096300">
        <ele>468.0</ele>
        <time>2020-07-25T13:29:25Z</time>
      </trkpt>
      <trkpt lat="43.0589030" lon="-1.3096250">
        <ele>467.2</ele>
        <time>2020-07-25T13:29:26Z</time>
      </trkpt>
      <trkpt lat="43.0590130" lon="-1.3096740">
        <ele>466.6</ele>
        <time>2020-07-25T13:29:27Z</time>
      </trkpt>
      <trkpt lat="43.0593340" lon="-1.3096300">
        <ele>465.4</ele>
        <time>2020-07-25T13:29:30Z</time>
      </trkpt>
      <trkpt lat="43.0595040" lon="-1.3094440">
        <ele>464.4</ele>
        <time>2020-07-25T13:29:32Z</time>
      </trkpt>
      <trkpt lat="43.0595880" lon="-1.3093510">
        <ele>464.0</ele>
        <time>2020-07-25T13:29:33Z</time>
      </trkpt>
      <trkpt lat="43.0597500" lon="-1.3091830">
        <ele>463.6</ele>
        <time>2020-07-25T13:29:35Z</time>
      </trkpt>
      <trkpt lat="43.0599390" lon="-1.3090390">
        <ele>463.0</ele>
        <time>2020-07-25T13:29:37Z</time>
      </trkpt>
      <trkpt lat="43.0600390" lon="-1.3089650">
        <ele>461.8</ele>
        <time>2020-07-25T13:29:38Z</time>
      </trkpt>
      <trkpt lat="43.0602300" lon="-1.3087830">
        <ele>460.4</ele>
        <time>2020-07-25T13:29:40Z</time>
      </trkpt>
      <trkpt lat="43.0603140" lon="-1.3086920">
        <ele>459.6</ele>
        <time>2020-07-25T13:29:41Z</time>
      </trkpt>
      <trkpt lat="43.0604110" lon="-1.3086250">
        <ele>459.0</ele>
        <time>2020-07-25T13:29:42Z</time>
      </trkpt>
      <trkpt lat="43.0606150" lon="-1.3085650">
        <ele>457.8</ele>
        <time>2020-07-25T13:29:44Z</time>
      </trkpt>
      <trkpt lat="43.0608370" lon="-1.3084820">
        <ele>456.4</ele>
        <time>2020-07-25T13:29:46Z</time>
      </trkpt>
      <trkpt lat="43.0609470" lon="-1.3084040">
        <ele>455.8</ele>
        <time>2020-07-25T13:29:47Z</time>
      </trkpt>
      <trkpt lat="43.0610460" lon="-1.3083010">
        <ele>455.0</ele>
        <time>2020-07-25T13:29:48Z</time>
      </trkpt>
      <trkpt lat="43.0611900" lon="-1.3080660">
        <ele>454.2</ele>
        <time>2020-07-25T13:29:50Z</time>
      </trkpt>
      <trkpt lat="43.0612530" lon="-1.3079420">
        <ele>454.0</ele>
        <time>2020-07-25T13:29:51Z</time>
      </trkpt>
      <trkpt lat="43.0613920" lon="-1.3077260">
        <ele>453.8</ele>
        <time>2020-07-25T13:29:53Z</time>
      </trkpt>
      <trkpt lat="43.0614690" lon="-1.3076400">
        <ele>453.6</ele>
        <time>2020-07-25T13:29:54Z</time>
      </trkpt>
      <trkpt lat="43.0615570" lon="-1.3075680">
        <ele>452.8</ele>
        <time>2020-07-25T13:29:55Z</time>
      </trkpt>
      <trkpt lat="43.0617390" lon="-1.3074440">
        <ele>451.8</ele>
        <time>2020-07-25T13:29:57Z</time>
      </trkpt>
      <trkpt lat="43.0618260" lon="-1.3073880">
        <ele>451.6</ele>
        <time>2020-07-25T13:29:58Z</time>
      </trkpt>
      <trkpt lat="43.0623820" lon="-1.3071320">
        <ele>451.0</ele>
        <time>2020-07-25T13:30:04Z</time>
      </trkpt>
      <trkpt lat="43.0626720" lon="-1.3070100">
        <ele>450.8</ele>
        <time>2020-07-25T13:30:07Z</time>
      </trkpt>
      <trkpt lat="43.0628610" lon="-1.3069320">
        <ele>450.6</ele>
        <time>2020-07-25T13:30:09Z</time>
      </trkpt>
      <trkpt lat="43.0630650" lon="-1.3069390">
        <ele>449.6</ele>
        <time>2020-07-25T13:30:11Z</time>
      </trkpt>
      <trkpt lat="43.0631560" lon="-1.3069900">
        <ele>449.2</ele>
        <time>2020-07-25T13:30:12Z</time>
      </trkpt>
      <trkpt lat="43.0632990" lon="-1.3071610">
        <ele>448.4</ele>
        <time>2020-07-25T13:30:14Z</time>
      </trkpt>
      <trkpt lat="43.0633600" lon="-1.3072560">
        <ele>448.2</ele>
        <time>2020-07-25T13:30:15Z</time>
      </trkpt>
      <trkpt lat="43.0636710" lon="-1.3076430">
        <ele>447.8</ele>
        <time>2020-07-25T13:30:20Z</time>
      </trkpt>
      <trkpt lat="43.0639890" lon="-1.3078760">
        <ele>448.4</ele>
        <time>2020-07-25T13:30:25Z</time>
      </trkpt>
      <trkpt lat="43.0640510" lon="-1.3079020">
        <ele>449.0</ele>
        <time>2020-07-25T13:30:26Z</time>
      </trkpt>
      <trkpt lat="43.0641780" lon="-1.3079580">
        <ele>449.6</ele>
        <time>2020-07-25T13:30:28Z</time>
      </trkpt>
      <trkpt lat="43.0642390" lon="-1.3079950">
        <ele>449.8</ele>
        <time>2020-07-25T13:30:29Z</time>
      </trkpt>
      <trkpt lat="43.0643650" lon="-1.3080630">
        <ele>450.8</ele>
        <time>2020-07-25T13:30:31Z</time>
      </trkpt>
      <trkpt lat="43.0645570" lon="-1.3081470">
        <ele>452.2</ele>
        <time>2020-07-25T13:30:34Z</time>
      </trkpt>
      <trkpt lat="43.0648310" lon="-1.3081730">
        <ele>453.0</ele>
        <time>2020-07-25T13:30:38Z</time>
      </trkpt>
      <trkpt lat="43.0649070" lon="-1.3081630">
        <ele>453.2</ele>
        <time>2020-07-25T13:30:39Z</time>
      </trkpt>
      <trkpt lat="43.0649850" lon="-1.3081400">
        <ele>453.2</ele>
        <time>2020-07-25T13:30:40Z</time>
      </trkpt>
      <trkpt lat="43.0650560" lon="-1.3081050">
        <ele>453.2</ele>
        <time>2020-07-25T13:30:41Z</time>
      </trkpt>
      <trkpt lat="43.0652750" lon="-1.3078890">
        <ele>453.4</ele>
        <time>2020-07-25T13:30:45Z</time>
      </trkpt>
      <trkpt lat="43.0655260" lon="-1.3076800">
        <ele>453.2</ele>
        <time>2020-07-25T13:30:50Z</time>
      </trkpt>
      <trkpt lat="43.0656960" lon="-1.3076840">
        <ele>453.2</ele>
        <time>2020-07-25T13:30:53Z</time>
      </trkpt>
      <trkpt lat="43.0659220" lon="-1.3078380">
        <ele>453.2</ele>
        <time>2020-07-25T13:30:57Z</time>
      </trkpt>
      <trkpt lat="43.0662430" lon="-1.3081070">
        <ele>454.0</ele>
        <time>2020-07-25T13:31:03Z</time>
      </trkpt>
      <trkpt lat="43.0665440" lon="-1.3083780">
        <ele>454.2</ele>
        <time>2020-07-25T13:31:09Z</time>
      </trkpt>
      <trkpt lat="43.0666400" lon="-1.3084680">
        <ele>454.2</ele>
        <time>2020-07-25T13:31:11Z</time>
      </trkpt>
      <trkpt lat="43.0668560" lon="-1.3087340">
        <ele>455.0</ele>
        <time>2020-07-25T13:31:16Z</time>
      </trkpt>
      <trkpt lat="43.0668900" lon="-1.3088000">
        <ele>455.2</ele>
        <time>2020-07-25T13:31:17Z</time>
      </trkpt>
      <trkpt lat="43.0669930" lon="-1.3091750">
        <ele>455.4</ele>
        <time>2020-07-25T13:31:22Z</time>
      </trkpt>
      <trkpt lat="43.0670210" lon="-1.3093380">
        <ele>455.6</ele>
        <time>2020-07-25T13:31:24Z</time>
      </trkpt>
      <trkpt lat="43.0671070" lon="-1.3097700">
        <ele>456.2</ele>
        <time>2020-07-25T13:31:29Z</time>
      </trkpt>
      <trkpt lat="43.0672020" lon="-1.3104200">
        <ele>456.2</ele>
        <time>2020-07-25T13:31:36Z</time>
      </trkpt>
      <trkpt lat="43.0672390" lon="-1.3105020">
        <ele>456.2</ele>
        <time>2020-07-25T13:31:37Z</time>
      </trkpt>
      <trkpt lat="43.0673540" lon="-1.3106120">
        <ele>456.0</ele>
        <time>2020-07-25T13:31:39Z</time>
      </trkpt>
      <trkpt lat="43.0675090" lon="-1.3105930">
        <ele>455.6</ele>
        <time>2020-07-25T13:31:41Z</time>
      </trkpt>
      <trkpt lat="43.0677620" lon="-1.3104220">
        <ele>455.0</ele>
        <time>2020-07-25T13:31:45Z</time>
      </trkpt>
      <trkpt lat="43.0679480" lon="-1.3103210">
        <ele>454.6</ele>
        <time>2020-07-25T13:31:48Z</time>
      </trkpt>
      <trkpt lat="43.0680800" lon="-1.3103130">
        <ele>454.6</ele>
        <time>2020-07-25T13:31:50Z</time>
      </trkpt>
      <trkpt lat="43.0681420" lon="-1.3103160">
        <ele>454.4</ele>
        <time>2020-07-25T13:31:51Z</time>
      </trkpt>
      <trkpt lat="43.0683450" lon="-1.3104040">
        <ele>454.0</ele>
        <time>2020-07-25T13:31:54Z</time>
      </trkpt>
      <trkpt lat="43.0684360" lon="-1.3104530">
        <ele>453.6</ele>
        <time>2020-07-25T13:31:55Z</time>
      </trkpt>
      <trkpt lat="43.0687120" lon="-1.3105570">
        <ele>453.0</ele>
        <time>2020-07-25T13:31:58Z</time>
      </trkpt>
      <trkpt lat="43.0689150" lon="-1.3106080">
        <ele>452.0</ele>
        <time>2020-07-25T13:32:00Z</time>
      </trkpt>
      <trkpt lat="43.0691310" lon="-1.3106480">
        <ele>451.0</ele>
        <time>2020-07-25T13:32:02Z</time>
      </trkpt>
      <trkpt lat="43.0692470" lon="-1.3106620">
        <ele>450.4</ele>
        <time>2020-07-25T13:32:03Z</time>
      </trkpt>
      <trkpt lat="43.0693640" lon="-1.3106660">
        <ele>449.6</ele>
        <time>2020-07-25T13:32:04Z</time>
      </trkpt>
      <trkpt lat="43.0696060" lon="-1.3106180">
        <ele>448.0</ele>
        <time>2020-07-25T13:32:06Z</time>
      </trkpt>
      <trkpt lat="43.0698890" lon="-1.3103610">
        <ele>447.2</ele>
        <time>2020-07-25T13:32:09Z</time>
      </trkpt>
      <trkpt lat="43.0699800" lon="-1.3102630">
        <ele>446.8</ele>
        <time>2020-07-25T13:32:10Z</time>
      </trkpt>
      <trkpt lat="43.0701600" lon="-1.3100690">
        <ele>445.8</ele>
        <time>2020-07-25T13:32:12Z</time>
      </trkpt>
      <trkpt lat="43.0703540" lon="-1.3099160">
        <ele>444.2</ele>
        <time>2020-07-25T13:32:14Z</time>
      </trkpt>
      <trkpt lat="43.0705620" lon="-1.3098600">
        <ele>442.4</ele>
        <time>2020-07-25T13:32:16Z</time>
      </trkpt>
      <trkpt lat="43.0706840" lon="-1.3098640">
        <ele>441.6</ele>
        <time>2020-07-25T13:32:17Z</time>
      </trkpt>
      <trkpt lat="43.0708030" lon="-1.3098690">
        <ele>441.0</ele>
        <time>2020-07-25T13:32:18Z</time>
      </trkpt>
      <trkpt lat="43.0710430" lon="-1.3098540">
        <ele>439.6</ele>
        <time>2020-07-25T13:32:20Z</time>
      </trkpt>
      <trkpt lat="43.0711680" lon="-1.3098370">
        <ele>438.4</ele>
        <time>2020-07-25T13:32:21Z</time>
      </trkpt>
      <trkpt lat="43.0712890" lon="-1.3098210">
        <ele>436.2</ele>
        <time>2020-07-25T13:32:22Z</time>
      </trkpt>
      <trkpt lat="43.0716640" lon="-1.3097680">
        <ele>434.8</ele>
        <time>2020-07-25T13:32:25Z</time>
      </trkpt>
      <trkpt lat="43.0717920" lon="-1.3097660">
        <ele>434.2</ele>
        <time>2020-07-25T13:32:26Z</time>
      </trkpt>
      <trkpt lat="43.0719290" lon="-1.3097800">
        <ele>433.6</ele>
        <time>2020-07-25T13:32:27Z</time>
      </trkpt>
      <trkpt lat="43.0721990" lon="-1.3097800">
        <ele>432.4</ele>
        <time>2020-07-25T13:32:29Z</time>
      </trkpt>
      <trkpt lat="43.0724630" lon="-1.3097130">
        <ele>431.2</ele>
        <time>2020-07-25T13:32:31Z</time>
      </trkpt>
      <trkpt lat="43.0727060" lon="-1.3096210">
        <ele>429.4</ele>
        <time>2020-07-25T13:32:33Z</time>
      </trkpt>
      <trkpt lat="43.0729370" lon="-1.3094700">
        <ele>428.4</ele>
        <time>2020-07-25T13:32:35Z</time>
      </trkpt>
      <trkpt lat="43.0730490" lon="-1.3093670">
        <ele>427.8</ele>
        <time>2020-07-25T13:32:36Z</time>
      </trkpt>
      <trkpt lat="43.0731550" lon="-1.3092490">
        <ele>427.2</ele>
        <time>2020-07-25T13:32:37Z</time>
      </trkpt>
      <trkpt lat="43.0732550" lon="-1.3091210">
        <ele>426.6</ele>
        <time>2020-07-25T13:32:38Z</time>
      </trkpt>
      <trkpt lat="43.0733540" lon="-1.3089870">
        <ele>425.6</ele>
        <time>2020-07-25T13:32:39Z</time>
      </trkpt>
      <trkpt lat="43.0735610" lon="-1.3087410">
        <ele>423.8</ele>
        <time>2020-07-25T13:32:41Z</time>
      </trkpt>
      <trkpt lat="43.0737840" lon="-1.3085230">
        <ele>422.6</ele>
        <time>2020-07-25T13:32:43Z</time>
      </trkpt>
      <trkpt lat="43.0740150" lon="-1.3083140">
        <ele>421.2</ele>
        <time>2020-07-25T13:32:45Z</time>
      </trkpt>
      <trkpt lat="43.0742460" lon="-1.3081080">
        <ele>419.0</ele>
        <time>2020-07-25T13:32:47Z</time>
      </trkpt>
      <trkpt lat="43.0743660" lon="-1.3080150">
        <ele>417.6</ele>
        <time>2020-07-25T13:32:48Z</time>
      </trkpt>
      <trkpt lat="43.0744930" lon="-1.3079400">
        <ele>414.4</ele>
        <time>2020-07-25T13:32:49Z</time>
      </trkpt>
      <trkpt lat="43.0746260" lon="-1.3078890">
        <ele>412.8</ele>
        <time>2020-07-25T13:32:50Z</time>
      </trkpt>
      <trkpt lat="43.0747630" lon="-1.3078520">
        <ele>411.4</ele>
        <time>2020-07-25T13:32:51Z</time>
      </trkpt>
      <trkpt lat="43.0749020" lon="-1.3078120">
        <ele>410.4</ele>
        <time>2020-07-25T13:32:52Z</time>
      </trkpt>
      <trkpt lat="43.0750370" lon="-1.3077590">
        <ele>409.8</ele>
        <time>2020-07-25T13:32:53Z</time>
      </trkpt>
      <trkpt lat="43.0751650" lon="-1.3076890">
        <ele>409.2</ele>
        <time>2020-07-25T13:32:54Z</time>
      </trkpt>
      <trkpt lat="43.0752920" lon="-1.3076010">
        <ele>408.4</ele>
        <time>2020-07-25T13:32:55Z</time>
      </trkpt>
      <trkpt lat="43.0753930" lon="-1.3074930">
        <ele>407.6</ele>
        <time>2020-07-25T13:32:56Z</time>
      </trkpt>
      <trkpt lat="43.0754860" lon="-1.3073640">
        <ele>406.2</ele>
        <time>2020-07-25T13:32:57Z</time>
      </trkpt>
      <trkpt lat="43.0755700" lon="-1.3072330">
        <ele>404.8</ele>
        <time>2020-07-25T13:32:58Z</time>
      </trkpt>
      <trkpt lat="43.0756620" lon="-1.3071210">
        <ele>404.0</ele>
        <time>2020-07-25T13:32:59Z</time>
      </trkpt>
      <trkpt lat="43.0757700" lon="-1.3070380">
        <ele>403.4</ele>
        <time>2020-07-25T13:33:00Z</time>
      </trkpt>
      <trkpt lat="43.0760150" lon="-1.3069480">
        <ele>401.8</ele>
        <time>2020-07-25T13:33:02Z</time>
      </trkpt>
      <trkpt lat="43.0761360" lon="-1.3069150">
        <ele>400.8</ele>
        <time>2020-07-25T13:33:03Z</time>
      </trkpt>
      <trkpt lat="43.0763830" lon="-1.3067910">
        <ele>399.2</ele>
        <time>2020-07-25T13:33:05Z</time>
      </trkpt>
      <trkpt lat="43.0764890" lon="-1.3066910">
        <ele>398.2</ele>
        <time>2020-07-25T13:33:06Z</time>
      </trkpt>
      <trkpt lat="43.0765830" lon="-1.3065770">
        <ele>397.4</ele>
        <time>2020-07-25T13:33:07Z</time>
      </trkpt>
      <trkpt lat="43.0767800" lon="-1.3063660">
        <ele>395.4</ele>
        <time>2020-07-25T13:33:09Z</time>
      </trkpt>
      <trkpt lat="43.0768830" lon="-1.3062750">
        <ele>394.2</ele>
        <time>2020-07-25T13:33:10Z</time>
      </trkpt>
      <trkpt lat="43.0769870" lon="-1.3061960">
        <ele>393.0</ele>
        <time>2020-07-25T13:33:11Z</time>
      </trkpt>
      <trkpt lat="43.0770940" lon="-1.3061310">
        <ele>391.8</ele>
        <time>2020-07-25T13:33:12Z</time>
      </trkpt>
      <trkpt lat="43.0772060" lon="-1.3060820">
        <ele>391.2</ele>
        <time>2020-07-25T13:33:13Z</time>
      </trkpt>
      <trkpt lat="43.0773260" lon="-1.3060480">
        <ele>390.4</ele>
        <time>2020-07-25T13:33:14Z</time>
      </trkpt>
      <trkpt lat="43.0774480" lon="-1.3060240">
        <ele>389.4</ele>
        <time>2020-07-25T13:33:15Z</time>
      </trkpt>
      <trkpt lat="43.0775730" lon="-1.3060050">
        <ele>387.8</ele>
        <time>2020-07-25T13:33:16Z</time>
      </trkpt>
      <trkpt lat="43.0778300" lon="-1.3059640">
        <ele>386.2</ele>
        <time>2020-07-25T13:33:18Z</time>
      </trkpt>
      <trkpt lat="43.0780830" lon="-1.3059300">
        <ele>385.0</ele>
        <time>2020-07-25T13:33:20Z</time>
      </trkpt>
      <trkpt lat="43.0783230" lon="-1.3058900">
        <ele>384.4</ele>
        <time>2020-07-25T13:33:22Z</time>
      </trkpt>
      <trkpt lat="43.0785450" lon="-1.3058880">
        <ele>384.0</ele>
        <time>2020-07-25T13:33:24Z</time>
      </trkpt>
      <trkpt lat="43.0786480" lon="-1.3059100">
        <ele>383.8</ele>
        <time>2020-07-25T13:33:25Z</time>
      </trkpt>
      <trkpt lat="43.0789790" lon="-1.3060910">
        <ele>383.6</ele>
        <time>2020-07-25T13:33:29Z</time>
      </trkpt>
      <trkpt lat="43.0790430" lon="-1.3061480">
        <ele>383.6</ele>
        <time>2020-07-25T13:33:30Z</time>
      </trkpt>
      <trkpt lat="43.0792110" lon="-1.3063030">
        <ele>383.6</ele>
        <time>2020-07-25T13:33:33Z</time>
      </trkpt>
      <trkpt lat="43.0792650" lon="-1.3063450">
        <ele>383.6</ele>
        <time>2020-07-25T13:33:34Z</time>
      </trkpt>
      <trkpt lat="43.0793650" lon="-1.3064190">
        <ele>384.8</ele>
        <time>2020-07-25T13:33:36Z</time>
      </trkpt>
      <trkpt lat="43.0794140" lon="-1.3064450">
        <ele>385.6</ele>
        <time>2020-07-25T13:33:37Z</time>
      </trkpt>
      <trkpt lat="43.0795130" lon="-1.3064900">
        <ele>387.0</ele>
        <time>2020-07-25T13:33:39Z</time>
      </trkpt>
      <trkpt lat="43.0796090" lon="-1.3065280">
        <ele>388.6</ele>
        <time>2020-07-25T13:33:41Z</time>
      </trkpt>
      <trkpt lat="43.0797030" lon="-1.3065710">
        <ele>389.8</ele>
        <time>2020-07-25T13:33:43Z</time>
      </trkpt>
      <trkpt lat="43.0797950" lon="-1.3066140">
        <ele>391.2</ele>
        <time>2020-07-25T13:33:45Z</time>
      </trkpt>
      <trkpt lat="43.0798780" lon="-1.3066540">
        <ele>391.8</ele>
        <time>2020-07-25T13:33:47Z</time>
      </trkpt>
      <trkpt lat="43.0799210" lon="-1.3066660">
        <ele>392.2</ele>
        <time>2020-07-25T13:33:48Z</time>
      </trkpt>
      <trkpt lat="43.0801020" lon="-1.3066740">
        <ele>393.0</ele>
        <time>2020-07-25T13:33:52Z</time>
      </trkpt>
      <trkpt lat="43.0801460" lon="-1.3066710">
        <ele>393.4</ele>
        <time>2020-07-25T13:33:53Z</time>
      </trkpt>
      <trkpt lat="43.0802740" lon="-1.3066280">
        <ele>394.4</ele>
        <time>2020-07-25T13:33:56Z</time>
      </trkpt>
      <trkpt lat="43.0803160" lon="-1.3066140">
        <ele>394.8</ele>
        <time>2020-07-25T13:33:57Z</time>
      </trkpt>
      <trkpt lat="43.0803570" lon="-1.3065990">
        <ele>395.0</ele>
        <time>2020-07-25T13:33:58Z</time>
      </trkpt>
      <trkpt lat="43.0804340" lon="-1.3065560">
        <ele>395.6</ele>
        <time>2020-07-25T13:34:00Z</time>
      </trkpt>
      <trkpt lat="43.0805410" lon="-1.3064900">
        <ele>396.4</ele>
        <time>2020-07-25T13:34:03Z</time>
      </trkpt>
      <trkpt lat="43.0805790" lon="-1.3064700">
        <ele>396.4</ele>
        <time>2020-07-25T13:34:04Z</time>
      </trkpt>
      <trkpt lat="43.0806530" lon="-1.3064310">
        <ele>396.6</ele>
        <time>2020-07-25T13:34:06Z</time>
      </trkpt>
      <trkpt lat="43.0807590" lon="-1.3063790">
        <ele>397.2</ele>
        <time>2020-07-25T13:34:09Z</time>
      </trkpt>
      <trkpt lat="43.0808200" lon="-1.3063380">
        <ele>397.6</ele>
        <time>2020-07-25T13:34:11Z</time>
      </trkpt>
      <trkpt lat="43.0808620" lon="-1.3063310">
        <ele>397.8</ele>
        <time>2020-07-25T13:34:12Z</time>
      </trkpt>
      <trkpt lat="43.0809040" lon="-1.3063240">
        <ele>398.0</ele>
        <time>2020-07-25T13:34:13Z</time>
      </trkpt>
      <trkpt lat="43.0810400" lon="-1.3062880">
        <ele>399.0</ele>
        <time>2020-07-25T13:34:17Z</time>
      </trkpt>
      <trkpt lat="43.0811000" lon="-1.3062950">
        <ele>399.4</ele>
        <time>2020-07-25T13:34:19Z</time>
      </trkpt>
      <trkpt lat="43.0811730" lon="-1.3063200">
        <ele>399.8</ele>
        <time>2020-07-25T13:34:21Z</time>
      </trkpt>
      <trkpt lat="43.0812050" lon="-1.3063370">
        <ele>400.2</ele>
        <time>2020-07-25T13:34:22Z</time>
      </trkpt>
      <trkpt lat="43.0813400" lon="-1.3064220">
        <ele>400.8</ele>
        <time>2020-07-25T13:34:26Z</time>
      </trkpt>
      <trkpt lat="43.0814170" lon="-1.3064890">
        <ele>401.2</ele>
        <time>2020-07-25T13:34:28Z</time>
      </trkpt>
      <trkpt lat="43.0815720" lon="-1.3066010">
        <ele>402.2</ele>
        <time>2020-07-25T13:34:32Z</time>
      </trkpt>
      <trkpt lat="43.0816130" lon="-1.3066210">
        <ele>402.4</ele>
        <time>2020-07-25T13:34:33Z</time>
      </trkpt>
      <trkpt lat="43.0817060" lon="-1.3066610">
        <ele>402.8</ele>
        <time>2020-07-25T13:34:35Z</time>
      </trkpt>
      <trkpt lat="43.0817990" lon="-1.3066780">
        <ele>403.2</ele>
        <time>2020-07-25T13:34:37Z</time>
      </trkpt>
      <trkpt lat="43.0818870" lon="-1.3066670">
        <ele>403.6</ele>
        <time>2020-07-25T13:34:39Z</time>
      </trkpt>
      <trkpt lat="43.0819680" lon="-1.3066190">
        <ele>403.6</ele>
        <time>2020-07-25T13:34:41Z</time>
      </trkpt>
      <trkpt lat="43.0821150" lon="-1.3064590">
        <ele>404.4</ele>
        <time>2020-07-25T13:34:45Z</time>
      </trkpt>
      <trkpt lat="43.0821630" lon="-1.3063590">
        <ele>404.6</ele>
        <time>2020-07-25T13:34:47Z</time>
      </trkpt>
      <trkpt lat="43.0821900" lon="-1.3062530">
        <ele>404.8</ele>
        <time>2020-07-25T13:34:49Z</time>
      </trkpt>
      <trkpt lat="43.0822020" lon="-1.3062000">
        <ele>405.0</ele>
        <time>2020-07-25T13:34:50Z</time>
      </trkpt>
      <trkpt lat="43.0822420" lon="-1.3060520">
        <ele>405.8</ele>
        <time>2020-07-25T13:34:53Z</time>
      </trkpt>
      <trkpt lat="43.0823030" lon="-1.3059090">
        <ele>406.4</ele>
        <time>2020-07-25T13:34:56Z</time>
      </trkpt>
      <trkpt lat="43.0823500" lon="-1.3058260">
        <ele>406.8</ele>
        <time>2020-07-25T13:34:58Z</time>
      </trkpt>
      <trkpt lat="43.0824350" lon="-1.3057060">
        <ele>407.8</ele>
        <time>2020-07-25T13:35:01Z</time>
      </trkpt>
      <trkpt lat="43.0824630" lon="-1.3056670">
        <ele>408.0</ele>
        <time>2020-07-25T13:35:02Z</time>
      </trkpt>
      <trkpt lat="43.0825980" lon="-1.3055690">
        <ele>408.8</ele>
        <time>2020-07-25T13:35:06Z</time>
      </trkpt>
      <trkpt lat="43.0826450" lon="-1.3055550">
        <ele>409.0</ele>
        <time>2020-07-25T13:35:07Z</time>
      </trkpt>
      <trkpt lat="43.0827440" lon="-1.3055430">
        <ele>409.2</ele>
        <time>2020-07-25T13:35:09Z</time>
      </trkpt>
      <trkpt lat="43.0829680" lon="-1.3055480">
        <ele>409.6</ele>
        <time>2020-07-25T13:35:13Z</time>
      </trkpt>
      <trkpt lat="43.0832570" lon="-1.3055470">
        <ele>409.6</ele>
        <time>2020-07-25T13:35:18Z</time>
      </trkpt>
      <trkpt lat="43.0833050" lon="-1.3055450">
        <ele>409.6</ele>
        <time>2020-07-25T13:35:19Z</time>
      </trkpt>
      <trkpt lat="43.0834960" lon="-1.3055400">
        <ele>409.4</ele>
        <time>2020-07-25T13:35:22Z</time>
      </trkpt>
      <trkpt lat="43.0837090" lon="-1.3055170">
        <ele>409.0</ele>
        <time>2020-07-25T13:35:25Z</time>
      </trkpt>
      <trkpt lat="43.0839290" lon="-1.3054340">
        <ele>408.8</ele>
        <time>2020-07-25T13:35:28Z</time>
      </trkpt>
      <trkpt lat="43.0839980" lon="-1.3053930">
        <ele>408.8</ele>
        <time>2020-07-25T13:35:29Z</time>
      </trkpt>
      <trkpt lat="43.0842660" lon="-1.3052070">
        <ele>408.4</ele>
        <time>2020-07-25T13:35:33Z</time>
      </trkpt>
      <trkpt lat="43.0843290" lon="-1.3051530">
        <ele>408.0</ele>
        <time>2020-07-25T13:35:34Z</time>
      </trkpt>
      <trkpt lat="43.0845310" lon="-1.3050010">
        <ele>407.6</ele>
        <time>2020-07-25T13:35:37Z</time>
      </trkpt>
      <trkpt lat="43.0850020" lon="-1.3046560">
        <ele>406.8</ele>
        <time>2020-07-25T13:35:44Z</time>
      </trkpt>
      <trkpt lat="43.0852390" lon="-1.3043910">
        <ele>406.4</ele>
        <time>2020-07-25T13:35:48Z</time>
      </trkpt>
      <trkpt lat="43.0852950" lon="-1.3043230">
        <ele>406.4</ele>
        <time>2020-07-25T13:35:49Z</time>
      </trkpt>
      <trkpt lat="43.0853570" lon="-1.3042620">
        <ele>406.4</ele>
        <time>2020-07-25T13:35:50Z</time>
      </trkpt>
      <trkpt lat="43.0854990" lon="-1.3041880">
        <ele>405.8</ele>
        <time>2020-07-25T13:35:52Z</time>
      </trkpt>
      <trkpt lat="43.0855770" lon="-1.3041820">
        <ele>405.4</ele>
        <time>2020-07-25T13:35:53Z</time>
      </trkpt>
      <trkpt lat="43.0857380" lon="-1.3042410">
        <ele>405.2</ele>
        <time>2020-07-25T13:35:55Z</time>
      </trkpt>
      <trkpt lat="43.0860650" lon="-1.3044280">
        <ele>404.8</ele>
        <time>2020-07-25T13:35:59Z</time>
      </trkpt>
      <trkpt lat="43.0863450" lon="-1.3044100">
        <ele>404.2</ele>
        <time>2020-07-25T13:36:02Z</time>
      </trkpt>
      <trkpt lat="43.0865260" lon="-1.3043260">
        <ele>403.6</ele>
        <time>2020-07-25T13:36:04Z</time>
      </trkpt>
      <trkpt lat="43.0867080" lon="-1.3042310">
        <ele>403.0</ele>
        <time>2020-07-25T13:36:06Z</time>
      </trkpt>
      <trkpt lat="43.0868020" lon="-1.3041850">
        <ele>402.6</ele>
        <time>2020-07-25T13:36:07Z</time>
      </trkpt>
      <trkpt lat="43.0869970" lon="-1.3041040">
        <ele>402.2</ele>
        <time>2020-07-25T13:36:09Z</time>
      </trkpt>
      <trkpt lat="43.0871990" lon="-1.3040240">
        <ele>401.0</ele>
        <time>2020-07-25T13:36:11Z</time>
      </trkpt>
      <trkpt lat="43.0874060" lon="-1.3039480">
        <ele>400.0</ele>
        <time>2020-07-25T13:36:13Z</time>
      </trkpt>
      <trkpt lat="43.0877030" lon="-1.3037920">
        <ele>398.6</ele>
        <time>2020-07-25T13:36:16Z</time>
      </trkpt>
      <trkpt lat="43.0878850" lon="-1.3036370">
        <ele>397.4</ele>
        <time>2020-07-25T13:36:18Z</time>
      </trkpt>
      <trkpt lat="43.0880570" lon="-1.3034500">
        <ele>396.2</ele>
        <time>2020-07-25T13:36:20Z</time>
      </trkpt>
      <trkpt lat="43.0882410" lon="-1.3032790">
        <ele>395.2</ele>
        <time>2020-07-25T13:36:22Z</time>
      </trkpt>
      <trkpt lat="43.0883370" lon="-1.3032190">
        <ele>394.8</ele>
        <time>2020-07-25T13:36:23Z</time>
      </trkpt>
      <trkpt lat="43.0885290" lon="-1.3031530">
        <ele>393.4</ele>
        <time>2020-07-25T13:36:25Z</time>
      </trkpt>
      <trkpt lat="43.0886320" lon="-1.3031550">
        <ele>392.8</ele>
        <time>2020-07-25T13:36:26Z</time>
      </trkpt>
      <trkpt lat="43.0887360" lon="-1.3031650">
        <ele>392.0</ele>
        <time>2020-07-25T13:36:27Z</time>
      </trkpt>
      <trkpt lat="43.0888370" lon="-1.3031530">
        <ele>391.4</ele>
        <time>2020-07-25T13:36:28Z</time>
      </trkpt>
      <trkpt lat="43.0889320" lon="-1.3031050">
        <ele>390.6</ele>
        <time>2020-07-25T13:36:29Z</time>
      </trkpt>
      <trkpt lat="43.0890790" lon="-1.3029220">
        <ele>390.0</ele>
        <time>2020-07-25T13:36:31Z</time>
      </trkpt>
      <trkpt lat="43.0891510" lon="-1.3028340">
        <ele>389.6</ele>
        <time>2020-07-25T13:36:32Z</time>
      </trkpt>
      <trkpt lat="43.0893190" lon="-1.3027350">
        <ele>388.8</ele>
        <time>2020-07-25T13:36:34Z</time>
      </trkpt>
      <trkpt lat="43.0894150" lon="-1.3027230">
        <ele>388.6</ele>
        <time>2020-07-25T13:36:35Z</time>
      </trkpt>
      <trkpt lat="43.0896120" lon="-1.3028000">
        <ele>387.6</ele>
        <time>2020-07-25T13:36:37Z</time>
      </trkpt>
      <trkpt lat="43.0897020" lon="-1.3028580">
        <ele>387.0</ele>
        <time>2020-07-25T13:36:38Z</time>
      </trkpt>
      <trkpt lat="43.0898030" lon="-1.3028980">
        <ele>386.6</ele>
        <time>2020-07-25T13:36:39Z</time>
      </trkpt>
      <trkpt lat="43.0899080" lon="-1.3029060">
        <ele>386.0</ele>
        <time>2020-07-25T13:36:40Z</time>
      </trkpt>
      <trkpt lat="43.0900930" lon="-1.3028440">
        <ele>385.0</ele>
        <time>2020-07-25T13:36:42Z</time>
      </trkpt>
      <trkpt lat="43.0901700" lon="-1.3028030">
        <ele>384.6</ele>
        <time>2020-07-25T13:36:43Z</time>
      </trkpt>
      <trkpt lat="43.0902470" lon="-1.3027910">
        <ele>384.4</ele>
        <time>2020-07-25T13:36:44Z</time>
      </trkpt>
      <trkpt lat="43.0903210" lon="-1.3028120">
        <ele>384.2</ele>
        <time>2020-07-25T13:36:45Z</time>
      </trkpt>
      <trkpt lat="43.0904000" lon="-1.3028560">
        <ele>384.0</ele>
        <time>2020-07-25T13:36:46Z</time>
      </trkpt>
      <trkpt lat="43.0905680" lon="-1.3029750">
        <ele>383.2</ele>
        <time>2020-07-25T13:36:48Z</time>
      </trkpt>
      <trkpt lat="43.0906530" lon="-1.3030380">
        <ele>382.8</ele>
        <time>2020-07-25T13:36:49Z</time>
      </trkpt>
      <trkpt lat="43.0909050" lon="-1.3032510">
        <ele>382.4</ele>
        <time>2020-07-25T13:36:52Z</time>
      </trkpt>
      <trkpt lat="43.0909790" lon="-1.3033390">
        <ele>382.2</ele>
        <time>2020-07-25T13:36:53Z</time>
      </trkpt>
      <trkpt lat="43.0911200" lon="-1.3035110">
        <ele>381.8</ele>
        <time>2020-07-25T13:36:55Z</time>
      </trkpt>
      <trkpt lat="43.0911940" lon="-1.3035640">
        <ele>380.2</ele>
        <time>2020-07-25T13:36:56Z</time>
      </trkpt>
      <trkpt lat="43.0912750" lon="-1.3035660">
        <ele>379.6</ele>
        <time>2020-07-25T13:36:57Z</time>
      </trkpt>
      <trkpt lat="43.0913490" lon="-1.3035220">
        <ele>378.8</ele>
        <time>2020-07-25T13:36:58Z</time>
      </trkpt>
      <trkpt lat="43.0914100" lon="-1.3034430">
        <ele>378.0</ele>
        <time>2020-07-25T13:36:59Z</time>
      </trkpt>
      <trkpt lat="43.0914580" lon="-1.3033410">
        <ele>377.8</ele>
        <time>2020-07-25T13:37:00Z</time>
      </trkpt>
      <trkpt lat="43.0915280" lon="-1.3031290">
        <ele>377.4</ele>
        <time>2020-07-25T13:37:02Z</time>
      </trkpt>
      <trkpt lat="43.0915980" lon="-1.3029240">
        <ele>377.2</ele>
        <time>2020-07-25T13:37:04Z</time>
      </trkpt>
      <trkpt lat="43.0917140" lon="-1.3027720">
        <ele>376.8</ele>
        <time>2020-07-25T13:37:06Z</time>
      </trkpt>
      <trkpt lat="43.0917880" lon="-1.3027190">
        <ele>376.6</ele>
        <time>2020-07-25T13:37:07Z</time>
      </trkpt>
      <trkpt lat="43.0918650" lon="-1.3026720">
        <ele>376.4</ele>
        <time>2020-07-25T13:37:08Z</time>
      </trkpt>
      <trkpt lat="43.0920920" lon="-1.3025200">
        <ele>376.0</ele>
        <time>2020-07-25T13:37:11Z</time>
      </trkpt>
      <trkpt lat="43.0921630" lon="-1.3024580">
        <ele>375.8</ele>
        <time>2020-07-25T13:37:12Z</time>
      </trkpt>
      <trkpt lat="43.0925410" lon="-1.3021560">
        <ele>374.8</ele>
        <time>2020-07-25T13:37:17Z</time>
      </trkpt>
      <trkpt lat="43.0926920" lon="-1.3020310">
        <ele>374.2</ele>
        <time>2020-07-25T13:37:19Z</time>
      </trkpt>
      <trkpt lat="43.0929090" lon="-1.3017980">
        <ele>373.0</ele>
        <time>2020-07-25T13:37:22Z</time>
      </trkpt>
      <trkpt lat="43.0930880" lon="-1.3014820">
        <ele>371.8</ele>
        <time>2020-07-25T13:37:25Z</time>
      </trkpt>
      <trkpt lat="43.0931430" lon="-1.3013580">
        <ele>371.4</ele>
        <time>2020-07-25T13:37:26Z</time>
      </trkpt>
      <trkpt lat="43.0932370" lon="-1.3010850">
        <ele>370.6</ele>
        <time>2020-07-25T13:37:28Z</time>
      </trkpt>
      <trkpt lat="43.0933360" lon="-1.3007920">
        <ele>370.0</ele>
        <time>2020-07-25T13:37:30Z</time>
      </trkpt>
      <trkpt lat="43.0933910" lon="-1.3006460">
        <ele>369.4</ele>
        <time>2020-07-25T13:37:31Z</time>
      </trkpt>
      <trkpt lat="43.0935060" lon="-1.3003700">
        <ele>368.0</ele>
        <time>2020-07-25T13:37:33Z</time>
      </trkpt>
      <trkpt lat="43.0935670" lon="-1.3002320">
        <ele>366.6</ele>
        <time>2020-07-25T13:37:34Z</time>
      </trkpt>
      <trkpt lat="43.0936240" lon="-1.3000890">
        <ele>365.6</ele>
        <time>2020-07-25T13:37:35Z</time>
      </trkpt>
      <trkpt lat="43.0936720" lon="-1.2999380">
        <ele>364.0</ele>
        <time>2020-07-25T13:37:36Z</time>
      </trkpt>
      <trkpt lat="43.0937190" lon="-1.2997830">
        <ele>362.4</ele>
        <time>2020-07-25T13:37:37Z</time>
      </trkpt>
      <trkpt lat="43.0937670" lon="-1.2996280">
        <ele>360.8</ele>
        <time>2020-07-25T13:37:38Z</time>
      </trkpt>
      <trkpt lat="43.0938230" lon="-1.2994840">
        <ele>359.8</ele>
        <time>2020-07-25T13:37:39Z</time>
      </trkpt>
      <trkpt lat="43.0938890" lon="-1.2993530">
        <ele>358.6</ele>
        <time>2020-07-25T13:37:40Z</time>
      </trkpt>
      <trkpt lat="43.0940540" lon="-1.2991340">
        <ele>357.0</ele>
        <time>2020-07-25T13:37:42Z</time>
      </trkpt>
      <trkpt lat="43.0941490" lon="-1.2990440">
        <ele>355.8</ele>
        <time>2020-07-25T13:37:43Z</time>
      </trkpt>
      <trkpt lat="43.0943500" lon="-1.2988880">
        <ele>354.4</ele>
        <time>2020-07-25T13:37:45Z</time>
      </trkpt>
      <trkpt lat="43.0944530" lon="-1.2988190">
        <ele>353.6</ele>
        <time>2020-07-25T13:37:46Z</time>
      </trkpt>
      <trkpt lat="43.0945560" lon="-1.2987560">
        <ele>352.4</ele>
        <time>2020-07-25T13:37:47Z</time>
      </trkpt>
      <trkpt lat="43.0947600" lon="-1.2986470">
        <ele>351.2</ele>
        <time>2020-07-25T13:37:49Z</time>
      </trkpt>
      <trkpt lat="43.0949720" lon="-1.2985470">
        <ele>348.6</ele>
        <time>2020-07-25T13:37:51Z</time>
      </trkpt>
      <trkpt lat="43.0951910" lon="-1.2984300">
        <ele>346.8</ele>
        <time>2020-07-25T13:37:53Z</time>
      </trkpt>
      <trkpt lat="43.0952990" lon="-1.2983570">
        <ele>346.0</ele>
        <time>2020-07-25T13:37:54Z</time>
      </trkpt>
      <trkpt lat="43.0954030" lon="-1.2982710">
        <ele>345.2</ele>
        <time>2020-07-25T13:37:55Z</time>
      </trkpt>
      <trkpt lat="43.0955010" lon="-1.2981730">
        <ele>344.6</ele>
        <time>2020-07-25T13:37:56Z</time>
      </trkpt>
      <trkpt lat="43.0957980" lon="-1.2978790">
        <ele>343.8</ele>
        <time>2020-07-25T13:37:59Z</time>
      </trkpt>
      <trkpt lat="43.0958990" lon="-1.2977820">
        <ele>343.2</ele>
        <time>2020-07-25T13:38:00Z</time>
      </trkpt>
      <trkpt lat="43.0959980" lon="-1.2976870">
        <ele>342.2</ele>
        <time>2020-07-25T13:38:01Z</time>
      </trkpt>
      <trkpt lat="43.0960980" lon="-1.2975980">
        <ele>341.2</ele>
        <time>2020-07-25T13:38:02Z</time>
      </trkpt>
      <trkpt lat="43.0962050" lon="-1.2975230">
        <ele>340.4</ele>
        <time>2020-07-25T13:38:03Z</time>
      </trkpt>
      <trkpt lat="43.0963200" lon="-1.2974620">
        <ele>339.4</ele>
        <time>2020-07-25T13:38:04Z</time>
      </trkpt>
      <trkpt lat="43.0965570" lon="-1.2973730">
        <ele>338.0</ele>
        <time>2020-07-25T13:38:06Z</time>
      </trkpt>
      <trkpt lat="43.0966640" lon="-1.2973430">
        <ele>337.0</ele>
        <time>2020-07-25T13:38:07Z</time>
      </trkpt>
      <trkpt lat="43.0967620" lon="-1.2973120">
        <ele>335.8</ele>
        <time>2020-07-25T13:38:08Z</time>
      </trkpt>
      <trkpt lat="43.0968470" lon="-1.2972680">
        <ele>335.0</ele>
        <time>2020-07-25T13:38:09Z</time>
      </trkpt>
      <trkpt lat="43.0969110" lon="-1.2972050">
        <ele>334.2</ele>
        <time>2020-07-25T13:38:10Z</time>
      </trkpt>
      <trkpt lat="43.0969470" lon="-1.2971190">
        <ele>333.6</ele>
        <time>2020-07-25T13:38:11Z</time>
      </trkpt>
      <trkpt lat="43.0969420" lon="-1.2970260">
        <ele>333.0</ele>
        <time>2020-07-25T13:38:12Z</time>
      </trkpt>
      <trkpt lat="43.0969030" lon="-1.2969490">
        <ele>332.4</ele>
        <time>2020-07-25T13:38:13Z</time>
      </trkpt>
      <trkpt lat="43.0967550" lon="-1.2969070">
        <ele>332.0</ele>
        <time>2020-07-25T13:38:15Z</time>
      </trkpt>
      <trkpt lat="43.0965930" lon="-1.2970060">
        <ele>331.8</ele>
        <time>2020-07-25T13:38:17Z</time>
      </trkpt>
      <trkpt lat="43.0965140" lon="-1.2970640">
        <ele>331.4</ele>
        <time>2020-07-25T13:38:18Z</time>
      </trkpt>
      <trkpt lat="43.0964400" lon="-1.2971080">
        <ele>331.0</ele>
        <time>2020-07-25T13:38:19Z</time>
      </trkpt>
      <trkpt lat="43.0963690" lon="-1.2971230">
        <ele>330.6</ele>
        <time>2020-07-25T13:38:20Z</time>
      </trkpt>
      <trkpt lat="43.0963050" lon="-1.2970970">
        <ele>329.8</ele>
        <time>2020-07-25T13:38:21Z</time>
      </trkpt>
      <trkpt lat="43.0962560" lon="-1.2970290">
        <ele>329.0</ele>
        <time>2020-07-25T13:38:22Z</time>
      </trkpt>
      <trkpt lat="43.0962300" lon="-1.2969440">
        <ele>328.4</ele>
        <time>2020-07-25T13:38:23Z</time>
      </trkpt>
      <trkpt lat="43.0962300" lon="-1.2968460">
        <ele>327.6</ele>
        <time>2020-07-25T13:38:24Z</time>
      </trkpt>
      <trkpt lat="43.0962450" lon="-1.2967290">
        <ele>326.8</ele>
        <time>2020-07-25T13:38:25Z</time>
      </trkpt>
      <trkpt lat="43.0962690" lon="-1.2966120">
        <ele>326.0</ele>
        <time>2020-07-25T13:38:26Z</time>
      </trkpt>
      <trkpt lat="43.0963440" lon="-1.2964020">
        <ele>325.0</ele>
        <time>2020-07-25T13:38:28Z</time>
      </trkpt>
      <trkpt lat="43.0964980" lon="-1.2963390">
        <ele>324.0</ele>
        <time>2020-07-25T13:38:30Z</time>
      </trkpt>
      <trkpt lat="43.0966760" lon="-1.2963850">
        <ele>322.2</ele>
        <time>2020-07-25T13:38:32Z</time>
      </trkpt>
      <trkpt lat="43.0967650" lon="-1.2964350">
        <ele>321.0</ele>
        <time>2020-07-25T13:38:33Z</time>
      </trkpt>
      <trkpt lat="43.0968540" lon="-1.2965050">
        <ele>320.0</ele>
        <time>2020-07-25T13:38:34Z</time>
      </trkpt>
      <trkpt lat="43.0969500" lon="-1.2965850">
        <ele>319.0</ele>
        <time>2020-07-25T13:38:35Z</time>
      </trkpt>
      <trkpt lat="43.0970480" lon="-1.2966670">
        <ele>318.4</ele>
        <time>2020-07-25T13:38:36Z</time>
      </trkpt>
      <trkpt lat="43.0972660" lon="-1.2968170">
        <ele>316.6</ele>
        <time>2020-07-25T13:38:38Z</time>
      </trkpt>
      <trkpt lat="43.0974730" lon="-1.2969400">
        <ele>314.8</ele>
        <time>2020-07-25T13:38:40Z</time>
      </trkpt>
      <trkpt lat="43.0975680" lon="-1.2969980">
        <ele>313.8</ele>
        <time>2020-07-25T13:38:41Z</time>
      </trkpt>
      <trkpt lat="43.0976620" lon="-1.2970450">
        <ele>312.8</ele>
        <time>2020-07-25T13:38:42Z</time>
      </trkpt>
      <trkpt lat="43.0977530" lon="-1.2970750">
        <ele>311.6</ele>
        <time>2020-07-25T13:38:43Z</time>
      </trkpt>
      <trkpt lat="43.0978350" lon="-1.2970720">
        <ele>310.8</ele>
        <time>2020-07-25T13:38:44Z</time>
      </trkpt>
      <trkpt lat="43.0978950" lon="-1.2970530">
        <ele>309.2</ele>
        <time>2020-07-25T13:38:45Z</time>
      </trkpt>
      <trkpt lat="43.0979290" lon="-1.2969890">
        <ele>308.4</ele>
        <time>2020-07-25T13:38:46Z</time>
      </trkpt>
      <trkpt lat="43.0979330" lon="-1.2969030">
        <ele>307.8</ele>
        <time>2020-07-25T13:38:47Z</time>
      </trkpt>
      <trkpt lat="43.0979150" lon="-1.2968140">
        <ele>307.0</ele>
        <time>2020-07-25T13:38:48Z</time>
      </trkpt>
      <trkpt lat="43.0978750" lon="-1.2967330">
        <ele>306.4</ele>
        <time>2020-07-25T13:38:49Z</time>
      </trkpt>
      <trkpt lat="43.0977870" lon="-1.2965800">
        <ele>305.8</ele>
        <time>2020-07-25T13:38:51Z</time>
      </trkpt>
      <trkpt lat="43.0977380" lon="-1.2965030">
        <ele>305.4</ele>
        <time>2020-07-25T13:38:52Z</time>
      </trkpt>
      <trkpt lat="43.0976360" lon="-1.2963470">
        <ele>303.6</ele>
        <time>2020-07-25T13:38:54Z</time>
      </trkpt>
      <trkpt lat="43.0974790" lon="-1.2961160">
        <ele>302.8</ele>
        <time>2020-07-25T13:38:57Z</time>
      </trkpt>
      <trkpt lat="43.0973840" lon="-1.2959650">
        <ele>302.6</ele>
        <time>2020-07-25T13:38:59Z</time>
      </trkpt>
      <trkpt lat="43.0973130" lon="-1.2957890">
        <ele>302.6</ele>
        <time>2020-07-25T13:39:01Z</time>
      </trkpt>
      <trkpt lat="43.0972910" lon="-1.2955250">
        <ele>302.6</ele>
        <time>2020-07-25T13:39:04Z</time>
      </trkpt>
      <trkpt lat="43.0973860" lon="-1.2952540">
        <ele>302.6</ele>
        <time>2020-07-25T13:39:08Z</time>
      </trkpt>
      <trkpt lat="43.0975400" lon="-1.2950720">
        <ele>303.0</ele>
        <time>2020-07-25T13:39:12Z</time>
      </trkpt>
      <trkpt lat="43.0975800" lon="-1.2950330">
        <ele>303.8</ele>
        <time>2020-07-25T13:39:13Z</time>
      </trkpt>
      <trkpt lat="43.0977020" lon="-1.2949220">
        <ele>305.4</ele>
        <time>2020-07-25T13:39:16Z</time>
      </trkpt>
      <trkpt lat="43.0978060" lon="-1.2948180">
        <ele>306.4</ele>
        <time>2020-07-25T13:39:19Z</time>
      </trkpt>
      <trkpt lat="43.0979470" lon="-1.2947070">
        <ele>307.6</ele>
        <time>2020-07-25T13:39:23Z</time>
      </trkpt>
      <trkpt lat="43.0980950" lon="-1.2946270">
        <ele>308.8</ele>
        <time>2020-07-25T13:39:27Z</time>
      </trkpt>
      <trkpt lat="43.0981610" lon="-1.2945860">
        <ele>309.0</ele>
        <time>2020-07-25T13:39:29Z</time>
      </trkpt>
      <trkpt lat="43.0983310" lon="-1.2944630">
        <ele>309.8</ele>
        <time>2020-07-25T13:39:34Z</time>
      </trkpt>
      <trkpt lat="43.0983600" lon="-1.2944290">
        <ele>310.0</ele>
        <time>2020-07-25T13:39:35Z</time>
      </trkpt>
      <trkpt lat="43.0984160" lon="-1.2943570">
        <ele>311.2</ele>
        <time>2020-07-25T13:39:37Z</time>
      </trkpt>
      <trkpt lat="43.0985400" lon="-1.2942180">
        <ele>312.0</ele>
        <time>2020-07-25T13:39:41Z</time>
      </trkpt>
      <trkpt lat="43.0986490" lon="-1.2941280">
        <ele>312.2</ele>
        <time>2020-07-25T13:39:44Z</time>
      </trkpt>
      <trkpt lat="43.0987600" lon="-1.2940130">
        <ele>312.6</ele>
        <time>2020-07-25T13:39:47Z</time>
      </trkpt>
      <trkpt lat="43.0989300" lon="-1.2938020">
        <ele>313.2</ele>
        <time>2020-07-25T13:39:52Z</time>
      </trkpt>
      <trkpt lat="43.0989620" lon="-1.2937580">
        <ele>313.6</ele>
        <time>2020-07-25T13:39:53Z</time>
      </trkpt>
      <trkpt lat="43.0990580" lon="-1.2936250">
        <ele>314.2</ele>
        <time>2020-07-25T13:39:56Z</time>
      </trkpt>
      <trkpt lat="43.0992070" lon="-1.2934490">
        <ele>314.6</ele>
        <time>2020-07-25T13:40:00Z</time>
      </trkpt>
      <trkpt lat="43.0994950" lon="-1.2932570">
        <ele>314.4</ele>
        <time>2020-07-25T13:40:06Z</time>
      </trkpt>
      <trkpt lat="43.0996040" lon="-1.2932280">
        <ele>314.6</ele>
        <time>2020-07-25T13:40:08Z</time>
      </trkpt>
      <trkpt lat="43.0997900" lon="-1.2932300">
        <ele>314.0</ele>
        <time>2020-07-25T13:40:11Z</time>
      </trkpt>
      <trkpt lat="43.1000710" lon="-1.2932680">
        <ele>313.4</ele>
        <time>2020-07-25T13:40:15Z</time>
      </trkpt>
      <trkpt lat="43.1002930" lon="-1.2932960">
        <ele>313.0</ele>
        <time>2020-07-25T13:40:18Z</time>
      </trkpt>
      <trkpt lat="43.1005220" lon="-1.2933000">
        <ele>312.6</ele>
        <time>2020-07-25T13:40:21Z</time>
      </trkpt>
      <trkpt lat="43.1006000" lon="-1.2932660">
        <ele>312.6</ele>
        <time>2020-07-25T13:40:22Z</time>
      </trkpt>
      <trkpt lat="43.1006780" lon="-1.2932160">
        <ele>312.4</ele>
        <time>2020-07-25T13:40:23Z</time>
      </trkpt>
      <trkpt lat="43.1008090" lon="-1.2930590">
        <ele>312.2</ele>
        <time>2020-07-25T13:40:25Z</time>
      </trkpt>
      <trkpt lat="43.1008700" lon="-1.2929700">
        <ele>312.0</ele>
        <time>2020-07-25T13:40:26Z</time>
      </trkpt>
      <trkpt lat="43.1011240" lon="-1.2925880">
        <ele>311.6</ele>
        <time>2020-07-25T13:40:30Z</time>
      </trkpt>
      <trkpt lat="43.1011690" lon="-1.2924670">
        <ele>311.4</ele>
        <time>2020-07-25T13:40:31Z</time>
      </trkpt>
      <trkpt lat="43.1012720" lon="-1.2919570">
        <ele>310.0</ele>
        <time>2020-07-25T13:40:35Z</time>
      </trkpt>
      <trkpt lat="43.1013090" lon="-1.2917080">
        <ele>308.6</ele>
        <time>2020-07-25T13:40:37Z</time>
      </trkpt>
      <trkpt lat="43.1013630" lon="-1.2913410">
        <ele>307.4</ele>
        <time>2020-07-25T13:40:40Z</time>
      </trkpt>
      <trkpt lat="43.1014150" lon="-1.2911030">
        <ele>306.4</ele>
        <time>2020-07-25T13:40:42Z</time>
      </trkpt>
      <trkpt lat="43.1014590" lon="-1.2909950">
        <ele>306.0</ele>
        <time>2020-07-25T13:40:43Z</time>
      </trkpt>
      <trkpt lat="43.1015890" lon="-1.2908220">
        <ele>305.6</ele>
        <time>2020-07-25T13:40:45Z</time>
      </trkpt>
      <trkpt lat="43.1017510" lon="-1.2907190">
        <ele>305.2</ele>
        <time>2020-07-25T13:40:47Z</time>
      </trkpt>
      <trkpt lat="43.1018310" lon="-1.2906820">
        <ele>304.8</ele>
        <time>2020-07-25T13:40:48Z</time>
      </trkpt>
      <trkpt lat="43.1020880" lon="-1.2906440">
        <ele>303.8</ele>
        <time>2020-07-25T13:40:51Z</time>
      </trkpt>
      <trkpt lat="43.1021760" lon="-1.2906410">
        <ele>303.6</ele>
        <time>2020-07-25T13:40:52Z</time>
      </trkpt>
      <trkpt lat="43.1023520" lon="-1.2906390">
        <ele>303.0</ele>
        <time>2020-07-25T13:40:54Z</time>
      </trkpt>
      <trkpt lat="43.1024360" lon="-1.2906420">
        <ele>303.0</ele>
        <time>2020-07-25T13:40:55Z</time>
      </trkpt>
      <trkpt lat="43.1025160" lon="-1.2906410">
        <ele>302.8</ele>
        <time>2020-07-25T13:40:56Z</time>
      </trkpt>
      <trkpt lat="43.1028350" lon="-1.2906330">
        <ele>302.4</ele>
        <time>2020-07-25T13:41:00Z</time>
      </trkpt>
      <trkpt lat="43.1031290" lon="-1.2905890">
        <ele>302.4</ele>
        <time>2020-07-25T13:41:04Z</time>
      </trkpt>
      <trkpt lat="43.1032030" lon="-1.2905540">
        <ele>302.4</ele>
        <time>2020-07-25T13:41:05Z</time>
      </trkpt>
      <trkpt lat="43.1036700" lon="-1.2902350">
        <ele>303.0</ele>
        <time>2020-07-25T13:41:12Z</time>
      </trkpt>
      <trkpt lat="43.1039950" lon="-1.2898520">
        <ele>303.4</ele>
        <time>2020-07-25T13:41:18Z</time>
      </trkpt>
      <trkpt lat="43.1041820" lon="-1.2895770">
        <ele>303.8</ele>
        <time>2020-07-25T13:41:22Z</time>
      </trkpt>
      <trkpt lat="43.1042220" lon="-1.2894990">
        <ele>304.0</ele>
        <time>2020-07-25T13:41:23Z</time>
      </trkpt>
      <trkpt lat="43.1042610" lon="-1.2894180">
        <ele>304.0</ele>
        <time>2020-07-25T13:41:24Z</time>
      </trkpt>
      <trkpt lat="43.1043380" lon="-1.2892530">
        <ele>304.2</ele>
        <time>2020-07-25T13:41:26Z</time>
      </trkpt>
      <trkpt lat="43.1044710" lon="-1.2890010">
        <ele>304.4</ele>
        <time>2020-07-25T13:41:29Z</time>
      </trkpt>
      <trkpt lat="43.1047090" lon="-1.2884360">
        <ele>304.2</ele>
        <time>2020-07-25T13:41:35Z</time>
      </trkpt>
      <trkpt lat="43.1049230" lon="-1.2878320">
        <ele>303.4</ele>
        <time>2020-07-25T13:41:41Z</time>
      </trkpt>
      <trkpt lat="43.1049610" lon="-1.2877340">
        <ele>303.0</ele>
        <time>2020-07-25T13:41:42Z</time>
      </trkpt>
      <trkpt lat="43.1051820" lon="-1.2872130">
        <ele>302.6</ele>
        <time>2020-07-25T13:41:47Z</time>
      </trkpt>
      <trkpt lat="43.1053650" lon="-1.2868940">
        <ele>302.0</ele>
        <time>2020-07-25T13:41:50Z</time>
      </trkpt>
      <trkpt lat="43.1054370" lon="-1.2867910">
        <ele>301.6</ele>
        <time>2020-07-25T13:41:51Z</time>
      </trkpt>
      <trkpt lat="43.1056640" lon="-1.2864880">
        <ele>300.4</ele>
        <time>2020-07-25T13:41:54Z</time>
      </trkpt>
      <trkpt lat="43.1058220" lon="-1.2862840">
        <ele>299.2</ele>
        <time>2020-07-25T13:41:56Z</time>
      </trkpt>
      <trkpt lat="43.1059090" lon="-1.2861950">
        <ele>298.8</ele>
        <time>2020-07-25T13:41:57Z</time>
      </trkpt>
      <trkpt lat="43.1060030" lon="-1.2861180">
        <ele>297.4</ele>
        <time>2020-07-25T13:41:58Z</time>
      </trkpt>
      <trkpt lat="43.1061960" lon="-1.2859880">
        <ele>295.6</ele>
        <time>2020-07-25T13:42:00Z</time>
      </trkpt>
      <trkpt lat="43.1062990" lon="-1.2859360">
        <ele>294.8</ele>
        <time>2020-07-25T13:42:01Z</time>
      </trkpt>
      <trkpt lat="43.1064080" lon="-1.2858910">
        <ele>294.0</ele>
        <time>2020-07-25T13:42:02Z</time>
      </trkpt>
      <trkpt lat="43.1065200" lon="-1.2858400">
        <ele>293.0</ele>
        <time>2020-07-25T13:42:03Z</time>
      </trkpt>
      <trkpt lat="43.1067380" lon="-1.2857160">
        <ele>291.0</ele>
        <time>2020-07-25T13:42:05Z</time>
      </trkpt>
      <trkpt lat="43.1069450" lon="-1.2855450">
        <ele>289.8</ele>
        <time>2020-07-25T13:42:07Z</time>
      </trkpt>
      <trkpt lat="43.1070420" lon="-1.2854400">
        <ele>289.2</ele>
        <time>2020-07-25T13:42:08Z</time>
      </trkpt>
      <trkpt lat="43.1071340" lon="-1.2853250">
        <ele>288.6</ele>
        <time>2020-07-25T13:42:09Z</time>
      </trkpt>
      <trkpt lat="43.1073100" lon="-1.2850710">
        <ele>287.2</ele>
        <time>2020-07-25T13:42:11Z</time>
      </trkpt>
      <trkpt lat="43.1074770" lon="-1.2847960">
        <ele>285.6</ele>
        <time>2020-07-25T13:42:13Z</time>
      </trkpt>
      <trkpt lat="43.1076480" lon="-1.2845120">
        <ele>283.8</ele>
        <time>2020-07-25T13:42:15Z</time>
      </trkpt>
      <trkpt lat="43.1078250" lon="-1.2842280">
        <ele>282.2</ele>
        <time>2020-07-25T13:42:17Z</time>
      </trkpt>
      <trkpt lat="43.1080110" lon="-1.2839510">
        <ele>280.4</ele>
        <time>2020-07-25T13:42:19Z</time>
      </trkpt>
      <trkpt lat="43.1081140" lon="-1.2838240">
        <ele>279.2</ele>
        <time>2020-07-25T13:42:20Z</time>
      </trkpt>
      <trkpt lat="43.1082210" lon="-1.2837040">
        <ele>277.8</ele>
        <time>2020-07-25T13:42:21Z</time>
      </trkpt>
      <trkpt lat="43.1083300" lon="-1.2835910">
        <ele>276.6</ele>
        <time>2020-07-25T13:42:22Z</time>
      </trkpt>
      <trkpt lat="43.1084440" lon="-1.2834860">
        <ele>275.4</ele>
        <time>2020-07-25T13:42:23Z</time>
      </trkpt>
      <trkpt lat="43.1086770" lon="-1.2832930">
        <ele>272.4</ele>
        <time>2020-07-25T13:42:25Z</time>
      </trkpt>
      <trkpt lat="43.1087910" lon="-1.2831980">
        <ele>271.0</ele>
        <time>2020-07-25T13:42:26Z</time>
      </trkpt>
      <trkpt lat="43.1089020" lon="-1.2831020">
        <ele>269.6</ele>
        <time>2020-07-25T13:42:27Z</time>
      </trkpt>
      <trkpt lat="43.1090090" lon="-1.2830020">
        <ele>268.2</ele>
        <time>2020-07-25T13:42:28Z</time>
      </trkpt>
      <trkpt lat="43.1091120" lon="-1.2829000">
        <ele>267.0</ele>
        <time>2020-07-25T13:42:29Z</time>
      </trkpt>
      <trkpt lat="43.1092040" lon="-1.2827980">
        <ele>265.8</ele>
        <time>2020-07-25T13:42:30Z</time>
      </trkpt>
      <trkpt lat="43.1092820" lon="-1.2826990">
        <ele>264.8</ele>
        <time>2020-07-25T13:42:31Z</time>
      </trkpt>
      <trkpt lat="43.1093470" lon="-1.2826070">
        <ele>263.4</ele>
        <time>2020-07-25T13:42:32Z</time>
      </trkpt>
      <trkpt lat="43.1093910" lon="-1.2825070">
        <ele>262.4</ele>
        <time>2020-07-25T13:42:33Z</time>
      </trkpt>
      <trkpt lat="43.1094090" lon="-1.2823940">
        <ele>262.0</ele>
        <time>2020-07-25T13:42:34Z</time>
      </trkpt>
      <trkpt lat="43.1094200" lon="-1.2821590">
        <ele>261.4</ele>
        <time>2020-07-25T13:42:36Z</time>
      </trkpt>
      <trkpt lat="43.1095460" lon="-1.2818570">
        <ele>261.2</ele>
        <time>2020-07-25T13:42:39Z</time>
      </trkpt>
      <trkpt lat="43.1095990" lon="-1.2817650">
        <ele>261.2</ele>
        <time>2020-07-25T13:42:40Z</time>
      </trkpt>
      <trkpt lat="43.1096450" lon="-1.2816670">
        <ele>261.2</ele>
        <time>2020-07-25T13:42:41Z</time>
      </trkpt>
      <trkpt lat="43.1096960" lon="-1.2814580">
        <ele>261.2</ele>
        <time>2020-07-25T13:42:43Z</time>
      </trkpt>
      <trkpt lat="43.1096940" lon="-1.2811820">
        <ele>261.2</ele>
        <time>2020-07-25T13:42:46Z</time>
      </trkpt>
      <trkpt lat="43.1096950" lon="-1.2808610">
        <ele>261.4</ele>
        <time>2020-07-25T13:42:50Z</time>
      </trkpt>
      <trkpt lat="43.1098560" lon="-1.2806230">
        <ele>261.8</ele>
        <time>2020-07-25T13:42:54Z</time>
      </trkpt>
      <trkpt lat="43.1101090" lon="-1.2802690">
        <ele>262.0</ele>
        <time>2020-07-25T13:42:59Z</time>
      </trkpt>
      <trkpt lat="43.1102680" lon="-1.2799080">
        <ele>261.8</ele>
        <time>2020-07-25T13:43:03Z</time>
      </trkpt>
      <trkpt lat="43.1104200" lon="-1.2796300">
        <ele>260.6</ele>
        <time>2020-07-25T13:43:06Z</time>
      </trkpt>
      <trkpt lat="43.1105370" lon="-1.2794460">
        <ele>259.4</ele>
        <time>2020-07-25T13:43:08Z</time>
      </trkpt>
      <trkpt lat="43.1106450" lon="-1.2792420">
        <ele>258.8</ele>
        <time>2020-07-25T13:43:10Z</time>
      </trkpt>
      <trkpt lat="43.1106870" lon="-1.2791250">
        <ele>258.8</ele>
        <time>2020-07-25T13:43:11Z</time>
      </trkpt>
      <trkpt lat="43.1107590" lon="-1.2788800">
        <ele>258.2</ele>
        <time>2020-07-25T13:43:13Z</time>
      </trkpt>
      <trkpt lat="43.1108450" lon="-1.2786630">
        <ele>256.6</ele>
        <time>2020-07-25T13:43:15Z</time>
      </trkpt>
      <trkpt lat="43.1109020" lon="-1.2785720">
        <ele>256.2</ele>
        <time>2020-07-25T13:43:16Z</time>
      </trkpt>
      <trkpt lat="43.1110340" lon="-1.2784450">
        <ele>255.2</ele>
        <time>2020-07-25T13:43:18Z</time>
      </trkpt>
      <trkpt lat="43.1111070" lon="-1.2784030">
        <ele>254.8</ele>
        <time>2020-07-25T13:43:19Z</time>
      </trkpt>
      <trkpt lat="43.1111730" lon="-1.2783580">
        <ele>254.8</ele>
        <time>2020-07-25T13:43:20Z</time>
      </trkpt>
      <trkpt lat="43.1114200" lon="-1.2781690">
        <ele>254.6</ele>
        <time>2020-07-25T13:43:24Z</time>
      </trkpt>
      <trkpt lat="43.1117540" lon="-1.2777730">
        <ele>255.0</ele>
        <time>2020-07-25T13:43:31Z</time>
      </trkpt>
      <trkpt lat="43.1118900" lon="-1.2775960">
        <ele>256.4</ele>
        <time>2020-07-25T13:43:34Z</time>
      </trkpt>
      <trkpt lat="43.1120280" lon="-1.2774320">
        <ele>257.6</ele>
        <time>2020-07-25T13:43:37Z</time>
      </trkpt>
      <trkpt lat="43.1120750" lon="-1.2773840">
        <ele>258.0</ele>
        <time>2020-07-25T13:43:38Z</time>
      </trkpt>
      <trkpt lat="43.1123260" lon="-1.2771250">
        <ele>258.6</ele>
        <time>2020-07-25T13:43:43Z</time>
      </trkpt>
      <trkpt lat="43.1125380" lon="-1.2768900">
        <ele>258.6</ele>
        <time>2020-07-25T13:43:47Z</time>
      </trkpt>
      <trkpt lat="43.1126340" lon="-1.2767560">
        <ele>258.6</ele>
        <time>2020-07-25T13:43:49Z</time>
      </trkpt>
      <trkpt lat="43.1128120" lon="-1.2763960">
        <ele>258.8</ele>
        <time>2020-07-25T13:43:54Z</time>
      </trkpt>
      <trkpt lat="43.1128340" lon="-1.2763190">
        <ele>258.6</ele>
        <time>2020-07-25T13:43:55Z</time>
      </trkpt>
      <trkpt lat="43.1128850" lon="-1.2759970">
        <ele>258.6</ele>
        <time>2020-07-25T13:43:59Z</time>
      </trkpt>
      <trkpt lat="43.1129040" lon="-1.2758360">
        <ele>258.8</ele>
        <time>2020-07-25T13:44:01Z</time>
      </trkpt>
      <trkpt lat="43.1129420" lon="-1.2755480">
        <ele>259.0</ele>
        <time>2020-07-25T13:44:05Z</time>
      </trkpt>
      <trkpt lat="43.1129670" lon="-1.2754020">
        <ele>259.2</ele>
        <time>2020-07-25T13:44:07Z</time>
      </trkpt>
      <trkpt lat="43.1130220" lon="-1.2751230">
        <ele>260.2</ele>
        <time>2020-07-25T13:44:11Z</time>
      </trkpt>
      <trkpt lat="43.1130830" lon="-1.2748510">
        <ele>261.2</ele>
        <time>2020-07-25T13:44:15Z</time>
      </trkpt>
      <trkpt lat="43.1131160" lon="-1.2747190">
        <ele>261.4</ele>
        <time>2020-07-25T13:44:17Z</time>
      </trkpt>
      <trkpt lat="43.1131980" lon="-1.2744540">
        <ele>261.8</ele>
        <time>2020-07-25T13:44:21Z</time>
      </trkpt>
      <trkpt lat="43.1134090" lon="-1.2739980">
        <ele>262.0</ele>
        <time>2020-07-25T13:44:27Z</time>
      </trkpt>
      <trkpt lat="43.1135800" lon="-1.2737460">
        <ele>262.0</ele>
        <time>2020-07-25T13:44:30Z</time>
      </trkpt>
      <trkpt lat="43.1136470" lon="-1.2736770">
        <ele>261.8</ele>
        <time>2020-07-25T13:44:31Z</time>
      </trkpt>
      <trkpt lat="43.1138930" lon="-1.2734960">
        <ele>261.0</ele>
        <time>2020-07-25T13:44:34Z</time>
      </trkpt>
      <trkpt lat="43.1139810" lon="-1.2734350">
        <ele>260.6</ele>
        <time>2020-07-25T13:44:35Z</time>
      </trkpt>
      <trkpt lat="43.1140640" lon="-1.2733720">
        <ele>260.0</ele>
        <time>2020-07-25T13:44:36Z</time>
      </trkpt>
      <trkpt lat="43.1143210" lon="-1.2731870">
        <ele>258.6</ele>
        <time>2020-07-25T13:44:39Z</time>
      </trkpt>
      <trkpt lat="43.1145130" lon="-1.2730850">
        <ele>257.8</ele>
        <time>2020-07-25T13:44:41Z</time>
      </trkpt>
      <trkpt lat="43.1146100" lon="-1.2730440">
        <ele>256.8</ele>
        <time>2020-07-25T13:44:42Z</time>
      </trkpt>
      <trkpt lat="43.1148190" lon="-1.2730060">
        <ele>255.6</ele>
        <time>2020-07-25T13:44:44Z</time>
      </trkpt>
      <trkpt lat="43.1149260" lon="-1.2729890">
        <ele>255.0</ele>
        <time>2020-07-25T13:44:45Z</time>
      </trkpt>
      <trkpt lat="43.1150330" lon="-1.2729690">
        <ele>254.4</ele>
        <time>2020-07-25T13:44:46Z</time>
      </trkpt>
      <trkpt lat="43.1152510" lon="-1.2729150">
        <ele>253.2</ele>
        <time>2020-07-25T13:44:48Z</time>
      </trkpt>
      <trkpt lat="43.1153550" lon="-1.2728670">
        <ele>252.6</ele>
        <time>2020-07-25T13:44:49Z</time>
      </trkpt>
      <trkpt lat="43.1154460" lon="-1.2727960">
        <ele>252.0</ele>
        <time>2020-07-25T13:44:50Z</time>
      </trkpt>
      <trkpt lat="43.1156040" lon="-1.2726160">
        <ele>251.0</ele>
        <time>2020-07-25T13:44:52Z</time>
      </trkpt>
      <trkpt lat="43.1156680" lon="-1.2725130">
        <ele>250.4</ele>
        <time>2020-07-25T13:44:53Z</time>
      </trkpt>
      <trkpt lat="43.1157380" lon="-1.2724150">
        <ele>249.8</ele>
        <time>2020-07-25T13:44:54Z</time>
      </trkpt>
      <trkpt lat="43.1158360" lon="-1.2721830">
        <ele>248.2</ele>
        <time>2020-07-25T13:44:56Z</time>
      </trkpt>
      <trkpt lat="43.1158820" lon="-1.2720650">
        <ele>247.4</ele>
        <time>2020-07-25T13:44:57Z</time>
      </trkpt>
      <trkpt lat="43.1159220" lon="-1.2719500">
        <ele>246.8</ele>
        <time>2020-07-25T13:44:58Z</time>
      </trkpt>
      <trkpt lat="43.1160780" lon="-1.2715060">
        <ele>246.0</ele>
        <time>2020-07-25T13:45:02Z</time>
      </trkpt>
      <trkpt lat="43.1162620" lon="-1.2709210">
        <ele>245.8</ele>
        <time>2020-07-25T13:45:07Z</time>
      </trkpt>
      <trkpt lat="43.1163080" lon="-1.2707990">
        <ele>245.6</ele>
        <time>2020-07-25T13:45:08Z</time>
      </trkpt>
      <trkpt lat="43.1164240" lon="-1.2705760">
        <ele>245.6</ele>
        <time>2020-07-25T13:45:10Z</time>
      </trkpt>
      <trkpt lat="43.1164970" lon="-1.2704790">
        <ele>245.6</ele>
        <time>2020-07-25T13:45:11Z</time>
      </trkpt>
      <trkpt lat="43.1168310" lon="-1.2702050">
        <ele>245.2</ele>
        <time>2020-07-25T13:45:15Z</time>
      </trkpt>
      <trkpt lat="43.1169180" lon="-1.2701590">
        <ele>245.0</ele>
        <time>2020-07-25T13:45:16Z</time>
      </trkpt>
      <trkpt lat="43.1170880" lon="-1.2700850">
        <ele>244.8</ele>
        <time>2020-07-25T13:45:18Z</time>
      </trkpt>
      <trkpt lat="43.1172570" lon="-1.2700220">
        <ele>244.6</ele>
        <time>2020-07-25T13:45:20Z</time>
      </trkpt>
      <trkpt lat="43.1175110" lon="-1.2699260">
        <ele>243.6</ele>
        <time>2020-07-25T13:45:23Z</time>
      </trkpt>
      <trkpt lat="43.1177680" lon="-1.2698300">
        <ele>242.6</ele>
        <time>2020-07-25T13:45:26Z</time>
      </trkpt>
      <trkpt lat="43.1178530" lon="-1.2698000">
        <ele>242.2</ele>
        <time>2020-07-25T13:45:27Z</time>
      </trkpt>
      <trkpt lat="43.1180210" lon="-1.2697490">
        <ele>241.2</ele>
        <time>2020-07-25T13:45:29Z</time>
      </trkpt>
      <trkpt lat="43.1183310" lon="-1.2696820">
        <ele>240.8</ele>
        <time>2020-07-25T13:45:33Z</time>
      </trkpt>
      <trkpt lat="43.1187380" lon="-1.2696180">
        <ele>241.0</ele>
        <time>2020-07-25T13:45:39Z</time>
      </trkpt>
      <trkpt lat="43.1189890" lon="-1.2695910">
        <ele>242.4</ele>
        <time>2020-07-25T13:45:43Z</time>
      </trkpt>
      <trkpt lat="43.1192310" lon="-1.2695690">
        <ele>242.8</ele>
        <time>2020-07-25T13:45:47Z</time>
      </trkpt>
      <trkpt lat="43.1196520" lon="-1.2695120">
        <ele>243.4</ele>
        <time>2020-07-25T13:45:54Z</time>
      </trkpt>
      <trkpt lat="43.1199470" lon="-1.2694660">
        <ele>243.8</ele>
        <time>2020-07-25T13:45:59Z</time>
      </trkpt>
      <trkpt lat="43.1203310" lon="-1.2694020">
        <ele>244.2</ele>
        <time>2020-07-25T13:46:05Z</time>
      </trkpt>
      <trkpt lat="43.1207110" lon="-1.2694210">
        <ele>244.2</ele>
        <time>2020-07-25T13:46:10Z</time>
      </trkpt>
      <trkpt lat="43.1211440" lon="-1.2695710">
        <ele>243.8</ele>
        <time>2020-07-25T13:46:15Z</time>
      </trkpt>
      <trkpt lat="43.1215280" lon="-1.2697400">
        <ele>242.0</ele>
        <time>2020-07-25T13:46:19Z</time>
      </trkpt>
      <trkpt lat="43.1217350" lon="-1.2698420">
        <ele>241.0</ele>
        <time>2020-07-25T13:46:21Z</time>
      </trkpt>
      <trkpt lat="43.1220260" lon="-1.2700040">
        <ele>239.0</ele>
        <time>2020-07-25T13:46:24Z</time>
      </trkpt>
      <trkpt lat="43.1221140" lon="-1.2700590">
        <ele>238.2</ele>
        <time>2020-07-25T13:46:25Z</time>
      </trkpt>
      <trkpt lat="43.1221980" lon="-1.2701080">
        <ele>237.4</ele>
        <time>2020-07-25T13:46:26Z</time>
      </trkpt>
      <trkpt lat="43.1224300" lon="-1.2702030">
        <ele>236.6</ele>
        <time>2020-07-25T13:46:29Z</time>
      </trkpt>
      <trkpt lat="43.1225040" lon="-1.2702160">
        <ele>236.4</ele>
        <time>2020-07-25T13:46:30Z</time>
      </trkpt>
      <trkpt lat="43.1227240" lon="-1.2702090">
        <ele>236.4</ele>
        <time>2020-07-25T13:46:33Z</time>
      </trkpt>
      <trkpt lat="43.1231730" lon="-1.2700830">
        <ele>236.8</ele>
        <time>2020-07-25T13:46:39Z</time>
      </trkpt>
      <trkpt lat="43.1237230" lon="-1.2698800">
        <ele>236.6</ele>
        <time>2020-07-25T13:46:46Z</time>
      </trkpt>
      <trkpt lat="43.1238010" lon="-1.2698490">
        <ele>236.4</ele>
        <time>2020-07-25T13:46:47Z</time>
      </trkpt>
      <trkpt lat="43.1241110" lon="-1.2697300">
        <ele>235.2</ele>
        <time>2020-07-25T13:46:51Z</time>
      </trkpt>
      <trkpt lat="43.1245070" lon="-1.2695760">
        <ele>234.6</ele>
        <time>2020-07-25T13:46:56Z</time>
      </trkpt>
      <trkpt lat="43.1245890" lon="-1.2695460">
        <ele>234.2</ele>
        <time>2020-07-25T13:46:57Z</time>
      </trkpt>
      <trkpt lat="43.1251790" lon="-1.2693210">
        <ele>233.2</ele>
        <time>2020-07-25T13:47:04Z</time>
      </trkpt>
      <trkpt lat="43.1253500" lon="-1.2692560">
        <ele>232.8</ele>
        <time>2020-07-25T13:47:06Z</time>
      </trkpt>
      <trkpt lat="43.1257860" lon="-1.2690870">
        <ele>232.2</ele>
        <time>2020-07-25T13:47:11Z</time>
      </trkpt>
      <trkpt lat="43.1261130" lon="-1.2689440">
        <ele>231.0</ele>
        <time>2020-07-25T13:47:15Z</time>
      </trkpt>
      <trkpt lat="43.1266310" lon="-1.2686400">
        <ele>230.6</ele>
        <time>2020-07-25T13:47:22Z</time>
      </trkpt>
      <trkpt lat="43.1271200" lon="-1.2684750">
        <ele>230.4</ele>
        <time>2020-07-25T13:47:28Z</time>
      </trkpt>
      <trkpt lat="43.1275100" lon="-1.2683700">
        <ele>230.0</ele>
        <time>2020-07-25T13:47:33Z</time>
      </trkpt>
      <trkpt lat="43.1275850" lon="-1.2683440">
        <ele>229.6</ele>
        <time>2020-07-25T13:47:34Z</time>
      </trkpt>
      <trkpt lat="43.1277290" lon="-1.2682950">
        <ele>228.8</ele>
        <time>2020-07-25T13:47:36Z</time>
      </trkpt>
      <trkpt lat="43.1280910" lon="-1.2681480">
        <ele>228.0</ele>
        <time>2020-07-25T13:47:41Z</time>
      </trkpt>
      <trkpt lat="43.1282410" lon="-1.2680910">
        <ele>227.8</ele>
        <time>2020-07-25T13:47:43Z</time>
      </trkpt>
      <trkpt lat="43.1285320" lon="-1.2679490">
        <ele>227.6</ele>
        <time>2020-07-25T13:47:47Z</time>
      </trkpt>
      <trkpt lat="43.1289030" lon="-1.2676440">
        <ele>227.6</ele>
        <time>2020-07-25T13:47:53Z</time>
      </trkpt>
      <trkpt lat="43.1291700" lon="-1.2672970">
        <ele>227.8</ele>
        <time>2020-07-25T13:47:59Z</time>
      </trkpt>
      <trkpt lat="43.1293710" lon="-1.2670630">
        <ele>229.2</ele>
        <time>2020-07-25T13:48:04Z</time>
      </trkpt>
      <trkpt lat="43.1294160" lon="-1.2670260">
        <ele>229.6</ele>
        <time>2020-07-25T13:48:05Z</time>
      </trkpt>
      <trkpt lat="43.1295090" lon="-1.2669690">
        <ele>230.2</ele>
        <time>2020-07-25T13:48:07Z</time>
      </trkpt>
      <trkpt lat="43.1296030" lon="-1.2669170">
        <ele>230.8</ele>
        <time>2020-07-25T13:48:09Z</time>
      </trkpt>
      <trkpt lat="43.1296500" lon="-1.2668980">
        <ele>231.2</ele>
        <time>2020-07-25T13:48:10Z</time>
      </trkpt>
      <trkpt lat="43.1296960" lon="-1.2668820">
        <ele>231.4</ele>
        <time>2020-07-25T13:48:11Z</time>
      </trkpt>
      <trkpt lat="43.1299540" lon="-1.2668040">
        <ele>232.4</ele>
        <time>2020-07-25T13:48:16Z</time>
      </trkpt>
      <trkpt lat="43.1303320" lon="-1.2666820">
        <ele>232.6</ele>
        <time>2020-07-25T13:48:22Z</time>
      </trkpt>
      <trkpt lat="43.1306980" lon="-1.2666180">
        <ele>232.4</ele>
        <time>2020-07-25T13:48:27Z</time>
      </trkpt>
      <trkpt lat="43.1310070" lon="-1.2665870">
        <ele>231.2</ele>
        <time>2020-07-25T13:48:31Z</time>
      </trkpt>
      <trkpt lat="43.1312380" lon="-1.2665510">
        <ele>231.0</ele>
        <time>2020-07-25T13:48:34Z</time>
      </trkpt>
      <trkpt lat="43.1316980" lon="-1.2664620">
        <ele>230.2</ele>
        <time>2020-07-25T13:48:40Z</time>
      </trkpt>
      <trkpt lat="43.1319200" lon="-1.2664210">
        <ele>229.6</ele>
        <time>2020-07-25T13:48:43Z</time>
      </trkpt>
      <trkpt lat="43.1319910" lon="-1.2664140">
        <ele>229.4</ele>
        <time>2020-07-25T13:48:44Z</time>
      </trkpt>
      <trkpt lat="43.1321380" lon="-1.2664250">
        <ele>229.2</ele>
        <time>2020-07-25T13:48:46Z</time>
      </trkpt>
      <trkpt lat="43.1322120" lon="-1.2664250">
        <ele>229.2</ele>
        <time>2020-07-25T13:48:47Z</time>
      </trkpt>
      <trkpt lat="43.1322850" lon="-1.2664220">
        <ele>229.2</ele>
        <time>2020-07-25T13:48:48Z</time>
      </trkpt>
      <trkpt lat="43.1327070" lon="-1.2664480">
        <ele>229.2</ele>
        <time>2020-07-25T13:48:54Z</time>
      </trkpt>
      <trkpt lat="43.1330350" lon="-1.2665690">
        <ele>229.6</ele>
        <time>2020-07-25T13:48:59Z</time>
      </trkpt>
      <trkpt lat="43.1332600" lon="-1.2667630">
        <ele>230.6</ele>
        <time>2020-07-25T13:49:03Z</time>
      </trkpt>
      <trkpt lat="43.1333120" lon="-1.2668180">
        <ele>231.0</ele>
        <time>2020-07-25T13:49:04Z</time>
      </trkpt>
      <trkpt lat="43.1334170" lon="-1.2669270">
        <ele>231.2</ele>
        <time>2020-07-25T13:49:06Z</time>
      </trkpt>
      <trkpt lat="43.1334720" lon="-1.2669740">
        <ele>231.2</ele>
        <time>2020-07-25T13:49:07Z</time>
      </trkpt>
      <trkpt lat="43.1336410" lon="-1.2670690">
        <ele>231.2</ele>
        <time>2020-07-25T13:49:10Z</time>
      </trkpt>
      <trkpt lat="43.1337530" lon="-1.2671020">
        <ele>231.4</ele>
        <time>2020-07-25T13:49:12Z</time>
      </trkpt>
      <trkpt lat="43.1339770" lon="-1.2671280">
        <ele>231.4</ele>
        <time>2020-07-25T13:49:16Z</time>
      </trkpt>
      <trkpt lat="43.1340900" lon="-1.2671170">
        <ele>231.6</ele>
        <time>2020-07-25T13:49:18Z</time>
      </trkpt>
      <trkpt lat="43.1342590" lon="-1.2670530">
        <ele>231.8</ele>
        <time>2020-07-25T13:49:21Z</time>
      </trkpt>
      <trkpt lat="43.1343130" lon="-1.2670180">
        <ele>231.8</ele>
        <time>2020-07-25T13:49:22Z</time>
      </trkpt>
      <trkpt lat="43.1344620" lon="-1.2668660">
        <ele>232.0</ele>
        <time>2020-07-25T13:49:25Z</time>
      </trkpt>
      <trkpt lat="43.1345590" lon="-1.2667340">
        <ele>232.0</ele>
        <time>2020-07-25T13:49:27Z</time>
      </trkpt>
      <trkpt lat="43.1346900" lon="-1.2664820">
        <ele>232.0</ele>
        <time>2020-07-25T13:49:30Z</time>
      </trkpt>
      <trkpt lat="43.1347280" lon="-1.2663830">
        <ele>231.8</ele>
        <time>2020-07-25T13:49:31Z</time>
      </trkpt>
      <trkpt lat="43.1348060" lon="-1.2660440">
        <ele>231.4</ele>
        <time>2020-07-25T13:49:34Z</time>
      </trkpt>
      <trkpt lat="43.1348430" lon="-1.2657910">
        <ele>231.0</ele>
        <time>2020-07-25T13:49:36Z</time>
      </trkpt>
      <trkpt lat="43.1349030" lon="-1.2653870">
        <ele>229.4</ele>
        <time>2020-07-25T13:49:39Z</time>
      </trkpt>
      <trkpt lat="43.1349230" lon="-1.2652480">
        <ele>229.2</ele>
        <time>2020-07-25T13:49:40Z</time>
      </trkpt>
      <trkpt lat="43.1349500" lon="-1.2651090">
        <ele>228.6</ele>
        <time>2020-07-25T13:49:41Z</time>
      </trkpt>
      <trkpt lat="43.1349870" lon="-1.2649740">
        <ele>228.0</ele>
        <time>2020-07-25T13:49:42Z</time>
      </trkpt>
      <trkpt lat="43.1350350" lon="-1.2648490">
        <ele>227.6</ele>
        <time>2020-07-25T13:49:43Z</time>
      </trkpt>
      <trkpt lat="43.1350910" lon="-1.2647360">
        <ele>227.0</ele>
        <time>2020-07-25T13:49:44Z</time>
      </trkpt>
      <trkpt lat="43.1352320" lon="-1.2645560">
        <ele>226.0</ele>
        <time>2020-07-25T13:49:46Z</time>
      </trkpt>
      <trkpt lat="43.1354020" lon="-1.2644140">
        <ele>224.8</ele>
        <time>2020-07-25T13:49:48Z</time>
      </trkpt>
      <trkpt lat="43.1354990" lon="-1.2643740">
        <ele>224.6</ele>
        <time>2020-07-25T13:49:49Z</time>
      </trkpt>
      <trkpt lat="43.1358270" lon="-1.2643770">
        <ele>223.8</ele>
        <time>2020-07-25T13:49:52Z</time>
      </trkpt>
      <trkpt lat="43.1359410" lon="-1.2644080">
        <ele>223.6</ele>
        <time>2020-07-25T13:49:53Z</time>
      </trkpt>
      <trkpt lat="43.1360560" lon="-1.2644400">
        <ele>223.4</ele>
        <time>2020-07-25T13:49:54Z</time>
      </trkpt>
      <trkpt lat="43.1361720" lon="-1.2644440">
        <ele>222.6</ele>
        <time>2020-07-25T13:49:55Z</time>
      </trkpt>
      <trkpt lat="43.1362870" lon="-1.2644300">
        <ele>221.8</ele>
        <time>2020-07-25T13:49:56Z</time>
      </trkpt>
      <trkpt lat="43.1363980" lon="-1.2643950">
        <ele>220.6</ele>
        <time>2020-07-25T13:49:57Z</time>
      </trkpt>
      <trkpt lat="43.1365970" lon="-1.2642820">
        <ele>219.0</ele>
        <time>2020-07-25T13:49:59Z</time>
      </trkpt>
      <trkpt lat="43.1367710" lon="-1.2641230">
        <ele>217.4</ele>
        <time>2020-07-25T13:50:01Z</time>
      </trkpt>
      <trkpt lat="43.1369410" lon="-1.2639590">
        <ele>216.2</ele>
        <time>2020-07-25T13:50:03Z</time>
      </trkpt>
      <trkpt lat="43.1373600" lon="-1.2635480">
        <ele>215.2</ele>
        <time>2020-07-25T13:50:08Z</time>
      </trkpt>
      <trkpt lat="43.1376110" lon="-1.2633090">
        <ele>215.0</ele>
        <time>2020-07-25T13:50:11Z</time>
      </trkpt>
      <trkpt lat="43.1381040" lon="-1.2628440">
        <ele>214.6</ele>
        <time>2020-07-25T13:50:17Z</time>
      </trkpt>
      <trkpt lat="43.1385910" lon="-1.2623730">
        <ele>214.6</ele>
        <time>2020-07-25T13:50:23Z</time>
      </trkpt>
      <trkpt lat="43.1386710" lon="-1.2622940">
        <ele>214.6</ele>
        <time>2020-07-25T13:50:24Z</time>
      </trkpt>
      <trkpt lat="43.1391400" lon="-1.2618400">
        <ele>214.6</ele>
        <time>2020-07-25T13:50:30Z</time>
      </trkpt>
      <trkpt lat="43.1392230" lon="-1.2617740">
        <ele>214.4</ele>
        <time>2020-07-25T13:50:31Z</time>
      </trkpt>
      <trkpt lat="43.1393080" lon="-1.2617210">
        <ele>214.2</ele>
        <time>2020-07-25T13:50:32Z</time>
      </trkpt>
      <trkpt lat="43.1395740" lon="-1.2616260">
        <ele>213.6</ele>
        <time>2020-07-25T13:50:35Z</time>
      </trkpt>
      <trkpt lat="43.1396640" lon="-1.2616130">
        <ele>213.4</ele>
        <time>2020-07-25T13:50:36Z</time>
      </trkpt>
      <trkpt lat="43.1399840" lon="-1.2616300">
        <ele>213.4</ele>
        <time>2020-07-25T13:50:40Z</time>
      </trkpt>
      <trkpt lat="43.1404080" lon="-1.2617400">
        <ele>213.6</ele>
        <time>2020-07-25T13:50:46Z</time>
      </trkpt>
      <trkpt lat="43.1408170" lon="-1.2618910">
        <ele>214.0</ele>
        <time>2020-07-25T13:50:51Z</time>
      </trkpt>
      <trkpt lat="43.1409140" lon="-1.2619120">
        <ele>214.2</ele>
        <time>2020-07-25T13:50:52Z</time>
      </trkpt>
      <trkpt lat="43.1412250" lon="-1.2619580">
        <ele>214.2</ele>
        <time>2020-07-25T13:50:55Z</time>
      </trkpt>
      <trkpt lat="43.1416620" lon="-1.2619680">
        <ele>212.6</ele>
        <time>2020-07-25T13:50:59Z</time>
      </trkpt>
      <trkpt lat="43.1418710" lon="-1.2619520">
        <ele>211.4</ele>
        <time>2020-07-25T13:51:01Z</time>
      </trkpt>
      <trkpt lat="43.1419700" lon="-1.2619340">
        <ele>210.8</ele>
        <time>2020-07-25T13:51:02Z</time>
      </trkpt>
      <trkpt lat="43.1421610" lon="-1.2618810">
        <ele>210.0</ele>
        <time>2020-07-25T13:51:04Z</time>
      </trkpt>
      <trkpt lat="43.1424140" lon="-1.2617410">
        <ele>209.6</ele>
        <time>2020-07-25T13:51:07Z</time>
      </trkpt>
      <trkpt lat="43.1427920" lon="-1.2614540">
        <ele>209.0</ele>
        <time>2020-07-25T13:51:12Z</time>
      </trkpt>
      <trkpt lat="43.1428690" lon="-1.2613960">
        <ele>209.0</ele>
        <time>2020-07-25T13:51:13Z</time>
      </trkpt>
      <trkpt lat="43.1434160" lon="-1.2610050">
        <ele>209.2</ele>
        <time>2020-07-25T13:51:20Z</time>
      </trkpt>
      <trkpt lat="43.1439490" lon="-1.2605590">
        <ele>208.4</ele>
        <time>2020-07-25T13:51:27Z</time>
      </trkpt>
      <trkpt lat="43.1440190" lon="-1.2604840">
        <ele>208.0</ele>
        <time>2020-07-25T13:51:28Z</time>
      </trkpt>
      <trkpt lat="43.1443500" lon="-1.2600350">
        <ele>207.6</ele>
        <time>2020-07-25T13:51:33Z</time>
      </trkpt>
      <trkpt lat="43.1447120" lon="-1.2594150">
        <ele>207.0</ele>
        <time>2020-07-25T13:51:39Z</time>
      </trkpt>
      <trkpt lat="43.1448850" lon="-1.2590910">
        <ele>206.0</ele>
        <time>2020-07-25T13:51:42Z</time>
      </trkpt>
      <trkpt lat="43.1449370" lon="-1.2589730">
        <ele>205.6</ele>
        <time>2020-07-25T13:51:43Z</time>
      </trkpt>
      <trkpt lat="43.1449820" lon="-1.2588500">
        <ele>205.0</ele>
        <time>2020-07-25T13:51:44Z</time>
      </trkpt>
      <trkpt lat="43.1450200" lon="-1.2587220">
        <ele>204.6</ele>
        <time>2020-07-25T13:51:45Z</time>
      </trkpt>
      <trkpt lat="43.1450770" lon="-1.2584570">
        <ele>204.0</ele>
        <time>2020-07-25T13:51:47Z</time>
      </trkpt>
      <trkpt lat="43.1450890" lon="-1.2580640">
        <ele>203.8</ele>
        <time>2020-07-25T13:51:50Z</time>
      </trkpt>
      <trkpt lat="43.1451270" lon="-1.2576070">
        <ele>203.8</ele>
        <time>2020-07-25T13:51:54Z</time>
      </trkpt>
      <trkpt lat="43.1451530" lon="-1.2575060">
        <ele>203.8</ele>
        <time>2020-07-25T13:51:55Z</time>
      </trkpt>
      <trkpt lat="43.1452800" lon="-1.2571390">
        <ele>204.0</ele>
        <time>2020-07-25T13:51:59Z</time>
      </trkpt>
      <trkpt lat="43.1454620" lon="-1.2566240">
        <ele>205.8</ele>
        <time>2020-07-25T13:52:05Z</time>
      </trkpt>
      <trkpt lat="43.1455420" lon="-1.2564790">
        <ele>206.2</ele>
        <time>2020-07-25T13:52:07Z</time>
      </trkpt>
      <trkpt lat="43.1457610" lon="-1.2563000">
        <ele>206.8</ele>
        <time>2020-07-25T13:52:11Z</time>
      </trkpt>
      <trkpt lat="43.1459540" lon="-1.2562550">
        <ele>207.0</ele>
        <time>2020-07-25T13:52:14Z</time>
      </trkpt>
      <trkpt lat="43.1460230" lon="-1.2562390">
        <ele>207.4</ele>
        <time>2020-07-25T13:52:15Z</time>
      </trkpt>
      <trkpt lat="43.1460910" lon="-1.2562140">
        <ele>207.4</ele>
        <time>2020-07-25T13:52:16Z</time>
      </trkpt>
      <trkpt lat="43.1462760" lon="-1.2560560">
        <ele>207.4</ele>
        <time>2020-07-25T13:52:19Z</time>
      </trkpt>
      <trkpt lat="43.1463770" lon="-1.2559040">
        <ele>207.4</ele>
        <time>2020-07-25T13:52:21Z</time>
      </trkpt>
      <trkpt lat="43.1465170" lon="-1.2556520">
        <ele>207.0</ele>
        <time>2020-07-25T13:52:24Z</time>
      </trkpt>
      <trkpt lat="43.1467300" lon="-1.2553330">
        <ele>205.8</ele>
        <time>2020-07-25T13:52:28Z</time>
      </trkpt>
      <trkpt lat="43.1468570" lon="-1.2552040">
        <ele>205.4</ele>
        <time>2020-07-25T13:52:30Z</time>
      </trkpt>
      <trkpt lat="43.1469980" lon="-1.2550960">
        <ele>204.8</ele>
        <time>2020-07-25T13:52:32Z</time>
      </trkpt>
      <trkpt lat="43.1470720" lon="-1.2550480">
        <ele>204.6</ele>
        <time>2020-07-25T13:52:33Z</time>
      </trkpt>
      <trkpt lat="43.1472950" lon="-1.2549180">
        <ele>203.8</ele>
        <time>2020-07-25T13:52:36Z</time>
      </trkpt>
      <trkpt lat="43.1474450" lon="-1.2548340">
        <ele>203.4</ele>
        <time>2020-07-25T13:52:38Z</time>
      </trkpt>
      <trkpt lat="43.1479200" lon="-1.2545830">
        <ele>202.4</ele>
        <time>2020-07-25T13:52:44Z</time>
      </trkpt>
      <trkpt lat="43.1480010" lon="-1.2545370">
        <ele>202.4</ele>
        <time>2020-07-25T13:52:45Z</time>
      </trkpt>
      <trkpt lat="43.1485070" lon="-1.2542410">
        <ele>201.8</ele>
        <time>2020-07-25T13:52:51Z</time>
      </trkpt>
      <trkpt lat="43.1486790" lon="-1.2541380">
        <ele>201.6</ele>
        <time>2020-07-25T13:52:53Z</time>
      </trkpt>
      <trkpt lat="43.1491870" lon="-1.2538440">
        <ele>200.6</ele>
        <time>2020-07-25T13:52:59Z</time>
      </trkpt>
      <trkpt lat="43.1493400" lon="-1.2537720">
        <ele>200.2</ele>
        <time>2020-07-25T13:53:01Z</time>
      </trkpt>
      <trkpt lat="43.1495930" lon="-1.2537220">
        <ele>200.0</ele>
        <time>2020-07-25T13:53:05Z</time>
      </trkpt>
      <trkpt lat="43.1496480" lon="-1.2537240">
        <ele>200.0</ele>
        <time>2020-07-25T13:53:06Z</time>
      </trkpt>
      <trkpt lat="43.1498600" lon="-1.2537280">
        <ele>202.0</ele>
        <time>2020-07-25T13:53:10Z</time>
      </trkpt>
      <trkpt lat="43.1499140" lon="-1.2537190">
        <ele>202.8</ele>
        <time>2020-07-25T13:53:11Z</time>
      </trkpt>
      <trkpt lat="43.1499690" lon="-1.2537050">
        <ele>203.6</ele>
        <time>2020-07-25T13:53:12Z</time>
      </trkpt>
      <trkpt lat="43.1501450" lon="-1.2535980">
        <ele>204.2</ele>
        <time>2020-07-25T13:53:15Z</time>
      </trkpt>
      <trkpt lat="43.1503830" lon="-1.2532710">
        <ele>204.4</ele>
        <time>2020-07-25T13:53:19Z</time>
      </trkpt>
      <trkpt lat="43.1506720" lon="-1.2529000">
        <ele>203.8</ele>
        <time>2020-07-25T13:53:23Z</time>
      </trkpt>
      <trkpt lat="43.1508270" lon="-1.2527330">
        <ele>202.0</ele>
        <time>2020-07-25T13:53:25Z</time>
      </trkpt>
      <trkpt lat="43.1509760" lon="-1.2525710">
        <ele>200.2</ele>
        <time>2020-07-25T13:53:27Z</time>
      </trkpt>
      <trkpt lat="43.1510500" lon="-1.2524950">
        <ele>199.4</ele>
        <time>2020-07-25T13:53:28Z</time>
      </trkpt>
      <trkpt lat="43.1511240" lon="-1.2524200">
        <ele>198.2</ele>
        <time>2020-07-25T13:53:29Z</time>
      </trkpt>
      <trkpt lat="43.1512700" lon="-1.2522720">
        <ele>197.0</ele>
        <time>2020-07-25T13:53:31Z</time>
      </trkpt>
      <trkpt lat="43.1514880" lon="-1.2520500">
        <ele>195.8</ele>
        <time>2020-07-25T13:53:34Z</time>
      </trkpt>
      <trkpt lat="43.1519160" lon="-1.2516120">
        <ele>194.8</ele>
        <time>2020-07-25T13:53:40Z</time>
      </trkpt>
      <trkpt lat="43.1520530" lon="-1.2514690">
        <ele>194.6</ele>
        <time>2020-07-25T13:53:42Z</time>
      </trkpt>
      <trkpt lat="43.1525230" lon="-1.2509890">
        <ele>194.2</ele>
        <time>2020-07-25T13:53:49Z</time>
      </trkpt>
      <trkpt lat="43.1527890" lon="-1.2507040">
        <ele>194.2</ele>
        <time>2020-07-25T13:53:53Z</time>
      </trkpt>
      <trkpt lat="43.1531830" lon="-1.2502560">
        <ele>193.8</ele>
        <time>2020-07-25T13:53:59Z</time>
      </trkpt>
      <trkpt lat="43.1534430" lon="-1.2499660">
        <ele>193.8</ele>
        <time>2020-07-25T13:54:03Z</time>
      </trkpt>
      <trkpt lat="43.1537450" lon="-1.2497830">
        <ele>193.6</ele>
        <time>2020-07-25T13:54:07Z</time>
      </trkpt>
      <trkpt lat="43.1542690" lon="-1.2495110">
        <ele>193.4</ele>
        <time>2020-07-25T13:54:14Z</time>
      </trkpt>
      <trkpt lat="43.1543370" lon="-1.2494730">
        <ele>193.4</ele>
        <time>2020-07-25T13:54:15Z</time>
      </trkpt>
      <trkpt lat="43.1547570" lon="-1.2492990">
        <ele>193.4</ele>
        <time>2020-07-25T13:54:21Z</time>
      </trkpt>
      <trkpt lat="43.1551500" lon="-1.2492290">
        <ele>193.2</ele>
        <time>2020-07-25T13:54:26Z</time>
      </trkpt>
      <trkpt lat="43.1554440" lon="-1.2492180">
        <ele>193.2</ele>
        <time>2020-07-25T13:54:30Z</time>
      </trkpt>
      <trkpt lat="43.1555720" lon="-1.2491960">
        <ele>193.2</ele>
        <time>2020-07-25T13:54:32Z</time>
      </trkpt>
      <trkpt lat="43.1559030" lon="-1.2491730">
        <ele>193.6</ele>
        <time>2020-07-25T13:54:38Z</time>
      </trkpt>
      <trkpt lat="43.1560050" lon="-1.2491850">
        <ele>194.0</ele>
        <time>2020-07-25T13:54:40Z</time>
      </trkpt>
      <trkpt lat="43.1560540" lon="-1.2491960">
        <ele>194.2</ele>
        <time>2020-07-25T13:54:41Z</time>
      </trkpt>
      <trkpt lat="43.1562000" lon="-1.2492200">
        <ele>195.6</ele>
        <time>2020-07-25T13:54:44Z</time>
      </trkpt>
      <trkpt lat="43.1563820" lon="-1.2492460">
        <ele>196.8</ele>
        <time>2020-07-25T13:54:48Z</time>
      </trkpt>
      <trkpt lat="43.1565130" lon="-1.2492720">
        <ele>197.6</ele>
        <time>2020-07-25T13:54:51Z</time>
      </trkpt>
      <trkpt lat="43.1565540" lon="-1.2492860">
        <ele>197.8</ele>
        <time>2020-07-25T13:54:52Z</time>
      </trkpt>
      <trkpt lat="43.1565960" lon="-1.2493000">
        <ele>198.0</ele>
        <time>2020-07-25T13:54:53Z</time>
      </trkpt>
      <trkpt lat="43.1567260" lon="-1.2493360">
        <ele>198.4</ele>
        <time>2020-07-25T13:54:56Z</time>
      </trkpt>
      <trkpt lat="43.1568610" lon="-1.2493550">
        <ele>199.0</ele>
        <time>2020-07-25T13:54:59Z</time>
      </trkpt>
      <trkpt lat="43.1569080" lon="-1.2493560">
        <ele>199.6</ele>
        <time>2020-07-25T13:55:00Z</time>
      </trkpt>
      <trkpt lat="43.1570890" lon="-1.2493170">
        <ele>200.2</ele>
        <time>2020-07-25T13:55:04Z</time>
      </trkpt>
      <trkpt lat="43.1571340" lon="-1.2492970">
        <ele>200.6</ele>
        <time>2020-07-25T13:55:05Z</time>
      </trkpt>
      <trkpt lat="43.1571800" lon="-1.2492760">
        <ele>200.6</ele>
        <time>2020-07-25T13:55:06Z</time>
      </trkpt>
      <trkpt lat="43.1574390" lon="-1.2490900">
        <ele>201.6</ele>
        <time>2020-07-25T13:55:12Z</time>
      </trkpt>
      <trkpt lat="43.1576090" lon="-1.2488660">
        <ele>201.8</ele>
        <time>2020-07-25T13:55:17Z</time>
      </trkpt>
      <trkpt lat="43.1576640" lon="-1.2487670">
        <ele>202.0</ele>
        <time>2020-07-25T13:55:19Z</time>
      </trkpt>
      <trkpt lat="43.1577730" lon="-1.2484580">
        <ele>202.8</ele>
        <time>2020-07-25T13:55:25Z</time>
      </trkpt>
      <trkpt lat="43.1577920" lon="-1.2484080">
        <ele>203.0</ele>
        <time>2020-07-25T13:55:26Z</time>
      </trkpt>
      <trkpt lat="43.1578310" lon="-1.2483070">
        <ele>203.6</ele>
        <time>2020-07-25T13:55:28Z</time>
      </trkpt>
      <trkpt lat="43.1578800" lon="-1.2482120">
        <ele>204.0</ele>
        <time>2020-07-25T13:55:30Z</time>
      </trkpt>
      <trkpt lat="43.1579610" lon="-1.2480790">
        <ele>204.8</ele>
        <time>2020-07-25T13:55:33Z</time>
      </trkpt>
      <trkpt lat="43.1580160" lon="-1.2479910">
        <ele>205.4</ele>
        <time>2020-07-25T13:55:35Z</time>
      </trkpt>
      <trkpt lat="43.1581260" lon="-1.2478170">
        <ele>206.6</ele>
        <time>2020-07-25T13:55:39Z</time>
      </trkpt>
      <trkpt lat="43.1581800" lon="-1.2477240">
        <ele>207.0</ele>
        <time>2020-07-25T13:55:41Z</time>
      </trkpt>
      <trkpt lat="43.1582570" lon="-1.2475660">
        <ele>207.8</ele>
        <time>2020-07-25T13:55:44Z</time>
      </trkpt>
      <trkpt lat="43.1583760" lon="-1.2472720">
        <ele>208.6</ele>
        <time>2020-07-25T13:55:49Z</time>
      </trkpt>
      <trkpt lat="43.1586390" lon="-1.2465850">
        <ele>208.6</ele>
        <time>2020-07-25T13:56:00Z</time>
      </trkpt>
      <trkpt lat="43.1588510" lon="-1.2460590">
        <ele>209.2</ele>
        <time>2020-07-25T13:56:08Z</time>
      </trkpt>
      <trkpt lat="43.1588800" lon="-1.2459930">
        <ele>209.4</ele>
        <time>2020-07-25T13:56:09Z</time>
      </trkpt>
      <trkpt lat="43.1591710" lon="-1.2453600">
        <ele>210.2</ele>
        <time>2020-07-25T13:56:19Z</time>
      </trkpt>
      <trkpt lat="43.1593090" lon="-1.2451250">
        <ele>210.4</ele>
        <time>2020-07-25T13:56:23Z</time>
      </trkpt>
      <trkpt lat="43.1594340" lon="-1.2449590">
        <ele>210.6</ele>
        <time>2020-07-25T13:56:26Z</time>
      </trkpt>
      <trkpt lat="43.1597470" lon="-1.2447010">
        <ele>211.0</ele>
        <time>2020-07-25T13:56:32Z</time>
      </trkpt>
      <trkpt lat="43.1600700" lon="-1.2445590">
        <ele>211.0</ele>
        <time>2020-07-25T13:56:37Z</time>
      </trkpt>
      <trkpt lat="43.1601440" lon="-1.2445460">
        <ele>211.0</ele>
        <time>2020-07-25T13:56:38Z</time>
      </trkpt>
      <trkpt lat="43.1604610" lon="-1.2445380">
        <ele>210.4</ele>
        <time>2020-07-25T13:56:42Z</time>
      </trkpt>
      <trkpt lat="43.1608980" lon="-1.2445960">
        <ele>209.6</ele>
        <time>2020-07-25T13:56:47Z</time>
      </trkpt>
      <trkpt lat="43.1610830" lon="-1.2446220">
        <ele>208.2</ele>
        <time>2020-07-25T13:56:49Z</time>
      </trkpt>
      <trkpt lat="43.1612730" lon="-1.2446440">
        <ele>207.0</ele>
        <time>2020-07-25T13:56:51Z</time>
      </trkpt>
      <trkpt lat="43.1617630" lon="-1.2447010">
        <ele>206.2</ele>
        <time>2020-07-25T13:56:56Z</time>
      </trkpt>
      <trkpt lat="43.1619610" lon="-1.2447270">
        <ele>205.4</ele>
        <time>2020-07-25T13:56:58Z</time>
      </trkpt>
      <trkpt lat="43.1620590" lon="-1.2447400">
        <ele>205.0</ele>
        <time>2020-07-25T13:56:59Z</time>
      </trkpt>
      <trkpt lat="43.1622570" lon="-1.2447490">
        <ele>204.0</ele>
        <time>2020-07-25T13:57:01Z</time>
      </trkpt>
      <trkpt lat="43.1623570" lon="-1.2447330">
        <ele>203.4</ele>
        <time>2020-07-25T13:57:02Z</time>
      </trkpt>
      <trkpt lat="43.1624520" lon="-1.2446930">
        <ele>203.0</ele>
        <time>2020-07-25T13:57:03Z</time>
      </trkpt>
      <trkpt lat="43.1625410" lon="-1.2446260">
        <ele>202.4</ele>
        <time>2020-07-25T13:57:04Z</time>
      </trkpt>
      <trkpt lat="43.1626930" lon="-1.2444390">
        <ele>201.6</ele>
        <time>2020-07-25T13:57:06Z</time>
      </trkpt>
      <trkpt lat="43.1627520" lon="-1.2443250">
        <ele>201.0</ele>
        <time>2020-07-25T13:57:07Z</time>
      </trkpt>
      <trkpt lat="43.1628400" lon="-1.2440730">
        <ele>200.0</ele>
        <time>2020-07-25T13:57:09Z</time>
      </trkpt>
      <trkpt lat="43.1629170" lon="-1.2438160">
        <ele>198.8</ele>
        <time>2020-07-25T13:57:11Z</time>
      </trkpt>
      <trkpt lat="43.1629910" lon="-1.2435560">
        <ele>197.2</ele>
        <time>2020-07-25T13:57:13Z</time>
      </trkpt>
      <trkpt lat="43.1631000" lon="-1.2431580">
        <ele>196.4</ele>
        <time>2020-07-25T13:57:16Z</time>
      </trkpt>
      <trkpt lat="43.1631360" lon="-1.2430220">
        <ele>195.8</ele>
        <time>2020-07-25T13:57:17Z</time>
      </trkpt>
      <trkpt lat="43.1632480" lon="-1.2426080">
        <ele>194.4</ele>
        <time>2020-07-25T13:57:20Z</time>
      </trkpt>
      <trkpt lat="43.1633580" lon="-1.2421880">
        <ele>192.6</ele>
        <time>2020-07-25T13:57:23Z</time>
      </trkpt>
      <trkpt lat="43.1633850" lon="-1.2420430">
        <ele>191.8</ele>
        <time>2020-07-25T13:57:24Z</time>
      </trkpt>
      <trkpt lat="43.1634020" lon="-1.2418940">
        <ele>191.0</ele>
        <time>2020-07-25T13:57:25Z</time>
      </trkpt>
      <trkpt lat="43.1634090" lon="-1.2415890">
        <ele>190.0</ele>
        <time>2020-07-25T13:57:27Z</time>
      </trkpt>
      <trkpt lat="43.1633960" lon="-1.2414370">
        <ele>189.4</ele>
        <time>2020-07-25T13:57:28Z</time>
      </trkpt>
      <trkpt lat="43.1633660" lon="-1.2412880">
        <ele>188.6</ele>
        <time>2020-07-25T13:57:29Z</time>
      </trkpt>
      <trkpt lat="43.1632600" lon="-1.2410240">
        <ele>187.2</ele>
        <time>2020-07-25T13:57:31Z</time>
      </trkpt>
      <trkpt lat="43.1632000" lon="-1.2409010">
        <ele>186.8</ele>
        <time>2020-07-25T13:57:32Z</time>
      </trkpt>
      <trkpt lat="43.1630870" lon="-1.2406650">
        <ele>186.0</ele>
        <time>2020-07-25T13:57:34Z</time>
      </trkpt>
      <trkpt lat="43.1629840" lon="-1.2404350">
        <ele>184.4</ele>
        <time>2020-07-25T13:57:36Z</time>
      </trkpt>
      <trkpt lat="43.1629340" lon="-1.2403210">
        <ele>183.8</ele>
        <time>2020-07-25T13:57:37Z</time>
      </trkpt>
      <trkpt lat="43.1628830" lon="-1.2402090">
        <ele>183.2</ele>
        <time>2020-07-25T13:57:38Z</time>
      </trkpt>
      <trkpt lat="43.1626850" lon="-1.2397990">
        <ele>182.4</ele>
        <time>2020-07-25T13:57:42Z</time>
      </trkpt>
      <trkpt lat="43.1624960" lon="-1.2394980">
        <ele>182.4</ele>
        <time>2020-07-25T13:57:46Z</time>
      </trkpt>
      <trkpt lat="43.1622690" lon="-1.2392600">
        <ele>182.8</ele>
        <time>2020-07-25T13:57:51Z</time>
      </trkpt>
      <trkpt lat="43.1621270" lon="-1.2391180">
        <ele>184.6</ele>
        <time>2020-07-25T13:57:54Z</time>
      </trkpt>
      <trkpt lat="43.1627560" lon="-1.2314550">
        <ele>193.7</ele>
        <time>2020-07-26T07:29:26Z</time>
      </trkpt>
      <trkpt lat="43.1629610" lon="-1.2317320">
        <ele>192.3</ele>
        <time>2020-07-26T07:29:31Z</time>
      </trkpt>
      <trkpt lat="43.1631430" lon="-1.2319870">
        <ele>191.0</ele>
        <time>2020-07-26T07:29:35Z</time>
      </trkpt>
      <trkpt lat="43.1632930" lon="-1.2322050">
        <ele>189.7</ele>
        <time>2020-07-26T07:29:38Z</time>
      </trkpt>
      <trkpt lat="43.1633940" lon="-1.2323650">
        <ele>188.6</ele>
        <time>2020-07-26T07:29:40Z</time>
      </trkpt>
      <trkpt lat="43.1635460" lon="-1.2326310">
        <ele>186.9</ele>
        <time>2020-07-26T07:29:43Z</time>
      </trkpt>
      <trkpt lat="43.1636400" lon="-1.2328340">
        <ele>185.7</ele>
        <time>2020-07-26T07:29:45Z</time>
      </trkpt>
      <trkpt lat="43.1637320" lon="-1.2330540">
        <ele>184.4</ele>
        <time>2020-07-26T07:29:47Z</time>
      </trkpt>
      <trkpt lat="43.1638260" lon="-1.2332900">
        <ele>183.1</ele>
        <time>2020-07-26T07:29:49Z</time>
      </trkpt>
      <trkpt lat="43.1638630" lon="-1.2334130">
        <ele>182.4</ele>
        <time>2020-07-26T07:29:50Z</time>
      </trkpt>
      <trkpt lat="43.1638950" lon="-1.2335400">
        <ele>181.8</ele>
        <time>2020-07-26T07:29:51Z</time>
      </trkpt>
      <trkpt lat="43.1639510" lon="-1.2338030">
        <ele>180.8</ele>
        <time>2020-07-26T07:29:53Z</time>
      </trkpt>
      <trkpt lat="43.1640070" lon="-1.2340640">
        <ele>180.0</ele>
        <time>2020-07-26T07:29:55Z</time>
      </trkpt>
      <trkpt lat="43.1640560" lon="-1.2343280">
        <ele>179.2</ele>
        <time>2020-07-26T07:29:57Z</time>
      </trkpt>
      <trkpt lat="43.1640750" lon="-1.2344600">
        <ele>178.8</ele>
        <time>2020-07-26T07:29:58Z</time>
      </trkpt>
      <trkpt lat="43.1640900" lon="-1.2345930">
        <ele>178.4</ele>
        <time>2020-07-26T07:29:59Z</time>
      </trkpt>
      <trkpt lat="43.1641110" lon="-1.2348540">
        <ele>177.7</ele>
        <time>2020-07-26T07:30:01Z</time>
      </trkpt>
      <trkpt lat="43.1641130" lon="-1.2351050">
        <ele>177.0</ele>
        <time>2020-07-26T07:30:04Z</time>
      </trkpt>
      <trkpt lat="43.1641060" lon="-1.2352280">
        <ele>176.6</ele>
        <time>2020-07-26T07:30:05Z</time>
      </trkpt>
      <trkpt lat="43.1640680" lon="-1.2356720">
        <ele>175.3</ele>
        <time>2020-07-26T07:30:09Z</time>
      </trkpt>
      <trkpt lat="43.1640500" lon="-1.2357510">
        <ele>175.0</ele>
        <time>2020-07-26T07:30:10Z</time>
      </trkpt>
      <trkpt lat="43.1640150" lon="-1.2358740">
        <ele>174.6</ele>
        <time>2020-07-26T07:30:12Z</time>
      </trkpt>
      <trkpt lat="43.1640000" lon="-1.2359500">
        <ele>174.4</ele>
        <time>2020-07-26T07:30:14Z</time>
      </trkpt>
      <trkpt lat="43.1640050" lon="-1.2359690">
        <ele>174.3</ele>
        <time>2020-07-26T07:30:15Z</time>
      </trkpt>
      <trkpt lat="43.1640080" lon="-1.2359920">
        <ele>174.2</ele>
        <time>2020-07-26T07:30:17Z</time>
      </trkpt>
      <trkpt lat="43.1640630" lon="-1.2359560">
        <ele>174.0</ele>
        <time>2020-07-26T07:30:33Z</time>
      </trkpt>
      <trkpt lat="43.1640760" lon="-1.2359250">
        <ele>173.9</ele>
        <time>2020-07-26T07:30:34Z</time>
      </trkpt>
      <trkpt lat="43.1641360" lon="-1.2356690">
        <ele>172.6</ele>
        <time>2020-07-26T07:30:39Z</time>
      </trkpt>
      <trkpt lat="43.1641890" lon="-1.2352900">
        <ele>171.5</ele>
        <time>2020-07-26T07:30:44Z</time>
      </trkpt>
      <trkpt lat="43.1641960" lon="-1.2351990">
        <ele>171.1</ele>
        <time>2020-07-26T07:30:45Z</time>
      </trkpt>
      <trkpt lat="43.1642320" lon="-1.2347940">
        <ele>169.5</ele>
        <time>2020-07-26T07:30:49Z</time>
      </trkpt>
      <trkpt lat="43.1642510" lon="-1.2346870">
        <ele>169.0</ele>
        <time>2020-07-26T07:30:50Z</time>
      </trkpt>
      <trkpt lat="43.1643210" lon="-1.2344800">
        <ele>168.2</ele>
        <time>2020-07-26T07:30:52Z</time>
      </trkpt>
      <trkpt lat="43.1643760" lon="-1.2343860">
        <ele>167.9</ele>
        <time>2020-07-26T07:30:53Z</time>
      </trkpt>
      <trkpt lat="43.1645180" lon="-1.2342450">
        <ele>166.7</ele>
        <time>2020-07-26T07:30:55Z</time>
      </trkpt>
      <trkpt lat="43.1646030" lon="-1.2341970">
        <ele>166.1</ele>
        <time>2020-07-26T07:30:56Z</time>
      </trkpt>
      <trkpt lat="43.1646910" lon="-1.2341580">
        <ele>165.5</ele>
        <time>2020-07-26T07:30:57Z</time>
      </trkpt>
      <trkpt lat="43.1647800" lon="-1.2341220">
        <ele>164.9</ele>
        <time>2020-07-26T07:30:58Z</time>
      </trkpt>
      <trkpt lat="43.1649610" lon="-1.2340490">
        <ele>163.8</ele>
        <time>2020-07-26T07:31:00Z</time>
      </trkpt>
      <trkpt lat="43.1652200" lon="-1.2339430">
        <ele>163.3</ele>
        <time>2020-07-26T07:31:03Z</time>
      </trkpt>
      <trkpt lat="43.1653750" lon="-1.2338740">
        <ele>163.2</ele>
        <time>2020-07-26T07:31:05Z</time>
      </trkpt>
      <trkpt lat="43.1654400" lon="-1.2338320">
        <ele>163.3</ele>
        <time>2020-07-26T07:31:06Z</time>
      </trkpt>
      <trkpt lat="43.1655020" lon="-1.2337850">
        <ele>163.5</ele>
        <time>2020-07-26T07:31:07Z</time>
      </trkpt>
      <trkpt lat="43.1655630" lon="-1.2337420">
        <ele>164.1</ele>
        <time>2020-07-26T07:31:08Z</time>
      </trkpt>
      <trkpt lat="43.1657530" lon="-1.2336940">
        <ele>162.7</ele>
        <time>2020-07-26T07:31:11Z</time>
      </trkpt>
      <trkpt lat="43.1658200" lon="-1.2336790">
        <ele>162.5</ele>
        <time>2020-07-26T07:31:12Z</time>
      </trkpt>
      <trkpt lat="43.1659530" lon="-1.2336250">
        <ele>162.1</ele>
        <time>2020-07-26T07:31:14Z</time>
      </trkpt>
      <trkpt lat="43.1660220" lon="-1.2335950">
        <ele>161.9</ele>
        <time>2020-07-26T07:31:15Z</time>
      </trkpt>
      <trkpt lat="43.1660900" lon="-1.2335650">
        <ele>161.8</ele>
        <time>2020-07-26T07:31:16Z</time>
      </trkpt>
      <trkpt lat="43.1664430" lon="-1.2334110">
        <ele>161.3</ele>
        <time>2020-07-26T07:31:21Z</time>
      </trkpt>
      <trkpt lat="43.1665830" lon="-1.2333440">
        <ele>161.3</ele>
        <time>2020-07-26T07:31:23Z</time>
      </trkpt>
      <trkpt lat="43.1670200" lon="-1.2332190">
        <ele>161.1</ele>
        <time>2020-07-26T07:31:29Z</time>
      </trkpt>
      <trkpt lat="43.1674090" lon="-1.2330610">
        <ele>160.7</ele>
        <time>2020-07-26T07:31:35Z</time>
      </trkpt>
      <trkpt lat="43.1679230" lon="-1.2328560">
        <ele>160.9</ele>
        <time>2020-07-26T07:31:43Z</time>
      </trkpt>
      <trkpt lat="43.1682850" lon="-1.2327130">
        <ele>161.6</ele>
        <time>2020-07-26T07:31:49Z</time>
      </trkpt>
      <trkpt lat="43.1686570" lon="-1.2325200">
        <ele>162.6</ele>
        <time>2020-07-26T07:31:56Z</time>
      </trkpt>
      <trkpt lat="43.1687920" lon="-1.2323170">
        <ele>163.4</ele>
        <time>2020-07-26T07:32:00Z</time>
      </trkpt>
      <trkpt lat="43.1688490" lon="-1.2321370">
        <ele>164.0</ele>
        <time>2020-07-26T07:32:03Z</time>
      </trkpt>
      <trkpt lat="43.1688660" lon="-1.2320170">
        <ele>164.3</ele>
        <time>2020-07-26T07:32:05Z</time>
      </trkpt>
      <trkpt lat="43.1688690" lon="-1.2319560">
        <ele>164.5</ele>
        <time>2020-07-26T07:32:06Z</time>
      </trkpt>
      <trkpt lat="43.1688720" lon="-1.2318250">
        <ele>164.9</ele>
        <time>2020-07-26T07:32:08Z</time>
      </trkpt>
      <trkpt lat="43.1688730" lon="-1.2315080">
        <ele>165.9</ele>
        <time>2020-07-26T07:32:13Z</time>
      </trkpt>
      <trkpt lat="43.1688710" lon="-1.2311910">
        <ele>166.8</ele>
        <time>2020-07-26T07:32:18Z</time>
      </trkpt>
      <trkpt lat="43.1688690" lon="-1.2309450">
        <ele>167.4</ele>
        <time>2020-07-26T07:32:22Z</time>
      </trkpt>
      <trkpt lat="43.1688680" lon="-1.2308190">
        <ele>167.7</ele>
        <time>2020-07-26T07:32:24Z</time>
      </trkpt>
      <trkpt lat="43.1688700" lon="-1.2304530">
        <ele>168.6</ele>
        <time>2020-07-26T07:32:30Z</time>
      </trkpt>
      <trkpt lat="43.1688690" lon="-1.2303930">
        <ele>168.7</ele>
        <time>2020-07-26T07:32:31Z</time>
      </trkpt>
      <trkpt lat="43.1688480" lon="-1.2298960">
        <ele>169.9</ele>
        <time>2020-07-26T07:32:39Z</time>
      </trkpt>
      <trkpt lat="43.1688300" lon="-1.2296490">
        <ele>170.5</ele>
        <time>2020-07-26T07:32:43Z</time>
      </trkpt>
      <trkpt lat="43.1687910" lon="-1.2293300">
        <ele>170.8</ele>
        <time>2020-07-26T07:32:48Z</time>
      </trkpt>
      <trkpt lat="43.1687770" lon="-1.2292000">
        <ele>170.9</ele>
        <time>2020-07-26T07:32:50Z</time>
      </trkpt>
      <trkpt lat="43.1687130" lon="-1.2286660">
        <ele>171.3</ele>
        <time>2020-07-26T07:32:58Z</time>
      </trkpt>
      <trkpt lat="43.1686970" lon="-1.2285310">
        <ele>171.5</ele>
        <time>2020-07-26T07:33:00Z</time>
      </trkpt>
      <trkpt lat="43.1686630" lon="-1.2282760">
        <ele>171.7</ele>
        <time>2020-07-26T07:33:04Z</time>
      </trkpt>
      <trkpt lat="43.1686420" lon="-1.2280790">
        <ele>171.8</ele>
        <time>2020-07-26T07:33:07Z</time>
      </trkpt>
      <trkpt lat="43.1685850" lon="-1.2275000">
        <ele>171.9</ele>
        <time>2020-07-26T07:33:15Z</time>
      </trkpt>
      <trkpt lat="43.1685290" lon="-1.2269530">
        <ele>172.2</ele>
        <time>2020-07-26T07:33:23Z</time>
      </trkpt>
      <trkpt lat="43.1685130" lon="-1.2268120">
        <ele>172.3</ele>
        <time>2020-07-26T07:33:25Z</time>
      </trkpt>
      <trkpt lat="43.1684430" lon="-1.2262620">
        <ele>172.7</ele>
        <time>2020-07-26T07:33:33Z</time>
      </trkpt>
      <trkpt lat="43.1683550" lon="-1.2255460">
        <ele>173.2</ele>
        <time>2020-07-26T07:33:43Z</time>
      </trkpt>
      <trkpt lat="43.1683470" lon="-1.2254690">
        <ele>173.3</ele>
        <time>2020-07-26T07:33:44Z</time>
      </trkpt>
      <trkpt lat="43.1682940" lon="-1.2250140">
        <ele>173.3</ele>
        <time>2020-07-26T07:33:50Z</time>
      </trkpt>
      <trkpt lat="43.1682370" lon="-1.2245650">
        <ele>173.6</ele>
        <time>2020-07-26T07:33:56Z</time>
      </trkpt>
      <trkpt lat="43.1682300" lon="-1.2244900">
        <ele>173.7</ele>
        <time>2020-07-26T07:33:57Z</time>
      </trkpt>
      <trkpt lat="43.1681550" lon="-1.2237990">
        <ele>173.8</ele>
        <time>2020-07-26T07:34:06Z</time>
      </trkpt>
      <trkpt lat="43.1680720" lon="-1.2230080">
        <ele>174.0</ele>
        <time>2020-07-26T07:34:16Z</time>
      </trkpt>
      <trkpt lat="43.1679940" lon="-1.2222070">
        <ele>173.6</ele>
        <time>2020-07-26T07:34:26Z</time>
      </trkpt>
      <trkpt lat="43.1679400" lon="-1.2217320">
        <ele>173.9</ele>
        <time>2020-07-26T07:34:32Z</time>
      </trkpt>
      <trkpt lat="43.1679130" lon="-1.2214960">
        <ele>174.1</ele>
        <time>2020-07-26T07:34:35Z</time>
      </trkpt>
      <trkpt lat="43.1678320" lon="-1.2207330">
        <ele>175.1</ele>
        <time>2020-07-26T07:34:45Z</time>
      </trkpt>
      <trkpt lat="43.1677870" lon="-1.2202990">
        <ele>175.8</ele>
        <time>2020-07-26T07:34:51Z</time>
      </trkpt>
      <trkpt lat="43.1677480" lon="-1.2199410">
        <ele>176.2</ele>
        <time>2020-07-26T07:34:56Z</time>
      </trkpt>
      <trkpt lat="43.1676980" lon="-1.2195100">
        <ele>176.9</ele>
        <time>2020-07-26T07:35:02Z</time>
      </trkpt>
      <trkpt lat="43.1676890" lon="-1.2194390">
        <ele>177.1</ele>
        <time>2020-07-26T07:35:03Z</time>
      </trkpt>
      <trkpt lat="43.1676150" lon="-1.2187120">
        <ele>177.8</ele>
        <time>2020-07-26T07:35:13Z</time>
      </trkpt>
      <trkpt lat="43.1675450" lon="-1.2180940">
        <ele>177.8</ele>
        <time>2020-07-26T07:35:21Z</time>
      </trkpt>
      <trkpt lat="43.1674650" lon="-1.2174180">
        <ele>177.3</ele>
        <time>2020-07-26T07:35:29Z</time>
      </trkpt>
      <trkpt lat="43.1673890" lon="-1.2166590">
        <ele>176.9</ele>
        <time>2020-07-26T07:35:37Z</time>
      </trkpt>
      <trkpt lat="43.1673790" lon="-1.2165660">
        <ele>176.8</ele>
        <time>2020-07-26T07:35:38Z</time>
      </trkpt>
      <trkpt lat="43.1672970" lon="-1.2157730">
        <ele>177.0</ele>
        <time>2020-07-26T07:35:47Z</time>
      </trkpt>
      <trkpt lat="43.1672670" lon="-1.2155110">
        <ele>177.2</ele>
        <time>2020-07-26T07:35:50Z</time>
      </trkpt>
      <trkpt lat="43.1672110" lon="-1.2150090">
        <ele>177.3</ele>
        <time>2020-07-26T07:35:56Z</time>
      </trkpt>
      <trkpt lat="43.1671430" lon="-1.2144120">
        <ele>178.4</ele>
        <time>2020-07-26T07:36:04Z</time>
      </trkpt>
      <trkpt lat="43.1670810" lon="-1.2138290">
        <ele>179.3</ele>
        <time>2020-07-26T07:36:12Z</time>
      </trkpt>
      <trkpt lat="43.1670650" lon="-1.2136790">
        <ele>179.6</ele>
        <time>2020-07-26T07:36:14Z</time>
      </trkpt>
      <trkpt lat="43.1670350" lon="-1.2133910">
        <ele>180.1</ele>
        <time>2020-07-26T07:36:18Z</time>
      </trkpt>
      <trkpt lat="43.1669900" lon="-1.2129560">
        <ele>180.8</ele>
        <time>2020-07-26T07:36:24Z</time>
      </trkpt>
      <trkpt lat="43.1669140" lon="-1.2122700">
        <ele>181.4</ele>
        <time>2020-07-26T07:36:33Z</time>
      </trkpt>
      <trkpt lat="43.1668330" lon="-1.2115680">
        <ele>181.8</ele>
        <time>2020-07-26T07:36:42Z</time>
      </trkpt>
      <trkpt lat="43.1667470" lon="-1.2108770">
        <ele>182.3</ele>
        <time>2020-07-26T07:36:51Z</time>
      </trkpt>
      <trkpt lat="43.1667280" lon="-1.2107210">
        <ele>182.4</ele>
        <time>2020-07-26T07:36:53Z</time>
      </trkpt>
      <trkpt lat="43.1666490" lon="-1.2100020">
        <ele>183.0</ele>
        <time>2020-07-26T07:37:02Z</time>
      </trkpt>
      <trkpt lat="43.1666020" lon="-1.2096060">
        <ele>183.2</ele>
        <time>2020-07-26T07:37:07Z</time>
      </trkpt>
      <trkpt lat="43.1665630" lon="-1.2092870">
        <ele>183.4</ele>
        <time>2020-07-26T07:37:11Z</time>
      </trkpt>
      <trkpt lat="43.1664760" lon="-1.2085440">
        <ele>183.7</ele>
        <time>2020-07-26T07:37:20Z</time>
      </trkpt>
      <trkpt lat="43.1663970" lon="-1.2077410">
        <ele>184.5</ele>
        <time>2020-07-26T07:37:30Z</time>
      </trkpt>
      <trkpt lat="43.1663870" lon="-1.2076640">
        <ele>184.6</ele>
        <time>2020-07-26T07:37:31Z</time>
      </trkpt>
      <trkpt lat="43.1663700" lon="-1.2075090">
        <ele>184.7</ele>
        <time>2020-07-26T07:37:33Z</time>
      </trkpt>
      <trkpt lat="43.1663080" lon="-1.2068950">
        <ele>185.2</ele>
        <time>2020-07-26T07:37:41Z</time>
      </trkpt>
      <trkpt lat="43.1662780" lon="-1.2065830">
        <ele>185.6</ele>
        <time>2020-07-26T07:37:45Z</time>
      </trkpt>
      <trkpt lat="43.1662410" lon="-1.2061910">
        <ele>185.9</ele>
        <time>2020-07-26T07:37:50Z</time>
      </trkpt>
      <trkpt lat="43.1661750" lon="-1.2055700">
        <ele>186.6</ele>
        <time>2020-07-26T07:37:58Z</time>
      </trkpt>
      <trkpt lat="43.1661370" lon="-1.2051770">
        <ele>186.7</ele>
        <time>2020-07-26T07:38:03Z</time>
      </trkpt>
      <trkpt lat="43.1660680" lon="-1.2045620">
        <ele>187.5</ele>
        <time>2020-07-26T07:38:11Z</time>
      </trkpt>
      <trkpt lat="43.1660430" lon="-1.2042700">
        <ele>187.9</ele>
        <time>2020-07-26T07:38:15Z</time>
      </trkpt>
      <trkpt lat="43.1659970" lon="-1.2040630">
        <ele>188.0</ele>
        <time>2020-07-26T07:38:18Z</time>
      </trkpt>
      <trkpt lat="43.1659710" lon="-1.2039990">
        <ele>188.0</ele>
        <time>2020-07-26T07:38:19Z</time>
      </trkpt>
      <trkpt lat="43.1659360" lon="-1.2039440">
        <ele>188.0</ele>
        <time>2020-07-26T07:38:20Z</time>
      </trkpt>
      <trkpt lat="43.1659000" lon="-1.2038910">
        <ele>188.1</ele>
        <time>2020-07-26T07:38:21Z</time>
      </trkpt>
      <trkpt lat="43.1658690" lon="-1.2036900">
        <ele>188.6</ele>
        <time>2020-07-26T07:38:24Z</time>
      </trkpt>
      <trkpt lat="43.1659670" lon="-1.2035450">
        <ele>189.2</ele>
        <time>2020-07-26T07:38:27Z</time>
      </trkpt>
      <trkpt lat="43.1661140" lon="-1.2035520">
        <ele>189.6</ele>
        <time>2020-07-26T07:38:30Z</time>
      </trkpt>
      <trkpt lat="43.1662300" lon="-1.2035620">
        <ele>189.4</ele>
        <time>2020-07-26T07:38:32Z</time>
      </trkpt>
      <trkpt lat="43.1663450" lon="-1.2035130">
        <ele>189.2</ele>
        <time>2020-07-26T07:38:34Z</time>
      </trkpt>
      <trkpt lat="43.1664870" lon="-1.2033700">
        <ele>189.6</ele>
        <time>2020-07-26T07:38:37Z</time>
      </trkpt>
      <trkpt lat="43.1665740" lon="-1.2032730">
        <ele>189.8</ele>
        <time>2020-07-26T07:38:39Z</time>
      </trkpt>
      <trkpt lat="43.1668060" lon="-1.2029360">
        <ele>191.2</ele>
        <time>2020-07-26T07:38:46Z</time>
      </trkpt>
      <trkpt lat="43.1669220" lon="-1.2027020">
        <ele>192.4</ele>
        <time>2020-07-26T07:38:51Z</time>
      </trkpt>
      <trkpt lat="43.1669820" lon="-1.2025610">
        <ele>193.1</ele>
        <time>2020-07-26T07:38:54Z</time>
      </trkpt>
      <trkpt lat="43.1669990" lon="-1.2025130">
        <ele>193.3</ele>
        <time>2020-07-26T07:38:55Z</time>
      </trkpt>
      <trkpt lat="43.1670340" lon="-1.2024190">
        <ele>193.8</ele>
        <time>2020-07-26T07:38:57Z</time>
      </trkpt>
      <trkpt lat="43.1670950" lon="-1.2022250">
        <ele>194.8</ele>
        <time>2020-07-26T07:39:01Z</time>
      </trkpt>
      <trkpt lat="43.1671360" lon="-1.2020750">
        <ele>195.4</ele>
        <time>2020-07-26T07:39:04Z</time>
      </trkpt>
      <trkpt lat="43.1671490" lon="-1.2020250">
        <ele>195.6</ele>
        <time>2020-07-26T07:39:05Z</time>
      </trkpt>
      <trkpt lat="43.1672160" lon="-1.2017790">
        <ele>196.6</ele>
        <time>2020-07-26T07:39:10Z</time>
      </trkpt>
      <trkpt lat="43.1672660" lon="-1.2015740">
        <ele>197.3</ele>
        <time>2020-07-26T07:39:14Z</time>
      </trkpt>
      <trkpt lat="43.1672790" lon="-1.2015220">
        <ele>197.5</ele>
        <time>2020-07-26T07:39:15Z</time>
      </trkpt>
      <trkpt lat="43.1673320" lon="-1.2013120">
        <ele>198.1</ele>
        <time>2020-07-26T07:39:19Z</time>
      </trkpt>
      <trkpt lat="43.1674180" lon="-1.2009850">
        <ele>198.9</ele>
        <time>2020-07-26T07:39:25Z</time>
      </trkpt>
      <trkpt lat="43.1674330" lon="-1.2009280">
        <ele>199.0</ele>
        <time>2020-07-26T07:39:26Z</time>
      </trkpt>
      <trkpt lat="43.1675290" lon="-1.2005720">
        <ele>199.5</ele>
        <time>2020-07-26T07:39:32Z</time>
      </trkpt>
      <trkpt lat="43.1675820" lon="-1.2003800">
        <ele>199.6</ele>
        <time>2020-07-26T07:39:35Z</time>
      </trkpt>
      <trkpt lat="43.1677520" lon="-1.1997300">
        <ele>199.0</ele>
        <time>2020-07-26T07:39:44Z</time>
      </trkpt>
      <trkpt lat="43.1679480" lon="-1.1989690">
        <ele>198.1</ele>
        <time>2020-07-26T07:39:53Z</time>
      </trkpt>
      <trkpt lat="43.1679710" lon="-1.1988800">
        <ele>198.1</ele>
        <time>2020-07-26T07:39:54Z</time>
      </trkpt>
      <trkpt lat="43.1680800" lon="-1.1984280">
        <ele>197.8</ele>
        <time>2020-07-26T07:39:59Z</time>
      </trkpt>
      <trkpt lat="43.1682010" lon="-1.1977960">
        <ele>197.7</ele>
        <time>2020-07-26T07:40:06Z</time>
      </trkpt>
      <trkpt lat="43.1683010" lon="-1.1970180">
        <ele>198.6</ele>
        <time>2020-07-26T07:40:15Z</time>
      </trkpt>
      <trkpt lat="43.1683090" lon="-1.1969360">
        <ele>198.7</ele>
        <time>2020-07-26T07:40:16Z</time>
      </trkpt>
      <trkpt lat="43.1683630" lon="-1.1961610">
        <ele>200.3</ele>
        <time>2020-07-26T07:40:26Z</time>
      </trkpt>
      <trkpt lat="43.1683770" lon="-1.1958730">
        <ele>201.1</ele>
        <time>2020-07-26T07:40:30Z</time>
      </trkpt>
      <trkpt lat="43.1683870" lon="-1.1956020">
        <ele>201.9</ele>
        <time>2020-07-26T07:40:34Z</time>
      </trkpt>
      <trkpt lat="43.1684110" lon="-1.1951630">
        <ele>203.3</ele>
        <time>2020-07-26T07:40:41Z</time>
      </trkpt>
      <trkpt lat="43.1684240" lon="-1.1948540">
        <ele>204.1</ele>
        <time>2020-07-26T07:40:46Z</time>
      </trkpt>
      <trkpt lat="43.1684280" lon="-1.1947290">
        <ele>204.4</ele>
        <time>2020-07-26T07:40:48Z</time>
      </trkpt>
      <trkpt lat="43.1684400" lon="-1.1944100">
        <ele>205.5</ele>
        <time>2020-07-26T07:40:53Z</time>
      </trkpt>
      <trkpt lat="43.1684590" lon="-1.1940720">
        <ele>205.8</ele>
        <time>2020-07-26T07:40:58Z</time>
      </trkpt>
      <trkpt lat="43.1684680" lon="-1.1939330">
        <ele>205.9</ele>
        <time>2020-07-26T07:41:00Z</time>
      </trkpt>
      <trkpt lat="43.1685270" lon="-1.1933590">
        <ele>206.5</ele>
        <time>2020-07-26T07:41:08Z</time>
      </trkpt>
      <trkpt lat="43.1686080" lon="-1.1925970">
        <ele>207.1</ele>
        <time>2020-07-26T07:41:18Z</time>
      </trkpt>
      <trkpt lat="43.1686510" lon="-1.1921880">
        <ele>207.2</ele>
        <time>2020-07-26T07:41:23Z</time>
      </trkpt>
      <trkpt lat="43.1686870" lon="-1.1918460">
        <ele>207.1</ele>
        <time>2020-07-26T07:41:27Z</time>
      </trkpt>
      <trkpt lat="43.1687670" lon="-1.1911000">
        <ele>206.2</ele>
        <time>2020-07-26T07:41:35Z</time>
      </trkpt>
      <trkpt lat="43.1688440" lon="-1.1903580">
        <ele>204.5</ele>
        <time>2020-07-26T07:41:42Z</time>
      </trkpt>
      <trkpt lat="43.1688880" lon="-1.1898820">
        <ele>202.8</ele>
        <time>2020-07-26T07:41:46Z</time>
      </trkpt>
      <trkpt lat="43.1689210" lon="-1.1895000">
        <ele>201.3</ele>
        <time>2020-07-26T07:41:49Z</time>
      </trkpt>
      <trkpt lat="43.1689700" lon="-1.1890970">
        <ele>199.4</ele>
        <time>2020-07-26T07:41:52Z</time>
      </trkpt>
      <trkpt lat="43.1690300" lon="-1.1888210">
        <ele>198.1</ele>
        <time>2020-07-26T07:41:54Z</time>
      </trkpt>
      <trkpt lat="43.1690710" lon="-1.1886820">
        <ele>197.5</ele>
        <time>2020-07-26T07:41:55Z</time>
      </trkpt>
      <trkpt lat="43.1692120" lon="-1.1882660">
        <ele>196.1</ele>
        <time>2020-07-26T07:41:58Z</time>
      </trkpt>
      <trkpt lat="43.1692670" lon="-1.1881310">
        <ele>195.7</ele>
        <time>2020-07-26T07:41:59Z</time>
      </trkpt>
      <trkpt lat="43.1693970" lon="-1.1878660">
        <ele>195.0</ele>
        <time>2020-07-26T07:42:01Z</time>
      </trkpt>
      <trkpt lat="43.1695460" lon="-1.1876170">
        <ele>194.7</ele>
        <time>2020-07-26T07:42:03Z</time>
      </trkpt>
      <trkpt lat="43.1696270" lon="-1.1875020">
        <ele>194.7</ele>
        <time>2020-07-26T07:42:04Z</time>
      </trkpt>
      <trkpt lat="43.1697100" lon="-1.1873950">
        <ele>194.6</ele>
        <time>2020-07-26T07:42:05Z</time>
      </trkpt>
      <trkpt lat="43.1698750" lon="-1.1871990">
        <ele>194.3</ele>
        <time>2020-07-26T07:42:07Z</time>
      </trkpt>
      <trkpt lat="43.1700400" lon="-1.1870220">
        <ele>194.1</ele>
        <time>2020-07-26T07:42:09Z</time>
      </trkpt>
      <trkpt lat="43.1702020" lon="-1.1868720">
        <ele>194.2</ele>
        <time>2020-07-26T07:42:11Z</time>
      </trkpt>
      <trkpt lat="43.1704380" lon="-1.1866790">
        <ele>194.5</ele>
        <time>2020-07-26T07:42:14Z</time>
      </trkpt>
      <trkpt lat="43.1709330" lon="-1.1862840">
        <ele>195.0</ele>
        <time>2020-07-26T07:42:21Z</time>
      </trkpt>
      <trkpt lat="43.1712570" lon="-1.1860270">
        <ele>195.0</ele>
        <time>2020-07-26T07:42:26Z</time>
      </trkpt>
      <trkpt lat="43.1715700" lon="-1.1857750">
        <ele>194.7</ele>
        <time>2020-07-26T07:42:31Z</time>
      </trkpt>
      <trkpt lat="43.1720810" lon="-1.1853600">
        <ele>193.7</ele>
        <time>2020-07-26T07:42:39Z</time>
      </trkpt>
      <trkpt lat="43.1724160" lon="-1.1850850">
        <ele>192.8</ele>
        <time>2020-07-26T07:42:44Z</time>
      </trkpt>
      <trkpt lat="43.1729080" lon="-1.1846830">
        <ele>191.7</ele>
        <time>2020-07-26T07:42:51Z</time>
      </trkpt>
      <trkpt lat="43.1732550" lon="-1.1843880">
        <ele>191.0</ele>
        <time>2020-07-26T07:42:56Z</time>
      </trkpt>
      <trkpt lat="43.1733230" lon="-1.1843260">
        <ele>190.9</ele>
        <time>2020-07-26T07:42:57Z</time>
      </trkpt>
      <trkpt lat="43.1738000" lon="-1.1839260">
        <ele>190.3</ele>
        <time>2020-07-26T07:43:04Z</time>
      </trkpt>
      <trkpt lat="43.1743190" lon="-1.1834960">
        <ele>190.4</ele>
        <time>2020-07-26T07:43:12Z</time>
      </trkpt>
      <trkpt lat="43.1745080" lon="-1.1833500">
        <ele>190.3</ele>
        <time>2020-07-26T07:43:15Z</time>
      </trkpt>
      <trkpt lat="43.1749890" lon="-1.1829890">
        <ele>191.0</ele>
        <time>2020-07-26T07:43:23Z</time>
      </trkpt>
      <trkpt lat="43.1751600" lon="-1.1828630">
        <ele>191.4</ele>
        <time>2020-07-26T07:43:26Z</time>
      </trkpt>
      <trkpt lat="43.1756350" lon="-1.1824990">
        <ele>193.0</ele>
        <time>2020-07-26T07:43:35Z</time>
      </trkpt>
      <trkpt lat="43.1756830" lon="-1.1824590">
        <ele>193.2</ele>
        <time>2020-07-26T07:43:36Z</time>
      </trkpt>
      <trkpt lat="43.1759940" lon="-1.1822020">
        <ele>194.8</ele>
        <time>2020-07-26T07:43:43Z</time>
      </trkpt>
      <trkpt lat="43.1760330" lon="-1.1821690">
        <ele>195.1</ele>
        <time>2020-07-26T07:43:44Z</time>
      </trkpt>
      <trkpt lat="43.1762440" lon="-1.1819850">
        <ele>196.6</ele>
        <time>2020-07-26T07:43:50Z</time>
      </trkpt>
      <trkpt lat="43.1762810" lon="-1.1819560">
        <ele>196.9</ele>
        <time>2020-07-26T07:43:51Z</time>
      </trkpt>
      <trkpt lat="43.1764230" lon="-1.1818430">
        <ele>198.2</ele>
        <time>2020-07-26T07:43:55Z</time>
      </trkpt>
      <trkpt lat="43.1765590" lon="-1.1817320">
        <ele>199.3</ele>
        <time>2020-07-26T07:43:59Z</time>
      </trkpt>
      <trkpt lat="43.1766910" lon="-1.1816260">
        <ele>200.3</ele>
        <time>2020-07-26T07:44:03Z</time>
      </trkpt>
      <trkpt lat="43.1768500" lon="-1.1815000">
        <ele>201.5</ele>
        <time>2020-07-26T07:44:08Z</time>
      </trkpt>
      <trkpt lat="43.1770060" lon="-1.1813710">
        <ele>202.6</ele>
        <time>2020-07-26T07:44:13Z</time>
      </trkpt>
      <trkpt lat="43.1770370" lon="-1.1813440">
        <ele>202.9</ele>
        <time>2020-07-26T07:44:14Z</time>
      </trkpt>
      <trkpt lat="43.1771940" lon="-1.1812120">
        <ele>204.0</ele>
        <time>2020-07-26T07:44:19Z</time>
      </trkpt>
      <trkpt lat="43.1773480" lon="-1.1810830">
        <ele>205.1</ele>
        <time>2020-07-26T07:44:24Z</time>
      </trkpt>
      <trkpt lat="43.1774610" lon="-1.1809870">
        <ele>206.0</ele>
        <time>2020-07-26T07:44:28Z</time>
      </trkpt>
      <trkpt lat="43.1775860" lon="-1.1808840">
        <ele>206.9</ele>
        <time>2020-07-26T07:44:32Z</time>
      </trkpt>
      <trkpt lat="43.1777130" lon="-1.1807810">
        <ele>207.8</ele>
        <time>2020-07-26T07:44:36Z</time>
      </trkpt>
      <trkpt lat="43.1779070" lon="-1.1806270">
        <ele>208.9</ele>
        <time>2020-07-26T07:44:42Z</time>
      </trkpt>
      <trkpt lat="43.1780750" lon="-1.1804950">
        <ele>209.5</ele>
        <time>2020-07-26T07:44:47Z</time>
      </trkpt>
      <trkpt lat="43.1781800" lon="-1.1804140">
        <ele>209.8</ele>
        <time>2020-07-26T07:44:50Z</time>
      </trkpt>
      <trkpt lat="43.1782520" lon="-1.1803570">
        <ele>210.0</ele>
        <time>2020-07-26T07:44:52Z</time>
      </trkpt>
      <trkpt lat="43.1785160" lon="-1.1801390">
        <ele>210.5</ele>
        <time>2020-07-26T07:44:59Z</time>
      </trkpt>
      <trkpt lat="43.1788600" lon="-1.1798570">
        <ele>210.2</ele>
        <time>2020-07-26T07:45:07Z</time>
      </trkpt>
      <trkpt lat="43.1792070" lon="-1.1795880">
        <ele>208.6</ele>
        <time>2020-07-26T07:45:13Z</time>
      </trkpt>
      <trkpt lat="43.1795890" lon="-1.1793020">
        <ele>205.7</ele>
        <time>2020-07-26T07:45:18Z</time>
      </trkpt>
      <trkpt lat="43.1799500" lon="-1.1790170">
        <ele>202.4</ele>
        <time>2020-07-26T07:45:22Z</time>
      </trkpt>
      <trkpt lat="43.1801360" lon="-1.1788600">
        <ele>201.1</ele>
        <time>2020-07-26T07:45:24Z</time>
      </trkpt>
      <trkpt lat="43.1803280" lon="-1.1787020">
        <ele>200.1</ele>
        <time>2020-07-26T07:45:26Z</time>
      </trkpt>
      <trkpt lat="43.1804260" lon="-1.1786250">
        <ele>199.6</ele>
        <time>2020-07-26T07:45:27Z</time>
      </trkpt>
      <trkpt lat="43.1805260" lon="-1.1785500">
        <ele>199.2</ele>
        <time>2020-07-26T07:45:28Z</time>
      </trkpt>
      <trkpt lat="43.1807230" lon="-1.1784010">
        <ele>198.7</ele>
        <time>2020-07-26T07:45:30Z</time>
      </trkpt>
      <trkpt lat="43.1809100" lon="-1.1782510">
        <ele>198.4</ele>
        <time>2020-07-26T07:45:32Z</time>
      </trkpt>
      <trkpt lat="43.1810890" lon="-1.1781000">
        <ele>198.2</ele>
        <time>2020-07-26T07:45:34Z</time>
      </trkpt>
      <trkpt lat="43.1812650" lon="-1.1779540">
        <ele>198.2</ele>
        <time>2020-07-26T07:45:36Z</time>
      </trkpt>
      <trkpt lat="43.1815240" lon="-1.1777450">
        <ele>198.3</ele>
        <time>2020-07-26T07:45:39Z</time>
      </trkpt>
      <trkpt lat="43.1819750" lon="-1.1773520">
        <ele>199.0</ele>
        <time>2020-07-26T07:45:45Z</time>
      </trkpt>
      <trkpt lat="43.1824170" lon="-1.1769140">
        <ele>199.6</ele>
        <time>2020-07-26T07:45:52Z</time>
      </trkpt>
      <trkpt lat="43.1827310" lon="-1.1765200">
        <ele>199.9</ele>
        <time>2020-07-26T07:45:58Z</time>
      </trkpt>
      <trkpt lat="43.1827760" lon="-1.1764470">
        <ele>199.9</ele>
        <time>2020-07-26T07:45:59Z</time>
      </trkpt>
      <trkpt lat="43.1829240" lon="-1.1761310">
        <ele>199.9</ele>
        <time>2020-07-26T07:46:03Z</time>
      </trkpt>
      <trkpt lat="43.1829480" lon="-1.1760420">
        <ele>199.8</ele>
        <time>2020-07-26T07:46:04Z</time>
      </trkpt>
      <trkpt lat="43.1829850" lon="-1.1758560">
        <ele>199.5</ele>
        <time>2020-07-26T07:46:06Z</time>
      </trkpt>
      <trkpt lat="43.1830560" lon="-1.1754700">
        <ele>199.0</ele>
        <time>2020-07-26T07:46:10Z</time>
      </trkpt>
      <trkpt lat="43.1832060" lon="-1.1746530">
        <ele>198.6</ele>
        <time>2020-07-26T07:46:18Z</time>
      </trkpt>
      <trkpt lat="43.1832250" lon="-1.1745520">
        <ele>198.6</ele>
        <time>2020-07-26T07:46:19Z</time>
      </trkpt>
      <trkpt lat="43.1832620" lon="-1.1743440">
        <ele>198.5</ele>
        <time>2020-07-26T07:46:21Z</time>
      </trkpt>
      <trkpt lat="43.1834100" lon="-1.1735520">
        <ele>198.2</ele>
        <time>2020-07-26T07:46:29Z</time>
      </trkpt>
      <trkpt lat="43.1834440" lon="-1.1733620">
        <ele>198.1</ele>
        <time>2020-07-26T07:46:31Z</time>
      </trkpt>
      <trkpt lat="43.1836230" lon="-1.1726220">
        <ele>197.8</ele>
        <time>2020-07-26T07:46:39Z</time>
      </trkpt>
      <trkpt lat="43.1837650" lon="-1.1722750">
        <ele>197.6</ele>
        <time>2020-07-26T07:46:43Z</time>
      </trkpt>
      <trkpt lat="43.1838500" lon="-1.1721080">
        <ele>197.4</ele>
        <time>2020-07-26T07:46:45Z</time>
      </trkpt>
      <trkpt lat="43.1841610" lon="-1.1716600">
        <ele>197.1</ele>
        <time>2020-07-26T07:46:51Z</time>
      </trkpt>
      <trkpt lat="43.1845870" lon="-1.1712460">
        <ele>196.8</ele>
        <time>2020-07-26T07:46:58Z</time>
      </trkpt>
      <trkpt lat="43.1847720" lon="-1.1710850">
        <ele>196.8</ele>
        <time>2020-07-26T07:47:01Z</time>
      </trkpt>
      <trkpt lat="43.1851910" lon="-1.1707130">
        <ele>197.7</ele>
        <time>2020-07-26T07:47:08Z</time>
      </trkpt>
      <trkpt lat="43.1855620" lon="-1.1703910">
        <ele>198.9</ele>
        <time>2020-07-26T07:47:15Z</time>
      </trkpt>
      <trkpt lat="43.1858690" lon="-1.1701260">
        <ele>200.7</ele>
        <time>2020-07-26T07:47:22Z</time>
      </trkpt>
      <trkpt lat="43.1859480" lon="-1.1700570">
        <ele>201.2</ele>
        <time>2020-07-26T07:47:24Z</time>
      </trkpt>
      <trkpt lat="43.1860240" lon="-1.1699930">
        <ele>201.7</ele>
        <time>2020-07-26T07:47:26Z</time>
      </trkpt>
      <trkpt lat="43.1862030" lon="-1.1698410">
        <ele>202.8</ele>
        <time>2020-07-26T07:47:31Z</time>
      </trkpt>
      <trkpt lat="43.1863390" lon="-1.1697290">
        <ele>203.7</ele>
        <time>2020-07-26T07:47:35Z</time>
      </trkpt>
      <trkpt lat="43.1863730" lon="-1.1697010">
        <ele>204.0</ele>
        <time>2020-07-26T07:47:36Z</time>
      </trkpt>
      <trkpt lat="43.1865680" lon="-1.1695360">
        <ele>205.4</ele>
        <time>2020-07-26T07:47:42Z</time>
      </trkpt>
      <trkpt lat="43.1866580" lon="-1.1694620">
        <ele>206.2</ele>
        <time>2020-07-26T07:47:45Z</time>
      </trkpt>
      <trkpt lat="43.1866880" lon="-1.1694370">
        <ele>206.4</ele>
        <time>2020-07-26T07:47:46Z</time>
      </trkpt>
      <trkpt lat="43.1868240" lon="-1.1693100">
        <ele>207.9</ele>
        <time>2020-07-26T07:47:51Z</time>
      </trkpt>
      <trkpt lat="43.1869320" lon="-1.1692140">
        <ele>209.0</ele>
        <time>2020-07-26T07:47:55Z</time>
      </trkpt>
      <trkpt lat="43.1870600" lon="-1.1690990">
        <ele>210.3</ele>
        <time>2020-07-26T07:48:00Z</time>
      </trkpt>
      <trkpt lat="43.1871380" lon="-1.1690300">
        <ele>211.2</ele>
        <time>2020-07-26T07:48:03Z</time>
      </trkpt>
      <trkpt lat="43.1871880" lon="-1.1689860">
        <ele>211.7</ele>
        <time>2020-07-26T07:48:05Z</time>
      </trkpt>
      <trkpt lat="43.1872670" lon="-1.1689200">
        <ele>212.6</ele>
        <time>2020-07-26T07:48:08Z</time>
      </trkpt>
      <trkpt lat="43.1873720" lon="-1.1688300">
        <ele>213.7</ele>
        <time>2020-07-26T07:48:12Z</time>
      </trkpt>
      <trkpt lat="43.1874840" lon="-1.1687410">
        <ele>214.8</ele>
        <time>2020-07-26T07:48:16Z</time>
      </trkpt>
      <trkpt lat="43.1875110" lon="-1.1687180">
        <ele>215.1</ele>
        <time>2020-07-26T07:48:17Z</time>
      </trkpt>
      <trkpt lat="43.1876200" lon="-1.1686230">
        <ele>216.2</ele>
        <time>2020-07-26T07:48:21Z</time>
      </trkpt>
      <trkpt lat="43.1877580" lon="-1.1685060">
        <ele>217.4</ele>
        <time>2020-07-26T07:48:26Z</time>
      </trkpt>
      <trkpt lat="43.1877860" lon="-1.1684820">
        <ele>217.6</ele>
        <time>2020-07-26T07:48:27Z</time>
      </trkpt>
      <trkpt lat="43.1878440" lon="-1.1684360">
        <ele>218.1</ele>
        <time>2020-07-26T07:48:29Z</time>
      </trkpt>
      <trkpt lat="43.1879850" lon="-1.1683210">
        <ele>219.0</ele>
        <time>2020-07-26T07:48:34Z</time>
      </trkpt>
      <trkpt lat="43.1880970" lon="-1.1682270">
        <ele>219.8</ele>
        <time>2020-07-26T07:48:38Z</time>
      </trkpt>
      <trkpt lat="43.1881530" lon="-1.1681820">
        <ele>220.2</ele>
        <time>2020-07-26T07:48:40Z</time>
      </trkpt>
      <trkpt lat="43.1882930" lon="-1.1680600">
        <ele>221.1</ele>
        <time>2020-07-26T07:48:45Z</time>
      </trkpt>
      <trkpt lat="43.1883930" lon="-1.1679490">
        <ele>221.9</ele>
        <time>2020-07-26T07:48:49Z</time>
      </trkpt>
      <trkpt lat="43.1884690" lon="-1.1678660">
        <ele>222.4</ele>
        <time>2020-07-26T07:48:52Z</time>
      </trkpt>
      <trkpt lat="43.1885800" lon="-1.1677110">
        <ele>222.9</ele>
        <time>2020-07-26T07:48:57Z</time>
      </trkpt>
      <trkpt lat="43.1885960" lon="-1.1676810">
        <ele>223.0</ele>
        <time>2020-07-26T07:48:58Z</time>
      </trkpt>
      <trkpt lat="43.1887610" lon="-1.1674860">
        <ele>223.4</ele>
        <time>2020-07-26T07:49:04Z</time>
      </trkpt>
      <trkpt lat="43.1891230" lon="-1.1671360">
        <ele>223.9</ele>
        <time>2020-07-26T07:49:13Z</time>
      </trkpt>
      <trkpt lat="43.1895330" lon="-1.1667190">
        <ele>224.9</ele>
        <time>2020-07-26T07:49:23Z</time>
      </trkpt>
      <trkpt lat="43.1895720" lon="-1.1666800">
        <ele>225.0</ele>
        <time>2020-07-26T07:49:24Z</time>
      </trkpt>
      <trkpt lat="43.1898620" lon="-1.1663500">
        <ele>226.2</ele>
        <time>2020-07-26T07:49:32Z</time>
      </trkpt>
      <trkpt lat="43.1899750" lon="-1.1662320">
        <ele>226.7</ele>
        <time>2020-07-26T07:49:35Z</time>
      </trkpt>
      <trkpt lat="43.1901540" lon="-1.1660600">
        <ele>227.5</ele>
        <time>2020-07-26T07:49:40Z</time>
      </trkpt>
      <trkpt lat="43.1903170" lon="-1.1658830">
        <ele>228.4</ele>
        <time>2020-07-26T07:49:45Z</time>
      </trkpt>
      <trkpt lat="43.1904470" lon="-1.1657430">
        <ele>229.1</ele>
        <time>2020-07-26T07:49:49Z</time>
      </trkpt>
      <trkpt lat="43.1904780" lon="-1.1657040">
        <ele>229.3</ele>
        <time>2020-07-26T07:49:50Z</time>
      </trkpt>
      <trkpt lat="43.1906650" lon="-1.1654850">
        <ele>230.4</ele>
        <time>2020-07-26T07:49:56Z</time>
      </trkpt>
      <trkpt lat="43.1907330" lon="-1.1654100">
        <ele>230.8</ele>
        <time>2020-07-26T07:49:58Z</time>
      </trkpt>
      <trkpt lat="43.1908720" lon="-1.1652520">
        <ele>231.6</ele>
        <time>2020-07-26T07:50:02Z</time>
      </trkpt>
      <trkpt lat="43.1909130" lon="-1.1652180">
        <ele>231.8</ele>
        <time>2020-07-26T07:50:03Z</time>
      </trkpt>
      <trkpt lat="43.1909890" lon="-1.1651540">
        <ele>232.1</ele>
        <time>2020-07-26T07:50:05Z</time>
      </trkpt>
      <trkpt lat="43.1911910" lon="-1.1650370">
        <ele>233.1</ele>
        <time>2020-07-26T07:50:10Z</time>
      </trkpt>
      <trkpt lat="43.1913150" lon="-1.1649850">
        <ele>233.6</ele>
        <time>2020-07-26T07:50:13Z</time>
      </trkpt>
      <trkpt lat="43.1914460" lon="-1.1649530">
        <ele>234.1</ele>
        <time>2020-07-26T07:50:16Z</time>
      </trkpt>
      <trkpt lat="43.1916200" lon="-1.1649180">
        <ele>234.7</ele>
        <time>2020-07-26T07:50:20Z</time>
      </trkpt>
      <trkpt lat="43.1916600" lon="-1.1649120">
        <ele>234.8</ele>
        <time>2020-07-26T07:50:21Z</time>
      </trkpt>
      <trkpt lat="43.1918920" lon="-1.1649060">
        <ele>235.1</ele>
        <time>2020-07-26T07:50:27Z</time>
      </trkpt>
      <trkpt lat="43.1921410" lon="-1.1649020">
        <ele>234.4</ele>
        <time>2020-07-26T07:50:31Z</time>
      </trkpt>
      <trkpt lat="43.1924310" lon="-1.1648240">
        <ele>232.7</ele>
        <time>2020-07-26T07:50:35Z</time>
      </trkpt>
      <trkpt lat="43.1927740" lon="-1.1646130">
        <ele>230.1</ele>
        <time>2020-07-26T07:50:39Z</time>
      </trkpt>
      <trkpt lat="43.1929660" lon="-1.1644750">
        <ele>228.2</ele>
        <time>2020-07-26T07:50:41Z</time>
      </trkpt>
      <trkpt lat="43.1931510" lon="-1.1642990">
        <ele>226.1</ele>
        <time>2020-07-26T07:50:43Z</time>
      </trkpt>
      <trkpt lat="43.1933280" lon="-1.1640920">
        <ele>224.0</ele>
        <time>2020-07-26T07:50:45Z</time>
      </trkpt>
      <trkpt lat="43.1934980" lon="-1.1638500">
        <ele>221.6</ele>
        <time>2020-07-26T07:50:47Z</time>
      </trkpt>
      <trkpt lat="43.1935830" lon="-1.1637150">
        <ele>220.3</ele>
        <time>2020-07-26T07:50:48Z</time>
      </trkpt>
      <trkpt lat="43.1936510" lon="-1.1635720">
        <ele>219.2</ele>
        <time>2020-07-26T07:50:49Z</time>
      </trkpt>
      <trkpt lat="43.1937210" lon="-1.1634290">
        <ele>218.0</ele>
        <time>2020-07-26T07:50:50Z</time>
      </trkpt>
      <trkpt lat="43.1937980" lon="-1.1632810">
        <ele>216.7</ele>
        <time>2020-07-26T07:50:51Z</time>
      </trkpt>
      <trkpt lat="43.1938780" lon="-1.1631300">
        <ele>215.3</ele>
        <time>2020-07-26T07:50:52Z</time>
      </trkpt>
      <trkpt lat="43.1939660" lon="-1.1629740">
        <ele>213.9</ele>
        <time>2020-07-26T07:50:53Z</time>
      </trkpt>
      <trkpt lat="43.1940530" lon="-1.1628160">
        <ele>212.7</ele>
        <time>2020-07-26T07:50:54Z</time>
      </trkpt>
      <trkpt lat="43.1942310" lon="-1.1624950">
        <ele>210.5</ele>
        <time>2020-07-26T07:50:56Z</time>
      </trkpt>
      <trkpt lat="43.1943180" lon="-1.1623340">
        <ele>209.5</ele>
        <time>2020-07-26T07:50:57Z</time>
      </trkpt>
      <trkpt lat="43.1944880" lon="-1.1620180">
        <ele>208.2</ele>
        <time>2020-07-26T07:50:59Z</time>
      </trkpt>
      <trkpt lat="43.1945720" lon="-1.1618650">
        <ele>207.7</ele>
        <time>2020-07-26T07:51:00Z</time>
      </trkpt>
      <trkpt lat="43.1946540" lon="-1.1617140">
        <ele>207.4</ele>
        <time>2020-07-26T07:51:01Z</time>
      </trkpt>
      <trkpt lat="43.1947350" lon="-1.1615620">
        <ele>207.2</ele>
        <time>2020-07-26T07:51:02Z</time>
      </trkpt>
      <trkpt lat="43.1948140" lon="-1.1614100">
        <ele>207.2</ele>
        <time>2020-07-26T07:51:03Z</time>
      </trkpt>
      <trkpt lat="43.1948880" lon="-1.1612640">
        <ele>207.4</ele>
        <time>2020-07-26T07:51:04Z</time>
      </trkpt>
      <trkpt lat="43.1949590" lon="-1.1611230">
        <ele>207.8</ele>
        <time>2020-07-26T07:51:05Z</time>
      </trkpt>
      <trkpt lat="43.1951500" lon="-1.1607460">
        <ele>209.5</ele>
        <time>2020-07-26T07:51:08Z</time>
      </trkpt>
      <trkpt lat="43.1952630" lon="-1.1605290">
        <ele>210.4</ele>
        <time>2020-07-26T07:51:10Z</time>
      </trkpt>
      <trkpt lat="43.1954910" lon="-1.1600820">
        <ele>212.5</ele>
        <time>2020-07-26T07:51:15Z</time>
      </trkpt>
      <trkpt lat="43.1955290" lon="-1.1600070">
        <ele>212.9</ele>
        <time>2020-07-26T07:51:16Z</time>
      </trkpt>
      <trkpt lat="43.1956010" lon="-1.1598660">
        <ele>213.7</ele>
        <time>2020-07-26T07:51:18Z</time>
      </trkpt>
      <trkpt lat="43.1956630" lon="-1.1597330">
        <ele>214.4</ele>
        <time>2020-07-26T07:51:20Z</time>
      </trkpt>
      <trkpt lat="43.1956940" lon="-1.1596710">
        <ele>214.7</ele>
        <time>2020-07-26T07:51:21Z</time>
      </trkpt>
      <trkpt lat="43.1957240" lon="-1.1596110">
        <ele>215.0</ele>
        <time>2020-07-26T07:51:22Z</time>
      </trkpt>
      <trkpt lat="43.1957830" lon="-1.1594930">
        <ele>215.5</ele>
        <time>2020-07-26T07:51:24Z</time>
      </trkpt>
      <trkpt lat="43.1958420" lon="-1.1593790">
        <ele>215.9</ele>
        <time>2020-07-26T07:51:26Z</time>
      </trkpt>
      <trkpt lat="43.1959300" lon="-1.1592120">
        <ele>216.6</ele>
        <time>2020-07-26T07:51:29Z</time>
      </trkpt>
      <trkpt lat="43.1959850" lon="-1.1591000">
        <ele>217.0</ele>
        <time>2020-07-26T07:51:31Z</time>
      </trkpt>
      <trkpt lat="43.1960120" lon="-1.1590440">
        <ele>217.2</ele>
        <time>2020-07-26T07:51:32Z</time>
      </trkpt>
      <trkpt lat="43.1961700" lon="-1.1587240">
        <ele>218.3</ele>
        <time>2020-07-26T07:51:38Z</time>
      </trkpt>
      <trkpt lat="43.1962700" lon="-1.1585150">
        <ele>219.2</ele>
        <time>2020-07-26T07:51:42Z</time>
      </trkpt>
      <trkpt lat="43.1963170" lon="-1.1584160">
        <ele>219.6</ele>
        <time>2020-07-26T07:51:44Z</time>
      </trkpt>
      <trkpt lat="43.1964320" lon="-1.1581800">
        <ele>220.3</ele>
        <time>2020-07-26T07:51:49Z</time>
      </trkpt>
      <trkpt lat="43.1965470" lon="-1.1579430">
        <ele>221.0</ele>
        <time>2020-07-26T07:51:54Z</time>
      </trkpt>
      <trkpt lat="43.1967000" lon="-1.1576310">
        <ele>221.4</ele>
        <time>2020-07-26T07:52:00Z</time>
      </trkpt>
      <trkpt lat="43.1968120" lon="-1.1573990">
        <ele>221.5</ele>
        <time>2020-07-26T07:52:04Z</time>
      </trkpt>
      <trkpt lat="43.1971300" lon="-1.1567520">
        <ele>221.8</ele>
        <time>2020-07-26T07:52:14Z</time>
      </trkpt>
      <trkpt lat="43.1974160" lon="-1.1561200">
        <ele>223.7</ele>
        <time>2020-07-26T07:52:24Z</time>
      </trkpt>
      <trkpt lat="43.1975340" lon="-1.1557550">
        <ele>224.9</ele>
        <time>2020-07-26T07:52:30Z</time>
      </trkpt>
      <trkpt lat="43.1975960" lon="-1.1555150">
        <ele>225.7</ele>
        <time>2020-07-26T07:52:34Z</time>
      </trkpt>
      <trkpt lat="43.1976580" lon="-1.1551660">
        <ele>226.8</ele>
        <time>2020-07-26T07:52:40Z</time>
      </trkpt>
      <trkpt lat="43.1976850" lon="-1.1549890">
        <ele>227.3</ele>
        <time>2020-07-26T07:52:43Z</time>
      </trkpt>
      <trkpt lat="43.1977080" lon="-1.1548150">
        <ele>227.8</ele>
        <time>2020-07-26T07:52:46Z</time>
      </trkpt>
      <trkpt lat="43.1977580" lon="-1.1544640">
        <ele>228.7</ele>
        <time>2020-07-26T07:52:52Z</time>
      </trkpt>
      <trkpt lat="43.1977840" lon="-1.1542860">
        <ele>229.2</ele>
        <time>2020-07-26T07:52:55Z</time>
      </trkpt>
      <trkpt lat="43.1978090" lon="-1.1541080">
        <ele>229.7</ele>
        <time>2020-07-26T07:52:58Z</time>
      </trkpt>
      <trkpt lat="43.1978590" lon="-1.1537440">
        <ele>230.7</ele>
        <time>2020-07-26T07:53:04Z</time>
      </trkpt>
      <trkpt lat="43.1978680" lon="-1.1536820">
        <ele>230.8</ele>
        <time>2020-07-26T07:53:05Z</time>
      </trkpt>
      <trkpt lat="43.1979540" lon="-1.1531210">
        <ele>231.5</ele>
        <time>2020-07-26T07:53:14Z</time>
      </trkpt>
      <trkpt lat="43.1979990" lon="-1.1528760">
        <ele>231.9</ele>
        <time>2020-07-26T07:53:18Z</time>
      </trkpt>
      <trkpt lat="43.1981240" lon="-1.1523950">
        <ele>232.7</ele>
        <time>2020-07-26T07:53:26Z</time>
      </trkpt>
      <trkpt lat="43.1981830" lon="-1.1522270">
        <ele>233.0</ele>
        <time>2020-07-26T07:53:29Z</time>
      </trkpt>
      <trkpt lat="43.1983110" lon="-1.1519440">
        <ele>233.4</ele>
        <time>2020-07-26T07:53:34Z</time>
      </trkpt>
      <trkpt lat="43.1983990" lon="-1.1517720">
        <ele>233.5</ele>
        <time>2020-07-26T07:53:37Z</time>
      </trkpt>
      <trkpt lat="43.1987010" lon="-1.1512970">
        <ele>233.2</ele>
        <time>2020-07-26T07:53:45Z</time>
      </trkpt>
      <trkpt lat="43.1989780" lon="-1.1510000">
        <ele>231.6</ele>
        <time>2020-07-26T07:53:50Z</time>
      </trkpt>
      <trkpt lat="43.1994110" lon="-1.1506730">
        <ele>228.7</ele>
        <time>2020-07-26T07:53:56Z</time>
      </trkpt>
      <trkpt lat="43.1996750" lon="-1.1505410">
        <ele>227.2</ele>
        <time>2020-07-26T07:53:59Z</time>
      </trkpt>
      <trkpt lat="43.1998680" lon="-1.1504640">
        <ele>226.4</ele>
        <time>2020-07-26T07:54:01Z</time>
      </trkpt>
      <trkpt lat="43.1999670" lon="-1.1504240">
        <ele>226.1</ele>
        <time>2020-07-26T07:54:02Z</time>
      </trkpt>
      <trkpt lat="43.2001630" lon="-1.1503350">
        <ele>225.4</ele>
        <time>2020-07-26T07:54:04Z</time>
      </trkpt>
      <trkpt lat="43.2003560" lon="-1.1502300">
        <ele>225.1</ele>
        <time>2020-07-26T07:54:06Z</time>
      </trkpt>
      <trkpt lat="43.2005380" lon="-1.1501140">
        <ele>225.0</ele>
        <time>2020-07-26T07:54:08Z</time>
      </trkpt>
      <trkpt lat="43.2007110" lon="-1.1499880">
        <ele>225.0</ele>
        <time>2020-07-26T07:54:10Z</time>
      </trkpt>
      <trkpt lat="43.2009490" lon="-1.1497930">
        <ele>225.4</ele>
        <time>2020-07-26T07:54:13Z</time>
      </trkpt>
      <trkpt lat="43.2010220" lon="-1.1497280">
        <ele>225.6</ele>
        <time>2020-07-26T07:54:14Z</time>
      </trkpt>
      <trkpt lat="43.2014720" lon="-1.1493030">
        <ele>227.3</ele>
        <time>2020-07-26T07:54:21Z</time>
      </trkpt>
      <trkpt lat="43.2018070" lon="-1.1489860">
        <ele>229.2</ele>
        <time>2020-07-26T07:54:27Z</time>
      </trkpt>
      <trkpt lat="43.2019110" lon="-1.1488870">
        <ele>229.1</ele>
        <time>2020-07-26T07:54:29Z</time>
      </trkpt>
      <trkpt lat="43.2021040" lon="-1.1486990">
        <ele>229.9</ele>
        <time>2020-07-26T07:54:33Z</time>
      </trkpt>
      <trkpt lat="43.2022810" lon="-1.1485340">
        <ele>230.5</ele>
        <time>2020-07-26T07:54:37Z</time>
      </trkpt>
      <trkpt lat="43.2023230" lon="-1.1484930">
        <ele>230.6</ele>
        <time>2020-07-26T07:54:38Z</time>
      </trkpt>
      <trkpt lat="43.2025650" lon="-1.1482650">
        <ele>231.7</ele>
        <time>2020-07-26T07:54:44Z</time>
      </trkpt>
      <trkpt lat="43.2026810" lon="-1.1481580">
        <ele>232.3</ele>
        <time>2020-07-26T07:54:47Z</time>
      </trkpt>
      <trkpt lat="43.2028660" lon="-1.1479890">
        <ele>233.4</ele>
        <time>2020-07-26T07:54:52Z</time>
      </trkpt>
      <trkpt lat="43.2030060" lon="-1.1478490">
        <ele>234.3</ele>
        <time>2020-07-26T07:54:56Z</time>
      </trkpt>
      <trkpt lat="43.2030390" lon="-1.1478130">
        <ele>234.5</ele>
        <time>2020-07-26T07:54:57Z</time>
      </trkpt>
      <trkpt lat="43.2031370" lon="-1.1477030">
        <ele>235.1</ele>
        <time>2020-07-26T07:55:00Z</time>
      </trkpt>
      <trkpt lat="43.2032980" lon="-1.1475040">
        <ele>235.6</ele>
        <time>2020-07-26T07:55:05Z</time>
      </trkpt>
      <trkpt lat="43.2033310" lon="-1.1474600">
        <ele>235.7</ele>
        <time>2020-07-26T07:55:06Z</time>
      </trkpt>
      <trkpt lat="43.2034710" lon="-1.1472730">
        <ele>235.8</ele>
        <time>2020-07-26T07:55:10Z</time>
      </trkpt>
      <trkpt lat="43.2036170" lon="-1.1470780">
        <ele>235.7</ele>
        <time>2020-07-26T07:55:14Z</time>
      </trkpt>
      <trkpt lat="43.2039920" lon="-1.1465680">
        <ele>235.6</ele>
        <time>2020-07-26T07:55:24Z</time>
      </trkpt>
      <trkpt lat="43.2043420" lon="-1.1461240">
        <ele>234.9</ele>
        <time>2020-07-26T07:55:32Z</time>
      </trkpt>
      <trkpt lat="43.2047560" lon="-1.1456000">
        <ele>233.7</ele>
        <time>2020-07-26T07:55:40Z</time>
      </trkpt>
      <trkpt lat="43.2048090" lon="-1.1455320">
        <ele>233.6</ele>
        <time>2020-07-26T07:55:41Z</time>
      </trkpt>
      <trkpt lat="43.2049700" lon="-1.1453180">
        <ele>233.1</ele>
        <time>2020-07-26T07:55:44Z</time>
      </trkpt>
      <trkpt lat="43.2051910" lon="-1.1450170">
        <ele>232.5</ele>
        <time>2020-07-26T07:55:48Z</time>
      </trkpt>
      <trkpt lat="43.2053860" lon="-1.1447040">
        <ele>231.9</ele>
        <time>2020-07-26T07:55:52Z</time>
      </trkpt>
      <trkpt lat="43.2054980" lon="-1.1444590">
        <ele>231.8</ele>
        <time>2020-07-26T07:55:55Z</time>
      </trkpt>
      <trkpt lat="43.2058340" lon="-1.1439380">
        <ele>232.6</ele>
        <time>2020-07-26T07:56:02Z</time>
      </trkpt>
      <trkpt lat="43.2060990" lon="-1.1434870">
        <ele>234.1</ele>
        <time>2020-07-26T07:56:09Z</time>
      </trkpt>
      <trkpt lat="43.2062330" lon="-1.1432490">
        <ele>234.8</ele>
        <time>2020-07-26T07:56:13Z</time>
      </trkpt>
      <trkpt lat="43.2063890" lon="-1.1429660">
        <ele>235.6</ele>
        <time>2020-07-26T07:56:18Z</time>
      </trkpt>
      <trkpt lat="43.2065750" lon="-1.1426230">
        <ele>236.7</ele>
        <time>2020-07-26T07:56:24Z</time>
      </trkpt>
      <trkpt lat="43.2066650" lon="-1.1424580">
        <ele>237.2</ele>
        <time>2020-07-26T07:56:27Z</time>
      </trkpt>
      <trkpt lat="43.2066960" lon="-1.1424070">
        <ele>237.4</ele>
        <time>2020-07-26T07:56:28Z</time>
      </trkpt>
      <trkpt lat="43.2067860" lon="-1.1422560">
        <ele>237.9</ele>
        <time>2020-07-26T07:56:31Z</time>
      </trkpt>
      <trkpt lat="43.2068780" lon="-1.1421070">
        <ele>238.4</ele>
        <time>2020-07-26T07:56:34Z</time>
      </trkpt>
      <trkpt lat="43.2069700" lon="-1.1419720">
        <ele>239.0</ele>
        <time>2020-07-26T07:56:37Z</time>
      </trkpt>
      <trkpt lat="43.2071660" lon="-1.1417060">
        <ele>240.2</ele>
        <time>2020-07-26T07:56:43Z</time>
      </trkpt>
      <trkpt lat="43.2071980" lon="-1.1416630">
        <ele>240.4</ele>
        <time>2020-07-26T07:56:44Z</time>
      </trkpt>
      <trkpt lat="43.2073560" lon="-1.1414490">
        <ele>241.4</ele>
        <time>2020-07-26T07:56:49Z</time>
      </trkpt>
      <trkpt lat="43.2074110" lon="-1.1413650">
        <ele>241.8</ele>
        <time>2020-07-26T07:56:51Z</time>
      </trkpt>
      <trkpt lat="43.2075230" lon="-1.1412140">
        <ele>242.5</ele>
        <time>2020-07-26T07:56:55Z</time>
      </trkpt>
      <trkpt lat="43.2076450" lon="-1.1410760">
        <ele>243.2</ele>
        <time>2020-07-26T07:56:59Z</time>
      </trkpt>
      <trkpt lat="43.2076930" lon="-1.1410200">
        <ele>243.5</ele>
        <time>2020-07-26T07:57:01Z</time>
      </trkpt>
      <trkpt lat="43.2078400" lon="-1.1408390">
        <ele>244.4</ele>
        <time>2020-07-26T07:57:06Z</time>
      </trkpt>
      <trkpt lat="43.2080150" lon="-1.1406510">
        <ele>245.6</ele>
        <time>2020-07-26T07:57:11Z</time>
      </trkpt>
      <trkpt lat="43.2081030" lon="-1.1405400">
        <ele>246.3</ele>
        <time>2020-07-26T07:57:14Z</time>
      </trkpt>
      <trkpt lat="43.2082090" lon="-1.1403940">
        <ele>247.1</ele>
        <time>2020-07-26T07:57:18Z</time>
      </trkpt>
      <trkpt lat="43.2083390" lon="-1.1402240">
        <ele>248.1</ele>
        <time>2020-07-26T07:57:23Z</time>
      </trkpt>
      <trkpt lat="43.2083910" lon="-1.1401550">
        <ele>248.6</ele>
        <time>2020-07-26T07:57:25Z</time>
      </trkpt>
      <trkpt lat="43.2085070" lon="-1.1400100">
        <ele>249.5</ele>
        <time>2020-07-26T07:57:29Z</time>
      </trkpt>
      <trkpt lat="43.2086730" lon="-1.1397960">
        <ele>250.7</ele>
        <time>2020-07-26T07:57:35Z</time>
      </trkpt>
      <trkpt lat="43.2087010" lon="-1.1397610">
        <ele>250.9</ele>
        <time>2020-07-26T07:57:36Z</time>
      </trkpt>
      <trkpt lat="43.2088650" lon="-1.1395420">
        <ele>252.1</ele>
        <time>2020-07-26T07:57:42Z</time>
      </trkpt>
      <trkpt lat="43.2089190" lon="-1.1394750">
        <ele>252.5</ele>
        <time>2020-07-26T07:57:44Z</time>
      </trkpt>
      <trkpt lat="43.2090250" lon="-1.1393350">
        <ele>253.3</ele>
        <time>2020-07-26T07:57:48Z</time>
      </trkpt>
      <trkpt lat="43.2091690" lon="-1.1391610">
        <ele>254.3</ele>
        <time>2020-07-26T07:57:53Z</time>
      </trkpt>
      <trkpt lat="43.2092250" lon="-1.1390900">
        <ele>254.6</ele>
        <time>2020-07-26T07:57:55Z</time>
      </trkpt>
      <trkpt lat="43.2092770" lon="-1.1390190">
        <ele>255.0</ele>
        <time>2020-07-26T07:57:57Z</time>
      </trkpt>
      <trkpt lat="43.2094450" lon="-1.1388010">
        <ele>256.1</ele>
        <time>2020-07-26T07:58:03Z</time>
      </trkpt>
      <trkpt lat="43.2095310" lon="-1.1386910">
        <ele>256.6</ele>
        <time>2020-07-26T07:58:06Z</time>
      </trkpt>
      <trkpt lat="43.2096180" lon="-1.1385770">
        <ele>257.2</ele>
        <time>2020-07-26T07:58:09Z</time>
      </trkpt>
      <trkpt lat="43.2098710" lon="-1.1382440">
        <ele>258.9</ele>
        <time>2020-07-26T07:58:18Z</time>
      </trkpt>
      <trkpt lat="43.2100390" lon="-1.1380240">
        <ele>260.2</ele>
        <time>2020-07-26T07:58:24Z</time>
      </trkpt>
      <trkpt lat="43.2101470" lon="-1.1378860">
        <ele>261.1</ele>
        <time>2020-07-26T07:58:28Z</time>
      </trkpt>
      <trkpt lat="43.2101720" lon="-1.1378500">
        <ele>261.3</ele>
        <time>2020-07-26T07:58:29Z</time>
      </trkpt>
      <trkpt lat="43.2102370" lon="-1.1377370">
        <ele>262.0</ele>
        <time>2020-07-26T07:58:32Z</time>
      </trkpt>
      <trkpt lat="43.2103510" lon="-1.1375780">
        <ele>263.1</ele>
        <time>2020-07-26T07:59:23Z</time>
      </trkpt>
      <trkpt lat="43.2103680" lon="-1.1375510">
        <ele>263.2</ele>
        <time>2020-07-26T07:59:24Z</time>
      </trkpt>
      <trkpt lat="43.2105280" lon="-1.1373420">
        <ele>264.0</ele>
        <time>2020-07-26T07:59:30Z</time>
      </trkpt>
      <trkpt lat="43.2107890" lon="-1.1370050">
        <ele>263.8</ele>
        <time>2020-07-26T07:59:37Z</time>
      </trkpt>
      <trkpt lat="43.2110600" lon="-1.1366790">
        <ele>261.9</ele>
        <time>2020-07-26T07:59:42Z</time>
      </trkpt>
      <trkpt lat="43.2114390" lon="-1.1363230">
        <ele>258.9</ele>
        <time>2020-07-26T07:59:47Z</time>
      </trkpt>
      <trkpt lat="43.2117260" lon="-1.1360990">
        <ele>256.1</ele>
        <time>2020-07-26T07:59:50Z</time>
      </trkpt>
      <trkpt lat="43.2119320" lon="-1.1359260">
        <ele>253.9</ele>
        <time>2020-07-26T07:59:52Z</time>
      </trkpt>
      <trkpt lat="43.2121420" lon="-1.1357060">
        <ele>251.7</ele>
        <time>2020-07-26T07:59:54Z</time>
      </trkpt>
      <trkpt lat="43.2123400" lon="-1.1354410">
        <ele>249.5</ele>
        <time>2020-07-26T07:59:56Z</time>
      </trkpt>
      <trkpt lat="43.2124320" lon="-1.1352920">
        <ele>248.3</ele>
        <time>2020-07-26T07:59:57Z</time>
      </trkpt>
      <trkpt lat="43.2126160" lon="-1.1349890">
        <ele>245.9</ele>
        <time>2020-07-26T07:59:59Z</time>
      </trkpt>
      <trkpt lat="43.2127110" lon="-1.1348370">
        <ele>244.7</ele>
        <time>2020-07-26T08:00:00Z</time>
      </trkpt>
      <trkpt lat="43.2128050" lon="-1.1346830">
        <ele>243.4</ele>
        <time>2020-07-26T08:00:01Z</time>
      </trkpt>
      <trkpt lat="43.2129010" lon="-1.1345290">
        <ele>242.1</ele>
        <time>2020-07-26T08:00:02Z</time>
      </trkpt>
      <trkpt lat="43.2129950" lon="-1.1343740">
        <ele>240.9</ele>
        <time>2020-07-26T08:00:03Z</time>
      </trkpt>
      <trkpt lat="43.2130890" lon="-1.1342170">
        <ele>239.5</ele>
        <time>2020-07-26T08:00:04Z</time>
      </trkpt>
      <trkpt lat="43.2131820" lon="-1.1340600">
        <ele>238.2</ele>
        <time>2020-07-26T08:00:05Z</time>
      </trkpt>
      <trkpt lat="43.2132620" lon="-1.1338840">
        <ele>236.9</ele>
        <time>2020-07-26T08:00:06Z</time>
      </trkpt>
      <trkpt lat="43.2133300" lon="-1.1336950">
        <ele>235.7</ele>
        <time>2020-07-26T08:00:07Z</time>
      </trkpt>
      <trkpt lat="43.2133900" lon="-1.1334990">
        <ele>234.6</ele>
        <time>2020-07-26T08:00:08Z</time>
      </trkpt>
      <trkpt lat="43.2134440" lon="-1.1333020">
        <ele>233.6</ele>
        <time>2020-07-26T08:00:09Z</time>
      </trkpt>
      <trkpt lat="43.2134900" lon="-1.1331040">
        <ele>232.7</ele>
        <time>2020-07-26T08:00:10Z</time>
      </trkpt>
      <trkpt lat="43.2135230" lon="-1.1329030">
        <ele>231.7</ele>
        <time>2020-07-26T08:00:11Z</time>
      </trkpt>
      <trkpt lat="43.2135430" lon="-1.1327020">
        <ele>230.5</ele>
        <time>2020-07-26T08:00:12Z</time>
      </trkpt>
      <trkpt lat="43.2135510" lon="-1.1324990">
        <ele>229.5</ele>
        <time>2020-07-26T08:00:13Z</time>
      </trkpt>
      <trkpt lat="43.2135530" lon="-1.1322990">
        <ele>228.3</ele>
        <time>2020-07-26T08:00:14Z</time>
      </trkpt>
      <trkpt lat="43.2135540" lon="-1.1321020">
        <ele>227.2</ele>
        <time>2020-07-26T08:00:15Z</time>
      </trkpt>
      <trkpt lat="43.2135530" lon="-1.1319100">
        <ele>226.1</ele>
        <time>2020-07-26T08:00:16Z</time>
      </trkpt>
      <trkpt lat="43.2135490" lon="-1.1317100">
        <ele>224.9</ele>
        <time>2020-07-26T08:00:17Z</time>
      </trkpt>
      <trkpt lat="43.2135420" lon="-1.1315040">
        <ele>223.6</ele>
        <time>2020-07-26T08:00:18Z</time>
      </trkpt>
      <trkpt lat="43.2135310" lon="-1.1310900">
        <ele>221.2</ele>
        <time>2020-07-26T08:00:20Z</time>
      </trkpt>
      <trkpt lat="43.2135230" lon="-1.1306790">
        <ele>218.6</ele>
        <time>2020-07-26T08:00:22Z</time>
      </trkpt>
      <trkpt lat="43.2135350" lon="-1.1302710">
        <ele>216.3</ele>
        <time>2020-07-26T08:00:24Z</time>
      </trkpt>
      <trkpt lat="43.2135520" lon="-1.1300700">
        <ele>215.1</ele>
        <time>2020-07-26T08:00:25Z</time>
      </trkpt>
      <trkpt lat="43.2135740" lon="-1.1298670">
        <ele>213.9</ele>
        <time>2020-07-26T08:00:26Z</time>
      </trkpt>
      <trkpt lat="43.2136010" lon="-1.1296670">
        <ele>212.7</ele>
        <time>2020-07-26T08:00:27Z</time>
      </trkpt>
      <trkpt lat="43.2136350" lon="-1.1294690">
        <ele>211.6</ele>
        <time>2020-07-26T08:00:28Z</time>
      </trkpt>
      <trkpt lat="43.2136810" lon="-1.1292750">
        <ele>210.5</ele>
        <time>2020-07-26T08:00:29Z</time>
      </trkpt>
      <trkpt lat="43.2137380" lon="-1.1290850">
        <ele>209.6</ele>
        <time>2020-07-26T08:00:30Z</time>
      </trkpt>
      <trkpt lat="43.2138040" lon="-1.1289020">
        <ele>208.6</ele>
        <time>2020-07-26T08:00:31Z</time>
      </trkpt>
      <trkpt lat="43.2138780" lon="-1.1287260">
        <ele>207.6</ele>
        <time>2020-07-26T08:00:32Z</time>
      </trkpt>
      <trkpt lat="43.2140360" lon="-1.1283820">
        <ele>205.5</ele>
        <time>2020-07-26T08:00:34Z</time>
      </trkpt>
      <trkpt lat="43.2141160" lon="-1.1282110">
        <ele>204.3</ele>
        <time>2020-07-26T08:00:35Z</time>
      </trkpt>
      <trkpt lat="43.2141960" lon="-1.1280410">
        <ele>203.1</ele>
        <time>2020-07-26T08:00:36Z</time>
      </trkpt>
      <trkpt lat="43.2142780" lon="-1.1278700">
        <ele>201.9</ele>
        <time>2020-07-26T08:00:37Z</time>
      </trkpt>
      <trkpt lat="43.2144390" lon="-1.1275190">
        <ele>199.5</ele>
        <time>2020-07-26T08:00:39Z</time>
      </trkpt>
      <trkpt lat="43.2145170" lon="-1.1273370">
        <ele>198.3</ele>
        <time>2020-07-26T08:00:40Z</time>
      </trkpt>
      <trkpt lat="43.2145950" lon="-1.1271520">
        <ele>197.2</ele>
        <time>2020-07-26T08:00:41Z</time>
      </trkpt>
      <trkpt lat="43.2147430" lon="-1.1267740">
        <ele>195.1</ele>
        <time>2020-07-26T08:00:43Z</time>
      </trkpt>
      <trkpt lat="43.2148920" lon="-1.1264010">
        <ele>193.0</ele>
        <time>2020-07-26T08:00:45Z</time>
      </trkpt>
      <trkpt lat="43.2149660" lon="-1.1262180">
        <ele>192.0</ele>
        <time>2020-07-26T08:00:46Z</time>
      </trkpt>
      <trkpt lat="43.2150410" lon="-1.1260370">
        <ele>191.0</ele>
        <time>2020-07-26T08:00:47Z</time>
      </trkpt>
      <trkpt lat="43.2151200" lon="-1.1258620">
        <ele>189.9</ele>
        <time>2020-07-26T08:00:48Z</time>
      </trkpt>
      <trkpt lat="43.2152030" lon="-1.1256930">
        <ele>189.0</ele>
        <time>2020-07-26T08:00:49Z</time>
      </trkpt>
      <trkpt lat="43.2152940" lon="-1.1255330">
        <ele>188.1</ele>
        <time>2020-07-26T08:00:50Z</time>
      </trkpt>
      <trkpt lat="43.2153920" lon="-1.1253830">
        <ele>187.3</ele>
        <time>2020-07-26T08:00:51Z</time>
      </trkpt>
      <trkpt lat="43.2154970" lon="-1.1252450">
        <ele>186.7</ele>
        <time>2020-07-26T08:00:52Z</time>
      </trkpt>
      <trkpt lat="43.2156060" lon="-1.1251160">
        <ele>186.2</ele>
        <time>2020-07-26T08:00:53Z</time>
      </trkpt>
      <trkpt lat="43.2158290" lon="-1.1248760">
        <ele>185.2</ele>
        <time>2020-07-26T08:00:55Z</time>
      </trkpt>
      <trkpt lat="43.2160520" lon="-1.1246550">
        <ele>184.3</ele>
        <time>2020-07-26T08:00:57Z</time>
      </trkpt>
      <trkpt lat="43.2161630" lon="-1.1245470">
        <ele>183.9</ele>
        <time>2020-07-26T08:00:58Z</time>
      </trkpt>
      <trkpt lat="43.2162710" lon="-1.1244390">
        <ele>183.6</ele>
        <time>2020-07-26T08:00:59Z</time>
      </trkpt>
      <trkpt lat="43.2164860" lon="-1.1242240">
        <ele>183.2</ele>
        <time>2020-07-26T08:01:01Z</time>
      </trkpt>
      <trkpt lat="43.2168000" lon="-1.1239140">
        <ele>182.5</ele>
        <time>2020-07-26T08:01:04Z</time>
      </trkpt>
      <trkpt lat="43.2169040" lon="-1.1238110">
        <ele>182.2</ele>
        <time>2020-07-26T08:01:05Z</time>
      </trkpt>
      <trkpt lat="43.2174110" lon="-1.1233130">
        <ele>180.6</ele>
        <time>2020-07-26T08:01:10Z</time>
      </trkpt>
      <trkpt lat="43.2176060" lon="-1.1231190">
        <ele>179.8</ele>
        <time>2020-07-26T08:01:12Z</time>
      </trkpt>
      <trkpt lat="43.2178010" lon="-1.1229220">
        <ele>178.6</ele>
        <time>2020-07-26T08:01:14Z</time>
      </trkpt>
      <trkpt lat="43.2182070" lon="-1.1225210">
        <ele>176.3</ele>
        <time>2020-07-26T08:01:18Z</time>
      </trkpt>
      <trkpt lat="43.2185180" lon="-1.1222170">
        <ele>174.2</ele>
        <time>2020-07-26T08:01:21Z</time>
      </trkpt>
      <trkpt lat="43.2187250" lon="-1.1220110">
        <ele>172.9</ele>
        <time>2020-07-26T08:01:23Z</time>
      </trkpt>
      <trkpt lat="43.2189300" lon="-1.1217990">
        <ele>171.8</ele>
        <time>2020-07-26T08:01:25Z</time>
      </trkpt>
      <trkpt lat="43.2190310" lon="-1.1216880">
        <ele>171.3</ele>
        <time>2020-07-26T08:01:26Z</time>
      </trkpt>
      <trkpt lat="43.2193250" lon="-1.1213520">
        <ele>170.3</ele>
        <time>2020-07-26T08:01:29Z</time>
      </trkpt>
      <trkpt lat="43.2195120" lon="-1.1211300">
        <ele>169.5</ele>
        <time>2020-07-26T08:01:31Z</time>
      </trkpt>
      <trkpt lat="43.2196850" lon="-1.1209090">
        <ele>169.1</ele>
        <time>2020-07-26T08:01:33Z</time>
      </trkpt>
      <trkpt lat="43.2198540" lon="-1.1206910">
        <ele>168.8</ele>
        <time>2020-07-26T08:01:35Z</time>
      </trkpt>
      <trkpt lat="43.2201800" lon="-1.1202670">
        <ele>168.3</ele>
        <time>2020-07-26T08:01:39Z</time>
      </trkpt>
      <trkpt lat="43.2203340" lon="-1.1200580">
        <ele>168.0</ele>
        <time>2020-07-26T08:01:41Z</time>
      </trkpt>
      <trkpt lat="43.2207700" lon="-1.1194370">
        <ele>167.3</ele>
        <time>2020-07-26T08:01:47Z</time>
      </trkpt>
      <trkpt lat="43.2208410" lon="-1.1193360">
        <ele>167.2</ele>
        <time>2020-07-26T08:01:48Z</time>
      </trkpt>
      <trkpt lat="43.2212380" lon="-1.1187430">
        <ele>165.8</ele>
        <time>2020-07-26T08:01:54Z</time>
      </trkpt>
      <trkpt lat="43.2213000" lon="-1.1186410">
        <ele>165.5</ele>
        <time>2020-07-26T08:01:55Z</time>
      </trkpt>
      <trkpt lat="43.2213610" lon="-1.1185360">
        <ele>165.2</ele>
        <time>2020-07-26T08:01:56Z</time>
      </trkpt>
      <trkpt lat="43.2217150" lon="-1.1178900">
        <ele>163.6</ele>
        <time>2020-07-26T08:02:02Z</time>
      </trkpt>
      <trkpt lat="43.2218310" lon="-1.1176660">
        <ele>163.3</ele>
        <time>2020-07-26T08:02:04Z</time>
      </trkpt>
      <trkpt lat="43.2220100" lon="-1.1173310">
        <ele>162.9</ele>
        <time>2020-07-26T08:02:07Z</time>
      </trkpt>
      <trkpt lat="43.2221280" lon="-1.1171110">
        <ele>162.8</ele>
        <time>2020-07-26T08:02:09Z</time>
      </trkpt>
      <trkpt lat="43.2223970" lon="-1.1165950">
        <ele>163.0</ele>
        <time>2020-07-26T08:02:14Z</time>
      </trkpt>
      <trkpt lat="43.2224480" lon="-1.1164960">
        <ele>163.1</ele>
        <time>2020-07-26T08:02:15Z</time>
      </trkpt>
      <trkpt lat="43.2227870" lon="-1.1158370">
        <ele>163.5</ele>
        <time>2020-07-26T08:02:22Z</time>
      </trkpt>
      <trkpt lat="43.2228320" lon="-1.1157450">
        <ele>163.6</ele>
        <time>2020-07-26T08:02:23Z</time>
      </trkpt>
      <trkpt lat="43.2231430" lon="-1.1151190">
        <ele>163.9</ele>
        <time>2020-07-26T08:02:30Z</time>
      </trkpt>
      <trkpt lat="43.2231890" lon="-1.1150340">
        <ele>163.9</ele>
        <time>2020-07-26T08:02:31Z</time>
      </trkpt>
      <trkpt lat="43.2232340" lon="-1.1149500">
        <ele>163.9</ele>
        <time>2020-07-26T08:02:32Z</time>
      </trkpt>
      <trkpt lat="43.2235870" lon="-1.1142800">
        <ele>163.7</ele>
        <time>2020-07-26T08:02:40Z</time>
      </trkpt>
      <trkpt lat="43.2237160" lon="-1.1140210">
        <ele>163.5</ele>
        <time>2020-07-26T08:02:43Z</time>
      </trkpt>
      <trkpt lat="43.2240340" lon="-1.1134150">
        <ele>162.9</ele>
        <time>2020-07-26T08:02:50Z</time>
      </trkpt>
      <trkpt lat="43.2241270" lon="-1.1132340">
        <ele>162.5</ele>
        <time>2020-07-26T08:02:52Z</time>
      </trkpt>
      <trkpt lat="43.2244480" lon="-1.1125500">
        <ele>160.8</ele>
        <time>2020-07-26T08:02:59Z</time>
      </trkpt>
      <trkpt lat="43.2244950" lon="-1.1124460">
        <ele>160.5</ele>
        <time>2020-07-26T08:03:00Z</time>
      </trkpt>
      <trkpt lat="43.2247950" lon="-1.1118090">
        <ele>159.1</ele>
        <time>2020-07-26T08:03:06Z</time>
      </trkpt>
      <trkpt lat="43.2249520" lon="-1.1114840">
        <ele>158.1</ele>
        <time>2020-07-26T08:03:09Z</time>
      </trkpt>
      <trkpt lat="43.2250060" lon="-1.1113760">
        <ele>157.8</ele>
        <time>2020-07-26T08:03:10Z</time>
      </trkpt>
      <trkpt lat="43.2251180" lon="-1.1111610">
        <ele>157.3</ele>
        <time>2020-07-26T08:03:12Z</time>
      </trkpt>
      <trkpt lat="43.2252870" lon="-1.1108310">
        <ele>156.8</ele>
        <time>2020-07-26T08:03:15Z</time>
      </trkpt>
      <trkpt lat="43.2255160" lon="-1.1103930">
        <ele>156.4</ele>
        <time>2020-07-26T08:03:19Z</time>
      </trkpt>
      <trkpt lat="43.2256270" lon="-1.1101840">
        <ele>156.4</ele>
        <time>2020-07-26T08:03:21Z</time>
      </trkpt>
      <trkpt lat="43.2256820" lon="-1.1100830">
        <ele>156.4</ele>
        <time>2020-07-26T08:03:22Z</time>
      </trkpt>
      <trkpt lat="43.2260390" lon="-1.1094180">
        <ele>156.5</ele>
        <time>2020-07-26T08:03:29Z</time>
      </trkpt>
      <trkpt lat="43.2263710" lon="-1.1088020">
        <ele>156.4</ele>
        <time>2020-07-26T08:03:36Z</time>
      </trkpt>
      <trkpt lat="43.2264650" lon="-1.1086280">
        <ele>156.4</ele>
        <time>2020-07-26T08:03:38Z</time>
      </trkpt>
      <trkpt lat="43.2267830" lon="-1.1080250">
        <ele>156.3</ele>
        <time>2020-07-26T08:03:45Z</time>
      </trkpt>
      <trkpt lat="43.2269170" lon="-1.1077770">
        <ele>156.5</ele>
        <time>2020-07-26T08:03:48Z</time>
      </trkpt>
      <trkpt lat="43.2272630" lon="-1.1071190">
        <ele>155.7</ele>
        <time>2020-07-26T08:03:56Z</time>
      </trkpt>
      <trkpt lat="43.2273440" lon="-1.1069550">
        <ele>155.8</ele>
        <time>2020-07-26T08:03:58Z</time>
      </trkpt>
      <trkpt lat="43.2276820" lon="-1.1063120">
        <ele>155.7</ele>
        <time>2020-07-26T08:04:06Z</time>
      </trkpt>
      <trkpt lat="43.2277730" lon="-1.1061470">
        <ele>155.6</ele>
        <time>2020-07-26T08:04:08Z</time>
      </trkpt>
      <trkpt lat="43.2281360" lon="-1.1054870">
        <ele>155.1</ele>
        <time>2020-07-26T08:04:16Z</time>
      </trkpt>
      <trkpt lat="43.2282630" lon="-1.1052390">
        <ele>155.2</ele>
        <time>2020-07-26T08:04:19Z</time>
      </trkpt>
      <trkpt lat="43.2285920" lon="-1.1045970">
        <ele>155.6</ele>
        <time>2020-07-26T08:04:27Z</time>
      </trkpt>
      <trkpt lat="43.2286340" lon="-1.1045190">
        <ele>155.8</ele>
        <time>2020-07-26T08:04:28Z</time>
      </trkpt>
      <trkpt lat="43.2288240" lon="-1.1041460">
        <ele>156.7</ele>
        <time>2020-07-26T08:04:33Z</time>
      </trkpt>
      <trkpt lat="43.2291580" lon="-1.1035560">
        <ele>158.9</ele>
        <time>2020-07-26T08:04:42Z</time>
      </trkpt>
      <trkpt lat="43.2292170" lon="-1.1034520">
        <ele>159.5</ele>
        <time>2020-07-26T08:04:44Z</time>
      </trkpt>
      <trkpt lat="43.2293590" lon="-1.1032040">
        <ele>160.9</ele>
        <time>2020-07-26T08:04:49Z</time>
      </trkpt>
      <trkpt lat="43.2293840" lon="-1.1031560">
        <ele>161.2</ele>
        <time>2020-07-26T08:04:50Z</time>
      </trkpt>
      <trkpt lat="43.2294620" lon="-1.1030200">
        <ele>162.0</ele>
        <time>2020-07-26T08:04:53Z</time>
      </trkpt>
      <trkpt lat="43.2295620" lon="-1.1028420">
        <ele>163.1</ele>
        <time>2020-07-26T08:04:57Z</time>
      </trkpt>
      <trkpt lat="43.2296120" lon="-1.1027550">
        <ele>163.6</ele>
        <time>2020-07-26T08:04:59Z</time>
      </trkpt>
      <trkpt lat="43.2296860" lon="-1.1026280">
        <ele>164.3</ele>
        <time>2020-07-26T08:05:02Z</time>
      </trkpt>
      <trkpt lat="43.2297820" lon="-1.1024650">
        <ele>165.2</ele>
        <time>2020-07-26T08:05:06Z</time>
      </trkpt>
      <trkpt lat="43.2299040" lon="-1.1022600">
        <ele>166.3</ele>
        <time>2020-07-26T08:05:11Z</time>
      </trkpt>
      <trkpt lat="43.2299300" lon="-1.1022190">
        <ele>166.5</ele>
        <time>2020-07-26T08:05:12Z</time>
      </trkpt>
      <trkpt lat="43.2300310" lon="-1.1020460">
        <ele>167.3</ele>
        <time>2020-07-26T08:05:16Z</time>
      </trkpt>
      <trkpt lat="43.2301530" lon="-1.1018330">
        <ele>168.2</ele>
        <time>2020-07-26T08:05:21Z</time>
      </trkpt>
      <trkpt lat="43.2302730" lon="-1.1016180">
        <ele>169.0</ele>
        <time>2020-07-26T08:05:26Z</time>
      </trkpt>
      <trkpt lat="43.2303250" lon="-1.1015310">
        <ele>169.2</ele>
        <time>2020-07-26T08:05:28Z</time>
      </trkpt>
      <trkpt lat="43.2304750" lon="-1.1012470">
        <ele>169.3</ele>
        <time>2020-07-26T08:05:34Z</time>
      </trkpt>
      <trkpt lat="43.2305030" lon="-1.1011920">
        <ele>169.3</ele>
        <time>2020-07-26T08:05:35Z</time>
      </trkpt>
      <trkpt lat="43.2307220" lon="-1.1007580">
        <ele>168.6</ele>
        <time>2020-07-26T08:05:42Z</time>
      </trkpt>
      <trkpt lat="43.2310330" lon="-1.1001400">
        <ele>167.1</ele>
        <time>2020-07-26T08:05:50Z</time>
      </trkpt>
      <trkpt lat="43.2312140" lon="-1.0997930">
        <ele>165.6</ele>
        <time>2020-07-26T08:05:54Z</time>
      </trkpt>
      <trkpt lat="43.2314210" lon="-1.0994150">
        <ele>163.3</ele>
        <time>2020-07-26T08:05:58Z</time>
      </trkpt>
      <trkpt lat="43.2315320" lon="-1.0992080">
        <ele>161.8</ele>
        <time>2020-07-26T08:06:00Z</time>
      </trkpt>
      <trkpt lat="43.2317730" lon="-1.0987600">
        <ele>158.9</ele>
        <time>2020-07-26T08:06:04Z</time>
      </trkpt>
      <trkpt lat="43.2318380" lon="-1.0986390">
        <ele>158.1</ele>
        <time>2020-07-26T08:06:05Z</time>
      </trkpt>
      <trkpt lat="43.2319040" lon="-1.0985150">
        <ele>157.3</ele>
        <time>2020-07-26T08:06:06Z</time>
      </trkpt>
      <trkpt lat="43.2320400" lon="-1.0982610">
        <ele>155.7</ele>
        <time>2020-07-26T08:06:08Z</time>
      </trkpt>
      <trkpt lat="43.2321800" lon="-1.0979980">
        <ele>154.5</ele>
        <time>2020-07-26T08:06:10Z</time>
      </trkpt>
      <trkpt lat="43.2322490" lon="-1.0978640">
        <ele>154.2</ele>
        <time>2020-07-26T08:06:11Z</time>
      </trkpt>
      <trkpt lat="43.2323170" lon="-1.0977300">
        <ele>154.0</ele>
        <time>2020-07-26T08:06:12Z</time>
      </trkpt>
      <trkpt lat="43.2324480" lon="-1.0974670">
        <ele>154.1</ele>
        <time>2020-07-26T08:06:14Z</time>
      </trkpt>
      <trkpt lat="43.2325720" lon="-1.0972190">
        <ele>154.6</ele>
        <time>2020-07-26T08:06:16Z</time>
      </trkpt>
      <trkpt lat="43.2326290" lon="-1.0971060">
        <ele>155.1</ele>
        <time>2020-07-26T08:06:17Z</time>
      </trkpt>
      <trkpt lat="43.2328330" lon="-1.0967330">
        <ele>157.4</ele>
        <time>2020-07-26T08:06:21Z</time>
      </trkpt>
      <trkpt lat="43.2328840" lon="-1.0966610">
        <ele>158.1</ele>
        <time>2020-07-26T08:06:22Z</time>
      </trkpt>
      <trkpt lat="43.2330210" lon="-1.0964770">
        <ele>159.8</ele>
        <time>2020-07-26T08:06:25Z</time>
      </trkpt>
      <trkpt lat="43.2330610" lon="-1.0962810">
        <ele>160.5</ele>
        <time>2020-07-26T08:06:28Z</time>
      </trkpt>
      <trkpt lat="43.2330510" lon="-1.0961510">
        <ele>160.8</ele>
        <time>2020-07-26T08:06:30Z</time>
      </trkpt>
      <trkpt lat="43.2330280" lon="-1.0960930">
        <ele>160.6</ele>
        <time>2020-07-26T08:06:31Z</time>
      </trkpt>
      <trkpt lat="43.2329920" lon="-1.0960430">
        <ele>160.4</ele>
        <time>2020-07-26T08:06:32Z</time>
      </trkpt>
      <trkpt lat="43.2329450" lon="-1.0960030">
        <ele>160.3</ele>
        <time>2020-07-26T08:06:33Z</time>
      </trkpt>
      <trkpt lat="43.2328440" lon="-1.0959250">
        <ele>160.0</ele>
        <time>2020-07-26T08:06:35Z</time>
      </trkpt>
      <trkpt lat="43.2325180" lon="-1.0956690">
        <ele>159.3</ele>
        <time>2020-07-26T08:06:41Z</time>
      </trkpt>
      <trkpt lat="43.2321150" lon="-1.0953210">
        <ele>158.4</ele>
        <time>2020-07-26T08:06:48Z</time>
      </trkpt>
      <trkpt lat="43.2318170" lon="-1.0949520">
        <ele>157.8</ele>
        <time>2020-07-26T08:06:54Z</time>
      </trkpt>
      <trkpt lat="43.2317360" lon="-1.0948000">
        <ele>157.6</ele>
        <time>2020-07-26T08:06:56Z</time>
      </trkpt>
      <trkpt lat="43.2315770" lon="-1.0944900">
        <ele>157.0</ele>
        <time>2020-07-26T08:07:00Z</time>
      </trkpt>
      <trkpt lat="43.2313050" lon="-1.0940260">
        <ele>156.3</ele>
        <time>2020-07-26T08:07:06Z</time>
      </trkpt>
      <trkpt lat="43.2312580" lon="-1.0939470">
        <ele>156.2</ele>
        <time>2020-07-26T08:07:07Z</time>
      </trkpt>
      <trkpt lat="43.2310230" lon="-1.0935400">
        <ele>155.5</ele>
        <time>2020-07-26T08:07:12Z</time>
      </trkpt>
      <trkpt lat="43.2309230" lon="-1.0934050">
        <ele>155.3</ele>
        <time>2020-07-26T08:07:14Z</time>
      </trkpt>
      <trkpt lat="43.2306380" lon="-1.0931130">
        <ele>154.8</ele>
        <time>2020-07-26T08:07:19Z</time>
      </trkpt>
      <trkpt lat="43.2305180" lon="-1.0930090">
        <ele>154.7</ele>
        <time>2020-07-26T08:07:21Z</time>
      </trkpt>
      <trkpt lat="43.2300680" lon="-1.0925870">
        <ele>152.9</ele>
        <time>2020-07-26T08:07:28Z</time>
      </trkpt>
      <trkpt lat="43.2296500" lon="-1.0921120">
        <ele>149.2</ele>
        <time>2020-07-26T08:07:34Z</time>
      </trkpt>
      <trkpt lat="43.2292420" lon="-1.0916430">
        <ele>144.6</ele>
        <time>2020-07-26T08:07:39Z</time>
      </trkpt>
      <trkpt lat="43.2291540" lon="-1.0915400">
        <ele>143.4</ele>
        <time>2020-07-26T08:07:40Z</time>
      </trkpt>
      <trkpt lat="43.2290650" lon="-1.0914360">
        <ele>142.2</ele>
        <time>2020-07-26T08:07:41Z</time>
      </trkpt>
      <trkpt lat="43.2288790" lon="-1.0912240">
        <ele>139.8</ele>
        <time>2020-07-26T08:07:43Z</time>
      </trkpt>
      <trkpt lat="43.2286830" lon="-1.0910090">
        <ele>137.8</ele>
        <time>2020-07-26T08:07:45Z</time>
      </trkpt>
      <trkpt lat="43.2285830" lon="-1.0909000">
        <ele>136.8</ele>
        <time>2020-07-26T08:07:46Z</time>
      </trkpt>
      <trkpt lat="43.2284820" lon="-1.0907900">
        <ele>135.8</ele>
        <time>2020-07-26T08:07:47Z</time>
      </trkpt>
      <trkpt lat="43.2283780" lon="-1.0906800">
        <ele>135.0</ele>
        <time>2020-07-26T08:07:48Z</time>
      </trkpt>
      <trkpt lat="43.2281730" lon="-1.0904580">
        <ele>134.0</ele>
        <time>2020-07-26T08:07:50Z</time>
      </trkpt>
      <trkpt lat="43.2280720" lon="-1.0903490">
        <ele>133.8</ele>
        <time>2020-07-26T08:07:51Z</time>
      </trkpt>
      <trkpt lat="43.2279750" lon="-1.0902410">
        <ele>133.7</ele>
        <time>2020-07-26T08:07:52Z</time>
      </trkpt>
      <trkpt lat="43.2278780" lon="-1.0901370">
        <ele>133.8</ele>
        <time>2020-07-26T08:07:53Z</time>
      </trkpt>
      <trkpt lat="43.2277810" lon="-1.0900370">
        <ele>133.9</ele>
        <time>2020-07-26T08:07:54Z</time>
      </trkpt>
      <trkpt lat="43.2276870" lon="-1.0899400">
        <ele>134.1</ele>
        <time>2020-07-26T08:07:55Z</time>
      </trkpt>
      <trkpt lat="43.2275060" lon="-1.0897540">
        <ele>135.0</ele>
        <time>2020-07-26T08:07:57Z</time>
      </trkpt>
      <trkpt lat="43.2273470" lon="-1.0895810">
        <ele>136.3</ele>
        <time>2020-07-26T08:07:59Z</time>
      </trkpt>
      <trkpt lat="43.2270950" lon="-1.0893050">
        <ele>139.0</ele>
        <time>2020-07-26T08:08:03Z</time>
      </trkpt>
      <trkpt lat="43.2268830" lon="-1.0890710">
        <ele>141.5</ele>
        <time>2020-07-26T08:08:08Z</time>
      </trkpt>
      <trkpt lat="43.2268220" lon="-1.0889940">
        <ele>142.3</ele>
        <time>2020-07-26T08:08:10Z</time>
      </trkpt>
      <trkpt lat="43.2267930" lon="-1.0889620">
        <ele>142.7</ele>
        <time>2020-07-26T08:08:11Z</time>
      </trkpt>
      <trkpt lat="43.2267630" lon="-1.0889310">
        <ele>143.0</ele>
        <time>2020-07-26T08:08:12Z</time>
      </trkpt>
      <trkpt lat="43.2267090" lon="-1.0888640">
        <ele>143.7</ele>
        <time>2020-07-26T08:08:14Z</time>
      </trkpt>
      <trkpt lat="43.2266590" lon="-1.0888020">
        <ele>144.3</ele>
        <time>2020-07-26T08:08:16Z</time>
      </trkpt>
      <trkpt lat="43.2266070" lon="-1.0887490">
        <ele>144.9</ele>
        <time>2020-07-26T08:08:18Z</time>
      </trkpt>
      <trkpt lat="43.2265400" lon="-1.0886650">
        <ele>145.7</ele>
        <time>2020-07-26T08:08:21Z</time>
      </trkpt>
      <trkpt lat="43.2264760" lon="-1.0885830">
        <ele>146.6</ele>
        <time>2020-07-26T08:08:24Z</time>
      </trkpt>
      <trkpt lat="43.2263830" lon="-1.0884790">
        <ele>147.7</ele>
        <time>2020-07-26T08:08:28Z</time>
      </trkpt>
      <trkpt lat="43.2263380" lon="-1.0884250">
        <ele>148.2</ele>
        <time>2020-07-26T08:08:30Z</time>
      </trkpt>
      <trkpt lat="43.2262930" lon="-1.0883720">
        <ele>148.7</ele>
        <time>2020-07-26T08:08:32Z</time>
      </trkpt>
      <trkpt lat="43.2262040" lon="-1.0882660">
        <ele>149.8</ele>
        <time>2020-07-26T08:08:36Z</time>
      </trkpt>
      <trkpt lat="43.2261320" lon="-1.0881900">
        <ele>150.6</ele>
        <time>2020-07-26T08:08:39Z</time>
      </trkpt>
      <trkpt lat="43.2260790" lon="-1.0881400">
        <ele>151.1</ele>
        <time>2020-07-26T08:08:41Z</time>
      </trkpt>
      <trkpt lat="43.2259350" lon="-1.0880390">
        <ele>152.2</ele>
        <time>2020-07-26T08:08:46Z</time>
      </trkpt>
      <trkpt lat="43.2258420" lon="-1.0879870">
        <ele>152.9</ele>
        <time>2020-07-26T08:08:49Z</time>
      </trkpt>
      <trkpt lat="43.2258100" lon="-1.0879750">
        <ele>153.1</ele>
        <time>2020-07-26T08:08:50Z</time>
      </trkpt>
      <trkpt lat="43.2256780" lon="-1.0879380">
        <ele>153.8</ele>
        <time>2020-07-26T08:08:54Z</time>
      </trkpt>
      <trkpt lat="43.2255760" lon="-1.0879110">
        <ele>154.2</ele>
        <time>2020-07-26T08:08:57Z</time>
      </trkpt>
      <trkpt lat="43.2254390" lon="-1.0878740">
        <ele>154.8</ele>
        <time>2020-07-26T08:09:01Z</time>
      </trkpt>
      <trkpt lat="43.2252620" lon="-1.0878290">
        <ele>155.5</ele>
        <time>2020-07-26T08:09:06Z</time>
      </trkpt>
      <trkpt lat="43.2252230" lon="-1.0878200">
        <ele>155.7</ele>
        <time>2020-07-26T08:09:07Z</time>
      </trkpt>
      <trkpt lat="43.2249320" lon="-1.0877540">
        <ele>156.5</ele>
        <time>2020-07-26T08:09:14Z</time>
      </trkpt>
      <trkpt lat="43.2248880" lon="-1.0877450">
        <ele>156.6</ele>
        <time>2020-07-26T08:09:15Z</time>
      </trkpt>
      <trkpt lat="43.2244730" lon="-1.0876290">
        <ele>156.8</ele>
        <time>2020-07-26T08:09:24Z</time>
      </trkpt>
      <trkpt lat="43.2243710" lon="-1.0876060">
        <ele>156.7</ele>
        <time>2020-07-26T08:09:26Z</time>
      </trkpt>
      <trkpt lat="43.2239830" lon="-1.0874910">
        <ele>156.4</ele>
        <time>2020-07-26T08:09:33Z</time>
      </trkpt>
      <trkpt lat="43.2235280" lon="-1.0873550">
        <ele>154.4</ele>
        <time>2020-07-26T08:09:40Z</time>
      </trkpt>
      <trkpt lat="43.2229890" lon="-1.0871960">
        <ele>151.6</ele>
        <time>2020-07-26T08:09:47Z</time>
      </trkpt>
      <trkpt lat="43.2229050" lon="-1.0871720">
        <ele>151.2</ele>
        <time>2020-07-26T08:09:48Z</time>
      </trkpt>
      <trkpt lat="43.2227330" lon="-1.0871220">
        <ele>150.3</ele>
        <time>2020-07-26T08:09:50Z</time>
      </trkpt>
      <trkpt lat="43.2223670" lon="-1.0870100">
        <ele>148.7</ele>
        <time>2020-07-26T08:09:54Z</time>
      </trkpt>
      <trkpt lat="43.2221760" lon="-1.0869530">
        <ele>147.8</ele>
        <time>2020-07-26T08:09:56Z</time>
      </trkpt>
      <trkpt lat="43.2219810" lon="-1.0868980">
        <ele>147.1</ele>
        <time>2020-07-26T08:09:58Z</time>
      </trkpt>
      <trkpt lat="43.2216820" lon="-1.0868090">
        <ele>146.3</ele>
        <time>2020-07-26T08:10:01Z</time>
      </trkpt>
      <trkpt lat="43.2213820" lon="-1.0867220">
        <ele>146.0</ele>
        <time>2020-07-26T08:10:04Z</time>
      </trkpt>
      <trkpt lat="43.2211820" lon="-1.0866640">
        <ele>146.0</ele>
        <time>2020-07-26T08:10:06Z</time>
      </trkpt>
      <trkpt lat="43.2210820" lon="-1.0866340">
        <ele>146.1</ele>
        <time>2020-07-26T08:10:07Z</time>
      </trkpt>
      <trkpt lat="43.2208850" lon="-1.0865740">
        <ele>146.6</ele>
        <time>2020-07-26T08:10:09Z</time>
      </trkpt>
      <trkpt lat="43.2205390" lon="-1.0864710">
        <ele>148.6</ele>
        <time>2020-07-26T08:10:13Z</time>
      </trkpt>
      <trkpt lat="43.2202890" lon="-1.0863960">
        <ele>150.7</ele>
        <time>2020-07-26T08:10:17Z</time>
      </trkpt>
      <trkpt lat="43.2200580" lon="-1.0863300">
        <ele>152.5</ele>
        <time>2020-07-26T08:10:22Z</time>
      </trkpt>
      <trkpt lat="43.2200190" lon="-1.0863180">
        <ele>152.8</ele>
        <time>2020-07-26T08:10:23Z</time>
      </trkpt>
      <trkpt lat="43.2199810" lon="-1.0863050">
        <ele>153.0</ele>
        <time>2020-07-26T08:10:24Z</time>
      </trkpt>
      <trkpt lat="43.2199080" lon="-1.0862820">
        <ele>153.5</ele>
        <time>2020-07-26T08:10:26Z</time>
      </trkpt>
      <trkpt lat="43.2198400" lon="-1.0862600">
        <ele>154.0</ele>
        <time>2020-07-26T08:10:28Z</time>
      </trkpt>
      <trkpt lat="43.2197390" lon="-1.0862310">
        <ele>154.6</ele>
        <time>2020-07-26T08:10:31Z</time>
      </trkpt>
      <trkpt lat="43.2197060" lon="-1.0862200">
        <ele>154.8</ele>
        <time>2020-07-26T08:10:32Z</time>
      </trkpt>
      <trkpt lat="43.2196390" lon="-1.0862020">
        <ele>155.1</ele>
        <time>2020-07-26T08:10:34Z</time>
      </trkpt>
      <trkpt lat="43.2195700" lon="-1.0861860">
        <ele>155.1</ele>
        <time>2020-07-26T08:10:36Z</time>
      </trkpt>
      <trkpt lat="43.2194180" lon="-1.0861380">
        <ele>155.5</ele>
        <time>2020-07-26T08:10:40Z</time>
      </trkpt>
      <trkpt lat="43.2193780" lon="-1.0861250">
        <ele>155.5</ele>
        <time>2020-07-26T08:10:41Z</time>
      </trkpt>
      <trkpt lat="43.2191030" lon="-1.0860400">
        <ele>155.5</ele>
        <time>2020-07-26T08:10:47Z</time>
      </trkpt>
      <trkpt lat="43.2190520" lon="-1.0860250">
        <ele>155.5</ele>
        <time>2020-07-26T08:10:48Z</time>
      </trkpt>
      <trkpt lat="43.2185930" lon="-1.0858990">
        <ele>154.5</ele>
        <time>2020-07-26T08:10:56Z</time>
      </trkpt>
      <trkpt lat="43.2180960" lon="-1.0857510">
        <ele>152.2</ele>
        <time>2020-07-26T08:11:03Z</time>
      </trkpt>
      <trkpt lat="43.2180150" lon="-1.0857270">
        <ele>151.8</ele>
        <time>2020-07-26T08:11:04Z</time>
      </trkpt>
      <trkpt lat="43.2176730" lon="-1.0856270">
        <ele>150.6</ele>
        <time>2020-07-26T08:11:08Z</time>
      </trkpt>
      <trkpt lat="43.2174990" lon="-1.0855750">
        <ele>150.5</ele>
        <time>2020-07-26T08:11:10Z</time>
      </trkpt>
      <trkpt lat="43.2174150" lon="-1.0855500">
        <ele>150.6</ele>
        <time>2020-07-26T08:11:11Z</time>
      </trkpt>
      <trkpt lat="43.2172570" lon="-1.0855040">
        <ele>151.2</ele>
        <time>2020-07-26T08:11:13Z</time>
      </trkpt>
      <trkpt lat="43.2171140" lon="-1.0854630">
        <ele>152.0</ele>
        <time>2020-07-26T08:11:15Z</time>
      </trkpt>
      <trkpt lat="43.2168370" lon="-1.0853820">
        <ele>154.1</ele>
        <time>2020-07-26T08:11:20Z</time>
      </trkpt>
      <trkpt lat="43.2165500" lon="-1.0852840">
        <ele>156.5</ele>
        <time>2020-07-26T08:11:27Z</time>
      </trkpt>
      <trkpt lat="43.2165120" lon="-1.0852720">
        <ele>156.8</ele>
        <time>2020-07-26T08:11:28Z</time>
      </trkpt>
      <trkpt lat="43.2164750" lon="-1.0852600">
        <ele>157.0</ele>
        <time>2020-07-26T08:11:29Z</time>
      </trkpt>
      <trkpt lat="43.2163990" lon="-1.0852340">
        <ele>157.6</ele>
        <time>2020-07-26T08:11:31Z</time>
      </trkpt>
      <trkpt lat="43.2162450" lon="-1.0851850">
        <ele>158.8</ele>
        <time>2020-07-26T08:11:35Z</time>
      </trkpt>
      <trkpt lat="43.2160730" lon="-1.0851360">
        <ele>159.8</ele>
        <time>2020-07-26T08:11:39Z</time>
      </trkpt>
      <trkpt lat="43.2160290" lon="-1.0851260">
        <ele>160.0</ele>
        <time>2020-07-26T08:11:40Z</time>
      </trkpt>
      <trkpt lat="43.2158450" lon="-1.0850790">
        <ele>160.4</ele>
        <time>2020-07-26T08:11:44Z</time>
      </trkpt>
      <trkpt lat="43.2157450" lon="-1.0850510">
        <ele>160.8</ele>
        <time>2020-07-26T08:11:46Z</time>
      </trkpt>
      <trkpt lat="43.2155740" lon="-1.0850010">
        <ele>161.3</ele>
        <time>2020-07-26T08:11:49Z</time>
      </trkpt>
      <trkpt lat="43.2153400" lon="-1.0849300">
        <ele>161.9</ele>
        <time>2020-07-26T08:11:53Z</time>
      </trkpt>
      <trkpt lat="43.2151690" lon="-1.0848790">
        <ele>162.0</ele>
        <time>2020-07-26T08:11:56Z</time>
      </trkpt>
      <trkpt lat="43.2148280" lon="-1.0847750">
        <ele>161.7</ele>
        <time>2020-07-26T08:12:02Z</time>
      </trkpt>
      <trkpt lat="43.2142930" lon="-1.0846130">
        <ele>161.3</ele>
        <time>2020-07-26T08:12:11Z</time>
      </trkpt>
      <trkpt lat="43.2141180" lon="-1.0845620">
        <ele>161.4</ele>
        <time>2020-07-26T08:12:14Z</time>
      </trkpt>
      <trkpt lat="43.2135800" lon="-1.0844080">
        <ele>161.1</ele>
        <time>2020-07-26T08:12:24Z</time>
      </trkpt>
      <trkpt lat="43.2131050" lon="-1.0842450">
        <ele>160.2</ele>
        <time>2020-07-26T08:12:33Z</time>
      </trkpt>
      <trkpt lat="43.2128210" lon="-1.0840230">
        <ele>159.5</ele>
        <time>2020-07-26T08:12:38Z</time>
      </trkpt>
      <trkpt lat="43.2125720" lon="-1.0836650">
        <ele>158.6</ele>
        <time>2020-07-26T08:12:43Z</time>
      </trkpt>
      <trkpt lat="43.2124740" lon="-1.0835190">
        <ele>158.3</ele>
        <time>2020-07-26T08:12:45Z</time>
      </trkpt>
      <trkpt lat="43.2122240" lon="-1.0831590">
        <ele>157.9</ele>
        <time>2020-07-26T08:12:50Z</time>
      </trkpt>
      <trkpt lat="43.2119340" lon="-1.0827250">
        <ele>157.6</ele>
        <time>2020-07-26T08:12:56Z</time>
      </trkpt>
      <trkpt lat="43.2117850" lon="-1.0825020">
        <ele>157.4</ele>
        <time>2020-07-26T08:12:59Z</time>
      </trkpt>
      <trkpt lat="43.2113730" lon="-1.0818880">
        <ele>155.8</ele>
        <time>2020-07-26T08:13:07Z</time>
      </trkpt>
      <trkpt lat="43.2113160" lon="-1.0818040">
        <ele>155.4</ele>
        <time>2020-07-26T08:13:08Z</time>
      </trkpt>
      <trkpt lat="43.2111370" lon="-1.0815340">
        <ele>153.6</ele>
        <time>2020-07-26T08:13:11Z</time>
      </trkpt>
      <trkpt lat="43.2109320" lon="-1.0812340">
        <ele>151.0</ele>
        <time>2020-07-26T08:13:14Z</time>
      </trkpt>
      <trkpt lat="43.2105460" lon="-1.0806770">
        <ele>147.6</ele>
        <time>2020-07-26T08:13:19Z</time>
      </trkpt>
      <trkpt lat="43.2103840" lon="-1.0804320">
        <ele>147.1</ele>
        <time>2020-07-26T08:13:21Z</time>
      </trkpt>
      <trkpt lat="43.2102190" lon="-1.0801940">
        <ele>146.7</ele>
        <time>2020-07-26T08:13:23Z</time>
      </trkpt>
      <trkpt lat="43.2101370" lon="-1.0800800">
        <ele>146.6</ele>
        <time>2020-07-26T08:13:24Z</time>
      </trkpt>
      <trkpt lat="43.2100600" lon="-1.0799690">
        <ele>146.7</ele>
        <time>2020-07-26T08:13:25Z</time>
      </trkpt>
      <trkpt lat="43.2099910" lon="-1.0798590">
        <ele>147.0</ele>
        <time>2020-07-26T08:13:26Z</time>
      </trkpt>
      <trkpt lat="43.2098560" lon="-1.0796570">
        <ele>148.1</ele>
        <time>2020-07-26T08:13:28Z</time>
      </trkpt>
      <trkpt lat="43.2096250" lon="-1.0793340">
        <ele>150.4</ele>
        <time>2020-07-26T08:13:32Z</time>
      </trkpt>
      <trkpt lat="43.2093280" lon="-1.0789090">
        <ele>153.1</ele>
        <time>2020-07-26T08:13:38Z</time>
      </trkpt>
      <trkpt lat="43.2092870" lon="-1.0788420">
        <ele>153.5</ele>
        <time>2020-07-26T08:13:39Z</time>
      </trkpt>
      <trkpt lat="43.2092120" lon="-1.0787150">
        <ele>154.2</ele>
        <time>2020-07-26T08:13:41Z</time>
      </trkpt>
      <trkpt lat="43.2091400" lon="-1.0785920">
        <ele>154.6</ele>
        <time>2020-07-26T08:13:43Z</time>
      </trkpt>
      <trkpt lat="43.2090610" lon="-1.0784660">
        <ele>154.8</ele>
        <time>2020-07-26T08:13:45Z</time>
      </trkpt>
      <trkpt lat="43.2090200" lon="-1.0784010">
        <ele>155.0</ele>
        <time>2020-07-26T08:13:46Z</time>
      </trkpt>
      <trkpt lat="43.2089350" lon="-1.0782680">
        <ele>155.2</ele>
        <time>2020-07-26T08:13:48Z</time>
      </trkpt>
      <trkpt lat="43.2087590" lon="-1.0779910">
        <ele>155.1</ele>
        <time>2020-07-26T08:13:52Z</time>
      </trkpt>
      <trkpt lat="43.2086190" lon="-1.0777780">
        <ele>154.7</ele>
        <time>2020-07-26T08:13:55Z</time>
      </trkpt>
      <trkpt lat="43.2081960" lon="-1.0771610">
        <ele>152.7</ele>
        <time>2020-07-26T08:14:03Z</time>
      </trkpt>
      <trkpt lat="43.2080220" lon="-1.0768970">
        <ele>151.7</ele>
        <time>2020-07-26T08:14:06Z</time>
      </trkpt>
      <trkpt lat="43.2078400" lon="-1.0766180">
        <ele>150.5</ele>
        <time>2020-07-26T08:14:09Z</time>
      </trkpt>
      <trkpt lat="43.2077160" lon="-1.0764260">
        <ele>149.7</ele>
        <time>2020-07-26T08:14:11Z</time>
      </trkpt>
      <trkpt lat="43.2076520" lon="-1.0763250">
        <ele>149.3</ele>
        <time>2020-07-26T08:14:12Z</time>
      </trkpt>
      <trkpt lat="43.2074530" lon="-1.0760160">
        <ele>148.6</ele>
        <time>2020-07-26T08:14:15Z</time>
      </trkpt>
      <trkpt lat="43.2072640" lon="-1.0757300">
        <ele>149.2</ele>
        <time>2020-07-26T08:14:18Z</time>
      </trkpt>
      <trkpt lat="43.2070080" lon="-1.0753290">
        <ele>150.4</ele>
        <time>2020-07-26T08:14:23Z</time>
      </trkpt>
      <trkpt lat="43.2068280" lon="-1.0750200">
        <ele>152.2</ele>
        <time>2020-07-26T08:14:28Z</time>
      </trkpt>
      <trkpt lat="43.2066880" lon="-1.0747810">
        <ele>154.1</ele>
        <time>2020-07-26T08:14:33Z</time>
      </trkpt>
      <trkpt lat="43.2066390" lon="-1.0746960">
        <ele>154.8</ele>
        <time>2020-07-26T08:14:35Z</time>
      </trkpt>
      <trkpt lat="43.2065970" lon="-1.0746180">
        <ele>155.5</ele>
        <time>2020-07-26T08:14:37Z</time>
      </trkpt>
      <trkpt lat="43.2065350" lon="-1.0745030">
        <ele>156.6</ele>
        <time>2020-07-26T08:14:40Z</time>
      </trkpt>
      <trkpt lat="43.2064710" lon="-1.0743870">
        <ele>157.6</ele>
        <time>2020-07-26T08:14:43Z</time>
      </trkpt>
      <trkpt lat="43.2064500" lon="-1.0743470">
        <ele>157.9</ele>
        <time>2020-07-26T08:14:44Z</time>
      </trkpt>
      <trkpt lat="43.2064040" lon="-1.0742710">
        <ele>158.5</ele>
        <time>2020-07-26T08:14:46Z</time>
      </trkpt>
      <trkpt lat="43.2063600" lon="-1.0741960">
        <ele>159.1</ele>
        <time>2020-07-26T08:14:48Z</time>
      </trkpt>
      <trkpt lat="43.2062780" lon="-1.0740430">
        <ele>160.2</ele>
        <time>2020-07-26T08:14:52Z</time>
      </trkpt>
      <trkpt lat="43.2061740" lon="-1.0738520">
        <ele>161.4</ele>
        <time>2020-07-26T08:14:57Z</time>
      </trkpt>
      <trkpt lat="43.2060860" lon="-1.0736960">
        <ele>162.3</ele>
        <time>2020-07-26T08:15:01Z</time>
      </trkpt>
      <trkpt lat="43.2060640" lon="-1.0736560">
        <ele>162.5</ele>
        <time>2020-07-26T08:15:02Z</time>
      </trkpt>
      <trkpt lat="43.2059710" lon="-1.0734910">
        <ele>163.2</ele>
        <time>2020-07-26T08:15:06Z</time>
      </trkpt>
      <trkpt lat="43.2058510" lon="-1.0732680">
        <ele>163.9</ele>
        <time>2020-07-26T08:15:11Z</time>
      </trkpt>
      <trkpt lat="43.2058010" lon="-1.0731740">
        <ele>164.2</ele>
        <time>2020-07-26T08:15:13Z</time>
      </trkpt>
      <trkpt lat="43.2056940" lon="-1.0729740">
        <ele>164.4</ele>
        <time>2020-07-26T08:15:17Z</time>
      </trkpt>
      <trkpt lat="43.2055470" lon="-1.0727010">
        <ele>164.2</ele>
        <time>2020-07-26T08:15:22Z</time>
      </trkpt>
      <trkpt lat="43.2052990" lon="-1.0722360">
        <ele>162.8</ele>
        <time>2020-07-26T08:15:29Z</time>
      </trkpt>
      <trkpt lat="43.2049870" lon="-1.0716890">
        <ele>160.6</ele>
        <time>2020-07-26T08:15:36Z</time>
      </trkpt>
      <trkpt lat="43.2049420" lon="-1.0716030">
        <ele>160.3</ele>
        <time>2020-07-26T08:15:37Z</time>
      </trkpt>
      <trkpt lat="43.2048050" lon="-1.0713380">
        <ele>159.6</ele>
        <time>2020-07-26T08:15:40Z</time>
      </trkpt>
      <trkpt lat="43.2047040" lon="-1.0711680">
        <ele>159.3</ele>
        <time>2020-07-26T08:15:42Z</time>
      </trkpt>
      <trkpt lat="43.2046520" lon="-1.0710830">
        <ele>159.1</ele>
        <time>2020-07-26T08:15:43Z</time>
      </trkpt>
      <trkpt lat="43.2043290" lon="-1.0705900">
        <ele>158.4</ele>
        <time>2020-07-26T08:15:49Z</time>
      </trkpt>
      <trkpt lat="43.2041670" lon="-1.0703540">
        <ele>158.4</ele>
        <time>2020-07-26T08:15:52Z</time>
      </trkpt>
      <trkpt lat="43.2041120" lon="-1.0702790">
        <ele>158.4</ele>
        <time>2020-07-26T08:15:53Z</time>
      </trkpt>
      <trkpt lat="43.2040010" lon="-1.0701370">
        <ele>158.6</ele>
        <time>2020-07-26T08:15:55Z</time>
      </trkpt>
      <trkpt lat="43.2038680" lon="-1.0699540">
        <ele>158.8</ele>
        <time>2020-07-26T08:15:58Z</time>
      </trkpt>
      <trkpt lat="43.2037210" lon="-1.0696920">
        <ele>159.9</ele>
        <time>2020-07-26T08:16:03Z</time>
      </trkpt>
      <trkpt lat="43.2036190" lon="-1.0694680">
        <ele>161.0</ele>
        <time>2020-07-26T08:16:07Z</time>
      </trkpt>
      <trkpt lat="43.2035750" lon="-1.0693650">
        <ele>161.6</ele>
        <time>2020-07-26T08:16:09Z</time>
      </trkpt>
      <trkpt lat="43.2035300" lon="-1.0692670">
        <ele>162.1</ele>
        <time>2020-07-26T08:16:11Z</time>
      </trkpt>
      <trkpt lat="43.2034670" lon="-1.0691240">
        <ele>162.9</ele>
        <time>2020-07-26T08:16:14Z</time>
      </trkpt>
      <trkpt lat="43.2033800" lon="-1.0689330">
        <ele>164.0</ele>
        <time>2020-07-26T08:16:18Z</time>
      </trkpt>
      <trkpt lat="43.2033040" lon="-1.0687820">
        <ele>164.7</ele>
        <time>2020-07-26T08:16:21Z</time>
      </trkpt>
      <trkpt lat="43.2031880" lon="-1.0685440">
        <ele>165.6</ele>
        <time>2020-07-26T08:16:26Z</time>
      </trkpt>
      <trkpt lat="43.2029980" lon="-1.0681420">
        <ele>167.1</ele>
        <time>2020-07-26T08:16:34Z</time>
      </trkpt>
      <trkpt lat="43.2028430" lon="-1.0677960">
        <ele>168.4</ele>
        <time>2020-07-26T08:16:41Z</time>
      </trkpt>
      <trkpt lat="43.2027740" lon="-1.0676540">
        <ele>169.0</ele>
        <time>2020-07-26T08:16:44Z</time>
      </trkpt>
      <trkpt lat="43.2027250" lon="-1.0675560">
        <ele>169.4</ele>
        <time>2020-07-26T08:16:46Z</time>
      </trkpt>
      <trkpt lat="43.2025950" lon="-1.0672560">
        <ele>170.8</ele>
        <time>2020-07-26T08:16:52Z</time>
      </trkpt>
      <trkpt lat="43.2025720" lon="-1.0672080">
        <ele>171.0</ele>
        <time>2020-07-26T08:16:53Z</time>
      </trkpt>
      <trkpt lat="43.2024300" lon="-1.0669170">
        <ele>172.1</ele>
        <time>2020-07-26T08:16:59Z</time>
      </trkpt>
      <trkpt lat="43.2023390" lon="-1.0667200">
        <ele>172.8</ele>
        <time>2020-07-26T08:17:03Z</time>
      </trkpt>
      <trkpt lat="43.2022720" lon="-1.0665750">
        <ele>173.4</ele>
        <time>2020-07-26T08:17:06Z</time>
      </trkpt>
      <trkpt lat="43.2021320" lon="-1.0662780">
        <ele>174.5</ele>
        <time>2020-07-26T08:17:12Z</time>
      </trkpt>
      <trkpt lat="43.2020850" lon="-1.0661750">
        <ele>174.9</ele>
        <time>2020-07-26T08:17:14Z</time>
      </trkpt>
      <trkpt lat="43.2019630" lon="-1.0659060">
        <ele>175.7</ele>
        <time>2020-07-26T08:17:19Z</time>
      </trkpt>
      <trkpt lat="43.2018270" lon="-1.0656280">
        <ele>176.1</ele>
        <time>2020-07-26T08:17:24Z</time>
      </trkpt>
      <trkpt lat="43.2017680" lon="-1.0655140">
        <ele>176.2</ele>
        <time>2020-07-26T08:17:26Z</time>
      </trkpt>
      <trkpt lat="43.2015510" lon="-1.0650640">
        <ele>176.2</ele>
        <time>2020-07-26T08:17:33Z</time>
      </trkpt>
      <trkpt lat="43.2013070" lon="-1.0645340">
        <ele>175.0</ele>
        <time>2020-07-26T08:17:40Z</time>
      </trkpt>
      <trkpt lat="43.2010170" lon="-1.0639860">
        <ele>172.5</ele>
        <time>2020-07-26T08:17:46Z</time>
      </trkpt>
      <trkpt lat="43.2009070" lon="-1.0637870">
        <ele>171.3</ele>
        <time>2020-07-26T08:17:48Z</time>
      </trkpt>
      <trkpt lat="43.2007240" lon="-1.0634960">
        <ele>170.2</ele>
        <time>2020-07-26T08:17:51Z</time>
      </trkpt>
      <trkpt lat="43.2006620" lon="-1.0634020">
        <ele>169.9</ele>
        <time>2020-07-26T08:17:52Z</time>
      </trkpt>
      <trkpt lat="43.2005980" lon="-1.0633090">
        <ele>169.5</ele>
        <time>2020-07-26T08:17:53Z</time>
      </trkpt>
      <trkpt lat="43.2004670" lon="-1.0631210">
        <ele>168.7</ele>
        <time>2020-07-26T08:17:55Z</time>
      </trkpt>
      <trkpt lat="43.2000820" lon="-1.0625740">
        <ele>166.9</ele>
        <time>2020-07-26T08:18:01Z</time>
      </trkpt>
      <trkpt lat="43.1998670" lon="-1.0623140">
        <ele>165.9</ele>
        <time>2020-07-26T08:18:04Z</time>
      </trkpt>
      <trkpt lat="43.1995680" lon="-1.0619890">
        <ele>164.7</ele>
        <time>2020-07-26T08:18:08Z</time>
      </trkpt>
      <trkpt lat="43.1994930" lon="-1.0619070">
        <ele>164.4</ele>
        <time>2020-07-26T08:18:09Z</time>
      </trkpt>
      <trkpt lat="43.1992730" lon="-1.0616580">
        <ele>163.5</ele>
        <time>2020-07-26T08:18:12Z</time>
      </trkpt>
      <trkpt lat="43.1989790" lon="-1.0613260">
        <ele>163.2</ele>
        <time>2020-07-26T08:18:16Z</time>
      </trkpt>
      <trkpt lat="43.1987760" lon="-1.0610890">
        <ele>163.7</ele>
        <time>2020-07-26T08:18:19Z</time>
      </trkpt>
      <trkpt lat="43.1986580" lon="-1.0609530">
        <ele>164.1</ele>
        <time>2020-07-26T08:18:21Z</time>
      </trkpt>
      <trkpt lat="43.1984910" lon="-1.0607720">
        <ele>164.7</ele>
        <time>2020-07-26T08:18:24Z</time>
      </trkpt>
      <trkpt lat="43.1981620" lon="-1.0604060">
        <ele>166.5</ele>
        <time>2020-07-26T08:18:31Z</time>
      </trkpt>
      <trkpt lat="43.1980010" lon="-1.0602660">
        <ele>168.0</ele>
        <time>2020-07-26T08:18:35Z</time>
      </trkpt>
      <trkpt lat="43.1979690" lon="-1.0602430">
        <ele>168.3</ele>
        <time>2020-07-26T08:18:36Z</time>
      </trkpt>
      <trkpt lat="43.1978730" lon="-1.0601740">
        <ele>169.3</ele>
        <time>2020-07-26T08:18:39Z</time>
      </trkpt>
      <trkpt lat="43.1977650" lon="-1.0600970">
        <ele>170.4</ele>
        <time>2020-07-26T08:18:42Z</time>
      </trkpt>
      <trkpt lat="43.1977270" lon="-1.0600730">
        <ele>170.7</ele>
        <time>2020-07-26T08:18:43Z</time>
      </trkpt>
      <trkpt lat="43.1976500" lon="-1.0600270">
        <ele>171.5</ele>
        <time>2020-07-26T08:18:45Z</time>
      </trkpt>
      <trkpt lat="43.1975540" lon="-1.0599610">
        <ele>172.5</ele>
        <time>2020-07-26T08:18:48Z</time>
      </trkpt>
      <trkpt lat="43.1974630" lon="-1.0599040">
        <ele>173.3</ele>
        <time>2020-07-26T08:18:51Z</time>
      </trkpt>
      <trkpt lat="43.1973400" lon="-1.0598360">
        <ele>174.4</ele>
        <time>2020-07-26T08:18:55Z</time>
      </trkpt>
      <trkpt lat="43.1972260" lon="-1.0597710">
        <ele>175.4</ele>
        <time>2020-07-26T08:18:59Z</time>
      </trkpt>
      <trkpt lat="43.1970700" lon="-1.0597250">
        <ele>176.3</ele>
        <time>2020-07-26T08:19:04Z</time>
      </trkpt>
      <trkpt lat="43.1969720" lon="-1.0596720">
        <ele>176.7</ele>
        <time>2020-07-26T08:19:07Z</time>
      </trkpt>
      <trkpt lat="43.1969360" lon="-1.0596500">
        <ele>176.8</ele>
        <time>2020-07-26T08:19:08Z</time>
      </trkpt>
      <trkpt lat="43.1967390" lon="-1.0595380">
        <ele>176.9</ele>
        <time>2020-07-26T08:19:13Z</time>
      </trkpt>
      <trkpt lat="43.1966440" lon="-1.0594840">
        <ele>176.8</ele>
        <time>2020-07-26T08:19:15Z</time>
      </trkpt>
      <trkpt lat="43.1964320" lon="-1.0593570">
        <ele>176.2</ele>
        <time>2020-07-26T08:19:19Z</time>
      </trkpt>
      <trkpt lat="43.1961410" lon="-1.0591320">
        <ele>175.2</ele>
        <time>2020-07-26T08:19:24Z</time>
      </trkpt>
      <trkpt lat="43.1960760" lon="-1.0590920">
        <ele>174.9</ele>
        <time>2020-07-26T08:19:25Z</time>
      </trkpt>
      <trkpt lat="43.1960040" lon="-1.0590570">
        <ele>174.5</ele>
        <time>2020-07-26T08:19:26Z</time>
      </trkpt>
      <trkpt lat="43.1957500" lon="-1.0589740">
        <ele>173.3</ele>
        <time>2020-07-26T08:19:29Z</time>
      </trkpt>
      <trkpt lat="43.1956620" lon="-1.0589560">
        <ele>173.0</ele>
        <time>2020-07-26T08:19:30Z</time>
      </trkpt>
      <trkpt lat="43.1954000" lon="-1.0589480">
        <ele>172.7</ele>
        <time>2020-07-26T08:19:33Z</time>
      </trkpt>
      <trkpt lat="43.1953190" lon="-1.0589280">
        <ele>172.7</ele>
        <time>2020-07-26T08:19:34Z</time>
      </trkpt>
      <trkpt lat="43.1952490" lon="-1.0588960">
        <ele>172.8</ele>
        <time>2020-07-26T08:19:35Z</time>
      </trkpt>
      <trkpt lat="43.1951230" lon="-1.0587880">
        <ele>173.0</ele>
        <time>2020-07-26T08:19:37Z</time>
      </trkpt>
      <trkpt lat="43.1950680" lon="-1.0587260">
        <ele>173.1</ele>
        <time>2020-07-26T08:19:38Z</time>
      </trkpt>
      <trkpt lat="43.1947370" lon="-1.0583200">
        <ele>174.4</ele>
        <time>2020-07-26T08:19:44Z</time>
      </trkpt>
      <trkpt lat="43.1946650" lon="-1.0582150">
        <ele>174.8</ele>
        <time>2020-07-26T08:19:47Z</time>
      </trkpt>
      <trkpt lat="43.1945960" lon="-1.0580910">
        <ele>175.4</ele>
        <time>2020-07-26T08:19:49Z</time>
      </trkpt>
      <trkpt lat="43.1945720" lon="-1.0580270">
        <ele>175.7</ele>
        <time>2020-07-26T08:19:50Z</time>
      </trkpt>
      <trkpt lat="43.1945060" lon="-1.0576880">
        <ele>177.2</ele>
        <time>2020-07-26T08:19:56Z</time>
      </trkpt>
      <trkpt lat="43.1945010" lon="-1.0576380">
        <ele>177.3</ele>
        <time>2020-07-26T08:19:57Z</time>
      </trkpt>
      <trkpt lat="43.1944870" lon="-1.0575320">
        <ele>177.6</ele>
        <time>2020-07-26T08:19:59Z</time>
      </trkpt>
      <trkpt lat="43.1944580" lon="-1.0573550">
        <ele>178.2</ele>
        <time>2020-07-26T08:20:02Z</time>
      </trkpt>
      <trkpt lat="43.1944480" lon="-1.0572900">
        <ele>178.3</ele>
        <time>2020-07-26T08:20:03Z</time>
      </trkpt>
      <trkpt lat="43.1944250" lon="-1.0571440">
        <ele>178.3</ele>
        <time>2020-07-26T08:20:05Z</time>
      </trkpt>
      <trkpt lat="43.1943920" lon="-1.0568810">
        <ele>177.6</ele>
        <time>2020-07-26T08:20:08Z</time>
      </trkpt>
      <trkpt lat="43.1943490" lon="-1.0566780">
        <ele>176.9</ele>
        <time>2020-07-26T08:20:10Z</time>
      </trkpt>
      <trkpt lat="43.1942810" lon="-1.0564810">
        <ele>176.6</ele>
        <time>2020-07-26T08:20:12Z</time>
      </trkpt>
      <trkpt lat="43.1941050" lon="-1.0560510">
        <ele>177.4</ele>
        <time>2020-07-26T08:20:17Z</time>
      </trkpt>
      <trkpt lat="43.1940720" lon="-1.0559830">
        <ele>177.7</ele>
        <time>2020-07-26T08:20:18Z</time>
      </trkpt>
      <trkpt lat="43.1939220" lon="-1.0557170">
        <ele>178.6</ele>
        <time>2020-07-26T08:20:23Z</time>
      </trkpt>
      <trkpt lat="43.1937640" lon="-1.0555780">
        <ele>179.6</ele>
        <time>2020-07-26T08:20:28Z</time>
      </trkpt>
      <trkpt lat="43.1937380" lon="-1.0555490">
        <ele>179.8</ele>
        <time>2020-07-26T08:20:29Z</time>
      </trkpt>
      <trkpt lat="43.1936130" lon="-1.0553780">
        <ele>180.7</ele>
        <time>2020-07-26T08:20:34Z</time>
      </trkpt>
      <trkpt lat="43.1935610" lon="-1.0552960">
        <ele>181.2</ele>
        <time>2020-07-26T08:20:36Z</time>
      </trkpt>
      <trkpt lat="43.1934830" lon="-1.0551770">
        <ele>182.0</ele>
        <time>2020-07-26T08:20:39Z</time>
      </trkpt>
      <trkpt lat="43.1933200" lon="-1.0549710">
        <ele>183.6</ele>
        <time>2020-07-26T08:20:45Z</time>
      </trkpt>
      <trkpt lat="43.1932910" lon="-1.0549460">
        <ele>183.9</ele>
        <time>2020-07-26T08:20:46Z</time>
      </trkpt>
      <trkpt lat="43.1931330" lon="-1.0548630">
        <ele>185.5</ele>
        <time>2020-07-26T08:20:51Z</time>
      </trkpt>
      <trkpt lat="43.1930700" lon="-1.0548360">
        <ele>186.1</ele>
        <time>2020-07-26T08:20:53Z</time>
      </trkpt>
      <trkpt lat="43.1929790" lon="-1.0548180">
        <ele>187.1</ele>
        <time>2020-07-26T08:20:56Z</time>
      </trkpt>
      <trkpt lat="43.1928870" lon="-1.0548050">
        <ele>188.2</ele>
        <time>2020-07-26T08:20:59Z</time>
      </trkpt>
      <trkpt lat="43.1928020" lon="-1.0547890">
        <ele>189.2</ele>
        <time>2020-07-26T08:21:02Z</time>
      </trkpt>
      <trkpt lat="43.1927410" lon="-1.0547810">
        <ele>189.8</ele>
        <time>2020-07-26T08:21:04Z</time>
      </trkpt>
      <trkpt lat="43.1926810" lon="-1.0547680">
        <ele>190.5</ele>
        <time>2020-07-26T08:21:06Z</time>
      </trkpt>
      <trkpt lat="43.1926260" lon="-1.0547520">
        <ele>191.0</ele>
        <time>2020-07-26T08:21:08Z</time>
      </trkpt>
      <trkpt lat="43.1924940" lon="-1.0547110">
        <ele>192.2</ele>
        <time>2020-07-26T08:21:13Z</time>
      </trkpt>
      <trkpt lat="43.1924660" lon="-1.0547010">
        <ele>192.4</ele>
        <time>2020-07-26T08:21:14Z</time>
      </trkpt>
      <trkpt lat="43.1923820" lon="-1.0546590">
        <ele>193.1</ele>
        <time>2020-07-26T08:21:17Z</time>
      </trkpt>
      <trkpt lat="43.1922460" lon="-1.0545550">
        <ele>194.1</ele>
        <time>2020-07-26T08:21:22Z</time>
      </trkpt>
      <trkpt lat="43.1922240" lon="-1.0545310">
        <ele>194.3</ele>
        <time>2020-07-26T08:21:23Z</time>
      </trkpt>
      <trkpt lat="43.1921150" lon="-1.0543920">
        <ele>195.3</ele>
        <time>2020-07-26T08:21:28Z</time>
      </trkpt>
      <trkpt lat="43.1920300" lon="-1.0542680">
        <ele>196.2</ele>
        <time>2020-07-26T08:21:32Z</time>
      </trkpt>
      <trkpt lat="43.1920110" lon="-1.0542350">
        <ele>196.5</ele>
        <time>2020-07-26T08:21:33Z</time>
      </trkpt>
      <trkpt lat="43.1919170" lon="-1.0540610">
        <ele>197.6</ele>
        <time>2020-07-26T08:21:38Z</time>
      </trkpt>
      <trkpt lat="43.1918470" lon="-1.0539140">
        <ele>198.5</ele>
        <time>2020-07-26T08:21:42Z</time>
      </trkpt>
      <trkpt lat="43.1918280" lon="-1.0538800">
        <ele>198.7</ele>
        <time>2020-07-26T08:21:43Z</time>
      </trkpt>
      <trkpt lat="43.1916860" lon="-1.0536530">
        <ele>200.3</ele>
        <time>2020-07-26T08:21:50Z</time>
      </trkpt>
      <trkpt lat="43.1916390" lon="-1.0535920">
        <ele>200.7</ele>
        <time>2020-07-26T08:21:52Z</time>
      </trkpt>
      <trkpt lat="43.1915730" lon="-1.0534930">
        <ele>201.4</ele>
        <time>2020-07-26T08:21:55Z</time>
      </trkpt>
      <trkpt lat="43.1914470" lon="-1.0533040">
        <ele>202.6</ele>
        <time>2020-07-26T08:22:01Z</time>
      </trkpt>
      <trkpt lat="43.1914260" lon="-1.0532700">
        <ele>202.7</ele>
        <time>2020-07-26T08:22:02Z</time>
      </trkpt>
      <trkpt lat="43.1913200" lon="-1.0530940">
        <ele>203.5</ele>
        <time>2020-07-26T08:22:07Z</time>
      </trkpt>
      <trkpt lat="43.1912350" lon="-1.0529450">
        <ele>204.1</ele>
        <time>2020-07-26T08:22:11Z</time>
      </trkpt>
      <trkpt lat="43.1911890" lon="-1.0528660">
        <ele>204.4</ele>
        <time>2020-07-26T08:22:13Z</time>
      </trkpt>
      <trkpt lat="43.1910170" lon="-1.0525850">
        <ele>205.2</ele>
        <time>2020-07-26T08:22:20Z</time>
      </trkpt>
      <trkpt lat="43.1909910" lon="-1.0525460">
        <ele>205.3</ele>
        <time>2020-07-26T08:22:21Z</time>
      </trkpt>
      <trkpt lat="43.1908090" lon="-1.0522760">
        <ele>206.5</ele>
        <time>2020-07-26T08:22:28Z</time>
      </trkpt>
      <trkpt lat="43.1907800" lon="-1.0522430">
        <ele>206.6</ele>
        <time>2020-07-26T08:22:29Z</time>
      </trkpt>
      <trkpt lat="43.1906290" lon="-1.0520750">
        <ele>207.5</ele>
        <time>2020-07-26T08:22:34Z</time>
      </trkpt>
      <trkpt lat="43.1905040" lon="-1.0519580">
        <ele>208.1</ele>
        <time>2020-07-26T08:22:38Z</time>
      </trkpt>
      <trkpt lat="43.1904730" lon="-1.0519340">
        <ele>208.3</ele>
        <time>2020-07-26T08:22:39Z</time>
      </trkpt>
      <trkpt lat="43.1902330" lon="-1.0517670">
        <ele>209.3</ele>
        <time>2020-07-26T08:22:46Z</time>
      </trkpt>
      <trkpt lat="43.1900600" lon="-1.0516420">
        <ele>210.4</ele>
        <time>2020-07-26T08:22:51Z</time>
      </trkpt>
      <trkpt lat="43.1899340" lon="-1.0515060">
        <ele>211.0</ele>
        <time>2020-07-26T08:22:55Z</time>
      </trkpt>
      <trkpt lat="43.1899060" lon="-1.0514690">
        <ele>211.1</ele>
        <time>2020-07-26T08:22:56Z</time>
      </trkpt>
      <trkpt lat="43.1897950" lon="-1.0513210">
        <ele>211.6</ele>
        <time>2020-07-26T08:23:00Z</time>
      </trkpt>
      <trkpt lat="43.1897140" lon="-1.0512070">
        <ele>212.0</ele>
        <time>2020-07-26T08:23:03Z</time>
      </trkpt>
      <trkpt lat="43.1895240" lon="-1.0508980">
        <ele>213.4</ele>
        <time>2020-07-26T08:23:11Z</time>
      </trkpt>
      <trkpt lat="43.1894840" lon="-1.0508140">
        <ele>213.7</ele>
        <time>2020-07-26T08:23:13Z</time>
      </trkpt>
      <trkpt lat="43.1894310" lon="-1.0506860">
        <ele>214.2</ele>
        <time>2020-07-26T08:23:16Z</time>
      </trkpt>
      <trkpt lat="43.1893850" lon="-1.0505470">
        <ele>214.7</ele>
        <time>2020-07-26T08:23:19Z</time>
      </trkpt>
      <trkpt lat="43.1893530" lon="-1.0504530">
        <ele>215.0</ele>
        <time>2020-07-26T08:23:21Z</time>
      </trkpt>
      <trkpt lat="43.1892580" lon="-1.0501510">
        <ele>215.7</ele>
        <time>2020-07-26T08:23:27Z</time>
      </trkpt>
      <trkpt lat="43.1892220" lon="-1.0500450">
        <ele>215.9</ele>
        <time>2020-07-26T08:23:29Z</time>
      </trkpt>
      <trkpt lat="43.1892010" lon="-1.0499940">
        <ele>216.0</ele>
        <time>2020-07-26T08:23:30Z</time>
      </trkpt>
      <trkpt lat="43.1890380" lon="-1.0495670">
        <ele>216.7</ele>
        <time>2020-07-26T08:23:38Z</time>
      </trkpt>
      <trkpt lat="43.1888580" lon="-1.0490820">
        <ele>217.6</ele>
        <time>2020-07-26T08:23:47Z</time>
      </trkpt>
      <trkpt lat="43.1887980" lon="-1.0489170">
        <ele>217.9</ele>
        <time>2020-07-26T08:23:50Z</time>
      </trkpt>
      <trkpt lat="43.1886740" lon="-1.0485890">
        <ele>218.4</ele>
        <time>2020-07-26T08:23:56Z</time>
      </trkpt>
      <trkpt lat="43.1885880" lon="-1.0483650">
        <ele>218.8</ele>
        <time>2020-07-26T08:24:00Z</time>
      </trkpt>
      <trkpt lat="43.1884530" lon="-1.0480280">
        <ele>219.3</ele>
        <time>2020-07-26T08:24:06Z</time>
      </trkpt>
      <trkpt lat="43.1883640" lon="-1.0477970">
        <ele>219.7</ele>
        <time>2020-07-26T08:24:10Z</time>
      </trkpt>
      <trkpt lat="43.1882620" lon="-1.0474900">
        <ele>219.8</ele>
        <time>2020-07-26T08:24:15Z</time>
      </trkpt>
      <trkpt lat="43.1882150" lon="-1.0473460">
        <ele>219.5</ele>
        <time>2020-07-26T08:24:17Z</time>
      </trkpt>
      <trkpt lat="43.1881900" lon="-1.0472690">
        <ele>219.2</ele>
        <time>2020-07-26T08:24:18Z</time>
      </trkpt>
      <trkpt lat="43.1880820" lon="-1.0469130">
        <ele>217.7</ele>
        <time>2020-07-26T08:24:22Z</time>
      </trkpt>
      <trkpt lat="43.1879750" lon="-1.0463560">
        <ele>215.3</ele>
        <time>2020-07-26T08:24:27Z</time>
      </trkpt>
      <trkpt lat="43.1879600" lon="-1.0461100">
        <ele>214.4</ele>
        <time>2020-07-26T08:24:29Z</time>
      </trkpt>
      <trkpt lat="43.1879750" lon="-1.0457320">
        <ele>213.3</ele>
        <time>2020-07-26T08:24:32Z</time>
      </trkpt>
      <trkpt lat="43.1880760" lon="-1.0452620">
        <ele>212.8</ele>
        <time>2020-07-26T08:24:35Z</time>
      </trkpt>
      <trkpt lat="43.1880970" lon="-1.0452100">
        <ele>212.8</ele>
        <time>2020-07-26T08:24:36Z</time>
      </trkpt>
      <trkpt lat="43.1881180" lon="-1.0451580">
        <ele>212.7</ele>
        <time>2020-07-26T08:24:37Z</time>
      </trkpt>
      <trkpt lat="43.1882220" lon="-1.0449650">
        <ele>212.7</ele>
        <time>2020-07-26T08:24:39Z</time>
      </trkpt>
      <trkpt lat="43.1882810" lon="-1.0448870">
        <ele>212.7</ele>
        <time>2020-07-26T08:24:40Z</time>
      </trkpt>
      <trkpt lat="43.1885530" lon="-1.0447080">
        <ele>213.0</ele>
        <time>2020-07-26T08:24:44Z</time>
      </trkpt>
      <trkpt lat="43.1886220" lon="-1.0446830">
        <ele>213.1</ele>
        <time>2020-07-26T08:24:45Z</time>
      </trkpt>
      <trkpt lat="43.1890310" lon="-1.0445270">
        <ele>214.3</ele>
        <time>2020-07-26T08:24:51Z</time>
      </trkpt>
      <trkpt lat="43.1890920" lon="-1.0444920">
        <ele>214.5</ele>
        <time>2020-07-26T08:24:52Z</time>
      </trkpt>
      <trkpt lat="43.1892550" lon="-1.0443450">
        <ele>214.9</ele>
        <time>2020-07-26T08:24:55Z</time>
      </trkpt>
      <trkpt lat="43.1893460" lon="-1.0441230">
        <ele>215.2</ele>
        <time>2020-07-26T08:24:58Z</time>
      </trkpt>
      <trkpt lat="43.1893280" lon="-1.0438040">
        <ele>215.4</ele>
        <time>2020-07-26T08:25:02Z</time>
      </trkpt>
      <trkpt lat="43.1892110" lon="-1.0435560">
        <ele>216.2</ele>
        <time>2020-07-26T08:25:06Z</time>
      </trkpt>
      <trkpt lat="43.1890230" lon="-1.0433910">
        <ele>217.6</ele>
        <time>2020-07-26T08:25:11Z</time>
      </trkpt>
      <trkpt lat="43.1889450" lon="-1.0433600">
        <ele>218.1</ele>
        <time>2020-07-26T08:25:13Z</time>
      </trkpt>
      <trkpt lat="43.1889040" lon="-1.0433510">
        <ele>218.4</ele>
        <time>2020-07-26T08:25:14Z</time>
      </trkpt>
      <trkpt lat="43.1887860" lon="-1.0433490">
        <ele>219.2</ele>
        <time>2020-07-26T08:25:17Z</time>
      </trkpt>
      <trkpt lat="43.1887480" lon="-1.0433550">
        <ele>219.5</ele>
        <time>2020-07-26T08:25:18Z</time>
      </trkpt>
      <trkpt lat="43.1886040" lon="-1.0433980">
        <ele>220.6</ele>
        <time>2020-07-26T08:25:22Z</time>
      </trkpt>
      <trkpt lat="43.1884930" lon="-1.0434460">
        <ele>221.4</ele>
        <time>2020-07-26T08:25:25Z</time>
      </trkpt>
      <trkpt lat="43.1883590" lon="-1.0434990">
        <ele>222.5</ele>
        <time>2020-07-26T08:25:29Z</time>
      </trkpt>
      <trkpt lat="43.1882340" lon="-1.0435440">
        <ele>223.5</ele>
        <time>2020-07-26T08:25:33Z</time>
      </trkpt>
      <trkpt lat="43.1881190" lon="-1.0435610">
        <ele>224.4</ele>
        <time>2020-07-26T08:25:37Z</time>
      </trkpt>
      <trkpt lat="43.1880350" lon="-1.0435840">
        <ele>225.2</ele>
        <time>2020-07-26T08:25:40Z</time>
      </trkpt>
      <trkpt lat="43.1880070" lon="-1.0435870">
        <ele>225.4</ele>
        <time>2020-07-26T08:25:41Z</time>
      </trkpt>
      <trkpt lat="43.1878380" lon="-1.0435890">
        <ele>226.9</ele>
        <time>2020-07-26T08:25:47Z</time>
      </trkpt>
      <trkpt lat="43.1878090" lon="-1.0435850">
        <ele>227.2</ele>
        <time>2020-07-26T08:25:48Z</time>
      </trkpt>
      <trkpt lat="43.1876950" lon="-1.0435680">
        <ele>228.2</ele>
        <time>2020-07-26T08:25:52Z</time>
      </trkpt>
      <trkpt lat="43.1875850" lon="-1.0435420">
        <ele>229.2</ele>
        <time>2020-07-26T08:25:56Z</time>
      </trkpt>
      <trkpt lat="43.1875580" lon="-1.0435360">
        <ele>229.5</ele>
        <time>2020-07-26T08:25:57Z</time>
      </trkpt>
      <trkpt lat="43.1874490" lon="-1.0435200">
        <ele>230.5</ele>
        <time>2020-07-26T08:26:01Z</time>
      </trkpt>
      <trkpt lat="43.1873970" lon="-1.0435180">
        <ele>231.0</ele>
        <time>2020-07-26T08:26:03Z</time>
      </trkpt>
      <trkpt lat="43.1872940" lon="-1.0434970">
        <ele>232.0</ele>
        <time>2020-07-26T08:26:07Z</time>
      </trkpt>
      <trkpt lat="43.1872070" lon="-1.0434790">
        <ele>232.8</ele>
        <time>2020-07-26T08:26:10Z</time>
      </trkpt>
      <trkpt lat="43.1871270" lon="-1.0434500">
        <ele>233.6</ele>
        <time>2020-07-26T08:26:13Z</time>
      </trkpt>
      <trkpt lat="43.1871040" lon="-1.0434410">
        <ele>233.8</ele>
        <time>2020-07-26T08:26:14Z</time>
      </trkpt>
      <trkpt lat="43.1869740" lon="-1.0433810">
        <ele>235.1</ele>
        <time>2020-07-26T08:26:19Z</time>
      </trkpt>
      <trkpt lat="43.1869470" lon="-1.0433650">
        <ele>235.4</ele>
        <time>2020-07-26T08:26:20Z</time>
      </trkpt>
      <trkpt lat="43.1868430" lon="-1.0433060">
        <ele>236.5</ele>
        <time>2020-07-26T08:26:24Z</time>
      </trkpt>
      <trkpt lat="43.1867420" lon="-1.0432480">
        <ele>237.6</ele>
        <time>2020-07-26T08:26:28Z</time>
      </trkpt>
      <trkpt lat="43.1866920" lon="-1.0432170">
        <ele>238.1</ele>
        <time>2020-07-26T08:26:30Z</time>
      </trkpt>
      <trkpt lat="43.1865970" lon="-1.0431450">
        <ele>239.1</ele>
        <time>2020-07-26T08:26:34Z</time>
      </trkpt>
      <trkpt lat="43.1865370" lon="-1.0430830">
        <ele>239.8</ele>
        <time>2020-07-26T08:26:37Z</time>
      </trkpt>
      <trkpt lat="43.1865180" lon="-1.0430610">
        <ele>240.1</ele>
        <time>2020-07-26T08:26:38Z</time>
      </trkpt>
      <trkpt lat="43.1864430" lon="-1.0429870">
        <ele>240.9</ele>
        <time>2020-07-26T08:26:42Z</time>
      </trkpt>
      <trkpt lat="43.1863760" lon="-1.0428930">
        <ele>241.8</ele>
        <time>2020-07-26T08:26:46Z</time>
      </trkpt>
      <trkpt lat="43.1863560" lon="-1.0428660">
        <ele>242.0</ele>
        <time>2020-07-26T08:26:47Z</time>
      </trkpt>
      <trkpt lat="43.1862790" lon="-1.0427360">
        <ele>243.0</ele>
        <time>2020-07-26T08:26:51Z</time>
      </trkpt>
      <trkpt lat="43.1862140" lon="-1.0426000">
        <ele>244.0</ele>
        <time>2020-07-26T08:26:55Z</time>
      </trkpt>
      <trkpt lat="43.1861980" lon="-1.0425640">
        <ele>244.2</ele>
        <time>2020-07-26T08:26:56Z</time>
      </trkpt>
      <trkpt lat="43.1861130" lon="-1.0423590">
        <ele>245.5</ele>
        <time>2020-07-26T08:27:02Z</time>
      </trkpt>
      <trkpt lat="43.1860880" lon="-1.0422860">
        <ele>245.9</ele>
        <time>2020-07-26T08:27:04Z</time>
      </trkpt>
      <trkpt lat="43.1860580" lon="-1.0421790">
        <ele>246.6</ele>
        <time>2020-07-26T08:27:07Z</time>
      </trkpt>
      <trkpt lat="43.1860050" lon="-1.0419940">
        <ele>247.8</ele>
        <time>2020-07-26T08:27:12Z</time>
      </trkpt>
      <trkpt lat="43.1859960" lon="-1.0419570">
        <ele>248.0</ele>
        <time>2020-07-26T08:27:13Z</time>
      </trkpt>
      <trkpt lat="43.1859480" lon="-1.0417660">
        <ele>249.1</ele>
        <time>2020-07-26T08:27:18Z</time>
      </trkpt>
      <trkpt lat="43.1859040" lon="-1.0415790">
        <ele>250.2</ele>
        <time>2020-07-26T08:27:23Z</time>
      </trkpt>
      <trkpt lat="43.1858940" lon="-1.0415420">
        <ele>250.5</ele>
        <time>2020-07-26T08:27:24Z</time>
      </trkpt>
      <trkpt lat="43.1858570" lon="-1.0413570">
        <ele>251.5</ele>
        <time>2020-07-26T08:27:29Z</time>
      </trkpt>
      <trkpt lat="43.1858240" lon="-1.0411650">
        <ele>252.5</ele>
        <time>2020-07-26T08:27:34Z</time>
      </trkpt>
      <trkpt lat="43.1858170" lon="-1.0411280">
        <ele>252.7</ele>
        <time>2020-07-26T08:27:35Z</time>
      </trkpt>
      <trkpt lat="43.1857920" lon="-1.0409790">
        <ele>253.5</ele>
        <time>2020-07-26T08:27:39Z</time>
      </trkpt>
      <trkpt lat="43.1857700" lon="-1.0407990">
        <ele>254.5</ele>
        <time>2020-07-26T08:27:44Z</time>
      </trkpt>
      <trkpt lat="43.1857660" lon="-1.0407640">
        <ele>254.7</ele>
        <time>2020-07-26T08:27:45Z</time>
      </trkpt>
      <trkpt lat="43.1857490" lon="-1.0405910">
        <ele>255.6</ele>
        <time>2020-07-26T08:27:50Z</time>
      </trkpt>
      <trkpt lat="43.1857030" lon="-1.0404370">
        <ele>256.5</ele>
        <time>2020-07-26T08:27:54Z</time>
      </trkpt>
      <trkpt lat="43.1856840" lon="-1.0403580">
        <ele>256.9</ele>
        <time>2020-07-26T08:27:56Z</time>
      </trkpt>
      <trkpt lat="43.1856480" lon="-1.0401620">
        <ele>258.0</ele>
        <time>2020-07-26T08:28:01Z</time>
      </trkpt>
      <trkpt lat="43.1856320" lon="-1.0400540">
        <ele>258.6</ele>
        <time>2020-07-26T08:28:04Z</time>
      </trkpt>
      <trkpt lat="43.1856230" lon="-1.0399840">
        <ele>259.0</ele>
        <time>2020-07-26T08:28:06Z</time>
      </trkpt>
      <trkpt lat="43.1855900" lon="-1.0397280">
        <ele>260.4</ele>
        <time>2020-07-26T08:28:12Z</time>
      </trkpt>
      <trkpt lat="43.1855770" lon="-1.0395220">
        <ele>261.4</ele>
        <time>2020-07-26T08:28:17Z</time>
      </trkpt>
      <trkpt lat="43.1855700" lon="-1.0394360">
        <ele>261.9</ele>
        <time>2020-07-26T08:28:19Z</time>
      </trkpt>
      <trkpt lat="43.1855680" lon="-1.0393170">
        <ele>262.5</ele>
        <time>2020-07-26T08:28:22Z</time>
      </trkpt>
      <trkpt lat="43.1855690" lon="-1.0391960">
        <ele>263.2</ele>
        <time>2020-07-26T08:28:25Z</time>
      </trkpt>
      <trkpt lat="43.1855740" lon="-1.0391240">
        <ele>263.6</ele>
        <time>2020-07-26T08:28:27Z</time>
      </trkpt>
      <trkpt lat="43.1856220" lon="-1.0389450">
        <ele>264.6</ele>
        <time>2020-07-26T08:28:32Z</time>
      </trkpt>
      <trkpt lat="43.1856750" lon="-1.0387560">
        <ele>265.7</ele>
        <time>2020-07-26T08:28:37Z</time>
      </trkpt>
      <trkpt lat="43.1856930" lon="-1.0386820">
        <ele>266.1</ele>
        <time>2020-07-26T08:28:39Z</time>
      </trkpt>
      <trkpt lat="43.1857250" lon="-1.0385760">
        <ele>266.7</ele>
        <time>2020-07-26T08:28:42Z</time>
      </trkpt>
      <trkpt lat="43.1857650" lon="-1.0384340">
        <ele>267.5</ele>
        <time>2020-07-26T08:28:46Z</time>
      </trkpt>
      <trkpt lat="43.1857720" lon="-1.0383970">
        <ele>267.7</ele>
        <time>2020-07-26T08:28:47Z</time>
      </trkpt>
      <trkpt lat="43.1858160" lon="-1.0382300">
        <ele>268.7</ele>
        <time>2020-07-26T08:28:52Z</time>
      </trkpt>
      <trkpt lat="43.1858430" lon="-1.0380650">
        <ele>269.7</ele>
        <time>2020-07-26T08:28:57Z</time>
      </trkpt>
      <trkpt lat="43.1858480" lon="-1.0379980">
        <ele>270.1</ele>
        <time>2020-07-26T08:28:59Z</time>
      </trkpt>
      <trkpt lat="43.1858540" lon="-1.0379090">
        <ele>270.6</ele>
        <time>2020-07-26T08:29:02Z</time>
      </trkpt>
      <trkpt lat="43.1858770" lon="-1.0378470">
        <ele>270.9</ele>
        <time>2020-07-26T08:29:04Z</time>
      </trkpt>
      <trkpt lat="43.1859050" lon="-1.0377450">
        <ele>271.7</ele>
        <time>2020-07-26T08:29:07Z</time>
      </trkpt>
      <trkpt lat="43.1859160" lon="-1.0376800">
        <ele>272.1</ele>
        <time>2020-07-26T08:29:09Z</time>
      </trkpt>
      <trkpt lat="43.1859410" lon="-1.0375940">
        <ele>272.6</ele>
        <time>2020-07-26T08:29:12Z</time>
      </trkpt>
      <trkpt lat="43.1859530" lon="-1.0375600">
        <ele>272.8</ele>
        <time>2020-07-26T08:29:13Z</time>
      </trkpt>
      <trkpt lat="43.1860050" lon="-1.0374170">
        <ele>273.7</ele>
        <time>2020-07-26T08:29:17Z</time>
      </trkpt>
      <trkpt lat="43.1860570" lon="-1.0372680">
        <ele>274.7</ele>
        <time>2020-07-26T08:29:21Z</time>
      </trkpt>
      <trkpt lat="43.1860790" lon="-1.0371950">
        <ele>275.1</ele>
        <time>2020-07-26T08:29:23Z</time>
      </trkpt>
      <trkpt lat="43.1861170" lon="-1.0370590">
        <ele>275.9</ele>
        <time>2020-07-26T08:29:27Z</time>
      </trkpt>
      <trkpt lat="43.1861300" lon="-1.0369880">
        <ele>276.3</ele>
        <time>2020-07-26T08:29:29Z</time>
      </trkpt>
      <trkpt lat="43.1861600" lon="-1.0369120">
        <ele>276.8</ele>
        <time>2020-07-26T08:29:31Z</time>
      </trkpt>
      <trkpt lat="43.1862120" lon="-1.0367690">
        <ele>277.6</ele>
        <time>2020-07-26T08:29:35Z</time>
      </trkpt>
      <trkpt lat="43.1862330" lon="-1.0366960">
        <ele>278.0</ele>
        <time>2020-07-26T08:29:37Z</time>
      </trkpt>
      <trkpt lat="43.1862850" lon="-1.0365370">
        <ele>278.9</ele>
        <time>2020-07-26T08:29:41Z</time>
      </trkpt>
      <trkpt lat="43.1863240" lon="-1.0364070">
        <ele>279.6</ele>
        <time>2020-07-26T08:29:44Z</time>
      </trkpt>
      <trkpt lat="43.1863600" lon="-1.0362900">
        <ele>280.3</ele>
        <time>2020-07-26T08:29:47Z</time>
      </trkpt>
      <trkpt lat="43.1863820" lon="-1.0361620">
        <ele>280.9</ele>
        <time>2020-07-26T08:29:50Z</time>
      </trkpt>
      <trkpt lat="43.1863950" lon="-1.0360840">
        <ele>281.4</ele>
        <time>2020-07-26T08:29:52Z</time>
      </trkpt>
      <trkpt lat="43.1864340" lon="-1.0359320">
        <ele>282.2</ele>
        <time>2020-07-26T08:29:56Z</time>
      </trkpt>
      <trkpt lat="43.1864410" lon="-1.0358900">
        <ele>282.4</ele>
        <time>2020-07-26T08:29:57Z</time>
      </trkpt>
      <trkpt lat="43.1864560" lon="-1.0357160">
        <ele>283.4</ele>
        <time>2020-07-26T08:30:01Z</time>
      </trkpt>
      <trkpt lat="43.1864640" lon="-1.0356310">
        <ele>283.8</ele>
        <time>2020-07-26T08:30:03Z</time>
      </trkpt>
      <trkpt lat="43.1864740" lon="-1.0355090">
        <ele>284.4</ele>
        <time>2020-07-26T08:30:06Z</time>
      </trkpt>
      <trkpt lat="43.1864920" lon="-1.0353530">
        <ele>285.3</ele>
        <time>2020-07-26T08:30:10Z</time>
      </trkpt>
      <trkpt lat="43.1865100" lon="-1.0352690">
        <ele>285.7</ele>
        <time>2020-07-26T08:30:12Z</time>
      </trkpt>
      <trkpt lat="43.1865380" lon="-1.0350960">
        <ele>286.6</ele>
        <time>2020-07-26T08:30:16Z</time>
      </trkpt>
      <trkpt lat="43.1865380" lon="-1.0350530">
        <ele>286.8</ele>
        <time>2020-07-26T08:30:17Z</time>
      </trkpt>
      <trkpt lat="43.1865550" lon="-1.0348570">
        <ele>287.8</ele>
        <time>2020-07-26T08:30:22Z</time>
      </trkpt>
      <trkpt lat="43.1865880" lon="-1.0345950">
        <ele>289.1</ele>
        <time>2020-07-26T08:30:28Z</time>
      </trkpt>
      <trkpt lat="43.1865940" lon="-1.0345550">
        <ele>289.3</ele>
        <time>2020-07-26T08:30:29Z</time>
      </trkpt>
      <trkpt lat="43.1866130" lon="-1.0343820">
        <ele>290.1</ele>
        <time>2020-07-26T08:30:34Z</time>
      </trkpt>
      <trkpt lat="43.1866150" lon="-1.0343450">
        <ele>290.3</ele>
        <time>2020-07-26T08:30:35Z</time>
      </trkpt>
      <trkpt lat="43.1866250" lon="-1.0341680">
        <ele>291.2</ele>
        <time>2020-07-26T08:30:40Z</time>
      </trkpt>
      <trkpt lat="43.1866340" lon="-1.0341320">
        <ele>291.4</ele>
        <time>2020-07-26T08:30:41Z</time>
      </trkpt>
      <trkpt lat="43.1866410" lon="-1.0340270">
        <ele>292.0</ele>
        <time>2020-07-26T08:30:44Z</time>
      </trkpt>
      <trkpt lat="43.1866500" lon="-1.0339470">
        <ele>292.4</ele>
        <time>2020-07-26T08:30:46Z</time>
      </trkpt>
      <trkpt lat="43.1866590" lon="-1.0338630">
        <ele>292.9</ele>
        <time>2020-07-26T08:30:48Z</time>
      </trkpt>
      <trkpt lat="43.1866750" lon="-1.0336510">
        <ele>294.0</ele>
        <time>2020-07-26T08:30:53Z</time>
      </trkpt>
      <trkpt lat="43.1866740" lon="-1.0336190">
        <ele>294.2</ele>
        <time>2020-07-26T08:30:54Z</time>
      </trkpt>
      <trkpt lat="43.1866980" lon="-1.0334500">
        <ele>295.1</ele>
        <time>2020-07-26T08:30:59Z</time>
      </trkpt>
      <trkpt lat="43.1867030" lon="-1.0334090">
        <ele>295.4</ele>
        <time>2020-07-26T08:31:00Z</time>
      </trkpt>
      <trkpt lat="43.1867200" lon="-1.0332500">
        <ele>296.4</ele>
        <time>2020-07-26T08:31:04Z</time>
      </trkpt>
      <trkpt lat="43.1867180" lon="-1.0331770">
        <ele>296.8</ele>
        <time>2020-07-26T08:31:06Z</time>
      </trkpt>
      <trkpt lat="43.1867010" lon="-1.0330660">
        <ele>297.5</ele>
        <time>2020-07-26T08:31:09Z</time>
      </trkpt>
      <trkpt lat="43.1867080" lon="-1.0329910">
        <ele>297.9</ele>
        <time>2020-07-26T08:31:11Z</time>
      </trkpt>
      <trkpt lat="43.1867230" lon="-1.0328740">
        <ele>298.6</ele>
        <time>2020-07-26T08:31:14Z</time>
      </trkpt>
      <trkpt lat="43.1867220" lon="-1.0327970">
        <ele>299.1</ele>
        <time>2020-07-26T08:31:16Z</time>
      </trkpt>
      <trkpt lat="43.1867410" lon="-1.0326740">
        <ele>299.8</ele>
        <time>2020-07-26T08:31:19Z</time>
      </trkpt>
      <trkpt lat="43.1867690" lon="-1.0325220">
        <ele>300.7</ele>
        <time>2020-07-26T08:31:23Z</time>
      </trkpt>
      <trkpt lat="43.1867810" lon="-1.0324440">
        <ele>301.2</ele>
        <time>2020-07-26T08:31:25Z</time>
      </trkpt>
      <trkpt lat="43.1868290" lon="-1.0322150">
        <ele>302.4</ele>
        <time>2020-07-26T08:31:31Z</time>
      </trkpt>
      <trkpt lat="43.1868380" lon="-1.0321770">
        <ele>302.7</ele>
        <time>2020-07-26T08:31:32Z</time>
      </trkpt>
      <trkpt lat="43.1868800" lon="-1.0319760">
        <ele>303.8</ele>
        <time>2020-07-26T08:31:37Z</time>
      </trkpt>
      <trkpt lat="43.1868990" lon="-1.0318980">
        <ele>304.2</ele>
        <time>2020-07-26T08:31:39Z</time>
      </trkpt>
      <trkpt lat="43.1869450" lon="-1.0317470">
        <ele>305.0</ele>
        <time>2020-07-26T08:31:43Z</time>
      </trkpt>
      <trkpt lat="43.1869830" lon="-1.0316330">
        <ele>305.6</ele>
        <time>2020-07-26T08:31:46Z</time>
      </trkpt>
      <trkpt lat="43.1870160" lon="-1.0315590">
        <ele>306.1</ele>
        <time>2020-07-26T08:31:48Z</time>
      </trkpt>
      <trkpt lat="43.1871140" lon="-1.0313780">
        <ele>307.2</ele>
        <time>2020-07-26T08:31:53Z</time>
      </trkpt>
      <trkpt lat="43.1871300" lon="-1.0313430">
        <ele>307.5</ele>
        <time>2020-07-26T08:31:54Z</time>
      </trkpt>
      <trkpt lat="43.1872040" lon="-1.0312160">
        <ele>308.4</ele>
        <time>2020-07-26T08:31:58Z</time>
      </trkpt>
      <trkpt lat="43.1872220" lon="-1.0311860">
        <ele>308.6</ele>
        <time>2020-07-26T08:31:59Z</time>
      </trkpt>
      <trkpt lat="43.1872770" lon="-1.0311000">
        <ele>309.3</ele>
        <time>2020-07-26T08:32:02Z</time>
      </trkpt>
      <trkpt lat="43.1873090" lon="-1.0310400">
        <ele>309.7</ele>
        <time>2020-07-26T08:32:04Z</time>
      </trkpt>
      <trkpt lat="43.1873490" lon="-1.0309860">
        <ele>310.1</ele>
        <time>2020-07-26T08:32:06Z</time>
      </trkpt>
      <trkpt lat="43.1874120" lon="-1.0309150">
        <ele>310.8</ele>
        <time>2020-07-26T08:32:09Z</time>
      </trkpt>
      <trkpt lat="43.1874570" lon="-1.0308670">
        <ele>311.2</ele>
        <time>2020-07-26T08:32:11Z</time>
      </trkpt>
      <trkpt lat="43.1875980" lon="-1.0307380">
        <ele>312.3</ele>
        <time>2020-07-26T08:32:16Z</time>
      </trkpt>
      <trkpt lat="43.1876240" lon="-1.0307090">
        <ele>312.5</ele>
        <time>2020-07-26T08:32:17Z</time>
      </trkpt>
      <trkpt lat="43.1877150" lon="-1.0305420">
        <ele>313.4</ele>
        <time>2020-07-26T08:32:22Z</time>
      </trkpt>
      <trkpt lat="43.1878050" lon="-1.0302800">
        <ele>314.7</ele>
        <time>2020-07-26T08:32:29Z</time>
      </trkpt>
      <trkpt lat="43.1878460" lon="-1.0301590">
        <ele>315.2</ele>
        <time>2020-07-26T08:32:32Z</time>
      </trkpt>
      <trkpt lat="43.1878750" lon="-1.0300740">
        <ele>315.6</ele>
        <time>2020-07-26T08:32:34Z</time>
      </trkpt>
      <trkpt lat="43.1879570" lon="-1.0297940">
        <ele>316.7</ele>
        <time>2020-07-26T08:32:41Z</time>
      </trkpt>
      <trkpt lat="43.1880260" lon="-1.0295200">
        <ele>317.9</ele>
        <time>2020-07-26T08:32:48Z</time>
      </trkpt>
      <trkpt lat="43.1880490" lon="-1.0294430">
        <ele>318.3</ele>
        <time>2020-07-26T08:32:50Z</time>
      </trkpt>
      <trkpt lat="43.1881320" lon="-1.0292560">
        <ele>319.2</ele>
        <time>2020-07-26T08:32:55Z</time>
      </trkpt>
      <trkpt lat="43.1881650" lon="-1.0291830">
        <ele>319.5</ele>
        <time>2020-07-26T08:32:57Z</time>
      </trkpt>
      <trkpt lat="43.1882490" lon="-1.0290060">
        <ele>320.4</ele>
        <time>2020-07-26T08:33:02Z</time>
      </trkpt>
      <trkpt lat="43.1883400" lon="-1.0288380">
        <ele>321.2</ele>
        <time>2020-07-26T08:33:07Z</time>
      </trkpt>
      <trkpt lat="43.1883620" lon="-1.0288060">
        <ele>321.4</ele>
        <time>2020-07-26T08:33:08Z</time>
      </trkpt>
      <trkpt lat="43.1885140" lon="-1.0286400">
        <ele>322.4</ele>
        <time>2020-07-26T08:33:14Z</time>
      </trkpt>
      <trkpt lat="43.1887020" lon="-1.0284860">
        <ele>323.6</ele>
        <time>2020-07-26T08:33:21Z</time>
      </trkpt>
      <trkpt lat="43.1888920" lon="-1.0283820">
        <ele>325.0</ele>
        <time>2020-07-26T08:33:28Z</time>
      </trkpt>
      <trkpt lat="43.1889170" lon="-1.0283700">
        <ele>325.2</ele>
        <time>2020-07-26T08:33:29Z</time>
      </trkpt>
      <trkpt lat="43.1890190" lon="-1.0283240">
        <ele>326.0</ele>
        <time>2020-07-26T08:33:33Z</time>
      </trkpt>
      <trkpt lat="43.1891020" lon="-1.0282870">
        <ele>326.6</ele>
        <time>2020-07-26T08:33:36Z</time>
      </trkpt>
      <trkpt lat="43.1891310" lon="-1.0282730">
        <ele>326.8</ele>
        <time>2020-07-26T08:33:37Z</time>
      </trkpt>
      <trkpt lat="43.1892370" lon="-1.0281910">
        <ele>327.6</ele>
        <time>2020-07-26T08:33:41Z</time>
      </trkpt>
      <trkpt lat="43.1892780" lon="-1.0281330">
        <ele>328.0</ele>
        <time>2020-07-26T08:33:43Z</time>
      </trkpt>
      <trkpt lat="43.1893410" lon="-1.0279650">
        <ele>329.0</ele>
        <time>2020-07-26T08:33:48Z</time>
      </trkpt>
      <trkpt lat="43.1893600" lon="-1.0278910">
        <ele>329.3</ele>
        <time>2020-07-26T08:33:50Z</time>
      </trkpt>
      <trkpt lat="43.1893880" lon="-1.0277340">
        <ele>330.2</ele>
        <time>2020-07-26T08:33:54Z</time>
      </trkpt>
      <trkpt lat="43.1894220" lon="-1.0275800">
        <ele>331.0</ele>
        <time>2020-07-26T08:33:58Z</time>
      </trkpt>
      <trkpt lat="43.1894320" lon="-1.0275410">
        <ele>331.2</ele>
        <time>2020-07-26T08:33:59Z</time>
      </trkpt>
      <trkpt lat="43.1894940" lon="-1.0273620">
        <ele>332.2</ele>
        <time>2020-07-26T08:34:04Z</time>
      </trkpt>
      <trkpt lat="43.1895100" lon="-1.0273270">
        <ele>332.4</ele>
        <time>2020-07-26T08:34:05Z</time>
      </trkpt>
      <trkpt lat="43.1895990" lon="-1.0271600">
        <ele>333.4</ele>
        <time>2020-07-26T08:34:10Z</time>
      </trkpt>
      <trkpt lat="43.1896510" lon="-1.0270610">
        <ele>334.0</ele>
        <time>2020-07-26T08:34:13Z</time>
      </trkpt>
      <trkpt lat="43.1896900" lon="-1.0269990">
        <ele>334.4</ele>
        <time>2020-07-26T08:34:15Z</time>
      </trkpt>
      <trkpt lat="43.1897830" lon="-1.0268410">
        <ele>335.4</ele>
        <time>2020-07-26T08:34:20Z</time>
      </trkpt>
      <trkpt lat="43.1898010" lon="-1.0268110">
        <ele>335.6</ele>
        <time>2020-07-26T08:34:21Z</time>
      </trkpt>
      <trkpt lat="43.1898930" lon="-1.0266590">
        <ele>336.6</ele>
        <time>2020-07-26T08:34:26Z</time>
      </trkpt>
      <trkpt lat="43.1899540" lon="-1.0265700">
        <ele>337.2</ele>
        <time>2020-07-26T08:34:29Z</time>
      </trkpt>
      <trkpt lat="43.1899940" lon="-1.0265110">
        <ele>337.7</ele>
        <time>2020-07-26T08:34:31Z</time>
      </trkpt>
      <trkpt lat="43.1900950" lon="-1.0263650">
        <ele>338.7</ele>
        <time>2020-07-26T08:34:36Z</time>
      </trkpt>
      <trkpt lat="43.1901130" lon="-1.0263370">
        <ele>338.9</ele>
        <time>2020-07-26T08:34:37Z</time>
      </trkpt>
      <trkpt lat="43.1901850" lon="-1.0262130">
        <ele>339.7</ele>
        <time>2020-07-26T08:34:41Z</time>
      </trkpt>
      <trkpt lat="43.1902450" lon="-1.0260820">
        <ele>340.4</ele>
        <time>2020-07-26T08:34:45Z</time>
      </trkpt>
      <trkpt lat="43.1902920" lon="-1.0259810">
        <ele>341.0</ele>
        <time>2020-07-26T08:34:48Z</time>
      </trkpt>
      <trkpt lat="43.1903870" lon="-1.0258150">
        <ele>341.9</ele>
        <time>2020-07-26T08:34:53Z</time>
      </trkpt>
      <trkpt lat="43.1904070" lon="-1.0257840">
        <ele>342.1</ele>
        <time>2020-07-26T08:34:54Z</time>
      </trkpt>
      <trkpt lat="43.1905370" lon="-1.0255640">
        <ele>343.2</ele>
        <time>2020-07-26T08:35:01Z</time>
      </trkpt>
      <trkpt lat="43.1905560" lon="-1.0255330">
        <ele>343.3</ele>
        <time>2020-07-26T08:35:02Z</time>
      </trkpt>
      <trkpt lat="43.1906440" lon="-1.0253770">
        <ele>344.1</ele>
        <time>2020-07-26T08:35:07Z</time>
      </trkpt>
      <trkpt lat="43.1907200" lon="-1.0252540">
        <ele>344.7</ele>
        <time>2020-07-26T08:35:11Z</time>
      </trkpt>
      <trkpt lat="43.1907320" lon="-1.0252240">
        <ele>344.8</ele>
        <time>2020-07-26T08:35:12Z</time>
      </trkpt>
      <trkpt lat="43.1908540" lon="-1.0250070">
        <ele>346.0</ele>
        <time>2020-07-26T08:35:19Z</time>
      </trkpt>
      <trkpt lat="43.1910180" lon="-1.0247710">
        <ele>347.3</ele>
        <time>2020-07-26T08:35:26Z</time>
      </trkpt>
      <trkpt lat="43.1910320" lon="-1.0247340">
        <ele>347.4</ele>
        <time>2020-07-26T08:35:27Z</time>
      </trkpt>
      <trkpt lat="43.1911270" lon="-1.0245500">
        <ele>348.4</ele>
        <time>2020-07-26T08:35:32Z</time>
      </trkpt>
      <trkpt lat="43.1911620" lon="-1.0244770">
        <ele>348.8</ele>
        <time>2020-07-26T08:35:34Z</time>
      </trkpt>
      <trkpt lat="43.1912500" lon="-1.0242960">
        <ele>349.7</ele>
        <time>2020-07-26T08:35:39Z</time>
      </trkpt>
      <trkpt lat="43.1913090" lon="-1.0241560">
        <ele>350.5</ele>
        <time>2020-07-26T08:35:43Z</time>
      </trkpt>
      <trkpt lat="43.1913350" lon="-1.0240870">
        <ele>350.8</ele>
        <time>2020-07-26T08:35:45Z</time>
      </trkpt>
      <trkpt lat="43.1914110" lon="-1.0239150">
        <ele>351.7</ele>
        <time>2020-07-26T08:35:50Z</time>
      </trkpt>
      <trkpt lat="43.1914370" lon="-1.0238810">
        <ele>351.9</ele>
        <time>2020-07-26T08:35:51Z</time>
      </trkpt>
      <trkpt lat="43.1915490" lon="-1.0236870">
        <ele>352.9</ele>
        <time>2020-07-26T08:35:57Z</time>
      </trkpt>
      <trkpt lat="43.1915640" lon="-1.0236550">
        <ele>353.1</ele>
        <time>2020-07-26T08:35:58Z</time>
      </trkpt>
      <trkpt lat="43.1916700" lon="-1.0235160">
        <ele>354.1</ele>
        <time>2020-07-26T08:36:03Z</time>
      </trkpt>
      <trkpt lat="43.1916990" lon="-1.0234870">
        <ele>354.3</ele>
        <time>2020-07-26T08:36:04Z</time>
      </trkpt>
      <trkpt lat="43.1917760" lon="-1.0233860">
        <ele>355.1</ele>
        <time>2020-07-26T08:36:08Z</time>
      </trkpt>
      <trkpt lat="43.1918000" lon="-1.0233640">
        <ele>355.3</ele>
        <time>2020-07-26T08:36:09Z</time>
      </trkpt>
      <trkpt lat="43.1918680" lon="-1.0232890">
        <ele>355.9</ele>
        <time>2020-07-26T08:36:12Z</time>
      </trkpt>
      <trkpt lat="43.1919690" lon="-1.0232080">
        <ele>356.7</ele>
        <time>2020-07-26T08:36:16Z</time>
      </trkpt>
      <trkpt lat="43.1920000" lon="-1.0231890">
        <ele>356.9</ele>
        <time>2020-07-26T08:36:17Z</time>
      </trkpt>
      <trkpt lat="43.1921550" lon="-1.0231070">
        <ele>358.2</ele>
        <time>2020-07-26T08:36:22Z</time>
      </trkpt>
      <trkpt lat="43.1922340" lon="-1.0230920">
        <ele>358.8</ele>
        <time>2020-07-26T08:36:25Z</time>
      </trkpt>
      <trkpt lat="43.1922660" lon="-1.0230890">
        <ele>359.0</ele>
        <time>2020-07-26T08:36:26Z</time>
      </trkpt>
      <trkpt lat="43.1922950" lon="-1.0230900">
        <ele>359.3</ele>
        <time>2020-07-26T08:36:27Z</time>
      </trkpt>
      <trkpt lat="43.1924330" lon="-1.0230950">
        <ele>360.3</ele>
        <time>2020-07-26T08:36:31Z</time>
      </trkpt>
      <trkpt lat="43.1925090" lon="-1.0230960">
        <ele>360.9</ele>
        <time>2020-07-26T08:36:33Z</time>
      </trkpt>
      <trkpt lat="43.1926240" lon="-1.0231510">
        <ele>361.9</ele>
        <time>2020-07-26T08:36:37Z</time>
      </trkpt>
      <trkpt lat="43.1926550" lon="-1.0231620">
        <ele>362.1</ele>
        <time>2020-07-26T08:36:38Z</time>
      </trkpt>
      <trkpt lat="43.1928040" lon="-1.0232600">
        <ele>363.3</ele>
        <time>2020-07-26T08:36:43Z</time>
      </trkpt>
      <trkpt lat="43.1929090" lon="-1.0233700">
        <ele>364.3</ele>
        <time>2020-07-26T08:36:47Z</time>
      </trkpt>
      <trkpt lat="43.1929660" lon="-1.0234010">
        <ele>364.7</ele>
        <time>2020-07-26T08:36:49Z</time>
      </trkpt>
      <trkpt lat="43.1930180" lon="-1.0234480">
        <ele>365.2</ele>
        <time>2020-07-26T08:36:51Z</time>
      </trkpt>
      <trkpt lat="43.1931210" lon="-1.0235400">
        <ele>366.2</ele>
        <time>2020-07-26T08:36:55Z</time>
      </trkpt>
      <trkpt lat="43.1931460" lon="-1.0235600">
        <ele>366.4</ele>
        <time>2020-07-26T08:36:56Z</time>
      </trkpt>
      <trkpt lat="43.1932780" lon="-1.0237210">
        <ele>367.9</ele>
        <time>2020-07-26T08:37:02Z</time>
      </trkpt>
      <trkpt lat="43.1933860" lon="-1.0238330">
        <ele>369.0</ele>
        <time>2020-07-26T08:37:07Z</time>
      </trkpt>
      <trkpt lat="43.1934080" lon="-1.0238520">
        <ele>369.2</ele>
        <time>2020-07-26T08:37:08Z</time>
      </trkpt>
      <trkpt lat="43.1934750" lon="-1.0239730">
        <ele>370.2</ele>
        <time>2020-07-26T08:37:12Z</time>
      </trkpt>
      <trkpt lat="43.1935000" lon="-1.0239980">
        <ele>370.4</ele>
        <time>2020-07-26T08:37:13Z</time>
      </trkpt>
      <trkpt lat="43.1936040" lon="-1.0240870">
        <ele>371.5</ele>
        <time>2020-07-26T08:37:17Z</time>
      </trkpt>
      <trkpt lat="43.1936300" lon="-1.0241040">
        <ele>371.8</ele>
        <time>2020-07-26T08:37:18Z</time>
      </trkpt>
      <trkpt lat="43.1936950" lon="-1.0241600">
        <ele>372.4</ele>
        <time>2020-07-26T08:37:21Z</time>
      </trkpt>
      <trkpt lat="43.1937470" lon="-1.0242010">
        <ele>372.9</ele>
        <time>2020-07-26T08:37:23Z</time>
      </trkpt>
      <trkpt lat="43.1938200" lon="-1.0242790">
        <ele>373.7</ele>
        <time>2020-07-26T08:37:26Z</time>
      </trkpt>
      <trkpt lat="43.1938830" lon="-1.0243560">
        <ele>374.4</ele>
        <time>2020-07-26T08:37:29Z</time>
      </trkpt>
      <trkpt lat="43.1939190" lon="-1.0243960">
        <ele>374.7</ele>
        <time>2020-07-26T08:37:31Z</time>
      </trkpt>
      <trkpt lat="43.1939750" lon="-1.0244550">
        <ele>375.3</ele>
        <time>2020-07-26T08:37:34Z</time>
      </trkpt>
      <trkpt lat="43.1939930" lon="-1.0244710">
        <ele>375.5</ele>
        <time>2020-07-26T08:37:35Z</time>
      </trkpt>
      <trkpt lat="43.1940860" lon="-1.0245130">
        <ele>376.2</ele>
        <time>2020-07-26T08:37:39Z</time>
      </trkpt>
      <trkpt lat="43.1941980" lon="-1.0245790">
        <ele>377.1</ele>
        <time>2020-07-26T08:37:44Z</time>
      </trkpt>
      <trkpt lat="43.1942300" lon="-1.0245890">
        <ele>377.3</ele>
        <time>2020-07-26T08:37:45Z</time>
      </trkpt>
      <trkpt lat="43.1943340" lon="-1.0245960">
        <ele>378.0</ele>
        <time>2020-07-26T08:37:49Z</time>
      </trkpt>
      <trkpt lat="43.1944560" lon="-1.0246060">
        <ele>378.7</ele>
        <time>2020-07-26T08:37:53Z</time>
      </trkpt>
      <trkpt lat="43.1945140" lon="-1.0245940">
        <ele>379.1</ele>
        <time>2020-07-26T08:37:55Z</time>
      </trkpt>
      <trkpt lat="43.1946570" lon="-1.0245680">
        <ele>380.0</ele>
        <time>2020-07-26T08:37:59Z</time>
      </trkpt>
      <trkpt lat="43.1947320" lon="-1.0245690">
        <ele>380.5</ele>
        <time>2020-07-26T08:38:01Z</time>
      </trkpt>
      <trkpt lat="43.1948620" lon="-1.0245570">
        <ele>381.4</ele>
        <time>2020-07-26T08:38:05Z</time>
      </trkpt>
      <trkpt lat="43.1949300" lon="-1.0245500">
        <ele>381.9</ele>
        <time>2020-07-26T08:38:07Z</time>
      </trkpt>
      <trkpt lat="43.1950230" lon="-1.0245490">
        <ele>382.5</ele>
        <time>2020-07-26T08:38:10Z</time>
      </trkpt>
      <trkpt lat="43.1951540" lon="-1.0245380">
        <ele>383.5</ele>
        <time>2020-07-26T08:38:14Z</time>
      </trkpt>
      <trkpt lat="43.1951850" lon="-1.0245390">
        <ele>383.7</ele>
        <time>2020-07-26T08:38:15Z</time>
      </trkpt>
      <trkpt lat="43.1953100" lon="-1.0245260">
        <ele>384.6</ele>
        <time>2020-07-26T08:38:19Z</time>
      </trkpt>
      <trkpt lat="43.1953690" lon="-1.0245240">
        <ele>385.1</ele>
        <time>2020-07-26T08:38:21Z</time>
      </trkpt>
      <trkpt lat="43.1954540" lon="-1.0245080">
        <ele>385.7</ele>
        <time>2020-07-26T08:38:24Z</time>
      </trkpt>
      <trkpt lat="43.1955190" lon="-1.0244880">
        <ele>386.1</ele>
        <time>2020-07-26T08:38:26Z</time>
      </trkpt>
      <trkpt lat="43.1956500" lon="-1.0244240">
        <ele>387.1</ele>
        <time>2020-07-26T08:38:30Z</time>
      </trkpt>
      <trkpt lat="43.1957070" lon="-1.0243860">
        <ele>387.5</ele>
        <time>2020-07-26T08:38:32Z</time>
      </trkpt>
      <trkpt lat="43.1958170" lon="-1.0243000">
        <ele>388.3</ele>
        <time>2020-07-26T08:38:36Z</time>
      </trkpt>
      <trkpt lat="43.1958780" lon="-1.0242530">
        <ele>388.7</ele>
        <time>2020-07-26T08:38:38Z</time>
      </trkpt>
      <trkpt lat="43.1960190" lon="-1.0241780">
        <ele>389.2</ele>
        <time>2020-07-26T08:38:42Z</time>
      </trkpt>
      <trkpt lat="43.1962320" lon="-1.0240420">
        <ele>389.3</ele>
        <time>2020-07-26T08:38:47Z</time>
      </trkpt>
      <trkpt lat="43.1966070" lon="-1.0237490">
        <ele>388.4</ele>
        <time>2020-07-26T08:38:54Z</time>
      </trkpt>
      <trkpt lat="43.1967500" lon="-1.0235810">
        <ele>388.2</ele>
        <time>2020-07-26T08:38:57Z</time>
      </trkpt>
      <trkpt lat="43.1968230" lon="-1.0234480">
        <ele>388.1</ele>
        <time>2020-07-26T08:38:59Z</time>
      </trkpt>
      <trkpt lat="43.1970190" lon="-1.0229180">
        <ele>387.9</ele>
        <time>2020-07-26T08:39:06Z</time>
      </trkpt>
      <trkpt lat="43.1972210" lon="-1.0222560">
        <ele>389.1</ele>
        <time>2020-07-26T08:39:15Z</time>
      </trkpt>
      <trkpt lat="43.1973890" lon="-1.0217670">
        <ele>390.2</ele>
        <time>2020-07-26T08:39:23Z</time>
      </trkpt>
      <trkpt lat="43.1974400" lon="-1.0216490">
        <ele>390.4</ele>
        <time>2020-07-26T08:39:25Z</time>
      </trkpt>
      <trkpt lat="43.1975970" lon="-1.0213510">
        <ele>390.4</ele>
        <time>2020-07-26T08:39:30Z</time>
      </trkpt>
      <trkpt lat="43.1976800" lon="-1.0212430">
        <ele>390.5</ele>
        <time>2020-07-26T08:39:32Z</time>
      </trkpt>
      <trkpt lat="43.1978290" lon="-1.0210950">
        <ele>391.0</ele>
        <time>2020-07-26T08:39:35Z</time>
      </trkpt>
      <trkpt lat="43.1980060" lon="-1.0209240">
        <ele>392.2</ele>
        <time>2020-07-26T08:39:39Z</time>
      </trkpt>
      <trkpt lat="43.1980720" lon="-1.0208490">
        <ele>392.7</ele>
        <time>2020-07-26T08:39:41Z</time>
      </trkpt>
      <trkpt lat="43.1981860" lon="-1.0207020">
        <ele>394.0</ele>
        <time>2020-07-26T08:39:45Z</time>
      </trkpt>
      <trkpt lat="43.1982150" lon="-1.0206430">
        <ele>394.4</ele>
        <time>2020-07-26T08:39:47Z</time>
      </trkpt>
      <trkpt lat="43.1982330" lon="-1.0206140">
        <ele>394.7</ele>
        <time>2020-07-26T08:39:48Z</time>
      </trkpt>
      <trkpt lat="43.1982920" lon="-1.0205250">
        <ele>395.4</ele>
        <time>2020-07-26T08:39:51Z</time>
      </trkpt>
      <trkpt lat="43.1983710" lon="-1.0203980">
        <ele>396.5</ele>
        <time>2020-07-26T08:39:55Z</time>
      </trkpt>
      <trkpt lat="43.1983920" lon="-1.0203680">
        <ele>396.7</ele>
        <time>2020-07-26T08:39:56Z</time>
      </trkpt>
      <trkpt lat="43.1984880" lon="-1.0202050">
        <ele>397.9</ele>
        <time>2020-07-26T08:40:01Z</time>
      </trkpt>
      <trkpt lat="43.1985080" lon="-1.0201700">
        <ele>398.1</ele>
        <time>2020-07-26T08:40:02Z</time>
      </trkpt>
      <trkpt lat="43.1985830" lon="-1.0200560">
        <ele>399.0</ele>
        <time>2020-07-26T08:40:06Z</time>
      </trkpt>
      <trkpt lat="43.1986460" lon="-1.0199720">
        <ele>399.6</ele>
        <time>2020-07-26T08:40:09Z</time>
      </trkpt>
      <trkpt lat="43.1986680" lon="-1.0199430">
        <ele>399.9</ele>
        <time>2020-07-26T08:40:10Z</time>
      </trkpt>
      <trkpt lat="43.1988230" lon="-1.0197630">
        <ele>401.4</ele>
        <time>2020-07-26T08:40:17Z</time>
      </trkpt>
      <trkpt lat="43.1989540" lon="-1.0196150">
        <ele>402.7</ele>
        <time>2020-07-26T08:40:23Z</time>
      </trkpt>
      <trkpt lat="43.1989770" lon="-1.0195890">
        <ele>402.9</ele>
        <time>2020-07-26T08:40:24Z</time>
      </trkpt>
      <trkpt lat="43.1990480" lon="-1.0195190">
        <ele>403.5</ele>
        <time>2020-07-26T08:40:27Z</time>
      </trkpt>
      <trkpt lat="43.1991370" lon="-1.0194260">
        <ele>404.4</ele>
        <time>2020-07-26T08:40:31Z</time>
      </trkpt>
      <trkpt lat="43.1992200" lon="-1.0193280">
        <ele>405.2</ele>
        <time>2020-07-26T08:40:35Z</time>
      </trkpt>
      <trkpt lat="43.1992740" lon="-1.0192490">
        <ele>405.8</ele>
        <time>2020-07-26T08:40:38Z</time>
      </trkpt>
      <trkpt lat="43.1993760" lon="-1.0191220">
        <ele>406.8</ele>
        <time>2020-07-26T08:40:43Z</time>
      </trkpt>
      <trkpt lat="43.1994360" lon="-1.0190470">
        <ele>407.3</ele>
        <time>2020-07-26T08:40:46Z</time>
      </trkpt>
      <trkpt lat="43.1994860" lon="-1.0189570">
        <ele>407.9</ele>
        <time>2020-07-26T08:40:49Z</time>
      </trkpt>
      <trkpt lat="43.1995630" lon="-1.0188450">
        <ele>408.9</ele>
        <time>2020-07-26T08:40:53Z</time>
      </trkpt>
      <trkpt lat="43.1995980" lon="-1.0187910">
        <ele>409.3</ele>
        <time>2020-07-26T08:40:55Z</time>
      </trkpt>
      <trkpt lat="43.1997040" lon="-1.0186090">
        <ele>410.6</ele>
        <time>2020-07-26T08:41:01Z</time>
      </trkpt>
      <trkpt lat="43.1997230" lon="-1.0185790">
        <ele>410.8</ele>
        <time>2020-07-26T08:41:02Z</time>
      </trkpt>
      <trkpt lat="43.1997990" lon="-1.0184580">
        <ele>411.7</ele>
        <time>2020-07-26T08:41:06Z</time>
      </trkpt>
      <trkpt lat="43.1998090" lon="-1.0184240">
        <ele>411.9</ele>
        <time>2020-07-26T08:41:07Z</time>
      </trkpt>
      <trkpt lat="43.1998220" lon="-1.0183900">
        <ele>412.1</ele>
        <time>2020-07-26T08:41:08Z</time>
      </trkpt>
      <trkpt lat="43.1998570" lon="-1.0183270">
        <ele>412.5</ele>
        <time>2020-07-26T08:41:10Z</time>
      </trkpt>
      <trkpt lat="43.1999590" lon="-1.0181380">
        <ele>413.7</ele>
        <time>2020-07-26T08:41:16Z</time>
      </trkpt>
      <trkpt lat="43.1999730" lon="-1.0181060">
        <ele>413.9</ele>
        <time>2020-07-26T08:41:17Z</time>
      </trkpt>
      <trkpt lat="43.2000470" lon="-1.0179380">
        <ele>415.0</ele>
        <time>2020-07-26T08:41:22Z</time>
      </trkpt>
      <trkpt lat="43.2000760" lon="-1.0178710">
        <ele>415.4</ele>
        <time>2020-07-26T08:41:24Z</time>
      </trkpt>
      <trkpt lat="43.2001210" lon="-1.0177290">
        <ele>416.3</ele>
        <time>2020-07-26T08:41:28Z</time>
      </trkpt>
      <trkpt lat="43.2001610" lon="-1.0176280">
        <ele>417.0</ele>
        <time>2020-07-26T08:41:31Z</time>
      </trkpt>
      <trkpt lat="43.2001950" lon="-1.0175190">
        <ele>417.7</ele>
        <time>2020-07-26T08:41:34Z</time>
      </trkpt>
      <trkpt lat="43.2002190" lon="-1.0174090">
        <ele>418.4</ele>
        <time>2020-07-26T08:41:37Z</time>
      </trkpt>
      <trkpt lat="43.2002400" lon="-1.0172990">
        <ele>419.1</ele>
        <time>2020-07-26T08:41:40Z</time>
      </trkpt>
      <trkpt lat="43.2002650" lon="-1.0171460">
        <ele>419.9</ele>
        <time>2020-07-26T08:41:44Z</time>
      </trkpt>
      <trkpt lat="43.2002760" lon="-1.0170720">
        <ele>420.3</ele>
        <time>2020-07-26T08:41:46Z</time>
      </trkpt>
      <trkpt lat="43.2003280" lon="-1.0168150">
        <ele>421.7</ele>
        <time>2020-07-26T08:41:53Z</time>
      </trkpt>
      <trkpt lat="43.2003340" lon="-1.0167770">
        <ele>421.9</ele>
        <time>2020-07-26T08:41:54Z</time>
      </trkpt>
      <trkpt lat="43.2003640" lon="-1.0166310">
        <ele>422.6</ele>
        <time>2020-07-26T08:41:58Z</time>
      </trkpt>
      <trkpt lat="43.2003840" lon="-1.0165530">
        <ele>423.1</ele>
        <time>2020-07-26T08:42:00Z</time>
      </trkpt>
      <trkpt lat="43.2003950" lon="-1.0165130">
        <ele>423.3</ele>
        <time>2020-07-26T08:42:01Z</time>
      </trkpt>
      <trkpt lat="43.2004320" lon="-1.0163150">
        <ele>424.3</ele>
        <time>2020-07-26T08:42:06Z</time>
      </trkpt>
      <trkpt lat="43.2004410" lon="-1.0162770">
        <ele>424.6</ele>
        <time>2020-07-26T08:42:07Z</time>
      </trkpt>
      <trkpt lat="43.2004820" lon="-1.0160910">
        <ele>425.6</ele>
        <time>2020-07-26T08:42:12Z</time>
      </trkpt>
      <trkpt lat="43.2004890" lon="-1.0160550">
        <ele>425.8</ele>
        <time>2020-07-26T08:42:13Z</time>
      </trkpt>
      <trkpt lat="43.2005480" lon="-1.0158210">
        <ele>427.0</ele>
        <time>2020-07-26T08:42:19Z</time>
      </trkpt>
      <trkpt lat="43.2005590" lon="-1.0157820">
        <ele>427.2</ele>
        <time>2020-07-26T08:42:20Z</time>
      </trkpt>
      <trkpt lat="43.2005850" lon="-1.0157050">
        <ele>427.6</ele>
        <time>2020-07-26T08:42:22Z</time>
      </trkpt>
      <trkpt lat="43.2006640" lon="-1.0154760">
        <ele>428.8</ele>
        <time>2020-07-26T08:42:28Z</time>
      </trkpt>
      <trkpt lat="43.2006750" lon="-1.0154380">
        <ele>429.0</ele>
        <time>2020-07-26T08:42:29Z</time>
      </trkpt>
      <trkpt lat="43.2007450" lon="-1.0152110">
        <ele>429.9</ele>
        <time>2020-07-26T08:42:35Z</time>
      </trkpt>
      <trkpt lat="43.2007560" lon="-1.0151740">
        <ele>430.1</ele>
        <time>2020-07-26T08:42:36Z</time>
      </trkpt>
      <trkpt lat="43.2008150" lon="-1.0149850">
        <ele>431.1</ele>
        <time>2020-07-26T08:42:41Z</time>
      </trkpt>
      <trkpt lat="43.2008460" lon="-1.0148740">
        <ele>431.8</ele>
        <time>2020-07-26T08:42:44Z</time>
      </trkpt>
      <trkpt lat="43.2008710" lon="-1.0147650">
        <ele>432.4</ele>
        <time>2020-07-26T08:42:47Z</time>
      </trkpt>
      <trkpt lat="43.2008830" lon="-1.0146630">
        <ele>433.0</ele>
        <time>2020-07-26T08:42:50Z</time>
      </trkpt>
      <trkpt lat="43.2009050" lon="-1.0145940">
        <ele>433.4</ele>
        <time>2020-07-26T08:42:52Z</time>
      </trkpt>
      <trkpt lat="43.2009420" lon="-1.0144500">
        <ele>434.3</ele>
        <time>2020-07-26T08:42:56Z</time>
      </trkpt>
      <trkpt lat="43.2009560" lon="-1.0144150">
        <ele>434.6</ele>
        <time>2020-07-26T08:42:57Z</time>
      </trkpt>
      <trkpt lat="43.2009920" lon="-1.0142710">
        <ele>435.5</ele>
        <time>2020-07-26T08:43:01Z</time>
      </trkpt>
      <trkpt lat="43.2010000" lon="-1.0142360">
        <ele>435.7</ele>
        <time>2020-07-26T08:43:02Z</time>
      </trkpt>
      <trkpt lat="43.2010520" lon="-1.0140920">
        <ele>436.8</ele>
        <time>2020-07-26T08:43:06Z</time>
      </trkpt>
      <trkpt lat="43.2010860" lon="-1.0139840">
        <ele>437.5</ele>
        <time>2020-07-26T08:43:09Z</time>
      </trkpt>
      <trkpt lat="43.2011230" lon="-1.0138760">
        <ele>438.2</ele>
        <time>2020-07-26T08:43:12Z</time>
      </trkpt>
      <trkpt lat="43.2011640" lon="-1.0137260">
        <ele>439.1</ele>
        <time>2020-07-26T08:43:16Z</time>
      </trkpt>
      <trkpt lat="43.2011930" lon="-1.0136180">
        <ele>439.9</ele>
        <time>2020-07-26T08:43:19Z</time>
      </trkpt>
      <trkpt lat="43.2012010" lon="-1.0135810">
        <ele>440.1</ele>
        <time>2020-07-26T08:43:20Z</time>
      </trkpt>
      <trkpt lat="43.2012240" lon="-1.0134080">
        <ele>441.3</ele>
        <time>2020-07-26T08:43:25Z</time>
      </trkpt>
      <trkpt lat="43.2012330" lon="-1.0133060">
        <ele>442.1</ele>
        <time>2020-07-26T08:43:28Z</time>
      </trkpt>
      <trkpt lat="43.2012470" lon="-1.0131880">
        <ele>442.9</ele>
        <time>2020-07-26T08:43:32Z</time>
      </trkpt>
      <trkpt lat="43.2012450" lon="-1.0130830">
        <ele>443.7</ele>
        <time>2020-07-26T08:43:36Z</time>
      </trkpt>
      <trkpt lat="43.2012330" lon="-1.0129870">
        <ele>444.3</ele>
        <time>2020-07-26T08:43:39Z</time>
      </trkpt>
      <trkpt lat="43.2012330" lon="-1.0129170">
        <ele>444.7</ele>
        <time>2020-07-26T08:43:41Z</time>
      </trkpt>
      <trkpt lat="43.2012200" lon="-1.0126660">
        <ele>446.0</ele>
        <time>2020-07-26T08:43:46Z</time>
      </trkpt>
      <trkpt lat="43.2012200" lon="-1.0126660">
        <ele>446.0</ele>
        <time>2020-07-26T08:43:47Z</time>
      </trkpt>
      <trkpt lat="43.2011910" lon="-1.0123830">
        <ele>447.5</ele>
        <time>2020-07-26T08:43:54Z</time>
      </trkpt>
      <trkpt lat="43.2011890" lon="-1.0122430">
        <ele>448.3</ele>
        <time>2020-07-26T08:43:58Z</time>
      </trkpt>
      <trkpt lat="43.2011880" lon="-1.0121060">
        <ele>449.1</ele>
        <time>2020-07-26T08:44:02Z</time>
      </trkpt>
      <trkpt lat="43.2011880" lon="-1.0120680">
        <ele>449.3</ele>
        <time>2020-07-26T08:44:03Z</time>
      </trkpt>
      <trkpt lat="43.2011730" lon="-1.0118500">
        <ele>450.8</ele>
        <time>2020-07-26T08:44:09Z</time>
      </trkpt>
      <trkpt lat="43.2011300" lon="-1.0116780">
        <ele>452.1</ele>
        <time>2020-07-26T08:44:13Z</time>
      </trkpt>
      <trkpt lat="43.2011250" lon="-1.0116090">
        <ele>452.6</ele>
        <time>2020-07-26T08:44:15Z</time>
      </trkpt>
      <trkpt lat="43.2011190" lon="-1.0115360">
        <ele>453.1</ele>
        <time>2020-07-26T08:44:17Z</time>
      </trkpt>
      <trkpt lat="43.2011250" lon="-1.0114110">
        <ele>453.9</ele>
        <time>2020-07-26T08:44:21Z</time>
      </trkpt>
      <trkpt lat="43.2011240" lon="-1.0113790">
        <ele>454.1</ele>
        <time>2020-07-26T08:44:22Z</time>
      </trkpt>
      <trkpt lat="43.2010680" lon="-1.0112160">
        <ele>455.1</ele>
        <time>2020-07-26T08:44:26Z</time>
      </trkpt>
      <trkpt lat="43.2010550" lon="-1.0111710">
        <ele>455.4</ele>
        <time>2020-07-26T08:44:27Z</time>
      </trkpt>
      <trkpt lat="43.2010160" lon="-1.0110120">
        <ele>456.2</ele>
        <time>2020-07-26T08:44:31Z</time>
      </trkpt>
      <trkpt lat="43.2009890" lon="-1.0108750">
        <ele>457.0</ele>
        <time>2020-07-26T08:44:35Z</time>
      </trkpt>
      <trkpt lat="43.2009750" lon="-1.0107640">
        <ele>457.6</ele>
        <time>2020-07-26T08:44:38Z</time>
      </trkpt>
      <trkpt lat="43.2009650" lon="-1.0106850">
        <ele>458.1</ele>
        <time>2020-07-26T08:44:40Z</time>
      </trkpt>
      <trkpt lat="43.2009240" lon="-1.0104990">
        <ele>459.3</ele>
        <time>2020-07-26T08:44:45Z</time>
      </trkpt>
      <trkpt lat="43.2009040" lon="-1.0103910">
        <ele>460.0</ele>
        <time>2020-07-26T08:44:50Z</time>
      </trkpt>
      <trkpt lat="43.2008990" lon="-1.0103550">
        <ele>460.2</ele>
        <time>2020-07-26T08:44:51Z</time>
      </trkpt>
      <trkpt lat="43.2009030" lon="-1.0102240">
        <ele>461.0</ele>
        <time>2020-07-26T08:44:55Z</time>
      </trkpt>
      <trkpt lat="43.2008990" lon="-1.0101520">
        <ele>461.4</ele>
        <time>2020-07-26T08:44:57Z</time>
      </trkpt>
      <trkpt lat="43.2008930" lon="-1.0100420">
        <ele>462.1</ele>
        <time>2020-07-26T08:45:00Z</time>
      </trkpt>
      <trkpt lat="43.2008520" lon="-1.0098700">
        <ele>463.1</ele>
        <time>2020-07-26T08:45:04Z</time>
      </trkpt>
      <trkpt lat="43.2008330" lon="-1.0097850">
        <ele>463.5</ele>
        <time>2020-07-26T08:45:06Z</time>
      </trkpt>
      <trkpt lat="43.2007910" lon="-1.0096310">
        <ele>464.3</ele>
        <time>2020-07-26T08:45:10Z</time>
      </trkpt>
      <trkpt lat="43.2007540" lon="-1.0095560">
        <ele>464.8</ele>
        <time>2020-07-26T08:45:12Z</time>
      </trkpt>
      <trkpt lat="43.2006610" lon="-1.0093400">
        <ele>466.1</ele>
        <time>2020-07-26T08:45:17Z</time>
      </trkpt>
      <trkpt lat="43.2006420" lon="-1.0093020">
        <ele>466.3</ele>
        <time>2020-07-26T08:45:18Z</time>
      </trkpt>
      <trkpt lat="43.2005270" lon="-1.0091060">
        <ele>467.9</ele>
        <time>2020-07-26T08:45:23Z</time>
      </trkpt>
      <trkpt lat="43.2004650" lon="-1.0090000">
        <ele>468.7</ele>
        <time>2020-07-26T08:45:26Z</time>
      </trkpt>
      <trkpt lat="43.2004420" lon="-1.0089660">
        <ele>468.9</ele>
        <time>2020-07-26T08:45:27Z</time>
      </trkpt>
      <trkpt lat="43.2003250" lon="-1.0088120">
        <ele>470.1</ele>
        <time>2020-07-26T08:45:32Z</time>
      </trkpt>
      <trkpt lat="43.2002820" lon="-1.0087450">
        <ele>470.6</ele>
        <time>2020-07-26T08:45:34Z</time>
      </trkpt>
      <trkpt lat="43.2001500" lon="-1.0085400">
        <ele>472.0</ele>
        <time>2020-07-26T08:45:40Z</time>
      </trkpt>
      <trkpt lat="43.2001280" lon="-1.0085120">
        <ele>472.2</ele>
        <time>2020-07-26T08:45:41Z</time>
      </trkpt>
      <trkpt lat="43.2000440" lon="-1.0083780">
        <ele>473.1</ele>
        <time>2020-07-26T08:45:45Z</time>
      </trkpt>
      <trkpt lat="43.1999570" lon="-1.0081930">
        <ele>474.2</ele>
        <time>2020-07-26T08:45:50Z</time>
      </trkpt>
      <trkpt lat="43.1999430" lon="-1.0081540">
        <ele>474.4</ele>
        <time>2020-07-26T08:45:51Z</time>
      </trkpt>
      <trkpt lat="43.1998850" lon="-1.0079550">
        <ele>475.5</ele>
        <time>2020-07-26T08:45:56Z</time>
      </trkpt>
      <trkpt lat="43.1998600" lon="-1.0078340">
        <ele>476.1</ele>
        <time>2020-07-26T08:45:59Z</time>
      </trkpt>
      <trkpt lat="43.1998520" lon="-1.0077920">
        <ele>476.3</ele>
        <time>2020-07-26T08:46:00Z</time>
      </trkpt>
      <trkpt lat="43.1998210" lon="-1.0075780">
        <ele>477.3</ele>
        <time>2020-07-26T08:46:05Z</time>
      </trkpt>
      <trkpt lat="43.1997860" lon="-1.0073230">
        <ele>478.5</ele>
        <time>2020-07-26T08:46:11Z</time>
      </trkpt>
      <trkpt lat="43.1997810" lon="-1.0072810">
        <ele>478.7</ele>
        <time>2020-07-26T08:46:12Z</time>
      </trkpt>
      <trkpt lat="43.1997540" lon="-1.0070190">
        <ele>479.8</ele>
        <time>2020-07-26T08:46:18Z</time>
      </trkpt>
      <trkpt lat="43.1997460" lon="-1.0068580">
        <ele>480.4</ele>
        <time>2020-07-26T08:46:22Z</time>
      </trkpt>
      <trkpt lat="43.1997510" lon="-1.0067900">
        <ele>480.7</ele>
        <time>2020-07-26T08:46:24Z</time>
      </trkpt>
      <trkpt lat="43.1997360" lon="-1.0066140">
        <ele>481.4</ele>
        <time>2020-07-26T08:46:28Z</time>
      </trkpt>
      <trkpt lat="43.1997330" lon="-1.0065150">
        <ele>481.8</ele>
        <time>2020-07-26T08:46:30Z</time>
      </trkpt>
      <trkpt lat="43.1997270" lon="-1.0061260">
        <ele>483.4</ele>
        <time>2020-07-26T08:46:38Z</time>
      </trkpt>
      <trkpt lat="43.1997350" lon="-1.0059120">
        <ele>484.3</ele>
        <time>2020-07-26T08:46:43Z</time>
      </trkpt>
      <trkpt lat="43.1997450" lon="-1.0057870">
        <ele>484.8</ele>
        <time>2020-07-26T08:46:46Z</time>
      </trkpt>
      <trkpt lat="43.1997480" lon="-1.0056940">
        <ele>485.1</ele>
        <time>2020-07-26T08:46:48Z</time>
      </trkpt>
      <trkpt lat="43.1997230" lon="-1.0054410">
        <ele>486.0</ele>
        <time>2020-07-26T08:46:53Z</time>
      </trkpt>
      <trkpt lat="43.1996990" lon="-1.0052890">
        <ele>486.5</ele>
        <time>2020-07-26T08:46:56Z</time>
      </trkpt>
      <trkpt lat="43.1996540" lon="-1.0049840">
        <ele>487.5</ele>
        <time>2020-07-26T08:47:02Z</time>
      </trkpt>
      <trkpt lat="43.1996470" lon="-1.0049360">
        <ele>487.7</ele>
        <time>2020-07-26T08:47:03Z</time>
      </trkpt>
      <trkpt lat="43.1996230" lon="-1.0046810">
        <ele>488.5</ele>
        <time>2020-07-26T08:47:09Z</time>
      </trkpt>
      <trkpt lat="43.1996180" lon="-1.0046390">
        <ele>488.6</ele>
        <time>2020-07-26T08:47:10Z</time>
      </trkpt>
      <trkpt lat="43.1996020" lon="-1.0045140">
        <ele>489.0</ele>
        <time>2020-07-26T08:47:13Z</time>
      </trkpt>
      <trkpt lat="43.1995850" lon="-1.0043940">
        <ele>489.4</ele>
        <time>2020-07-26T08:47:16Z</time>
      </trkpt>
      <trkpt lat="43.1995400" lon="-1.0041640">
        <ele>490.2</ele>
        <time>2020-07-26T08:47:21Z</time>
      </trkpt>
      <trkpt lat="43.1995310" lon="-1.0040210">
        <ele>490.7</ele>
        <time>2020-07-26T08:47:24Z</time>
      </trkpt>
      <trkpt lat="43.1995190" lon="-1.0037600">
        <ele>491.3</ele>
        <time>2020-07-26T08:47:29Z</time>
      </trkpt>
      <trkpt lat="43.1995200" lon="-1.0037070">
        <ele>491.4</ele>
        <time>2020-07-26T08:47:30Z</time>
      </trkpt>
      <trkpt lat="43.1994980" lon="-1.0033620">
        <ele>491.8</ele>
        <time>2020-07-26T08:48:08Z</time>
      </trkpt>
      <trkpt lat="43.1995480" lon="-1.0031580">
        <ele>491.8</ele>
        <time>2020-07-26T08:48:12Z</time>
      </trkpt>
      <trkpt lat="43.1997380" lon="-1.0026910">
        <ele>492.2</ele>
        <time>2020-07-26T08:48:19Z</time>
      </trkpt>
      <trkpt lat="43.1998020" lon="-1.0024720">
        <ele>492.3</ele>
        <time>2020-07-26T08:48:22Z</time>
      </trkpt>
      <trkpt lat="43.1998200" lon="-1.0023180">
        <ele>492.5</ele>
        <time>2020-07-26T08:48:24Z</time>
      </trkpt>
      <trkpt lat="43.1998210" lon="-1.0021710">
        <ele>492.8</ele>
        <time>2020-07-26T08:48:26Z</time>
      </trkpt>
      <trkpt lat="43.1997930" lon="-1.0019120">
        <ele>493.6</ele>
        <time>2020-07-26T08:48:30Z</time>
      </trkpt>
      <trkpt lat="43.1997720" lon="-1.0018050">
        <ele>493.9</ele>
        <time>2020-07-26T08:48:32Z</time>
      </trkpt>
      <trkpt lat="43.1997620" lon="-1.0016770">
        <ele>494.4</ele>
        <time>2020-07-26T08:48:35Z</time>
      </trkpt>
      <trkpt lat="43.1997680" lon="-1.0015160">
        <ele>495.0</ele>
        <time>2020-07-26T08:48:39Z</time>
      </trkpt>
      <trkpt lat="43.1997630" lon="-1.0013640">
        <ele>495.5</ele>
        <time>2020-07-26T08:48:42Z</time>
      </trkpt>
      <trkpt lat="43.1997850" lon="-1.0010710">
        <ele>496.2</ele>
        <time>2020-07-26T08:48:47Z</time>
      </trkpt>
      <trkpt lat="43.1997950" lon="-1.0010080">
        <ele>496.3</ele>
        <time>2020-07-26T08:48:48Z</time>
      </trkpt>
      <trkpt lat="43.1998070" lon="-1.0009460">
        <ele>496.4</ele>
        <time>2020-07-26T08:48:49Z</time>
      </trkpt>
      <trkpt lat="43.1999460" lon="-1.0005660">
        <ele>497.1</ele>
        <time>2020-07-26T08:48:55Z</time>
      </trkpt>
      <trkpt lat="43.2000620" lon="-1.0004400">
        <ele>497.3</ele>
        <time>2020-07-26T08:48:58Z</time>
      </trkpt>
      <trkpt lat="43.2001530" lon="-1.0003920">
        <ele>497.4</ele>
        <time>2020-07-26T08:49:00Z</time>
      </trkpt>
      <trkpt lat="43.2002040" lon="-1.0003730">
        <ele>497.4</ele>
        <time>2020-07-26T08:49:01Z</time>
      </trkpt>
      <trkpt lat="43.2003660" lon="-1.0003410">
        <ele>497.2</ele>
        <time>2020-07-26T08:49:04Z</time>
      </trkpt>
      <trkpt lat="43.2004230" lon="-1.0003370">
        <ele>497.1</ele>
        <time>2020-07-26T08:49:05Z</time>
      </trkpt>
      <trkpt lat="43.2005410" lon="-1.0003360">
        <ele>496.8</ele>
        <time>2020-07-26T08:49:07Z</time>
      </trkpt>
      <trkpt lat="43.2008000" lon="-1.0003500">
        <ele>496.4</ele>
        <time>2020-07-26T08:49:11Z</time>
      </trkpt>
      <trkpt lat="43.2012520" lon="-1.0004100">
        <ele>495.2</ele>
        <time>2020-07-26T08:49:17Z</time>
      </trkpt>
      <trkpt lat="43.2016660" lon="-1.0005030">
        <ele>494.2</ele>
        <time>2020-07-26T08:49:22Z</time>
      </trkpt>
      <trkpt lat="43.2018490" lon="-1.0005190">
        <ele>493.8</ele>
        <time>2020-07-26T08:49:24Z</time>
      </trkpt>
      <trkpt lat="43.2021180" lon="-1.0005230">
        <ele>492.6</ele>
        <time>2020-07-26T08:49:27Z</time>
      </trkpt>
      <trkpt lat="43.2022950" lon="-1.0004780">
        <ele>491.6</ele>
        <time>2020-07-26T08:49:29Z</time>
      </trkpt>
      <trkpt lat="43.2024760" lon="-1.0003730">
        <ele>490.4</ele>
        <time>2020-07-26T08:49:31Z</time>
      </trkpt>
      <trkpt lat="43.2026410" lon="-1.0002140">
        <ele>489.2</ele>
        <time>2020-07-26T08:49:33Z</time>
      </trkpt>
      <trkpt lat="43.2027890" lon="-0.9999960">
        <ele>487.9</ele>
        <time>2020-07-26T08:49:35Z</time>
      </trkpt>
      <trkpt lat="43.2028560" lon="-0.9998730">
        <ele>487.3</ele>
        <time>2020-07-26T08:49:36Z</time>
      </trkpt>
      <trkpt lat="43.2029230" lon="-0.9997470">
        <ele>486.8</ele>
        <time>2020-07-26T08:49:37Z</time>
      </trkpt>
      <trkpt lat="43.2029870" lon="-0.9996190">
        <ele>486.3</ele>
        <time>2020-07-26T08:49:38Z</time>
      </trkpt>
      <trkpt lat="43.2031140" lon="-0.9993610">
        <ele>485.2</ele>
        <time>2020-07-26T08:49:40Z</time>
      </trkpt>
      <trkpt lat="43.2031780" lon="-0.9992290">
        <ele>484.8</ele>
        <time>2020-07-26T08:49:41Z</time>
      </trkpt>
      <trkpt lat="43.2033710" lon="-0.9988420">
        <ele>483.6</ele>
        <time>2020-07-26T08:49:44Z</time>
      </trkpt>
      <trkpt lat="43.2034480" lon="-0.9987280">
        <ele>483.4</ele>
        <time>2020-07-26T08:49:45Z</time>
      </trkpt>
      <trkpt lat="43.2036280" lon="-0.9985410">
        <ele>482.9</ele>
        <time>2020-07-26T08:49:47Z</time>
      </trkpt>
      <trkpt lat="43.2037280" lon="-0.9984730">
        <ele>482.6</ele>
        <time>2020-07-26T08:49:48Z</time>
      </trkpt>
      <trkpt lat="43.2039410" lon="-0.9983670">
        <ele>481.9</ele>
        <time>2020-07-26T08:49:50Z</time>
      </trkpt>
      <trkpt lat="43.2040440" lon="-0.9983080">
        <ele>481.5</ele>
        <time>2020-07-26T08:49:51Z</time>
      </trkpt>
      <trkpt lat="43.2041450" lon="-0.9982350">
        <ele>481.2</ele>
        <time>2020-07-26T08:49:52Z</time>
      </trkpt>
      <trkpt lat="43.2044020" lon="-0.9979290">
        <ele>480.1</ele>
        <time>2020-07-26T08:49:55Z</time>
      </trkpt>
      <trkpt lat="43.2045370" lon="-0.9976830">
        <ele>479.4</ele>
        <time>2020-07-26T08:49:57Z</time>
      </trkpt>
      <trkpt lat="43.2047390" lon="-0.9973130">
        <ele>478.3</ele>
        <time>2020-07-26T08:50:00Z</time>
      </trkpt>
      <trkpt lat="43.2048100" lon="-0.9972010">
        <ele>477.9</ele>
        <time>2020-07-26T08:50:01Z</time>
      </trkpt>
      <trkpt lat="43.2048930" lon="-0.9971070">
        <ele>477.3</ele>
        <time>2020-07-26T08:50:02Z</time>
      </trkpt>
      <trkpt lat="43.2049830" lon="-0.9970340">
        <ele>476.6</ele>
        <time>2020-07-26T08:50:03Z</time>
      </trkpt>
      <trkpt lat="43.2053010" lon="-0.9969020">
        <ele>474.1</ele>
        <time>2020-07-26T08:50:06Z</time>
      </trkpt>
      <trkpt lat="43.2056490" lon="-0.9967930">
        <ele>471.5</ele>
        <time>2020-07-26T08:50:09Z</time>
      </trkpt>
      <trkpt lat="43.2059930" lon="-0.9966420">
        <ele>468.9</ele>
        <time>2020-07-26T08:50:12Z</time>
      </trkpt>
      <trkpt lat="43.2060910" lon="-0.9965640">
        <ele>468.1</ele>
        <time>2020-07-26T08:50:13Z</time>
      </trkpt>
      <trkpt lat="43.2061760" lon="-0.9964590">
        <ele>467.2</ele>
        <time>2020-07-26T08:50:14Z</time>
      </trkpt>
      <trkpt lat="43.2062450" lon="-0.9963330">
        <ele>466.4</ele>
        <time>2020-07-26T08:50:15Z</time>
      </trkpt>
      <trkpt lat="43.2063000" lon="-0.9961940">
        <ele>465.7</ele>
        <time>2020-07-26T08:50:16Z</time>
      </trkpt>
      <trkpt lat="43.2063470" lon="-0.9960470">
        <ele>464.9</ele>
        <time>2020-07-26T08:50:17Z</time>
      </trkpt>
      <trkpt lat="43.2063860" lon="-0.9958940">
        <ele>464.2</ele>
        <time>2020-07-26T08:50:18Z</time>
      </trkpt>
      <trkpt lat="43.2064200" lon="-0.9957370">
        <ele>463.3</ele>
        <time>2020-07-26T08:50:19Z</time>
      </trkpt>
      <trkpt lat="43.2064490" lon="-0.9955780">
        <ele>462.4</ele>
        <time>2020-07-26T08:50:20Z</time>
      </trkpt>
      <trkpt lat="43.2065020" lon="-0.9952510">
        <ele>460.3</ele>
        <time>2020-07-26T08:50:22Z</time>
      </trkpt>
      <trkpt lat="43.2065360" lon="-0.9950850">
        <ele>459.2</ele>
        <time>2020-07-26T08:50:23Z</time>
      </trkpt>
      <trkpt lat="43.2065840" lon="-0.9949240">
        <ele>458.2</ele>
        <time>2020-07-26T08:50:24Z</time>
      </trkpt>
      <trkpt lat="43.2067220" lon="-0.9946170">
        <ele>456.3</ele>
        <time>2020-07-26T08:50:26Z</time>
      </trkpt>
      <trkpt lat="43.2068940" lon="-0.9943350">
        <ele>454.3</ele>
        <time>2020-07-26T08:50:28Z</time>
      </trkpt>
      <trkpt lat="43.2070470" lon="-0.9940280">
        <ele>452.1</ele>
        <time>2020-07-26T08:50:30Z</time>
      </trkpt>
      <trkpt lat="43.2071470" lon="-0.9936720">
        <ele>449.8</ele>
        <time>2020-07-26T08:50:32Z</time>
      </trkpt>
      <trkpt lat="43.2071700" lon="-0.9934820">
        <ele>448.7</ele>
        <time>2020-07-26T08:50:33Z</time>
      </trkpt>
      <trkpt lat="43.2071740" lon="-0.9932860">
        <ele>447.5</ele>
        <time>2020-07-26T08:50:34Z</time>
      </trkpt>
      <trkpt lat="43.2071540" lon="-0.9930890">
        <ele>446.5</ele>
        <time>2020-07-26T08:50:35Z</time>
      </trkpt>
      <trkpt lat="43.2071230" lon="-0.9928950">
        <ele>445.3</ele>
        <time>2020-07-26T08:50:36Z</time>
      </trkpt>
      <trkpt lat="43.2070830" lon="-0.9927100">
        <ele>444.1</ele>
        <time>2020-07-26T08:50:37Z</time>
      </trkpt>
      <trkpt lat="43.2070020" lon="-0.9923400">
        <ele>441.7</ele>
        <time>2020-07-26T08:50:39Z</time>
      </trkpt>
      <trkpt lat="43.2069880" lon="-0.9921540">
        <ele>440.6</ele>
        <time>2020-07-26T08:50:40Z</time>
      </trkpt>
      <trkpt lat="43.2069910" lon="-0.9919670">
        <ele>439.5</ele>
        <time>2020-07-26T08:50:41Z</time>
      </trkpt>
      <trkpt lat="43.2070090" lon="-0.9917800">
        <ele>438.6</ele>
        <time>2020-07-26T08:50:42Z</time>
      </trkpt>
      <trkpt lat="43.2070460" lon="-0.9916010">
        <ele>437.7</ele>
        <time>2020-07-26T08:50:43Z</time>
      </trkpt>
      <trkpt lat="43.2070980" lon="-0.9914290">
        <ele>437.0</ele>
        <time>2020-07-26T08:50:44Z</time>
      </trkpt>
      <trkpt lat="43.2071630" lon="-0.9912670">
        <ele>436.3</ele>
        <time>2020-07-26T08:50:45Z</time>
      </trkpt>
      <trkpt lat="43.2072400" lon="-0.9911180">
        <ele>435.6</ele>
        <time>2020-07-26T08:50:46Z</time>
      </trkpt>
      <trkpt lat="43.2073260" lon="-0.9909800">
        <ele>434.9</ele>
        <time>2020-07-26T08:50:47Z</time>
      </trkpt>
      <trkpt lat="43.2074910" lon="-0.9907100">
        <ele>433.2</ele>
        <time>2020-07-26T08:50:49Z</time>
      </trkpt>
      <trkpt lat="43.2076460" lon="-0.9904250">
        <ele>431.7</ele>
        <time>2020-07-26T08:50:51Z</time>
      </trkpt>
      <trkpt lat="43.2077800" lon="-0.9901160">
        <ele>430.9</ele>
        <time>2020-07-26T08:50:53Z</time>
      </trkpt>
      <trkpt lat="43.2078610" lon="-0.9897890">
        <ele>430.5</ele>
        <time>2020-07-26T08:50:55Z</time>
      </trkpt>
      <trkpt lat="43.2078760" lon="-0.9896260">
        <ele>430.4</ele>
        <time>2020-07-26T08:50:56Z</time>
      </trkpt>
      <trkpt lat="43.2078840" lon="-0.9894630">
        <ele>430.2</ele>
        <time>2020-07-26T08:50:57Z</time>
      </trkpt>
      <trkpt lat="43.2078870" lon="-0.9891460">
        <ele>429.9</ele>
        <time>2020-07-26T08:50:59Z</time>
      </trkpt>
      <trkpt lat="43.2078810" lon="-0.9889910">
        <ele>429.7</ele>
        <time>2020-07-26T08:51:00Z</time>
      </trkpt>
      <trkpt lat="43.2078550" lon="-0.9886890">
        <ele>429.5</ele>
        <time>2020-07-26T08:51:02Z</time>
      </trkpt>
      <trkpt lat="43.2078370" lon="-0.9885420">
        <ele>429.3</ele>
        <time>2020-07-26T08:51:03Z</time>
      </trkpt>
      <trkpt lat="43.2077020" lon="-0.9876830">
        <ele>427.9</ele>
        <time>2020-07-26T08:51:09Z</time>
      </trkpt>
      <trkpt lat="43.2076840" lon="-0.9875420">
        <ele>427.6</ele>
        <time>2020-07-26T08:51:10Z</time>
      </trkpt>
      <trkpt lat="43.2076070" lon="-0.9866720">
        <ele>425.5</ele>
        <time>2020-07-26T08:51:16Z</time>
      </trkpt>
      <trkpt lat="43.2076030" lon="-0.9865230">
        <ele>425.1</ele>
        <time>2020-07-26T08:51:17Z</time>
      </trkpt>
      <trkpt lat="43.2076310" lon="-0.9860780">
        <ele>424.0</ele>
        <time>2020-07-26T08:51:20Z</time>
      </trkpt>
      <trkpt lat="43.2076490" lon="-0.9859310">
        <ele>423.6</ele>
        <time>2020-07-26T08:51:21Z</time>
      </trkpt>
      <trkpt lat="43.2077070" lon="-0.9856420">
        <ele>422.6</ele>
        <time>2020-07-26T08:51:23Z</time>
      </trkpt>
      <trkpt lat="43.2078010" lon="-0.9853660">
        <ele>421.6</ele>
        <time>2020-07-26T08:51:25Z</time>
      </trkpt>
      <trkpt lat="43.2078590" lon="-0.9852350">
        <ele>421.0</ele>
        <time>2020-07-26T08:51:26Z</time>
      </trkpt>
      <trkpt lat="43.2079920" lon="-0.9849850">
        <ele>419.7</ele>
        <time>2020-07-26T08:51:28Z</time>
      </trkpt>
      <trkpt lat="43.2080620" lon="-0.9848610">
        <ele>419.0</ele>
        <time>2020-07-26T08:51:29Z</time>
      </trkpt>
      <trkpt lat="43.2081370" lon="-0.9847420">
        <ele>418.4</ele>
        <time>2020-07-26T08:51:30Z</time>
      </trkpt>
      <trkpt lat="43.2083190" lon="-0.9845540">
        <ele>417.0</ele>
        <time>2020-07-26T08:51:32Z</time>
      </trkpt>
      <trkpt lat="43.2085360" lon="-0.9844420">
        <ele>415.4</ele>
        <time>2020-07-26T08:51:34Z</time>
      </trkpt>
      <trkpt lat="43.2086490" lon="-0.9843980">
        <ele>414.7</ele>
        <time>2020-07-26T08:51:35Z</time>
      </trkpt>
      <trkpt lat="43.2087610" lon="-0.9843450">
        <ele>413.9</ele>
        <time>2020-07-26T08:51:36Z</time>
      </trkpt>
      <trkpt lat="43.2088660" lon="-0.9842700">
        <ele>413.3</ele>
        <time>2020-07-26T08:51:37Z</time>
      </trkpt>
      <trkpt lat="43.2089540" lon="-0.9841640">
        <ele>412.6</ele>
        <time>2020-07-26T08:51:38Z</time>
      </trkpt>
      <trkpt lat="43.2090210" lon="-0.9840310">
        <ele>411.9</ele>
        <time>2020-07-26T08:51:39Z</time>
      </trkpt>
      <trkpt lat="43.2090660" lon="-0.9838820">
        <ele>411.1</ele>
        <time>2020-07-26T08:51:40Z</time>
      </trkpt>
      <trkpt lat="43.2091000" lon="-0.9835620">
        <ele>409.4</ele>
        <time>2020-07-26T08:51:42Z</time>
      </trkpt>
      <trkpt lat="43.2091160" lon="-0.9833980">
        <ele>408.5</ele>
        <time>2020-07-26T08:51:43Z</time>
      </trkpt>
      <trkpt lat="43.2091440" lon="-0.9832400">
        <ele>407.6</ele>
        <time>2020-07-26T08:51:44Z</time>
      </trkpt>
      <trkpt lat="43.2091950" lon="-0.9830930">
        <ele>406.6</ele>
        <time>2020-07-26T08:51:45Z</time>
      </trkpt>
      <trkpt lat="43.2092720" lon="-0.9829680">
        <ele>405.6</ele>
        <time>2020-07-26T08:51:46Z</time>
      </trkpt>
      <trkpt lat="43.2093680" lon="-0.9828640">
        <ele>404.5</ele>
        <time>2020-07-26T08:51:47Z</time>
      </trkpt>
      <trkpt lat="43.2094680" lon="-0.9827660">
        <ele>403.6</ele>
        <time>2020-07-26T08:51:48Z</time>
      </trkpt>
      <trkpt lat="43.2095590" lon="-0.9826540">
        <ele>402.3</ele>
        <time>2020-07-26T08:51:49Z</time>
      </trkpt>
      <trkpt lat="43.2096340" lon="-0.9825210">
        <ele>400.7</ele>
        <time>2020-07-26T08:51:50Z</time>
      </trkpt>
      <trkpt lat="43.2096920" lon="-0.9821950">
        <ele>398.0</ele>
        <time>2020-07-26T08:51:52Z</time>
      </trkpt>
      <trkpt lat="43.2096330" lon="-0.9818650">
        <ele>395.8</ele>
        <time>2020-07-26T08:51:54Z</time>
      </trkpt>
      <trkpt lat="43.2095900" lon="-0.9817000">
        <ele>394.6</ele>
        <time>2020-07-26T08:51:55Z</time>
      </trkpt>
      <trkpt lat="43.2095550" lon="-0.9815310">
        <ele>393.6</ele>
        <time>2020-07-26T08:51:56Z</time>
      </trkpt>
      <trkpt lat="43.2095330" lon="-0.9813550">
        <ele>392.5</ele>
        <time>2020-07-26T08:51:57Z</time>
      </trkpt>
      <trkpt lat="43.2095250" lon="-0.9811780">
        <ele>391.3</ele>
        <time>2020-07-26T08:51:58Z</time>
      </trkpt>
      <trkpt lat="43.2095290" lon="-0.9809920">
        <ele>390.1</ele>
        <time>2020-07-26T08:51:59Z</time>
      </trkpt>
      <trkpt lat="43.2095390" lon="-0.9808060">
        <ele>388.9</ele>
        <time>2020-07-26T08:52:00Z</time>
      </trkpt>
      <trkpt lat="43.2095440" lon="-0.9806180">
        <ele>387.8</ele>
        <time>2020-07-26T08:52:01Z</time>
      </trkpt>
      <trkpt lat="43.2095330" lon="-0.9804320">
        <ele>386.7</ele>
        <time>2020-07-26T08:52:02Z</time>
      </trkpt>
      <trkpt lat="43.2095030" lon="-0.9802530">
        <ele>385.7</ele>
        <time>2020-07-26T08:52:03Z</time>
      </trkpt>
      <trkpt lat="43.2094540" lon="-0.9800800">
        <ele>384.8</ele>
        <time>2020-07-26T08:52:04Z</time>
      </trkpt>
      <trkpt lat="43.2093930" lon="-0.9799070">
        <ele>384.0</ele>
        <time>2020-07-26T08:52:05Z</time>
      </trkpt>
      <trkpt lat="43.2093290" lon="-0.9797400">
        <ele>383.4</ele>
        <time>2020-07-26T08:52:06Z</time>
      </trkpt>
      <trkpt lat="43.2092660" lon="-0.9795800">
        <ele>382.8</ele>
        <time>2020-07-26T08:52:07Z</time>
      </trkpt>
      <trkpt lat="43.2092090" lon="-0.9794280">
        <ele>382.2</ele>
        <time>2020-07-26T08:52:08Z</time>
      </trkpt>
      <trkpt lat="43.2091530" lon="-0.9792760">
        <ele>381.5</ele>
        <time>2020-07-26T08:52:09Z</time>
      </trkpt>
      <trkpt lat="43.2090940" lon="-0.9791220">
        <ele>380.7</ele>
        <time>2020-07-26T08:52:10Z</time>
      </trkpt>
      <trkpt lat="43.2090310" lon="-0.9789740">
        <ele>379.8</ele>
        <time>2020-07-26T08:52:11Z</time>
      </trkpt>
      <trkpt lat="43.2088050" lon="-0.9785390">
        <ele>376.8</ele>
        <time>2020-07-26T08:52:14Z</time>
      </trkpt>
      <trkpt lat="43.2086300" lon="-0.9782650">
        <ele>374.9</ele>
        <time>2020-07-26T08:52:16Z</time>
      </trkpt>
      <trkpt lat="43.2084650" lon="-0.9779780">
        <ele>372.9</ele>
        <time>2020-07-26T08:52:18Z</time>
      </trkpt>
      <trkpt lat="43.2083920" lon="-0.9778230">
        <ele>371.9</ele>
        <time>2020-07-26T08:52:19Z</time>
      </trkpt>
      <trkpt lat="43.2083250" lon="-0.9776590">
        <ele>370.9</ele>
        <time>2020-07-26T08:52:20Z</time>
      </trkpt>
      <trkpt lat="43.2082680" lon="-0.9774870">
        <ele>369.9</ele>
        <time>2020-07-26T08:52:21Z</time>
      </trkpt>
      <trkpt lat="43.2082230" lon="-0.9773100">
        <ele>368.9</ele>
        <time>2020-07-26T08:52:22Z</time>
      </trkpt>
      <trkpt lat="43.2081880" lon="-0.9771270">
        <ele>368.0</ele>
        <time>2020-07-26T08:52:23Z</time>
      </trkpt>
      <trkpt lat="43.2081400" lon="-0.9767610">
        <ele>366.3</ele>
        <time>2020-07-26T08:52:25Z</time>
      </trkpt>
      <trkpt lat="43.2081300" lon="-0.9765810">
        <ele>365.7</ele>
        <time>2020-07-26T08:52:26Z</time>
      </trkpt>
      <trkpt lat="43.2081320" lon="-0.9764040">
        <ele>365.0</ele>
        <time>2020-07-26T08:52:27Z</time>
      </trkpt>
      <trkpt lat="43.2081520" lon="-0.9762320">
        <ele>364.1</ele>
        <time>2020-07-26T08:52:28Z</time>
      </trkpt>
      <trkpt lat="43.2082070" lon="-0.9760760">
        <ele>363.1</ele>
        <time>2020-07-26T08:52:29Z</time>
      </trkpt>
      <trkpt lat="43.2083730" lon="-0.9758120">
        <ele>360.9</ele>
        <time>2020-07-26T08:52:31Z</time>
      </trkpt>
      <trkpt lat="43.2085810" lon="-0.9755920">
        <ele>358.8</ele>
        <time>2020-07-26T08:52:33Z</time>
      </trkpt>
      <trkpt lat="43.2086940" lon="-0.9754990">
        <ele>358.0</ele>
        <time>2020-07-26T08:52:34Z</time>
      </trkpt>
      <trkpt lat="43.2088100" lon="-0.9754170">
        <ele>357.2</ele>
        <time>2020-07-26T08:52:35Z</time>
      </trkpt>
      <trkpt lat="43.2089200" lon="-0.9753400">
        <ele>356.8</ele>
        <time>2020-07-26T08:52:36Z</time>
      </trkpt>
      <trkpt lat="43.2090210" lon="-0.9752540">
        <ele>356.4</ele>
        <time>2020-07-26T08:52:37Z</time>
      </trkpt>
      <trkpt lat="43.2091070" lon="-0.9751530">
        <ele>356.1</ele>
        <time>2020-07-26T08:52:38Z</time>
      </trkpt>
      <trkpt lat="43.2091730" lon="-0.9750380">
        <ele>355.5</ele>
        <time>2020-07-26T08:52:39Z</time>
      </trkpt>
      <trkpt lat="43.2092060" lon="-0.9749050">
        <ele>354.7</ele>
        <time>2020-07-26T08:52:40Z</time>
      </trkpt>
      <trkpt lat="43.2092050" lon="-0.9747640">
        <ele>353.6</ele>
        <time>2020-07-26T08:52:41Z</time>
      </trkpt>
      <trkpt lat="43.2091670" lon="-0.9746280">
        <ele>352.4</ele>
        <time>2020-07-26T08:52:42Z</time>
      </trkpt>
      <trkpt lat="43.2091020" lon="-0.9745100">
        <ele>351.0</ele>
        <time>2020-07-26T08:52:43Z</time>
      </trkpt>
      <trkpt lat="43.2090060" lon="-0.9744170">
        <ele>349.6</ele>
        <time>2020-07-26T08:52:44Z</time>
      </trkpt>
      <trkpt lat="43.2087930" lon="-0.9742630">
        <ele>347.2</ele>
        <time>2020-07-26T08:52:46Z</time>
      </trkpt>
      <trkpt lat="43.2086800" lon="-0.9741980">
        <ele>346.1</ele>
        <time>2020-07-26T08:52:47Z</time>
      </trkpt>
      <trkpt lat="43.2085620" lon="-0.9741350">
        <ele>345.1</ele>
        <time>2020-07-26T08:52:48Z</time>
      </trkpt>
      <trkpt lat="43.2083240" lon="-0.9740310">
        <ele>343.0</ele>
        <time>2020-07-26T08:52:50Z</time>
      </trkpt>
      <trkpt lat="43.2080680" lon="-0.9739430">
        <ele>340.5</ele>
        <time>2020-07-26T08:52:52Z</time>
      </trkpt>
      <trkpt lat="43.2078030" lon="-0.9738740">
        <ele>338.2</ele>
        <time>2020-07-26T08:52:54Z</time>
      </trkpt>
      <trkpt lat="43.2076690" lon="-0.9738550">
        <ele>337.3</ele>
        <time>2020-07-26T08:52:55Z</time>
      </trkpt>
      <trkpt lat="43.2075320" lon="-0.9738480">
        <ele>336.6</ele>
        <time>2020-07-26T08:52:56Z</time>
      </trkpt>
      <trkpt lat="43.2073930" lon="-0.9738520">
        <ele>335.5</ele>
        <time>2020-07-26T08:52:57Z</time>
      </trkpt>
      <trkpt lat="43.2072540" lon="-0.9738620">
        <ele>333.7</ele>
        <time>2020-07-26T08:52:58Z</time>
      </trkpt>
      <trkpt lat="43.2071140" lon="-0.9738790">
        <ele>332.1</ele>
        <time>2020-07-26T08:52:59Z</time>
      </trkpt>
      <trkpt lat="43.2069720" lon="-0.9738960">
        <ele>330.8</ele>
        <time>2020-07-26T08:53:00Z</time>
      </trkpt>
      <trkpt lat="43.2068290" lon="-0.9739090">
        <ele>329.5</ele>
        <time>2020-07-26T08:53:01Z</time>
      </trkpt>
      <trkpt lat="43.2066890" lon="-0.9739070">
        <ele>328.3</ele>
        <time>2020-07-26T08:53:02Z</time>
      </trkpt>
      <trkpt lat="43.2065500" lon="-0.9738780">
        <ele>327.1</ele>
        <time>2020-07-26T08:53:03Z</time>
      </trkpt>
      <trkpt lat="43.2064180" lon="-0.9738230">
        <ele>325.9</ele>
        <time>2020-07-26T08:53:04Z</time>
      </trkpt>
      <trkpt lat="43.2062920" lon="-0.9737450">
        <ele>324.5</ele>
        <time>2020-07-26T08:53:05Z</time>
      </trkpt>
      <trkpt lat="43.2061720" lon="-0.9736550">
        <ele>323.1</ele>
        <time>2020-07-26T08:53:06Z</time>
      </trkpt>
      <trkpt lat="43.2060510" lon="-0.9735640">
        <ele>321.7</ele>
        <time>2020-07-26T08:53:07Z</time>
      </trkpt>
      <trkpt lat="43.2059290" lon="-0.9734750">
        <ele>320.3</ele>
        <time>2020-07-26T08:53:08Z</time>
      </trkpt>
      <trkpt lat="43.2058030" lon="-0.9733930">
        <ele>319.1</ele>
        <time>2020-07-26T08:53:09Z</time>
      </trkpt>
      <trkpt lat="43.2055460" lon="-0.9732430">
        <ele>316.5</ele>
        <time>2020-07-26T08:53:11Z</time>
      </trkpt>
      <trkpt lat="43.2054160" lon="-0.9731680">
        <ele>315.1</ele>
        <time>2020-07-26T08:53:12Z</time>
      </trkpt>
      <trkpt lat="43.2052840" lon="-0.9730990">
        <ele>313.8</ele>
        <time>2020-07-26T08:53:13Z</time>
      </trkpt>
      <trkpt lat="43.2050160" lon="-0.9729690">
        <ele>311.5</ele>
        <time>2020-07-26T08:53:15Z</time>
      </trkpt>
      <trkpt lat="43.2047430" lon="-0.9728450">
        <ele>309.2</ele>
        <time>2020-07-26T08:53:17Z</time>
      </trkpt>
      <trkpt lat="43.2046060" lon="-0.9727820">
        <ele>308.1</ele>
        <time>2020-07-26T08:53:18Z</time>
      </trkpt>
      <trkpt lat="43.2044710" lon="-0.9727150">
        <ele>307.0</ele>
        <time>2020-07-26T08:53:19Z</time>
      </trkpt>
      <trkpt lat="43.2043380" lon="-0.9726370">
        <ele>305.8</ele>
        <time>2020-07-26T08:53:20Z</time>
      </trkpt>
      <trkpt lat="43.2042090" lon="-0.9725440">
        <ele>304.7</ele>
        <time>2020-07-26T08:53:21Z</time>
      </trkpt>
      <trkpt lat="43.2040860" lon="-0.9724340">
        <ele>303.4</ele>
        <time>2020-07-26T08:53:22Z</time>
      </trkpt>
      <trkpt lat="43.2039690" lon="-0.9723110">
        <ele>302.2</ele>
        <time>2020-07-26T08:53:23Z</time>
      </trkpt>
      <trkpt lat="43.2038550" lon="-0.9721820">
        <ele>301.0</ele>
        <time>2020-07-26T08:53:24Z</time>
      </trkpt>
      <trkpt lat="43.2037410" lon="-0.9720510">
        <ele>299.7</ele>
        <time>2020-07-26T08:53:25Z</time>
      </trkpt>
      <trkpt lat="43.2036290" lon="-0.9719180">
        <ele>298.5</ele>
        <time>2020-07-26T08:53:26Z</time>
      </trkpt>
      <trkpt lat="43.2035160" lon="-0.9717830">
        <ele>297.4</ele>
        <time>2020-07-26T08:53:27Z</time>
      </trkpt>
      <trkpt lat="43.2034040" lon="-0.9716480">
        <ele>296.2</ele>
        <time>2020-07-26T08:53:28Z</time>
      </trkpt>
      <trkpt lat="43.2031820" lon="-0.9713750">
        <ele>294.0</ele>
        <time>2020-07-26T08:53:30Z</time>
      </trkpt>
      <trkpt lat="43.2030700" lon="-0.9712400">
        <ele>293.0</ele>
        <time>2020-07-26T08:53:31Z</time>
      </trkpt>
      <trkpt lat="43.2029610" lon="-0.9711070">
        <ele>291.9</ele>
        <time>2020-07-26T08:53:32Z</time>
      </trkpt>
      <trkpt lat="43.2028500" lon="-0.9709730">
        <ele>290.8</ele>
        <time>2020-07-26T08:53:33Z</time>
      </trkpt>
      <trkpt lat="43.2026290" lon="-0.9707050">
        <ele>288.7</ele>
        <time>2020-07-26T08:53:35Z</time>
      </trkpt>
      <trkpt lat="43.2025200" lon="-0.9705700">
        <ele>287.7</ele>
        <time>2020-07-26T08:53:36Z</time>
      </trkpt>
      <trkpt lat="43.2024130" lon="-0.9704310">
        <ele>286.8</ele>
        <time>2020-07-26T08:53:37Z</time>
      </trkpt>
      <trkpt lat="43.2023110" lon="-0.9702860">
        <ele>285.9</ele>
        <time>2020-07-26T08:53:38Z</time>
      </trkpt>
      <trkpt lat="43.2022240" lon="-0.9701280">
        <ele>284.8</ele>
        <time>2020-07-26T08:53:39Z</time>
      </trkpt>
      <trkpt lat="43.2021530" lon="-0.9699550">
        <ele>283.7</ele>
        <time>2020-07-26T08:53:40Z</time>
      </trkpt>
      <trkpt lat="43.2020950" lon="-0.9697740">
        <ele>282.5</ele>
        <time>2020-07-26T08:53:41Z</time>
      </trkpt>
      <trkpt lat="43.2019910" lon="-0.9694020">
        <ele>280.3</ele>
        <time>2020-07-26T08:53:43Z</time>
      </trkpt>
      <trkpt lat="43.2019400" lon="-0.9692150">
        <ele>279.3</ele>
        <time>2020-07-26T08:53:44Z</time>
      </trkpt>
      <trkpt lat="43.2018860" lon="-0.9690300">
        <ele>278.3</ele>
        <time>2020-07-26T08:53:45Z</time>
      </trkpt>
      <trkpt lat="43.2017810" lon="-0.9686610">
        <ele>276.0</ele>
        <time>2020-07-26T08:53:47Z</time>
      </trkpt>
      <trkpt lat="43.2017330" lon="-0.9684740">
        <ele>274.8</ele>
        <time>2020-07-26T08:53:48Z</time>
      </trkpt>
      <trkpt lat="43.2016840" lon="-0.9682870">
        <ele>273.5</ele>
        <time>2020-07-26T08:53:49Z</time>
      </trkpt>
      <trkpt lat="43.2016280" lon="-0.9681030">
        <ele>272.2</ele>
        <time>2020-07-26T08:53:50Z</time>
      </trkpt>
      <trkpt lat="43.2015650" lon="-0.9679240">
        <ele>271.0</ele>
        <time>2020-07-26T08:53:51Z</time>
      </trkpt>
      <trkpt lat="43.2014910" lon="-0.9677510">
        <ele>269.7</ele>
        <time>2020-07-26T08:53:52Z</time>
      </trkpt>
      <trkpt lat="43.2014090" lon="-0.9675830">
        <ele>268.4</ele>
        <time>2020-07-26T08:53:53Z</time>
      </trkpt>
      <trkpt lat="43.2013250" lon="-0.9674170">
        <ele>267.2</ele>
        <time>2020-07-26T08:53:54Z</time>
      </trkpt>
      <trkpt lat="43.2012390" lon="-0.9672530">
        <ele>266.0</ele>
        <time>2020-07-26T08:53:55Z</time>
      </trkpt>
      <trkpt lat="43.2011520" lon="-0.9670930">
        <ele>264.9</ele>
        <time>2020-07-26T08:53:56Z</time>
      </trkpt>
      <trkpt lat="43.2010650" lon="-0.9669340">
        <ele>264.0</ele>
        <time>2020-07-26T08:53:57Z</time>
      </trkpt>
      <trkpt lat="43.2009740" lon="-0.9667800">
        <ele>263.5</ele>
        <time>2020-07-26T08:53:58Z</time>
      </trkpt>
      <trkpt lat="43.2008750" lon="-0.9666360">
        <ele>262.6</ele>
        <time>2020-07-26T08:53:59Z</time>
      </trkpt>
      <trkpt lat="43.2007660" lon="-0.9665080">
        <ele>261.6</ele>
        <time>2020-07-26T08:54:00Z</time>
      </trkpt>
      <trkpt lat="43.2006460" lon="-0.9664050">
        <ele>260.6</ele>
        <time>2020-07-26T08:54:01Z</time>
      </trkpt>
      <trkpt lat="43.2005170" lon="-0.9663250">
        <ele>259.6</ele>
        <time>2020-07-26T08:54:02Z</time>
      </trkpt>
      <trkpt lat="43.2003830" lon="-0.9662630">
        <ele>258.6</ele>
        <time>2020-07-26T08:54:03Z</time>
      </trkpt>
      <trkpt lat="43.2002480" lon="-0.9662140">
        <ele>257.5</ele>
        <time>2020-07-26T08:54:04Z</time>
      </trkpt>
      <trkpt lat="43.2001100" lon="-0.9661770">
        <ele>256.6</ele>
        <time>2020-07-26T08:54:05Z</time>
      </trkpt>
      <trkpt lat="43.1999710" lon="-0.9661570">
        <ele>255.7</ele>
        <time>2020-07-26T08:54:06Z</time>
      </trkpt>
      <trkpt lat="43.1996920" lon="-0.9661160">
        <ele>253.8</ele>
        <time>2020-07-26T08:54:08Z</time>
      </trkpt>
      <trkpt lat="43.1994140" lon="-0.9660870">
        <ele>252.0</ele>
        <time>2020-07-26T08:54:10Z</time>
      </trkpt>
      <trkpt lat="43.1991390" lon="-0.9660570">
        <ele>250.1</ele>
        <time>2020-07-26T08:54:12Z</time>
      </trkpt>
      <trkpt lat="43.1988660" lon="-0.9660290">
        <ele>248.1</ele>
        <time>2020-07-26T08:54:14Z</time>
      </trkpt>
      <trkpt lat="43.1985970" lon="-0.9660200">
        <ele>246.2</ele>
        <time>2020-07-26T08:54:16Z</time>
      </trkpt>
      <trkpt lat="43.1984680" lon="-0.9660260">
        <ele>245.2</ele>
        <time>2020-07-26T08:54:17Z</time>
      </trkpt>
      <trkpt lat="43.1982140" lon="-0.9660530">
        <ele>242.8</ele>
        <time>2020-07-26T08:54:19Z</time>
      </trkpt>
      <trkpt lat="43.1979600" lon="-0.9660930">
        <ele>240.4</ele>
        <time>2020-07-26T08:54:21Z</time>
      </trkpt>
      <trkpt lat="43.1977030" lon="-0.9661320">
        <ele>239.1</ele>
        <time>2020-07-26T08:54:23Z</time>
      </trkpt>
      <trkpt lat="43.1974330" lon="-0.9661380">
        <ele>235.9</ele>
        <time>2020-07-26T08:54:25Z</time>
      </trkpt>
      <trkpt lat="43.1971590" lon="-0.9661160">
        <ele>233.0</ele>
        <time>2020-07-26T08:54:27Z</time>
      </trkpt>
      <trkpt lat="43.1970230" lon="-0.9660970">
        <ele>231.6</ele>
        <time>2020-07-26T08:54:28Z</time>
      </trkpt>
      <trkpt lat="43.1968890" lon="-0.9660790">
        <ele>230.3</ele>
        <time>2020-07-26T08:54:29Z</time>
      </trkpt>
      <trkpt lat="43.1967580" lon="-0.9660610">
        <ele>229.2</ele>
        <time>2020-07-26T08:54:30Z</time>
      </trkpt>
      <trkpt lat="43.1966320" lon="-0.9660410">
        <ele>228.1</ele>
        <time>2020-07-26T08:54:31Z</time>
      </trkpt>
      <trkpt lat="43.1965110" lon="-0.9660210">
        <ele>227.0</ele>
        <time>2020-07-26T08:54:32Z</time>
      </trkpt>
      <trkpt lat="43.1963980" lon="-0.9660010">
        <ele>226.0</ele>
        <time>2020-07-26T08:54:33Z</time>
      </trkpt>
      <trkpt lat="43.1962940" lon="-0.9659810">
        <ele>225.1</ele>
        <time>2020-07-26T08:54:34Z</time>
      </trkpt>
      <trkpt lat="43.1962040" lon="-0.9659630">
        <ele>224.3</ele>
        <time>2020-07-26T08:54:35Z</time>
      </trkpt>
      <trkpt lat="43.1961280" lon="-0.9659470">
        <ele>223.6</ele>
        <time>2020-07-26T08:54:36Z</time>
      </trkpt>
      <trkpt lat="43.1960680" lon="-0.9659360">
        <ele>223.0</ele>
        <time>2020-07-26T08:54:37Z</time>
      </trkpt>
      <trkpt lat="43.1960170" lon="-0.9659260">
        <ele>222.5</ele>
        <time>2020-07-26T08:54:38Z</time>
      </trkpt>
      <trkpt lat="43.1959650" lon="-0.9659210">
        <ele>222.0</ele>
        <time>2020-07-26T08:54:39Z</time>
      </trkpt>
      <trkpt lat="43.1959080" lon="-0.9659210">
        <ele>221.4</ele>
        <time>2020-07-26T08:54:40Z</time>
      </trkpt>
      <trkpt lat="43.1958440" lon="-0.9659170">
        <ele>220.8</ele>
        <time>2020-07-26T08:54:41Z</time>
      </trkpt>
      <trkpt lat="43.1957730" lon="-0.9659050">
        <ele>220.1</ele>
        <time>2020-07-26T08:54:42Z</time>
      </trkpt>
      <trkpt lat="43.1955290" lon="-0.9658040">
        <ele>218.0</ele>
        <time>2020-07-26T08:54:45Z</time>
      </trkpt>
      <trkpt lat="43.1954410" lon="-0.9657520">
        <ele>217.3</ele>
        <time>2020-07-26T08:54:46Z</time>
      </trkpt>
      <trkpt lat="43.1950660" lon="-0.9654840">
        <ele>214.7</ele>
        <time>2020-07-26T08:54:50Z</time>
      </trkpt>
      <trkpt lat="43.1949730" lon="-0.9654050">
        <ele>214.1</ele>
        <time>2020-07-26T08:54:51Z</time>
      </trkpt>
      <trkpt lat="43.1948090" lon="-0.9651930">
        <ele>213.1</ele>
        <time>2020-07-26T08:54:53Z</time>
      </trkpt>
      <trkpt lat="43.1947450" lon="-0.9650650">
        <ele>212.6</ele>
        <time>2020-07-26T08:54:54Z</time>
      </trkpt>
      <trkpt lat="43.1946940" lon="-0.9649280">
        <ele>212.2</ele>
        <time>2020-07-26T08:54:55Z</time>
      </trkpt>
      <trkpt lat="43.1946540" lon="-0.9647840">
        <ele>211.8</ele>
        <time>2020-07-26T08:54:56Z</time>
      </trkpt>
      <trkpt lat="43.1946240" lon="-0.9646360">
        <ele>211.3</ele>
        <time>2020-07-26T08:54:57Z</time>
      </trkpt>
      <trkpt lat="43.1945990" lon="-0.9644860">
        <ele>210.8</ele>
        <time>2020-07-26T08:54:58Z</time>
      </trkpt>
      <trkpt lat="43.1945770" lon="-0.9643360">
        <ele>210.3</ele>
        <time>2020-07-26T08:54:59Z</time>
      </trkpt>
      <trkpt lat="43.1945350" lon="-0.9640370">
        <ele>209.0</ele>
        <time>2020-07-26T08:55:01Z</time>
      </trkpt>
      <trkpt lat="43.1944920" lon="-0.9637340">
        <ele>207.4</ele>
        <time>2020-07-26T08:55:03Z</time>
      </trkpt>
      <trkpt lat="43.1944700" lon="-0.9635790">
        <ele>206.5</ele>
        <time>2020-07-26T08:55:04Z</time>
      </trkpt>
      <trkpt lat="43.1944270" lon="-0.9632560">
        <ele>204.4</ele>
        <time>2020-07-26T08:55:06Z</time>
      </trkpt>
      <trkpt lat="43.1943840" lon="-0.9629240">
        <ele>202.2</ele>
        <time>2020-07-26T08:55:08Z</time>
      </trkpt>
      <trkpt lat="43.1943150" lon="-0.9624160">
        <ele>198.9</ele>
        <time>2020-07-26T08:55:11Z</time>
      </trkpt>
      <trkpt lat="43.1942660" lon="-0.9620720">
        <ele>196.8</ele>
        <time>2020-07-26T08:55:13Z</time>
      </trkpt>
      <trkpt lat="43.1942400" lon="-0.9618980">
        <ele>195.8</ele>
        <time>2020-07-26T08:55:14Z</time>
      </trkpt>
      <trkpt lat="43.1942160" lon="-0.9617240">
        <ele>194.9</ele>
        <time>2020-07-26T08:55:15Z</time>
      </trkpt>
      <trkpt lat="43.1941920" lon="-0.9615490">
        <ele>194.0</ele>
        <time>2020-07-26T08:55:16Z</time>
      </trkpt>
      <trkpt lat="43.1941680" lon="-0.9613730">
        <ele>193.2</ele>
        <time>2020-07-26T08:55:17Z</time>
      </trkpt>
      <trkpt lat="43.1941180" lon="-0.9610210">
        <ele>191.7</ele>
        <time>2020-07-26T08:55:19Z</time>
      </trkpt>
      <trkpt lat="43.1940930" lon="-0.9608450">
        <ele>190.7</ele>
        <time>2020-07-26T08:55:20Z</time>
      </trkpt>
      <trkpt lat="43.1940670" lon="-0.9606720">
        <ele>189.8</ele>
        <time>2020-07-26T08:55:21Z</time>
      </trkpt>
      <trkpt lat="43.1940430" lon="-0.9605000">
        <ele>189.2</ele>
        <time>2020-07-26T08:55:22Z</time>
      </trkpt>
      <trkpt lat="43.1940200" lon="-0.9603300">
        <ele>188.8</ele>
        <time>2020-07-26T08:55:23Z</time>
      </trkpt>
      <trkpt lat="43.1939730" lon="-0.9599960">
        <ele>188.6</ele>
        <time>2020-07-26T08:55:25Z</time>
      </trkpt>
      <trkpt lat="43.1939310" lon="-0.9596750">
        <ele>188.0</ele>
        <time>2020-07-26T08:55:27Z</time>
      </trkpt>
      <trkpt lat="43.1939110" lon="-0.9595210">
        <ele>187.8</ele>
        <time>2020-07-26T08:55:28Z</time>
      </trkpt>
      <trkpt lat="43.1938900" lon="-0.9593740">
        <ele>187.8</ele>
        <time>2020-07-26T08:55:29Z</time>
      </trkpt>
      <trkpt lat="43.1938100" lon="-0.9588410">
        <ele>189.5</ele>
        <time>2020-07-26T08:55:33Z</time>
      </trkpt>
      <trkpt lat="43.1937120" lon="-0.9584470">
        <ele>192.0</ele>
        <time>2020-07-26T08:55:37Z</time>
      </trkpt>
      <trkpt lat="43.1936220" lon="-0.9581630">
        <ele>194.0</ele>
        <time>2020-07-26T08:55:41Z</time>
      </trkpt>
      <trkpt lat="43.1936030" lon="-0.9581010">
        <ele>194.4</ele>
        <time>2020-07-26T08:55:42Z</time>
      </trkpt>
      <trkpt lat="43.1935840" lon="-0.9580410">
        <ele>194.8</ele>
        <time>2020-07-26T08:55:43Z</time>
      </trkpt>
      <trkpt lat="43.1935500" lon="-0.9579250">
        <ele>195.6</ele>
        <time>2020-07-26T08:55:45Z</time>
      </trkpt>
      <trkpt lat="43.1935190" lon="-0.9578120">
        <ele>196.3</ele>
        <time>2020-07-26T08:55:47Z</time>
      </trkpt>
      <trkpt lat="43.1934890" lon="-0.9577030">
        <ele>197.0</ele>
        <time>2020-07-26T08:55:49Z</time>
      </trkpt>
      <trkpt lat="43.1934650" lon="-0.9575920">
        <ele>197.7</ele>
        <time>2020-07-26T08:55:51Z</time>
      </trkpt>
      <trkpt lat="43.1934240" lon="-0.9573780">
        <ele>198.9</ele>
        <time>2020-07-26T08:55:55Z</time>
      </trkpt>
      <trkpt lat="43.1933910" lon="-0.9571740">
        <ele>200.1</ele>
        <time>2020-07-26T08:55:59Z</time>
      </trkpt>
      <trkpt lat="43.1933840" lon="-0.9571260">
        <ele>200.4</ele>
        <time>2020-07-26T08:56:00Z</time>
      </trkpt>
      <trkpt lat="43.1933600" lon="-0.9569390">
        <ele>201.5</ele>
        <time>2020-07-26T08:56:04Z</time>
      </trkpt>
      <trkpt lat="43.1933330" lon="-0.9567560">
        <ele>202.7</ele>
        <time>2020-07-26T08:56:08Z</time>
      </trkpt>
      <trkpt lat="43.1933280" lon="-0.9567110">
        <ele>202.9</ele>
        <time>2020-07-26T08:56:09Z</time>
      </trkpt>
      <trkpt lat="43.1933060" lon="-0.9565300">
        <ele>203.9</ele>
        <time>2020-07-26T08:56:13Z</time>
      </trkpt>
      <trkpt lat="43.1932730" lon="-0.9563010">
        <ele>205.1</ele>
        <time>2020-07-26T08:56:18Z</time>
      </trkpt>
      <trkpt lat="43.1932430" lon="-0.9560690">
        <ele>206.3</ele>
        <time>2020-07-26T08:56:23Z</time>
      </trkpt>
      <trkpt lat="43.1932130" lon="-0.9558360">
        <ele>207.4</ele>
        <time>2020-07-26T08:56:28Z</time>
      </trkpt>
      <trkpt lat="43.1932070" lon="-0.9557880">
        <ele>207.7</ele>
        <time>2020-07-26T08:56:29Z</time>
      </trkpt>
      <trkpt lat="43.1931820" lon="-0.9556010">
        <ele>208.6</ele>
        <time>2020-07-26T08:56:33Z</time>
      </trkpt>
      <trkpt lat="43.1931540" lon="-0.9553650">
        <ele>209.8</ele>
        <time>2020-07-26T08:56:38Z</time>
      </trkpt>
      <trkpt lat="43.1931380" lon="-0.9552240">
        <ele>210.5</ele>
        <time>2020-07-26T08:56:41Z</time>
      </trkpt>
      <trkpt lat="43.1931220" lon="-0.9551320">
        <ele>211.0</ele>
        <time>2020-07-26T08:56:43Z</time>
      </trkpt>
      <trkpt lat="43.1930950" lon="-0.9549480">
        <ele>212.0</ele>
        <time>2020-07-26T08:56:47Z</time>
      </trkpt>
      <trkpt lat="43.1930820" lon="-0.9548560">
        <ele>212.4</ele>
        <time>2020-07-26T08:56:49Z</time>
      </trkpt>
      <trkpt lat="43.1930580" lon="-0.9547160">
        <ele>213.1</ele>
        <time>2020-07-26T08:56:52Z</time>
      </trkpt>
      <trkpt lat="43.1930290" lon="-0.9544640">
        <ele>214.0</ele>
        <time>2020-07-26T08:56:57Z</time>
      </trkpt>
      <trkpt lat="43.1929880" lon="-0.9541890">
        <ele>214.7</ele>
        <time>2020-07-26T08:57:02Z</time>
      </trkpt>
      <trkpt lat="43.1929570" lon="-0.9539590">
        <ele>215.1</ele>
        <time>2020-07-26T08:57:06Z</time>
      </trkpt>
      <trkpt lat="43.1929320" lon="-0.9537850">
        <ele>215.3</ele>
        <time>2020-07-26T08:57:09Z</time>
      </trkpt>
      <trkpt lat="43.1928810" lon="-0.9534020">
        <ele>215.0</ele>
        <time>2020-07-26T08:57:15Z</time>
      </trkpt>
      <trkpt lat="43.1928080" lon="-0.9529130">
        <ele>213.4</ele>
        <time>2020-07-26T08:57:21Z</time>
      </trkpt>
      <trkpt lat="43.1927120" lon="-0.9522470">
        <ele>210.7</ele>
        <time>2020-07-26T08:57:27Z</time>
      </trkpt>
      <trkpt lat="43.1926960" lon="-0.9521220">
        <ele>210.2</ele>
        <time>2020-07-26T08:57:28Z</time>
      </trkpt>
      <trkpt lat="43.1926800" lon="-0.9517250">
        <ele>208.6</ele>
        <time>2020-07-26T08:57:31Z</time>
      </trkpt>
      <trkpt lat="43.1926800" lon="-0.9515860">
        <ele>208.0</ele>
        <time>2020-07-26T08:57:32Z</time>
      </trkpt>
      <trkpt lat="43.1926830" lon="-0.9512960">
        <ele>206.5</ele>
        <time>2020-07-26T08:57:34Z</time>
      </trkpt>
      <trkpt lat="43.1926810" lon="-0.9509940">
        <ele>205.2</ele>
        <time>2020-07-26T08:57:36Z</time>
      </trkpt>
      <trkpt lat="43.1926580" lon="-0.9506840">
        <ele>203.7</ele>
        <time>2020-07-26T08:57:38Z</time>
      </trkpt>
      <trkpt lat="43.1926270" lon="-0.9505300">
        <ele>203.0</ele>
        <time>2020-07-26T08:57:39Z</time>
      </trkpt>
      <trkpt lat="43.1925140" lon="-0.9502480">
        <ele>201.4</ele>
        <time>2020-07-26T08:57:41Z</time>
      </trkpt>
      <trkpt lat="43.1923630" lon="-0.9499920">
        <ele>199.6</ele>
        <time>2020-07-26T08:57:43Z</time>
      </trkpt>
      <trkpt lat="43.1922030" lon="-0.9497350">
        <ele>197.7</ele>
        <time>2020-07-26T08:57:45Z</time>
      </trkpt>
      <trkpt lat="43.1921250" lon="-0.9496000">
        <ele>196.7</ele>
        <time>2020-07-26T08:57:46Z</time>
      </trkpt>
      <trkpt lat="43.1920460" lon="-0.9494660">
        <ele>195.7</ele>
        <time>2020-07-26T08:57:47Z</time>
      </trkpt>
      <trkpt lat="43.1919760" lon="-0.9493230">
        <ele>194.7</ele>
        <time>2020-07-26T08:57:48Z</time>
      </trkpt>
      <trkpt lat="43.1918370" lon="-0.9490370">
        <ele>192.6</ele>
        <time>2020-07-26T08:57:50Z</time>
      </trkpt>
      <trkpt lat="43.1917780" lon="-0.9488830">
        <ele>191.7</ele>
        <time>2020-07-26T08:57:51Z</time>
      </trkpt>
      <trkpt lat="43.1917200" lon="-0.9487280">
        <ele>190.7</ele>
        <time>2020-07-26T08:57:52Z</time>
      </trkpt>
      <trkpt lat="43.1915990" lon="-0.9484180">
        <ele>188.7</ele>
        <time>2020-07-26T08:57:54Z</time>
      </trkpt>
      <trkpt lat="43.1915380" lon="-0.9482610">
        <ele>187.8</ele>
        <time>2020-07-26T08:57:55Z</time>
      </trkpt>
      <trkpt lat="43.1914230" lon="-0.9479420">
        <ele>186.3</ele>
        <time>2020-07-26T08:57:57Z</time>
      </trkpt>
      <trkpt lat="43.1913020" lon="-0.9476240">
        <ele>185.3</ele>
        <time>2020-07-26T08:57:59Z</time>
      </trkpt>
      <trkpt lat="43.1911870" lon="-0.9473150">
        <ele>185.2</ele>
        <time>2020-07-26T08:58:01Z</time>
      </trkpt>
      <trkpt lat="43.1910800" lon="-0.9470200">
        <ele>185.7</ele>
        <time>2020-07-26T08:58:03Z</time>
      </trkpt>
      <trkpt lat="43.1909740" lon="-0.9467460">
        <ele>186.5</ele>
        <time>2020-07-26T08:58:05Z</time>
      </trkpt>
      <trkpt lat="43.1907560" lon="-0.9461510">
        <ele>188.5</ele>
        <time>2020-07-26T08:58:10Z</time>
      </trkpt>
      <trkpt lat="43.1905780" lon="-0.9455420">
        <ele>189.6</ele>
        <time>2020-07-26T08:58:16Z</time>
      </trkpt>
      <trkpt lat="43.1905050" lon="-0.9452600">
        <ele>189.7</ele>
        <time>2020-07-26T08:58:19Z</time>
      </trkpt>
      <trkpt lat="43.1904280" lon="-0.9449650">
        <ele>189.5</ele>
        <time>2020-07-26T08:58:22Z</time>
      </trkpt>
      <trkpt lat="43.1903460" lon="-0.9446670">
        <ele>189.4</ele>
        <time>2020-07-26T08:58:25Z</time>
      </trkpt>
      <trkpt lat="43.1901490" lon="-0.9439430">
        <ele>188.7</ele>
        <time>2020-07-26T08:58:32Z</time>
      </trkpt>
      <trkpt lat="43.1900900" lon="-0.9437300">
        <ele>188.3</ele>
        <time>2020-07-26T08:58:34Z</time>
      </trkpt>
      <trkpt lat="43.1898780" lon="-0.9429340">
        <ele>186.0</ele>
        <time>2020-07-26T08:58:41Z</time>
      </trkpt>
      <trkpt lat="43.1898480" lon="-0.9428100">
        <ele>185.4</ele>
        <time>2020-07-26T08:58:42Z</time>
      </trkpt>
      <trkpt lat="43.1897880" lon="-0.9424150">
        <ele>183.4</ele>
        <time>2020-07-26T08:58:45Z</time>
      </trkpt>
      <trkpt lat="43.1897810" lon="-0.9422700">
        <ele>183.1</ele>
        <time>2020-07-26T08:58:46Z</time>
      </trkpt>
      <trkpt lat="43.1897800" lon="-0.9421200">
        <ele>182.7</ele>
        <time>2020-07-26T08:58:47Z</time>
      </trkpt>
      <trkpt lat="43.1897980" lon="-0.9416530">
        <ele>179.0</ele>
        <time>2020-07-26T08:58:50Z</time>
      </trkpt>
      <trkpt lat="43.1898210" lon="-0.9415030">
        <ele>178.1</ele>
        <time>2020-07-26T08:58:51Z</time>
      </trkpt>
      <trkpt lat="43.1899480" lon="-0.9410850">
        <ele>175.7</ele>
        <time>2020-07-26T08:58:54Z</time>
      </trkpt>
      <trkpt lat="43.1900080" lon="-0.9409620">
        <ele>174.9</ele>
        <time>2020-07-26T08:58:55Z</time>
      </trkpt>
      <trkpt lat="43.1900750" lon="-0.9408410">
        <ele>174.0</ele>
        <time>2020-07-26T08:58:56Z</time>
      </trkpt>
      <trkpt lat="43.1901410" lon="-0.9407150">
        <ele>173.4</ele>
        <time>2020-07-26T08:58:57Z</time>
      </trkpt>
      <trkpt lat="43.1902080" lon="-0.9405820">
        <ele>173.0</ele>
        <time>2020-07-26T08:58:58Z</time>
      </trkpt>
      <trkpt lat="43.1903370" lon="-0.9403110">
        <ele>172.5</ele>
        <time>2020-07-26T08:59:00Z</time>
      </trkpt>
      <trkpt lat="43.1905210" lon="-0.9399180">
        <ele>172.5</ele>
        <time>2020-07-26T08:59:03Z</time>
      </trkpt>
      <trkpt lat="43.1906320" lon="-0.9396740">
        <ele>172.5</ele>
        <time>2020-07-26T08:59:05Z</time>
      </trkpt>
      <trkpt lat="43.1907380" lon="-0.9394470">
        <ele>172.6</ele>
        <time>2020-07-26T08:59:07Z</time>
      </trkpt>
      <trkpt lat="43.1909330" lon="-0.9390340">
        <ele>173.1</ele>
        <time>2020-07-26T08:59:11Z</time>
      </trkpt>
      <trkpt lat="43.1911820" lon="-0.9384980">
        <ele>173.9</ele>
        <time>2020-07-26T08:59:17Z</time>
      </trkpt>
      <trkpt lat="43.1913970" lon="-0.9380340">
        <ele>174.6</ele>
        <time>2020-07-26T08:59:23Z</time>
      </trkpt>
      <trkpt lat="43.1914640" lon="-0.9378870">
        <ele>174.8</ele>
        <time>2020-07-26T08:59:25Z</time>
      </trkpt>
      <trkpt lat="43.1914980" lon="-0.9378140">
        <ele>174.9</ele>
        <time>2020-07-26T08:59:26Z</time>
      </trkpt>
      <trkpt lat="43.1917890" lon="-0.9371840">
        <ele>175.3</ele>
        <time>2020-07-26T08:59:35Z</time>
      </trkpt>
      <trkpt lat="43.1918460" lon="-0.9370410">
        <ele>175.4</ele>
        <time>2020-07-26T08:59:37Z</time>
      </trkpt>
      <trkpt lat="43.1919440" lon="-0.9366650">
        <ele>175.9</ele>
        <time>2020-07-26T08:59:42Z</time>
      </trkpt>
      <trkpt lat="43.1919580" lon="-0.9365890">
        <ele>176.0</ele>
        <time>2020-07-26T08:59:43Z</time>
      </trkpt>
      <trkpt lat="43.1920600" lon="-0.9358920">
        <ele>176.6</ele>
        <time>2020-07-26T08:59:52Z</time>
      </trkpt>
      <trkpt lat="43.1921680" lon="-0.9351420">
        <ele>177.5</ele>
        <time>2020-07-26T09:00:02Z</time>
      </trkpt>
      <trkpt lat="43.1921790" lon="-0.9350700">
        <ele>177.7</ele>
        <time>2020-07-26T09:00:03Z</time>
      </trkpt>
      <trkpt lat="43.1922820" lon="-0.9343240">
        <ele>179.5</ele>
        <time>2020-07-26T09:00:14Z</time>
      </trkpt>
      <trkpt lat="43.1922900" lon="-0.9342600">
        <ele>179.7</ele>
        <time>2020-07-26T09:00:15Z</time>
      </trkpt>
      <trkpt lat="43.1923240" lon="-0.9340110">
        <ele>180.4</ele>
        <time>2020-07-26T09:00:19Z</time>
      </trkpt>
      <trkpt lat="43.1923760" lon="-0.9336370">
        <ele>181.5</ele>
        <time>2020-07-26T09:00:25Z</time>
      </trkpt>
      <trkpt lat="43.1924050" lon="-0.9334480">
        <ele>181.9</ele>
        <time>2020-07-26T09:00:28Z</time>
      </trkpt>
      <trkpt lat="43.1924500" lon="-0.9331300">
        <ele>182.6</ele>
        <time>2020-07-26T09:00:33Z</time>
      </trkpt>
      <trkpt lat="43.1924670" lon="-0.9330030">
        <ele>183.0</ele>
        <time>2020-07-26T09:00:35Z</time>
      </trkpt>
      <trkpt lat="43.1925270" lon="-0.9325490">
        <ele>183.9</ele>
        <time>2020-07-26T09:00:42Z</time>
      </trkpt>
      <trkpt lat="43.1925520" lon="-0.9324110">
        <ele>184.0</ele>
        <time>2020-07-26T09:00:44Z</time>
      </trkpt>
      <trkpt lat="43.1926110" lon="-0.9322160">
        <ele>184.3</ele>
        <time>2020-07-26T09:00:47Z</time>
      </trkpt>
      <trkpt lat="43.1926980" lon="-0.9320300">
        <ele>184.3</ele>
        <time>2020-07-26T09:00:50Z</time>
      </trkpt>
      <trkpt lat="43.1930020" lon="-0.9315770">
        <ele>182.1</ele>
        <time>2020-07-26T09:00:57Z</time>
      </trkpt>
      <trkpt lat="43.1931320" lon="-0.9314470">
        <ele>180.7</ele>
        <time>2020-07-26T09:00:59Z</time>
      </trkpt>
      <trkpt lat="43.1933060" lon="-0.9313620">
        <ele>178.8</ele>
        <time>2020-07-26T09:01:01Z</time>
      </trkpt>
      <trkpt lat="43.1936210" lon="-0.9313300">
        <ele>175.9</ele>
        <time>2020-07-26T09:01:04Z</time>
      </trkpt>
      <trkpt lat="43.1937320" lon="-0.9313270">
        <ele>174.9</ele>
        <time>2020-07-26T09:01:05Z</time>
      </trkpt>
      <trkpt lat="43.1938470" lon="-0.9313100">
        <ele>174.0</ele>
        <time>2020-07-26T09:01:06Z</time>
      </trkpt>
      <trkpt lat="43.1939600" lon="-0.9312670">
        <ele>173.1</ele>
        <time>2020-07-26T09:01:07Z</time>
      </trkpt>
      <trkpt lat="43.1940670" lon="-0.9311950">
        <ele>172.4</ele>
        <time>2020-07-26T09:01:08Z</time>
      </trkpt>
      <trkpt lat="43.1941630" lon="-0.9310960">
        <ele>171.8</ele>
        <time>2020-07-26T09:01:09Z</time>
      </trkpt>
      <trkpt lat="43.1942360" lon="-0.9309670">
        <ele>171.2</ele>
        <time>2020-07-26T09:01:10Z</time>
      </trkpt>
      <trkpt lat="43.1942840" lon="-0.9308220">
        <ele>170.8</ele>
        <time>2020-07-26T09:01:11Z</time>
      </trkpt>
      <trkpt lat="43.1943120" lon="-0.9306720">
        <ele>170.5</ele>
        <time>2020-07-26T09:01:12Z</time>
      </trkpt>
      <trkpt lat="43.1943290" lon="-0.9305230">
        <ele>170.4</ele>
        <time>2020-07-26T09:01:13Z</time>
      </trkpt>
      <trkpt lat="43.1943430" lon="-0.9303770">
        <ele>170.4</ele>
        <time>2020-07-26T09:01:14Z</time>
      </trkpt>
      <trkpt lat="43.1943650" lon="-0.9300990">
        <ele>170.6</ele>
        <time>2020-07-26T09:01:15Z</time>
      </trkpt>
      <trkpt lat="43.1943820" lon="-0.9298350">
        <ele>170.8</ele>
        <time>2020-07-26T09:01:18Z</time>
      </trkpt>
      <trkpt lat="43.1943940" lon="-0.9295760">
        <ele>170.8</ele>
        <time>2020-07-26T09:01:20Z</time>
      </trkpt>
      <trkpt lat="43.1943990" lon="-0.9294490">
        <ele>170.8</ele>
        <time>2020-07-26T09:01:21Z</time>
      </trkpt>
      <trkpt lat="43.1944160" lon="-0.9288420">
        <ele>171.5</ele>
        <time>2020-07-26T09:01:26Z</time>
      </trkpt>
      <trkpt lat="43.1944270" lon="-0.9280830">
        <ele>171.8</ele>
        <time>2020-07-26T09:01:33Z</time>
      </trkpt>
      <trkpt lat="43.1944290" lon="-0.9279820">
        <ele>171.8</ele>
        <time>2020-07-26T09:01:34Z</time>
      </trkpt>
      <trkpt lat="43.1944280" lon="-0.9276810">
        <ele>172.0</ele>
        <time>2020-07-26T09:01:37Z</time>
      </trkpt>
      <trkpt lat="43.1943830" lon="-0.9272930">
        <ele>171.9</ele>
        <time>2020-07-26T09:01:41Z</time>
      </trkpt>
      <trkpt lat="43.1942180" lon="-0.9266680">
        <ele>171.7</ele>
        <time>2020-07-26T09:01:48Z</time>
      </trkpt>
      <trkpt lat="43.1940310" lon="-0.9259460">
        <ele>172.0</ele>
        <time>2020-07-26T09:01:56Z</time>
      </trkpt>
      <trkpt lat="43.1939880" lon="-0.9257710">
        <ele>171.9</ele>
        <time>2020-07-26T09:01:58Z</time>
      </trkpt>
      <trkpt lat="43.1939170" lon="-0.9252090">
        <ele>171.1</ele>
        <time>2020-07-26T09:02:04Z</time>
      </trkpt>
      <trkpt lat="43.1939170" lon="-0.9244360">
        <ele>168.8</ele>
        <time>2020-07-26T09:02:11Z</time>
      </trkpt>
      <trkpt lat="43.1939190" lon="-0.9239420">
        <ele>166.8</ele>
        <time>2020-07-26T09:02:15Z</time>
      </trkpt>
      <trkpt lat="43.1939240" lon="-0.9235320">
        <ele>165.1</ele>
        <time>2020-07-26T09:02:18Z</time>
      </trkpt>
      <trkpt lat="43.1939290" lon="-0.9231070">
        <ele>163.7</ele>
        <time>2020-07-26T09:02:21Z</time>
      </trkpt>
      <trkpt lat="43.1939360" lon="-0.9228300">
        <ele>163.2</ele>
        <time>2020-07-26T09:02:23Z</time>
      </trkpt>
      <trkpt lat="43.1939630" lon="-0.9225760">
        <ele>162.8</ele>
        <time>2020-07-26T09:02:25Z</time>
      </trkpt>
      <trkpt lat="43.1939890" lon="-0.9224570">
        <ele>162.7</ele>
        <time>2020-07-26T09:02:26Z</time>
      </trkpt>
      <trkpt lat="43.1940200" lon="-0.9223390">
        <ele>162.6</ele>
        <time>2020-07-26T09:02:27Z</time>
      </trkpt>
      <trkpt lat="43.1941040" lon="-0.9220990">
        <ele>162.4</ele>
        <time>2020-07-26T09:02:29Z</time>
      </trkpt>
      <trkpt lat="43.1941520" lon="-0.9219830">
        <ele>162.4</ele>
        <time>2020-07-26T09:02:30Z</time>
      </trkpt>
      <trkpt lat="43.1942060" lon="-0.9218780">
        <ele>162.4</ele>
        <time>2020-07-26T09:02:31Z</time>
      </trkpt>
      <trkpt lat="43.1943370" lon="-0.9216870">
        <ele>162.4</ele>
        <time>2020-07-26T09:02:33Z</time>
      </trkpt>
      <trkpt lat="43.1948100" lon="-0.9211370">
        <ele>162.5</ele>
        <time>2020-07-26T09:02:40Z</time>
      </trkpt>
      <trkpt lat="43.1951130" lon="-0.9207760">
        <ele>162.3</ele>
        <time>2020-07-26T09:02:45Z</time>
      </trkpt>
      <trkpt lat="43.1952190" lon="-0.9206130">
        <ele>162.2</ele>
        <time>2020-07-26T09:02:47Z</time>
      </trkpt>
      <trkpt lat="43.1955840" lon="-0.9200670">
        <ele>162.5</ele>
        <time>2020-07-26T09:02:54Z</time>
      </trkpt>
      <trkpt lat="43.1956790" lon="-0.9199240">
        <ele>162.9</ele>
        <time>2020-07-26T09:02:56Z</time>
      </trkpt>
      <trkpt lat="43.1959810" lon="-0.9194610">
        <ele>164.0</ele>
        <time>2020-07-26T09:03:03Z</time>
      </trkpt>
      <trkpt lat="43.1961480" lon="-0.9192030">
        <ele>164.5</ele>
        <time>2020-07-26T09:03:07Z</time>
      </trkpt>
      <trkpt lat="43.1962650" lon="-0.9190120">
        <ele>164.8</ele>
        <time>2020-07-26T09:03:10Z</time>
      </trkpt>
      <trkpt lat="43.1963470" lon="-0.9188870">
        <ele>165.0</ele>
        <time>2020-07-26T09:03:12Z</time>
      </trkpt>
      <trkpt lat="43.1966160" lon="-0.9184910">
        <ele>164.9</ele>
        <time>2020-07-26T09:03:18Z</time>
      </trkpt>
      <trkpt lat="43.1969560" lon="-0.9180190">
        <ele>164.5</ele>
        <time>2020-07-26T09:03:25Z</time>
      </trkpt>
      <trkpt lat="43.1973400" lon="-0.9174810">
        <ele>164.0</ele>
        <time>2020-07-26T09:03:33Z</time>
      </trkpt>
      <trkpt lat="43.1974390" lon="-0.9173350">
        <ele>163.8</ele>
        <time>2020-07-26T09:03:35Z</time>
      </trkpt>
      <trkpt lat="43.1978460" lon="-0.9167280">
        <ele>163.0</ele>
        <time>2020-07-26T09:03:43Z</time>
      </trkpt>
      <trkpt lat="43.1979900" lon="-0.9164940">
        <ele>162.8</ele>
        <time>2020-07-26T09:03:46Z</time>
      </trkpt>
      <trkpt lat="43.1980420" lon="-0.9164170">
        <ele>162.8</ele>
        <time>2020-07-26T09:03:47Z</time>
      </trkpt>
      <trkpt lat="43.1983610" lon="-0.9160010">
        <ele>162.8</ele>
        <time>2020-07-26T09:03:53Z</time>
      </trkpt>
      <trkpt lat="43.1987470" lon="-0.9156840">
        <ele>162.2</ele>
        <time>2020-07-26T09:03:59Z</time>
      </trkpt>
      <trkpt lat="43.1992800" lon="-0.9152730">
        <ele>161.9</ele>
        <time>2020-07-26T09:04:07Z</time>
      </trkpt>
      <trkpt lat="43.1994170" lon="-0.9151680">
        <ele>161.8</ele>
        <time>2020-07-26T09:04:09Z</time>
      </trkpt>
      <trkpt lat="43.1994850" lon="-0.9151140">
        <ele>161.8</ele>
        <time>2020-07-26T09:04:10Z</time>
      </trkpt>
      <trkpt lat="43.1999550" lon="-0.9147450">
        <ele>162.0</ele>
        <time>2020-07-26T09:04:17Z</time>
      </trkpt>
      <trkpt lat="43.2000210" lon="-0.9146920">
        <ele>162.0</ele>
        <time>2020-07-26T09:04:18Z</time>
      </trkpt>
      <trkpt lat="43.2002830" lon="-0.9144810">
        <ele>162.2</ele>
        <time>2020-07-26T09:04:22Z</time>
      </trkpt>
      <trkpt lat="43.2005230" lon="-0.9142790">
        <ele>162.5</ele>
        <time>2020-07-26T09:04:26Z</time>
      </trkpt>
      <trkpt lat="43.2009400" lon="-0.9139610">
        <ele>162.7</ele>
        <time>2020-07-26T09:04:33Z</time>
      </trkpt>
      <trkpt lat="43.2012830" lon="-0.9135920">
        <ele>162.7</ele>
        <time>2020-07-26T09:04:39Z</time>
      </trkpt>
      <trkpt lat="43.2013310" lon="-0.9135120">
        <ele>162.8</ele>
        <time>2020-07-26T09:04:40Z</time>
      </trkpt>
      <trkpt lat="43.2014820" lon="-0.9131530">
        <ele>161.5</ele>
        <time>2020-07-26T09:04:44Z</time>
      </trkpt>
      <trkpt lat="43.2017490" lon="-0.9124330">
        <ele>161.2</ele>
        <time>2020-07-26T09:04:52Z</time>
      </trkpt>
      <trkpt lat="43.2018500" lon="-0.9121730">
        <ele>161.2</ele>
        <time>2020-07-26T09:04:55Z</time>
      </trkpt>
      <trkpt lat="43.2021520" lon="-0.9115360">
        <ele>160.7</ele>
        <time>2020-07-26T09:05:03Z</time>
      </trkpt>
      <trkpt lat="43.2022460" lon="-0.9113950">
        <ele>160.6</ele>
        <time>2020-07-26T09:05:05Z</time>
      </trkpt>
      <trkpt lat="43.2025390" lon="-0.9109600">
        <ele>160.4</ele>
        <time>2020-07-26T09:05:11Z</time>
      </trkpt>
      <trkpt lat="43.2029040" lon="-0.9104480">
        <ele>160.2</ele>
        <time>2020-07-26T09:05:18Z</time>
      </trkpt>
      <trkpt lat="43.2033060" lon="-0.9098540">
        <ele>159.7</ele>
        <time>2020-07-26T09:05:26Z</time>
      </trkpt>
      <trkpt lat="43.2034570" lon="-0.9096380">
        <ele>159.5</ele>
        <time>2020-07-26T09:05:29Z</time>
      </trkpt>
      <trkpt lat="43.2038580" lon="-0.9090900">
        <ele>159.0</ele>
        <time>2020-07-26T09:05:37Z</time>
      </trkpt>
      <trkpt lat="43.2042400" lon="-0.9085590">
        <ele>157.8</ele>
        <time>2020-07-26T09:05:44Z</time>
      </trkpt>
      <trkpt lat="43.2045190" lon="-0.9081670">
        <ele>156.9</ele>
        <time>2020-07-26T09:05:49Z</time>
      </trkpt>
      <trkpt lat="43.2046820" lon="-0.9079290">
        <ele>156.5</ele>
        <time>2020-07-26T09:05:52Z</time>
      </trkpt>
      <trkpt lat="43.2047350" lon="-0.9078500">
        <ele>156.4</ele>
        <time>2020-07-26T09:05:53Z</time>
      </trkpt>
      <trkpt lat="43.2050580" lon="-0.9073730">
        <ele>155.9</ele>
        <time>2020-07-26T09:05:59Z</time>
      </trkpt>
      <trkpt lat="43.2051710" lon="-0.9072310">
        <ele>155.9</ele>
        <time>2020-07-26T09:06:01Z</time>
      </trkpt>
      <trkpt lat="43.2054710" lon="-0.9068110">
        <ele>156.3</ele>
        <time>2020-07-26T09:06:07Z</time>
      </trkpt>
      <trkpt lat="43.2058510" lon="-0.9063400">
        <ele>157.2</ele>
        <time>2020-07-26T09:06:15Z</time>
      </trkpt>
      <trkpt lat="43.2059070" lon="-0.9063000">
        <ele>157.4</ele>
        <time>2020-07-26T09:06:16Z</time>
      </trkpt>
      <trkpt lat="43.2061410" lon="-0.9061890">
        <ele>158.0</ele>
        <time>2020-07-26T09:06:20Z</time>
      </trkpt>
      <trkpt lat="43.2062620" lon="-0.9061550">
        <ele>158.3</ele>
        <time>2020-07-26T09:06:22Z</time>
      </trkpt>
      <trkpt lat="43.2065650" lon="-0.9061070">
        <ele>159.0</ele>
        <time>2020-07-26T09:06:27Z</time>
      </trkpt>
      <trkpt lat="43.2069790" lon="-0.9060370">
        <ele>159.5</ele>
        <time>2020-07-26T09:06:34Z</time>
      </trkpt>
      <trkpt lat="43.2070360" lon="-0.9060260">
        <ele>159.4</ele>
        <time>2020-07-26T09:06:35Z</time>
      </trkpt>
      <trkpt lat="43.2074860" lon="-0.9059430">
        <ele>158.8</ele>
        <time>2020-07-26T09:06:42Z</time>
      </trkpt>
      <trkpt lat="43.2080880" lon="-0.9058210">
        <ele>157.1</ele>
        <time>2020-07-26T09:06:50Z</time>
      </trkpt>
      <trkpt lat="43.2085950" lon="-0.9057170">
        <ele>156.6</ele>
        <time>2020-07-26T09:06:56Z</time>
      </trkpt>
      <trkpt lat="43.2086660" lon="-0.9056880">
        <ele>156.7</ele>
        <time>2020-07-26T09:06:57Z</time>
      </trkpt>
      <trkpt lat="43.2087690" lon="-0.9055760">
        <ele>157.1</ele>
        <time>2020-07-26T09:06:59Z</time>
      </trkpt>
      <trkpt lat="43.2088520" lon="-0.9054370">
        <ele>157.4</ele>
        <time>2020-07-26T09:07:01Z</time>
      </trkpt>
      <trkpt lat="43.2090000" lon="-0.9051630">
        <ele>157.9</ele>
        <time>2020-07-26T09:07:05Z</time>
      </trkpt>
      <trkpt lat="43.2090430" lon="-0.9051060">
        <ele>158.0</ele>
        <time>2020-07-26T09:07:06Z</time>
      </trkpt>
      <trkpt lat="43.2092440" lon="-0.9049030">
        <ele>158.2</ele>
        <time>2020-07-26T09:07:10Z</time>
      </trkpt>
      <trkpt lat="43.2096140" lon="-0.9045550">
        <ele>158.7</ele>
        <time>2020-07-26T09:07:17Z</time>
      </trkpt>
      <trkpt lat="43.2098340" lon="-0.9043460">
        <ele>159.0</ele>
        <time>2020-07-26T09:07:21Z</time>
      </trkpt>
      <trkpt lat="43.2099430" lon="-0.9042560">
        <ele>159.2</ele>
        <time>2020-07-26T09:07:23Z</time>
      </trkpt>
      <trkpt lat="43.2102700" lon="-0.9039800">
        <ele>159.3</ele>
        <time>2020-07-26T09:07:29Z</time>
      </trkpt>
      <trkpt lat="43.2106020" lon="-0.9036600">
        <ele>158.6</ele>
        <time>2020-07-26T09:07:35Z</time>
      </trkpt>
      <trkpt lat="43.2109300" lon="-0.9033480">
        <ele>157.6</ele>
        <time>2020-07-26T09:07:40Z</time>
      </trkpt>
      <trkpt lat="43.2114320" lon="-0.9028830">
        <ele>155.5</ele>
        <time>2020-07-26T09:07:47Z</time>
      </trkpt>
      <trkpt lat="43.2115090" lon="-0.9028130">
        <ele>155.2</ele>
        <time>2020-07-26T09:07:48Z</time>
      </trkpt>
      <trkpt lat="43.2115870" lon="-0.9027430">
        <ele>154.9</ele>
        <time>2020-07-26T09:07:49Z</time>
      </trkpt>
      <trkpt lat="43.2119780" lon="-0.9023850">
        <ele>153.9</ele>
        <time>2020-07-26T09:07:54Z</time>
      </trkpt>
      <trkpt lat="43.2121250" lon="-0.9022430">
        <ele>153.7</ele>
        <time>2020-07-26T09:07:56Z</time>
      </trkpt>
      <trkpt lat="43.2123350" lon="-0.9020380">
        <ele>153.7</ele>
        <time>2020-07-26T09:07:59Z</time>
      </trkpt>
      <trkpt lat="43.2124580" lon="-0.9018910">
        <ele>153.7</ele>
        <time>2020-07-26T09:08:01Z</time>
      </trkpt>
      <trkpt lat="43.2125140" lon="-0.9018120">
        <ele>153.7</ele>
        <time>2020-07-26T09:08:02Z</time>
      </trkpt>
      <trkpt lat="43.2128840" lon="-0.9012450">
        <ele>153.5</ele>
        <time>2020-07-26T09:08:09Z</time>
      </trkpt>
      <trkpt lat="43.2129880" lon="-0.9010900">
        <ele>153.4</ele>
        <time>2020-07-26T09:08:11Z</time>
      </trkpt>
      <trkpt lat="43.2133270" lon="-0.9005620">
        <ele>153.3</ele>
        <time>2020-07-26T09:08:18Z</time>
      </trkpt>
      <trkpt lat="43.2133710" lon="-0.9004840">
        <ele>153.2</ele>
        <time>2020-07-26T09:08:19Z</time>
      </trkpt>
      <trkpt lat="43.2134750" lon="-0.9002330">
        <ele>152.9</ele>
        <time>2020-07-26T09:08:22Z</time>
      </trkpt>
      <trkpt lat="43.2137480" lon="-0.8995220">
        <ele>152.1</ele>
        <time>2020-07-26T09:08:30Z</time>
      </trkpt>
      <trkpt lat="43.2138510" lon="-0.8992510">
        <ele>151.7</ele>
        <time>2020-07-26T09:08:33Z</time>
      </trkpt>
      <trkpt lat="43.2141010" lon="-0.8986040">
        <ele>151.0</ele>
        <time>2020-07-26T09:08:40Z</time>
      </trkpt>
      <trkpt lat="43.2143820" lon="-0.8978840">
        <ele>151.1</ele>
        <time>2020-07-26T09:08:48Z</time>
      </trkpt>
      <trkpt lat="43.2144480" lon="-0.8977140">
        <ele>151.1</ele>
        <time>2020-07-26T09:08:50Z</time>
      </trkpt>
      <trkpt lat="43.2147210" lon="-0.8970410">
        <ele>150.6</ele>
        <time>2020-07-26T09:08:58Z</time>
      </trkpt>
      <trkpt lat="43.2149350" lon="-0.8965560">
        <ele>150.4</ele>
        <time>2020-07-26T09:09:04Z</time>
      </trkpt>
      <trkpt lat="43.2149830" lon="-0.8964900">
        <ele>150.3</ele>
        <time>2020-07-26T09:09:05Z</time>
      </trkpt>
      <trkpt lat="43.2153610" lon="-0.8960870">
        <ele>150.2</ele>
        <time>2020-07-26T09:09:12Z</time>
      </trkpt>
      <trkpt lat="43.2157550" lon="-0.8956820">
        <ele>150.0</ele>
        <time>2020-07-26T09:09:19Z</time>
      </trkpt>
      <trkpt lat="43.2158730" lon="-0.8955640">
        <ele>149.8</ele>
        <time>2020-07-26T09:09:21Z</time>
      </trkpt>
      <trkpt lat="43.2163400" lon="-0.8950810">
        <ele>148.9</ele>
        <time>2020-07-26T09:09:29Z</time>
      </trkpt>
      <trkpt lat="43.2167680" lon="-0.8946260">
        <ele>147.6</ele>
        <time>2020-07-26T09:09:36Z</time>
      </trkpt>
      <trkpt lat="43.2168910" lon="-0.8944770">
        <ele>147.5</ele>
        <time>2020-07-26T09:09:38Z</time>
      </trkpt>
      <trkpt lat="43.2169470" lon="-0.8943940">
        <ele>147.5</ele>
        <time>2020-07-26T09:09:39Z</time>
      </trkpt>
      <trkpt lat="43.2170250" lon="-0.8941970">
        <ele>147.6</ele>
        <time>2020-07-26T09:09:41Z</time>
      </trkpt>
      <trkpt lat="43.2170850" lon="-0.8940010">
        <ele>146.9</ele>
        <time>2020-07-26T09:09:43Z</time>
      </trkpt>
      <trkpt lat="43.2171330" lon="-0.8939240">
        <ele>146.8</ele>
        <time>2020-07-26T09:09:44Z</time>
      </trkpt>
      <trkpt lat="43.2172530" lon="-0.8938060">
        <ele>146.5</ele>
        <time>2020-07-26T09:09:46Z</time>
      </trkpt>
      <trkpt lat="43.2173680" lon="-0.8936720">
        <ele>146.1</ele>
        <time>2020-07-26T09:09:48Z</time>
      </trkpt>
      <trkpt lat="43.2176180" lon="-0.8932530">
        <ele>144.9</ele>
        <time>2020-07-26T09:09:53Z</time>
      </trkpt>
      <trkpt lat="43.2179340" lon="-0.8927420">
        <ele>144.2</ele>
        <time>2020-07-26T09:09:59Z</time>
      </trkpt>
      <trkpt lat="43.2179790" lon="-0.8926550">
        <ele>144.1</ele>
        <time>2020-07-26T09:10:00Z</time>
      </trkpt>
      <trkpt lat="43.2182220" lon="-0.8922230">
        <ele>143.8</ele>
        <time>2020-07-26T09:10:05Z</time>
      </trkpt>
      <trkpt lat="43.2185660" lon="-0.8917260">
        <ele>143.4</ele>
        <time>2020-07-26T09:10:11Z</time>
      </trkpt>
      <trkpt lat="43.2186230" lon="-0.8916410">
        <ele>143.3</ele>
        <time>2020-07-26T09:10:12Z</time>
      </trkpt>
      <trkpt lat="43.2189230" lon="-0.8911320">
        <ele>143.3</ele>
        <time>2020-07-26T09:10:18Z</time>
      </trkpt>
      <trkpt lat="43.2192290" lon="-0.8906790">
        <ele>142.9</ele>
        <time>2020-07-26T09:10:24Z</time>
      </trkpt>
      <trkpt lat="43.2195550" lon="-0.8902570">
        <ele>142.9</ele>
        <time>2020-07-26T09:10:30Z</time>
      </trkpt>
      <trkpt lat="43.2197460" lon="-0.8900330">
        <ele>143.1</ele>
        <time>2020-07-26T09:10:34Z</time>
      </trkpt>
      <trkpt lat="43.2197840" lon="-0.8900020">
        <ele>143.1</ele>
        <time>2020-07-26T09:10:35Z</time>
      </trkpt>
      <trkpt lat="43.2203970" lon="-0.8896810">
        <ele>142.3</ele>
        <time>2020-07-26T09:11:16Z</time>
      </trkpt>
      <trkpt lat="43.2204950" lon="-0.8896190">
        <ele>142.3</ele>
        <time>2020-07-26T09:11:18Z</time>
      </trkpt>
      <trkpt lat="43.2205470" lon="-0.8895850">
        <ele>142.3</ele>
        <time>2020-07-26T09:11:19Z</time>
      </trkpt>
      <trkpt lat="43.2208980" lon="-0.8893430">
        <ele>142.2</ele>
        <time>2020-07-26T09:11:26Z</time>
      </trkpt>
      <trkpt lat="43.2210510" lon="-0.8892400">
        <ele>142.2</ele>
        <time>2020-07-26T09:11:29Z</time>
      </trkpt>
      <trkpt lat="43.2211970" lon="-0.8891350">
        <ele>142.1</ele>
        <time>2020-07-26T09:11:32Z</time>
      </trkpt>
      <trkpt lat="43.2212430" lon="-0.8891070">
        <ele>142.1</ele>
        <time>2020-07-26T09:11:33Z</time>
      </trkpt>
      <trkpt lat="43.2213240" lon="-0.8890590">
        <ele>142.1</ele>
        <time>2020-07-26T09:11:35Z</time>
      </trkpt>
      <trkpt lat="43.2214490" lon="-0.8889620">
        <ele>142.0</ele>
        <time>2020-07-26T09:11:38Z</time>
      </trkpt>
      <trkpt lat="43.2215940" lon="-0.8888710">
        <ele>142.0</ele>
        <time>2020-07-26T09:11:41Z</time>
      </trkpt>
      <trkpt lat="43.2217360" lon="-0.8887670">
        <ele>142.2</ele>
        <time>2020-07-26T09:11:44Z</time>
      </trkpt>
      <trkpt lat="43.2218860" lon="-0.8888020">
        <ele>142.5</ele>
        <time>2020-07-26T09:11:47Z</time>
      </trkpt>
      <trkpt lat="43.2219920" lon="-0.8889910">
        <ele>142.4</ele>
        <time>2020-07-26T09:11:50Z</time>
      </trkpt>
      <trkpt lat="43.2220210" lon="-0.8890630">
        <ele>142.4</ele>
        <time>2020-07-26T09:11:51Z</time>
      </trkpt>
      <trkpt lat="43.2222160" lon="-0.8894970">
        <ele>142.2</ele>
        <time>2020-07-26T09:11:57Z</time>
      </trkpt>
      <trkpt lat="43.2224380" lon="-0.8900480">
        <ele>142.3</ele>
        <time>2020-07-26T09:12:04Z</time>
      </trkpt>
      <trkpt lat="43.2226430" lon="-0.8905570">
        <ele>143.0</ele>
        <time>2020-07-26T09:12:11Z</time>
      </trkpt>
      <trkpt lat="43.2228740" lon="-0.8910940">
        <ele>142.4</ele>
        <time>2020-07-26T09:12:19Z</time>
      </trkpt>
      <trkpt lat="43.2229840" lon="-0.8912040">
        <ele>142.2</ele>
        <time>2020-07-26T09:12:22Z</time>
      </trkpt>
      <trkpt lat="43.2230790" lon="-0.8911160">
        <ele>141.9</ele>
        <time>2020-07-26T09:12:25Z</time>
      </trkpt>
      <trkpt lat="43.2231100" lon="-0.8910590">
        <ele>141.8</ele>
        <time>2020-07-26T09:12:26Z</time>
      </trkpt>
      <trkpt lat="43.2232620" lon="-0.8908010">
        <ele>141.7</ele>
        <time>2020-07-26T09:12:30Z</time>
      </trkpt>
      <trkpt lat="43.2235350" lon="-0.8903600">
        <ele>141.8</ele>
        <time>2020-07-26T09:12:36Z</time>
      </trkpt>
      <trkpt lat="43.2238700" lon="-0.8898230">
        <ele>141.9</ele>
        <time>2020-07-26T09:12:43Z</time>
      </trkpt>
      <trkpt lat="43.2239170" lon="-0.8897500">
        <ele>142.0</ele>
        <time>2020-07-26T09:12:44Z</time>
      </trkpt>
      <trkpt lat="43.2241570" lon="-0.8893500">
        <ele>141.4</ele>
        <time>2020-07-26T09:12:50Z</time>
      </trkpt>
      <trkpt lat="43.2243940" lon="-0.8889240">
        <ele>140.9</ele>
        <time>2020-07-26T09:12:56Z</time>
      </trkpt>
      <trkpt lat="43.2246890" lon="-0.8883280">
        <ele>140.8</ele>
        <time>2020-07-26T09:13:04Z</time>
      </trkpt>
      <trkpt lat="43.2249000" lon="-0.8880000">
        <ele>140.1</ele>
        <time>2020-07-26T09:13:09Z</time>
      </trkpt>
      <trkpt lat="43.2251430" lon="-0.8875280">
        <ele>139.9</ele>
        <time>2020-07-26T09:13:15Z</time>
      </trkpt>
      <trkpt lat="43.2252700" lon="-0.8872850">
        <ele>139.8</ele>
        <time>2020-07-26T09:13:18Z</time>
      </trkpt>
      <trkpt lat="43.2254890" lon="-0.8868730">
        <ele>139.6</ele>
        <time>2020-07-26T09:13:23Z</time>
      </trkpt>
      <trkpt lat="43.2258200" lon="-0.8862400">
        <ele>139.4</ele>
        <time>2020-07-26T09:13:31Z</time>
      </trkpt>
      <trkpt lat="43.2259600" lon="-0.8859750">
        <ele>139.3</ele>
        <time>2020-07-26T09:13:35Z</time>
      </trkpt>
      <trkpt lat="43.2262500" lon="-0.8854730">
        <ele>139.1</ele>
        <time>2020-07-26T09:30:22Z</time>
      </trkpt>
      <trkpt lat="43.2262450" lon="-0.8855070">
        <ele>139.1</ele>
        <time>2020-07-26T09:30:23Z</time>
      </trkpt>
      <trkpt lat="43.2262070" lon="-0.8855810">
        <ele>139.1</ele>
        <time>2020-07-26T09:30:25Z</time>
      </trkpt>
      <trkpt lat="43.2261200" lon="-0.8857470">
        <ele>139.1</ele>
        <time>2020-07-26T09:30:29Z</time>
      </trkpt>
      <trkpt lat="43.2261010" lon="-0.8857940">
        <ele>139.2</ele>
        <time>2020-07-26T09:30:30Z</time>
      </trkpt>
      <trkpt lat="43.2258920" lon="-0.8862160">
        <ele>139.4</ele>
        <time>2020-07-26T09:30:39Z</time>
      </trkpt>
      <trkpt lat="43.2256940" lon="-0.8865930">
        <ele>139.4</ele>
        <time>2020-07-26T09:30:46Z</time>
      </trkpt>
      <trkpt lat="43.2254860" lon="-0.8869970">
        <ele>139.6</ele>
        <time>2020-07-26T09:30:53Z</time>
      </trkpt>
      <trkpt lat="43.2252330" lon="-0.8874850">
        <ele>139.8</ele>
        <time>2020-07-26T09:31:01Z</time>
      </trkpt>
      <trkpt lat="43.2249460" lon="-0.8880240">
        <ele>140.1</ele>
        <time>2020-07-26T09:31:10Z</time>
      </trkpt>
      <trkpt lat="43.2248580" lon="-0.8881920">
        <ele>140.3</ele>
        <time>2020-07-26T09:31:13Z</time>
      </trkpt>
      <trkpt lat="43.2248080" lon="-0.8882930">
        <ele>140.5</ele>
        <time>2020-07-26T09:31:15Z</time>
      </trkpt>
      <trkpt lat="43.2247770" lon="-0.8883400">
        <ele>140.7</ele>
        <time>2020-07-26T09:31:16Z</time>
      </trkpt>
      <trkpt lat="43.2245820" lon="-0.8886460">
        <ele>140.8</ele>
        <time>2020-07-26T09:31:22Z</time>
      </trkpt>
      <trkpt lat="43.2244360" lon="-0.8889350">
        <ele>140.9</ele>
        <time>2020-07-26T09:31:27Z</time>
      </trkpt>
      <trkpt lat="43.2244110" lon="-0.8889870">
        <ele>140.9</ele>
        <time>2020-07-26T09:31:28Z</time>
      </trkpt>
      <trkpt lat="43.2243840" lon="-0.8890360">
        <ele>141.0</ele>
        <time>2020-07-26T09:31:29Z</time>
      </trkpt>
      <trkpt lat="43.2242570" lon="-0.8892500">
        <ele>141.2</ele>
        <time>2020-07-26T09:31:33Z</time>
      </trkpt>
      <trkpt lat="43.2240660" lon="-0.8895480">
        <ele>141.7</ele>
        <time>2020-07-26T09:31:38Z</time>
      </trkpt>
      <trkpt lat="43.2239450" lon="-0.8897040">
        <ele>142.0</ele>
        <time>2020-07-26T09:31:41Z</time>
      </trkpt>
      <trkpt lat="43.2237400" lon="-0.8900670">
        <ele>141.9</ele>
        <time>2020-07-26T09:31:47Z</time>
      </trkpt>
      <trkpt lat="43.2234810" lon="-0.8905140">
        <ele>141.8</ele>
        <time>2020-07-26T09:31:54Z</time>
      </trkpt>
      <trkpt lat="43.2231550" lon="-0.8909770">
        <ele>141.8</ele>
        <time>2020-07-26T09:32:02Z</time>
      </trkpt>
      <trkpt lat="43.2231170" lon="-0.8910350">
        <ele>141.8</ele>
        <time>2020-07-26T09:32:03Z</time>
      </trkpt>
      <trkpt lat="43.2227550" lon="-0.8915720">
        <ele>142.3</ele>
        <time>2020-07-26T09:32:12Z</time>
      </trkpt>
      <trkpt lat="43.2225120" lon="-0.8919450">
        <ele>142.5</ele>
        <time>2020-07-26T09:32:18Z</time>
      </trkpt>
      <trkpt lat="43.2220780" lon="-0.8924950">
        <ele>143.4</ele>
        <time>2020-07-26T09:32:28Z</time>
      </trkpt>
      <trkpt lat="43.2220430" lon="-0.8925480">
        <ele>143.5</ele>
        <time>2020-07-26T09:32:29Z</time>
      </trkpt>
      <trkpt lat="43.2219330" lon="-0.8927640">
        <ele>143.9</ele>
        <time>2020-07-26T09:32:33Z</time>
      </trkpt>
      <trkpt lat="43.2218380" lon="-0.8929230">
        <ele>144.3</ele>
        <time>2020-07-26T09:32:36Z</time>
      </trkpt>
      <trkpt lat="43.2217440" lon="-0.8930040">
        <ele>144.5</ele>
        <time>2020-07-26T09:32:38Z</time>
      </trkpt>
      <trkpt lat="43.2215800" lon="-0.8930250">
        <ele>144.4</ele>
        <time>2020-07-26T09:32:41Z</time>
      </trkpt>
      <trkpt lat="43.2214140" lon="-0.8929290">
        <ele>144.2</ele>
        <time>2020-07-26T09:32:44Z</time>
      </trkpt>
      <trkpt lat="43.2213550" lon="-0.8928880">
        <ele>144.1</ele>
        <time>2020-07-26T09:32:45Z</time>
      </trkpt>
      <trkpt lat="43.2210360" lon="-0.8927510">
        <ele>143.8</ele>
        <time>2020-07-26T09:32:50Z</time>
      </trkpt>
      <trkpt lat="43.2209300" lon="-0.8927300">
        <ele>143.8</ele>
        <time>2020-07-26T09:32:52Z</time>
      </trkpt>
      <trkpt lat="43.2208490" lon="-0.8926740">
        <ele>143.7</ele>
        <time>2020-07-26T09:32:54Z</time>
      </trkpt>
      <trkpt lat="43.2207660" lon="-0.8924710">
        <ele>143.2</ele>
        <time>2020-07-26T09:32:57Z</time>
      </trkpt>
      <trkpt lat="43.2207410" lon="-0.8923930">
        <ele>143.1</ele>
        <time>2020-07-26T09:32:58Z</time>
      </trkpt>
      <trkpt lat="43.2206200" lon="-0.8919860">
        <ele>142.6</ele>
        <time>2020-07-26T09:33:03Z</time>
      </trkpt>
      <trkpt lat="43.2205150" lon="-0.8916560">
        <ele>142.3</ele>
        <time>2020-07-26T09:33:07Z</time>
      </trkpt>
      <trkpt lat="43.2203180" lon="-0.8910620">
        <ele>141.9</ele>
        <time>2020-07-26T09:33:14Z</time>
      </trkpt>
      <trkpt lat="43.2202890" lon="-0.8909810">
        <ele>141.9</ele>
        <time>2020-07-26T09:33:15Z</time>
      </trkpt>
      <trkpt lat="43.2202190" lon="-0.8907380">
        <ele>142.0</ele>
        <time>2020-07-26T09:33:18Z</time>
      </trkpt>
      <trkpt lat="43.2201720" lon="-0.8905800">
        <ele>142.2</ele>
        <time>2020-07-26T09:33:20Z</time>
      </trkpt>
      <trkpt lat="43.2201190" lon="-0.8904270">
        <ele>142.3</ele>
        <time>2020-07-26T09:33:22Z</time>
      </trkpt>
      <trkpt lat="43.2199560" lon="-0.8900100">
        <ele>142.7</ele>
        <time>2020-07-26T09:33:28Z</time>
      </trkpt>
      <trkpt lat="43.2199250" lon="-0.8897940">
        <ele>142.3</ele>
        <time>2020-07-26T09:33:31Z</time>
      </trkpt>
      <trkpt lat="43.2198880" lon="-0.8896490">
        <ele>141.9</ele>
        <time>2020-07-26T09:33:33Z</time>
      </trkpt>
      <trkpt lat="43.2198370" lon="-0.8895080">
        <ele>142.3</ele>
        <time>2020-07-26T09:33:35Z</time>
      </trkpt>
      <trkpt lat="43.2198070" lon="-0.8894390">
        <ele>142.2</ele>
        <time>2020-07-26T09:33:36Z</time>
      </trkpt>
      <trkpt lat="43.2197780" lon="-0.8893690">
        <ele>142.1</ele>
        <time>2020-07-26T09:33:37Z</time>
      </trkpt>
      <trkpt lat="43.2197010" lon="-0.8890870">
        <ele>142.2</ele>
        <time>2020-07-26T09:33:41Z</time>
      </trkpt>
      <trkpt lat="43.2196750" lon="-0.8889440">
        <ele>142.3</ele>
        <time>2020-07-26T09:33:43Z</time>
      </trkpt>
      <trkpt lat="43.2196610" lon="-0.8887940">
        <ele>142.5</ele>
        <time>2020-07-26T09:33:45Z</time>
      </trkpt>
      <trkpt lat="43.2196480" lon="-0.8887220">
        <ele>142.6</ele>
        <time>2020-07-26T09:33:46Z</time>
      </trkpt>
      <trkpt lat="43.2195570" lon="-0.8885920">
        <ele>143.1</ele>
        <time>2020-07-26T09:33:49Z</time>
      </trkpt>
      <trkpt lat="43.2194420" lon="-0.8886300">
        <ele>143.1</ele>
        <time>2020-07-26T09:33:52Z</time>
      </trkpt>
      <trkpt lat="43.2193190" lon="-0.8886720">
        <ele>143.4</ele>
        <time>2020-07-26T09:33:55Z</time>
      </trkpt>
      <trkpt lat="43.2192750" lon="-0.8886890">
        <ele>143.5</ele>
        <time>2020-07-26T09:33:56Z</time>
      </trkpt>
      <trkpt lat="43.2190620" lon="-0.8887970">
        <ele>143.9</ele>
        <time>2020-07-26T09:34:01Z</time>
      </trkpt>
      <trkpt lat="43.2190130" lon="-0.8888180">
        <ele>143.9</ele>
        <time>2020-07-26T09:34:02Z</time>
      </trkpt>
      <trkpt lat="43.2189200" lon="-0.8888560">
        <ele>144.0</ele>
        <time>2020-07-26T09:34:04Z</time>
      </trkpt>
      <trkpt lat="43.2187230" lon="-0.8889540">
        <ele>143.9</ele>
        <time>2020-07-26T09:34:08Z</time>
      </trkpt>
      <trkpt lat="43.2183410" lon="-0.8891900">
        <ele>143.9</ele>
        <time>2020-07-26T09:34:15Z</time>
      </trkpt>
      <trkpt lat="43.2179990" lon="-0.8893710">
        <ele>143.9</ele>
        <time>2020-07-26T09:34:21Z</time>
      </trkpt>
      <trkpt lat="43.2177840" lon="-0.8894960">
        <ele>143.8</ele>
        <time>2020-07-26T09:34:25Z</time>
      </trkpt>
      <trkpt lat="43.2177260" lon="-0.8895390">
        <ele>143.7</ele>
        <time>2020-07-26T09:34:26Z</time>
      </trkpt>
      <trkpt lat="43.2173550" lon="-0.8898250">
        <ele>143.6</ele>
        <time>2020-07-26T09:34:33Z</time>
      </trkpt>
      <trkpt lat="43.2169760" lon="-0.8901300">
        <ele>143.6</ele>
        <time>2020-07-26T09:34:40Z</time>
      </trkpt>
      <trkpt lat="43.2166150" lon="-0.8904180">
        <ele>143.6</ele>
        <time>2020-07-26T09:34:47Z</time>
      </trkpt>
      <trkpt lat="43.2162670" lon="-0.8906820">
        <ele>143.7</ele>
        <time>2020-07-26T09:34:54Z</time>
      </trkpt>
      <trkpt lat="43.2160100" lon="-0.8908800">
        <ele>143.6</ele>
        <time>2020-07-26T09:35:00Z</time>
      </trkpt>
      <trkpt lat="43.2156880" lon="-0.8911330">
        <ele>143.7</ele>
        <time>2020-07-26T09:35:06Z</time>
      </trkpt>
      <trkpt lat="43.2155850" lon="-0.8912110">
        <ele>143.8</ele>
        <time>2020-07-26T09:35:08Z</time>
      </trkpt>
      <trkpt lat="43.2154810" lon="-0.8913010">
        <ele>143.8</ele>
        <time>2020-07-26T09:35:10Z</time>
      </trkpt>
      <trkpt lat="43.2150610" lon="-0.8916420">
        <ele>144.3</ele>
        <time>2020-07-26T09:35:18Z</time>
      </trkpt>
      <trkpt lat="43.2148460" lon="-0.8918280">
        <ele>144.6</ele>
        <time>2020-07-26T09:35:22Z</time>
      </trkpt>
      <trkpt lat="43.2146830" lon="-0.8919640">
        <ele>144.8</ele>
        <time>2020-07-26T09:35:25Z</time>
      </trkpt>
      <trkpt lat="43.2142130" lon="-0.8923600">
        <ele>145.2</ele>
        <time>2020-07-26T09:35:34Z</time>
      </trkpt>
      <trkpt lat="43.2141640" lon="-0.8924030">
        <ele>145.2</ele>
        <time>2020-07-26T09:35:35Z</time>
      </trkpt>
      <trkpt lat="43.2140700" lon="-0.8924930">
        <ele>145.2</ele>
        <time>2020-07-26T09:35:37Z</time>
      </trkpt>
      <trkpt lat="43.2139360" lon="-0.8926430">
        <ele>145.4</ele>
        <time>2020-07-26T09:35:40Z</time>
      </trkpt>
      <trkpt lat="43.2136600" lon="-0.8927980">
        <ele>145.6</ele>
        <time>2020-07-26T09:35:45Z</time>
      </trkpt>
      <trkpt lat="43.2131910" lon="-0.8931360">
        <ele>145.9</ele>
        <time>2020-07-26T09:35:54Z</time>
      </trkpt>
      <trkpt lat="43.2129240" lon="-0.8933190">
        <ele>146.1</ele>
        <time>2020-07-26T09:35:59Z</time>
      </trkpt>
      <trkpt lat="43.2127590" lon="-0.8934350">
        <ele>146.3</ele>
        <time>2020-07-26T09:36:02Z</time>
      </trkpt>
      <trkpt lat="43.2123160" lon="-0.8937390">
        <ele>146.8</ele>
        <time>2020-07-26T09:36:10Z</time>
      </trkpt>
      <trkpt lat="43.2118810" lon="-0.8940820">
        <ele>147.3</ele>
        <time>2020-07-26T09:36:18Z</time>
      </trkpt>
      <trkpt lat="43.2113990" lon="-0.8944500">
        <ele>148.0</ele>
        <time>2020-07-26T09:36:27Z</time>
      </trkpt>
      <trkpt lat="43.2113440" lon="-0.8944880">
        <ele>148.1</ele>
        <time>2020-07-26T09:36:28Z</time>
      </trkpt>
      <trkpt lat="43.2108590" lon="-0.8948640">
        <ele>148.9</ele>
        <time>2020-07-26T09:36:37Z</time>
      </trkpt>
      <trkpt lat="43.2103890" lon="-0.8952380">
        <ele>147.9</ele>
        <time>2020-07-26T09:36:46Z</time>
      </trkpt>
      <trkpt lat="43.2099100" lon="-0.8956070">
        <ele>147.6</ele>
        <time>2020-07-26T09:36:55Z</time>
      </trkpt>
      <trkpt lat="43.2098550" lon="-0.8956500">
        <ele>147.6</ele>
        <time>2020-07-26T09:36:56Z</time>
      </trkpt>
      <trkpt lat="43.2093700" lon="-0.8960190">
        <ele>147.9</ele>
        <time>2020-07-26T09:37:05Z</time>
      </trkpt>
      <trkpt lat="43.2093190" lon="-0.8960590">
        <ele>147.9</ele>
        <time>2020-07-26T09:37:06Z</time>
      </trkpt>
      <trkpt lat="43.2088000" lon="-0.8964620">
        <ele>148.7</ele>
        <time>2020-07-26T09:37:16Z</time>
      </trkpt>
      <trkpt lat="43.2085360" lon="-0.8966600">
        <ele>149.3</ele>
        <time>2020-07-26T09:37:21Z</time>
      </trkpt>
      <trkpt lat="43.2082910" lon="-0.8968710">
        <ele>149.5</ele>
        <time>2020-07-26T09:37:26Z</time>
      </trkpt>
      <trkpt lat="43.2081910" lon="-0.8969450">
        <ele>149.5</ele>
        <time>2020-07-26T09:37:28Z</time>
      </trkpt>
      <trkpt lat="43.2080360" lon="-0.8970420">
        <ele>149.6</ele>
        <time>2020-07-26T09:37:31Z</time>
      </trkpt>
      <trkpt lat="43.2079370" lon="-0.8971180">
        <ele>149.7</ele>
        <time>2020-07-26T09:37:33Z</time>
      </trkpt>
      <trkpt lat="43.2076860" lon="-0.8972990">
        <ele>150.1</ele>
        <time>2020-07-26T09:37:38Z</time>
      </trkpt>
      <trkpt lat="43.2071960" lon="-0.8976610">
        <ele>151.2</ele>
        <time>2020-07-26T09:37:48Z</time>
      </trkpt>
      <trkpt lat="43.2071480" lon="-0.8976980">
        <ele>151.2</ele>
        <time>2020-07-26T09:37:49Z</time>
      </trkpt>
      <trkpt lat="43.2070540" lon="-0.8977740">
        <ele>151.4</ele>
        <time>2020-07-26T09:37:51Z</time>
      </trkpt>
      <trkpt lat="43.2067720" lon="-0.8980070">
        <ele>152.2</ele>
        <time>2020-07-26T09:37:57Z</time>
      </trkpt>
      <trkpt lat="43.2065810" lon="-0.8981530">
        <ele>152.6</ele>
        <time>2020-07-26T09:38:01Z</time>
      </trkpt>
      <trkpt lat="43.2065330" lon="-0.8981890">
        <ele>152.7</ele>
        <time>2020-07-26T09:38:02Z</time>
      </trkpt>
      <trkpt lat="43.2061470" lon="-0.8984820">
        <ele>153.3</ele>
        <time>2020-07-26T09:38:10Z</time>
      </trkpt>
      <trkpt lat="43.2061000" lon="-0.8985190">
        <ele>153.4</ele>
        <time>2020-07-26T09:38:11Z</time>
      </trkpt>
      <trkpt lat="43.2056540" lon="-0.8988640">
        <ele>153.9</ele>
        <time>2020-07-26T09:38:20Z</time>
      </trkpt>
      <trkpt lat="43.2051440" lon="-0.8992560">
        <ele>154.3</ele>
        <time>2020-07-26T09:38:30Z</time>
      </trkpt>
      <trkpt lat="43.2046370" lon="-0.8996470">
        <ele>154.4</ele>
        <time>2020-07-26T09:38:40Z</time>
      </trkpt>
      <trkpt lat="43.2045860" lon="-0.8996850">
        <ele>154.4</ele>
        <time>2020-07-26T09:38:41Z</time>
      </trkpt>
      <trkpt lat="43.2040790" lon="-0.9000760">
        <ele>154.6</ele>
        <time>2020-07-26T09:38:51Z</time>
      </trkpt>
      <trkpt lat="43.2038760" lon="-0.9002360">
        <ele>154.8</ele>
        <time>2020-07-26T09:38:55Z</time>
      </trkpt>
      <trkpt lat="43.2035700" lon="-0.9004690">
        <ele>155.0</ele>
        <time>2020-07-26T09:39:01Z</time>
      </trkpt>
      <trkpt lat="43.2031530" lon="-0.9007870">
        <ele>155.1</ele>
        <time>2020-07-26T09:39:09Z</time>
      </trkpt>
      <trkpt lat="43.2028380" lon="-0.9010280">
        <ele>155.4</ele>
        <time>2020-07-26T09:39:15Z</time>
      </trkpt>
      <trkpt lat="43.2025300" lon="-0.9012690">
        <ele>155.8</ele>
        <time>2020-07-26T09:39:21Z</time>
      </trkpt>
      <trkpt lat="43.2020720" lon="-0.9016230">
        <ele>156.4</ele>
        <time>2020-07-26T09:39:30Z</time>
      </trkpt>
      <trkpt lat="43.2018480" lon="-0.9018530">
        <ele>157.1</ele>
        <time>2020-07-26T09:39:35Z</time>
      </trkpt>
      <trkpt lat="43.2018020" lon="-0.9018930">
        <ele>157.2</ele>
        <time>2020-07-26T09:39:36Z</time>
      </trkpt>
      <trkpt lat="43.2017550" lon="-0.9019310">
        <ele>157.3</ele>
        <time>2020-07-26T09:39:37Z</time>
      </trkpt>
      <trkpt lat="43.2015730" lon="-0.9020930">
        <ele>157.8</ele>
        <time>2020-07-26T09:39:41Z</time>
      </trkpt>
      <trkpt lat="43.2014800" lon="-0.9021660">
        <ele>158.1</ele>
        <time>2020-07-26T09:39:43Z</time>
      </trkpt>
      <trkpt lat="43.2014340" lon="-0.9021960">
        <ele>158.3</ele>
        <time>2020-07-26T09:39:44Z</time>
      </trkpt>
      <trkpt lat="43.2012860" lon="-0.9022610">
        <ele>158.8</ele>
        <time>2020-07-26T09:39:47Z</time>
      </trkpt>
      <trkpt lat="43.2012360" lon="-0.9022710">
        <ele>159.0</ele>
        <time>2020-07-26T09:39:48Z</time>
      </trkpt>
      <trkpt lat="43.2011830" lon="-0.9022800">
        <ele>159.2</ele>
        <time>2020-07-26T09:39:49Z</time>
      </trkpt>
      <trkpt lat="43.2007590" lon="-0.9023480">
        <ele>160.1</ele>
        <time>2020-07-26T09:39:57Z</time>
      </trkpt>
      <trkpt lat="43.2002080" lon="-0.9024500">
        <ele>161.0</ele>
        <time>2020-07-26T09:40:07Z</time>
      </trkpt>
      <trkpt lat="43.1999970" lon="-0.9024930">
        <ele>161.3</ele>
        <time>2020-07-26T09:40:11Z</time>
      </trkpt>
      <trkpt lat="43.1997430" lon="-0.9025470">
        <ele>161.9</ele>
        <time>2020-07-26T09:40:16Z</time>
      </trkpt>
      <trkpt lat="43.1996410" lon="-0.9025760">
        <ele>162.0</ele>
        <time>2020-07-26T09:40:18Z</time>
      </trkpt>
      <trkpt lat="43.1995920" lon="-0.9025970">
        <ele>162.0</ele>
        <time>2020-07-26T09:40:19Z</time>
      </trkpt>
      <trkpt lat="43.1993830" lon="-0.9027030">
        <ele>162.0</ele>
        <time>2020-07-26T09:40:23Z</time>
      </trkpt>
      <trkpt lat="43.1989960" lon="-0.9029140">
        <ele>161.1</ele>
        <time>2020-07-26T09:40:29Z</time>
      </trkpt>
      <trkpt lat="43.1985100" lon="-0.9031320">
        <ele>160.5</ele>
        <time>2020-07-26T09:40:36Z</time>
      </trkpt>
      <trkpt lat="43.1984400" lon="-0.9031440">
        <ele>160.4</ele>
        <time>2020-07-26T09:40:37Z</time>
      </trkpt>
      <trkpt lat="43.1983700" lon="-0.9031550">
        <ele>160.4</ele>
        <time>2020-07-26T09:40:38Z</time>
      </trkpt>
      <trkpt lat="43.1981640" lon="-0.9031680">
        <ele>160.3</ele>
        <time>2020-07-26T09:40:41Z</time>
      </trkpt>
      <trkpt lat="43.1979620" lon="-0.9031510">
        <ele>160.2</ele>
        <time>2020-07-26T09:40:44Z</time>
      </trkpt>
      <trkpt lat="43.1975560" lon="-0.9031630">
        <ele>160.2</ele>
        <time>2020-07-26T09:40:50Z</time>
      </trkpt>
      <trkpt lat="43.1970320" lon="-0.9031980">
        <ele>160.4</ele>
        <time>2020-07-26T09:40:58Z</time>
      </trkpt>
      <trkpt lat="43.1964600" lon="-0.9032110">
        <ele>160.7</ele>
        <time>2020-07-26T09:41:07Z</time>
      </trkpt>
      <trkpt lat="43.1963970" lon="-0.9032120">
        <ele>160.7</ele>
        <time>2020-07-26T09:41:08Z</time>
      </trkpt>
      <trkpt lat="43.1958270" lon="-0.9032250">
        <ele>161.0</ele>
        <time>2020-07-26T09:41:17Z</time>
      </trkpt>
      <trkpt lat="43.1956370" lon="-0.9032310">
        <ele>161.1</ele>
        <time>2020-07-26T09:41:20Z</time>
      </trkpt>
      <trkpt lat="43.1952550" lon="-0.9032440">
        <ele>161.4</ele>
        <time>2020-07-26T09:41:26Z</time>
      </trkpt>
      <trkpt lat="43.1949390" lon="-0.9032530">
        <ele>161.5</ele>
        <time>2020-07-26T09:41:31Z</time>
      </trkpt>
      <trkpt lat="43.1943630" lon="-0.9032740">
        <ele>161.9</ele>
        <time>2020-07-26T09:41:40Z</time>
      </trkpt>
      <trkpt lat="43.1941040" lon="-0.9032830">
        <ele>161.7</ele>
        <time>2020-07-26T09:41:44Z</time>
      </trkpt>
      <trkpt lat="43.1935280" lon="-0.9033020">
        <ele>161.6</ele>
        <time>2020-07-26T09:41:53Z</time>
      </trkpt>
      <trkpt lat="43.1932140" lon="-0.9033160">
        <ele>161.7</ele>
        <time>2020-07-26T09:41:58Z</time>
      </trkpt>
      <trkpt lat="43.1926520" lon="-0.9033390">
        <ele>162.0</ele>
        <time>2020-07-26T09:42:07Z</time>
      </trkpt>
      <trkpt lat="43.1924650" lon="-0.9033600">
        <ele>162.1</ele>
        <time>2020-07-26T09:42:10Z</time>
      </trkpt>
      <trkpt lat="43.1924030" lon="-0.9033590">
        <ele>162.2</ele>
        <time>2020-07-26T09:42:11Z</time>
      </trkpt>
      <trkpt lat="43.1920980" lon="-0.9033600">
        <ele>162.7</ele>
        <time>2020-07-26T09:42:16Z</time>
      </trkpt>
      <trkpt lat="43.1917390" lon="-0.9033820">
        <ele>163.4</ele>
        <time>2020-07-26T09:42:22Z</time>
      </trkpt>
      <trkpt lat="43.1913890" lon="-0.9033960">
        <ele>164.1</ele>
        <time>2020-07-26T09:42:28Z</time>
      </trkpt>
      <trkpt lat="43.1912110" lon="-0.9034230">
        <ele>164.3</ele>
        <time>2020-07-26T09:42:31Z</time>
      </trkpt>
      <trkpt lat="43.1907540" lon="-0.9034430">
        <ele>165.2</ele>
        <time>2020-07-26T09:42:39Z</time>
      </trkpt>
      <trkpt lat="43.1902590" lon="-0.9034280">
        <ele>165.5</ele>
        <time>2020-07-26T09:42:48Z</time>
      </trkpt>
      <trkpt lat="43.1900860" lon="-0.9034300">
        <ele>165.4</ele>
        <time>2020-07-26T09:42:51Z</time>
      </trkpt>
      <trkpt lat="43.1897080" lon="-0.9034090">
        <ele>165.2</ele>
        <time>2020-07-26T09:42:57Z</time>
      </trkpt>
      <trkpt lat="43.1891050" lon="-0.9033710">
        <ele>164.9</ele>
        <time>2020-07-26T09:43:06Z</time>
      </trkpt>
      <trkpt lat="43.1888210" lon="-0.9033510">
        <ele>164.7</ele>
        <time>2020-07-26T09:43:10Z</time>
      </trkpt>
      <trkpt lat="43.1886780" lon="-0.9033300">
        <ele>164.7</ele>
        <time>2020-07-26T09:43:12Z</time>
      </trkpt>
      <trkpt lat="43.1881930" lon="-0.9033120">
        <ele>164.8</ele>
        <time>2020-07-26T09:43:19Z</time>
      </trkpt>
      <trkpt lat="43.1875950" lon="-0.9032860">
        <ele>165.2</ele>
        <time>2020-07-26T09:43:28Z</time>
      </trkpt>
      <trkpt lat="43.1875310" lon="-0.9032800">
        <ele>165.2</ele>
        <time>2020-07-26T09:43:29Z</time>
      </trkpt>
      <trkpt lat="43.1869650" lon="-0.9032350">
        <ele>165.6</ele>
        <time>2020-07-26T09:43:38Z</time>
      </trkpt>
      <trkpt lat="43.1866510" lon="-0.9032120">
        <ele>165.8</ele>
        <time>2020-07-26T09:43:43Z</time>
      </trkpt>
      <trkpt lat="43.1861070" lon="-0.9031720">
        <ele>166.5</ele>
        <time>2020-07-26T09:43:52Z</time>
      </trkpt>
      <trkpt lat="43.1859900" lon="-0.9031630">
        <ele>166.6</ele>
        <time>2020-07-26T09:43:54Z</time>
      </trkpt>
      <trkpt lat="43.1855080" lon="-0.9031230">
        <ele>166.8</ele>
        <time>2020-07-26T09:44:02Z</time>
      </trkpt>
      <trkpt lat="43.1853230" lon="-0.9031060">
        <ele>166.9</ele>
        <time>2020-07-26T09:44:05Z</time>
      </trkpt>
      <trkpt lat="43.1847700" lon="-0.9030660">
        <ele>167.4</ele>
        <time>2020-07-26T09:44:14Z</time>
      </trkpt>
      <trkpt lat="43.1846490" lon="-0.9030550">
        <ele>167.4</ele>
        <time>2020-07-26T09:44:16Z</time>
      </trkpt>
      <trkpt lat="43.1841020" lon="-0.9030220">
        <ele>167.8</ele>
        <time>2020-07-26T09:44:25Z</time>
      </trkpt>
      <trkpt lat="43.1839800" lon="-0.9030140">
        <ele>167.9</ele>
        <time>2020-07-26T09:44:27Z</time>
      </trkpt>
      <trkpt lat="43.1836580" lon="-0.9029880">
        <ele>167.6</ele>
        <time>2020-07-26T09:44:32Z</time>
      </trkpt>
      <trkpt lat="43.1833260" lon="-0.9029620">
        <ele>167.5</ele>
        <time>2020-07-26T09:44:37Z</time>
      </trkpt>
      <trkpt lat="43.1827230" lon="-0.9029230">
        <ele>167.6</ele>
        <time>2020-07-26T09:44:46Z</time>
      </trkpt>
      <trkpt lat="43.1825240" lon="-0.9029090">
        <ele>167.6</ele>
        <time>2020-07-26T09:44:49Z</time>
      </trkpt>
      <trkpt lat="43.1819180" lon="-0.9028690">
        <ele>167.6</ele>
        <time>2020-07-26T09:44:58Z</time>
      </trkpt>
      <trkpt lat="43.1817830" lon="-0.9028600">
        <ele>167.6</ele>
        <time>2020-07-26T09:45:00Z</time>
      </trkpt>
      <trkpt lat="43.1812390" lon="-0.9028160">
        <ele>167.7</ele>
        <time>2020-07-26T09:45:08Z</time>
      </trkpt>
      <trkpt lat="43.1809750" lon="-0.9027830">
        <ele>168.1</ele>
        <time>2020-07-26T09:45:12Z</time>
      </trkpt>
      <trkpt lat="43.1804840" lon="-0.9026350">
        <ele>169.0</ele>
        <time>2020-07-26T09:45:20Z</time>
      </trkpt>
      <trkpt lat="43.1801830" lon="-0.9024380">
        <ele>170.2</ele>
        <time>2020-07-26T09:45:26Z</time>
      </trkpt>
      <trkpt lat="43.1801380" lon="-0.9024030">
        <ele>170.4</ele>
        <time>2020-07-26T09:45:27Z</time>
      </trkpt>
      <trkpt lat="43.1800950" lon="-0.9023700">
        <ele>170.6</ele>
        <time>2020-07-26T09:45:28Z</time>
      </trkpt>
      <trkpt lat="43.1800570" lon="-0.9023310">
        <ele>170.8</ele>
        <time>2020-07-26T09:45:29Z</time>
      </trkpt>
      <trkpt lat="43.1799810" lon="-0.9022570">
        <ele>171.2</ele>
        <time>2020-07-26T09:45:31Z</time>
      </trkpt>
      <trkpt lat="43.1798720" lon="-0.9021510">
        <ele>171.8</ele>
        <time>2020-07-26T09:45:34Z</time>
      </trkpt>
      <trkpt lat="43.1796770" lon="-0.9019360">
        <ele>172.8</ele>
        <time>2020-07-26T09:45:40Z</time>
      </trkpt>
      <trkpt lat="43.1794780" lon="-0.9017270">
        <ele>173.9</ele>
        <time>2020-07-26T09:45:46Z</time>
      </trkpt>
      <trkpt lat="43.1793640" lon="-0.9016440">
        <ele>174.4</ele>
        <time>2020-07-26T09:45:49Z</time>
      </trkpt>
      <trkpt lat="43.1792020" lon="-0.9015690">
        <ele>175.0</ele>
        <time>2020-07-26T09:45:53Z</time>
      </trkpt>
      <trkpt lat="43.1790790" lon="-0.9015340">
        <ele>175.4</ele>
        <time>2020-07-26T09:45:56Z</time>
      </trkpt>
      <trkpt lat="43.1789140" lon="-0.9015310">
        <ele>176.2</ele>
        <time>2020-07-26T09:46:00Z</time>
      </trkpt>
      <trkpt lat="43.1787430" lon="-0.9015410">
        <ele>176.6</ele>
        <time>2020-07-26T09:46:04Z</time>
      </trkpt>
      <trkpt lat="43.1786160" lon="-0.9015470">
        <ele>176.9</ele>
        <time>2020-07-26T09:46:07Z</time>
      </trkpt>
      <trkpt lat="43.1784370" lon="-0.9015530">
        <ele>177.5</ele>
        <time>2020-07-26T09:46:11Z</time>
      </trkpt>
      <trkpt lat="43.1783470" lon="-0.9015490">
        <ele>177.7</ele>
        <time>2020-07-26T09:46:13Z</time>
      </trkpt>
      <trkpt lat="43.1780750" lon="-0.9015140">
        <ele>178.4</ele>
        <time>2020-07-26T09:46:19Z</time>
      </trkpt>
      <trkpt lat="43.1779940" lon="-0.9014850">
        <ele>178.5</ele>
        <time>2020-07-26T09:46:21Z</time>
      </trkpt>
      <trkpt lat="43.1779540" lon="-0.9014650">
        <ele>178.6</ele>
        <time>2020-07-26T09:46:22Z</time>
      </trkpt>
      <trkpt lat="43.1777270" lon="-0.9013430">
        <ele>178.7</ele>
        <time>2020-07-26T09:46:27Z</time>
      </trkpt>
      <trkpt lat="43.1774140" lon="-0.9010630">
        <ele>178.7</ele>
        <time>2020-07-26T09:46:34Z</time>
      </trkpt>
      <trkpt lat="43.1773250" lon="-0.9009620">
        <ele>178.6</ele>
        <time>2020-07-26T09:46:36Z</time>
      </trkpt>
      <trkpt lat="43.1771770" lon="-0.9008060">
        <ele>178.5</ele>
        <time>2020-07-26T09:46:39Z</time>
      </trkpt>
      <trkpt lat="43.1770790" lon="-0.9007060">
        <ele>178.4</ele>
        <time>2020-07-26T09:46:41Z</time>
      </trkpt>
      <trkpt lat="43.1769840" lon="-0.9006040">
        <ele>178.3</ele>
        <time>2020-07-26T09:46:43Z</time>
      </trkpt>
      <trkpt lat="43.1769300" lon="-0.9005610">
        <ele>178.2</ele>
        <time>2020-07-26T09:46:44Z</time>
      </trkpt>
      <trkpt lat="43.1765100" lon="-0.9002550">
        <ele>177.1</ele>
        <time>2020-07-26T09:46:51Z</time>
      </trkpt>
      <trkpt lat="43.1761690" lon="-0.9000620">
        <ele>176.1</ele>
        <time>2020-07-26T09:46:56Z</time>
      </trkpt>
      <trkpt lat="43.1759480" lon="-0.8999510">
        <ele>175.9</ele>
        <time>2020-07-26T09:46:59Z</time>
      </trkpt>
      <trkpt lat="43.1754500" lon="-0.8997480">
        <ele>176.0</ele>
        <time>2020-07-26T09:47:06Z</time>
      </trkpt>
      <trkpt lat="43.1750040" lon="-0.8995830">
        <ele>176.9</ele>
        <time>2020-07-26T09:47:13Z</time>
      </trkpt>
      <trkpt lat="43.1745630" lon="-0.8993830">
        <ele>178.3</ele>
        <time>2020-07-26T09:47:21Z</time>
      </trkpt>
      <trkpt lat="43.1744190" lon="-0.8993120">
        <ele>179.0</ele>
        <time>2020-07-26T09:47:24Z</time>
      </trkpt>
      <trkpt lat="43.1741950" lon="-0.8991860">
        <ele>180.3</ele>
        <time>2020-07-26T09:47:29Z</time>
      </trkpt>
      <trkpt lat="43.1739800" lon="-0.8990470">
        <ele>181.5</ele>
        <time>2020-07-26T09:47:34Z</time>
      </trkpt>
      <trkpt lat="43.1738530" lon="-0.8989620">
        <ele>182.2</ele>
        <time>2020-07-26T09:47:37Z</time>
      </trkpt>
      <trkpt lat="43.1737670" lon="-0.8989070">
        <ele>182.7</ele>
        <time>2020-07-26T09:47:39Z</time>
      </trkpt>
      <trkpt lat="43.1736850" lon="-0.8988540">
        <ele>183.1</ele>
        <time>2020-07-26T09:47:41Z</time>
      </trkpt>
      <trkpt lat="43.1736030" lon="-0.8988020">
        <ele>183.6</ele>
        <time>2020-07-26T09:47:43Z</time>
      </trkpt>
      <trkpt lat="43.1734870" lon="-0.8987150">
        <ele>184.1</ele>
        <time>2020-07-26T09:47:46Z</time>
      </trkpt>
      <trkpt lat="43.1733850" lon="-0.8986370">
        <ele>184.6</ele>
        <time>2020-07-26T09:47:49Z</time>
      </trkpt>
      <trkpt lat="43.1732670" lon="-0.8985500">
        <ele>185.2</ele>
        <time>2020-07-26T09:47:52Z</time>
      </trkpt>
      <trkpt lat="43.1731890" lon="-0.8984820">
        <ele>185.5</ele>
        <time>2020-07-26T09:47:54Z</time>
      </trkpt>
      <trkpt lat="43.1730740" lon="-0.8983780">
        <ele>186.0</ele>
        <time>2020-07-26T09:47:57Z</time>
      </trkpt>
      <trkpt lat="43.1730350" lon="-0.8983510">
        <ele>186.1</ele>
        <time>2020-07-26T09:47:58Z</time>
      </trkpt>
      <trkpt lat="43.1729980" lon="-0.8983190">
        <ele>186.2</ele>
        <time>2020-07-26T09:47:59Z</time>
      </trkpt>
      <trkpt lat="43.1728560" lon="-0.8981770">
        <ele>186.7</ele>
        <time>2020-07-26T09:48:03Z</time>
      </trkpt>
      <trkpt lat="43.1728190" lon="-0.8981480">
        <ele>186.8</ele>
        <time>2020-07-26T09:48:04Z</time>
      </trkpt>
      <trkpt lat="43.1727810" lon="-0.8981120">
        <ele>187.0</ele>
        <time>2020-07-26T09:48:05Z</time>
      </trkpt>
      <trkpt lat="43.1726020" lon="-0.8980070">
        <ele>187.6</ele>
        <time>2020-07-26T09:48:09Z</time>
      </trkpt>
      <trkpt lat="43.1725510" lon="-0.8979950">
        <ele>187.7</ele>
        <time>2020-07-26T09:48:10Z</time>
      </trkpt>
      <trkpt lat="43.1724990" lon="-0.8979720">
        <ele>187.8</ele>
        <time>2020-07-26T09:48:11Z</time>
      </trkpt>
      <trkpt lat="43.1721920" lon="-0.8978260">
        <ele>188.0</ele>
        <time>2020-07-26T09:48:17Z</time>
      </trkpt>
      <trkpt lat="43.1720180" lon="-0.8977290">
        <ele>187.8</ele>
        <time>2020-07-26T09:48:20Z</time>
      </trkpt>
      <trkpt lat="43.1719660" lon="-0.8976820">
        <ele>187.6</ele>
        <time>2020-07-26T09:48:21Z</time>
      </trkpt>
      <trkpt lat="43.1719100" lon="-0.8976330">
        <ele>187.5</ele>
        <time>2020-07-26T09:48:22Z</time>
      </trkpt>
      <trkpt lat="43.1717650" lon="-0.8974310">
        <ele>186.7</ele>
        <time>2020-07-26T09:48:25Z</time>
      </trkpt>
      <trkpt lat="43.1717240" lon="-0.8973390">
        <ele>186.3</ele>
        <time>2020-07-26T09:48:26Z</time>
      </trkpt>
      <trkpt lat="43.1714620" lon="-0.8968420">
        <ele>184.0</ele>
        <time>2020-07-26T09:48:31Z</time>
      </trkpt>
      <trkpt lat="43.1713120" lon="-0.8966530">
        <ele>182.9</ele>
        <time>2020-07-26T09:48:33Z</time>
      </trkpt>
      <trkpt lat="43.1711410" lon="-0.8965200">
        <ele>181.7</ele>
        <time>2020-07-26T09:48:35Z</time>
      </trkpt>
      <trkpt lat="43.1710510" lon="-0.8964740">
        <ele>181.2</ele>
        <time>2020-07-26T09:48:36Z</time>
      </trkpt>
      <trkpt lat="43.1708640" lon="-0.8964040">
        <ele>180.6</ele>
        <time>2020-07-26T09:48:38Z</time>
      </trkpt>
      <trkpt lat="43.1707680" lon="-0.8963820">
        <ele>180.3</ele>
        <time>2020-07-26T09:48:39Z</time>
      </trkpt>
      <trkpt lat="43.1706700" lon="-0.8963640">
        <ele>180.1</ele>
        <time>2020-07-26T09:48:40Z</time>
      </trkpt>
      <trkpt lat="43.1704760" lon="-0.8963370">
        <ele>179.6</ele>
        <time>2020-07-26T09:48:42Z</time>
      </trkpt>
      <trkpt lat="43.1702900" lon="-0.8963100">
        <ele>179.4</ele>
        <time>2020-07-26T09:48:44Z</time>
      </trkpt>
      <trkpt lat="43.1700310" lon="-0.8962670">
        <ele>179.3</ele>
        <time>2020-07-26T09:48:47Z</time>
      </trkpt>
      <trkpt lat="43.1696370" lon="-0.8961390">
        <ele>179.4</ele>
        <time>2020-07-26T09:48:52Z</time>
      </trkpt>
      <trkpt lat="43.1692460" lon="-0.8958590">
        <ele>180.5</ele>
        <time>2020-07-26T09:48:59Z</time>
      </trkpt>
      <trkpt lat="43.1689250" lon="-0.8955900">
        <ele>181.6</ele>
        <time>2020-07-26T09:49:05Z</time>
      </trkpt>
      <trkpt lat="43.1686420" lon="-0.8953310">
        <ele>182.8</ele>
        <time>2020-07-26T09:49:11Z</time>
      </trkpt>
      <trkpt lat="43.1684750" lon="-0.8951590">
        <ele>183.7</ele>
        <time>2020-07-26T09:49:15Z</time>
      </trkpt>
      <trkpt lat="43.1684340" lon="-0.8951190">
        <ele>183.9</ele>
        <time>2020-07-26T09:49:16Z</time>
      </trkpt>
      <trkpt lat="43.1683100" lon="-0.8950040">
        <ele>184.5</ele>
        <time>2020-07-26T09:49:19Z</time>
      </trkpt>
      <trkpt lat="43.1682690" lon="-0.8949650">
        <ele>184.7</ele>
        <time>2020-07-26T09:49:20Z</time>
      </trkpt>
      <trkpt lat="43.1679870" lon="-0.8946850">
        <ele>186.0</ele>
        <time>2020-07-26T09:49:27Z</time>
      </trkpt>
      <trkpt lat="43.1677850" lon="-0.8944920">
        <ele>186.9</ele>
        <time>2020-07-26T09:49:32Z</time>
      </trkpt>
      <trkpt lat="43.1677040" lon="-0.8944110">
        <ele>187.3</ele>
        <time>2020-07-26T09:49:34Z</time>
      </trkpt>
      <trkpt lat="43.1675040" lon="-0.8942040">
        <ele>188.2</ele>
        <time>2020-07-26T09:49:39Z</time>
      </trkpt>
      <trkpt lat="43.1673480" lon="-0.8940470">
        <ele>188.9</ele>
        <time>2020-07-26T09:49:43Z</time>
      </trkpt>
      <trkpt lat="43.1671930" lon="-0.8938960">
        <ele>189.7</ele>
        <time>2020-07-26T09:49:47Z</time>
      </trkpt>
      <trkpt lat="43.1671570" lon="-0.8938550">
        <ele>189.8</ele>
        <time>2020-07-26T09:49:48Z</time>
      </trkpt>
      <trkpt lat="43.1670820" lon="-0.8937660">
        <ele>190.2</ele>
        <time>2020-07-26T09:49:50Z</time>
      </trkpt>
      <trkpt lat="43.1669610" lon="-0.8937710">
        <ele>190.6</ele>
        <time>2020-07-26T09:49:52Z</time>
      </trkpt>
      <trkpt lat="43.1669150" lon="-0.8937620">
        <ele>190.7</ele>
        <time>2020-07-26T09:49:53Z</time>
      </trkpt>
      <trkpt lat="43.1668500" lon="-0.8937790">
        <ele>190.9</ele>
        <time>2020-07-26T09:49:54Z</time>
      </trkpt>
      <trkpt lat="43.1667660" lon="-0.8937200">
        <ele>191.0</ele>
        <time>2020-07-26T09:49:56Z</time>
      </trkpt>
      <trkpt lat="43.1665510" lon="-0.8935370">
        <ele>191.1</ele>
        <time>2020-07-26T09:50:01Z</time>
      </trkpt>
      <trkpt lat="43.1664520" lon="-0.8934800">
        <ele>191.1</ele>
        <time>2020-07-26T09:50:03Z</time>
      </trkpt>
      <trkpt lat="43.1662260" lon="-0.8933690">
        <ele>190.6</ele>
        <time>2020-07-26T09:50:07Z</time>
      </trkpt>
      <trkpt lat="43.1661030" lon="-0.8933150">
        <ele>190.2</ele>
        <time>2020-07-26T09:50:09Z</time>
      </trkpt>
      <trkpt lat="43.1659730" lon="-0.8932630">
        <ele>189.9</ele>
        <time>2020-07-26T09:50:11Z</time>
      </trkpt>
      <trkpt lat="43.1658280" lon="-0.8932420">
        <ele>189.6</ele>
        <time>2020-07-26T09:50:13Z</time>
      </trkpt>
      <trkpt lat="43.1657160" lon="-0.8931550">
        <ele>189.4</ele>
        <time>2020-07-26T09:50:15Z</time>
      </trkpt>
      <trkpt lat="43.1655620" lon="-0.8931760">
        <ele>189.3</ele>
        <time>2020-07-26T09:50:17Z</time>
      </trkpt>
      <trkpt lat="43.1654890" lon="-0.8931660">
        <ele>189.3</ele>
        <time>2020-07-26T09:50:18Z</time>
      </trkpt>
      <trkpt lat="43.1653620" lon="-0.8931470">
        <ele>189.4</ele>
        <time>2020-07-26T09:50:20Z</time>
      </trkpt>
      <trkpt lat="43.1651750" lon="-0.8931160">
        <ele>189.5</ele>
        <time>2020-07-26T09:50:23Z</time>
      </trkpt>
      <trkpt lat="43.1651120" lon="-0.8930960">
        <ele>189.7</ele>
        <time>2020-07-26T09:50:24Z</time>
      </trkpt>
      <trkpt lat="43.1649270" lon="-0.8930530">
        <ele>189.8</ele>
        <time>2020-07-26T09:50:27Z</time>
      </trkpt>
      <trkpt lat="43.1648760" lon="-0.8930120">
        <ele>189.8</ele>
        <time>2020-07-26T09:50:28Z</time>
      </trkpt>
      <trkpt lat="43.1647140" lon="-0.8929470">
        <ele>189.8</ele>
        <time>2020-07-26T09:50:31Z</time>
      </trkpt>
      <trkpt lat="43.1644820" lon="-0.8928950">
        <ele>190.2</ele>
        <time>2020-07-26T09:50:35Z</time>
      </trkpt>
      <trkpt lat="43.1644160" lon="-0.8928960">
        <ele>190.3</ele>
        <time>2020-07-26T09:50:36Z</time>
      </trkpt>
      <trkpt lat="43.1642670" lon="-0.8927810">
        <ele>190.5</ele>
        <time>2020-07-26T09:50:39Z</time>
      </trkpt>
      <trkpt lat="43.1641660" lon="-0.8927280">
        <ele>190.7</ele>
        <time>2020-07-26T09:50:41Z</time>
      </trkpt>
      <trkpt lat="43.1639900" lon="-0.8926560">
        <ele>191.0</ele>
        <time>2020-07-26T09:50:44Z</time>
      </trkpt>
      <trkpt lat="43.1639280" lon="-0.8926330">
        <ele>191.0</ele>
        <time>2020-07-26T09:50:45Z</time>
      </trkpt>
      <trkpt lat="43.1638650" lon="-0.8926120">
        <ele>190.9</ele>
        <time>2020-07-26T09:50:46Z</time>
      </trkpt>
      <trkpt lat="43.1634870" lon="-0.8925060">
        <ele>191.3</ele>
        <time>2020-07-26T09:50:52Z</time>
      </trkpt>
      <trkpt lat="43.1629640" lon="-0.8924350">
        <ele>192.5</ele>
        <time>2020-07-26T09:51:01Z</time>
      </trkpt>
      <trkpt lat="43.1626290" lon="-0.8924390">
        <ele>192.9</ele>
        <time>2020-07-26T09:51:07Z</time>
      </trkpt>
      <trkpt lat="43.1625690" lon="-0.8924480">
        <ele>192.9</ele>
        <time>2020-07-26T09:51:08Z</time>
      </trkpt>
      <trkpt lat="43.1621270" lon="-0.8925050">
        <ele>193.0</ele>
        <time>2020-07-26T09:51:15Z</time>
      </trkpt>
      <trkpt lat="43.1619300" lon="-0.8925090">
        <ele>193.1</ele>
        <time>2020-07-26T09:51:18Z</time>
      </trkpt>
      <trkpt lat="43.1617360" lon="-0.8924670">
        <ele>193.2</ele>
        <time>2020-07-26T09:51:21Z</time>
      </trkpt>
      <trkpt lat="43.1615390" lon="-0.8924120">
        <ele>193.4</ele>
        <time>2020-07-26T09:51:24Z</time>
      </trkpt>
      <trkpt lat="43.1613410" lon="-0.8923670">
        <ele>193.6</ele>
        <time>2020-07-26T09:51:27Z</time>
      </trkpt>
      <trkpt lat="43.1609370" lon="-0.8922830">
        <ele>193.9</ele>
        <time>2020-07-26T09:51:33Z</time>
      </trkpt>
      <trkpt lat="43.1606710" lon="-0.8922560">
        <ele>194.1</ele>
        <time>2020-07-26T09:51:37Z</time>
      </trkpt>
      <trkpt lat="43.1601880" lon="-0.8923410">
        <ele>193.5</ele>
        <time>2020-07-26T09:51:44Z</time>
      </trkpt>
      <trkpt lat="43.1598300" lon="-0.8924940">
        <ele>192.3</ele>
        <time>2020-07-26T09:51:49Z</time>
      </trkpt>
      <trkpt lat="43.1597550" lon="-0.8925030">
        <ele>192.1</ele>
        <time>2020-07-26T09:51:50Z</time>
      </trkpt>
      <trkpt lat="43.1594300" lon="-0.8924600">
        <ele>191.1</ele>
        <time>2020-07-26T09:51:54Z</time>
      </trkpt>
      <trkpt lat="43.1591660" lon="-0.8924450">
        <ele>190.2</ele>
        <time>2020-07-26T09:51:57Z</time>
      </trkpt>
      <trkpt lat="43.1589790" lon="-0.8924380">
        <ele>189.7</ele>
        <time>2020-07-26T09:51:59Z</time>
      </trkpt>
      <trkpt lat="43.1587920" lon="-0.8924030">
        <ele>189.3</ele>
        <time>2020-07-26T09:52:01Z</time>
      </trkpt>
      <trkpt lat="43.1585130" lon="-0.8923140">
        <ele>188.6</ele>
        <time>2020-07-26T09:52:04Z</time>
      </trkpt>
      <trkpt lat="43.1580340" lon="-0.8921500">
        <ele>187.7</ele>
        <time>2020-07-26T09:52:09Z</time>
      </trkpt>
      <trkpt lat="43.1578580" lon="-0.8920840">
        <ele>187.7</ele>
        <time>2020-07-26T09:52:11Z</time>
      </trkpt>
      <trkpt lat="43.1577730" lon="-0.8920510">
        <ele>187.6</ele>
        <time>2020-07-26T09:52:12Z</time>
      </trkpt>
      <trkpt lat="43.1574460" lon="-0.8919400">
        <ele>187.4</ele>
        <time>2020-07-26T09:52:16Z</time>
      </trkpt>
      <trkpt lat="43.1573670" lon="-0.8919130">
        <ele>187.4</ele>
        <time>2020-07-26T09:52:17Z</time>
      </trkpt>
      <trkpt lat="43.1570540" lon="-0.8918040">
        <ele>187.9</ele>
        <time>2020-07-26T09:52:21Z</time>
      </trkpt>
      <trkpt lat="43.1567630" lon="-0.8917020">
        <ele>188.8</ele>
        <time>2020-07-26T09:52:25Z</time>
      </trkpt>
      <trkpt lat="43.1563980" lon="-0.8915840">
        <ele>190.5</ele>
        <time>2020-07-26T09:52:31Z</time>
      </trkpt>
      <trkpt lat="43.1562430" lon="-0.8915260">
        <ele>191.2</ele>
        <time>2020-07-26T09:52:34Z</time>
      </trkpt>
      <trkpt lat="43.1560940" lon="-0.8914760">
        <ele>191.8</ele>
        <time>2020-07-26T09:52:37Z</time>
      </trkpt>
      <trkpt lat="43.1560000" lon="-0.8914450">
        <ele>192.1</ele>
        <time>2020-07-26T09:52:39Z</time>
      </trkpt>
      <trkpt lat="43.1559520" lon="-0.8914310">
        <ele>192.3</ele>
        <time>2020-07-26T09:52:40Z</time>
      </trkpt>
      <trkpt lat="43.1558090" lon="-0.8914010">
        <ele>193.0</ele>
        <time>2020-07-26T09:52:43Z</time>
      </trkpt>
      <trkpt lat="43.1556190" lon="-0.8913590">
        <ele>193.8</ele>
        <time>2020-07-26T09:52:47Z</time>
      </trkpt>
      <trkpt lat="43.1555720" lon="-0.8913500">
        <ele>194.0</ele>
        <time>2020-07-26T09:52:48Z</time>
      </trkpt>
      <trkpt lat="43.1553350" lon="-0.8913000">
        <ele>194.9</ele>
        <time>2020-07-26T09:52:53Z</time>
      </trkpt>
      <trkpt lat="43.1549850" lon="-0.8912320">
        <ele>195.6</ele>
        <time>2020-07-26T09:53:00Z</time>
      </trkpt>
      <trkpt lat="43.1545560" lon="-0.8911460">
        <ele>195.9</ele>
        <time>2020-07-26T09:53:08Z</time>
      </trkpt>
      <trkpt lat="43.1540010" lon="-0.8910310">
        <ele>196.0</ele>
        <time>2020-07-26T09:53:18Z</time>
      </trkpt>
      <trkpt lat="43.1537110" lon="-0.8910090">
        <ele>196.5</ele>
        <time>2020-07-26T09:53:23Z</time>
      </trkpt>
      <trkpt lat="43.1535340" lon="-0.8909880">
        <ele>196.6</ele>
        <time>2020-07-26T09:53:26Z</time>
      </trkpt>
      <trkpt lat="43.1531860" lon="-0.8908680">
        <ele>196.8</ele>
        <time>2020-07-26T09:53:32Z</time>
      </trkpt>
      <trkpt lat="43.1527690" lon="-0.8907670">
        <ele>196.9</ele>
        <time>2020-07-26T09:53:39Z</time>
      </trkpt>
      <trkpt lat="43.1525330" lon="-0.8907030">
        <ele>197.0</ele>
        <time>2020-07-26T09:53:43Z</time>
      </trkpt>
      <trkpt lat="43.1524190" lon="-0.8906360">
        <ele>196.9</ele>
        <time>2020-07-26T09:53:45Z</time>
      </trkpt>
      <trkpt lat="43.1521090" lon="-0.8905010">
        <ele>196.9</ele>
        <time>2020-07-26T09:53:50Z</time>
      </trkpt>
      <trkpt lat="43.1515900" lon="-0.8904220">
        <ele>197.1</ele>
        <time>2020-07-26T09:53:58Z</time>
      </trkpt>
      <trkpt lat="43.1510750" lon="-0.8903310">
        <ele>197.5</ele>
        <time>2020-07-26T09:54:06Z</time>
      </trkpt>
      <trkpt lat="43.1510110" lon="-0.8903210">
        <ele>197.6</ele>
        <time>2020-07-26T09:54:07Z</time>
      </trkpt>
      <trkpt lat="43.1504250" lon="-0.8902170">
        <ele>197.6</ele>
        <time>2020-07-26T09:54:16Z</time>
      </trkpt>
      <trkpt lat="43.1502900" lon="-0.8901970">
        <ele>197.7</ele>
        <time>2020-07-26T09:54:18Z</time>
      </trkpt>
      <trkpt lat="43.1498930" lon="-0.8900890">
        <ele>197.8</ele>
        <time>2020-07-26T09:54:24Z</time>
      </trkpt>
      <trkpt lat="43.1493760" lon="-0.8899410">
        <ele>198.1</ele>
        <time>2020-07-26T09:54:32Z</time>
      </trkpt>
      <trkpt lat="43.1489220" lon="-0.8898270">
        <ele>198.6</ele>
        <time>2020-07-26T09:54:39Z</time>
      </trkpt>
      <trkpt lat="43.1486620" lon="-0.8897430">
        <ele>198.9</ele>
        <time>2020-07-26T09:54:43Z</time>
      </trkpt>
      <trkpt lat="43.1484020" lon="-0.8896700">
        <ele>199.3</ele>
        <time>2020-07-26T09:54:47Z</time>
      </trkpt>
      <trkpt lat="43.1478730" lon="-0.8895560">
        <ele>199.8</ele>
        <time>2020-07-26T09:54:55Z</time>
      </trkpt>
      <trkpt lat="43.1476080" lon="-0.8895710">
        <ele>200.2</ele>
        <time>2020-07-26T09:54:59Z</time>
      </trkpt>
      <trkpt lat="43.1474790" lon="-0.8895890">
        <ele>200.4</ele>
        <time>2020-07-26T09:55:01Z</time>
      </trkpt>
      <trkpt lat="43.1469160" lon="-0.8896480">
        <ele>201.3</ele>
        <time>2020-07-26T09:55:10Z</time>
      </trkpt>
      <trkpt lat="43.1467970" lon="-0.8896440">
        <ele>201.6</ele>
        <time>2020-07-26T09:55:12Z</time>
      </trkpt>
      <trkpt lat="43.1464010" lon="-0.8895380">
        <ele>202.6</ele>
        <time>2020-07-26T09:55:19Z</time>
      </trkpt>
      <trkpt lat="43.1461410" lon="-0.8893380">
        <ele>203.1</ele>
        <time>2020-07-26T09:55:24Z</time>
      </trkpt>
      <trkpt lat="43.1460930" lon="-0.8892840">
        <ele>203.2</ele>
        <time>2020-07-26T09:55:25Z</time>
      </trkpt>
      <trkpt lat="43.1459170" lon="-0.8890340">
        <ele>203.4</ele>
        <time>2020-07-26T09:55:29Z</time>
      </trkpt>
      <trkpt lat="43.1458450" lon="-0.8888870">
        <ele>203.6</ele>
        <time>2020-07-26T09:55:31Z</time>
      </trkpt>
      <trkpt lat="43.1456070" lon="-0.8882380">
        <ele>204.1</ele>
        <time>2020-07-26T09:55:39Z</time>
      </trkpt>
      <trkpt lat="43.1453720" lon="-0.8874800">
        <ele>204.2</ele>
        <time>2020-07-26T09:55:48Z</time>
      </trkpt>
      <trkpt lat="43.1451430" lon="-0.8867440">
        <ele>204.7</ele>
        <time>2020-07-26T09:55:57Z</time>
      </trkpt>
      <trkpt lat="43.1450410" lon="-0.8864260">
        <ele>205.0</ele>
        <time>2020-07-26T09:56:01Z</time>
      </trkpt>
      <trkpt lat="43.1449600" lon="-0.8861870">
        <ele>205.3</ele>
        <time>2020-07-26T09:56:04Z</time>
      </trkpt>
      <trkpt lat="43.1447780" lon="-0.8857310">
        <ele>205.6</ele>
        <time>2020-07-26T09:56:10Z</time>
      </trkpt>
      <trkpt lat="43.1444850" lon="-0.8850780">
        <ele>206.3</ele>
        <time>2020-07-26T09:56:19Z</time>
      </trkpt>
      <trkpt lat="43.1444200" lon="-0.8849360">
        <ele>206.4</ele>
        <time>2020-07-26T09:56:21Z</time>
      </trkpt>
      <trkpt lat="43.1443260" lon="-0.8847170">
        <ele>206.2</ele>
        <time>2020-07-26T09:56:24Z</time>
      </trkpt>
      <trkpt lat="43.1441310" lon="-0.8842930">
        <ele>206.1</ele>
        <time>2020-07-26T09:56:30Z</time>
      </trkpt>
      <trkpt lat="43.1438470" lon="-0.8836600">
        <ele>206.0</ele>
        <time>2020-07-26T09:56:39Z</time>
      </trkpt>
      <trkpt lat="43.1437250" lon="-0.8833870">
        <ele>206.0</ele>
        <time>2020-07-26T09:56:43Z</time>
      </trkpt>
      <trkpt lat="43.1434210" lon="-0.8827040">
        <ele>206.2</ele>
        <time>2020-07-26T09:56:53Z</time>
      </trkpt>
      <trkpt lat="43.1433910" lon="-0.8826360">
        <ele>206.2</ele>
        <time>2020-07-26T09:56:54Z</time>
      </trkpt>
      <trkpt lat="43.1431440" lon="-0.8820890">
        <ele>206.4</ele>
        <time>2020-07-26T09:57:02Z</time>
      </trkpt>
      <trkpt lat="43.1430480" lon="-0.8818860">
        <ele>206.5</ele>
        <time>2020-07-26T09:57:05Z</time>
      </trkpt>
      <trkpt lat="43.1427400" lon="-0.8812060">
        <ele>207.0</ele>
        <time>2020-07-26T09:57:15Z</time>
      </trkpt>
      <trkpt lat="43.1426760" lon="-0.8810660">
        <ele>207.1</ele>
        <time>2020-07-26T09:57:17Z</time>
      </trkpt>
      <trkpt lat="43.1424530" lon="-0.8805750">
        <ele>207.3</ele>
        <time>2020-07-26T09:57:24Z</time>
      </trkpt>
      <trkpt lat="43.1422930" lon="-0.8802290">
        <ele>207.3</ele>
        <time>2020-07-26T09:57:29Z</time>
      </trkpt>
      <trkpt lat="43.1420020" lon="-0.8795950">
        <ele>207.6</ele>
        <time>2020-07-26T09:57:38Z</time>
      </trkpt>
      <trkpt lat="43.1418390" lon="-0.8792430">
        <ele>207.7</ele>
        <time>2020-07-26T09:57:43Z</time>
      </trkpt>
      <trkpt lat="43.1415300" lon="-0.8786050">
        <ele>207.7</ele>
        <time>2020-07-26T09:57:52Z</time>
      </trkpt>
      <trkpt lat="43.1414920" lon="-0.8785360">
        <ele>207.6</ele>
        <time>2020-07-26T09:57:53Z</time>
      </trkpt>
      <trkpt lat="43.1412160" lon="-0.8781480">
        <ele>207.0</ele>
        <time>2020-07-26T09:57:59Z</time>
      </trkpt>
      <trkpt lat="43.1408470" lon="-0.8778200">
        <ele>205.9</ele>
        <time>2020-07-26T09:58:05Z</time>
      </trkpt>
      <trkpt lat="43.1404920" lon="-0.8776050">
        <ele>205.4</ele>
        <time>2020-07-26T09:58:10Z</time>
      </trkpt>
      <trkpt lat="43.1403460" lon="-0.8775260">
        <ele>205.4</ele>
        <time>2020-07-26T09:58:12Z</time>
      </trkpt>
      <trkpt lat="43.1400620" lon="-0.8773670">
        <ele>206.0</ele>
        <time>2020-07-26T09:58:16Z</time>
      </trkpt>
      <trkpt lat="43.1398650" lon="-0.8772570">
        <ele>206.6</ele>
        <time>2020-07-26T09:58:19Z</time>
      </trkpt>
      <trkpt lat="43.1395300" lon="-0.8770720">
        <ele>208.1</ele>
        <time>2020-07-26T09:58:25Z</time>
      </trkpt>
      <trkpt lat="43.1394810" lon="-0.8770450">
        <ele>208.3</ele>
        <time>2020-07-26T09:58:26Z</time>
      </trkpt>
      <trkpt lat="43.1393360" lon="-0.8769740">
        <ele>208.8</ele>
        <time>2020-07-26T09:58:29Z</time>
      </trkpt>
      <trkpt lat="43.1392860" lon="-0.8769520">
        <ele>209.0</ele>
        <time>2020-07-26T09:58:30Z</time>
      </trkpt>
      <trkpt lat="43.1391920" lon="-0.8769100">
        <ele>209.4</ele>
        <time>2020-07-26T09:58:32Z</time>
      </trkpt>
      <trkpt lat="43.1389510" lon="-0.8767880">
        <ele>210.3</ele>
        <time>2020-07-26T09:58:37Z</time>
      </trkpt>
      <trkpt lat="43.1387640" lon="-0.8767080">
        <ele>210.7</ele>
        <time>2020-07-26T09:58:41Z</time>
      </trkpt>
      <trkpt lat="43.1386230" lon="-0.8766320">
        <ele>210.9</ele>
        <time>2020-07-26T09:58:44Z</time>
      </trkpt>
      <trkpt lat="43.1383540" lon="-0.8764950">
        <ele>211.1</ele>
        <time>2020-07-26T09:58:49Z</time>
      </trkpt>
      <trkpt lat="43.1381250" lon="-0.8763730">
        <ele>210.8</ele>
        <time>2020-07-26T09:58:53Z</time>
      </trkpt>
      <trkpt lat="43.1375870" lon="-0.8760730">
        <ele>210.9</ele>
        <time>2020-07-26T09:59:02Z</time>
      </trkpt>
      <trkpt lat="43.1372020" lon="-0.8758760">
        <ele>210.9</ele>
        <time>2020-07-26T09:59:08Z</time>
      </trkpt>
      <trkpt lat="43.1371400" lon="-0.8758340">
        <ele>210.9</ele>
        <time>2020-07-26T09:59:09Z</time>
      </trkpt>
      <trkpt lat="43.1370760" lon="-0.8757970">
        <ele>210.8</ele>
        <time>2020-07-26T09:59:10Z</time>
      </trkpt>
      <trkpt lat="43.1367360" lon="-0.8756350">
        <ele>211.1</ele>
        <time>2020-07-26T09:59:15Z</time>
      </trkpt>
      <trkpt lat="43.1362970" lon="-0.8755130">
        <ele>210.5</ele>
        <time>2020-07-26T09:59:21Z</time>
      </trkpt>
      <trkpt lat="43.1357510" lon="-0.8754370">
        <ele>210.1</ele>
        <time>2020-07-26T09:59:28Z</time>
      </trkpt>
      <trkpt lat="43.1356760" lon="-0.8754270">
        <ele>210.2</ele>
        <time>2020-07-26T09:59:29Z</time>
      </trkpt>
      <trkpt lat="43.1353450" lon="-0.8753890">
        <ele>210.3</ele>
        <time>2020-07-26T09:59:34Z</time>
      </trkpt>
      <trkpt lat="43.1350760" lon="-0.8754920">
        <ele>210.3</ele>
        <time>2020-07-26T09:59:38Z</time>
      </trkpt>
      <trkpt lat="43.1349530" lon="-0.8756090">
        <ele>210.1</ele>
        <time>2020-07-26T09:59:40Z</time>
      </trkpt>
      <trkpt lat="43.1348340" lon="-0.8757440">
        <ele>210.0</ele>
        <time>2020-07-26T09:59:42Z</time>
      </trkpt>
      <trkpt lat="43.1345210" lon="-0.8761280">
        <ele>210.7</ele>
        <time>2020-07-26T09:59:48Z</time>
      </trkpt>
      <trkpt lat="43.1342860" lon="-0.8763920">
        <ele>211.6</ele>
        <time>2020-07-26T09:59:53Z</time>
      </trkpt>
      <trkpt lat="43.1342340" lon="-0.8764320">
        <ele>211.8</ele>
        <time>2020-07-26T09:59:54Z</time>
      </trkpt>
      <trkpt lat="43.1340080" lon="-0.8765130">
        <ele>212.4</ele>
        <time>2020-07-26T09:59:58Z</time>
      </trkpt>
      <trkpt lat="43.1338970" lon="-0.8765350">
        <ele>212.7</ele>
        <time>2020-07-26T10:00:00Z</time>
      </trkpt>
      <trkpt lat="43.1336670" lon="-0.8765830">
        <ele>213.2</ele>
        <time>2020-07-26T10:00:04Z</time>
      </trkpt>
      <trkpt lat="43.1336080" lon="-0.8765910">
        <ele>213.3</ele>
        <time>2020-07-26T10:00:05Z</time>
      </trkpt>
      <trkpt lat="43.1331940" lon="-0.8766660">
        <ele>213.9</ele>
        <time>2020-07-26T10:00:12Z</time>
      </trkpt>
      <trkpt lat="43.1327330" lon="-0.8767520">
        <ele>214.7</ele>
        <time>2020-07-26T10:00:20Z</time>
      </trkpt>
      <trkpt lat="43.1323300" lon="-0.8768120">
        <ele>215.0</ele>
        <time>2020-07-26T10:00:27Z</time>
      </trkpt>
      <trkpt lat="43.1319870" lon="-0.8768600">
        <ele>215.3</ele>
        <time>2020-07-26T10:00:33Z</time>
      </trkpt>
      <trkpt lat="43.1318710" lon="-0.8768760">
        <ele>215.5</ele>
        <time>2020-07-26T10:00:35Z</time>
      </trkpt>
      <trkpt lat="43.1314070" lon="-0.8769340">
        <ele>216.3</ele>
        <time>2020-07-26T10:00:43Z</time>
      </trkpt>
      <trkpt lat="43.1313510" lon="-0.8769250">
        <ele>216.3</ele>
        <time>2020-07-26T10:00:44Z</time>
      </trkpt>
      <trkpt lat="43.1311860" lon="-0.8768480">
        <ele>216.5</ele>
        <time>2020-07-26T10:00:47Z</time>
      </trkpt>
      <trkpt lat="43.1310840" lon="-0.8767630">
        <ele>216.6</ele>
        <time>2020-07-26T10:00:49Z</time>
      </trkpt>
      <trkpt lat="43.1308770" lon="-0.8765660">
        <ele>216.8</ele>
        <time>2020-07-26T10:00:53Z</time>
      </trkpt>
      <trkpt lat="43.1306530" lon="-0.8764320">
        <ele>217.0</ele>
        <time>2020-07-26T10:00:57Z</time>
      </trkpt>
      <trkpt lat="43.1305930" lon="-0.8764170">
        <ele>217.0</ele>
        <time>2020-07-26T10:00:58Z</time>
      </trkpt>
      <trkpt lat="43.1301820" lon="-0.8763380">
        <ele>217.6</ele>
        <time>2020-07-26T10:01:05Z</time>
      </trkpt>
      <trkpt lat="43.1296300" lon="-0.8762640">
        <ele>218.2</ele>
        <time>2020-07-26T10:01:14Z</time>
      </trkpt>
      <trkpt lat="43.1295690" lon="-0.8762550">
        <ele>218.2</ele>
        <time>2020-07-26T10:01:15Z</time>
      </trkpt>
      <trkpt lat="43.1294460" lon="-0.8762390">
        <ele>218.4</ele>
        <time>2020-07-26T10:01:17Z</time>
      </trkpt>
      <trkpt lat="43.1288910" lon="-0.8761610">
        <ele>219.1</ele>
        <time>2020-07-26T10:01:26Z</time>
      </trkpt>
      <trkpt lat="43.1288290" lon="-0.8761530">
        <ele>219.2</ele>
        <time>2020-07-26T10:01:27Z</time>
      </trkpt>
      <trkpt lat="43.1283960" lon="-0.8761030">
        <ele>219.6</ele>
        <time>2020-07-26T10:01:34Z</time>
      </trkpt>
      <trkpt lat="43.1282740" lon="-0.8760780">
        <ele>219.7</ele>
        <time>2020-07-26T10:01:36Z</time>
      </trkpt>
      <trkpt lat="43.1279120" lon="-0.8760370">
        <ele>220.3</ele>
        <time>2020-07-26T10:01:42Z</time>
      </trkpt>
      <trkpt lat="43.1276470" lon="-0.8760120">
        <ele>220.7</ele>
        <time>2020-07-26T10:01:47Z</time>
      </trkpt>
      <trkpt lat="43.1273720" lon="-0.8760130">
        <ele>221.1</ele>
        <time>2020-07-26T10:01:52Z</time>
      </trkpt>
      <trkpt lat="43.1272600" lon="-0.8760060">
        <ele>221.3</ele>
        <time>2020-07-26T10:01:54Z</time>
      </trkpt>
      <trkpt lat="43.1267980" lon="-0.8759530">
        <ele>221.7</ele>
        <time>2020-07-26T10:02:02Z</time>
      </trkpt>
      <trkpt lat="43.1267400" lon="-0.8759470">
        <ele>221.8</ele>
        <time>2020-07-26T10:02:03Z</time>
      </trkpt>
      <trkpt lat="43.1261880" lon="-0.8758810">
        <ele>221.4</ele>
        <time>2020-07-26T10:02:12Z</time>
      </trkpt>
      <trkpt lat="43.1256360" lon="-0.8758140">
        <ele>220.9</ele>
        <time>2020-07-26T10:02:20Z</time>
      </trkpt>
      <trkpt lat="43.1255620" lon="-0.8758050">
        <ele>220.9</ele>
        <time>2020-07-26T10:02:21Z</time>
      </trkpt>
      <trkpt lat="43.1249900" lon="-0.8757190">
        <ele>221.5</ele>
        <time>2020-07-26T10:02:29Z</time>
      </trkpt>
      <trkpt lat="43.1248580" lon="-0.8756970">
        <ele>221.7</ele>
        <time>2020-07-26T10:02:31Z</time>
      </trkpt>
      <trkpt lat="43.1242790" lon="-0.8755710">
        <ele>222.5</ele>
        <time>2020-07-26T10:02:40Z</time>
      </trkpt>
      <trkpt lat="43.1242170" lon="-0.8755560">
        <ele>222.6</ele>
        <time>2020-07-26T10:02:41Z</time>
      </trkpt>
      <trkpt lat="43.1239160" lon="-0.8754330">
        <ele>223.1</ele>
        <time>2020-07-26T10:02:46Z</time>
      </trkpt>
      <trkpt lat="43.1238590" lon="-0.8753970">
        <ele>223.3</ele>
        <time>2020-07-26T10:02:47Z</time>
      </trkpt>
      <trkpt lat="43.1235920" lon="-0.8751390">
        <ele>223.2</ele>
        <time>2020-07-26T10:02:52Z</time>
      </trkpt>
      <trkpt lat="43.1233760" lon="-0.8747690">
        <ele>222.9</ele>
        <time>2020-07-26T10:02:57Z</time>
      </trkpt>
      <trkpt lat="43.1232010" lon="-0.8742250">
        <ele>222.9</ele>
        <time>2020-07-26T10:03:03Z</time>
      </trkpt>
      <trkpt lat="43.1230000" lon="-0.8734890">
        <ele>222.8</ele>
        <time>2020-07-26T10:03:11Z</time>
      </trkpt>
      <trkpt lat="43.1229490" lon="-0.8733090">
        <ele>222.8</ele>
        <time>2020-07-26T10:03:13Z</time>
      </trkpt>
      <trkpt lat="43.1227620" lon="-0.8726010">
        <ele>222.8</ele>
        <time>2020-07-26T10:03:21Z</time>
      </trkpt>
      <trkpt lat="43.1227180" lon="-0.8724220">
        <ele>222.7</ele>
        <time>2020-07-26T10:03:23Z</time>
      </trkpt>
      <trkpt lat="43.1225830" lon="-0.8718830">
        <ele>222.5</ele>
        <time>2020-07-26T10:03:29Z</time>
      </trkpt>
      <trkpt lat="43.1224550" lon="-0.8713500">
        <ele>222.4</ele>
        <time>2020-07-26T10:03:35Z</time>
      </trkpt>
      <trkpt lat="43.1224330" lon="-0.8712620">
        <ele>222.3</ele>
        <time>2020-07-26T10:03:36Z</time>
      </trkpt>
      <trkpt lat="43.1222840" lon="-0.8707310">
        <ele>221.9</ele>
        <time>2020-07-26T10:03:42Z</time>
      </trkpt>
      <trkpt lat="43.1220650" lon="-0.8700710">
        <ele>220.8</ele>
        <time>2020-07-26T10:03:49Z</time>
      </trkpt>
      <trkpt lat="43.1218030" lon="-0.8694660">
        <ele>219.0</ele>
        <time>2020-07-26T10:03:55Z</time>
      </trkpt>
      <trkpt lat="43.1217520" lon="-0.8693670">
        <ele>218.7</ele>
        <time>2020-07-26T10:03:56Z</time>
      </trkpt>
      <trkpt lat="43.1216980" lon="-0.8692640">
        <ele>218.4</ele>
        <time>2020-07-26T10:03:57Z</time>
      </trkpt>
      <trkpt lat="43.1215360" lon="-0.8689390">
        <ele>217.9</ele>
        <time>2020-07-26T10:04:00Z</time>
      </trkpt>
      <trkpt lat="43.1214290" lon="-0.8687220">
        <ele>217.6</ele>
        <time>2020-07-26T10:04:02Z</time>
      </trkpt>
      <trkpt lat="43.1213210" lon="-0.8685120">
        <ele>217.5</ele>
        <time>2020-07-26T10:04:04Z</time>
      </trkpt>
      <trkpt lat="43.1211710" lon="-0.8682080">
        <ele>217.5</ele>
        <time>2020-07-26T10:04:07Z</time>
      </trkpt>
      <trkpt lat="43.1211250" lon="-0.8681050">
        <ele>217.5</ele>
        <time>2020-07-26T10:04:08Z</time>
      </trkpt>
      <trkpt lat="43.1209310" lon="-0.8677220">
        <ele>217.1</ele>
        <time>2020-07-26T10:04:12Z</time>
      </trkpt>
      <trkpt lat="43.1204860" lon="-0.8671620">
        <ele>216.2</ele>
        <time>2020-07-26T10:04:19Z</time>
      </trkpt>
      <trkpt lat="43.1202940" lon="-0.8669420">
        <ele>216.2</ele>
        <time>2020-07-26T10:04:22Z</time>
      </trkpt>
      <trkpt lat="43.1201200" lon="-0.8667380">
        <ele>217.0</ele>
        <time>2020-07-26T10:04:25Z</time>
      </trkpt>
      <trkpt lat="43.1198970" lon="-0.8664620">
        <ele>219.1</ele>
        <time>2020-07-26T10:04:30Z</time>
      </trkpt>
      <trkpt lat="43.1198660" lon="-0.8664260">
        <ele>219.5</ele>
        <time>2020-07-26T10:04:31Z</time>
      </trkpt>
      <trkpt lat="43.1197610" lon="-0.8662510">
        <ele>221.0</ele>
        <time>2020-07-26T10:04:35Z</time>
      </trkpt>
      <trkpt lat="43.1197140" lon="-0.8661680">
        <ele>221.6</ele>
        <time>2020-07-26T10:04:37Z</time>
      </trkpt>
      <trkpt lat="43.1196640" lon="-0.8660930">
        <ele>221.9</ele>
        <time>2020-07-26T10:04:39Z</time>
      </trkpt>
      <trkpt lat="43.1196100" lon="-0.8660140">
        <ele>222.2</ele>
        <time>2020-07-26T10:04:41Z</time>
      </trkpt>
      <trkpt lat="43.1195830" lon="-0.8659760">
        <ele>222.3</ele>
        <time>2020-07-26T10:04:42Z</time>
      </trkpt>
      <trkpt lat="43.1195290" lon="-0.8658910">
        <ele>222.6</ele>
        <time>2020-07-26T10:04:44Z</time>
      </trkpt>
      <trkpt lat="43.1194320" lon="-0.8657860">
        <ele>222.9</ele>
        <time>2020-07-26T10:04:47Z</time>
      </trkpt>
      <trkpt lat="43.1191270" lon="-0.8654590">
        <ele>223.0</ele>
        <time>2020-07-26T10:04:54Z</time>
      </trkpt>
      <trkpt lat="43.1188040" lon="-0.8651640">
        <ele>222.9</ele>
        <time>2020-07-26T10:05:00Z</time>
      </trkpt>
      <trkpt lat="43.1184100" lon="-0.8648830">
        <ele>223.2</ele>
        <time>2020-07-26T10:05:07Z</time>
      </trkpt>
      <trkpt lat="43.1180370" lon="-0.8646140">
        <ele>223.4</ele>
        <time>2020-07-26T10:05:14Z</time>
      </trkpt>
      <trkpt lat="43.1176650" lon="-0.8643320">
        <ele>222.4</ele>
        <time>2020-07-26T10:05:20Z</time>
      </trkpt>
      <trkpt lat="43.1172550" lon="-0.8640050">
        <ele>221.7</ele>
        <time>2020-07-26T10:05:26Z</time>
      </trkpt>
      <trkpt lat="43.1169420" lon="-0.8637600">
        <ele>222.2</ele>
        <time>2020-07-26T10:05:31Z</time>
      </trkpt>
      <trkpt lat="43.1168820" lon="-0.8637160">
        <ele>222.5</ele>
        <time>2020-07-26T10:05:32Z</time>
      </trkpt>
      <trkpt lat="43.1167700" lon="-0.8636450">
        <ele>223.0</ele>
        <time>2020-07-26T10:05:34Z</time>
      </trkpt>
      <trkpt lat="43.1166880" lon="-0.8635520">
        <ele>223.6</ele>
        <time>2020-07-26T10:05:36Z</time>
      </trkpt>
      <trkpt lat="43.1166030" lon="-0.8633650">
        <ele>224.6</ele>
        <time>2020-07-26T10:05:40Z</time>
      </trkpt>
      <trkpt lat="43.1165910" lon="-0.8633250">
        <ele>224.8</ele>
        <time>2020-07-26T10:05:41Z</time>
      </trkpt>
      <trkpt lat="43.1164980" lon="-0.8632380">
        <ele>225.4</ele>
        <time>2020-07-26T10:05:45Z</time>
      </trkpt>
      <trkpt lat="43.1164550" lon="-0.8632340">
        <ele>225.6</ele>
        <time>2020-07-26T10:05:46Z</time>
      </trkpt>
      <trkpt lat="43.1163790" lon="-0.8632160">
        <ele>226.0</ele>
        <time>2020-07-26T10:05:48Z</time>
      </trkpt>
      <trkpt lat="43.1162580" lon="-0.8631360">
        <ele>226.8</ele>
        <time>2020-07-26T10:05:52Z</time>
      </trkpt>
      <trkpt lat="43.1161890" lon="-0.8630800">
        <ele>227.3</ele>
        <time>2020-07-26T10:05:55Z</time>
      </trkpt>
      <trkpt lat="43.1161400" lon="-0.8630510">
        <ele>227.6</ele>
        <time>2020-07-26T10:05:57Z</time>
      </trkpt>
      <trkpt lat="43.1161120" lon="-0.8630310">
        <ele>227.7</ele>
        <time>2020-07-26T10:05:58Z</time>
      </trkpt>
      <trkpt lat="43.1160590" lon="-0.8629810">
        <ele>227.8</ele>
        <time>2020-07-26T10:06:00Z</time>
      </trkpt>
      <trkpt lat="43.1159830" lon="-0.8628960">
        <ele>228.2</ele>
        <time>2020-07-26T10:06:03Z</time>
      </trkpt>
      <trkpt lat="43.1158570" lon="-0.8627660">
        <ele>228.9</ele>
        <time>2020-07-26T10:06:07Z</time>
      </trkpt>
      <trkpt lat="43.1157450" lon="-0.8626470">
        <ele>229.6</ele>
        <time>2020-07-26T10:06:11Z</time>
      </trkpt>
      <trkpt lat="43.1155330" lon="-0.8624720">
        <ele>230.5</ele>
        <time>2020-07-26T10:06:18Z</time>
      </trkpt>
      <trkpt lat="43.1154180" lon="-0.8623620">
        <ele>231.0</ele>
        <time>2020-07-26T10:06:22Z</time>
      </trkpt>
      <trkpt lat="43.1153340" lon="-0.8623080">
        <ele>231.3</ele>
        <time>2020-07-26T10:06:24Z</time>
      </trkpt>
      <trkpt lat="43.1152040" lon="-0.8622130">
        <ele>231.5</ele>
        <time>2020-07-26T10:06:27Z</time>
      </trkpt>
      <trkpt lat="43.1150500" lon="-0.8620900">
        <ele>231.6</ele>
        <time>2020-07-26T10:06:30Z</time>
      </trkpt>
      <trkpt lat="43.1146800" lon="-0.8618240">
        <ele>231.7</ele>
        <time>2020-07-26T10:06:37Z</time>
      </trkpt>
      <trkpt lat="43.1142110" lon="-0.8614480">
        <ele>231.9</ele>
        <time>2020-07-26T10:06:45Z</time>
      </trkpt>
      <trkpt lat="43.1136770" lon="-0.8611040">
        <ele>232.1</ele>
        <time>2020-07-26T10:06:55Z</time>
      </trkpt>
      <trkpt lat="43.1136220" lon="-0.8610720">
        <ele>232.1</ele>
        <time>2020-07-26T10:06:56Z</time>
      </trkpt>
      <trkpt lat="43.1130830" lon="-0.8607310">
        <ele>232.3</ele>
        <time>2020-07-26T10:07:06Z</time>
      </trkpt>
      <trkpt lat="43.1128580" lon="-0.8605900">
        <ele>232.4</ele>
        <time>2020-07-26T10:07:10Z</time>
      </trkpt>
      <trkpt lat="43.1126290" lon="-0.8604410">
        <ele>232.4</ele>
        <time>2020-07-26T10:07:14Z</time>
      </trkpt>
      <trkpt lat="43.1122200" lon="-0.8602260">
        <ele>232.0</ele>
        <time>2020-07-26T10:07:21Z</time>
      </trkpt>
      <trkpt lat="43.1118030" lon="-0.8600740">
        <ele>230.7</ele>
        <time>2020-07-26T10:07:27Z</time>
      </trkpt>
      <trkpt lat="43.1114050" lon="-0.8600170">
        <ele>229.6</ele>
        <time>2020-07-26T10:07:32Z</time>
      </trkpt>
      <trkpt lat="43.1111490" lon="-0.8600230">
        <ele>229.0</ele>
        <time>2020-07-26T10:07:35Z</time>
      </trkpt>
      <trkpt lat="43.1109180" lon="-0.8600920">
        <ele>228.8</ele>
        <time>2020-07-26T10:07:38Z</time>
      </trkpt>
      <trkpt lat="43.1106800" lon="-0.8601200">
        <ele>228.4</ele>
        <time>2020-07-26T10:07:41Z</time>
      </trkpt>
      <trkpt lat="43.1104400" lon="-0.8601280">
        <ele>228.3</ele>
        <time>2020-07-26T10:07:44Z</time>
      </trkpt>
      <trkpt lat="43.1099740" lon="-0.8600290">
        <ele>228.5</ele>
        <time>2020-07-26T10:07:50Z</time>
      </trkpt>
      <trkpt lat="43.1094250" lon="-0.8597680">
        <ele>229.3</ele>
        <time>2020-07-26T10:07:58Z</time>
      </trkpt>
      <trkpt lat="43.1090230" lon="-0.8594370">
        <ele>230.3</ele>
        <time>2020-07-26T10:08:05Z</time>
      </trkpt>
      <trkpt lat="43.1089180" lon="-0.8593340">
        <ele>230.6</ele>
        <time>2020-07-26T10:08:07Z</time>
      </trkpt>
      <trkpt lat="43.1085610" lon="-0.8590090">
        <ele>231.6</ele>
        <time>2020-07-26T10:08:14Z</time>
      </trkpt>
      <trkpt lat="43.1085080" lon="-0.8589570">
        <ele>231.7</ele>
        <time>2020-07-26T10:08:15Z</time>
      </trkpt>
      <trkpt lat="43.1082660" lon="-0.8587080">
        <ele>232.4</ele>
        <time>2020-07-26T10:08:20Z</time>
      </trkpt>
      <trkpt lat="43.1081340" lon="-0.8585350">
        <ele>232.8</ele>
        <time>2020-07-26T10:08:23Z</time>
      </trkpt>
      <trkpt lat="43.1079490" lon="-0.8582090">
        <ele>233.2</ele>
        <time>2020-07-26T10:08:28Z</time>
      </trkpt>
      <trkpt lat="43.1078490" lon="-0.8580090">
        <ele>233.4</ele>
        <time>2020-07-26T10:08:31Z</time>
      </trkpt>
      <trkpt lat="43.1075200" lon="-0.8575390">
        <ele>234.0</ele>
        <time>2020-07-26T10:08:39Z</time>
      </trkpt>
      <trkpt lat="43.1074750" lon="-0.8574870">
        <ele>234.1</ele>
        <time>2020-07-26T10:08:40Z</time>
      </trkpt>
      <trkpt lat="43.1074280" lon="-0.8574420">
        <ele>234.3</ele>
        <time>2020-07-26T10:08:41Z</time>
      </trkpt>
      <trkpt lat="43.1072310" lon="-0.8572880">
        <ele>234.8</ele>
        <time>2020-07-26T10:08:45Z</time>
      </trkpt>
      <trkpt lat="43.1069250" lon="-0.8571240">
        <ele>235.6</ele>
        <time>2020-07-26T10:08:51Z</time>
      </trkpt>
      <trkpt lat="43.1065230" lon="-0.8569980">
        <ele>236.9</ele>
        <time>2020-07-26T10:08:59Z</time>
      </trkpt>
      <trkpt lat="43.1064750" lon="-0.8569740">
        <ele>237.0</ele>
        <time>2020-07-26T10:09:00Z</time>
      </trkpt>
      <trkpt lat="43.1063350" lon="-0.8568760">
        <ele>237.3</ele>
        <time>2020-07-26T10:09:03Z</time>
      </trkpt>
      <trkpt lat="43.1062470" lon="-0.8567940">
        <ele>237.5</ele>
        <time>2020-07-26T10:09:05Z</time>
      </trkpt>
      <trkpt lat="43.1062060" lon="-0.8567450">
        <ele>237.5</ele>
        <time>2020-07-26T10:09:06Z</time>
      </trkpt>
      <trkpt lat="43.1061340" lon="-0.8566320">
        <ele>237.6</ele>
        <time>2020-07-26T10:09:08Z</time>
      </trkpt>
      <trkpt lat="43.1061010" lon="-0.8565700">
        <ele>237.6</ele>
        <time>2020-07-26T10:09:09Z</time>
      </trkpt>
      <trkpt lat="43.1060370" lon="-0.8564370">
        <ele>237.6</ele>
        <time>2020-07-26T10:09:11Z</time>
      </trkpt>
      <trkpt lat="43.1058200" lon="-0.8559000">
        <ele>237.3</ele>
        <time>2020-07-26T10:09:19Z</time>
      </trkpt>
      <trkpt lat="43.1055420" lon="-0.8552300">
        <ele>236.9</ele>
        <time>2020-07-26T10:09:27Z</time>
      </trkpt>
      <trkpt lat="43.1052860" lon="-0.8548040">
        <ele>236.8</ele>
        <time>2020-07-26T10:09:33Z</time>
      </trkpt>
      <trkpt lat="43.1052030" lon="-0.8546700">
        <ele>236.8</ele>
        <time>2020-07-26T10:09:35Z</time>
      </trkpt>
      <trkpt lat="43.1048470" lon="-0.8540650">
        <ele>237.2</ele>
        <time>2020-07-26T10:09:44Z</time>
      </trkpt>
      <trkpt lat="43.1048050" lon="-0.8540000">
        <ele>237.2</ele>
        <time>2020-07-26T10:09:45Z</time>
      </trkpt>
      <trkpt lat="43.1044550" lon="-0.8535050">
        <ele>237.7</ele>
        <time>2020-07-26T10:09:53Z</time>
      </trkpt>
      <trkpt lat="43.1040170" lon="-0.8529600">
        <ele>239.2</ele>
        <time>2020-07-26T10:10:03Z</time>
      </trkpt>
      <trkpt lat="43.1039750" lon="-0.8529100">
        <ele>239.4</ele>
        <time>2020-07-26T10:10:04Z</time>
      </trkpt>
      <trkpt lat="43.1037360" lon="-0.8526170">
        <ele>240.5</ele>
        <time>2020-07-26T10:10:10Z</time>
      </trkpt>
      <trkpt lat="43.1036180" lon="-0.8524780">
        <ele>241.1</ele>
        <time>2020-07-26T10:10:13Z</time>
      </trkpt>
      <trkpt lat="43.1035400" lon="-0.8523850">
        <ele>241.4</ele>
        <time>2020-07-26T10:10:15Z</time>
      </trkpt>
      <trkpt lat="43.1032680" lon="-0.8520690">
        <ele>242.5</ele>
        <time>2020-07-26T10:10:22Z</time>
      </trkpt>
      <trkpt lat="43.1032270" lon="-0.8520250">
        <ele>242.6</ele>
        <time>2020-07-26T10:10:23Z</time>
      </trkpt>
      <trkpt lat="43.1030600" lon="-0.8518460">
        <ele>242.9</ele>
        <time>2020-07-26T10:10:27Z</time>
      </trkpt>
      <trkpt lat="43.1027590" lon="-0.8515190">
        <ele>243.1</ele>
        <time>2020-07-26T10:10:34Z</time>
      </trkpt>
      <trkpt lat="43.1023250" lon="-0.8510230">
        <ele>243.0</ele>
        <time>2020-07-26T10:10:44Z</time>
      </trkpt>
      <trkpt lat="43.1021310" lon="-0.8506870">
        <ele>242.6</ele>
        <time>2020-07-26T10:10:49Z</time>
      </trkpt>
      <trkpt lat="43.1019540" lon="-0.8501750">
        <ele>242.1</ele>
        <time>2020-07-26T10:10:55Z</time>
      </trkpt>
      <trkpt lat="43.1018580" lon="-0.8495920">
        <ele>241.6</ele>
        <time>2020-07-26T10:11:01Z</time>
      </trkpt>
      <trkpt lat="43.1017560" lon="-0.8488110">
        <ele>241.5</ele>
        <time>2020-07-26T10:11:09Z</time>
      </trkpt>
      <trkpt lat="43.1017340" lon="-0.8486220">
        <ele>241.6</ele>
        <time>2020-07-26T10:11:11Z</time>
      </trkpt>
      <trkpt lat="43.1016990" lon="-0.8483440">
        <ele>241.7</ele>
        <time>2020-07-26T10:11:14Z</time>
      </trkpt>
      <trkpt lat="43.1016580" lon="-0.8479780">
        <ele>242.0</ele>
        <time>2020-07-26T10:11:18Z</time>
      </trkpt>
      <trkpt lat="43.1015870" lon="-0.8474350">
        <ele>242.2</ele>
        <time>2020-07-26T10:11:24Z</time>
      </trkpt>
      <trkpt lat="43.1014960" lon="-0.8467030">
        <ele>242.2</ele>
        <time>2020-07-26T10:11:32Z</time>
      </trkpt>
      <trkpt lat="43.1014280" lon="-0.8461570">
        <ele>242.5</ele>
        <time>2020-07-26T10:11:38Z</time>
      </trkpt>
      <trkpt lat="43.1013800" lon="-0.8456910">
        <ele>242.5</ele>
        <time>2020-07-26T10:11:43Z</time>
      </trkpt>
      <trkpt lat="43.1013530" lon="-0.8452130">
        <ele>242.7</ele>
        <time>2020-07-26T10:11:48Z</time>
      </trkpt>
      <trkpt lat="43.1013460" lon="-0.8444410">
        <ele>242.9</ele>
        <time>2020-07-26T10:11:56Z</time>
      </trkpt>
      <trkpt lat="43.1013500" lon="-0.8443430">
        <ele>242.9</ele>
        <time>2020-07-26T10:11:57Z</time>
      </trkpt>
      <trkpt lat="43.1013770" lon="-0.8435480">
        <ele>243.1</ele>
        <time>2020-07-26T10:12:05Z</time>
      </trkpt>
      <trkpt lat="43.1013800" lon="-0.8431520">
        <ele>243.3</ele>
        <time>2020-07-26T10:12:09Z</time>
      </trkpt>
      <trkpt lat="43.1013140" lon="-0.8424940">
        <ele>243.6</ele>
        <time>2020-07-26T10:12:16Z</time>
      </trkpt>
      <trkpt lat="43.1011650" lon="-0.8417150">
        <ele>244.4</ele>
        <time>2020-07-26T10:12:25Z</time>
      </trkpt>
      <trkpt lat="43.1011210" lon="-0.8414710">
        <ele>244.9</ele>
        <time>2020-07-26T10:12:28Z</time>
      </trkpt>
      <trkpt lat="43.1010990" lon="-0.8413120">
        <ele>245.3</ele>
        <time>2020-07-26T10:12:30Z</time>
      </trkpt>
      <trkpt lat="43.1010710" lon="-0.8410070">
        <ele>246.0</ele>
        <time>2020-07-26T10:12:34Z</time>
      </trkpt>
      <trkpt lat="43.1010650" lon="-0.8408580">
        <ele>246.3</ele>
        <time>2020-07-26T10:12:36Z</time>
      </trkpt>
      <trkpt lat="43.1010770" lon="-0.8404900">
        <ele>246.9</ele>
        <time>2020-07-26T10:12:41Z</time>
      </trkpt>
      <trkpt lat="43.1010970" lon="-0.8402660">
        <ele>247.2</ele>
        <time>2020-07-26T10:12:44Z</time>
      </trkpt>
      <trkpt lat="43.1011930" lon="-0.8397230">
        <ele>247.7</ele>
        <time>2020-07-26T10:12:51Z</time>
      </trkpt>
      <trkpt lat="43.1012830" lon="-0.8390380">
        <ele>247.5</ele>
        <time>2020-07-26T10:12:59Z</time>
      </trkpt>
      <trkpt lat="43.1012800" lon="-0.8384110">
        <ele>247.4</ele>
        <time>2020-07-26T10:13:06Z</time>
      </trkpt>
      <trkpt lat="43.1012010" lon="-0.8376130">
        <ele>247.2</ele>
        <time>2020-07-26T10:13:15Z</time>
      </trkpt>
      <trkpt lat="43.1011190" lon="-0.8368750">
        <ele>247.8</ele>
        <time>2020-07-26T10:13:23Z</time>
      </trkpt>
      <trkpt lat="43.1010900" lon="-0.8366090">
        <ele>248.0</ele>
        <time>2020-07-26T10:13:26Z</time>
      </trkpt>
      <trkpt lat="43.1010090" lon="-0.8358580">
        <ele>249.1</ele>
        <time>2020-07-26T10:13:35Z</time>
      </trkpt>
      <trkpt lat="43.1010010" lon="-0.8357780">
        <ele>249.2</ele>
        <time>2020-07-26T10:13:36Z</time>
      </trkpt>
      <trkpt lat="43.1009850" lon="-0.8356140">
        <ele>249.5</ele>
        <time>2020-07-26T10:13:38Z</time>
      </trkpt>
      <trkpt lat="43.1009260" lon="-0.8350680">
        <ele>250.4</ele>
        <time>2020-07-26T10:13:45Z</time>
      </trkpt>
      <trkpt lat="43.1009070" lon="-0.8349180">
        <ele>250.6</ele>
        <time>2020-07-26T10:13:47Z</time>
      </trkpt>
      <trkpt lat="43.1008500" lon="-0.8343980">
        <ele>251.1</ele>
        <time>2020-07-26T10:13:54Z</time>
      </trkpt>
      <trkpt lat="43.1008160" lon="-0.8340940">
        <ele>251.4</ele>
        <time>2020-07-26T10:13:58Z</time>
      </trkpt>
      <trkpt lat="43.1007810" lon="-0.8337810">
        <ele>251.6</ele>
        <time>2020-07-26T10:14:02Z</time>
      </trkpt>
      <trkpt lat="43.1007030" lon="-0.8331350">
        <ele>251.7</ele>
        <time>2020-07-26T10:14:10Z</time>
      </trkpt>
      <trkpt lat="43.1005990" lon="-0.8323370">
        <ele>251.4</ele>
        <time>2020-07-26T10:14:19Z</time>
      </trkpt>
      <trkpt lat="43.1004890" lon="-0.8315840">
        <ele>251.0</ele>
        <time>2020-07-26T10:14:27Z</time>
      </trkpt>
      <trkpt lat="43.1004750" lon="-0.8314900">
        <ele>251.0</ele>
        <time>2020-07-26T10:14:28Z</time>
      </trkpt>
      <trkpt lat="43.1003420" lon="-0.8307440">
        <ele>250.3</ele>
        <time>2020-07-26T10:14:36Z</time>
      </trkpt>
      <trkpt lat="43.1002920" lon="-0.8304670">
        <ele>250.3</ele>
        <time>2020-07-26T10:14:39Z</time>
      </trkpt>
      <trkpt lat="43.1001550" lon="-0.8297330">
        <ele>250.2</ele>
        <time>2020-07-26T10:14:47Z</time>
      </trkpt>
      <trkpt lat="43.1001020" lon="-0.8294540">
        <ele>250.0</ele>
        <time>2020-07-26T10:14:50Z</time>
      </trkpt>
      <trkpt lat="43.0999660" lon="-0.8287410">
        <ele>251.0</ele>
        <time>2020-07-26T10:14:58Z</time>
      </trkpt>
      <trkpt lat="43.0998700" lon="-0.8281230">
        <ele>253.3</ele>
        <time>2020-07-26T10:15:06Z</time>
      </trkpt>
      <trkpt lat="43.0998610" lon="-0.8278540">
        <ele>254.5</ele>
        <time>2020-07-26T10:15:10Z</time>
      </trkpt>
      <trkpt lat="43.0998720" lon="-0.8276640">
        <ele>255.4</ele>
        <time>2020-07-26T10:15:13Z</time>
      </trkpt>
      <trkpt lat="43.0998910" lon="-0.8275420">
        <ele>255.9</ele>
        <time>2020-07-26T10:15:15Z</time>
      </trkpt>
      <trkpt lat="43.0999300" lon="-0.8273660">
        <ele>256.8</ele>
        <time>2020-07-26T10:15:18Z</time>
      </trkpt>
      <trkpt lat="43.0999600" lon="-0.8272610">
        <ele>257.3</ele>
        <time>2020-07-26T10:15:20Z</time>
      </trkpt>
      <trkpt lat="43.0999940" lon="-0.8271550">
        <ele>257.8</ele>
        <time>2020-07-26T10:15:22Z</time>
      </trkpt>
      <trkpt lat="43.1000750" lon="-0.8269470">
        <ele>258.8</ele>
        <time>2020-07-26T10:15:26Z</time>
      </trkpt>
      <trkpt lat="43.1000970" lon="-0.8268930">
        <ele>259.1</ele>
        <time>2020-07-26T10:15:27Z</time>
      </trkpt>
      <trkpt lat="43.1001970" lon="-0.8266060">
        <ele>260.4</ele>
        <time>2020-07-26T10:15:32Z</time>
      </trkpt>
      <trkpt lat="43.1002390" lon="-0.8264260">
        <ele>261.0</ele>
        <time>2020-07-26T10:15:35Z</time>
      </trkpt>
      <trkpt lat="43.1002500" lon="-0.8263640">
        <ele>261.3</ele>
        <time>2020-07-26T10:15:36Z</time>
      </trkpt>
      <trkpt lat="43.1002760" lon="-0.8261820">
        <ele>261.7</ele>
        <time>2020-07-26T10:15:39Z</time>
      </trkpt>
      <trkpt lat="43.1002790" lon="-0.8260610">
        <ele>262.0</ele>
        <time>2020-07-26T10:15:41Z</time>
      </trkpt>
      <trkpt lat="43.1002720" lon="-0.8259390">
        <ele>262.3</ele>
        <time>2020-07-26T10:15:43Z</time>
      </trkpt>
      <trkpt lat="43.1002360" lon="-0.8256920">
        <ele>262.8</ele>
        <time>2020-07-26T10:15:47Z</time>
      </trkpt>
      <trkpt lat="43.1001670" lon="-0.8254440">
        <ele>263.1</ele>
        <time>2020-07-26T10:15:51Z</time>
      </trkpt>
      <trkpt lat="43.1001230" lon="-0.8253220">
        <ele>263.3</ele>
        <time>2020-07-26T10:15:53Z</time>
      </trkpt>
      <trkpt lat="43.0999600" lon="-0.8249650">
        <ele>263.5</ele>
        <time>2020-07-26T10:15:59Z</time>
      </trkpt>
      <trkpt lat="43.0996750" lon="-0.8242780">
        <ele>263.3</ele>
        <time>2020-07-26T10:16:09Z</time>
      </trkpt>
      <trkpt lat="43.0994080" lon="-0.8235360">
        <ele>263.0</ele>
        <time>2020-07-26T10:16:18Z</time>
      </trkpt>
      <trkpt lat="43.0991640" lon="-0.8228470">
        <ele>263.3</ele>
        <time>2020-07-26T10:16:26Z</time>
      </trkpt>
      <trkpt lat="43.0990790" lon="-0.8226110">
        <ele>263.9</ele>
        <time>2020-07-26T10:16:29Z</time>
      </trkpt>
      <trkpt lat="43.0989140" lon="-0.8221410">
        <ele>265.6</ele>
        <time>2020-07-26T10:16:36Z</time>
      </trkpt>
      <trkpt lat="43.0987780" lon="-0.8217490">
        <ele>267.0</ele>
        <time>2020-07-26T10:16:43Z</time>
      </trkpt>
      <trkpt lat="43.0987600" lon="-0.8216950">
        <ele>267.2</ele>
        <time>2020-07-26T10:16:44Z</time>
      </trkpt>
      <trkpt lat="43.0987240" lon="-0.8215890">
        <ele>267.5</ele>
        <time>2020-07-26T10:16:46Z</time>
      </trkpt>
      <trkpt lat="43.0986450" lon="-0.8213660">
        <ele>268.0</ele>
        <time>2020-07-26T10:16:50Z</time>
      </trkpt>
      <trkpt lat="43.0986020" lon="-0.8212450">
        <ele>268.2</ele>
        <time>2020-07-26T10:16:52Z</time>
      </trkpt>
      <trkpt lat="43.0985550" lon="-0.8211100">
        <ele>268.3</ele>
        <time>2020-07-26T10:16:54Z</time>
      </trkpt>
      <trkpt lat="43.0984710" lon="-0.8208670">
        <ele>268.3</ele>
        <time>2020-07-26T10:16:57Z</time>
      </trkpt>
      <trkpt lat="43.0982310" lon="-0.8201710">
        <ele>267.6</ele>
        <time>2020-07-26T10:17:05Z</time>
      </trkpt>
      <trkpt lat="43.0981390" lon="-0.8199100">
        <ele>267.5</ele>
        <time>2020-07-26T10:17:08Z</time>
      </trkpt>
      <trkpt lat="43.0979990" lon="-0.8194560">
        <ele>267.6</ele>
        <time>2020-07-26T10:17:13Z</time>
      </trkpt>
      <trkpt lat="43.0979830" lon="-0.8193630">
        <ele>267.6</ele>
        <time>2020-07-26T10:17:14Z</time>
      </trkpt>
      <trkpt lat="43.0979920" lon="-0.8190820">
        <ele>267.2</ele>
        <time>2020-07-26T10:17:17Z</time>
      </trkpt>
      <trkpt lat="43.0980110" lon="-0.8189800">
        <ele>266.8</ele>
        <time>2020-07-26T10:17:18Z</time>
      </trkpt>
      <trkpt lat="43.0981010" lon="-0.8185360">
        <ele>264.6</ele>
        <time>2020-07-26T10:17:22Z</time>
      </trkpt>
      <trkpt lat="43.0982490" lon="-0.8177960">
        <ele>262.6</ele>
        <time>2020-07-26T10:17:28Z</time>
      </trkpt>
      <trkpt lat="43.0982730" lon="-0.8176690">
        <ele>262.4</ele>
        <time>2020-07-26T10:17:29Z</time>
      </trkpt>
      <trkpt lat="43.0983730" lon="-0.8172980">
        <ele>262.5</ele>
        <time>2020-07-26T10:17:32Z</time>
      </trkpt>
      <trkpt lat="43.0984680" lon="-0.8170810">
        <ele>263.1</ele>
        <time>2020-07-26T10:17:34Z</time>
      </trkpt>
      <trkpt lat="43.0987300" lon="-0.8166370">
        <ele>264.6</ele>
        <time>2020-07-26T10:17:39Z</time>
      </trkpt>
      <trkpt lat="43.0989410" lon="-0.8162930">
        <ele>267.4</ele>
        <time>2020-07-26T10:17:44Z</time>
      </trkpt>
      <trkpt lat="43.0991240" lon="-0.8160010">
        <ele>270.7</ele>
        <time>2020-07-26T10:17:50Z</time>
      </trkpt>
      <trkpt lat="43.0991750" lon="-0.8159230">
        <ele>271.6</ele>
        <time>2020-07-26T10:17:52Z</time>
      </trkpt>
      <trkpt lat="43.0992400" lon="-0.8158160">
        <ele>272.8</ele>
        <time>2020-07-26T10:17:55Z</time>
      </trkpt>
      <trkpt lat="43.0992830" lon="-0.8157530">
        <ele>273.6</ele>
        <time>2020-07-26T10:17:57Z</time>
      </trkpt>
      <trkpt lat="43.0993050" lon="-0.8157230">
        <ele>274.0</ele>
        <time>2020-07-26T10:17:58Z</time>
      </trkpt>
      <trkpt lat="43.0993640" lon="-0.8156320">
        <ele>275.2</ele>
        <time>2020-07-26T10:18:01Z</time>
      </trkpt>
      <trkpt lat="43.0994300" lon="-0.8155530">
        <ele>276.4</ele>
        <time>2020-07-26T10:18:04Z</time>
      </trkpt>
      <trkpt lat="43.0994770" lon="-0.8155090">
        <ele>277.1</ele>
        <time>2020-07-26T10:18:06Z</time>
      </trkpt>
      <trkpt lat="43.0995280" lon="-0.8154700">
        <ele>277.9</ele>
        <time>2020-07-26T10:18:08Z</time>
      </trkpt>
      <trkpt lat="43.0996070" lon="-0.8154110">
        <ele>279.0</ele>
        <time>2020-07-26T10:18:11Z</time>
      </trkpt>
      <trkpt lat="43.0996900" lon="-0.8153680">
        <ele>280.0</ele>
        <time>2020-07-26T10:18:14Z</time>
      </trkpt>
      <trkpt lat="43.0997730" lon="-0.8153300">
        <ele>281.0</ele>
        <time>2020-07-26T10:18:17Z</time>
      </trkpt>
      <trkpt lat="43.0999150" lon="-0.8152780">
        <ele>282.6</ele>
        <time>2020-07-26T10:18:22Z</time>
      </trkpt>
      <trkpt lat="43.0999700" lon="-0.8152590">
        <ele>283.3</ele>
        <time>2020-07-26T10:18:24Z</time>
      </trkpt>
      <trkpt lat="43.1000540" lon="-0.8152290">
        <ele>284.2</ele>
        <time>2020-07-26T10:18:27Z</time>
      </trkpt>
      <trkpt lat="43.1001680" lon="-0.8151860">
        <ele>285.5</ele>
        <time>2020-07-26T10:18:31Z</time>
      </trkpt>
      <trkpt lat="43.1002240" lon="-0.8151610">
        <ele>286.2</ele>
        <time>2020-07-26T10:18:33Z</time>
      </trkpt>
      <trkpt lat="43.1002520" lon="-0.8151490">
        <ele>286.5</ele>
        <time>2020-07-26T10:18:34Z</time>
      </trkpt>
      <trkpt lat="43.1003350" lon="-0.8151080">
        <ele>286.7</ele>
        <time>2020-07-26T10:18:37Z</time>
      </trkpt>
      <trkpt lat="43.1004470" lon="-0.8150380">
        <ele>287.1</ele>
        <time>2020-07-26T10:18:41Z</time>
      </trkpt>
      <trkpt lat="43.1005030" lon="-0.8149980">
        <ele>287.4</ele>
        <time>2020-07-26T10:18:43Z</time>
      </trkpt>
      <trkpt lat="43.1005870" lon="-0.8149270">
        <ele>287.7</ele>
        <time>2020-07-26T10:18:46Z</time>
      </trkpt>
      <trkpt lat="43.1007040" lon="-0.8148100">
        <ele>287.8</ele>
        <time>2020-07-26T10:18:50Z</time>
      </trkpt>
      <trkpt lat="43.1007630" lon="-0.8147350">
        <ele>287.7</ele>
        <time>2020-07-26T10:18:52Z</time>
      </trkpt>
      <trkpt lat="43.1008790" lon="-0.8145630">
        <ele>287.3</ele>
        <time>2020-07-26T10:18:56Z</time>
      </trkpt>
      <trkpt lat="43.1009620" lon="-0.8143940">
        <ele>286.7</ele>
        <time>2020-07-26T10:18:59Z</time>
      </trkpt>
      <trkpt lat="43.1010990" lon="-0.8140130">
        <ele>284.7</ele>
        <time>2020-07-26T10:19:04Z</time>
      </trkpt>
      <trkpt lat="43.1012420" lon="-0.8134280">
        <ele>282.3</ele>
        <time>2020-07-26T10:19:10Z</time>
      </trkpt>
      <trkpt lat="43.1012900" lon="-0.8132090">
        <ele>281.6</ele>
        <time>2020-07-26T10:19:12Z</time>
      </trkpt>
      <trkpt lat="43.1013830" lon="-0.8127440">
        <ele>280.1</ele>
        <time>2020-07-26T10:19:16Z</time>
      </trkpt>
      <trkpt lat="43.1014030" lon="-0.8126210">
        <ele>279.7</ele>
        <time>2020-07-26T10:19:17Z</time>
      </trkpt>
      <trkpt lat="43.1014320" lon="-0.8123650">
        <ele>279.1</ele>
        <time>2020-07-26T10:19:19Z</time>
      </trkpt>
      <trkpt lat="43.1014490" lon="-0.8119680">
        <ele>278.8</ele>
        <time>2020-07-26T10:19:22Z</time>
      </trkpt>
      <trkpt lat="43.1014450" lon="-0.8118360">
        <ele>278.7</ele>
        <time>2020-07-26T10:19:23Z</time>
      </trkpt>
      <trkpt lat="43.1014080" lon="-0.8114520">
        <ele>279.2</ele>
        <time>2020-07-26T10:19:26Z</time>
      </trkpt>
      <trkpt lat="43.1013850" lon="-0.8113350">
        <ele>279.5</ele>
        <time>2020-07-26T10:19:27Z</time>
      </trkpt>
      <trkpt lat="43.1013340" lon="-0.8111200">
        <ele>280.3</ele>
        <time>2020-07-26T10:19:29Z</time>
      </trkpt>
      <trkpt lat="43.1012540" lon="-0.8108320">
        <ele>281.7</ele>
        <time>2020-07-26T10:19:32Z</time>
      </trkpt>
      <trkpt lat="43.1011240" lon="-0.8104620">
        <ele>283.9</ele>
        <time>2020-07-26T10:19:37Z</time>
      </trkpt>
      <trkpt lat="43.1010350" lon="-0.8102650">
        <ele>285.7</ele>
        <time>2020-07-26T10:19:41Z</time>
      </trkpt>
      <trkpt lat="43.1010150" lon="-0.8102270">
        <ele>286.1</ele>
        <time>2020-07-26T10:19:42Z</time>
      </trkpt>
      <trkpt lat="43.1009760" lon="-0.8101590">
        <ele>286.9</ele>
        <time>2020-07-26T10:19:44Z</time>
      </trkpt>
      <trkpt lat="43.1009260" lon="-0.8100660">
        <ele>288.0</ele>
        <time>2020-07-26T10:19:47Z</time>
      </trkpt>
      <trkpt lat="43.1008900" lon="-0.8100100">
        <ele>288.7</ele>
        <time>2020-07-26T10:19:49Z</time>
      </trkpt>
      <trkpt lat="43.1008710" lon="-0.8099830">
        <ele>289.0</ele>
        <time>2020-07-26T10:19:50Z</time>
      </trkpt>
      <trkpt lat="43.1008540" lon="-0.8099540">
        <ele>289.4</ele>
        <time>2020-07-26T10:19:51Z</time>
      </trkpt>
      <trkpt lat="43.1007740" lon="-0.8098090">
        <ele>291.0</ele>
        <time>2020-07-26T10:19:56Z</time>
      </trkpt>
      <trkpt lat="43.1007420" lon="-0.8097510">
        <ele>291.6</ele>
        <time>2020-07-26T10:19:58Z</time>
      </trkpt>
      <trkpt lat="43.1007260" lon="-0.8097210">
        <ele>291.9</ele>
        <time>2020-07-26T10:19:59Z</time>
      </trkpt>
      <trkpt lat="43.1006690" lon="-0.8095960">
        <ele>293.2</ele>
        <time>2020-07-26T10:20:03Z</time>
      </trkpt>
      <trkpt lat="43.1006300" lon="-0.8095000">
        <ele>294.1</ele>
        <time>2020-07-26T10:20:06Z</time>
      </trkpt>
      <trkpt lat="43.1006060" lon="-0.8094370">
        <ele>294.7</ele>
        <time>2020-07-26T10:20:08Z</time>
      </trkpt>
      <trkpt lat="43.1005660" lon="-0.8093030">
        <ele>295.9</ele>
        <time>2020-07-26T10:20:12Z</time>
      </trkpt>
      <trkpt lat="43.1005460" lon="-0.8091970">
        <ele>296.7</ele>
        <time>2020-07-26T10:20:15Z</time>
      </trkpt>
      <trkpt lat="43.1005320" lon="-0.8091260">
        <ele>297.3</ele>
        <time>2020-07-26T10:20:17Z</time>
      </trkpt>
      <trkpt lat="43.1005110" lon="-0.8089850">
        <ele>298.4</ele>
        <time>2020-07-26T10:20:21Z</time>
      </trkpt>
      <trkpt lat="43.1005120" lon="-0.8088760">
        <ele>299.3</ele>
        <time>2020-07-26T10:20:24Z</time>
      </trkpt>
      <trkpt lat="43.1005150" lon="-0.8087320">
        <ele>300.4</ele>
        <time>2020-07-26T10:20:28Z</time>
      </trkpt>
      <trkpt lat="43.1005320" lon="-0.8086220">
        <ele>301.3</ele>
        <time>2020-07-26T10:20:31Z</time>
      </trkpt>
      <trkpt lat="43.1005400" lon="-0.8085860">
        <ele>301.6</ele>
        <time>2020-07-26T10:20:32Z</time>
      </trkpt>
      <trkpt lat="43.1005810" lon="-0.8084470">
        <ele>302.8</ele>
        <time>2020-07-26T10:20:36Z</time>
      </trkpt>
      <trkpt lat="43.1006170" lon="-0.8083500">
        <ele>303.7</ele>
        <time>2020-07-26T10:20:39Z</time>
      </trkpt>
      <trkpt lat="43.1006300" lon="-0.8083190">
        <ele>303.9</ele>
        <time>2020-07-26T10:20:40Z</time>
      </trkpt>
      <trkpt lat="43.1006980" lon="-0.8082020">
        <ele>305.0</ele>
        <time>2020-07-26T10:20:44Z</time>
      </trkpt>
      <trkpt lat="43.1007500" lon="-0.8081140">
        <ele>305.9</ele>
        <time>2020-07-26T10:20:47Z</time>
      </trkpt>
      <trkpt lat="43.1007710" lon="-0.8080890">
        <ele>306.1</ele>
        <time>2020-07-26T10:20:48Z</time>
      </trkpt>
      <trkpt lat="43.1008540" lon="-0.8080050">
        <ele>307.2</ele>
        <time>2020-07-26T10:20:52Z</time>
      </trkpt>
      <trkpt lat="43.1008740" lon="-0.8079820">
        <ele>307.6</ele>
        <time>2020-07-26T10:20:53Z</time>
      </trkpt>
      <trkpt lat="43.1009650" lon="-0.8079080">
        <ele>308.6</ele>
        <time>2020-07-26T10:20:57Z</time>
      </trkpt>
      <trkpt lat="43.1010330" lon="-0.8078540">
        <ele>309.4</ele>
        <time>2020-07-26T10:21:00Z</time>
      </trkpt>
      <trkpt lat="43.1011460" lon="-0.8077570">
        <ele>310.8</ele>
        <time>2020-07-26T10:21:05Z</time>
      </trkpt>
      <trkpt lat="43.1012430" lon="-0.8076830">
        <ele>311.8</ele>
        <time>2020-07-26T10:21:09Z</time>
      </trkpt>
      <trkpt lat="43.1012900" lon="-0.8076500">
        <ele>312.4</ele>
        <time>2020-07-26T10:21:11Z</time>
      </trkpt>
      <trkpt lat="43.1013360" lon="-0.8076160">
        <ele>312.9</ele>
        <time>2020-07-26T10:21:13Z</time>
      </trkpt>
      <trkpt lat="43.1014510" lon="-0.8075150">
        <ele>314.3</ele>
        <time>2020-07-26T10:21:18Z</time>
      </trkpt>
      <trkpt lat="43.1015220" lon="-0.8074590">
        <ele>315.1</ele>
        <time>2020-07-26T10:21:21Z</time>
      </trkpt>
      <trkpt lat="43.1015930" lon="-0.8074060">
        <ele>316.0</ele>
        <time>2020-07-26T10:21:24Z</time>
      </trkpt>
      <trkpt lat="43.1017020" lon="-0.8073170">
        <ele>317.2</ele>
        <time>2020-07-26T10:21:29Z</time>
      </trkpt>
      <trkpt lat="43.1017230" lon="-0.8073010">
        <ele>317.4</ele>
        <time>2020-07-26T10:21:30Z</time>
      </trkpt>
      <trkpt lat="43.1017620" lon="-0.8072720">
        <ele>317.9</ele>
        <time>2020-07-26T10:21:32Z</time>
      </trkpt>
      <trkpt lat="43.1018470" lon="-0.8072040">
        <ele>318.8</ele>
        <time>2020-07-26T10:21:36Z</time>
      </trkpt>
      <trkpt lat="43.1018650" lon="-0.8071890">
        <ele>319.0</ele>
        <time>2020-07-26T10:21:37Z</time>
      </trkpt>
      <trkpt lat="43.1019260" lon="-0.8071450">
        <ele>319.7</ele>
        <time>2020-07-26T10:21:40Z</time>
      </trkpt>
      <trkpt lat="43.1020320" lon="-0.8070700">
        <ele>320.8</ele>
        <time>2020-07-26T10:21:45Z</time>
      </trkpt>
      <trkpt lat="43.1021430" lon="-0.8069740">
        <ele>322.0</ele>
        <time>2020-07-26T10:21:49Z</time>
      </trkpt>
      <trkpt lat="43.1022210" lon="-0.8069170">
        <ele>322.7</ele>
        <time>2020-07-26T10:21:52Z</time>
      </trkpt>
      <trkpt lat="43.1022480" lon="-0.8068960">
        <ele>323.0</ele>
        <time>2020-07-26T10:21:53Z</time>
      </trkpt>
      <trkpt lat="43.1023480" lon="-0.8068110">
        <ele>324.0</ele>
        <time>2020-07-26T10:21:57Z</time>
      </trkpt>
      <trkpt lat="43.1024400" lon="-0.8067230">
        <ele>324.9</ele>
        <time>2020-07-26T10:22:01Z</time>
      </trkpt>
      <trkpt lat="43.1025520" lon="-0.8066010">
        <ele>326.1</ele>
        <time>2020-07-26T10:22:06Z</time>
      </trkpt>
      <trkpt lat="43.1026160" lon="-0.8065190">
        <ele>326.9</ele>
        <time>2020-07-26T10:22:09Z</time>
      </trkpt>
      <trkpt lat="43.1026370" lon="-0.8064910">
        <ele>327.2</ele>
        <time>2020-07-26T10:22:10Z</time>
      </trkpt>
      <trkpt lat="43.1026750" lon="-0.8064320">
        <ele>327.7</ele>
        <time>2020-07-26T10:22:12Z</time>
      </trkpt>
      <trkpt lat="43.1027440" lon="-0.8063060">
        <ele>328.7</ele>
        <time>2020-07-26T10:22:16Z</time>
      </trkpt>
      <trkpt lat="43.1028200" lon="-0.8061360">
        <ele>330.0</ele>
        <time>2020-07-26T10:22:21Z</time>
      </trkpt>
      <trkpt lat="43.1028350" lon="-0.8061020">
        <ele>330.2</ele>
        <time>2020-07-26T10:22:22Z</time>
      </trkpt>
      <trkpt lat="43.1028780" lon="-0.8059990">
        <ele>331.0</ele>
        <time>2020-07-26T10:22:25Z</time>
      </trkpt>
      <trkpt lat="43.1029190" lon="-0.8058950">
        <ele>331.7</ele>
        <time>2020-07-26T10:22:28Z</time>
      </trkpt>
      <trkpt lat="43.1029660" lon="-0.8057560">
        <ele>332.7</ele>
        <time>2020-07-26T10:22:32Z</time>
      </trkpt>
      <trkpt lat="43.1029750" lon="-0.8057240">
        <ele>333.0</ele>
        <time>2020-07-26T10:22:33Z</time>
      </trkpt>
      <trkpt lat="43.1030380" lon="-0.8055460">
        <ele>334.3</ele>
        <time>2020-07-26T10:22:38Z</time>
      </trkpt>
      <trkpt lat="43.1030820" lon="-0.8053990">
        <ele>335.4</ele>
        <time>2020-07-26T10:22:42Z</time>
      </trkpt>
      <trkpt lat="43.1031180" lon="-0.8052530">
        <ele>336.4</ele>
        <time>2020-07-26T10:22:46Z</time>
      </trkpt>
      <trkpt lat="43.1031500" lon="-0.8051030">
        <ele>337.4</ele>
        <time>2020-07-26T10:22:50Z</time>
      </trkpt>
      <trkpt lat="43.1031670" lon="-0.8049870">
        <ele>338.1</ele>
        <time>2020-07-26T10:22:53Z</time>
      </trkpt>
      <trkpt lat="43.1031770" lon="-0.8049090">
        <ele>338.6</ele>
        <time>2020-07-26T10:22:55Z</time>
      </trkpt>
      <trkpt lat="43.1031830" lon="-0.8047920">
        <ele>339.4</ele>
        <time>2020-07-26T10:22:58Z</time>
      </trkpt>
      <trkpt lat="43.1031620" lon="-0.8045970">
        <ele>340.8</ele>
        <time>2020-07-26T10:23:03Z</time>
      </trkpt>
      <trkpt lat="43.1031550" lon="-0.8045590">
        <ele>341.0</ele>
        <time>2020-07-26T10:23:04Z</time>
      </trkpt>
      <trkpt lat="43.1031170" lon="-0.8044200">
        <ele>342.0</ele>
        <time>2020-07-26T10:23:08Z</time>
      </trkpt>
      <trkpt lat="43.1030570" lon="-0.8042930">
        <ele>342.9</ele>
        <time>2020-07-26T10:23:12Z</time>
      </trkpt>
      <trkpt lat="43.1030410" lon="-0.8042610">
        <ele>343.2</ele>
        <time>2020-07-26T10:23:13Z</time>
      </trkpt>
      <trkpt lat="43.1029790" lon="-0.8041330">
        <ele>344.2</ele>
        <time>2020-07-26T10:23:17Z</time>
      </trkpt>
      <trkpt lat="43.1029110" lon="-0.8039560">
        <ele>345.5</ele>
        <time>2020-07-26T10:23:22Z</time>
      </trkpt>
      <trkpt lat="43.1028790" lon="-0.8038420">
        <ele>346.3</ele>
        <time>2020-07-26T10:23:25Z</time>
      </trkpt>
      <trkpt lat="43.1028510" lon="-0.8036840">
        <ele>347.3</ele>
        <time>2020-07-26T10:23:29Z</time>
      </trkpt>
      <trkpt lat="43.1028480" lon="-0.8036440">
        <ele>347.5</ele>
        <time>2020-07-26T10:23:30Z</time>
      </trkpt>
      <trkpt lat="43.1028440" lon="-0.8035220">
        <ele>348.2</ele>
        <time>2020-07-26T10:23:33Z</time>
      </trkpt>
      <trkpt lat="43.1028600" lon="-0.8033230">
        <ele>349.3</ele>
        <time>2020-07-26T10:23:38Z</time>
      </trkpt>
      <trkpt lat="43.1028930" lon="-0.8031300">
        <ele>350.4</ele>
        <time>2020-07-26T10:23:43Z</time>
      </trkpt>
      <trkpt lat="43.1029200" lon="-0.8029740">
        <ele>351.2</ele>
        <time>2020-07-26T10:23:47Z</time>
      </trkpt>
      <trkpt lat="43.1029540" lon="-0.8027750">
        <ele>352.3</ele>
        <time>2020-07-26T10:23:52Z</time>
      </trkpt>
      <trkpt lat="43.1029610" lon="-0.8026560">
        <ele>352.9</ele>
        <time>2020-07-26T10:23:55Z</time>
      </trkpt>
      <trkpt lat="43.1029620" lon="-0.8025810">
        <ele>353.4</ele>
        <time>2020-07-26T10:23:57Z</time>
      </trkpt>
      <trkpt lat="43.1029590" lon="-0.8024640">
        <ele>354.1</ele>
        <time>2020-07-26T10:24:00Z</time>
      </trkpt>
      <trkpt lat="43.1029450" lon="-0.8022690">
        <ele>355.2</ele>
        <time>2020-07-26T10:24:05Z</time>
      </trkpt>
      <trkpt lat="43.1029350" lon="-0.8021480">
        <ele>355.9</ele>
        <time>2020-07-26T10:24:08Z</time>
      </trkpt>
      <trkpt lat="43.1029290" lon="-0.8021090">
        <ele>356.2</ele>
        <time>2020-07-26T10:24:09Z</time>
      </trkpt>
      <trkpt lat="43.1029180" lon="-0.8019100">
        <ele>357.2</ele>
        <time>2020-07-26T10:24:14Z</time>
      </trkpt>
      <trkpt lat="43.1029120" lon="-0.8018300">
        <ele>357.7</ele>
        <time>2020-07-26T10:24:16Z</time>
      </trkpt>
      <trkpt lat="43.1028920" lon="-0.8016730">
        <ele>358.5</ele>
        <time>2020-07-26T10:24:20Z</time>
      </trkpt>
      <trkpt lat="43.1028790" lon="-0.8015270">
        <ele>359.3</ele>
        <time>2020-07-26T10:24:24Z</time>
      </trkpt>
      <trkpt lat="43.1028620" lon="-0.8013750">
        <ele>360.2</ele>
        <time>2020-07-26T10:24:28Z</time>
      </trkpt>
      <trkpt lat="43.1028720" lon="-0.8012340">
        <ele>361.1</ele>
        <time>2020-07-26T10:24:32Z</time>
      </trkpt>
      <trkpt lat="43.1028680" lon="-0.8011560">
        <ele>361.5</ele>
        <time>2020-07-26T10:24:34Z</time>
      </trkpt>
      <trkpt lat="43.1028610" lon="-0.8009090">
        <ele>363.0</ele>
        <time>2020-07-26T10:24:40Z</time>
      </trkpt>
      <trkpt lat="43.1028650" lon="-0.8008670">
        <ele>363.2</ele>
        <time>2020-07-26T10:24:41Z</time>
      </trkpt>
      <trkpt lat="43.1028850" lon="-0.8006910">
        <ele>364.1</ele>
        <time>2020-07-26T10:24:45Z</time>
      </trkpt>
      <trkpt lat="43.1028970" lon="-0.8006000">
        <ele>364.6</ele>
        <time>2020-07-26T10:24:47Z</time>
      </trkpt>
      <trkpt lat="43.1029190" lon="-0.8004750">
        <ele>365.3</ele>
        <time>2020-07-26T10:24:50Z</time>
      </trkpt>
      <trkpt lat="43.1029570" lon="-0.8003130">
        <ele>366.2</ele>
        <time>2020-07-26T10:24:54Z</time>
      </trkpt>
      <trkpt lat="43.1030690" lon="-0.8000630">
        <ele>367.6</ele>
        <time>2020-07-26T10:25:00Z</time>
      </trkpt>
      <trkpt lat="43.1030860" lon="-0.8000210">
        <ele>367.7</ele>
        <time>2020-07-26T10:25:01Z</time>
      </trkpt>
      <trkpt lat="43.1031350" lon="-0.7998890">
        <ele>368.3</ele>
        <time>2020-07-26T10:25:04Z</time>
      </trkpt>
      <trkpt lat="43.1032350" lon="-0.7996680">
        <ele>369.1</ele>
        <time>2020-07-26T10:25:09Z</time>
      </trkpt>
      <trkpt lat="43.1032560" lon="-0.7996200">
        <ele>369.2</ele>
        <time>2020-07-26T10:25:10Z</time>
      </trkpt>
      <trkpt lat="43.1033720" lon="-0.7993680">
        <ele>369.5</ele>
        <time>2020-07-26T10:25:15Z</time>
      </trkpt>
      <trkpt lat="43.1034740" lon="-0.7991360">
        <ele>369.1</ele>
        <time>2020-07-26T10:25:19Z</time>
      </trkpt>
      <trkpt lat="43.1036500" lon="-0.7986890">
        <ele>367.6</ele>
        <time>2020-07-26T10:25:25Z</time>
      </trkpt>
      <trkpt lat="43.1038720" lon="-0.7981290">
        <ele>365.7</ele>
        <time>2020-07-26T10:25:31Z</time>
      </trkpt>
      <trkpt lat="43.1040270" lon="-0.7977290">
        <ele>364.4</ele>
        <time>2020-07-26T10:25:35Z</time>
      </trkpt>
      <trkpt lat="43.1041130" lon="-0.7975200">
        <ele>363.7</ele>
        <time>2020-07-26T10:25:37Z</time>
      </trkpt>
      <trkpt lat="43.1042000" lon="-0.7973070">
        <ele>363.1</ele>
        <time>2020-07-26T10:25:39Z</time>
      </trkpt>
      <trkpt lat="43.1042840" lon="-0.7970800">
        <ele>362.3</ele>
        <time>2020-07-26T10:25:41Z</time>
      </trkpt>
      <trkpt lat="43.1044110" lon="-0.7967150">
        <ele>361.0</ele>
        <time>2020-07-26T10:25:44Z</time>
      </trkpt>
      <trkpt lat="43.1044570" lon="-0.7965910">
        <ele>360.6</ele>
        <time>2020-07-26T10:25:45Z</time>
      </trkpt>
      <trkpt lat="43.1046300" lon="-0.7960840">
        <ele>359.0</ele>
        <time>2020-07-26T10:25:49Z</time>
      </trkpt>
      <trkpt lat="43.1047190" lon="-0.7958340">
        <ele>358.1</ele>
        <time>2020-07-26T10:25:51Z</time>
      </trkpt>
      <trkpt lat="43.1047680" lon="-0.7957120">
        <ele>357.6</ele>
        <time>2020-07-26T10:25:52Z</time>
      </trkpt>
      <trkpt lat="43.1048220" lon="-0.7955910">
        <ele>357.2</ele>
        <time>2020-07-26T10:25:53Z</time>
      </trkpt>
      <trkpt lat="43.1049270" lon="-0.7953510">
        <ele>356.5</ele>
        <time>2020-07-26T10:25:55Z</time>
      </trkpt>
      <trkpt lat="43.1050310" lon="-0.7951160">
        <ele>355.9</ele>
        <time>2020-07-26T10:25:57Z</time>
      </trkpt>
      <trkpt lat="43.1051790" lon="-0.7947570">
        <ele>355.0</ele>
        <time>2020-07-26T10:26:00Z</time>
      </trkpt>
      <trkpt lat="43.1052780" lon="-0.7945180">
        <ele>354.7</ele>
        <time>2020-07-26T10:26:02Z</time>
      </trkpt>
      <trkpt lat="43.1054990" lon="-0.7939510">
        <ele>354.1</ele>
        <time>2020-07-26T10:26:07Z</time>
      </trkpt>
      <trkpt lat="43.1055840" lon="-0.7937310">
        <ele>353.7</ele>
        <time>2020-07-26T10:26:09Z</time>
      </trkpt>
      <trkpt lat="43.1058340" lon="-0.7931840">
        <ele>352.0</ele>
        <time>2020-07-26T10:26:14Z</time>
      </trkpt>
      <trkpt lat="43.1058990" lon="-0.7930850">
        <ele>351.6</ele>
        <time>2020-07-26T10:26:15Z</time>
      </trkpt>
      <trkpt lat="43.1060530" lon="-0.7929030">
        <ele>350.8</ele>
        <time>2020-07-26T10:26:17Z</time>
      </trkpt>
      <trkpt lat="43.1065300" lon="-0.7923510">
        <ele>348.8</ele>
        <time>2020-07-26T10:26:23Z</time>
      </trkpt>
      <trkpt lat="43.1066860" lon="-0.7921650">
        <ele>348.0</ele>
        <time>2020-07-26T10:26:25Z</time>
      </trkpt>
      <trkpt lat="43.1067660" lon="-0.7920730">
        <ele>347.5</ele>
        <time>2020-07-26T10:26:26Z</time>
      </trkpt>
      <trkpt lat="43.1069220" lon="-0.7918790">
        <ele>346.6</ele>
        <time>2020-07-26T10:26:28Z</time>
      </trkpt>
      <trkpt lat="43.1071320" lon="-0.7915510">
        <ele>345.1</ele>
        <time>2020-07-26T10:26:31Z</time>
      </trkpt>
      <trkpt lat="43.1072560" lon="-0.7913150">
        <ele>344.2</ele>
        <time>2020-07-26T10:26:33Z</time>
      </trkpt>
      <trkpt lat="43.1073750" lon="-0.7910760">
        <ele>343.3</ele>
        <time>2020-07-26T10:26:35Z</time>
      </trkpt>
      <trkpt lat="43.1074950" lon="-0.7908400">
        <ele>342.4</ele>
        <time>2020-07-26T10:26:37Z</time>
      </trkpt>
      <trkpt lat="43.1076180" lon="-0.7906030">
        <ele>341.6</ele>
        <time>2020-07-26T10:26:39Z</time>
      </trkpt>
      <trkpt lat="43.1076860" lon="-0.7904840">
        <ele>341.1</ele>
        <time>2020-07-26T10:26:40Z</time>
      </trkpt>
      <trkpt lat="43.1078290" lon="-0.7902750">
        <ele>340.2</ele>
        <time>2020-07-26T10:26:42Z</time>
      </trkpt>
      <trkpt lat="43.1081620" lon="-0.7899190">
        <ele>338.0</ele>
        <time>2020-07-26T10:26:46Z</time>
      </trkpt>
      <trkpt lat="43.1082520" lon="-0.7898330">
        <ele>337.4</ele>
        <time>2020-07-26T10:26:47Z</time>
      </trkpt>
      <trkpt lat="43.1084270" lon="-0.7896620">
        <ele>336.3</ele>
        <time>2020-07-26T10:26:49Z</time>
      </trkpt>
      <trkpt lat="43.1086900" lon="-0.7894200">
        <ele>334.3</ele>
        <time>2020-07-26T10:26:52Z</time>
      </trkpt>
      <trkpt lat="43.1089870" lon="-0.7892120">
        <ele>331.7</ele>
        <time>2020-07-26T10:26:55Z</time>
      </trkpt>
      <trkpt lat="43.1090950" lon="-0.7891470">
        <ele>330.8</ele>
        <time>2020-07-26T10:26:56Z</time>
      </trkpt>
      <trkpt lat="43.1092050" lon="-0.7890790">
        <ele>330.0</ele>
        <time>2020-07-26T10:26:57Z</time>
      </trkpt>
      <trkpt lat="43.1096380" lon="-0.7887380">
        <ele>328.6</ele>
        <time>2020-07-26T10:27:01Z</time>
      </trkpt>
      <trkpt lat="43.1098960" lon="-0.7884240">
        <ele>329.0</ele>
        <time>2020-07-26T10:27:04Z</time>
      </trkpt>
      <trkpt lat="43.1099730" lon="-0.7883220">
        <ele>329.0</ele>
        <time>2020-07-26T10:27:05Z</time>
      </trkpt>
      <trkpt lat="43.1100480" lon="-0.7882180">
        <ele>329.0</ele>
        <time>2020-07-26T10:27:06Z</time>
      </trkpt>
      <trkpt lat="43.1101850" lon="-0.7880050">
        <ele>329.1</ele>
        <time>2020-07-26T10:27:08Z</time>
      </trkpt>
      <trkpt lat="43.1103490" lon="-0.7876750">
        <ele>329.2</ele>
        <time>2020-07-26T10:27:11Z</time>
      </trkpt>
      <trkpt lat="43.1105180" lon="-0.7871370">
        <ele>329.6</ele>
        <time>2020-07-26T10:27:16Z</time>
      </trkpt>
      <trkpt lat="43.1107520" lon="-0.7864270">
        <ele>329.8</ele>
        <time>2020-07-26T10:27:23Z</time>
      </trkpt>
      <trkpt lat="43.1108030" lon="-0.7862310">
        <ele>329.7</ele>
        <time>2020-07-26T10:27:25Z</time>
      </trkpt>
      <trkpt lat="43.1108690" lon="-0.7856760">
        <ele>328.8</ele>
        <time>2020-07-26T10:27:30Z</time>
      </trkpt>
      <trkpt lat="43.1109460" lon="-0.7849590">
        <ele>326.7</ele>
        <time>2020-07-26T10:27:36Z</time>
      </trkpt>
      <trkpt lat="43.1109830" lon="-0.7848450">
        <ele>326.2</ele>
        <time>2020-07-26T10:27:37Z</time>
      </trkpt>
      <trkpt lat="43.1110880" lon="-0.7846310">
        <ele>325.5</ele>
        <time>2020-07-26T10:27:39Z</time>
      </trkpt>
      <trkpt lat="43.1112220" lon="-0.7844290">
        <ele>324.8</ele>
        <time>2020-07-26T10:27:41Z</time>
      </trkpt>
      <trkpt lat="43.1114130" lon="-0.7841130">
        <ele>324.3</ele>
        <time>2020-07-26T10:27:44Z</time>
      </trkpt>
      <trkpt lat="43.1114620" lon="-0.7839940">
        <ele>324.2</ele>
        <time>2020-07-26T10:27:45Z</time>
      </trkpt>
      <trkpt lat="43.1115220" lon="-0.7837380">
        <ele>324.3</ele>
        <time>2020-07-26T10:27:47Z</time>
      </trkpt>
      <trkpt lat="43.1115340" lon="-0.7836080">
        <ele>324.4</ele>
        <time>2020-07-26T10:27:48Z</time>
      </trkpt>
      <trkpt lat="43.1115420" lon="-0.7834790">
        <ele>324.5</ele>
        <time>2020-07-26T10:27:49Z</time>
      </trkpt>
      <trkpt lat="43.1115470" lon="-0.7833530">
        <ele>324.7</ele>
        <time>2020-07-26T10:27:50Z</time>
      </trkpt>
      <trkpt lat="43.1115550" lon="-0.7831110">
        <ele>325.2</ele>
        <time>2020-07-26T10:27:52Z</time>
      </trkpt>
      <trkpt lat="43.1115810" lon="-0.7824790">
        <ele>326.1</ele>
        <time>2020-07-26T10:27:58Z</time>
      </trkpt>
      <trkpt lat="43.1115830" lon="-0.7817790">
        <ele>327.3</ele>
        <time>2020-07-26T10:28:06Z</time>
      </trkpt>
      <trkpt lat="43.1115650" lon="-0.7816150">
        <ele>327.5</ele>
        <time>2020-07-26T10:28:08Z</time>
      </trkpt>
      <trkpt lat="43.1114830" lon="-0.7812040">
        <ele>327.5</ele>
        <time>2020-07-26T10:28:13Z</time>
      </trkpt>
      <trkpt lat="43.1113010" lon="-0.7805780">
        <ele>326.7</ele>
        <time>2020-07-26T10:28:20Z</time>
      </trkpt>
      <trkpt lat="43.1110700" lon="-0.7799020">
        <ele>325.1</ele>
        <time>2020-07-26T10:28:27Z</time>
      </trkpt>
      <trkpt lat="43.1110010" lon="-0.7796940">
        <ele>324.4</ele>
        <time>2020-07-26T10:28:29Z</time>
      </trkpt>
      <trkpt lat="43.1109290" lon="-0.7794830">
        <ele>323.8</ele>
        <time>2020-07-26T10:28:31Z</time>
      </trkpt>
      <trkpt lat="43.1107090" lon="-0.7788300">
        <ele>321.9</ele>
        <time>2020-07-26T10:28:37Z</time>
      </trkpt>
      <trkpt lat="43.1106330" lon="-0.7786020">
        <ele>321.3</ele>
        <time>2020-07-26T10:28:39Z</time>
      </trkpt>
      <trkpt lat="43.1105570" lon="-0.7783690">
        <ele>320.9</ele>
        <time>2020-07-26T10:28:41Z</time>
      </trkpt>
      <trkpt lat="43.1105000" lon="-0.7781270">
        <ele>320.5</ele>
        <time>2020-07-26T10:28:43Z</time>
      </trkpt>
      <trkpt lat="43.1104840" lon="-0.7780030">
        <ele>320.3</ele>
        <time>2020-07-26T10:28:44Z</time>
      </trkpt>
      <trkpt lat="43.1104730" lon="-0.7778760">
        <ele>320.1</ele>
        <time>2020-07-26T10:28:45Z</time>
      </trkpt>
      <trkpt lat="43.1104570" lon="-0.7776200">
        <ele>319.7</ele>
        <time>2020-07-26T10:28:47Z</time>
      </trkpt>
      <trkpt lat="43.1104420" lon="-0.7772500">
        <ele>319.5</ele>
        <time>2020-07-26T10:28:50Z</time>
      </trkpt>
      <trkpt lat="43.1104290" lon="-0.7767840">
        <ele>319.3</ele>
        <time>2020-07-26T10:28:54Z</time>
      </trkpt>
      <trkpt lat="43.1104210" lon="-0.7764440">
        <ele>319.1</ele>
        <time>2020-07-26T10:28:57Z</time>
      </trkpt>
      <trkpt lat="43.1104050" lon="-0.7756610">
        <ele>318.4</ele>
        <time>2020-07-26T10:29:04Z</time>
      </trkpt>
      <trkpt lat="43.1103950" lon="-0.7753280">
        <ele>318.2</ele>
        <time>2020-07-26T10:29:07Z</time>
      </trkpt>
      <trkpt lat="43.1103730" lon="-0.7745670">
        <ele>317.6</ele>
        <time>2020-07-26T10:29:14Z</time>
      </trkpt>
      <trkpt lat="43.1103600" lon="-0.7741250">
        <ele>317.2</ele>
        <time>2020-07-26T10:29:18Z</time>
      </trkpt>
      <trkpt lat="43.1103490" lon="-0.7736730">
        <ele>316.7</ele>
        <time>2020-07-26T10:29:22Z</time>
      </trkpt>
      <trkpt lat="43.1103400" lon="-0.7733330">
        <ele>316.4</ele>
        <time>2020-07-26T10:29:25Z</time>
      </trkpt>
      <trkpt lat="43.1103280" lon="-0.7729940">
        <ele>316.0</ele>
        <time>2020-07-26T10:29:28Z</time>
      </trkpt>
      <trkpt lat="43.1102790" lon="-0.7722030">
        <ele>315.3</ele>
        <time>2020-07-26T10:29:35Z</time>
      </trkpt>
      <trkpt lat="43.1102760" lon="-0.7720910">
        <ele>315.3</ele>
        <time>2020-07-26T10:29:36Z</time>
      </trkpt>
      <trkpt lat="43.1102650" lon="-0.7713270">
        <ele>315.1</ele>
        <time>2020-07-26T10:29:43Z</time>
      </trkpt>
      <trkpt lat="43.1102580" lon="-0.7708990">
        <ele>316.0</ele>
        <time>2020-07-26T10:29:47Z</time>
      </trkpt>
      <trkpt lat="43.1102910" lon="-0.7706980">
        <ele>315.3</ele>
        <time>2020-07-26T10:29:49Z</time>
      </trkpt>
      <trkpt lat="43.1104170" lon="-0.7704660">
        <ele>315.2</ele>
        <time>2020-07-26T10:29:52Z</time>
      </trkpt>
      <trkpt lat="43.1105890" lon="-0.7703390">
        <ele>315.6</ele>
        <time>2020-07-26T10:29:55Z</time>
      </trkpt>
      <trkpt lat="43.1106550" lon="-0.7703050">
        <ele>315.8</ele>
        <time>2020-07-26T10:29:56Z</time>
      </trkpt>
      <trkpt lat="43.1109960" lon="-0.7701680">
        <ele>317.2</ele>
        <time>2020-07-26T10:30:02Z</time>
      </trkpt>
      <trkpt lat="43.1112130" lon="-0.7699950">
        <ele>318.2</ele>
        <time>2020-07-26T10:30:07Z</time>
      </trkpt>
      <trkpt lat="43.1113820" lon="-0.7698290">
        <ele>319.2</ele>
        <time>2020-07-26T10:30:11Z</time>
      </trkpt>
      <trkpt lat="43.1114520" lon="-0.7697340">
        <ele>319.6</ele>
        <time>2020-07-26T10:30:13Z</time>
      </trkpt>
      <trkpt lat="43.1115090" lon="-0.7696360">
        <ele>320.0</ele>
        <time>2020-07-26T10:30:15Z</time>
      </trkpt>
      <trkpt lat="43.1116430" lon="-0.7693640">
        <ele>320.8</ele>
        <time>2020-07-26T10:30:20Z</time>
      </trkpt>
      <trkpt lat="43.1116650" lon="-0.7693050">
        <ele>320.9</ele>
        <time>2020-07-26T10:30:21Z</time>
      </trkpt>
      <trkpt lat="43.1117870" lon="-0.7689270">
        <ele>321.6</ele>
        <time>2020-07-26T10:30:27Z</time>
      </trkpt>
      <trkpt lat="43.1118440" lon="-0.7687150">
        <ele>321.8</ele>
        <time>2020-07-26T10:30:30Z</time>
      </trkpt>
      <trkpt lat="43.1118820" lon="-0.7685700">
        <ele>321.9</ele>
        <time>2020-07-26T10:30:32Z</time>
      </trkpt>
      <trkpt lat="43.1119780" lon="-0.7681060">
        <ele>322.0</ele>
        <time>2020-07-26T10:30:38Z</time>
      </trkpt>
      <trkpt lat="43.1121210" lon="-0.7673710">
        <ele>322.4</ele>
        <time>2020-07-26T10:30:47Z</time>
      </trkpt>
      <trkpt lat="43.1122650" lon="-0.7668260">
        <ele>322.6</ele>
        <time>2020-07-26T10:30:54Z</time>
      </trkpt>
      <trkpt lat="43.1124510" lon="-0.7662000">
        <ele>322.8</ele>
        <time>2020-07-26T10:31:02Z</time>
      </trkpt>
      <trkpt lat="43.1125440" lon="-0.7658630">
        <ele>322.7</ele>
        <time>2020-07-26T10:31:06Z</time>
      </trkpt>
      <trkpt lat="43.1126670" lon="-0.7654400">
        <ele>322.7</ele>
        <time>2020-07-26T10:31:11Z</time>
      </trkpt>
      <trkpt lat="43.1128930" lon="-0.7646810">
        <ele>322.4</ele>
        <time>2020-07-26T10:31:20Z</time>
      </trkpt>
      <trkpt lat="43.1129180" lon="-0.7645940">
        <ele>322.3</ele>
        <time>2020-07-26T10:31:21Z</time>
      </trkpt>
      <trkpt lat="43.1129840" lon="-0.7643290">
        <ele>322.5</ele>
        <time>2020-07-26T10:31:24Z</time>
      </trkpt>
      <trkpt lat="43.1130140" lon="-0.7641480">
        <ele>322.9</ele>
        <time>2020-07-26T10:31:26Z</time>
      </trkpt>
      <trkpt lat="43.1130310" lon="-0.7639730">
        <ele>323.2</ele>
        <time>2020-07-26T10:31:28Z</time>
      </trkpt>
      <trkpt lat="43.1131260" lon="-0.7636540">
        <ele>322.9</ele>
        <time>2020-07-26T10:31:32Z</time>
      </trkpt>
      <trkpt lat="43.1132150" lon="-0.7631390">
        <ele>322.7</ele>
        <time>2020-07-26T10:31:38Z</time>
      </trkpt>
      <trkpt lat="43.1132490" lon="-0.7628790">
        <ele>322.7</ele>
        <time>2020-07-26T10:31:41Z</time>
      </trkpt>
      <trkpt lat="43.1132850" lon="-0.7623430">
        <ele>322.6</ele>
        <time>2020-07-26T10:31:47Z</time>
      </trkpt>
      <trkpt lat="43.1132670" lon="-0.7616260">
        <ele>322.9</ele>
        <time>2020-07-26T10:31:55Z</time>
      </trkpt>
      <trkpt lat="43.1132710" lon="-0.7608830">
        <ele>322.1</ele>
        <time>2020-07-26T10:32:03Z</time>
      </trkpt>
      <trkpt lat="43.1132700" lon="-0.7607850">
        <ele>321.8</ele>
        <time>2020-07-26T10:32:04Z</time>
      </trkpt>
      <trkpt lat="43.1133050" lon="-0.7601590">
        <ele>320.1</ele>
        <time>2020-07-26T10:32:10Z</time>
      </trkpt>
      <trkpt lat="43.1133680" lon="-0.7598120">
        <ele>319.7</ele>
        <time>2020-07-26T10:32:13Z</time>
      </trkpt>
      <trkpt lat="43.1133750" lon="-0.7596980">
        <ele>320.0</ele>
        <time>2020-07-26T10:32:14Z</time>
      </trkpt>
      <trkpt lat="43.1133180" lon="-0.7592920">
        <ele>320.8</ele>
        <time>2020-07-26T10:32:18Z</time>
      </trkpt>
      <trkpt lat="43.1131680" lon="-0.7590970">
        <ele>321.4</ele>
        <time>2020-07-26T10:32:21Z</time>
      </trkpt>
      <trkpt lat="43.1131140" lon="-0.7590480">
        <ele>321.6</ele>
        <time>2020-07-26T10:32:22Z</time>
      </trkpt>
      <trkpt lat="43.1128290" lon="-0.7587720">
        <ele>321.9</ele>
        <time>2020-07-26T10:32:28Z</time>
      </trkpt>
      <trkpt lat="43.1125160" lon="-0.7584080">
        <ele>321.7</ele>
        <time>2020-07-26T10:32:35Z</time>
      </trkpt>
      <trkpt lat="43.1124010" lon="-0.7580690">
        <ele>320.9</ele>
        <time>2020-07-26T10:32:39Z</time>
      </trkpt>
      <trkpt lat="43.1123820" lon="-0.7579710">
        <ele>320.8</ele>
        <time>2020-07-26T10:32:40Z</time>
      </trkpt>
      <trkpt lat="43.1123660" lon="-0.7576640">
        <ele>320.1</ele>
        <time>2020-07-26T10:32:43Z</time>
      </trkpt>
      <trkpt lat="43.1124090" lon="-0.7573450">
        <ele>319.2</ele>
        <time>2020-07-26T10:32:46Z</time>
      </trkpt>
      <trkpt lat="43.1124530" lon="-0.7571280">
        <ele>318.6</ele>
        <time>2020-07-26T10:32:48Z</time>
      </trkpt>
      <trkpt lat="43.1124740" lon="-0.7570160">
        <ele>318.3</ele>
        <time>2020-07-26T10:32:49Z</time>
      </trkpt>
      <trkpt lat="43.1125370" lon="-0.7566810">
        <ele>317.7</ele>
        <time>2020-07-26T10:32:52Z</time>
      </trkpt>
      <trkpt lat="43.1126050" lon="-0.7563410">
        <ele>317.3</ele>
        <time>2020-07-26T10:32:55Z</time>
      </trkpt>
      <trkpt lat="43.1126640" lon="-0.7559980">
        <ele>316.6</ele>
        <time>2020-07-26T10:32:58Z</time>
      </trkpt>
      <trkpt lat="43.1127020" lon="-0.7556420">
        <ele>315.4</ele>
        <time>2020-07-26T10:33:01Z</time>
      </trkpt>
      <trkpt lat="43.1127160" lon="-0.7552660">
        <ele>313.8</ele>
        <time>2020-07-26T10:33:04Z</time>
      </trkpt>
      <trkpt lat="43.1127190" lon="-0.7551370">
        <ele>313.2</ele>
        <time>2020-07-26T10:33:05Z</time>
      </trkpt>
      <trkpt lat="43.1127210" lon="-0.7544360">
        <ele>309.2</ele>
        <time>2020-07-26T10:33:10Z</time>
      </trkpt>
      <trkpt lat="43.1127210" lon="-0.7541330">
        <ele>307.2</ele>
        <time>2020-07-26T10:33:12Z</time>
      </trkpt>
      <trkpt lat="43.1127170" lon="-0.7536500">
        <ele>304.1</ele>
        <time>2020-07-26T10:33:15Z</time>
      </trkpt>
      <trkpt lat="43.1127150" lon="-0.7534790">
        <ele>302.9</ele>
        <time>2020-07-26T10:33:16Z</time>
      </trkpt>
      <trkpt lat="43.1127130" lon="-0.7533040">
        <ele>301.6</ele>
        <time>2020-07-26T10:33:17Z</time>
      </trkpt>
      <trkpt lat="43.1127130" lon="-0.7531250">
        <ele>300.3</ele>
        <time>2020-07-26T10:33:18Z</time>
      </trkpt>
      <trkpt lat="43.1127130" lon="-0.7529450">
        <ele>299.0</ele>
        <time>2020-07-26T10:33:19Z</time>
      </trkpt>
      <trkpt lat="43.1127120" lon="-0.7525830">
        <ele>296.2</ele>
        <time>2020-07-26T10:33:21Z</time>
      </trkpt>
      <trkpt lat="43.1127130" lon="-0.7522180">
        <ele>293.4</ele>
        <time>2020-07-26T10:33:23Z</time>
      </trkpt>
      <trkpt lat="43.1127160" lon="-0.7520330">
        <ele>292.2</ele>
        <time>2020-07-26T10:33:24Z</time>
      </trkpt>
      <trkpt lat="43.1127190" lon="-0.7518490">
        <ele>291.2</ele>
        <time>2020-07-26T10:33:25Z</time>
      </trkpt>
      <trkpt lat="43.1127230" lon="-0.7516650">
        <ele>290.3</ele>
        <time>2020-07-26T10:33:26Z</time>
      </trkpt>
      <trkpt lat="43.1127270" lon="-0.7514810">
        <ele>289.6</ele>
        <time>2020-07-26T10:33:27Z</time>
      </trkpt>
      <trkpt lat="43.1127310" lon="-0.7513000">
        <ele>288.8</ele>
        <time>2020-07-26T10:33:28Z</time>
      </trkpt>
      <trkpt lat="43.1127370" lon="-0.7511220">
        <ele>288.1</ele>
        <time>2020-07-26T10:33:29Z</time>
      </trkpt>
      <trkpt lat="43.1127420" lon="-0.7509480">
        <ele>287.7</ele>
        <time>2020-07-26T10:33:30Z</time>
      </trkpt>
      <trkpt lat="43.1127440" lon="-0.7507750">
        <ele>287.5</ele>
        <time>2020-07-26T10:33:31Z</time>
      </trkpt>
      <trkpt lat="43.1127460" lon="-0.7506050">
        <ele>287.3</ele>
        <time>2020-07-26T10:33:32Z</time>
      </trkpt>
      <trkpt lat="43.1127460" lon="-0.7502780">
        <ele>286.1</ele>
        <time>2020-07-26T10:33:34Z</time>
      </trkpt>
      <trkpt lat="43.1127140" lon="-0.7496660">
        <ele>285.2</ele>
        <time>2020-07-26T10:33:38Z</time>
      </trkpt>
      <trkpt lat="43.1125820" lon="-0.7488600">
        <ele>284.9</ele>
        <time>2020-07-26T10:33:44Z</time>
      </trkpt>
      <trkpt lat="43.1124160" lon="-0.7481550">
        <ele>286.1</ele>
        <time>2020-07-26T10:33:50Z</time>
      </trkpt>
      <trkpt lat="43.1123920" lon="-0.7480500">
        <ele>286.4</ele>
        <time>2020-07-26T10:33:51Z</time>
      </trkpt>
      <trkpt lat="43.1123150" lon="-0.7475720">
        <ele>288.3</ele>
        <time>2020-07-26T10:33:56Z</time>
      </trkpt>
      <trkpt lat="43.1122970" lon="-0.7473350">
        <ele>289.5</ele>
        <time>2020-07-26T10:33:59Z</time>
      </trkpt>
      <trkpt lat="43.1122930" lon="-0.7471270">
        <ele>290.6</ele>
        <time>2020-07-26T10:34:02Z</time>
      </trkpt>
      <trkpt lat="43.1122940" lon="-0.7470630">
        <ele>291.0</ele>
        <time>2020-07-26T10:34:03Z</time>
      </trkpt>
      <trkpt lat="43.1123050" lon="-0.7468910">
        <ele>292.1</ele>
        <time>2020-07-26T10:34:06Z</time>
      </trkpt>
      <trkpt lat="43.1123210" lon="-0.7467330">
        <ele>293.1</ele>
        <time>2020-07-26T10:34:09Z</time>
      </trkpt>
      <trkpt lat="43.1123460" lon="-0.7465920">
        <ele>294.1</ele>
        <time>2020-07-26T10:34:12Z</time>
      </trkpt>
      <trkpt lat="43.1123750" lon="-0.7464580">
        <ele>295.1</ele>
        <time>2020-07-26T10:34:15Z</time>
      </trkpt>
      <trkpt lat="43.1123850" lon="-0.7464140">
        <ele>295.5</ele>
        <time>2020-07-26T10:34:16Z</time>
      </trkpt>
      <trkpt lat="43.1124160" lon="-0.7462860">
        <ele>296.4</ele>
        <time>2020-07-26T10:34:19Z</time>
      </trkpt>
      <trkpt lat="43.1124540" lon="-0.7461580">
        <ele>297.4</ele>
        <time>2020-07-26T10:34:22Z</time>
      </trkpt>
      <trkpt lat="43.1125090" lon="-0.7459960">
        <ele>298.6</ele>
        <time>2020-07-26T10:34:26Z</time>
      </trkpt>
      <trkpt lat="43.1125720" lon="-0.7457930">
        <ele>300.0</ele>
        <time>2020-07-26T10:34:31Z</time>
      </trkpt>
      <trkpt lat="43.1126090" lon="-0.7456660">
        <ele>300.8</ele>
        <time>2020-07-26T10:34:34Z</time>
      </trkpt>
      <trkpt lat="43.1126210" lon="-0.7456240">
        <ele>301.1</ele>
        <time>2020-07-26T10:34:35Z</time>
      </trkpt>
      <trkpt lat="43.1126700" lon="-0.7454120">
        <ele>302.3</ele>
        <time>2020-07-26T10:34:40Z</time>
      </trkpt>
      <trkpt lat="43.1126800" lon="-0.7453690">
        <ele>302.5</ele>
        <time>2020-07-26T10:34:41Z</time>
      </trkpt>
      <trkpt lat="43.1127060" lon="-0.7451960">
        <ele>303.4</ele>
        <time>2020-07-26T10:34:45Z</time>
      </trkpt>
      <trkpt lat="43.1127330" lon="-0.7450610">
        <ele>304.2</ele>
        <time>2020-07-26T10:34:48Z</time>
      </trkpt>
      <trkpt lat="43.1127430" lon="-0.7450160">
        <ele>304.4</ele>
        <time>2020-07-26T10:34:49Z</time>
      </trkpt>
      <trkpt lat="43.1127800" lon="-0.7448330">
        <ele>305.4</ele>
        <time>2020-07-26T10:34:53Z</time>
      </trkpt>
      <trkpt lat="43.1128020" lon="-0.7447380">
        <ele>305.9</ele>
        <time>2020-07-26T10:34:55Z</time>
      </trkpt>
      <trkpt lat="43.1128320" lon="-0.7445990">
        <ele>306.6</ele>
        <time>2020-07-26T10:34:58Z</time>
      </trkpt>
      <trkpt lat="43.1128650" lon="-0.7444660">
        <ele>307.2</ele>
        <time>2020-07-26T10:35:01Z</time>
      </trkpt>
      <trkpt lat="43.1128840" lon="-0.7443800">
        <ele>307.6</ele>
        <time>2020-07-26T10:35:03Z</time>
      </trkpt>
      <trkpt lat="43.1129420" lon="-0.7441620">
        <ele>308.5</ele>
        <time>2020-07-26T10:35:08Z</time>
      </trkpt>
      <trkpt lat="43.1129530" lon="-0.7441190">
        <ele>308.7</ele>
        <time>2020-07-26T10:35:09Z</time>
      </trkpt>
      <trkpt lat="43.1130020" lon="-0.7439390">
        <ele>309.2</ele>
        <time>2020-07-26T10:35:13Z</time>
      </trkpt>
      <trkpt lat="43.1130510" lon="-0.7437580">
        <ele>309.6</ele>
        <time>2020-07-26T10:35:17Z</time>
      </trkpt>
      <trkpt lat="43.1130820" lon="-0.7436590">
        <ele>309.7</ele>
        <time>2020-07-26T10:35:19Z</time>
      </trkpt>
      <trkpt lat="43.1131820" lon="-0.7433800">
        <ele>309.8</ele>
        <time>2020-07-26T10:35:24Z</time>
      </trkpt>
      <trkpt lat="43.1133220" lon="-0.7429020">
        <ele>309.4</ele>
        <time>2020-07-26T10:35:31Z</time>
      </trkpt>
      <trkpt lat="43.1135230" lon="-0.7422340">
        <ele>308.9</ele>
        <time>2020-07-26T10:35:39Z</time>
      </trkpt>
      <trkpt lat="43.1136550" lon="-0.7416060">
        <ele>309.0</ele>
        <time>2020-07-26T10:35:46Z</time>
      </trkpt>
      <trkpt lat="43.1136560" lon="-0.7413360">
        <ele>309.2</ele>
        <time>2020-07-26T10:35:49Z</time>
      </trkpt>
      <trkpt lat="43.1136370" lon="-0.7411650">
        <ele>309.4</ele>
        <time>2020-07-26T10:35:51Z</time>
      </trkpt>
      <trkpt lat="43.1136060" lon="-0.7410020">
        <ele>309.5</ele>
        <time>2020-07-26T10:35:53Z</time>
      </trkpt>
      <trkpt lat="43.1135060" lon="-0.7405150">
        <ele>309.9</ele>
        <time>2020-07-26T10:35:59Z</time>
      </trkpt>
      <trkpt lat="43.1134330" lon="-0.7397560">
        <ele>310.5</ele>
        <time>2020-07-26T10:36:08Z</time>
      </trkpt>
      <trkpt lat="43.1134260" lon="-0.7396680">
        <ele>310.5</ele>
        <time>2020-07-26T10:36:09Z</time>
      </trkpt>
      <trkpt lat="43.1133780" lon="-0.7389220">
        <ele>310.4</ele>
        <time>2020-07-26T10:36:17Z</time>
      </trkpt>
      <trkpt lat="43.1133490" lon="-0.7382100">
        <ele>311.0</ele>
        <time>2020-07-26T10:36:24Z</time>
      </trkpt>
      <trkpt lat="43.1133620" lon="-0.7381130">
        <ele>311.2</ele>
        <time>2020-07-26T10:36:25Z</time>
      </trkpt>
      <trkpt lat="43.1134560" lon="-0.7377770">
        <ele>311.9</ele>
        <time>2020-07-26T10:36:29Z</time>
      </trkpt>
      <trkpt lat="43.1134750" lon="-0.7376990">
        <ele>312.3</ele>
        <time>2020-07-26T10:36:30Z</time>
      </trkpt>
      <trkpt lat="43.1134320" lon="-0.7374800">
        <ele>312.6</ele>
        <time>2020-07-26T10:36:33Z</time>
      </trkpt>
      <trkpt lat="43.1133520" lon="-0.7373690">
        <ele>312.7</ele>
        <time>2020-07-26T10:36:35Z</time>
      </trkpt>
      <trkpt lat="43.1131520" lon="-0.7370970">
        <ele>313.1</ele>
        <time>2020-07-26T10:36:40Z</time>
      </trkpt>
      <trkpt lat="43.1129880" lon="-0.7368680">
        <ele>313.3</ele>
        <time>2020-07-26T10:36:44Z</time>
      </trkpt>
      <trkpt lat="43.1127680" lon="-0.7365570">
        <ele>313.3</ele>
        <time>2020-07-26T10:36:49Z</time>
      </trkpt>
      <trkpt lat="43.1124820" lon="-0.7361700">
        <ele>312.9</ele>
        <time>2020-07-26T10:36:55Z</time>
      </trkpt>
      <trkpt lat="43.1124290" lon="-0.7361100">
        <ele>312.8</ele>
        <time>2020-07-26T10:36:56Z</time>
      </trkpt>
      <trkpt lat="43.1121790" lon="-0.7359010">
        <ele>312.2</ele>
        <time>2020-07-26T10:37:00Z</time>
      </trkpt>
      <trkpt lat="43.1121070" lon="-0.7358620">
        <ele>312.0</ele>
        <time>2020-07-26T10:37:01Z</time>
      </trkpt>
      <trkpt lat="43.1118720" lon="-0.7357870">
        <ele>311.2</ele>
        <time>2020-07-26T10:37:04Z</time>
      </trkpt>
      <trkpt lat="43.1115310" lon="-0.7357400">
        <ele>309.8</ele>
        <time>2020-07-26T10:37:08Z</time>
      </trkpt>
      <trkpt lat="43.1113470" lon="-0.7357270">
        <ele>308.9</ele>
        <time>2020-07-26T10:37:10Z</time>
      </trkpt>
      <trkpt lat="43.1112510" lon="-0.7357200">
        <ele>308.3</ele>
        <time>2020-07-26T10:37:11Z</time>
      </trkpt>
      <trkpt lat="43.1110500" lon="-0.7357030">
        <ele>307.1</ele>
        <time>2020-07-26T10:37:13Z</time>
      </trkpt>
      <trkpt lat="43.1108430" lon="-0.7356840">
        <ele>305.8</ele>
        <time>2020-07-26T10:37:15Z</time>
      </trkpt>
      <trkpt lat="43.1107380" lon="-0.7356780">
        <ele>305.1</ele>
        <time>2020-07-26T10:37:16Z</time>
      </trkpt>
      <trkpt lat="43.1105250" lon="-0.7356670">
        <ele>303.8</ele>
        <time>2020-07-26T10:37:18Z</time>
      </trkpt>
      <trkpt lat="43.1101930" lon="-0.7356550">
        <ele>301.4</ele>
        <time>2020-07-26T10:37:21Z</time>
      </trkpt>
      <trkpt lat="43.1099650" lon="-0.7356450">
        <ele>299.7</ele>
        <time>2020-07-26T10:37:23Z</time>
      </trkpt>
      <trkpt lat="43.1098520" lon="-0.7356400">
        <ele>299.0</ele>
        <time>2020-07-26T10:37:24Z</time>
      </trkpt>
      <trkpt lat="43.1097400" lon="-0.7356340">
        <ele>298.4</ele>
        <time>2020-07-26T10:37:25Z</time>
      </trkpt>
      <trkpt lat="43.1095140" lon="-0.7356220">
        <ele>297.5</ele>
        <time>2020-07-26T10:37:27Z</time>
      </trkpt>
      <trkpt lat="43.1092920" lon="-0.7356120">
        <ele>296.3</ele>
        <time>2020-07-26T10:37:29Z</time>
      </trkpt>
      <trkpt lat="43.1091830" lon="-0.7356070">
        <ele>295.8</ele>
        <time>2020-07-26T10:37:30Z</time>
      </trkpt>
      <trkpt lat="43.1090750" lon="-0.7356010">
        <ele>295.6</ele>
        <time>2020-07-26T10:37:31Z</time>
      </trkpt>
      <trkpt lat="43.1088680" lon="-0.7355870">
        <ele>295.7</ele>
        <time>2020-07-26T10:37:33Z</time>
      </trkpt>
      <trkpt lat="43.1087690" lon="-0.7355770">
        <ele>295.8</ele>
        <time>2020-07-26T10:37:34Z</time>
      </trkpt>
      <trkpt lat="43.1083280" lon="-0.7354670">
        <ele>296.6</ele>
        <time>2020-07-26T10:37:39Z</time>
      </trkpt>
      <trkpt lat="43.1078970" lon="-0.7353100">
        <ele>298.0</ele>
        <time>2020-07-26T10:37:45Z</time>
      </trkpt>
      <trkpt lat="43.1075090" lon="-0.7351530">
        <ele>300.0</ele>
        <time>2020-07-26T10:37:52Z</time>
      </trkpt>
      <trkpt lat="43.1073710" lon="-0.7350830">
        <ele>300.7</ele>
        <time>2020-07-26T10:37:55Z</time>
      </trkpt>
      <trkpt lat="43.1072830" lon="-0.7350360">
        <ele>301.0</ele>
        <time>2020-07-26T10:37:57Z</time>
      </trkpt>
      <trkpt lat="43.1071470" lon="-0.7349620">
        <ele>301.4</ele>
        <time>2020-07-26T10:38:00Z</time>
      </trkpt>
      <trkpt lat="43.1070030" lon="-0.7348750">
        <ele>301.7</ele>
        <time>2020-07-26T10:38:03Z</time>
      </trkpt>
      <trkpt lat="43.1066910" lon="-0.7346860">
        <ele>302.3</ele>
        <time>2020-07-26T10:38:09Z</time>
      </trkpt>
      <trkpt lat="43.1064310" lon="-0.7345000">
        <ele>302.7</ele>
        <time>2020-07-26T10:38:14Z</time>
      </trkpt>
      <trkpt lat="43.1061870" lon="-0.7342820">
        <ele>302.9</ele>
        <time>2020-07-26T10:38:19Z</time>
      </trkpt>
      <trkpt lat="43.1058650" lon="-0.7339410">
        <ele>303.5</ele>
        <time>2020-07-26T10:38:26Z</time>
      </trkpt>
      <trkpt lat="43.1055640" lon="-0.7335630">
        <ele>303.9</ele>
        <time>2020-07-26T10:38:33Z</time>
      </trkpt>
      <trkpt lat="43.1055220" lon="-0.7335060">
        <ele>303.9</ele>
        <time>2020-07-26T10:38:34Z</time>
      </trkpt>
      <trkpt lat="43.1050950" lon="-0.7329410">
        <ele>304.5</ele>
        <time>2020-07-26T10:38:44Z</time>
      </trkpt>
      <trkpt lat="43.1050080" lon="-0.7328310">
        <ele>304.5</ele>
        <time>2020-07-26T10:38:46Z</time>
      </trkpt>
      <trkpt lat="43.1045860" lon="-0.7323960">
        <ele>304.9</ele>
        <time>2020-07-26T10:38:55Z</time>
      </trkpt>
      <trkpt lat="43.1044400" lon="-0.7322340">
        <ele>304.7</ele>
        <time>2020-07-26T10:38:58Z</time>
      </trkpt>
      <trkpt lat="43.1042970" lon="-0.7320280">
        <ele>304.0</ele>
        <time>2020-07-26T10:39:01Z</time>
      </trkpt>
      <trkpt lat="43.1039440" lon="-0.7315930">
        <ele>302.7</ele>
        <time>2020-07-26T10:39:07Z</time>
      </trkpt>
      <trkpt lat="43.1035640" lon="-0.7312060">
        <ele>302.6</ele>
        <time>2020-07-26T10:39:13Z</time>
      </trkpt>
      <trkpt lat="43.1033140" lon="-0.7308550">
        <ele>303.3</ele>
        <time>2020-07-26T10:39:18Z</time>
      </trkpt>
      <trkpt lat="43.1029720" lon="-0.7302540">
        <ele>303.3</ele>
        <time>2020-07-26T10:39:26Z</time>
      </trkpt>
      <trkpt lat="43.1028860" lon="-0.7301000">
        <ele>303.2</ele>
        <time>2020-07-26T10:39:28Z</time>
      </trkpt>
      <trkpt lat="43.1025970" lon="-0.7295630">
        <ele>303.3</ele>
        <time>2020-07-26T10:39:35Z</time>
      </trkpt>
      <trkpt lat="43.1024310" lon="-0.7290390">
        <ele>303.7</ele>
        <time>2020-07-26T10:39:41Z</time>
      </trkpt>
      <trkpt lat="43.1022340" lon="-0.7283510">
        <ele>304.5</ele>
        <time>2020-07-26T10:39:49Z</time>
      </trkpt>
      <trkpt lat="43.1021740" lon="-0.7281900">
        <ele>304.7</ele>
        <time>2020-07-26T10:39:51Z</time>
      </trkpt>
      <trkpt lat="43.1020220" lon="-0.7279060">
        <ele>305.3</ele>
        <time>2020-07-26T10:39:55Z</time>
      </trkpt>
      <trkpt lat="43.1018540" lon="-0.7276580">
        <ele>305.9</ele>
        <time>2020-07-26T10:39:59Z</time>
      </trkpt>
      <trkpt lat="43.1017110" lon="-0.7274170">
        <ele>306.6</ele>
        <time>2020-07-26T10:40:03Z</time>
      </trkpt>
      <trkpt lat="43.1015120" lon="-0.7270410">
        <ele>307.3</ele>
        <time>2020-07-26T10:40:09Z</time>
      </trkpt>
      <trkpt lat="43.1013930" lon="-0.7267740">
        <ele>307.8</ele>
        <time>2020-07-26T10:40:13Z</time>
      </trkpt>
      <trkpt lat="43.1013370" lon="-0.7266350">
        <ele>307.9</ele>
        <time>2020-07-26T10:40:15Z</time>
      </trkpt>
      <trkpt lat="43.1011270" lon="-0.7261390">
        <ele>308.3</ele>
        <time>2020-07-26T10:40:22Z</time>
      </trkpt>
      <trkpt lat="43.1009140" lon="-0.7256430">
        <ele>309.2</ele>
        <time>2020-07-26T10:40:29Z</time>
      </trkpt>
      <trkpt lat="43.1007410" lon="-0.7252250">
        <ele>309.4</ele>
        <time>2020-07-26T10:40:35Z</time>
      </trkpt>
      <trkpt lat="43.1005460" lon="-0.7246620">
        <ele>310.0</ele>
        <time>2020-07-26T10:40:43Z</time>
      </trkpt>
      <trkpt lat="43.1005170" lon="-0.7245970">
        <ele>310.1</ele>
        <time>2020-07-26T10:40:44Z</time>
      </trkpt>
      <trkpt lat="43.1004850" lon="-0.7245360">
        <ele>310.1</ele>
        <time>2020-07-26T10:40:45Z</time>
      </trkpt>
      <trkpt lat="43.1003650" lon="-0.7243790">
        <ele>310.3</ele>
        <time>2020-07-26T10:40:48Z</time>
      </trkpt>
      <trkpt lat="43.1002000" lon="-0.7242100">
        <ele>310.4</ele>
        <time>2020-07-26T10:40:52Z</time>
      </trkpt>
      <trkpt lat="43.1001600" lon="-0.7242060">
        <ele>310.4</ele>
        <time>2020-07-26T10:40:53Z</time>
      </trkpt>
      <trkpt lat="43.1001290" lon="-0.7242330">
        <ele>310.4</ele>
        <time>2020-07-26T10:40:54Z</time>
      </trkpt>
      <trkpt lat="43.1000870" lon="-0.7242380">
        <ele>310.5</ele>
        <time>2020-07-26T10:42:22Z</time>
      </trkpt>
      <trkpt lat="43.1000790" lon="-0.7242120">
        <ele>310.5</ele>
        <time>2020-07-26T10:42:23Z</time>
      </trkpt>
      <trkpt lat="43.1000110" lon="-0.7239770">
        <ele>310.9</ele>
        <time>2020-07-26T10:42:27Z</time>
      </trkpt>
      <trkpt lat="43.0999830" lon="-0.7239200">
        <ele>310.9</ele>
        <time>2020-07-26T10:42:28Z</time>
      </trkpt>
      <trkpt lat="43.0997500" lon="-0.7235340">
        <ele>311.7</ele>
        <time>2020-07-26T10:42:35Z</time>
      </trkpt>
      <trkpt lat="43.0996780" lon="-0.7234300">
        <ele>311.9</ele>
        <time>2020-07-26T10:42:37Z</time>
      </trkpt>
      <trkpt lat="43.0995580" lon="-0.7233040">
        <ele>312.3</ele>
        <time>2020-07-26T10:42:40Z</time>
      </trkpt>
      <trkpt lat="43.0992020" lon="-0.7229590">
        <ele>313.2</ele>
        <time>2020-07-26T10:42:49Z</time>
      </trkpt>
      <trkpt lat="43.0988610" lon="-0.7226690">
        <ele>313.7</ele>
        <time>2020-07-26T10:42:57Z</time>
      </trkpt>
      <trkpt lat="43.0984080" lon="-0.7223150">
        <ele>314.1</ele>
        <time>2020-07-26T10:43:07Z</time>
      </trkpt>
      <trkpt lat="43.0980010" lon="-0.7221080">
        <ele>314.7</ele>
        <time>2020-07-26T10:43:15Z</time>
      </trkpt>
      <trkpt lat="43.0978430" lon="-0.7220670">
        <ele>315.1</ele>
        <time>2020-07-26T10:43:18Z</time>
      </trkpt>
      <trkpt lat="43.0975890" lon="-0.7219940">
        <ele>315.6</ele>
        <time>2020-07-26T10:43:23Z</time>
      </trkpt>
      <trkpt lat="43.0975430" lon="-0.7219680">
        <ele>315.6</ele>
        <time>2020-07-26T10:43:24Z</time>
      </trkpt>
      <trkpt lat="43.0974240" lon="-0.7218310">
        <ele>315.8</ele>
        <time>2020-07-26T10:43:27Z</time>
      </trkpt>
      <trkpt lat="43.0973960" lon="-0.7217670">
        <ele>315.8</ele>
        <time>2020-07-26T10:43:28Z</time>
      </trkpt>
      <trkpt lat="43.0973550" lon="-0.7215460">
        <ele>316.0</ele>
        <time>2020-07-26T10:43:31Z</time>
      </trkpt>
      <trkpt lat="43.0973650" lon="-0.7213880">
        <ele>316.1</ele>
        <time>2020-07-26T10:43:33Z</time>
      </trkpt>
      <trkpt lat="43.0973740" lon="-0.7212270">
        <ele>316.2</ele>
        <time>2020-07-26T10:43:35Z</time>
      </trkpt>
      <trkpt lat="43.0973800" lon="-0.7210690">
        <ele>316.4</ele>
        <time>2020-07-26T10:43:37Z</time>
      </trkpt>
      <trkpt lat="43.0973770" lon="-0.7209900">
        <ele>316.5</ele>
        <time>2020-07-26T10:43:38Z</time>
      </trkpt>
      <trkpt lat="43.0973410" lon="-0.7207610">
        <ele>316.7</ele>
        <time>2020-07-26T10:43:41Z</time>
      </trkpt>
      <trkpt lat="43.0973170" lon="-0.7206910">
        <ele>316.9</ele>
        <time>2020-07-26T10:43:42Z</time>
      </trkpt>
      <trkpt lat="43.0970980" lon="-0.7202610">
        <ele>317.4</ele>
        <time>2020-07-26T10:43:49Z</time>
      </trkpt>
      <trkpt lat="43.0969060" lon="-0.7199930">
        <ele>318.0</ele>
        <time>2020-07-26T10:43:54Z</time>
      </trkpt>
      <trkpt lat="43.0968180" lon="-0.7199070">
        <ele>318.1</ele>
        <time>2020-07-26T10:43:56Z</time>
      </trkpt>
      <trkpt lat="43.0965370" lon="-0.7197230">
        <ele>318.7</ele>
        <time>2020-07-26T10:44:02Z</time>
      </trkpt>
      <trkpt lat="43.0963590" lon="-0.7195750">
        <ele>319.1</ele>
        <time>2020-07-26T10:44:06Z</time>
      </trkpt>
      <trkpt lat="43.0961310" lon="-0.7193820">
        <ele>319.4</ele>
        <time>2020-07-26T10:44:11Z</time>
      </trkpt>
      <trkpt lat="43.0960380" lon="-0.7193040">
        <ele>319.5</ele>
        <time>2020-07-26T10:44:13Z</time>
      </trkpt>
      <trkpt lat="43.0958380" lon="-0.7190530">
        <ele>320.1</ele>
        <time>2020-07-26T10:44:18Z</time>
      </trkpt>
      <trkpt lat="43.0955630" lon="-0.7184790">
        <ele>321.4</ele>
        <time>2020-07-26T10:44:27Z</time>
      </trkpt>
      <trkpt lat="43.0954070" lon="-0.7180720">
        <ele>322.1</ele>
        <time>2020-07-26T10:44:33Z</time>
      </trkpt>
      <trkpt lat="43.0953790" lon="-0.7179300">
        <ele>322.3</ele>
        <time>2020-07-26T10:44:35Z</time>
      </trkpt>
      <trkpt lat="43.0954080" lon="-0.7177150">
        <ele>322.6</ele>
        <time>2020-07-26T10:44:38Z</time>
      </trkpt>
      <trkpt lat="43.0954530" lon="-0.7175050">
        <ele>323.0</ele>
        <time>2020-07-26T10:44:41Z</time>
      </trkpt>
      <trkpt lat="43.0955200" lon="-0.7173200">
        <ele>323.4</ele>
        <time>2020-07-26T10:44:44Z</time>
      </trkpt>
      <trkpt lat="43.0955370" lon="-0.7172580">
        <ele>323.6</ele>
        <time>2020-07-26T10:44:45Z</time>
      </trkpt>
      <trkpt lat="43.0955580" lon="-0.7170920">
        <ele>324.1</ele>
        <time>2020-07-26T10:44:48Z</time>
      </trkpt>
      <trkpt lat="43.0955480" lon="-0.7169400">
        <ele>324.4</ele>
        <time>2020-07-26T10:44:51Z</time>
      </trkpt>
      <trkpt lat="43.0955350" lon="-0.7168840">
        <ele>324.4</ele>
        <time>2020-07-26T10:44:52Z</time>
      </trkpt>
      <trkpt lat="43.0955160" lon="-0.7168320">
        <ele>324.5</ele>
        <time>2020-07-26T10:44:53Z</time>
      </trkpt>
      <trkpt lat="43.0954340" lon="-0.7166130">
        <ele>324.6</ele>
        <time>2020-07-26T10:44:57Z</time>
      </trkpt>
      <trkpt lat="43.0954090" lon="-0.7165640">
        <ele>324.6</ele>
        <time>2020-07-26T10:44:58Z</time>
      </trkpt>
      <trkpt lat="43.0953720" lon="-0.7165230">
        <ele>324.7</ele>
        <time>2020-07-26T10:44:59Z</time>
      </trkpt>
      <trkpt lat="43.0952380" lon="-0.7164650">
        <ele>324.7</ele>
        <time>2020-07-26T10:45:02Z</time>
      </trkpt>
      <trkpt lat="43.0951930" lon="-0.7164490">
        <ele>324.8</ele>
        <time>2020-07-26T10:45:03Z</time>
      </trkpt>
      <trkpt lat="43.0951120" lon="-0.7163940">
        <ele>324.8</ele>
        <time>2020-07-26T10:45:05Z</time>
      </trkpt>
      <trkpt lat="43.0950890" lon="-0.7163380">
        <ele>324.9</ele>
        <time>2020-07-26T10:45:06Z</time>
      </trkpt>
      <trkpt lat="43.0950810" lon="-0.7160610">
        <ele>324.5</ele>
        <time>2020-07-26T10:45:10Z</time>
      </trkpt>
      <trkpt lat="43.0950960" lon="-0.7159080">
        <ele>324.3</ele>
        <time>2020-07-26T10:45:12Z</time>
      </trkpt>
      <trkpt lat="43.0951200" lon="-0.7156950">
        <ele>324.2</ele>
        <time>2020-07-26T10:45:15Z</time>
      </trkpt>
      <trkpt lat="43.0950720" lon="-0.7153570">
        <ele>324.2</ele>
        <time>2020-07-26T10:47:25Z</time>
      </trkpt>
      <trkpt lat="43.0951060" lon="-0.7153360">
        <ele>324.2</ele>
        <time>2020-07-26T10:47:26Z</time>
      </trkpt>
      <trkpt lat="43.0951610" lon="-0.7152030">
        <ele>324.2</ele>
        <time>2020-07-26T10:47:29Z</time>
      </trkpt>
      <trkpt lat="43.0951750" lon="-0.7150820">
        <ele>324.2</ele>
        <time>2020-07-26T10:47:31Z</time>
      </trkpt>
      <trkpt lat="43.0952050" lon="-0.7148940">
        <ele>324.4</ele>
        <time>2020-07-26T10:47:34Z</time>
      </trkpt>
      <trkpt lat="43.0952150" lon="-0.7145330">
        <ele>324.7</ele>
        <time>2020-07-26T10:47:40Z</time>
      </trkpt>
      <trkpt lat="43.0951730" lon="-0.7142050">
        <ele>325.5</ele>
        <time>2020-07-26T10:47:46Z</time>
      </trkpt>
      <trkpt lat="43.0951100" lon="-0.7140750">
        <ele>326.0</ele>
        <time>2020-07-26T10:47:49Z</time>
      </trkpt>
      <trkpt lat="43.0950210" lon="-0.7139130">
        <ele>326.8</ele>
        <time>2020-07-26T10:47:53Z</time>
      </trkpt>
      <trkpt lat="43.0949830" lon="-0.7138250">
        <ele>327.2</ele>
        <time>2020-07-26T10:47:55Z</time>
      </trkpt>
      <trkpt lat="43.0949540" lon="-0.7137250">
        <ele>327.5</ele>
        <time>2020-07-26T10:47:57Z</time>
      </trkpt>
      <trkpt lat="43.0949410" lon="-0.7136130">
        <ele>327.9</ele>
        <time>2020-07-26T10:47:59Z</time>
      </trkpt>
      <trkpt lat="43.0949410" lon="-0.7135550">
        <ele>328.0</ele>
        <time>2020-07-26T10:48:00Z</time>
      </trkpt>
      <trkpt lat="43.0949810" lon="-0.7133280">
        <ele>328.6</ele>
        <time>2020-07-26T10:48:04Z</time>
      </trkpt>
      <trkpt lat="43.0949990" lon="-0.7132730">
        <ele>328.7</ele>
        <time>2020-07-26T10:48:05Z</time>
      </trkpt>
      <trkpt lat="43.0951140" lon="-0.7129860">
        <ele>329.5</ele>
        <time>2020-07-26T10:48:11Z</time>
      </trkpt>
      <trkpt lat="43.0951570" lon="-0.7129010">
        <ele>329.7</ele>
        <time>2020-07-26T10:48:13Z</time>
      </trkpt>
      <trkpt lat="43.0952980" lon="-0.7127020">
        <ele>330.5</ele>
        <time>2020-07-26T10:48:18Z</time>
      </trkpt>
      <trkpt lat="43.0953550" lon="-0.7126320">
        <ele>330.9</ele>
        <time>2020-07-26T10:48:20Z</time>
      </trkpt>
      <trkpt lat="43.0954510" lon="-0.7124830">
        <ele>331.7</ele>
        <time>2020-07-26T10:48:24Z</time>
      </trkpt>
      <trkpt lat="43.0955170" lon="-0.7123570">
        <ele>332.3</ele>
        <time>2020-07-26T10:48:27Z</time>
      </trkpt>
      <trkpt lat="43.0955900" lon="-0.7121750">
        <ele>333.1</ele>
        <time>2020-07-26T10:48:31Z</time>
      </trkpt>
      <trkpt lat="43.0956040" lon="-0.7121340">
        <ele>333.2</ele>
        <time>2020-07-26T10:48:32Z</time>
      </trkpt>
      <trkpt lat="43.0956350" lon="-0.7119620">
        <ele>334.0</ele>
        <time>2020-07-26T10:48:36Z</time>
      </trkpt>
      <trkpt lat="43.0956530" lon="-0.7118240">
        <ele>334.7</ele>
        <time>2020-07-26T10:48:39Z</time>
      </trkpt>
      <trkpt lat="43.0956710" lon="-0.7116830">
        <ele>335.3</ele>
        <time>2020-07-26T10:48:42Z</time>
      </trkpt>
      <trkpt lat="43.0956750" lon="-0.7115920">
        <ele>335.8</ele>
        <time>2020-07-26T10:48:44Z</time>
      </trkpt>
      <trkpt lat="43.0957050" lon="-0.7114050">
        <ele>336.7</ele>
        <time>2020-07-26T10:48:48Z</time>
      </trkpt>
      <trkpt lat="43.0957100" lon="-0.7113640">
        <ele>336.9</ele>
        <time>2020-07-26T10:48:49Z</time>
      </trkpt>
      <trkpt lat="43.0957230" lon="-0.7111840">
        <ele>337.8</ele>
        <time>2020-07-26T10:48:53Z</time>
      </trkpt>
      <trkpt lat="43.0957360" lon="-0.7109990">
        <ele>338.7</ele>
        <time>2020-07-26T10:48:57Z</time>
      </trkpt>
      <trkpt lat="43.0957390" lon="-0.7109520">
        <ele>338.9</ele>
        <time>2020-07-26T10:48:58Z</time>
      </trkpt>
      <trkpt lat="43.0957450" lon="-0.7107260">
        <ele>340.0</ele>
        <time>2020-07-26T10:49:03Z</time>
      </trkpt>
      <trkpt lat="43.0957430" lon="-0.7105920">
        <ele>340.6</ele>
        <time>2020-07-26T10:49:06Z</time>
      </trkpt>
      <trkpt lat="43.0957340" lon="-0.7104500">
        <ele>341.2</ele>
        <time>2020-07-26T10:49:09Z</time>
      </trkpt>
      <trkpt lat="43.0956970" lon="-0.7102650">
        <ele>342.0</ele>
        <time>2020-07-26T10:49:13Z</time>
      </trkpt>
      <trkpt lat="43.0956830" lon="-0.7102240">
        <ele>342.2</ele>
        <time>2020-07-26T10:49:14Z</time>
      </trkpt>
      <trkpt lat="43.0955940" lon="-0.7099550">
        <ele>343.8</ele>
        <time>2020-07-26T10:49:20Z</time>
      </trkpt>
      <trkpt lat="43.0955230" lon="-0.7097820">
        <ele>344.9</ele>
        <time>2020-07-26T10:49:24Z</time>
      </trkpt>
      <trkpt lat="43.0954490" lon="-0.7096220">
        <ele>345.9</ele>
        <time>2020-07-26T10:49:28Z</time>
      </trkpt>
      <trkpt lat="43.0954260" lon="-0.7095830">
        <ele>346.2</ele>
        <time>2020-07-26T10:49:29Z</time>
      </trkpt>
      <trkpt lat="43.0952940" lon="-0.7094620">
        <ele>347.2</ele>
        <time>2020-07-26T10:49:34Z</time>
      </trkpt>
      <trkpt lat="43.0952250" lon="-0.7094910">
        <ele>347.7</ele>
        <time>2020-07-26T10:49:36Z</time>
      </trkpt>
      <trkpt lat="43.0952020" lon="-0.7095330">
        <ele>347.9</ele>
        <time>2020-07-26T10:49:37Z</time>
      </trkpt>
      <trkpt lat="43.0951820" lon="-0.7096240">
        <ele>348.3</ele>
        <time>2020-07-26T10:49:39Z</time>
      </trkpt>
      <trkpt lat="43.0951800" lon="-0.7097040">
        <ele>348.6</ele>
        <time>2020-07-26T10:49:41Z</time>
      </trkpt>
      <trkpt lat="43.0951820" lon="-0.7097420">
        <ele>348.8</ele>
        <time>2020-07-26T10:49:42Z</time>
      </trkpt>
      <trkpt lat="43.0951880" lon="-0.7098220">
        <ele>349.1</ele>
        <time>2020-07-26T10:49:44Z</time>
      </trkpt>
      <trkpt lat="43.0952090" lon="-0.7099900">
        <ele>349.7</ele>
        <time>2020-07-26T10:49:48Z</time>
      </trkpt>
      <trkpt lat="43.0952180" lon="-0.7100310">
        <ele>349.9</ele>
        <time>2020-07-26T10:49:49Z</time>
      </trkpt>
      <trkpt lat="43.0952560" lon="-0.7101910">
        <ele>350.5</ele>
        <time>2020-07-26T10:49:53Z</time>
      </trkpt>
      <trkpt lat="43.0952630" lon="-0.7102350">
        <ele>350.7</ele>
        <time>2020-07-26T10:49:54Z</time>
      </trkpt>
      <trkpt lat="43.0953060" lon="-0.7104470">
        <ele>351.7</ele>
        <time>2020-07-26T10:49:59Z</time>
      </trkpt>
      <trkpt lat="43.0953050" lon="-0.7105640">
        <ele>352.2</ele>
        <time>2020-07-26T10:50:02Z</time>
      </trkpt>
      <trkpt lat="43.0952960" lon="-0.7106370">
        <ele>352.5</ele>
        <time>2020-07-26T10:50:04Z</time>
      </trkpt>
      <trkpt lat="43.0952660" lon="-0.7107850">
        <ele>353.2</ele>
        <time>2020-07-26T10:50:08Z</time>
      </trkpt>
      <trkpt lat="43.0952450" lon="-0.7108610">
        <ele>353.6</ele>
        <time>2020-07-26T10:50:10Z</time>
      </trkpt>
      <trkpt lat="43.0951950" lon="-0.7109630">
        <ele>354.1</ele>
        <time>2020-07-26T10:50:13Z</time>
      </trkpt>
      <trkpt lat="43.0951580" lon="-0.7110270">
        <ele>354.5</ele>
        <time>2020-07-26T10:50:15Z</time>
      </trkpt>
      <trkpt lat="43.0950610" lon="-0.7111590">
        <ele>355.3</ele>
        <time>2020-07-26T10:50:19Z</time>
      </trkpt>
      <trkpt lat="43.0949510" lon="-0.7113690">
        <ele>356.4</ele>
        <time>2020-07-26T10:50:24Z</time>
      </trkpt>
      <trkpt lat="43.0949150" lon="-0.7114360">
        <ele>356.8</ele>
        <time>2020-07-26T10:50:26Z</time>
      </trkpt>
      <trkpt lat="43.0948400" lon="-0.7116080">
        <ele>357.7</ele>
        <time>2020-07-26T10:50:31Z</time>
      </trkpt>
      <trkpt lat="43.0948230" lon="-0.7116480">
        <ele>357.9</ele>
        <time>2020-07-26T10:50:32Z</time>
      </trkpt>
      <trkpt lat="43.0947780" lon="-0.7117240">
        <ele>358.4</ele>
        <time>2020-07-26T10:50:34Z</time>
      </trkpt>
      <trkpt lat="43.0946700" lon="-0.7118500">
        <ele>359.3</ele>
        <time>2020-07-26T10:50:38Z</time>
      </trkpt>
      <trkpt lat="43.0946070" lon="-0.7118940">
        <ele>359.7</ele>
        <time>2020-07-26T10:50:40Z</time>
      </trkpt>
      <trkpt lat="43.0944140" lon="-0.7120320">
        <ele>361.0</ele>
        <time>2020-07-26T10:50:46Z</time>
      </trkpt>
      <trkpt lat="43.0943160" lon="-0.7120850">
        <ele>361.6</ele>
        <time>2020-07-26T10:50:49Z</time>
      </trkpt>
      <trkpt lat="43.0941090" lon="-0.7121600">
        <ele>362.9</ele>
        <time>2020-07-26T10:50:55Z</time>
      </trkpt>
      <trkpt lat="43.0939330" lon="-0.7122110">
        <ele>363.9</ele>
        <time>2020-07-26T10:51:00Z</time>
      </trkpt>
      <trkpt lat="43.0937530" lon="-0.7122300">
        <ele>364.8</ele>
        <time>2020-07-26T10:51:05Z</time>
      </trkpt>
      <trkpt lat="43.0936800" lon="-0.7122300">
        <ele>365.3</ele>
        <time>2020-07-26T10:51:07Z</time>
      </trkpt>
      <trkpt lat="43.0934330" lon="-0.7121970">
        <ele>366.9</ele>
        <time>2020-07-26T10:51:14Z</time>
      </trkpt>
      <trkpt lat="43.0932360" lon="-0.7121170">
        <ele>368.2</ele>
        <time>2020-07-26T10:51:20Z</time>
      </trkpt>
      <trkpt lat="43.0931740" lon="-0.7120760">
        <ele>368.6</ele>
        <time>2020-07-26T10:51:22Z</time>
      </trkpt>
      <trkpt lat="43.0930790" lon="-0.7120170">
        <ele>369.2</ele>
        <time>2020-07-26T10:51:25Z</time>
      </trkpt>
      <trkpt lat="43.0929320" lon="-0.7119050">
        <ele>370.2</ele>
        <time>2020-07-26T10:51:30Z</time>
      </trkpt>
      <trkpt lat="43.0928440" lon="-0.7118430">
        <ele>370.8</ele>
        <time>2020-07-26T10:51:33Z</time>
      </trkpt>
      <trkpt lat="43.0927210" lon="-0.7117490">
        <ele>371.6</ele>
        <time>2020-07-26T10:51:37Z</time>
      </trkpt>
      <trkpt lat="43.0926570" lon="-0.7117090">
        <ele>372.0</ele>
        <time>2020-07-26T10:51:39Z</time>
      </trkpt>
      <trkpt lat="43.0925230" lon="-0.7116480">
        <ele>372.9</ele>
        <time>2020-07-26T10:51:43Z</time>
      </trkpt>
      <trkpt lat="43.0923260" lon="-0.7115980">
        <ele>374.0</ele>
        <time>2020-07-26T10:51:49Z</time>
      </trkpt>
      <trkpt lat="43.0922930" lon="-0.7115880">
        <ele>374.2</ele>
        <time>2020-07-26T10:51:50Z</time>
      </trkpt>
      <trkpt lat="43.0921570" lon="-0.7115380">
        <ele>375.1</ele>
        <time>2020-07-26T10:51:54Z</time>
      </trkpt>
      <trkpt lat="43.0921010" lon="-0.7114780">
        <ele>375.5</ele>
        <time>2020-07-26T10:51:56Z</time>
      </trkpt>
      <trkpt lat="43.0920630" lon="-0.7112910">
        <ele>376.3</ele>
        <time>2020-07-26T10:52:00Z</time>
      </trkpt>
      <trkpt lat="43.0920820" lon="-0.7111990">
        <ele>376.7</ele>
        <time>2020-07-26T10:52:02Z</time>
      </trkpt>
      <trkpt lat="43.0921540" lon="-0.7110330">
        <ele>377.6</ele>
        <time>2020-07-26T10:52:06Z</time>
      </trkpt>
      <trkpt lat="43.0921950" lon="-0.7109590">
        <ele>378.0</ele>
        <time>2020-07-26T10:52:08Z</time>
      </trkpt>
      <trkpt lat="43.0922710" lon="-0.7108230">
        <ele>378.8</ele>
        <time>2020-07-26T10:52:12Z</time>
      </trkpt>
      <trkpt lat="43.0923090" lon="-0.7107580">
        <ele>379.2</ele>
        <time>2020-07-26T10:52:14Z</time>
      </trkpt>
      <trkpt lat="43.0923520" lon="-0.7106470">
        <ele>379.8</ele>
        <time>2020-07-26T10:52:17Z</time>
      </trkpt>
      <trkpt lat="43.0923810" lon="-0.7105660">
        <ele>380.3</ele>
        <time>2020-07-26T10:52:19Z</time>
      </trkpt>
      <trkpt lat="43.0924410" lon="-0.7104020">
        <ele>381.2</ele>
        <time>2020-07-26T10:52:23Z</time>
      </trkpt>
      <trkpt lat="43.0924720" lon="-0.7101930">
        <ele>382.4</ele>
        <time>2020-07-26T10:52:28Z</time>
      </trkpt>
      <trkpt lat="43.0924640" lon="-0.7101560">
        <ele>382.6</ele>
        <time>2020-07-26T10:52:29Z</time>
      </trkpt>
      <trkpt lat="43.0923920" lon="-0.7100520">
        <ele>383.2</ele>
        <time>2020-07-26T10:52:33Z</time>
      </trkpt>
      <trkpt lat="43.0923390" lon="-0.7100270">
        <ele>383.6</ele>
        <time>2020-07-26T10:52:35Z</time>
      </trkpt>
      <trkpt lat="43.0922490" lon="-0.7100140">
        <ele>384.2</ele>
        <time>2020-07-26T10:52:38Z</time>
      </trkpt>
      <trkpt lat="43.0921890" lon="-0.7100070">
        <ele>384.6</ele>
        <time>2020-07-26T10:52:40Z</time>
      </trkpt>
      <trkpt lat="43.0920330" lon="-0.7099720">
        <ele>385.7</ele>
        <time>2020-07-26T10:52:45Z</time>
      </trkpt>
      <trkpt lat="43.0919980" lon="-0.7099560">
        <ele>385.9</ele>
        <time>2020-07-26T10:52:46Z</time>
      </trkpt>
      <trkpt lat="43.0918710" lon="-0.7098720">
        <ele>386.9</ele>
        <time>2020-07-26T10:52:50Z</time>
      </trkpt>
      <trkpt lat="43.0918200" lon="-0.7098130">
        <ele>387.4</ele>
        <time>2020-07-26T10:52:52Z</time>
      </trkpt>
      <trkpt lat="43.0917560" lon="-0.7096930">
        <ele>388.2</ele>
        <time>2020-07-26T10:52:55Z</time>
      </trkpt>
      <trkpt lat="43.0917170" lon="-0.7095620">
        <ele>388.9</ele>
        <time>2020-07-26T10:52:58Z</time>
      </trkpt>
      <trkpt lat="43.0917080" lon="-0.7094720">
        <ele>389.3</ele>
        <time>2020-07-26T10:53:00Z</time>
      </trkpt>
      <trkpt lat="43.0916980" lon="-0.7093160">
        <ele>390.0</ele>
        <time>2020-07-26T10:53:04Z</time>
      </trkpt>
      <trkpt lat="43.0916980" lon="-0.7092380">
        <ele>390.4</ele>
        <time>2020-07-26T10:53:06Z</time>
      </trkpt>
      <trkpt lat="43.0917120" lon="-0.7090610">
        <ele>391.2</ele>
        <time>2020-07-26T10:53:10Z</time>
      </trkpt>
      <trkpt lat="43.0917540" lon="-0.7088770">
        <ele>392.1</ele>
        <time>2020-07-26T10:53:14Z</time>
      </trkpt>
      <trkpt lat="43.0917790" lon="-0.7088390">
        <ele>392.3</ele>
        <time>2020-07-26T10:53:15Z</time>
      </trkpt>
      <trkpt lat="43.0918310" lon="-0.7087720">
        <ele>392.8</ele>
        <time>2020-07-26T10:53:17Z</time>
      </trkpt>
      <trkpt lat="43.0919330" lon="-0.7086790">
        <ele>393.7</ele>
        <time>2020-07-26T10:53:21Z</time>
      </trkpt>
      <trkpt lat="43.0919970" lon="-0.7086470">
        <ele>394.1</ele>
        <time>2020-07-26T10:53:23Z</time>
      </trkpt>
      <trkpt lat="43.0921240" lon="-0.7085930">
        <ele>395.0</ele>
        <time>2020-07-26T10:53:27Z</time>
      </trkpt>
      <trkpt lat="43.0921870" lon="-0.7085600">
        <ele>395.4</ele>
        <time>2020-07-26T10:53:29Z</time>
      </trkpt>
      <trkpt lat="43.0923010" lon="-0.7084820">
        <ele>396.2</ele>
        <time>2020-07-26T10:53:33Z</time>
      </trkpt>
      <trkpt lat="43.0923270" lon="-0.7084580">
        <ele>396.4</ele>
        <time>2020-07-26T10:53:34Z</time>
      </trkpt>
      <trkpt lat="43.0924600" lon="-0.7083010">
        <ele>397.4</ele>
        <time>2020-07-26T10:53:39Z</time>
      </trkpt>
      <trkpt lat="43.0924800" lon="-0.7082610">
        <ele>397.6</ele>
        <time>2020-07-26T10:53:40Z</time>
      </trkpt>
      <trkpt lat="43.0925140" lon="-0.7082190">
        <ele>397.8</ele>
        <time>2020-07-26T10:53:41Z</time>
      </trkpt>
      <trkpt lat="43.0925470" lon="-0.7081270">
        <ele>398.2</ele>
        <time>2020-07-26T10:53:43Z</time>
      </trkpt>
      <trkpt lat="43.0925560" lon="-0.7080270">
        <ele>398.6</ele>
        <time>2020-07-26T10:53:45Z</time>
      </trkpt>
      <trkpt lat="43.0925480" lon="-0.7078280">
        <ele>399.3</ele>
        <time>2020-07-26T10:53:49Z</time>
      </trkpt>
      <trkpt lat="43.0925320" lon="-0.7077850">
        <ele>399.5</ele>
        <time>2020-07-26T10:53:50Z</time>
      </trkpt>
      <trkpt lat="43.0925120" lon="-0.7077440">
        <ele>399.8</ele>
        <time>2020-07-26T10:53:51Z</time>
      </trkpt>
      <trkpt lat="43.0924410" lon="-0.7076500">
        <ele>400.2</ele>
        <time>2020-07-26T10:53:54Z</time>
      </trkpt>
      <trkpt lat="43.0923250" lon="-0.7075840">
        <ele>400.8</ele>
        <time>2020-07-26T10:53:58Z</time>
      </trkpt>
      <trkpt lat="43.0922770" lon="-0.7075750">
        <ele>401.1</ele>
        <time>2020-07-26T10:54:00Z</time>
      </trkpt>
      <trkpt lat="43.0922160" lon="-0.7075570">
        <ele>401.3</ele>
        <time>2020-07-26T10:54:02Z</time>
      </trkpt>
      <trkpt lat="43.0920500" lon="-0.7074750">
        <ele>402.2</ele>
        <time>2020-07-26T10:54:07Z</time>
      </trkpt>
      <trkpt lat="43.0917850" lon="-0.7073440">
        <ele>403.8</ele>
        <time>2020-07-26T10:54:15Z</time>
      </trkpt>
      <trkpt lat="43.0916920" lon="-0.7072750">
        <ele>404.4</ele>
        <time>2020-07-26T10:54:18Z</time>
      </trkpt>
      <trkpt lat="43.0916240" lon="-0.7071750">
        <ele>405.1</ele>
        <time>2020-07-26T10:54:21Z</time>
      </trkpt>
      <trkpt lat="43.0916000" lon="-0.7070850">
        <ele>405.6</ele>
        <time>2020-07-26T10:54:23Z</time>
      </trkpt>
      <trkpt lat="43.0916110" lon="-0.7068940">
        <ele>406.5</ele>
        <time>2020-07-26T10:54:27Z</time>
      </trkpt>
      <trkpt lat="43.0916240" lon="-0.7068470">
        <ele>406.7</ele>
        <time>2020-07-26T10:54:28Z</time>
      </trkpt>
      <trkpt lat="43.0916940" lon="-0.7066720">
        <ele>407.4</ele>
        <time>2020-07-26T10:54:32Z</time>
      </trkpt>
      <trkpt lat="43.0917630" lon="-0.7065010">
        <ele>408.2</ele>
        <time>2020-07-26T10:54:36Z</time>
      </trkpt>
      <trkpt lat="43.0917950" lon="-0.7064170">
        <ele>408.6</ele>
        <time>2020-07-26T10:54:38Z</time>
      </trkpt>
      <trkpt lat="43.0919000" lon="-0.7062360">
        <ele>409.7</ele>
        <time>2020-07-26T10:54:43Z</time>
      </trkpt>
      <trkpt lat="43.0919250" lon="-0.7062070">
        <ele>409.9</ele>
        <time>2020-07-26T10:54:44Z</time>
      </trkpt>
      <trkpt lat="43.0920470" lon="-0.7060520">
        <ele>411.0</ele>
        <time>2020-07-26T10:54:49Z</time>
      </trkpt>
      <trkpt lat="43.0921300" lon="-0.7059030">
        <ele>411.9</ele>
        <time>2020-07-26T10:54:53Z</time>
      </trkpt>
      <trkpt lat="43.0921440" lon="-0.7058600">
        <ele>412.1</ele>
        <time>2020-07-26T10:54:54Z</time>
      </trkpt>
      <trkpt lat="43.0921630" lon="-0.7056790">
        <ele>412.9</ele>
        <time>2020-07-26T10:54:58Z</time>
      </trkpt>
      <trkpt lat="43.0921500" lon="-0.7055920">
        <ele>413.3</ele>
        <time>2020-07-26T10:55:00Z</time>
      </trkpt>
      <trkpt lat="43.0921740" lon="-0.7055110">
        <ele>413.6</ele>
        <time>2020-07-26T10:55:02Z</time>
      </trkpt>
      <trkpt lat="43.0920950" lon="-0.7054220">
        <ele>414.2</ele>
        <time>2020-07-26T10:55:04Z</time>
      </trkpt>
      <trkpt lat="43.0920800" lon="-0.7053790">
        <ele>414.4</ele>
        <time>2020-07-26T10:55:05Z</time>
      </trkpt>
      <trkpt lat="43.0920420" lon="-0.7052400">
        <ele>415.0</ele>
        <time>2020-07-26T10:55:09Z</time>
      </trkpt>
      <trkpt lat="43.0920410" lon="-0.7051940">
        <ele>415.2</ele>
        <time>2020-07-26T10:55:11Z</time>
      </trkpt>
      <trkpt lat="43.0920590" lon="-0.7048980">
        <ele>416.5</ele>
        <time>2020-07-26T10:55:17Z</time>
      </trkpt>
      <trkpt lat="43.0920650" lon="-0.7048490">
        <ele>416.7</ele>
        <time>2020-07-26T10:55:18Z</time>
      </trkpt>
      <trkpt lat="43.0921160" lon="-0.7046180">
        <ele>417.7</ele>
        <time>2020-07-26T10:55:23Z</time>
      </trkpt>
      <trkpt lat="43.0921300" lon="-0.7045740">
        <ele>417.9</ele>
        <time>2020-07-26T10:55:24Z</time>
      </trkpt>
      <trkpt lat="43.0922460" lon="-0.7043860">
        <ele>418.9</ele>
        <time>2020-07-26T10:55:29Z</time>
      </trkpt>
      <trkpt lat="43.0922730" lon="-0.7043510">
        <ele>419.0</ele>
        <time>2020-07-26T10:55:30Z</time>
      </trkpt>
      <trkpt lat="43.0923650" lon="-0.7042790">
        <ele>419.4</ele>
        <time>2020-07-26T10:55:32Z</time>
      </trkpt>
      <trkpt lat="43.0924060" lon="-0.7042430">
        <ele>419.5</ele>
        <time>2020-07-26T10:55:33Z</time>
      </trkpt>
      <trkpt lat="43.0924300" lon="-0.7042000">
        <ele>419.6</ele>
        <time>2020-07-26T10:55:34Z</time>
      </trkpt>
      <trkpt lat="43.0924800" lon="-0.7040390">
        <ele>419.5</ele>
        <time>2020-07-26T10:55:37Z</time>
      </trkpt>
      <trkpt lat="43.0924850" lon="-0.7039740">
        <ele>419.4</ele>
        <time>2020-07-26T10:55:38Z</time>
      </trkpt>
      <trkpt lat="43.0924860" lon="-0.7038280">
        <ele>418.9</ele>
        <time>2020-07-26T10:55:40Z</time>
      </trkpt>
      <trkpt lat="43.0924830" lon="-0.7036530">
        <ele>418.3</ele>
        <time>2020-07-26T10:55:42Z</time>
      </trkpt>
      <trkpt lat="43.0925040" lon="-0.7031230">
        <ele>416.0</ele>
        <time>2020-07-26T10:55:47Z</time>
      </trkpt>
      <trkpt lat="43.0925700" lon="-0.7026580">
        <ele>414.0</ele>
        <time>2020-07-26T10:55:51Z</time>
      </trkpt>
      <trkpt lat="43.0925670" lon="-0.7025310">
        <ele>413.5</ele>
        <time>2020-07-26T10:55:52Z</time>
      </trkpt>
      <trkpt lat="43.0925000" lon="-0.7022970">
        <ele>412.5</ele>
        <time>2020-07-26T10:55:54Z</time>
      </trkpt>
      <trkpt lat="43.0923430" lon="-0.7021910">
        <ele>411.4</ele>
        <time>2020-07-26T10:55:56Z</time>
      </trkpt>
      <trkpt lat="43.0922500" lon="-0.7021940">
        <ele>410.8</ele>
        <time>2020-07-26T10:55:57Z</time>
      </trkpt>
      <trkpt lat="43.0921570" lon="-0.7022160">
        <ele>410.2</ele>
        <time>2020-07-26T10:55:58Z</time>
      </trkpt>
      <trkpt lat="43.0920630" lon="-0.7022470">
        <ele>409.6</ele>
        <time>2020-07-26T10:55:59Z</time>
      </trkpt>
      <trkpt lat="43.0919690" lon="-0.7022840">
        <ele>408.9</ele>
        <time>2020-07-26T10:56:00Z</time>
      </trkpt>
      <trkpt lat="43.0917720" lon="-0.7023670">
        <ele>407.4</ele>
        <time>2020-07-26T10:56:02Z</time>
      </trkpt>
      <trkpt lat="43.0915730" lon="-0.7024230">
        <ele>405.8</ele>
        <time>2020-07-26T10:56:04Z</time>
      </trkpt>
      <trkpt lat="43.0914820" lon="-0.7024180">
        <ele>405.3</ele>
        <time>2020-07-26T10:56:05Z</time>
      </trkpt>
      <trkpt lat="43.0913940" lon="-0.7023770">
        <ele>404.9</ele>
        <time>2020-07-26T10:56:06Z</time>
      </trkpt>
      <trkpt lat="43.0913290" lon="-0.7023290">
        <ele>404.6</ele>
        <time>2020-07-26T10:56:07Z</time>
      </trkpt>
      <trkpt lat="43.0912810" lon="-0.7022650">
        <ele>404.3</ele>
        <time>2020-07-26T10:56:08Z</time>
      </trkpt>
      <trkpt lat="43.0912530" lon="-0.7021900">
        <ele>404.0</ele>
        <time>2020-07-26T10:56:09Z</time>
      </trkpt>
      <trkpt lat="43.0912920" lon="-0.7020030">
        <ele>403.2</ele>
        <time>2020-07-26T10:56:11Z</time>
      </trkpt>
      <trkpt lat="43.0913230" lon="-0.7019040">
        <ele>402.8</ele>
        <time>2020-07-26T10:56:12Z</time>
      </trkpt>
      <trkpt lat="43.0914520" lon="-0.7017570">
        <ele>401.7</ele>
        <time>2020-07-26T10:56:14Z</time>
      </trkpt>
      <trkpt lat="43.0915300" lon="-0.7016870">
        <ele>401.2</ele>
        <time>2020-07-26T10:56:15Z</time>
      </trkpt>
      <trkpt lat="43.0916050" lon="-0.7016140">
        <ele>400.7</ele>
        <time>2020-07-26T10:56:16Z</time>
      </trkpt>
      <trkpt lat="43.0917570" lon="-0.7014380">
        <ele>399.7</ele>
        <time>2020-07-26T10:56:18Z</time>
      </trkpt>
      <trkpt lat="43.0918860" lon="-0.7012400">
        <ele>398.7</ele>
        <time>2020-07-26T10:56:20Z</time>
      </trkpt>
      <trkpt lat="43.0920170" lon="-0.7010080">
        <ele>397.7</ele>
        <time>2020-07-26T10:56:22Z</time>
      </trkpt>
      <trkpt lat="43.0920880" lon="-0.7007980">
        <ele>397.1</ele>
        <time>2020-07-26T10:56:24Z</time>
      </trkpt>
      <trkpt lat="43.0921140" lon="-0.7006830">
        <ele>396.8</ele>
        <time>2020-07-26T10:56:25Z</time>
      </trkpt>
      <trkpt lat="43.0920960" lon="-0.7005840">
        <ele>396.6</ele>
        <time>2020-07-26T10:56:26Z</time>
      </trkpt>
      <trkpt lat="43.0920730" lon="-0.7004990">
        <ele>396.4</ele>
        <time>2020-07-26T10:56:27Z</time>
      </trkpt>
      <trkpt lat="43.0920280" lon="-0.7004520">
        <ele>396.2</ele>
        <time>2020-07-26T10:56:28Z</time>
      </trkpt>
      <trkpt lat="43.0919740" lon="-0.7004400">
        <ele>395.9</ele>
        <time>2020-07-26T10:56:29Z</time>
      </trkpt>
      <trkpt lat="43.0918390" lon="-0.7004550">
        <ele>395.2</ele>
        <time>2020-07-26T10:56:31Z</time>
      </trkpt>
      <trkpt lat="43.0917540" lon="-0.7004400">
        <ele>394.8</ele>
        <time>2020-07-26T10:56:32Z</time>
      </trkpt>
      <trkpt lat="43.0916770" lon="-0.7004350">
        <ele>394.4</ele>
        <time>2020-07-26T10:56:33Z</time>
      </trkpt>
      <trkpt lat="43.0915230" lon="-0.7003640">
        <ele>393.8</ele>
        <time>2020-07-26T10:56:35Z</time>
      </trkpt>
      <trkpt lat="43.0914610" lon="-0.7001900">
        <ele>393.2</ele>
        <time>2020-07-26T10:56:37Z</time>
      </trkpt>
      <trkpt lat="43.0915230" lon="-0.7000350">
        <ele>392.6</ele>
        <time>2020-07-26T10:56:39Z</time>
      </trkpt>
      <trkpt lat="43.0915480" lon="-0.6999730">
        <ele>392.2</ele>
        <time>2020-07-26T10:56:40Z</time>
      </trkpt>
      <trkpt lat="43.0915730" lon="-0.6999100">
        <ele>391.9</ele>
        <time>2020-07-26T10:56:41Z</time>
      </trkpt>
      <trkpt lat="43.0916210" lon="-0.6998730">
        <ele>391.5</ele>
        <time>2020-07-26T10:56:42Z</time>
      </trkpt>
      <trkpt lat="43.0916610" lon="-0.6998110">
        <ele>391.1</ele>
        <time>2020-07-26T10:56:43Z</time>
      </trkpt>
      <trkpt lat="43.0918190" lon="-0.6996330">
        <ele>389.7</ele>
        <time>2020-07-26T10:56:45Z</time>
      </trkpt>
      <trkpt lat="43.0918830" lon="-0.6995240">
        <ele>389.0</ele>
        <time>2020-07-26T10:56:46Z</time>
      </trkpt>
      <trkpt lat="43.0919200" lon="-0.6994040">
        <ele>388.5</ele>
        <time>2020-07-26T10:56:47Z</time>
      </trkpt>
      <trkpt lat="43.0920060" lon="-0.6991340">
        <ele>387.4</ele>
        <time>2020-07-26T10:56:49Z</time>
      </trkpt>
      <trkpt lat="43.0920400" lon="-0.6989850">
        <ele>386.8</ele>
        <time>2020-07-26T10:56:50Z</time>
      </trkpt>
      <trkpt lat="43.0920390" lon="-0.6988490">
        <ele>386.4</ele>
        <time>2020-07-26T10:56:51Z</time>
      </trkpt>
      <trkpt lat="43.0920640" lon="-0.6987310">
        <ele>386.0</ele>
        <time>2020-07-26T10:56:52Z</time>
      </trkpt>
      <trkpt lat="43.0920730" lon="-0.6986180">
        <ele>385.7</ele>
        <time>2020-07-26T10:56:53Z</time>
      </trkpt>
      <trkpt lat="43.0920390" lon="-0.6985020">
        <ele>385.4</ele>
        <time>2020-07-26T10:56:54Z</time>
      </trkpt>
      <trkpt lat="43.0918830" lon="-0.6983170">
        <ele>384.7</ele>
        <time>2020-07-26T10:56:56Z</time>
      </trkpt>
      <trkpt lat="43.0917340" lon="-0.6981070">
        <ele>383.6</ele>
        <time>2020-07-26T10:56:58Z</time>
      </trkpt>
      <trkpt lat="43.0917390" lon="-0.6978950">
        <ele>382.8</ele>
        <time>2020-07-26T10:57:00Z</time>
      </trkpt>
      <trkpt lat="43.0918840" lon="-0.6975980">
        <ele>381.1</ele>
        <time>2020-07-26T10:57:03Z</time>
      </trkpt>
      <trkpt lat="43.0919220" lon="-0.6974710">
        <ele>380.4</ele>
        <time>2020-07-26T10:57:04Z</time>
      </trkpt>
      <trkpt lat="43.0919700" lon="-0.6973410">
        <ele>379.5</ele>
        <time>2020-07-26T10:57:05Z</time>
      </trkpt>
      <trkpt lat="43.0920920" lon="-0.6970610">
        <ele>377.7</ele>
        <time>2020-07-26T10:57:07Z</time>
      </trkpt>
      <trkpt lat="43.0922700" lon="-0.6966360">
        <ele>375.3</ele>
        <time>2020-07-26T10:57:10Z</time>
      </trkpt>
      <trkpt lat="43.0922960" lon="-0.6964940">
        <ele>374.7</ele>
        <time>2020-07-26T10:57:11Z</time>
      </trkpt>
      <trkpt lat="43.0923320" lon="-0.6963440">
        <ele>374.1</ele>
        <time>2020-07-26T10:57:12Z</time>
      </trkpt>
      <trkpt lat="43.0923630" lon="-0.6960480">
        <ele>373.0</ele>
        <time>2020-07-26T10:57:14Z</time>
      </trkpt>
      <trkpt lat="43.0923440" lon="-0.6959080">
        <ele>372.4</ele>
        <time>2020-07-26T10:57:15Z</time>
      </trkpt>
      <trkpt lat="43.0923220" lon="-0.6957790">
        <ele>371.8</ele>
        <time>2020-07-26T10:57:16Z</time>
      </trkpt>
      <trkpt lat="43.0922700" lon="-0.6954890">
        <ele>370.1</ele>
        <time>2020-07-26T10:57:18Z</time>
      </trkpt>
      <trkpt lat="43.0922690" lon="-0.6951580">
        <ele>368.4</ele>
        <time>2020-07-26T10:57:20Z</time>
      </trkpt>
      <trkpt lat="43.0922720" lon="-0.6949950">
        <ele>367.7</ele>
        <time>2020-07-26T10:57:21Z</time>
      </trkpt>
      <trkpt lat="43.0923080" lon="-0.6948560">
        <ele>367.0</ele>
        <time>2020-07-26T10:57:22Z</time>
      </trkpt>
      <trkpt lat="43.0923700" lon="-0.6947130">
        <ele>366.2</ele>
        <time>2020-07-26T10:57:23Z</time>
      </trkpt>
      <trkpt lat="43.0924370" lon="-0.6945670">
        <ele>365.4</ele>
        <time>2020-07-26T10:57:24Z</time>
      </trkpt>
      <trkpt lat="43.0924530" lon="-0.6944110">
        <ele>364.7</ele>
        <time>2020-07-26T10:57:25Z</time>
      </trkpt>
      <trkpt lat="43.0924300" lon="-0.6942390">
        <ele>363.9</ele>
        <time>2020-07-26T10:57:26Z</time>
      </trkpt>
      <trkpt lat="43.0923690" lon="-0.6939360">
        <ele>362.7</ele>
        <time>2020-07-26T10:57:28Z</time>
      </trkpt>
      <trkpt lat="43.0922940" lon="-0.6936770">
        <ele>362.1</ele>
        <time>2020-07-26T10:57:30Z</time>
      </trkpt>
      <trkpt lat="43.0922260" lon="-0.6934140">
        <ele>361.4</ele>
        <time>2020-07-26T10:57:32Z</time>
      </trkpt>
      <trkpt lat="43.0921650" lon="-0.6931010">
        <ele>360.3</ele>
        <time>2020-07-26T10:57:34Z</time>
      </trkpt>
      <trkpt lat="43.0921130" lon="-0.6927700">
        <ele>359.2</ele>
        <time>2020-07-26T10:57:36Z</time>
      </trkpt>
      <trkpt lat="43.0920740" lon="-0.6924260">
        <ele>358.3</ele>
        <time>2020-07-26T10:57:38Z</time>
      </trkpt>
      <trkpt lat="43.0920690" lon="-0.6920810">
        <ele>357.9</ele>
        <time>2020-07-26T10:57:40Z</time>
      </trkpt>
      <trkpt lat="43.0921040" lon="-0.6919470">
        <ele>357.7</ele>
        <time>2020-07-26T10:57:41Z</time>
      </trkpt>
      <trkpt lat="43.0921710" lon="-0.6916310">
        <ele>357.2</ele>
        <time>2020-07-26T10:57:43Z</time>
      </trkpt>
      <trkpt lat="43.0922030" lon="-0.6914750">
        <ele>356.8</ele>
        <time>2020-07-26T10:57:44Z</time>
      </trkpt>
      <trkpt lat="43.0922410" lon="-0.6913240">
        <ele>356.4</ele>
        <time>2020-07-26T10:57:45Z</time>
      </trkpt>
      <trkpt lat="43.0922870" lon="-0.6911970">
        <ele>356.1</ele>
        <time>2020-07-26T10:57:46Z</time>
      </trkpt>
      <trkpt lat="43.0923680" lon="-0.6909180">
        <ele>355.9</ele>
        <time>2020-07-26T10:57:48Z</time>
      </trkpt>
      <trkpt lat="43.0925360" lon="-0.6902410">
        <ele>355.9</ele>
        <time>2020-07-26T10:57:53Z</time>
      </trkpt>
      <trkpt lat="43.0925790" lon="-0.6901210">
        <ele>355.9</ele>
        <time>2020-07-26T10:57:54Z</time>
      </trkpt>
      <trkpt lat="43.0926830" lon="-0.6899010">
        <ele>355.8</ele>
        <time>2020-07-26T10:57:56Z</time>
      </trkpt>
      <trkpt lat="43.0928280" lon="-0.6894600">
        <ele>355.4</ele>
        <time>2020-07-26T10:58:00Z</time>
      </trkpt>
      <trkpt lat="43.0927950" lon="-0.6893240">
        <ele>355.3</ele>
        <time>2020-07-26T10:58:01Z</time>
      </trkpt>
      <trkpt lat="43.0928180" lon="-0.6892000">
        <ele>355.2</ele>
        <time>2020-07-26T10:58:02Z</time>
      </trkpt>
      <trkpt lat="43.0928530" lon="-0.6890800">
        <ele>355.0</ele>
        <time>2020-07-26T10:58:03Z</time>
      </trkpt>
      <trkpt lat="43.0928990" lon="-0.6888110">
        <ele>354.7</ele>
        <time>2020-07-26T10:58:05Z</time>
      </trkpt>
      <trkpt lat="43.0928900" lon="-0.6886970">
        <ele>354.6</ele>
        <time>2020-07-26T10:58:06Z</time>
      </trkpt>
      <trkpt lat="43.0927870" lon="-0.6884110">
        <ele>353.9</ele>
        <time>2020-07-26T10:58:08Z</time>
      </trkpt>
      <trkpt lat="43.0927940" lon="-0.6882800">
        <ele>353.5</ele>
        <time>2020-07-26T10:58:09Z</time>
      </trkpt>
      <trkpt lat="43.0927650" lon="-0.6881400">
        <ele>352.9</ele>
        <time>2020-07-26T10:58:10Z</time>
      </trkpt>
      <trkpt lat="43.0927700" lon="-0.6879980">
        <ele>352.3</ele>
        <time>2020-07-26T10:58:11Z</time>
      </trkpt>
      <trkpt lat="43.0928110" lon="-0.6878660">
        <ele>351.7</ele>
        <time>2020-07-26T10:58:12Z</time>
      </trkpt>
      <trkpt lat="43.0928310" lon="-0.6875770">
        <ele>350.6</ele>
        <time>2020-07-26T10:58:14Z</time>
      </trkpt>
      <trkpt lat="43.0928430" lon="-0.6874310">
        <ele>350.1</ele>
        <time>2020-07-26T10:58:15Z</time>
      </trkpt>
      <trkpt lat="43.0928400" lon="-0.6872790">
        <ele>349.7</ele>
        <time>2020-07-26T10:58:16Z</time>
      </trkpt>
      <trkpt lat="43.0928220" lon="-0.6871280">
        <ele>349.5</ele>
        <time>2020-07-26T10:58:17Z</time>
      </trkpt>
      <trkpt lat="43.0928300" lon="-0.6869860">
        <ele>349.4</ele>
        <time>2020-07-26T10:58:18Z</time>
      </trkpt>
      <trkpt lat="43.0928940" lon="-0.6868670">
        <ele>349.4</ele>
        <time>2020-07-26T10:58:19Z</time>
      </trkpt>
      <trkpt lat="43.0930180" lon="-0.6866540">
        <ele>349.9</ele>
        <time>2020-07-26T10:58:21Z</time>
      </trkpt>
      <trkpt lat="43.0930170" lon="-0.6865460">
        <ele>350.1</ele>
        <time>2020-07-26T10:58:22Z</time>
      </trkpt>
      <trkpt lat="43.0930300" lon="-0.6862290">
        <ele>350.8</ele>
        <time>2020-07-26T10:58:25Z</time>
      </trkpt>
      <trkpt lat="43.0931040" lon="-0.6860510">
        <ele>351.1</ele>
        <time>2020-07-26T10:58:27Z</time>
      </trkpt>
      <trkpt lat="43.0931610" lon="-0.6859710">
        <ele>351.3</ele>
        <time>2020-07-26T10:58:28Z</time>
      </trkpt>
      <trkpt lat="43.0932490" lon="-0.6858990">
        <ele>351.5</ele>
        <time>2020-07-26T10:58:29Z</time>
      </trkpt>
      <trkpt lat="43.0933240" lon="-0.6858220">
        <ele>351.5</ele>
        <time>2020-07-26T10:58:30Z</time>
      </trkpt>
      <trkpt lat="43.0934810" lon="-0.6855390">
        <ele>351.4</ele>
        <time>2020-07-26T10:58:33Z</time>
      </trkpt>
      <trkpt lat="43.0935650" lon="-0.6853290">
        <ele>351.3</ele>
        <time>2020-07-26T10:58:35Z</time>
      </trkpt>
      <trkpt lat="43.0936330" lon="-0.6849970">
        <ele>350.9</ele>
        <time>2020-07-26T10:58:38Z</time>
      </trkpt>
      <trkpt lat="43.0937110" lon="-0.6846690">
        <ele>350.3</ele>
        <time>2020-07-26T10:58:41Z</time>
      </trkpt>
      <trkpt lat="43.0937600" lon="-0.6845700">
        <ele>350.1</ele>
        <time>2020-07-26T10:58:42Z</time>
      </trkpt>
      <trkpt lat="43.0939150" lon="-0.6844250">
        <ele>349.4</ele>
        <time>2020-07-26T10:58:44Z</time>
      </trkpt>
      <trkpt lat="43.0942220" lon="-0.6843210">
        <ele>347.6</ele>
        <time>2020-07-26T10:58:47Z</time>
      </trkpt>
      <trkpt lat="43.0943270" lon="-0.6842860">
        <ele>346.9</ele>
        <time>2020-07-26T10:58:48Z</time>
      </trkpt>
      <trkpt lat="43.0944310" lon="-0.6842380">
        <ele>346.2</ele>
        <time>2020-07-26T10:58:49Z</time>
      </trkpt>
      <trkpt lat="43.0946270" lon="-0.6840940">
        <ele>345.1</ele>
        <time>2020-07-26T10:58:51Z</time>
      </trkpt>
      <trkpt lat="43.0948450" lon="-0.6837800">
        <ele>345.2</ele>
        <time>2020-07-26T10:58:54Z</time>
      </trkpt>
      <trkpt lat="43.0949600" lon="-0.6835710">
        <ele>346.3</ele>
        <time>2020-07-26T10:58:56Z</time>
      </trkpt>
      <trkpt lat="43.0950210" lon="-0.6833640">
        <ele>347.6</ele>
        <time>2020-07-26T10:58:58Z</time>
      </trkpt>
      <trkpt lat="43.0950270" lon="-0.6831710">
        <ele>349.0</ele>
        <time>2020-07-26T10:59:00Z</time>
      </trkpt>
      <trkpt lat="43.0952020" lon="-0.6828310">
        <ele>352.0</ele>
        <time>2020-07-26T10:59:05Z</time>
      </trkpt>
      <trkpt lat="43.0952960" lon="-0.6825090">
        <ele>353.1</ele>
        <time>2020-07-26T10:59:10Z</time>
      </trkpt>
      <trkpt lat="43.0953050" lon="-0.6824400">
        <ele>353.2</ele>
        <time>2020-07-26T10:59:11Z</time>
      </trkpt>
      <trkpt lat="43.0953210" lon="-0.6822960">
        <ele>353.3</ele>
        <time>2020-07-26T10:59:13Z</time>
      </trkpt>
      <trkpt lat="43.0953610" lon="-0.6818880">
        <ele>353.0</ele>
        <time>2020-07-26T10:59:18Z</time>
      </trkpt>
      <trkpt lat="43.0954380" lon="-0.6811210">
        <ele>351.8</ele>
        <time>2020-07-26T10:59:26Z</time>
      </trkpt>
      <trkpt lat="43.0954880" lon="-0.6803190">
        <ele>349.8</ele>
        <time>2020-07-26T10:59:33Z</time>
      </trkpt>
      <trkpt lat="43.0954940" lon="-0.6802000">
        <ele>349.5</ele>
        <time>2020-07-26T10:59:34Z</time>
      </trkpt>
      <trkpt lat="43.0955200" lon="-0.6797390">
        <ele>348.1</ele>
        <time>2020-07-26T10:59:38Z</time>
      </trkpt>
      <trkpt lat="43.0955250" lon="-0.6796210">
        <ele>347.8</ele>
        <time>2020-07-26T10:59:39Z</time>
      </trkpt>
      <trkpt lat="43.0955390" lon="-0.6793870">
        <ele>347.1</ele>
        <time>2020-07-26T10:59:41Z</time>
      </trkpt>
      <trkpt lat="43.0955610" lon="-0.6787890">
        <ele>344.9</ele>
        <time>2020-07-26T10:59:46Z</time>
      </trkpt>
      <trkpt lat="43.0955650" lon="-0.6786620">
        <ele>344.4</ele>
        <time>2020-07-26T10:59:47Z</time>
      </trkpt>
      <trkpt lat="43.0955960" lon="-0.6779810">
        <ele>342.0</ele>
        <time>2020-07-26T10:59:52Z</time>
      </trkpt>
      <trkpt lat="43.0956030" lon="-0.6778380">
        <ele>341.4</ele>
        <time>2020-07-26T10:59:53Z</time>
      </trkpt>
      <trkpt lat="43.0956260" lon="-0.6772670">
        <ele>339.0</ele>
        <time>2020-07-26T10:59:57Z</time>
      </trkpt>
      <trkpt lat="43.0956380" lon="-0.6769880">
        <ele>337.9</ele>
        <time>2020-07-26T10:59:59Z</time>
      </trkpt>
      <trkpt lat="43.0956500" lon="-0.6767020">
        <ele>337.0</ele>
        <time>2020-07-26T11:00:01Z</time>
      </trkpt>
      <trkpt lat="43.0956540" lon="-0.6765550">
        <ele>336.3</ele>
        <time>2020-07-26T11:00:02Z</time>
      </trkpt>
      <trkpt lat="43.0956590" lon="-0.6764070">
        <ele>335.7</ele>
        <time>2020-07-26T11:00:03Z</time>
      </trkpt>
      <trkpt lat="43.0956650" lon="-0.6762560">
        <ele>335.3</ele>
        <time>2020-07-26T11:00:04Z</time>
      </trkpt>
      <trkpt lat="43.0956710" lon="-0.6761050">
        <ele>335.0</ele>
        <time>2020-07-26T11:00:05Z</time>
      </trkpt>
      <trkpt lat="43.0956830" lon="-0.6758050">
        <ele>334.7</ele>
        <time>2020-07-26T11:00:07Z</time>
      </trkpt>
      <trkpt lat="43.0956990" lon="-0.6753720">
        <ele>334.6</ele>
        <time>2020-07-26T11:00:10Z</time>
      </trkpt>
      <trkpt lat="43.0957030" lon="-0.6752360">
        <ele>334.7</ele>
        <time>2020-07-26T11:00:11Z</time>
      </trkpt>
      <trkpt lat="43.0957210" lon="-0.6745950">
        <ele>334.8</ele>
        <time>2020-07-26T11:00:16Z</time>
      </trkpt>
      <trkpt lat="43.0957220" lon="-0.6744720">
        <ele>334.8</ele>
        <time>2020-07-26T11:00:17Z</time>
      </trkpt>
      <trkpt lat="43.0957360" lon="-0.6736240">
        <ele>334.5</ele>
        <time>2020-07-26T11:00:24Z</time>
      </trkpt>
      <trkpt lat="43.0957740" lon="-0.6729250">
        <ele>334.6</ele>
        <time>2020-07-26T11:00:30Z</time>
      </trkpt>
      <trkpt lat="43.0958060" lon="-0.6725890">
        <ele>334.8</ele>
        <time>2020-07-26T11:00:33Z</time>
      </trkpt>
      <trkpt lat="43.0958330" lon="-0.6724870">
        <ele>334.9</ele>
        <time>2020-07-26T11:00:34Z</time>
      </trkpt>
      <trkpt lat="43.0960050" lon="-0.6721500">
        <ele>336.0</ele>
        <time>2020-07-26T11:00:38Z</time>
      </trkpt>
      <trkpt lat="43.0960590" lon="-0.6720860">
        <ele>336.3</ele>
        <time>2020-07-26T11:00:39Z</time>
      </trkpt>
      <trkpt lat="43.0962730" lon="-0.6719020">
        <ele>337.8</ele>
        <time>2020-07-26T11:00:43Z</time>
      </trkpt>
      <trkpt lat="43.0964590" lon="-0.6717560">
        <ele>339.2</ele>
        <time>2020-07-26T11:00:47Z</time>
      </trkpt>
      <trkpt lat="43.0965400" lon="-0.6716740">
        <ele>339.8</ele>
        <time>2020-07-26T11:00:49Z</time>
      </trkpt>
      <trkpt lat="43.0966080" lon="-0.6715740">
        <ele>340.5</ele>
        <time>2020-07-26T11:00:51Z</time>
      </trkpt>
      <trkpt lat="43.0966590" lon="-0.6714590">
        <ele>341.2</ele>
        <time>2020-07-26T11:00:53Z</time>
      </trkpt>
      <trkpt lat="43.0966800" lon="-0.6714010">
        <ele>341.5</ele>
        <time>2020-07-26T11:00:54Z</time>
      </trkpt>
      <trkpt lat="43.0967120" lon="-0.6712860">
        <ele>342.1</ele>
        <time>2020-07-26T11:00:56Z</time>
      </trkpt>
      <trkpt lat="43.0967290" lon="-0.6711760">
        <ele>342.6</ele>
        <time>2020-07-26T11:00:58Z</time>
      </trkpt>
      <trkpt lat="43.0967330" lon="-0.6711190">
        <ele>342.8</ele>
        <time>2020-07-26T11:00:59Z</time>
      </trkpt>
      <trkpt lat="43.0967330" lon="-0.6710600">
        <ele>343.0</ele>
        <time>2020-07-26T11:01:00Z</time>
      </trkpt>
      <trkpt lat="43.0967380" lon="-0.6708910">
        <ele>343.7</ele>
        <time>2020-07-26T11:01:03Z</time>
      </trkpt>
      <trkpt lat="43.0967360" lon="-0.6708340">
        <ele>343.8</ele>
        <time>2020-07-26T11:01:04Z</time>
      </trkpt>
      <trkpt lat="43.0967230" lon="-0.6707250">
        <ele>344.2</ele>
        <time>2020-07-26T11:01:06Z</time>
      </trkpt>
      <trkpt lat="43.0967120" lon="-0.6706740">
        <ele>344.3</ele>
        <time>2020-07-26T11:01:07Z</time>
      </trkpt>
      <trkpt lat="43.0967070" lon="-0.6706220">
        <ele>344.4</ele>
        <time>2020-07-26T11:01:08Z</time>
      </trkpt>
      <trkpt lat="43.0967110" lon="-0.6702970">
        <ele>344.6</ele>
        <time>2020-07-26T11:01:13Z</time>
      </trkpt>
      <trkpt lat="43.0967200" lon="-0.6702190">
        <ele>344.5</ele>
        <time>2020-07-26T11:01:14Z</time>
      </trkpt>
      <trkpt lat="43.0967840" lon="-0.6699800">
        <ele>344.1</ele>
        <time>2020-07-26T11:01:17Z</time>
      </trkpt>
      <trkpt lat="43.0969630" lon="-0.6694570">
        <ele>343.2</ele>
        <time>2020-07-26T11:01:23Z</time>
      </trkpt>
      <trkpt lat="43.0971790" lon="-0.6688930">
        <ele>342.1</ele>
        <time>2020-07-26T11:01:29Z</time>
      </trkpt>
      <trkpt lat="43.0972600" lon="-0.6687000">
        <ele>341.8</ele>
        <time>2020-07-26T11:01:31Z</time>
      </trkpt>
      <trkpt lat="43.0974880" lon="-0.6682310">
        <ele>340.9</ele>
        <time>2020-07-26T11:01:36Z</time>
      </trkpt>
      <trkpt lat="43.0975380" lon="-0.6681410">
        <ele>340.7</ele>
        <time>2020-07-26T11:01:37Z</time>
      </trkpt>
      <trkpt lat="43.0975870" lon="-0.6680520">
        <ele>340.5</ele>
        <time>2020-07-26T11:01:38Z</time>
      </trkpt>
      <trkpt lat="43.0979580" lon="-0.6674170">
        <ele>339.4</ele>
        <time>2020-07-26T11:01:45Z</time>
      </trkpt>
      <trkpt lat="43.0983190" lon="-0.6668860">
        <ele>338.5</ele>
        <time>2020-07-26T11:01:51Z</time>
      </trkpt>
      <trkpt lat="43.0986130" lon="-0.6664590">
        <ele>338.1</ele>
        <time>2020-07-26T11:01:56Z</time>
      </trkpt>
      <trkpt lat="43.0988470" lon="-0.6661180">
        <ele>337.8</ele>
        <time>2020-07-26T11:02:00Z</time>
      </trkpt>
      <trkpt lat="43.0989650" lon="-0.6659480">
        <ele>337.6</ele>
        <time>2020-07-26T11:02:02Z</time>
      </trkpt>
      <trkpt lat="43.0993160" lon="-0.6654240">
        <ele>336.7</ele>
        <time>2020-07-26T11:02:08Z</time>
      </trkpt>
      <trkpt lat="43.0994360" lon="-0.6652500">
        <ele>336.5</ele>
        <time>2020-07-26T11:02:10Z</time>
      </trkpt>
      <trkpt lat="43.0997600" lon="-0.6646890">
        <ele>335.6</ele>
        <time>2020-07-26T11:02:16Z</time>
      </trkpt>
      <trkpt lat="43.1000600" lon="-0.6640930">
        <ele>334.6</ele>
        <time>2020-07-26T11:02:22Z</time>
      </trkpt>
      <trkpt lat="43.1002120" lon="-0.6638020">
        <ele>334.2</ele>
        <time>2020-07-26T11:02:25Z</time>
      </trkpt>
      <trkpt lat="43.1003050" lon="-0.6636080">
        <ele>334.0</ele>
        <time>2020-07-26T11:02:27Z</time>
      </trkpt>
      <trkpt lat="43.1005660" lon="-0.6630520">
        <ele>333.5</ele>
        <time>2020-07-26T11:02:33Z</time>
      </trkpt>
      <trkpt lat="43.1006520" lon="-0.6628710">
        <ele>333.3</ele>
        <time>2020-07-26T11:02:35Z</time>
      </trkpt>
      <trkpt lat="43.1007810" lon="-0.6625940">
        <ele>333.0</ele>
        <time>2020-07-26T11:02:38Z</time>
      </trkpt>
      <trkpt lat="43.1008340" lon="-0.6625080">
        <ele>332.9</ele>
        <time>2020-07-26T11:02:39Z</time>
      </trkpt>
      <trkpt lat="43.1010060" lon="-0.6622760">
        <ele>332.5</ele>
        <time>2020-07-26T11:02:42Z</time>
      </trkpt>
      <trkpt lat="43.1010490" lon="-0.6621840">
        <ele>332.3</ele>
        <time>2020-07-26T11:02:43Z</time>
      </trkpt>
      <trkpt lat="43.1011110" lon="-0.6618550">
        <ele>331.5</ele>
        <time>2020-07-26T11:02:46Z</time>
      </trkpt>
      <trkpt lat="43.1011200" lon="-0.6617410">
        <ele>331.3</ele>
        <time>2020-07-26T11:02:47Z</time>
      </trkpt>
      <trkpt lat="43.1011260" lon="-0.6616260">
        <ele>331.1</ele>
        <time>2020-07-26T11:02:48Z</time>
      </trkpt>
      <trkpt lat="43.1011210" lon="-0.6613950">
        <ele>330.7</ele>
        <time>2020-07-26T11:02:50Z</time>
      </trkpt>
      <trkpt lat="43.1011020" lon="-0.6612820">
        <ele>330.6</ele>
        <time>2020-07-26T11:02:51Z</time>
      </trkpt>
      <trkpt lat="43.1010020" lon="-0.6608280">
        <ele>329.7</ele>
        <time>2020-07-26T11:02:55Z</time>
      </trkpt>
      <trkpt lat="43.1009330" lon="-0.6606040">
        <ele>328.6</ele>
        <time>2020-07-26T11:02:57Z</time>
      </trkpt>
      <trkpt lat="43.1009010" lon="-0.6604890">
        <ele>328.1</ele>
        <time>2020-07-26T11:02:58Z</time>
      </trkpt>
      <trkpt lat="43.1008830" lon="-0.6603680">
        <ele>327.6</ele>
        <time>2020-07-26T11:02:59Z</time>
      </trkpt>
      <trkpt lat="43.1009140" lon="-0.6601250">
        <ele>326.5</ele>
        <time>2020-07-26T11:03:01Z</time>
      </trkpt>
      <trkpt lat="43.1010490" lon="-0.6599370">
        <ele>325.3</ele>
        <time>2020-07-26T11:03:03Z</time>
      </trkpt>
      <trkpt lat="43.1012350" lon="-0.6598230">
        <ele>324.1</ele>
        <time>2020-07-26T11:03:05Z</time>
      </trkpt>
      <trkpt lat="43.1013380" lon="-0.6597870">
        <ele>323.4</ele>
        <time>2020-07-26T11:03:06Z</time>
      </trkpt>
      <trkpt lat="43.1014440" lon="-0.6597610">
        <ele>322.7</ele>
        <time>2020-07-26T11:03:07Z</time>
      </trkpt>
      <trkpt lat="43.1015530" lon="-0.6597420">
        <ele>322.0</ele>
        <time>2020-07-26T11:03:08Z</time>
      </trkpt>
      <trkpt lat="43.1018870" lon="-0.6596950">
        <ele>319.8</ele>
        <time>2020-07-26T11:03:11Z</time>
      </trkpt>
      <trkpt lat="43.1021170" lon="-0.6596550">
        <ele>318.0</ele>
        <time>2020-07-26T11:03:13Z</time>
      </trkpt>
      <trkpt lat="43.1022250" lon="-0.6596090">
        <ele>316.7</ele>
        <time>2020-07-26T11:03:14Z</time>
      </trkpt>
      <trkpt lat="43.1024350" lon="-0.6594420">
        <ele>314.3</ele>
        <time>2020-07-26T11:03:16Z</time>
      </trkpt>
      <trkpt lat="43.1025360" lon="-0.6593400">
        <ele>313.5</ele>
        <time>2020-07-26T11:03:17Z</time>
      </trkpt>
      <trkpt lat="43.1027490" lon="-0.6591390">
        <ele>312.4</ele>
        <time>2020-07-26T11:03:19Z</time>
      </trkpt>
      <trkpt lat="43.1028570" lon="-0.6590350">
        <ele>312.3</ele>
        <time>2020-07-26T11:03:20Z</time>
      </trkpt>
      <trkpt lat="43.1029520" lon="-0.6589180">
        <ele>312.1</ele>
        <time>2020-07-26T11:03:21Z</time>
      </trkpt>
      <trkpt lat="43.1030250" lon="-0.6587830">
        <ele>311.6</ele>
        <time>2020-07-26T11:03:22Z</time>
      </trkpt>
      <trkpt lat="43.1031230" lon="-0.6584800">
        <ele>310.8</ele>
        <time>2020-07-26T11:03:24Z</time>
      </trkpt>
      <trkpt lat="43.1031560" lon="-0.6583300">
        <ele>310.7</ele>
        <time>2020-07-26T11:03:25Z</time>
      </trkpt>
      <trkpt lat="43.1031850" lon="-0.6581820">
        <ele>310.5</ele>
        <time>2020-07-26T11:03:26Z</time>
      </trkpt>
      <trkpt lat="43.1032110" lon="-0.6580350">
        <ele>310.3</ele>
        <time>2020-07-26T11:03:27Z</time>
      </trkpt>
      <trkpt lat="43.1032600" lon="-0.6577450">
        <ele>309.9</ele>
        <time>2020-07-26T11:03:29Z</time>
      </trkpt>
      <trkpt lat="43.1032890" lon="-0.6576020">
        <ele>309.8</ele>
        <time>2020-07-26T11:03:30Z</time>
      </trkpt>
      <trkpt lat="43.1034350" lon="-0.6569350">
        <ele>309.1</ele>
        <time>2020-07-26T11:03:35Z</time>
      </trkpt>
      <trkpt lat="43.1036390" lon="-0.6561700">
        <ele>307.7</ele>
        <time>2020-07-26T11:03:41Z</time>
      </trkpt>
      <trkpt lat="43.1036830" lon="-0.6560470">
        <ele>307.4</ele>
        <time>2020-07-26T11:03:42Z</time>
      </trkpt>
      <trkpt lat="43.1037290" lon="-0.6559240">
        <ele>307.0</ele>
        <time>2020-07-26T11:03:43Z</time>
      </trkpt>
      <trkpt lat="43.1038240" lon="-0.6556770">
        <ele>306.2</ele>
        <time>2020-07-26T11:03:45Z</time>
      </trkpt>
      <trkpt lat="43.1040180" lon="-0.6551760">
        <ele>304.6</ele>
        <time>2020-07-26T11:03:49Z</time>
      </trkpt>
      <trkpt lat="43.1041680" lon="-0.6547960">
        <ele>303.3</ele>
        <time>2020-07-26T11:03:52Z</time>
      </trkpt>
      <trkpt lat="43.1043440" lon="-0.6544330">
        <ele>302.5</ele>
        <time>2020-07-26T11:03:55Z</time>
      </trkpt>
      <trkpt lat="43.1044820" lon="-0.6542200">
        <ele>302.2</ele>
        <time>2020-07-26T11:03:57Z</time>
      </trkpt>
      <trkpt lat="43.1045560" lon="-0.6541200">
        <ele>302.0</ele>
        <time>2020-07-26T11:03:58Z</time>
      </trkpt>
      <trkpt lat="43.1047250" lon="-0.6539450">
        <ele>301.6</ele>
        <time>2020-07-26T11:04:00Z</time>
      </trkpt>
      <trkpt lat="43.1048070" lon="-0.6538610">
        <ele>301.3</ele>
        <time>2020-07-26T11:04:01Z</time>
      </trkpt>
      <trkpt lat="43.1051870" lon="-0.6534320">
        <ele>300.4</ele>
        <time>2020-07-26T11:04:06Z</time>
      </trkpt>
      <trkpt lat="43.1055540" lon="-0.6530090">
        <ele>299.8</ele>
        <time>2020-07-26T11:04:11Z</time>
      </trkpt>
      <trkpt lat="43.1056520" lon="-0.6527940">
        <ele>299.6</ele>
        <time>2020-07-26T11:04:13Z</time>
      </trkpt>
      <trkpt lat="43.1056930" lon="-0.6524300">
        <ele>299.4</ele>
        <time>2020-07-26T11:04:16Z</time>
      </trkpt>
      <trkpt lat="43.1056830" lon="-0.6523120">
        <ele>299.4</ele>
        <time>2020-07-26T11:04:17Z</time>
      </trkpt>
      <trkpt lat="43.1056670" lon="-0.6521920">
        <ele>299.3</ele>
        <time>2020-07-26T11:04:18Z</time>
      </trkpt>
      <trkpt lat="43.1056430" lon="-0.6519570">
        <ele>299.2</ele>
        <time>2020-07-26T11:04:20Z</time>
      </trkpt>
      <trkpt lat="43.1056590" lon="-0.6513510">
        <ele>299.1</ele>
        <time>2020-07-26T11:04:25Z</time>
      </trkpt>
      <trkpt lat="43.1057250" lon="-0.6505220">
        <ele>299.0</ele>
        <time>2020-07-26T11:04:32Z</time>
      </trkpt>
      <trkpt lat="43.1057710" lon="-0.6500600">
        <ele>299.0</ele>
        <time>2020-07-26T11:04:36Z</time>
      </trkpt>
      <trkpt lat="43.1057890" lon="-0.6493220">
        <ele>298.9</ele>
        <time>2020-07-26T11:04:42Z</time>
      </trkpt>
      <trkpt lat="43.1058350" lon="-0.6487310">
        <ele>298.9</ele>
        <time>2020-07-26T11:04:47Z</time>
      </trkpt>
      <trkpt lat="43.1059120" lon="-0.6481500">
        <ele>298.9</ele>
        <time>2020-07-26T11:04:52Z</time>
      </trkpt>
      <trkpt lat="43.1059460" lon="-0.6475040">
        <ele>298.8</ele>
        <time>2020-07-26T11:04:58Z</time>
      </trkpt>
      <trkpt lat="43.1060710" lon="-0.6470110">
        <ele>297.5</ele>
        <time>2020-07-26T11:05:03Z</time>
      </trkpt>
      <trkpt lat="43.1061050" lon="-0.6469030">
        <ele>297.2</ele>
        <time>2020-07-26T11:05:04Z</time>
      </trkpt>
      <trkpt lat="43.1063100" lon="-0.6461240">
        <ele>295.7</ele>
        <time>2020-07-26T11:05:11Z</time>
      </trkpt>
      <trkpt lat="43.1063350" lon="-0.6458900">
        <ele>295.2</ele>
        <time>2020-07-26T11:05:13Z</time>
      </trkpt>
      <trkpt lat="43.1063400" lon="-0.6455360">
        <ele>294.6</ele>
        <time>2020-07-26T11:05:16Z</time>
      </trkpt>
      <trkpt lat="43.1063360" lon="-0.6454140">
        <ele>294.4</ele>
        <time>2020-07-26T11:05:17Z</time>
      </trkpt>
      <trkpt lat="43.1062840" lon="-0.6448140">
        <ele>294.2</ele>
        <time>2020-07-26T11:05:22Z</time>
      </trkpt>
      <trkpt lat="43.1062730" lon="-0.6444760">
        <ele>294.6</ele>
        <time>2020-07-26T11:05:25Z</time>
      </trkpt>
      <trkpt lat="43.1063020" lon="-0.6442630">
        <ele>295.2</ele>
        <time>2020-07-26T11:05:27Z</time>
      </trkpt>
      <trkpt lat="43.1064090" lon="-0.6438360">
        <ele>297.0</ele>
        <time>2020-07-26T11:05:32Z</time>
      </trkpt>
      <trkpt lat="43.1065270" lon="-0.6433330">
        <ele>298.6</ele>
        <time>2020-07-26T11:05:39Z</time>
      </trkpt>
      <trkpt lat="43.1065450" lon="-0.6432570">
        <ele>298.8</ele>
        <time>2020-07-26T11:05:40Z</time>
      </trkpt>
      <trkpt lat="43.1065630" lon="-0.6431790">
        <ele>299.0</ele>
        <time>2020-07-26T11:05:41Z</time>
      </trkpt>
      <trkpt lat="43.1066180" lon="-0.6429450">
        <ele>299.3</ele>
        <time>2020-07-26T11:05:44Z</time>
      </trkpt>
      <trkpt lat="43.1066620" lon="-0.6427940">
        <ele>299.5</ele>
        <time>2020-07-26T11:05:46Z</time>
      </trkpt>
      <trkpt lat="43.1067630" lon="-0.6424920">
        <ele>299.7</ele>
        <time>2020-07-26T11:05:50Z</time>
      </trkpt>
      <trkpt lat="43.1067930" lon="-0.6424200">
        <ele>299.7</ele>
        <time>2020-07-26T11:05:51Z</time>
      </trkpt>
      <trkpt lat="43.1068630" lon="-0.6422670">
        <ele>299.5</ele>
        <time>2020-07-26T11:05:53Z</time>
      </trkpt>
      <trkpt lat="43.1071410" lon="-0.6416720">
        <ele>298.0</ele>
        <time>2020-07-26T11:06:00Z</time>
      </trkpt>
      <trkpt lat="43.1073250" lon="-0.6410660">
        <ele>296.1</ele>
        <time>2020-07-26T11:06:06Z</time>
      </trkpt>
      <trkpt lat="43.1074480" lon="-0.6406100">
        <ele>294.6</ele>
        <time>2020-07-26T11:06:10Z</time>
      </trkpt>
      <trkpt lat="43.1075000" lon="-0.6403690">
        <ele>293.9</ele>
        <time>2020-07-26T11:06:12Z</time>
      </trkpt>
      <trkpt lat="43.1075530" lon="-0.6399940">
        <ele>292.8</ele>
        <time>2020-07-26T11:06:15Z</time>
      </trkpt>
      <trkpt lat="43.1075990" lon="-0.6395930">
        <ele>291.4</ele>
        <time>2020-07-26T11:06:18Z</time>
      </trkpt>
      <trkpt lat="43.1076210" lon="-0.6394530">
        <ele>290.7</ele>
        <time>2020-07-26T11:06:19Z</time>
      </trkpt>
      <trkpt lat="43.1077590" lon="-0.6389410">
        <ele>289.2</ele>
        <time>2020-07-26T11:06:23Z</time>
      </trkpt>
      <trkpt lat="43.1078000" lon="-0.6388200">
        <ele>289.0</ele>
        <time>2020-07-26T11:06:24Z</time>
      </trkpt>
      <trkpt lat="43.1080090" lon="-0.6382130">
        <ele>288.1</ele>
        <time>2020-07-26T11:06:29Z</time>
      </trkpt>
      <trkpt lat="43.1081350" lon="-0.6378720">
        <ele>287.8</ele>
        <time>2020-07-26T11:06:32Z</time>
      </trkpt>
      <trkpt lat="43.1082710" lon="-0.6375500">
        <ele>287.5</ele>
        <time>2020-07-26T11:06:35Z</time>
      </trkpt>
      <trkpt lat="43.1085940" lon="-0.6369710">
        <ele>287.3</ele>
        <time>2020-07-26T11:06:41Z</time>
      </trkpt>
      <trkpt lat="43.1086510" lon="-0.6368830">
        <ele>287.4</ele>
        <time>2020-07-26T11:06:42Z</time>
      </trkpt>
      <trkpt lat="43.1089900" lon="-0.6364300">
        <ele>289.1</ele>
        <time>2020-07-26T11:06:48Z</time>
      </trkpt>
      <trkpt lat="43.1092120" lon="-0.6361470">
        <ele>291.2</ele>
        <time>2020-07-26T11:06:53Z</time>
      </trkpt>
      <trkpt lat="43.1094080" lon="-0.6358120">
        <ele>292.1</ele>
        <time>2020-07-26T11:06:59Z</time>
      </trkpt>
      <trkpt lat="43.1094390" lon="-0.6357450">
        <ele>292.2</ele>
        <time>2020-07-26T11:07:00Z</time>
      </trkpt>
      <trkpt lat="43.1094680" lon="-0.6356710">
        <ele>292.1</ele>
        <time>2020-07-26T11:07:01Z</time>
      </trkpt>
      <trkpt lat="43.1095440" lon="-0.6354290">
        <ele>292.1</ele>
        <time>2020-07-26T11:07:04Z</time>
      </trkpt>
      <trkpt lat="43.1095850" lon="-0.6352550">
        <ele>292.2</ele>
        <time>2020-07-26T11:07:06Z</time>
      </trkpt>
      <trkpt lat="43.1096620" lon="-0.6347200">
        <ele>292.3</ele>
        <time>2020-07-26T11:07:12Z</time>
      </trkpt>
      <trkpt lat="43.1097050" lon="-0.6341580">
        <ele>292.5</ele>
        <time>2020-07-26T11:07:18Z</time>
      </trkpt>
      <trkpt lat="43.1097000" lon="-0.6334660">
        <ele>291.4</ele>
        <time>2020-07-26T11:07:25Z</time>
      </trkpt>
      <trkpt lat="43.1096610" lon="-0.6329250">
        <ele>290.0</ele>
        <time>2020-07-26T11:07:30Z</time>
      </trkpt>
      <trkpt lat="43.1096720" lon="-0.6328100">
        <ele>289.6</ele>
        <time>2020-07-26T11:07:31Z</time>
      </trkpt>
      <trkpt lat="43.1097730" lon="-0.6324990">
        <ele>288.4</ele>
        <time>2020-07-26T11:07:34Z</time>
      </trkpt>
      <trkpt lat="43.1098790" lon="-0.6323310">
        <ele>287.6</ele>
        <time>2020-07-26T11:07:36Z</time>
      </trkpt>
      <trkpt lat="43.1100220" lon="-0.6321940">
        <ele>286.9</ele>
        <time>2020-07-26T11:07:38Z</time>
      </trkpt>
      <trkpt lat="43.1101900" lon="-0.6320800">
        <ele>286.3</ele>
        <time>2020-07-26T11:07:40Z</time>
      </trkpt>
      <trkpt lat="43.1104470" lon="-0.6319310">
        <ele>285.8</ele>
        <time>2020-07-26T11:07:43Z</time>
      </trkpt>
      <trkpt lat="43.1106150" lon="-0.6318350">
        <ele>285.7</ele>
        <time>2020-07-26T11:07:45Z</time>
      </trkpt>
      <trkpt lat="43.1108630" lon="-0.6317000">
        <ele>285.4</ele>
        <time>2020-07-26T11:07:48Z</time>
      </trkpt>
      <trkpt lat="43.1110110" lon="-0.6316000">
        <ele>285.3</ele>
        <time>2020-07-26T11:07:50Z</time>
      </trkpt>
      <trkpt lat="43.1110750" lon="-0.6315390">
        <ele>285.3</ele>
        <time>2020-07-26T11:07:51Z</time>
      </trkpt>
      <trkpt lat="43.1111800" lon="-0.6313900">
        <ele>285.5</ele>
        <time>2020-07-26T11:07:53Z</time>
      </trkpt>
      <trkpt lat="43.1112500" lon="-0.6312270">
        <ele>285.6</ele>
        <time>2020-07-26T11:07:55Z</time>
      </trkpt>
      <trkpt lat="43.1113030" lon="-0.6310720">
        <ele>285.8</ele>
        <time>2020-07-26T11:07:57Z</time>
      </trkpt>
      <trkpt lat="43.1113250" lon="-0.6307620">
        <ele>286.1</ele>
        <time>2020-07-26T11:08:01Z</time>
      </trkpt>
      <trkpt lat="43.1113270" lon="-0.6306750">
        <ele>286.1</ele>
        <time>2020-07-26T11:08:02Z</time>
      </trkpt>
      <trkpt lat="43.1113470" lon="-0.6302720">
        <ele>285.8</ele>
        <time>2020-07-26T11:08:06Z</time>
      </trkpt>
      <trkpt lat="43.1113450" lon="-0.6301610">
        <ele>285.6</ele>
        <time>2020-07-26T11:08:07Z</time>
      </trkpt>
      <trkpt lat="43.1112690" lon="-0.6297350">
        <ele>284.4</ele>
        <time>2020-07-26T11:08:11Z</time>
      </trkpt>
      <trkpt lat="43.1110620" lon="-0.6291350">
        <ele>283.2</ele>
        <time>2020-07-26T11:08:17Z</time>
      </trkpt>
      <trkpt lat="43.1109650" lon="-0.6289630">
        <ele>283.0</ele>
        <time>2020-07-26T11:08:19Z</time>
      </trkpt>
      <trkpt lat="43.1107550" lon="-0.6286470">
        <ele>283.3</ele>
        <time>2020-07-26T11:08:23Z</time>
      </trkpt>
      <trkpt lat="43.1104780" lon="-0.6282360">
        <ele>284.6</ele>
        <time>2020-07-26T11:08:29Z</time>
      </trkpt>
      <trkpt lat="43.1102980" lon="-0.6280290">
        <ele>285.7</ele>
        <time>2020-07-26T11:08:34Z</time>
      </trkpt>
      <trkpt lat="43.1101920" lon="-0.6279010">
        <ele>286.4</ele>
        <time>2020-07-26T11:08:37Z</time>
      </trkpt>
      <trkpt lat="43.1100920" lon="-0.6277770">
        <ele>286.8</ele>
        <time>2020-07-26T11:08:40Z</time>
      </trkpt>
      <trkpt lat="43.1099570" lon="-0.6275610">
        <ele>287.1</ele>
        <time>2020-07-26T11:08:44Z</time>
      </trkpt>
      <trkpt lat="43.1099280" lon="-0.6274900">
        <ele>287.1</ele>
        <time>2020-07-26T11:08:45Z</time>
      </trkpt>
      <trkpt lat="43.1098310" lon="-0.6271120">
        <ele>287.2</ele>
        <time>2020-07-26T11:08:50Z</time>
      </trkpt>
      <trkpt lat="43.1098150" lon="-0.6265150">
        <ele>286.9</ele>
        <time>2020-07-26T11:08:57Z</time>
      </trkpt>
      <trkpt lat="43.1098280" lon="-0.6259320">
        <ele>285.3</ele>
        <time>2020-07-26T11:09:03Z</time>
      </trkpt>
      <trkpt lat="43.1098990" lon="-0.6253950">
        <ele>283.5</ele>
        <time>2020-07-26T11:09:08Z</time>
      </trkpt>
      <trkpt lat="43.1099160" lon="-0.6252840">
        <ele>283.2</ele>
        <time>2020-07-26T11:09:09Z</time>
      </trkpt>
      <trkpt lat="43.1098920" lon="-0.6250800">
        <ele>283.3</ele>
        <time>2020-07-26T11:09:11Z</time>
      </trkpt>
      <trkpt lat="43.1098430" lon="-0.6250190">
        <ele>282.9</ele>
        <time>2020-07-26T11:09:12Z</time>
      </trkpt>
      <trkpt lat="43.1097770" lon="-0.6249930">
        <ele>282.4</ele>
        <time>2020-07-26T11:09:13Z</time>
      </trkpt>
      <trkpt lat="43.1095630" lon="-0.6249960">
        <ele>282.1</ele>
        <time>2020-07-26T11:09:16Z</time>
      </trkpt>
      <trkpt lat="43.1092730" lon="-0.6249980">
        <ele>282.3</ele>
        <time>2020-07-26T11:09:20Z</time>
      </trkpt>
      <trkpt lat="43.1088380" lon="-0.6250040">
        <ele>282.6</ele>
        <time>2020-07-26T11:09:26Z</time>
      </trkpt>
      <trkpt lat="43.1086900" lon="-0.6250090">
        <ele>282.7</ele>
        <time>2020-07-26T11:09:28Z</time>
      </trkpt>
      <trkpt lat="43.1080960" lon="-0.6250240">
        <ele>283.1</ele>
        <time>2020-07-26T11:09:36Z</time>
      </trkpt>
      <trkpt lat="43.1075210" lon="-0.6250280">
        <ele>283.5</ele>
        <time>2020-07-26T11:09:44Z</time>
      </trkpt>
      <trkpt lat="43.1074510" lon="-0.6250270">
        <ele>283.5</ele>
        <time>2020-07-26T11:09:45Z</time>
      </trkpt>
      <trkpt lat="43.1069070" lon="-0.6249590">
        <ele>284.2</ele>
        <time>2020-07-26T11:09:53Z</time>
      </trkpt>
      <trkpt lat="43.1067800" lon="-0.6249080">
        <ele>284.3</ele>
        <time>2020-07-26T11:09:55Z</time>
      </trkpt>
      <trkpt lat="43.1066000" lon="-0.6247920">
        <ele>284.5</ele>
        <time>2020-07-26T11:09:58Z</time>
      </trkpt>
      <trkpt lat="43.1063230" lon="-0.6245080">
        <ele>284.5</ele>
        <time>2020-07-26T11:10:03Z</time>
      </trkpt>
      <trkpt lat="43.1059760" lon="-0.6240240">
        <ele>284.3</ele>
        <time>2020-07-26T11:10:10Z</time>
      </trkpt>
      <trkpt lat="43.1056230" lon="-0.6235280">
        <ele>284.0</ele>
        <time>2020-07-26T11:10:17Z</time>
      </trkpt>
      <trkpt lat="43.1051550" lon="-0.6229930">
        <ele>283.4</ele>
        <time>2020-07-26T11:10:25Z</time>
      </trkpt>
      <trkpt lat="43.1046650" lon="-0.6225380">
        <ele>283.3</ele>
        <time>2020-07-26T11:10:33Z</time>
      </trkpt>
      <trkpt lat="43.1042160" lon="-0.6221220">
        <ele>284.3</ele>
        <time>2020-07-26T11:10:41Z</time>
      </trkpt>
      <trkpt lat="43.1038920" lon="-0.6217960">
        <ele>286.0</ele>
        <time>2020-07-26T11:10:48Z</time>
      </trkpt>
      <trkpt lat="43.1037710" lon="-0.6216840">
        <ele>287.0</ele>
        <time>2020-07-26T11:10:51Z</time>
      </trkpt>
      <trkpt lat="43.1036530" lon="-0.6215810">
        <ele>288.0</ele>
        <time>2020-07-26T11:10:54Z</time>
      </trkpt>
      <trkpt lat="43.1035090" lon="-0.6214680">
        <ele>289.1</ele>
        <time>2020-07-26T11:10:58Z</time>
      </trkpt>
      <trkpt lat="43.1034020" lon="-0.6214050">
        <ele>290.0</ele>
        <time>2020-07-26T11:11:01Z</time>
      </trkpt>
      <trkpt lat="43.1033660" lon="-0.6213850">
        <ele>290.4</ele>
        <time>2020-07-26T11:11:02Z</time>
      </trkpt>
      <trkpt lat="43.1032310" lon="-0.6213120">
        <ele>291.9</ele>
        <time>2020-07-26T11:11:06Z</time>
      </trkpt>
      <trkpt lat="43.1031290" lon="-0.6212470">
        <ele>293.0</ele>
        <time>2020-07-26T11:11:09Z</time>
      </trkpt>
      <trkpt lat="43.1030070" lon="-0.6211900">
        <ele>294.4</ele>
        <time>2020-07-26T11:11:13Z</time>
      </trkpt>
      <trkpt lat="43.1028870" lon="-0.6211420">
        <ele>295.8</ele>
        <time>2020-07-26T11:11:17Z</time>
      </trkpt>
      <trkpt lat="43.1027610" lon="-0.6211060">
        <ele>297.1</ele>
        <time>2020-07-26T11:11:21Z</time>
      </trkpt>
      <trkpt lat="43.1026680" lon="-0.6210700">
        <ele>298.2</ele>
        <time>2020-07-26T11:11:24Z</time>
      </trkpt>
      <trkpt lat="43.1026070" lon="-0.6210580">
        <ele>298.8</ele>
        <time>2020-07-26T11:11:26Z</time>
      </trkpt>
      <trkpt lat="43.1024830" lon="-0.6210330">
        <ele>300.1</ele>
        <time>2020-07-26T11:11:30Z</time>
      </trkpt>
      <trkpt lat="43.1024510" lon="-0.6210230">
        <ele>300.5</ele>
        <time>2020-07-26T11:11:31Z</time>
      </trkpt>
      <trkpt lat="43.1023890" lon="-0.6210150">
        <ele>301.1</ele>
        <time>2020-07-26T11:11:33Z</time>
      </trkpt>
      <trkpt lat="43.1022960" lon="-0.6210090">
        <ele>302.1</ele>
        <time>2020-07-26T11:11:36Z</time>
      </trkpt>
      <trkpt lat="43.1022340" lon="-0.6210030">
        <ele>302.7</ele>
        <time>2020-07-26T11:11:38Z</time>
      </trkpt>
      <trkpt lat="43.1021740" lon="-0.6209970">
        <ele>303.2</ele>
        <time>2020-07-26T11:11:40Z</time>
      </trkpt>
      <trkpt lat="43.1020540" lon="-0.6210040">
        <ele>304.4</ele>
        <time>2020-07-26T11:11:44Z</time>
      </trkpt>
      <trkpt lat="43.1019930" lon="-0.6210070">
        <ele>304.9</ele>
        <time>2020-07-26T11:11:46Z</time>
      </trkpt>
      <trkpt lat="43.1019330" lon="-0.6210070">
        <ele>305.5</ele>
        <time>2020-07-26T11:11:48Z</time>
      </trkpt>
      <trkpt lat="43.1018190" lon="-0.6210220">
        <ele>306.6</ele>
        <time>2020-07-26T11:11:52Z</time>
      </trkpt>
      <trkpt lat="43.1017900" lon="-0.6210250">
        <ele>306.9</ele>
        <time>2020-07-26T11:11:53Z</time>
      </trkpt>
      <trkpt lat="43.1017020" lon="-0.6210280">
        <ele>307.7</ele>
        <time>2020-07-26T11:11:56Z</time>
      </trkpt>
      <trkpt lat="43.1015810" lon="-0.6210460">
        <ele>308.9</ele>
        <time>2020-07-26T11:12:00Z</time>
      </trkpt>
      <trkpt lat="43.1015520" lon="-0.6210500">
        <ele>309.2</ele>
        <time>2020-07-26T11:12:01Z</time>
      </trkpt>
      <trkpt lat="43.1014640" lon="-0.6210730">
        <ele>310.1</ele>
        <time>2020-07-26T11:12:04Z</time>
      </trkpt>
      <trkpt lat="43.1013700" lon="-0.6210930">
        <ele>310.9</ele>
        <time>2020-07-26T11:12:07Z</time>
      </trkpt>
      <trkpt lat="43.1013390" lon="-0.6211000">
        <ele>311.2</ele>
        <time>2020-07-26T11:12:08Z</time>
      </trkpt>
      <trkpt lat="43.1012170" lon="-0.6211390">
        <ele>312.4</ele>
        <time>2020-07-26T11:12:12Z</time>
      </trkpt>
      <trkpt lat="43.1010950" lon="-0.6211920">
        <ele>313.5</ele>
        <time>2020-07-26T11:12:16Z</time>
      </trkpt>
      <trkpt lat="43.1010030" lon="-0.6212420">
        <ele>314.2</ele>
        <time>2020-07-26T11:12:19Z</time>
      </trkpt>
      <trkpt lat="43.1008500" lon="-0.6213290">
        <ele>315.3</ele>
        <time>2020-07-26T11:12:24Z</time>
      </trkpt>
      <trkpt lat="43.1007900" lon="-0.6213840">
        <ele>315.7</ele>
        <time>2020-07-26T11:12:26Z</time>
      </trkpt>
      <trkpt lat="43.1006610" lon="-0.6214960">
        <ele>316.5</ele>
        <time>2020-07-26T11:12:30Z</time>
      </trkpt>
      <trkpt lat="43.1005280" lon="-0.6215950">
        <ele>317.2</ele>
        <time>2020-07-26T11:12:34Z</time>
      </trkpt>
      <trkpt lat="43.1004290" lon="-0.6216720">
        <ele>317.8</ele>
        <time>2020-07-26T11:12:37Z</time>
      </trkpt>
      <trkpt lat="43.1003380" lon="-0.6217630">
        <ele>318.3</ele>
        <time>2020-07-26T11:12:40Z</time>
      </trkpt>
      <trkpt lat="43.1002780" lon="-0.6218300">
        <ele>318.7</ele>
        <time>2020-07-26T11:12:42Z</time>
      </trkpt>
      <trkpt lat="43.1002490" lon="-0.6218630">
        <ele>318.9</ele>
        <time>2020-07-26T11:12:43Z</time>
      </trkpt>
      <trkpt lat="43.1001550" lon="-0.6219580">
        <ele>319.5</ele>
        <time>2020-07-26T11:12:46Z</time>
      </trkpt>
      <trkpt lat="43.1000930" lon="-0.6220240">
        <ele>319.9</ele>
        <time>2020-07-26T11:12:48Z</time>
      </trkpt>
      <trkpt lat="43.0998460" lon="-0.6222890">
        <ele>321.6</ele>
        <time>2020-07-26T11:12:56Z</time>
      </trkpt>
      <trkpt lat="43.0996810" lon="-0.6224640">
        <ele>322.4</ele>
        <time>2020-07-26T11:13:01Z</time>
      </trkpt>
      <trkpt lat="43.0996150" lon="-0.6225170">
        <ele>322.7</ele>
        <time>2020-07-26T11:13:03Z</time>
      </trkpt>
      <trkpt lat="43.0994980" lon="-0.6226000">
        <ele>322.9</ele>
        <time>2020-07-26T11:13:06Z</time>
      </trkpt>
      <trkpt lat="43.0993540" lon="-0.6226560">
        <ele>323.2</ele>
        <time>2020-07-26T11:13:09Z</time>
      </trkpt>
      <trkpt lat="43.0990920" lon="-0.6227250">
        <ele>323.4</ele>
        <time>2020-07-26T11:13:14Z</time>
      </trkpt>
      <trkpt lat="43.0990380" lon="-0.6227350">
        <ele>323.4</ele>
        <time>2020-07-26T11:13:15Z</time>
      </trkpt>
      <trkpt lat="43.0986420" lon="-0.6227770">
        <ele>323.6</ele>
        <time>2020-07-26T11:13:22Z</time>
      </trkpt>
      <trkpt lat="43.0980490" lon="-0.6227910">
        <ele>324.0</ele>
        <time>2020-07-26T11:13:32Z</time>
      </trkpt>
      <trkpt lat="43.0979290" lon="-0.6227850">
        <ele>324.1</ele>
        <time>2020-07-26T11:13:34Z</time>
      </trkpt>
      <trkpt lat="43.0973850" lon="-0.6227190">
        <ele>325.2</ele>
        <time>2020-07-26T11:13:43Z</time>
      </trkpt>
      <trkpt lat="43.0972620" lon="-0.6226900">
        <ele>325.2</ele>
        <time>2020-07-26T11:13:45Z</time>
      </trkpt>
      <trkpt lat="43.0967180" lon="-0.6225330">
        <ele>325.7</ele>
        <time>2020-07-26T11:13:54Z</time>
      </trkpt>
      <trkpt lat="43.0966600" lon="-0.6225070">
        <ele>325.7</ele>
        <time>2020-07-26T11:13:55Z</time>
      </trkpt>
      <trkpt lat="43.0962770" lon="-0.6222630">
        <ele>325.2</ele>
        <time>2020-07-26T11:14:02Z</time>
      </trkpt>
      <trkpt lat="43.0960650" lon="-0.6220610">
        <ele>325.1</ele>
        <time>2020-07-26T11:14:06Z</time>
      </trkpt>
      <trkpt lat="43.0959080" lon="-0.6218960">
        <ele>325.0</ele>
        <time>2020-07-26T11:14:09Z</time>
      </trkpt>
      <trkpt lat="43.0954700" lon="-0.6214070">
        <ele>324.6</ele>
        <time>2020-07-26T11:14:18Z</time>
      </trkpt>
      <trkpt lat="43.0954220" lon="-0.6213540">
        <ele>324.5</ele>
        <time>2020-07-26T11:14:19Z</time>
      </trkpt>
      <trkpt lat="43.0951810" lon="-0.6210890">
        <ele>324.5</ele>
        <time>2020-07-26T11:14:24Z</time>
      </trkpt>
      <trkpt lat="43.0949390" lon="-0.6208180">
        <ele>324.6</ele>
        <time>2020-07-26T11:14:29Z</time>
      </trkpt>
      <trkpt lat="43.0945030" lon="-0.6203440">
        <ele>324.9</ele>
        <time>2020-07-26T11:14:38Z</time>
      </trkpt>
      <trkpt lat="43.0944060" lon="-0.6202340">
        <ele>324.9</ele>
        <time>2020-07-26T11:14:40Z</time>
      </trkpt>
      <trkpt lat="43.0941610" lon="-0.6199650">
        <ele>325.2</ele>
        <time>2020-07-26T11:14:45Z</time>
      </trkpt>
      <trkpt lat="43.0938630" lon="-0.6196380">
        <ele>325.4</ele>
        <time>2020-07-26T11:14:51Z</time>
      </trkpt>
      <trkpt lat="43.0934430" lon="-0.6191750">
        <ele>325.5</ele>
        <time>2020-07-26T11:14:59Z</time>
      </trkpt>
      <trkpt lat="43.0933270" lon="-0.6190530">
        <ele>325.5</ele>
        <time>2020-07-26T11:15:01Z</time>
      </trkpt>
      <trkpt lat="43.0928540" lon="-0.6185540">
        <ele>325.0</ele>
        <time>2020-07-26T11:15:09Z</time>
      </trkpt>
      <trkpt lat="43.0923700" lon="-0.6180400">
        <ele>324.8</ele>
        <time>2020-07-26T11:15:17Z</time>
      </trkpt>
      <trkpt lat="43.0921830" lon="-0.6178430">
        <ele>324.7</ele>
        <time>2020-07-26T11:15:20Z</time>
      </trkpt>
      <trkpt lat="43.0917440" lon="-0.6173770">
        <ele>324.6</ele>
        <time>2020-07-26T11:15:27Z</time>
      </trkpt>
      <trkpt lat="43.0913680" lon="-0.6169840">
        <ele>324.8</ele>
        <time>2020-07-26T11:15:33Z</time>
      </trkpt>
      <trkpt lat="43.0909240" lon="-0.6166110">
        <ele>325.8</ele>
        <time>2020-07-26T11:15:40Z</time>
      </trkpt>
      <trkpt lat="43.0904230" lon="-0.6163090">
        <ele>326.8</ele>
        <time>2020-07-26T11:15:48Z</time>
      </trkpt>
      <trkpt lat="43.0901720" lon="-0.6162030">
        <ele>327.3</ele>
        <time>2020-07-26T11:15:52Z</time>
      </trkpt>
      <trkpt lat="43.0898620" lon="-0.6161160">
        <ele>327.8</ele>
        <time>2020-07-26T11:15:57Z</time>
      </trkpt>
      <trkpt lat="43.0893190" lon="-0.6159910">
        <ele>328.7</ele>
        <time>2020-07-26T11:16:06Z</time>
      </trkpt>
      <trkpt lat="43.0891960" lon="-0.6159620">
        <ele>328.8</ele>
        <time>2020-07-26T11:16:08Z</time>
      </trkpt>
      <trkpt lat="43.0890070" lon="-0.6159160">
        <ele>329.0</ele>
        <time>2020-07-26T11:16:11Z</time>
      </trkpt>
      <trkpt lat="43.0885480" lon="-0.6158130">
        <ele>329.0</ele>
        <time>2020-07-26T11:16:18Z</time>
      </trkpt>
      <trkpt lat="43.0879890" lon="-0.6156810">
        <ele>328.7</ele>
        <time>2020-07-26T11:16:26Z</time>
      </trkpt>
      <trkpt lat="43.0877760" lon="-0.6156350">
        <ele>328.8</ele>
        <time>2020-07-26T11:16:29Z</time>
      </trkpt>
      <trkpt lat="43.0872040" lon="-0.6154990">
        <ele>328.8</ele>
        <time>2020-07-26T11:16:37Z</time>
      </trkpt>
      <trkpt lat="43.0871320" lon="-0.6154820">
        <ele>328.8</ele>
        <time>2020-07-26T11:16:38Z</time>
      </trkpt>
      <trkpt lat="43.0865450" lon="-0.6153380">
        <ele>328.5</ele>
        <time>2020-07-26T11:16:46Z</time>
      </trkpt>
      <trkpt lat="43.0863930" lon="-0.6152990">
        <ele>328.1</ele>
        <time>2020-07-26T11:16:48Z</time>
      </trkpt>
      <trkpt lat="43.0858140" lon="-0.6151490">
        <ele>326.7</ele>
        <time>2020-07-26T11:16:55Z</time>
      </trkpt>
      <trkpt lat="43.0857280" lon="-0.6151280">
        <ele>326.5</ele>
        <time>2020-07-26T11:16:56Z</time>
      </trkpt>
      <trkpt lat="43.0853730" lon="-0.6150760">
        <ele>325.9</ele>
        <time>2020-07-26T11:17:00Z</time>
      </trkpt>
      <trkpt lat="43.0851890" lon="-0.6150700">
        <ele>325.5</ele>
        <time>2020-07-26T11:17:02Z</time>
      </trkpt>
      <trkpt lat="43.0850970" lon="-0.6150720">
        <ele>325.4</ele>
        <time>2020-07-26T11:17:03Z</time>
      </trkpt>
      <trkpt lat="43.0846410" lon="-0.6150940">
        <ele>324.9</ele>
        <time>2020-07-26T11:17:08Z</time>
      </trkpt>
      <trkpt lat="43.0844620" lon="-0.6151060">
        <ele>324.9</ele>
        <time>2020-07-26T11:17:10Z</time>
      </trkpt>
      <trkpt lat="43.0838450" lon="-0.6150590">
        <ele>324.8</ele>
        <time>2020-07-26T11:17:17Z</time>
      </trkpt>
      <trkpt lat="43.0832430" lon="-0.6148880">
        <ele>324.9</ele>
        <time>2020-07-26T11:17:24Z</time>
      </trkpt>
      <trkpt lat="43.0826560" lon="-0.6146310">
        <ele>325.0</ele>
        <time>2020-07-26T11:17:31Z</time>
      </trkpt>
      <trkpt lat="43.0824900" lon="-0.6145550">
        <ele>325.0</ele>
        <time>2020-07-26T11:17:33Z</time>
      </trkpt>
      <trkpt lat="43.0819390" lon="-0.6142770">
        <ele>325.1</ele>
        <time>2020-07-26T11:17:40Z</time>
      </trkpt>
      <trkpt lat="43.0818640" lon="-0.6142340">
        <ele>325.2</ele>
        <time>2020-07-26T11:17:41Z</time>
      </trkpt>
      <trkpt lat="43.0813560" lon="-0.6138910">
        <ele>325.9</ele>
        <time>2020-07-26T11:17:48Z</time>
      </trkpt>
      <trkpt lat="43.0812160" lon="-0.6137860">
        <ele>325.9</ele>
        <time>2020-07-26T11:17:50Z</time>
      </trkpt>
      <trkpt lat="43.0806710" lon="-0.6134070">
        <ele>324.6</ele>
        <time>2020-07-26T11:17:58Z</time>
      </trkpt>
      <trkpt lat="43.0806040" lon="-0.6133620">
        <ele>324.5</ele>
        <time>2020-07-26T11:17:59Z</time>
      </trkpt>
      <trkpt lat="43.0801360" lon="-0.6131180">
        <ele>323.1</ele>
        <time>2020-07-26T11:18:06Z</time>
      </trkpt>
      <trkpt lat="43.0796990" lon="-0.6130040">
        <ele>321.1</ele>
        <time>2020-07-26T11:18:12Z</time>
      </trkpt>
      <trkpt lat="43.0791070" lon="-0.6129130">
        <ele>317.0</ele>
        <time>2020-07-26T11:18:19Z</time>
      </trkpt>
      <trkpt lat="43.0785300" lon="-0.6127260">
        <ele>314.9</ele>
        <time>2020-07-26T11:18:25Z</time>
      </trkpt>
      <trkpt lat="43.0781380" lon="-0.6124950">
        <ele>313.2</ele>
        <time>2020-07-26T11:18:29Z</time>
      </trkpt>
      <trkpt lat="43.0780440" lon="-0.6124240">
        <ele>312.6</ele>
        <time>2020-07-26T11:18:30Z</time>
      </trkpt>
      <trkpt lat="43.0779570" lon="-0.6123550">
        <ele>314.6</ele>
        <time>2020-07-26T11:18:31Z</time>
      </trkpt>
      <trkpt lat="43.0777820" lon="-0.6122290">
        <ele>318.9</ele>
        <time>2020-07-26T11:18:33Z</time>
      </trkpt>
      <trkpt lat="43.0777010" lon="-0.6121490">
        <ele>320.1</ele>
        <time>2020-07-26T11:18:35Z</time>
      </trkpt>
      <trkpt lat="43.0776190" lon="-0.6120690">
        <ele>320.1</ele>
        <time>2020-07-26T11:18:36Z</time>
      </trkpt>
      <trkpt lat="43.0774550" lon="-0.6119090">
        <ele>319.6</ele>
        <time>2020-07-26T11:18:37Z</time>
      </trkpt>
      <trkpt lat="43.0773700" lon="-0.6117930">
        <ele>319.2</ele>
        <time>2020-07-26T11:18:38Z</time>
      </trkpt>
      <trkpt lat="43.0771990" lon="-0.6115500">
        <ele>318.2</ele>
        <time>2020-07-26T11:18:40Z</time>
      </trkpt>
      <trkpt lat="43.0767710" lon="-0.6109390">
        <ele>316.6</ele>
        <time>2020-07-26T11:18:45Z</time>
      </trkpt>
      <trkpt lat="43.0764440" lon="-0.6105230">
        <ele>315.7</ele>
        <time>2020-07-26T11:18:49Z</time>
      </trkpt>
      <trkpt lat="43.0762830" lon="-0.6103380">
        <ele>315.7</ele>
        <time>2020-07-26T11:18:51Z</time>
      </trkpt>
      <trkpt lat="43.0760530" lon="-0.6101050">
        <ele>315.8</ele>
        <time>2020-07-26T11:18:54Z</time>
      </trkpt>
      <trkpt lat="43.0759770" lon="-0.6100250">
        <ele>315.8</ele>
        <time>2020-07-26T11:18:55Z</time>
      </trkpt>
      <trkpt lat="43.0755560" lon="-0.6095750">
        <ele>316.2</ele>
        <time>2020-07-26T11:19:01Z</time>
      </trkpt>
      <trkpt lat="43.0751100" lon="-0.6091100">
        <ele>316.7</ele>
        <time>2020-07-26T11:19:08Z</time>
      </trkpt>
      <trkpt lat="43.0750500" lon="-0.6090460">
        <ele>316.8</ele>
        <time>2020-07-26T11:19:09Z</time>
      </trkpt>
      <trkpt lat="43.0745680" lon="-0.6085630">
        <ele>317.8</ele>
        <time>2020-07-26T11:19:17Z</time>
      </trkpt>
      <trkpt lat="43.0742620" lon="-0.6082950">
        <ele>318.3</ele>
        <time>2020-07-26T11:19:22Z</time>
      </trkpt>
      <trkpt lat="43.0740760" lon="-0.6081630">
        <ele>318.5</ele>
        <time>2020-07-26T11:19:25Z</time>
      </trkpt>
      <trkpt lat="43.0736310" lon="-0.6078610">
        <ele>319.1</ele>
        <time>2020-07-26T11:19:32Z</time>
      </trkpt>
      <trkpt lat="43.0734400" lon="-0.6077290">
        <ele>319.3</ele>
        <time>2020-07-26T11:19:35Z</time>
      </trkpt>
      <trkpt lat="43.0731770" lon="-0.6075530">
        <ele>319.9</ele>
        <time>2020-07-26T11:19:39Z</time>
      </trkpt>
      <trkpt lat="43.0727950" lon="-0.6073140">
        <ele>320.9</ele>
        <time>2020-07-26T11:19:45Z</time>
      </trkpt>
      <trkpt lat="43.0727320" lon="-0.6072710">
        <ele>321.1</ele>
        <time>2020-07-26T11:19:46Z</time>
      </trkpt>
      <trkpt lat="43.0723760" lon="-0.6070780">
        <ele>321.3</ele>
        <time>2020-07-26T11:19:52Z</time>
      </trkpt>
      <trkpt lat="43.0723170" lon="-0.6070500">
        <ele>321.6</ele>
        <time>2020-07-26T11:19:53Z</time>
      </trkpt>
      <trkpt lat="43.0721390" lon="-0.6069750">
        <ele>322.2</ele>
        <time>2020-07-26T11:19:56Z</time>
      </trkpt>
      <trkpt lat="43.0720250" lon="-0.6069170">
        <ele>322.6</ele>
        <time>2020-07-26T11:19:58Z</time>
      </trkpt>
      <trkpt lat="43.0719700" lon="-0.6068780">
        <ele>322.8</ele>
        <time>2020-07-26T11:19:59Z</time>
      </trkpt>
      <trkpt lat="43.0718200" lon="-0.6067360">
        <ele>323.3</ele>
        <time>2020-07-26T11:20:02Z</time>
      </trkpt>
      <trkpt lat="43.0717660" lon="-0.6066090">
        <ele>323.5</ele>
        <time>2020-07-26T11:20:04Z</time>
      </trkpt>
      <trkpt lat="43.0717650" lon="-0.6065360">
        <ele>323.7</ele>
        <time>2020-07-26T11:20:05Z</time>
      </trkpt>
      <trkpt lat="43.0717890" lon="-0.6064280">
        <ele>323.9</ele>
        <time>2020-07-26T11:20:07Z</time>
      </trkpt>
      <trkpt lat="43.0718010" lon="-0.6063950">
        <ele>324.0</ele>
        <time>2020-07-26T11:20:08Z</time>
      </trkpt>
      <trkpt lat="43.0718290" lon="-0.6063370">
        <ele>324.1</ele>
        <time>2020-07-26T11:20:10Z</time>
      </trkpt>
      <trkpt lat="43.0718390" lon="-0.6063050">
        <ele>324.2</ele>
        <time>2020-07-26T11:20:11Z</time>
      </trkpt>
      <trkpt lat="43.0718500" lon="-0.6062660">
        <ele>324.3</ele>
        <time>2020-07-26T11:20:12Z</time>
      </trkpt>
      <trkpt lat="43.0719650" lon="-0.6061580">
        <ele>326.2</ele>
        <time>2020-07-26T11:20:16Z</time>
      </trkpt>
      <trkpt lat="43.0721520" lon="-0.6061620">
        <ele>327.4</ele>
        <time>2020-07-26T11:20:21Z</time>
      </trkpt>
      <trkpt lat="43.0721830" lon="-0.6061630">
        <ele>327.7</ele>
        <time>2020-07-26T11:20:22Z</time>
      </trkpt>
      <trkpt lat="43.0724120" lon="-0.6061680">
        <ele>329.8</ele>
        <time>2020-07-26T11:20:30Z</time>
      </trkpt>
      <trkpt lat="43.0725310" lon="-0.6061660">
        <ele>330.9</ele>
        <time>2020-07-26T11:20:34Z</time>
      </trkpt>
      <trkpt lat="43.0726430" lon="-0.6061560">
        <ele>332.0</ele>
        <time>2020-07-26T11:20:38Z</time>
      </trkpt>
      <trkpt lat="43.0727880" lon="-0.6061370">
        <ele>333.4</ele>
        <time>2020-07-26T11:20:43Z</time>
      </trkpt>
      <trkpt lat="43.0728910" lon="-0.6061230">
        <ele>334.2</ele>
        <time>2020-07-26T11:20:46Z</time>
      </trkpt>
      <trkpt lat="43.0729280" lon="-0.6061190">
        <ele>334.4</ele>
        <time>2020-07-26T11:20:47Z</time>
      </trkpt>
      <trkpt lat="43.0730480" lon="-0.6061080">
        <ele>334.9</ele>
        <time>2020-07-26T11:20:50Z</time>
      </trkpt>
      <trkpt lat="43.0731710" lon="-0.6061180">
        <ele>335.2</ele>
        <time>2020-07-26T11:20:53Z</time>
      </trkpt>
      <trkpt lat="43.0734460" lon="-0.6061590">
        <ele>335.5</ele>
        <time>2020-07-26T11:20:59Z</time>
      </trkpt>
      <trkpt lat="43.0735830" lon="-0.6062060">
        <ele>335.4</ele>
        <time>2020-07-26T11:21:02Z</time>
      </trkpt>
      <trkpt lat="43.0737170" lon="-0.6062740">
        <ele>335.3</ele>
        <time>2020-07-26T11:21:05Z</time>
      </trkpt>
      <trkpt lat="43.0740790" lon="-0.6064630">
        <ele>334.5</ele>
        <time>2020-07-26T11:21:12Z</time>
      </trkpt>
      <trkpt lat="43.0744720" lon="-0.6066890">
        <ele>333.9</ele>
        <time>2020-07-26T11:21:19Z</time>
      </trkpt>
      <trkpt lat="43.0747680" lon="-0.6068060">
        <ele>333.7</ele>
        <time>2020-07-26T11:21:24Z</time>
      </trkpt>
      <trkpt lat="43.0748310" lon="-0.6068130">
        <ele>333.7</ele>
        <time>2020-07-26T11:21:25Z</time>
      </trkpt>
      <trkpt lat="43.0750050" lon="-0.6067990">
        <ele>333.8</ele>
        <time>2020-07-26T11:21:28Z</time>
      </trkpt>
      <trkpt lat="43.0751120" lon="-0.6067420">
        <ele>333.8</ele>
        <time>2020-07-26T11:21:30Z</time>
      </trkpt>
      <trkpt lat="43.0752080" lon="-0.6065550">
        <ele>333.9</ele>
        <time>2020-07-26T11:21:33Z</time>
      </trkpt>
      <trkpt lat="43.0752540" lon="-0.6064140">
        <ele>334.0</ele>
        <time>2020-07-26T11:21:35Z</time>
      </trkpt>
      <trkpt lat="43.0753360" lon="-0.6060620">
        <ele>334.4</ele>
        <time>2020-07-26T11:21:40Z</time>
      </trkpt>
      <trkpt lat="43.0753850" lon="-0.6057920">
        <ele>334.9</ele>
        <time>2020-07-26T11:21:44Z</time>
      </trkpt>
      <trkpt lat="43.0754300" lon="-0.6056580">
        <ele>334.8</ele>
        <time>2020-07-26T11:21:46Z</time>
      </trkpt>
      <trkpt lat="43.0756100" lon="-0.6053890">
        <ele>333.5</ele>
        <time>2020-07-26T11:21:50Z</time>
      </trkpt>
      <trkpt lat="43.0756720" lon="-0.6053240">
        <ele>333.0</ele>
        <time>2020-07-26T11:21:51Z</time>
      </trkpt>
      <trkpt lat="43.0758040" lon="-0.6051930">
        <ele>332.0</ele>
        <time>2020-07-26T11:21:53Z</time>
      </trkpt>
      <trkpt lat="43.0758730" lon="-0.6051450">
        <ele>331.6</ele>
        <time>2020-07-26T11:21:54Z</time>
      </trkpt>
      <trkpt lat="43.0760340" lon="-0.6051430">
        <ele>331.0</ele>
        <time>2020-07-26T11:21:56Z</time>
      </trkpt>
      <trkpt lat="43.0762510" lon="-0.6052990">
        <ele>330.4</ele>
        <time>2020-07-26T11:21:59Z</time>
      </trkpt>
      <trkpt lat="43.0763570" lon="-0.6054370">
        <ele>330.3</ele>
        <time>2020-07-26T11:22:01Z</time>
      </trkpt>
      <trkpt lat="43.0763960" lon="-0.6055160">
        <ele>330.3</ele>
        <time>2020-07-26T11:22:02Z</time>
      </trkpt>
      <trkpt lat="43.0764730" lon="-0.6057230">
        <ele>331.1</ele>
        <time>2020-07-26T11:22:05Z</time>
      </trkpt>
      <trkpt lat="43.0764920" lon="-0.6057790">
        <ele>331.4</ele>
        <time>2020-07-26T11:22:06Z</time>
      </trkpt>
      <trkpt lat="43.0766150" lon="-0.6060140">
        <ele>333.4</ele>
        <time>2020-07-26T11:22:12Z</time>
      </trkpt>
      <trkpt lat="43.0766490" lon="-0.6060240">
        <ele>333.7</ele>
        <time>2020-07-26T11:22:13Z</time>
      </trkpt>
      <trkpt lat="43.0766850" lon="-0.6060150">
        <ele>335.1</ele>
        <time>2020-07-26T11:22:14Z</time>
      </trkpt>
      <trkpt lat="43.0767120" lon="-0.6059890">
        <ele>335.4</ele>
        <time>2020-07-26T11:22:15Z</time>
      </trkpt>
      <trkpt lat="43.0767290" lon="-0.6059510">
        <ele>335.7</ele>
        <time>2020-07-26T11:22:16Z</time>
      </trkpt>
      <trkpt lat="43.0767560" lon="-0.6058600">
        <ele>336.2</ele>
        <time>2020-07-26T11:22:18Z</time>
      </trkpt>
      <trkpt lat="43.0767630" lon="-0.6058130">
        <ele>336.4</ele>
        <time>2020-07-26T11:22:19Z</time>
      </trkpt>
      <trkpt lat="43.0767920" lon="-0.6056620">
        <ele>337.0</ele>
        <time>2020-07-26T11:22:22Z</time>
      </trkpt>
      <trkpt lat="43.0768340" lon="-0.6053960">
        <ele>337.7</ele>
        <time>2020-07-26T11:22:27Z</time>
      </trkpt>
      <trkpt lat="43.0768430" lon="-0.6053390">
        <ele>337.8</ele>
        <time>2020-07-26T11:22:28Z</time>
      </trkpt>
      <trkpt lat="43.0768600" lon="-0.6047960">
        <ele>338.8</ele>
        <time>2020-07-26T11:22:37Z</time>
      </trkpt>
      <trkpt lat="43.0768380" lon="-0.6042170">
        <ele>339.5</ele>
        <time>2020-07-26T11:22:46Z</time>
      </trkpt>
      <trkpt lat="43.0768360" lon="-0.6041480">
        <ele>339.5</ele>
        <time>2020-07-26T11:22:47Z</time>
      </trkpt>
      <trkpt lat="43.0768520" lon="-0.6035740">
        <ele>340.1</ele>
        <time>2020-07-26T11:22:55Z</time>
      </trkpt>
      <trkpt lat="43.0769210" lon="-0.6030960">
        <ele>340.7</ele>
        <time>2020-07-26T11:23:02Z</time>
      </trkpt>
      <trkpt lat="43.0768900" lon="-0.6027570">
        <ele>340.9</ele>
        <time>2020-07-26T11:23:07Z</time>
      </trkpt>
      <trkpt lat="43.0768790" lon="-0.6025440">
        <ele>341.0</ele>
        <time>2020-07-26T11:23:10Z</time>
      </trkpt>
      <trkpt lat="43.0768890" lon="-0.6023330">
        <ele>341.1</ele>
        <time>2020-07-26T11:23:13Z</time>
      </trkpt>
      <trkpt lat="43.0769540" lon="-0.6016840">
        <ele>340.9</ele>
        <time>2020-07-26T11:23:22Z</time>
      </trkpt>
      <trkpt lat="43.0770000" lon="-0.6012070">
        <ele>341.0</ele>
        <time>2020-07-26T11:23:28Z</time>
      </trkpt>
      <trkpt lat="43.0770180" lon="-0.6007000">
        <ele>341.4</ele>
        <time>2020-07-26T11:23:34Z</time>
      </trkpt>
      <trkpt lat="43.0769780" lon="-0.6003140">
        <ele>342.3</ele>
        <time>2020-07-26T11:23:39Z</time>
      </trkpt>
      <trkpt lat="43.0769460" lon="-0.5998680">
        <ele>343.4</ele>
        <time>2020-07-26T11:23:45Z</time>
      </trkpt>
      <trkpt lat="43.0769470" lon="-0.5997950">
        <ele>343.5</ele>
        <time>2020-07-26T11:23:46Z</time>
      </trkpt>
      <trkpt lat="43.0769860" lon="-0.5993820">
        <ele>344.6</ele>
        <time>2020-07-26T11:23:52Z</time>
      </trkpt>
      <trkpt lat="43.0770320" lon="-0.5991220">
        <ele>345.2</ele>
        <time>2020-07-26T11:23:56Z</time>
      </trkpt>
      <trkpt lat="43.0770420" lon="-0.5990570">
        <ele>345.3</ele>
        <time>2020-07-26T11:23:57Z</time>
      </trkpt>
      <trkpt lat="43.0770860" lon="-0.5989160">
        <ele>345.7</ele>
        <time>2020-07-26T11:23:59Z</time>
      </trkpt>
      <trkpt lat="43.0770950" lon="-0.5988520">
        <ele>345.9</ele>
        <time>2020-07-26T11:24:00Z</time>
      </trkpt>
      <trkpt lat="43.0771060" lon="-0.5987910">
        <ele>346.1</ele>
        <time>2020-07-26T11:24:01Z</time>
      </trkpt>
      <trkpt lat="43.0771190" lon="-0.5987280">
        <ele>346.2</ele>
        <time>2020-07-26T11:24:02Z</time>
      </trkpt>
      <trkpt lat="43.0771350" lon="-0.5985290">
        <ele>346.7</ele>
        <time>2020-07-26T11:24:05Z</time>
      </trkpt>
      <trkpt lat="43.0771430" lon="-0.5983270">
        <ele>347.1</ele>
        <time>2020-07-26T11:24:08Z</time>
      </trkpt>
      <trkpt lat="43.0771440" lon="-0.5982620">
        <ele>347.3</ele>
        <time>2020-07-26T11:24:09Z</time>
      </trkpt>
      <trkpt lat="43.0771400" lon="-0.5980060">
        <ele>347.9</ele>
        <time>2020-07-26T11:24:13Z</time>
      </trkpt>
      <trkpt lat="43.0771350" lon="-0.5978770">
        <ele>348.2</ele>
        <time>2020-07-26T11:24:15Z</time>
      </trkpt>
      <trkpt lat="43.0771400" lon="-0.5976130">
        <ele>348.9</ele>
        <time>2020-07-26T11:24:19Z</time>
      </trkpt>
      <trkpt lat="43.0771530" lon="-0.5974830">
        <ele>349.3</ele>
        <time>2020-07-26T11:24:21Z</time>
      </trkpt>
      <trkpt lat="43.0771580" lon="-0.5974200">
        <ele>349.5</ele>
        <time>2020-07-26T11:24:22Z</time>
      </trkpt>
      <trkpt lat="43.0771910" lon="-0.5971770">
        <ele>350.3</ele>
        <time>2020-07-26T11:24:26Z</time>
      </trkpt>
      <trkpt lat="43.0772200" lon="-0.5970670">
        <ele>350.7</ele>
        <time>2020-07-26T11:24:28Z</time>
      </trkpt>
      <trkpt lat="43.0773220" lon="-0.5968240">
        <ele>351.6</ele>
        <time>2020-07-26T11:24:33Z</time>
      </trkpt>
      <trkpt lat="43.0773510" lon="-0.5967810">
        <ele>351.7</ele>
        <time>2020-07-26T11:24:34Z</time>
      </trkpt>
      <trkpt lat="43.0773810" lon="-0.5967380">
        <ele>351.8</ele>
        <time>2020-07-26T11:24:35Z</time>
      </trkpt>
      <trkpt lat="43.0775480" lon="-0.5965140">
        <ele>352.5</ele>
        <time>2020-07-26T11:24:40Z</time>
      </trkpt>
      <trkpt lat="43.0775780" lon="-0.5964630">
        <ele>352.7</ele>
        <time>2020-07-26T11:24:41Z</time>
      </trkpt>
      <trkpt lat="43.0777630" lon="-0.5960860">
        <ele>353.5</ele>
        <time>2020-07-26T11:24:48Z</time>
      </trkpt>
      <trkpt lat="43.0778320" lon="-0.5959080">
        <ele>353.7</ele>
        <time>2020-07-26T11:24:51Z</time>
      </trkpt>
      <trkpt lat="43.0778500" lon="-0.5958450">
        <ele>353.8</ele>
        <time>2020-07-26T11:24:52Z</time>
      </trkpt>
      <trkpt lat="43.0778640" lon="-0.5957810">
        <ele>353.9</ele>
        <time>2020-07-26T11:24:53Z</time>
      </trkpt>
      <trkpt lat="43.0778740" lon="-0.5957160">
        <ele>354.0</ele>
        <time>2020-07-26T11:24:54Z</time>
      </trkpt>
      <trkpt lat="43.0778680" lon="-0.5954050">
        <ele>354.7</ele>
        <time>2020-07-26T11:24:59Z</time>
      </trkpt>
      <trkpt lat="43.0778660" lon="-0.5953460">
        <ele>354.8</ele>
        <time>2020-07-26T11:25:00Z</time>
      </trkpt>
      <trkpt lat="43.0778490" lon="-0.5950070">
        <ele>356.0</ele>
        <time>2020-07-26T11:25:06Z</time>
      </trkpt>
      <trkpt lat="43.0778480" lon="-0.5948960">
        <ele>356.4</ele>
        <time>2020-07-26T11:25:08Z</time>
      </trkpt>
      <trkpt lat="43.0778700" lon="-0.5946180">
        <ele>358.0</ele>
        <time>2020-07-26T11:25:13Z</time>
      </trkpt>
      <trkpt lat="43.0778770" lon="-0.5945600">
        <ele>358.3</ele>
        <time>2020-07-26T11:25:14Z</time>
      </trkpt>
      <trkpt lat="43.0779250" lon="-0.5943260">
        <ele>359.5</ele>
        <time>2020-07-26T11:25:18Z</time>
      </trkpt>
      <trkpt lat="43.0779790" lon="-0.5941590">
        <ele>360.5</ele>
        <time>2020-07-26T11:25:21Z</time>
      </trkpt>
      <trkpt lat="43.0780180" lon="-0.5940520">
        <ele>361.1</ele>
        <time>2020-07-26T11:25:23Z</time>
      </trkpt>
      <trkpt lat="43.0780980" lon="-0.5938490">
        <ele>362.5</ele>
        <time>2020-07-26T11:25:27Z</time>
      </trkpt>
      <trkpt lat="43.0781360" lon="-0.5937570">
        <ele>363.2</ele>
        <time>2020-07-26T11:25:29Z</time>
      </trkpt>
      <trkpt lat="43.0781760" lon="-0.5936680">
        <ele>363.9</ele>
        <time>2020-07-26T11:25:31Z</time>
      </trkpt>
      <trkpt lat="43.0782590" lon="-0.5934300">
        <ele>365.5</ele>
        <time>2020-07-26T11:25:36Z</time>
      </trkpt>
      <trkpt lat="43.0782680" lon="-0.5933820">
        <ele>365.7</ele>
        <time>2020-07-26T11:25:37Z</time>
      </trkpt>
      <trkpt lat="43.0782880" lon="-0.5932680">
        <ele>366.3</ele>
        <time>2020-07-26T11:25:39Z</time>
      </trkpt>
      <trkpt lat="43.0783170" lon="-0.5930870">
        <ele>367.1</ele>
        <time>2020-07-26T11:25:42Z</time>
      </trkpt>
      <trkpt lat="43.0783290" lon="-0.5930250">
        <ele>367.4</ele>
        <time>2020-07-26T11:25:43Z</time>
      </trkpt>
      <trkpt lat="43.0783940" lon="-0.5926010">
        <ele>365.7</ele>
        <time>2020-07-26T11:25:50Z</time>
      </trkpt>
      <trkpt lat="43.0784080" lon="-0.5924400">
        <ele>366.2</ele>
        <time>2020-07-26T11:25:53Z</time>
      </trkpt>
      <trkpt lat="43.0784280" lon="-0.5921650">
        <ele>367.2</ele>
        <time>2020-07-26T11:25:58Z</time>
      </trkpt>
      <trkpt lat="43.0784470" lon="-0.5919370">
        <ele>367.9</ele>
        <time>2020-07-26T11:26:02Z</time>
      </trkpt>
      <trkpt lat="43.0784640" lon="-0.5916440">
        <ele>368.4</ele>
        <time>2020-07-26T11:26:07Z</time>
      </trkpt>
      <trkpt lat="43.0784630" lon="-0.5914500">
        <ele>368.6</ele>
        <time>2020-07-26T11:26:10Z</time>
      </trkpt>
      <trkpt lat="43.0784640" lon="-0.5913120">
        <ele>368.6</ele>
        <time>2020-07-26T11:26:12Z</time>
      </trkpt>
      <trkpt lat="43.0784670" lon="-0.5912370">
        <ele>368.6</ele>
        <time>2020-07-26T11:26:13Z</time>
      </trkpt>
      <trkpt lat="43.0784680" lon="-0.5907460">
        <ele>368.4</ele>
        <time>2020-07-26T11:26:19Z</time>
      </trkpt>
      <trkpt lat="43.0784270" lon="-0.5901120">
        <ele>369.2</ele>
        <time>2020-07-26T11:26:27Z</time>
      </trkpt>
      <trkpt lat="43.0784450" lon="-0.5896100">
        <ele>370.2</ele>
        <time>2020-07-26T11:26:34Z</time>
      </trkpt>
      <trkpt lat="43.0784550" lon="-0.5891910">
        <ele>371.7</ele>
        <time>2020-07-26T11:26:40Z</time>
      </trkpt>
      <trkpt lat="43.0784580" lon="-0.5891290">
        <ele>372.0</ele>
        <time>2020-07-26T11:26:41Z</time>
      </trkpt>
      <trkpt lat="43.0784610" lon="-0.5890690">
        <ele>372.4</ele>
        <time>2020-07-26T11:26:42Z</time>
      </trkpt>
      <trkpt lat="43.0784630" lon="-0.5889110">
        <ele>373.3</ele>
        <time>2020-07-26T11:26:45Z</time>
      </trkpt>
      <trkpt lat="43.0784710" lon="-0.5888210">
        <ele>373.8</ele>
        <time>2020-07-26T11:26:47Z</time>
      </trkpt>
      <trkpt lat="43.0784760" lon="-0.5886720">
        <ele>374.5</ele>
        <time>2020-07-26T11:26:50Z</time>
      </trkpt>
      <trkpt lat="43.0784730" lon="-0.5885620">
        <ele>375.1</ele>
        <time>2020-07-26T11:26:52Z</time>
      </trkpt>
      <trkpt lat="43.0784750" lon="-0.5884550">
        <ele>375.6</ele>
        <time>2020-07-26T11:26:54Z</time>
      </trkpt>
      <trkpt lat="43.0784810" lon="-0.5884070">
        <ele>375.9</ele>
        <time>2020-07-26T11:26:55Z</time>
      </trkpt>
      <trkpt lat="43.0785050" lon="-0.5882540">
        <ele>376.6</ele>
        <time>2020-07-26T11:26:58Z</time>
      </trkpt>
      <trkpt lat="43.0785550" lon="-0.5880330">
        <ele>377.4</ele>
        <time>2020-07-26T11:27:02Z</time>
      </trkpt>
      <trkpt lat="43.0785680" lon="-0.5879720">
        <ele>377.7</ele>
        <time>2020-07-26T11:27:03Z</time>
      </trkpt>
      <trkpt lat="43.0786390" lon="-0.5876320">
        <ele>379.0</ele>
        <time>2020-07-26T11:27:09Z</time>
      </trkpt>
      <trkpt lat="43.0786730" lon="-0.5874960">
        <ele>379.7</ele>
        <time>2020-07-26T11:27:12Z</time>
      </trkpt>
      <trkpt lat="43.0787000" lon="-0.5873180">
        <ele>380.7</ele>
        <time>2020-07-26T11:27:17Z</time>
      </trkpt>
      <trkpt lat="43.0787100" lon="-0.5872570">
        <ele>381.0</ele>
        <time>2020-07-26T11:27:19Z</time>
      </trkpt>
      <trkpt lat="43.0787370" lon="-0.5871540">
        <ele>381.5</ele>
        <time>2020-07-26T11:27:22Z</time>
      </trkpt>
      <trkpt lat="43.0787670" lon="-0.5870030">
        <ele>382.1</ele>
        <time>2020-07-26T11:27:25Z</time>
      </trkpt>
      <trkpt lat="43.0787790" lon="-0.5869460">
        <ele>382.4</ele>
        <time>2020-07-26T11:27:26Z</time>
      </trkpt>
      <trkpt lat="43.0788230" lon="-0.5867260">
        <ele>383.0</ele>
        <time>2020-07-26T11:27:30Z</time>
      </trkpt>
      <trkpt lat="43.0788390" lon="-0.5866690">
        <ele>383.2</ele>
        <time>2020-07-26T11:27:31Z</time>
      </trkpt>
      <trkpt lat="43.0789010" lon="-0.5863640">
        <ele>383.8</ele>
        <time>2020-07-26T11:27:36Z</time>
      </trkpt>
      <trkpt lat="43.0789160" lon="-0.5863000">
        <ele>383.9</ele>
        <time>2020-07-26T11:27:37Z</time>
      </trkpt>
      <trkpt lat="43.0789270" lon="-0.5862420">
        <ele>384.0</ele>
        <time>2020-07-26T11:27:38Z</time>
      </trkpt>
      <trkpt lat="43.0789610" lon="-0.5859400">
        <ele>384.7</ele>
        <time>2020-07-26T11:27:43Z</time>
      </trkpt>
      <trkpt lat="43.0789810" lon="-0.5856420">
        <ele>385.5</ele>
        <time>2020-07-26T11:27:48Z</time>
      </trkpt>
      <trkpt lat="43.0789820" lon="-0.5854720">
        <ele>386.0</ele>
        <time>2020-07-26T11:27:51Z</time>
      </trkpt>
      <trkpt lat="43.0789790" lon="-0.5853520">
        <ele>386.3</ele>
        <time>2020-07-26T11:27:53Z</time>
      </trkpt>
      <trkpt lat="43.0789740" lon="-0.5852890">
        <ele>386.4</ele>
        <time>2020-07-26T11:27:54Z</time>
      </trkpt>
      <trkpt lat="43.0789340" lon="-0.5849440">
        <ele>387.0</ele>
        <time>2020-07-26T11:27:59Z</time>
      </trkpt>
      <trkpt lat="43.0789150" lon="-0.5848060">
        <ele>387.3</ele>
        <time>2020-07-26T11:28:01Z</time>
      </trkpt>
      <trkpt lat="43.0788220" lon="-0.5843650">
        <ele>388.1</ele>
        <time>2020-07-26T11:28:08Z</time>
      </trkpt>
      <trkpt lat="43.0787500" lon="-0.5840770">
        <ele>389.0</ele>
        <time>2020-07-26T11:28:13Z</time>
      </trkpt>
      <trkpt lat="43.0786960" lon="-0.5838690">
        <ele>390.0</ele>
        <time>2020-07-26T11:28:17Z</time>
      </trkpt>
      <trkpt lat="43.0786770" lon="-0.5837640">
        <ele>390.5</ele>
        <time>2020-07-26T11:28:19Z</time>
      </trkpt>
      <trkpt lat="43.0786570" lon="-0.5834910">
        <ele>391.8</ele>
        <time>2020-07-26T11:28:24Z</time>
      </trkpt>
      <trkpt lat="43.0786530" lon="-0.5832560">
        <ele>392.6</ele>
        <time>2020-07-26T11:28:28Z</time>
      </trkpt>
      <trkpt lat="43.0786430" lon="-0.5829220">
        <ele>393.8</ele>
        <time>2020-07-26T11:28:34Z</time>
      </trkpt>
      <trkpt lat="43.0786360" lon="-0.5827100">
        <ele>394.6</ele>
        <time>2020-07-26T11:28:38Z</time>
      </trkpt>
      <trkpt lat="43.0786220" lon="-0.5824460">
        <ele>395.6</ele>
        <time>2020-07-26T11:28:43Z</time>
      </trkpt>
      <trkpt lat="43.0786220" lon="-0.5823930">
        <ele>395.8</ele>
        <time>2020-07-26T11:28:44Z</time>
      </trkpt>
      <trkpt lat="43.0786350" lon="-0.5821810">
        <ele>396.5</ele>
        <time>2020-07-26T11:28:48Z</time>
      </trkpt>
      <trkpt lat="43.0786750" lon="-0.5820240">
        <ele>397.1</ele>
        <time>2020-07-26T11:28:51Z</time>
      </trkpt>
      <trkpt lat="43.0787050" lon="-0.5819200">
        <ele>397.4</ele>
        <time>2020-07-26T11:28:53Z</time>
      </trkpt>
      <trkpt lat="43.0787640" lon="-0.5816600">
        <ele>398.2</ele>
        <time>2020-07-26T11:28:58Z</time>
      </trkpt>
      <trkpt lat="43.0787790" lon="-0.5812720">
        <ele>399.5</ele>
        <time>2020-07-26T11:29:05Z</time>
      </trkpt>
      <trkpt lat="43.0787870" lon="-0.5810150">
        <ele>400.5</ele>
        <time>2020-07-26T11:29:10Z</time>
      </trkpt>
      <trkpt lat="43.0787940" lon="-0.5809700">
        <ele>400.6</ele>
        <time>2020-07-26T11:29:11Z</time>
      </trkpt>
      <trkpt lat="43.0788110" lon="-0.5808720">
        <ele>401.0</ele>
        <time>2020-07-26T11:29:13Z</time>
      </trkpt>
      <trkpt lat="43.0788600" lon="-0.5806680">
        <ele>401.9</ele>
        <time>2020-07-26T11:29:17Z</time>
      </trkpt>
      <trkpt lat="43.0788760" lon="-0.5806180">
        <ele>402.1</ele>
        <time>2020-07-26T11:29:18Z</time>
      </trkpt>
      <trkpt lat="43.0789330" lon="-0.5803390">
        <ele>403.4</ele>
        <time>2020-07-26T11:29:24Z</time>
      </trkpt>
      <trkpt lat="43.0790190" lon="-0.5800300">
        <ele>404.8</ele>
        <time>2020-07-26T11:29:30Z</time>
      </trkpt>
      <trkpt lat="43.0790490" lon="-0.5798030">
        <ele>405.6</ele>
        <time>2020-07-26T11:29:34Z</time>
      </trkpt>
      <trkpt lat="43.0790490" lon="-0.5796300">
        <ele>406.2</ele>
        <time>2020-07-26T11:29:37Z</time>
      </trkpt>
      <trkpt lat="43.0790250" lon="-0.5794130">
        <ele>407.0</ele>
        <time>2020-07-26T11:29:41Z</time>
      </trkpt>
      <trkpt lat="43.0790150" lon="-0.5792610">
        <ele>407.6</ele>
        <time>2020-07-26T11:29:44Z</time>
      </trkpt>
      <trkpt lat="43.0790300" lon="-0.5791130">
        <ele>408.3</ele>
        <time>2020-07-26T11:29:47Z</time>
      </trkpt>
      <trkpt lat="43.0790740" lon="-0.5789680">
        <ele>409.0</ele>
        <time>2020-07-26T11:29:50Z</time>
      </trkpt>
      <trkpt lat="43.0791140" lon="-0.5788840">
        <ele>409.5</ele>
        <time>2020-07-26T11:29:52Z</time>
      </trkpt>
      <trkpt lat="43.0792330" lon="-0.5786960">
        <ele>410.7</ele>
        <time>2020-07-26T11:29:57Z</time>
      </trkpt>
      <trkpt lat="43.0792570" lon="-0.5786580">
        <ele>410.9</ele>
        <time>2020-07-26T11:29:58Z</time>
      </trkpt>
      <trkpt lat="43.0793600" lon="-0.5784990">
        <ele>411.9</ele>
        <time>2020-07-26T11:30:02Z</time>
      </trkpt>
      <trkpt lat="43.0794340" lon="-0.5783840">
        <ele>412.7</ele>
        <time>2020-07-26T11:30:05Z</time>
      </trkpt>
      <trkpt lat="43.0794830" lon="-0.5783070">
        <ele>413.2</ele>
        <time>2020-07-26T11:30:07Z</time>
      </trkpt>
      <trkpt lat="43.0795900" lon="-0.5781730">
        <ele>414.2</ele>
        <time>2020-07-26T11:30:11Z</time>
      </trkpt>
      <trkpt lat="43.0796220" lon="-0.5781450">
        <ele>414.5</ele>
        <time>2020-07-26T11:30:12Z</time>
      </trkpt>
      <trkpt lat="43.0797670" lon="-0.5780780">
        <ele>415.9</ele>
        <time>2020-07-26T11:30:16Z</time>
      </trkpt>
      <trkpt lat="43.0797940" lon="-0.5780830">
        <ele>416.1</ele>
        <time>2020-07-26T11:30:17Z</time>
      </trkpt>
      <trkpt lat="43.0799080" lon="-0.5781550">
        <ele>417.1</ele>
        <time>2020-07-26T11:30:21Z</time>
      </trkpt>
      <trkpt lat="43.0799920" lon="-0.5782560">
        <ele>417.9</ele>
        <time>2020-07-26T11:30:25Z</time>
      </trkpt>
      <trkpt lat="43.0800140" lon="-0.5782820">
        <ele>418.1</ele>
        <time>2020-07-26T11:30:26Z</time>
      </trkpt>
      <trkpt lat="43.0801180" lon="-0.5784210">
        <ele>419.1</ele>
        <time>2020-07-26T11:30:30Z</time>
      </trkpt>
      <trkpt lat="43.0802890" lon="-0.5785650">
        <ele>420.3</ele>
        <time>2020-07-26T11:30:34Z</time>
      </trkpt>
      <trkpt lat="43.0803360" lon="-0.5785930">
        <ele>420.6</ele>
        <time>2020-07-26T11:30:35Z</time>
      </trkpt>
      <trkpt lat="43.0804600" lon="-0.5787350">
        <ele>421.5</ele>
        <time>2020-07-26T11:30:39Z</time>
      </trkpt>
      <trkpt lat="43.0804920" lon="-0.5787580">
        <ele>421.7</ele>
        <time>2020-07-26T11:30:40Z</time>
      </trkpt>
      <trkpt lat="43.0806430" lon="-0.5788470">
        <ele>422.4</ele>
        <time>2020-07-26T11:30:46Z</time>
      </trkpt>
      <trkpt lat="43.0806670" lon="-0.5788510">
        <ele>422.6</ele>
        <time>2020-07-26T11:30:47Z</time>
      </trkpt>
      <trkpt lat="43.0807880" lon="-0.5788220">
        <ele>423.2</ele>
        <time>2020-07-26T11:30:51Z</time>
      </trkpt>
      <trkpt lat="43.0808490" lon="-0.5787340">
        <ele>423.7</ele>
        <time>2020-07-26T11:30:55Z</time>
      </trkpt>
      <trkpt lat="43.0808650" lon="-0.5787040">
        <ele>423.8</ele>
        <time>2020-07-26T11:30:56Z</time>
      </trkpt>
      <trkpt lat="43.0809130" lon="-0.5785140">
        <ele>424.6</ele>
        <time>2020-07-26T11:31:01Z</time>
      </trkpt>
      <trkpt lat="43.0809150" lon="-0.5784730">
        <ele>424.8</ele>
        <time>2020-07-26T11:31:02Z</time>
      </trkpt>
      <trkpt lat="43.0809240" lon="-0.5783430">
        <ele>425.2</ele>
        <time>2020-07-26T11:31:05Z</time>
      </trkpt>
      <trkpt lat="43.0809490" lon="-0.5781640">
        <ele>425.9</ele>
        <time>2020-07-26T11:31:09Z</time>
      </trkpt>
      <trkpt lat="43.0809550" lon="-0.5781210">
        <ele>426.1</ele>
        <time>2020-07-26T11:31:10Z</time>
      </trkpt>
      <trkpt lat="43.0809920" lon="-0.5779590">
        <ele>426.7</ele>
        <time>2020-07-26T11:31:14Z</time>
      </trkpt>
      <trkpt lat="43.0810050" lon="-0.5778210">
        <ele>427.2</ele>
        <time>2020-07-26T11:31:17Z</time>
      </trkpt>
      <trkpt lat="43.0810240" lon="-0.5776350">
        <ele>427.9</ele>
        <time>2020-07-26T11:31:21Z</time>
      </trkpt>
      <trkpt lat="43.0810510" lon="-0.5774910">
        <ele>428.5</ele>
        <time>2020-07-26T11:31:24Z</time>
      </trkpt>
      <trkpt lat="43.0810830" lon="-0.5773040">
        <ele>429.2</ele>
        <time>2020-07-26T11:31:28Z</time>
      </trkpt>
      <trkpt lat="43.0811070" lon="-0.5770180">
        <ele>430.4</ele>
        <time>2020-07-26T11:31:34Z</time>
      </trkpt>
      <trkpt lat="43.0810920" lon="-0.5767950">
        <ele>431.3</ele>
        <time>2020-07-26T11:31:39Z</time>
      </trkpt>
      <trkpt lat="43.0810910" lon="-0.5767630">
        <ele>431.5</ele>
        <time>2020-07-26T11:31:40Z</time>
      </trkpt>
      <trkpt lat="43.0810360" lon="-0.5765510">
        <ele>432.4</ele>
        <time>2020-07-26T11:31:45Z</time>
      </trkpt>
      <trkpt lat="43.0810160" lon="-0.5764680">
        <ele>432.8</ele>
        <time>2020-07-26T11:31:47Z</time>
      </trkpt>
      <trkpt lat="43.0809910" lon="-0.5763600">
        <ele>433.3</ele>
        <time>2020-07-26T11:31:50Z</time>
      </trkpt>
      <trkpt lat="43.0809300" lon="-0.5762390">
        <ele>433.9</ele>
        <time>2020-07-26T11:31:53Z</time>
      </trkpt>
      <trkpt lat="43.0808640" lon="-0.5761220">
        <ele>434.6</ele>
        <time>2020-07-26T11:31:56Z</time>
      </trkpt>
      <trkpt lat="43.0807510" lon="-0.5759840">
        <ele>435.8</ele>
        <time>2020-07-26T11:32:00Z</time>
      </trkpt>
      <trkpt lat="43.0806920" lon="-0.5759150">
        <ele>436.5</ele>
        <time>2020-07-26T11:32:02Z</time>
      </trkpt>
      <trkpt lat="43.0806650" lon="-0.5758800">
        <ele>436.8</ele>
        <time>2020-07-26T11:32:03Z</time>
      </trkpt>
      <trkpt lat="43.0805530" lon="-0.5757500">
        <ele>438.3</ele>
        <time>2020-07-26T11:32:07Z</time>
      </trkpt>
      <trkpt lat="43.0804920" lon="-0.5756360">
        <ele>439.3</ele>
        <time>2020-07-26T11:32:10Z</time>
      </trkpt>
      <trkpt lat="43.0804610" lon="-0.5754650">
        <ele>440.5</ele>
        <time>2020-07-26T11:32:14Z</time>
      </trkpt>
      <trkpt lat="43.0804520" lon="-0.5754240">
        <ele>440.8</ele>
        <time>2020-07-26T11:32:15Z</time>
      </trkpt>
      <trkpt lat="43.0804380" lon="-0.5753430">
        <ele>441.3</ele>
        <time>2020-07-26T11:32:17Z</time>
      </trkpt>
      <trkpt lat="43.0804290" lon="-0.5751670">
        <ele>442.2</ele>
        <time>2020-07-26T11:32:21Z</time>
      </trkpt>
      <trkpt lat="43.0804360" lon="-0.5751210">
        <ele>442.4</ele>
        <time>2020-07-26T11:32:22Z</time>
      </trkpt>
      <trkpt lat="43.0804720" lon="-0.5750010">
        <ele>442.9</ele>
        <time>2020-07-26T11:32:25Z</time>
      </trkpt>
      <trkpt lat="43.0804890" lon="-0.5748630">
        <ele>443.4</ele>
        <time>2020-07-26T11:32:28Z</time>
      </trkpt>
      <trkpt lat="43.0804890" lon="-0.5748200">
        <ele>443.5</ele>
        <time>2020-07-26T11:32:29Z</time>
      </trkpt>
      <trkpt lat="43.0805260" lon="-0.5745380">
        <ele>444.3</ele>
        <time>2020-07-26T11:32:35Z</time>
      </trkpt>
      <trkpt lat="43.0806170" lon="-0.5742820">
        <ele>445.2</ele>
        <time>2020-07-26T11:32:40Z</time>
      </trkpt>
      <trkpt lat="43.0806540" lon="-0.5742000">
        <ele>445.5</ele>
        <time>2020-07-26T11:32:42Z</time>
      </trkpt>
      <trkpt lat="43.0807100" lon="-0.5740480">
        <ele>446.2</ele>
        <time>2020-07-26T11:32:46Z</time>
      </trkpt>
      <trkpt lat="43.0807560" lon="-0.5739410">
        <ele>446.7</ele>
        <time>2020-07-26T11:32:49Z</time>
      </trkpt>
      <trkpt lat="43.0808170" lon="-0.5738000">
        <ele>447.5</ele>
        <time>2020-07-26T11:32:53Z</time>
      </trkpt>
      <trkpt lat="43.0808520" lon="-0.5737360">
        <ele>447.9</ele>
        <time>2020-07-26T11:32:55Z</time>
      </trkpt>
      <trkpt lat="43.0808990" lon="-0.5736450">
        <ele>448.6</ele>
        <time>2020-07-26T11:32:58Z</time>
      </trkpt>
      <trkpt lat="43.0809400" lon="-0.5735520">
        <ele>449.3</ele>
        <time>2020-07-26T11:33:01Z</time>
      </trkpt>
      <trkpt lat="43.0809610" lon="-0.5735190">
        <ele>449.6</ele>
        <time>2020-07-26T11:33:02Z</time>
      </trkpt>
      <trkpt lat="43.0810100" lon="-0.5733770">
        <ele>450.6</ele>
        <time>2020-07-26T11:33:06Z</time>
      </trkpt>
      <trkpt lat="43.0810400" lon="-0.5733150">
        <ele>451.1</ele>
        <time>2020-07-26T11:33:08Z</time>
      </trkpt>
      <trkpt lat="43.0810650" lon="-0.5731890">
        <ele>451.8</ele>
        <time>2020-07-26T11:33:11Z</time>
      </trkpt>
      <trkpt lat="43.0811120" lon="-0.5729800">
        <ele>453.0</ele>
        <time>2020-07-26T11:33:15Z</time>
      </trkpt>
      <trkpt lat="43.0811200" lon="-0.5729310">
        <ele>453.2</ele>
        <time>2020-07-26T11:33:16Z</time>
      </trkpt>
      <trkpt lat="43.0811430" lon="-0.5727900">
        <ele>453.9</ele>
        <time>2020-07-26T11:33:19Z</time>
      </trkpt>
      <trkpt lat="43.0811530" lon="-0.5725610">
        <ele>454.9</ele>
        <time>2020-07-26T11:33:24Z</time>
      </trkpt>
      <trkpt lat="43.0811550" lon="-0.5725130">
        <ele>455.1</ele>
        <time>2020-07-26T11:33:25Z</time>
      </trkpt>
      <trkpt lat="43.0811560" lon="-0.5723460">
        <ele>455.8</ele>
        <time>2020-07-26T11:33:29Z</time>
      </trkpt>
      <trkpt lat="43.0811510" lon="-0.5722570">
        <ele>455.9</ele>
        <time>2020-07-26T11:33:31Z</time>
      </trkpt>
      <trkpt lat="43.0811430" lon="-0.5721180">
        <ele>456.0</ele>
        <time>2020-07-26T11:33:34Z</time>
      </trkpt>
      <trkpt lat="43.0811060" lon="-0.5719400">
        <ele>456.7</ele>
        <time>2020-07-26T11:33:38Z</time>
      </trkpt>
      <trkpt lat="43.0810970" lon="-0.5718950">
        <ele>456.8</ele>
        <time>2020-07-26T11:33:39Z</time>
      </trkpt>
      <trkpt lat="43.0810590" lon="-0.5716720">
        <ele>457.7</ele>
        <time>2020-07-26T11:33:44Z</time>
      </trkpt>
      <trkpt lat="43.0810500" lon="-0.5716310">
        <ele>457.9</ele>
        <time>2020-07-26T11:33:45Z</time>
      </trkpt>
      <trkpt lat="43.0809710" lon="-0.5713940">
        <ele>459.0</ele>
        <time>2020-07-26T11:33:51Z</time>
      </trkpt>
      <trkpt lat="43.0809540" lon="-0.5713560">
        <ele>459.3</ele>
        <time>2020-07-26T11:33:52Z</time>
      </trkpt>
      <trkpt lat="43.0808400" lon="-0.5711640">
        <ele>460.6</ele>
        <time>2020-07-26T11:33:58Z</time>
      </trkpt>
      <trkpt lat="43.0807970" lon="-0.5711000">
        <ele>461.1</ele>
        <time>2020-07-26T11:34:00Z</time>
      </trkpt>
      <trkpt lat="43.0807350" lon="-0.5710020">
        <ele>461.9</ele>
        <time>2020-07-26T11:34:03Z</time>
      </trkpt>
      <trkpt lat="43.0806510" lon="-0.5708730">
        <ele>463.0</ele>
        <time>2020-07-26T11:34:07Z</time>
      </trkpt>
      <trkpt lat="43.0806320" lon="-0.5708370">
        <ele>463.3</ele>
        <time>2020-07-26T11:34:08Z</time>
      </trkpt>
      <trkpt lat="43.0805980" lon="-0.5707600">
        <ele>463.8</ele>
        <time>2020-07-26T11:34:10Z</time>
      </trkpt>
      <trkpt lat="43.0805500" lon="-0.5705790">
        <ele>464.8</ele>
        <time>2020-07-26T11:34:14Z</time>
      </trkpt>
      <trkpt lat="43.0805380" lon="-0.5705300">
        <ele>465.0</ele>
        <time>2020-07-26T11:34:15Z</time>
      </trkpt>
      <trkpt lat="43.0805110" lon="-0.5703840">
        <ele>465.5</ele>
        <time>2020-07-26T11:34:18Z</time>
      </trkpt>
      <trkpt lat="43.0804980" lon="-0.5701330">
        <ele>466.3</ele>
        <time>2020-07-26T11:34:23Z</time>
      </trkpt>
      <trkpt lat="43.0804990" lon="-0.5700290">
        <ele>466.6</ele>
        <time>2020-07-26T11:34:25Z</time>
      </trkpt>
      <trkpt lat="43.0805380" lon="-0.5696810">
        <ele>467.7</ele>
        <time>2020-07-26T11:34:32Z</time>
      </trkpt>
      <trkpt lat="43.0805460" lon="-0.5695890">
        <ele>468.1</ele>
        <time>2020-07-26T11:34:34Z</time>
      </trkpt>
      <trkpt lat="43.0805400" lon="-0.5694070">
        <ele>468.8</ele>
        <time>2020-07-26T11:34:38Z</time>
      </trkpt>
      <trkpt lat="43.0805390" lon="-0.5693620">
        <ele>469.0</ele>
        <time>2020-07-26T11:34:39Z</time>
      </trkpt>
      <trkpt lat="43.0805150" lon="-0.5691420">
        <ele>470.1</ele>
        <time>2020-07-26T11:34:44Z</time>
      </trkpt>
      <trkpt lat="43.0805070" lon="-0.5691020">
        <ele>470.3</ele>
        <time>2020-07-26T11:34:45Z</time>
      </trkpt>
      <trkpt lat="43.0804600" lon="-0.5688370">
        <ele>471.6</ele>
        <time>2020-07-26T11:34:51Z</time>
      </trkpt>
      <trkpt lat="43.0804180" lon="-0.5686790">
        <ele>472.4</ele>
        <time>2020-07-26T11:34:55Z</time>
      </trkpt>
      <trkpt lat="43.0804050" lon="-0.5686400">
        <ele>472.6</ele>
        <time>2020-07-26T11:34:56Z</time>
      </trkpt>
      <trkpt lat="43.0803470" lon="-0.5684430">
        <ele>473.7</ele>
        <time>2020-07-26T11:35:01Z</time>
      </trkpt>
      <trkpt lat="43.0803260" lon="-0.5683690">
        <ele>474.1</ele>
        <time>2020-07-26T11:35:03Z</time>
      </trkpt>
      <trkpt lat="43.0802920" lon="-0.5682470">
        <ele>474.8</ele>
        <time>2020-07-26T11:35:06Z</time>
      </trkpt>
      <trkpt lat="43.0802460" lon="-0.5680840">
        <ele>475.9</ele>
        <time>2020-07-26T11:35:10Z</time>
      </trkpt>
      <trkpt lat="43.0801930" lon="-0.5678920">
        <ele>477.4</ele>
        <time>2020-07-26T11:35:15Z</time>
      </trkpt>
      <trkpt lat="43.0801430" lon="-0.5677830">
        <ele>478.3</ele>
        <time>2020-07-26T11:35:18Z</time>
      </trkpt>
      <trkpt lat="43.0801290" lon="-0.5677430">
        <ele>478.6</ele>
        <time>2020-07-26T11:35:19Z</time>
      </trkpt>
      <trkpt lat="43.0800820" lon="-0.5675840">
        <ele>479.7</ele>
        <time>2020-07-26T11:35:23Z</time>
      </trkpt>
      <trkpt lat="43.0800700" lon="-0.5674600">
        <ele>480.4</ele>
        <time>2020-07-26T11:35:26Z</time>
      </trkpt>
      <trkpt lat="43.0800670" lon="-0.5674200">
        <ele>480.7</ele>
        <time>2020-07-26T11:35:27Z</time>
      </trkpt>
      <trkpt lat="43.0800460" lon="-0.5672100">
        <ele>481.7</ele>
        <time>2020-07-26T11:35:32Z</time>
      </trkpt>
      <trkpt lat="43.0800450" lon="-0.5671260">
        <ele>482.1</ele>
        <time>2020-07-26T11:35:34Z</time>
      </trkpt>
      <trkpt lat="43.0800400" lon="-0.5669600">
        <ele>482.8</ele>
        <time>2020-07-26T11:35:38Z</time>
      </trkpt>
      <trkpt lat="43.0800460" lon="-0.5668370">
        <ele>483.2</ele>
        <time>2020-07-26T11:35:41Z</time>
      </trkpt>
      <trkpt lat="43.0800660" lon="-0.5666990">
        <ele>483.7</ele>
        <time>2020-07-26T11:35:44Z</time>
      </trkpt>
      <trkpt lat="43.0800980" lon="-0.5665480">
        <ele>484.1</ele>
        <time>2020-07-26T11:35:47Z</time>
      </trkpt>
      <trkpt lat="43.0801210" lon="-0.5663850">
        <ele>484.6</ele>
        <time>2020-07-26T11:35:50Z</time>
      </trkpt>
      <trkpt lat="43.0801390" lon="-0.5660970">
        <ele>485.1</ele>
        <time>2020-07-26T11:35:55Z</time>
      </trkpt>
      <trkpt lat="43.0801170" lon="-0.5656470">
        <ele>485.7</ele>
        <time>2020-07-26T11:36:02Z</time>
      </trkpt>
      <trkpt lat="43.0800360" lon="-0.5652650">
        <ele>486.3</ele>
        <time>2020-07-26T11:36:08Z</time>
      </trkpt>
      <trkpt lat="43.0800060" lon="-0.5651360">
        <ele>486.6</ele>
        <time>2020-07-26T11:36:10Z</time>
      </trkpt>
      <trkpt lat="43.0799390" lon="-0.5647530">
        <ele>487.5</ele>
        <time>2020-07-26T11:36:16Z</time>
      </trkpt>
      <trkpt lat="43.0799110" lon="-0.5645700">
        <ele>487.9</ele>
        <time>2020-07-26T11:36:19Z</time>
      </trkpt>
      <trkpt lat="43.0798580" lon="-0.5641750">
        <ele>489.3</ele>
        <time>2020-07-26T11:36:26Z</time>
      </trkpt>
      <trkpt lat="43.0798480" lon="-0.5641200">
        <ele>489.5</ele>
        <time>2020-07-26T11:36:27Z</time>
      </trkpt>
      <trkpt lat="43.0798000" lon="-0.5639060">
        <ele>490.4</ele>
        <time>2020-07-26T11:36:31Z</time>
      </trkpt>
      <trkpt lat="43.0799000" lon="-0.5637870">
        <ele>491.2</ele>
        <time>2020-07-26T11:36:33Z</time>
      </trkpt>
      <trkpt lat="43.0798670" lon="-0.5636550">
        <ele>491.7</ele>
        <time>2020-07-26T11:36:36Z</time>
      </trkpt>
      <trkpt lat="43.0798070" lon="-0.5635910">
        <ele>491.9</ele>
        <time>2020-07-26T11:36:38Z</time>
      </trkpt>
      <trkpt lat="43.0796860" lon="-0.5634920">
        <ele>492.5</ele>
        <time>2020-07-26T11:36:42Z</time>
      </trkpt>
      <trkpt lat="43.0795930" lon="-0.5634660">
        <ele>493.1</ele>
        <time>2020-07-26T11:36:45Z</time>
      </trkpt>
      <trkpt lat="43.0795190" lon="-0.5634590">
        <ele>493.5</ele>
        <time>2020-07-26T11:36:47Z</time>
      </trkpt>
      <trkpt lat="43.0794040" lon="-0.5634700">
        <ele>494.3</ele>
        <time>2020-07-26T11:36:50Z</time>
      </trkpt>
      <trkpt lat="43.0793260" lon="-0.5634730">
        <ele>494.8</ele>
        <time>2020-07-26T11:36:52Z</time>
      </trkpt>
      <trkpt lat="43.0792630" lon="-0.5635000">
        <ele>495.2</ele>
        <time>2020-07-26T11:36:54Z</time>
      </trkpt>
      <trkpt lat="43.0792350" lon="-0.5635180">
        <ele>495.4</ele>
        <time>2020-07-26T11:36:55Z</time>
      </trkpt>
      <trkpt lat="43.0791790" lon="-0.5635490">
        <ele>495.8</ele>
        <time>2020-07-26T11:36:57Z</time>
      </trkpt>
      <trkpt lat="43.0790620" lon="-0.5635640">
        <ele>496.4</ele>
        <time>2020-07-26T11:37:01Z</time>
      </trkpt>
      <trkpt lat="43.0790350" lon="-0.5635710">
        <ele>496.5</ele>
        <time>2020-07-26T11:37:02Z</time>
      </trkpt>
      <trkpt lat="43.0789470" lon="-0.5635570">
        <ele>497.0</ele>
        <time>2020-07-26T11:37:05Z</time>
      </trkpt>
      <trkpt lat="43.0788710" lon="-0.5634860">
        <ele>497.5</ele>
        <time>2020-07-26T11:37:07Z</time>
      </trkpt>
      <trkpt lat="43.0787240" lon="-0.5633160">
        <ele>498.6</ele>
        <time>2020-07-26T11:37:11Z</time>
      </trkpt>
      <trkpt lat="43.0786340" lon="-0.5632070">
        <ele>499.4</ele>
        <time>2020-07-26T11:37:14Z</time>
      </trkpt>
      <trkpt lat="43.0785840" lon="-0.5631340">
        <ele>499.8</ele>
        <time>2020-07-26T11:37:16Z</time>
      </trkpt>
      <trkpt lat="43.0785310" lon="-0.5630330">
        <ele>500.4</ele>
        <time>2020-07-26T11:37:19Z</time>
      </trkpt>
      <trkpt lat="43.0784800" lon="-0.5629300">
        <ele>500.9</ele>
        <time>2020-07-26T11:37:22Z</time>
      </trkpt>
      <trkpt lat="43.0784650" lon="-0.5628740">
        <ele>501.2</ele>
        <time>2020-07-26T11:37:24Z</time>
      </trkpt>
      <trkpt lat="43.0784610" lon="-0.5628430">
        <ele>501.4</ele>
        <time>2020-07-26T11:37:25Z</time>
      </trkpt>
      <trkpt lat="43.0784670" lon="-0.5628130">
        <ele>501.5</ele>
        <time>2020-07-26T11:37:26Z</time>
      </trkpt>
      <trkpt lat="43.0784560" lon="-0.5627510">
        <ele>501.8</ele>
        <time>2020-07-26T11:37:28Z</time>
      </trkpt>
      <trkpt lat="43.0784420" lon="-0.5627150">
        <ele>502.0</ele>
        <time>2020-07-26T11:37:29Z</time>
      </trkpt>
      <trkpt lat="43.0784050" lon="-0.5626170">
        <ele>502.4</ele>
        <time>2020-07-26T11:37:31Z</time>
      </trkpt>
      <trkpt lat="43.0783760" lon="-0.5624930">
        <ele>503.0</ele>
        <time>2020-07-26T11:37:33Z</time>
      </trkpt>
      <trkpt lat="43.0783740" lon="-0.5623820">
        <ele>503.5</ele>
        <time>2020-07-26T11:37:35Z</time>
      </trkpt>
      <trkpt lat="43.0783470" lon="-0.5622060">
        <ele>504.3</ele>
        <time>2020-07-26T11:37:39Z</time>
      </trkpt>
      <trkpt lat="43.0783400" lon="-0.5621680">
        <ele>504.5</ele>
        <time>2020-07-26T11:37:40Z</time>
      </trkpt>
      <trkpt lat="43.0783310" lon="-0.5620280">
        <ele>505.0</ele>
        <time>2020-07-26T11:37:43Z</time>
      </trkpt>
      <trkpt lat="43.0783070" lon="-0.5618950">
        <ele>505.5</ele>
        <time>2020-07-26T11:37:46Z</time>
      </trkpt>
      <trkpt lat="43.0782960" lon="-0.5617590">
        <ele>505.9</ele>
        <time>2020-07-26T11:37:49Z</time>
      </trkpt>
      <trkpt lat="43.0782850" lon="-0.5616650">
        <ele>506.3</ele>
        <time>2020-07-26T11:37:51Z</time>
      </trkpt>
      <trkpt lat="43.0782710" lon="-0.5615730">
        <ele>506.6</ele>
        <time>2020-07-26T11:37:53Z</time>
      </trkpt>
      <trkpt lat="43.0782630" lon="-0.5614830">
        <ele>506.9</ele>
        <time>2020-07-26T11:37:55Z</time>
      </trkpt>
      <trkpt lat="43.0782130" lon="-0.5612220">
        <ele>507.8</ele>
        <time>2020-07-26T11:38:01Z</time>
      </trkpt>
      <trkpt lat="43.0781490" lon="-0.5609610">
        <ele>508.8</ele>
        <time>2020-07-26T11:38:07Z</time>
      </trkpt>
      <trkpt lat="43.0781250" lon="-0.5608750">
        <ele>509.1</ele>
        <time>2020-07-26T11:38:09Z</time>
      </trkpt>
      <trkpt lat="43.0780730" lon="-0.5607460">
        <ele>509.6</ele>
        <time>2020-07-26T11:38:12Z</time>
      </trkpt>
      <trkpt lat="43.0779800" lon="-0.5605820">
        <ele>510.3</ele>
        <time>2020-07-26T11:38:16Z</time>
      </trkpt>
      <trkpt lat="43.0779200" lon="-0.5605030">
        <ele>510.7</ele>
        <time>2020-07-26T11:38:18Z</time>
      </trkpt>
      <trkpt lat="43.0777770" lon="-0.5603150">
        <ele>511.5</ele>
        <time>2020-07-26T11:38:23Z</time>
      </trkpt>
      <trkpt lat="43.0776300" lon="-0.5601890">
        <ele>512.1</ele>
        <time>2020-07-26T11:38:27Z</time>
      </trkpt>
      <trkpt lat="43.0774850" lon="-0.5600710">
        <ele>512.8</ele>
        <time>2020-07-26T11:38:31Z</time>
      </trkpt>
      <trkpt lat="43.0774170" lon="-0.5600100">
        <ele>513.1</ele>
        <time>2020-07-26T11:38:33Z</time>
      </trkpt>
      <trkpt lat="43.0772430" lon="-0.5598030">
        <ele>514.2</ele>
        <time>2020-07-26T11:38:39Z</time>
      </trkpt>
      <trkpt lat="43.0771160" lon="-0.5595650">
        <ele>515.3</ele>
        <time>2020-07-26T11:38:45Z</time>
      </trkpt>
      <trkpt lat="43.0770820" lon="-0.5594810">
        <ele>515.6</ele>
        <time>2020-07-26T11:38:47Z</time>
      </trkpt>
      <trkpt lat="43.0770320" lon="-0.5592990">
        <ele>516.3</ele>
        <time>2020-07-26T11:38:51Z</time>
      </trkpt>
      <trkpt lat="43.0770030" lon="-0.5591140">
        <ele>517.2</ele>
        <time>2020-07-26T11:38:55Z</time>
      </trkpt>
      <trkpt lat="43.0769970" lon="-0.5590670">
        <ele>517.4</ele>
        <time>2020-07-26T11:38:56Z</time>
      </trkpt>
      <trkpt lat="43.0769480" lon="-0.5588480">
        <ele>518.6</ele>
        <time>2020-07-26T11:39:01Z</time>
      </trkpt>
      <trkpt lat="43.0769150" lon="-0.5587230">
        <ele>519.2</ele>
        <time>2020-07-26T11:39:04Z</time>
      </trkpt>
      <trkpt lat="43.0768970" lon="-0.5586450">
        <ele>519.6</ele>
        <time>2020-07-26T11:39:06Z</time>
      </trkpt>
      <trkpt lat="43.0768590" lon="-0.5584750">
        <ele>520.5</ele>
        <time>2020-07-26T11:39:10Z</time>
      </trkpt>
      <trkpt lat="43.0768500" lon="-0.5584320">
        <ele>520.7</ele>
        <time>2020-07-26T11:39:11Z</time>
      </trkpt>
      <trkpt lat="43.0767900" lon="-0.5582280">
        <ele>521.9</ele>
        <time>2020-07-26T11:39:16Z</time>
      </trkpt>
      <trkpt lat="43.0767800" lon="-0.5581370">
        <ele>522.4</ele>
        <time>2020-07-26T11:39:18Z</time>
      </trkpt>
      <trkpt lat="43.0767600" lon="-0.5580090">
        <ele>523.2</ele>
        <time>2020-07-26T11:39:21Z</time>
      </trkpt>
      <trkpt lat="43.0767340" lon="-0.5578410">
        <ele>524.1</ele>
        <time>2020-07-26T11:39:25Z</time>
      </trkpt>
      <trkpt lat="43.0767330" lon="-0.5577980">
        <ele>524.3</ele>
        <time>2020-07-26T11:39:26Z</time>
      </trkpt>
      <trkpt lat="43.0767190" lon="-0.5576320">
        <ele>525.4</ele>
        <time>2020-07-26T11:39:30Z</time>
      </trkpt>
      <trkpt lat="43.0767220" lon="-0.5575010">
        <ele>526.2</ele>
        <time>2020-07-26T11:39:33Z</time>
      </trkpt>
      <trkpt lat="43.0767180" lon="-0.5574610">
        <ele>526.5</ele>
        <time>2020-07-26T11:39:34Z</time>
      </trkpt>
      <trkpt lat="43.0766970" lon="-0.5573090">
        <ele>527.6</ele>
        <time>2020-07-26T11:39:38Z</time>
      </trkpt>
      <trkpt lat="43.0766960" lon="-0.5571880">
        <ele>528.5</ele>
        <time>2020-07-26T11:39:41Z</time>
      </trkpt>
      <trkpt lat="43.0766960" lon="-0.5571450">
        <ele>528.8</ele>
        <time>2020-07-26T11:39:42Z</time>
      </trkpt>
      <trkpt lat="43.0766990" lon="-0.5570130">
        <ele>529.8</ele>
        <time>2020-07-26T11:39:45Z</time>
      </trkpt>
      <trkpt lat="43.0766870" lon="-0.5568550">
        <ele>530.9</ele>
        <time>2020-07-26T11:39:49Z</time>
      </trkpt>
      <trkpt lat="43.0766820" lon="-0.5568160">
        <ele>531.2</ele>
        <time>2020-07-26T11:39:50Z</time>
      </trkpt>
      <trkpt lat="43.0766730" lon="-0.5566550">
        <ele>532.2</ele>
        <time>2020-07-26T11:39:54Z</time>
      </trkpt>
      <trkpt lat="43.0766460" lon="-0.5565040">
        <ele>533.0</ele>
        <time>2020-07-26T11:39:58Z</time>
      </trkpt>
      <trkpt lat="43.0766360" lon="-0.5564680">
        <ele>533.3</ele>
        <time>2020-07-26T11:39:59Z</time>
      </trkpt>
      <trkpt lat="43.0766010" lon="-0.5563620">
        <ele>533.9</ele>
        <time>2020-07-26T11:40:02Z</time>
      </trkpt>
      <trkpt lat="43.0765210" lon="-0.5561890">
        <ele>535.0</ele>
        <time>2020-07-26T11:40:07Z</time>
      </trkpt>
      <trkpt lat="43.0764580" lon="-0.5560150">
        <ele>536.0</ele>
        <time>2020-07-26T11:40:12Z</time>
      </trkpt>
      <trkpt lat="43.0764470" lon="-0.5559760">
        <ele>536.2</ele>
        <time>2020-07-26T11:40:13Z</time>
      </trkpt>
      <trkpt lat="43.0764060" lon="-0.5557240">
        <ele>537.5</ele>
        <time>2020-07-26T11:40:19Z</time>
      </trkpt>
      <trkpt lat="43.0764220" lon="-0.5556230">
        <ele>538.0</ele>
        <time>2020-07-26T11:40:21Z</time>
      </trkpt>
      <trkpt lat="43.0764220" lon="-0.5554420">
        <ele>539.0</ele>
        <time>2020-07-26T11:40:25Z</time>
      </trkpt>
      <trkpt lat="43.0764090" lon="-0.5552690">
        <ele>540.0</ele>
        <time>2020-07-26T11:40:29Z</time>
      </trkpt>
      <trkpt lat="43.0763940" lon="-0.5550460">
        <ele>541.2</ele>
        <time>2020-07-26T11:40:34Z</time>
      </trkpt>
      <trkpt lat="43.0763870" lon="-0.5550020">
        <ele>541.5</ele>
        <time>2020-07-26T11:40:35Z</time>
      </trkpt>
      <trkpt lat="43.0763440" lon="-0.5548050">
        <ele>542.7</ele>
        <time>2020-07-26T11:40:40Z</time>
      </trkpt>
      <trkpt lat="43.0763130" lon="-0.5546930">
        <ele>543.4</ele>
        <time>2020-07-26T11:40:43Z</time>
      </trkpt>
      <trkpt lat="43.0762780" lon="-0.5545790">
        <ele>544.1</ele>
        <time>2020-07-26T11:40:46Z</time>
      </trkpt>
      <trkpt lat="43.0762250" lon="-0.5544290">
        <ele>545.0</ele>
        <time>2020-07-26T11:40:50Z</time>
      </trkpt>
      <trkpt lat="43.0762090" lon="-0.5543930">
        <ele>545.3</ele>
        <time>2020-07-26T11:40:51Z</time>
      </trkpt>
      <trkpt lat="43.0761150" lon="-0.5541850">
        <ele>546.6</ele>
        <time>2020-07-26T11:40:57Z</time>
      </trkpt>
      <trkpt lat="43.0760810" lon="-0.5540710">
        <ele>547.3</ele>
        <time>2020-07-26T11:41:00Z</time>
      </trkpt>
      <trkpt lat="43.0760610" lon="-0.5540420">
        <ele>547.6</ele>
        <time>2020-07-26T11:41:01Z</time>
      </trkpt>
      <trkpt lat="43.0759570" lon="-0.5538830">
        <ele>549.0</ele>
        <time>2020-07-26T11:41:06Z</time>
      </trkpt>
      <trkpt lat="43.0759390" lon="-0.5538510">
        <ele>549.3</ele>
        <time>2020-07-26T11:41:07Z</time>
      </trkpt>
      <trkpt lat="43.0758620" lon="-0.5537290">
        <ele>550.4</ele>
        <time>2020-07-26T11:41:11Z</time>
      </trkpt>
      <trkpt lat="43.0758370" lon="-0.5536630">
        <ele>550.9</ele>
        <time>2020-07-26T11:41:13Z</time>
      </trkpt>
      <trkpt lat="43.0758200" lon="-0.5536330">
        <ele>551.2</ele>
        <time>2020-07-26T11:41:14Z</time>
      </trkpt>
      <trkpt lat="43.0758050" lon="-0.5536000">
        <ele>551.5</ele>
        <time>2020-07-26T11:41:15Z</time>
      </trkpt>
      <trkpt lat="43.0757030" lon="-0.5535070">
        <ele>552.6</ele>
        <time>2020-07-26T11:41:19Z</time>
      </trkpt>
      <trkpt lat="43.0756760" lon="-0.5534870">
        <ele>552.8</ele>
        <time>2020-07-26T11:41:20Z</time>
      </trkpt>
      <trkpt lat="43.0755870" lon="-0.5534240">
        <ele>553.7</ele>
        <time>2020-07-26T11:41:23Z</time>
      </trkpt>
      <trkpt lat="43.0754710" lon="-0.5533330">
        <ele>554.9</ele>
        <time>2020-07-26T11:41:27Z</time>
      </trkpt>
      <trkpt lat="43.0753950" lon="-0.5532530">
        <ele>555.7</ele>
        <time>2020-07-26T11:41:30Z</time>
      </trkpt>
      <trkpt lat="43.0753110" lon="-0.5531700">
        <ele>556.5</ele>
        <time>2020-07-26T11:41:33Z</time>
      </trkpt>
      <trkpt lat="43.0752550" lon="-0.5530740">
        <ele>557.2</ele>
        <time>2020-07-26T11:41:36Z</time>
      </trkpt>
      <trkpt lat="43.0752100" lon="-0.5530070">
        <ele>557.6</ele>
        <time>2020-07-26T11:41:38Z</time>
      </trkpt>
      <trkpt lat="43.0751060" lon="-0.5528430">
        <ele>558.7</ele>
        <time>2020-07-26T11:41:43Z</time>
      </trkpt>
      <trkpt lat="43.0750970" lon="-0.5527570">
        <ele>559.1</ele>
        <time>2020-07-26T11:41:45Z</time>
      </trkpt>
      <trkpt lat="43.0750630" lon="-0.5526390">
        <ele>559.8</ele>
        <time>2020-07-26T11:41:48Z</time>
      </trkpt>
      <trkpt lat="43.0750500" lon="-0.5525080">
        <ele>560.4</ele>
        <time>2020-07-26T11:41:51Z</time>
      </trkpt>
      <trkpt lat="43.0750380" lon="-0.5523800">
        <ele>561.1</ele>
        <time>2020-07-26T11:41:54Z</time>
      </trkpt>
      <trkpt lat="43.0750400" lon="-0.5521500">
        <ele>562.2</ele>
        <time>2020-07-26T11:41:59Z</time>
      </trkpt>
      <trkpt lat="43.0750350" lon="-0.5521120">
        <ele>562.4</ele>
        <time>2020-07-26T11:42:00Z</time>
      </trkpt>
      <trkpt lat="43.0750480" lon="-0.5519440">
        <ele>563.3</ele>
        <time>2020-07-26T11:42:04Z</time>
      </trkpt>
      <trkpt lat="43.0750600" lon="-0.5518160">
        <ele>564.0</ele>
        <time>2020-07-26T11:42:07Z</time>
      </trkpt>
      <trkpt lat="43.0750690" lon="-0.5517710">
        <ele>564.2</ele>
        <time>2020-07-26T11:42:08Z</time>
      </trkpt>
      <trkpt lat="43.0751170" lon="-0.5515290">
        <ele>565.7</ele>
        <time>2020-07-26T11:42:14Z</time>
      </trkpt>
      <trkpt lat="43.0751290" lon="-0.5514890">
        <ele>565.9</ele>
        <time>2020-07-26T11:42:15Z</time>
      </trkpt>
      <trkpt lat="43.0751500" lon="-0.5513440">
        <ele>566.8</ele>
        <time>2020-07-26T11:42:19Z</time>
      </trkpt>
      <trkpt lat="43.0751500" lon="-0.5512010">
        <ele>567.8</ele>
        <time>2020-07-26T11:42:23Z</time>
      </trkpt>
      <trkpt lat="43.0751520" lon="-0.5511620">
        <ele>568.1</ele>
        <time>2020-07-26T11:42:24Z</time>
      </trkpt>
      <trkpt lat="43.0751680" lon="-0.5509760">
        <ele>569.4</ele>
        <time>2020-07-26T11:42:29Z</time>
      </trkpt>
      <trkpt lat="43.0751770" lon="-0.5509120">
        <ele>569.9</ele>
        <time>2020-07-26T11:42:31Z</time>
      </trkpt>
      <trkpt lat="43.0751860" lon="-0.5508460">
        <ele>570.4</ele>
        <time>2020-07-26T11:42:33Z</time>
      </trkpt>
      <trkpt lat="43.0751820" lon="-0.5506980">
        <ele>571.6</ele>
        <time>2020-07-26T11:42:37Z</time>
      </trkpt>
      <trkpt lat="43.0751780" lon="-0.5505360">
        <ele>572.8</ele>
        <time>2020-07-26T11:42:41Z</time>
      </trkpt>
      <trkpt lat="43.0751720" lon="-0.5504940">
        <ele>573.1</ele>
        <time>2020-07-26T11:42:42Z</time>
      </trkpt>
      <trkpt lat="43.0751440" lon="-0.5503380">
        <ele>574.3</ele>
        <time>2020-07-26T11:42:46Z</time>
      </trkpt>
      <trkpt lat="43.0751350" lon="-0.5502200">
        <ele>575.1</ele>
        <time>2020-07-26T11:42:49Z</time>
      </trkpt>
      <trkpt lat="43.0751310" lon="-0.5501840">
        <ele>575.4</ele>
        <time>2020-07-26T11:42:50Z</time>
      </trkpt>
      <trkpt lat="43.0751130" lon="-0.5500220">
        <ele>576.6</ele>
        <time>2020-07-26T11:42:54Z</time>
      </trkpt>
      <trkpt lat="43.0750900" lon="-0.5499010">
        <ele>577.5</ele>
        <time>2020-07-26T11:42:57Z</time>
      </trkpt>
      <trkpt lat="43.0750650" lon="-0.5497290">
        <ele>579.0</ele>
        <time>2020-07-26T11:43:02Z</time>
      </trkpt>
      <trkpt lat="43.0750630" lon="-0.5497000">
        <ele>579.3</ele>
        <time>2020-07-26T11:43:03Z</time>
      </trkpt>
      <trkpt lat="43.0750430" lon="-0.5495630">
        <ele>580.4</ele>
        <time>2020-07-26T11:43:07Z</time>
      </trkpt>
      <trkpt lat="43.0750430" lon="-0.5494960">
        <ele>580.9</ele>
        <time>2020-07-26T11:43:09Z</time>
      </trkpt>
      <trkpt lat="43.0750330" lon="-0.5494300">
        <ele>581.4</ele>
        <time>2020-07-26T11:43:11Z</time>
      </trkpt>
      <trkpt lat="43.0750250" lon="-0.5492810">
        <ele>582.6</ele>
        <time>2020-07-26T11:43:15Z</time>
      </trkpt>
      <trkpt lat="43.0750450" lon="-0.5492030">
        <ele>583.2</ele>
        <time>2020-07-26T11:43:17Z</time>
      </trkpt>
      <trkpt lat="43.0750610" lon="-0.5491150">
        <ele>583.9</ele>
        <time>2020-07-26T11:43:19Z</time>
      </trkpt>
      <trkpt lat="43.0751080" lon="-0.5489930">
        <ele>584.9</ele>
        <time>2020-07-26T11:43:22Z</time>
      </trkpt>
      <trkpt lat="43.0751470" lon="-0.5488000">
        <ele>586.5</ele>
        <time>2020-07-26T11:43:27Z</time>
      </trkpt>
      <trkpt lat="43.0751200" lon="-0.5486950">
        <ele>587.4</ele>
        <time>2020-07-26T11:43:30Z</time>
      </trkpt>
      <trkpt lat="43.0751140" lon="-0.5486640">
        <ele>587.7</ele>
        <time>2020-07-26T11:43:31Z</time>
      </trkpt>
      <trkpt lat="43.0750890" lon="-0.5485230">
        <ele>588.9</ele>
        <time>2020-07-26T11:43:35Z</time>
      </trkpt>
      <trkpt lat="43.0750840" lon="-0.5484550">
        <ele>589.5</ele>
        <time>2020-07-26T11:43:37Z</time>
      </trkpt>
      <trkpt lat="43.0750680" lon="-0.5483840">
        <ele>590.1</ele>
        <time>2020-07-26T11:43:39Z</time>
      </trkpt>
      <trkpt lat="43.0750410" lon="-0.5482550">
        <ele>591.2</ele>
        <time>2020-07-26T11:43:43Z</time>
      </trkpt>
      <trkpt lat="43.0750340" lon="-0.5482200">
        <ele>591.5</ele>
        <time>2020-07-26T11:43:44Z</time>
      </trkpt>
      <trkpt lat="43.0749990" lon="-0.5481130">
        <ele>592.5</ele>
        <time>2020-07-26T11:43:47Z</time>
      </trkpt>
      <trkpt lat="43.0749880" lon="-0.5480270">
        <ele>593.3</ele>
        <time>2020-07-26T11:43:50Z</time>
      </trkpt>
      <trkpt lat="43.0749830" lon="-0.5479510">
        <ele>594.0</ele>
        <time>2020-07-26T11:43:53Z</time>
      </trkpt>
      <trkpt lat="43.0749610" lon="-0.5478520">
        <ele>594.9</ele>
        <time>2020-07-26T11:43:56Z</time>
      </trkpt>
      <trkpt lat="43.0749420" lon="-0.5477840">
        <ele>595.5</ele>
        <time>2020-07-26T11:43:58Z</time>
      </trkpt>
      <trkpt lat="43.0749660" lon="-0.5477260">
        <ele>596.1</ele>
        <time>2020-07-26T11:44:00Z</time>
      </trkpt>
      <trkpt lat="43.0750030" lon="-0.5476210">
        <ele>597.1</ele>
        <time>2020-07-26T11:44:04Z</time>
      </trkpt>
      <trkpt lat="43.0750150" lon="-0.5475530">
        <ele>597.7</ele>
        <time>2020-07-26T11:44:06Z</time>
      </trkpt>
      <trkpt lat="43.0750170" lon="-0.5474810">
        <ele>598.3</ele>
        <time>2020-07-26T11:44:08Z</time>
      </trkpt>
      <trkpt lat="43.0750240" lon="-0.5473590">
        <ele>599.5</ele>
        <time>2020-07-26T11:44:12Z</time>
      </trkpt>
      <trkpt lat="43.0750220" lon="-0.5472370">
        <ele>600.6</ele>
        <time>2020-07-26T11:44:16Z</time>
      </trkpt>
      <trkpt lat="43.0750220" lon="-0.5471530">
        <ele>601.3</ele>
        <time>2020-07-26T11:44:19Z</time>
      </trkpt>
      <trkpt lat="43.0750120" lon="-0.5470880">
        <ele>602.0</ele>
        <time>2020-07-26T11:44:21Z</time>
      </trkpt>
      <trkpt lat="43.0750080" lon="-0.5470280">
        <ele>602.5</ele>
        <time>2020-07-26T11:44:23Z</time>
      </trkpt>
      <trkpt lat="43.0749990" lon="-0.5468940">
        <ele>603.8</ele>
        <time>2020-07-26T11:44:27Z</time>
      </trkpt>
      <trkpt lat="43.0749930" lon="-0.5468380">
        <ele>604.3</ele>
        <time>2020-07-26T11:44:29Z</time>
      </trkpt>
      <trkpt lat="43.0749740" lon="-0.5467670">
        <ele>605.0</ele>
        <time>2020-07-26T11:44:31Z</time>
      </trkpt>
      <trkpt lat="43.0749650" lon="-0.5466320">
        <ele>606.2</ele>
        <time>2020-07-26T11:44:35Z</time>
      </trkpt>
      <trkpt lat="43.0749650" lon="-0.5465770">
        <ele>606.7</ele>
        <time>2020-07-26T11:44:37Z</time>
      </trkpt>
      <trkpt lat="43.0749650" lon="-0.5465220">
        <ele>607.2</ele>
        <time>2020-07-26T11:44:39Z</time>
      </trkpt>
      <trkpt lat="43.0749530" lon="-0.5463960">
        <ele>608.3</ele>
        <time>2020-07-26T11:44:43Z</time>
      </trkpt>
      <trkpt lat="43.0749460" lon="-0.5463670">
        <ele>608.5</ele>
        <time>2020-07-26T11:44:44Z</time>
      </trkpt>
      <trkpt lat="43.0749210" lon="-0.5462740">
        <ele>609.4</ele>
        <time>2020-07-26T11:44:47Z</time>
      </trkpt>
      <trkpt lat="43.0748930" lon="-0.5461860">
        <ele>610.2</ele>
        <time>2020-07-26T11:44:50Z</time>
      </trkpt>
      <trkpt lat="43.0748740" lon="-0.5461310">
        <ele>610.7</ele>
        <time>2020-07-26T11:44:52Z</time>
      </trkpt>
      <trkpt lat="43.0748430" lon="-0.5460600">
        <ele>611.4</ele>
        <time>2020-07-26T11:44:54Z</time>
      </trkpt>
      <trkpt lat="43.0747870" lon="-0.5459250">
        <ele>612.8</ele>
        <time>2020-07-26T11:44:58Z</time>
      </trkpt>
      <trkpt lat="43.0747710" lon="-0.5458910">
        <ele>613.1</ele>
        <time>2020-07-26T11:44:59Z</time>
      </trkpt>
      <trkpt lat="43.0747440" lon="-0.5458260">
        <ele>613.7</ele>
        <time>2020-07-26T11:45:01Z</time>
      </trkpt>
      <trkpt lat="43.0746870" lon="-0.5457240">
        <ele>614.8</ele>
        <time>2020-07-26T11:45:04Z</time>
      </trkpt>
      <trkpt lat="43.0746400" lon="-0.5456540">
        <ele>615.6</ele>
        <time>2020-07-26T11:45:06Z</time>
      </trkpt>
      <trkpt lat="43.0746140" lon="-0.5455860">
        <ele>616.3</ele>
        <time>2020-07-26T11:45:08Z</time>
      </trkpt>
      <trkpt lat="43.0745840" lon="-0.5454540">
        <ele>617.5</ele>
        <time>2020-07-26T11:45:12Z</time>
      </trkpt>
      <trkpt lat="43.0745780" lon="-0.5454210">
        <ele>617.8</ele>
        <time>2020-07-26T11:45:13Z</time>
      </trkpt>
      <trkpt lat="43.0745660" lon="-0.5453260">
        <ele>618.6</ele>
        <time>2020-07-26T11:45:16Z</time>
      </trkpt>
      <trkpt lat="43.0745420" lon="-0.5452020">
        <ele>619.7</ele>
        <time>2020-07-26T11:45:20Z</time>
      </trkpt>
      <trkpt lat="43.0745390" lon="-0.5451420">
        <ele>620.3</ele>
        <time>2020-07-26T11:45:22Z</time>
      </trkpt>
      <trkpt lat="43.0745320" lon="-0.5450840">
        <ele>620.8</ele>
        <time>2020-07-26T11:45:24Z</time>
      </trkpt>
      <trkpt lat="43.0745300" lon="-0.5449410">
        <ele>622.2</ele>
        <time>2020-07-26T11:45:29Z</time>
      </trkpt>
      <trkpt lat="43.0745370" lon="-0.5448540">
        <ele>623.1</ele>
        <time>2020-07-26T11:45:32Z</time>
      </trkpt>
      <trkpt lat="43.0745420" lon="-0.5448240">
        <ele>623.4</ele>
        <time>2020-07-26T11:45:33Z</time>
      </trkpt>
      <trkpt lat="43.0745370" lon="-0.5446860">
        <ele>624.7</ele>
        <time>2020-07-26T11:45:38Z</time>
      </trkpt>
      <trkpt lat="43.0745400" lon="-0.5446590">
        <ele>624.9</ele>
        <time>2020-07-26T11:45:39Z</time>
      </trkpt>
      <trkpt lat="43.0745520" lon="-0.5445700">
        <ele>625.8</ele>
        <time>2020-07-26T11:45:42Z</time>
      </trkpt>
      <trkpt lat="43.0745570" lon="-0.5445140">
        <ele>626.3</ele>
        <time>2020-07-26T11:45:44Z</time>
      </trkpt>
      <trkpt lat="43.0745760" lon="-0.5443980">
        <ele>627.4</ele>
        <time>2020-07-26T11:45:48Z</time>
      </trkpt>
      <trkpt lat="43.0745780" lon="-0.5443710">
        <ele>627.7</ele>
        <time>2020-07-26T11:45:49Z</time>
      </trkpt>
      <trkpt lat="43.0745940" lon="-0.5442420">
        <ele>628.9</ele>
        <time>2020-07-26T11:45:54Z</time>
      </trkpt>
      <trkpt lat="43.0746050" lon="-0.5442150">
        <ele>629.2</ele>
        <time>2020-07-26T11:45:55Z</time>
      </trkpt>
      <trkpt lat="43.0746260" lon="-0.5440960">
        <ele>630.4</ele>
        <time>2020-07-26T11:45:59Z</time>
      </trkpt>
      <trkpt lat="43.0746250" lon="-0.5439770">
        <ele>631.5</ele>
        <time>2020-07-26T11:46:03Z</time>
      </trkpt>
      <trkpt lat="43.0746130" lon="-0.5438580">
        <ele>632.7</ele>
        <time>2020-07-26T11:46:07Z</time>
      </trkpt>
      <trkpt lat="43.0745930" lon="-0.5437760">
        <ele>633.5</ele>
        <time>2020-07-26T11:46:11Z</time>
      </trkpt>
      <trkpt lat="43.0745620" lon="-0.5437050">
        <ele>634.3</ele>
        <time>2020-07-26T11:46:14Z</time>
      </trkpt>
      <trkpt lat="43.0745150" lon="-0.5435990">
        <ele>635.5</ele>
        <time>2020-07-26T11:46:18Z</time>
      </trkpt>
      <trkpt lat="43.0744890" lon="-0.5435500">
        <ele>636.0</ele>
        <time>2020-07-26T11:46:20Z</time>
      </trkpt>
      <trkpt lat="43.0744700" lon="-0.5434960">
        <ele>636.6</ele>
        <time>2020-07-26T11:46:22Z</time>
      </trkpt>
      <trkpt lat="43.0744240" lon="-0.5433960">
        <ele>637.6</ele>
        <time>2020-07-26T11:46:26Z</time>
      </trkpt>
      <trkpt lat="43.0744030" lon="-0.5433470">
        <ele>638.1</ele>
        <time>2020-07-26T11:46:28Z</time>
      </trkpt>
      <trkpt lat="43.0743680" lon="-0.5432970">
        <ele>638.7</ele>
        <time>2020-07-26T11:46:30Z</time>
      </trkpt>
      <trkpt lat="43.0743240" lon="-0.5432140">
        <ele>639.6</ele>
        <time>2020-07-26T11:46:33Z</time>
      </trkpt>
      <trkpt lat="43.0743160" lon="-0.5431830">
        <ele>639.9</ele>
        <time>2020-07-26T11:46:34Z</time>
      </trkpt>
      <trkpt lat="43.0743150" lon="-0.5430580">
        <ele>640.9</ele>
        <time>2020-07-26T11:46:37Z</time>
      </trkpt>
      <trkpt lat="43.0743530" lon="-0.5428890">
        <ele>642.3</ele>
        <time>2020-07-26T11:46:41Z</time>
      </trkpt>
      <trkpt lat="43.0743630" lon="-0.5428510">
        <ele>642.6</ele>
        <time>2020-07-26T11:46:42Z</time>
      </trkpt>
      <trkpt lat="43.0743880" lon="-0.5427450">
        <ele>643.5</ele>
        <time>2020-07-26T11:46:45Z</time>
      </trkpt>
      <trkpt lat="43.0744010" lon="-0.5426510">
        <ele>644.2</ele>
        <time>2020-07-26T11:46:48Z</time>
      </trkpt>
      <trkpt lat="43.0744120" lon="-0.5425600">
        <ele>644.9</ele>
        <time>2020-07-26T11:46:51Z</time>
      </trkpt>
      <trkpt lat="43.0744220" lon="-0.5424990">
        <ele>645.4</ele>
        <time>2020-07-26T11:46:53Z</time>
      </trkpt>
      <trkpt lat="43.0744440" lon="-0.5424000">
        <ele>646.2</ele>
        <time>2020-07-26T11:46:56Z</time>
      </trkpt>
      <trkpt lat="43.0744810" lon="-0.5423320">
        <ele>646.9</ele>
        <time>2020-07-26T11:46:58Z</time>
      </trkpt>
      <trkpt lat="43.0745010" lon="-0.5422720">
        <ele>647.5</ele>
        <time>2020-07-26T11:47:00Z</time>
      </trkpt>
      <trkpt lat="43.0745050" lon="-0.5422140">
        <ele>648.0</ele>
        <time>2020-07-26T11:47:02Z</time>
      </trkpt>
      <trkpt lat="43.0745280" lon="-0.5420620">
        <ele>649.4</ele>
        <time>2020-07-26T11:47:07Z</time>
      </trkpt>
      <trkpt lat="43.0745250" lon="-0.5420060">
        <ele>649.9</ele>
        <time>2020-07-26T11:47:09Z</time>
      </trkpt>
      <trkpt lat="43.0745470" lon="-0.5418910">
        <ele>651.1</ele>
        <time>2020-07-26T11:47:13Z</time>
      </trkpt>
      <trkpt lat="43.0745540" lon="-0.5418350">
        <ele>651.6</ele>
        <time>2020-07-26T11:47:15Z</time>
      </trkpt>
      <trkpt lat="43.0745510" lon="-0.5417750">
        <ele>652.2</ele>
        <time>2020-07-26T11:47:17Z</time>
      </trkpt>
      <trkpt lat="43.0745530" lon="-0.5416710">
        <ele>653.3</ele>
        <time>2020-07-26T11:47:21Z</time>
      </trkpt>
      <trkpt lat="43.0745500" lon="-0.5416440">
        <ele>653.6</ele>
        <time>2020-07-26T11:47:22Z</time>
      </trkpt>
      <trkpt lat="43.0745490" lon="-0.5415770">
        <ele>654.2</ele>
        <time>2020-07-26T11:47:25Z</time>
      </trkpt>
      <trkpt lat="43.0745390" lon="-0.5415090">
        <ele>654.9</ele>
        <time>2020-07-26T11:47:28Z</time>
      </trkpt>
      <trkpt lat="43.0745090" lon="-0.5413820">
        <ele>656.3</ele>
        <time>2020-07-26T11:47:32Z</time>
      </trkpt>
      <trkpt lat="43.0744920" lon="-0.5413250">
        <ele>656.9</ele>
        <time>2020-07-26T11:47:34Z</time>
      </trkpt>
      <trkpt lat="43.0744750" lon="-0.5412710">
        <ele>657.5</ele>
        <time>2020-07-26T11:47:36Z</time>
      </trkpt>
      <trkpt lat="43.0744560" lon="-0.5411950">
        <ele>658.3</ele>
        <time>2020-07-26T11:47:39Z</time>
      </trkpt>
      <trkpt lat="43.0744450" lon="-0.5411650">
        <ele>658.6</ele>
        <time>2020-07-26T11:47:40Z</time>
      </trkpt>
      <trkpt lat="43.0744100" lon="-0.5410880">
        <ele>659.5</ele>
        <time>2020-07-26T11:47:43Z</time>
      </trkpt>
      <trkpt lat="43.0743760" lon="-0.5410100">
        <ele>660.3</ele>
        <time>2020-07-26T11:47:46Z</time>
      </trkpt>
      <trkpt lat="43.0743660" lon="-0.5409900">
        <ele>660.5</ele>
        <time>2020-07-26T11:47:47Z</time>
      </trkpt>
      <trkpt lat="43.0743220" lon="-0.5408680">
        <ele>661.8</ele>
        <time>2020-07-26T11:47:52Z</time>
      </trkpt>
      <trkpt lat="43.0743090" lon="-0.5408340">
        <ele>662.2</ele>
        <time>2020-07-26T11:47:53Z</time>
      </trkpt>
      <trkpt lat="43.0742710" lon="-0.5407490">
        <ele>663.1</ele>
        <time>2020-07-26T11:47:56Z</time>
      </trkpt>
      <trkpt lat="43.0742310" lon="-0.5406490">
        <ele>664.1</ele>
        <time>2020-07-26T11:48:00Z</time>
      </trkpt>
      <trkpt lat="43.0742190" lon="-0.5406270">
        <ele>664.4</ele>
        <time>2020-07-26T11:48:01Z</time>
      </trkpt>
      <trkpt lat="43.0741830" lon="-0.5405540">
        <ele>665.1</ele>
        <time>2020-07-26T11:48:04Z</time>
      </trkpt>
      <trkpt lat="43.0741520" lon="-0.5404870">
        <ele>665.8</ele>
        <time>2020-07-26T11:48:07Z</time>
      </trkpt>
      <trkpt lat="43.0741260" lon="-0.5404360">
        <ele>666.3</ele>
        <time>2020-07-26T11:48:09Z</time>
      </trkpt>
      <trkpt lat="43.0740970" lon="-0.5403870">
        <ele>666.8</ele>
        <time>2020-07-26T11:48:11Z</time>
      </trkpt>
      <trkpt lat="43.0740200" lon="-0.5402660">
        <ele>668.2</ele>
        <time>2020-07-26T11:48:16Z</time>
      </trkpt>
      <trkpt lat="43.0740050" lon="-0.5402400">
        <ele>668.4</ele>
        <time>2020-07-26T11:48:17Z</time>
      </trkpt>
      <trkpt lat="43.0739170" lon="-0.5400960">
        <ele>670.0</ele>
        <time>2020-07-26T11:48:23Z</time>
      </trkpt>
      <trkpt lat="43.0738910" lon="-0.5400440">
        <ele>670.5</ele>
        <time>2020-07-26T11:48:25Z</time>
      </trkpt>
      <trkpt lat="43.0738500" lon="-0.5399680">
        <ele>671.2</ele>
        <time>2020-07-26T11:48:28Z</time>
      </trkpt>
      <trkpt lat="43.0737880" lon="-0.5398430">
        <ele>672.3</ele>
        <time>2020-07-26T11:48:33Z</time>
      </trkpt>
      <trkpt lat="43.0737360" lon="-0.5397430">
        <ele>673.3</ele>
        <time>2020-07-26T11:48:37Z</time>
      </trkpt>
      <trkpt lat="43.0736660" lon="-0.5396220">
        <ele>674.5</ele>
        <time>2020-07-26T11:48:42Z</time>
      </trkpt>
      <trkpt lat="43.0736360" lon="-0.5395740">
        <ele>675.0</ele>
        <time>2020-07-26T11:48:44Z</time>
      </trkpt>
      <trkpt lat="43.0735890" lon="-0.5395050">
        <ele>675.8</ele>
        <time>2020-07-26T11:48:47Z</time>
      </trkpt>
      <trkpt lat="43.0735170" lon="-0.5393920">
        <ele>677.1</ele>
        <time>2020-07-26T11:48:52Z</time>
      </trkpt>
      <trkpt lat="43.0735050" lon="-0.5393670">
        <ele>677.4</ele>
        <time>2020-07-26T11:48:53Z</time>
      </trkpt>
      <trkpt lat="43.0734800" lon="-0.5392830">
        <ele>678.2</ele>
        <time>2020-07-26T11:48:56Z</time>
      </trkpt>
      <trkpt lat="43.0734310" lon="-0.5391840">
        <ele>679.4</ele>
        <time>2020-07-26T11:49:00Z</time>
      </trkpt>
      <trkpt lat="43.0734190" lon="-0.5391570">
        <ele>679.7</ele>
        <time>2020-07-26T11:49:01Z</time>
      </trkpt>
      <trkpt lat="43.0733860" lon="-0.5390720">
        <ele>680.7</ele>
        <time>2020-07-26T11:49:04Z</time>
      </trkpt>
      <trkpt lat="43.0733500" lon="-0.5389680">
        <ele>682.0</ele>
        <time>2020-07-26T11:49:08Z</time>
      </trkpt>
      <trkpt lat="43.0733450" lon="-0.5389410">
        <ele>682.3</ele>
        <time>2020-07-26T11:49:09Z</time>
      </trkpt>
      <trkpt lat="43.0733360" lon="-0.5388900">
        <ele>682.8</ele>
        <time>2020-07-26T11:49:11Z</time>
      </trkpt>
      <trkpt lat="43.0733160" lon="-0.5388140">
        <ele>683.6</ele>
        <time>2020-07-26T11:49:14Z</time>
      </trkpt>
      <trkpt lat="43.0732960" lon="-0.5387360">
        <ele>684.5</ele>
        <time>2020-07-26T11:49:17Z</time>
      </trkpt>
      <trkpt lat="43.0732530" lon="-0.5386460">
        <ele>685.5</ele>
        <time>2020-07-26T11:49:21Z</time>
      </trkpt>
      <trkpt lat="43.0732480" lon="-0.5386220">
        <ele>685.7</ele>
        <time>2020-07-26T11:49:22Z</time>
      </trkpt>
      <trkpt lat="43.0732280" lon="-0.5385490">
        <ele>686.4</ele>
        <time>2020-07-26T11:49:25Z</time>
      </trkpt>
      <trkpt lat="43.0731990" lon="-0.5384380">
        <ele>687.5</ele>
        <time>2020-07-26T11:49:29Z</time>
      </trkpt>
      <trkpt lat="43.0731770" lon="-0.5383270">
        <ele>688.4</ele>
        <time>2020-07-26T11:49:32Z</time>
      </trkpt>
      <trkpt lat="43.0731440" lon="-0.5381940">
        <ele>689.6</ele>
        <time>2020-07-26T11:49:36Z</time>
      </trkpt>
      <trkpt lat="43.0731250" lon="-0.5381020">
        <ele>690.3</ele>
        <time>2020-07-26T11:49:39Z</time>
      </trkpt>
      <trkpt lat="43.0731160" lon="-0.5380120">
        <ele>691.1</ele>
        <time>2020-07-26T11:49:42Z</time>
      </trkpt>
      <trkpt lat="43.0731100" lon="-0.5379820">
        <ele>691.3</ele>
        <time>2020-07-26T11:49:43Z</time>
      </trkpt>
      <trkpt lat="43.0730950" lon="-0.5378330">
        <ele>692.5</ele>
        <time>2020-07-26T11:49:48Z</time>
      </trkpt>
      <trkpt lat="43.0730880" lon="-0.5377710">
        <ele>693.0</ele>
        <time>2020-07-26T11:49:50Z</time>
      </trkpt>
      <trkpt lat="43.0730880" lon="-0.5376490">
        <ele>693.9</ele>
        <time>2020-07-26T11:49:54Z</time>
      </trkpt>
      <trkpt lat="43.0731120" lon="-0.5374980">
        <ele>695.0</ele>
        <time>2020-07-26T11:49:59Z</time>
      </trkpt>
      <trkpt lat="43.0731200" lon="-0.5374680">
        <ele>695.2</ele>
        <time>2020-07-26T11:50:00Z</time>
      </trkpt>
      <trkpt lat="43.0731380" lon="-0.5373860">
        <ele>695.9</ele>
        <time>2020-07-26T11:50:03Z</time>
      </trkpt>
      <trkpt lat="43.0731520" lon="-0.5372590">
        <ele>696.9</ele>
        <time>2020-07-26T11:50:08Z</time>
      </trkpt>
      <trkpt lat="43.0731510" lon="-0.5372300">
        <ele>697.1</ele>
        <time>2020-07-26T11:50:09Z</time>
      </trkpt>
      <trkpt lat="43.0731570" lon="-0.5371440">
        <ele>697.8</ele>
        <time>2020-07-26T11:50:12Z</time>
      </trkpt>
      <trkpt lat="43.0731770" lon="-0.5370050">
        <ele>698.9</ele>
        <time>2020-07-26T11:50:17Z</time>
      </trkpt>
      <trkpt lat="43.0731800" lon="-0.5368910">
        <ele>699.8</ele>
        <time>2020-07-26T11:50:21Z</time>
      </trkpt>
      <trkpt lat="43.0731880" lon="-0.5367930">
        <ele>700.6</ele>
        <time>2020-07-26T11:50:24Z</time>
      </trkpt>
      <trkpt lat="43.0731900" lon="-0.5367620">
        <ele>700.9</ele>
        <time>2020-07-26T11:50:25Z</time>
      </trkpt>
      <trkpt lat="43.0732010" lon="-0.5366700">
        <ele>701.6</ele>
        <time>2020-07-26T11:50:28Z</time>
      </trkpt>
      <trkpt lat="43.0732540" lon="-0.5365560">
        <ele>702.7</ele>
        <time>2020-07-26T11:50:32Z</time>
      </trkpt>
      <trkpt lat="43.0732590" lon="-0.5365290">
        <ele>703.0</ele>
        <time>2020-07-26T11:50:33Z</time>
      </trkpt>
      <trkpt lat="43.0732930" lon="-0.5363910">
        <ele>704.1</ele>
        <time>2020-07-26T11:50:38Z</time>
      </trkpt>
      <trkpt lat="43.0733050" lon="-0.5363380">
        <ele>704.6</ele>
        <time>2020-07-26T11:50:40Z</time>
      </trkpt>
      <trkpt lat="43.0733150" lon="-0.5362500">
        <ele>705.4</ele>
        <time>2020-07-26T11:50:43Z</time>
      </trkpt>
      <trkpt lat="43.0733080" lon="-0.5360870">
        <ele>706.8</ele>
        <time>2020-07-26T11:50:48Z</time>
      </trkpt>
      <trkpt lat="43.0733040" lon="-0.5359780">
        <ele>707.8</ele>
        <time>2020-07-26T11:50:52Z</time>
      </trkpt>
      <trkpt lat="43.0732980" lon="-0.5358980">
        <ele>708.5</ele>
        <time>2020-07-26T11:50:55Z</time>
      </trkpt>
      <trkpt lat="43.0732940" lon="-0.5358420">
        <ele>709.0</ele>
        <time>2020-07-26T11:50:57Z</time>
      </trkpt>
      <trkpt lat="43.0732910" lon="-0.5357310">
        <ele>710.1</ele>
        <time>2020-07-26T11:51:01Z</time>
      </trkpt>
      <trkpt lat="43.0732900" lon="-0.5356460">
        <ele>710.9</ele>
        <time>2020-07-26T11:51:04Z</time>
      </trkpt>
      <trkpt lat="43.0732840" lon="-0.5355880">
        <ele>711.5</ele>
        <time>2020-07-26T11:51:06Z</time>
      </trkpt>
      <trkpt lat="43.0732800" lon="-0.5354800">
        <ele>712.5</ele>
        <time>2020-07-26T11:51:10Z</time>
      </trkpt>
      <trkpt lat="43.0732840" lon="-0.5354530">
        <ele>712.7</ele>
        <time>2020-07-26T11:51:11Z</time>
      </trkpt>
      <trkpt lat="43.0733030" lon="-0.5353430">
        <ele>713.8</ele>
        <time>2020-07-26T11:51:15Z</time>
      </trkpt>
      <trkpt lat="43.0732970" lon="-0.5352590">
        <ele>714.5</ele>
        <time>2020-07-26T11:51:18Z</time>
      </trkpt>
      <trkpt lat="43.0732970" lon="-0.5352310">
        <ele>714.8</ele>
        <time>2020-07-26T11:51:19Z</time>
      </trkpt>
      <trkpt lat="43.0733160" lon="-0.5351210">
        <ele>715.7</ele>
        <time>2020-07-26T11:51:23Z</time>
      </trkpt>
      <trkpt lat="43.0733230" lon="-0.5350390">
        <ele>716.4</ele>
        <time>2020-07-26T11:51:26Z</time>
      </trkpt>
      <trkpt lat="43.0733040" lon="-0.5348720">
        <ele>717.9</ele>
        <time>2020-07-26T11:51:32Z</time>
      </trkpt>
      <trkpt lat="43.0732810" lon="-0.5347920">
        <ele>718.5</ele>
        <time>2020-07-26T11:51:35Z</time>
      </trkpt>
      <trkpt lat="43.0732370" lon="-0.5346660">
        <ele>719.6</ele>
        <time>2020-07-26T11:51:40Z</time>
      </trkpt>
      <trkpt lat="43.0732190" lon="-0.5345900">
        <ele>720.2</ele>
        <time>2020-07-26T11:51:43Z</time>
      </trkpt>
      <trkpt lat="43.0731710" lon="-0.5344690">
        <ele>721.3</ele>
        <time>2020-07-26T11:51:48Z</time>
      </trkpt>
      <trkpt lat="43.0731150" lon="-0.5343560">
        <ele>722.4</ele>
        <time>2020-07-26T11:51:53Z</time>
      </trkpt>
      <trkpt lat="43.0730920" lon="-0.5343090">
        <ele>722.9</ele>
        <time>2020-07-26T11:51:55Z</time>
      </trkpt>
      <trkpt lat="43.0730800" lon="-0.5342850">
        <ele>723.1</ele>
        <time>2020-07-26T11:51:56Z</time>
      </trkpt>
      <trkpt lat="43.0730140" lon="-0.5341480">
        <ele>724.4</ele>
        <time>2020-07-26T11:52:01Z</time>
      </trkpt>
      <trkpt lat="43.0729880" lon="-0.5340960">
        <ele>724.9</ele>
        <time>2020-07-26T11:52:03Z</time>
      </trkpt>
      <trkpt lat="43.0729580" lon="-0.5340150">
        <ele>725.7</ele>
        <time>2020-07-26T11:52:06Z</time>
      </trkpt>
      <trkpt lat="43.0729150" lon="-0.5338740">
        <ele>727.0</ele>
        <time>2020-07-26T11:52:11Z</time>
      </trkpt>
      <trkpt lat="43.0728670" lon="-0.5337350">
        <ele>728.3</ele>
        <time>2020-07-26T11:52:16Z</time>
      </trkpt>
      <trkpt lat="43.0728450" lon="-0.5336510">
        <ele>729.1</ele>
        <time>2020-07-26T11:52:19Z</time>
      </trkpt>
      <trkpt lat="43.0728400" lon="-0.5336240">
        <ele>729.4</ele>
        <time>2020-07-26T11:52:20Z</time>
      </trkpt>
      <trkpt lat="43.0728280" lon="-0.5335460">
        <ele>730.1</ele>
        <time>2020-07-26T11:52:23Z</time>
      </trkpt>
      <trkpt lat="43.0728170" lon="-0.5334650">
        <ele>731.0</ele>
        <time>2020-07-26T11:52:26Z</time>
      </trkpt>
      <trkpt lat="43.0728150" lon="-0.5334380">
        <ele>731.2</ele>
        <time>2020-07-26T11:52:27Z</time>
      </trkpt>
      <trkpt lat="43.0728030" lon="-0.5333330">
        <ele>732.4</ele>
        <time>2020-07-26T11:52:31Z</time>
      </trkpt>
      <trkpt lat="43.0727980" lon="-0.5332600">
        <ele>733.1</ele>
        <time>2020-07-26T11:52:34Z</time>
      </trkpt>
      <trkpt lat="43.0727940" lon="-0.5332350">
        <ele>733.4</ele>
        <time>2020-07-26T11:52:35Z</time>
      </trkpt>
      <trkpt lat="43.0727700" lon="-0.5331380">
        <ele>734.4</ele>
        <time>2020-07-26T11:52:39Z</time>
      </trkpt>
      <trkpt lat="43.0727570" lon="-0.5330400">
        <ele>735.4</ele>
        <time>2020-07-26T11:52:43Z</time>
      </trkpt>
      <trkpt lat="43.0727560" lon="-0.5330130">
        <ele>735.7</ele>
        <time>2020-07-26T11:52:44Z</time>
      </trkpt>
      <trkpt lat="43.0727590" lon="-0.5329350">
        <ele>736.4</ele>
        <time>2020-07-26T11:52:47Z</time>
      </trkpt>
      <trkpt lat="43.0727490" lon="-0.5328550">
        <ele>737.2</ele>
        <time>2020-07-26T11:52:50Z</time>
      </trkpt>
      <trkpt lat="43.0727480" lon="-0.5328280">
        <ele>737.5</ele>
        <time>2020-07-26T11:52:51Z</time>
      </trkpt>
      <trkpt lat="43.0727790" lon="-0.5327300">
        <ele>738.5</ele>
        <time>2020-07-26T11:52:55Z</time>
      </trkpt>
      <trkpt lat="43.0727890" lon="-0.5327060">
        <ele>738.8</ele>
        <time>2020-07-26T11:52:56Z</time>
      </trkpt>
      <trkpt lat="43.0728120" lon="-0.5326460">
        <ele>739.4</ele>
        <time>2020-07-26T11:52:59Z</time>
      </trkpt>
      <trkpt lat="43.0728340" lon="-0.5325430">
        <ele>740.4</ele>
        <time>2020-07-26T11:53:03Z</time>
      </trkpt>
      <trkpt lat="43.0728840" lon="-0.5324880">
        <ele>741.1</ele>
        <time>2020-07-26T11:53:05Z</time>
      </trkpt>
      <trkpt lat="43.0729260" lon="-0.5323770">
        <ele>742.2</ele>
        <time>2020-07-26T11:53:09Z</time>
      </trkpt>
      <trkpt lat="43.0729380" lon="-0.5323510">
        <ele>742.5</ele>
        <time>2020-07-26T11:53:10Z</time>
      </trkpt>
      <trkpt lat="43.0729860" lon="-0.5322270">
        <ele>743.7</ele>
        <time>2020-07-26T11:53:14Z</time>
      </trkpt>
      <trkpt lat="43.0730150" lon="-0.5321490">
        <ele>744.4</ele>
        <time>2020-07-26T11:53:17Z</time>
      </trkpt>
      <trkpt lat="43.0730260" lon="-0.5321250">
        <ele>744.6</ele>
        <time>2020-07-26T11:53:18Z</time>
      </trkpt>
      <trkpt lat="43.0730760" lon="-0.5320430">
        <ele>745.6</ele>
        <time>2020-07-26T11:53:22Z</time>
      </trkpt>
      <trkpt lat="43.0730890" lon="-0.5320240">
        <ele>745.8</ele>
        <time>2020-07-26T11:53:23Z</time>
      </trkpt>
      <trkpt lat="43.0731320" lon="-0.5319660">
        <ele>746.6</ele>
        <time>2020-07-26T11:53:26Z</time>
      </trkpt>
      <trkpt lat="43.0732020" lon="-0.5318730">
        <ele>747.8</ele>
        <time>2020-07-26T11:53:31Z</time>
      </trkpt>
      <trkpt lat="43.0732550" lon="-0.5317930">
        <ele>748.8</ele>
        <time>2020-07-26T11:53:35Z</time>
      </trkpt>
      <trkpt lat="43.0732950" lon="-0.5317060">
        <ele>749.7</ele>
        <time>2020-07-26T11:53:39Z</time>
      </trkpt>
      <trkpt lat="43.0733330" lon="-0.5315940">
        <ele>750.8</ele>
        <time>2020-07-26T11:53:44Z</time>
      </trkpt>
      <trkpt lat="43.0733560" lon="-0.5315450">
        <ele>751.3</ele>
        <time>2020-07-26T11:53:46Z</time>
      </trkpt>
      <trkpt lat="43.0733700" lon="-0.5314970">
        <ele>751.7</ele>
        <time>2020-07-26T11:53:48Z</time>
      </trkpt>
      <trkpt lat="43.0733910" lon="-0.5314160">
        <ele>752.4</ele>
        <time>2020-07-26T11:53:51Z</time>
      </trkpt>
      <trkpt lat="43.0734020" lon="-0.5313930">
        <ele>752.7</ele>
        <time>2020-07-26T11:53:52Z</time>
      </trkpt>
      <trkpt lat="43.0734100" lon="-0.5313710">
        <ele>752.9</ele>
        <time>2020-07-26T11:53:53Z</time>
      </trkpt>
      <trkpt lat="43.0734150" lon="-0.5313200">
        <ele>753.3</ele>
        <time>2020-07-26T11:53:55Z</time>
      </trkpt>
      <trkpt lat="43.0734180" lon="-0.5312700">
        <ele>753.7</ele>
        <time>2020-07-26T11:53:57Z</time>
      </trkpt>
      <trkpt lat="43.0734220" lon="-0.5312210">
        <ele>754.1</ele>
        <time>2020-07-26T11:53:59Z</time>
      </trkpt>
      <trkpt lat="43.0734340" lon="-0.5311780">
        <ele>754.5</ele>
        <time>2020-07-26T11:54:01Z</time>
      </trkpt>
      <trkpt lat="43.0734580" lon="-0.5310770">
        <ele>755.4</ele>
        <time>2020-07-26T11:54:06Z</time>
      </trkpt>
      <trkpt lat="43.0734450" lon="-0.5309660">
        <ele>756.3</ele>
        <time>2020-07-26T11:54:11Z</time>
      </trkpt>
      <trkpt lat="43.0734410" lon="-0.5308930">
        <ele>757.0</ele>
        <time>2020-07-26T11:54:14Z</time>
      </trkpt>
      <trkpt lat="43.0734390" lon="-0.5308660">
        <ele>757.2</ele>
        <time>2020-07-26T11:54:15Z</time>
      </trkpt>
      <trkpt lat="43.0734050" lon="-0.5307280">
        <ele>758.4</ele>
        <time>2020-07-26T11:54:19Z</time>
      </trkpt>
      <trkpt lat="43.0733840" lon="-0.5306710">
        <ele>759.0</ele>
        <time>2020-07-26T11:54:21Z</time>
      </trkpt>
      <trkpt lat="43.0733640" lon="-0.5306200">
        <ele>759.5</ele>
        <time>2020-07-26T11:54:23Z</time>
      </trkpt>
      <trkpt lat="43.0733370" lon="-0.5305360">
        <ele>760.3</ele>
        <time>2020-07-26T11:54:26Z</time>
      </trkpt>
      <trkpt lat="43.0733270" lon="-0.5305130">
        <ele>760.5</ele>
        <time>2020-07-26T11:54:27Z</time>
      </trkpt>
      <trkpt lat="43.0732740" lon="-0.5304120">
        <ele>761.7</ele>
        <time>2020-07-26T11:54:32Z</time>
      </trkpt>
      <trkpt lat="43.0732210" lon="-0.5303040">
        <ele>762.9</ele>
        <time>2020-07-26T11:54:37Z</time>
      </trkpt>
      <trkpt lat="43.0731910" lon="-0.5302730">
        <ele>763.4</ele>
        <time>2020-07-26T11:54:39Z</time>
      </trkpt>
      <trkpt lat="43.0731530" lon="-0.5302300">
        <ele>764.0</ele>
        <time>2020-07-26T11:54:42Z</time>
      </trkpt>
      <trkpt lat="43.0731080" lon="-0.5302030">
        <ele>764.7</ele>
        <time>2020-07-26T11:54:44Z</time>
      </trkpt>
      <trkpt lat="43.0730720" lon="-0.5301720">
        <ele>765.2</ele>
        <time>2020-07-26T11:54:46Z</time>
      </trkpt>
      <trkpt lat="43.0730070" lon="-0.5301480">
        <ele>766.0</ele>
        <time>2020-07-26T11:54:49Z</time>
      </trkpt>
      <trkpt lat="43.0729600" lon="-0.5301290">
        <ele>766.6</ele>
        <time>2020-07-26T11:54:51Z</time>
      </trkpt>
      <trkpt lat="43.0728520" lon="-0.5300380">
        <ele>767.9</ele>
        <time>2020-07-26T11:54:57Z</time>
      </trkpt>
      <trkpt lat="43.0727630" lon="-0.5299620">
        <ele>769.1</ele>
        <time>2020-07-26T11:55:02Z</time>
      </trkpt>
      <trkpt lat="43.0727160" lon="-0.5299150">
        <ele>769.7</ele>
        <time>2020-07-26T11:55:05Z</time>
      </trkpt>
      <trkpt lat="43.0726890" lon="-0.5298810">
        <ele>770.1</ele>
        <time>2020-07-26T11:55:07Z</time>
      </trkpt>
      <trkpt lat="43.0725930" lon="-0.5298200">
        <ele>771.3</ele>
        <time>2020-07-26T11:55:12Z</time>
      </trkpt>
      <trkpt lat="43.0725240" lon="-0.5297690">
        <ele>772.2</ele>
        <time>2020-07-26T11:55:16Z</time>
      </trkpt>
      <trkpt lat="43.0724930" lon="-0.5297450">
        <ele>772.6</ele>
        <time>2020-07-26T11:55:18Z</time>
      </trkpt>
      <trkpt lat="43.0724490" lon="-0.5297200">
        <ele>773.1</ele>
        <time>2020-07-26T11:55:20Z</time>
      </trkpt>
      <trkpt lat="43.0723990" lon="-0.5296460">
        <ele>774.0</ele>
        <time>2020-07-26T11:55:24Z</time>
      </trkpt>
      <trkpt lat="43.0723890" lon="-0.5296270">
        <ele>774.2</ele>
        <time>2020-07-26T11:55:25Z</time>
      </trkpt>
      <trkpt lat="43.0723640" lon="-0.5295690">
        <ele>774.8</ele>
        <time>2020-07-26T11:55:28Z</time>
      </trkpt>
      <trkpt lat="43.0723430" lon="-0.5294340">
        <ele>776.0</ele>
        <time>2020-07-26T11:55:32Z</time>
      </trkpt>
      <trkpt lat="43.0723120" lon="-0.5293800">
        <ele>776.6</ele>
        <time>2020-07-26T11:55:34Z</time>
      </trkpt>
      <trkpt lat="43.0722800" lon="-0.5293380">
        <ele>777.1</ele>
        <time>2020-07-26T11:55:36Z</time>
      </trkpt>
      <trkpt lat="43.0722670" lon="-0.5292160">
        <ele>778.1</ele>
        <time>2020-07-26T11:55:40Z</time>
      </trkpt>
      <trkpt lat="43.0722710" lon="-0.5291830">
        <ele>778.4</ele>
        <time>2020-07-26T11:55:41Z</time>
      </trkpt>
      <trkpt lat="43.0723170" lon="-0.5290000">
        <ele>780.2</ele>
        <time>2020-07-26T11:55:45Z</time>
      </trkpt>
      <trkpt lat="43.0723200" lon="-0.5289380">
        <ele>780.8</ele>
        <time>2020-07-26T11:55:47Z</time>
      </trkpt>
      <trkpt lat="43.0723290" lon="-0.5288710">
        <ele>781.5</ele>
        <time>2020-07-26T11:55:49Z</time>
      </trkpt>
      <trkpt lat="43.0723480" lon="-0.5288290">
        <ele>782.0</ele>
        <time>2020-07-26T11:55:52Z</time>
      </trkpt>
      <trkpt lat="43.0723420" lon="-0.5288210">
        <ele>782.1</ele>
        <time>2020-07-26T11:55:53Z</time>
      </trkpt>
      <trkpt lat="43.0723550" lon="-0.5287690">
        <ele>782.7</ele>
        <time>2020-07-26T11:56:26Z</time>
      </trkpt>
      <trkpt lat="43.0723390" lon="-0.5286900">
        <ele>783.6</ele>
        <time>2020-07-26T11:56:32Z</time>
      </trkpt>
      <trkpt lat="43.0722950" lon="-0.5285710">
        <ele>785.1</ele>
        <time>2020-07-26T11:56:40Z</time>
      </trkpt>
      <trkpt lat="43.0722900" lon="-0.5285560">
        <ele>785.2</ele>
        <time>2020-07-26T11:56:41Z</time>
      </trkpt>
      <trkpt lat="43.0722570" lon="-0.5284520">
        <ele>786.4</ele>
        <time>2020-07-26T11:56:48Z</time>
      </trkpt>
      <trkpt lat="43.0722330" lon="-0.5283970">
        <ele>787.1</ele>
        <time>2020-07-26T11:56:52Z</time>
      </trkpt>
      <trkpt lat="43.0722130" lon="-0.5283620">
        <ele>787.6</ele>
        <time>2020-07-26T11:56:55Z</time>
      </trkpt>
      <trkpt lat="43.0721740" lon="-0.5283050">
        <ele>788.4</ele>
        <time>2020-07-26T11:57:00Z</time>
      </trkpt>
      <trkpt lat="43.0721670" lon="-0.5282940">
        <ele>788.5</ele>
        <time>2020-07-26T11:57:01Z</time>
      </trkpt>
      <trkpt lat="43.0721200" lon="-0.5282400">
        <ele>789.4</ele>
        <time>2020-07-26T11:57:06Z</time>
      </trkpt>
      <trkpt lat="43.0720620" lon="-0.5281880">
        <ele>790.4</ele>
        <time>2020-07-26T11:57:12Z</time>
      </trkpt>
      <trkpt lat="43.0720520" lon="-0.5281800">
        <ele>790.6</ele>
        <time>2020-07-26T11:57:13Z</time>
      </trkpt>
      <trkpt lat="43.0719980" lon="-0.5281390">
        <ele>791.5</ele>
        <time>2020-07-26T11:57:20Z</time>
      </trkpt>
      <trkpt lat="43.0719900" lon="-0.5281350">
        <ele>791.6</ele>
        <time>2020-07-26T11:57:21Z</time>
      </trkpt>
      <trkpt lat="43.0719830" lon="-0.5281310">
        <ele>791.7</ele>
        <time>2020-07-26T11:57:22Z</time>
      </trkpt>
      <trkpt lat="43.0719760" lon="-0.5281270">
        <ele>791.8</ele>
        <time>2020-07-26T11:57:23Z</time>
      </trkpt>
      <trkpt lat="43.0719760" lon="-0.5281200">
        <ele>791.8</ele>
        <time>2020-07-26T11:57:24Z</time>
      </trkpt>
      <trkpt lat="43.0718860" lon="-0.5280920">
        <ele>793.1</ele>
        <time>2020-07-26T11:57:33Z</time>
      </trkpt>
      <trkpt lat="43.0718330" lon="-0.5280860">
        <ele>793.8</ele>
        <time>2020-07-26T11:57:37Z</time>
      </trkpt>
      <trkpt lat="43.0718060" lon="-0.5280830">
        <ele>794.1</ele>
        <time>2020-07-26T11:57:39Z</time>
      </trkpt>
      <trkpt lat="43.0717370" lon="-0.5280620">
        <ele>795.1</ele>
        <time>2020-07-26T11:57:45Z</time>
      </trkpt>
      <trkpt lat="43.0717260" lon="-0.5280570">
        <ele>795.2</ele>
        <time>2020-07-26T11:57:46Z</time>
      </trkpt>
      <trkpt lat="43.0716970" lon="-0.5280420">
        <ele>795.6</ele>
        <time>2020-07-26T11:57:49Z</time>
      </trkpt>
      <trkpt lat="43.0716770" lon="-0.5280220">
        <ele>796.0</ele>
        <time>2020-07-26T11:57:51Z</time>
      </trkpt>
      <trkpt lat="43.0716670" lon="-0.5280140">
        <ele>796.1</ele>
        <time>2020-07-26T11:57:52Z</time>
      </trkpt>
      <trkpt lat="43.0716570" lon="-0.5280070">
        <ele>796.2</ele>
        <time>2020-07-26T11:57:53Z</time>
      </trkpt>
      <trkpt lat="43.0716130" lon="-0.5279660">
        <ele>796.9</ele>
        <time>2020-07-26T11:57:57Z</time>
      </trkpt>
      <trkpt lat="43.0715560" lon="-0.5279010">
        <ele>797.7</ele>
        <time>2020-07-26T11:58:02Z</time>
      </trkpt>
      <trkpt lat="43.0715160" lon="-0.5278160">
        <ele>798.5</ele>
        <time>2020-07-26T11:58:08Z</time>
      </trkpt>
      <trkpt lat="43.0715080" lon="-0.5277830">
        <ele>798.8</ele>
        <time>2020-07-26T11:58:10Z</time>
      </trkpt>
      <trkpt lat="43.0714780" lon="-0.5276490">
        <ele>799.9</ele>
        <time>2020-07-26T11:58:18Z</time>
      </trkpt>
      <trkpt lat="43.0714650" lon="-0.5276190">
        <ele>800.1</ele>
        <time>2020-07-26T11:58:20Z</time>
      </trkpt>
      <trkpt lat="43.0714460" lon="-0.5275290">
        <ele>800.9</ele>
        <time>2020-07-26T11:58:26Z</time>
      </trkpt>
      <trkpt lat="43.0714360" lon="-0.5274430">
        <ele>801.6</ele>
        <time>2020-07-26T11:58:31Z</time>
      </trkpt>
      <trkpt lat="43.0714130" lon="-0.5273510">
        <ele>802.4</ele>
        <time>2020-07-26T11:58:37Z</time>
      </trkpt>
      <trkpt lat="43.0714020" lon="-0.5273080">
        <ele>802.7</ele>
        <time>2020-07-26T11:58:40Z</time>
      </trkpt>
      <trkpt lat="43.0713870" lon="-0.5272360">
        <ele>803.3</ele>
        <time>2020-07-26T11:58:45Z</time>
      </trkpt>
      <trkpt lat="43.0713760" lon="-0.5271920">
        <ele>803.7</ele>
        <time>2020-07-26T11:58:48Z</time>
      </trkpt>
      <trkpt lat="43.0713520" lon="-0.5271050">
        <ele>804.6</ele>
        <time>2020-07-26T11:58:54Z</time>
      </trkpt>
      <trkpt lat="43.0713450" lon="-0.5270770">
        <ele>804.8</ele>
        <time>2020-07-26T11:58:56Z</time>
      </trkpt>
      <trkpt lat="43.0713210" lon="-0.5270020">
        <ele>805.6</ele>
        <time>2020-07-26T11:59:01Z</time>
      </trkpt>
      <trkpt lat="43.0713070" lon="-0.5269430">
        <ele>806.1</ele>
        <time>2020-07-26T11:59:05Z</time>
      </trkpt>
      <trkpt lat="43.0712920" lon="-0.5268990">
        <ele>806.6</ele>
        <time>2020-07-26T11:59:08Z</time>
      </trkpt>
      <trkpt lat="43.0712590" lon="-0.5267740">
        <ele>807.8</ele>
        <time>2020-07-26T11:59:16Z</time>
      </trkpt>
      <trkpt lat="43.0712280" lon="-0.5266580">
        <ele>808.9</ele>
        <time>2020-07-26T11:59:24Z</time>
      </trkpt>
      <trkpt lat="43.0712260" lon="-0.5266420">
        <ele>809.0</ele>
        <time>2020-07-26T11:59:25Z</time>
      </trkpt>
      <trkpt lat="43.0712050" lon="-0.5265350">
        <ele>810.1</ele>
        <time>2020-07-26T11:59:32Z</time>
      </trkpt>
      <trkpt lat="43.0712020" lon="-0.5265200">
        <ele>810.2</ele>
        <time>2020-07-26T11:59:33Z</time>
      </trkpt>
      <trkpt lat="43.0711840" lon="-0.5264290">
        <ele>811.1</ele>
        <time>2020-07-26T11:59:39Z</time>
      </trkpt>
      <trkpt lat="43.0711680" lon="-0.5263520">
        <ele>811.9</ele>
        <time>2020-07-26T11:59:44Z</time>
      </trkpt>
      <trkpt lat="43.0711590" lon="-0.5263230">
        <ele>812.3</ele>
        <time>2020-07-26T11:59:46Z</time>
      </trkpt>
      <trkpt lat="43.0711270" lon="-0.5262230">
        <ele>813.4</ele>
        <time>2020-07-26T11:59:53Z</time>
      </trkpt>
      <trkpt lat="43.0710970" lon="-0.5261450">
        <ele>814.3</ele>
        <time>2020-07-26T11:59:59Z</time>
      </trkpt>
      <trkpt lat="43.0710700" lon="-0.5260970">
        <ele>814.9</ele>
        <time>2020-07-26T12:00:03Z</time>
      </trkpt>
      <trkpt lat="43.0710500" lon="-0.5260550">
        <ele>815.3</ele>
        <time>2020-07-26T12:00:06Z</time>
      </trkpt>
      <trkpt lat="43.0709970" lon="-0.5259440">
        <ele>816.6</ele>
        <time>2020-07-26T12:00:14Z</time>
      </trkpt>
      <trkpt lat="43.0709630" lon="-0.5258580">
        <ele>817.5</ele>
        <time>2020-07-26T12:00:20Z</time>
      </trkpt>
      <trkpt lat="43.0709400" lon="-0.5257960">
        <ele>818.1</ele>
        <time>2020-07-26T12:00:24Z</time>
      </trkpt>
      <trkpt lat="43.0709180" lon="-0.5257330">
        <ele>818.7</ele>
        <time>2020-07-26T12:00:28Z</time>
      </trkpt>
      <trkpt lat="43.0708880" lon="-0.5256450">
        <ele>819.6</ele>
        <time>2020-07-26T12:00:34Z</time>
      </trkpt>
      <trkpt lat="43.0708830" lon="-0.5256300">
        <ele>819.7</ele>
        <time>2020-07-26T12:00:35Z</time>
      </trkpt>
      <trkpt lat="43.0708530" lon="-0.5255520">
        <ele>820.5</ele>
        <time>2020-07-26T12:00:40Z</time>
      </trkpt>
      <trkpt lat="43.0708340" lon="-0.5254810">
        <ele>821.3</ele>
        <time>2020-07-26T12:00:45Z</time>
      </trkpt>
      <trkpt lat="43.0708210" lon="-0.5254350">
        <ele>821.8</ele>
        <time>2020-07-26T12:00:48Z</time>
      </trkpt>
      <trkpt lat="43.0708060" lon="-0.5253400">
        <ele>822.9</ele>
        <time>2020-07-26T12:00:54Z</time>
      </trkpt>
      <trkpt lat="43.0707800" lon="-0.5252260">
        <ele>824.1</ele>
        <time>2020-07-26T12:01:01Z</time>
      </trkpt>
      <trkpt lat="43.0707540" lon="-0.5251600">
        <ele>824.8</ele>
        <time>2020-07-26T12:01:06Z</time>
      </trkpt>
      <trkpt lat="43.0707380" lon="-0.5251120">
        <ele>825.3</ele>
        <time>2020-07-26T12:01:09Z</time>
      </trkpt>
      <trkpt lat="43.0707220" lon="-0.5250550">
        <ele>825.9</ele>
        <time>2020-07-26T12:01:15Z</time>
      </trkpt>
      <trkpt lat="43.0707220" lon="-0.5250540">
        <ele>825.9</ele>
        <time>2020-07-26T12:01:16Z</time>
      </trkpt>
      <trkpt lat="43.0707160" lon="-0.5250480">
        <ele>826.0</ele>
        <time>2020-07-26T12:01:20Z</time>
      </trkpt>
      <trkpt lat="43.0706910" lon="-0.5249890">
        <ele>826.6</ele>
        <time>2020-07-26T12:01:25Z</time>
      </trkpt>
      <trkpt lat="43.0706550" lon="-0.5248610">
        <ele>827.9</ele>
        <time>2020-07-26T12:01:34Z</time>
      </trkpt>
      <trkpt lat="43.0706440" lon="-0.5248090">
        <ele>828.4</ele>
        <time>2020-07-26T12:01:38Z</time>
      </trkpt>
      <trkpt lat="43.0706100" lon="-0.5247060">
        <ele>829.5</ele>
        <time>2020-07-26T12:01:45Z</time>
      </trkpt>
      <trkpt lat="43.0706050" lon="-0.5246920">
        <ele>829.6</ele>
        <time>2020-07-26T12:01:46Z</time>
      </trkpt>
      <trkpt lat="43.0705720" lon="-0.5245970">
        <ele>830.7</ele>
        <time>2020-07-26T12:01:53Z</time>
      </trkpt>
      <trkpt lat="43.0705320" lon="-0.5244640">
        <ele>832.1</ele>
        <time>2020-07-26T12:02:02Z</time>
      </trkpt>
      <trkpt lat="43.0705270" lon="-0.5244510">
        <ele>832.2</ele>
        <time>2020-07-26T12:02:03Z</time>
      </trkpt>
      <trkpt lat="43.0705060" lon="-0.5243650">
        <ele>833.1</ele>
        <time>2020-07-26T12:02:09Z</time>
      </trkpt>
      <trkpt lat="43.0704930" lon="-0.5242980">
        <ele>833.8</ele>
        <time>2020-07-26T12:02:14Z</time>
      </trkpt>
      <trkpt lat="43.0704860" lon="-0.5242700">
        <ele>834.1</ele>
        <time>2020-07-26T12:02:16Z</time>
      </trkpt>
      <trkpt lat="43.0704630" lon="-0.5241840">
        <ele>835.0</ele>
        <time>2020-07-26T12:02:22Z</time>
      </trkpt>
      <trkpt lat="43.0704590" lon="-0.5241710">
        <ele>835.2</ele>
        <time>2020-07-26T12:02:23Z</time>
      </trkpt>
      <trkpt lat="43.0704390" lon="-0.5240750">
        <ele>836.2</ele>
        <time>2020-07-26T12:02:30Z</time>
      </trkpt>
      <trkpt lat="43.0704350" lon="-0.5240610">
        <ele>836.4</ele>
        <time>2020-07-26T12:02:31Z</time>
      </trkpt>
      <trkpt lat="43.0704150" lon="-0.5239910">
        <ele>837.1</ele>
        <time>2020-07-26T12:02:36Z</time>
      </trkpt>
      <trkpt lat="43.0703930" lon="-0.5239020">
        <ele>838.1</ele>
        <time>2020-07-26T12:02:43Z</time>
      </trkpt>
      <trkpt lat="43.0703730" lon="-0.5238360">
        <ele>838.8</ele>
        <time>2020-07-26T12:02:48Z</time>
      </trkpt>
      <trkpt lat="43.0703480" lon="-0.5237820">
        <ele>839.5</ele>
        <time>2020-07-26T12:02:52Z</time>
      </trkpt>
      <trkpt lat="43.0703380" lon="-0.5237510">
        <ele>839.8</ele>
        <time>2020-07-26T12:02:54Z</time>
      </trkpt>
      <trkpt lat="43.0702930" lon="-0.5236440">
        <ele>841.1</ele>
        <time>2020-07-26T12:03:02Z</time>
      </trkpt>
      <trkpt lat="43.0702870" lon="-0.5236290">
        <ele>841.3</ele>
        <time>2020-07-26T12:03:03Z</time>
      </trkpt>
      <trkpt lat="43.0702580" lon="-0.5235560">
        <ele>842.1</ele>
        <time>2020-07-26T12:03:08Z</time>
      </trkpt>
      <trkpt lat="43.0702380" lon="-0.5235060">
        <ele>842.7</ele>
        <time>2020-07-26T12:03:12Z</time>
      </trkpt>
      <trkpt lat="43.0702320" lon="-0.5234610">
        <ele>843.1</ele>
        <time>2020-07-26T12:03:16Z</time>
      </trkpt>
      <trkpt lat="43.0702180" lon="-0.5234000">
        <ele>843.8</ele>
        <time>2020-07-26T12:03:21Z</time>
      </trkpt>
      <trkpt lat="43.0702170" lon="-0.5233890">
        <ele>843.9</ele>
        <time>2020-07-26T12:03:22Z</time>
      </trkpt>
      <trkpt lat="43.0701950" lon="-0.5233060">
        <ele>844.8</ele>
        <time>2020-07-26T12:03:29Z</time>
      </trkpt>
      <trkpt lat="43.0701820" lon="-0.5232610">
        <ele>845.3</ele>
        <time>2020-07-26T12:03:32Z</time>
      </trkpt>
      <trkpt lat="43.0701710" lon="-0.5232290">
        <ele>845.7</ele>
        <time>2020-07-26T12:03:34Z</time>
      </trkpt>
      <trkpt lat="43.0701560" lon="-0.5231520">
        <ele>846.5</ele>
        <time>2020-07-26T12:03:41Z</time>
      </trkpt>
      <trkpt lat="43.0701550" lon="-0.5231390">
        <ele>846.6</ele>
        <time>2020-07-26T12:03:42Z</time>
      </trkpt>
      <trkpt lat="43.0701450" lon="-0.5230690">
        <ele>847.4</ele>
        <time>2020-07-26T12:03:47Z</time>
      </trkpt>
      <trkpt lat="43.0701280" lon="-0.5230090">
        <ele>848.1</ele>
        <time>2020-07-26T12:03:51Z</time>
      </trkpt>
      <trkpt lat="43.0701200" lon="-0.5229390">
        <ele>848.8</ele>
        <time>2020-07-26T12:03:56Z</time>
      </trkpt>
      <trkpt lat="43.0701160" lon="-0.5228800">
        <ele>849.4</ele>
        <time>2020-07-26T12:04:00Z</time>
      </trkpt>
      <trkpt lat="43.0701130" lon="-0.5228440">
        <ele>849.8</ele>
        <time>2020-07-26T12:04:03Z</time>
      </trkpt>
      <trkpt lat="43.0701030" lon="-0.5227650">
        <ele>850.6</ele>
        <time>2020-07-26T12:04:08Z</time>
      </trkpt>
      <trkpt lat="43.0701000" lon="-0.5227500">
        <ele>850.8</ele>
        <time>2020-07-26T12:04:09Z</time>
      </trkpt>
      <trkpt lat="43.0700940" lon="-0.5226730">
        <ele>851.6</ele>
        <time>2020-07-26T12:04:15Z</time>
      </trkpt>
      <trkpt lat="43.0700790" lon="-0.5226120">
        <ele>852.2</ele>
        <time>2020-07-26T12:04:19Z</time>
      </trkpt>
      <trkpt lat="43.0700650" lon="-0.5225570">
        <ele>852.8</ele>
        <time>2020-07-26T12:04:23Z</time>
      </trkpt>
      <trkpt lat="43.0700640" lon="-0.5225440">
        <ele>853.0</ele>
        <time>2020-07-26T12:04:24Z</time>
      </trkpt>
      <trkpt lat="43.0700470" lon="-0.5224600">
        <ele>853.8</ele>
        <time>2020-07-26T12:04:30Z</time>
      </trkpt>
      <trkpt lat="43.0700460" lon="-0.5224440">
        <ele>854.0</ele>
        <time>2020-07-26T12:04:31Z</time>
      </trkpt>
      <trkpt lat="43.0700330" lon="-0.5223420">
        <ele>855.0</ele>
        <time>2020-07-26T12:04:38Z</time>
      </trkpt>
      <trkpt lat="43.0700320" lon="-0.5222970">
        <ele>855.5</ele>
        <time>2020-07-26T12:04:41Z</time>
      </trkpt>
      <trkpt lat="43.0700260" lon="-0.5222510">
        <ele>856.0</ele>
        <time>2020-07-26T12:04:44Z</time>
      </trkpt>
      <trkpt lat="43.0700200" lon="-0.5221920">
        <ele>856.5</ele>
        <time>2020-07-26T12:04:48Z</time>
      </trkpt>
      <trkpt lat="43.0700170" lon="-0.5221350">
        <ele>857.1</ele>
        <time>2020-07-26T12:04:52Z</time>
      </trkpt>
      <trkpt lat="43.0700020" lon="-0.5220640">
        <ele>857.8</ele>
        <time>2020-07-26T12:04:58Z</time>
      </trkpt>
      <trkpt lat="43.0699970" lon="-0.5220370">
        <ele>858.1</ele>
        <time>2020-07-26T12:05:00Z</time>
      </trkpt>
      <trkpt lat="43.0699710" lon="-0.5219590">
        <ele>859.0</ele>
        <time>2020-07-26T12:05:06Z</time>
      </trkpt>
      <trkpt lat="43.0699580" lon="-0.5219330">
        <ele>859.3</ele>
        <time>2020-07-26T12:05:08Z</time>
      </trkpt>
      <trkpt lat="43.0699270" lon="-0.5218630">
        <ele>860.1</ele>
        <time>2020-07-26T12:05:14Z</time>
      </trkpt>
      <trkpt lat="43.0699270" lon="-0.5218550">
        <ele>860.1</ele>
        <time>2020-07-26T12:05:16Z</time>
      </trkpt>
      <trkpt lat="43.0699110" lon="-0.5217700">
        <ele>861.0</ele>
        <time>2020-07-26T12:05:22Z</time>
      </trkpt>
      <trkpt lat="43.0699110" lon="-0.5217540">
        <ele>861.1</ele>
        <time>2020-07-26T12:05:23Z</time>
      </trkpt>
      <trkpt lat="43.0699490" lon="-0.5215780">
        <ele>862.7</ele>
        <time>2020-07-26T12:05:34Z</time>
      </trkpt>
      <trkpt lat="43.0699550" lon="-0.5215630">
        <ele>862.9</ele>
        <time>2020-07-26T12:05:35Z</time>
      </trkpt>
      <trkpt lat="43.0699830" lon="-0.5214640">
        <ele>863.8</ele>
        <time>2020-07-26T12:05:41Z</time>
      </trkpt>
      <trkpt lat="43.0699920" lon="-0.5214020">
        <ele>864.3</ele>
        <time>2020-07-26T12:05:45Z</time>
      </trkpt>
      <trkpt lat="43.0700120" lon="-0.5213230">
        <ele>865.0</ele>
        <time>2020-07-26T12:05:50Z</time>
      </trkpt>
      <trkpt lat="43.0700260" lon="-0.5212430">
        <ele>865.7</ele>
        <time>2020-07-26T12:05:55Z</time>
      </trkpt>
      <trkpt lat="43.0700320" lon="-0.5211980">
        <ele>866.1</ele>
        <time>2020-07-26T12:05:58Z</time>
      </trkpt>
      <trkpt lat="43.0700470" lon="-0.5211030">
        <ele>867.0</ele>
        <time>2020-07-26T12:06:04Z</time>
      </trkpt>
      <trkpt lat="43.0700490" lon="-0.5210860">
        <ele>867.1</ele>
        <time>2020-07-26T12:06:05Z</time>
      </trkpt>
      <trkpt lat="43.0700650" lon="-0.5209860">
        <ele>868.0</ele>
        <time>2020-07-26T12:06:12Z</time>
      </trkpt>
      <trkpt lat="43.0700680" lon="-0.5209570">
        <ele>868.3</ele>
        <time>2020-07-26T12:06:14Z</time>
      </trkpt>
      <trkpt lat="43.0700870" lon="-0.5208500">
        <ele>869.2</ele>
        <time>2020-07-26T12:06:21Z</time>
      </trkpt>
      <trkpt lat="43.0700920" lon="-0.5208190">
        <ele>869.5</ele>
        <time>2020-07-26T12:06:23Z</time>
      </trkpt>
      <trkpt lat="43.0700970" lon="-0.5207480">
        <ele>870.2</ele>
        <time>2020-07-26T12:06:28Z</time>
      </trkpt>
      <trkpt lat="43.0700930" lon="-0.5206980">
        <ele>870.7</ele>
        <time>2020-07-26T12:06:31Z</time>
      </trkpt>
      <trkpt lat="43.0700930" lon="-0.5206520">
        <ele>871.1</ele>
        <time>2020-07-26T12:06:34Z</time>
      </trkpt>
      <trkpt lat="43.0700910" lon="-0.5206370">
        <ele>871.3</ele>
        <time>2020-07-26T12:06:35Z</time>
      </trkpt>
      <trkpt lat="43.0700920" lon="-0.5205900">
        <ele>871.7</ele>
        <time>2020-07-26T12:06:38Z</time>
      </trkpt>
      <trkpt lat="43.0700960" lon="-0.5205400">
        <ele>872.2</ele>
        <time>2020-07-26T12:06:41Z</time>
      </trkpt>
      <trkpt lat="43.0700950" lon="-0.5205120">
        <ele>872.5</ele>
        <time>2020-07-26T12:06:43Z</time>
      </trkpt>
      <trkpt lat="43.0700920" lon="-0.5204500">
        <ele>873.1</ele>
        <time>2020-07-26T12:06:47Z</time>
      </trkpt>
      <trkpt lat="43.0700910" lon="-0.5204190">
        <ele>873.4</ele>
        <time>2020-07-26T12:06:49Z</time>
      </trkpt>
      <trkpt lat="43.0700840" lon="-0.5203580">
        <ele>874.1</ele>
        <time>2020-07-26T12:06:53Z</time>
      </trkpt>
      <trkpt lat="43.0700790" lon="-0.5203290">
        <ele>874.4</ele>
        <time>2020-07-26T12:06:55Z</time>
      </trkpt>
      <trkpt lat="43.0700640" lon="-0.5202400">
        <ele>875.4</ele>
        <time>2020-07-26T12:07:01Z</time>
      </trkpt>
      <trkpt lat="43.0700620" lon="-0.5202260">
        <ele>875.5</ele>
        <time>2020-07-26T12:07:02Z</time>
      </trkpt>
      <trkpt lat="43.0700530" lon="-0.5201520">
        <ele>876.3</ele>
        <time>2020-07-26T12:07:07Z</time>
      </trkpt>
      <trkpt lat="43.0700890" lon="-0.5200590">
        <ele>877.4</ele>
        <time>2020-07-26T12:07:11Z</time>
      </trkpt>
      <trkpt lat="43.0700780" lon="-0.5200160">
        <ele>877.9</ele>
        <time>2020-07-26T12:07:14Z</time>
      </trkpt>
      <trkpt lat="43.0700480" lon="-0.5199320">
        <ele>878.9</ele>
        <time>2020-07-26T12:07:20Z</time>
      </trkpt>
      <trkpt lat="43.0700280" lon="-0.5198320">
        <ele>879.9</ele>
        <time>2020-07-26T12:07:27Z</time>
      </trkpt>
      <trkpt lat="43.0700400" lon="-0.5198080">
        <ele>880.2</ele>
        <time>2020-07-26T12:07:29Z</time>
      </trkpt>
      <trkpt lat="43.0700360" lon="-0.5197520">
        <ele>880.8</ele>
        <time>2020-07-26T12:07:33Z</time>
      </trkpt>
      <trkpt lat="43.0700240" lon="-0.5196740">
        <ele>881.6</ele>
        <time>2020-07-26T12:07:38Z</time>
      </trkpt>
      <trkpt lat="43.0700090" lon="-0.5195840">
        <ele>882.5</ele>
        <time>2020-07-26T12:07:44Z</time>
      </trkpt>
      <trkpt lat="43.0700110" lon="-0.5195390">
        <ele>883.0</ele>
        <time>2020-07-26T12:07:47Z</time>
      </trkpt>
      <trkpt lat="43.0700130" lon="-0.5194910">
        <ele>883.5</ele>
        <time>2020-07-26T12:07:50Z</time>
      </trkpt>
      <trkpt lat="43.0700110" lon="-0.5193930">
        <ele>884.4</ele>
        <time>2020-07-26T12:07:56Z</time>
      </trkpt>
      <trkpt lat="43.0700130" lon="-0.5193750">
        <ele>884.6</ele>
        <time>2020-07-26T12:07:57Z</time>
      </trkpt>
      <trkpt lat="43.0700150" lon="-0.5193590">
        <ele>884.7</ele>
        <time>2020-07-26T12:07:58Z</time>
      </trkpt>
      <trkpt lat="43.0700100" lon="-0.5192640">
        <ele>885.7</ele>
        <time>2020-07-26T12:08:04Z</time>
      </trkpt>
      <trkpt lat="43.0700050" lon="-0.5192320">
        <ele>886.0</ele>
        <time>2020-07-26T12:08:06Z</time>
      </trkpt>
      <trkpt lat="43.0700350" lon="-0.5191230">
        <ele>887.1</ele>
        <time>2020-07-26T12:08:13Z</time>
      </trkpt>
      <trkpt lat="43.0700980" lon="-0.5190240">
        <ele>888.3</ele>
        <time>2020-07-26T12:08:20Z</time>
      </trkpt>
      <trkpt lat="43.0701200" lon="-0.5189820">
        <ele>888.8</ele>
        <time>2020-07-26T12:08:23Z</time>
      </trkpt>
      <trkpt lat="43.0701390" lon="-0.5189270">
        <ele>889.3</ele>
        <time>2020-07-26T12:08:27Z</time>
      </trkpt>
      <trkpt lat="43.0701590" lon="-0.5188680">
        <ele>890.0</ele>
        <time>2020-07-26T12:08:31Z</time>
      </trkpt>
      <trkpt lat="43.0701580" lon="-0.5188410">
        <ele>890.2</ele>
        <time>2020-07-26T12:08:33Z</time>
      </trkpt>
      <trkpt lat="43.0701700" lon="-0.5187520">
        <ele>891.1</ele>
        <time>2020-07-26T12:08:39Z</time>
      </trkpt>
      <trkpt lat="43.0701780" lon="-0.5187210">
        <ele>891.5</ele>
        <time>2020-07-26T12:08:41Z</time>
      </trkpt>
      <trkpt lat="43.0701960" lon="-0.5186140">
        <ele>892.6</ele>
        <time>2020-07-26T12:08:48Z</time>
      </trkpt>
      <trkpt lat="43.0702010" lon="-0.5186000">
        <ele>892.8</ele>
        <time>2020-07-26T12:08:49Z</time>
      </trkpt>
      <trkpt lat="43.0702430" lon="-0.5184930">
        <ele>893.9</ele>
        <time>2020-07-26T12:08:56Z</time>
      </trkpt>
      <trkpt lat="43.0702470" lon="-0.5184790">
        <ele>894.1</ele>
        <time>2020-07-26T12:08:57Z</time>
      </trkpt>
      <trkpt lat="43.0703240" lon="-0.5183670">
        <ele>895.5</ele>
        <time>2020-07-26T12:09:03Z</time>
      </trkpt>
      <trkpt lat="43.0703590" lon="-0.5183190">
        <ele>896.2</ele>
        <time>2020-07-26T12:09:06Z</time>
      </trkpt>
      <trkpt lat="43.0703910" lon="-0.5182580">
        <ele>896.8</ele>
        <time>2020-07-26T12:09:10Z</time>
      </trkpt>
      <trkpt lat="43.0704190" lon="-0.5182000">
        <ele>897.5</ele>
        <time>2020-07-26T12:09:14Z</time>
      </trkpt>
      <trkpt lat="43.0704410" lon="-0.5181210">
        <ele>898.2</ele>
        <time>2020-07-26T12:09:19Z</time>
      </trkpt>
      <trkpt lat="43.0704610" lon="-0.5180620">
        <ele>898.8</ele>
        <time>2020-07-26T12:09:23Z</time>
      </trkpt>
      <trkpt lat="43.0704740" lon="-0.5180090">
        <ele>899.2</ele>
        <time>2020-07-26T12:09:26Z</time>
      </trkpt>
      <trkpt lat="43.0705040" lon="-0.5178930">
        <ele>900.3</ele>
        <time>2020-07-26T12:09:33Z</time>
      </trkpt>
      <trkpt lat="43.0705080" lon="-0.5178770">
        <ele>900.4</ele>
        <time>2020-07-26T12:09:34Z</time>
      </trkpt>
      <trkpt lat="43.0705380" lon="-0.5177370">
        <ele>901.8</ele>
        <time>2020-07-26T12:09:42Z</time>
      </trkpt>
      <trkpt lat="43.0705490" lon="-0.5176860">
        <ele>902.3</ele>
        <time>2020-07-26T12:09:45Z</time>
      </trkpt>
      <trkpt lat="43.0705660" lon="-0.5176050">
        <ele>903.1</ele>
        <time>2020-07-26T12:09:50Z</time>
      </trkpt>
      <trkpt lat="43.0705800" lon="-0.5175310">
        <ele>903.9</ele>
        <time>2020-07-26T12:09:55Z</time>
      </trkpt>
      <trkpt lat="43.0705880" lon="-0.5174820">
        <ele>904.4</ele>
        <time>2020-07-26T12:09:58Z</time>
      </trkpt>
      <trkpt lat="43.0705920" lon="-0.5174380">
        <ele>904.8</ele>
        <time>2020-07-26T12:10:01Z</time>
      </trkpt>
      <trkpt lat="43.0706040" lon="-0.5173660">
        <ele>905.5</ele>
        <time>2020-07-26T12:10:06Z</time>
      </trkpt>
      <trkpt lat="43.0706090" lon="-0.5173350">
        <ele>905.8</ele>
        <time>2020-07-26T12:10:08Z</time>
      </trkpt>
      <trkpt lat="43.0706130" lon="-0.5173110">
        <ele>906.1</ele>
        <time>2020-07-26T12:10:10Z</time>
      </trkpt>
      <trkpt lat="43.0706140" lon="-0.5173090">
        <ele>906.1</ele>
        <time>2020-07-26T12:10:11Z</time>
      </trkpt>
      <trkpt lat="43.0706140" lon="-0.5173130">
        <ele>906.1</ele>
        <time>2020-07-26T12:10:23Z</time>
      </trkpt>
      <trkpt lat="43.0706170" lon="-0.5172830">
        <ele>906.4</ele>
        <time>2020-07-26T12:10:26Z</time>
      </trkpt>
      <trkpt lat="43.0706290" lon="-0.5171750">
        <ele>907.6</ele>
        <time>2020-07-26T12:10:33Z</time>
      </trkpt>
      <trkpt lat="43.0706330" lon="-0.5171610">
        <ele>907.8</ele>
        <time>2020-07-26T12:10:34Z</time>
      </trkpt>
      <trkpt lat="43.0706400" lon="-0.5171050">
        <ele>908.4</ele>
        <time>2020-07-26T12:10:38Z</time>
      </trkpt>
      <trkpt lat="43.0706420" lon="-0.5170630">
        <ele>908.8</ele>
        <time>2020-07-26T12:10:41Z</time>
      </trkpt>
      <trkpt lat="43.0706430" lon="-0.5170470">
        <ele>909.0</ele>
        <time>2020-07-26T12:10:42Z</time>
      </trkpt>
      <trkpt lat="43.0706500" lon="-0.5169720">
        <ele>909.8</ele>
        <time>2020-07-26T12:10:47Z</time>
      </trkpt>
      <trkpt lat="43.0706560" lon="-0.5169020">
        <ele>910.5</ele>
        <time>2020-07-26T12:10:52Z</time>
      </trkpt>
      <trkpt lat="43.0706580" lon="-0.5168580">
        <ele>911.0</ele>
        <time>2020-07-26T12:10:55Z</time>
      </trkpt>
      <trkpt lat="43.0706660" lon="-0.5167850">
        <ele>911.8</ele>
        <time>2020-07-26T12:11:00Z</time>
      </trkpt>
      <trkpt lat="43.0706690" lon="-0.5167550">
        <ele>912.1</ele>
        <time>2020-07-26T12:11:02Z</time>
      </trkpt>
      <trkpt lat="43.0706850" lon="-0.5166540">
        <ele>913.2</ele>
        <time>2020-07-26T12:11:09Z</time>
      </trkpt>
      <trkpt lat="43.0706930" lon="-0.5165650">
        <ele>914.0</ele>
        <time>2020-07-26T12:11:15Z</time>
      </trkpt>
      <trkpt lat="43.0706930" lon="-0.5165510">
        <ele>914.2</ele>
        <time>2020-07-26T12:11:16Z</time>
      </trkpt>
      <trkpt lat="43.0706960" lon="-0.5165380">
        <ele>914.3</ele>
        <time>2020-07-26T12:11:17Z</time>
      </trkpt>
      <trkpt lat="43.0706950" lon="-0.5164830">
        <ele>915.0</ele>
        <time>2020-07-26T12:11:21Z</time>
      </trkpt>
      <trkpt lat="43.0706920" lon="-0.5164670">
        <ele>915.1</ele>
        <time>2020-07-26T12:11:22Z</time>
      </trkpt>
      <trkpt lat="43.0706850" lon="-0.5164350">
        <ele>915.5</ele>
        <time>2020-07-26T12:11:24Z</time>
      </trkpt>
      <trkpt lat="43.0706760" lon="-0.5163640">
        <ele>916.3</ele>
        <time>2020-07-26T12:11:29Z</time>
      </trkpt>
      <trkpt lat="43.0706700" lon="-0.5163350">
        <ele>916.6</ele>
        <time>2020-07-26T12:11:31Z</time>
      </trkpt>
      <trkpt lat="43.0706450" lon="-0.5162710">
        <ele>917.4</ele>
        <time>2020-07-26T12:11:36Z</time>
      </trkpt>
      <trkpt lat="43.0706370" lon="-0.5162340">
        <ele>917.7</ele>
        <time>2020-07-26T12:11:39Z</time>
      </trkpt>
      <trkpt lat="43.0706230" lon="-0.5161820">
        <ele>918.3</ele>
        <time>2020-07-26T12:11:43Z</time>
      </trkpt>
      <trkpt lat="43.0706040" lon="-0.5161260">
        <ele>918.9</ele>
        <time>2020-07-26T12:11:47Z</time>
      </trkpt>
      <trkpt lat="43.0706010" lon="-0.5161120">
        <ele>919.0</ele>
        <time>2020-07-26T12:11:48Z</time>
      </trkpt>
      <trkpt lat="43.0705900" lon="-0.5160640">
        <ele>919.5</ele>
        <time>2020-07-26T12:11:51Z</time>
      </trkpt>
      <trkpt lat="43.0705690" lon="-0.5159850">
        <ele>920.3</ele>
        <time>2020-07-26T12:11:56Z</time>
      </trkpt>
      <trkpt lat="43.0705630" lon="-0.5159550">
        <ele>920.6</ele>
        <time>2020-07-26T12:11:58Z</time>
      </trkpt>
      <trkpt lat="43.0705660" lon="-0.5158310">
        <ele>921.7</ele>
        <time>2020-07-26T12:12:06Z</time>
      </trkpt>
      <trkpt lat="43.0705700" lon="-0.5157980">
        <ele>922.0</ele>
        <time>2020-07-26T12:12:08Z</time>
      </trkpt>
      <trkpt lat="43.0706110" lon="-0.5156800">
        <ele>923.3</ele>
        <time>2020-07-26T12:12:15Z</time>
      </trkpt>
      <trkpt lat="43.0706300" lon="-0.5156170">
        <ele>923.9</ele>
        <time>2020-07-26T12:12:19Z</time>
      </trkpt>
      <trkpt lat="43.0706540" lon="-0.5155430">
        <ele>924.7</ele>
        <time>2020-07-26T12:12:24Z</time>
      </trkpt>
      <trkpt lat="43.0706730" lon="-0.5154400">
        <ele>925.7</ele>
        <time>2020-07-26T12:12:30Z</time>
      </trkpt>
      <trkpt lat="43.0706760" lon="-0.5154240">
        <ele>925.8</ele>
        <time>2020-07-26T12:12:31Z</time>
      </trkpt>
      <trkpt lat="43.0706930" lon="-0.5152910">
        <ele>927.1</ele>
        <time>2020-07-26T12:12:39Z</time>
      </trkpt>
      <trkpt lat="43.0706940" lon="-0.5152760">
        <ele>927.2</ele>
        <time>2020-07-26T12:12:40Z</time>
      </trkpt>
      <trkpt lat="43.0706980" lon="-0.5151770">
        <ele>928.1</ele>
        <time>2020-07-26T12:12:46Z</time>
      </trkpt>
      <trkpt lat="43.0707000" lon="-0.5150970">
        <ele>928.9</ele>
        <time>2020-07-26T12:12:51Z</time>
      </trkpt>
      <trkpt lat="43.0706980" lon="-0.5150490">
        <ele>929.3</ele>
        <time>2020-07-26T12:12:54Z</time>
      </trkpt>
      <trkpt lat="43.0706920" lon="-0.5149460">
        <ele>930.3</ele>
        <time>2020-07-26T12:13:01Z</time>
      </trkpt>
      <trkpt lat="43.0706870" lon="-0.5148760">
        <ele>931.0</ele>
        <time>2020-07-26T12:13:06Z</time>
      </trkpt>
      <trkpt lat="43.0706840" lon="-0.5147880">
        <ele>931.8</ele>
        <time>2020-07-26T12:13:12Z</time>
      </trkpt>
      <trkpt lat="43.0706830" lon="-0.5147570">
        <ele>932.2</ele>
        <time>2020-07-26T12:13:14Z</time>
      </trkpt>
      <trkpt lat="43.0707050" lon="-0.5146580">
        <ele>933.2</ele>
        <time>2020-07-26T12:13:21Z</time>
      </trkpt>
      <trkpt lat="43.0707070" lon="-0.5146430">
        <ele>933.4</ele>
        <time>2020-07-26T12:13:22Z</time>
      </trkpt>
      <trkpt lat="43.0707440" lon="-0.5145290">
        <ele>934.7</ele>
        <time>2020-07-26T12:13:30Z</time>
      </trkpt>
      <trkpt lat="43.0707520" lon="-0.5145160">
        <ele>934.9</ele>
        <time>2020-07-26T12:13:31Z</time>
      </trkpt>
      <trkpt lat="43.0707870" lon="-0.5144460">
        <ele>935.8</ele>
        <time>2020-07-26T12:13:36Z</time>
      </trkpt>
      <trkpt lat="43.0708010" lon="-0.5144020">
        <ele>936.3</ele>
        <time>2020-07-26T12:13:39Z</time>
      </trkpt>
      <trkpt lat="43.0707970" lon="-0.5143040">
        <ele>937.3</ele>
        <time>2020-07-26T12:13:45Z</time>
      </trkpt>
      <trkpt lat="43.0707950" lon="-0.5142240">
        <ele>938.1</ele>
        <time>2020-07-26T12:13:50Z</time>
      </trkpt>
      <trkpt lat="43.0708000" lon="-0.5141940">
        <ele>938.4</ele>
        <time>2020-07-26T12:13:52Z</time>
      </trkpt>
      <trkpt lat="43.0708230" lon="-0.5141010">
        <ele>939.4</ele>
        <time>2020-07-26T12:13:59Z</time>
      </trkpt>
      <trkpt lat="43.0708370" lon="-0.5140530">
        <ele>939.9</ele>
        <time>2020-07-26T12:14:02Z</time>
      </trkpt>
      <trkpt lat="43.0708530" lon="-0.5139930">
        <ele>940.5</ele>
        <time>2020-07-26T12:14:06Z</time>
      </trkpt>
      <trkpt lat="43.0708680" lon="-0.5139210">
        <ele>941.2</ele>
        <time>2020-07-26T12:14:11Z</time>
      </trkpt>
      <trkpt lat="43.0708720" lon="-0.5139070">
        <ele>941.4</ele>
        <time>2020-07-26T12:14:12Z</time>
      </trkpt>
      <trkpt lat="43.0709020" lon="-0.5138120">
        <ele>942.4</ele>
        <time>2020-07-26T12:14:19Z</time>
      </trkpt>
      <trkpt lat="43.0709170" lon="-0.5137710">
        <ele>942.9</ele>
        <time>2020-07-26T12:14:22Z</time>
      </trkpt>
      <trkpt lat="43.0709240" lon="-0.5137110">
        <ele>943.5</ele>
        <time>2020-07-26T12:14:26Z</time>
      </trkpt>
      <trkpt lat="43.0709430" lon="-0.5136550">
        <ele>944.1</ele>
        <time>2020-07-26T12:14:30Z</time>
      </trkpt>
      <trkpt lat="43.0709550" lon="-0.5136160">
        <ele>944.5</ele>
        <time>2020-07-26T12:14:33Z</time>
      </trkpt>
      <trkpt lat="43.0709650" lon="-0.5135600">
        <ele>945.1</ele>
        <time>2020-07-26T12:14:37Z</time>
      </trkpt>
      <trkpt lat="43.0709630" lon="-0.5135480">
        <ele>945.2</ele>
        <time>2020-07-26T12:14:38Z</time>
      </trkpt>
      <trkpt lat="43.0709620" lon="-0.5135100">
        <ele>945.6</ele>
        <time>2020-07-26T12:14:41Z</time>
      </trkpt>
      <trkpt lat="43.0709630" lon="-0.5134620">
        <ele>946.0</ele>
        <time>2020-07-26T12:14:44Z</time>
      </trkpt>
      <trkpt lat="43.0709600" lon="-0.5133610">
        <ele>947.0</ele>
        <time>2020-07-26T12:14:51Z</time>
      </trkpt>
      <trkpt lat="43.0709550" lon="-0.5133310">
        <ele>947.3</ele>
        <time>2020-07-26T12:14:53Z</time>
      </trkpt>
      <trkpt lat="43.0709320" lon="-0.5132430">
        <ele>948.2</ele>
        <time>2020-07-26T12:14:58Z</time>
      </trkpt>
      <trkpt lat="43.0709230" lon="-0.5131740">
        <ele>948.8</ele>
        <time>2020-07-26T12:15:02Z</time>
      </trkpt>
      <trkpt lat="43.0709110" lon="-0.5131300">
        <ele>949.3</ele>
        <time>2020-07-26T12:15:05Z</time>
      </trkpt>
      <trkpt lat="43.0708800" lon="-0.5130640">
        <ele>950.1</ele>
        <time>2020-07-26T12:15:10Z</time>
      </trkpt>
      <trkpt lat="43.0708700" lon="-0.5130350">
        <ele>950.4</ele>
        <time>2020-07-26T12:15:12Z</time>
      </trkpt>
      <trkpt lat="43.0708580" lon="-0.5130110">
        <ele>950.7</ele>
        <time>2020-07-26T12:15:14Z</time>
      </trkpt>
      <trkpt lat="43.0708100" lon="-0.5129270">
        <ele>951.9</ele>
        <time>2020-07-26T12:15:21Z</time>
      </trkpt>
      <trkpt lat="43.0707600" lon="-0.5128150">
        <ele>953.2</ele>
        <time>2020-07-26T12:15:29Z</time>
      </trkpt>
      <trkpt lat="43.0707530" lon="-0.5128010">
        <ele>953.4</ele>
        <time>2020-07-26T12:15:30Z</time>
      </trkpt>
      <trkpt lat="43.0707010" lon="-0.5127150">
        <ele>954.5</ele>
        <time>2020-07-26T12:15:37Z</time>
      </trkpt>
      <trkpt lat="43.0706740" lon="-0.5126720">
        <ele>955.1</ele>
        <time>2020-07-26T12:15:41Z</time>
      </trkpt>
      <trkpt lat="43.0706460" lon="-0.5126280">
        <ele>955.7</ele>
        <time>2020-07-26T12:15:45Z</time>
      </trkpt>
      <trkpt lat="43.0706200" lon="-0.5125850">
        <ele>956.3</ele>
        <time>2020-07-26T12:15:49Z</time>
      </trkpt>
      <trkpt lat="43.0705970" lon="-0.5125540">
        <ele>956.8</ele>
        <time>2020-07-26T12:15:52Z</time>
      </trkpt>
      <trkpt lat="43.0705500" lon="-0.5124960">
        <ele>957.7</ele>
        <time>2020-07-26T12:15:58Z</time>
      </trkpt>
      <trkpt lat="43.0705400" lon="-0.5124880">
        <ele>957.9</ele>
        <time>2020-07-26T12:15:59Z</time>
      </trkpt>
      <trkpt lat="43.0704930" lon="-0.5124340">
        <ele>958.8</ele>
        <time>2020-07-26T12:16:05Z</time>
      </trkpt>
      <trkpt lat="43.0704510" lon="-0.5123900">
        <ele>959.6</ele>
        <time>2020-07-26T12:16:10Z</time>
      </trkpt>
      <trkpt lat="43.0704330" lon="-0.5123760">
        <ele>959.9</ele>
        <time>2020-07-26T12:16:12Z</time>
      </trkpt>
      <trkpt lat="43.0703670" lon="-0.5123140">
        <ele>961.1</ele>
        <time>2020-07-26T12:16:20Z</time>
      </trkpt>
      <trkpt lat="43.0703610" lon="-0.5123030">
        <ele>961.3</ele>
        <time>2020-07-26T12:16:21Z</time>
      </trkpt>
      <trkpt lat="43.0703340" lon="-0.5122300">
        <ele>962.2</ele>
        <time>2020-07-26T12:16:27Z</time>
      </trkpt>
      <trkpt lat="43.0703330" lon="-0.5122050">
        <ele>962.5</ele>
        <time>2020-07-26T12:16:29Z</time>
      </trkpt>
      <trkpt lat="43.0703290" lon="-0.5121530">
        <ele>963.1</ele>
        <time>2020-07-26T12:16:33Z</time>
      </trkpt>
      <trkpt lat="43.0703250" lon="-0.5120590">
        <ele>964.1</ele>
        <time>2020-07-26T12:16:40Z</time>
      </trkpt>
      <trkpt lat="43.0703240" lon="-0.5120440">
        <ele>964.3</ele>
        <time>2020-07-26T12:16:41Z</time>
      </trkpt>
      <trkpt lat="43.0703290" lon="-0.5119520">
        <ele>965.3</ele>
        <time>2020-07-26T12:16:48Z</time>
      </trkpt>
      <trkpt lat="43.0703330" lon="-0.5119130">
        <ele>965.7</ele>
        <time>2020-07-26T12:16:51Z</time>
      </trkpt>
      <trkpt lat="43.0703440" lon="-0.5118440">
        <ele>966.5</ele>
        <time>2020-07-26T12:16:55Z</time>
      </trkpt>
      <trkpt lat="43.0703570" lon="-0.5117160">
        <ele>967.9</ele>
        <time>2020-07-26T12:17:02Z</time>
      </trkpt>
      <trkpt lat="43.0703520" lon="-0.5116190">
        <ele>968.9</ele>
        <time>2020-07-26T12:17:08Z</time>
      </trkpt>
      <trkpt lat="43.0703400" lon="-0.5115320">
        <ele>969.8</ele>
        <time>2020-07-26T12:17:13Z</time>
      </trkpt>
      <trkpt lat="43.0703300" lon="-0.5114840">
        <ele>970.3</ele>
        <time>2020-07-26T12:17:16Z</time>
      </trkpt>
      <trkpt lat="43.0703040" lon="-0.5113950">
        <ele>971.3</ele>
        <time>2020-07-26T12:17:22Z</time>
      </trkpt>
      <trkpt lat="43.0702960" lon="-0.5113650">
        <ele>971.6</ele>
        <time>2020-07-26T12:17:24Z</time>
      </trkpt>
      <trkpt lat="43.0702680" lon="-0.5112890">
        <ele>972.4</ele>
        <time>2020-07-26T12:17:29Z</time>
      </trkpt>
      <trkpt lat="43.0702530" lon="-0.5112440">
        <ele>972.8</ele>
        <time>2020-07-26T12:17:32Z</time>
      </trkpt>
      <trkpt lat="43.0702480" lon="-0.5112290">
        <ele>973.0</ele>
        <time>2020-07-26T12:17:33Z</time>
      </trkpt>
      <trkpt lat="43.0702200" lon="-0.5111560">
        <ele>973.7</ele>
        <time>2020-07-26T12:17:38Z</time>
      </trkpt>
      <trkpt lat="43.0701860" lon="-0.5110750">
        <ele>974.5</ele>
        <time>2020-07-26T12:17:44Z</time>
      </trkpt>
      <trkpt lat="43.0701760" lon="-0.5110470">
        <ele>974.8</ele>
        <time>2020-07-26T12:17:46Z</time>
      </trkpt>
      <trkpt lat="43.0701440" lon="-0.5109620">
        <ele>975.6</ele>
        <time>2020-07-26T12:17:52Z</time>
      </trkpt>
      <trkpt lat="43.0701290" lon="-0.5109360">
        <ele>975.9</ele>
        <time>2020-07-26T12:17:54Z</time>
      </trkpt>
      <trkpt lat="43.0700940" lon="-0.5108760">
        <ele>976.6</ele>
        <time>2020-07-26T12:17:59Z</time>
      </trkpt>
      <trkpt lat="43.0700800" lon="-0.5108520">
        <ele>976.9</ele>
        <time>2020-07-26T12:18:01Z</time>
      </trkpt>
      <trkpt lat="43.0700420" lon="-0.5107720">
        <ele>977.8</ele>
        <time>2020-07-26T12:18:07Z</time>
      </trkpt>
      <trkpt lat="43.0700170" lon="-0.5107400">
        <ele>978.3</ele>
        <time>2020-07-26T12:18:10Z</time>
      </trkpt>
      <trkpt lat="43.0699670" lon="-0.5106890">
        <ele>979.1</ele>
        <time>2020-07-26T12:18:15Z</time>
      </trkpt>
      <trkpt lat="43.0699580" lon="-0.5106780">
        <ele>979.3</ele>
        <time>2020-07-26T12:18:16Z</time>
      </trkpt>
      <trkpt lat="43.0699020" lon="-0.5106230">
        <ele>980.3</ele>
        <time>2020-07-26T12:18:22Z</time>
      </trkpt>
      <trkpt lat="43.0698640" lon="-0.5105990">
        <ele>980.9</ele>
        <time>2020-07-26T12:18:25Z</time>
      </trkpt>
      <trkpt lat="43.0698270" lon="-0.5105630">
        <ele>981.5</ele>
        <time>2020-07-26T12:18:29Z</time>
      </trkpt>
      <trkpt lat="43.0697780" lon="-0.5105410">
        <ele>982.2</ele>
        <time>2020-07-26T12:18:33Z</time>
      </trkpt>
      <trkpt lat="43.0697200" lon="-0.5105150">
        <ele>983.1</ele>
        <time>2020-07-26T12:18:38Z</time>
      </trkpt>
      <trkpt lat="43.0696930" lon="-0.5105060">
        <ele>983.5</ele>
        <time>2020-07-26T12:18:40Z</time>
      </trkpt>
      <trkpt lat="43.0696490" lon="-0.5104740">
        <ele>984.2</ele>
        <time>2020-07-26T12:18:45Z</time>
      </trkpt>
      <trkpt lat="43.0696310" lon="-0.5104650">
        <ele>984.5</ele>
        <time>2020-07-26T12:18:47Z</time>
      </trkpt>
      <trkpt lat="43.0696050" lon="-0.5104490">
        <ele>984.9</ele>
        <time>2020-07-26T12:18:50Z</time>
      </trkpt>
      <trkpt lat="43.0695680" lon="-0.5104330">
        <ele>985.5</ele>
        <time>2020-07-26T12:18:54Z</time>
      </trkpt>
      <trkpt lat="43.0695480" lon="-0.5104210">
        <ele>985.8</ele>
        <time>2020-07-26T12:18:56Z</time>
      </trkpt>
      <trkpt lat="43.0695100" lon="-0.5103520">
        <ele>986.7</ele>
        <time>2020-07-26T12:19:02Z</time>
      </trkpt>
      <trkpt lat="43.0694860" lon="-0.5103160">
        <ele>987.2</ele>
        <time>2020-07-26T12:19:05Z</time>
      </trkpt>
      <trkpt lat="43.0694510" lon="-0.5102510">
        <ele>988.1</ele>
        <time>2020-07-26T12:19:11Z</time>
      </trkpt>
      <trkpt lat="43.0694680" lon="-0.5102250">
        <ele>988.5</ele>
        <time>2020-07-26T12:19:23Z</time>
      </trkpt>
      <trkpt lat="43.0694180" lon="-0.5101900">
        <ele>989.3</ele>
        <time>2020-07-26T12:19:31Z</time>
      </trkpt>
      <trkpt lat="43.0693150" lon="-0.5101740">
        <ele>990.8</ele>
        <time>2020-07-26T12:19:41Z</time>
      </trkpt>
      <trkpt lat="43.0692710" lon="-0.5101670">
        <ele>991.5</ele>
        <time>2020-07-26T12:19:45Z</time>
      </trkpt>
      <trkpt lat="43.0692590" lon="-0.5101670">
        <ele>991.6</ele>
        <time>2020-07-26T12:19:46Z</time>
      </trkpt>
      <trkpt lat="43.0691870" lon="-0.5101760">
        <ele>992.7</ele>
        <time>2020-07-26T12:19:52Z</time>
      </trkpt>
      <trkpt lat="43.0691170" lon="-0.5101770">
        <ele>993.7</ele>
        <time>2020-07-26T12:19:57Z</time>
      </trkpt>
      <trkpt lat="43.0690530" lon="-0.5101700">
        <ele>994.7</ele>
        <time>2020-07-26T12:20:02Z</time>
      </trkpt>
      <trkpt lat="43.0690040" lon="-0.5101600">
        <ele>995.4</ele>
        <time>2020-07-26T12:20:06Z</time>
      </trkpt>
      <trkpt lat="43.0689920" lon="-0.5101580">
        <ele>995.6</ele>
        <time>2020-07-26T12:20:07Z</time>
      </trkpt>
      <trkpt lat="43.0689150" lon="-0.5101450">
        <ele>996.8</ele>
        <time>2020-07-26T12:20:13Z</time>
      </trkpt>
      <trkpt lat="43.0688880" lon="-0.5101420">
        <ele>997.2</ele>
        <time>2020-07-26T12:20:15Z</time>
      </trkpt>
      <trkpt lat="43.0688410" lon="-0.5101290">
        <ele>997.9</ele>
        <time>2020-07-26T12:20:19Z</time>
      </trkpt>
      <trkpt lat="43.0687790" lon="-0.5101160">
        <ele>998.8</ele>
        <time>2020-07-26T12:20:25Z</time>
      </trkpt>
      <trkpt lat="43.0687610" lon="-0.5101050">
        <ele>999.1</ele>
        <time>2020-07-26T12:20:27Z</time>
      </trkpt>
      <trkpt lat="43.0686960" lon="-0.5100930">
        <ele>1000.0</ele>
        <time>2020-07-26T12:20:33Z</time>
      </trkpt>
      <trkpt lat="43.0686600" lon="-0.5100960">
        <ele>1000.5</ele>
        <time>2020-07-26T12:20:36Z</time>
      </trkpt>
      <trkpt lat="43.0686120" lon="-0.5100840">
        <ele>1001.1</ele>
        <time>2020-07-26T12:20:40Z</time>
      </trkpt>
      <trkpt lat="43.0685320" lon="-0.5100520">
        <ele>1002.1</ele>
        <time>2020-07-26T12:20:47Z</time>
      </trkpt>
      <trkpt lat="43.0685220" lon="-0.5100460">
        <ele>1002.2</ele>
        <time>2020-07-26T12:20:48Z</time>
      </trkpt>
      <trkpt lat="43.0684880" lon="-0.5099680">
        <ele>1002.9</ele>
        <time>2020-07-26T12:20:54Z</time>
      </trkpt>
      <trkpt lat="43.0684870" lon="-0.5099490">
        <ele>1003.1</ele>
        <time>2020-07-26T12:20:55Z</time>
      </trkpt>
      <trkpt lat="43.0684910" lon="-0.5099060">
        <ele>1003.4</ele>
        <time>2020-07-26T12:20:58Z</time>
      </trkpt>
      <trkpt lat="43.0685580" lon="-0.5097890">
        <ele>1004.5</ele>
        <time>2020-07-26T12:21:02Z</time>
      </trkpt>
      <trkpt lat="43.0685860" lon="-0.5097520">
        <ele>1004.9</ele>
        <time>2020-07-26T12:21:04Z</time>
      </trkpt>
      <trkpt lat="43.0686280" lon="-0.5097140">
        <ele>1005.4</ele>
        <time>2020-07-26T12:21:08Z</time>
      </trkpt>
      <trkpt lat="43.0686500" lon="-0.5097000">
        <ele>1005.7</ele>
        <time>2020-07-26T12:21:10Z</time>
      </trkpt>
      <trkpt lat="43.0687460" lon="-0.5096820">
        <ele>1006.8</ele>
        <time>2020-07-26T12:21:17Z</time>
      </trkpt>
      <trkpt lat="43.0687790" lon="-0.5096760">
        <ele>1007.2</ele>
        <time>2020-07-26T12:21:20Z</time>
      </trkpt>
      <trkpt lat="43.0688250" lon="-0.5096600">
        <ele>1007.9</ele>
        <time>2020-07-26T12:21:25Z</time>
      </trkpt>
      <trkpt lat="43.0688780" lon="-0.5096270">
        <ele>1008.7</ele>
        <time>2020-07-26T12:21:31Z</time>
      </trkpt>
      <trkpt lat="43.0689020" lon="-0.5096130">
        <ele>1009.1</ele>
        <time>2020-07-26T12:21:33Z</time>
      </trkpt>
      <trkpt lat="43.0689360" lon="-0.5095820">
        <ele>1009.7</ele>
        <time>2020-07-26T12:21:37Z</time>
      </trkpt>
      <trkpt lat="43.0689430" lon="-0.5095720">
        <ele>1009.8</ele>
        <time>2020-07-26T12:21:38Z</time>
      </trkpt>
      <trkpt lat="43.0689550" lon="-0.5095530">
        <ele>1010.1</ele>
        <time>2020-07-26T12:21:40Z</time>
      </trkpt>
      <trkpt lat="43.0689870" lon="-0.5095240">
        <ele>1010.7</ele>
        <time>2020-07-26T12:21:44Z</time>
      </trkpt>
      <trkpt lat="43.0690050" lon="-0.5095090">
        <ele>1011.0</ele>
        <time>2020-07-26T12:21:46Z</time>
      </trkpt>
      <trkpt lat="43.0690480" lon="-0.5094790">
        <ele>1011.7</ele>
        <time>2020-07-26T12:21:50Z</time>
      </trkpt>
      <trkpt lat="43.0690550" lon="-0.5094690">
        <ele>1011.9</ele>
        <time>2020-07-26T12:21:51Z</time>
      </trkpt>
      <trkpt lat="43.0690600" lon="-0.5094590">
        <ele>1012.0</ele>
        <time>2020-07-26T12:21:52Z</time>
      </trkpt>
      <trkpt lat="43.0691060" lon="-0.5094290">
        <ele>1012.8</ele>
        <time>2020-07-26T12:21:56Z</time>
      </trkpt>
      <trkpt lat="43.0691390" lon="-0.5094020">
        <ele>1013.3</ele>
        <time>2020-07-26T12:21:59Z</time>
      </trkpt>
      <trkpt lat="43.0692070" lon="-0.5093480">
        <ele>1014.4</ele>
        <time>2020-07-26T12:22:07Z</time>
      </trkpt>
      <trkpt lat="43.0692380" lon="-0.5093130">
        <ele>1015.0</ele>
        <time>2020-07-26T12:22:11Z</time>
      </trkpt>
      <trkpt lat="43.0692670" lon="-0.5092900">
        <ele>1015.4</ele>
        <time>2020-07-26T12:22:15Z</time>
      </trkpt>
      <trkpt lat="43.0692980" lon="-0.5092620">
        <ele>1015.9</ele>
        <time>2020-07-26T12:22:21Z</time>
      </trkpt>
      <trkpt lat="43.0693210" lon="-0.5092500">
        <ele>1016.2</ele>
        <time>2020-07-26T12:22:23Z</time>
      </trkpt>
      <trkpt lat="43.0693890" lon="-0.5092160">
        <ele>1017.2</ele>
        <time>2020-07-26T12:22:29Z</time>
      </trkpt>
      <trkpt lat="43.0694620" lon="-0.5091590">
        <ele>1018.3</ele>
        <time>2020-07-26T12:22:36Z</time>
      </trkpt>
      <trkpt lat="43.0695540" lon="-0.5091040">
        <ele>1019.6</ele>
        <time>2020-07-26T12:22:43Z</time>
      </trkpt>
      <trkpt lat="43.0696040" lon="-0.5090600">
        <ele>1020.3</ele>
        <time>2020-07-26T12:22:47Z</time>
      </trkpt>
      <trkpt lat="43.0696480" lon="-0.5090110">
        <ele>1020.9</ele>
        <time>2020-07-26T12:22:51Z</time>
      </trkpt>
      <trkpt lat="43.0697260" lon="-0.5089160">
        <ele>1022.2</ele>
        <time>2020-07-26T12:22:59Z</time>
      </trkpt>
      <trkpt lat="43.0697360" lon="-0.5089030">
        <ele>1022.3</ele>
        <time>2020-07-26T12:23:00Z</time>
      </trkpt>
      <trkpt lat="43.0697720" lon="-0.5088540">
        <ele>1022.9</ele>
        <time>2020-07-26T12:23:04Z</time>
      </trkpt>
      <trkpt lat="43.0698210" lon="-0.5087890">
        <ele>1023.8</ele>
        <time>2020-07-26T12:23:10Z</time>
      </trkpt>
      <trkpt lat="43.0698280" lon="-0.5087780">
        <ele>1023.9</ele>
        <time>2020-07-26T12:23:11Z</time>
      </trkpt>
      <trkpt lat="43.0698770" lon="-0.5086940">
        <ele>1024.8</ele>
        <time>2020-07-26T12:23:18Z</time>
      </trkpt>
      <trkpt lat="43.0698830" lon="-0.5086830">
        <ele>1025.0</ele>
        <time>2020-07-26T12:23:19Z</time>
      </trkpt>
      <trkpt lat="43.0699540" lon="-0.5085720">
        <ele>1026.3</ele>
        <time>2020-07-26T12:23:28Z</time>
      </trkpt>
      <trkpt lat="43.0700140" lon="-0.5084950">
        <ele>1027.3</ele>
        <time>2020-07-26T12:23:35Z</time>
      </trkpt>
      <trkpt lat="43.0700860" lon="-0.5084090">
        <ele>1028.5</ele>
        <time>2020-07-26T12:23:43Z</time>
      </trkpt>
      <trkpt lat="43.0700960" lon="-0.5083970">
        <ele>1028.6</ele>
        <time>2020-07-26T12:23:44Z</time>
      </trkpt>
      <trkpt lat="43.0701630" lon="-0.5083060">
        <ele>1029.4</ele>
        <time>2020-07-26T12:23:52Z</time>
      </trkpt>
      <trkpt lat="43.0701770" lon="-0.5082840">
        <ele>1029.6</ele>
        <time>2020-07-26T12:23:54Z</time>
      </trkpt>
      <trkpt lat="43.0702220" lon="-0.5082180">
        <ele>1030.2</ele>
        <time>2020-07-26T12:24:00Z</time>
      </trkpt>
      <trkpt lat="43.0702540" lon="-0.5081740">
        <ele>1030.6</ele>
        <time>2020-07-26T12:24:04Z</time>
      </trkpt>
      <trkpt lat="43.0702870" lon="-0.5081310">
        <ele>1031.0</ele>
        <time>2020-07-26T12:24:08Z</time>
      </trkpt>
      <trkpt lat="43.0703480" lon="-0.5080560">
        <ele>1031.8</ele>
        <time>2020-07-26T12:24:15Z</time>
      </trkpt>
      <trkpt lat="43.0703560" lon="-0.5080440">
        <ele>1031.9</ele>
        <time>2020-07-26T12:24:16Z</time>
      </trkpt>
      <trkpt lat="43.0703940" lon="-0.5079920">
        <ele>1032.4</ele>
        <time>2020-07-26T12:24:21Z</time>
      </trkpt>
      <trkpt lat="43.0704360" lon="-0.5079210">
        <ele>1033.0</ele>
        <time>2020-07-26T12:24:27Z</time>
      </trkpt>
      <trkpt lat="43.0704490" lon="-0.5078960">
        <ele>1033.2</ele>
        <time>2020-07-26T12:24:29Z</time>
      </trkpt>
      <trkpt lat="43.0704790" lon="-0.5077920">
        <ele>1033.9</ele>
        <time>2020-07-26T12:24:37Z</time>
      </trkpt>
      <trkpt lat="43.0704810" lon="-0.5077780">
        <ele>1034.0</ele>
        <time>2020-07-26T12:24:38Z</time>
      </trkpt>
      <trkpt lat="43.0704860" lon="-0.5076950">
        <ele>1034.5</ele>
        <time>2020-07-26T12:24:44Z</time>
      </trkpt>
      <trkpt lat="43.0704860" lon="-0.5076670">
        <ele>1034.6</ele>
        <time>2020-07-26T12:24:46Z</time>
      </trkpt>
      <trkpt lat="43.0704850" lon="-0.5076540">
        <ele>1034.7</ele>
        <time>2020-07-26T12:24:47Z</time>
      </trkpt>
      <trkpt lat="43.0704850" lon="-0.5076420">
        <ele>1034.7</ele>
        <time>2020-07-26T12:24:48Z</time>
      </trkpt>
      <trkpt lat="43.0704780" lon="-0.5075300">
        <ele>1035.2</ele>
        <time>2020-07-26T12:30:28Z</time>
      </trkpt>
      <trkpt lat="43.0704620" lon="-0.5074750">
        <ele>1035.3</ele>
        <time>2020-07-26T12:30:30Z</time>
      </trkpt>
      <trkpt lat="43.0704500" lon="-0.5073660">
        <ele>1035.7</ele>
        <time>2020-07-26T12:30:33Z</time>
      </trkpt>
      <trkpt lat="43.0704270" lon="-0.5072130">
        <ele>1035.9</ele>
        <time>2020-07-26T12:30:36Z</time>
      </trkpt>
      <trkpt lat="43.0703300" lon="-0.5068820">
        <ele>1034.8</ele>
        <time>2020-07-26T12:30:41Z</time>
      </trkpt>
      <trkpt lat="43.0702130" lon="-0.5065450">
        <ele>1033.3</ele>
        <time>2020-07-26T12:30:45Z</time>
      </trkpt>
      <trkpt lat="43.0701750" lon="-0.5064570">
        <ele>1032.8</ele>
        <time>2020-07-26T12:30:46Z</time>
      </trkpt>
      <trkpt lat="43.0700870" lon="-0.5063020">
        <ele>1031.7</ele>
        <time>2020-07-26T12:30:48Z</time>
      </trkpt>
      <trkpt lat="43.0700320" lon="-0.5062400">
        <ele>1031.1</ele>
        <time>2020-07-26T12:30:49Z</time>
      </trkpt>
      <trkpt lat="43.0699640" lon="-0.5061920">
        <ele>1030.5</ele>
        <time>2020-07-26T12:30:50Z</time>
      </trkpt>
      <trkpt lat="43.0698010" lon="-0.5060940">
        <ele>1029.2</ele>
        <time>2020-07-26T12:30:52Z</time>
      </trkpt>
      <trkpt lat="43.0696730" lon="-0.5059320">
        <ele>1027.9</ele>
        <time>2020-07-26T12:30:54Z</time>
      </trkpt>
      <trkpt lat="43.0696180" lon="-0.5058370">
        <ele>1027.2</ele>
        <time>2020-07-26T12:30:55Z</time>
      </trkpt>
      <trkpt lat="43.0695160" lon="-0.5056320">
        <ele>1025.9</ele>
        <time>2020-07-26T12:30:57Z</time>
      </trkpt>
      <trkpt lat="43.0694630" lon="-0.5055250">
        <ele>1025.2</ele>
        <time>2020-07-26T12:30:58Z</time>
      </trkpt>
      <trkpt lat="43.0693560" lon="-0.5053040">
        <ele>1023.7</ele>
        <time>2020-07-26T12:31:00Z</time>
      </trkpt>
      <trkpt lat="43.0692620" lon="-0.5050630">
        <ele>1022.2</ele>
        <time>2020-07-26T12:31:02Z</time>
      </trkpt>
      <trkpt lat="43.0692230" lon="-0.5049430">
        <ele>1021.5</ele>
        <time>2020-07-26T12:31:03Z</time>
      </trkpt>
      <trkpt lat="43.0692000" lon="-0.5048190">
        <ele>1020.9</ele>
        <time>2020-07-26T12:31:04Z</time>
      </trkpt>
      <trkpt lat="43.0692070" lon="-0.5045630">
        <ele>1019.7</ele>
        <time>2020-07-26T12:31:06Z</time>
      </trkpt>
      <trkpt lat="43.0692260" lon="-0.5044340">
        <ele>1019.0</ele>
        <time>2020-07-26T12:31:07Z</time>
      </trkpt>
      <trkpt lat="43.0692470" lon="-0.5043060">
        <ele>1018.4</ele>
        <time>2020-07-26T12:31:08Z</time>
      </trkpt>
      <trkpt lat="43.0692820" lon="-0.5041820">
        <ele>1017.7</ele>
        <time>2020-07-26T12:31:09Z</time>
      </trkpt>
      <trkpt lat="43.0693410" lon="-0.5039220">
        <ele>1016.4</ele>
        <time>2020-07-26T12:31:11Z</time>
      </trkpt>
      <trkpt lat="43.0694060" lon="-0.5036540">
        <ele>1014.9</ele>
        <time>2020-07-26T12:31:13Z</time>
      </trkpt>
      <trkpt lat="43.0694630" lon="-0.5033750">
        <ele>1013.4</ele>
        <time>2020-07-26T12:31:15Z</time>
      </trkpt>
      <trkpt lat="43.0694930" lon="-0.5030890">
        <ele>1012.0</ele>
        <time>2020-07-26T12:31:17Z</time>
      </trkpt>
      <trkpt lat="43.0694930" lon="-0.5029430">
        <ele>1011.4</ele>
        <time>2020-07-26T12:31:18Z</time>
      </trkpt>
      <trkpt lat="43.0694810" lon="-0.5026310">
        <ele>1010.2</ele>
        <time>2020-07-26T12:31:20Z</time>
      </trkpt>
      <trkpt lat="43.0694680" lon="-0.5024730">
        <ele>1009.6</ele>
        <time>2020-07-26T12:31:21Z</time>
      </trkpt>
      <trkpt lat="43.0694470" lon="-0.5023220">
        <ele>1009.0</ele>
        <time>2020-07-26T12:31:22Z</time>
      </trkpt>
      <trkpt lat="43.0694160" lon="-0.5021780">
        <ele>1008.4</ele>
        <time>2020-07-26T12:31:23Z</time>
      </trkpt>
      <trkpt lat="43.0693460" lon="-0.5019150">
        <ele>1007.4</ele>
        <time>2020-07-26T12:31:25Z</time>
      </trkpt>
      <trkpt lat="43.0692830" lon="-0.5018050">
        <ele>1006.8</ele>
        <time>2020-07-26T12:31:26Z</time>
      </trkpt>
      <trkpt lat="43.0692100" lon="-0.5017050">
        <ele>1006.0</ele>
        <time>2020-07-26T12:31:27Z</time>
      </trkpt>
      <trkpt lat="43.0690430" lon="-0.5015220">
        <ele>1004.5</ele>
        <time>2020-07-26T12:31:29Z</time>
      </trkpt>
      <trkpt lat="43.0688700" lon="-0.5013370">
        <ele>1003.1</ele>
        <time>2020-07-26T12:31:31Z</time>
      </trkpt>
      <trkpt lat="43.0687890" lon="-0.5012320">
        <ele>1002.5</ele>
        <time>2020-07-26T12:31:32Z</time>
      </trkpt>
      <trkpt lat="43.0685430" lon="-0.5009020">
        <ele>1000.7</ele>
        <time>2020-07-26T12:31:35Z</time>
      </trkpt>
      <trkpt lat="43.0683290" lon="-0.5007520">
        <ele>999.2</ele>
        <time>2020-07-26T12:31:37Z</time>
      </trkpt>
      <trkpt lat="43.0682100" lon="-0.5006940">
        <ele>998.3</ele>
        <time>2020-07-26T12:31:38Z</time>
      </trkpt>
      <trkpt lat="43.0681010" lon="-0.5006310">
        <ele>997.6</ele>
        <time>2020-07-26T12:31:39Z</time>
      </trkpt>
      <trkpt lat="43.0678850" lon="-0.5005010">
        <ele>996.2</ele>
        <time>2020-07-26T12:31:41Z</time>
      </trkpt>
      <trkpt lat="43.0677630" lon="-0.5004780">
        <ele>995.6</ele>
        <time>2020-07-26T12:31:42Z</time>
      </trkpt>
      <trkpt lat="43.0676450" lon="-0.5004710">
        <ele>995.1</ele>
        <time>2020-07-26T12:31:43Z</time>
      </trkpt>
      <trkpt lat="43.0674060" lon="-0.5004610">
        <ele>994.2</ele>
        <time>2020-07-26T12:31:45Z</time>
      </trkpt>
      <trkpt lat="43.0672960" lon="-0.5004470">
        <ele>993.9</ele>
        <time>2020-07-26T12:31:46Z</time>
      </trkpt>
      <trkpt lat="43.0671940" lon="-0.5004370">
        <ele>993.7</ele>
        <time>2020-07-26T12:31:47Z</time>
      </trkpt>
      <trkpt lat="43.0670930" lon="-0.5004370">
        <ele>993.4</ele>
        <time>2020-07-26T12:31:48Z</time>
      </trkpt>
      <trkpt lat="43.0669930" lon="-0.5004570">
        <ele>993.0</ele>
        <time>2020-07-26T12:31:49Z</time>
      </trkpt>
      <trkpt lat="43.0667220" lon="-0.5006170">
        <ele>992.6</ele>
        <time>2020-07-26T12:31:52Z</time>
      </trkpt>
      <trkpt lat="43.0662510" lon="-0.5010240">
        <ele>992.9</ele>
        <time>2020-07-26T12:31:58Z</time>
      </trkpt>
      <trkpt lat="43.0661780" lon="-0.5010940">
        <ele>992.9</ele>
        <time>2020-07-26T12:31:59Z</time>
      </trkpt>
      <trkpt lat="43.0658260" lon="-0.5014240">
        <ele>993.5</ele>
        <time>2020-07-26T12:32:04Z</time>
      </trkpt>
      <trkpt lat="43.0654050" lon="-0.5019100">
        <ele>994.0</ele>
        <time>2020-07-26T12:32:11Z</time>
      </trkpt>
      <trkpt lat="43.0653440" lon="-0.5019740">
        <ele>994.1</ele>
        <time>2020-07-26T12:32:12Z</time>
      </trkpt>
      <trkpt lat="43.0651710" lon="-0.5020850">
        <ele>994.5</ele>
        <time>2020-07-26T12:32:15Z</time>
      </trkpt>
      <trkpt lat="43.0650800" lon="-0.5019900">
        <ele>994.5</ele>
        <time>2020-07-26T12:32:18Z</time>
      </trkpt>
      <trkpt lat="43.0650560" lon="-0.5018430">
        <ele>994.3</ele>
        <time>2020-07-26T12:32:20Z</time>
      </trkpt>
      <trkpt lat="43.0650370" lon="-0.5016750">
        <ele>994.1</ele>
        <time>2020-07-26T12:32:22Z</time>
      </trkpt>
      <trkpt lat="43.0650200" lon="-0.5014090">
        <ele>994.0</ele>
        <time>2020-07-26T12:32:25Z</time>
      </trkpt>
      <trkpt lat="43.0650400" lon="-0.5012030">
        <ele>993.9</ele>
        <time>2020-07-26T12:32:27Z</time>
      </trkpt>
      <trkpt lat="43.0651330" lon="-0.5005130">
        <ele>993.9</ele>
        <time>2020-07-26T12:32:34Z</time>
      </trkpt>
      <trkpt lat="43.0651680" lon="-0.5003190">
        <ele>993.8</ele>
        <time>2020-07-26T12:32:36Z</time>
      </trkpt>
      <trkpt lat="43.0651910" lon="-0.5001010">
        <ele>993.7</ele>
        <time>2020-07-26T12:32:38Z</time>
      </trkpt>
      <trkpt lat="43.0652140" lon="-0.4998930">
        <ele>993.7</ele>
        <time>2020-07-26T12:32:40Z</time>
      </trkpt>
      <trkpt lat="43.0652370" lon="-0.4994740">
        <ele>993.7</ele>
        <time>2020-07-26T12:32:44Z</time>
      </trkpt>
      <trkpt lat="43.0652330" lon="-0.4993750">
        <ele>993.7</ele>
        <time>2020-07-26T12:32:45Z</time>
      </trkpt>
      <trkpt lat="43.0651630" lon="-0.4989480">
        <ele>993.7</ele>
        <time>2020-07-26T12:32:49Z</time>
      </trkpt>
      <trkpt lat="43.0651410" lon="-0.4988370">
        <ele>993.7</ele>
        <time>2020-07-26T12:32:50Z</time>
      </trkpt>
      <trkpt lat="43.0650500" lon="-0.4985350">
        <ele>993.8</ele>
        <time>2020-07-26T12:32:53Z</time>
      </trkpt>
      <trkpt lat="43.0648660" lon="-0.4983720">
        <ele>994.0</ele>
        <time>2020-07-26T12:32:56Z</time>
      </trkpt>
      <trkpt lat="43.0647240" lon="-0.4984190">
        <ele>994.0</ele>
        <time>2020-07-26T12:32:58Z</time>
      </trkpt>
      <trkpt lat="43.0644880" lon="-0.4986120">
        <ele>993.9</ele>
        <time>2020-07-26T12:33:02Z</time>
      </trkpt>
      <trkpt lat="43.0644440" lon="-0.4986780">
        <ele>993.8</ele>
        <time>2020-07-26T12:33:03Z</time>
      </trkpt>
      <trkpt lat="43.0643480" lon="-0.4987720">
        <ele>993.8</ele>
        <time>2020-07-26T12:33:05Z</time>
      </trkpt>
      <trkpt lat="43.0641480" lon="-0.4988270">
        <ele>993.9</ele>
        <time>2020-07-26T12:33:08Z</time>
      </trkpt>
      <trkpt lat="43.0639530" lon="-0.4987530">
        <ele>993.9</ele>
        <time>2020-07-26T12:33:11Z</time>
      </trkpt>
      <trkpt lat="43.0637810" lon="-0.4985730">
        <ele>993.6</ele>
        <time>2020-07-26T12:33:14Z</time>
      </trkpt>
      <trkpt lat="43.0637170" lon="-0.4984980">
        <ele>993.4</ele>
        <time>2020-07-26T12:33:15Z</time>
      </trkpt>
      <trkpt lat="43.0634060" lon="-0.4981270">
        <ele>992.9</ele>
        <time>2020-07-26T12:33:20Z</time>
      </trkpt>
      <trkpt lat="43.0632300" lon="-0.4979050">
        <ele>993.0</ele>
        <time>2020-07-26T12:33:23Z</time>
      </trkpt>
      <trkpt lat="43.0631000" lon="-0.4977920">
        <ele>993.0</ele>
        <time>2020-07-26T12:33:25Z</time>
      </trkpt>
      <trkpt lat="43.0629870" lon="-0.4976760">
        <ele>993.1</ele>
        <time>2020-07-26T12:33:27Z</time>
      </trkpt>
      <trkpt lat="43.0628190" lon="-0.4974810">
        <ele>993.3</ele>
        <time>2020-07-26T12:33:30Z</time>
      </trkpt>
      <trkpt lat="43.0625250" lon="-0.4972020">
        <ele>993.3</ele>
        <time>2020-07-26T12:33:35Z</time>
      </trkpt>
      <trkpt lat="43.0622540" lon="-0.4970650">
        <ele>993.5</ele>
        <time>2020-07-26T12:33:39Z</time>
      </trkpt>
      <trkpt lat="43.0621900" lon="-0.4970150">
        <ele>993.5</ele>
        <time>2020-07-26T12:33:40Z</time>
      </trkpt>
      <trkpt lat="43.0620190" lon="-0.4968230">
        <ele>993.4</ele>
        <time>2020-07-26T12:33:43Z</time>
      </trkpt>
      <trkpt lat="43.0619040" lon="-0.4967010">
        <ele>993.6</ele>
        <time>2020-07-26T12:33:45Z</time>
      </trkpt>
      <trkpt lat="43.0617810" lon="-0.4966110">
        <ele>993.6</ele>
        <time>2020-07-26T12:33:47Z</time>
      </trkpt>
      <trkpt lat="43.0616460" lon="-0.4965610">
        <ele>993.6</ele>
        <time>2020-07-26T12:33:49Z</time>
      </trkpt>
      <trkpt lat="43.0613070" lon="-0.4964820">
        <ele>993.5</ele>
        <time>2020-07-26T12:33:54Z</time>
      </trkpt>
      <trkpt lat="43.0610770" lon="-0.4964280">
        <ele>993.5</ele>
        <time>2020-07-26T12:33:57Z</time>
      </trkpt>
      <trkpt lat="43.0610090" lon="-0.4964010">
        <ele>993.6</ele>
        <time>2020-07-26T12:33:58Z</time>
      </trkpt>
      <trkpt lat="43.0607470" lon="-0.4962640">
        <ele>993.7</ele>
        <time>2020-07-26T12:34:02Z</time>
      </trkpt>
      <trkpt lat="43.0606820" lon="-0.4962530">
        <ele>993.7</ele>
        <time>2020-07-26T12:34:03Z</time>
      </trkpt>
      <trkpt lat="43.0605410" lon="-0.4962080">
        <ele>993.7</ele>
        <time>2020-07-26T12:34:05Z</time>
      </trkpt>
      <trkpt lat="43.0604430" lon="-0.4960940">
        <ele>993.7</ele>
        <time>2020-07-26T12:34:07Z</time>
      </trkpt>
      <trkpt lat="43.0603730" lon="-0.4958310">
        <ele>993.7</ele>
        <time>2020-07-26T12:34:10Z</time>
      </trkpt>
      <trkpt lat="43.0602370" lon="-0.4953640">
        <ele>993.6</ele>
        <time>2020-07-26T12:34:15Z</time>
      </trkpt>
      <trkpt lat="43.0600980" lon="-0.4949170">
        <ele>994.0</ele>
        <time>2020-07-26T12:34:20Z</time>
      </trkpt>
      <trkpt lat="43.0600550" lon="-0.4947410">
        <ele>994.2</ele>
        <time>2020-07-26T12:34:22Z</time>
      </trkpt>
      <trkpt lat="43.0600250" lon="-0.4944800">
        <ele>994.3</ele>
        <time>2020-07-26T12:34:25Z</time>
      </trkpt>
      <trkpt lat="43.0600300" lon="-0.4943040">
        <ele>994.4</ele>
        <time>2020-07-26T12:34:27Z</time>
      </trkpt>
      <trkpt lat="43.0600440" lon="-0.4942170">
        <ele>994.4</ele>
        <time>2020-07-26T12:34:28Z</time>
      </trkpt>
      <trkpt lat="43.0600620" lon="-0.4941330">
        <ele>994.4</ele>
        <time>2020-07-26T12:34:29Z</time>
      </trkpt>
      <trkpt lat="43.0601100" lon="-0.4939630">
        <ele>994.5</ele>
        <time>2020-07-26T12:34:31Z</time>
      </trkpt>
      <trkpt lat="43.0601390" lon="-0.4938770">
        <ele>994.6</ele>
        <time>2020-07-26T12:34:32Z</time>
      </trkpt>
      <trkpt lat="43.0603460" lon="-0.4933930">
        <ele>995.4</ele>
        <time>2020-07-26T12:34:38Z</time>
      </trkpt>
      <trkpt lat="43.0605410" lon="-0.4929790">
        <ele>996.5</ele>
        <time>2020-07-26T12:34:44Z</time>
      </trkpt>
      <trkpt lat="43.0605780" lon="-0.4928240">
        <ele>996.7</ele>
        <time>2020-07-26T12:34:46Z</time>
      </trkpt>
      <trkpt lat="43.0605880" lon="-0.4925800">
        <ele>997.0</ele>
        <time>2020-07-26T12:34:49Z</time>
      </trkpt>
      <trkpt lat="43.0605830" lon="-0.4925010">
        <ele>997.1</ele>
        <time>2020-07-26T12:34:50Z</time>
      </trkpt>
      <trkpt lat="43.0605740" lon="-0.4924200">
        <ele>997.1</ele>
        <time>2020-07-26T12:34:51Z</time>
      </trkpt>
      <trkpt lat="43.0604980" lon="-0.4920930">
        <ele>997.5</ele>
        <time>2020-07-26T12:34:55Z</time>
      </trkpt>
      <trkpt lat="43.0604240" lon="-0.4918650">
        <ele>997.9</ele>
        <time>2020-07-26T12:34:58Z</time>
      </trkpt>
      <trkpt lat="43.0603220" lon="-0.4915810">
        <ele>998.3</ele>
        <time>2020-07-26T12:35:02Z</time>
      </trkpt>
      <trkpt lat="43.0601900" lon="-0.4912160">
        <ele>998.9</ele>
        <time>2020-07-26T12:35:07Z</time>
      </trkpt>
      <trkpt lat="43.0601610" lon="-0.4911470">
        <ele>999.1</ele>
        <time>2020-07-26T12:35:08Z</time>
      </trkpt>
      <trkpt lat="43.0600540" lon="-0.4909500">
        <ele>999.7</ele>
        <time>2020-07-26T12:35:11Z</time>
      </trkpt>
      <trkpt lat="43.0599880" lon="-0.4909360">
        <ele>999.9</ele>
        <time>2020-07-26T12:35:12Z</time>
      </trkpt>
      <trkpt lat="43.0598170" lon="-0.4910200">
        <ele>1000.2</ele>
        <time>2020-07-26T12:35:15Z</time>
      </trkpt>
      <trkpt lat="43.0597510" lon="-0.4911360">
        <ele>1000.3</ele>
        <time>2020-07-26T12:35:17Z</time>
      </trkpt>
      <trkpt lat="43.0596590" lon="-0.4913200">
        <ele>1000.7</ele>
        <time>2020-07-26T12:35:20Z</time>
      </trkpt>
      <trkpt lat="43.0596230" lon="-0.4913760">
        <ele>1000.8</ele>
        <time>2020-07-26T12:35:21Z</time>
      </trkpt>
      <trkpt lat="43.0595270" lon="-0.4915420">
        <ele>1001.3</ele>
        <time>2020-07-26T12:35:24Z</time>
      </trkpt>
      <trkpt lat="43.0595060" lon="-0.4916520">
        <ele>1001.5</ele>
        <time>2020-07-26T12:35:26Z</time>
      </trkpt>
      <trkpt lat="43.0594920" lon="-0.4918320">
        <ele>1001.9</ele>
        <time>2020-07-26T12:35:29Z</time>
      </trkpt>
      <trkpt lat="43.0594880" lon="-0.4918920">
        <ele>1002.0</ele>
        <time>2020-07-26T12:35:30Z</time>
      </trkpt>
      <trkpt lat="43.0594800" lon="-0.4920240">
        <ele>1002.2</ele>
        <time>2020-07-26T12:35:32Z</time>
      </trkpt>
      <trkpt lat="43.0594700" lon="-0.4920940">
        <ele>1002.3</ele>
        <time>2020-07-26T12:35:33Z</time>
      </trkpt>
      <trkpt lat="43.0594460" lon="-0.4922940">
        <ele>1002.7</ele>
        <time>2020-07-26T12:35:36Z</time>
      </trkpt>
      <trkpt lat="43.0593910" lon="-0.4926130">
        <ele>1002.9</ele>
        <time>2020-07-26T12:35:41Z</time>
      </trkpt>
      <trkpt lat="43.0593800" lon="-0.4926860">
        <ele>1002.9</ele>
        <time>2020-07-26T12:35:42Z</time>
      </trkpt>
      <trkpt lat="43.0593360" lon="-0.4929360">
        <ele>1002.2</ele>
        <time>2020-07-26T12:35:45Z</time>
      </trkpt>
      <trkpt lat="43.0592010" lon="-0.4932060">
        <ele>1000.2</ele>
        <time>2020-07-26T12:35:48Z</time>
      </trkpt>
      <trkpt lat="43.0590180" lon="-0.4934610">
        <ele>998.0</ele>
        <time>2020-07-26T12:35:51Z</time>
      </trkpt>
      <trkpt lat="43.0588780" lon="-0.4935150">
        <ele>996.7</ele>
        <time>2020-07-26T12:35:53Z</time>
      </trkpt>
      <trkpt lat="43.0587200" lon="-0.4933550">
        <ele>995.1</ele>
        <time>2020-07-26T12:35:55Z</time>
      </trkpt>
      <trkpt lat="43.0586010" lon="-0.4931990">
        <ele>993.9</ele>
        <time>2020-07-26T12:35:57Z</time>
      </trkpt>
      <trkpt lat="43.0585430" lon="-0.4931030">
        <ele>993.2</ele>
        <time>2020-07-26T12:35:58Z</time>
      </trkpt>
      <trkpt lat="43.0585250" lon="-0.4929870">
        <ele>992.5</ele>
        <time>2020-07-26T12:35:59Z</time>
      </trkpt>
      <trkpt lat="43.0585270" lon="-0.4928690">
        <ele>989.8</ele>
        <time>2020-07-26T12:36:00Z</time>
      </trkpt>
      <trkpt lat="43.0585860" lon="-0.4927400">
        <ele>988.2</ele>
        <time>2020-07-26T12:36:01Z</time>
      </trkpt>
      <trkpt lat="43.0586300" lon="-0.4926250">
        <ele>987.0</ele>
        <time>2020-07-26T12:36:02Z</time>
      </trkpt>
      <trkpt lat="43.0586950" lon="-0.4925110">
        <ele>985.8</ele>
        <time>2020-07-26T12:36:03Z</time>
      </trkpt>
      <trkpt lat="43.0588390" lon="-0.4922540">
        <ele>983.5</ele>
        <time>2020-07-26T12:36:05Z</time>
      </trkpt>
      <trkpt lat="43.0589090" lon="-0.4921280">
        <ele>982.4</ele>
        <time>2020-07-26T12:36:06Z</time>
      </trkpt>
      <trkpt lat="43.0589680" lon="-0.4919960">
        <ele>981.4</ele>
        <time>2020-07-26T12:36:07Z</time>
      </trkpt>
      <trkpt lat="43.0591010" lon="-0.4915710">
        <ele>978.5</ele>
        <time>2020-07-26T12:36:10Z</time>
      </trkpt>
      <trkpt lat="43.0591580" lon="-0.4912710">
        <ele>976.7</ele>
        <time>2020-07-26T12:36:12Z</time>
      </trkpt>
      <trkpt lat="43.0591990" lon="-0.4911320">
        <ele>975.8</ele>
        <time>2020-07-26T12:36:13Z</time>
      </trkpt>
      <trkpt lat="43.0592570" lon="-0.4910060">
        <ele>974.9</ele>
        <time>2020-07-26T12:36:14Z</time>
      </trkpt>
      <trkpt lat="43.0593220" lon="-0.4908820">
        <ele>973.9</ele>
        <time>2020-07-26T12:36:15Z</time>
      </trkpt>
      <trkpt lat="43.0593960" lon="-0.4907550">
        <ele>972.8</ele>
        <time>2020-07-26T12:36:16Z</time>
      </trkpt>
      <trkpt lat="43.0594700" lon="-0.4906220">
        <ele>971.5</ele>
        <time>2020-07-26T12:36:17Z</time>
      </trkpt>
      <trkpt lat="43.0595340" lon="-0.4904830">
        <ele>970.3</ele>
        <time>2020-07-26T12:36:18Z</time>
      </trkpt>
      <trkpt lat="43.0595900" lon="-0.4903380">
        <ele>969.0</ele>
        <time>2020-07-26T12:36:19Z</time>
      </trkpt>
      <trkpt lat="43.0596450" lon="-0.4901900">
        <ele>967.7</ele>
        <time>2020-07-26T12:36:20Z</time>
      </trkpt>
      <trkpt lat="43.0597670" lon="-0.4898880">
        <ele>965.2</ele>
        <time>2020-07-26T12:36:22Z</time>
      </trkpt>
      <trkpt lat="43.0598410" lon="-0.4897340">
        <ele>964.1</ele>
        <time>2020-07-26T12:36:23Z</time>
      </trkpt>
      <trkpt lat="43.0599130" lon="-0.4895750">
        <ele>963.2</ele>
        <time>2020-07-26T12:36:24Z</time>
      </trkpt>
      <trkpt lat="43.0600550" lon="-0.4892460">
        <ele>961.5</ele>
        <time>2020-07-26T12:36:26Z</time>
      </trkpt>
      <trkpt lat="43.0601080" lon="-0.4890950">
        <ele>960.9</ele>
        <time>2020-07-26T12:36:27Z</time>
      </trkpt>
      <trkpt lat="43.0601540" lon="-0.4889500">
        <ele>960.2</ele>
        <time>2020-07-26T12:36:28Z</time>
      </trkpt>
      <trkpt lat="43.0602000" lon="-0.4888170">
        <ele>959.6</ele>
        <time>2020-07-26T12:36:29Z</time>
      </trkpt>
      <trkpt lat="43.0602480" lon="-0.4887050">
        <ele>958.9</ele>
        <time>2020-07-26T12:36:30Z</time>
      </trkpt>
      <trkpt lat="43.0603020" lon="-0.4886210">
        <ele>958.2</ele>
        <time>2020-07-26T12:36:31Z</time>
      </trkpt>
      <trkpt lat="43.0603570" lon="-0.4885650">
        <ele>957.5</ele>
        <time>2020-07-26T12:36:32Z</time>
      </trkpt>
      <trkpt lat="43.0604230" lon="-0.4884760">
        <ele>956.6</ele>
        <time>2020-07-26T12:36:33Z</time>
      </trkpt>
      <trkpt lat="43.0604720" lon="-0.4884150">
        <ele>955.9</ele>
        <time>2020-07-26T12:36:34Z</time>
      </trkpt>
      <trkpt lat="43.0604940" lon="-0.4883380">
        <ele>955.1</ele>
        <time>2020-07-26T12:36:35Z</time>
      </trkpt>
      <trkpt lat="43.0605010" lon="-0.4882520">
        <ele>954.1</ele>
        <time>2020-07-26T12:36:36Z</time>
      </trkpt>
      <trkpt lat="43.0604960" lon="-0.4881890">
        <ele>953.3</ele>
        <time>2020-07-26T12:36:37Z</time>
      </trkpt>
      <trkpt lat="43.0604290" lon="-0.4882410">
        <ele>952.4</ele>
        <time>2020-07-26T12:36:39Z</time>
      </trkpt>
      <trkpt lat="43.0603910" lon="-0.4882970">
        <ele>954.0</ele>
        <time>2020-07-26T12:36:40Z</time>
      </trkpt>
      <trkpt lat="43.0603140" lon="-0.4884100">
        <ele>956.3</ele>
        <time>2020-07-26T12:36:41Z</time>
      </trkpt>
      <trkpt lat="43.0602400" lon="-0.4885060">
        <ele>957.9</ele>
        <time>2020-07-26T12:36:42Z</time>
      </trkpt>
      <trkpt lat="43.0601620" lon="-0.4885970">
        <ele>949.5</ele>
        <time>2020-07-26T12:36:43Z</time>
      </trkpt>
      <trkpt lat="43.0599800" lon="-0.4887700">
        <ele>940.5</ele>
        <time>2020-07-26T12:36:45Z</time>
      </trkpt>
      <trkpt lat="43.0598000" lon="-0.4889750">
        <ele>938.2</ele>
        <time>2020-07-26T12:36:47Z</time>
      </trkpt>
      <trkpt lat="43.0597130" lon="-0.4890840">
        <ele>937.1</ele>
        <time>2020-07-26T12:36:48Z</time>
      </trkpt>
      <trkpt lat="43.0596140" lon="-0.4891750">
        <ele>936.2</ele>
        <time>2020-07-26T12:36:49Z</time>
      </trkpt>
      <trkpt lat="43.0595270" lon="-0.4892560">
        <ele>935.4</ele>
        <time>2020-07-26T12:36:50Z</time>
      </trkpt>
      <trkpt lat="43.0594430" lon="-0.4893210">
        <ele>934.8</ele>
        <time>2020-07-26T12:36:51Z</time>
      </trkpt>
      <trkpt lat="43.0593580" lon="-0.4893620">
        <ele>934.3</ele>
        <time>2020-07-26T12:36:52Z</time>
      </trkpt>
      <trkpt lat="43.0592670" lon="-0.4893770">
        <ele>933.8</ele>
        <time>2020-07-26T12:36:53Z</time>
      </trkpt>
      <trkpt lat="43.0591870" lon="-0.4893660">
        <ele>933.3</ele>
        <time>2020-07-26T12:36:54Z</time>
      </trkpt>
      <trkpt lat="43.0591250" lon="-0.4893310">
        <ele>932.5</ele>
        <time>2020-07-26T12:36:55Z</time>
      </trkpt>
      <trkpt lat="43.0590870" lon="-0.4892670">
        <ele>931.7</ele>
        <time>2020-07-26T12:36:56Z</time>
      </trkpt>
      <trkpt lat="43.0590780" lon="-0.4891780">
        <ele>930.8</ele>
        <time>2020-07-26T12:36:57Z</time>
      </trkpt>
      <trkpt lat="43.0591210" lon="-0.4889750">
        <ele>928.0</ele>
        <time>2020-07-26T12:36:59Z</time>
      </trkpt>
      <trkpt lat="43.0591720" lon="-0.4888560">
        <ele>926.2</ele>
        <time>2020-07-26T12:37:00Z</time>
      </trkpt>
      <trkpt lat="43.0593000" lon="-0.4886020">
        <ele>922.5</ele>
        <time>2020-07-26T12:37:02Z</time>
      </trkpt>
      <trkpt lat="43.0593410" lon="-0.4884570">
        <ele>920.9</ele>
        <time>2020-07-26T12:37:03Z</time>
      </trkpt>
      <trkpt lat="43.0593800" lon="-0.4883020">
        <ele>919.3</ele>
        <time>2020-07-26T12:37:04Z</time>
      </trkpt>
      <trkpt lat="43.0594170" lon="-0.4881420">
        <ele>917.7</ele>
        <time>2020-07-26T12:37:05Z</time>
      </trkpt>
      <trkpt lat="43.0594550" lon="-0.4879770">
        <ele>916.2</ele>
        <time>2020-07-26T12:37:06Z</time>
      </trkpt>
      <trkpt lat="43.0594960" lon="-0.4878070">
        <ele>914.7</ele>
        <time>2020-07-26T12:37:07Z</time>
      </trkpt>
      <trkpt lat="43.0595390" lon="-0.4876310">
        <ele>913.2</ele>
        <time>2020-07-26T12:37:08Z</time>
      </trkpt>
      <trkpt lat="43.0595840" lon="-0.4874520">
        <ele>911.6</ele>
        <time>2020-07-26T12:37:09Z</time>
      </trkpt>
      <trkpt lat="43.0596300" lon="-0.4872650">
        <ele>910.0</ele>
        <time>2020-07-26T12:37:10Z</time>
      </trkpt>
      <trkpt lat="43.0596800" lon="-0.4870870">
        <ele>908.6</ele>
        <time>2020-07-26T12:37:11Z</time>
      </trkpt>
      <trkpt lat="43.0597320" lon="-0.4869050">
        <ele>907.1</ele>
        <time>2020-07-26T12:37:12Z</time>
      </trkpt>
      <trkpt lat="43.0597850" lon="-0.4867180">
        <ele>905.7</ele>
        <time>2020-07-26T12:37:13Z</time>
      </trkpt>
      <trkpt lat="43.0598430" lon="-0.4865170">
        <ele>904.3</ele>
        <time>2020-07-26T12:37:14Z</time>
      </trkpt>
      <trkpt lat="43.0599040" lon="-0.4863200">
        <ele>903.0</ele>
        <time>2020-07-26T12:37:15Z</time>
      </trkpt>
      <trkpt lat="43.0599650" lon="-0.4861270">
        <ele>901.8</ele>
        <time>2020-07-26T12:37:16Z</time>
      </trkpt>
      <trkpt lat="43.0600250" lon="-0.4859370">
        <ele>900.5</ele>
        <time>2020-07-26T12:37:17Z</time>
      </trkpt>
      <trkpt lat="43.0600780" lon="-0.4857450">
        <ele>899.1</ele>
        <time>2020-07-26T12:37:18Z</time>
      </trkpt>
      <trkpt lat="43.0601210" lon="-0.4855540">
        <ele>897.7</ele>
        <time>2020-07-26T12:37:19Z</time>
      </trkpt>
      <trkpt lat="43.0601550" lon="-0.4853620">
        <ele>896.4</ele>
        <time>2020-07-26T12:37:20Z</time>
      </trkpt>
      <trkpt lat="43.0601840" lon="-0.4851670">
        <ele>895.0</ele>
        <time>2020-07-26T12:37:21Z</time>
      </trkpt>
      <trkpt lat="43.0602110" lon="-0.4849720">
        <ele>893.9</ele>
        <time>2020-07-26T12:37:22Z</time>
      </trkpt>
      <trkpt lat="43.0602630" lon="-0.4845820">
        <ele>891.7</ele>
        <time>2020-07-26T12:37:24Z</time>
      </trkpt>
      <trkpt lat="43.0602920" lon="-0.4843890">
        <ele>890.7</ele>
        <time>2020-07-26T12:37:25Z</time>
      </trkpt>
      <trkpt lat="43.0603190" lon="-0.4841970">
        <ele>889.8</ele>
        <time>2020-07-26T12:37:26Z</time>
      </trkpt>
      <trkpt lat="43.0603460" lon="-0.4840070">
        <ele>889.0</ele>
        <time>2020-07-26T12:37:27Z</time>
      </trkpt>
      <trkpt lat="43.0603710" lon="-0.4838170">
        <ele>888.2</ele>
        <time>2020-07-26T12:37:28Z</time>
      </trkpt>
      <trkpt lat="43.0603970" lon="-0.4836270">
        <ele>887.4</ele>
        <time>2020-07-26T12:37:29Z</time>
      </trkpt>
      <trkpt lat="43.0604240" lon="-0.4834380">
        <ele>886.5</ele>
        <time>2020-07-26T12:37:30Z</time>
      </trkpt>
      <trkpt lat="43.0604510" lon="-0.4832480">
        <ele>885.6</ele>
        <time>2020-07-26T12:37:31Z</time>
      </trkpt>
      <trkpt lat="43.0604790" lon="-0.4830570">
        <ele>884.6</ele>
        <time>2020-07-26T12:37:32Z</time>
      </trkpt>
      <trkpt lat="43.0605080" lon="-0.4828670">
        <ele>883.8</ele>
        <time>2020-07-26T12:37:33Z</time>
      </trkpt>
      <trkpt lat="43.0605670" lon="-0.4824890">
        <ele>882.7</ele>
        <time>2020-07-26T12:37:35Z</time>
      </trkpt>
      <trkpt lat="43.0606230" lon="-0.4821170">
        <ele>881.5</ele>
        <time>2020-07-26T12:37:37Z</time>
      </trkpt>
      <trkpt lat="43.0606470" lon="-0.4819340">
        <ele>880.8</ele>
        <time>2020-07-26T12:37:38Z</time>
      </trkpt>
      <trkpt lat="43.0606840" lon="-0.4815730">
        <ele>879.8</ele>
        <time>2020-07-26T12:37:40Z</time>
      </trkpt>
      <trkpt lat="43.0606970" lon="-0.4813950">
        <ele>879.4</ele>
        <time>2020-07-26T12:37:41Z</time>
      </trkpt>
      <trkpt lat="43.0607090" lon="-0.4812190">
        <ele>879.0</ele>
        <time>2020-07-26T12:37:42Z</time>
      </trkpt>
      <trkpt lat="43.0607410" lon="-0.4808740">
        <ele>878.2</ele>
        <time>2020-07-26T12:37:44Z</time>
      </trkpt>
      <trkpt lat="43.0607740" lon="-0.4805370">
        <ele>877.4</ele>
        <time>2020-07-26T12:37:46Z</time>
      </trkpt>
      <trkpt lat="43.0608230" lon="-0.4802040">
        <ele>876.6</ele>
        <time>2020-07-26T12:37:48Z</time>
      </trkpt>
      <trkpt lat="43.0609280" lon="-0.4797260">
        <ele>876.0</ele>
        <time>2020-07-26T12:37:51Z</time>
      </trkpt>
      <trkpt lat="43.0610510" lon="-0.4791300">
        <ele>875.8</ele>
        <time>2020-07-26T12:37:55Z</time>
      </trkpt>
      <trkpt lat="43.0611100" lon="-0.4788550">
        <ele>875.8</ele>
        <time>2020-07-26T12:37:57Z</time>
      </trkpt>
      <trkpt lat="43.0611480" lon="-0.4787280">
        <ele>875.9</ele>
        <time>2020-07-26T12:37:58Z</time>
      </trkpt>
      <trkpt lat="43.0611950" lon="-0.4786060">
        <ele>876.0</ele>
        <time>2020-07-26T12:37:59Z</time>
      </trkpt>
      <trkpt lat="43.0612510" lon="-0.4784920">
        <ele>876.2</ele>
        <time>2020-07-26T12:38:00Z</time>
      </trkpt>
      <trkpt lat="43.0615060" lon="-0.4779430">
        <ele>875.6</ele>
        <time>2020-07-26T12:38:05Z</time>
      </trkpt>
      <trkpt lat="43.0617910" lon="-0.4771940">
        <ele>875.7</ele>
        <time>2020-07-26T12:38:12Z</time>
      </trkpt>
      <trkpt lat="43.0620190" lon="-0.4764520">
        <ele>875.7</ele>
        <time>2020-07-26T12:38:19Z</time>
      </trkpt>
      <trkpt lat="43.0620490" lon="-0.4763450">
        <ele>875.8</ele>
        <time>2020-07-26T12:38:20Z</time>
      </trkpt>
      <trkpt lat="43.0622520" lon="-0.4755840">
        <ele>875.8</ele>
        <time>2020-07-26T12:38:27Z</time>
      </trkpt>
      <trkpt lat="43.0624800" lon="-0.4748520">
        <ele>875.7</ele>
        <time>2020-07-26T12:38:34Z</time>
      </trkpt>
      <trkpt lat="43.0625450" lon="-0.4746480">
        <ele>875.6</ele>
        <time>2020-07-26T12:38:36Z</time>
      </trkpt>
      <trkpt lat="43.0626540" lon="-0.4743460">
        <ele>875.7</ele>
        <time>2020-07-26T12:38:39Z</time>
      </trkpt>
      <trkpt lat="43.0627590" lon="-0.4741870">
        <ele>875.7</ele>
        <time>2020-07-26T12:38:41Z</time>
      </trkpt>
      <trkpt lat="43.0629790" lon="-0.4740730">
        <ele>875.6</ele>
        <time>2020-07-26T12:38:44Z</time>
      </trkpt>
      <trkpt lat="43.0632760" lon="-0.4739600">
        <ele>875.5</ele>
        <time>2020-07-26T12:38:48Z</time>
      </trkpt>
      <trkpt lat="43.0634080" lon="-0.4738540">
        <ele>875.3</ele>
        <time>2020-07-26T12:38:50Z</time>
      </trkpt>
      <trkpt lat="43.0635600" lon="-0.4736160">
        <ele>875.2</ele>
        <time>2020-07-26T12:38:53Z</time>
      </trkpt>
      <trkpt lat="43.0636060" lon="-0.4735290">
        <ele>875.2</ele>
        <time>2020-07-26T12:38:54Z</time>
      </trkpt>
      <trkpt lat="43.0637880" lon="-0.4730630">
        <ele>874.9</ele>
        <time>2020-07-26T12:38:59Z</time>
      </trkpt>
      <trkpt lat="43.0639960" lon="-0.4723580">
        <ele>874.5</ele>
        <time>2020-07-26T12:39:06Z</time>
      </trkpt>
      <trkpt lat="43.0640240" lon="-0.4722570">
        <ele>874.6</ele>
        <time>2020-07-26T12:39:07Z</time>
      </trkpt>
      <trkpt lat="43.0641730" lon="-0.4717030">
        <ele>874.6</ele>
        <time>2020-07-26T12:39:13Z</time>
      </trkpt>
      <trkpt lat="43.0643560" lon="-0.4712940">
        <ele>874.6</ele>
        <time>2020-07-26T12:39:18Z</time>
      </trkpt>
      <trkpt lat="43.0645850" lon="-0.4710460">
        <ele>874.4</ele>
        <time>2020-07-26T12:39:22Z</time>
      </trkpt>
      <trkpt lat="43.0646470" lon="-0.4709910">
        <ele>874.4</ele>
        <time>2020-07-26T12:39:23Z</time>
      </trkpt>
      <trkpt lat="43.0650500" lon="-0.4705530">
        <ele>873.7</ele>
        <time>2020-07-26T12:39:30Z</time>
      </trkpt>
      <trkpt lat="43.0651010" lon="-0.4702660">
        <ele>873.8</ele>
        <time>2020-07-26T12:39:33Z</time>
      </trkpt>
      <trkpt lat="43.0650790" lon="-0.4700600">
        <ele>873.9</ele>
        <time>2020-07-26T12:39:35Z</time>
      </trkpt>
      <trkpt lat="43.0650710" lon="-0.4699570">
        <ele>874.0</ele>
        <time>2020-07-26T12:39:36Z</time>
      </trkpt>
      <trkpt lat="43.0650760" lon="-0.4697500">
        <ele>874.2</ele>
        <time>2020-07-26T12:39:38Z</time>
      </trkpt>
      <trkpt lat="43.0650990" lon="-0.4695430">
        <ele>874.2</ele>
        <time>2020-07-26T12:39:40Z</time>
      </trkpt>
      <trkpt lat="43.0652080" lon="-0.4690200">
        <ele>874.2</ele>
        <time>2020-07-26T12:39:45Z</time>
      </trkpt>
      <trkpt lat="43.0653580" lon="-0.4682900">
        <ele>875.5</ele>
        <time>2020-07-26T12:39:52Z</time>
      </trkpt>
      <trkpt lat="43.0653640" lon="-0.4681870">
        <ele>875.7</ele>
        <time>2020-07-26T12:39:53Z</time>
      </trkpt>
      <trkpt lat="43.0653920" lon="-0.4673810">
        <ele>877.1</ele>
        <time>2020-07-26T12:40:01Z</time>
      </trkpt>
      <trkpt lat="43.0654070" lon="-0.4670920">
        <ele>877.6</ele>
        <time>2020-07-26T12:40:04Z</time>
      </trkpt>
      <trkpt lat="43.0654500" lon="-0.4663590">
        <ele>878.5</ele>
        <time>2020-07-26T12:40:12Z</time>
      </trkpt>
      <trkpt lat="43.0654640" lon="-0.4656650">
        <ele>879.5</ele>
        <time>2020-07-26T12:40:20Z</time>
      </trkpt>
      <trkpt lat="43.0653680" lon="-0.4651710">
        <ele>880.0</ele>
        <time>2020-07-26T12:40:26Z</time>
      </trkpt>
      <trkpt lat="43.0653580" lon="-0.4650950">
        <ele>880.1</ele>
        <time>2020-07-26T12:40:27Z</time>
      </trkpt>
      <trkpt lat="43.0653410" lon="-0.4648930">
        <ele>880.2</ele>
        <time>2020-07-26T12:40:30Z</time>
      </trkpt>
      <trkpt lat="43.0653560" lon="-0.4646260">
        <ele>879.7</ele>
        <time>2020-07-26T12:41:13Z</time>
      </trkpt>
      <trkpt lat="43.0653620" lon="-0.4645750">
        <ele>879.5</ele>
        <time>2020-07-26T12:41:14Z</time>
      </trkpt>
      <trkpt lat="43.0653700" lon="-0.4644420">
        <ele>879.1</ele>
        <time>2020-07-26T12:41:16Z</time>
      </trkpt>
      <trkpt lat="43.0653660" lon="-0.4643650">
        <ele>878.8</ele>
        <time>2020-07-26T12:41:17Z</time>
      </trkpt>
      <trkpt lat="43.0653740" lon="-0.4641050">
        <ele>877.7</ele>
        <time>2020-07-26T12:41:20Z</time>
      </trkpt>
      <trkpt lat="43.0653960" lon="-0.4640140">
        <ele>877.2</ele>
        <time>2020-07-26T12:41:21Z</time>
      </trkpt>
      <trkpt lat="43.0654640" lon="-0.4638340">
        <ele>876.3</ele>
        <time>2020-07-26T12:41:23Z</time>
      </trkpt>
      <trkpt lat="43.0655320" lon="-0.4636270">
        <ele>875.1</ele>
        <time>2020-07-26T12:41:25Z</time>
      </trkpt>
      <trkpt lat="43.0655620" lon="-0.4635150">
        <ele>874.5</ele>
        <time>2020-07-26T12:41:26Z</time>
      </trkpt>
      <trkpt lat="43.0656690" lon="-0.4631750">
        <ele>872.7</ele>
        <time>2020-07-26T12:41:29Z</time>
      </trkpt>
      <trkpt lat="43.0657600" lon="-0.4629340">
        <ele>871.3</ele>
        <time>2020-07-26T12:41:31Z</time>
      </trkpt>
      <trkpt lat="43.0658620" lon="-0.4626850">
        <ele>869.9</ele>
        <time>2020-07-26T12:41:33Z</time>
      </trkpt>
      <trkpt lat="43.0659650" lon="-0.4624300">
        <ele>868.4</ele>
        <time>2020-07-26T12:41:35Z</time>
      </trkpt>
      <trkpt lat="43.0660100" lon="-0.4622960">
        <ele>867.7</ele>
        <time>2020-07-26T12:41:36Z</time>
      </trkpt>
      <trkpt lat="43.0660520" lon="-0.4621570">
        <ele>867.0</ele>
        <time>2020-07-26T12:41:37Z</time>
      </trkpt>
      <trkpt lat="43.0660930" lon="-0.4620180">
        <ele>866.4</ele>
        <time>2020-07-26T12:41:38Z</time>
      </trkpt>
      <trkpt lat="43.0661400" lon="-0.4618800">
        <ele>865.8</ele>
        <time>2020-07-26T12:41:39Z</time>
      </trkpt>
      <trkpt lat="43.0661960" lon="-0.4617470">
        <ele>865.1</ele>
        <time>2020-07-26T12:41:40Z</time>
      </trkpt>
      <trkpt lat="43.0662510" lon="-0.4616140">
        <ele>864.3</ele>
        <time>2020-07-26T12:41:41Z</time>
      </trkpt>
      <trkpt lat="43.0662950" lon="-0.4614690">
        <ele>863.6</ele>
        <time>2020-07-26T12:41:42Z</time>
      </trkpt>
      <trkpt lat="43.0663220" lon="-0.4613150">
        <ele>862.9</ele>
        <time>2020-07-26T12:41:43Z</time>
      </trkpt>
      <trkpt lat="43.0663320" lon="-0.4611580">
        <ele>862.2</ele>
        <time>2020-07-26T12:41:44Z</time>
      </trkpt>
      <trkpt lat="43.0663320" lon="-0.4610010">
        <ele>861.5</ele>
        <time>2020-07-26T12:41:45Z</time>
      </trkpt>
      <trkpt lat="43.0663180" lon="-0.4605290">
        <ele>859.4</ele>
        <time>2020-07-26T12:41:48Z</time>
      </trkpt>
      <trkpt lat="43.0663040" lon="-0.4602150">
        <ele>858.2</ele>
        <time>2020-07-26T12:41:50Z</time>
      </trkpt>
      <trkpt lat="43.0662800" lon="-0.4600650">
        <ele>857.6</ele>
        <time>2020-07-26T12:41:51Z</time>
      </trkpt>
      <trkpt lat="43.0662320" lon="-0.4599310">
        <ele>857.0</ele>
        <time>2020-07-26T12:41:52Z</time>
      </trkpt>
      <trkpt lat="43.0660730" lon="-0.4597470">
        <ele>855.8</ele>
        <time>2020-07-26T12:41:54Z</time>
      </trkpt>
      <trkpt lat="43.0659780" lon="-0.4596850">
        <ele>855.1</ele>
        <time>2020-07-26T12:41:55Z</time>
      </trkpt>
      <trkpt lat="43.0657930" lon="-0.4595330">
        <ele>853.8</ele>
        <time>2020-07-26T12:41:57Z</time>
      </trkpt>
      <trkpt lat="43.0657110" lon="-0.4594380">
        <ele>853.1</ele>
        <time>2020-07-26T12:41:58Z</time>
      </trkpt>
      <trkpt lat="43.0656410" lon="-0.4593280">
        <ele>852.4</ele>
        <time>2020-07-26T12:41:59Z</time>
      </trkpt>
      <trkpt lat="43.0655380" lon="-0.4590720">
        <ele>850.8</ele>
        <time>2020-07-26T12:42:01Z</time>
      </trkpt>
      <trkpt lat="43.0654720" lon="-0.4589470">
        <ele>850.1</ele>
        <time>2020-07-26T12:42:02Z</time>
      </trkpt>
      <trkpt lat="43.0653830" lon="-0.4588480">
        <ele>849.5</ele>
        <time>2020-07-26T12:42:03Z</time>
      </trkpt>
      <trkpt lat="43.0652810" lon="-0.4587810">
        <ele>849.1</ele>
        <time>2020-07-26T12:42:04Z</time>
      </trkpt>
      <trkpt lat="43.0650850" lon="-0.4586740">
        <ele>847.6</ele>
        <time>2020-07-26T12:42:06Z</time>
      </trkpt>
      <trkpt lat="43.0649020" lon="-0.4585280">
        <ele>845.8</ele>
        <time>2020-07-26T12:42:08Z</time>
      </trkpt>
      <trkpt lat="43.0647080" lon="-0.4583640">
        <ele>843.7</ele>
        <time>2020-07-26T12:42:10Z</time>
      </trkpt>
      <trkpt lat="43.0644950" lon="-0.4582320">
        <ele>841.7</ele>
        <time>2020-07-26T12:42:12Z</time>
      </trkpt>
      <trkpt lat="43.0642650" lon="-0.4581580">
        <ele>840.2</ele>
        <time>2020-07-26T12:42:14Z</time>
      </trkpt>
      <trkpt lat="43.0640320" lon="-0.4581140">
        <ele>838.9</ele>
        <time>2020-07-26T12:42:16Z</time>
      </trkpt>
      <trkpt lat="43.0639180" lon="-0.4580770">
        <ele>838.2</ele>
        <time>2020-07-26T12:42:17Z</time>
      </trkpt>
      <trkpt lat="43.0638090" lon="-0.4580210">
        <ele>837.4</ele>
        <time>2020-07-26T12:42:18Z</time>
      </trkpt>
      <trkpt lat="43.0637090" lon="-0.4579500">
        <ele>836.6</ele>
        <time>2020-07-26T12:42:19Z</time>
      </trkpt>
      <trkpt lat="43.0636170" lon="-0.4578730">
        <ele>835.8</ele>
        <time>2020-07-26T12:42:20Z</time>
      </trkpt>
      <trkpt lat="43.0635270" lon="-0.4578070">
        <ele>835.0</ele>
        <time>2020-07-26T12:42:21Z</time>
      </trkpt>
      <trkpt lat="43.0634340" lon="-0.4577640">
        <ele>834.4</ele>
        <time>2020-07-26T12:42:22Z</time>
      </trkpt>
      <trkpt lat="43.0633370" lon="-0.4577540">
        <ele>833.7</ele>
        <time>2020-07-26T12:42:23Z</time>
      </trkpt>
      <trkpt lat="43.0632380" lon="-0.4577770">
        <ele>833.0</ele>
        <time>2020-07-26T12:42:24Z</time>
      </trkpt>
      <trkpt lat="43.0631400" lon="-0.4578180">
        <ele>832.7</ele>
        <time>2020-07-26T12:42:25Z</time>
      </trkpt>
      <trkpt lat="43.0630400" lon="-0.4578520">
        <ele>833.0</ele>
        <time>2020-07-26T12:42:26Z</time>
      </trkpt>
      <trkpt lat="43.0627300" lon="-0.4578020">
        <ele>829.9</ele>
        <time>2020-07-26T12:42:29Z</time>
      </trkpt>
      <trkpt lat="43.0626290" lon="-0.4577450">
        <ele>829.0</ele>
        <time>2020-07-26T12:42:30Z</time>
      </trkpt>
      <trkpt lat="43.0624130" lon="-0.4576500">
        <ele>827.3</ele>
        <time>2020-07-26T12:42:32Z</time>
      </trkpt>
      <trkpt lat="43.0622960" lon="-0.4576300">
        <ele>826.5</ele>
        <time>2020-07-26T12:42:33Z</time>
      </trkpt>
      <trkpt lat="43.0621820" lon="-0.4576240">
        <ele>825.8</ele>
        <time>2020-07-26T12:42:34Z</time>
      </trkpt>
      <trkpt lat="43.0619630" lon="-0.4575930">
        <ele>824.3</ele>
        <time>2020-07-26T12:42:36Z</time>
      </trkpt>
      <trkpt lat="43.0618670" lon="-0.4575480">
        <ele>823.5</ele>
        <time>2020-07-26T12:42:37Z</time>
      </trkpt>
      <trkpt lat="43.0617790" lon="-0.4574900">
        <ele>822.7</ele>
        <time>2020-07-26T12:42:38Z</time>
      </trkpt>
      <trkpt lat="43.0616960" lon="-0.4574270">
        <ele>822.0</ele>
        <time>2020-07-26T12:42:39Z</time>
      </trkpt>
      <trkpt lat="43.0615580" lon="-0.4573040">
        <ele>820.8</ele>
        <time>2020-07-26T12:42:41Z</time>
      </trkpt>
      <trkpt lat="43.0614990" lon="-0.4571380">
        <ele>819.6</ele>
        <time>2020-07-26T12:42:43Z</time>
      </trkpt>
      <trkpt lat="43.0615610" lon="-0.4569720">
        <ele>818.3</ele>
        <time>2020-07-26T12:42:45Z</time>
      </trkpt>
      <trkpt lat="43.0616210" lon="-0.4569090">
        <ele>817.5</ele>
        <time>2020-07-26T12:42:46Z</time>
      </trkpt>
      <trkpt lat="43.0617740" lon="-0.4567970">
        <ele>815.8</ele>
        <time>2020-07-26T12:42:48Z</time>
      </trkpt>
      <trkpt lat="43.0618590" lon="-0.4567260">
        <ele>814.9</ele>
        <time>2020-07-26T12:42:49Z</time>
      </trkpt>
      <trkpt lat="43.0620180" lon="-0.4565390">
        <ele>813.4</ele>
        <time>2020-07-26T12:42:51Z</time>
      </trkpt>
      <trkpt lat="43.0621090" lon="-0.4563140">
        <ele>812.3</ele>
        <time>2020-07-26T12:42:53Z</time>
      </trkpt>
      <trkpt lat="43.0621240" lon="-0.4562080">
        <ele>811.8</ele>
        <time>2020-07-26T12:42:54Z</time>
      </trkpt>
      <trkpt lat="43.0621180" lon="-0.4561070">
        <ele>811.2</ele>
        <time>2020-07-26T12:42:55Z</time>
      </trkpt>
      <trkpt lat="43.0620520" lon="-0.4559200">
        <ele>809.6</ele>
        <time>2020-07-26T12:42:57Z</time>
      </trkpt>
      <trkpt lat="43.0619140" lon="-0.4558040">
        <ele>807.6</ele>
        <time>2020-07-26T12:42:59Z</time>
      </trkpt>
      <trkpt lat="43.0618250" lon="-0.4557820">
        <ele>806.5</ele>
        <time>2020-07-26T12:43:00Z</time>
      </trkpt>
      <trkpt lat="43.0616290" lon="-0.4557610">
        <ele>804.2</ele>
        <time>2020-07-26T12:43:02Z</time>
      </trkpt>
      <trkpt lat="43.0614150" lon="-0.4557390">
        <ele>801.4</ele>
        <time>2020-07-26T12:43:04Z</time>
      </trkpt>
      <trkpt lat="43.0613030" lon="-0.4557200">
        <ele>799.9</ele>
        <time>2020-07-26T12:43:05Z</time>
      </trkpt>
      <trkpt lat="43.0610670" lon="-0.4556730">
        <ele>796.7</ele>
        <time>2020-07-26T12:43:07Z</time>
      </trkpt>
      <trkpt lat="43.0608190" lon="-0.4556230">
        <ele>793.4</ele>
        <time>2020-07-26T12:43:09Z</time>
      </trkpt>
      <trkpt lat="43.0606910" lon="-0.4555880">
        <ele>791.6</ele>
        <time>2020-07-26T12:43:10Z</time>
      </trkpt>
      <trkpt lat="43.0605620" lon="-0.4555440">
        <ele>789.7</ele>
        <time>2020-07-26T12:43:11Z</time>
      </trkpt>
      <trkpt lat="43.0604320" lon="-0.4554930">
        <ele>787.9</ele>
        <time>2020-07-26T12:43:12Z</time>
      </trkpt>
      <trkpt lat="43.0603010" lon="-0.4554400">
        <ele>786.2</ele>
        <time>2020-07-26T12:43:13Z</time>
      </trkpt>
      <trkpt lat="43.0601700" lon="-0.4553790">
        <ele>784.5</ele>
        <time>2020-07-26T12:43:14Z</time>
      </trkpt>
      <trkpt lat="43.0600380" lon="-0.4553190">
        <ele>782.9</ele>
        <time>2020-07-26T12:43:15Z</time>
      </trkpt>
      <trkpt lat="43.0599030" lon="-0.4552600">
        <ele>781.4</ele>
        <time>2020-07-26T12:43:16Z</time>
      </trkpt>
      <trkpt lat="43.0597680" lon="-0.4552030">
        <ele>780.1</ele>
        <time>2020-07-26T12:43:17Z</time>
      </trkpt>
      <trkpt lat="43.0596320" lon="-0.4551480">
        <ele>778.9</ele>
        <time>2020-07-26T12:43:18Z</time>
      </trkpt>
      <trkpt lat="43.0594940" lon="-0.4550960">
        <ele>777.8</ele>
        <time>2020-07-26T12:43:19Z</time>
      </trkpt>
      <trkpt lat="43.0593580" lon="-0.4550460">
        <ele>777.0</ele>
        <time>2020-07-26T12:43:20Z</time>
      </trkpt>
      <trkpt lat="43.0592260" lon="-0.4549960">
        <ele>776.5</ele>
        <time>2020-07-26T12:43:21Z</time>
      </trkpt>
      <trkpt lat="43.0591030" lon="-0.4549400">
        <ele>776.2</ele>
        <time>2020-07-26T12:43:22Z</time>
      </trkpt>
      <trkpt lat="43.0589900" lon="-0.4548830">
        <ele>776.0</ele>
        <time>2020-07-26T12:43:23Z</time>
      </trkpt>
      <trkpt lat="43.0588900" lon="-0.4548390">
        <ele>775.9</ele>
        <time>2020-07-26T12:43:24Z</time>
      </trkpt>
      <trkpt lat="43.0588010" lon="-0.4548160">
        <ele>775.8</ele>
        <time>2020-07-26T12:43:25Z</time>
      </trkpt>
      <trkpt lat="43.0587230" lon="-0.4548060">
        <ele>775.5</ele>
        <time>2020-07-26T12:43:26Z</time>
      </trkpt>
      <trkpt lat="43.0586560" lon="-0.4547890">
        <ele>775.3</ele>
        <time>2020-07-26T12:43:27Z</time>
      </trkpt>
      <trkpt lat="43.0586000" lon="-0.4547500">
        <ele>774.8</ele>
        <time>2020-07-26T12:43:28Z</time>
      </trkpt>
      <trkpt lat="43.0585570" lon="-0.4546870">
        <ele>774.3</ele>
        <time>2020-07-26T12:43:29Z</time>
      </trkpt>
      <trkpt lat="43.0585310" lon="-0.4545150">
        <ele>772.7</ele>
        <time>2020-07-26T12:43:31Z</time>
      </trkpt>
      <trkpt lat="43.0586140" lon="-0.4543540">
        <ele>770.5</ele>
        <time>2020-07-26T12:43:33Z</time>
      </trkpt>
      <trkpt lat="43.0587740" lon="-0.4542710">
        <ele>767.8</ele>
        <time>2020-07-26T12:43:35Z</time>
      </trkpt>
      <trkpt lat="43.0588690" lon="-0.4542530">
        <ele>766.3</ele>
        <time>2020-07-26T12:43:36Z</time>
      </trkpt>
      <trkpt lat="43.0591900" lon="-0.4542760">
        <ele>762.0</ele>
        <time>2020-07-26T12:43:39Z</time>
      </trkpt>
      <trkpt lat="43.0593020" lon="-0.4543040">
        <ele>760.8</ele>
        <time>2020-07-26T12:43:40Z</time>
      </trkpt>
      <trkpt lat="43.0594150" lon="-0.4543190">
        <ele>759.7</ele>
        <time>2020-07-26T12:43:41Z</time>
      </trkpt>
      <trkpt lat="43.0595260" lon="-0.4543070">
        <ele>758.7</ele>
        <time>2020-07-26T12:43:42Z</time>
      </trkpt>
      <trkpt lat="43.0596350" lon="-0.4542630">
        <ele>757.6</ele>
        <time>2020-07-26T12:43:43Z</time>
      </trkpt>
      <trkpt lat="43.0597330" lon="-0.4541860">
        <ele>756.7</ele>
        <time>2020-07-26T12:43:44Z</time>
      </trkpt>
      <trkpt lat="43.0598180" lon="-0.4540780">
        <ele>755.3</ele>
        <time>2020-07-26T12:43:45Z</time>
      </trkpt>
      <trkpt lat="43.0598900" lon="-0.4539530">
        <ele>753.9</ele>
        <time>2020-07-26T12:43:46Z</time>
      </trkpt>
      <trkpt lat="43.0599550" lon="-0.4538290">
        <ele>752.6</ele>
        <time>2020-07-26T12:43:47Z</time>
      </trkpt>
      <trkpt lat="43.0600220" lon="-0.4537170">
        <ele>751.5</ele>
        <time>2020-07-26T12:43:48Z</time>
      </trkpt>
      <trkpt lat="43.0600970" lon="-0.4536200">
        <ele>750.4</ele>
        <time>2020-07-26T12:43:49Z</time>
      </trkpt>
      <trkpt lat="43.0601820" lon="-0.4535440">
        <ele>749.3</ele>
        <time>2020-07-26T12:43:50Z</time>
      </trkpt>
      <trkpt lat="43.0602750" lon="-0.4534850">
        <ele>748.3</ele>
        <time>2020-07-26T12:43:51Z</time>
      </trkpt>
      <trkpt lat="43.0603760" lon="-0.4534370">
        <ele>747.3</ele>
        <time>2020-07-26T12:43:52Z</time>
      </trkpt>
      <trkpt lat="43.0604790" lon="-0.4533920">
        <ele>746.3</ele>
        <time>2020-07-26T12:43:53Z</time>
      </trkpt>
      <trkpt lat="43.0605850" lon="-0.4533450">
        <ele>745.6</ele>
        <time>2020-07-26T12:43:54Z</time>
      </trkpt>
      <trkpt lat="43.0606920" lon="-0.4532920">
        <ele>744.7</ele>
        <time>2020-07-26T12:43:55Z</time>
      </trkpt>
      <trkpt lat="43.0607990" lon="-0.4532330">
        <ele>743.7</ele>
        <time>2020-07-26T12:43:56Z</time>
      </trkpt>
      <trkpt lat="43.0609060" lon="-0.4531640">
        <ele>742.7</ele>
        <time>2020-07-26T12:43:57Z</time>
      </trkpt>
      <trkpt lat="43.0611190" lon="-0.4529950">
        <ele>740.8</ele>
        <time>2020-07-26T12:43:59Z</time>
      </trkpt>
      <trkpt lat="43.0612260" lon="-0.4529070">
        <ele>739.8</ele>
        <time>2020-07-26T12:44:00Z</time>
      </trkpt>
      <trkpt lat="43.0614470" lon="-0.4527300">
        <ele>737.8</ele>
        <time>2020-07-26T12:44:02Z</time>
      </trkpt>
      <trkpt lat="43.0615640" lon="-0.4526450">
        <ele>736.9</ele>
        <time>2020-07-26T12:44:03Z</time>
      </trkpt>
      <trkpt lat="43.0616800" lon="-0.4525550">
        <ele>736.2</ele>
        <time>2020-07-26T12:44:04Z</time>
      </trkpt>
      <trkpt lat="43.0617920" lon="-0.4524550">
        <ele>735.9</ele>
        <time>2020-07-26T12:44:05Z</time>
      </trkpt>
      <trkpt lat="43.0619050" lon="-0.4523420">
        <ele>735.0</ele>
        <time>2020-07-26T12:44:06Z</time>
      </trkpt>
      <trkpt lat="43.0620110" lon="-0.4522160">
        <ele>733.6</ele>
        <time>2020-07-26T12:44:07Z</time>
      </trkpt>
      <trkpt lat="43.0621140" lon="-0.4520780">
        <ele>732.1</ele>
        <time>2020-07-26T12:44:08Z</time>
      </trkpt>
      <trkpt lat="43.0622080" lon="-0.4519280">
        <ele>730.7</ele>
        <time>2020-07-26T12:44:09Z</time>
      </trkpt>
      <trkpt lat="43.0622950" lon="-0.4517750">
        <ele>729.3</ele>
        <time>2020-07-26T12:44:10Z</time>
      </trkpt>
      <trkpt lat="43.0623800" lon="-0.4516140">
        <ele>727.9</ele>
        <time>2020-07-26T12:44:11Z</time>
      </trkpt>
      <trkpt lat="43.0624600" lon="-0.4514570">
        <ele>726.6</ele>
        <time>2020-07-26T12:44:12Z</time>
      </trkpt>
      <trkpt lat="43.0625400" lon="-0.4512950">
        <ele>725.3</ele>
        <time>2020-07-26T12:44:13Z</time>
      </trkpt>
      <trkpt lat="43.0626220" lon="-0.4511330">
        <ele>723.9</ele>
        <time>2020-07-26T12:44:14Z</time>
      </trkpt>
      <trkpt lat="43.0627030" lon="-0.4509710">
        <ele>722.7</ele>
        <time>2020-07-26T12:44:15Z</time>
      </trkpt>
      <trkpt lat="43.0627790" lon="-0.4508040">
        <ele>721.6</ele>
        <time>2020-07-26T12:44:16Z</time>
      </trkpt>
      <trkpt lat="43.0628480" lon="-0.4506300">
        <ele>720.6</ele>
        <time>2020-07-26T12:44:17Z</time>
      </trkpt>
      <trkpt lat="43.0629010" lon="-0.4504520">
        <ele>719.2</ele>
        <time>2020-07-26T12:44:18Z</time>
      </trkpt>
      <trkpt lat="43.0629340" lon="-0.4502800">
        <ele>718.0</ele>
        <time>2020-07-26T12:44:19Z</time>
      </trkpt>
      <trkpt lat="43.0629510" lon="-0.4501280">
        <ele>717.3</ele>
        <time>2020-07-26T12:44:20Z</time>
      </trkpt>
      <trkpt lat="43.0629640" lon="-0.4499840">
        <ele>717.3</ele>
        <time>2020-07-26T12:44:21Z</time>
      </trkpt>
      <trkpt lat="43.0629890" lon="-0.4496780">
        <ele>715.0</ele>
        <time>2020-07-26T12:44:23Z</time>
      </trkpt>
      <trkpt lat="43.0629980" lon="-0.4493520">
        <ele>712.0</ele>
        <time>2020-07-26T12:44:25Z</time>
      </trkpt>
      <trkpt lat="43.0629780" lon="-0.4490170">
        <ele>709.7</ele>
        <time>2020-07-26T12:44:27Z</time>
      </trkpt>
      <trkpt lat="43.0629630" lon="-0.4486690">
        <ele>707.5</ele>
        <time>2020-07-26T12:44:29Z</time>
      </trkpt>
      <trkpt lat="43.0629570" lon="-0.4483090">
        <ele>705.3</ele>
        <time>2020-07-26T12:44:31Z</time>
      </trkpt>
      <trkpt lat="43.0629460" lon="-0.4481290">
        <ele>704.1</ele>
        <time>2020-07-26T12:44:32Z</time>
      </trkpt>
      <trkpt lat="43.0629270" lon="-0.4479480">
        <ele>702.9</ele>
        <time>2020-07-26T12:44:33Z</time>
      </trkpt>
      <trkpt lat="43.0628960" lon="-0.4477660">
        <ele>701.8</ele>
        <time>2020-07-26T12:44:34Z</time>
      </trkpt>
      <trkpt lat="43.0628180" lon="-0.4474170">
        <ele>699.7</ele>
        <time>2020-07-26T12:44:36Z</time>
      </trkpt>
      <trkpt lat="43.0627850" lon="-0.4472380">
        <ele>698.6</ele>
        <time>2020-07-26T12:44:37Z</time>
      </trkpt>
      <trkpt lat="43.0627530" lon="-0.4470560">
        <ele>697.4</ele>
        <time>2020-07-26T12:44:38Z</time>
      </trkpt>
      <trkpt lat="43.0627160" lon="-0.4468770">
        <ele>696.3</ele>
        <time>2020-07-26T12:44:39Z</time>
      </trkpt>
      <trkpt lat="43.0626830" lon="-0.4466980">
        <ele>695.2</ele>
        <time>2020-07-26T12:44:40Z</time>
      </trkpt>
      <trkpt lat="43.0626540" lon="-0.4465190">
        <ele>694.2</ele>
        <time>2020-07-26T12:44:41Z</time>
      </trkpt>
      <trkpt lat="43.0626300" lon="-0.4463390">
        <ele>693.2</ele>
        <time>2020-07-26T12:44:42Z</time>
      </trkpt>
      <trkpt lat="43.0626110" lon="-0.4461570">
        <ele>692.1</ele>
        <time>2020-07-26T12:44:43Z</time>
      </trkpt>
      <trkpt lat="43.0625970" lon="-0.4459720">
        <ele>690.8</ele>
        <time>2020-07-26T12:44:44Z</time>
      </trkpt>
      <trkpt lat="43.0625890" lon="-0.4457830">
        <ele>689.4</ele>
        <time>2020-07-26T12:44:45Z</time>
      </trkpt>
      <trkpt lat="43.0625900" lon="-0.4455950">
        <ele>688.0</ele>
        <time>2020-07-26T12:44:46Z</time>
      </trkpt>
      <trkpt lat="43.0626080" lon="-0.4452120">
        <ele>685.2</ele>
        <time>2020-07-26T12:44:48Z</time>
      </trkpt>
      <trkpt lat="43.0626290" lon="-0.4448230">
        <ele>682.5</ele>
        <time>2020-07-26T12:44:50Z</time>
      </trkpt>
      <trkpt lat="43.0626410" lon="-0.4446270">
        <ele>681.2</ele>
        <time>2020-07-26T12:44:51Z</time>
      </trkpt>
      <trkpt lat="43.0626480" lon="-0.4444310">
        <ele>679.9</ele>
        <time>2020-07-26T12:44:52Z</time>
      </trkpt>
      <trkpt lat="43.0626470" lon="-0.4442320">
        <ele>678.6</ele>
        <time>2020-07-26T12:44:53Z</time>
      </trkpt>
      <trkpt lat="43.0626400" lon="-0.4440320">
        <ele>677.5</ele>
        <time>2020-07-26T12:44:54Z</time>
      </trkpt>
      <trkpt lat="43.0626300" lon="-0.4438330">
        <ele>676.6</ele>
        <time>2020-07-26T12:44:55Z</time>
      </trkpt>
      <trkpt lat="43.0626210" lon="-0.4436340">
        <ele>675.9</ele>
        <time>2020-07-26T12:44:56Z</time>
      </trkpt>
      <trkpt lat="43.0626170" lon="-0.4434350">
        <ele>673.4</ele>
        <time>2020-07-26T12:44:57Z</time>
      </trkpt>
      <trkpt lat="43.0626190" lon="-0.4432370">
        <ele>671.0</ele>
        <time>2020-07-26T12:44:58Z</time>
      </trkpt>
      <trkpt lat="43.0626210" lon="-0.4430400">
        <ele>669.0</ele>
        <time>2020-07-26T12:44:59Z</time>
      </trkpt>
      <trkpt lat="43.0626220" lon="-0.4428450">
        <ele>667.5</ele>
        <time>2020-07-26T12:45:00Z</time>
      </trkpt>
      <trkpt lat="43.0626220" lon="-0.4426500">
        <ele>666.4</ele>
        <time>2020-07-26T12:45:01Z</time>
      </trkpt>
      <trkpt lat="43.0626210" lon="-0.4424580">
        <ele>665.5</ele>
        <time>2020-07-26T12:45:02Z</time>
      </trkpt>
      <trkpt lat="43.0626190" lon="-0.4422660">
        <ele>664.7</ele>
        <time>2020-07-26T12:45:03Z</time>
      </trkpt>
      <trkpt lat="43.0626180" lon="-0.4420750">
        <ele>663.9</ele>
        <time>2020-07-26T12:45:04Z</time>
      </trkpt>
      <trkpt lat="43.0626170" lon="-0.4418880">
        <ele>663.1</ele>
        <time>2020-07-26T12:45:05Z</time>
      </trkpt>
      <trkpt lat="43.0626130" lon="-0.4417080">
        <ele>662.4</ele>
        <time>2020-07-26T12:45:06Z</time>
      </trkpt>
      <trkpt lat="43.0626020" lon="-0.4415400">
        <ele>661.8</ele>
        <time>2020-07-26T12:45:07Z</time>
      </trkpt>
      <trkpt lat="43.0625870" lon="-0.4413860">
        <ele>661.3</ele>
        <time>2020-07-26T12:45:08Z</time>
      </trkpt>
      <trkpt lat="43.0625690" lon="-0.4412420">
        <ele>660.9</ele>
        <time>2020-07-26T12:45:09Z</time>
      </trkpt>
      <trkpt lat="43.0625560" lon="-0.4411060">
        <ele>660.6</ele>
        <time>2020-07-26T12:45:10Z</time>
      </trkpt>
      <trkpt lat="43.0625560" lon="-0.4409730">
        <ele>660.3</ele>
        <time>2020-07-26T12:45:11Z</time>
      </trkpt>
      <trkpt lat="43.0625710" lon="-0.4408500">
        <ele>660.0</ele>
        <time>2020-07-26T12:45:12Z</time>
      </trkpt>
      <trkpt lat="43.0626370" lon="-0.4406520">
        <ele>659.5</ele>
        <time>2020-07-26T12:45:14Z</time>
      </trkpt>
      <trkpt lat="43.0626560" lon="-0.4404620">
        <ele>658.8</ele>
        <time>2020-07-26T12:45:16Z</time>
      </trkpt>
      <trkpt lat="43.0626110" lon="-0.4403860">
        <ele>658.2</ele>
        <time>2020-07-26T12:45:17Z</time>
      </trkpt>
      <trkpt lat="43.0624870" lon="-0.4403630">
        <ele>656.9</ele>
        <time>2020-07-26T12:45:19Z</time>
      </trkpt>
      <trkpt lat="43.0623990" lon="-0.4405070">
        <ele>655.3</ele>
        <time>2020-07-26T12:45:21Z</time>
      </trkpt>
      <trkpt lat="43.0623080" lon="-0.4413050">
        <ele>649.2</ele>
        <time>2020-07-26T12:45:26Z</time>
      </trkpt>
      <trkpt lat="43.0622960" lon="-0.4413450">
        <ele>648.9</ele>
        <time>2020-07-26T12:45:27Z</time>
      </trkpt>
      <trkpt lat="43.0622200" lon="-0.4416240">
        <ele>646.8</ele>
        <time>2020-07-26T12:45:29Z</time>
      </trkpt>
      <trkpt lat="43.0621780" lon="-0.4417730">
        <ele>645.8</ele>
        <time>2020-07-26T12:45:30Z</time>
      </trkpt>
      <trkpt lat="43.0621310" lon="-0.4419220">
        <ele>644.6</ele>
        <time>2020-07-26T12:45:31Z</time>
      </trkpt>
      <trkpt lat="43.0620290" lon="-0.4422720">
        <ele>641.9</ele>
        <time>2020-07-26T12:45:33Z</time>
      </trkpt>
      <trkpt lat="43.0619470" lon="-0.4425820">
        <ele>639.8</ele>
        <time>2020-07-26T12:45:35Z</time>
      </trkpt>
      <trkpt lat="43.0619050" lon="-0.4427500">
        <ele>638.7</ele>
        <time>2020-07-26T12:45:36Z</time>
      </trkpt>
      <trkpt lat="43.0618620" lon="-0.4429200">
        <ele>637.6</ele>
        <time>2020-07-26T12:45:37Z</time>
      </trkpt>
      <trkpt lat="43.0617610" lon="-0.4432530">
        <ele>635.4</ele>
        <time>2020-07-26T12:45:39Z</time>
      </trkpt>
      <trkpt lat="43.0616240" lon="-0.4435690">
        <ele>633.4</ele>
        <time>2020-07-26T12:45:41Z</time>
      </trkpt>
      <trkpt lat="43.0615490" lon="-0.4437260">
        <ele>632.5</ele>
        <time>2020-07-26T12:45:42Z</time>
      </trkpt>
      <trkpt lat="43.0614710" lon="-0.4438770">
        <ele>631.7</ele>
        <time>2020-07-26T12:45:43Z</time>
      </trkpt>
      <trkpt lat="43.0613040" lon="-0.4441550">
        <ele>630.2</ele>
        <time>2020-07-26T12:45:45Z</time>
      </trkpt>
      <trkpt lat="43.0612160" lon="-0.4442790">
        <ele>629.6</ele>
        <time>2020-07-26T12:45:46Z</time>
      </trkpt>
      <trkpt lat="43.0610470" lon="-0.4445080">
        <ele>628.1</ele>
        <time>2020-07-26T12:45:48Z</time>
      </trkpt>
      <trkpt lat="43.0609750" lon="-0.4446230">
        <ele>627.5</ele>
        <time>2020-07-26T12:45:49Z</time>
      </trkpt>
      <trkpt lat="43.0609120" lon="-0.4447450">
        <ele>627.1</ele>
        <time>2020-07-26T12:45:50Z</time>
      </trkpt>
      <trkpt lat="43.0608580" lon="-0.4448660">
        <ele>626.8</ele>
        <time>2020-07-26T12:45:51Z</time>
      </trkpt>
      <trkpt lat="43.0607660" lon="-0.4450700">
        <ele>626.1</ele>
        <time>2020-07-26T12:45:53Z</time>
      </trkpt>
      <trkpt lat="43.0607210" lon="-0.4451390">
        <ele>625.5</ele>
        <time>2020-07-26T12:45:54Z</time>
      </trkpt>
      <trkpt lat="43.0606240" lon="-0.4451830">
        <ele>624.4</ele>
        <time>2020-07-26T12:45:56Z</time>
      </trkpt>
      <trkpt lat="43.0605420" lon="-0.4450660">
        <ele>622.6</ele>
        <time>2020-07-26T12:45:58Z</time>
      </trkpt>
      <trkpt lat="43.0605400" lon="-0.4448460">
        <ele>620.2</ele>
        <time>2020-07-26T12:46:00Z</time>
      </trkpt>
      <trkpt lat="43.0605540" lon="-0.4447170">
        <ele>618.9</ele>
        <time>2020-07-26T12:46:01Z</time>
      </trkpt>
      <trkpt lat="43.0605620" lon="-0.4445760">
        <ele>617.6</ele>
        <time>2020-07-26T12:46:02Z</time>
      </trkpt>
      <trkpt lat="43.0605620" lon="-0.4444250">
        <ele>616.2</ele>
        <time>2020-07-26T12:46:03Z</time>
      </trkpt>
      <trkpt lat="43.0605620" lon="-0.4439420">
        <ele>612.3</ele>
        <time>2020-07-26T12:46:06Z</time>
      </trkpt>
      <trkpt lat="43.0605690" lon="-0.4437830">
        <ele>611.0</ele>
        <time>2020-07-26T12:46:07Z</time>
      </trkpt>
      <trkpt lat="43.0605730" lon="-0.4436250">
        <ele>609.7</ele>
        <time>2020-07-26T12:46:08Z</time>
      </trkpt>
      <trkpt lat="43.0605620" lon="-0.4434670">
        <ele>608.3</ele>
        <time>2020-07-26T12:46:09Z</time>
      </trkpt>
      <trkpt lat="43.0605340" lon="-0.4433080">
        <ele>606.8</ele>
        <time>2020-07-26T12:46:10Z</time>
      </trkpt>
      <trkpt lat="43.0605000" lon="-0.4431520">
        <ele>605.3</ele>
        <time>2020-07-26T12:46:11Z</time>
      </trkpt>
      <trkpt lat="43.0604710" lon="-0.4429940">
        <ele>603.8</ele>
        <time>2020-07-26T12:46:12Z</time>
      </trkpt>
      <trkpt lat="43.0604530" lon="-0.4428340">
        <ele>602.3</ele>
        <time>2020-07-26T12:46:13Z</time>
      </trkpt>
      <trkpt lat="43.0604530" lon="-0.4426700">
        <ele>600.8</ele>
        <time>2020-07-26T12:46:14Z</time>
      </trkpt>
      <trkpt lat="43.0604660" lon="-0.4425050">
        <ele>599.3</ele>
        <time>2020-07-26T12:46:15Z</time>
      </trkpt>
      <trkpt lat="43.0604890" lon="-0.4423370">
        <ele>597.8</ele>
        <time>2020-07-26T12:46:16Z</time>
      </trkpt>
      <trkpt lat="43.0605160" lon="-0.4419920">
        <ele>594.4</ele>
        <time>2020-07-26T12:46:18Z</time>
      </trkpt>
      <trkpt lat="43.0605180" lon="-0.4418120">
        <ele>592.8</ele>
        <time>2020-07-26T12:46:19Z</time>
      </trkpt>
      <trkpt lat="43.0605220" lon="-0.4416310">
        <ele>591.1</ele>
        <time>2020-07-26T12:46:20Z</time>
      </trkpt>
      <trkpt lat="43.0605300" lon="-0.4414460">
        <ele>589.6</ele>
        <time>2020-07-26T12:46:21Z</time>
      </trkpt>
      <trkpt lat="43.0605240" lon="-0.4410710">
        <ele>586.5</ele>
        <time>2020-07-26T12:46:23Z</time>
      </trkpt>
      <trkpt lat="43.0604990" lon="-0.4408860">
        <ele>584.9</ele>
        <time>2020-07-26T12:46:24Z</time>
      </trkpt>
      <trkpt lat="43.0604660" lon="-0.4407040">
        <ele>583.4</ele>
        <time>2020-07-26T12:46:25Z</time>
      </trkpt>
      <trkpt lat="43.0604300" lon="-0.4405200">
        <ele>581.8</ele>
        <time>2020-07-26T12:46:26Z</time>
      </trkpt>
      <trkpt lat="43.0604000" lon="-0.4403300">
        <ele>580.2</ele>
        <time>2020-07-26T12:46:27Z</time>
      </trkpt>
      <trkpt lat="43.0603810" lon="-0.4401360">
        <ele>578.7</ele>
        <time>2020-07-26T12:46:28Z</time>
      </trkpt>
      <trkpt lat="43.0603750" lon="-0.4399410">
        <ele>577.5</ele>
        <time>2020-07-26T12:46:29Z</time>
      </trkpt>
      <trkpt lat="43.0603790" lon="-0.4397510">
        <ele>576.5</ele>
        <time>2020-07-26T12:46:30Z</time>
      </trkpt>
      <trkpt lat="43.0603940" lon="-0.4395680">
        <ele>575.7</ele>
        <time>2020-07-26T12:46:31Z</time>
      </trkpt>
      <trkpt lat="43.0604210" lon="-0.4393980">
        <ele>574.8</ele>
        <time>2020-07-26T12:46:32Z</time>
      </trkpt>
      <trkpt lat="43.0604680" lon="-0.4392440">
        <ele>573.8</ele>
        <time>2020-07-26T12:46:33Z</time>
      </trkpt>
      <trkpt lat="43.0606120" lon="-0.4389840">
        <ele>571.2</ele>
        <time>2020-07-26T12:46:35Z</time>
      </trkpt>
      <trkpt lat="43.0607050" lon="-0.4388760">
        <ele>569.8</ele>
        <time>2020-07-26T12:46:36Z</time>
      </trkpt>
      <trkpt lat="43.0608060" lon="-0.4387740">
        <ele>568.3</ele>
        <time>2020-07-26T12:46:37Z</time>
      </trkpt>
      <trkpt lat="43.0609110" lon="-0.4386700">
        <ele>567.1</ele>
        <time>2020-07-26T12:46:38Z</time>
      </trkpt>
      <trkpt lat="43.0612280" lon="-0.4383300">
        <ele>564.8</ele>
        <time>2020-07-26T12:46:41Z</time>
      </trkpt>
      <trkpt lat="43.0614960" lon="-0.4379920">
        <ele>564.7</ele>
        <time>2020-07-26T12:46:44Z</time>
      </trkpt>
      <trkpt lat="43.0615730" lon="-0.4379080">
        <ele>564.6</ele>
        <time>2020-07-26T12:46:45Z</time>
      </trkpt>
      <trkpt lat="43.0616430" lon="-0.4378340">
        <ele>564.4</ele>
        <time>2020-07-26T12:46:46Z</time>
      </trkpt>
      <trkpt lat="43.0616940" lon="-0.4377610">
        <ele>564.0</ele>
        <time>2020-07-26T12:46:47Z</time>
      </trkpt>
      <trkpt lat="43.0617200" lon="-0.4376840">
        <ele>563.5</ele>
        <time>2020-07-26T12:46:48Z</time>
      </trkpt>
      <trkpt lat="43.0617120" lon="-0.4376100">
        <ele>563.0</ele>
        <time>2020-07-26T12:46:49Z</time>
      </trkpt>
      <trkpt lat="43.0616800" lon="-0.4375490">
        <ele>561.5</ele>
        <time>2020-07-26T12:46:50Z</time>
      </trkpt>
      <trkpt lat="43.0616190" lon="-0.4375240">
        <ele>560.5</ele>
        <time>2020-07-26T12:46:51Z</time>
      </trkpt>
      <trkpt lat="43.0614760" lon="-0.4375790">
        <ele>558.1</ele>
        <time>2020-07-26T12:46:53Z</time>
      </trkpt>
      <trkpt lat="43.0613170" lon="-0.4377260">
        <ele>555.2</ele>
        <time>2020-07-26T12:46:55Z</time>
      </trkpt>
      <trkpt lat="43.0612240" lon="-0.4377990">
        <ele>553.8</ele>
        <time>2020-07-26T12:46:56Z</time>
      </trkpt>
      <trkpt lat="43.0610080" lon="-0.4378940">
        <ele>551.2</ele>
        <time>2020-07-26T12:46:58Z</time>
      </trkpt>
      <trkpt lat="43.0608880" lon="-0.4379210">
        <ele>549.8</ele>
        <time>2020-07-26T12:46:59Z</time>
      </trkpt>
      <trkpt lat="43.0607620" lon="-0.4379360">
        <ele>548.2</ele>
        <time>2020-07-26T12:47:00Z</time>
      </trkpt>
      <trkpt lat="43.0606320" lon="-0.4379440">
        <ele>546.5</ele>
        <time>2020-07-26T12:47:01Z</time>
      </trkpt>
      <trkpt lat="43.0605000" lon="-0.4379530">
        <ele>544.9</ele>
        <time>2020-07-26T12:47:02Z</time>
      </trkpt>
      <trkpt lat="43.0603640" lon="-0.4379700">
        <ele>543.2</ele>
        <time>2020-07-26T12:47:03Z</time>
      </trkpt>
      <trkpt lat="43.0602250" lon="-0.4379890">
        <ele>541.6</ele>
        <time>2020-07-26T12:47:04Z</time>
      </trkpt>
      <trkpt lat="43.0600830" lon="-0.4380100">
        <ele>540.1</ele>
        <time>2020-07-26T12:47:05Z</time>
      </trkpt>
      <trkpt lat="43.0599390" lon="-0.4380310">
        <ele>538.6</ele>
        <time>2020-07-26T12:47:06Z</time>
      </trkpt>
      <trkpt lat="43.0597970" lon="-0.4380560">
        <ele>537.2</ele>
        <time>2020-07-26T12:47:07Z</time>
      </trkpt>
      <trkpt lat="43.0596570" lon="-0.4380810">
        <ele>535.9</ele>
        <time>2020-07-26T12:47:08Z</time>
      </trkpt>
      <trkpt lat="43.0595200" lon="-0.4381080">
        <ele>534.7</ele>
        <time>2020-07-26T12:47:09Z</time>
      </trkpt>
      <trkpt lat="43.0593880" lon="-0.4381390">
        <ele>533.6</ele>
        <time>2020-07-26T12:47:10Z</time>
      </trkpt>
      <trkpt lat="43.0592610" lon="-0.4381820">
        <ele>532.4</ele>
        <time>2020-07-26T12:47:11Z</time>
      </trkpt>
      <trkpt lat="43.0591450" lon="-0.4382460">
        <ele>531.2</ele>
        <time>2020-07-26T12:47:12Z</time>
      </trkpt>
      <trkpt lat="43.0590430" lon="-0.4383340">
        <ele>530.0</ele>
        <time>2020-07-26T12:47:13Z</time>
      </trkpt>
      <trkpt lat="43.0589570" lon="-0.4384500">
        <ele>528.7</ele>
        <time>2020-07-26T12:47:14Z</time>
      </trkpt>
      <trkpt lat="43.0588810" lon="-0.4385870">
        <ele>527.4</ele>
        <time>2020-07-26T12:47:15Z</time>
      </trkpt>
      <trkpt lat="43.0588110" lon="-0.4387370">
        <ele>526.3</ele>
        <time>2020-07-26T12:47:16Z</time>
      </trkpt>
      <trkpt lat="43.0587390" lon="-0.4388930">
        <ele>524.5</ele>
        <time>2020-07-26T12:47:17Z</time>
      </trkpt>
      <trkpt lat="43.0585770" lon="-0.4391920">
        <ele>520.7</ele>
        <time>2020-07-26T12:47:19Z</time>
      </trkpt>
      <trkpt lat="43.0583990" lon="-0.4394480">
        <ele>517.8</ele>
        <time>2020-07-26T12:47:21Z</time>
      </trkpt>
      <trkpt lat="43.0583140" lon="-0.4395590">
        <ele>516.5</ele>
        <time>2020-07-26T12:47:22Z</time>
      </trkpt>
      <trkpt lat="43.0582320" lon="-0.4396610">
        <ele>515.2</ele>
        <time>2020-07-26T12:47:23Z</time>
      </trkpt>
      <trkpt lat="43.0581510" lon="-0.4397600">
        <ele>513.9</ele>
        <time>2020-07-26T12:47:24Z</time>
      </trkpt>
      <trkpt lat="43.0580660" lon="-0.4398470">
        <ele>512.5</ele>
        <time>2020-07-26T12:47:25Z</time>
      </trkpt>
      <trkpt lat="43.0579790" lon="-0.4399180">
        <ele>511.8</ele>
        <time>2020-07-26T12:47:26Z</time>
      </trkpt>
      <trkpt lat="43.0578950" lon="-0.4399680">
        <ele>511.2</ele>
        <time>2020-07-26T12:47:27Z</time>
      </trkpt>
      <trkpt lat="43.0578100" lon="-0.4399910">
        <ele>510.9</ele>
        <time>2020-07-26T12:47:28Z</time>
      </trkpt>
      <trkpt lat="43.0577290" lon="-0.4399790">
        <ele>510.7</ele>
        <time>2020-07-26T12:47:29Z</time>
      </trkpt>
      <trkpt lat="43.0576570" lon="-0.4399300">
        <ele>509.4</ele>
        <time>2020-07-26T12:47:30Z</time>
      </trkpt>
      <trkpt lat="43.0575910" lon="-0.4398380">
        <ele>507.7</ele>
        <time>2020-07-26T12:47:31Z</time>
      </trkpt>
      <trkpt lat="43.0575420" lon="-0.4397280">
        <ele>506.4</ele>
        <time>2020-07-26T12:47:32Z</time>
      </trkpt>
      <trkpt lat="43.0575150" lon="-0.4396020">
        <ele>505.1</ele>
        <time>2020-07-26T12:47:33Z</time>
      </trkpt>
      <trkpt lat="43.0574820" lon="-0.4393110">
        <ele>502.0</ele>
        <time>2020-07-26T12:47:35Z</time>
      </trkpt>
      <trkpt lat="43.0574660" lon="-0.4391520">
        <ele>500.4</ele>
        <time>2020-07-26T12:47:36Z</time>
      </trkpt>
      <trkpt lat="43.0574440" lon="-0.4389850">
        <ele>498.6</ele>
        <time>2020-07-26T12:47:37Z</time>
      </trkpt>
      <trkpt lat="43.0574170" lon="-0.4388150">
        <ele>497.1</ele>
        <time>2020-07-26T12:47:38Z</time>
      </trkpt>
      <trkpt lat="43.0573850" lon="-0.4386410">
        <ele>495.6</ele>
        <time>2020-07-26T12:47:39Z</time>
      </trkpt>
      <trkpt lat="43.0573490" lon="-0.4384660">
        <ele>494.1</ele>
        <time>2020-07-26T12:47:40Z</time>
      </trkpt>
      <trkpt lat="43.0573130" lon="-0.4382920">
        <ele>492.7</ele>
        <time>2020-07-26T12:47:41Z</time>
      </trkpt>
      <trkpt lat="43.0572770" lon="-0.4381210">
        <ele>491.2</ele>
        <time>2020-07-26T12:47:42Z</time>
      </trkpt>
      <trkpt lat="43.0572430" lon="-0.4379510">
        <ele>489.8</ele>
        <time>2020-07-26T12:47:43Z</time>
      </trkpt>
      <trkpt lat="43.0572110" lon="-0.4377900">
        <ele>488.6</ele>
        <time>2020-07-26T12:47:44Z</time>
      </trkpt>
      <trkpt lat="43.0571870" lon="-0.4376270">
        <ele>487.6</ele>
        <time>2020-07-26T12:47:45Z</time>
      </trkpt>
      <trkpt lat="43.0571730" lon="-0.4374670">
        <ele>486.7</ele>
        <time>2020-07-26T12:47:46Z</time>
      </trkpt>
      <trkpt lat="43.0571690" lon="-0.4373070">
        <ele>485.8</ele>
        <time>2020-07-26T12:47:47Z</time>
      </trkpt>
      <trkpt lat="43.0571770" lon="-0.4371520">
        <ele>484.9</ele>
        <time>2020-07-26T12:47:48Z</time>
      </trkpt>
      <trkpt lat="43.0571990" lon="-0.4370010">
        <ele>484.5</ele>
        <time>2020-07-26T12:47:49Z</time>
      </trkpt>
      <trkpt lat="43.0572380" lon="-0.4368550">
        <ele>484.5</ele>
        <time>2020-07-26T12:47:50Z</time>
      </trkpt>
      <trkpt lat="43.0572860" lon="-0.4367110">
        <ele>483.3</ele>
        <time>2020-07-26T12:47:51Z</time>
      </trkpt>
      <trkpt lat="43.0573380" lon="-0.4365670">
        <ele>482.0</ele>
        <time>2020-07-26T12:47:52Z</time>
      </trkpt>
      <trkpt lat="43.0574530" lon="-0.4362770">
        <ele>479.2</ele>
        <time>2020-07-26T12:47:54Z</time>
      </trkpt>
      <trkpt lat="43.0576600" lon="-0.4358360">
        <ele>475.1</ele>
        <time>2020-07-26T12:47:57Z</time>
      </trkpt>
      <trkpt lat="43.0577900" lon="-0.4355260">
        <ele>472.1</ele>
        <time>2020-07-26T12:47:59Z</time>
      </trkpt>
      <trkpt lat="43.0578490" lon="-0.4353630">
        <ele>470.7</ele>
        <time>2020-07-26T12:48:00Z</time>
      </trkpt>
      <trkpt lat="43.0579020" lon="-0.4351920">
        <ele>469.4</ele>
        <time>2020-07-26T12:48:01Z</time>
      </trkpt>
      <trkpt lat="43.0579450" lon="-0.4350240">
        <ele>468.2</ele>
        <time>2020-07-26T12:48:02Z</time>
      </trkpt>
      <trkpt lat="43.0579780" lon="-0.4348520">
        <ele>467.1</ele>
        <time>2020-07-26T12:48:03Z</time>
      </trkpt>
      <trkpt lat="43.0580010" lon="-0.4346790">
        <ele>466.1</ele>
        <time>2020-07-26T12:48:04Z</time>
      </trkpt>
      <trkpt lat="43.0580170" lon="-0.4345080">
        <ele>465.3</ele>
        <time>2020-07-26T12:48:05Z</time>
      </trkpt>
      <trkpt lat="43.0580290" lon="-0.4343380">
        <ele>464.4</ele>
        <time>2020-07-26T12:48:06Z</time>
      </trkpt>
      <trkpt lat="43.0580420" lon="-0.4341670">
        <ele>463.6</ele>
        <time>2020-07-26T12:48:07Z</time>
      </trkpt>
      <trkpt lat="43.0580530" lon="-0.4340020">
        <ele>462.8</ele>
        <time>2020-07-26T12:48:08Z</time>
      </trkpt>
      <trkpt lat="43.0580640" lon="-0.4338400">
        <ele>462.0</ele>
        <time>2020-07-26T12:48:09Z</time>
      </trkpt>
      <trkpt lat="43.0580740" lon="-0.4336770">
        <ele>461.2</ele>
        <time>2020-07-26T12:48:10Z</time>
      </trkpt>
      <trkpt lat="43.0580840" lon="-0.4335140">
        <ele>460.6</ele>
        <time>2020-07-26T12:48:11Z</time>
      </trkpt>
      <trkpt lat="43.0581030" lon="-0.4331910">
        <ele>459.3</ele>
        <time>2020-07-26T12:48:13Z</time>
      </trkpt>
      <trkpt lat="43.0581090" lon="-0.4330360">
        <ele>458.8</ele>
        <time>2020-07-26T12:48:14Z</time>
      </trkpt>
      <trkpt lat="43.0581110" lon="-0.4324180">
        <ele>456.8</ele>
        <time>2020-07-26T12:48:18Z</time>
      </trkpt>
      <trkpt lat="43.0581050" lon="-0.4319480">
        <ele>455.3</ele>
        <time>2020-07-26T12:48:21Z</time>
      </trkpt>
      <trkpt lat="43.0580990" lon="-0.4318010">
        <ele>454.9</ele>
        <time>2020-07-26T12:48:22Z</time>
      </trkpt>
      <trkpt lat="43.0580710" lon="-0.4313800">
        <ele>453.7</ele>
        <time>2020-07-26T12:48:25Z</time>
      </trkpt>
      <trkpt lat="43.0580560" lon="-0.4310980">
        <ele>453.0</ele>
        <time>2020-07-26T12:48:27Z</time>
      </trkpt>
      <trkpt lat="43.0580480" lon="-0.4309580">
        <ele>452.7</ele>
        <time>2020-07-26T12:48:28Z</time>
      </trkpt>
      <trkpt lat="43.0580210" lon="-0.4306820">
        <ele>452.1</ele>
        <time>2020-07-26T12:48:30Z</time>
      </trkpt>
      <trkpt lat="43.0579680" lon="-0.4304170">
        <ele>451.5</ele>
        <time>2020-07-26T12:48:32Z</time>
      </trkpt>
      <trkpt lat="43.0577730" lon="-0.4299780">
        <ele>450.8</ele>
        <time>2020-07-26T12:48:36Z</time>
      </trkpt>
      <trkpt lat="43.0577160" lon="-0.4299070">
        <ele>451.0</ele>
        <time>2020-07-26T12:48:37Z</time>
      </trkpt>
      <trkpt lat="43.0575870" lon="-0.4298560">
        <ele>451.5</ele>
        <time>2020-07-26T12:48:39Z</time>
      </trkpt>
      <trkpt lat="43.0573980" lon="-0.4299660">
        <ele>451.9</ele>
        <time>2020-07-26T12:48:42Z</time>
      </trkpt>
      <trkpt lat="43.0573410" lon="-0.4300200">
        <ele>452.0</ele>
        <time>2020-07-26T12:48:43Z</time>
      </trkpt>
      <trkpt lat="43.0568410" lon="-0.4304850">
        <ele>454.1</ele>
        <time>2020-07-26T12:48:52Z</time>
      </trkpt>
      <trkpt lat="43.0566580" lon="-0.4306080">
        <ele>454.5</ele>
        <time>2020-07-26T12:48:55Z</time>
      </trkpt>
      <trkpt lat="43.0564150" lon="-0.4307550">
        <ele>454.6</ele>
        <time>2020-07-26T12:48:59Z</time>
      </trkpt>
      <trkpt lat="43.0559880" lon="-0.4310140">
        <ele>455.1</ele>
        <time>2020-07-26T12:49:06Z</time>
      </trkpt>
      <trkpt lat="43.0555160" lon="-0.4312940">
        <ele>455.2</ele>
        <time>2020-07-26T12:49:14Z</time>
      </trkpt>
      <trkpt lat="43.0552610" lon="-0.4313980">
        <ele>455.1</ele>
        <time>2020-07-26T12:49:18Z</time>
      </trkpt>
      <trkpt lat="43.0551330" lon="-0.4314300">
        <ele>455.0</ele>
        <time>2020-07-26T12:49:20Z</time>
      </trkpt>
      <trkpt lat="43.0549180" lon="-0.4314320">
        <ele>454.9</ele>
        <time>2020-07-26T12:49:24Z</time>
      </trkpt>
      <trkpt lat="43.0548660" lon="-0.4314250">
        <ele>455.0</ele>
        <time>2020-07-26T12:49:25Z</time>
      </trkpt>
      <trkpt lat="43.0548990" lon="-0.4317850">
        <ele>456.3</ele>
        <time>2020-07-26T13:19:08Z</time>
      </trkpt>
      <trkpt lat="43.0549310" lon="-0.4317980">
        <ele>456.3</ele>
        <time>2020-07-26T13:19:09Z</time>
      </trkpt>
      <trkpt lat="43.0549580" lon="-0.4315320">
        <ele>455.4</ele>
        <time>2020-07-26T13:19:14Z</time>
      </trkpt>
      <trkpt lat="43.0549380" lon="-0.4314470">
        <ele>455.1</ele>
        <time>2020-07-26T13:19:16Z</time>
      </trkpt>
      <trkpt lat="43.0549110" lon="-0.4314240">
        <ele>454.9</ele>
        <time>2020-07-26T13:19:17Z</time>
      </trkpt>
      <trkpt lat="43.0547850" lon="-0.4313840">
        <ele>454.7</ele>
        <time>2020-07-26T13:19:20Z</time>
      </trkpt>
      <trkpt lat="43.0546800" lon="-0.4313540">
        <ele>454.6</ele>
        <time>2020-07-26T13:19:22Z</time>
      </trkpt>
      <trkpt lat="43.0546240" lon="-0.4313350">
        <ele>454.6</ele>
        <time>2020-07-26T13:19:23Z</time>
      </trkpt>
      <trkpt lat="43.0543500" lon="-0.4312560">
        <ele>454.1</ele>
        <time>2020-07-26T13:19:28Z</time>
      </trkpt>
      <trkpt lat="43.0539470" lon="-0.4311680">
        <ele>453.1</ele>
        <time>2020-07-26T13:19:35Z</time>
      </trkpt>
      <trkpt lat="43.0538840" lon="-0.4311580">
        <ele>452.9</ele>
        <time>2020-07-26T13:19:36Z</time>
      </trkpt>
      <trkpt lat="43.0537560" lon="-0.4311300">
        <ele>452.6</ele>
        <time>2020-07-26T13:19:38Z</time>
      </trkpt>
      <trkpt lat="43.0535480" lon="-0.4310970">
        <ele>452.1</ele>
        <time>2020-07-26T13:19:41Z</time>
      </trkpt>
      <trkpt lat="43.0534750" lon="-0.4310900">
        <ele>452.0</ele>
        <time>2020-07-26T13:19:42Z</time>
      </trkpt>
      <trkpt lat="43.0530340" lon="-0.4310370">
        <ele>451.3</ele>
        <time>2020-07-26T13:19:48Z</time>
      </trkpt>
      <trkpt lat="43.0528920" lon="-0.4310150">
        <ele>451.2</ele>
        <time>2020-07-26T13:19:50Z</time>
      </trkpt>
      <trkpt lat="43.0525330" lon="-0.4309330">
        <ele>450.7</ele>
        <time>2020-07-26T13:19:55Z</time>
      </trkpt>
      <trkpt lat="43.0523300" lon="-0.4308800">
        <ele>450.3</ele>
        <time>2020-07-26T13:19:58Z</time>
      </trkpt>
      <trkpt lat="43.0521970" lon="-0.4308370">
        <ele>450.1</ele>
        <time>2020-07-26T13:20:00Z</time>
      </trkpt>
      <trkpt lat="43.0520530" lon="-0.4307880">
        <ele>449.9</ele>
        <time>2020-07-26T13:20:02Z</time>
      </trkpt>
      <trkpt lat="43.0516690" lon="-0.4306890">
        <ele>449.3</ele>
        <time>2020-07-26T13:20:07Z</time>
      </trkpt>
      <trkpt lat="43.0511960" lon="-0.4305570">
        <ele>448.3</ele>
        <time>2020-07-26T13:20:13Z</time>
      </trkpt>
      <trkpt lat="43.0509470" lon="-0.4304930">
        <ele>447.6</ele>
        <time>2020-07-26T13:20:16Z</time>
      </trkpt>
      <trkpt lat="43.0508620" lon="-0.4304690">
        <ele>447.5</ele>
        <time>2020-07-26T13:20:17Z</time>
      </trkpt>
      <trkpt lat="43.0504010" lon="-0.4303340">
        <ele>445.7</ele>
        <time>2020-07-26T13:20:22Z</time>
      </trkpt>
      <trkpt lat="43.0497660" lon="-0.4301500">
        <ele>443.0</ele>
        <time>2020-07-26T13:20:28Z</time>
      </trkpt>
      <trkpt lat="43.0496590" lon="-0.4301190">
        <ele>442.8</ele>
        <time>2020-07-26T13:20:29Z</time>
      </trkpt>
      <trkpt lat="43.0495540" lon="-0.4300900">
        <ele>442.7</ele>
        <time>2020-07-26T13:20:30Z</time>
      </trkpt>
      <trkpt lat="43.0493500" lon="-0.4300380">
        <ele>442.6</ele>
        <time>2020-07-26T13:20:32Z</time>
      </trkpt>
      <trkpt lat="43.0491620" lon="-0.4299950">
        <ele>442.6</ele>
        <time>2020-07-26T13:20:34Z</time>
      </trkpt>
      <trkpt lat="43.0490720" lon="-0.4299720">
        <ele>442.7</ele>
        <time>2020-07-26T13:20:35Z</time>
      </trkpt>
      <trkpt lat="43.0489820" lon="-0.4299490">
        <ele>442.7</ele>
        <time>2020-07-26T13:20:36Z</time>
      </trkpt>
      <trkpt lat="43.0484690" lon="-0.4298180">
        <ele>443.0</ele>
        <time>2020-07-26T13:20:42Z</time>
      </trkpt>
      <trkpt lat="43.0479390" lon="-0.4296480">
        <ele>442.7</ele>
        <time>2020-07-26T13:20:48Z</time>
      </trkpt>
      <trkpt lat="43.0478510" lon="-0.4296170">
        <ele>442.6</ele>
        <time>2020-07-26T13:20:49Z</time>
      </trkpt>
      <trkpt lat="43.0472930" lon="-0.4293860">
        <ele>442.6</ele>
        <time>2020-07-26T13:20:56Z</time>
      </trkpt>
      <trkpt lat="43.0469860" lon="-0.4292300">
        <ele>442.5</ele>
        <time>2020-07-26T13:21:00Z</time>
      </trkpt>
      <trkpt lat="43.0466030" lon="-0.4290070">
        <ele>442.5</ele>
        <time>2020-07-26T13:21:05Z</time>
      </trkpt>
      <trkpt lat="43.0460930" lon="-0.4285940">
        <ele>442.5</ele>
        <time>2020-07-26T13:21:12Z</time>
      </trkpt>
      <trkpt lat="43.0460240" lon="-0.4285300">
        <ele>442.6</ele>
        <time>2020-07-26T13:21:13Z</time>
      </trkpt>
      <trkpt lat="43.0455550" lon="-0.4281020">
        <ele>442.6</ele>
        <time>2020-07-26T13:21:20Z</time>
      </trkpt>
      <trkpt lat="43.0454180" lon="-0.4279780">
        <ele>442.5</ele>
        <time>2020-07-26T13:21:22Z</time>
      </trkpt>
      <trkpt lat="43.0448920" lon="-0.4275630">
        <ele>441.8</ele>
        <time>2020-07-26T13:21:29Z</time>
      </trkpt>
      <trkpt lat="43.0448120" lon="-0.4275050">
        <ele>441.7</ele>
        <time>2020-07-26T13:21:30Z</time>
      </trkpt>
      <trkpt lat="43.0442830" lon="-0.4271300">
        <ele>442.1</ele>
        <time>2020-07-26T13:21:37Z</time>
      </trkpt>
      <trkpt lat="43.0441420" lon="-0.4270280">
        <ele>442.4</ele>
        <time>2020-07-26T13:21:39Z</time>
      </trkpt>
      <trkpt lat="43.0436280" lon="-0.4266420">
        <ele>443.7</ele>
        <time>2020-07-26T13:21:47Z</time>
      </trkpt>
      <trkpt lat="43.0435670" lon="-0.4265940">
        <ele>443.6</ele>
        <time>2020-07-26T13:21:48Z</time>
      </trkpt>
      <trkpt lat="43.0432380" lon="-0.4263810">
        <ele>443.8</ele>
        <time>2020-07-26T13:21:53Z</time>
      </trkpt>
      <trkpt lat="43.0430320" lon="-0.4262780">
        <ele>443.9</ele>
        <time>2020-07-26T13:21:56Z</time>
      </trkpt>
      <trkpt lat="43.0424900" lon="-0.4259930">
        <ele>444.7</ele>
        <time>2020-07-26T13:22:04Z</time>
      </trkpt>
      <trkpt lat="43.0424240" lon="-0.4259570">
        <ele>444.8</ele>
        <time>2020-07-26T13:22:05Z</time>
      </trkpt>
      <trkpt lat="43.0422920" lon="-0.4258870">
        <ele>445.0</ele>
        <time>2020-07-26T13:22:07Z</time>
      </trkpt>
      <trkpt lat="43.0417580" lon="-0.4256700">
        <ele>445.8</ele>
        <time>2020-07-26T13:22:15Z</time>
      </trkpt>
      <trkpt lat="43.0416910" lon="-0.4256500">
        <ele>445.9</ele>
        <time>2020-07-26T13:22:16Z</time>
      </trkpt>
      <trkpt lat="43.0415580" lon="-0.4256090">
        <ele>446.2</ele>
        <time>2020-07-26T13:22:18Z</time>
      </trkpt>
      <trkpt lat="43.0410440" lon="-0.4254510">
        <ele>447.1</ele>
        <time>2020-07-26T13:22:26Z</time>
      </trkpt>
      <trkpt lat="43.0409170" lon="-0.4254100">
        <ele>447.2</ele>
        <time>2020-07-26T13:22:28Z</time>
      </trkpt>
      <trkpt lat="43.0404680" lon="-0.4252750">
        <ele>447.7</ele>
        <time>2020-07-26T13:22:35Z</time>
      </trkpt>
      <trkpt lat="43.0402790" lon="-0.4252110">
        <ele>447.8</ele>
        <time>2020-07-26T13:22:38Z</time>
      </trkpt>
      <trkpt lat="43.0398050" lon="-0.4250590">
        <ele>448.0</ele>
        <time>2020-07-26T13:22:45Z</time>
      </trkpt>
      <trkpt lat="43.0392190" lon="-0.4248650">
        <ele>448.8</ele>
        <time>2020-07-26T13:22:54Z</time>
      </trkpt>
      <trkpt lat="43.0390200" lon="-0.4247920">
        <ele>449.1</ele>
        <time>2020-07-26T13:22:57Z</time>
      </trkpt>
      <trkpt lat="43.0387160" lon="-0.4246600">
        <ele>449.7</ele>
        <time>2020-07-26T13:23:02Z</time>
      </trkpt>
      <trkpt lat="43.0383410" lon="-0.4244770">
        <ele>450.2</ele>
        <time>2020-07-26T13:23:08Z</time>
      </trkpt>
      <trkpt lat="43.0378850" lon="-0.4242460">
        <ele>450.1</ele>
        <time>2020-07-26T13:23:15Z</time>
      </trkpt>
      <trkpt lat="43.0376320" lon="-0.4241180">
        <ele>450.3</ele>
        <time>2020-07-26T13:23:19Z</time>
      </trkpt>
      <trkpt lat="43.0373940" lon="-0.4239900">
        <ele>450.6</ele>
        <time>2020-07-26T13:23:23Z</time>
      </trkpt>
      <trkpt lat="43.0373420" lon="-0.4239560">
        <ele>450.7</ele>
        <time>2020-07-26T13:23:24Z</time>
      </trkpt>
      <trkpt lat="43.0371440" lon="-0.4238040">
        <ele>451.0</ele>
        <time>2020-07-26T13:23:28Z</time>
      </trkpt>
      <trkpt lat="43.0370340" lon="-0.4237430">
        <ele>451.0</ele>
        <time>2020-07-26T13:23:30Z</time>
      </trkpt>
      <trkpt lat="43.0369460" lon="-0.4236370">
        <ele>451.1</ele>
        <time>2020-07-26T13:23:32Z</time>
      </trkpt>
      <trkpt lat="43.0368780" lon="-0.4234830">
        <ele>451.1</ele>
        <time>2020-07-26T13:23:34Z</time>
      </trkpt>
      <trkpt lat="43.0368390" lon="-0.4234010">
        <ele>451.1</ele>
        <time>2020-07-26T13:23:35Z</time>
      </trkpt>
      <trkpt lat="43.0367900" lon="-0.4233280">
        <ele>451.0</ele>
        <time>2020-07-26T13:23:36Z</time>
      </trkpt>
      <trkpt lat="43.0366000" lon="-0.4231800">
        <ele>450.7</ele>
        <time>2020-07-26T13:23:39Z</time>
      </trkpt>
      <trkpt lat="43.0365280" lon="-0.4231410">
        <ele>450.5</ele>
        <time>2020-07-26T13:23:40Z</time>
      </trkpt>
      <trkpt lat="43.0361570" lon="-0.4229930">
        <ele>450.3</ele>
        <time>2020-07-26T13:23:45Z</time>
      </trkpt>
      <trkpt lat="43.0355870" lon="-0.4227890">
        <ele>450.7</ele>
        <time>2020-07-26T13:23:53Z</time>
      </trkpt>
      <trkpt lat="43.0355160" lon="-0.4227660">
        <ele>450.8</ele>
        <time>2020-07-26T13:23:54Z</time>
      </trkpt>
      <trkpt lat="43.0349620" lon="-0.4225690">
        <ele>451.6</ele>
        <time>2020-07-26T13:24:02Z</time>
      </trkpt>
      <trkpt lat="43.0346890" lon="-0.4224710">
        <ele>452.0</ele>
        <time>2020-07-26T13:24:06Z</time>
      </trkpt>
      <trkpt lat="43.0344180" lon="-0.4223790">
        <ele>452.5</ele>
        <time>2020-07-26T13:24:10Z</time>
      </trkpt>
      <trkpt lat="43.0338720" lon="-0.4221850">
        <ele>453.1</ele>
        <time>2020-07-26T13:24:18Z</time>
      </trkpt>
      <trkpt lat="43.0333060" lon="-0.4220070">
        <ele>453.2</ele>
        <time>2020-07-26T13:24:26Z</time>
      </trkpt>
      <trkpt lat="43.0327690" lon="-0.4219110">
        <ele>452.9</ele>
        <time>2020-07-26T13:24:33Z</time>
      </trkpt>
      <trkpt lat="43.0326140" lon="-0.4218940">
        <ele>452.9</ele>
        <time>2020-07-26T13:24:35Z</time>
      </trkpt>
      <trkpt lat="43.0320490" lon="-0.4218630">
        <ele>452.7</ele>
        <time>2020-07-26T13:24:42Z</time>
      </trkpt>
      <trkpt lat="43.0318060" lon="-0.4218500">
        <ele>452.7</ele>
        <time>2020-07-26T13:24:45Z</time>
      </trkpt>
      <trkpt lat="43.0312240" lon="-0.4218340">
        <ele>452.8</ele>
        <time>2020-07-26T13:24:52Z</time>
      </trkpt>
      <trkpt lat="43.0309770" lon="-0.4218420">
        <ele>452.9</ele>
        <time>2020-07-26T13:24:55Z</time>
      </trkpt>
      <trkpt lat="43.0308180" lon="-0.4218460">
        <ele>453.0</ele>
        <time>2020-07-26T13:24:57Z</time>
      </trkpt>
      <trkpt lat="43.0302530" lon="-0.4218400">
        <ele>453.6</ele>
        <time>2020-07-26T13:25:04Z</time>
      </trkpt>
      <trkpt lat="43.0298720" lon="-0.4218260">
        <ele>453.5</ele>
        <time>2020-07-26T13:25:09Z</time>
      </trkpt>
      <trkpt lat="43.0292760" lon="-0.4217770">
        <ele>454.3</ele>
        <time>2020-07-26T13:25:17Z</time>
      </trkpt>
      <trkpt lat="43.0290600" lon="-0.4217610">
        <ele>454.7</ele>
        <time>2020-07-26T13:25:20Z</time>
      </trkpt>
      <trkpt lat="43.0287070" lon="-0.4217460">
        <ele>455.5</ele>
        <time>2020-07-26T13:25:25Z</time>
      </trkpt>
      <trkpt lat="43.0284550" lon="-0.4217390">
        <ele>455.9</ele>
        <time>2020-07-26T13:25:29Z</time>
      </trkpt>
      <trkpt lat="43.0278790" lon="-0.4217200">
        <ele>457.0</ele>
        <time>2020-07-26T13:25:38Z</time>
      </trkpt>
      <trkpt lat="43.0277530" lon="-0.4217140">
        <ele>457.2</ele>
        <time>2020-07-26T13:25:40Z</time>
      </trkpt>
      <trkpt lat="43.0276890" lon="-0.4217100">
        <ele>457.3</ele>
        <time>2020-07-26T13:25:41Z</time>
      </trkpt>
      <trkpt lat="43.0271030" lon="-0.4216800">
        <ele>458.4</ele>
        <time>2020-07-26T13:25:50Z</time>
      </trkpt>
      <trkpt lat="43.0269110" lon="-0.4216730">
        <ele>458.7</ele>
        <time>2020-07-26T13:25:53Z</time>
      </trkpt>
      <trkpt lat="43.0265930" lon="-0.4216600">
        <ele>459.3</ele>
        <time>2020-07-26T13:25:58Z</time>
      </trkpt>
      <trkpt lat="43.0260850" lon="-0.4216400">
        <ele>460.2</ele>
        <time>2020-07-26T13:26:06Z</time>
      </trkpt>
      <trkpt lat="43.0254960" lon="-0.4216120">
        <ele>460.9</ele>
        <time>2020-07-26T13:26:15Z</time>
      </trkpt>
      <trkpt lat="43.0253630" lon="-0.4216080">
        <ele>461.1</ele>
        <time>2020-07-26T13:26:17Z</time>
      </trkpt>
      <trkpt lat="43.0251590" lon="-0.4216000">
        <ele>461.2</ele>
        <time>2020-07-26T13:26:20Z</time>
      </trkpt>
      <trkpt lat="43.0246020" lon="-0.4216200">
        <ele>460.8</ele>
        <time>2020-07-26T13:26:28Z</time>
      </trkpt>
      <trkpt lat="43.0245330" lon="-0.4216330">
        <ele>460.7</ele>
        <time>2020-07-26T13:26:29Z</time>
      </trkpt>
      <trkpt lat="43.0242570" lon="-0.4217330">
        <ele>460.7</ele>
        <time>2020-07-26T13:26:33Z</time>
      </trkpt>
      <trkpt lat="43.0242020" lon="-0.4217880">
        <ele>460.7</ele>
        <time>2020-07-26T13:26:34Z</time>
      </trkpt>
      <trkpt lat="43.0239860" lon="-0.4219920">
        <ele>461.1</ele>
        <time>2020-07-26T13:26:38Z</time>
      </trkpt>
      <trkpt lat="43.0237850" lon="-0.4219490">
        <ele>461.1</ele>
        <time>2020-07-26T13:26:41Z</time>
      </trkpt>
      <trkpt lat="43.0237140" lon="-0.4219340">
        <ele>461.0</ele>
        <time>2020-07-26T13:26:42Z</time>
      </trkpt>
      <trkpt lat="43.0235030" lon="-0.4219470">
        <ele>460.9</ele>
        <time>2020-07-26T13:26:45Z</time>
      </trkpt>
      <trkpt lat="43.0229710" lon="-0.4219870">
        <ele>461.0</ele>
        <time>2020-07-26T13:26:53Z</time>
      </trkpt>
      <trkpt lat="43.0224470" lon="-0.4221700">
        <ele>461.3</ele>
        <time>2020-07-26T13:27:01Z</time>
      </trkpt>
      <trkpt lat="43.0219200" lon="-0.4223790">
        <ele>461.8</ele>
        <time>2020-07-26T13:27:09Z</time>
      </trkpt>
      <trkpt lat="43.0217910" lon="-0.4224300">
        <ele>461.9</ele>
        <time>2020-07-26T13:27:11Z</time>
      </trkpt>
      <trkpt lat="43.0212290" lon="-0.4226460">
        <ele>462.4</ele>
        <time>2020-07-26T13:27:20Z</time>
      </trkpt>
      <trkpt lat="43.0211660" lon="-0.4226690">
        <ele>462.4</ele>
        <time>2020-07-26T13:27:21Z</time>
      </trkpt>
      <trkpt lat="43.0209140" lon="-0.4227630">
        <ele>462.7</ele>
        <time>2020-07-26T13:27:25Z</time>
      </trkpt>
      <trkpt lat="43.0204780" lon="-0.4229160">
        <ele>463.1</ele>
        <time>2020-07-26T13:27:32Z</time>
      </trkpt>
      <trkpt lat="43.0199840" lon="-0.4230460">
        <ele>463.6</ele>
        <time>2020-07-26T13:27:40Z</time>
      </trkpt>
      <trkpt lat="43.0197900" lon="-0.4230810">
        <ele>463.7</ele>
        <time>2020-07-26T13:27:43Z</time>
      </trkpt>
      <trkpt lat="43.0192800" lon="-0.4231730">
        <ele>464.3</ele>
        <time>2020-07-26T13:27:51Z</time>
      </trkpt>
      <trkpt lat="43.0187260" lon="-0.4232680">
        <ele>465.0</ele>
        <time>2020-07-26T13:28:00Z</time>
      </trkpt>
      <trkpt lat="43.0184810" lon="-0.4232770">
        <ele>465.9</ele>
        <time>2020-07-26T13:28:04Z</time>
      </trkpt>
      <trkpt lat="43.0178850" lon="-0.4232460">
        <ele>467.1</ele>
        <time>2020-07-26T13:28:14Z</time>
      </trkpt>
      <trkpt lat="43.0178290" lon="-0.4232400">
        <ele>467.3</ele>
        <time>2020-07-26T13:28:15Z</time>
      </trkpt>
      <trkpt lat="43.0175620" lon="-0.4232170">
        <ele>468.4</ele>
        <time>2020-07-26T13:28:20Z</time>
      </trkpt>
      <trkpt lat="43.0173690" lon="-0.4231980">
        <ele>469.4</ele>
        <time>2020-07-26T13:28:24Z</time>
      </trkpt>
      <trkpt lat="43.0170990" lon="-0.4231740">
        <ele>470.6</ele>
        <time>2020-07-26T13:28:30Z</time>
      </trkpt>
      <trkpt lat="43.0168830" lon="-0.4231510">
        <ele>471.6</ele>
        <time>2020-07-26T13:28:35Z</time>
      </trkpt>
      <trkpt lat="43.0168410" lon="-0.4231470">
        <ele>471.8</ele>
        <time>2020-07-26T13:28:36Z</time>
      </trkpt>
      <trkpt lat="43.0165830" lon="-0.4231300">
        <ele>473.1</ele>
        <time>2020-07-26T13:28:42Z</time>
      </trkpt>
      <trkpt lat="43.0163680" lon="-0.4231150">
        <ele>474.3</ele>
        <time>2020-07-26T13:28:47Z</time>
      </trkpt>
      <trkpt lat="43.0163260" lon="-0.4231110">
        <ele>474.6</ele>
        <time>2020-07-26T13:28:48Z</time>
      </trkpt>
      <trkpt lat="43.0162410" lon="-0.4231010">
        <ele>475.0</ele>
        <time>2020-07-26T13:28:50Z</time>
      </trkpt>
      <trkpt lat="43.0160700" lon="-0.4230880">
        <ele>475.9</ele>
        <time>2020-07-26T13:28:54Z</time>
      </trkpt>
      <trkpt lat="43.0158050" lon="-0.4230690">
        <ele>477.1</ele>
        <time>2020-07-26T13:29:00Z</time>
      </trkpt>
      <trkpt lat="43.0154850" lon="-0.4230560">
        <ele>478.4</ele>
        <time>2020-07-26T13:29:07Z</time>
      </trkpt>
      <trkpt lat="43.0151900" lon="-0.4230650">
        <ele>479.2</ele>
        <time>2020-07-26T13:29:13Z</time>
      </trkpt>
      <trkpt lat="43.0150320" lon="-0.4230840">
        <ele>479.2</ele>
        <time>2020-07-26T13:29:16Z</time>
      </trkpt>
      <trkpt lat="43.0147570" lon="-0.4231260">
        <ele>480.0</ele>
        <time>2020-07-26T13:29:21Z</time>
      </trkpt>
      <trkpt lat="43.0142460" lon="-0.4231770">
        <ele>479.1</ele>
        <time>2020-07-26T13:29:29Z</time>
      </trkpt>
      <trkpt lat="43.0137770" lon="-0.4231740">
        <ele>477.3</ele>
        <time>2020-07-26T13:29:35Z</time>
      </trkpt>
      <trkpt lat="43.0135060" lon="-0.4231690">
        <ele>476.1</ele>
        <time>2020-07-26T13:29:38Z</time>
      </trkpt>
      <trkpt lat="43.0131310" lon="-0.4231540">
        <ele>474.7</ele>
        <time>2020-07-26T13:29:42Z</time>
      </trkpt>
      <trkpt lat="43.0129410" lon="-0.4231470">
        <ele>474.2</ele>
        <time>2020-07-26T13:29:44Z</time>
      </trkpt>
      <trkpt lat="43.0128440" lon="-0.4231440">
        <ele>474.0</ele>
        <time>2020-07-26T13:29:45Z</time>
      </trkpt>
      <trkpt lat="43.0126520" lon="-0.4231340">
        <ele>473.5</ele>
        <time>2020-07-26T13:29:47Z</time>
      </trkpt>
      <trkpt lat="43.0121640" lon="-0.4230600">
        <ele>472.6</ele>
        <time>2020-07-26T13:29:52Z</time>
      </trkpt>
      <trkpt lat="43.0115860" lon="-0.4228690">
        <ele>472.1</ele>
        <time>2020-07-26T13:29:58Z</time>
      </trkpt>
      <trkpt lat="43.0114920" lon="-0.4228290">
        <ele>472.1</ele>
        <time>2020-07-26T13:29:59Z</time>
      </trkpt>
      <trkpt lat="43.0109480" lon="-0.4225620">
        <ele>472.2</ele>
        <time>2020-07-26T13:30:05Z</time>
      </trkpt>
      <trkpt lat="43.0106920" lon="-0.4224350">
        <ele>472.6</ele>
        <time>2020-07-26T13:30:08Z</time>
      </trkpt>
      <trkpt lat="43.0101280" lon="-0.4221660">
        <ele>473.5</ele>
        <time>2020-07-26T13:30:15Z</time>
      </trkpt>
      <trkpt lat="43.0099010" lon="-0.4220500">
        <ele>473.9</ele>
        <time>2020-07-26T13:30:18Z</time>
      </trkpt>
      <trkpt lat="43.0098290" lon="-0.4220090">
        <ele>474.1</ele>
        <time>2020-07-26T13:30:19Z</time>
      </trkpt>
      <trkpt lat="43.0093570" lon="-0.4216960">
        <ele>475.1</ele>
        <time>2020-07-26T13:30:26Z</time>
      </trkpt>
      <trkpt lat="43.0089200" lon="-0.4214180">
        <ele>476.0</ele>
        <time>2020-07-26T13:30:33Z</time>
      </trkpt>
      <trkpt lat="43.0088550" lon="-0.4213790">
        <ele>476.2</ele>
        <time>2020-07-26T13:30:34Z</time>
      </trkpt>
      <trkpt lat="43.0084750" lon="-0.4211760">
        <ele>477.0</ele>
        <time>2020-07-26T13:30:40Z</time>
      </trkpt>
      <trkpt lat="43.0082840" lon="-0.4211020">
        <ele>477.8</ele>
        <time>2020-07-26T13:30:43Z</time>
      </trkpt>
      <trkpt lat="43.0080300" lon="-0.4210360">
        <ele>477.9</ele>
        <time>2020-07-26T13:30:47Z</time>
      </trkpt>
      <trkpt lat="43.0079060" lon="-0.4210140">
        <ele>478.1</ele>
        <time>2020-07-26T13:30:49Z</time>
      </trkpt>
      <trkpt lat="43.0075800" lon="-0.4209730">
        <ele>478.6</ele>
        <time>2020-07-26T13:30:54Z</time>
      </trkpt>
      <trkpt lat="43.0073900" lon="-0.4209720">
        <ele>479.0</ele>
        <time>2020-07-26T13:30:57Z</time>
      </trkpt>
      <trkpt lat="43.0070820" lon="-0.4209910">
        <ele>479.7</ele>
        <time>2020-07-26T13:31:02Z</time>
      </trkpt>
      <trkpt lat="43.0069600" lon="-0.4210120">
        <ele>479.8</ele>
        <time>2020-07-26T13:31:04Z</time>
      </trkpt>
      <trkpt lat="43.0067070" lon="-0.4210750">
        <ele>480.0</ele>
        <time>2020-07-26T13:31:08Z</time>
      </trkpt>
      <trkpt lat="43.0064470" lon="-0.4211770">
        <ele>480.3</ele>
        <time>2020-07-26T13:31:12Z</time>
      </trkpt>
      <trkpt lat="43.0059120" lon="-0.4214640">
        <ele>479.9</ele>
        <time>2020-07-26T13:31:20Z</time>
      </trkpt>
      <trkpt lat="43.0054090" lon="-0.4216280">
        <ele>479.5</ele>
        <time>2020-07-26T13:31:27Z</time>
      </trkpt>
      <trkpt lat="43.0051960" lon="-0.4216520">
        <ele>479.4</ele>
        <time>2020-07-26T13:31:30Z</time>
      </trkpt>
      <trkpt lat="43.0049870" lon="-0.4216400">
        <ele>479.6</ele>
        <time>2020-07-26T13:31:33Z</time>
      </trkpt>
      <trkpt lat="43.0049190" lon="-0.4216300">
        <ele>479.5</ele>
        <time>2020-07-26T13:31:34Z</time>
      </trkpt>
      <trkpt lat="43.0045210" lon="-0.4214950">
        <ele>478.8</ele>
        <time>2020-07-26T13:31:40Z</time>
      </trkpt>
      <trkpt lat="43.0040140" lon="-0.4212350">
        <ele>478.6</ele>
        <time>2020-07-26T13:31:48Z</time>
      </trkpt>
      <trkpt lat="43.0038380" lon="-0.4211360">
        <ele>478.9</ele>
        <time>2020-07-26T13:31:51Z</time>
      </trkpt>
      <trkpt lat="43.0033400" lon="-0.4208370">
        <ele>480.6</ele>
        <time>2020-07-26T13:32:00Z</time>
      </trkpt>
      <trkpt lat="43.0032900" lon="-0.4208090">
        <ele>480.8</ele>
        <time>2020-07-26T13:32:01Z</time>
      </trkpt>
      <trkpt lat="43.0029030" lon="-0.4205780">
        <ele>482.7</ele>
        <time>2020-07-26T13:32:09Z</time>
      </trkpt>
      <trkpt lat="43.0027670" lon="-0.4204960">
        <ele>483.4</ele>
        <time>2020-07-26T13:32:12Z</time>
      </trkpt>
      <trkpt lat="43.0026360" lon="-0.4204290">
        <ele>484.1</ele>
        <time>2020-07-26T13:32:15Z</time>
      </trkpt>
      <trkpt lat="43.0024270" lon="-0.4203260">
        <ele>485.5</ele>
        <time>2020-07-26T13:32:20Z</time>
      </trkpt>
      <trkpt lat="43.0023860" lon="-0.4203070">
        <ele>485.8</ele>
        <time>2020-07-26T13:32:21Z</time>
      </trkpt>
      <trkpt lat="43.0021670" lon="-0.4202280">
        <ele>487.0</ele>
        <time>2020-07-26T13:32:26Z</time>
      </trkpt>
      <trkpt lat="43.0020290" lon="-0.4201890">
        <ele>487.8</ele>
        <time>2020-07-26T13:32:29Z</time>
      </trkpt>
      <trkpt lat="43.0019400" lon="-0.4201740">
        <ele>488.2</ele>
        <time>2020-07-26T13:32:31Z</time>
      </trkpt>
      <trkpt lat="43.0018530" lon="-0.4201680">
        <ele>488.6</ele>
        <time>2020-07-26T13:32:33Z</time>
      </trkpt>
      <trkpt lat="43.0017210" lon="-0.4201600">
        <ele>489.2</ele>
        <time>2020-07-26T13:32:36Z</time>
      </trkpt>
      <trkpt lat="43.0014970" lon="-0.4201690">
        <ele>490.0</ele>
        <time>2020-07-26T13:32:41Z</time>
      </trkpt>
      <trkpt lat="43.0014020" lon="-0.4201820">
        <ele>490.2</ele>
        <time>2020-07-26T13:32:43Z</time>
      </trkpt>
      <trkpt lat="43.0010970" lon="-0.4202630">
        <ele>490.6</ele>
        <time>2020-07-26T13:32:49Z</time>
      </trkpt>
      <trkpt lat="43.0010440" lon="-0.4202800">
        <ele>490.6</ele>
        <time>2020-07-26T13:32:50Z</time>
      </trkpt>
      <trkpt lat="43.0005870" lon="-0.4204630">
        <ele>491.5</ele>
        <time>2020-07-26T13:32:58Z</time>
      </trkpt>
      <trkpt lat="43.0000700" lon="-0.4206870">
        <ele>491.4</ele>
        <time>2020-07-26T13:33:06Z</time>
      </trkpt>
      <trkpt lat="43.0000000" lon="-0.4207170">
        <ele>491.3</ele>
        <time>2020-07-26T13:33:07Z</time>
      </trkpt>
      <trkpt lat="42.9994170" lon="-0.4209730">
        <ele>490.1</ele>
        <time>2020-07-26T13:33:15Z</time>
      </trkpt>
      <trkpt lat="42.9991880" lon="-0.4210710">
        <ele>489.5</ele>
        <time>2020-07-26T13:33:18Z</time>
      </trkpt>
      <trkpt lat="42.9988750" lon="-0.4212030">
        <ele>488.5</ele>
        <time>2020-07-26T13:33:22Z</time>
      </trkpt>
      <trkpt lat="42.9984710" lon="-0.4213770">
        <ele>487.5</ele>
        <time>2020-07-26T13:33:27Z</time>
      </trkpt>
      <trkpt lat="42.9981470" lon="-0.4215150">
        <ele>487.2</ele>
        <time>2020-07-26T13:33:31Z</time>
      </trkpt>
      <trkpt lat="42.9975960" lon="-0.4217410">
        <ele>487.7</ele>
        <time>2020-07-26T13:33:38Z</time>
      </trkpt>
      <trkpt lat="42.9975200" lon="-0.4217700">
        <ele>487.8</ele>
        <time>2020-07-26T13:33:39Z</time>
      </trkpt>
      <trkpt lat="42.9969330" lon="-0.4219550">
        <ele>488.9</ele>
        <time>2020-07-26T13:33:47Z</time>
      </trkpt>
      <trkpt lat="42.9968620" lon="-0.4219710">
        <ele>489.0</ele>
        <time>2020-07-26T13:33:48Z</time>
      </trkpt>
      <trkpt lat="42.9967190" lon="-0.4220010">
        <ele>489.3</ele>
        <time>2020-07-26T13:33:50Z</time>
      </trkpt>
      <trkpt lat="42.9961560" lon="-0.4220830">
        <ele>490.0</ele>
        <time>2020-07-26T13:33:58Z</time>
      </trkpt>
      <trkpt lat="42.9960840" lon="-0.4220910">
        <ele>490.0</ele>
        <time>2020-07-26T13:33:59Z</time>
      </trkpt>
      <trkpt lat="42.9958650" lon="-0.4221200">
        <ele>490.0</ele>
        <time>2020-07-26T13:34:02Z</time>
      </trkpt>
      <trkpt lat="42.9954300" lon="-0.4221740">
        <ele>490.2</ele>
        <time>2020-07-26T13:34:08Z</time>
      </trkpt>
      <trkpt lat="42.9948510" lon="-0.4222480">
        <ele>490.5</ele>
        <time>2020-07-26T13:34:16Z</time>
      </trkpt>
      <trkpt lat="42.9946390" lon="-0.4222780">
        <ele>490.6</ele>
        <time>2020-07-26T13:34:19Z</time>
      </trkpt>
      <trkpt lat="42.9943670" lon="-0.4223080">
        <ele>491.3</ele>
        <time>2020-07-26T13:34:23Z</time>
      </trkpt>
      <trkpt lat="42.9941200" lon="-0.4223290">
        <ele>492.1</ele>
        <time>2020-07-26T13:34:27Z</time>
      </trkpt>
      <trkpt lat="42.9938510" lon="-0.4223550">
        <ele>493.1</ele>
        <time>2020-07-26T13:34:32Z</time>
      </trkpt>
      <trkpt lat="42.9937000" lon="-0.4223690">
        <ele>493.9</ele>
        <time>2020-07-26T13:34:35Z</time>
      </trkpt>
      <trkpt lat="42.9936030" lon="-0.4223790">
        <ele>494.5</ele>
        <time>2020-07-26T13:34:37Z</time>
      </trkpt>
      <trkpt lat="42.9934130" lon="-0.4223960">
        <ele>495.8</ele>
        <time>2020-07-26T13:34:41Z</time>
      </trkpt>
      <trkpt lat="42.9931950" lon="-0.4224160">
        <ele>497.7</ele>
        <time>2020-07-26T13:34:46Z</time>
      </trkpt>
      <trkpt lat="42.9929880" lon="-0.4224350">
        <ele>499.9</ele>
        <time>2020-07-26T13:34:51Z</time>
      </trkpt>
      <trkpt lat="42.9928260" lon="-0.4224650">
        <ele>501.1</ele>
        <time>2020-07-26T13:34:55Z</time>
      </trkpt>
      <trkpt lat="42.9927420" lon="-0.4224810">
        <ele>501.2</ele>
        <time>2020-07-26T13:34:57Z</time>
      </trkpt>
      <trkpt lat="42.9926220" lon="-0.4225030">
        <ele>501.7</ele>
        <time>2020-07-26T13:35:00Z</time>
      </trkpt>
      <trkpt lat="42.9924010" lon="-0.4225350">
        <ele>502.7</ele>
        <time>2020-07-26T13:35:06Z</time>
      </trkpt>
      <trkpt lat="42.9923640" lon="-0.4225360">
        <ele>502.8</ele>
        <time>2020-07-26T13:35:07Z</time>
      </trkpt>
      <trkpt lat="42.9922510" lon="-0.4225320">
        <ele>503.0</ele>
        <time>2020-07-26T13:35:10Z</time>
      </trkpt>
      <trkpt lat="42.9921380" lon="-0.4225170">
        <ele>503.1</ele>
        <time>2020-07-26T13:35:13Z</time>
      </trkpt>
      <trkpt lat="42.9920230" lon="-0.4224890">
        <ele>503.4</ele>
        <time>2020-07-26T13:35:16Z</time>
      </trkpt>
      <trkpt lat="42.9919440" lon="-0.4224650">
        <ele>503.4</ele>
        <time>2020-07-26T13:35:18Z</time>
      </trkpt>
      <trkpt lat="42.9917280" lon="-0.4224150">
        <ele>503.5</ele>
        <time>2020-07-26T13:35:23Z</time>
      </trkpt>
      <trkpt lat="42.9913370" lon="-0.4223260">
        <ele>503.6</ele>
        <time>2020-07-26T13:35:31Z</time>
      </trkpt>
      <trkpt lat="42.9912840" lon="-0.4223150">
        <ele>503.6</ele>
        <time>2020-07-26T13:35:32Z</time>
      </trkpt>
      <trkpt lat="42.9907360" lon="-0.4222000">
        <ele>503.9</ele>
        <time>2020-07-26T13:35:42Z</time>
      </trkpt>
      <trkpt lat="42.9906800" lon="-0.4221970">
        <ele>504.0</ele>
        <time>2020-07-26T13:35:43Z</time>
      </trkpt>
      <trkpt lat="42.9904620" lon="-0.4222680">
        <ele>504.3</ele>
        <time>2020-07-26T13:35:47Z</time>
      </trkpt>
      <trkpt lat="42.9904110" lon="-0.4223030">
        <ele>504.4</ele>
        <time>2020-07-26T13:35:48Z</time>
      </trkpt>
      <trkpt lat="42.9899520" lon="-0.4226260">
        <ele>505.5</ele>
        <time>2020-07-26T13:35:57Z</time>
      </trkpt>
      <trkpt lat="42.9898450" lon="-0.4226670">
        <ele>505.7</ele>
        <time>2020-07-26T13:35:59Z</time>
      </trkpt>
      <trkpt lat="42.9896790" lon="-0.4226770">
        <ele>506.0</ele>
        <time>2020-07-26T13:36:02Z</time>
      </trkpt>
      <trkpt lat="42.9895720" lon="-0.4226600">
        <ele>506.2</ele>
        <time>2020-07-26T13:36:04Z</time>
      </trkpt>
      <trkpt lat="42.9892900" lon="-0.4226080">
        <ele>506.8</ele>
        <time>2020-07-26T13:36:09Z</time>
      </trkpt>
      <trkpt lat="42.9887430" lon="-0.4225170">
        <ele>507.1</ele>
        <time>2020-07-26T13:36:18Z</time>
      </trkpt>
      <trkpt lat="42.9884140" lon="-0.4224390">
        <ele>507.7</ele>
        <time>2020-07-26T13:36:23Z</time>
      </trkpt>
      <trkpt lat="42.9883510" lon="-0.4224460">
        <ele>507.8</ele>
        <time>2020-07-26T13:36:24Z</time>
      </trkpt>
      <trkpt lat="42.9882220" lon="-0.4225640">
        <ele>508.5</ele>
        <time>2020-07-26T13:36:27Z</time>
      </trkpt>
      <trkpt lat="42.9882000" lon="-0.4227430">
        <ele>509.1</ele>
        <time>2020-07-26T13:36:30Z</time>
      </trkpt>
      <trkpt lat="42.9882010" lon="-0.4228020">
        <ele>509.3</ele>
        <time>2020-07-26T13:36:31Z</time>
      </trkpt>
      <trkpt lat="42.9881960" lon="-0.4231320">
        <ele>510.7</ele>
        <time>2020-07-26T13:36:37Z</time>
      </trkpt>
      <trkpt lat="42.9881950" lon="-0.4232920">
        <ele>511.4</ele>
        <time>2020-07-26T13:36:40Z</time>
      </trkpt>
      <trkpt lat="42.9881950" lon="-0.4233450">
        <ele>511.6</ele>
        <time>2020-07-26T13:36:41Z</time>
      </trkpt>
      <trkpt lat="42.9881860" lon="-0.4236470">
        <ele>513.1</ele>
        <time>2020-07-26T13:36:47Z</time>
      </trkpt>
      <trkpt lat="42.9881850" lon="-0.4236950">
        <ele>513.3</ele>
        <time>2020-07-26T13:36:48Z</time>
      </trkpt>
      <trkpt lat="42.9881810" lon="-0.4238350">
        <ele>514.1</ele>
        <time>2020-07-26T13:36:51Z</time>
      </trkpt>
      <trkpt lat="42.9881770" lon="-0.4240650">
        <ele>515.2</ele>
        <time>2020-07-26T13:36:56Z</time>
      </trkpt>
      <trkpt lat="42.9881720" lon="-0.4242960">
        <ele>516.4</ele>
        <time>2020-07-26T13:37:01Z</time>
      </trkpt>
      <trkpt lat="42.9881620" lon="-0.4245200">
        <ele>517.5</ele>
        <time>2020-07-26T13:37:06Z</time>
      </trkpt>
      <trkpt lat="42.9881530" lon="-0.4248030">
        <ele>518.7</ele>
        <time>2020-07-26T13:37:12Z</time>
      </trkpt>
      <trkpt lat="42.9881380" lon="-0.4252030">
        <ele>520.4</ele>
        <time>2020-07-26T13:37:21Z</time>
      </trkpt>
      <trkpt lat="42.9881270" lon="-0.4254850">
        <ele>522.5</ele>
        <time>2020-07-26T13:37:27Z</time>
      </trkpt>
      <trkpt lat="42.9881260" lon="-0.4255300">
        <ele>522.8</ele>
        <time>2020-07-26T13:37:28Z</time>
      </trkpt>
      <trkpt lat="42.9881260" lon="-0.4255740">
        <ele>523.1</ele>
        <time>2020-07-26T13:37:29Z</time>
      </trkpt>
      <trkpt lat="42.9881280" lon="-0.4257440">
        <ele>524.4</ele>
        <time>2020-07-26T13:37:33Z</time>
      </trkpt>
      <trkpt lat="42.9881210" lon="-0.4258710">
        <ele>525.4</ele>
        <time>2020-07-26T13:37:36Z</time>
      </trkpt>
      <trkpt lat="42.9881170" lon="-0.4260090">
        <ele>526.3</ele>
        <time>2020-07-26T13:37:40Z</time>
      </trkpt>
      <trkpt lat="42.9881230" lon="-0.4261150">
        <ele>527.0</ele>
        <time>2020-07-26T13:37:43Z</time>
      </trkpt>
      <trkpt lat="42.9881480" lon="-0.4261890">
        <ele>527.5</ele>
        <time>2020-07-26T13:37:45Z</time>
      </trkpt>
      <trkpt lat="42.9881800" lon="-0.4263150">
        <ele>528.0</ele>
        <time>2020-07-26T13:37:48Z</time>
      </trkpt>
      <trkpt lat="42.9881180" lon="-0.4264560">
        <ele>528.3</ele>
        <time>2020-07-26T13:37:52Z</time>
      </trkpt>
      <trkpt lat="42.9879190" lon="-0.4265780">
        <ele>528.3</ele>
        <time>2020-07-26T13:37:58Z</time>
      </trkpt>
      <trkpt lat="42.9878230" lon="-0.4266520">
        <ele>528.2</ele>
        <time>2020-07-26T13:38:01Z</time>
      </trkpt>
      <trkpt lat="42.9876870" lon="-0.4267690">
        <ele>528.3</ele>
        <time>2020-07-26T13:38:05Z</time>
      </trkpt>
      <trkpt lat="42.9874780" lon="-0.4269330">
        <ele>529.0</ele>
        <time>2020-07-26T13:38:12Z</time>
      </trkpt>
      <trkpt lat="42.9873660" lon="-0.4270090">
        <ele>529.6</ele>
        <time>2020-07-26T13:38:16Z</time>
      </trkpt>
      <trkpt lat="42.9872500" lon="-0.4270940">
        <ele>530.4</ele>
        <time>2020-07-26T13:38:20Z</time>
      </trkpt>
      <trkpt lat="42.9872220" lon="-0.4271170">
        <ele>530.5</ele>
        <time>2020-07-26T13:38:21Z</time>
      </trkpt>
      <trkpt lat="42.9870690" lon="-0.4272540">
        <ele>531.2</ele>
        <time>2020-07-26T13:38:26Z</time>
      </trkpt>
      <trkpt lat="42.9870370" lon="-0.4272840">
        <ele>531.3</ele>
        <time>2020-07-26T13:38:27Z</time>
      </trkpt>
      <trkpt lat="42.9869380" lon="-0.4274400">
        <ele>531.7</ele>
        <time>2020-07-26T13:38:31Z</time>
      </trkpt>
      <trkpt lat="42.9868890" lon="-0.4275720">
        <ele>532.0</ele>
        <time>2020-07-26T13:38:34Z</time>
      </trkpt>
      <trkpt lat="42.9868460" lon="-0.4277140">
        <ele>532.5</ele>
        <time>2020-07-26T13:38:37Z</time>
      </trkpt>
      <trkpt lat="42.9867420" lon="-0.4278570">
        <ele>532.9</ele>
        <time>2020-07-26T13:38:41Z</time>
      </trkpt>
      <trkpt lat="42.9866100" lon="-0.4279160">
        <ele>532.9</ele>
        <time>2020-07-26T13:38:44Z</time>
      </trkpt>
      <trkpt lat="42.9865080" lon="-0.4279550">
        <ele>532.7</ele>
        <time>2020-07-26T13:38:46Z</time>
      </trkpt>
      <trkpt lat="42.9861390" lon="-0.4281030">
        <ele>531.5</ele>
        <time>2020-07-26T13:38:52Z</time>
      </trkpt>
      <trkpt lat="42.9857820" lon="-0.4282350">
        <ele>530.7</ele>
        <time>2020-07-26T13:38:57Z</time>
      </trkpt>
      <trkpt lat="42.9855710" lon="-0.4283160">
        <ele>529.8</ele>
        <time>2020-07-26T13:39:00Z</time>
      </trkpt>
      <trkpt lat="42.9852840" lon="-0.4284350">
        <ele>528.6</ele>
        <time>2020-07-26T13:39:04Z</time>
      </trkpt>
      <trkpt lat="42.9851650" lon="-0.4284920">
        <ele>528.3</ele>
        <time>2020-07-26T13:39:06Z</time>
      </trkpt>
      <trkpt lat="42.9850850" lon="-0.4285080">
        <ele>528.0</ele>
        <time>2020-07-26T13:39:08Z</time>
      </trkpt>
      <trkpt lat="42.9850550" lon="-0.4284840">
        <ele>527.6</ele>
        <time>2020-07-26T13:39:09Z</time>
      </trkpt>
      <trkpt lat="42.9849660" lon="-0.4282580">
        <ele>526.8</ele>
        <time>2020-07-26T13:39:13Z</time>
      </trkpt>
      <trkpt lat="42.9849460" lon="-0.4281790">
        <ele>526.6</ele>
        <time>2020-07-26T13:39:14Z</time>
      </trkpt>
      <trkpt lat="42.9848840" lon="-0.4279460">
        <ele>526.0</ele>
        <time>2020-07-26T13:39:17Z</time>
      </trkpt>
      <trkpt lat="42.9848690" lon="-0.4278630">
        <ele>525.9</ele>
        <time>2020-07-26T13:39:18Z</time>
      </trkpt>
      <trkpt lat="42.9848530" lon="-0.4277810">
        <ele>525.7</ele>
        <time>2020-07-26T13:39:19Z</time>
      </trkpt>
      <trkpt lat="42.9847380" lon="-0.4276420">
        <ele>525.3</ele>
        <time>2020-07-26T13:39:22Z</time>
      </trkpt>
      <trkpt lat="42.9846860" lon="-0.4276460">
        <ele>525.3</ele>
        <time>2020-07-26T13:39:23Z</time>
      </trkpt>
      <trkpt lat="42.9845770" lon="-0.4276860">
        <ele>525.3</ele>
        <time>2020-07-26T13:39:25Z</time>
      </trkpt>
      <trkpt lat="42.9840970" lon="-0.4279110">
        <ele>524.7</ele>
        <time>2020-07-26T13:39:33Z</time>
      </trkpt>
      <trkpt lat="42.9838410" lon="-0.4280030">
        <ele>524.4</ele>
        <time>2020-07-26T13:39:37Z</time>
      </trkpt>
      <trkpt lat="42.9837060" lon="-0.4280050">
        <ele>524.3</ele>
        <time>2020-07-26T13:39:39Z</time>
      </trkpt>
      <trkpt lat="42.9835710" lon="-0.4279680">
        <ele>524.1</ele>
        <time>2020-07-26T13:39:41Z</time>
      </trkpt>
      <trkpt lat="42.9834440" lon="-0.4278760">
        <ele>524.0</ele>
        <time>2020-07-26T13:39:43Z</time>
      </trkpt>
      <trkpt lat="42.9833220" lon="-0.4277470">
        <ele>523.7</ele>
        <time>2020-07-26T13:39:45Z</time>
      </trkpt>
      <trkpt lat="42.9832600" lon="-0.4276740">
        <ele>523.4</ele>
        <time>2020-07-26T13:39:46Z</time>
      </trkpt>
      <trkpt lat="42.9831270" lon="-0.4275210">
        <ele>522.9</ele>
        <time>2020-07-26T13:39:48Z</time>
      </trkpt>
      <trkpt lat="42.9828490" lon="-0.4271980">
        <ele>521.9</ele>
        <time>2020-07-26T13:39:52Z</time>
      </trkpt>
      <trkpt lat="42.9827180" lon="-0.4270210">
        <ele>521.3</ele>
        <time>2020-07-26T13:39:54Z</time>
      </trkpt>
      <trkpt lat="42.9826590" lon="-0.4269210">
        <ele>521.1</ele>
        <time>2020-07-26T13:39:55Z</time>
      </trkpt>
      <trkpt lat="42.9826040" lon="-0.4268150">
        <ele>520.9</ele>
        <time>2020-07-26T13:39:56Z</time>
      </trkpt>
      <trkpt lat="42.9825040" lon="-0.4266040">
        <ele>520.5</ele>
        <time>2020-07-26T13:39:58Z</time>
      </trkpt>
      <trkpt lat="42.9823650" lon="-0.4262830">
        <ele>519.8</ele>
        <time>2020-07-26T13:40:01Z</time>
      </trkpt>
      <trkpt lat="42.9822350" lon="-0.4259700">
        <ele>519.2</ele>
        <time>2020-07-26T13:40:04Z</time>
      </trkpt>
      <trkpt lat="42.9821220" lon="-0.4256470">
        <ele>518.4</ele>
        <time>2020-07-26T13:40:07Z</time>
      </trkpt>
      <trkpt lat="42.9820940" lon="-0.4255310">
        <ele>518.2</ele>
        <time>2020-07-26T13:40:08Z</time>
      </trkpt>
      <trkpt lat="42.9820320" lon="-0.4251640">
        <ele>517.3</ele>
        <time>2020-07-26T13:40:11Z</time>
      </trkpt>
      <trkpt lat="42.9819970" lon="-0.4249060">
        <ele>516.7</ele>
        <time>2020-07-26T13:40:13Z</time>
      </trkpt>
      <trkpt lat="42.9819150" lon="-0.4243060">
        <ele>515.4</ele>
        <time>2020-07-26T13:40:18Z</time>
      </trkpt>
      <trkpt lat="42.9818890" lon="-0.4240620">
        <ele>515.1</ele>
        <time>2020-07-26T13:40:20Z</time>
      </trkpt>
      <trkpt lat="42.9818650" lon="-0.4238200">
        <ele>514.8</ele>
        <time>2020-07-26T13:40:22Z</time>
      </trkpt>
      <trkpt lat="42.9818170" lon="-0.4233280">
        <ele>513.2</ele>
        <time>2020-07-26T13:40:26Z</time>
      </trkpt>
      <trkpt lat="42.9818030" lon="-0.4232050">
        <ele>512.9</ele>
        <time>2020-07-26T13:40:27Z</time>
      </trkpt>
      <trkpt lat="42.9816940" lon="-0.4226260">
        <ele>511.8</ele>
        <time>2020-07-26T13:40:32Z</time>
      </trkpt>
      <trkpt lat="42.9815190" lon="-0.4218430">
        <ele>511.4</ele>
        <time>2020-07-26T13:40:39Z</time>
      </trkpt>
      <trkpt lat="42.9814470" lon="-0.4215100">
        <ele>511.0</ele>
        <time>2020-07-26T13:40:42Z</time>
      </trkpt>
      <trkpt lat="42.9812880" lon="-0.4210020">
        <ele>510.8</ele>
        <time>2020-07-26T13:40:47Z</time>
      </trkpt>
      <trkpt lat="42.9812340" lon="-0.4209260">
        <ele>510.9</ele>
        <time>2020-07-26T13:40:48Z</time>
      </trkpt>
      <trkpt lat="42.9810300" lon="-0.4208030">
        <ele>511.2</ele>
        <time>2020-07-26T13:40:51Z</time>
      </trkpt>
      <trkpt lat="42.9808850" lon="-0.4207800">
        <ele>511.5</ele>
        <time>2020-07-26T13:40:53Z</time>
      </trkpt>
      <trkpt lat="42.9806070" lon="-0.4207580">
        <ele>511.9</ele>
        <time>2020-07-26T13:40:57Z</time>
      </trkpt>
      <trkpt lat="42.9802410" lon="-0.4207120">
        <ele>512.1</ele>
        <time>2020-07-26T13:41:03Z</time>
      </trkpt>
      <trkpt lat="42.9801220" lon="-0.4206960">
        <ele>512.3</ele>
        <time>2020-07-26T13:41:05Z</time>
      </trkpt>
      <trkpt lat="42.9800040" lon="-0.4206790">
        <ele>512.6</ele>
        <time>2020-07-26T13:41:07Z</time>
      </trkpt>
      <trkpt lat="42.9795060" lon="-0.4205910">
        <ele>513.0</ele>
        <time>2020-07-26T13:41:15Z</time>
      </trkpt>
      <trkpt lat="42.9794490" lon="-0.4205670">
        <ele>513.0</ele>
        <time>2020-07-26T13:41:16Z</time>
      </trkpt>
      <trkpt lat="42.9792570" lon="-0.4204100">
        <ele>513.1</ele>
        <time>2020-07-26T13:41:20Z</time>
      </trkpt>
      <trkpt lat="42.9791510" lon="-0.4202370">
        <ele>513.3</ele>
        <time>2020-07-26T13:41:23Z</time>
      </trkpt>
      <trkpt lat="42.9790950" lon="-0.4201090">
        <ele>513.5</ele>
        <time>2020-07-26T13:41:25Z</time>
      </trkpt>
      <trkpt lat="42.9790290" lon="-0.4199070">
        <ele>513.9</ele>
        <time>2020-07-26T13:41:28Z</time>
      </trkpt>
      <trkpt lat="42.9789700" lon="-0.4196400">
        <ele>514.4</ele>
        <time>2020-07-26T13:41:32Z</time>
      </trkpt>
      <trkpt lat="42.9789430" lon="-0.4193840">
        <ele>514.9</ele>
        <time>2020-07-26T13:41:36Z</time>
      </trkpt>
      <trkpt lat="42.9789300" lon="-0.4192000">
        <ele>515.9</ele>
        <time>2020-07-26T13:41:39Z</time>
      </trkpt>
      <trkpt lat="42.9789190" lon="-0.4190880">
        <ele>516.6</ele>
        <time>2020-07-26T13:41:41Z</time>
      </trkpt>
      <trkpt lat="42.9788660" lon="-0.4189500">
        <ele>517.5</ele>
        <time>2020-07-26T13:41:44Z</time>
      </trkpt>
      <trkpt lat="42.9787510" lon="-0.4188410">
        <ele>519.0</ele>
        <time>2020-07-26T13:41:48Z</time>
      </trkpt>
      <trkpt lat="42.9787170" lon="-0.4188320">
        <ele>519.3</ele>
        <time>2020-07-26T13:41:49Z</time>
      </trkpt>
      <trkpt lat="42.9786130" lon="-0.4188410">
        <ele>520.3</ele>
        <time>2020-07-26T13:41:52Z</time>
      </trkpt>
      <trkpt lat="42.9785560" lon="-0.4188760">
        <ele>520.9</ele>
        <time>2020-07-26T13:41:54Z</time>
      </trkpt>
      <trkpt lat="42.9784980" lon="-0.4189210">
        <ele>521.5</ele>
        <time>2020-07-26T13:41:56Z</time>
      </trkpt>
      <trkpt lat="42.9783920" lon="-0.4190300">
        <ele>522.7</ele>
        <time>2020-07-26T13:42:00Z</time>
      </trkpt>
      <trkpt lat="42.9783330" lon="-0.4191870">
        <ele>523.7</ele>
        <time>2020-07-26T13:42:04Z</time>
      </trkpt>
      <trkpt lat="42.9783050" lon="-0.4193600">
        <ele>524.6</ele>
        <time>2020-07-26T13:42:07Z</time>
      </trkpt>
      <trkpt lat="42.9782990" lon="-0.4194220">
        <ele>524.8</ele>
        <time>2020-07-26T13:42:08Z</time>
      </trkpt>
      <trkpt lat="42.9782520" lon="-0.4198950">
        <ele>527.1</ele>
        <time>2020-07-26T13:42:17Z</time>
      </trkpt>
      <trkpt lat="42.9782210" lon="-0.4201380">
        <ele>528.3</ele>
        <time>2020-07-26T13:42:22Z</time>
      </trkpt>
      <trkpt lat="42.9781940" lon="-0.4203380">
        <ele>529.3</ele>
        <time>2020-07-26T13:42:26Z</time>
      </trkpt>
      <trkpt lat="42.9781840" lon="-0.4203880">
        <ele>529.5</ele>
        <time>2020-07-26T13:42:27Z</time>
      </trkpt>
      <trkpt lat="42.9781430" lon="-0.4207190">
        <ele>531.8</ele>
        <time>2020-07-26T13:42:34Z</time>
      </trkpt>
      <trkpt lat="42.9781660" lon="-0.4209090">
        <ele>533.9</ele>
        <time>2020-07-26T13:42:38Z</time>
      </trkpt>
      <trkpt lat="42.9781800" lon="-0.4209460">
        <ele>534.4</ele>
        <time>2020-07-26T13:42:39Z</time>
      </trkpt>
      <trkpt lat="42.9782870" lon="-0.4210590">
        <ele>536.4</ele>
        <time>2020-07-26T13:42:44Z</time>
      </trkpt>
      <trkpt lat="42.9784510" lon="-0.4211430">
        <ele>539.1</ele>
        <time>2020-07-26T13:42:50Z</time>
      </trkpt>
      <trkpt lat="42.9785490" lon="-0.4212370">
        <ele>540.8</ele>
        <time>2020-07-26T13:42:54Z</time>
      </trkpt>
      <trkpt lat="42.9786160" lon="-0.4212860">
        <ele>541.8</ele>
        <time>2020-07-26T13:42:56Z</time>
      </trkpt>
      <trkpt lat="42.9787600" lon="-0.4213730">
        <ele>544.0</ele>
        <time>2020-07-26T13:43:00Z</time>
      </trkpt>
      <trkpt lat="42.9788980" lon="-0.4214690">
        <ele>546.0</ele>
        <time>2020-07-26T13:43:04Z</time>
      </trkpt>
      <trkpt lat="42.9789950" lon="-0.4215230">
        <ele>547.4</ele>
        <time>2020-07-26T13:43:07Z</time>
      </trkpt>
      <trkpt lat="42.9790800" lon="-0.4215790">
        <ele>548.7</ele>
        <time>2020-07-26T13:43:10Z</time>
      </trkpt>
      <trkpt lat="42.9791400" lon="-0.4216280">
        <ele>549.6</ele>
        <time>2020-07-26T13:43:12Z</time>
      </trkpt>
      <trkpt lat="42.9792970" lon="-0.4217850">
        <ele>552.3</ele>
        <time>2020-07-26T13:43:17Z</time>
      </trkpt>
      <trkpt lat="42.9793180" lon="-0.4218250">
        <ele>552.8</ele>
        <time>2020-07-26T13:43:18Z</time>
      </trkpt>
      <trkpt lat="42.9793700" lon="-0.4219950">
        <ele>554.6</ele>
        <time>2020-07-26T13:43:22Z</time>
      </trkpt>
      <trkpt lat="42.9793460" lon="-0.4222270">
        <ele>556.9</ele>
        <time>2020-07-26T13:43:27Z</time>
      </trkpt>
      <trkpt lat="42.9792910" lon="-0.4224770">
        <ele>559.4</ele>
        <time>2020-07-26T13:43:32Z</time>
      </trkpt>
      <trkpt lat="42.9792820" lon="-0.4225290">
        <ele>559.9</ele>
        <time>2020-07-26T13:43:33Z</time>
      </trkpt>
      <trkpt lat="42.9792330" lon="-0.4228120">
        <ele>562.7</ele>
        <time>2020-07-26T13:43:39Z</time>
      </trkpt>
      <trkpt lat="42.9792120" lon="-0.4228950">
        <ele>563.5</ele>
        <time>2020-07-26T13:43:41Z</time>
      </trkpt>
      <trkpt lat="42.9791860" lon="-0.4229780">
        <ele>564.4</ele>
        <time>2020-07-26T13:43:43Z</time>
      </trkpt>
      <trkpt lat="42.9791120" lon="-0.4231410">
        <ele>566.3</ele>
        <time>2020-07-26T13:43:47Z</time>
      </trkpt>
      <trkpt lat="42.9790860" lon="-0.4232100">
        <ele>567.1</ele>
        <time>2020-07-26T13:43:49Z</time>
      </trkpt>
      <trkpt lat="42.9790600" lon="-0.4232540">
        <ele>567.6</ele>
        <time>2020-07-26T13:43:51Z</time>
      </trkpt>
      <trkpt lat="42.9789940" lon="-0.4233400">
        <ele>570.9</ele>
        <time>2020-07-26T13:43:54Z</time>
      </trkpt>
      <trkpt lat="42.9789530" lon="-0.4234720">
        <ele>575.6</ele>
        <time>2020-07-26T13:43:57Z</time>
      </trkpt>
      <trkpt lat="42.9789480" lon="-0.4235160">
        <ele>577.0</ele>
        <time>2020-07-26T13:43:58Z</time>
      </trkpt>
      <trkpt lat="42.9789620" lon="-0.4235610">
        <ele>578.6</ele>
        <time>2020-07-26T13:43:59Z</time>
      </trkpt>
      <trkpt lat="42.9788670" lon="-0.4235750">
        <ele>582.8</ele>
        <time>2020-07-26T13:44:03Z</time>
      </trkpt>
      <trkpt lat="42.9788470" lon="-0.4237250">
        <ele>587.5</ele>
        <time>2020-07-26T13:44:04Z</time>
      </trkpt>
      <trkpt lat="42.9788130" lon="-0.4238440">
        <ele>591.5</ele>
        <time>2020-07-26T13:44:05Z</time>
      </trkpt>
      <trkpt lat="42.9787350" lon="-0.4242250">
        <ele>592.7</ele>
        <time>2020-07-26T13:44:09Z</time>
      </trkpt>
      <trkpt lat="42.9787090" lon="-0.4242750">
        <ele>592.9</ele>
        <time>2020-07-26T13:44:10Z</time>
      </trkpt>
      <trkpt lat="42.9785620" lon="-0.4244430">
        <ele>593.8</ele>
        <time>2020-07-26T13:44:15Z</time>
      </trkpt>
      <trkpt lat="42.9785350" lon="-0.4244710">
        <ele>593.9</ele>
        <time>2020-07-26T13:44:16Z</time>
      </trkpt>
      <trkpt lat="42.9784120" lon="-0.4245870">
        <ele>594.5</ele>
        <time>2020-07-26T13:44:20Z</time>
      </trkpt>
      <trkpt lat="42.9783530" lon="-0.4246500">
        <ele>594.7</ele>
        <time>2020-07-26T13:44:22Z</time>
      </trkpt>
      <trkpt lat="42.9782660" lon="-0.4247480">
        <ele>595.0</ele>
        <time>2020-07-26T13:44:25Z</time>
      </trkpt>
      <trkpt lat="42.9782100" lon="-0.4248070">
        <ele>595.2</ele>
        <time>2020-07-26T13:44:27Z</time>
      </trkpt>
      <trkpt lat="42.9781820" lon="-0.4248420">
        <ele>595.3</ele>
        <time>2020-07-26T13:44:28Z</time>
      </trkpt>
      <trkpt lat="42.9780730" lon="-0.4249880">
        <ele>595.7</ele>
        <time>2020-07-26T13:44:32Z</time>
      </trkpt>
      <trkpt lat="42.9779600" lon="-0.4250990">
        <ele>596.1</ele>
        <time>2020-07-26T13:44:36Z</time>
      </trkpt>
      <trkpt lat="42.9779030" lon="-0.4251480">
        <ele>596.3</ele>
        <time>2020-07-26T13:44:38Z</time>
      </trkpt>
      <trkpt lat="42.9777910" lon="-0.4252420">
        <ele>596.7</ele>
        <time>2020-07-26T13:44:42Z</time>
      </trkpt>
      <trkpt lat="42.9776330" lon="-0.4253310">
        <ele>597.2</ele>
        <time>2020-07-26T13:44:47Z</time>
      </trkpt>
      <trkpt lat="42.9775980" lon="-0.4253520">
        <ele>597.3</ele>
        <time>2020-07-26T13:44:48Z</time>
      </trkpt>
      <trkpt lat="42.9774480" lon="-0.4254680">
        <ele>597.9</ele>
        <time>2020-07-26T13:44:53Z</time>
      </trkpt>
      <trkpt lat="42.9773670" lon="-0.4255430">
        <ele>598.3</ele>
        <time>2020-07-26T13:44:56Z</time>
      </trkpt>
      <trkpt lat="42.9772910" lon="-0.4256330">
        <ele>598.6</ele>
        <time>2020-07-26T13:44:59Z</time>
      </trkpt>
      <trkpt lat="42.9771900" lon="-0.4257380">
        <ele>599.1</ele>
        <time>2020-07-26T13:45:03Z</time>
      </trkpt>
      <trkpt lat="42.9771140" lon="-0.4258070">
        <ele>599.4</ele>
        <time>2020-07-26T13:45:06Z</time>
      </trkpt>
      <trkpt lat="42.9770520" lon="-0.4258950">
        <ele>599.7</ele>
        <time>2020-07-26T13:45:09Z</time>
      </trkpt>
      <trkpt lat="42.9769820" lon="-0.4260690">
        <ele>600.2</ele>
        <time>2020-07-26T13:45:14Z</time>
      </trkpt>
      <trkpt lat="42.9769410" lon="-0.4262150">
        <ele>600.7</ele>
        <time>2020-07-26T13:45:18Z</time>
      </trkpt>
      <trkpt lat="42.9769020" lon="-0.4263600">
        <ele>601.0</ele>
        <time>2020-07-26T13:45:23Z</time>
      </trkpt>
      <trkpt lat="42.9768940" lon="-0.4263940">
        <ele>601.1</ele>
        <time>2020-07-26T13:45:24Z</time>
      </trkpt>
      <trkpt lat="42.9768860" lon="-0.4265740">
        <ele>601.5</ele>
        <time>2020-07-26T13:45:29Z</time>
      </trkpt>
      <trkpt lat="42.9768910" lon="-0.4266140">
        <ele>601.6</ele>
        <time>2020-07-26T13:45:30Z</time>
      </trkpt>
      <trkpt lat="42.9769200" lon="-0.4267710">
        <ele>602.0</ele>
        <time>2020-07-26T13:45:34Z</time>
      </trkpt>
      <trkpt lat="42.9769350" lon="-0.4268900">
        <ele>602.2</ele>
        <time>2020-07-26T13:45:37Z</time>
      </trkpt>
      <trkpt lat="42.9769430" lon="-0.4269760">
        <ele>602.4</ele>
        <time>2020-07-26T13:45:39Z</time>
      </trkpt>
      <trkpt lat="42.9769660" lon="-0.4270850">
        <ele>602.7</ele>
        <time>2020-07-26T13:45:42Z</time>
      </trkpt>
      <trkpt lat="42.9769630" lon="-0.4271240">
        <ele>602.8</ele>
        <time>2020-07-26T13:45:43Z</time>
      </trkpt>
      <trkpt lat="42.9770170" lon="-0.4272360">
        <ele>603.0</ele>
        <time>2020-07-26T13:45:47Z</time>
      </trkpt>
      <trkpt lat="42.9770290" lon="-0.4272920">
        <ele>603.0</ele>
        <time>2020-07-26T13:45:49Z</time>
      </trkpt>
      <trkpt lat="42.9769690" lon="-0.4274150">
        <ele>603.3</ele>
        <time>2020-07-26T13:45:52Z</time>
      </trkpt>
      <trkpt lat="42.9769470" lon="-0.4274580">
        <ele>603.4</ele>
        <time>2020-07-26T13:45:53Z</time>
      </trkpt>
      <trkpt lat="42.9768810" lon="-0.4275860">
        <ele>603.6</ele>
        <time>2020-07-26T13:45:56Z</time>
      </trkpt>
      <trkpt lat="42.9767600" lon="-0.4278180">
        <ele>604.1</ele>
        <time>2020-07-26T13:46:02Z</time>
      </trkpt>
      <trkpt lat="42.9767430" lon="-0.4278560">
        <ele>604.2</ele>
        <time>2020-07-26T13:46:03Z</time>
      </trkpt>
      <trkpt lat="42.9766570" lon="-0.4280370">
        <ele>604.6</ele>
        <time>2020-07-26T13:46:08Z</time>
      </trkpt>
      <trkpt lat="42.9766130" lon="-0.4281030">
        <ele>604.8</ele>
        <time>2020-07-26T13:46:10Z</time>
      </trkpt>
      <trkpt lat="42.9765460" lon="-0.4281980">
        <ele>605.1</ele>
        <time>2020-07-26T13:46:13Z</time>
      </trkpt>
      <trkpt lat="42.9764300" lon="-0.4283950">
        <ele>605.8</ele>
        <time>2020-07-26T13:46:18Z</time>
      </trkpt>
      <trkpt lat="42.9763440" lon="-0.4285430">
        <ele>606.3</ele>
        <time>2020-07-26T13:46:22Z</time>
      </trkpt>
      <trkpt lat="42.9762490" lon="-0.4286630">
        <ele>606.7</ele>
        <time>2020-07-26T13:46:26Z</time>
      </trkpt>
      <trkpt lat="42.9762230" lon="-0.4286890">
        <ele>606.8</ele>
        <time>2020-07-26T13:46:27Z</time>
      </trkpt>
      <trkpt lat="42.9760860" lon="-0.4288750">
        <ele>607.4</ele>
        <time>2020-07-26T13:46:33Z</time>
      </trkpt>
      <trkpt lat="42.9760440" lon="-0.4289430">
        <ele>607.5</ele>
        <time>2020-07-26T13:46:35Z</time>
      </trkpt>
      <trkpt lat="42.9759520" lon="-0.4291020">
        <ele>607.7</ele>
        <time>2020-07-26T13:46:39Z</time>
      </trkpt>
      <trkpt lat="42.9758580" lon="-0.4292560">
        <ele>607.9</ele>
        <time>2020-07-26T13:46:43Z</time>
      </trkpt>
      <trkpt lat="42.9757480" lon="-0.4294390">
        <ele>608.1</ele>
        <time>2020-07-26T13:46:48Z</time>
      </trkpt>
      <trkpt lat="42.9756900" lon="-0.4295040">
        <ele>608.1</ele>
        <time>2020-07-26T13:46:50Z</time>
      </trkpt>
      <trkpt lat="42.9755670" lon="-0.4296330">
        <ele>608.2</ele>
        <time>2020-07-26T13:46:54Z</time>
      </trkpt>
      <trkpt lat="42.9754330" lon="-0.4297650">
        <ele>608.3</ele>
        <time>2020-07-26T13:46:58Z</time>
      </trkpt>
      <trkpt lat="42.9754000" lon="-0.4298070">
        <ele>608.3</ele>
        <time>2020-07-26T13:46:59Z</time>
      </trkpt>
      <trkpt lat="42.9753000" lon="-0.4299250">
        <ele>608.4</ele>
        <time>2020-07-26T13:47:02Z</time>
      </trkpt>
      <trkpt lat="42.9751340" lon="-0.4301120">
        <ele>608.5</ele>
        <time>2020-07-26T13:47:07Z</time>
      </trkpt>
      <trkpt lat="42.9751040" lon="-0.4301520">
        <ele>608.5</ele>
        <time>2020-07-26T13:47:08Z</time>
      </trkpt>
      <trkpt lat="42.9748920" lon="-0.4304120">
        <ele>608.6</ele>
        <time>2020-07-26T13:47:15Z</time>
      </trkpt>
      <trkpt lat="42.9748340" lon="-0.4304840">
        <ele>608.6</ele>
        <time>2020-07-26T13:47:17Z</time>
      </trkpt>
      <trkpt lat="42.9746450" lon="-0.4307800">
        <ele>608.6</ele>
        <time>2020-07-26T13:47:24Z</time>
      </trkpt>
      <trkpt lat="42.9746160" lon="-0.4308210">
        <ele>608.6</ele>
        <time>2020-07-26T13:47:25Z</time>
      </trkpt>
      <trkpt lat="42.9743860" lon="-0.4311030">
        <ele>608.4</ele>
        <time>2020-07-26T13:47:32Z</time>
      </trkpt>
      <trkpt lat="42.9743540" lon="-0.4311450">
        <ele>608.4</ele>
        <time>2020-07-26T13:47:33Z</time>
      </trkpt>
      <trkpt lat="42.9741460" lon="-0.4314730">
        <ele>608.3</ele>
        <time>2020-07-26T13:47:40Z</time>
      </trkpt>
      <trkpt lat="42.9739920" lon="-0.4317740">
        <ele>608.3</ele>
        <time>2020-07-26T13:47:46Z</time>
      </trkpt>
      <trkpt lat="42.9739420" lon="-0.4318570">
        <ele>608.3</ele>
        <time>2020-07-26T13:47:48Z</time>
      </trkpt>
      <trkpt lat="42.9738700" lon="-0.4319920">
        <ele>608.3</ele>
        <time>2020-07-26T13:47:51Z</time>
      </trkpt>
      <trkpt lat="42.9737370" lon="-0.4322600">
        <ele>608.6</ele>
        <time>2020-07-26T13:47:57Z</time>
      </trkpt>
      <trkpt lat="42.9736170" lon="-0.4323990">
        <ele>609.4</ele>
        <time>2020-07-26T13:48:01Z</time>
      </trkpt>
      <trkpt lat="42.9735460" lon="-0.4324800">
        <ele>609.8</ele>
        <time>2020-07-26T13:48:03Z</time>
      </trkpt>
      <trkpt lat="42.9733680" lon="-0.4327730">
        <ele>611.0</ele>
        <time>2020-07-26T13:48:10Z</time>
      </trkpt>
      <trkpt lat="42.9732700" lon="-0.4330180">
        <ele>612.0</ele>
        <time>2020-07-26T13:48:15Z</time>
      </trkpt>
      <trkpt lat="42.9732300" lon="-0.4331150">
        <ele>612.3</ele>
        <time>2020-07-26T13:48:17Z</time>
      </trkpt>
      <trkpt lat="42.9731690" lon="-0.4332700">
        <ele>612.9</ele>
        <time>2020-07-26T13:48:20Z</time>
      </trkpt>
      <trkpt lat="42.9730680" lon="-0.4334830">
        <ele>613.8</ele>
        <time>2020-07-26T13:48:25Z</time>
      </trkpt>
      <trkpt lat="42.9730300" lon="-0.4335730">
        <ele>614.1</ele>
        <time>2020-07-26T13:48:27Z</time>
      </trkpt>
      <trkpt lat="42.9729040" lon="-0.4338530">
        <ele>615.3</ele>
        <time>2020-07-26T13:48:33Z</time>
      </trkpt>
      <trkpt lat="42.9728830" lon="-0.4338940">
        <ele>615.5</ele>
        <time>2020-07-26T13:48:34Z</time>
      </trkpt>
      <trkpt lat="42.9727850" lon="-0.4341150">
        <ele>616.4</ele>
        <time>2020-07-26T13:48:39Z</time>
      </trkpt>
      <trkpt lat="42.9726970" lon="-0.4342820">
        <ele>617.2</ele>
        <time>2020-07-26T13:48:43Z</time>
      </trkpt>
      <trkpt lat="42.9726240" lon="-0.4344090">
        <ele>617.8</ele>
        <time>2020-07-26T13:48:46Z</time>
      </trkpt>
      <trkpt lat="42.9725300" lon="-0.4346040">
        <ele>618.8</ele>
        <time>2020-07-26T13:48:50Z</time>
      </trkpt>
      <trkpt lat="42.9725070" lon="-0.4346550">
        <ele>619.0</ele>
        <time>2020-07-26T13:48:51Z</time>
      </trkpt>
      <trkpt lat="42.9723420" lon="-0.4349790">
        <ele>620.7</ele>
        <time>2020-07-26T13:48:58Z</time>
      </trkpt>
      <trkpt lat="42.9723180" lon="-0.4350210">
        <ele>620.9</ele>
        <time>2020-07-26T13:48:59Z</time>
      </trkpt>
      <trkpt lat="42.9721550" lon="-0.4353300">
        <ele>622.3</ele>
        <time>2020-07-26T13:49:06Z</time>
      </trkpt>
      <trkpt lat="42.9721290" lon="-0.4353680">
        <ele>622.5</ele>
        <time>2020-07-26T13:49:07Z</time>
      </trkpt>
      <trkpt lat="42.9719140" lon="-0.4356940">
        <ele>624.1</ele>
        <time>2020-07-26T13:49:15Z</time>
      </trkpt>
      <trkpt lat="42.9718340" lon="-0.4358240">
        <ele>624.6</ele>
        <time>2020-07-26T13:49:18Z</time>
      </trkpt>
      <trkpt lat="42.9717840" lon="-0.4359080">
        <ele>624.9</ele>
        <time>2020-07-26T13:49:20Z</time>
      </trkpt>
      <trkpt lat="42.9717220" lon="-0.4359770">
        <ele>625.2</ele>
        <time>2020-07-26T13:49:22Z</time>
      </trkpt>
      <trkpt lat="42.9716500" lon="-0.4360440">
        <ele>625.4</ele>
        <time>2020-07-26T13:49:24Z</time>
      </trkpt>
      <trkpt lat="42.9715790" lon="-0.4361030">
        <ele>625.5</ele>
        <time>2020-07-26T13:49:26Z</time>
      </trkpt>
      <trkpt lat="42.9714750" lon="-0.4362250">
        <ele>625.8</ele>
        <time>2020-07-26T13:49:29Z</time>
      </trkpt>
      <trkpt lat="42.9714390" lon="-0.4362620">
        <ele>625.9</ele>
        <time>2020-07-26T13:49:30Z</time>
      </trkpt>
      <trkpt lat="42.9712030" lon="-0.4363510">
        <ele>626.4</ele>
        <time>2020-07-26T13:49:35Z</time>
      </trkpt>
      <trkpt lat="42.9711480" lon="-0.4363460">
        <ele>626.5</ele>
        <time>2020-07-26T13:49:36Z</time>
      </trkpt>
      <trkpt lat="42.9709800" lon="-0.4363350">
        <ele>627.0</ele>
        <time>2020-07-26T13:49:39Z</time>
      </trkpt>
      <trkpt lat="42.9708670" lon="-0.4363530">
        <ele>627.3</ele>
        <time>2020-07-26T13:49:41Z</time>
      </trkpt>
      <trkpt lat="42.9708140" lon="-0.4363730">
        <ele>627.4</ele>
        <time>2020-07-26T13:49:42Z</time>
      </trkpt>
      <trkpt lat="42.9706850" lon="-0.4364600">
        <ele>627.9</ele>
        <time>2020-07-26T13:49:45Z</time>
      </trkpt>
      <trkpt lat="42.9705990" lon="-0.4365270">
        <ele>628.2</ele>
        <time>2020-07-26T13:49:47Z</time>
      </trkpt>
      <trkpt lat="42.9703690" lon="-0.4367100">
        <ele>629.2</ele>
        <time>2020-07-26T13:49:52Z</time>
      </trkpt>
      <trkpt lat="42.9702230" lon="-0.4368740">
        <ele>629.9</ele>
        <time>2020-07-26T13:49:56Z</time>
      </trkpt>
      <trkpt lat="42.9701040" lon="-0.4370590">
        <ele>630.6</ele>
        <time>2020-07-26T13:50:00Z</time>
      </trkpt>
      <trkpt lat="42.9698460" lon="-0.4374030">
        <ele>631.9</ele>
        <time>2020-07-26T13:50:08Z</time>
      </trkpt>
      <trkpt lat="42.9698170" lon="-0.4374530">
        <ele>632.1</ele>
        <time>2020-07-26T13:50:09Z</time>
      </trkpt>
      <trkpt lat="42.9697040" lon="-0.4376330">
        <ele>632.9</ele>
        <time>2020-07-26T13:50:13Z</time>
      </trkpt>
      <trkpt lat="42.9696520" lon="-0.4377120">
        <ele>633.2</ele>
        <time>2020-07-26T13:50:15Z</time>
      </trkpt>
      <trkpt lat="42.9695610" lon="-0.4378140">
        <ele>633.5</ele>
        <time>2020-07-26T13:50:18Z</time>
      </trkpt>
      <trkpt lat="42.9694900" lon="-0.4378670">
        <ele>633.7</ele>
        <time>2020-07-26T13:50:20Z</time>
      </trkpt>
      <trkpt lat="42.9694120" lon="-0.4379260">
        <ele>633.8</ele>
        <time>2020-07-26T13:50:22Z</time>
      </trkpt>
      <trkpt lat="42.9692220" lon="-0.4380130">
        <ele>634.2</ele>
        <time>2020-07-26T13:50:27Z</time>
      </trkpt>
      <trkpt lat="42.9690970" lon="-0.4380260">
        <ele>634.5</ele>
        <time>2020-07-26T13:50:30Z</time>
      </trkpt>
      <trkpt lat="42.9688700" lon="-0.4380390">
        <ele>635.0</ele>
        <time>2020-07-26T13:50:35Z</time>
      </trkpt>
      <trkpt lat="42.9686890" lon="-0.4380460">
        <ele>635.2</ele>
        <time>2020-07-26T13:50:39Z</time>
      </trkpt>
      <trkpt lat="42.9685020" lon="-0.4380470">
        <ele>635.7</ele>
        <time>2020-07-26T13:50:43Z</time>
      </trkpt>
      <trkpt lat="42.9684090" lon="-0.4380470">
        <ele>635.9</ele>
        <time>2020-07-26T13:50:45Z</time>
      </trkpt>
      <trkpt lat="42.9683120" lon="-0.4380450">
        <ele>636.2</ele>
        <time>2020-07-26T13:50:47Z</time>
      </trkpt>
      <trkpt lat="42.9682670" lon="-0.4380460">
        <ele>636.3</ele>
        <time>2020-07-26T13:50:48Z</time>
      </trkpt>
      <trkpt lat="42.9680550" lon="-0.4380550">
        <ele>636.8</ele>
        <time>2020-07-26T13:50:53Z</time>
      </trkpt>
      <trkpt lat="42.9678970" lon="-0.4380800">
        <ele>637.3</ele>
        <time>2020-07-26T13:50:58Z</time>
      </trkpt>
      <trkpt lat="42.9678680" lon="-0.4380880">
        <ele>637.4</ele>
        <time>2020-07-26T13:50:59Z</time>
      </trkpt>
      <trkpt lat="42.9676510" lon="-0.4381320">
        <ele>637.8</ele>
        <time>2020-07-26T13:51:05Z</time>
      </trkpt>
      <trkpt lat="42.9676140" lon="-0.4381400">
        <ele>637.9</ele>
        <time>2020-07-26T13:51:06Z</time>
      </trkpt>
      <trkpt lat="42.9673840" lon="-0.4382270">
        <ele>638.3</ele>
        <time>2020-07-26T13:51:12Z</time>
      </trkpt>
      <trkpt lat="42.9673120" lon="-0.4382690">
        <ele>638.4</ele>
        <time>2020-07-26T13:51:14Z</time>
      </trkpt>
      <trkpt lat="42.9671960" lon="-0.4383890">
        <ele>638.5</ele>
        <time>2020-07-26T13:51:18Z</time>
      </trkpt>
      <trkpt lat="42.9671130" lon="-0.4385070">
        <ele>638.6</ele>
        <time>2020-07-26T13:51:21Z</time>
      </trkpt>
      <trkpt lat="42.9669890" lon="-0.4386860">
        <ele>638.6</ele>
        <time>2020-07-26T13:51:25Z</time>
      </trkpt>
      <trkpt lat="42.9668440" lon="-0.4388890">
        <ele>638.4</ele>
        <time>2020-07-26T13:51:29Z</time>
      </trkpt>
      <trkpt lat="42.9667700" lon="-0.4389990">
        <ele>638.2</ele>
        <time>2020-07-26T13:51:31Z</time>
      </trkpt>
      <trkpt lat="42.9665520" lon="-0.4393360">
        <ele>637.6</ele>
        <time>2020-07-26T13:51:37Z</time>
      </trkpt>
      <trkpt lat="42.9662660" lon="-0.4395890">
        <ele>637.2</ele>
        <time>2020-07-26T13:51:43Z</time>
      </trkpt>
      <trkpt lat="42.9660950" lon="-0.4396780">
        <ele>636.9</ele>
        <time>2020-07-26T13:51:46Z</time>
      </trkpt>
      <trkpt lat="42.9659210" lon="-0.4397690">
        <ele>636.6</ele>
        <time>2020-07-26T13:51:49Z</time>
      </trkpt>
      <trkpt lat="42.9655500" lon="-0.4398800">
        <ele>635.9</ele>
        <time>2020-07-26T13:51:55Z</time>
      </trkpt>
      <trkpt lat="42.9651670" lon="-0.4400060">
        <ele>635.2</ele>
        <time>2020-07-26T13:52:01Z</time>
      </trkpt>
      <trkpt lat="42.9647250" lon="-0.4401680">
        <ele>634.8</ele>
        <time>2020-07-26T13:52:08Z</time>
      </trkpt>
      <trkpt lat="42.9643640" lon="-0.4402830">
        <ele>634.7</ele>
        <time>2020-07-26T13:52:14Z</time>
      </trkpt>
      <trkpt lat="42.9641090" lon="-0.4403200">
        <ele>634.7</ele>
        <time>2020-07-26T13:52:18Z</time>
      </trkpt>
      <trkpt lat="42.9639890" lon="-0.4403130">
        <ele>634.7</ele>
        <time>2020-07-26T13:52:20Z</time>
      </trkpt>
      <trkpt lat="42.9639300" lon="-0.4403020">
        <ele>634.7</ele>
        <time>2020-07-26T13:52:21Z</time>
      </trkpt>
      <trkpt lat="42.9636910" lon="-0.4402680">
        <ele>634.9</ele>
        <time>2020-07-26T13:52:25Z</time>
      </trkpt>
      <trkpt lat="42.9635300" lon="-0.4402800">
        <ele>635.4</ele>
        <time>2020-07-26T13:52:28Z</time>
      </trkpt>
      <trkpt lat="42.9632290" lon="-0.4402870">
        <ele>636.3</ele>
        <time>2020-07-26T13:52:34Z</time>
      </trkpt>
      <trkpt lat="42.9631400" lon="-0.4402680">
        <ele>636.6</ele>
        <time>2020-07-26T13:52:36Z</time>
      </trkpt>
      <trkpt lat="42.9628980" lon="-0.4402120">
        <ele>637.4</ele>
        <time>2020-07-26T13:52:41Z</time>
      </trkpt>
      <trkpt lat="42.9628060" lon="-0.4401920">
        <ele>637.7</ele>
        <time>2020-07-26T13:52:43Z</time>
      </trkpt>
      <trkpt lat="42.9626240" lon="-0.4401790">
        <ele>638.2</ele>
        <time>2020-07-26T13:52:47Z</time>
      </trkpt>
      <trkpt lat="42.9625780" lon="-0.4401850">
        <ele>638.4</ele>
        <time>2020-07-26T13:52:48Z</time>
      </trkpt>
      <trkpt lat="42.9625330" lon="-0.4401940">
        <ele>638.5</ele>
        <time>2020-07-26T13:52:49Z</time>
      </trkpt>
      <trkpt lat="42.9623120" lon="-0.4402620">
        <ele>639.0</ele>
        <time>2020-07-26T13:52:54Z</time>
      </trkpt>
      <trkpt lat="42.9622720" lon="-0.4402810">
        <ele>639.0</ele>
        <time>2020-07-26T13:52:55Z</time>
      </trkpt>
      <trkpt lat="42.9621380" lon="-0.4403240">
        <ele>639.4</ele>
        <time>2020-07-26T13:52:58Z</time>
      </trkpt>
      <trkpt lat="42.9620070" lon="-0.4403620">
        <ele>639.6</ele>
        <time>2020-07-26T13:53:01Z</time>
      </trkpt>
      <trkpt lat="42.9617190" lon="-0.4403800">
        <ele>640.3</ele>
        <time>2020-07-26T13:53:07Z</time>
      </trkpt>
      <trkpt lat="42.9616690" lon="-0.4403830">
        <ele>640.4</ele>
        <time>2020-07-26T13:53:08Z</time>
      </trkpt>
      <trkpt lat="42.9614810" lon="-0.4403690">
        <ele>641.1</ele>
        <time>2020-07-26T13:53:12Z</time>
      </trkpt>
      <trkpt lat="42.9614360" lon="-0.4403580">
        <ele>641.2</ele>
        <time>2020-07-26T13:53:13Z</time>
      </trkpt>
      <trkpt lat="42.9613490" lon="-0.4403210">
        <ele>641.5</ele>
        <time>2020-07-26T13:53:15Z</time>
      </trkpt>
      <trkpt lat="42.9612630" lon="-0.4402750">
        <ele>641.9</ele>
        <time>2020-07-26T13:53:17Z</time>
      </trkpt>
      <trkpt lat="42.9611840" lon="-0.4402330">
        <ele>642.4</ele>
        <time>2020-07-26T13:53:19Z</time>
      </trkpt>
      <trkpt lat="42.9609830" lon="-0.4401230">
        <ele>643.5</ele>
        <time>2020-07-26T13:53:24Z</time>
      </trkpt>
      <trkpt lat="42.9608800" lon="-0.4400700">
        <ele>644.1</ele>
        <time>2020-07-26T13:53:27Z</time>
      </trkpt>
      <trkpt lat="42.9606620" lon="-0.4399890">
        <ele>645.3</ele>
        <time>2020-07-26T13:53:33Z</time>
      </trkpt>
      <trkpt lat="42.9605930" lon="-0.4399670">
        <ele>645.7</ele>
        <time>2020-07-26T13:53:35Z</time>
      </trkpt>
      <trkpt lat="42.9605550" lon="-0.4399580">
        <ele>645.9</ele>
        <time>2020-07-26T13:53:36Z</time>
      </trkpt>
      <trkpt lat="42.9603450" lon="-0.4399130">
        <ele>647.0</ele>
        <time>2020-07-26T13:53:42Z</time>
      </trkpt>
      <trkpt lat="42.9603110" lon="-0.4399050">
        <ele>647.2</ele>
        <time>2020-07-26T13:53:43Z</time>
      </trkpt>
      <trkpt lat="42.9601030" lon="-0.4398650">
        <ele>648.2</ele>
        <time>2020-07-26T13:53:49Z</time>
      </trkpt>
      <trkpt lat="42.9600690" lon="-0.4398570">
        <ele>648.4</ele>
        <time>2020-07-26T13:53:50Z</time>
      </trkpt>
      <trkpt lat="42.9598850" lon="-0.4398370">
        <ele>649.4</ele>
        <time>2020-07-26T13:53:55Z</time>
      </trkpt>
      <trkpt lat="42.9596390" lon="-0.4398310">
        <ele>650.9</ele>
        <time>2020-07-26T13:54:02Z</time>
      </trkpt>
      <trkpt lat="42.9596030" lon="-0.4398290">
        <ele>651.1</ele>
        <time>2020-07-26T13:54:03Z</time>
      </trkpt>
      <trkpt lat="42.9594920" lon="-0.4398340">
        <ele>651.6</ele>
        <time>2020-07-26T13:54:06Z</time>
      </trkpt>
      <trkpt lat="42.9593750" lon="-0.4398440">
        <ele>652.1</ele>
        <time>2020-07-26T13:54:09Z</time>
      </trkpt>
      <trkpt lat="42.9592620" lon="-0.4398500">
        <ele>652.6</ele>
        <time>2020-07-26T13:54:12Z</time>
      </trkpt>
      <trkpt lat="42.9591520" lon="-0.4398590">
        <ele>653.1</ele>
        <time>2020-07-26T13:54:15Z</time>
      </trkpt>
      <trkpt lat="42.9590750" lon="-0.4398740">
        <ele>653.4</ele>
        <time>2020-07-26T13:54:17Z</time>
      </trkpt>
      <trkpt lat="42.9589260" lon="-0.4398880">
        <ele>653.9</ele>
        <time>2020-07-26T13:54:21Z</time>
      </trkpt>
      <trkpt lat="42.9588540" lon="-0.4398950">
        <ele>654.5</ele>
        <time>2020-07-26T13:54:23Z</time>
      </trkpt>
      <trkpt lat="42.9588120" lon="-0.4398990">
        <ele>654.7</ele>
        <time>2020-07-26T13:54:24Z</time>
      </trkpt>
      <trkpt lat="42.9586600" lon="-0.4399110">
        <ele>655.5</ele>
        <time>2020-07-26T13:54:28Z</time>
      </trkpt>
      <trkpt lat="42.9585810" lon="-0.4399250">
        <ele>655.8</ele>
        <time>2020-07-26T13:54:30Z</time>
      </trkpt>
      <trkpt lat="42.9583130" lon="-0.4399910">
        <ele>657.1</ele>
        <time>2020-07-26T13:54:37Z</time>
      </trkpt>
      <trkpt lat="42.9582740" lon="-0.4400030">
        <ele>657.3</ele>
        <time>2020-07-26T13:54:38Z</time>
      </trkpt>
      <trkpt lat="42.9579520" lon="-0.4400610">
        <ele>658.7</ele>
        <time>2020-07-26T13:54:46Z</time>
      </trkpt>
      <trkpt lat="42.9579080" lon="-0.4400590">
        <ele>658.8</ele>
        <time>2020-07-26T13:54:47Z</time>
      </trkpt>
      <trkpt lat="42.9578630" lon="-0.4400540">
        <ele>659.0</ele>
        <time>2020-07-26T13:54:48Z</time>
      </trkpt>
      <trkpt lat="42.9577750" lon="-0.4400340">
        <ele>659.4</ele>
        <time>2020-07-26T13:54:50Z</time>
      </trkpt>
      <trkpt lat="42.9577350" lon="-0.4400150">
        <ele>659.6</ele>
        <time>2020-07-26T13:54:51Z</time>
      </trkpt>
      <trkpt lat="42.9574970" lon="-0.4398520">
        <ele>660.8</ele>
        <time>2020-07-26T13:54:57Z</time>
      </trkpt>
      <trkpt lat="42.9574180" lon="-0.4397970">
        <ele>661.3</ele>
        <time>2020-07-26T13:54:59Z</time>
      </trkpt>
      <trkpt lat="42.9571200" lon="-0.4396050">
        <ele>663.0</ele>
        <time>2020-07-26T13:55:07Z</time>
      </trkpt>
      <trkpt lat="42.9570820" lon="-0.4395810">
        <ele>663.2</ele>
        <time>2020-07-26T13:55:08Z</time>
      </trkpt>
      <trkpt lat="42.9568270" lon="-0.4393840">
        <ele>664.5</ele>
        <time>2020-07-26T13:55:15Z</time>
      </trkpt>
      <trkpt lat="42.9566430" lon="-0.4392420">
        <ele>665.5</ele>
        <time>2020-07-26T13:55:20Z</time>
      </trkpt>
      <trkpt lat="42.9566090" lon="-0.4392120">
        <ele>665.6</ele>
        <time>2020-07-26T13:55:21Z</time>
      </trkpt>
      <trkpt lat="42.9565730" lon="-0.4391820">
        <ele>665.8</ele>
        <time>2020-07-26T13:55:22Z</time>
      </trkpt>
      <trkpt lat="42.9563590" lon="-0.4390480">
        <ele>667.0</ele>
        <time>2020-07-26T13:55:28Z</time>
      </trkpt>
      <trkpt lat="42.9561400" lon="-0.4389360">
        <ele>668.1</ele>
        <time>2020-07-26T13:55:34Z</time>
      </trkpt>
      <trkpt lat="42.9560270" lon="-0.4388940">
        <ele>668.3</ele>
        <time>2020-07-26T13:55:37Z</time>
      </trkpt>
      <trkpt lat="42.9559530" lon="-0.4388680">
        <ele>668.1</ele>
        <time>2020-07-26T13:55:39Z</time>
      </trkpt>
      <trkpt lat="42.9557640" lon="-0.4388140">
        <ele>667.4</ele>
        <time>2020-07-26T13:55:44Z</time>
      </trkpt>
      <trkpt lat="42.9556890" lon="-0.4387890">
        <ele>667.1</ele>
        <time>2020-07-26T13:55:46Z</time>
      </trkpt>
      <trkpt lat="42.9555730" lon="-0.4387530">
        <ele>666.7</ele>
        <time>2020-07-26T13:55:49Z</time>
      </trkpt>
      <trkpt lat="42.9555340" lon="-0.4387460">
        <ele>666.5</ele>
        <time>2020-07-26T13:55:50Z</time>
      </trkpt>
      <trkpt lat="42.9554950" lon="-0.4387350">
        <ele>666.4</ele>
        <time>2020-07-26T13:55:51Z</time>
      </trkpt>
      <trkpt lat="42.9553540" lon="-0.4387210">
        <ele>665.9</ele>
        <time>2020-07-26T13:55:55Z</time>
      </trkpt>
      <trkpt lat="42.9552000" lon="-0.4388060">
        <ele>665.2</ele>
        <time>2020-07-26T13:56:00Z</time>
      </trkpt>
      <trkpt lat="42.9551660" lon="-0.4388350">
        <ele>665.0</ele>
        <time>2020-07-26T13:56:01Z</time>
      </trkpt>
      <trkpt lat="42.9550320" lon="-0.4389740">
        <ele>664.2</ele>
        <time>2020-07-26T13:56:05Z</time>
      </trkpt>
      <trkpt lat="42.9549930" lon="-0.4390120">
        <ele>664.0</ele>
        <time>2020-07-26T13:56:06Z</time>
      </trkpt>
      <trkpt lat="42.9548810" lon="-0.4391230">
        <ele>663.2</ele>
        <time>2020-07-26T13:56:09Z</time>
      </trkpt>
      <trkpt lat="42.9547510" lon="-0.4391700">
        <ele>662.7</ele>
        <time>2020-07-26T13:56:12Z</time>
      </trkpt>
      <trkpt lat="42.9547040" lon="-0.4391700">
        <ele>662.8</ele>
        <time>2020-07-26T13:56:13Z</time>
      </trkpt>
      <trkpt lat="42.9544710" lon="-0.4391550">
        <ele>663.3</ele>
        <time>2020-07-26T13:56:18Z</time>
      </trkpt>
      <trkpt lat="42.9544240" lon="-0.4391520">
        <ele>663.4</ele>
        <time>2020-07-26T13:56:19Z</time>
      </trkpt>
      <trkpt lat="42.9541970" lon="-0.4390970">
        <ele>663.8</ele>
        <time>2020-07-26T13:56:24Z</time>
      </trkpt>
      <trkpt lat="42.9541040" lon="-0.4390480">
        <ele>663.9</ele>
        <time>2020-07-26T13:56:26Z</time>
      </trkpt>
      <trkpt lat="42.9538610" lon="-0.4389500">
        <ele>663.8</ele>
        <time>2020-07-26T13:56:31Z</time>
      </trkpt>
      <trkpt lat="42.9538090" lon="-0.4389520">
        <ele>663.9</ele>
        <time>2020-07-26T13:56:32Z</time>
      </trkpt>
      <trkpt lat="42.9536750" lon="-0.4390040">
        <ele>664.0</ele>
        <time>2020-07-26T13:56:35Z</time>
      </trkpt>
      <trkpt lat="42.9536320" lon="-0.4390240">
        <ele>664.0</ele>
        <time>2020-07-26T13:56:36Z</time>
      </trkpt>
      <trkpt lat="42.9535460" lon="-0.4390610">
        <ele>664.1</ele>
        <time>2020-07-26T13:56:38Z</time>
      </trkpt>
      <trkpt lat="42.9534590" lon="-0.4390940">
        <ele>664.1</ele>
        <time>2020-07-26T13:56:40Z</time>
      </trkpt>
      <trkpt lat="42.9533290" lon="-0.4391540">
        <ele>664.2</ele>
        <time>2020-07-26T13:56:43Z</time>
      </trkpt>
      <trkpt lat="42.9532050" lon="-0.4392240">
        <ele>664.2</ele>
        <time>2020-07-26T13:56:46Z</time>
      </trkpt>
      <trkpt lat="42.9531680" lon="-0.4392480">
        <ele>664.2</ele>
        <time>2020-07-26T13:56:47Z</time>
      </trkpt>
      <trkpt lat="42.9529310" lon="-0.4394300">
        <ele>666.8</ele>
        <time>2020-07-26T13:56:53Z</time>
      </trkpt>
      <trkpt lat="42.9527830" lon="-0.4395540">
        <ele>669.4</ele>
        <time>2020-07-26T13:56:57Z</time>
      </trkpt>
      <trkpt lat="42.9526680" lon="-0.4396510">
        <ele>671.5</ele>
        <time>2020-07-26T13:57:00Z</time>
      </trkpt>
      <trkpt lat="42.9525200" lon="-0.4398280">
        <ele>674.4</ele>
        <time>2020-07-26T13:57:05Z</time>
      </trkpt>
      <trkpt lat="42.9524940" lon="-0.4398660">
        <ele>675.3</ele>
        <time>2020-07-26T13:57:06Z</time>
      </trkpt>
      <trkpt lat="42.9523690" lon="-0.4400820">
        <ele>679.1</ele>
        <time>2020-07-26T13:57:11Z</time>
      </trkpt>
      <trkpt lat="42.9522920" lon="-0.4402100">
        <ele>681.3</ele>
        <time>2020-07-26T13:57:14Z</time>
      </trkpt>
      <trkpt lat="42.9522260" lon="-0.4402910">
        <ele>682.9</ele>
        <time>2020-07-26T13:57:16Z</time>
      </trkpt>
      <trkpt lat="42.9521910" lon="-0.4403320">
        <ele>683.7</ele>
        <time>2020-07-26T13:57:17Z</time>
      </trkpt>
      <trkpt lat="42.9521240" lon="-0.4404050">
        <ele>685.1</ele>
        <time>2020-07-26T13:57:19Z</time>
      </trkpt>
      <trkpt lat="42.9520300" lon="-0.4405010">
        <ele>686.9</ele>
        <time>2020-07-26T13:57:22Z</time>
      </trkpt>
      <trkpt lat="42.9523200" lon="-0.4399530">
        <ele>669.2</ele>
        <time>2020-07-27T07:10:20Z</time>
      </trkpt>
      <trkpt lat="42.9525530" lon="-0.4396120">
        <ele>668.8</ele>
        <time>2020-07-27T07:10:26Z</time>
      </trkpt>
      <trkpt lat="42.9528300" lon="-0.4393390">
        <ele>668.2</ele>
        <time>2020-07-27T07:10:31Z</time>
      </trkpt>
      <trkpt lat="42.9528910" lon="-0.4392840">
        <ele>668.0</ele>
        <time>2020-07-27T07:10:32Z</time>
      </trkpt>
      <trkpt lat="42.9530720" lon="-0.4391270">
        <ele>667.2</ele>
        <time>2020-07-27T07:10:35Z</time>
      </trkpt>
      <trkpt lat="42.9531420" lon="-0.4390900">
        <ele>666.6</ele>
        <time>2020-07-27T07:10:36Z</time>
      </trkpt>
      <trkpt lat="42.9532070" lon="-0.4390520">
        <ele>666.2</ele>
        <time>2020-07-27T07:10:37Z</time>
      </trkpt>
      <trkpt lat="42.9532790" lon="-0.4390200">
        <ele>666.0</ele>
        <time>2020-07-27T07:10:38Z</time>
      </trkpt>
      <trkpt lat="42.9534900" lon="-0.4389400">
        <ele>665.0</ele>
        <time>2020-07-27T07:10:41Z</time>
      </trkpt>
      <trkpt lat="42.9535550" lon="-0.4389050">
        <ele>665.0</ele>
        <time>2020-07-27T07:10:42Z</time>
      </trkpt>
      <trkpt lat="42.9539080" lon="-0.4387810">
        <ele>663.8</ele>
        <time>2020-07-27T07:10:47Z</time>
      </trkpt>
      <trkpt lat="42.9539840" lon="-0.4387970">
        <ele>663.8</ele>
        <time>2020-07-27T07:10:48Z</time>
      </trkpt>
      <trkpt lat="42.9541310" lon="-0.4388660">
        <ele>663.4</ele>
        <time>2020-07-27T07:10:50Z</time>
      </trkpt>
      <trkpt lat="42.9542010" lon="-0.4389050">
        <ele>663.0</ele>
        <time>2020-07-27T07:10:51Z</time>
      </trkpt>
      <trkpt lat="42.9542710" lon="-0.4389340">
        <ele>662.6</ele>
        <time>2020-07-27T07:10:52Z</time>
      </trkpt>
      <trkpt lat="42.9544930" lon="-0.4389680">
        <ele>661.8</ele>
        <time>2020-07-27T07:10:55Z</time>
      </trkpt>
      <trkpt lat="42.9545700" lon="-0.4389630">
        <ele>661.6</ele>
        <time>2020-07-27T07:10:56Z</time>
      </trkpt>
      <trkpt lat="42.9548010" lon="-0.4389170">
        <ele>661.2</ele>
        <time>2020-07-27T07:10:59Z</time>
      </trkpt>
      <trkpt lat="42.9548730" lon="-0.4388770">
        <ele>661.0</ele>
        <time>2020-07-27T07:11:00Z</time>
      </trkpt>
      <trkpt lat="42.9551350" lon="-0.4386570">
        <ele>660.8</ele>
        <time>2020-07-27T07:11:04Z</time>
      </trkpt>
      <trkpt lat="42.9552030" lon="-0.4386100">
        <ele>660.6</ele>
        <time>2020-07-27T07:11:05Z</time>
      </trkpt>
      <trkpt lat="42.9554240" lon="-0.4385750">
        <ele>660.2</ele>
        <time>2020-07-27T07:11:08Z</time>
      </trkpt>
      <trkpt lat="42.9555860" lon="-0.4385970">
        <ele>659.8</ele>
        <time>2020-07-27T07:11:10Z</time>
      </trkpt>
      <trkpt lat="42.9557590" lon="-0.4386440">
        <ele>659.6</ele>
        <time>2020-07-27T07:11:12Z</time>
      </trkpt>
      <trkpt lat="42.9559450" lon="-0.4386860">
        <ele>659.4</ele>
        <time>2020-07-27T07:11:14Z</time>
      </trkpt>
      <trkpt lat="42.9561390" lon="-0.4387470">
        <ele>658.0</ele>
        <time>2020-07-27T07:11:16Z</time>
      </trkpt>
      <trkpt lat="42.9563350" lon="-0.4388220">
        <ele>656.8</ele>
        <time>2020-07-27T07:11:18Z</time>
      </trkpt>
      <trkpt lat="42.9565260" lon="-0.4389010">
        <ele>655.6</ele>
        <time>2020-07-27T07:11:20Z</time>
      </trkpt>
      <trkpt lat="42.9568050" lon="-0.4390370">
        <ele>654.6</ele>
        <time>2020-07-27T07:11:23Z</time>
      </trkpt>
      <trkpt lat="42.9569820" lon="-0.4391290">
        <ele>653.8</ele>
        <time>2020-07-27T07:11:25Z</time>
      </trkpt>
      <trkpt lat="42.9570690" lon="-0.4391720">
        <ele>653.2</ele>
        <time>2020-07-27T07:11:26Z</time>
      </trkpt>
      <trkpt lat="42.9573360" lon="-0.4392750">
        <ele>652.0</ele>
        <time>2020-07-27T07:11:29Z</time>
      </trkpt>
      <trkpt lat="42.9575800" lon="-0.4395440">
        <ele>650.4</ele>
        <time>2020-07-27T07:11:32Z</time>
      </trkpt>
      <trkpt lat="42.9578250" lon="-0.4398650">
        <ele>649.4</ele>
        <time>2020-07-27T07:11:35Z</time>
      </trkpt>
      <trkpt lat="42.9579180" lon="-0.4398980">
        <ele>649.2</ele>
        <time>2020-07-27T07:11:36Z</time>
      </trkpt>
      <trkpt lat="42.9581050" lon="-0.4399080">
        <ele>648.4</ele>
        <time>2020-07-27T07:11:38Z</time>
      </trkpt>
      <trkpt lat="42.9581990" lon="-0.4398920">
        <ele>648.0</ele>
        <time>2020-07-27T07:11:39Z</time>
      </trkpt>
      <trkpt lat="42.9582920" lon="-0.4398720">
        <ele>647.8</ele>
        <time>2020-07-27T07:11:40Z</time>
      </trkpt>
      <trkpt lat="42.9583850" lon="-0.4398530">
        <ele>647.2</ele>
        <time>2020-07-27T07:11:41Z</time>
      </trkpt>
      <trkpt lat="42.9586630" lon="-0.4397830">
        <ele>646.0</ele>
        <time>2020-07-27T07:11:44Z</time>
      </trkpt>
      <trkpt lat="42.9588580" lon="-0.4397450">
        <ele>645.4</ele>
        <time>2020-07-27T07:11:46Z</time>
      </trkpt>
      <trkpt lat="42.9588580" lon="-0.4397450">
        <ele>644.6</ele>
        <time>2020-07-27T07:11:48Z</time>
      </trkpt>
      <trkpt lat="42.9595580" lon="-0.4396600">
        <ele>643.6</ele>
        <time>2020-07-27T07:11:53Z</time>
      </trkpt>
      <trkpt lat="42.9597600" lon="-0.4396560">
        <ele>643.0</ele>
        <time>2020-07-27T07:11:55Z</time>
      </trkpt>
      <trkpt lat="42.9599660" lon="-0.4396680">
        <ele>642.2</ele>
        <time>2020-07-27T07:11:57Z</time>
      </trkpt>
      <trkpt lat="42.9602690" lon="-0.4397410">
        <ele>641.0</ele>
        <time>2020-07-27T07:12:00Z</time>
      </trkpt>
      <trkpt lat="42.9604720" lon="-0.4397930">
        <ele>639.8</ele>
        <time>2020-07-27T07:12:02Z</time>
      </trkpt>
      <trkpt lat="42.9606830" lon="-0.4398390">
        <ele>638.6</ele>
        <time>2020-07-27T07:12:04Z</time>
      </trkpt>
      <trkpt lat="42.9609030" lon="-0.4398950">
        <ele>637.4</ele>
        <time>2020-07-27T07:12:06Z</time>
      </trkpt>
      <trkpt lat="42.9610150" lon="-0.4399270">
        <ele>637.0</ele>
        <time>2020-07-27T07:12:07Z</time>
      </trkpt>
      <trkpt lat="42.9612410" lon="-0.4399790">
        <ele>636.2</ele>
        <time>2020-07-27T07:12:09Z</time>
      </trkpt>
      <trkpt lat="42.9615850" lon="-0.4400070">
        <ele>634.6</ele>
        <time>2020-07-27T07:12:12Z</time>
      </trkpt>
      <trkpt lat="42.9616960" lon="-0.4400050">
        <ele>633.4</ele>
        <time>2020-07-27T07:12:13Z</time>
      </trkpt>
      <trkpt lat="42.9618140" lon="-0.4399510">
        <ele>632.8</ele>
        <time>2020-07-27T07:12:14Z</time>
      </trkpt>
      <trkpt lat="42.9619230" lon="-0.4399280">
        <ele>632.2</ele>
        <time>2020-07-27T07:12:15Z</time>
      </trkpt>
      <trkpt lat="42.9621340" lon="-0.4398640">
        <ele>631.0</ele>
        <time>2020-07-27T07:12:17Z</time>
      </trkpt>
      <trkpt lat="42.9623230" lon="-0.4398400">
        <ele>629.8</ele>
        <time>2020-07-27T07:12:19Z</time>
      </trkpt>
      <trkpt lat="42.9625840" lon="-0.4398650">
        <ele>628.6</ele>
        <time>2020-07-27T07:12:22Z</time>
      </trkpt>
      <trkpt lat="42.9627420" lon="-0.4400010">
        <ele>627.8</ele>
        <time>2020-07-27T07:12:24Z</time>
      </trkpt>
      <trkpt lat="42.9628260" lon="-0.4400470">
        <ele>627.6</ele>
        <time>2020-07-27T07:12:25Z</time>
      </trkpt>
      <trkpt lat="42.9629150" lon="-0.4400700">
        <ele>627.2</ele>
        <time>2020-07-27T07:12:26Z</time>
      </trkpt>
      <trkpt lat="42.9633870" lon="-0.4401140">
        <ele>626.8</ele>
        <time>2020-07-27T07:12:31Z</time>
      </trkpt>
      <trkpt lat="42.9638520" lon="-0.4401220">
        <ele>626.2</ele>
        <time>2020-07-27T07:12:36Z</time>
      </trkpt>
      <trkpt lat="42.9639470" lon="-0.4401210">
        <ele>626.2</ele>
        <time>2020-07-27T07:12:37Z</time>
      </trkpt>
      <trkpt lat="42.9643250" lon="-0.4400960">
        <ele>625.2</ele>
        <time>2020-07-27T07:12:41Z</time>
      </trkpt>
      <trkpt lat="42.9644160" lon="-0.4400700">
        <ele>625.0</ele>
        <time>2020-07-27T07:12:42Z</time>
      </trkpt>
      <trkpt lat="42.9648400" lon="-0.4399440">
        <ele>624.2</ele>
        <time>2020-07-27T07:12:47Z</time>
      </trkpt>
      <trkpt lat="42.9652450" lon="-0.4398010">
        <ele>623.8</ele>
        <time>2020-07-27T07:12:52Z</time>
      </trkpt>
      <trkpt lat="42.9657730" lon="-0.4396610">
        <ele>623.8</ele>
        <time>2020-07-27T07:12:59Z</time>
      </trkpt>
      <trkpt lat="42.9661470" lon="-0.4394580">
        <ele>624.2</ele>
        <time>2020-07-27T07:13:04Z</time>
      </trkpt>
      <trkpt lat="42.9665940" lon="-0.4390710">
        <ele>624.4</ele>
        <time>2020-07-27T07:13:11Z</time>
      </trkpt>
      <trkpt lat="42.9668300" lon="-0.4386850">
        <ele>624.4</ele>
        <time>2020-07-27T07:13:16Z</time>
      </trkpt>
      <trkpt lat="42.9671630" lon="-0.4381810">
        <ele>624.2</ele>
        <time>2020-07-27T07:13:23Z</time>
      </trkpt>
      <trkpt lat="42.9672870" lon="-0.4380650">
        <ele>624.2</ele>
        <time>2020-07-27T07:13:25Z</time>
      </trkpt>
      <trkpt lat="42.9674350" lon="-0.4379770">
        <ele>624.2</ele>
        <time>2020-07-27T07:13:27Z</time>
      </trkpt>
      <trkpt lat="42.9677670" lon="-0.4378630">
        <ele>623.6</ele>
        <time>2020-07-27T07:13:31Z</time>
      </trkpt>
      <trkpt lat="42.9678550" lon="-0.4378490">
        <ele>623.6</ele>
        <time>2020-07-27T07:13:32Z</time>
      </trkpt>
      <trkpt lat="42.9681270" lon="-0.4378100">
        <ele>622.6</ele>
        <time>2020-07-27T07:13:35Z</time>
      </trkpt>
      <trkpt lat="42.9683140" lon="-0.4378010">
        <ele>621.6</ele>
        <time>2020-07-27T07:13:37Z</time>
      </trkpt>
      <trkpt lat="42.9685130" lon="-0.4377740">
        <ele>620.4</ele>
        <time>2020-07-27T07:13:39Z</time>
      </trkpt>
      <trkpt lat="42.9686140" lon="-0.4377610">
        <ele>620.2</ele>
        <time>2020-07-27T07:13:40Z</time>
      </trkpt>
      <trkpt lat="42.9689390" lon="-0.4375640">
        <ele>618.8</ele>
        <time>2020-07-27T07:13:43Z</time>
      </trkpt>
      <trkpt lat="42.9689790" lon="-0.4378380">
        <ele>618.0</ele>
        <time>2020-07-27T07:13:44Z</time>
      </trkpt>
      <trkpt lat="42.9690530" lon="-0.4379230">
        <ele>617.6</ele>
        <time>2020-07-27T07:13:45Z</time>
      </trkpt>
      <trkpt lat="42.9694120" lon="-0.4378820">
        <ele>616.0</ele>
        <time>2020-07-27T07:13:49Z</time>
      </trkpt>
      <trkpt lat="42.9694970" lon="-0.4378250">
        <ele>615.8</ele>
        <time>2020-07-27T07:13:50Z</time>
      </trkpt>
      <trkpt lat="42.9698100" lon="-0.4374820">
        <ele>615.0</ele>
        <time>2020-07-27T07:13:54Z</time>
      </trkpt>
      <trkpt lat="42.9699260" lon="-0.4372710">
        <ele>614.4</ele>
        <time>2020-07-27T07:13:56Z</time>
      </trkpt>
      <trkpt lat="42.9701040" lon="-0.4369740">
        <ele>613.6</ele>
        <time>2020-07-27T07:13:59Z</time>
      </trkpt>
      <trkpt lat="42.9701670" lon="-0.4368770">
        <ele>613.2</ele>
        <time>2020-07-27T07:14:00Z</time>
      </trkpt>
      <trkpt lat="42.9702980" lon="-0.4366970">
        <ele>612.0</ele>
        <time>2020-07-27T07:14:02Z</time>
      </trkpt>
      <trkpt lat="42.9705200" lon="-0.4364480">
        <ele>610.8</ele>
        <time>2020-07-27T07:14:05Z</time>
      </trkpt>
      <trkpt lat="42.9706810" lon="-0.4363190">
        <ele>610.4</ele>
        <time>2020-07-27T07:14:07Z</time>
      </trkpt>
      <trkpt lat="42.9708570" lon="-0.4362300">
        <ele>610.2</ele>
        <time>2020-07-27T07:14:09Z</time>
      </trkpt>
      <trkpt lat="42.9710500" lon="-0.4361920">
        <ele>609.6</ele>
        <time>2020-07-27T07:14:11Z</time>
      </trkpt>
      <trkpt lat="42.9711470" lon="-0.4361790">
        <ele>609.4</ele>
        <time>2020-07-27T07:14:12Z</time>
      </trkpt>
      <trkpt lat="42.9712420" lon="-0.4361640">
        <ele>609.4</ele>
        <time>2020-07-27T07:14:13Z</time>
      </trkpt>
      <trkpt lat="42.9713330" lon="-0.4361440">
        <ele>609.2</ele>
        <time>2020-07-27T07:14:14Z</time>
      </trkpt>
      <trkpt lat="42.9714890" lon="-0.4360440">
        <ele>609.2</ele>
        <time>2020-07-27T07:14:16Z</time>
      </trkpt>
      <trkpt lat="42.9716260" lon="-0.4359130">
        <ele>608.8</ele>
        <time>2020-07-27T07:14:18Z</time>
      </trkpt>
      <trkpt lat="42.9716930" lon="-0.4358540">
        <ele>608.6</ele>
        <time>2020-07-27T07:14:19Z</time>
      </trkpt>
      <trkpt lat="42.9717570" lon="-0.4357840">
        <ele>608.4</ele>
        <time>2020-07-27T07:14:20Z</time>
      </trkpt>
      <trkpt lat="42.9718150" lon="-0.4357070">
        <ele>608.2</ele>
        <time>2020-07-27T07:14:21Z</time>
      </trkpt>
      <trkpt lat="42.9722200" lon="-0.4350680">
        <ele>608.0</ele>
        <time>2020-07-27T07:14:28Z</time>
      </trkpt>
      <trkpt lat="42.9724300" lon="-0.4346360">
        <ele>607.4</ele>
        <time>2020-07-27T07:14:32Z</time>
      </trkpt>
      <trkpt lat="42.9725450" lon="-0.4344200">
        <ele>606.2</ele>
        <time>2020-07-27T07:14:34Z</time>
      </trkpt>
      <trkpt lat="42.9726040" lon="-0.4343100">
        <ele>605.4</ele>
        <time>2020-07-27T07:14:35Z</time>
      </trkpt>
      <trkpt lat="42.9727150" lon="-0.4340840">
        <ele>604.0</ele>
        <time>2020-07-27T07:14:37Z</time>
      </trkpt>
      <trkpt lat="42.9728610" lon="-0.4337340">
        <ele>602.2</ele>
        <time>2020-07-27T07:14:40Z</time>
      </trkpt>
      <trkpt lat="42.9729080" lon="-0.4336180">
        <ele>601.8</ele>
        <time>2020-07-27T07:14:41Z</time>
      </trkpt>
      <trkpt lat="42.9729970" lon="-0.4333870">
        <ele>600.8</ele>
        <time>2020-07-27T07:14:43Z</time>
      </trkpt>
      <trkpt lat="42.9730760" lon="-0.4331470">
        <ele>599.8</ele>
        <time>2020-07-27T07:14:45Z</time>
      </trkpt>
      <trkpt lat="42.9731790" lon="-0.4329070">
        <ele>598.6</ele>
        <time>2020-07-27T07:14:47Z</time>
      </trkpt>
      <trkpt lat="42.9732210" lon="-0.4327860">
        <ele>598.2</ele>
        <time>2020-07-27T07:14:48Z</time>
      </trkpt>
      <trkpt lat="42.9733640" lon="-0.4324450">
        <ele>597.4</ele>
        <time>2020-07-27T07:14:51Z</time>
      </trkpt>
      <trkpt lat="42.9734300" lon="-0.4323450">
        <ele>597.2</ele>
        <time>2020-07-27T07:14:52Z</time>
      </trkpt>
      <trkpt lat="42.9735010" lon="-0.4322520">
        <ele>597.0</ele>
        <time>2020-07-27T07:14:53Z</time>
      </trkpt>
      <trkpt lat="42.9737810" lon="-0.4318550">
        <ele>596.4</ele>
        <time>2020-07-27T07:14:57Z</time>
      </trkpt>
      <trkpt lat="42.9738910" lon="-0.4316240">
        <ele>595.8</ele>
        <time>2020-07-27T07:14:59Z</time>
      </trkpt>
      <trkpt lat="42.9740050" lon="-0.4313960">
        <ele>594.8</ele>
        <time>2020-07-27T07:15:01Z</time>
      </trkpt>
      <trkpt lat="42.9742520" lon="-0.4309830">
        <ele>593.6</ele>
        <time>2020-07-27T07:15:05Z</time>
      </trkpt>
      <trkpt lat="42.9745540" lon="-0.4306290">
        <ele>592.2</ele>
        <time>2020-07-27T07:15:09Z</time>
      </trkpt>
      <trkpt lat="42.9746910" lon="-0.4304370">
        <ele>591.8</ele>
        <time>2020-07-27T07:15:11Z</time>
      </trkpt>
      <trkpt lat="42.9749130" lon="-0.4301570">
        <ele>591.0</ele>
        <time>2020-07-27T07:15:14Z</time>
      </trkpt>
      <trkpt lat="42.9751600" lon="-0.4298810">
        <ele>590.2</ele>
        <time>2020-07-27T07:15:17Z</time>
      </trkpt>
      <trkpt lat="42.9753190" lon="-0.4297020">
        <ele>589.8</ele>
        <time>2020-07-27T07:15:19Z</time>
      </trkpt>
      <trkpt lat="42.9756250" lon="-0.4293330">
        <ele>588.8</ele>
        <time>2020-07-27T07:15:23Z</time>
      </trkpt>
      <trkpt lat="42.9756990" lon="-0.4292330">
        <ele>588.6</ele>
        <time>2020-07-27T07:15:24Z</time>
      </trkpt>
      <trkpt lat="42.9758890" lon="-0.4289050">
        <ele>587.4</ele>
        <time>2020-07-27T07:15:27Z</time>
      </trkpt>
      <trkpt lat="42.9760200" lon="-0.4286840">
        <ele>586.6</ele>
        <time>2020-07-27T07:15:29Z</time>
      </trkpt>
      <trkpt lat="42.9761650" lon="-0.4284760">
        <ele>586.0</ele>
        <time>2020-07-27T07:15:31Z</time>
      </trkpt>
      <trkpt lat="42.9764150" lon="-0.4281730">
        <ele>585.0</ele>
        <time>2020-07-27T07:15:34Z</time>
      </trkpt>
      <trkpt lat="42.9764980" lon="-0.4280650">
        <ele>584.6</ele>
        <time>2020-07-27T07:15:35Z</time>
      </trkpt>
      <trkpt lat="42.9765700" lon="-0.4279410">
        <ele>584.4</ele>
        <time>2020-07-27T07:15:36Z</time>
      </trkpt>
      <trkpt lat="42.9766900" lon="-0.4276700">
        <ele>583.4</ele>
        <time>2020-07-27T07:15:38Z</time>
      </trkpt>
      <trkpt lat="42.9768210" lon="-0.4274170">
        <ele>582.2</ele>
        <time>2020-07-27T07:15:40Z</time>
      </trkpt>
      <trkpt lat="42.9769300" lon="-0.4271840">
        <ele>580.6</ele>
        <time>2020-07-27T07:15:42Z</time>
      </trkpt>
      <trkpt lat="42.9769870" lon="-0.4269450">
        <ele>578.4</ele>
        <time>2020-07-27T07:15:44Z</time>
      </trkpt>
      <trkpt lat="42.9770160" lon="-0.4267100">
        <ele>576.6</ele>
        <time>2020-07-27T07:15:46Z</time>
      </trkpt>
      <trkpt lat="42.9770150" lon="-0.4263040">
        <ele>575.6</ele>
        <time>2020-07-27T07:15:49Z</time>
      </trkpt>
      <trkpt lat="42.9770190" lon="-0.4261660">
        <ele>575.4</ele>
        <time>2020-07-27T07:15:50Z</time>
      </trkpt>
      <trkpt lat="42.9770680" lon="-0.4257330">
        <ele>574.0</ele>
        <time>2020-07-27T07:15:53Z</time>
      </trkpt>
      <trkpt lat="42.9771130" lon="-0.4254580">
        <ele>572.4</ele>
        <time>2020-07-27T07:15:55Z</time>
      </trkpt>
      <trkpt lat="42.9771550" lon="-0.4253380">
        <ele>571.8</ele>
        <time>2020-07-27T07:15:56Z</time>
      </trkpt>
      <trkpt lat="42.9772050" lon="-0.4252280">
        <ele>571.0</ele>
        <time>2020-07-27T07:15:57Z</time>
      </trkpt>
      <trkpt lat="42.9773770" lon="-0.4250280">
        <ele>569.8</ele>
        <time>2020-07-27T07:15:59Z</time>
      </trkpt>
      <trkpt lat="42.9775670" lon="-0.4248380">
        <ele>568.4</ele>
        <time>2020-07-27T07:16:01Z</time>
      </trkpt>
      <trkpt lat="42.9777820" lon="-0.4246400">
        <ele>567.4</ele>
        <time>2020-07-27T07:16:03Z</time>
      </trkpt>
      <trkpt lat="42.9781440" lon="-0.4243010">
        <ele>566.0</ele>
        <time>2020-07-27T07:16:06Z</time>
      </trkpt>
      <trkpt lat="42.9782570" lon="-0.4241860">
        <ele>564.6</ele>
        <time>2020-07-27T07:16:07Z</time>
      </trkpt>
      <trkpt lat="42.9784980" lon="-0.4239720">
        <ele>563.2</ele>
        <time>2020-07-27T07:16:09Z</time>
      </trkpt>
      <trkpt lat="42.9786990" lon="-0.4238280">
        <ele>561.6</ele>
        <time>2020-07-27T07:16:11Z</time>
      </trkpt>
      <trkpt lat="42.9787780" lon="-0.4237370">
        <ele>560.6</ele>
        <time>2020-07-27T07:16:12Z</time>
      </trkpt>
      <trkpt lat="42.9788570" lon="-0.4236460">
        <ele>559.8</ele>
        <time>2020-07-27T07:16:13Z</time>
      </trkpt>
      <trkpt lat="42.9789240" lon="-0.4235410">
        <ele>558.8</ele>
        <time>2020-07-27T07:16:14Z</time>
      </trkpt>
      <trkpt lat="42.9789240" lon="-0.4235410">
        <ele>557.8</ele>
        <time>2020-07-27T07:16:15Z</time>
      </trkpt>
      <trkpt lat="42.9789240" lon="-0.4235410">
        <ele>556.8</ele>
        <time>2020-07-27T07:16:19Z</time>
      </trkpt>
      <trkpt lat="42.9789240" lon="-0.4235410">
        <ele>555.6</ele>
        <time>2020-07-27T07:16:23Z</time>
      </trkpt>
      <trkpt lat="42.9793760" lon="-0.4222400">
        <ele>554.4</ele>
        <time>2020-07-27T07:16:25Z</time>
      </trkpt>
      <trkpt lat="42.9793850" lon="-0.4221690">
        <ele>553.8</ele>
        <time>2020-07-27T07:16:26Z</time>
      </trkpt>
      <trkpt lat="42.9793820" lon="-0.4219930">
        <ele>553.2</ele>
        <time>2020-07-27T07:16:27Z</time>
      </trkpt>
      <trkpt lat="42.9793700" lon="-0.4218880">
        <ele>552.6</ele>
        <time>2020-07-27T07:16:28Z</time>
      </trkpt>
      <trkpt lat="42.9793450" lon="-0.4216790">
        <ele>552.2</ele>
        <time>2020-07-27T07:16:29Z</time>
      </trkpt>
      <trkpt lat="42.9792520" lon="-0.4214590">
        <ele>550.6</ele>
        <time>2020-07-27T07:16:31Z</time>
      </trkpt>
      <trkpt lat="42.9790780" lon="-0.4213340">
        <ele>549.0</ele>
        <time>2020-07-27T07:16:33Z</time>
      </trkpt>
      <trkpt lat="42.9789830" lon="-0.4212830">
        <ele>548.2</ele>
        <time>2020-07-27T07:16:34Z</time>
      </trkpt>
      <trkpt lat="42.9788880" lon="-0.4212290">
        <ele>547.8</ele>
        <time>2020-07-27T07:16:35Z</time>
      </trkpt>
      <trkpt lat="42.9786940" lon="-0.4211420">
        <ele>546.0</ele>
        <time>2020-07-27T07:16:37Z</time>
      </trkpt>
      <trkpt lat="42.9784860" lon="-0.4210590">
        <ele>545.2</ele>
        <time>2020-07-27T07:16:39Z</time>
      </trkpt>
      <trkpt lat="42.9784260" lon="-0.4210130">
        <ele>544.6</ele>
        <time>2020-07-27T07:16:40Z</time>
      </trkpt>
      <trkpt lat="42.9783650" lon="-0.4209680">
        <ele>544.2</ele>
        <time>2020-07-27T07:16:41Z</time>
      </trkpt>
      <trkpt lat="42.9781240" lon="-0.4207860">
        <ele>543.2</ele>
        <time>2020-07-27T07:16:43Z</time>
      </trkpt>
      <trkpt lat="42.9779990" lon="-0.4206700">
        <ele>542.0</ele>
        <time>2020-07-27T07:16:45Z</time>
      </trkpt>
      <trkpt lat="42.9779290" lon="-0.4206420">
        <ele>541.6</ele>
        <time>2020-07-27T07:16:46Z</time>
      </trkpt>
      <trkpt lat="42.9778590" lon="-0.4206090">
        <ele>540.8</ele>
        <time>2020-07-27T07:16:47Z</time>
      </trkpt>
      <trkpt lat="42.9778020" lon="-0.4205790">
        <ele>540.4</ele>
        <time>2020-07-27T07:16:48Z</time>
      </trkpt>
      <trkpt lat="42.9777670" lon="-0.4205540">
        <ele>540.0</ele>
        <time>2020-07-27T07:16:49Z</time>
      </trkpt>
      <trkpt lat="42.9777180" lon="-0.4203300">
        <ele>539.8</ele>
        <time>2020-07-27T07:16:52Z</time>
      </trkpt>
      <trkpt lat="42.9777260" lon="-0.4201360">
        <ele>539.8</ele>
        <time>2020-07-27T07:16:54Z</time>
      </trkpt>
      <trkpt lat="42.9777480" lon="-0.4199630">
        <ele>539.8</ele>
        <time>2020-07-27T07:16:56Z</time>
      </trkpt>
      <trkpt lat="42.9778190" lon="-0.4196820">
        <ele>541.0</ele>
        <time>2020-07-27T07:17:00Z</time>
      </trkpt>
      <trkpt lat="42.9778720" lon="-0.4195680">
        <ele>541.8</ele>
        <time>2020-07-27T07:17:02Z</time>
      </trkpt>
      <trkpt lat="42.9778940" lon="-0.4195110">
        <ele>542.0</ele>
        <time>2020-07-27T07:17:03Z</time>
      </trkpt>
      <trkpt lat="42.9779550" lon="-0.4193260">
        <ele>543.0</ele>
        <time>2020-07-27T07:17:07Z</time>
      </trkpt>
      <trkpt lat="42.9779870" lon="-0.4190830">
        <ele>544.2</ele>
        <time>2020-07-27T07:17:12Z</time>
      </trkpt>
      <trkpt lat="42.9779910" lon="-0.4190350">
        <ele>544.4</ele>
        <time>2020-07-27T07:17:13Z</time>
      </trkpt>
      <trkpt lat="42.9780110" lon="-0.4189120">
        <ele>545.2</ele>
        <time>2020-07-27T07:17:16Z</time>
      </trkpt>
      <trkpt lat="42.9780290" lon="-0.4188170">
        <ele>545.8</ele>
        <time>2020-07-27T07:17:18Z</time>
      </trkpt>
      <trkpt lat="42.9780400" lon="-0.4187210">
        <ele>546.6</ele>
        <time>2020-07-27T07:17:20Z</time>
      </trkpt>
      <trkpt lat="42.9780830" lon="-0.4185380">
        <ele>547.4</ele>
        <time>2020-07-27T07:17:24Z</time>
      </trkpt>
      <trkpt lat="42.9781020" lon="-0.4185000">
        <ele>547.6</ele>
        <time>2020-07-27T07:17:25Z</time>
      </trkpt>
      <trkpt lat="42.9781670" lon="-0.4183310">
        <ele>548.2</ele>
        <time>2020-07-27T07:17:29Z</time>
      </trkpt>
      <trkpt lat="42.9782340" lon="-0.4181670">
        <ele>548.6</ele>
        <time>2020-07-27T07:17:33Z</time>
      </trkpt>
      <trkpt lat="42.9782650" lon="-0.4180780">
        <ele>549.2</ele>
        <time>2020-07-27T07:17:35Z</time>
      </trkpt>
      <trkpt lat="42.9783260" lon="-0.4179530">
        <ele>549.8</ele>
        <time>2020-07-27T07:17:38Z</time>
      </trkpt>
      <trkpt lat="42.9783830" lon="-0.4177900">
        <ele>550.4</ele>
        <time>2020-07-27T07:17:42Z</time>
      </trkpt>
      <trkpt lat="42.9784100" lon="-0.4176710">
        <ele>550.8</ele>
        <time>2020-07-27T07:17:45Z</time>
      </trkpt>
      <trkpt lat="42.9784290" lon="-0.4176320">
        <ele>551.0</ele>
        <time>2020-07-27T07:17:46Z</time>
      </trkpt>
      <trkpt lat="42.9785210" lon="-0.4174240">
        <ele>552.0</ele>
        <time>2020-07-27T07:17:51Z</time>
      </trkpt>
      <trkpt lat="42.9785320" lon="-0.4173770">
        <ele>552.0</ele>
        <time>2020-07-27T07:17:52Z</time>
      </trkpt>
      <trkpt lat="42.9785790" lon="-0.4171510">
        <ele>553.0</ele>
        <time>2020-07-27T07:17:57Z</time>
      </trkpt>
      <trkpt lat="42.9786190" lon="-0.4170670">
        <ele>553.4</ele>
        <time>2020-07-27T07:17:59Z</time>
      </trkpt>
      <trkpt lat="42.9787060" lon="-0.4169120">
        <ele>554.2</ele>
        <time>2020-07-27T07:18:03Z</time>
      </trkpt>
      <trkpt lat="42.9787580" lon="-0.4168160">
        <ele>554.6</ele>
        <time>2020-07-27T07:18:06Z</time>
      </trkpt>
      <trkpt lat="42.9788100" lon="-0.4167160">
        <ele>555.2</ele>
        <time>2020-07-27T07:18:09Z</time>
      </trkpt>
      <trkpt lat="42.9788990" lon="-0.4165930">
        <ele>555.6</ele>
        <time>2020-07-27T07:18:13Z</time>
      </trkpt>
      <trkpt lat="42.9789530" lon="-0.4165430">
        <ele>556.4</ele>
        <time>2020-07-27T07:18:15Z</time>
      </trkpt>
      <trkpt lat="42.9790710" lon="-0.4164150">
        <ele>557.4</ele>
        <time>2020-07-27T07:18:20Z</time>
      </trkpt>
      <trkpt lat="42.9790890" lon="-0.4163890">
        <ele>557.6</ele>
        <time>2020-07-27T07:18:21Z</time>
      </trkpt>
      <trkpt lat="42.9791800" lon="-0.4162600">
        <ele>558.4</ele>
        <time>2020-07-27T07:18:26Z</time>
      </trkpt>
      <trkpt lat="42.9792240" lon="-0.4161780">
        <ele>558.8</ele>
        <time>2020-07-27T07:18:29Z</time>
      </trkpt>
      <trkpt lat="42.9793140" lon="-0.4160430">
        <ele>559.6</ele>
        <time>2020-07-27T07:18:34Z</time>
      </trkpt>
      <trkpt lat="42.9794480" lon="-0.4158920">
        <ele>560.2</ele>
        <time>2020-07-27T07:18:39Z</time>
      </trkpt>
      <trkpt lat="42.9795090" lon="-0.4158240">
        <ele>560.6</ele>
        <time>2020-07-27T07:18:41Z</time>
      </trkpt>
      <trkpt lat="42.9795640" lon="-0.4157560">
        <ele>561.0</ele>
        <time>2020-07-27T07:18:43Z</time>
      </trkpt>
      <trkpt lat="42.9796890" lon="-0.4155650">
        <ele>561.8</ele>
        <time>2020-07-27T07:18:48Z</time>
      </trkpt>
      <trkpt lat="42.9797130" lon="-0.4155240">
        <ele>561.8</ele>
        <time>2020-07-27T07:18:49Z</time>
      </trkpt>
      <trkpt lat="42.9798370" lon="-0.4152890">
        <ele>562.8</ele>
        <time>2020-07-27T07:18:55Z</time>
      </trkpt>
      <trkpt lat="42.9798780" lon="-0.4152140">
        <ele>563.2</ele>
        <time>2020-07-27T07:18:57Z</time>
      </trkpt>
      <trkpt lat="42.9799580" lon="-0.4150810">
        <ele>564.0</ele>
        <time>2020-07-27T07:19:01Z</time>
      </trkpt>
      <trkpt lat="42.9800340" lon="-0.4149550">
        <ele>565.0</ele>
        <time>2020-07-27T07:19:05Z</time>
      </trkpt>
      <trkpt lat="42.9801730" lon="-0.4146990">
        <ele>565.8</ele>
        <time>2020-07-27T07:19:12Z</time>
      </trkpt>
      <trkpt lat="42.9801750" lon="-0.4146210">
        <ele>566.0</ele>
        <time>2020-07-27T07:19:14Z</time>
      </trkpt>
      <trkpt lat="42.9801620" lon="-0.4145630">
        <ele>566.0</ele>
        <time>2020-07-27T07:19:16Z</time>
      </trkpt>
      <trkpt lat="42.9800780" lon="-0.4144540">
        <ele>567.0</ele>
        <time>2020-07-27T07:19:20Z</time>
      </trkpt>
      <trkpt lat="42.9800100" lon="-0.4144380">
        <ele>567.2</ele>
        <time>2020-07-27T07:19:22Z</time>
      </trkpt>
      <trkpt lat="42.9799460" lon="-0.4144440">
        <ele>567.4</ele>
        <time>2020-07-27T07:19:24Z</time>
      </trkpt>
      <trkpt lat="42.9798100" lon="-0.4145470">
        <ele>567.6</ele>
        <time>2020-07-27T07:19:29Z</time>
      </trkpt>
      <trkpt lat="42.9797570" lon="-0.4147000">
        <ele>568.4</ele>
        <time>2020-07-27T07:19:34Z</time>
      </trkpt>
      <trkpt lat="42.9797490" lon="-0.4147380">
        <ele>568.4</ele>
        <time>2020-07-27T07:19:35Z</time>
      </trkpt>
      <trkpt lat="42.9797420" lon="-0.4148990">
        <ele>569.0</ele>
        <time>2020-07-27T07:19:40Z</time>
      </trkpt>
      <trkpt lat="42.9796890" lon="-0.4150740">
        <ele>569.6</ele>
        <time>2020-07-27T07:19:45Z</time>
      </trkpt>
      <trkpt lat="42.9796770" lon="-0.4151080">
        <ele>569.6</ele>
        <time>2020-07-27T07:19:46Z</time>
      </trkpt>
      <trkpt lat="42.9795990" lon="-0.4152850">
        <ele>570.6</ele>
        <time>2020-07-27T07:19:51Z</time>
      </trkpt>
      <trkpt lat="42.9795410" lon="-0.4153980">
        <ele>571.0</ele>
        <time>2020-07-27T07:19:54Z</time>
      </trkpt>
      <trkpt lat="42.9793740" lon="-0.4156430">
        <ele>571.6</ele>
        <time>2020-07-27T07:20:01Z</time>
      </trkpt>
      <trkpt lat="42.9793580" lon="-0.4156760">
        <ele>571.8</ele>
        <time>2020-07-27T07:20:02Z</time>
      </trkpt>
      <trkpt lat="42.9792570" lon="-0.4157970">
        <ele>572.8</ele>
        <time>2020-07-27T07:20:07Z</time>
      </trkpt>
      <trkpt lat="42.9792200" lon="-0.4158180">
        <ele>572.8</ele>
        <time>2020-07-27T07:20:09Z</time>
      </trkpt>
      <trkpt lat="42.9791490" lon="-0.4158360">
        <ele>573.2</ele>
        <time>2020-07-27T07:20:13Z</time>
      </trkpt>
      <trkpt lat="42.9790710" lon="-0.4158840">
        <ele>574.0</ele>
        <time>2020-07-27T07:20:17Z</time>
      </trkpt>
      <trkpt lat="42.9790510" lon="-0.4158940">
        <ele>574.2</ele>
        <time>2020-07-27T07:20:18Z</time>
      </trkpt>
      <trkpt lat="42.9788740" lon="-0.4160040">
        <ele>575.0</ele>
        <time>2020-07-27T07:20:24Z</time>
      </trkpt>
      <trkpt lat="42.9787880" lon="-0.4160610">
        <ele>575.6</ele>
        <time>2020-07-27T07:20:28Z</time>
      </trkpt>
      <trkpt lat="42.9787100" lon="-0.4161170">
        <ele>576.2</ele>
        <time>2020-07-27T07:20:31Z</time>
      </trkpt>
      <trkpt lat="42.9786870" lon="-0.4161300">
        <ele>576.2</ele>
        <time>2020-07-27T07:20:32Z</time>
      </trkpt>
      <trkpt lat="42.9786870" lon="-0.4161300">
        <ele>577.2</ele>
        <time>2020-07-27T07:20:37Z</time>
      </trkpt>
      <trkpt lat="42.9785030" lon="-0.4163320">
        <ele>577.8</ele>
        <time>2020-07-27T07:20:40Z</time>
      </trkpt>
      <trkpt lat="42.9784380" lon="-0.4164320">
        <ele>578.2</ele>
        <time>2020-07-27T07:20:43Z</time>
      </trkpt>
      <trkpt lat="42.9783460" lon="-0.4165640">
        <ele>578.8</ele>
        <time>2020-07-27T07:20:47Z</time>
      </trkpt>
      <trkpt lat="42.9782870" lon="-0.4166650">
        <ele>579.2</ele>
        <time>2020-07-27T07:20:50Z</time>
      </trkpt>
      <trkpt lat="42.9782190" lon="-0.4167870">
        <ele>580.0</ele>
        <time>2020-07-27T07:20:54Z</time>
      </trkpt>
      <trkpt lat="42.9781660" lon="-0.4168740">
        <ele>580.4</ele>
        <time>2020-07-27T07:20:57Z</time>
      </trkpt>
      <trkpt lat="42.9780530" lon="-0.4170510">
        <ele>581.6</ele>
        <time>2020-07-27T07:21:03Z</time>
      </trkpt>
      <trkpt lat="42.9779600" lon="-0.4171800">
        <ele>582.6</ele>
        <time>2020-07-27T07:21:08Z</time>
      </trkpt>
      <trkpt lat="42.9779150" lon="-0.4172260">
        <ele>583.0</ele>
        <time>2020-07-27T07:21:10Z</time>
      </trkpt>
      <trkpt lat="42.9778290" lon="-0.4173210">
        <ele>583.6</ele>
        <time>2020-07-27T07:21:14Z</time>
      </trkpt>
      <trkpt lat="42.9777600" lon="-0.4174030">
        <ele>584.0</ele>
        <time>2020-07-27T07:21:18Z</time>
      </trkpt>
      <trkpt lat="42.9773710" lon="-0.4179770">
        <ele>584.6</ele>
        <time>2020-07-27T07:21:21Z</time>
      </trkpt>
      <trkpt lat="42.9773480" lon="-0.4180030">
        <ele>584.6</ele>
        <time>2020-07-27T07:21:22Z</time>
      </trkpt>
      <trkpt lat="42.9773270" lon="-0.4180200">
        <ele>584.8</ele>
        <time>2020-07-27T07:21:23Z</time>
      </trkpt>
      <trkpt lat="42.9772470" lon="-0.4181440">
        <ele>586.0</ele>
        <time>2020-07-27T07:21:29Z</time>
      </trkpt>
      <trkpt lat="42.9771620" lon="-0.4182580">
        <ele>587.0</ele>
        <time>2020-07-27T07:21:34Z</time>
      </trkpt>
      <trkpt lat="42.9771420" lon="-0.4182790">
        <ele>587.0</ele>
        <time>2020-07-27T07:21:35Z</time>
      </trkpt>
      <trkpt lat="42.9770260" lon="-0.4184380">
        <ele>587.8</ele>
        <time>2020-07-27T07:21:40Z</time>
      </trkpt>
      <trkpt lat="42.9769050" lon="-0.4186760">
        <ele>588.2</ele>
        <time>2020-07-27T07:21:46Z</time>
      </trkpt>
      <trkpt lat="42.9768830" lon="-0.4187110">
        <ele>588.2</ele>
        <time>2020-07-27T07:21:47Z</time>
      </trkpt>
      <trkpt lat="42.9767660" lon="-0.4189090">
        <ele>589.4</ele>
        <time>2020-07-27T07:21:53Z</time>
      </trkpt>
      <trkpt lat="42.9766260" lon="-0.4191530">
        <ele>590.6</ele>
        <time>2020-07-27T07:22:00Z</time>
      </trkpt>
      <trkpt lat="42.9766070" lon="-0.4191860">
        <ele>590.8</ele>
        <time>2020-07-27T07:22:01Z</time>
      </trkpt>
      <trkpt lat="42.9764980" lon="-0.4193890">
        <ele>591.6</ele>
        <time>2020-07-27T07:22:07Z</time>
      </trkpt>
      <trkpt lat="42.9764820" lon="-0.4194280">
        <ele>591.8</ele>
        <time>2020-07-27T07:22:08Z</time>
      </trkpt>
      <trkpt lat="42.9763720" lon="-0.4196730">
        <ele>592.8</ele>
        <time>2020-07-27T07:22:15Z</time>
      </trkpt>
      <trkpt lat="42.9762890" lon="-0.4198700">
        <ele>594.0</ele>
        <time>2020-07-27T07:22:21Z</time>
      </trkpt>
      <trkpt lat="42.9762430" lon="-0.4199760">
        <ele>594.4</ele>
        <time>2020-07-27T07:22:24Z</time>
      </trkpt>
      <trkpt lat="42.9761690" lon="-0.4202110">
        <ele>595.0</ele>
        <time>2020-07-27T07:22:30Z</time>
      </trkpt>
      <trkpt lat="42.9761310" lon="-0.4203350">
        <ele>595.6</ele>
        <time>2020-07-27T07:22:33Z</time>
      </trkpt>
      <trkpt lat="42.9760780" lon="-0.4205250">
        <ele>596.0</ele>
        <time>2020-07-27T07:22:38Z</time>
      </trkpt>
      <trkpt lat="42.9760550" lon="-0.4206020">
        <ele>596.2</ele>
        <time>2020-07-27T07:22:40Z</time>
      </trkpt>
      <trkpt lat="42.9759630" lon="-0.4208000">
        <ele>597.4</ele>
        <time>2020-07-27T07:22:46Z</time>
      </trkpt>
      <trkpt lat="42.9758410" lon="-0.4208930">
        <ele>598.4</ele>
        <time>2020-07-27T07:22:51Z</time>
      </trkpt>
      <trkpt lat="42.9758090" lon="-0.4209030">
        <ele>598.4</ele>
        <time>2020-07-27T07:22:52Z</time>
      </trkpt>
      <trkpt lat="42.9757530" lon="-0.4209180">
        <ele>598.8</ele>
        <time>2020-07-27T07:22:54Z</time>
      </trkpt>
      <trkpt lat="42.9756370" lon="-0.4208040">
        <ele>600.6</ele>
        <time>2020-07-27T07:23:43Z</time>
      </trkpt>
      <trkpt lat="42.9756300" lon="-0.4207710">
        <ele>600.6</ele>
        <time>2020-07-27T07:23:44Z</time>
      </trkpt>
      <trkpt lat="42.9756020" lon="-0.4205640">
        <ele>600.6</ele>
        <time>2020-07-27T07:23:48Z</time>
      </trkpt>
      <trkpt lat="42.9755940" lon="-0.4202750">
        <ele>600.6</ele>
        <time>2020-07-27T07:23:53Z</time>
      </trkpt>
      <trkpt lat="42.9756360" lon="-0.4201590">
        <ele>600.8</ele>
        <time>2020-07-27T07:23:56Z</time>
      </trkpt>
      <trkpt lat="42.9756590" lon="-0.4200890">
        <ele>601.2</ele>
        <time>2020-07-27T07:23:58Z</time>
      </trkpt>
      <trkpt lat="42.9757460" lon="-0.4199330">
        <ele>601.8</ele>
        <time>2020-07-27T07:24:03Z</time>
      </trkpt>
      <trkpt lat="42.9757740" lon="-0.4198990">
        <ele>601.8</ele>
        <time>2020-07-27T07:24:04Z</time>
      </trkpt>
      <trkpt lat="42.9759550" lon="-0.4196270">
        <ele>602.8</ele>
        <time>2020-07-27T07:24:11Z</time>
      </trkpt>
      <trkpt lat="42.9760970" lon="-0.4193240">
        <ele>603.8</ele>
        <time>2020-07-27T07:24:18Z</time>
      </trkpt>
      <trkpt lat="42.9761060" lon="-0.4192800">
        <ele>603.8</ele>
        <time>2020-07-27T07:24:19Z</time>
      </trkpt>
      <trkpt lat="42.9761240" lon="-0.4190200">
        <ele>604.8</ele>
        <time>2020-07-27T07:24:25Z</time>
      </trkpt>
      <trkpt lat="42.9761300" lon="-0.4189760">
        <ele>605.0</ele>
        <time>2020-07-27T07:24:26Z</time>
      </trkpt>
      <trkpt lat="42.9762330" lon="-0.4187240">
        <ele>606.0</ele>
        <time>2020-07-27T07:24:32Z</time>
      </trkpt>
      <trkpt lat="42.9763740" lon="-0.4185000">
        <ele>607.0</ele>
        <time>2020-07-27T07:24:38Z</time>
      </trkpt>
      <trkpt lat="42.9764200" lon="-0.4182990">
        <ele>607.6</ele>
        <time>2020-07-27T07:24:43Z</time>
      </trkpt>
      <trkpt lat="42.9764290" lon="-0.4182570">
        <ele>608.2</ele>
        <time>2020-07-27T07:24:44Z</time>
      </trkpt>
      <trkpt lat="42.9765210" lon="-0.4180310">
        <ele>609.2</ele>
        <time>2020-07-27T07:24:50Z</time>
      </trkpt>
      <trkpt lat="42.9765590" lon="-0.4180000">
        <ele>609.4</ele>
        <time>2020-07-27T07:24:51Z</time>
      </trkpt>
      <trkpt lat="42.9767150" lon="-0.4177910">
        <ele>610.4</ele>
        <time>2020-07-27T07:24:57Z</time>
      </trkpt>
      <trkpt lat="42.9767640" lon="-0.4177220">
        <ele>610.6</ele>
        <time>2020-07-27T07:24:59Z</time>
      </trkpt>
      <trkpt lat="42.9769140" lon="-0.4175120">
        <ele>611.6</ele>
        <time>2020-07-27T07:25:05Z</time>
      </trkpt>
      <trkpt lat="42.9770280" lon="-0.4173340">
        <ele>612.2</ele>
        <time>2020-07-27T07:25:10Z</time>
      </trkpt>
      <trkpt lat="42.9770700" lon="-0.4172660">
        <ele>612.6</ele>
        <time>2020-07-27T07:25:12Z</time>
      </trkpt>
      <trkpt lat="42.9771420" lon="-0.4171330">
        <ele>613.4</ele>
        <time>2020-07-27T07:25:16Z</time>
      </trkpt>
      <trkpt lat="42.9771750" lon="-0.4170610">
        <ele>613.6</ele>
        <time>2020-07-27T07:25:18Z</time>
      </trkpt>
      <trkpt lat="42.9772150" lon="-0.4168650">
        <ele>614.8</ele>
        <time>2020-07-27T07:25:23Z</time>
      </trkpt>
      <trkpt lat="42.9772310" lon="-0.4166710">
        <ele>616.0</ele>
        <time>2020-07-27T07:25:28Z</time>
      </trkpt>
      <trkpt lat="42.9772520" lon="-0.4165930">
        <ele>616.4</ele>
        <time>2020-07-27T07:25:30Z</time>
      </trkpt>
      <trkpt lat="42.9772800" lon="-0.4164420">
        <ele>617.2</ele>
        <time>2020-07-27T07:25:34Z</time>
      </trkpt>
      <trkpt lat="42.9773060" lon="-0.4163740">
        <ele>617.6</ele>
        <time>2020-07-27T07:25:36Z</time>
      </trkpt>
      <trkpt lat="42.9773620" lon="-0.4161740">
        <ele>618.4</ele>
        <time>2020-07-27T07:25:41Z</time>
      </trkpt>
      <trkpt lat="42.9773690" lon="-0.4161330">
        <ele>618.4</ele>
        <time>2020-07-27T07:25:42Z</time>
      </trkpt>
      <trkpt lat="42.9773770" lon="-0.4159760">
        <ele>619.2</ele>
        <time>2020-07-27T07:25:47Z</time>
      </trkpt>
      <trkpt lat="42.9773880" lon="-0.4159380">
        <ele>619.4</ele>
        <time>2020-07-27T07:25:49Z</time>
      </trkpt>
      <trkpt lat="42.9773810" lon="-0.4158190">
        <ele>620.4</ele>
        <time>2020-07-27T07:25:53Z</time>
      </trkpt>
      <trkpt lat="42.9773850" lon="-0.4157960">
        <ele>620.6</ele>
        <time>2020-07-27T07:25:54Z</time>
      </trkpt>
      <trkpt lat="42.9773650" lon="-0.4156340">
        <ele>621.2</ele>
        <time>2020-07-27T07:25:58Z</time>
      </trkpt>
      <trkpt lat="42.9773620" lon="-0.4155540">
        <ele>621.6</ele>
        <time>2020-07-27T07:26:00Z</time>
      </trkpt>
      <trkpt lat="42.9773600" lon="-0.4154760">
        <ele>621.8</ele>
        <time>2020-07-27T07:26:02Z</time>
      </trkpt>
      <trkpt lat="42.9773580" lon="-0.4153340">
        <ele>622.6</ele>
        <time>2020-07-27T07:26:07Z</time>
      </trkpt>
      <trkpt lat="42.9773560" lon="-0.4152980">
        <ele>623.0</ele>
        <time>2020-07-27T07:26:08Z</time>
      </trkpt>
      <trkpt lat="42.9773550" lon="-0.4152070">
        <ele>623.6</ele>
        <time>2020-07-27T07:26:11Z</time>
      </trkpt>
      <trkpt lat="42.9773110" lon="-0.4150210">
        <ele>624.2</ele>
        <time>2020-07-27T07:26:14Z</time>
      </trkpt>
      <trkpt lat="42.9773050" lon="-0.4148450">
        <ele>624.8</ele>
        <time>2020-07-27T07:26:17Z</time>
      </trkpt>
      <trkpt lat="42.9773070" lon="-0.4147690">
        <ele>625.2</ele>
        <time>2020-07-27T07:26:19Z</time>
      </trkpt>
      <trkpt lat="42.9773160" lon="-0.4146420">
        <ele>625.8</ele>
        <time>2020-07-27T07:26:22Z</time>
      </trkpt>
      <trkpt lat="42.9773340" lon="-0.4145800">
        <ele>626.0</ele>
        <time>2020-07-27T07:26:23Z</time>
      </trkpt>
      <trkpt lat="42.9774380" lon="-0.4143230">
        <ele>626.8</ele>
        <time>2020-07-27T07:26:28Z</time>
      </trkpt>
      <trkpt lat="42.9774580" lon="-0.4142740">
        <ele>627.0</ele>
        <time>2020-07-27T07:26:29Z</time>
      </trkpt>
      <trkpt lat="42.9774740" lon="-0.4142260">
        <ele>627.0</ele>
        <time>2020-07-27T07:26:30Z</time>
      </trkpt>
      <trkpt lat="42.9775240" lon="-0.4139550">
        <ele>627.6</ele>
        <time>2020-07-27T07:26:36Z</time>
      </trkpt>
      <trkpt lat="42.9775890" lon="-0.4137100">
        <ele>628.2</ele>
        <time>2020-07-27T07:26:42Z</time>
      </trkpt>
      <trkpt lat="42.9776480" lon="-0.4134390">
        <ele>629.2</ele>
        <time>2020-07-27T07:26:49Z</time>
      </trkpt>
      <trkpt lat="42.9776670" lon="-0.4131820">
        <ele>630.4</ele>
        <time>2020-07-27T07:26:55Z</time>
      </trkpt>
      <trkpt lat="42.9776700" lon="-0.4131360">
        <ele>630.4</ele>
        <time>2020-07-27T07:26:56Z</time>
      </trkpt>
      <trkpt lat="42.9776990" lon="-0.4128580">
        <ele>631.4</ele>
        <time>2020-07-27T07:27:02Z</time>
      </trkpt>
      <trkpt lat="42.9777470" lon="-0.4127270">
        <ele>632.0</ele>
        <time>2020-07-27T07:27:05Z</time>
      </trkpt>
      <trkpt lat="42.9777810" lon="-0.4125950">
        <ele>632.2</ele>
        <time>2020-07-27T07:27:08Z</time>
      </trkpt>
      <trkpt lat="42.9778640" lon="-0.4123860">
        <ele>633.2</ele>
        <time>2020-07-27T07:27:13Z</time>
      </trkpt>
      <trkpt lat="42.9778780" lon="-0.4123460">
        <ele>633.4</ele>
        <time>2020-07-27T07:27:14Z</time>
      </trkpt>
      <trkpt lat="42.9780100" lon="-0.4120390">
        <ele>634.4</ele>
        <time>2020-07-27T07:27:22Z</time>
      </trkpt>
      <trkpt lat="42.9780540" lon="-0.4118710">
        <ele>635.2</ele>
        <time>2020-07-27T07:27:27Z</time>
      </trkpt>
      <trkpt lat="42.9780710" lon="-0.4118050">
        <ele>635.4</ele>
        <time>2020-07-27T07:27:29Z</time>
      </trkpt>
      <trkpt lat="42.9780950" lon="-0.4116420">
        <ele>636.0</ele>
        <time>2020-07-27T07:27:33Z</time>
      </trkpt>
      <trkpt lat="42.9781130" lon="-0.4114250">
        <ele>636.6</ele>
        <time>2020-07-27T07:27:38Z</time>
      </trkpt>
      <trkpt lat="42.9781330" lon="-0.4112980">
        <ele>637.0</ele>
        <time>2020-07-27T07:27:41Z</time>
      </trkpt>
      <trkpt lat="42.9781520" lon="-0.4111130">
        <ele>637.6</ele>
        <time>2020-07-27T07:27:45Z</time>
      </trkpt>
      <trkpt lat="42.9781910" lon="-0.4109940">
        <ele>638.2</ele>
        <time>2020-07-27T07:27:48Z</time>
      </trkpt>
      <trkpt lat="42.9782280" lon="-0.4108780">
        <ele>638.8</ele>
        <time>2020-07-27T07:27:51Z</time>
      </trkpt>
      <trkpt lat="42.9782790" lon="-0.4107070">
        <ele>639.4</ele>
        <time>2020-07-27T07:27:55Z</time>
      </trkpt>
      <trkpt lat="42.9782890" lon="-0.4106210">
        <ele>639.8</ele>
        <time>2020-07-27T07:27:57Z</time>
      </trkpt>
      <trkpt lat="42.9782920" lon="-0.4104920">
        <ele>640.2</ele>
        <time>2020-07-27T07:28:00Z</time>
      </trkpt>
      <trkpt lat="42.9782690" lon="-0.4103200">
        <ele>641.0</ele>
        <time>2020-07-27T07:28:04Z</time>
      </trkpt>
      <trkpt lat="42.9782530" lon="-0.4102540">
        <ele>641.4</ele>
        <time>2020-07-27T07:28:06Z</time>
      </trkpt>
      <trkpt lat="42.9782090" lon="-0.4101190">
        <ele>642.2</ele>
        <time>2020-07-27T07:28:11Z</time>
      </trkpt>
      <trkpt lat="42.9781970" lon="-0.4100920">
        <ele>642.4</ele>
        <time>2020-07-27T07:28:12Z</time>
      </trkpt>
      <trkpt lat="42.9781330" lon="-0.4099580">
        <ele>643.4</ele>
        <time>2020-07-27T07:28:17Z</time>
      </trkpt>
      <trkpt lat="42.9780960" lon="-0.4099020">
        <ele>643.6</ele>
        <time>2020-07-27T07:28:19Z</time>
      </trkpt>
      <trkpt lat="42.9780120" lon="-0.4097500">
        <ele>644.4</ele>
        <time>2020-07-27T07:28:24Z</time>
      </trkpt>
      <trkpt lat="42.9779910" lon="-0.4097090">
        <ele>644.6</ele>
        <time>2020-07-27T07:28:25Z</time>
      </trkpt>
      <trkpt lat="42.9779040" lon="-0.4094860">
        <ele>645.4</ele>
        <time>2020-07-27T07:28:30Z</time>
      </trkpt>
      <trkpt lat="42.9779230" lon="-0.4094100">
        <ele>645.8</ele>
        <time>2020-07-27T07:28:32Z</time>
      </trkpt>
      <trkpt lat="42.9779440" lon="-0.4091910">
        <ele>646.6</ele>
        <time>2020-07-27T07:28:37Z</time>
      </trkpt>
      <trkpt lat="42.9779450" lon="-0.4091050">
        <ele>647.2</ele>
        <time>2020-07-27T07:28:39Z</time>
      </trkpt>
      <trkpt lat="42.9779470" lon="-0.4090170">
        <ele>647.6</ele>
        <time>2020-07-27T07:28:41Z</time>
      </trkpt>
      <trkpt lat="42.9779340" lon="-0.4087800">
        <ele>648.6</ele>
        <time>2020-07-27T07:28:46Z</time>
      </trkpt>
      <trkpt lat="42.9779220" lon="-0.4085240">
        <ele>649.8</ele>
        <time>2020-07-27T07:28:53Z</time>
      </trkpt>
      <trkpt lat="42.9779050" lon="-0.4083110">
        <ele>650.6</ele>
        <time>2020-07-27T07:28:58Z</time>
      </trkpt>
      <trkpt lat="42.9778950" lon="-0.4082320">
        <ele>651.0</ele>
        <time>2020-07-27T07:29:00Z</time>
      </trkpt>
      <trkpt lat="42.9778470" lon="-0.4080150">
        <ele>651.4</ele>
        <time>2020-07-27T07:29:05Z</time>
      </trkpt>
      <trkpt lat="42.9777350" lon="-0.4077180">
        <ele>652.0</ele>
        <time>2020-07-27T07:29:11Z</time>
      </trkpt>
      <trkpt lat="42.9777130" lon="-0.4076770">
        <ele>652.2</ele>
        <time>2020-07-27T07:29:12Z</time>
      </trkpt>
      <trkpt lat="42.9775590" lon="-0.4074990">
        <ele>653.2</ele>
        <time>2020-07-27T07:29:18Z</time>
      </trkpt>
      <trkpt lat="42.9775320" lon="-0.4074790">
        <ele>653.2</ele>
        <time>2020-07-27T07:29:19Z</time>
      </trkpt>
      <trkpt lat="42.9773970" lon="-0.4073990">
        <ele>653.6</ele>
        <time>2020-07-27T07:29:24Z</time>
      </trkpt>
      <trkpt lat="42.9773110" lon="-0.4073630">
        <ele>654.2</ele>
        <time>2020-07-27T07:29:27Z</time>
      </trkpt>
      <trkpt lat="42.9772000" lon="-0.4072990">
        <ele>654.8</ele>
        <time>2020-07-27T07:29:31Z</time>
      </trkpt>
      <trkpt lat="42.9771150" lon="-0.4072130">
        <ele>655.2</ele>
        <time>2020-07-27T07:29:34Z</time>
      </trkpt>
      <trkpt lat="42.9770090" lon="-0.4070730">
        <ele>656.0</ele>
        <time>2020-07-27T07:29:38Z</time>
      </trkpt>
      <trkpt lat="42.9769410" lon="-0.4069650">
        <ele>656.4</ele>
        <time>2020-07-27T07:29:41Z</time>
      </trkpt>
      <trkpt lat="42.9768740" lon="-0.4068120">
        <ele>657.2</ele>
        <time>2020-07-27T07:29:45Z</time>
      </trkpt>
      <trkpt lat="42.9768220" lon="-0.4066610">
        <ele>657.6</ele>
        <time>2020-07-27T07:29:49Z</time>
      </trkpt>
      <trkpt lat="42.9767950" lon="-0.4065400">
        <ele>658.2</ele>
        <time>2020-07-27T07:29:52Z</time>
      </trkpt>
      <trkpt lat="42.9767730" lon="-0.4064340">
        <ele>658.8</ele>
        <time>2020-07-27T07:29:55Z</time>
      </trkpt>
      <trkpt lat="42.9767320" lon="-0.4062400">
        <ele>659.4</ele>
        <time>2020-07-27T07:30:00Z</time>
      </trkpt>
      <trkpt lat="42.9767010" lon="-0.4061350">
        <ele>659.8</ele>
        <time>2020-07-27T07:30:03Z</time>
      </trkpt>
      <trkpt lat="42.9766700" lon="-0.4060310">
        <ele>660.2</ele>
        <time>2020-07-27T07:30:06Z</time>
      </trkpt>
      <trkpt lat="42.9766120" lon="-0.4058740">
        <ele>661.0</ele>
        <time>2020-07-27T07:30:11Z</time>
      </trkpt>
      <trkpt lat="42.9765760" lon="-0.4058040">
        <ele>661.4</ele>
        <time>2020-07-27T07:30:13Z</time>
      </trkpt>
      <trkpt lat="42.9763920" lon="-0.4055410">
        <ele>662.2</ele>
        <time>2020-07-27T07:30:21Z</time>
      </trkpt>
      <trkpt lat="42.9762560" lon="-0.4054130">
        <ele>663.2</ele>
        <time>2020-07-27T07:30:26Z</time>
      </trkpt>
      <trkpt lat="42.9761440" lon="-0.4053460">
        <ele>664.2</ele>
        <time>2020-07-27T07:30:30Z</time>
      </trkpt>
      <trkpt lat="42.9761170" lon="-0.4053360">
        <ele>664.4</ele>
        <time>2020-07-27T07:30:31Z</time>
      </trkpt>
      <trkpt lat="42.9760130" lon="-0.4053320">
        <ele>665.0</ele>
        <time>2020-07-27T07:30:36Z</time>
      </trkpt>
      <trkpt lat="42.9759780" lon="-0.4053370">
        <ele>665.4</ele>
        <time>2020-07-27T07:30:38Z</time>
      </trkpt>
      <trkpt lat="42.9758730" lon="-0.4053390">
        <ele>666.4</ele>
        <time>2020-07-27T07:30:42Z</time>
      </trkpt>
      <trkpt lat="42.9758430" lon="-0.4053110">
        <ele>666.6</ele>
        <time>2020-07-27T07:30:43Z</time>
      </trkpt>
      <trkpt lat="42.9756870" lon="-0.4051290">
        <ele>667.2</ele>
        <time>2020-07-27T07:30:48Z</time>
      </trkpt>
      <trkpt lat="42.9755990" lon="-0.4050040">
        <ele>667.6</ele>
        <time>2020-07-27T07:30:51Z</time>
      </trkpt>
      <trkpt lat="42.9754210" lon="-0.4047820">
        <ele>668.4</ele>
        <time>2020-07-27T07:30:58Z</time>
      </trkpt>
      <trkpt lat="42.9753980" lon="-0.4047540">
        <ele>668.6</ele>
        <time>2020-07-27T07:30:59Z</time>
      </trkpt>
      <trkpt lat="42.9752860" lon="-0.4045940">
        <ele>669.8</ele>
        <time>2020-07-27T07:31:04Z</time>
      </trkpt>
      <trkpt lat="42.9752400" lon="-0.4045290">
        <ele>670.0</ele>
        <time>2020-07-27T07:31:06Z</time>
      </trkpt>
      <trkpt lat="42.9751280" lon="-0.4043680">
        <ele>670.8</ele>
        <time>2020-07-27T07:31:11Z</time>
      </trkpt>
      <trkpt lat="42.9750670" lon="-0.4042650">
        <ele>671.2</ele>
        <time>2020-07-27T07:31:14Z</time>
      </trkpt>
      <trkpt lat="42.9750280" lon="-0.4041940">
        <ele>671.6</ele>
        <time>2020-07-27T07:31:16Z</time>
      </trkpt>
      <trkpt lat="42.9750130" lon="-0.4041570">
        <ele>671.8</ele>
        <time>2020-07-27T07:31:17Z</time>
      </trkpt>
      <trkpt lat="42.9749650" lon="-0.4040490">
        <ele>672.0</ele>
        <time>2020-07-27T07:31:20Z</time>
      </trkpt>
      <trkpt lat="42.9749060" lon="-0.4038890">
        <ele>672.8</ele>
        <time>2020-07-27T07:31:25Z</time>
      </trkpt>
      <trkpt lat="42.9748920" lon="-0.4038380">
        <ele>673.2</ele>
        <time>2020-07-27T07:31:27Z</time>
      </trkpt>
      <trkpt lat="42.9748600" lon="-0.4036520">
        <ele>673.8</ele>
        <time>2020-07-27T07:31:32Z</time>
      </trkpt>
      <trkpt lat="42.9748520" lon="-0.4036110">
        <ele>674.0</ele>
        <time>2020-07-27T07:31:33Z</time>
      </trkpt>
      <trkpt lat="42.9747990" lon="-0.4034080">
        <ele>675.2</ele>
        <time>2020-07-27T07:31:38Z</time>
      </trkpt>
      <trkpt lat="42.9747710" lon="-0.4033330">
        <ele>675.6</ele>
        <time>2020-07-27T07:31:40Z</time>
      </trkpt>
      <trkpt lat="42.9747090" lon="-0.4031460">
        <ele>676.4</ele>
        <time>2020-07-27T07:31:45Z</time>
      </trkpt>
      <trkpt lat="42.9746990" lon="-0.4031010">
        <ele>676.4</ele>
        <time>2020-07-27T07:31:46Z</time>
      </trkpt>
      <trkpt lat="42.9746560" lon="-0.4028220">
        <ele>677.4</ele>
        <time>2020-07-27T07:31:52Z</time>
      </trkpt>
      <trkpt lat="42.9746500" lon="-0.4027300">
        <ele>677.6</ele>
        <time>2020-07-27T07:31:54Z</time>
      </trkpt>
      <trkpt lat="42.9746470" lon="-0.4025070">
        <ele>678.6</ele>
        <time>2020-07-27T07:31:59Z</time>
      </trkpt>
      <trkpt lat="42.9746490" lon="-0.4024280">
        <ele>678.8</ele>
        <time>2020-07-27T07:32:01Z</time>
      </trkpt>
      <trkpt lat="42.9746450" lon="-0.4022210">
        <ele>679.4</ele>
        <time>2020-07-27T07:32:06Z</time>
      </trkpt>
      <trkpt lat="42.9746330" lon="-0.4020940">
        <ele>680.2</ele>
        <time>2020-07-27T07:32:09Z</time>
      </trkpt>
      <trkpt lat="42.9746020" lon="-0.4019760">
        <ele>680.6</ele>
        <time>2020-07-27T07:32:12Z</time>
      </trkpt>
      <trkpt lat="42.9745740" lon="-0.4018580">
        <ele>681.2</ele>
        <time>2020-07-27T07:32:15Z</time>
      </trkpt>
      <trkpt lat="42.9745690" lon="-0.4017240">
        <ele>681.8</ele>
        <time>2020-07-27T07:32:19Z</time>
      </trkpt>
      <trkpt lat="42.9745710" lon="-0.4016450">
        <ele>682.2</ele>
        <time>2020-07-27T07:32:21Z</time>
      </trkpt>
      <trkpt lat="42.9745470" lon="-0.4014680">
        <ele>683.0</ele>
        <time>2020-07-27T07:32:26Z</time>
      </trkpt>
      <trkpt lat="42.9745420" lon="-0.4014060">
        <ele>683.2</ele>
        <time>2020-07-27T07:32:28Z</time>
      </trkpt>
      <trkpt lat="42.9745210" lon="-0.4012830">
        <ele>684.0</ele>
        <time>2020-07-27T07:32:32Z</time>
      </trkpt>
      <trkpt lat="42.9745090" lon="-0.4012090">
        <ele>684.2</ele>
        <time>2020-07-27T07:32:34Z</time>
      </trkpt>
      <trkpt lat="42.9744840" lon="-0.4010460">
        <ele>685.0</ele>
        <time>2020-07-27T07:32:38Z</time>
      </trkpt>
      <trkpt lat="42.9744730" lon="-0.4009570">
        <ele>685.4</ele>
        <time>2020-07-27T07:32:41Z</time>
      </trkpt>
      <trkpt lat="42.9744580" lon="-0.4008020">
        <ele>686.0</ele>
        <time>2020-07-27T07:32:45Z</time>
      </trkpt>
      <trkpt lat="42.9744520" lon="-0.4007240">
        <ele>686.4</ele>
        <time>2020-07-27T07:32:47Z</time>
      </trkpt>
      <trkpt lat="42.9744510" lon="-0.4005670">
        <ele>687.2</ele>
        <time>2020-07-27T07:32:51Z</time>
      </trkpt>
      <trkpt lat="42.9744480" lon="-0.4005210">
        <ele>687.2</ele>
        <time>2020-07-27T07:32:52Z</time>
      </trkpt>
      <trkpt lat="42.9744360" lon="-0.4002070">
        <ele>688.2</ele>
        <time>2020-07-27T07:32:58Z</time>
      </trkpt>
      <trkpt lat="42.9744350" lon="-0.4001530">
        <ele>688.2</ele>
        <time>2020-07-27T07:32:59Z</time>
      </trkpt>
      <trkpt lat="42.9744160" lon="-0.3998090">
        <ele>689.4</ele>
        <time>2020-07-27T07:33:06Z</time>
      </trkpt>
      <trkpt lat="42.9744080" lon="-0.3997620">
        <ele>689.6</ele>
        <time>2020-07-27T07:33:07Z</time>
      </trkpt>
      <trkpt lat="42.9743900" lon="-0.3995420">
        <ele>690.4</ele>
        <time>2020-07-27T07:33:12Z</time>
      </trkpt>
      <trkpt lat="42.9743860" lon="-0.3994160">
        <ele>690.8</ele>
        <time>2020-07-27T07:33:15Z</time>
      </trkpt>
      <trkpt lat="42.9743820" lon="-0.3992720">
        <ele>691.6</ele>
        <time>2020-07-27T07:33:19Z</time>
      </trkpt>
      <trkpt lat="42.9743680" lon="-0.3992020">
        <ele>691.8</ele>
        <time>2020-07-27T07:33:21Z</time>
      </trkpt>
      <trkpt lat="42.9743260" lon="-0.3990080">
        <ele>692.6</ele>
        <time>2020-07-27T07:33:26Z</time>
      </trkpt>
      <trkpt lat="42.9743060" lon="-0.3989240">
        <ele>693.0</ele>
        <time>2020-07-27T07:33:28Z</time>
      </trkpt>
      <trkpt lat="42.9743050" lon="-0.3988090">
        <ele>693.8</ele>
        <time>2020-07-27T07:33:31Z</time>
      </trkpt>
      <trkpt lat="42.9742930" lon="-0.3987110">
        <ele>694.0</ele>
        <time>2020-07-27T07:33:33Z</time>
      </trkpt>
      <trkpt lat="42.9742970" lon="-0.3985550">
        <ele>694.8</ele>
        <time>2020-07-27T07:33:37Z</time>
      </trkpt>
      <trkpt lat="42.9743040" lon="-0.3984780">
        <ele>694.8</ele>
        <time>2020-07-27T07:33:39Z</time>
      </trkpt>
      <trkpt lat="42.9742650" lon="-0.3982280">
        <ele>695.8</ele>
        <time>2020-07-27T07:33:45Z</time>
      </trkpt>
      <trkpt lat="42.9742500" lon="-0.3981840">
        <ele>695.8</ele>
        <time>2020-07-27T07:33:46Z</time>
      </trkpt>
      <trkpt lat="42.9742340" lon="-0.3981400">
        <ele>696.0</ele>
        <time>2020-07-27T07:33:47Z</time>
      </trkpt>
      <trkpt lat="42.9741730" lon="-0.3980310">
        <ele>696.8</ele>
        <time>2020-07-27T07:33:50Z</time>
      </trkpt>
      <trkpt lat="42.9741500" lon="-0.3979990">
        <ele>697.0</ele>
        <time>2020-07-27T07:33:51Z</time>
      </trkpt>
      <trkpt lat="42.9739940" lon="-0.3978200">
        <ele>698.0</ele>
        <time>2020-07-27T07:33:57Z</time>
      </trkpt>
      <trkpt lat="42.9739400" lon="-0.3977570">
        <ele>698.2</ele>
        <time>2020-07-27T07:33:59Z</time>
      </trkpt>
      <trkpt lat="42.9738160" lon="-0.3975340">
        <ele>698.8</ele>
        <time>2020-07-27T07:34:05Z</time>
      </trkpt>
      <trkpt lat="42.9737990" lon="-0.3972100">
        <ele>700.0</ele>
        <time>2020-07-27T07:34:11Z</time>
      </trkpt>
      <trkpt lat="42.9738070" lon="-0.3969970">
        <ele>701.2</ele>
        <time>2020-07-27T07:34:16Z</time>
      </trkpt>
      <trkpt lat="42.9738070" lon="-0.3969590">
        <ele>701.4</ele>
        <time>2020-07-27T07:34:17Z</time>
      </trkpt>
      <trkpt lat="42.9738560" lon="-0.3967600">
        <ele>702.2</ele>
        <time>2020-07-27T07:34:22Z</time>
      </trkpt>
      <trkpt lat="42.9739130" lon="-0.3966420">
        <ele>702.8</ele>
        <time>2020-07-27T07:34:25Z</time>
      </trkpt>
      <trkpt lat="42.9739380" lon="-0.3965180">
        <ele>703.4</ele>
        <time>2020-07-27T07:34:28Z</time>
      </trkpt>
      <trkpt lat="42.9739580" lon="-0.3963950">
        <ele>703.8</ele>
        <time>2020-07-27T07:34:31Z</time>
      </trkpt>
      <trkpt lat="42.9739570" lon="-0.3962370">
        <ele>704.4</ele>
        <time>2020-07-27T07:34:35Z</time>
      </trkpt>
      <trkpt lat="42.9739780" lon="-0.3961140">
        <ele>704.6</ele>
        <time>2020-07-27T07:34:38Z</time>
      </trkpt>
      <trkpt lat="42.9740110" lon="-0.3959490">
        <ele>705.4</ele>
        <time>2020-07-27T07:34:42Z</time>
      </trkpt>
      <trkpt lat="42.9740310" lon="-0.3958270">
        <ele>705.8</ele>
        <time>2020-07-27T07:34:45Z</time>
      </trkpt>
      <trkpt lat="42.9740680" lon="-0.3957070">
        <ele>706.4</ele>
        <time>2020-07-27T07:34:48Z</time>
      </trkpt>
      <trkpt lat="42.9741310" lon="-0.3955480">
        <ele>706.8</ele>
        <time>2020-07-27T07:34:52Z</time>
      </trkpt>
      <trkpt lat="42.9741450" lon="-0.3954000">
        <ele>707.6</ele>
        <time>2020-07-27T07:34:56Z</time>
      </trkpt>
      <trkpt lat="42.9741300" lon="-0.3953260">
        <ele>707.6</ele>
        <time>2020-07-27T07:34:58Z</time>
      </trkpt>
      <trkpt lat="42.9740810" lon="-0.3951470">
        <ele>708.6</ele>
        <time>2020-07-27T07:35:03Z</time>
      </trkpt>
      <trkpt lat="42.9740510" lon="-0.3950380">
        <ele>709.0</ele>
        <time>2020-07-27T07:35:06Z</time>
      </trkpt>
      <trkpt lat="42.9740140" lon="-0.3948740">
        <ele>709.6</ele>
        <time>2020-07-27T07:35:10Z</time>
      </trkpt>
      <trkpt lat="42.9740020" lon="-0.3947730">
        <ele>710.0</ele>
        <time>2020-07-27T07:35:13Z</time>
      </trkpt>
      <trkpt lat="42.9739810" lon="-0.3945170">
        <ele>710.6</ele>
        <time>2020-07-27T07:35:19Z</time>
      </trkpt>
      <trkpt lat="42.9739760" lon="-0.3944250">
        <ele>711.0</ele>
        <time>2020-07-27T07:35:21Z</time>
      </trkpt>
      <trkpt lat="42.9739700" lon="-0.3942560">
        <ele>711.6</ele>
        <time>2020-07-27T07:35:25Z</time>
      </trkpt>
      <trkpt lat="42.9739420" lon="-0.3941340">
        <ele>712.0</ele>
        <time>2020-07-27T07:35:28Z</time>
      </trkpt>
      <trkpt lat="42.9738560" lon="-0.3939550">
        <ele>712.6</ele>
        <time>2020-07-27T07:35:33Z</time>
      </trkpt>
      <trkpt lat="42.9738340" lon="-0.3939220">
        <ele>712.8</ele>
        <time>2020-07-27T07:35:34Z</time>
      </trkpt>
      <trkpt lat="42.9736820" lon="-0.3937770">
        <ele>713.6</ele>
        <time>2020-07-27T07:35:40Z</time>
      </trkpt>
      <trkpt lat="42.9736550" lon="-0.3937550">
        <ele>713.8</ele>
        <time>2020-07-27T07:35:41Z</time>
      </trkpt>
      <trkpt lat="42.9735160" lon="-0.3936690">
        <ele>714.8</ele>
        <time>2020-07-27T07:35:46Z</time>
      </trkpt>
      <trkpt lat="42.9734080" lon="-0.3936070">
        <ele>715.6</ele>
        <time>2020-07-27T07:35:50Z</time>
      </trkpt>
      <trkpt lat="42.9733820" lon="-0.3935890">
        <ele>716.0</ele>
        <time>2020-07-27T07:35:51Z</time>
      </trkpt>
      <trkpt lat="42.9732390" lon="-0.3934670">
        <ele>717.0</ele>
        <time>2020-07-27T07:35:57Z</time>
      </trkpt>
      <trkpt lat="42.9731910" lon="-0.3934310">
        <ele>717.8</ele>
        <time>2020-07-27T07:35:59Z</time>
      </trkpt>
      <trkpt lat="42.9731420" lon="-0.3933900">
        <ele>718.2</ele>
        <time>2020-07-27T07:36:01Z</time>
      </trkpt>
      <trkpt lat="42.9730370" lon="-0.3932940">
        <ele>719.4</ele>
        <time>2020-07-27T07:36:06Z</time>
      </trkpt>
      <trkpt lat="42.9729140" lon="-0.3931770">
        <ele>720.4</ele>
        <time>2020-07-27T07:36:12Z</time>
      </trkpt>
      <trkpt lat="42.9728920" lon="-0.3931560">
        <ele>720.6</ele>
        <time>2020-07-27T07:36:13Z</time>
      </trkpt>
      <trkpt lat="42.9728140" lon="-0.3930780">
        <ele>721.4</ele>
        <time>2020-07-27T07:36:17Z</time>
      </trkpt>
      <trkpt lat="42.9727560" lon="-0.3930290">
        <ele>721.8</ele>
        <time>2020-07-27T07:36:20Z</time>
      </trkpt>
      <trkpt lat="42.9727010" lon="-0.3929610">
        <ele>722.6</ele>
        <time>2020-07-27T07:36:23Z</time>
      </trkpt>
      <trkpt lat="42.9726460" lon="-0.3928900">
        <ele>723.4</ele>
        <time>2020-07-27T07:36:26Z</time>
      </trkpt>
      <trkpt lat="42.9726080" lon="-0.3928540">
        <ele>724.0</ele>
        <time>2020-07-27T07:36:28Z</time>
      </trkpt>
      <trkpt lat="42.9725320" lon="-0.3927740">
        <ele>725.2</ele>
        <time>2020-07-27T07:36:32Z</time>
      </trkpt>
      <trkpt lat="42.9724920" lon="-0.3927350">
        <ele>725.8</ele>
        <time>2020-07-27T07:36:34Z</time>
      </trkpt>
      <trkpt lat="42.9724540" lon="-0.3926930">
        <ele>726.0</ele>
        <time>2020-07-27T07:36:36Z</time>
      </trkpt>
      <trkpt lat="42.9723710" lon="-0.3925760">
        <ele>726.8</ele>
        <time>2020-07-27T07:36:41Z</time>
      </trkpt>
      <trkpt lat="42.9723360" lon="-0.3925230">
        <ele>727.0</ele>
        <time>2020-07-27T07:36:43Z</time>
      </trkpt>
      <trkpt lat="42.9722440" lon="-0.3923990">
        <ele>728.0</ele>
        <time>2020-07-27T07:36:48Z</time>
      </trkpt>
      <trkpt lat="42.9722090" lon="-0.3923470">
        <ele>728.4</ele>
        <time>2020-07-27T07:36:50Z</time>
      </trkpt>
      <trkpt lat="42.9721620" lon="-0.3922680">
        <ele>729.0</ele>
        <time>2020-07-27T07:36:53Z</time>
      </trkpt>
      <trkpt lat="42.9720990" lon="-0.3921550">
        <ele>729.6</ele>
        <time>2020-07-27T07:36:57Z</time>
      </trkpt>
      <trkpt lat="42.9720830" lon="-0.3921240">
        <ele>730.0</ele>
        <time>2020-07-27T07:36:58Z</time>
      </trkpt>
      <trkpt lat="42.9720330" lon="-0.3920380">
        <ele>731.0</ele>
        <time>2020-07-27T07:37:01Z</time>
      </trkpt>
      <trkpt lat="42.9719740" lon="-0.3919770">
        <ele>731.6</ele>
        <time>2020-07-27T07:37:04Z</time>
      </trkpt>
      <trkpt lat="42.9719400" lon="-0.3919350">
        <ele>732.2</ele>
        <time>2020-07-27T07:37:06Z</time>
      </trkpt>
      <trkpt lat="42.9718810" lon="-0.3918550">
        <ele>733.0</ele>
        <time>2020-07-27T07:37:10Z</time>
      </trkpt>
      <trkpt lat="42.9718690" lon="-0.3918360">
        <ele>733.0</ele>
        <time>2020-07-27T07:37:11Z</time>
      </trkpt>
      <trkpt lat="42.9718530" lon="-0.3916670">
        <ele>734.2</ele>
        <time>2020-07-27T07:37:16Z</time>
      </trkpt>
      <trkpt lat="42.9718530" lon="-0.3916350">
        <ele>734.6</ele>
        <time>2020-07-27T07:37:17Z</time>
      </trkpt>
      <trkpt lat="42.9718560" lon="-0.3915300">
        <ele>735.4</ele>
        <time>2020-07-27T07:37:20Z</time>
      </trkpt>
      <trkpt lat="42.9718710" lon="-0.3914970">
        <ele>735.8</ele>
        <time>2020-07-27T07:37:21Z</time>
      </trkpt>
      <trkpt lat="42.9719310" lon="-0.3914090">
        <ele>736.4</ele>
        <time>2020-07-27T07:37:24Z</time>
      </trkpt>
      <trkpt lat="42.9719560" lon="-0.3913750">
        <ele>736.6</ele>
        <time>2020-07-27T07:37:25Z</time>
      </trkpt>
      <trkpt lat="42.9720510" lon="-0.3912290">
        <ele>736.8</ele>
        <time>2020-07-27T07:37:30Z</time>
      </trkpt>
      <trkpt lat="42.9721540" lon="-0.3912270">
        <ele>737.0</ele>
        <time>2020-07-27T07:37:33Z</time>
      </trkpt>
      <trkpt lat="42.9722430" lon="-0.3913170">
        <ele>737.0</ele>
        <time>2020-07-27T07:37:35Z</time>
      </trkpt>
      <trkpt lat="42.9722900" lon="-0.3913700">
        <ele>737.0</ele>
        <time>2020-07-27T07:37:36Z</time>
      </trkpt>
      <trkpt lat="42.9725710" lon="-0.3917820">
        <ele>736.2</ele>
        <time>2020-07-27T07:37:42Z</time>
      </trkpt>
      <trkpt lat="42.9726550" lon="-0.3918790">
        <ele>735.2</ele>
        <time>2020-07-27T07:37:44Z</time>
      </trkpt>
      <trkpt lat="42.9727610" lon="-0.3918320">
        <ele>733.8</ele>
        <time>2020-07-27T07:37:46Z</time>
      </trkpt>
      <trkpt lat="42.9728620" lon="-0.3917460">
        <ele>732.2</ele>
        <time>2020-07-27T07:37:49Z</time>
      </trkpt>
      <trkpt lat="42.9729440" lon="-0.3916720">
        <ele>731.6</ele>
        <time>2020-07-27T07:37:52Z</time>
      </trkpt>
      <trkpt lat="42.9729740" lon="-0.3916430">
        <ele>731.6</ele>
        <time>2020-07-27T07:37:55Z</time>
      </trkpt>
      <trkpt lat="42.9729790" lon="-0.3915970">
        <ele>731.6</ele>
        <time>2020-07-27T07:37:57Z</time>
      </trkpt>
      <trkpt lat="42.9729660" lon="-0.3914970">
        <ele>732.4</ele>
        <time>2020-07-27T07:38:01Z</time>
      </trkpt>
      <trkpt lat="42.9729620" lon="-0.3914630">
        <ele>732.4</ele>
        <time>2020-07-27T07:38:02Z</time>
      </trkpt>
      <trkpt lat="42.9730510" lon="-0.3913260">
        <ele>733.2</ele>
        <time>2020-07-27T07:38:05Z</time>
      </trkpt>
      <trkpt lat="42.9731370" lon="-0.3912470">
        <ele>733.8</ele>
        <time>2020-07-27T07:38:07Z</time>
      </trkpt>
      <trkpt lat="42.9731400" lon="-0.3911450">
        <ele>734.4</ele>
        <time>2020-07-27T07:38:10Z</time>
      </trkpt>
      <trkpt lat="42.9731210" lon="-0.3910800">
        <ele>734.8</ele>
        <time>2020-07-27T07:38:12Z</time>
      </trkpt>
      <trkpt lat="42.9730510" lon="-0.3908890">
        <ele>735.6</ele>
        <time>2020-07-27T07:38:18Z</time>
      </trkpt>
      <trkpt lat="42.9730120" lon="-0.3908010">
        <ele>736.2</ele>
        <time>2020-07-27T07:38:21Z</time>
      </trkpt>
      <trkpt lat="42.9729840" lon="-0.3907480">
        <ele>736.8</ele>
        <time>2020-07-27T07:38:23Z</time>
      </trkpt>
      <trkpt lat="42.9729450" lon="-0.3906590">
        <ele>737.8</ele>
        <time>2020-07-27T07:38:26Z</time>
      </trkpt>
      <trkpt lat="42.9729110" lon="-0.3905630">
        <ele>738.6</ele>
        <time>2020-07-27T07:38:29Z</time>
      </trkpt>
      <trkpt lat="42.9728830" lon="-0.3905010">
        <ele>739.0</ele>
        <time>2020-07-27T07:38:31Z</time>
      </trkpt>
      <trkpt lat="42.9728340" lon="-0.3903530">
        <ele>739.8</ele>
        <time>2020-07-27T07:38:36Z</time>
      </trkpt>
      <trkpt lat="42.9728240" lon="-0.3903280">
        <ele>740.2</ele>
        <time>2020-07-27T07:38:37Z</time>
      </trkpt>
      <trkpt lat="42.9727840" lon="-0.3901450">
        <ele>741.2</ele>
        <time>2020-07-27T07:38:43Z</time>
      </trkpt>
      <trkpt lat="42.9727770" lon="-0.3901130">
        <ele>741.6</ele>
        <time>2020-07-27T07:38:44Z</time>
      </trkpt>
      <trkpt lat="42.9727110" lon="-0.3899120">
        <ele>742.6</ele>
        <time>2020-07-27T07:38:50Z</time>
      </trkpt>
      <trkpt lat="42.9727010" lon="-0.3898770">
        <ele>742.8</ele>
        <time>2020-07-27T07:38:51Z</time>
      </trkpt>
      <trkpt lat="42.9726600" lon="-0.3897060">
        <ele>743.8</ele>
        <time>2020-07-27T07:38:56Z</time>
      </trkpt>
      <trkpt lat="42.9726320" lon="-0.3895660">
        <ele>744.2</ele>
        <time>2020-07-27T07:39:00Z</time>
      </trkpt>
      <trkpt lat="42.9726170" lon="-0.3894910">
        <ele>744.8</ele>
        <time>2020-07-27T07:39:02Z</time>
      </trkpt>
      <trkpt lat="42.9725520" lon="-0.3893030">
        <ele>745.8</ele>
        <time>2020-07-27T07:39:08Z</time>
      </trkpt>
      <trkpt lat="42.9725290" lon="-0.3892340">
        <ele>746.2</ele>
        <time>2020-07-27T07:39:10Z</time>
      </trkpt>
      <trkpt lat="42.9724940" lon="-0.3891360">
        <ele>747.0</ele>
        <time>2020-07-27T07:39:13Z</time>
      </trkpt>
      <trkpt lat="42.9724360" lon="-0.3890160">
        <ele>748.0</ele>
        <time>2020-07-27T07:39:17Z</time>
      </trkpt>
      <trkpt lat="42.9724210" lon="-0.3889840">
        <ele>748.4</ele>
        <time>2020-07-27T07:39:18Z</time>
      </trkpt>
      <trkpt lat="42.9723610" lon="-0.3888610">
        <ele>749.2</ele>
        <time>2020-07-27T07:39:22Z</time>
      </trkpt>
      <trkpt lat="42.9722910" lon="-0.3887310">
        <ele>750.4</ele>
        <time>2020-07-27T07:39:27Z</time>
      </trkpt>
      <trkpt lat="42.9722640" lon="-0.3886840">
        <ele>750.8</ele>
        <time>2020-07-27T07:39:29Z</time>
      </trkpt>
      <trkpt lat="42.9722340" lon="-0.3886240">
        <ele>751.4</ele>
        <time>2020-07-27T07:39:32Z</time>
      </trkpt>
      <trkpt lat="42.9722190" lon="-0.3885750">
        <ele>751.6</ele>
        <time>2020-07-27T07:39:34Z</time>
      </trkpt>
      <trkpt lat="42.9721720" lon="-0.3884550">
        <ele>752.6</ele>
        <time>2020-07-27T07:39:38Z</time>
      </trkpt>
      <trkpt lat="42.9721510" lon="-0.3883910">
        <ele>753.0</ele>
        <time>2020-07-27T07:39:40Z</time>
      </trkpt>
      <trkpt lat="42.9721190" lon="-0.3882360">
        <ele>753.6</ele>
        <time>2020-07-27T07:39:44Z</time>
      </trkpt>
      <trkpt lat="42.9721040" lon="-0.3881590">
        <ele>754.0</ele>
        <time>2020-07-27T07:39:46Z</time>
      </trkpt>
      <trkpt lat="42.9720750" lon="-0.3880370">
        <ele>754.8</ele>
        <time>2020-07-27T07:39:49Z</time>
      </trkpt>
      <trkpt lat="42.9720450" lon="-0.3879110">
        <ele>755.8</ele>
        <time>2020-07-27T07:39:53Z</time>
      </trkpt>
      <trkpt lat="42.9720370" lon="-0.3878870">
        <ele>755.6</ele>
        <time>2020-07-27T07:39:54Z</time>
      </trkpt>
      <trkpt lat="42.9720130" lon="-0.3877500">
        <ele>756.4</ele>
        <time>2020-07-27T07:39:59Z</time>
      </trkpt>
      <trkpt lat="42.9719960" lon="-0.3876660">
        <ele>756.8</ele>
        <time>2020-07-27T07:40:01Z</time>
      </trkpt>
      <trkpt lat="42.9719380" lon="-0.3874770">
        <ele>758.0</ele>
        <time>2020-07-27T07:40:07Z</time>
      </trkpt>
      <trkpt lat="42.9718790" lon="-0.3872730">
        <ele>759.0</ele>
        <time>2020-07-27T07:40:13Z</time>
      </trkpt>
      <trkpt lat="42.9718110" lon="-0.3870480">
        <ele>760.0</ele>
        <time>2020-07-27T07:40:19Z</time>
      </trkpt>
      <trkpt lat="42.9717950" lon="-0.3870060">
        <ele>760.2</ele>
        <time>2020-07-27T07:40:20Z</time>
      </trkpt>
      <trkpt lat="42.9717590" lon="-0.3868880">
        <ele>761.2</ele>
        <time>2020-07-27T07:40:23Z</time>
      </trkpt>
      <trkpt lat="42.9717200" lon="-0.3867700">
        <ele>762.0</ele>
        <time>2020-07-27T07:40:26Z</time>
      </trkpt>
      <trkpt lat="42.9717110" lon="-0.3867370">
        <ele>762.4</ele>
        <time>2020-07-27T07:40:27Z</time>
      </trkpt>
      <trkpt lat="42.9716580" lon="-0.3865880">
        <ele>763.2</ele>
        <time>2020-07-27T07:40:32Z</time>
      </trkpt>
      <trkpt lat="42.9716430" lon="-0.3865540">
        <ele>763.4</ele>
        <time>2020-07-27T07:40:33Z</time>
      </trkpt>
      <trkpt lat="42.9716180" lon="-0.3863890">
        <ele>764.4</ele>
        <time>2020-07-27T07:40:37Z</time>
      </trkpt>
      <trkpt lat="42.9716200" lon="-0.3863440">
        <ele>764.6</ele>
        <time>2020-07-27T07:40:38Z</time>
      </trkpt>
      <trkpt lat="42.9716360" lon="-0.3861670">
        <ele>765.2</ele>
        <time>2020-07-27T07:40:42Z</time>
      </trkpt>
      <trkpt lat="42.9716620" lon="-0.3860340">
        <ele>766.0</ele>
        <time>2020-07-27T07:40:45Z</time>
      </trkpt>
      <trkpt lat="42.9716710" lon="-0.3859910">
        <ele>766.2</ele>
        <time>2020-07-27T07:40:46Z</time>
      </trkpt>
      <trkpt lat="42.9717030" lon="-0.3857920">
        <ele>767.4</ele>
        <time>2020-07-27T07:40:51Z</time>
      </trkpt>
      <trkpt lat="42.9717190" lon="-0.3857180">
        <ele>767.6</ele>
        <time>2020-07-27T07:40:53Z</time>
      </trkpt>
      <trkpt lat="42.9717390" lon="-0.3856140">
        <ele>768.2</ele>
        <time>2020-07-27T07:40:56Z</time>
      </trkpt>
      <trkpt lat="42.9717790" lon="-0.3854370">
        <ele>769.2</ele>
        <time>2020-07-27T07:41:01Z</time>
      </trkpt>
      <trkpt lat="42.9717930" lon="-0.3853680">
        <ele>769.6</ele>
        <time>2020-07-27T07:41:03Z</time>
      </trkpt>
      <trkpt lat="42.9718360" lon="-0.3852690">
        <ele>770.4</ele>
        <time>2020-07-27T07:41:06Z</time>
      </trkpt>
      <trkpt lat="42.9718380" lon="-0.3851550">
        <ele>771.0</ele>
        <time>2020-07-27T07:41:09Z</time>
      </trkpt>
      <trkpt lat="42.9718470" lon="-0.3850800">
        <ele>771.2</ele>
        <time>2020-07-27T07:41:11Z</time>
      </trkpt>
      <trkpt lat="42.9718580" lon="-0.3848650">
        <ele>772.0</ele>
        <time>2020-07-27T07:41:17Z</time>
      </trkpt>
      <trkpt lat="42.9718330" lon="-0.3847650">
        <ele>772.4</ele>
        <time>2020-07-27T07:41:20Z</time>
      </trkpt>
      <trkpt lat="42.9717800" lon="-0.3846090">
        <ele>773.4</ele>
        <time>2020-07-27T07:41:25Z</time>
      </trkpt>
      <trkpt lat="42.9717060" lon="-0.3844580">
        <ele>774.6</ele>
        <time>2020-07-27T07:41:30Z</time>
      </trkpt>
      <trkpt lat="42.9716470" lon="-0.3843300">
        <ele>775.6</ele>
        <time>2020-07-27T07:41:34Z</time>
      </trkpt>
      <trkpt lat="42.9715860" lon="-0.3842020">
        <ele>776.8</ele>
        <time>2020-07-27T07:41:38Z</time>
      </trkpt>
      <trkpt lat="42.9715600" lon="-0.3841340">
        <ele>777.2</ele>
        <time>2020-07-27T07:41:40Z</time>
      </trkpt>
      <trkpt lat="42.9715210" lon="-0.3840380">
        <ele>777.6</ele>
        <time>2020-07-27T07:41:43Z</time>
      </trkpt>
      <trkpt lat="42.9714640" lon="-0.3838400">
        <ele>779.0</ele>
        <time>2020-07-27T07:41:49Z</time>
      </trkpt>
      <trkpt lat="42.9714020" lon="-0.3836930">
        <ele>780.2</ele>
        <time>2020-07-27T07:41:54Z</time>
      </trkpt>
      <trkpt lat="42.9713730" lon="-0.3835910">
        <ele>780.8</ele>
        <time>2020-07-27T07:41:57Z</time>
      </trkpt>
      <trkpt lat="42.9713430" lon="-0.3834920">
        <ele>781.2</ele>
        <time>2020-07-27T07:42:00Z</time>
      </trkpt>
      <trkpt lat="42.9712840" lon="-0.3833360">
        <ele>782.2</ele>
        <time>2020-07-27T07:42:05Z</time>
      </trkpt>
      <trkpt lat="42.9712700" lon="-0.3833070">
        <ele>782.2</ele>
        <time>2020-07-27T07:42:06Z</time>
      </trkpt>
      <trkpt lat="42.9712010" lon="-0.3830920">
        <ele>783.2</ele>
        <time>2020-07-27T07:42:12Z</time>
      </trkpt>
      <trkpt lat="42.9711690" lon="-0.3829830">
        <ele>783.8</ele>
        <time>2020-07-27T07:42:15Z</time>
      </trkpt>
      <trkpt lat="42.9711470" lon="-0.3829200">
        <ele>784.2</ele>
        <time>2020-07-27T07:42:17Z</time>
      </trkpt>
      <trkpt lat="42.9710540" lon="-0.3827310">
        <ele>785.4</ele>
        <time>2020-07-27T07:42:23Z</time>
      </trkpt>
      <trkpt lat="42.9710340" lon="-0.3827050">
        <ele>785.6</ele>
        <time>2020-07-27T07:42:24Z</time>
      </trkpt>
      <trkpt lat="42.9709250" lon="-0.3826100">
        <ele>786.4</ele>
        <time>2020-07-27T07:42:29Z</time>
      </trkpt>
      <trkpt lat="42.9708530" lon="-0.3825670">
        <ele>786.8</ele>
        <time>2020-07-27T07:42:32Z</time>
      </trkpt>
      <trkpt lat="42.9708100" lon="-0.3825450">
        <ele>787.4</ele>
        <time>2020-07-27T07:42:34Z</time>
      </trkpt>
      <trkpt lat="42.9707380" lon="-0.3825060">
        <ele>788.2</ele>
        <time>2020-07-27T07:42:37Z</time>
      </trkpt>
      <trkpt lat="42.9707160" lon="-0.3824950">
        <ele>788.4</ele>
        <time>2020-07-27T07:42:38Z</time>
      </trkpt>
      <trkpt lat="42.9706050" lon="-0.3824510">
        <ele>789.6</ele>
        <time>2020-07-27T07:42:43Z</time>
      </trkpt>
      <trkpt lat="42.9704900" lon="-0.3823550">
        <ele>791.0</ele>
        <time>2020-07-27T07:42:48Z</time>
      </trkpt>
      <trkpt lat="42.9704410" lon="-0.3822990">
        <ele>791.4</ele>
        <time>2020-07-27T07:42:50Z</time>
      </trkpt>
      <trkpt lat="42.9703510" lon="-0.3821930">
        <ele>791.8</ele>
        <time>2020-07-27T07:42:54Z</time>
      </trkpt>
      <trkpt lat="42.9702950" lon="-0.3820580">
        <ele>792.8</ele>
        <time>2020-07-27T07:42:58Z</time>
      </trkpt>
      <trkpt lat="42.9702880" lon="-0.3820220">
        <ele>793.0</ele>
        <time>2020-07-27T07:42:59Z</time>
      </trkpt>
      <trkpt lat="42.9702490" lon="-0.3818630">
        <ele>794.2</ele>
        <time>2020-07-27T07:43:04Z</time>
      </trkpt>
      <trkpt lat="42.9702410" lon="-0.3818380">
        <ele>794.4</ele>
        <time>2020-07-27T07:43:05Z</time>
      </trkpt>
      <trkpt lat="42.9701890" lon="-0.3816560">
        <ele>795.2</ele>
        <time>2020-07-27T07:43:11Z</time>
      </trkpt>
      <trkpt lat="42.9701360" lon="-0.3814770">
        <ele>796.6</ele>
        <time>2020-07-27T07:43:17Z</time>
      </trkpt>
      <trkpt lat="42.9700920" lon="-0.3812920">
        <ele>797.4</ele>
        <time>2020-07-27T07:43:23Z</time>
      </trkpt>
      <trkpt lat="42.9700790" lon="-0.3812320">
        <ele>797.8</ele>
        <time>2020-07-27T07:43:25Z</time>
      </trkpt>
      <trkpt lat="42.9700400" lon="-0.3811140">
        <ele>798.4</ele>
        <time>2020-07-27T07:43:29Z</time>
      </trkpt>
      <trkpt lat="42.9699810" lon="-0.3809620">
        <ele>799.6</ele>
        <time>2020-07-27T07:43:34Z</time>
      </trkpt>
      <trkpt lat="42.9699280" lon="-0.3808740">
        <ele>800.6</ele>
        <time>2020-07-27T07:43:37Z</time>
      </trkpt>
      <trkpt lat="42.9698460" lon="-0.3807190">
        <ele>801.6</ele>
        <time>2020-07-27T07:43:42Z</time>
      </trkpt>
      <trkpt lat="42.9698300" lon="-0.3806920">
        <ele>802.0</ele>
        <time>2020-07-27T07:43:43Z</time>
      </trkpt>
      <trkpt lat="42.9697820" lon="-0.3806330">
        <ele>802.8</ele>
        <time>2020-07-27T07:43:46Z</time>
      </trkpt>
      <trkpt lat="42.9697350" lon="-0.3806280">
        <ele>803.0</ele>
        <time>2020-07-27T07:43:48Z</time>
      </trkpt>
      <trkpt lat="42.9697040" lon="-0.3807240">
        <ele>803.8</ele>
        <time>2020-07-27T07:43:52Z</time>
      </trkpt>
      <trkpt lat="42.9697040" lon="-0.3807580">
        <ele>804.0</ele>
        <time>2020-07-27T07:43:53Z</time>
      </trkpt>
      <trkpt lat="42.9697200" lon="-0.3808820">
        <ele>804.8</ele>
        <time>2020-07-27T07:43:57Z</time>
      </trkpt>
      <trkpt lat="42.9697250" lon="-0.3809110">
        <ele>805.2</ele>
        <time>2020-07-27T07:43:58Z</time>
      </trkpt>
      <trkpt lat="42.9697470" lon="-0.3809980">
        <ele>805.8</ele>
        <time>2020-07-27T07:44:01Z</time>
      </trkpt>
      <trkpt lat="42.9698030" lon="-0.3811190">
        <ele>806.4</ele>
        <time>2020-07-27T07:44:05Z</time>
      </trkpt>
      <trkpt lat="42.9698500" lon="-0.3812040">
        <ele>807.0</ele>
        <time>2020-07-27T07:44:08Z</time>
      </trkpt>
      <trkpt lat="42.9699110" lon="-0.3813230">
        <ele>807.4</ele>
        <time>2020-07-27T07:44:12Z</time>
      </trkpt>
      <trkpt lat="42.9699350" lon="-0.3813880">
        <ele>807.8</ele>
        <time>2020-07-27T07:44:14Z</time>
      </trkpt>
      <trkpt lat="42.9699640" lon="-0.3815350">
        <ele>808.6</ele>
        <time>2020-07-27T07:44:18Z</time>
      </trkpt>
      <trkpt lat="42.9699680" lon="-0.3816140">
        <ele>808.8</ele>
        <time>2020-07-27T07:44:20Z</time>
      </trkpt>
      <trkpt lat="42.9699540" lon="-0.3818100">
        <ele>809.6</ele>
        <time>2020-07-27T07:44:25Z</time>
      </trkpt>
      <trkpt lat="42.9699520" lon="-0.3819560">
        <ele>810.0</ele>
        <time>2020-07-27T07:44:29Z</time>
      </trkpt>
      <trkpt lat="42.9699600" lon="-0.3820150">
        <ele>810.2</ele>
        <time>2020-07-27T07:44:31Z</time>
      </trkpt>
      <trkpt lat="42.9699970" lon="-0.3821950">
        <ele>811.0</ele>
        <time>2020-07-27T07:44:36Z</time>
      </trkpt>
      <trkpt lat="42.9700050" lon="-0.3822360">
        <ele>811.2</ele>
        <time>2020-07-27T07:44:37Z</time>
      </trkpt>
      <trkpt lat="42.9699730" lon="-0.3824310">
        <ele>812.0</ele>
        <time>2020-07-27T07:44:42Z</time>
      </trkpt>
      <trkpt lat="42.9698760" lon="-0.3824960">
        <ele>812.6</ele>
        <time>2020-07-27T07:44:45Z</time>
      </trkpt>
      <trkpt lat="42.9698460" lon="-0.3824850">
        <ele>812.8</ele>
        <time>2020-07-27T07:44:46Z</time>
      </trkpt>
      <trkpt lat="42.9698030" lon="-0.3824210">
        <ele>813.2</ele>
        <time>2020-07-27T07:44:48Z</time>
      </trkpt>
      <trkpt lat="42.9697790" lon="-0.3823440">
        <ele>813.6</ele>
        <time>2020-07-27T07:44:50Z</time>
      </trkpt>
      <trkpt lat="42.9697660" lon="-0.3822500">
        <ele>814.0</ele>
        <time>2020-07-27T07:44:52Z</time>
      </trkpt>
      <trkpt lat="42.9697620" lon="-0.3822020">
        <ele>814.4</ele>
        <time>2020-07-27T07:44:53Z</time>
      </trkpt>
      <trkpt lat="42.9697460" lon="-0.3820000">
        <ele>814.8</ele>
        <time>2020-07-27T07:44:57Z</time>
      </trkpt>
      <trkpt lat="42.9697760" lon="-0.3817370">
        <ele>815.4</ele>
        <time>2020-07-27T07:45:03Z</time>
      </trkpt>
      <trkpt lat="42.9697590" lon="-0.3817030">
        <ele>815.4</ele>
        <time>2020-07-27T07:45:04Z</time>
      </trkpt>
      <trkpt lat="42.9696860" lon="-0.3815880">
        <ele>815.8</ele>
        <time>2020-07-27T07:45:07Z</time>
      </trkpt>
      <trkpt lat="42.9695370" lon="-0.3814600">
        <ele>816.4</ele>
        <time>2020-07-27T07:45:12Z</time>
      </trkpt>
      <trkpt lat="42.9695080" lon="-0.3814260">
        <ele>816.6</ele>
        <time>2020-07-27T07:45:13Z</time>
      </trkpt>
      <trkpt lat="42.9693900" lon="-0.3811580">
        <ele>817.6</ele>
        <time>2020-07-27T07:45:19Z</time>
      </trkpt>
      <trkpt lat="42.9692550" lon="-0.3809830">
        <ele>818.2</ele>
        <time>2020-07-27T07:45:24Z</time>
      </trkpt>
      <trkpt lat="42.9691820" lon="-0.3809650">
        <ele>818.4</ele>
        <time>2020-07-27T07:45:26Z</time>
      </trkpt>
      <trkpt lat="42.9690750" lon="-0.3809760">
        <ele>819.2</ele>
        <time>2020-07-27T07:45:29Z</time>
      </trkpt>
      <trkpt lat="42.9688820" lon="-0.3809850">
        <ele>819.6</ele>
        <time>2020-07-27T07:45:35Z</time>
      </trkpt>
      <trkpt lat="42.9687060" lon="-0.3808190">
        <ele>820.8</ele>
        <time>2020-07-27T07:45:41Z</time>
      </trkpt>
      <trkpt lat="42.9686140" lon="-0.3806830">
        <ele>821.8</ele>
        <time>2020-07-27T07:45:45Z</time>
      </trkpt>
      <trkpt lat="42.9685840" lon="-0.3805990">
        <ele>822.2</ele>
        <time>2020-07-27T07:45:47Z</time>
      </trkpt>
      <trkpt lat="42.9685910" lon="-0.3804030">
        <ele>822.8</ele>
        <time>2020-07-27T07:45:51Z</time>
      </trkpt>
      <trkpt lat="42.9686450" lon="-0.3801880">
        <ele>823.6</ele>
        <time>2020-07-27T07:45:56Z</time>
      </trkpt>
      <trkpt lat="42.9686670" lon="-0.3801040">
        <ele>824.0</ele>
        <time>2020-07-27T07:45:58Z</time>
      </trkpt>
      <trkpt lat="42.9687430" lon="-0.3799140">
        <ele>824.4</ele>
        <time>2020-07-27T07:46:02Z</time>
      </trkpt>
      <trkpt lat="42.9687510" lon="-0.3796750">
        <ele>824.8</ele>
        <time>2020-07-27T07:46:07Z</time>
      </trkpt>
      <trkpt lat="42.9687330" lon="-0.3796320">
        <ele>825.0</ele>
        <time>2020-07-27T07:46:08Z</time>
      </trkpt>
      <trkpt lat="42.9686430" lon="-0.3795350">
        <ele>825.2</ele>
        <time>2020-07-27T07:46:11Z</time>
      </trkpt>
      <trkpt lat="42.9685080" lon="-0.3794840">
        <ele>825.8</ele>
        <time>2020-07-27T07:46:15Z</time>
      </trkpt>
      <trkpt lat="42.9683980" lon="-0.3794700">
        <ele>826.0</ele>
        <time>2020-07-27T07:46:18Z</time>
      </trkpt>
      <trkpt lat="42.9682580" lon="-0.3794310">
        <ele>826.2</ele>
        <time>2020-07-27T07:46:22Z</time>
      </trkpt>
      <trkpt lat="42.9681510" lon="-0.3793010">
        <ele>826.6</ele>
        <time>2020-07-27T07:46:26Z</time>
      </trkpt>
      <trkpt lat="42.9681170" lon="-0.3791640">
        <ele>826.8</ele>
        <time>2020-07-27T07:46:29Z</time>
      </trkpt>
      <trkpt lat="42.9681160" lon="-0.3791190">
        <ele>827.0</ele>
        <time>2020-07-27T07:46:30Z</time>
      </trkpt>
      <trkpt lat="42.9681290" lon="-0.3788030">
        <ele>827.8</ele>
        <time>2020-07-27T07:46:36Z</time>
      </trkpt>
      <trkpt lat="42.9681360" lon="-0.3787520">
        <ele>828.0</ele>
        <time>2020-07-27T07:46:37Z</time>
      </trkpt>
      <trkpt lat="42.9681250" lon="-0.3785640">
        <ele>828.6</ele>
        <time>2020-07-27T07:46:41Z</time>
      </trkpt>
      <trkpt lat="42.9680930" lon="-0.3784750">
        <ele>828.8</ele>
        <time>2020-07-27T07:46:43Z</time>
      </trkpt>
      <trkpt lat="42.9680130" lon="-0.3783030">
        <ele>829.4</ele>
        <time>2020-07-27T07:46:47Z</time>
      </trkpt>
      <trkpt lat="42.9679580" lon="-0.3781120">
        <ele>829.8</ele>
        <time>2020-07-27T07:46:51Z</time>
      </trkpt>
      <trkpt lat="42.9679480" lon="-0.3780070">
        <ele>830.0</ele>
        <time>2020-07-27T07:46:53Z</time>
      </trkpt>
      <trkpt lat="42.9679450" lon="-0.3776630">
        <ele>830.8</ele>
        <time>2020-07-27T07:46:59Z</time>
      </trkpt>
      <trkpt lat="42.9679300" lon="-0.3775520">
        <ele>831.2</ele>
        <time>2020-07-27T07:47:01Z</time>
      </trkpt>
      <trkpt lat="42.9679160" lon="-0.3774980">
        <ele>831.2</ele>
        <time>2020-07-27T07:47:02Z</time>
      </trkpt>
      <trkpt lat="42.9678240" lon="-0.3773160">
        <ele>831.6</ele>
        <time>2020-07-27T07:47:06Z</time>
      </trkpt>
      <trkpt lat="42.9677950" lon="-0.3772810">
        <ele>831.8</ele>
        <time>2020-07-27T07:47:07Z</time>
      </trkpt>
      <trkpt lat="42.9677660" lon="-0.3772460">
        <ele>832.0</ele>
        <time>2020-07-27T07:47:08Z</time>
      </trkpt>
      <trkpt lat="42.9676300" lon="-0.3770860">
        <ele>832.2</ele>
        <time>2020-07-27T07:47:13Z</time>
      </trkpt>
      <trkpt lat="42.9675550" lon="-0.3769770">
        <ele>832.8</ele>
        <time>2020-07-27T07:47:16Z</time>
      </trkpt>
      <trkpt lat="42.9674990" lon="-0.3768530">
        <ele>833.4</ele>
        <time>2020-07-27T07:47:19Z</time>
      </trkpt>
      <trkpt lat="42.9674560" lon="-0.3767230">
        <ele>833.8</ele>
        <time>2020-07-27T07:47:22Z</time>
      </trkpt>
      <trkpt lat="42.9674440" lon="-0.3766130">
        <ele>834.2</ele>
        <time>2020-07-27T07:47:24Z</time>
      </trkpt>
      <trkpt lat="42.9674870" lon="-0.3764170">
        <ele>834.4</ele>
        <time>2020-07-27T07:47:28Z</time>
      </trkpt>
      <trkpt lat="42.9675520" lon="-0.3763050">
        <ele>834.6</ele>
        <time>2020-07-27T07:47:31Z</time>
      </trkpt>
      <trkpt lat="42.9676390" lon="-0.3762080">
        <ele>834.8</ele>
        <time>2020-07-27T07:47:34Z</time>
      </trkpt>
      <trkpt lat="42.9679020" lon="-0.3759700">
        <ele>835.8</ele>
        <time>2020-07-27T07:47:41Z</time>
      </trkpt>
      <trkpt lat="42.9679750" lon="-0.3757980">
        <ele>836.4</ele>
        <time>2020-07-27T07:47:46Z</time>
      </trkpt>
      <trkpt lat="42.9679620" lon="-0.3757420">
        <ele>836.6</ele>
        <time>2020-07-27T07:47:48Z</time>
      </trkpt>
      <trkpt lat="42.9679040" lon="-0.3756770">
        <ele>837.4</ele>
        <time>2020-07-27T07:47:51Z</time>
      </trkpt>
      <trkpt lat="42.9678840" lon="-0.3756590">
        <ele>837.6</ele>
        <time>2020-07-27T07:47:52Z</time>
      </trkpt>
      <trkpt lat="42.9678200" lon="-0.3756110">
        <ele>839.0</ele>
        <time>2020-07-27T07:47:55Z</time>
      </trkpt>
      <trkpt lat="42.9677620" lon="-0.3755600">
        <ele>840.0</ele>
        <time>2020-07-27T07:47:58Z</time>
      </trkpt>
      <trkpt lat="42.9677070" lon="-0.3754980">
        <ele>841.2</ele>
        <time>2020-07-27T07:48:01Z</time>
      </trkpt>
      <trkpt lat="42.9676640" lon="-0.3754290">
        <ele>842.0</ele>
        <time>2020-07-27T07:48:04Z</time>
      </trkpt>
      <trkpt lat="42.9676540" lon="-0.3754060">
        <ele>842.2</ele>
        <time>2020-07-27T07:48:05Z</time>
      </trkpt>
      <trkpt lat="42.9676270" lon="-0.3752820">
        <ele>843.4</ele>
        <time>2020-07-27T07:48:09Z</time>
      </trkpt>
      <trkpt lat="42.9676160" lon="-0.3752170">
        <ele>843.8</ele>
        <time>2020-07-27T07:48:11Z</time>
      </trkpt>
      <trkpt lat="42.9676080" lon="-0.3751110">
        <ele>844.6</ele>
        <time>2020-07-27T07:48:14Z</time>
      </trkpt>
      <trkpt lat="42.9675990" lon="-0.3749720">
        <ele>845.4</ele>
        <time>2020-07-27T07:48:18Z</time>
      </trkpt>
      <trkpt lat="42.9675950" lon="-0.3749390">
        <ele>845.8</ele>
        <time>2020-07-27T07:48:19Z</time>
      </trkpt>
      <trkpt lat="42.9675880" lon="-0.3748720">
        <ele>846.4</ele>
        <time>2020-07-27T07:48:21Z</time>
      </trkpt>
      <trkpt lat="42.9675720" lon="-0.3747540">
        <ele>847.6</ele>
        <time>2020-07-27T07:48:25Z</time>
      </trkpt>
      <trkpt lat="42.9675650" lon="-0.3747220">
        <ele>847.8</ele>
        <time>2020-07-27T07:48:26Z</time>
      </trkpt>
      <trkpt lat="42.9675490" lon="-0.3746340">
        <ele>848.8</ele>
        <time>2020-07-27T07:48:29Z</time>
      </trkpt>
      <trkpt lat="42.9675230" lon="-0.3745040">
        <ele>850.0</ele>
        <time>2020-07-27T07:48:33Z</time>
      </trkpt>
      <trkpt lat="42.9675130" lon="-0.3744340">
        <ele>850.6</ele>
        <time>2020-07-27T07:48:35Z</time>
      </trkpt>
      <trkpt lat="42.9675040" lon="-0.3743660">
        <ele>851.0</ele>
        <time>2020-07-27T07:48:37Z</time>
      </trkpt>
      <trkpt lat="42.9674940" lon="-0.3742710">
        <ele>852.2</ele>
        <time>2020-07-27T07:48:40Z</time>
      </trkpt>
      <trkpt lat="42.9674890" lon="-0.3741440">
        <ele>853.4</ele>
        <time>2020-07-27T07:48:44Z</time>
      </trkpt>
      <trkpt lat="42.9674970" lon="-0.3740080">
        <ele>854.6</ele>
        <time>2020-07-27T07:48:48Z</time>
      </trkpt>
      <trkpt lat="42.9675100" lon="-0.3739040">
        <ele>855.6</ele>
        <time>2020-07-27T07:48:51Z</time>
      </trkpt>
      <trkpt lat="42.9675110" lon="-0.3737760">
        <ele>856.6</ele>
        <time>2020-07-27T07:48:54Z</time>
      </trkpt>
      <trkpt lat="42.9675190" lon="-0.3735720">
        <ele>857.6</ele>
        <time>2020-07-27T07:48:59Z</time>
      </trkpt>
      <trkpt lat="42.9675060" lon="-0.3733210">
        <ele>858.8</ele>
        <time>2020-07-27T07:49:05Z</time>
      </trkpt>
      <trkpt lat="42.9674890" lon="-0.3731970">
        <ele>859.2</ele>
        <time>2020-07-27T07:49:08Z</time>
      </trkpt>
      <trkpt lat="42.9674660" lon="-0.3729930">
        <ele>859.6</ele>
        <time>2020-07-27T07:49:13Z</time>
      </trkpt>
      <trkpt lat="42.9674450" lon="-0.3728200">
        <ele>860.8</ele>
        <time>2020-07-27T07:49:17Z</time>
      </trkpt>
      <trkpt lat="42.9674400" lon="-0.3727750">
        <ele>860.8</ele>
        <time>2020-07-27T07:49:18Z</time>
      </trkpt>
      <trkpt lat="42.9673980" lon="-0.3723650">
        <ele>861.6</ele>
        <time>2020-07-27T07:49:27Z</time>
      </trkpt>
      <trkpt lat="42.9673890" lon="-0.3722800">
        <ele>861.8</ele>
        <time>2020-07-27T07:49:29Z</time>
      </trkpt>
      <trkpt lat="42.9673770" lon="-0.3720710">
        <ele>862.6</ele>
        <time>2020-07-27T07:49:34Z</time>
      </trkpt>
      <trkpt lat="42.9673830" lon="-0.3719500">
        <ele>863.2</ele>
        <time>2020-07-27T07:49:37Z</time>
      </trkpt>
      <trkpt lat="42.9674500" lon="-0.3717360">
        <ele>864.2</ele>
        <time>2020-07-27T07:49:43Z</time>
      </trkpt>
      <trkpt lat="42.9675360" lon="-0.3716390">
        <ele>865.4</ele>
        <time>2020-07-27T07:49:47Z</time>
      </trkpt>
      <trkpt lat="42.9675850" lon="-0.3716090">
        <ele>865.8</ele>
        <time>2020-07-27T07:49:49Z</time>
      </trkpt>
      <trkpt lat="42.9676560" lon="-0.3715920">
        <ele>866.6</ele>
        <time>2020-07-27T07:49:52Z</time>
      </trkpt>
      <trkpt lat="42.9677280" lon="-0.3716060">
        <ele>867.2</ele>
        <time>2020-07-27T07:49:55Z</time>
      </trkpt>
      <trkpt lat="42.9677920" lon="-0.3716540">
        <ele>867.8</ele>
        <time>2020-07-27T07:49:58Z</time>
      </trkpt>
      <trkpt lat="42.9678550" lon="-0.3717170">
        <ele>868.6</ele>
        <time>2020-07-27T07:50:01Z</time>
      </trkpt>
      <trkpt lat="42.9678730" lon="-0.3717420">
        <ele>868.8</ele>
        <time>2020-07-27T07:50:02Z</time>
      </trkpt>
      <trkpt lat="42.9679590" lon="-0.3718740">
        <ele>870.4</ele>
        <time>2020-07-27T07:50:07Z</time>
      </trkpt>
      <trkpt lat="42.9679850" lon="-0.3719330">
        <ele>870.8</ele>
        <time>2020-07-27T07:50:09Z</time>
      </trkpt>
      <trkpt lat="42.9680270" lon="-0.3720220">
        <ele>871.4</ele>
        <time>2020-07-27T07:50:12Z</time>
      </trkpt>
      <trkpt lat="42.9681000" lon="-0.3721720">
        <ele>872.6</ele>
        <time>2020-07-27T07:50:17Z</time>
      </trkpt>
      <trkpt lat="42.9681170" lon="-0.3721980">
        <ele>872.8</ele>
        <time>2020-07-27T07:50:18Z</time>
      </trkpt>
      <trkpt lat="42.9682370" lon="-0.3723700">
        <ele>873.8</ele>
        <time>2020-07-27T07:50:25Z</time>
      </trkpt>
      <trkpt lat="42.9682770" lon="-0.3724090">
        <ele>874.2</ele>
        <time>2020-07-27T07:50:27Z</time>
      </trkpt>
      <trkpt lat="42.9683180" lon="-0.3724460">
        <ele>874.8</ele>
        <time>2020-07-27T07:50:29Z</time>
      </trkpt>
      <trkpt lat="42.9684090" lon="-0.3725180">
        <ele>875.8</ele>
        <time>2020-07-27T07:50:33Z</time>
      </trkpt>
      <trkpt lat="42.9684750" lon="-0.3725560">
        <ele>876.8</ele>
        <time>2020-07-27T07:50:36Z</time>
      </trkpt>
      <trkpt lat="42.9685520" lon="-0.3725740">
        <ele>878.0</ele>
        <time>2020-07-27T07:50:40Z</time>
      </trkpt>
      <trkpt lat="42.9685880" lon="-0.3725780">
        <ele>878.6</ele>
        <time>2020-07-27T07:50:42Z</time>
      </trkpt>
      <trkpt lat="42.9686280" lon="-0.3725700">
        <ele>878.8</ele>
        <time>2020-07-27T07:50:44Z</time>
      </trkpt>
      <trkpt lat="42.9687200" lon="-0.3725310">
        <ele>880.0</ele>
        <time>2020-07-27T07:50:49Z</time>
      </trkpt>
      <trkpt lat="42.9687460" lon="-0.3725210">
        <ele>880.2</ele>
        <time>2020-07-27T07:50:50Z</time>
      </trkpt>
      <trkpt lat="42.9688470" lon="-0.3724560">
        <ele>881.0</ele>
        <time>2020-07-27T07:50:54Z</time>
      </trkpt>
      <trkpt lat="42.9689090" lon="-0.3723860">
        <ele>881.8</ele>
        <time>2020-07-27T07:50:57Z</time>
      </trkpt>
      <trkpt lat="42.9689440" lon="-0.3723300">
        <ele>882.2</ele>
        <time>2020-07-27T07:50:59Z</time>
      </trkpt>
      <trkpt lat="42.9689990" lon="-0.3721730">
        <ele>883.2</ele>
        <time>2020-07-27T07:51:04Z</time>
      </trkpt>
      <trkpt lat="42.9690120" lon="-0.3721400">
        <ele>883.6</ele>
        <time>2020-07-27T07:51:05Z</time>
      </trkpt>
      <trkpt lat="42.9690210" lon="-0.3720160">
        <ele>884.8</ele>
        <time>2020-07-27T07:51:09Z</time>
      </trkpt>
      <trkpt lat="42.9690140" lon="-0.3719590">
        <ele>885.4</ele>
        <time>2020-07-27T07:51:11Z</time>
      </trkpt>
      <trkpt lat="42.9689850" lon="-0.3718800">
        <ele>886.2</ele>
        <time>2020-07-27T07:51:14Z</time>
      </trkpt>
      <trkpt lat="42.9689300" lon="-0.3717850">
        <ele>887.2</ele>
        <time>2020-07-27T07:51:18Z</time>
      </trkpt>
      <trkpt lat="42.9689140" lon="-0.3717610">
        <ele>887.4</ele>
        <time>2020-07-27T07:51:19Z</time>
      </trkpt>
      <trkpt lat="42.9688590" lon="-0.3716580">
        <ele>888.4</ele>
        <time>2020-07-27T07:51:23Z</time>
      </trkpt>
      <trkpt lat="42.9688140" lon="-0.3715060">
        <ele>889.6</ele>
        <time>2020-07-27T07:51:28Z</time>
      </trkpt>
      <trkpt lat="42.9688220" lon="-0.3712910">
        <ele>890.8</ele>
        <time>2020-07-27T07:51:34Z</time>
      </trkpt>
      <trkpt lat="42.9688680" lon="-0.3710900">
        <ele>892.0</ele>
        <time>2020-07-27T07:51:40Z</time>
      </trkpt>
      <trkpt lat="42.9688890" lon="-0.3709880">
        <ele>892.6</ele>
        <time>2020-07-27T07:51:43Z</time>
      </trkpt>
      <trkpt lat="42.9688960" lon="-0.3709200">
        <ele>893.0</ele>
        <time>2020-07-27T07:51:45Z</time>
      </trkpt>
      <trkpt lat="42.9688780" lon="-0.3707190">
        <ele>894.0</ele>
        <time>2020-07-27T07:51:51Z</time>
      </trkpt>
      <trkpt lat="42.9688690" lon="-0.3706860">
        <ele>894.0</ele>
        <time>2020-07-27T07:51:52Z</time>
      </trkpt>
      <trkpt lat="42.9687920" lon="-0.3704730">
        <ele>895.2</ele>
        <time>2020-07-27T07:51:59Z</time>
      </trkpt>
      <trkpt lat="42.9687630" lon="-0.3704170">
        <ele>895.6</ele>
        <time>2020-07-27T07:52:01Z</time>
      </trkpt>
      <trkpt lat="42.9687200" lon="-0.3703340">
        <ele>896.4</ele>
        <time>2020-07-27T07:52:04Z</time>
      </trkpt>
      <trkpt lat="42.9686400" lon="-0.3701710">
        <ele>897.4</ele>
        <time>2020-07-27T07:52:10Z</time>
      </trkpt>
      <trkpt lat="42.9685530" lon="-0.3700180">
        <ele>898.6</ele>
        <time>2020-07-27T07:52:16Z</time>
      </trkpt>
      <trkpt lat="42.9685370" lon="-0.3699940">
        <ele>898.8</ele>
        <time>2020-07-27T07:52:17Z</time>
      </trkpt>
      <trkpt lat="42.9684520" lon="-0.3698700">
        <ele>899.6</ele>
        <time>2020-07-27T07:52:22Z</time>
      </trkpt>
      <trkpt lat="42.9683970" lon="-0.3698060">
        <ele>899.8</ele>
        <time>2020-07-27T07:52:25Z</time>
      </trkpt>
      <trkpt lat="42.9683460" lon="-0.3697340">
        <ele>900.4</ele>
        <time>2020-07-27T07:52:28Z</time>
      </trkpt>
      <trkpt lat="42.9682940" lon="-0.3696390">
        <ele>901.6</ele>
        <time>2020-07-27T07:52:32Z</time>
      </trkpt>
      <trkpt lat="42.9682490" lon="-0.3695350">
        <ele>902.6</ele>
        <time>2020-07-27T07:52:36Z</time>
      </trkpt>
      <trkpt lat="42.9682350" lon="-0.3694650">
        <ele>902.8</ele>
        <time>2020-07-27T07:52:38Z</time>
      </trkpt>
      <trkpt lat="42.9681730" lon="-0.3692720">
        <ele>903.8</ele>
        <time>2020-07-27T07:52:44Z</time>
      </trkpt>
      <trkpt lat="42.9681640" lon="-0.3692400">
        <ele>904.0</ele>
        <time>2020-07-27T07:52:45Z</time>
      </trkpt>
      <trkpt lat="42.9681160" lon="-0.3690870">
        <ele>904.8</ele>
        <time>2020-07-27T07:52:50Z</time>
      </trkpt>
      <trkpt lat="42.9680850" lon="-0.3690090">
        <ele>905.4</ele>
        <time>2020-07-27T07:52:53Z</time>
      </trkpt>
      <trkpt lat="42.9680460" lon="-0.3689310">
        <ele>905.8</ele>
        <time>2020-07-27T07:52:56Z</time>
      </trkpt>
      <trkpt lat="42.9680010" lon="-0.3688170">
        <ele>906.8</ele>
        <time>2020-07-27T07:53:00Z</time>
      </trkpt>
      <trkpt lat="42.9679930" lon="-0.3687840">
        <ele>907.2</ele>
        <time>2020-07-27T07:53:01Z</time>
      </trkpt>
      <trkpt lat="42.9679580" lon="-0.3687000">
        <ele>908.0</ele>
        <time>2020-07-27T07:53:04Z</time>
      </trkpt>
      <trkpt lat="42.9678960" lon="-0.3685560">
        <ele>909.2</ele>
        <time>2020-07-27T07:53:09Z</time>
      </trkpt>
      <trkpt lat="42.9678320" lon="-0.3684120">
        <ele>910.2</ele>
        <time>2020-07-27T07:53:14Z</time>
      </trkpt>
      <trkpt lat="42.9677960" lon="-0.3683250">
        <ele>911.0</ele>
        <time>2020-07-27T07:53:17Z</time>
      </trkpt>
      <trkpt lat="42.9677760" lon="-0.3682610">
        <ele>911.4</ele>
        <time>2020-07-27T07:53:19Z</time>
      </trkpt>
      <trkpt lat="42.9677320" lon="-0.3681030">
        <ele>912.6</ele>
        <time>2020-07-27T07:53:24Z</time>
      </trkpt>
      <trkpt lat="42.9677170" lon="-0.3680390">
        <ele>912.8</ele>
        <time>2020-07-27T07:53:26Z</time>
      </trkpt>
      <trkpt lat="42.9676900" lon="-0.3679400">
        <ele>913.6</ele>
        <time>2020-07-27T07:53:29Z</time>
      </trkpt>
      <trkpt lat="42.9676620" lon="-0.3678160">
        <ele>914.6</ele>
        <time>2020-07-27T07:53:33Z</time>
      </trkpt>
      <trkpt lat="42.9676350" lon="-0.3676490">
        <ele>915.6</ele>
        <time>2020-07-27T07:53:38Z</time>
      </trkpt>
      <trkpt lat="42.9676310" lon="-0.3676170">
        <ele>915.8</ele>
        <time>2020-07-27T07:53:39Z</time>
      </trkpt>
      <trkpt lat="42.9676100" lon="-0.3674700">
        <ele>916.8</ele>
        <time>2020-07-27T07:53:44Z</time>
      </trkpt>
      <trkpt lat="42.9676020" lon="-0.3674030">
        <ele>917.2</ele>
        <time>2020-07-27T07:53:46Z</time>
      </trkpt>
      <trkpt lat="42.9675920" lon="-0.3672760">
        <ele>918.0</ele>
        <time>2020-07-27T07:53:50Z</time>
      </trkpt>
      <trkpt lat="42.9675890" lon="-0.3671430">
        <ele>919.0</ele>
        <time>2020-07-27T07:53:54Z</time>
      </trkpt>
      <trkpt lat="42.9675690" lon="-0.3670120">
        <ele>920.4</ele>
        <time>2020-07-27T07:53:58Z</time>
      </trkpt>
      <trkpt lat="42.9675390" lon="-0.3668970">
        <ele>921.2</ele>
        <time>2020-07-27T07:54:01Z</time>
      </trkpt>
      <trkpt lat="42.9675380" lon="-0.3668720">
        <ele>921.4</ele>
        <time>2020-07-27T07:54:02Z</time>
      </trkpt>
      <trkpt lat="42.9675240" lon="-0.3667740">
        <ele>922.2</ele>
        <time>2020-07-27T07:54:06Z</time>
      </trkpt>
      <trkpt lat="42.9675200" lon="-0.3667130">
        <ele>922.6</ele>
        <time>2020-07-27T07:54:08Z</time>
      </trkpt>
      <trkpt lat="42.9674890" lon="-0.3665690">
        <ele>923.6</ele>
        <time>2020-07-27T07:54:13Z</time>
      </trkpt>
      <trkpt lat="42.9674560" lon="-0.3664020">
        <ele>924.6</ele>
        <time>2020-07-27T07:54:18Z</time>
      </trkpt>
      <trkpt lat="42.9674480" lon="-0.3663670">
        <ele>924.8</ele>
        <time>2020-07-27T07:54:19Z</time>
      </trkpt>
      <trkpt lat="42.9674060" lon="-0.3662390">
        <ele>925.6</ele>
        <time>2020-07-27T07:54:23Z</time>
      </trkpt>
      <trkpt lat="42.9673920" lon="-0.3662010">
        <ele>925.8</ele>
        <time>2020-07-27T07:54:24Z</time>
      </trkpt>
      <trkpt lat="42.9673560" lon="-0.3660450">
        <ele>926.8</ele>
        <time>2020-07-27T07:54:28Z</time>
      </trkpt>
      <trkpt lat="42.9672760" lon="-0.3658980">
        <ele>928.0</ele>
        <time>2020-07-27T07:54:33Z</time>
      </trkpt>
      <trkpt lat="42.9672220" lon="-0.3657750">
        <ele>928.8</ele>
        <time>2020-07-27T07:54:37Z</time>
      </trkpt>
      <trkpt lat="42.9672110" lon="-0.3657440">
        <ele>929.0</ele>
        <time>2020-07-27T07:54:38Z</time>
      </trkpt>
      <trkpt lat="42.9671650" lon="-0.3655870">
        <ele>930.0</ele>
        <time>2020-07-27T07:54:43Z</time>
      </trkpt>
      <trkpt lat="42.9671410" lon="-0.3654950">
        <ele>930.6</ele>
        <time>2020-07-27T07:54:46Z</time>
      </trkpt>
      <trkpt lat="42.9671320" lon="-0.3654190">
        <ele>931.2</ele>
        <time>2020-07-27T07:54:49Z</time>
      </trkpt>
      <trkpt lat="42.9671180" lon="-0.3652640">
        <ele>932.4</ele>
        <time>2020-07-27T07:54:54Z</time>
      </trkpt>
      <trkpt lat="42.9671130" lon="-0.3651960">
        <ele>932.8</ele>
        <time>2020-07-27T07:54:56Z</time>
      </trkpt>
      <trkpt lat="42.9671050" lon="-0.3651300">
        <ele>933.6</ele>
        <time>2020-07-27T07:54:58Z</time>
      </trkpt>
      <trkpt lat="42.9671000" lon="-0.3649600">
        <ele>934.8</ele>
        <time>2020-07-27T07:55:03Z</time>
      </trkpt>
      <trkpt lat="42.9670810" lon="-0.3647640">
        <ele>935.8</ele>
        <time>2020-07-27T07:55:09Z</time>
      </trkpt>
      <trkpt lat="42.9670600" lon="-0.3646690">
        <ele>936.6</ele>
        <time>2020-07-27T07:55:12Z</time>
      </trkpt>
      <trkpt lat="42.9670500" lon="-0.3646060">
        <ele>937.0</ele>
        <time>2020-07-27T07:55:14Z</time>
      </trkpt>
      <trkpt lat="42.9670180" lon="-0.3644130">
        <ele>938.0</ele>
        <time>2020-07-27T07:55:20Z</time>
      </trkpt>
      <trkpt lat="42.9669920" lon="-0.3642540">
        <ele>939.0</ele>
        <time>2020-07-27T07:55:26Z</time>
      </trkpt>
      <trkpt lat="42.9669890" lon="-0.3642240">
        <ele>939.2</ele>
        <time>2020-07-27T07:55:27Z</time>
      </trkpt>
      <trkpt lat="42.9669760" lon="-0.3641490">
        <ele>940.4</ele>
        <time>2020-07-27T07:55:30Z</time>
      </trkpt>
      <trkpt lat="42.9669600" lon="-0.3641300">
        <ele>940.6</ele>
        <time>2020-07-27T07:55:31Z</time>
      </trkpt>
      <trkpt lat="42.9669120" lon="-0.3640170">
        <ele>941.6</ele>
        <time>2020-07-27T07:55:34Z</time>
      </trkpt>
      <trkpt lat="42.9669010" lon="-0.3639800">
        <ele>941.6</ele>
        <time>2020-07-27T07:55:35Z</time>
      </trkpt>
      <trkpt lat="42.9668940" lon="-0.3639420">
        <ele>941.8</ele>
        <time>2020-07-27T07:55:36Z</time>
      </trkpt>
      <trkpt lat="42.9668800" lon="-0.3637640">
        <ele>942.8</ele>
        <time>2020-07-27T07:55:41Z</time>
      </trkpt>
      <trkpt lat="42.9668800" lon="-0.3637280">
        <ele>943.0</ele>
        <time>2020-07-27T07:55:42Z</time>
      </trkpt>
      <trkpt lat="42.9668560" lon="-0.3636000">
        <ele>943.8</ele>
        <time>2020-07-27T07:55:46Z</time>
      </trkpt>
      <trkpt lat="42.9668530" lon="-0.3635000">
        <ele>944.4</ele>
        <time>2020-07-27T07:55:49Z</time>
      </trkpt>
      <trkpt lat="42.9668530" lon="-0.3634290">
        <ele>944.8</ele>
        <time>2020-07-27T07:55:51Z</time>
      </trkpt>
      <trkpt lat="42.9668310" lon="-0.3632270">
        <ele>946.2</ele>
        <time>2020-07-27T07:55:57Z</time>
      </trkpt>
      <trkpt lat="42.9668090" lon="-0.3630550">
        <ele>947.2</ele>
        <time>2020-07-27T07:56:02Z</time>
      </trkpt>
      <trkpt lat="42.9667990" lon="-0.3629920">
        <ele>947.8</ele>
        <time>2020-07-27T07:56:04Z</time>
      </trkpt>
      <trkpt lat="42.9667860" lon="-0.3629250">
        <ele>948.4</ele>
        <time>2020-07-27T07:56:06Z</time>
      </trkpt>
      <trkpt lat="42.9667420" lon="-0.3627770">
        <ele>949.6</ele>
        <time>2020-07-27T07:56:11Z</time>
      </trkpt>
      <trkpt lat="42.9667330" lon="-0.3627490">
        <ele>949.8</ele>
        <time>2020-07-27T07:56:12Z</time>
      </trkpt>
      <trkpt lat="42.9666840" lon="-0.3625270">
        <ele>950.6</ele>
        <time>2020-07-27T07:56:19Z</time>
      </trkpt>
      <trkpt lat="42.9666670" lon="-0.3624350">
        <ele>951.2</ele>
        <time>2020-07-27T07:56:22Z</time>
      </trkpt>
      <trkpt lat="42.9666490" lon="-0.3623780">
        <ele>951.6</ele>
        <time>2020-07-27T07:56:24Z</time>
      </trkpt>
      <trkpt lat="42.9666000" lon="-0.3622420">
        <ele>952.8</ele>
        <time>2020-07-27T07:56:29Z</time>
      </trkpt>
      <trkpt lat="42.9665850" lon="-0.3621870">
        <ele>953.0</ele>
        <time>2020-07-27T07:56:31Z</time>
      </trkpt>
      <trkpt lat="42.9665580" lon="-0.3620700">
        <ele>953.8</ele>
        <time>2020-07-27T07:56:35Z</time>
      </trkpt>
      <trkpt lat="42.9665370" lon="-0.3619350">
        <ele>954.8</ele>
        <time>2020-07-27T07:56:39Z</time>
      </trkpt>
      <trkpt lat="42.9665340" lon="-0.3619020">
        <ele>955.0</ele>
        <time>2020-07-27T07:56:40Z</time>
      </trkpt>
      <trkpt lat="42.9664990" lon="-0.3617430">
        <ele>956.0</ele>
        <time>2020-07-27T07:56:45Z</time>
      </trkpt>
      <trkpt lat="42.9664860" lon="-0.3616780">
        <ele>956.4</ele>
        <time>2020-07-27T07:56:47Z</time>
      </trkpt>
      <trkpt lat="42.9664800" lon="-0.3616440">
        <ele>956.6</ele>
        <time>2020-07-27T07:56:48Z</time>
      </trkpt>
      <trkpt lat="42.9664640" lon="-0.3615530">
        <ele>957.2</ele>
        <time>2020-07-27T07:56:51Z</time>
      </trkpt>
      <trkpt lat="42.9664390" lon="-0.3614250">
        <ele>958.0</ele>
        <time>2020-07-27T07:56:55Z</time>
      </trkpt>
      <trkpt lat="42.9664320" lon="-0.3613930">
        <ele>958.6</ele>
        <time>2020-07-27T07:56:56Z</time>
      </trkpt>
      <trkpt lat="42.9663970" lon="-0.3611950">
        <ele>959.6</ele>
        <time>2020-07-27T07:57:02Z</time>
      </trkpt>
      <trkpt lat="42.9663870" lon="-0.3610900">
        <ele>960.2</ele>
        <time>2020-07-27T07:57:05Z</time>
      </trkpt>
      <trkpt lat="42.9663810" lon="-0.3610220">
        <ele>960.6</ele>
        <time>2020-07-27T07:57:07Z</time>
      </trkpt>
      <trkpt lat="42.9663760" lon="-0.3608630">
        <ele>961.6</ele>
        <time>2020-07-27T07:57:12Z</time>
      </trkpt>
      <trkpt lat="42.9663730" lon="-0.3608000">
        <ele>961.8</ele>
        <time>2020-07-27T07:57:14Z</time>
      </trkpt>
      <trkpt lat="42.9663620" lon="-0.3606720">
        <ele>962.8</ele>
        <time>2020-07-27T07:57:18Z</time>
      </trkpt>
      <trkpt lat="42.9663530" lon="-0.3605060">
        <ele>963.8</ele>
        <time>2020-07-27T07:57:23Z</time>
      </trkpt>
      <trkpt lat="42.9663490" lon="-0.3604730">
        <ele>963.8</ele>
        <time>2020-07-27T07:57:24Z</time>
      </trkpt>
      <trkpt lat="42.9663290" lon="-0.3603030">
        <ele>964.8</ele>
        <time>2020-07-27T07:57:29Z</time>
      </trkpt>
      <trkpt lat="42.9663070" lon="-0.3601710">
        <ele>965.8</ele>
        <time>2020-07-27T07:57:33Z</time>
      </trkpt>
      <trkpt lat="42.9663030" lon="-0.3601370">
        <ele>965.8</ele>
        <time>2020-07-27T07:57:34Z</time>
      </trkpt>
      <trkpt lat="42.9662850" lon="-0.3599240">
        <ele>967.2</ele>
        <time>2020-07-27T07:57:40Z</time>
      </trkpt>
      <trkpt lat="42.9662800" lon="-0.3598510">
        <ele>967.6</ele>
        <time>2020-07-27T07:57:42Z</time>
      </trkpt>
      <trkpt lat="42.9662710" lon="-0.3597450">
        <ele>968.4</ele>
        <time>2020-07-27T07:57:45Z</time>
      </trkpt>
      <trkpt lat="42.9662440" lon="-0.3595550">
        <ele>969.4</ele>
        <time>2020-07-27T07:57:51Z</time>
      </trkpt>
      <trkpt lat="42.9662340" lon="-0.3594000">
        <ele>970.6</ele>
        <time>2020-07-27T07:57:56Z</time>
      </trkpt>
      <trkpt lat="42.9662410" lon="-0.3593000">
        <ele>971.2</ele>
        <time>2020-07-27T07:57:59Z</time>
      </trkpt>
      <trkpt lat="42.9662440" lon="-0.3591980">
        <ele>971.8</ele>
        <time>2020-07-27T07:58:02Z</time>
      </trkpt>
      <trkpt lat="42.9662390" lon="-0.3590700">
        <ele>972.6</ele>
        <time>2020-07-27T07:58:06Z</time>
      </trkpt>
      <trkpt lat="42.9662390" lon="-0.3590370">
        <ele>973.0</ele>
        <time>2020-07-27T07:58:07Z</time>
      </trkpt>
      <trkpt lat="42.9662150" lon="-0.3588900">
        <ele>974.0</ele>
        <time>2020-07-27T07:58:12Z</time>
      </trkpt>
      <trkpt lat="42.9662110" lon="-0.3588260">
        <ele>974.2</ele>
        <time>2020-07-27T07:58:14Z</time>
      </trkpt>
      <trkpt lat="42.9662260" lon="-0.3586820">
        <ele>974.8</ele>
        <time>2020-07-27T07:58:18Z</time>
      </trkpt>
      <trkpt lat="42.9662240" lon="-0.3586200">
        <ele>975.2</ele>
        <time>2020-07-27T07:58:20Z</time>
      </trkpt>
      <trkpt lat="42.9662150" lon="-0.3585130">
        <ele>975.8</ele>
        <time>2020-07-27T07:58:23Z</time>
      </trkpt>
      <trkpt lat="42.9662380" lon="-0.3584070">
        <ele>977.0</ele>
        <time>2020-07-27T07:58:27Z</time>
      </trkpt>
      <trkpt lat="42.9662860" lon="-0.3582990">
        <ele>978.2</ele>
        <time>2020-07-27T07:58:33Z</time>
      </trkpt>
      <trkpt lat="42.9662940" lon="-0.3582760">
        <ele>978.2</ele>
        <time>2020-07-27T07:58:34Z</time>
      </trkpt>
      <trkpt lat="42.9662830" lon="-0.3581470">
        <ele>979.2</ele>
        <time>2020-07-27T07:58:38Z</time>
      </trkpt>
      <trkpt lat="42.9662860" lon="-0.3580950">
        <ele>979.4</ele>
        <time>2020-07-27T07:58:40Z</time>
      </trkpt>
      <trkpt lat="42.9662610" lon="-0.3579990">
        <ele>980.2</ele>
        <time>2020-07-27T07:58:43Z</time>
      </trkpt>
      <trkpt lat="42.9662390" lon="-0.3578750">
        <ele>981.0</ele>
        <time>2020-07-27T07:58:47Z</time>
      </trkpt>
      <trkpt lat="42.9662370" lon="-0.3578510">
        <ele>981.4</ele>
        <time>2020-07-27T07:58:48Z</time>
      </trkpt>
      <trkpt lat="42.9661910" lon="-0.3577270">
        <ele>982.6</ele>
        <time>2020-07-27T07:58:53Z</time>
      </trkpt>
      <trkpt lat="42.9661400" lon="-0.3575940">
        <ele>983.2</ele>
        <time>2020-07-27T07:58:55Z</time>
      </trkpt>
      <trkpt lat="42.9661030" lon="-0.3574890">
        <ele>983.6</ele>
        <time>2020-07-27T07:58:57Z</time>
      </trkpt>
      <trkpt lat="42.9660820" lon="-0.3574540">
        <ele>983.8</ele>
        <time>2020-07-27T07:58:58Z</time>
      </trkpt>
      <trkpt lat="42.9660510" lon="-0.3571960">
        <ele>984.6</ele>
        <time>2020-07-27T07:59:04Z</time>
      </trkpt>
      <trkpt lat="42.9660480" lon="-0.3571580">
        <ele>984.8</ele>
        <time>2020-07-27T07:59:05Z</time>
      </trkpt>
      <trkpt lat="42.9660270" lon="-0.3570250">
        <ele>985.6</ele>
        <time>2020-07-27T07:59:09Z</time>
      </trkpt>
      <trkpt lat="42.9660220" lon="-0.3569970">
        <ele>986.0</ele>
        <time>2020-07-27T07:59:10Z</time>
      </trkpt>
      <trkpt lat="42.9660080" lon="-0.3568980">
        <ele>986.8</ele>
        <time>2020-07-27T07:59:14Z</time>
      </trkpt>
      <trkpt lat="42.9659930" lon="-0.3568310">
        <ele>987.2</ele>
        <time>2020-07-27T07:59:16Z</time>
      </trkpt>
      <trkpt lat="42.9659850" lon="-0.3567260">
        <ele>987.6</ele>
        <time>2020-07-27T07:59:19Z</time>
      </trkpt>
      <trkpt lat="42.9659650" lon="-0.3566550">
        <ele>988.6</ele>
        <time>2020-07-27T07:59:23Z</time>
      </trkpt>
      <trkpt lat="42.9659650" lon="-0.3566550">
        <ele>988.8</ele>
        <time>2020-07-27T07:59:24Z</time>
      </trkpt>
      <trkpt lat="42.9659520" lon="-0.3565030">
        <ele>989.8</ele>
        <time>2020-07-27T07:59:29Z</time>
      </trkpt>
      <trkpt lat="42.9658900" lon="-0.3563170">
        <ele>990.8</ele>
        <time>2020-07-27T07:59:33Z</time>
      </trkpt>
      <trkpt lat="42.9658790" lon="-0.3562750">
        <ele>991.0</ele>
        <time>2020-07-27T07:59:34Z</time>
      </trkpt>
      <trkpt lat="42.9658190" lon="-0.3559990">
        <ele>992.0</ele>
        <time>2020-07-27T07:59:40Z</time>
      </trkpt>
      <trkpt lat="42.9657010" lon="-0.3558330">
        <ele>992.8</ele>
        <time>2020-07-27T07:59:44Z</time>
      </trkpt>
      <trkpt lat="42.9657110" lon="-0.3557920">
        <ele>993.0</ele>
        <time>2020-07-27T07:59:45Z</time>
      </trkpt>
      <trkpt lat="42.9655880" lon="-0.3557170">
        <ele>994.6</ele>
        <time>2020-07-27T07:59:51Z</time>
      </trkpt>
      <trkpt lat="42.9655240" lon="-0.3556810">
        <ele>995.0</ele>
        <time>2020-07-27T07:59:54Z</time>
      </trkpt>
      <trkpt lat="42.9654860" lon="-0.3556540">
        <ele>995.6</ele>
        <time>2020-07-27T07:59:56Z</time>
      </trkpt>
      <trkpt lat="42.9654340" lon="-0.3556100">
        <ele>996.8</ele>
        <time>2020-07-27T07:59:59Z</time>
      </trkpt>
      <trkpt lat="42.9653790" lon="-0.3555590">
        <ele>997.8</ele>
        <time>2020-07-27T08:00:02Z</time>
      </trkpt>
      <trkpt lat="42.9652590" lon="-0.3555350">
        <ele>999.0</ele>
        <time>2020-07-27T08:00:06Z</time>
      </trkpt>
      <trkpt lat="42.9651350" lon="-0.3555440">
        <ele>999.4</ele>
        <time>2020-07-27T08:00:09Z</time>
      </trkpt>
      <trkpt lat="42.9650330" lon="-0.3554450">
        <ele>999.8</ele>
        <time>2020-07-27T08:00:14Z</time>
      </trkpt>
      <trkpt lat="42.9649780" lon="-0.3553840">
        <ele>1000.6</ele>
        <time>2020-07-27T08:00:17Z</time>
      </trkpt>
      <trkpt lat="42.9649610" lon="-0.3553630">
        <ele>1000.8</ele>
        <time>2020-07-27T08:00:18Z</time>
      </trkpt>
      <trkpt lat="42.9648750" lon="-0.3552880">
        <ele>1002.0</ele>
        <time>2020-07-27T08:00:22Z</time>
      </trkpt>
      <trkpt lat="42.9648310" lon="-0.3552540">
        <ele>1002.6</ele>
        <time>2020-07-27T08:00:24Z</time>
      </trkpt>
      <trkpt lat="42.9647700" lon="-0.3552000">
        <ele>1003.0</ele>
        <time>2020-07-27T08:00:27Z</time>
      </trkpt>
      <trkpt lat="42.9646840" lon="-0.3551360">
        <ele>1003.8</ele>
        <time>2020-07-27T08:00:31Z</time>
      </trkpt>
      <trkpt lat="42.9646450" lon="-0.3551010">
        <ele>1004.0</ele>
        <time>2020-07-27T08:00:33Z</time>
      </trkpt>
      <trkpt lat="42.9645440" lon="-0.3549670">
        <ele>1005.2</ele>
        <time>2020-07-27T08:00:39Z</time>
      </trkpt>
      <trkpt lat="42.9645290" lon="-0.3549420">
        <ele>1005.4</ele>
        <time>2020-07-27T08:00:40Z</time>
      </trkpt>
      <trkpt lat="42.9644650" lon="-0.3548460">
        <ele>1006.4</ele>
        <time>2020-07-27T08:00:44Z</time>
      </trkpt>
      <trkpt lat="42.9643980" lon="-0.3547410">
        <ele>1007.2</ele>
        <time>2020-07-27T08:00:48Z</time>
      </trkpt>
      <trkpt lat="42.9643820" lon="-0.3547140">
        <ele>1007.8</ele>
        <time>2020-07-27T08:00:49Z</time>
      </trkpt>
      <trkpt lat="42.9642780" lon="-0.3545520">
        <ele>1009.0</ele>
        <time>2020-07-27T08:00:55Z</time>
      </trkpt>
      <trkpt lat="42.9642640" lon="-0.3545230">
        <ele>1009.2</ele>
        <time>2020-07-27T08:00:56Z</time>
      </trkpt>
      <trkpt lat="42.9641820" lon="-0.3544020">
        <ele>1010.2</ele>
        <time>2020-07-27T08:01:01Z</time>
      </trkpt>
      <trkpt lat="42.9641490" lon="-0.3543510">
        <ele>1010.6</ele>
        <time>2020-07-27T08:01:03Z</time>
      </trkpt>
      <trkpt lat="42.9641070" lon="-0.3542690">
        <ele>1011.4</ele>
        <time>2020-07-27T08:01:06Z</time>
      </trkpt>
      <trkpt lat="42.9640570" lon="-0.3541530">
        <ele>1012.4</ele>
        <time>2020-07-27T08:01:10Z</time>
      </trkpt>
      <trkpt lat="42.9640440" lon="-0.3541240">
        <ele>1012.6</ele>
        <time>2020-07-27T08:01:11Z</time>
      </trkpt>
      <trkpt lat="42.9639850" lon="-0.3539810">
        <ele>1013.4</ele>
        <time>2020-07-27T08:01:16Z</time>
      </trkpt>
      <trkpt lat="42.9639670" lon="-0.3539220">
        <ele>1014.0</ele>
        <time>2020-07-27T08:01:18Z</time>
      </trkpt>
      <trkpt lat="42.9639510" lon="-0.3538570">
        <ele>1014.4</ele>
        <time>2020-07-27T08:01:20Z</time>
      </trkpt>
      <trkpt lat="42.9639020" lon="-0.3536890">
        <ele>1015.6</ele>
        <time>2020-07-27T08:01:25Z</time>
      </trkpt>
      <trkpt lat="42.9638920" lon="-0.3536570">
        <ele>1015.8</ele>
        <time>2020-07-27T08:01:26Z</time>
      </trkpt>
      <trkpt lat="42.9638470" lon="-0.3535380">
        <ele>1016.6</ele>
        <time>2020-07-27T08:01:30Z</time>
      </trkpt>
      <trkpt lat="42.9637940" lon="-0.3534490">
        <ele>1017.4</ele>
        <time>2020-07-27T08:01:34Z</time>
      </trkpt>
      <trkpt lat="42.9637630" lon="-0.3534020">
        <ele>1017.8</ele>
        <time>2020-07-27T08:01:36Z</time>
      </trkpt>
      <trkpt lat="42.9636990" lon="-0.3533130">
        <ele>1018.8</ele>
        <time>2020-07-27T08:01:40Z</time>
      </trkpt>
      <trkpt lat="42.9636510" lon="-0.3532480">
        <ele>1019.8</ele>
        <time>2020-07-27T08:01:43Z</time>
      </trkpt>
      <trkpt lat="42.9636360" lon="-0.3532250">
        <ele>1020.0</ele>
        <time>2020-07-27T08:01:44Z</time>
      </trkpt>
      <trkpt lat="42.9635780" lon="-0.3531340">
        <ele>1021.0</ele>
        <time>2020-07-27T08:01:48Z</time>
      </trkpt>
      <trkpt lat="42.9634990" lon="-0.3530180">
        <ele>1022.4</ele>
        <time>2020-07-27T08:01:53Z</time>
      </trkpt>
      <trkpt lat="42.9634530" lon="-0.3528760">
        <ele>1023.4</ele>
        <time>2020-07-27T08:01:58Z</time>
      </trkpt>
      <trkpt lat="42.9634270" lon="-0.3527860">
        <ele>1024.0</ele>
        <time>2020-07-27T08:02:01Z</time>
      </trkpt>
      <trkpt lat="42.9633790" lon="-0.3526910">
        <ele>1024.4</ele>
        <time>2020-07-27T08:02:05Z</time>
      </trkpt>
      <trkpt lat="42.9633470" lon="-0.3526170">
        <ele>1025.8</ele>
        <time>2020-07-27T08:02:08Z</time>
      </trkpt>
      <trkpt lat="42.9633010" lon="-0.3524190">
        <ele>1026.8</ele>
        <time>2020-07-27T08:02:15Z</time>
      </trkpt>
      <trkpt lat="42.9632850" lon="-0.3523320">
        <ele>1027.8</ele>
        <time>2020-07-27T08:02:18Z</time>
      </trkpt>
      <trkpt lat="42.9632700" lon="-0.3522050">
        <ele>1028.4</ele>
        <time>2020-07-27T08:02:22Z</time>
      </trkpt>
      <trkpt lat="42.9632720" lon="-0.3521700">
        <ele>1028.6</ele>
        <time>2020-07-27T08:02:23Z</time>
      </trkpt>
      <trkpt lat="42.9632720" lon="-0.3520080">
        <ele>1029.8</ele>
        <time>2020-07-27T08:02:28Z</time>
      </trkpt>
      <trkpt lat="42.9632890" lon="-0.3519340">
        <ele>1030.0</ele>
        <time>2020-07-27T08:02:30Z</time>
      </trkpt>
      <trkpt lat="42.9632950" lon="-0.3518000">
        <ele>1030.8</ele>
        <time>2020-07-27T08:02:34Z</time>
      </trkpt>
      <trkpt lat="42.9632880" lon="-0.3516410">
        <ele>1031.8</ele>
        <time>2020-07-27T08:02:39Z</time>
      </trkpt>
      <trkpt lat="42.9632820" lon="-0.3514770">
        <ele>1033.0</ele>
        <time>2020-07-27T08:02:44Z</time>
      </trkpt>
      <trkpt lat="42.9632840" lon="-0.3513510">
        <ele>1034.0</ele>
        <time>2020-07-27T08:02:48Z</time>
      </trkpt>
      <trkpt lat="42.9632870" lon="-0.3513200">
        <ele>1034.2</ele>
        <time>2020-07-27T08:02:49Z</time>
      </trkpt>
      <trkpt lat="42.9633140" lon="-0.3511730">
        <ele>1035.0</ele>
        <time>2020-07-27T08:02:54Z</time>
      </trkpt>
      <trkpt lat="42.9633350" lon="-0.3511210">
        <ele>1035.4</ele>
        <time>2020-07-27T08:02:56Z</time>
      </trkpt>
      <trkpt lat="42.9633880" lon="-0.3510190">
        <ele>1036.2</ele>
        <time>2020-07-27T08:03:00Z</time>
      </trkpt>
      <trkpt lat="42.9634400" lon="-0.3509250">
        <ele>1037.2</ele>
        <time>2020-07-27T08:03:04Z</time>
      </trkpt>
      <trkpt lat="42.9634560" lon="-0.3508990">
        <ele>1037.6</ele>
        <time>2020-07-27T08:03:05Z</time>
      </trkpt>
      <trkpt lat="42.9635170" lon="-0.3508030">
        <ele>1038.2</ele>
        <time>2020-07-27T08:03:09Z</time>
      </trkpt>
      <trkpt lat="42.9635710" lon="-0.3507080">
        <ele>1039.2</ele>
        <time>2020-07-27T08:03:13Z</time>
      </trkpt>
      <trkpt lat="42.9635840" lon="-0.3506810">
        <ele>1039.4</ele>
        <time>2020-07-27T08:03:14Z</time>
      </trkpt>
      <trkpt lat="42.9636100" lon="-0.3505890">
        <ele>1040.4</ele>
        <time>2020-07-27T08:03:17Z</time>
      </trkpt>
      <trkpt lat="42.9636540" lon="-0.3504770">
        <ele>1041.0</ele>
        <time>2020-07-27T08:03:20Z</time>
      </trkpt>
      <trkpt lat="42.9636580" lon="-0.3503510">
        <ele>1041.6</ele>
        <time>2020-07-27T08:03:24Z</time>
      </trkpt>
      <trkpt lat="42.9636700" lon="-0.3502250">
        <ele>1042.8</ele>
        <time>2020-07-27T08:03:28Z</time>
      </trkpt>
      <trkpt lat="42.9636780" lon="-0.3501650">
        <ele>1043.4</ele>
        <time>2020-07-27T08:03:30Z</time>
      </trkpt>
      <trkpt lat="42.9636950" lon="-0.3500800">
        <ele>1043.8</ele>
        <time>2020-07-27T08:03:33Z</time>
      </trkpt>
      <trkpt lat="42.9637480" lon="-0.3499160">
        <ele>1044.6</ele>
        <time>2020-07-27T08:03:38Z</time>
      </trkpt>
      <trkpt lat="42.9637550" lon="-0.3498820">
        <ele>1044.8</ele>
        <time>2020-07-27T08:03:39Z</time>
      </trkpt>
      <trkpt lat="42.9637750" lon="-0.3497190">
        <ele>1046.0</ele>
        <time>2020-07-27T08:03:44Z</time>
      </trkpt>
      <trkpt lat="42.9637910" lon="-0.3496230">
        <ele>1046.8</ele>
        <time>2020-07-27T08:03:47Z</time>
      </trkpt>
      <trkpt lat="42.9637920" lon="-0.3495610">
        <ele>1047.2</ele>
        <time>2020-07-27T08:03:49Z</time>
      </trkpt>
      <trkpt lat="42.9638080" lon="-0.3493990">
        <ele>1048.2</ele>
        <time>2020-07-27T08:03:54Z</time>
      </trkpt>
      <trkpt lat="42.9638290" lon="-0.3492490">
        <ele>1049.2</ele>
        <time>2020-07-27T08:03:59Z</time>
      </trkpt>
      <trkpt lat="42.9638510" lon="-0.3491610">
        <ele>1049.8</ele>
        <time>2020-07-27T08:04:02Z</time>
      </trkpt>
      <trkpt lat="42.9638810" lon="-0.3490860">
        <ele>1050.2</ele>
        <time>2020-07-27T08:04:05Z</time>
      </trkpt>
      <trkpt lat="42.9639450" lon="-0.3490020">
        <ele>1051.4</ele>
        <time>2020-07-27T08:04:09Z</time>
      </trkpt>
      <trkpt lat="42.9640120" lon="-0.3489210">
        <ele>1052.4</ele>
        <time>2020-07-27T08:04:13Z</time>
      </trkpt>
      <trkpt lat="42.9640840" lon="-0.3488090">
        <ele>1053.4</ele>
        <time>2020-07-27T08:04:19Z</time>
      </trkpt>
      <trkpt lat="42.9641290" lon="-0.3486830">
        <ele>1054.4</ele>
        <time>2020-07-27T08:04:24Z</time>
      </trkpt>
      <trkpt lat="42.9641380" lon="-0.3486500">
        <ele>1054.6</ele>
        <time>2020-07-27T08:04:25Z</time>
      </trkpt>
      <trkpt lat="42.9642030" lon="-0.3484830">
        <ele>1055.4</ele>
        <time>2020-07-27T08:04:29Z</time>
      </trkpt>
      <trkpt lat="42.9642110" lon="-0.3483510">
        <ele>1056.4</ele>
        <time>2020-07-27T08:04:33Z</time>
      </trkpt>
      <trkpt lat="42.9642130" lon="-0.3483160">
        <ele>1056.6</ele>
        <time>2020-07-27T08:04:34Z</time>
      </trkpt>
      <trkpt lat="42.9642450" lon="-0.3480910">
        <ele>1058.0</ele>
        <time>2020-07-27T08:04:39Z</time>
      </trkpt>
      <trkpt lat="42.9642390" lon="-0.3480520">
        <ele>1058.0</ele>
        <time>2020-07-27T08:04:40Z</time>
      </trkpt>
      <trkpt lat="42.9641890" lon="-0.3478560">
        <ele>1058.8</ele>
        <time>2020-07-27T08:04:45Z</time>
      </trkpt>
      <trkpt lat="42.9641350" lon="-0.3477370">
        <ele>1059.4</ele>
        <time>2020-07-27T08:04:48Z</time>
      </trkpt>
      <trkpt lat="42.9640770" lon="-0.3476110">
        <ele>1059.8</ele>
        <time>2020-07-27T08:04:51Z</time>
      </trkpt>
      <trkpt lat="42.9640130" lon="-0.3473910">
        <ele>1060.0</ele>
        <time>2020-07-27T08:04:56Z</time>
      </trkpt>
      <trkpt lat="42.9639950" lon="-0.3470440">
        <ele>1060.8</ele>
        <time>2020-07-27T08:05:03Z</time>
      </trkpt>
      <trkpt lat="42.9639750" lon="-0.3466760">
        <ele>1061.2</ele>
        <time>2020-07-27T08:05:10Z</time>
      </trkpt>
      <trkpt lat="42.9639760" lon="-0.3464150">
        <ele>1061.4</ele>
        <time>2020-07-27T08:05:15Z</time>
      </trkpt>
      <trkpt lat="42.9639910" lon="-0.3462930">
        <ele>1061.8</ele>
        <time>2020-07-27T08:05:17Z</time>
      </trkpt>
      <trkpt lat="42.9639830" lon="-0.3462350">
        <ele>1062.0</ele>
        <time>2020-07-27T08:05:18Z</time>
      </trkpt>
      <trkpt lat="42.9639430" lon="-0.3461370">
        <ele>1062.2</ele>
        <time>2020-07-27T08:05:20Z</time>
      </trkpt>
      <trkpt lat="42.9638440" lon="-0.3460520">
        <ele>1062.4</ele>
        <time>2020-07-27T08:05:23Z</time>
      </trkpt>
      <trkpt lat="42.9637520" lon="-0.3461140">
        <ele>1062.6</ele>
        <time>2020-07-27T08:05:26Z</time>
      </trkpt>
      <trkpt lat="42.9637250" lon="-0.3461980">
        <ele>1062.6</ele>
        <time>2020-07-27T08:05:28Z</time>
      </trkpt>
      <trkpt lat="42.9636830" lon="-0.3463500">
        <ele>1063.0</ele>
        <time>2020-07-27T08:05:31Z</time>
      </trkpt>
      <trkpt lat="42.9636700" lon="-0.3463950">
        <ele>1063.2</ele>
        <time>2020-07-27T08:05:32Z</time>
      </trkpt>
      <trkpt lat="42.9636650" lon="-0.3464350">
        <ele>1063.4</ele>
        <time>2020-07-27T08:05:33Z</time>
      </trkpt>
      <trkpt lat="42.9636580" lon="-0.3465400">
        <ele>1064.4</ele>
        <time>2020-07-27T08:05:36Z</time>
      </trkpt>
      <trkpt lat="42.9636490" lon="-0.3465800">
        <ele>1064.6</ele>
        <time>2020-07-27T08:05:37Z</time>
      </trkpt>
      <trkpt lat="42.9636360" lon="-0.3466880">
        <ele>1065.6</ele>
        <time>2020-07-27T08:05:40Z</time>
      </trkpt>
      <trkpt lat="42.9636240" lon="-0.3467610">
        <ele>1066.8</ele>
        <time>2020-07-27T08:05:42Z</time>
      </trkpt>
      <trkpt lat="42.9636140" lon="-0.3467970">
        <ele>1066.8</ele>
        <time>2020-07-27T08:05:43Z</time>
      </trkpt>
      <trkpt lat="42.9635440" lon="-0.3469330">
        <ele>1067.6</ele>
        <time>2020-07-27T08:05:47Z</time>
      </trkpt>
      <trkpt lat="42.9635000" lon="-0.3469950">
        <ele>1068.0</ele>
        <time>2020-07-27T08:05:49Z</time>
      </trkpt>
      <trkpt lat="42.9634310" lon="-0.3470830">
        <ele>1068.8</ele>
        <time>2020-07-27T08:05:52Z</time>
      </trkpt>
      <trkpt lat="42.9633190" lon="-0.3472050">
        <ele>1069.2</ele>
        <time>2020-07-27T08:05:57Z</time>
      </trkpt>
      <trkpt lat="42.9632740" lon="-0.3472310">
        <ele>1069.6</ele>
        <time>2020-07-27T08:05:59Z</time>
      </trkpt>
      <trkpt lat="42.9632100" lon="-0.3472870">
        <ele>1070.4</ele>
        <time>2020-07-27T08:06:02Z</time>
      </trkpt>
      <trkpt lat="42.9631910" lon="-0.3473100">
        <ele>1070.8</ele>
        <time>2020-07-27T08:06:03Z</time>
      </trkpt>
      <trkpt lat="42.9631030" lon="-0.3474230">
        <ele>1071.6</ele>
        <time>2020-07-27T08:06:08Z</time>
      </trkpt>
      <trkpt lat="42.9630450" lon="-0.3474860">
        <ele>1072.6</ele>
        <time>2020-07-27T08:06:11Z</time>
      </trkpt>
      <trkpt lat="42.9630260" lon="-0.3475070">
        <ele>1072.8</ele>
        <time>2020-07-27T08:06:12Z</time>
      </trkpt>
      <trkpt lat="42.9629150" lon="-0.3475940">
        <ele>1073.8</ele>
        <time>2020-07-27T08:06:17Z</time>
      </trkpt>
      <trkpt lat="42.9628730" lon="-0.3476110">
        <ele>1074.4</ele>
        <time>2020-07-27T08:06:19Z</time>
      </trkpt>
      <trkpt lat="42.9628160" lon="-0.3476300">
        <ele>1074.8</ele>
        <time>2020-07-27T08:06:22Z</time>
      </trkpt>
      <trkpt lat="42.9627840" lon="-0.3476370">
        <ele>1075.2</ele>
        <time>2020-07-27T08:06:24Z</time>
      </trkpt>
      <trkpt lat="42.9627530" lon="-0.3477000">
        <ele>1076.0</ele>
        <time>2020-07-27T08:06:27Z</time>
      </trkpt>
      <trkpt lat="42.9627410" lon="-0.3477200">
        <ele>1076.0</ele>
        <time>2020-07-27T08:06:28Z</time>
      </trkpt>
      <trkpt lat="42.9626960" lon="-0.3477860">
        <ele>1076.8</ele>
        <time>2020-07-27T08:06:32Z</time>
      </trkpt>
      <trkpt lat="42.9626810" lon="-0.3478220">
        <ele>1077.4</ele>
        <time>2020-07-27T08:06:34Z</time>
      </trkpt>
      <trkpt lat="42.9626600" lon="-0.3479200">
        <ele>1077.8</ele>
        <time>2020-07-27T08:06:37Z</time>
      </trkpt>
      <trkpt lat="42.9626360" lon="-0.3480390">
        <ele>1078.6</ele>
        <time>2020-07-27T08:06:40Z</time>
      </trkpt>
      <trkpt lat="42.9626490" lon="-0.3480990">
        <ele>1079.0</ele>
        <time>2020-07-27T08:06:42Z</time>
      </trkpt>
      <trkpt lat="42.9626470" lon="-0.3481830">
        <ele>1079.2</ele>
        <time>2020-07-27T08:06:44Z</time>
      </trkpt>
      <trkpt lat="42.9626380" lon="-0.3482830">
        <ele>1080.0</ele>
        <time>2020-07-27T08:06:48Z</time>
      </trkpt>
      <trkpt lat="42.9626380" lon="-0.3483050">
        <ele>1080.0</ele>
        <time>2020-07-27T08:06:49Z</time>
      </trkpt>
      <trkpt lat="42.9626310" lon="-0.3483420">
        <ele>1080.2</ele>
        <time>2020-07-27T08:06:50Z</time>
      </trkpt>
      <trkpt lat="42.9625830" lon="-0.3485170">
        <ele>1080.8</ele>
        <time>2020-07-27T08:06:54Z</time>
      </trkpt>
      <trkpt lat="42.9625770" lon="-0.3485500">
        <ele>1081.0</ele>
        <time>2020-07-27T08:06:55Z</time>
      </trkpt>
      <trkpt lat="42.9625590" lon="-0.3486870">
        <ele>1081.8</ele>
        <time>2020-07-27T08:06:59Z</time>
      </trkpt>
      <trkpt lat="42.9625170" lon="-0.3488350">
        <ele>1082.4</ele>
        <time>2020-07-27T08:07:02Z</time>
      </trkpt>
      <trkpt lat="42.9624900" lon="-0.3489840">
        <ele>1082.8</ele>
        <time>2020-07-27T08:07:05Z</time>
      </trkpt>
      <trkpt lat="42.9624540" lon="-0.3491830">
        <ele>1083.6</ele>
        <time>2020-07-27T08:07:09Z</time>
      </trkpt>
      <trkpt lat="42.9624340" lon="-0.3492840">
        <ele>1084.0</ele>
        <time>2020-07-27T08:07:11Z</time>
      </trkpt>
      <trkpt lat="42.9623790" lon="-0.3494540">
        <ele>1084.4</ele>
        <time>2020-07-27T08:07:15Z</time>
      </trkpt>
      <trkpt lat="42.9623110" lon="-0.3495200">
        <ele>1084.8</ele>
        <time>2020-07-27T08:07:17Z</time>
      </trkpt>
      <trkpt lat="42.9622840" lon="-0.3495280">
        <ele>1084.8</ele>
        <time>2020-07-27T08:07:18Z</time>
      </trkpt>
      <trkpt lat="42.9622560" lon="-0.3495240">
        <ele>1085.0</ele>
        <time>2020-07-27T08:07:19Z</time>
      </trkpt>
      <trkpt lat="42.9622080" lon="-0.3494580">
        <ele>1085.4</ele>
        <time>2020-07-27T08:07:22Z</time>
      </trkpt>
      <trkpt lat="42.9621940" lon="-0.3493540">
        <ele>1086.0</ele>
        <time>2020-07-27T08:07:25Z</time>
      </trkpt>
      <trkpt lat="42.9621880" lon="-0.3492430">
        <ele>1086.6</ele>
        <time>2020-07-27T08:07:28Z</time>
      </trkpt>
      <trkpt lat="42.9621800" lon="-0.3491700">
        <ele>1087.0</ele>
        <time>2020-07-27T08:07:30Z</time>
      </trkpt>
      <trkpt lat="42.9621720" lon="-0.3490970">
        <ele>1087.4</ele>
        <time>2020-07-27T08:07:32Z</time>
      </trkpt>
      <trkpt lat="42.9621580" lon="-0.3489920">
        <ele>1088.0</ele>
        <time>2020-07-27T08:07:35Z</time>
      </trkpt>
      <trkpt lat="42.9621290" lon="-0.3488710">
        <ele>1089.0</ele>
        <time>2020-07-27T08:07:39Z</time>
      </trkpt>
      <trkpt lat="42.9621160" lon="-0.3488430">
        <ele>1089.0</ele>
        <time>2020-07-27T08:07:40Z</time>
      </trkpt>
      <trkpt lat="42.9620790" lon="-0.3487270">
        <ele>1089.8</ele>
        <time>2020-07-27T08:07:44Z</time>
      </trkpt>
      <trkpt lat="42.9620670" lon="-0.3486400">
        <ele>1090.6</ele>
        <time>2020-07-27T08:07:47Z</time>
      </trkpt>
      <trkpt lat="42.9620700" lon="-0.3485780">
        <ele>1090.8</ele>
        <time>2020-07-27T08:07:49Z</time>
      </trkpt>
      <trkpt lat="42.9620600" lon="-0.3484580">
        <ele>1091.6</ele>
        <time>2020-07-27T08:07:53Z</time>
      </trkpt>
      <trkpt lat="42.9620640" lon="-0.3484320">
        <ele>1091.8</ele>
        <time>2020-07-27T08:07:54Z</time>
      </trkpt>
      <trkpt lat="42.9621260" lon="-0.3483070">
        <ele>1092.6</ele>
        <time>2020-07-27T08:07:58Z</time>
      </trkpt>
      <trkpt lat="42.9621400" lon="-0.3482710">
        <ele>1092.8</ele>
        <time>2020-07-27T08:07:59Z</time>
      </trkpt>
      <trkpt lat="42.9621740" lon="-0.3481770">
        <ele>1093.6</ele>
        <time>2020-07-27T08:08:02Z</time>
      </trkpt>
      <trkpt lat="42.9621690" lon="-0.3481470">
        <ele>1093.6</ele>
        <time>2020-07-27T08:08:03Z</time>
      </trkpt>
      <trkpt lat="42.9621770" lon="-0.3481100">
        <ele>1093.8</ele>
        <time>2020-07-27T08:08:04Z</time>
      </trkpt>
      <trkpt lat="42.9622090" lon="-0.3480060">
        <ele>1094.6</ele>
        <time>2020-07-27T08:08:07Z</time>
      </trkpt>
      <trkpt lat="42.9622220" lon="-0.3479710">
        <ele>1095.0</ele>
        <time>2020-07-27T08:08:08Z</time>
      </trkpt>
      <trkpt lat="42.9622390" lon="-0.3479380">
        <ele>1095.0</ele>
        <time>2020-07-27T08:08:09Z</time>
      </trkpt>
      <trkpt lat="42.9622590" lon="-0.3479110">
        <ele>1095.2</ele>
        <time>2020-07-27T08:08:10Z</time>
      </trkpt>
      <trkpt lat="42.9623140" lon="-0.3478070">
        <ele>1095.8</ele>
        <time>2020-07-27T08:08:13Z</time>
      </trkpt>
      <trkpt lat="42.9623340" lon="-0.3477710">
        <ele>1096.0</ele>
        <time>2020-07-27T08:08:14Z</time>
      </trkpt>
      <trkpt lat="42.9623790" lon="-0.3476330">
        <ele>1097.0</ele>
        <time>2020-07-27T08:08:19Z</time>
      </trkpt>
      <trkpt lat="42.9623800" lon="-0.3476160">
        <ele>1097.2</ele>
        <time>2020-07-27T08:08:20Z</time>
      </trkpt>
      <trkpt lat="42.9623820" lon="-0.3475090">
        <ele>1098.2</ele>
        <time>2020-07-27T08:08:24Z</time>
      </trkpt>
      <trkpt lat="42.9623860" lon="-0.3474550">
        <ele>1098.8</ele>
        <time>2020-07-27T08:08:26Z</time>
      </trkpt>
      <trkpt lat="42.9623750" lon="-0.3473880">
        <ele>1099.0</ele>
        <time>2020-07-27T08:08:28Z</time>
      </trkpt>
      <trkpt lat="42.9623820" lon="-0.3472840">
        <ele>1099.6</ele>
        <time>2020-07-27T08:08:31Z</time>
      </trkpt>
      <trkpt lat="42.9623790" lon="-0.3472150">
        <ele>1100.2</ele>
        <time>2020-07-27T08:08:33Z</time>
      </trkpt>
      <trkpt lat="42.9623700" lon="-0.3471030">
        <ele>1101.0</ele>
        <time>2020-07-27T08:08:37Z</time>
      </trkpt>
      <trkpt lat="42.9623610" lon="-0.3469880">
        <ele>1102.2</ele>
        <time>2020-07-27T08:08:42Z</time>
      </trkpt>
      <trkpt lat="42.9623340" lon="-0.3469370">
        <ele>1102.8</ele>
        <time>2020-07-27T08:08:44Z</time>
      </trkpt>
      <trkpt lat="42.9623720" lon="-0.3468680">
        <ele>1103.2</ele>
        <time>2020-07-27T08:08:46Z</time>
      </trkpt>
      <trkpt lat="42.9623590" lon="-0.3467810">
        <ele>1104.0</ele>
        <time>2020-07-27T08:08:49Z</time>
      </trkpt>
      <trkpt lat="42.9623300" lon="-0.3467590">
        <ele>1104.2</ele>
        <time>2020-07-27T08:08:50Z</time>
      </trkpt>
      <trkpt lat="42.9622500" lon="-0.3466280">
        <ele>1105.2</ele>
        <time>2020-07-27T08:08:55Z</time>
      </trkpt>
      <trkpt lat="42.9622040" lon="-0.3464380">
        <ele>1106.4</ele>
        <time>2020-07-27T08:09:01Z</time>
      </trkpt>
      <trkpt lat="42.9622370" lon="-0.3462330">
        <ele>1107.6</ele>
        <time>2020-07-27T08:09:06Z</time>
      </trkpt>
      <trkpt lat="42.9622370" lon="-0.3461610">
        <ele>1108.4</ele>
        <time>2020-07-27T08:09:08Z</time>
      </trkpt>
      <trkpt lat="42.9622470" lon="-0.3461230">
        <ele>1108.6</ele>
        <time>2020-07-27T08:09:09Z</time>
      </trkpt>
      <trkpt lat="42.9622390" lon="-0.3459710">
        <ele>1109.4</ele>
        <time>2020-07-27T08:09:14Z</time>
      </trkpt>
      <trkpt lat="42.9622220" lon="-0.3459440">
        <ele>1109.8</ele>
        <time>2020-07-27T08:09:15Z</time>
      </trkpt>
      <trkpt lat="42.9621940" lon="-0.3458690">
        <ele>1110.4</ele>
        <time>2020-07-27T08:09:18Z</time>
      </trkpt>
      <trkpt lat="42.9621610" lon="-0.3458430">
        <ele>1110.8</ele>
        <time>2020-07-27T08:09:20Z</time>
      </trkpt>
      <trkpt lat="42.9621510" lon="-0.3458340">
        <ele>1111.0</ele>
        <time>2020-07-27T08:09:21Z</time>
      </trkpt>
      <trkpt lat="42.9621330" lon="-0.3458250">
        <ele>1111.6</ele>
        <time>2020-07-27T08:09:23Z</time>
      </trkpt>
      <trkpt lat="42.9621250" lon="-0.3458220">
        <ele>1111.8</ele>
        <time>2020-07-27T08:09:24Z</time>
      </trkpt>
      <trkpt lat="42.9621220" lon="-0.3458340">
        <ele>1112.0</ele>
        <time>2020-07-27T08:09:26Z</time>
      </trkpt>
      <trkpt lat="42.9621230" lon="-0.3458460">
        <ele>1112.2</ele>
        <time>2020-07-27T08:09:27Z</time>
      </trkpt>
      <trkpt lat="42.9621260" lon="-0.3458530">
        <ele>1112.6</ele>
        <time>2020-07-27T08:09:28Z</time>
      </trkpt>
      <trkpt lat="42.9621800" lon="-0.3458400">
        <ele>1113.2</ele>
        <time>2020-07-27T08:09:32Z</time>
      </trkpt>
      <trkpt lat="42.9622050" lon="-0.3458360">
        <ele>1113.4</ele>
        <time>2020-07-27T08:09:33Z</time>
      </trkpt>
      <trkpt lat="42.9622450" lon="-0.3458160">
        <ele>1114.0</ele>
        <time>2020-07-27T08:09:35Z</time>
      </trkpt>
      <trkpt lat="42.9622830" lon="-0.3457590">
        <ele>1114.4</ele>
        <time>2020-07-27T08:09:37Z</time>
      </trkpt>
      <trkpt lat="42.9623080" lon="-0.3457210">
        <ele>1114.8</ele>
        <time>2020-07-27T08:09:38Z</time>
      </trkpt>
      <trkpt lat="42.9623650" lon="-0.3455930">
        <ele>1115.6</ele>
        <time>2020-07-27T08:09:41Z</time>
      </trkpt>
      <trkpt lat="42.9623820" lon="-0.3455590">
        <ele>1115.6</ele>
        <time>2020-07-27T08:09:42Z</time>
      </trkpt>
      <trkpt lat="42.9624050" lon="-0.3454450">
        <ele>1116.6</ele>
        <time>2020-07-27T08:09:46Z</time>
      </trkpt>
      <trkpt lat="42.9624000" lon="-0.3453680">
        <ele>1117.2</ele>
        <time>2020-07-27T08:09:49Z</time>
      </trkpt>
      <trkpt lat="42.9624050" lon="-0.3453110">
        <ele>1117.4</ele>
        <time>2020-07-27T08:09:51Z</time>
      </trkpt>
      <trkpt lat="42.9624180" lon="-0.3452000">
        <ele>1118.4</ele>
        <time>2020-07-27T08:09:55Z</time>
      </trkpt>
      <trkpt lat="42.9624310" lon="-0.3451290">
        <ele>1118.8</ele>
        <time>2020-07-27T08:09:57Z</time>
      </trkpt>
      <trkpt lat="42.9624510" lon="-0.3450130">
        <ele>1119.6</ele>
        <time>2020-07-27T08:10:00Z</time>
      </trkpt>
      <trkpt lat="42.9624940" lon="-0.3448770">
        <ele>1120.4</ele>
        <time>2020-07-27T08:10:04Z</time>
      </trkpt>
      <trkpt lat="42.9625160" lon="-0.3448090">
        <ele>1121.2</ele>
        <time>2020-07-27T08:10:06Z</time>
      </trkpt>
      <trkpt lat="42.9625130" lon="-0.3447800">
        <ele>1121.4</ele>
        <time>2020-07-27T08:10:07Z</time>
      </trkpt>
      <trkpt lat="42.9624950" lon="-0.3446350">
        <ele>1122.4</ele>
        <time>2020-07-27T08:10:12Z</time>
      </trkpt>
      <trkpt lat="42.9624830" lon="-0.3445900">
        <ele>1122.8</ele>
        <time>2020-07-27T08:10:14Z</time>
      </trkpt>
      <trkpt lat="42.9626560" lon="-0.3444140">
        <ele>1123.4</ele>
        <time>2020-07-27T08:10:17Z</time>
      </trkpt>
      <trkpt lat="42.9627250" lon="-0.3443150">
        <ele>1124.2</ele>
        <time>2020-07-27T08:10:19Z</time>
      </trkpt>
      <trkpt lat="42.9627370" lon="-0.3442460">
        <ele>1124.6</ele>
        <time>2020-07-27T08:10:21Z</time>
      </trkpt>
      <trkpt lat="42.9627900" lon="-0.3440870">
        <ele>1125.8</ele>
        <time>2020-07-27T08:10:26Z</time>
      </trkpt>
      <trkpt lat="42.9628360" lon="-0.3439300">
        <ele>1126.8</ele>
        <time>2020-07-27T08:10:31Z</time>
      </trkpt>
      <trkpt lat="42.9628430" lon="-0.3438240">
        <ele>1127.6</ele>
        <time>2020-07-27T08:10:34Z</time>
      </trkpt>
      <trkpt lat="42.9628460" lon="-0.3437900">
        <ele>1127.8</ele>
        <time>2020-07-27T08:10:35Z</time>
      </trkpt>
      <trkpt lat="42.9628400" lon="-0.3436000">
        <ele>1128.6</ele>
        <time>2020-07-27T08:10:41Z</time>
      </trkpt>
      <trkpt lat="42.9628380" lon="-0.3435670">
        <ele>1128.8</ele>
        <time>2020-07-27T08:10:42Z</time>
      </trkpt>
      <trkpt lat="42.9628410" lon="-0.3434340">
        <ele>1129.6</ele>
        <time>2020-07-27T08:10:46Z</time>
      </trkpt>
      <trkpt lat="42.9628410" lon="-0.3433110">
        <ele>1130.4</ele>
        <time>2020-07-27T08:10:50Z</time>
      </trkpt>
      <trkpt lat="42.9628410" lon="-0.3432800">
        <ele>1130.4</ele>
        <time>2020-07-27T08:10:51Z</time>
      </trkpt>
      <trkpt lat="42.9628540" lon="-0.3431570">
        <ele>1131.4</ele>
        <time>2020-07-27T08:10:55Z</time>
      </trkpt>
      <trkpt lat="42.9628660" lon="-0.3430580">
        <ele>1132.2</ele>
        <time>2020-07-27T08:10:58Z</time>
      </trkpt>
      <trkpt lat="42.9628800" lon="-0.3429950">
        <ele>1132.4</ele>
        <time>2020-07-27T08:11:00Z</time>
      </trkpt>
      <trkpt lat="42.9628940" lon="-0.3429050">
        <ele>1133.4</ele>
        <time>2020-07-27T08:11:03Z</time>
      </trkpt>
      <trkpt lat="42.9629200" lon="-0.3427630">
        <ele>1134.4</ele>
        <time>2020-07-27T08:11:08Z</time>
      </trkpt>
      <trkpt lat="42.9629230" lon="-0.3426140">
        <ele>1135.4</ele>
        <time>2020-07-27T08:11:13Z</time>
      </trkpt>
      <trkpt lat="42.9629250" lon="-0.3425220">
        <ele>1135.8</ele>
        <time>2020-07-27T08:11:16Z</time>
      </trkpt>
      <trkpt lat="42.9629460" lon="-0.3424140">
        <ele>1136.2</ele>
        <time>2020-07-27T08:11:19Z</time>
      </trkpt>
      <trkpt lat="42.9629560" lon="-0.3423220">
        <ele>1136.8</ele>
        <time>2020-07-27T08:11:22Z</time>
      </trkpt>
      <trkpt lat="42.9629500" lon="-0.3422730">
        <ele>1137.4</ele>
        <time>2020-07-27T08:11:24Z</time>
      </trkpt>
      <trkpt lat="42.9629400" lon="-0.3421710">
        <ele>1138.0</ele>
        <time>2020-07-27T08:11:28Z</time>
      </trkpt>
      <trkpt lat="42.9629260" lon="-0.3421120">
        <ele>1138.2</ele>
        <time>2020-07-27T08:11:30Z</time>
      </trkpt>
      <trkpt lat="42.9629220" lon="-0.3419790">
        <ele>1139.2</ele>
        <time>2020-07-27T08:11:34Z</time>
      </trkpt>
      <trkpt lat="42.9629190" lon="-0.3419450">
        <ele>1139.4</ele>
        <time>2020-07-27T08:11:35Z</time>
      </trkpt>
      <trkpt lat="42.9629270" lon="-0.3417020">
        <ele>1140.2</ele>
        <time>2020-07-27T08:11:42Z</time>
      </trkpt>
      <trkpt lat="42.9629260" lon="-0.3416340">
        <ele>1140.8</ele>
        <time>2020-07-27T08:11:44Z</time>
      </trkpt>
      <trkpt lat="42.9629270" lon="-0.3415310">
        <ele>1141.2</ele>
        <time>2020-07-27T08:11:47Z</time>
      </trkpt>
      <trkpt lat="42.9628980" lon="-0.3413640">
        <ele>1142.0</ele>
        <time>2020-07-27T08:11:52Z</time>
      </trkpt>
      <trkpt lat="42.9628730" lon="-0.3413110">
        <ele>1142.2</ele>
        <time>2020-07-27T08:11:54Z</time>
      </trkpt>
      <trkpt lat="42.9631470" lon="-0.3409340">
        <ele>1143.4</ele>
        <time>2020-07-27T08:12:00Z</time>
      </trkpt>
      <trkpt lat="42.9631640" lon="-0.3408910">
        <ele>1143.8</ele>
        <time>2020-07-27T08:12:01Z</time>
      </trkpt>
      <trkpt lat="42.9631870" lon="-0.3407430">
        <ele>1144.6</ele>
        <time>2020-07-27T08:12:05Z</time>
      </trkpt>
      <trkpt lat="42.9631640" lon="-0.3406530">
        <ele>1145.0</ele>
        <time>2020-07-27T08:12:08Z</time>
      </trkpt>
      <trkpt lat="42.9631440" lon="-0.3405910">
        <ele>1145.4</ele>
        <time>2020-07-27T08:12:10Z</time>
      </trkpt>
      <trkpt lat="42.9631020" lon="-0.3404120">
        <ele>1146.6</ele>
        <time>2020-07-27T08:12:15Z</time>
      </trkpt>
      <trkpt lat="42.9630930" lon="-0.3403770">
        <ele>1146.8</ele>
        <time>2020-07-27T08:12:16Z</time>
      </trkpt>
      <trkpt lat="42.9630570" lon="-0.3402560">
        <ele>1147.8</ele>
        <time>2020-07-27T08:12:20Z</time>
      </trkpt>
      <trkpt lat="42.9630240" lon="-0.3401550">
        <ele>1148.4</ele>
        <time>2020-07-27T08:12:23Z</time>
      </trkpt>
      <trkpt lat="42.9629830" lon="-0.3400590">
        <ele>1148.8</ele>
        <time>2020-07-27T08:12:26Z</time>
      </trkpt>
      <trkpt lat="42.9629340" lon="-0.3399160">
        <ele>1149.8</ele>
        <time>2020-07-27T08:12:31Z</time>
      </trkpt>
      <trkpt lat="42.9628810" lon="-0.3397290">
        <ele>1151.0</ele>
        <time>2020-07-27T08:12:37Z</time>
      </trkpt>
      <trkpt lat="42.9628730" lon="-0.3396940">
        <ele>1151.2</ele>
        <time>2020-07-27T08:12:38Z</time>
      </trkpt>
      <trkpt lat="42.9628570" lon="-0.3395760">
        <ele>1152.0</ele>
        <time>2020-07-27T08:12:42Z</time>
      </trkpt>
      <trkpt lat="42.9628680" lon="-0.3395260">
        <ele>1152.4</ele>
        <time>2020-07-27T08:12:44Z</time>
      </trkpt>
      <trkpt lat="42.9628940" lon="-0.3394580">
        <ele>1153.0</ele>
        <time>2020-07-27T08:12:47Z</time>
      </trkpt>
      <trkpt lat="42.9629400" lon="-0.3394050">
        <ele>1153.6</ele>
        <time>2020-07-27T08:12:50Z</time>
      </trkpt>
      <trkpt lat="42.9630040" lon="-0.3393620">
        <ele>1154.2</ele>
        <time>2020-07-27T08:12:53Z</time>
      </trkpt>
      <trkpt lat="42.9630910" lon="-0.3393110">
        <ele>1155.0</ele>
        <time>2020-07-27T08:12:56Z</time>
      </trkpt>
      <trkpt lat="42.9631290" lon="-0.3392910">
        <ele>1155.2</ele>
        <time>2020-07-27T08:12:57Z</time>
      </trkpt>
      <trkpt lat="42.9632310" lon="-0.3392370">
        <ele>1156.4</ele>
        <time>2020-07-27T08:13:00Z</time>
      </trkpt>
      <trkpt lat="42.9633610" lon="-0.3391760">
        <ele>1157.2</ele>
        <time>2020-07-27T08:13:03Z</time>
      </trkpt>
      <trkpt lat="42.9634360" lon="-0.3391390">
        <ele>1157.4</ele>
        <time>2020-07-27T08:13:05Z</time>
      </trkpt>
      <trkpt lat="42.9636280" lon="-0.3390640">
        <ele>1158.6</ele>
        <time>2020-07-27T08:13:11Z</time>
      </trkpt>
      <trkpt lat="42.9637720" lon="-0.3390520">
        <ele>1159.6</ele>
        <time>2020-07-27T08:13:17Z</time>
      </trkpt>
      <trkpt lat="42.9638230" lon="-0.3390650">
        <ele>1160.0</ele>
        <time>2020-07-27T08:13:19Z</time>
      </trkpt>
      <trkpt lat="42.9638940" lon="-0.3391020">
        <ele>1160.6</ele>
        <time>2020-07-27T08:13:22Z</time>
      </trkpt>
      <trkpt lat="42.9639740" lon="-0.3391920">
        <ele>1161.8</ele>
        <time>2020-07-27T08:13:26Z</time>
      </trkpt>
      <trkpt lat="42.9640630" lon="-0.3393070">
        <ele>1162.8</ele>
        <time>2020-07-27T08:13:31Z</time>
      </trkpt>
      <trkpt lat="42.9640860" lon="-0.3393710">
        <ele>1163.4</ele>
        <time>2020-07-27T08:13:33Z</time>
      </trkpt>
      <trkpt lat="42.9641150" lon="-0.3394630">
        <ele>1163.8</ele>
        <time>2020-07-27T08:13:36Z</time>
      </trkpt>
      <trkpt lat="42.9641250" lon="-0.3396390">
        <ele>1165.0</ele>
        <time>2020-07-27T08:13:41Z</time>
      </trkpt>
      <trkpt lat="42.9641180" lon="-0.3398170">
        <ele>1166.0</ele>
        <time>2020-07-27T08:13:46Z</time>
      </trkpt>
      <trkpt lat="42.9641210" lon="-0.3399220">
        <ele>1166.6</ele>
        <time>2020-07-27T08:13:49Z</time>
      </trkpt>
      <trkpt lat="42.9641230" lon="-0.3399880">
        <ele>1167.0</ele>
        <time>2020-07-27T08:13:51Z</time>
      </trkpt>
      <trkpt lat="42.9641360" lon="-0.3400990">
        <ele>1168.2</ele>
        <time>2020-07-27T08:13:55Z</time>
      </trkpt>
      <trkpt lat="42.9641360" lon="-0.3401680">
        <ele>1168.6</ele>
        <time>2020-07-27T08:13:57Z</time>
      </trkpt>
      <trkpt lat="42.9641350" lon="-0.3402080">
        <ele>1169.0</ele>
        <time>2020-07-27T08:13:58Z</time>
      </trkpt>
      <trkpt lat="42.9641400" lon="-0.3403840">
        <ele>1170.0</ele>
        <time>2020-07-27T08:14:03Z</time>
      </trkpt>
      <trkpt lat="42.9641420" lon="-0.3404140">
        <ele>1170.2</ele>
        <time>2020-07-27T08:14:04Z</time>
      </trkpt>
      <trkpt lat="42.9641400" lon="-0.3405500">
        <ele>1171.2</ele>
        <time>2020-07-27T08:14:09Z</time>
      </trkpt>
      <trkpt lat="42.9641340" lon="-0.3406510">
        <ele>1171.4</ele>
        <time>2020-07-27T08:14:12Z</time>
      </trkpt>
      <trkpt lat="42.9641340" lon="-0.3407540">
        <ele>1172.0</ele>
        <time>2020-07-27T08:14:15Z</time>
      </trkpt>
      <trkpt lat="42.9641290" lon="-0.3409260">
        <ele>1173.0</ele>
        <time>2020-07-27T08:14:20Z</time>
      </trkpt>
      <trkpt lat="42.9641550" lon="-0.3410870">
        <ele>1174.2</ele>
        <time>2020-07-27T08:14:25Z</time>
      </trkpt>
      <trkpt lat="42.9641740" lon="-0.3412260">
        <ele>1175.2</ele>
        <time>2020-07-27T08:14:29Z</time>
      </trkpt>
      <trkpt lat="42.9641810" lon="-0.3412520">
        <ele>1175.4</ele>
        <time>2020-07-27T08:14:30Z</time>
      </trkpt>
      <trkpt lat="42.9642120" lon="-0.3414300">
        <ele>1176.4</ele>
        <time>2020-07-27T08:14:35Z</time>
      </trkpt>
      <trkpt lat="42.9642280" lon="-0.3415000">
        <ele>1176.8</ele>
        <time>2020-07-27T08:14:37Z</time>
      </trkpt>
      <trkpt lat="42.9642590" lon="-0.3415870">
        <ele>1177.6</ele>
        <time>2020-07-27T08:14:40Z</time>
      </trkpt>
      <trkpt lat="42.9643010" lon="-0.3417100">
        <ele>1178.6</ele>
        <time>2020-07-27T08:14:44Z</time>
      </trkpt>
      <trkpt lat="42.9643400" lon="-0.3418230">
        <ele>1179.8</ele>
        <time>2020-07-27T08:14:48Z</time>
      </trkpt>
      <trkpt lat="42.9643800" lon="-0.3419390">
        <ele>1181.0</ele>
        <time>2020-07-27T08:14:52Z</time>
      </trkpt>
      <trkpt lat="42.9643910" lon="-0.3419680">
        <ele>1181.2</ele>
        <time>2020-07-27T08:14:53Z</time>
      </trkpt>
      <trkpt lat="42.9644230" lon="-0.3420470">
        <ele>1182.2</ele>
        <time>2020-07-27T08:14:56Z</time>
      </trkpt>
      <trkpt lat="42.9644700" lon="-0.3421980">
        <ele>1182.8</ele>
        <time>2020-07-27T08:15:01Z</time>
      </trkpt>
      <trkpt lat="42.9645080" lon="-0.3423610">
        <ele>1183.4</ele>
        <time>2020-07-27T08:15:06Z</time>
      </trkpt>
      <trkpt lat="42.9645360" lon="-0.3424510">
        <ele>1184.2</ele>
        <time>2020-07-27T08:15:09Z</time>
      </trkpt>
      <trkpt lat="42.9645560" lon="-0.3425100">
        <ele>1184.6</ele>
        <time>2020-07-27T08:15:11Z</time>
      </trkpt>
      <trkpt lat="42.9645890" lon="-0.3426350">
        <ele>1185.6</ele>
        <time>2020-07-27T08:15:15Z</time>
      </trkpt>
      <trkpt lat="42.9646130" lon="-0.3427720">
        <ele>1186.6</ele>
        <time>2020-07-27T08:15:19Z</time>
      </trkpt>
      <trkpt lat="42.9646210" lon="-0.3428070">
        <ele>1186.8</ele>
        <time>2020-07-27T08:15:20Z</time>
      </trkpt>
      <trkpt lat="42.9646480" lon="-0.3429080">
        <ele>1187.8</ele>
        <time>2020-07-27T08:15:23Z</time>
      </trkpt>
      <trkpt lat="42.9646750" lon="-0.3430090">
        <ele>1188.6</ele>
        <time>2020-07-27T08:15:26Z</time>
      </trkpt>
      <trkpt lat="42.9646840" lon="-0.3430450">
        <ele>1189.0</ele>
        <time>2020-07-27T08:15:27Z</time>
      </trkpt>
      <trkpt lat="42.9647770" lon="-0.3432960">
        <ele>1190.0</ele>
        <time>2020-07-27T08:15:35Z</time>
      </trkpt>
      <trkpt lat="42.9647950" lon="-0.3433210">
        <ele>1190.0</ele>
        <time>2020-07-27T08:15:36Z</time>
      </trkpt>
      <trkpt lat="42.9648970" lon="-0.3433810">
        <ele>1191.0</ele>
        <time>2020-07-27T08:15:41Z</time>
      </trkpt>
      <trkpt lat="42.9649890" lon="-0.3433100">
        <ele>1192.4</ele>
        <time>2020-07-27T08:15:46Z</time>
      </trkpt>
      <trkpt lat="42.9650020" lon="-0.3432850">
        <ele>1192.6</ele>
        <time>2020-07-27T08:15:47Z</time>
      </trkpt>
      <trkpt lat="42.9650330" lon="-0.3431720">
        <ele>1193.4</ele>
        <time>2020-07-27T08:15:51Z</time>
      </trkpt>
      <trkpt lat="42.9650440" lon="-0.3431100">
        <ele>1193.8</ele>
        <time>2020-07-27T08:15:53Z</time>
      </trkpt>
      <trkpt lat="42.9650540" lon="-0.3430420">
        <ele>1194.4</ele>
        <time>2020-07-27T08:15:55Z</time>
      </trkpt>
      <trkpt lat="42.9650710" lon="-0.3429370">
        <ele>1195.6</ele>
        <time>2020-07-27T08:15:58Z</time>
      </trkpt>
      <trkpt lat="42.9651000" lon="-0.3427240">
        <ele>1196.6</ele>
        <time>2020-07-27T08:16:04Z</time>
      </trkpt>
      <trkpt lat="42.9651030" lon="-0.3426880">
        <ele>1196.8</ele>
        <time>2020-07-27T08:16:05Z</time>
      </trkpt>
      <trkpt lat="42.9651010" lon="-0.3425190">
        <ele>1197.6</ele>
        <time>2020-07-27T08:16:10Z</time>
      </trkpt>
      <trkpt lat="42.9650930" lon="-0.3424540">
        <ele>1198.0</ele>
        <time>2020-07-27T08:16:12Z</time>
      </trkpt>
      <trkpt lat="42.9650820" lon="-0.3423640">
        <ele>1198.8</ele>
        <time>2020-07-27T08:16:15Z</time>
      </trkpt>
      <trkpt lat="42.9650700" lon="-0.3421800">
        <ele>1199.8</ele>
        <time>2020-07-27T08:16:21Z</time>
      </trkpt>
      <trkpt lat="42.9650560" lon="-0.3420320">
        <ele>1201.0</ele>
        <time>2020-07-27T08:16:26Z</time>
      </trkpt>
      <trkpt lat="42.9650450" lon="-0.3419390">
        <ele>1201.6</ele>
        <time>2020-07-27T08:16:30Z</time>
      </trkpt>
      <trkpt lat="42.9650340" lon="-0.3418570">
        <ele>1202.0</ele>
        <time>2020-07-27T08:16:33Z</time>
      </trkpt>
      <trkpt lat="42.9650190" lon="-0.3417140">
        <ele>1202.8</ele>
        <time>2020-07-27T08:16:38Z</time>
      </trkpt>
      <trkpt lat="42.9650010" lon="-0.3415320">
        <ele>1203.8</ele>
        <time>2020-07-27T08:16:44Z</time>
      </trkpt>
      <trkpt lat="42.9649920" lon="-0.3414730">
        <ele>1204.2</ele>
        <time>2020-07-27T08:16:46Z</time>
      </trkpt>
      <trkpt lat="42.9649730" lon="-0.3413560">
        <ele>1205.0</ele>
        <time>2020-07-27T08:16:50Z</time>
      </trkpt>
      <trkpt lat="42.9649730" lon="-0.3412600">
        <ele>1205.8</ele>
        <time>2020-07-27T08:16:53Z</time>
      </trkpt>
      <trkpt lat="42.9649860" lon="-0.3411690">
        <ele>1206.8</ele>
        <time>2020-07-27T08:16:56Z</time>
      </trkpt>
      <trkpt lat="42.9649790" lon="-0.3410700">
        <ele>1207.4</ele>
        <time>2020-07-27T08:16:59Z</time>
      </trkpt>
      <trkpt lat="42.9649720" lon="-0.3410030">
        <ele>1208.0</ele>
        <time>2020-07-27T08:17:01Z</time>
      </trkpt>
      <trkpt lat="42.9649540" lon="-0.3408090">
        <ele>1209.0</ele>
        <time>2020-07-27T08:17:07Z</time>
      </trkpt>
      <trkpt lat="42.9649480" lon="-0.3407090">
        <ele>1209.6</ele>
        <time>2020-07-27T08:17:10Z</time>
      </trkpt>
      <trkpt lat="42.9649520" lon="-0.3406080">
        <ele>1210.0</ele>
        <time>2020-07-27T08:17:13Z</time>
      </trkpt>
      <trkpt lat="42.9649490" lon="-0.3405440">
        <ele>1210.4</ele>
        <time>2020-07-27T08:17:15Z</time>
      </trkpt>
      <trkpt lat="42.9649300" lon="-0.3404560">
        <ele>1211.0</ele>
        <time>2020-07-27T08:17:18Z</time>
      </trkpt>
      <trkpt lat="42.9648870" lon="-0.3403120">
        <ele>1212.2</ele>
        <time>2020-07-27T08:17:23Z</time>
      </trkpt>
      <trkpt lat="42.9648770" lon="-0.3402830">
        <ele>1212.4</ele>
        <time>2020-07-27T08:17:24Z</time>
      </trkpt>
      <trkpt lat="42.9648410" lon="-0.3401530">
        <ele>1213.2</ele>
        <time>2020-07-27T08:17:28Z</time>
      </trkpt>
      <trkpt lat="42.9648160" lon="-0.3400610">
        <ele>1213.8</ele>
        <time>2020-07-27T08:17:31Z</time>
      </trkpt>
      <trkpt lat="42.9648000" lon="-0.3399980">
        <ele>1214.2</ele>
        <time>2020-07-27T08:17:33Z</time>
      </trkpt>
      <trkpt lat="42.9647930" lon="-0.3398750">
        <ele>1215.0</ele>
        <time>2020-07-27T08:17:37Z</time>
      </trkpt>
      <trkpt lat="42.9647600" lon="-0.3398140">
        <ele>1215.4</ele>
        <time>2020-07-27T08:17:39Z</time>
      </trkpt>
      <trkpt lat="42.9647360" lon="-0.3396770">
        <ele>1216.2</ele>
        <time>2020-07-27T08:17:43Z</time>
      </trkpt>
      <trkpt lat="42.9647260" lon="-0.3396100">
        <ele>1216.4</ele>
        <time>2020-07-27T08:17:45Z</time>
      </trkpt>
      <trkpt lat="42.9647150" lon="-0.3394630">
        <ele>1217.6</ele>
        <time>2020-07-27T08:17:50Z</time>
      </trkpt>
      <trkpt lat="42.9647210" lon="-0.3393780">
        <ele>1218.6</ele>
        <time>2020-07-27T08:17:53Z</time>
      </trkpt>
      <trkpt lat="42.9647090" lon="-0.3393030">
        <ele>1219.4</ele>
        <time>2020-07-27T08:17:56Z</time>
      </trkpt>
      <trkpt lat="42.9646950" lon="-0.3392490">
        <ele>1219.8</ele>
        <time>2020-07-27T08:17:58Z</time>
      </trkpt>
      <trkpt lat="42.9646760" lon="-0.3391670">
        <ele>1220.4</ele>
        <time>2020-07-27T08:18:01Z</time>
      </trkpt>
      <trkpt lat="42.9646670" lon="-0.3391030">
        <ele>1220.8</ele>
        <time>2020-07-27T08:18:03Z</time>
      </trkpt>
      <trkpt lat="42.9646540" lon="-0.3389790">
        <ele>1221.8</ele>
        <time>2020-07-27T08:18:07Z</time>
      </trkpt>
      <trkpt lat="42.9646410" lon="-0.3388880">
        <ele>1222.8</ele>
        <time>2020-07-27T08:18:10Z</time>
      </trkpt>
      <trkpt lat="42.9646370" lon="-0.3388600">
        <ele>1223.0</ele>
        <time>2020-07-27T08:18:11Z</time>
      </trkpt>
      <trkpt lat="42.9645860" lon="-0.3387000">
        <ele>1223.8</ele>
        <time>2020-07-27T08:18:16Z</time>
      </trkpt>
      <trkpt lat="42.9645830" lon="-0.3386330">
        <ele>1224.2</ele>
        <time>2020-07-27T08:18:18Z</time>
      </trkpt>
      <trkpt lat="42.9645760" lon="-0.3385630">
        <ele>1224.4</ele>
        <time>2020-07-27T08:18:20Z</time>
      </trkpt>
      <trkpt lat="42.9645790" lon="-0.3385010">
        <ele>1225.0</ele>
        <time>2020-07-27T08:18:22Z</time>
      </trkpt>
      <trkpt lat="42.9645780" lon="-0.3383740">
        <ele>1225.6</ele>
        <time>2020-07-27T08:18:26Z</time>
      </trkpt>
      <trkpt lat="42.9645630" lon="-0.3383270">
        <ele>1226.2</ele>
        <time>2020-07-27T08:18:28Z</time>
      </trkpt>
      <trkpt lat="42.9645140" lon="-0.3381870">
        <ele>1227.2</ele>
        <time>2020-07-27T08:18:33Z</time>
      </trkpt>
      <trkpt lat="42.9644970" lon="-0.3381240">
        <ele>1227.8</ele>
        <time>2020-07-27T08:18:35Z</time>
      </trkpt>
      <trkpt lat="42.9644800" lon="-0.3380210">
        <ele>1228.6</ele>
        <time>2020-07-27T08:18:38Z</time>
      </trkpt>
      <trkpt lat="42.9644640" lon="-0.3379260">
        <ele>1229.2</ele>
        <time>2020-07-27T08:18:41Z</time>
      </trkpt>
      <trkpt lat="42.9644590" lon="-0.3378600">
        <ele>1229.8</ele>
        <time>2020-07-27T08:18:43Z</time>
      </trkpt>
      <trkpt lat="42.9644510" lon="-0.3376910">
        <ele>1231.0</ele>
        <time>2020-07-27T08:18:48Z</time>
      </trkpt>
      <trkpt lat="42.9644530" lon="-0.3376570">
        <ele>1231.2</ele>
        <time>2020-07-27T08:18:49Z</time>
      </trkpt>
      <trkpt lat="42.9644610" lon="-0.3375260">
        <ele>1232.0</ele>
        <time>2020-07-27T08:18:53Z</time>
      </trkpt>
      <trkpt lat="42.9644830" lon="-0.3373980">
        <ele>1233.0</ele>
        <time>2020-07-27T08:18:57Z</time>
      </trkpt>
      <trkpt lat="42.9644860" lon="-0.3373660">
        <ele>1233.2</ele>
        <time>2020-07-27T08:18:58Z</time>
      </trkpt>
      <trkpt lat="42.9644920" lon="-0.3372320">
        <ele>1234.4</ele>
        <time>2020-07-27T08:19:03Z</time>
      </trkpt>
      <trkpt lat="42.9644900" lon="-0.3372090">
        <ele>1234.6</ele>
        <time>2020-07-27T08:19:04Z</time>
      </trkpt>
      <trkpt lat="42.9645080" lon="-0.3371250">
        <ele>1235.6</ele>
        <time>2020-07-27T08:19:08Z</time>
      </trkpt>
      <trkpt lat="42.9645100" lon="-0.3370760">
        <ele>1236.0</ele>
        <time>2020-07-27T08:19:10Z</time>
      </trkpt>
      <trkpt lat="42.9644950" lon="-0.3369860">
        <ele>1236.4</ele>
        <time>2020-07-27T08:19:13Z</time>
      </trkpt>
      <trkpt lat="42.9644720" lon="-0.3368460">
        <ele>1237.0</ele>
        <time>2020-07-27T08:19:17Z</time>
      </trkpt>
      <trkpt lat="42.9644600" lon="-0.3367760">
        <ele>1237.4</ele>
        <time>2020-07-27T08:19:19Z</time>
      </trkpt>
      <trkpt lat="42.9644330" lon="-0.3366410">
        <ele>1238.4</ele>
        <time>2020-07-27T08:19:23Z</time>
      </trkpt>
      <trkpt lat="42.9644190" lon="-0.3365460">
        <ele>1239.4</ele>
        <time>2020-07-27T08:19:26Z</time>
      </trkpt>
      <trkpt lat="42.9643830" lon="-0.3364140">
        <ele>1240.6</ele>
        <time>2020-07-27T08:19:30Z</time>
      </trkpt>
      <trkpt lat="42.9643330" lon="-0.3362720">
        <ele>1241.4</ele>
        <time>2020-07-27T08:19:34Z</time>
      </trkpt>
      <trkpt lat="42.9643260" lon="-0.3362120">
        <ele>1241.8</ele>
        <time>2020-07-27T08:19:36Z</time>
      </trkpt>
      <trkpt lat="42.9643060" lon="-0.3360600">
        <ele>1242.6</ele>
        <time>2020-07-27T08:19:41Z</time>
      </trkpt>
      <trkpt lat="42.9643060" lon="-0.3360000">
        <ele>1243.0</ele>
        <time>2020-07-27T08:19:43Z</time>
      </trkpt>
      <trkpt lat="42.9642910" lon="-0.3359120">
        <ele>1243.8</ele>
        <time>2020-07-27T08:19:46Z</time>
      </trkpt>
      <trkpt lat="42.9642840" lon="-0.3358810">
        <ele>1243.8</ele>
        <time>2020-07-27T08:19:47Z</time>
      </trkpt>
      <trkpt lat="42.9642560" lon="-0.3357710">
        <ele>1244.8</ele>
        <time>2020-07-27T08:19:51Z</time>
      </trkpt>
      <trkpt lat="42.9642500" lon="-0.3357450">
        <ele>1245.0</ele>
        <time>2020-07-27T08:19:52Z</time>
      </trkpt>
      <trkpt lat="42.9642360" lon="-0.3356350">
        <ele>1246.0</ele>
        <time>2020-07-27T08:19:56Z</time>
      </trkpt>
      <trkpt lat="42.9642250" lon="-0.3355340">
        <ele>1247.0</ele>
        <time>2020-07-27T08:20:00Z</time>
      </trkpt>
      <trkpt lat="42.9641800" lon="-0.3353620">
        <ele>1248.0</ele>
        <time>2020-07-27T08:20:06Z</time>
      </trkpt>
      <trkpt lat="42.9641410" lon="-0.3351910">
        <ele>1249.2</ele>
        <time>2020-07-27T08:20:12Z</time>
      </trkpt>
      <trkpt lat="42.9640940" lon="-0.3350470">
        <ele>1250.2</ele>
        <time>2020-07-27T08:20:18Z</time>
      </trkpt>
      <trkpt lat="42.9640850" lon="-0.3350220">
        <ele>1250.4</ele>
        <time>2020-07-27T08:20:19Z</time>
      </trkpt>
      <trkpt lat="42.9640310" lon="-0.3348800">
        <ele>1251.4</ele>
        <time>2020-07-27T08:20:24Z</time>
      </trkpt>
      <trkpt lat="42.9640150" lon="-0.3348530">
        <ele>1251.6</ele>
        <time>2020-07-27T08:20:25Z</time>
      </trkpt>
      <trkpt lat="42.9639740" lon="-0.3347550">
        <ele>1252.6</ele>
        <time>2020-07-27T08:20:29Z</time>
      </trkpt>
      <trkpt lat="42.9639570" lon="-0.3347070">
        <ele>1253.0</ele>
        <time>2020-07-27T08:20:31Z</time>
      </trkpt>
      <trkpt lat="42.9639460" lon="-0.3346380">
        <ele>1253.6</ele>
        <time>2020-07-27T08:20:34Z</time>
      </trkpt>
      <trkpt lat="42.9639170" lon="-0.3345420">
        <ele>1254.6</ele>
        <time>2020-07-27T08:20:38Z</time>
      </trkpt>
      <trkpt lat="42.9639180" lon="-0.3345140">
        <ele>1254.8</ele>
        <time>2020-07-27T08:20:39Z</time>
      </trkpt>
      <trkpt lat="42.9639100" lon="-0.3343780">
        <ele>1255.8</ele>
        <time>2020-07-27T08:20:44Z</time>
      </trkpt>
      <trkpt lat="42.9638980" lon="-0.3343510">
        <ele>1255.8</ele>
        <time>2020-07-27T08:20:45Z</time>
      </trkpt>
      <trkpt lat="42.9638620" lon="-0.3342720">
        <ele>1256.6</ele>
        <time>2020-07-27T08:20:48Z</time>
      </trkpt>
      <trkpt lat="42.9638020" lon="-0.3341680">
        <ele>1257.6</ele>
        <time>2020-07-27T08:20:52Z</time>
      </trkpt>
      <trkpt lat="42.9637860" lon="-0.3341400">
        <ele>1257.8</ele>
        <time>2020-07-27T08:20:53Z</time>
      </trkpt>
      <trkpt lat="42.9637060" lon="-0.3340180">
        <ele>1259.0</ele>
        <time>2020-07-27T08:20:58Z</time>
      </trkpt>
      <trkpt lat="42.9636630" lon="-0.3339640">
        <ele>1259.4</ele>
        <time>2020-07-27T08:21:00Z</time>
      </trkpt>
      <trkpt lat="42.9636210" lon="-0.3339080">
        <ele>1260.0</ele>
        <time>2020-07-27T08:21:02Z</time>
      </trkpt>
      <trkpt lat="42.9634750" lon="-0.3337480">
        <ele>1261.0</ele>
        <time>2020-07-27T08:21:07Z</time>
      </trkpt>
      <trkpt lat="42.9634020" lon="-0.3336550">
        <ele>1261.6</ele>
        <time>2020-07-27T08:21:10Z</time>
      </trkpt>
      <trkpt lat="42.9633490" lon="-0.3335940">
        <ele>1262.2</ele>
        <time>2020-07-27T08:21:12Z</time>
      </trkpt>
      <trkpt lat="42.9632920" lon="-0.3335080">
        <ele>1263.0</ele>
        <time>2020-07-27T08:21:16Z</time>
      </trkpt>
      <trkpt lat="42.9632770" lon="-0.3334880">
        <ele>1263.4</ele>
        <time>2020-07-27T08:21:17Z</time>
      </trkpt>
      <trkpt lat="42.9632240" lon="-0.3334190">
        <ele>1264.2</ele>
        <time>2020-07-27T08:21:21Z</time>
      </trkpt>
      <trkpt lat="42.9631890" lon="-0.3333740">
        <ele>1264.6</ele>
        <time>2020-07-27T08:21:23Z</time>
      </trkpt>
      <trkpt lat="42.9631140" lon="-0.3333020">
        <ele>1265.2</ele>
        <time>2020-07-27T08:21:26Z</time>
      </trkpt>
      <trkpt lat="42.9630660" lon="-0.3332690">
        <ele>1265.2</ele>
        <time>2020-07-27T08:21:28Z</time>
      </trkpt>
      <trkpt lat="42.9629460" lon="-0.3331910">
        <ele>1266.0</ele>
        <time>2020-07-27T08:21:32Z</time>
      </trkpt>
      <trkpt lat="42.9628200" lon="-0.3330860">
        <ele>1267.2</ele>
        <time>2020-07-27T08:21:37Z</time>
      </trkpt>
      <trkpt lat="42.9626890" lon="-0.3329690">
        <ele>1268.0</ele>
        <time>2020-07-27T08:21:43Z</time>
      </trkpt>
      <trkpt lat="42.9626700" lon="-0.3329520">
        <ele>1268.2</ele>
        <time>2020-07-27T08:21:44Z</time>
      </trkpt>
      <trkpt lat="42.9625900" lon="-0.3328860">
        <ele>1269.2</ele>
        <time>2020-07-27T08:21:48Z</time>
      </trkpt>
      <trkpt lat="42.9625180" lon="-0.3328120">
        <ele>1270.2</ele>
        <time>2020-07-27T08:21:52Z</time>
      </trkpt>
      <trkpt lat="42.9625010" lon="-0.3327940">
        <ele>1270.4</ele>
        <time>2020-07-27T08:21:53Z</time>
      </trkpt>
      <trkpt lat="42.9624040" lon="-0.3327100">
        <ele>1271.4</ele>
        <time>2020-07-27T08:21:58Z</time>
      </trkpt>
      <trkpt lat="42.9623860" lon="-0.3326980">
        <ele>1271.4</ele>
        <time>2020-07-27T08:21:59Z</time>
      </trkpt>
      <trkpt lat="42.9623160" lon="-0.3326730">
        <ele>1272.4</ele>
        <time>2020-07-27T08:22:03Z</time>
      </trkpt>
      <trkpt lat="42.9622500" lon="-0.3326540">
        <ele>1273.0</ele>
        <time>2020-07-27T08:22:06Z</time>
      </trkpt>
      <trkpt lat="42.9621960" lon="-0.3326450">
        <ele>1273.6</ele>
        <time>2020-07-27T08:22:09Z</time>
      </trkpt>
      <trkpt lat="42.9620680" lon="-0.3326190">
        <ele>1274.6</ele>
        <time>2020-07-27T08:22:14Z</time>
      </trkpt>
      <trkpt lat="42.9619950" lon="-0.3326020">
        <ele>1275.6</ele>
        <time>2020-07-27T08:22:17Z</time>
      </trkpt>
      <trkpt lat="42.9618760" lon="-0.3325930">
        <ele>1276.8</ele>
        <time>2020-07-27T08:22:22Z</time>
      </trkpt>
      <trkpt lat="42.9617750" lon="-0.3325770">
        <ele>1277.6</ele>
        <time>2020-07-27T08:22:26Z</time>
      </trkpt>
      <trkpt lat="42.9617240" lon="-0.3325710">
        <ele>1278.2</ele>
        <time>2020-07-27T08:22:28Z</time>
      </trkpt>
      <trkpt lat="42.9617010" lon="-0.3325740">
        <ele>1278.4</ele>
        <time>2020-07-27T08:22:29Z</time>
      </trkpt>
      <trkpt lat="42.9616550" lon="-0.3325840">
        <ele>1278.8</ele>
        <time>2020-07-27T08:22:31Z</time>
      </trkpt>
      <trkpt lat="42.9615430" lon="-0.3326190">
        <ele>1279.6</ele>
        <time>2020-07-27T08:22:36Z</time>
      </trkpt>
      <trkpt lat="42.9615060" lon="-0.3326430">
        <ele>1280.4</ele>
        <time>2020-07-27T08:22:38Z</time>
      </trkpt>
      <trkpt lat="42.9614730" lon="-0.3326720">
        <ele>1281.0</ele>
        <time>2020-07-27T08:22:40Z</time>
      </trkpt>
      <trkpt lat="42.9614020" lon="-0.3327370">
        <ele>1282.0</ele>
        <time>2020-07-27T08:22:44Z</time>
      </trkpt>
      <trkpt lat="42.9613120" lon="-0.3328370">
        <ele>1283.2</ele>
        <time>2020-07-27T08:22:49Z</time>
      </trkpt>
      <trkpt lat="42.9612390" lon="-0.3329150">
        <ele>1284.2</ele>
        <time>2020-07-27T08:22:53Z</time>
      </trkpt>
      <trkpt lat="42.9611550" lon="-0.3329760">
        <ele>1285.0</ele>
        <time>2020-07-27T08:22:57Z</time>
      </trkpt>
      <trkpt lat="42.9611100" lon="-0.3329900">
        <ele>1285.2</ele>
        <time>2020-07-27T08:22:59Z</time>
      </trkpt>
      <trkpt lat="42.9609970" lon="-0.3329900">
        <ele>1286.4</ele>
        <time>2020-07-27T08:23:04Z</time>
      </trkpt>
      <trkpt lat="42.9609740" lon="-0.3329800">
        <ele>1286.2</ele>
        <time>2020-07-27T08:23:05Z</time>
      </trkpt>
      <trkpt lat="42.9608900" lon="-0.3329330">
        <ele>1287.2</ele>
        <time>2020-07-27T08:23:09Z</time>
      </trkpt>
      <trkpt lat="42.9608460" lon="-0.3328940">
        <ele>1287.6</ele>
        <time>2020-07-27T08:23:11Z</time>
      </trkpt>
      <trkpt lat="42.9607780" lon="-0.3328470">
        <ele>1288.2</ele>
        <time>2020-07-27T08:23:14Z</time>
      </trkpt>
      <trkpt lat="42.9607150" lon="-0.3328080">
        <ele>1288.8</ele>
        <time>2020-07-27T08:23:17Z</time>
      </trkpt>
      <trkpt lat="42.9606660" lon="-0.3327840">
        <ele>1289.4</ele>
        <time>2020-07-27T08:23:19Z</time>
      </trkpt>
      <trkpt lat="42.9605660" lon="-0.3327670">
        <ele>1290.4</ele>
        <time>2020-07-27T08:23:23Z</time>
      </trkpt>
      <trkpt lat="42.9605370" lon="-0.3327640">
        <ele>1290.6</ele>
        <time>2020-07-27T08:23:24Z</time>
      </trkpt>
      <trkpt lat="42.9604320" lon="-0.3327680">
        <ele>1291.6</ele>
        <time>2020-07-27T08:23:28Z</time>
      </trkpt>
      <trkpt lat="42.9603860" lon="-0.3327870">
        <ele>1292.0</ele>
        <time>2020-07-27T08:23:30Z</time>
      </trkpt>
      <trkpt lat="42.9603030" lon="-0.3328290">
        <ele>1292.8</ele>
        <time>2020-07-27T08:23:34Z</time>
      </trkpt>
      <trkpt lat="42.9602240" lon="-0.3328580">
        <ele>1293.8</ele>
        <time>2020-07-27T08:23:38Z</time>
      </trkpt>
      <trkpt lat="42.9602030" lon="-0.3328660">
        <ele>1293.8</ele>
        <time>2020-07-27T08:23:39Z</time>
      </trkpt>
      <trkpt lat="42.9601370" lon="-0.3329030">
        <ele>1294.8</ele>
        <time>2020-07-27T08:23:42Z</time>
      </trkpt>
      <trkpt lat="42.9601150" lon="-0.3329190">
        <ele>1295.2</ele>
        <time>2020-07-27T08:23:43Z</time>
      </trkpt>
      <trkpt lat="42.9600700" lon="-0.3329420">
        <ele>1295.8</ele>
        <time>2020-07-27T08:23:45Z</time>
      </trkpt>
      <trkpt lat="42.9600470" lon="-0.3329480">
        <ele>1296.0</ele>
        <time>2020-07-27T08:23:46Z</time>
      </trkpt>
      <trkpt lat="42.9599240" lon="-0.3329840">
        <ele>1297.2</ele>
        <time>2020-07-27T08:23:51Z</time>
      </trkpt>
      <trkpt lat="42.9598280" lon="-0.3329960">
        <ele>1297.8</ele>
        <time>2020-07-27T08:23:55Z</time>
      </trkpt>
      <trkpt lat="42.9598050" lon="-0.3329940">
        <ele>1298.0</ele>
        <time>2020-07-27T08:23:56Z</time>
      </trkpt>
      <trkpt lat="42.9596780" lon="-0.3329850">
        <ele>1299.2</ele>
        <time>2020-07-27T08:24:02Z</time>
      </trkpt>
      <trkpt lat="42.9596560" lon="-0.3329790">
        <ele>1299.6</ele>
        <time>2020-07-27T08:24:03Z</time>
      </trkpt>
      <trkpt lat="42.9595730" lon="-0.3329650">
        <ele>1300.2</ele>
        <time>2020-07-27T08:24:07Z</time>
      </trkpt>
      <trkpt lat="42.9594940" lon="-0.3329610">
        <ele>1301.2</ele>
        <time>2020-07-27T08:24:11Z</time>
      </trkpt>
      <trkpt lat="42.9594740" lon="-0.3329550">
        <ele>1301.4</ele>
        <time>2020-07-27T08:24:12Z</time>
      </trkpt>
      <trkpt lat="42.9593400" lon="-0.3329320">
        <ele>1302.6</ele>
        <time>2020-07-27T08:24:17Z</time>
      </trkpt>
      <trkpt lat="42.9593120" lon="-0.3329290">
        <ele>1302.8</ele>
        <time>2020-07-27T08:24:18Z</time>
      </trkpt>
      <trkpt lat="42.9591090" lon="-0.3329230">
        <ele>1303.4</ele>
        <time>2020-07-27T08:24:25Z</time>
      </trkpt>
      <trkpt lat="42.9588140" lon="-0.3330160">
        <ele>1304.4</ele>
        <time>2020-07-27T08:24:34Z</time>
      </trkpt>
      <trkpt lat="42.9586990" lon="-0.3330240">
        <ele>1304.6</ele>
        <time>2020-07-27T08:24:37Z</time>
      </trkpt>
      <trkpt lat="42.9585020" lon="-0.3330180">
        <ele>1304.8</ele>
        <time>2020-07-27T08:24:42Z</time>
      </trkpt>
      <trkpt lat="42.9583010" lon="-0.3329360">
        <ele>1305.0</ele>
        <time>2020-07-27T08:24:47Z</time>
      </trkpt>
      <trkpt lat="42.9581240" lon="-0.3327550">
        <ele>1305.2</ele>
        <time>2020-07-27T08:24:52Z</time>
      </trkpt>
      <trkpt lat="42.9580400" lon="-0.3326670">
        <ele>1305.2</ele>
        <time>2020-07-27T08:24:54Z</time>
      </trkpt>
      <trkpt lat="42.9580180" lon="-0.3325720">
        <ele>1305.4</ele>
        <time>2020-07-27T08:24:56Z</time>
      </trkpt>
      <trkpt lat="42.9580250" lon="-0.3325170">
        <ele>1305.4</ele>
        <time>2020-07-27T08:24:57Z</time>
      </trkpt>
      <trkpt lat="42.9581400" lon="-0.3323650">
        <ele>1305.4</ele>
        <time>2020-07-27T08:25:01Z</time>
      </trkpt>
      <trkpt lat="42.9581980" lon="-0.3323300">
        <ele>1305.6</ele>
        <time>2020-07-27T08:25:03Z</time>
      </trkpt>
      <trkpt lat="42.9582850" lon="-0.3323070">
        <ele>1306.0</ele>
        <time>2020-07-27T08:25:06Z</time>
      </trkpt>
      <trkpt lat="42.9583720" lon="-0.3322980">
        <ele>1306.4</ele>
        <time>2020-07-27T08:25:09Z</time>
      </trkpt>
      <trkpt lat="42.9584750" lon="-0.3323050">
        <ele>1307.6</ele>
        <time>2020-07-27T08:25:13Z</time>
      </trkpt>
      <trkpt lat="42.9585470" lon="-0.3323390">
        <ele>1308.6</ele>
        <time>2020-07-27T08:25:16Z</time>
      </trkpt>
      <trkpt lat="42.9586230" lon="-0.3323990">
        <ele>1309.4</ele>
        <time>2020-07-27T08:25:19Z</time>
      </trkpt>
      <trkpt lat="42.9586680" lon="-0.3324610">
        <ele>1309.6</ele>
        <time>2020-07-27T08:25:21Z</time>
      </trkpt>
      <trkpt lat="42.9587640" lon="-0.3325540">
        <ele>1310.8</ele>
        <time>2020-07-27T08:25:25Z</time>
      </trkpt>
      <trkpt lat="42.9588090" lon="-0.3325750">
        <ele>1311.4</ele>
        <time>2020-07-27T08:25:27Z</time>
      </trkpt>
      <trkpt lat="42.9588530" lon="-0.3325760">
        <ele>1311.8</ele>
        <time>2020-07-27T08:25:29Z</time>
      </trkpt>
      <trkpt lat="42.9588730" lon="-0.3325720">
        <ele>1312.0</ele>
        <time>2020-07-27T08:25:30Z</time>
      </trkpt>
      <trkpt lat="42.9589170" lon="-0.3325500">
        <ele>1312.6</ele>
        <time>2020-07-27T08:25:32Z</time>
      </trkpt>
      <trkpt lat="42.9589410" lon="-0.3325420">
        <ele>1312.8</ele>
        <time>2020-07-27T08:25:33Z</time>
      </trkpt>
      <trkpt lat="42.9590680" lon="-0.3325070">
        <ele>1314.2</ele>
        <time>2020-07-27T08:25:38Z</time>
      </trkpt>
      <trkpt lat="42.9590980" lon="-0.3325020">
        <ele>1314.4</ele>
        <time>2020-07-27T08:25:39Z</time>
      </trkpt>
      <trkpt lat="42.9591500" lon="-0.3324840">
        <ele>1314.8</ele>
        <time>2020-07-27T08:25:42Z</time>
      </trkpt>
      <trkpt lat="42.9591870" lon="-0.3324760">
        <ele>1315.0</ele>
        <time>2020-07-27T08:25:44Z</time>
      </trkpt>
      <trkpt lat="42.9592840" lon="-0.3324770">
        <ele>1316.4</ele>
        <time>2020-07-27T08:25:48Z</time>
      </trkpt>
      <trkpt lat="42.9594160" lon="-0.3325020">
        <ele>1317.4</ele>
        <time>2020-07-27T08:25:53Z</time>
      </trkpt>
      <trkpt lat="42.9594360" lon="-0.3325030">
        <ele>1317.6</ele>
        <time>2020-07-27T08:25:54Z</time>
      </trkpt>
      <trkpt lat="42.9595000" lon="-0.3324890">
        <ele>1318.4</ele>
        <time>2020-07-27T08:25:58Z</time>
      </trkpt>
      <trkpt lat="42.9595450" lon="-0.3324710">
        <ele>1318.8</ele>
        <time>2020-07-27T08:26:00Z</time>
      </trkpt>
      <trkpt lat="42.9595990" lon="-0.3324270">
        <ele>1319.4</ele>
        <time>2020-07-27T08:26:03Z</time>
      </trkpt>
      <trkpt lat="42.9596600" lon="-0.3323530">
        <ele>1320.2</ele>
        <time>2020-07-27T08:26:07Z</time>
      </trkpt>
      <trkpt lat="42.9596750" lon="-0.3323400">
        <ele>1320.4</ele>
        <time>2020-07-27T08:26:08Z</time>
      </trkpt>
      <trkpt lat="42.9597450" lon="-0.3322650">
        <ele>1321.8</ele>
        <time>2020-07-27T08:26:12Z</time>
      </trkpt>
      <trkpt lat="42.9597690" lon="-0.3322020">
        <ele>1322.4</ele>
        <time>2020-07-27T08:26:14Z</time>
      </trkpt>
      <trkpt lat="42.9597950" lon="-0.3321240">
        <ele>1323.0</ele>
        <time>2020-07-27T08:26:16Z</time>
      </trkpt>
      <trkpt lat="42.9598520" lon="-0.3319480">
        <ele>1324.0</ele>
        <time>2020-07-27T08:26:21Z</time>
      </trkpt>
      <trkpt lat="42.9599390" lon="-0.3317940">
        <ele>1325.2</ele>
        <time>2020-07-27T08:26:26Z</time>
      </trkpt>
      <trkpt lat="42.9599540" lon="-0.3317720">
        <ele>1325.2</ele>
        <time>2020-07-27T08:26:27Z</time>
      </trkpt>
      <trkpt lat="42.9600690" lon="-0.3316410">
        <ele>1325.8</ele>
        <time>2020-07-27T08:26:33Z</time>
      </trkpt>
      <trkpt lat="42.9600850" lon="-0.3316200">
        <ele>1326.0</ele>
        <time>2020-07-27T08:26:34Z</time>
      </trkpt>
      <trkpt lat="42.9601390" lon="-0.3315520">
        <ele>1327.2</ele>
        <time>2020-07-27T08:26:37Z</time>
      </trkpt>
      <trkpt lat="42.9601920" lon="-0.3314880">
        <ele>1327.6</ele>
        <time>2020-07-27T08:26:40Z</time>
      </trkpt>
      <trkpt lat="42.9602300" lon="-0.3314460">
        <ele>1328.2</ele>
        <time>2020-07-27T08:26:42Z</time>
      </trkpt>
      <trkpt lat="42.9603440" lon="-0.3313430">
        <ele>1329.0</ele>
        <time>2020-07-27T08:26:47Z</time>
      </trkpt>
      <trkpt lat="42.9604120" lon="-0.3312410">
        <ele>1330.4</ele>
        <time>2020-07-27T08:26:52Z</time>
      </trkpt>
      <trkpt lat="42.9604270" lon="-0.3312230">
        <ele>1330.6</ele>
        <time>2020-07-27T08:26:53Z</time>
      </trkpt>
      <trkpt lat="42.9605270" lon="-0.3311400">
        <ele>1331.6</ele>
        <time>2020-07-27T08:26:58Z</time>
      </trkpt>
      <trkpt lat="42.9605520" lon="-0.3311300">
        <ele>1331.8</ele>
        <time>2020-07-27T08:26:59Z</time>
      </trkpt>
      <trkpt lat="42.9606770" lon="-0.3311060">
        <ele>1332.6</ele>
        <time>2020-07-27T08:27:04Z</time>
      </trkpt>
      <trkpt lat="42.9607020" lon="-0.3311070">
        <ele>1332.8</ele>
        <time>2020-07-27T08:27:05Z</time>
      </trkpt>
      <trkpt lat="42.9607780" lon="-0.3310990">
        <ele>1333.6</ele>
        <time>2020-07-27T08:27:08Z</time>
      </trkpt>
      <trkpt lat="42.9608660" lon="-0.3310690">
        <ele>1334.6</ele>
        <time>2020-07-27T08:27:12Z</time>
      </trkpt>
      <trkpt lat="42.9609520" lon="-0.3309990">
        <ele>1335.4</ele>
        <time>2020-07-27T08:27:16Z</time>
      </trkpt>
      <trkpt lat="42.9609670" lon="-0.3309930">
        <ele>1335.6</ele>
        <time>2020-07-27T08:27:17Z</time>
      </trkpt>
      <trkpt lat="42.9610490" lon="-0.3309490">
        <ele>1336.6</ele>
        <time>2020-07-27T08:27:22Z</time>
      </trkpt>
      <trkpt lat="42.9610710" lon="-0.3309480">
        <ele>1336.8</ele>
        <time>2020-07-27T08:27:23Z</time>
      </trkpt>
      <trkpt lat="42.9612080" lon="-0.3309610">
        <ele>1337.6</ele>
        <time>2020-07-27T08:27:28Z</time>
      </trkpt>
      <trkpt lat="42.9612430" lon="-0.3309680">
        <ele>1337.8</ele>
        <time>2020-07-27T08:27:29Z</time>
      </trkpt>
      <trkpt lat="42.9613830" lon="-0.3309780">
        <ele>1338.6</ele>
        <time>2020-07-27T08:27:34Z</time>
      </trkpt>
      <trkpt lat="42.9614070" lon="-0.3309720">
        <ele>1338.8</ele>
        <time>2020-07-27T08:27:35Z</time>
      </trkpt>
      <trkpt lat="42.9614860" lon="-0.3309490">
        <ele>1339.8</ele>
        <time>2020-07-27T08:27:38Z</time>
      </trkpt>
      <trkpt lat="42.9615550" lon="-0.3309170">
        <ele>1340.4</ele>
        <time>2020-07-27T08:27:41Z</time>
      </trkpt>
      <trkpt lat="42.9615790" lon="-0.3309080">
        <ele>1340.8</ele>
        <time>2020-07-27T08:27:42Z</time>
      </trkpt>
      <trkpt lat="42.9616950" lon="-0.3308580">
        <ele>1342.0</ele>
        <time>2020-07-27T08:27:47Z</time>
      </trkpt>
      <trkpt lat="42.9617430" lon="-0.3308300">
        <ele>1342.4</ele>
        <time>2020-07-27T08:27:49Z</time>
      </trkpt>
      <trkpt lat="42.9618250" lon="-0.3307710">
        <ele>1343.0</ele>
        <time>2020-07-27T08:27:53Z</time>
      </trkpt>
      <trkpt lat="42.9618700" lon="-0.3307320">
        <ele>1343.8</ele>
        <time>2020-07-27T08:27:56Z</time>
      </trkpt>
      <trkpt lat="42.9618820" lon="-0.3307220">
        <ele>1344.0</ele>
        <time>2020-07-27T08:27:57Z</time>
      </trkpt>
      <trkpt lat="42.9619440" lon="-0.3306710">
        <ele>1345.4</ele>
        <time>2020-07-27T08:28:01Z</time>
      </trkpt>
      <trkpt lat="42.9619720" lon="-0.3306370">
        <ele>1345.8</ele>
        <time>2020-07-27T08:28:03Z</time>
      </trkpt>
      <trkpt lat="42.9619990" lon="-0.3306100">
        <ele>1346.6</ele>
        <time>2020-07-27T08:28:05Z</time>
      </trkpt>
      <trkpt lat="42.9620830" lon="-0.3305400">
        <ele>1347.4</ele>
        <time>2020-07-27T08:28:09Z</time>
      </trkpt>
      <trkpt lat="42.9621030" lon="-0.3305220">
        <ele>1347.4</ele>
        <time>2020-07-27T08:28:10Z</time>
      </trkpt>
      <trkpt lat="42.9621970" lon="-0.3305050">
        <ele>1348.6</ele>
        <time>2020-07-27T08:28:15Z</time>
      </trkpt>
      <trkpt lat="42.9623080" lon="-0.3304550">
        <ele>1349.8</ele>
        <time>2020-07-27T08:28:20Z</time>
      </trkpt>
      <trkpt lat="42.9623560" lon="-0.3304390">
        <ele>1350.2</ele>
        <time>2020-07-27T08:28:22Z</time>
      </trkpt>
      <trkpt lat="42.9623980" lon="-0.3304460">
        <ele>1350.8</ele>
        <time>2020-07-27T08:28:24Z</time>
      </trkpt>
      <trkpt lat="42.9624680" lon="-0.3304420">
        <ele>1351.6</ele>
        <time>2020-07-27T08:28:28Z</time>
      </trkpt>
      <trkpt lat="42.9624880" lon="-0.3304300">
        <ele>1351.8</ele>
        <time>2020-07-27T08:28:29Z</time>
      </trkpt>
      <trkpt lat="42.9625350" lon="-0.3303970">
        <ele>1352.8</ele>
        <time>2020-07-27T08:28:31Z</time>
      </trkpt>
      <trkpt lat="42.9626250" lon="-0.3303390">
        <ele>1354.0</ele>
        <time>2020-07-27T08:28:35Z</time>
      </trkpt>
      <trkpt lat="42.9627520" lon="-0.3303030">
        <ele>1355.0</ele>
        <time>2020-07-27T08:28:41Z</time>
      </trkpt>
      <trkpt lat="42.9627760" lon="-0.3302980">
        <ele>1355.2</ele>
        <time>2020-07-27T08:28:42Z</time>
      </trkpt>
      <trkpt lat="42.9628500" lon="-0.3302920">
        <ele>1356.0</ele>
        <time>2020-07-27T08:28:45Z</time>
      </trkpt>
      <trkpt lat="42.9629310" lon="-0.3302910">
        <ele>1357.0</ele>
        <time>2020-07-27T08:28:49Z</time>
      </trkpt>
      <trkpt lat="42.9629510" lon="-0.3302940">
        <ele>1357.0</ele>
        <time>2020-07-27T08:28:50Z</time>
      </trkpt>
      <trkpt lat="42.9630510" lon="-0.3303060">
        <ele>1357.8</ele>
        <time>2020-07-27T08:28:54Z</time>
      </trkpt>
      <trkpt lat="42.9630750" lon="-0.3303190">
        <ele>1358.0</ele>
        <time>2020-07-27T08:28:55Z</time>
      </trkpt>
      <trkpt lat="42.9631820" lon="-0.3303810">
        <ele>1358.8</ele>
        <time>2020-07-27T08:28:59Z</time>
      </trkpt>
      <trkpt lat="42.9632030" lon="-0.3304000">
        <ele>1359.0</ele>
        <time>2020-07-27T08:29:00Z</time>
      </trkpt>
      <trkpt lat="42.9632900" lon="-0.3304800">
        <ele>1359.4</ele>
        <time>2020-07-27T08:29:05Z</time>
      </trkpt>
      <trkpt lat="42.9633130" lon="-0.3305220">
        <ele>1360.0</ele>
        <time>2020-07-27T08:29:07Z</time>
      </trkpt>
      <trkpt lat="42.9633220" lon="-0.3305850">
        <ele>1360.6</ele>
        <time>2020-07-27T08:29:09Z</time>
      </trkpt>
      <trkpt lat="42.9633300" lon="-0.3306620">
        <ele>1360.8</ele>
        <time>2020-07-27T08:29:11Z</time>
      </trkpt>
      <trkpt lat="42.9633450" lon="-0.3307860">
        <ele>1361.8</ele>
        <time>2020-07-27T08:29:14Z</time>
      </trkpt>
      <trkpt lat="42.9633500" lon="-0.3308260">
        <ele>1362.2</ele>
        <time>2020-07-27T08:29:15Z</time>
      </trkpt>
      <trkpt lat="42.9633820" lon="-0.3309060">
        <ele>1363.0</ele>
        <time>2020-07-27T08:29:18Z</time>
      </trkpt>
      <trkpt lat="42.9633970" lon="-0.3309210">
        <ele>1363.2</ele>
        <time>2020-07-27T08:29:19Z</time>
      </trkpt>
      <trkpt lat="42.9634740" lon="-0.3309900">
        <ele>1364.0</ele>
        <time>2020-07-27T08:29:24Z</time>
      </trkpt>
      <trkpt lat="42.9634880" lon="-0.3310060">
        <ele>1364.2</ele>
        <time>2020-07-27T08:29:25Z</time>
      </trkpt>
      <trkpt lat="42.9635630" lon="-0.3310560">
        <ele>1364.8</ele>
        <time>2020-07-27T08:29:29Z</time>
      </trkpt>
      <trkpt lat="42.9636810" lon="-0.3310740">
        <ele>1365.0</ele>
        <time>2020-07-27T08:29:34Z</time>
      </trkpt>
      <trkpt lat="42.9637050" lon="-0.3310740">
        <ele>1365.0</ele>
        <time>2020-07-27T08:29:35Z</time>
      </trkpt>
      <trkpt lat="42.9638510" lon="-0.3311410">
        <ele>1365.4</ele>
        <time>2020-07-27T08:29:42Z</time>
      </trkpt>
      <trkpt lat="42.9639150" lon="-0.3311740">
        <ele>1366.0</ele>
        <time>2020-07-27T08:29:45Z</time>
      </trkpt>
      <trkpt lat="42.9639810" lon="-0.3311900">
        <ele>1367.0</ele>
        <time>2020-07-27T08:29:48Z</time>
      </trkpt>
      <trkpt lat="42.9640600" lon="-0.3312240">
        <ele>1368.2</ele>
        <time>2020-07-27T08:29:52Z</time>
      </trkpt>
      <trkpt lat="42.9641700" lon="-0.3312690">
        <ele>1369.0</ele>
        <time>2020-07-27T08:29:57Z</time>
      </trkpt>
      <trkpt lat="42.9642800" lon="-0.3313150">
        <ele>1370.4</ele>
        <time>2020-07-27T08:30:02Z</time>
      </trkpt>
      <trkpt lat="42.9643250" lon="-0.3313380">
        <ele>1371.0</ele>
        <time>2020-07-27T08:30:04Z</time>
      </trkpt>
      <trkpt lat="42.9643660" lon="-0.3313640">
        <ele>1371.4</ele>
        <time>2020-07-27T08:30:06Z</time>
      </trkpt>
      <trkpt lat="42.9644780" lon="-0.3314870">
        <ele>1372.6</ele>
        <time>2020-07-27T08:30:12Z</time>
      </trkpt>
      <trkpt lat="42.9645200" lon="-0.3315690">
        <ele>1373.8</ele>
        <time>2020-07-27T08:30:15Z</time>
      </trkpt>
      <trkpt lat="42.9645930" lon="-0.3316860">
        <ele>1374.6</ele>
        <time>2020-07-27T08:30:20Z</time>
      </trkpt>
      <trkpt lat="42.9646780" lon="-0.3317760">
        <ele>1375.6</ele>
        <time>2020-07-27T08:30:25Z</time>
      </trkpt>
      <trkpt lat="42.9647150" lon="-0.3318080">
        <ele>1376.0</ele>
        <time>2020-07-27T08:30:27Z</time>
      </trkpt>
      <trkpt lat="42.9647710" lon="-0.3318580">
        <ele>1376.6</ele>
        <time>2020-07-27T08:30:30Z</time>
      </trkpt>
      <trkpt lat="42.9648460" lon="-0.3318990">
        <ele>1377.8</ele>
        <time>2020-07-27T08:30:34Z</time>
      </trkpt>
      <trkpt lat="42.9648620" lon="-0.3319070">
        <ele>1378.0</ele>
        <time>2020-07-27T08:30:35Z</time>
      </trkpt>
      <trkpt lat="42.9649490" lon="-0.3319770">
        <ele>1378.8</ele>
        <time>2020-07-27T08:30:40Z</time>
      </trkpt>
      <trkpt lat="42.9649950" lon="-0.3320210">
        <ele>1379.4</ele>
        <time>2020-07-27T08:30:43Z</time>
      </trkpt>
      <trkpt lat="42.9650220" lon="-0.3321200">
        <ele>1379.8</ele>
        <time>2020-07-27T08:30:46Z</time>
      </trkpt>
      <trkpt lat="42.9650240" lon="-0.3322750">
        <ele>1380.4</ele>
        <time>2020-07-27T08:30:49Z</time>
      </trkpt>
      <trkpt lat="42.9650220" lon="-0.3323280">
        <ele>1381.0</ele>
        <time>2020-07-27T08:30:50Z</time>
      </trkpt>
      <trkpt lat="42.9650210" lon="-0.3323750">
        <ele>1381.2</ele>
        <time>2020-07-27T08:30:51Z</time>
      </trkpt>
      <trkpt lat="42.9650200" lon="-0.3324640">
        <ele>1381.8</ele>
        <time>2020-07-27T08:30:53Z</time>
      </trkpt>
      <trkpt lat="42.9650230" lon="-0.3325750">
        <ele>1383.0</ele>
        <time>2020-07-27T08:30:56Z</time>
      </trkpt>
      <trkpt lat="42.9650270" lon="-0.3326080">
        <ele>1383.4</ele>
        <time>2020-07-27T08:30:57Z</time>
      </trkpt>
      <trkpt lat="42.9650500" lon="-0.3327220">
        <ele>1384.4</ele>
        <time>2020-07-27T08:31:01Z</time>
      </trkpt>
      <trkpt lat="42.9650840" lon="-0.3328360">
        <ele>1384.8</ele>
        <time>2020-07-27T08:31:05Z</time>
      </trkpt>
      <trkpt lat="42.9651000" lon="-0.3330470">
        <ele>1385.4</ele>
        <time>2020-07-27T08:31:11Z</time>
      </trkpt>
      <trkpt lat="42.9651050" lon="-0.3331170">
        <ele>1385.6</ele>
        <time>2020-07-27T08:31:13Z</time>
      </trkpt>
      <trkpt lat="42.9651140" lon="-0.3331860">
        <ele>1386.6</ele>
        <time>2020-07-27T08:31:15Z</time>
      </trkpt>
      <trkpt lat="42.9651450" lon="-0.3333890">
        <ele>1387.8</ele>
        <time>2020-07-27T08:31:21Z</time>
      </trkpt>
      <trkpt lat="42.9651700" lon="-0.3334760">
        <ele>1388.2</ele>
        <time>2020-07-27T08:31:24Z</time>
      </trkpt>
      <trkpt lat="42.9652050" lon="-0.3335880">
        <ele>1389.2</ele>
        <time>2020-07-27T08:31:28Z</time>
      </trkpt>
      <trkpt lat="42.9652250" lon="-0.3336470">
        <ele>1390.2</ele>
        <time>2020-07-27T08:31:30Z</time>
      </trkpt>
      <trkpt lat="42.9652560" lon="-0.3337340">
        <ele>1391.2</ele>
        <time>2020-07-27T08:31:33Z</time>
      </trkpt>
      <trkpt lat="42.9652770" lon="-0.3338190">
        <ele>1392.2</ele>
        <time>2020-07-27T08:31:36Z</time>
      </trkpt>
      <trkpt lat="42.9652810" lon="-0.3338480">
        <ele>1392.4</ele>
        <time>2020-07-27T08:31:37Z</time>
      </trkpt>
      <trkpt lat="42.9653190" lon="-0.3339810">
        <ele>1392.8</ele>
        <time>2020-07-27T08:31:42Z</time>
      </trkpt>
      <trkpt lat="42.9653480" lon="-0.3340500">
        <ele>1392.8</ele>
        <time>2020-07-27T08:31:45Z</time>
      </trkpt>
      <trkpt lat="42.9653770" lon="-0.3340850">
        <ele>1393.0</ele>
        <time>2020-07-27T08:31:47Z</time>
      </trkpt>
      <trkpt lat="42.9654640" lon="-0.3341710">
        <ele>1393.2</ele>
        <time>2020-07-27T08:31:52Z</time>
      </trkpt>
      <trkpt lat="42.9654820" lon="-0.3341910">
        <ele>1393.4</ele>
        <time>2020-07-27T08:31:53Z</time>
      </trkpt>
      <trkpt lat="42.9655950" lon="-0.3342770">
        <ele>1394.2</ele>
        <time>2020-07-27T08:31:59Z</time>
      </trkpt>
      <trkpt lat="42.9657010" lon="-0.3343070">
        <ele>1395.2</ele>
        <time>2020-07-27T08:32:04Z</time>
      </trkpt>
      <trkpt lat="42.9657820" lon="-0.3342770">
        <ele>1396.6</ele>
        <time>2020-07-27T08:32:08Z</time>
      </trkpt>
      <trkpt lat="42.9658050" lon="-0.3342670">
        <ele>1396.8</ele>
        <time>2020-07-27T08:32:09Z</time>
      </trkpt>
      <trkpt lat="42.9658560" lon="-0.3342470">
        <ele>1397.6</ele>
        <time>2020-07-27T08:32:11Z</time>
      </trkpt>
      <trkpt lat="42.9659280" lon="-0.3342230">
        <ele>1398.8</ele>
        <time>2020-07-27T08:32:14Z</time>
      </trkpt>
      <trkpt lat="42.9659770" lon="-0.3342050">
        <ele>1399.8</ele>
        <time>2020-07-27T08:32:16Z</time>
      </trkpt>
      <trkpt lat="42.9660020" lon="-0.3342010">
        <ele>1400.2</ele>
        <time>2020-07-27T08:32:17Z</time>
      </trkpt>
      <trkpt lat="42.9661020" lon="-0.3341810">
        <ele>1401.4</ele>
        <time>2020-07-27T08:32:21Z</time>
      </trkpt>
      <trkpt lat="42.9661570" lon="-0.3341740">
        <ele>1402.0</ele>
        <time>2020-07-27T08:32:23Z</time>
      </trkpt>
      <trkpt lat="42.9661840" lon="-0.3341770">
        <ele>1402.4</ele>
        <time>2020-07-27T08:32:24Z</time>
      </trkpt>
      <trkpt lat="42.9662700" lon="-0.3341990">
        <ele>1403.4</ele>
        <time>2020-07-27T08:32:27Z</time>
      </trkpt>
      <trkpt lat="42.9663130" lon="-0.3342400">
        <ele>1404.2</ele>
        <time>2020-07-27T08:32:29Z</time>
      </trkpt>
      <trkpt lat="42.9663300" lon="-0.3342610">
        <ele>1404.6</ele>
        <time>2020-07-27T08:32:30Z</time>
      </trkpt>
      <trkpt lat="42.9663860" lon="-0.3343750">
        <ele>1405.4</ele>
        <time>2020-07-27T08:32:34Z</time>
      </trkpt>
      <trkpt lat="42.9664020" lon="-0.3344620">
        <ele>1405.8</ele>
        <time>2020-07-27T08:32:36Z</time>
      </trkpt>
      <trkpt lat="42.9664060" lon="-0.3346290">
        <ele>1406.6</ele>
        <time>2020-07-27T08:32:39Z</time>
      </trkpt>
      <trkpt lat="42.9664140" lon="-0.3348160">
        <ele>1407.0</ele>
        <time>2020-07-27T08:32:43Z</time>
      </trkpt>
      <trkpt lat="42.9664210" lon="-0.3349280">
        <ele>1407.4</ele>
        <time>2020-07-27T08:32:46Z</time>
      </trkpt>
      <trkpt lat="42.9664450" lon="-0.3350710">
        <ele>1408.2</ele>
        <time>2020-07-27T08:32:50Z</time>
      </trkpt>
      <trkpt lat="42.9664550" lon="-0.3351070">
        <ele>1408.4</ele>
        <time>2020-07-27T08:32:51Z</time>
      </trkpt>
      <trkpt lat="42.9665160" lon="-0.3352130">
        <ele>1409.0</ele>
        <time>2020-07-27T08:32:55Z</time>
      </trkpt>
      <trkpt lat="42.9666230" lon="-0.3352810">
        <ele>1409.4</ele>
        <time>2020-07-27T08:33:00Z</time>
      </trkpt>
      <trkpt lat="42.9667770" lon="-0.3353540">
        <ele>1410.4</ele>
        <time>2020-07-27T08:33:07Z</time>
      </trkpt>
      <trkpt lat="42.9668910" lon="-0.3354260">
        <ele>1411.4</ele>
        <time>2020-07-27T08:33:12Z</time>
      </trkpt>
      <trkpt lat="42.9669840" lon="-0.3354480">
        <ele>1412.2</ele>
        <time>2020-07-27T08:33:16Z</time>
      </trkpt>
      <trkpt lat="42.9671070" lon="-0.3354370">
        <ele>1413.0</ele>
        <time>2020-07-27T08:33:22Z</time>
      </trkpt>
      <trkpt lat="42.9671210" lon="-0.3354380">
        <ele>1413.4</ele>
        <time>2020-07-27T08:33:23Z</time>
      </trkpt>
      <trkpt lat="42.9671720" lon="-0.3354310">
        <ele>1414.4</ele>
        <time>2020-07-27T08:33:26Z</time>
      </trkpt>
      <trkpt lat="42.9672740" lon="-0.3354140">
        <ele>1415.4</ele>
        <time>2020-07-27T08:33:30Z</time>
      </trkpt>
      <trkpt lat="42.9673290" lon="-0.3354250">
        <ele>1415.8</ele>
        <time>2020-07-27T08:33:32Z</time>
      </trkpt>
      <trkpt lat="42.9673950" lon="-0.3354760">
        <ele>1416.4</ele>
        <time>2020-07-27T08:33:35Z</time>
      </trkpt>
      <trkpt lat="42.9674800" lon="-0.3355130">
        <ele>1417.6</ele>
        <time>2020-07-27T08:33:39Z</time>
      </trkpt>
      <trkpt lat="42.9675890" lon="-0.3355740">
        <ele>1418.4</ele>
        <time>2020-07-27T08:33:45Z</time>
      </trkpt>
      <trkpt lat="42.9676100" lon="-0.3355790">
        <ele>1418.4</ele>
        <time>2020-07-27T08:33:46Z</time>
      </trkpt>
      <trkpt lat="42.9676470" lon="-0.3356000">
        <ele>1418.6</ele>
        <time>2020-07-27T08:33:48Z</time>
      </trkpt>
      <trkpt lat="42.9676910" lon="-0.3356050">
        <ele>1418.8</ele>
        <time>2020-07-27T08:33:50Z</time>
      </trkpt>
      <trkpt lat="42.9677780" lon="-0.3356160">
        <ele>1419.8</ele>
        <time>2020-07-27T08:33:54Z</time>
      </trkpt>
      <trkpt lat="42.9678180" lon="-0.3356370">
        <ele>1420.4</ele>
        <time>2020-07-27T08:33:56Z</time>
      </trkpt>
      <trkpt lat="42.9678980" lon="-0.3356640">
        <ele>1420.6</ele>
        <time>2020-07-27T08:33:59Z</time>
      </trkpt>
      <trkpt lat="42.9679500" lon="-0.3357090">
        <ele>1421.2</ele>
        <time>2020-07-27T08:34:01Z</time>
      </trkpt>
      <trkpt lat="42.9679730" lon="-0.3357390">
        <ele>1421.6</ele>
        <time>2020-07-27T08:34:02Z</time>
      </trkpt>
      <trkpt lat="42.9680420" lon="-0.3359060">
        <ele>1422.0</ele>
        <time>2020-07-27T08:34:07Z</time>
      </trkpt>
      <trkpt lat="42.9680790" lon="-0.3359960">
        <ele>1422.4</ele>
        <time>2020-07-27T08:34:10Z</time>
      </trkpt>
      <trkpt lat="42.9681270" lon="-0.3361420">
        <ele>1423.4</ele>
        <time>2020-07-27T08:34:14Z</time>
      </trkpt>
      <trkpt lat="42.9681390" lon="-0.3361710">
        <ele>1423.6</ele>
        <time>2020-07-27T08:34:15Z</time>
      </trkpt>
      <trkpt lat="42.9682040" lon="-0.3362750">
        <ele>1424.6</ele>
        <time>2020-07-27T08:34:19Z</time>
      </trkpt>
      <trkpt lat="42.9682230" lon="-0.3362920">
        <ele>1424.8</ele>
        <time>2020-07-27T08:34:20Z</time>
      </trkpt>
      <trkpt lat="42.9683840" lon="-0.3364490">
        <ele>1425.6</ele>
        <time>2020-07-27T08:34:29Z</time>
      </trkpt>
      <trkpt lat="42.9685270" lon="-0.3364880">
        <ele>1426.2</ele>
        <time>2020-07-27T08:34:36Z</time>
      </trkpt>
      <trkpt lat="42.9685490" lon="-0.3364910">
        <ele>1426.4</ele>
        <time>2020-07-27T08:34:37Z</time>
      </trkpt>
      <trkpt lat="42.9687180" lon="-0.3365310">
        <ele>1427.4</ele>
        <time>2020-07-27T08:34:45Z</time>
      </trkpt>
      <trkpt lat="42.9687390" lon="-0.3365380">
        <ele>1427.6</ele>
        <time>2020-07-27T08:34:46Z</time>
      </trkpt>
      <trkpt lat="42.9688110" lon="-0.3365410">
        <ele>1428.8</ele>
        <time>2020-07-27T08:34:49Z</time>
      </trkpt>
      <trkpt lat="42.9688520" lon="-0.3365710">
        <ele>1429.8</ele>
        <time>2020-07-27T08:34:51Z</time>
      </trkpt>
      <trkpt lat="42.9689060" lon="-0.3366340">
        <ele>1430.8</ele>
        <time>2020-07-27T08:34:54Z</time>
      </trkpt>
      <trkpt lat="42.9689290" lon="-0.3366940">
        <ele>1431.2</ele>
        <time>2020-07-27T08:34:56Z</time>
      </trkpt>
      <trkpt lat="42.9689300" lon="-0.3367570">
        <ele>1431.6</ele>
        <time>2020-07-27T08:34:58Z</time>
      </trkpt>
      <trkpt lat="42.9689110" lon="-0.3368680">
        <ele>1432.2</ele>
        <time>2020-07-27T08:35:01Z</time>
      </trkpt>
      <trkpt lat="42.9688850" lon="-0.3369800">
        <ele>1432.6</ele>
        <time>2020-07-27T08:35:04Z</time>
      </trkpt>
      <trkpt lat="42.9688800" lon="-0.3371240">
        <ele>1433.6</ele>
        <time>2020-07-27T08:35:08Z</time>
      </trkpt>
      <trkpt lat="42.9688850" lon="-0.3371550">
        <ele>1433.8</ele>
        <time>2020-07-27T08:35:09Z</time>
      </trkpt>
      <trkpt lat="42.9689240" lon="-0.3372710">
        <ele>1434.8</ele>
        <time>2020-07-27T08:35:13Z</time>
      </trkpt>
      <trkpt lat="42.9689330" lon="-0.3373010">
        <ele>1435.0</ele>
        <time>2020-07-27T08:35:14Z</time>
      </trkpt>
      <trkpt lat="42.9689430" lon="-0.3374940">
        <ele>1436.2</ele>
        <time>2020-07-27T08:35:19Z</time>
      </trkpt>
      <trkpt lat="42.9689410" lon="-0.3375280">
        <ele>1436.4</ele>
        <time>2020-07-27T08:35:20Z</time>
      </trkpt>
      <trkpt lat="42.9689320" lon="-0.3375900">
        <ele>1437.0</ele>
        <time>2020-07-27T08:35:22Z</time>
      </trkpt>
      <trkpt lat="42.9689090" lon="-0.3376780">
        <ele>1438.6</ele>
        <time>2020-07-27T08:35:25Z</time>
      </trkpt>
      <trkpt lat="42.9688920" lon="-0.3377370">
        <ele>1439.2</ele>
        <time>2020-07-27T08:35:27Z</time>
      </trkpt>
      <trkpt lat="42.9688860" lon="-0.3377690">
        <ele>1439.8</ele>
        <time>2020-07-27T08:35:28Z</time>
      </trkpt>
      <trkpt lat="42.9688740" lon="-0.3378650">
        <ele>1440.8</ele>
        <time>2020-07-27T08:35:31Z</time>
      </trkpt>
      <trkpt lat="42.9688620" lon="-0.3379850">
        <ele>1441.6</ele>
        <time>2020-07-27T08:35:35Z</time>
      </trkpt>
      <trkpt lat="42.9688710" lon="-0.3380460">
        <ele>1441.8</ele>
        <time>2020-07-27T08:35:37Z</time>
      </trkpt>
      <trkpt lat="42.9688840" lon="-0.3381370">
        <ele>1443.0</ele>
        <time>2020-07-27T08:35:40Z</time>
      </trkpt>
      <trkpt lat="42.9688950" lon="-0.3382240">
        <ele>1443.6</ele>
        <time>2020-07-27T08:35:43Z</time>
      </trkpt>
      <trkpt lat="42.9689000" lon="-0.3382860">
        <ele>1444.0</ele>
        <time>2020-07-27T08:35:45Z</time>
      </trkpt>
      <trkpt lat="42.9689240" lon="-0.3384040">
        <ele>1445.2</ele>
        <time>2020-07-27T08:35:49Z</time>
      </trkpt>
      <trkpt lat="42.9689360" lon="-0.3384630">
        <ele>1446.2</ele>
        <time>2020-07-27T08:35:51Z</time>
      </trkpt>
      <trkpt lat="42.9689410" lon="-0.3384930">
        <ele>1446.6</ele>
        <time>2020-07-27T08:35:52Z</time>
      </trkpt>
      <trkpt lat="42.9689560" lon="-0.3385810">
        <ele>1447.8</ele>
        <time>2020-07-27T08:35:55Z</time>
      </trkpt>
      <trkpt lat="42.9689810" lon="-0.3386640">
        <ele>1448.6</ele>
        <time>2020-07-27T08:35:58Z</time>
      </trkpt>
      <trkpt lat="42.9689860" lon="-0.3386950">
        <ele>1449.0</ele>
        <time>2020-07-27T08:35:59Z</time>
      </trkpt>
      <trkpt lat="42.9690050" lon="-0.3388150">
        <ele>1450.2</ele>
        <time>2020-07-27T08:36:03Z</time>
      </trkpt>
      <trkpt lat="42.9690070" lon="-0.3388790">
        <ele>1450.6</ele>
        <time>2020-07-27T08:36:05Z</time>
      </trkpt>
      <trkpt lat="42.9690140" lon="-0.3389430">
        <ele>1451.0</ele>
        <time>2020-07-27T08:36:07Z</time>
      </trkpt>
      <trkpt lat="42.9690290" lon="-0.3391040">
        <ele>1452.0</ele>
        <time>2020-07-27T08:36:12Z</time>
      </trkpt>
      <trkpt lat="42.9690420" lon="-0.3392320">
        <ele>1452.8</ele>
        <time>2020-07-27T08:36:16Z</time>
      </trkpt>
      <trkpt lat="42.9690520" lon="-0.3392950">
        <ele>1453.2</ele>
        <time>2020-07-27T08:36:18Z</time>
      </trkpt>
      <trkpt lat="42.9690790" lon="-0.3394150">
        <ele>1454.4</ele>
        <time>2020-07-27T08:36:22Z</time>
      </trkpt>
      <trkpt lat="42.9691030" lon="-0.3395070">
        <ele>1455.0</ele>
        <time>2020-07-27T08:36:25Z</time>
      </trkpt>
      <trkpt lat="42.9691270" lon="-0.3395960">
        <ele>1455.6</ele>
        <time>2020-07-27T08:36:28Z</time>
      </trkpt>
      <trkpt lat="42.9691940" lon="-0.3398630">
        <ele>1456.4</ele>
        <time>2020-07-27T08:36:37Z</time>
      </trkpt>
      <trkpt lat="42.9692020" lon="-0.3398930">
        <ele>1456.6</ele>
        <time>2020-07-27T08:36:38Z</time>
      </trkpt>
      <trkpt lat="42.9692730" lon="-0.3401510">
        <ele>1457.4</ele>
        <time>2020-07-27T08:36:47Z</time>
      </trkpt>
      <trkpt lat="42.9692800" lon="-0.3401810">
        <ele>1457.6</ele>
        <time>2020-07-27T08:36:48Z</time>
      </trkpt>
      <trkpt lat="42.9693070" lon="-0.3402670">
        <ele>1458.6</ele>
        <time>2020-07-27T08:36:51Z</time>
      </trkpt>
      <trkpt lat="42.9693510" lon="-0.3403750">
        <ele>1459.6</ele>
        <time>2020-07-27T08:36:55Z</time>
      </trkpt>
      <trkpt lat="42.9694430" lon="-0.3405620">
        <ele>1460.4</ele>
        <time>2020-07-27T08:37:02Z</time>
      </trkpt>
      <trkpt lat="42.9694530" lon="-0.3405950">
        <ele>1460.4</ele>
        <time>2020-07-27T08:37:03Z</time>
      </trkpt>
      <trkpt lat="42.9694450" lon="-0.3407400">
        <ele>1461.8</ele>
        <time>2020-07-27T08:37:07Z</time>
      </trkpt>
      <trkpt lat="42.9693970" lon="-0.3408920">
        <ele>1463.0</ele>
        <time>2020-07-27T08:37:12Z</time>
      </trkpt>
      <trkpt lat="42.9693770" lon="-0.3409500">
        <ele>1463.6</ele>
        <time>2020-07-27T08:37:14Z</time>
      </trkpt>
      <trkpt lat="42.9693420" lon="-0.3410360">
        <ele>1464.0</ele>
        <time>2020-07-27T08:37:17Z</time>
      </trkpt>
      <trkpt lat="42.9692860" lon="-0.3412140">
        <ele>1464.8</ele>
        <time>2020-07-27T08:37:23Z</time>
      </trkpt>
      <trkpt lat="42.9692850" lon="-0.3412450">
        <ele>1465.2</ele>
        <time>2020-07-27T08:37:24Z</time>
      </trkpt>
      <trkpt lat="42.9693140" lon="-0.3414270">
        <ele>1466.4</ele>
        <time>2020-07-27T08:37:30Z</time>
      </trkpt>
      <trkpt lat="42.9693520" lon="-0.3414960">
        <ele>1467.6</ele>
        <time>2020-07-27T08:37:33Z</time>
      </trkpt>
      <trkpt lat="42.9693860" lon="-0.3415670">
        <ele>1468.8</ele>
        <time>2020-07-27T08:37:36Z</time>
      </trkpt>
      <trkpt lat="42.9694100" lon="-0.3416160">
        <ele>1469.2</ele>
        <time>2020-07-27T08:37:38Z</time>
      </trkpt>
      <trkpt lat="42.9694710" lon="-0.3417370">
        <ele>1470.0</ele>
        <time>2020-07-27T08:37:43Z</time>
      </trkpt>
      <trkpt lat="42.9695230" lon="-0.3418340">
        <ele>1471.2</ele>
        <time>2020-07-27T08:37:47Z</time>
      </trkpt>
      <trkpt lat="42.9695360" lon="-0.3418600">
        <ele>1471.4</ele>
        <time>2020-07-27T08:37:48Z</time>
      </trkpt>
      <trkpt lat="42.9696310" lon="-0.3420640">
        <ele>1472.2</ele>
        <time>2020-07-27T08:37:56Z</time>
      </trkpt>
      <trkpt lat="42.9696840" lon="-0.3421660">
        <ele>1473.4</ele>
        <time>2020-07-27T08:38:00Z</time>
      </trkpt>
      <trkpt lat="42.9697040" lon="-0.3422190">
        <ele>1474.0</ele>
        <time>2020-07-27T08:38:02Z</time>
      </trkpt>
      <trkpt lat="42.9697200" lon="-0.3422710">
        <ele>1474.6</ele>
        <time>2020-07-27T08:38:04Z</time>
      </trkpt>
      <trkpt lat="42.9697850" lon="-0.3424290">
        <ele>1475.8</ele>
        <time>2020-07-27T08:38:10Z</time>
      </trkpt>
      <trkpt lat="42.9698330" lon="-0.3425610">
        <ele>1477.0</ele>
        <time>2020-07-27T08:38:15Z</time>
      </trkpt>
      <trkpt lat="42.9698620" lon="-0.3426400">
        <ele>1478.2</ele>
        <time>2020-07-27T08:38:18Z</time>
      </trkpt>
      <trkpt lat="42.9698960" lon="-0.3427910">
        <ele>1479.2</ele>
        <time>2020-07-27T08:38:23Z</time>
      </trkpt>
      <trkpt lat="42.9698990" lon="-0.3428580">
        <ele>1479.8</ele>
        <time>2020-07-27T08:38:25Z</time>
      </trkpt>
      <trkpt lat="42.9698980" lon="-0.3429260">
        <ele>1480.2</ele>
        <time>2020-07-27T08:38:27Z</time>
      </trkpt>
      <trkpt lat="42.9698850" lon="-0.3430490">
        <ele>1481.6</ele>
        <time>2020-07-27T08:38:31Z</time>
      </trkpt>
      <trkpt lat="42.9698670" lon="-0.3431410">
        <ele>1482.8</ele>
        <time>2020-07-27T08:38:34Z</time>
      </trkpt>
      <trkpt lat="42.9698620" lon="-0.3431720">
        <ele>1483.2</ele>
        <time>2020-07-27T08:38:35Z</time>
      </trkpt>
      <trkpt lat="42.9698550" lon="-0.3432690">
        <ele>1484.0</ele>
        <time>2020-07-27T08:38:38Z</time>
      </trkpt>
      <trkpt lat="42.9698510" lon="-0.3434600">
        <ele>1484.8</ele>
        <time>2020-07-27T08:38:44Z</time>
      </trkpt>
      <trkpt lat="42.9698570" lon="-0.3435520">
        <ele>1485.2</ele>
        <time>2020-07-27T08:38:47Z</time>
      </trkpt>
      <trkpt lat="42.9699040" lon="-0.3436910">
        <ele>1486.4</ele>
        <time>2020-07-27T08:38:52Z</time>
      </trkpt>
      <trkpt lat="42.9699190" lon="-0.3437150">
        <ele>1486.6</ele>
        <time>2020-07-27T08:38:53Z</time>
      </trkpt>
      <trkpt lat="42.9700310" lon="-0.3438170">
        <ele>1487.2</ele>
        <time>2020-07-27T08:38:59Z</time>
      </trkpt>
      <trkpt lat="42.9700880" lon="-0.3438600">
        <ele>1487.4</ele>
        <time>2020-07-27T08:39:02Z</time>
      </trkpt>
      <trkpt lat="42.9702150" lon="-0.3439770">
        <ele>1488.4</ele>
        <time>2020-07-27T08:39:09Z</time>
      </trkpt>
      <trkpt lat="42.9703420" lon="-0.3441520">
        <ele>1488.8</ele>
        <time>2020-07-27T08:39:17Z</time>
      </trkpt>
      <trkpt lat="42.9703800" lon="-0.3442250">
        <ele>1489.6</ele>
        <time>2020-07-27T08:39:20Z</time>
      </trkpt>
      <trkpt lat="42.9704050" lon="-0.3442760">
        <ele>1490.8</ele>
        <time>2020-07-27T08:39:22Z</time>
      </trkpt>
      <trkpt lat="42.9704550" lon="-0.3443850">
        <ele>1491.8</ele>
        <time>2020-07-27T08:39:26Z</time>
      </trkpt>
      <trkpt lat="42.9704780" lon="-0.3444390">
        <ele>1492.2</ele>
        <time>2020-07-27T08:39:28Z</time>
      </trkpt>
      <trkpt lat="42.9705140" lon="-0.3445180">
        <ele>1492.8</ele>
        <time>2020-07-27T08:39:31Z</time>
      </trkpt>
      <trkpt lat="42.9705930" lon="-0.3446650">
        <ele>1494.0</ele>
        <time>2020-07-27T08:39:37Z</time>
      </trkpt>
      <trkpt lat="42.9706050" lon="-0.3446900">
        <ele>1494.2</ele>
        <time>2020-07-27T08:39:38Z</time>
      </trkpt>
      <trkpt lat="42.9706540" lon="-0.3447860">
        <ele>1495.0</ele>
        <time>2020-07-27T08:39:42Z</time>
      </trkpt>
      <trkpt lat="42.9707020" lon="-0.3448790">
        <ele>1496.2</ele>
        <time>2020-07-27T08:39:46Z</time>
      </trkpt>
      <trkpt lat="42.9707770" lon="-0.3450950">
        <ele>1497.4</ele>
        <time>2020-07-27T08:39:54Z</time>
      </trkpt>
      <trkpt lat="42.9707860" lon="-0.3451220">
        <ele>1497.6</ele>
        <time>2020-07-27T08:39:55Z</time>
      </trkpt>
      <trkpt lat="42.9708260" lon="-0.3451980">
        <ele>1498.4</ele>
        <time>2020-07-27T08:39:58Z</time>
      </trkpt>
      <trkpt lat="42.9708910" lon="-0.3452960">
        <ele>1499.2</ele>
        <time>2020-07-27T08:40:02Z</time>
      </trkpt>
      <trkpt lat="42.9709090" lon="-0.3453160">
        <ele>1499.4</ele>
        <time>2020-07-27T08:40:03Z</time>
      </trkpt>
      <trkpt lat="42.9710380" lon="-0.3454490">
        <ele>1500.4</ele>
        <time>2020-07-27T08:40:10Z</time>
      </trkpt>
      <trkpt lat="42.9710780" lon="-0.3454740">
        <ele>1500.6</ele>
        <time>2020-07-27T08:40:12Z</time>
      </trkpt>
      <trkpt lat="42.9711990" lon="-0.3455480">
        <ele>1501.4</ele>
        <time>2020-07-27T08:40:18Z</time>
      </trkpt>
      <trkpt lat="42.9712810" lon="-0.3455950">
        <ele>1502.2</ele>
        <time>2020-07-27T08:40:22Z</time>
      </trkpt>
      <trkpt lat="42.9713010" lon="-0.3456070">
        <ele>1502.6</ele>
        <time>2020-07-27T08:40:23Z</time>
      </trkpt>
      <trkpt lat="42.9713790" lon="-0.3456640">
        <ele>1503.6</ele>
        <time>2020-07-27T08:40:27Z</time>
      </trkpt>
      <trkpt lat="42.9714350" lon="-0.3457120">
        <ele>1504.8</ele>
        <time>2020-07-27T08:40:30Z</time>
      </trkpt>
      <trkpt lat="42.9714830" lon="-0.3458200">
        <ele>1506.0</ele>
        <time>2020-07-27T08:40:34Z</time>
      </trkpt>
      <trkpt lat="42.9715000" lon="-0.3458780">
        <ele>1506.4</ele>
        <time>2020-07-27T08:40:36Z</time>
      </trkpt>
      <trkpt lat="42.9715140" lon="-0.3459380">
        <ele>1507.0</ele>
        <time>2020-07-27T08:40:38Z</time>
      </trkpt>
      <trkpt lat="42.9715660" lon="-0.3461250">
        <ele>1508.2</ele>
        <time>2020-07-27T08:40:44Z</time>
      </trkpt>
      <trkpt lat="42.9715740" lon="-0.3461580">
        <ele>1508.6</ele>
        <time>2020-07-27T08:40:45Z</time>
      </trkpt>
      <trkpt lat="42.9715950" lon="-0.3463650">
        <ele>1509.2</ele>
        <time>2020-07-27T08:40:51Z</time>
      </trkpt>
      <trkpt lat="42.9715970" lon="-0.3464650">
        <ele>1509.4</ele>
        <time>2020-07-27T08:40:54Z</time>
      </trkpt>
      <trkpt lat="42.9716190" lon="-0.3466330">
        <ele>1510.2</ele>
        <time>2020-07-27T08:40:59Z</time>
      </trkpt>
      <trkpt lat="42.9716660" lon="-0.3467120">
        <ele>1510.8</ele>
        <time>2020-07-27T08:41:02Z</time>
      </trkpt>
      <trkpt lat="42.9717390" lon="-0.3467370">
        <ele>1511.2</ele>
        <time>2020-07-27T08:41:05Z</time>
      </trkpt>
      <trkpt lat="42.9717830" lon="-0.3467180">
        <ele>1511.6</ele>
        <time>2020-07-27T08:41:07Z</time>
      </trkpt>
      <trkpt lat="42.9718000" lon="-0.3466960">
        <ele>1511.6</ele>
        <time>2020-07-27T08:41:08Z</time>
      </trkpt>
      <trkpt lat="42.9718300" lon="-0.3466030">
        <ele>1512.0</ele>
        <time>2020-07-27T08:41:11Z</time>
      </trkpt>
      <trkpt lat="42.9718340" lon="-0.3465710">
        <ele>1512.2</ele>
        <time>2020-07-27T08:41:12Z</time>
      </trkpt>
      <trkpt lat="42.9718400" lon="-0.3465390">
        <ele>1512.8</ele>
        <time>2020-07-27T08:41:13Z</time>
      </trkpt>
      <trkpt lat="42.9718540" lon="-0.3464450">
        <ele>1514.0</ele>
        <time>2020-07-27T08:41:16Z</time>
      </trkpt>
      <trkpt lat="42.9718600" lon="-0.3463810">
        <ele>1514.8</ele>
        <time>2020-07-27T08:41:18Z</time>
      </trkpt>
      <trkpt lat="42.9718610" lon="-0.3463520">
        <ele>1515.2</ele>
        <time>2020-07-27T08:41:19Z</time>
      </trkpt>
      <trkpt lat="42.9718670" lon="-0.3462000">
        <ele>1516.2</ele>
        <time>2020-07-27T08:41:24Z</time>
      </trkpt>
      <trkpt lat="42.9718680" lon="-0.3461690">
        <ele>1516.4</ele>
        <time>2020-07-27T08:41:25Z</time>
      </trkpt>
      <trkpt lat="42.9718800" lon="-0.3460330">
        <ele>1517.2</ele>
        <time>2020-07-27T08:41:29Z</time>
      </trkpt>
      <trkpt lat="42.9719030" lon="-0.3459310">
        <ele>1517.8</ele>
        <time>2020-07-27T08:41:32Z</time>
      </trkpt>
      <trkpt lat="42.9719320" lon="-0.3458740">
        <ele>1518.2</ele>
        <time>2020-07-27T08:41:34Z</time>
      </trkpt>
      <trkpt lat="42.9720030" lon="-0.3457870">
        <ele>1518.8</ele>
        <time>2020-07-27T08:41:38Z</time>
      </trkpt>
      <trkpt lat="42.9720910" lon="-0.3457390">
        <ele>1519.6</ele>
        <time>2020-07-27T08:41:42Z</time>
      </trkpt>
      <trkpt lat="42.9721570" lon="-0.3457120">
        <ele>1520.4</ele>
        <time>2020-07-27T08:41:45Z</time>
      </trkpt>
      <trkpt lat="42.9721820" lon="-0.3457080">
        <ele>1520.6</ele>
        <time>2020-07-27T08:41:46Z</time>
      </trkpt>
      <trkpt lat="42.9722870" lon="-0.3457040">
        <ele>1521.6</ele>
        <time>2020-07-27T08:41:50Z</time>
      </trkpt>
      <trkpt lat="42.9723680" lon="-0.3457070">
        <ele>1522.6</ele>
        <time>2020-07-27T08:41:53Z</time>
      </trkpt>
      <trkpt lat="42.9723950" lon="-0.3457050">
        <ele>1522.6</ele>
        <time>2020-07-27T08:41:54Z</time>
      </trkpt>
      <trkpt lat="42.9725380" lon="-0.3457570">
        <ele>1523.6</ele>
        <time>2020-07-27T08:42:00Z</time>
      </trkpt>
      <trkpt lat="42.9725560" lon="-0.3457760">
        <ele>1523.8</ele>
        <time>2020-07-27T08:42:01Z</time>
      </trkpt>
      <trkpt lat="42.9726340" lon="-0.3458970">
        <ele>1524.2</ele>
        <time>2020-07-27T08:42:06Z</time>
      </trkpt>
      <trkpt lat="42.9726790" lon="-0.3460360">
        <ele>1524.8</ele>
        <time>2020-07-27T08:42:11Z</time>
      </trkpt>
      <trkpt lat="42.9726980" lon="-0.3461290">
        <ele>1526.2</ele>
        <time>2020-07-27T08:42:14Z</time>
      </trkpt>
      <trkpt lat="42.9727150" lon="-0.3461970">
        <ele>1527.6</ele>
        <time>2020-07-27T08:42:16Z</time>
      </trkpt>
      <trkpt lat="42.9727920" lon="-0.3463210">
        <ele>1528.4</ele>
        <time>2020-07-27T08:42:21Z</time>
      </trkpt>
      <trkpt lat="42.9728530" lon="-0.3463580">
        <ele>1528.8</ele>
        <time>2020-07-27T08:42:24Z</time>
      </trkpt>
      <trkpt lat="42.9729210" lon="-0.3463800">
        <ele>1529.8</ele>
        <time>2020-07-27T08:42:27Z</time>
      </trkpt>
      <trkpt lat="42.9729430" lon="-0.3463830">
        <ele>1530.2</ele>
        <time>2020-07-27T08:42:28Z</time>
      </trkpt>
      <trkpt lat="42.9729900" lon="-0.3463940">
        <ele>1530.8</ele>
        <time>2020-07-27T08:42:30Z</time>
      </trkpt>
      <trkpt lat="42.9730600" lon="-0.3464150">
        <ele>1531.8</ele>
        <time>2020-07-27T08:42:33Z</time>
      </trkpt>
      <trkpt lat="42.9731520" lon="-0.3464290">
        <ele>1532.6</ele>
        <time>2020-07-27T08:42:37Z</time>
      </trkpt>
      <trkpt lat="42.9732200" lon="-0.3464480">
        <ele>1533.0</ele>
        <time>2020-07-27T08:42:40Z</time>
      </trkpt>
      <trkpt lat="42.9733250" lon="-0.3464660">
        <ele>1533.6</ele>
        <time>2020-07-27T08:42:45Z</time>
      </trkpt>
      <trkpt lat="42.9733480" lon="-0.3464650">
        <ele>1534.2</ele>
        <time>2020-07-27T08:42:46Z</time>
      </trkpt>
      <trkpt lat="42.9734150" lon="-0.3464690">
        <ele>1535.6</ele>
        <time>2020-07-27T08:42:49Z</time>
      </trkpt>
      <trkpt lat="42.9734840" lon="-0.3464680">
        <ele>1536.8</ele>
        <time>2020-07-27T08:42:52Z</time>
      </trkpt>
      <trkpt lat="42.9735250" lon="-0.3464540">
        <ele>1537.4</ele>
        <time>2020-07-27T08:42:54Z</time>
      </trkpt>
      <trkpt lat="42.9735650" lon="-0.3464300">
        <ele>1538.0</ele>
        <time>2020-07-27T08:42:56Z</time>
      </trkpt>
      <trkpt lat="42.9736400" lon="-0.3463580">
        <ele>1538.6</ele>
        <time>2020-07-27T08:43:00Z</time>
      </trkpt>
      <trkpt lat="42.9736540" lon="-0.3463320">
        <ele>1538.8</ele>
        <time>2020-07-27T08:43:01Z</time>
      </trkpt>
      <trkpt lat="42.9736800" lon="-0.3462790">
        <ele>1539.2</ele>
        <time>2020-07-27T08:43:03Z</time>
      </trkpt>
      <trkpt lat="42.9736980" lon="-0.3461520">
        <ele>1539.2</ele>
        <time>2020-07-27T08:43:07Z</time>
      </trkpt>
      <trkpt lat="42.9736890" lon="-0.3460190">
        <ele>1540.0</ele>
        <time>2020-07-27T08:43:11Z</time>
      </trkpt>
      <trkpt lat="42.9736730" lon="-0.3459280">
        <ele>1540.6</ele>
        <time>2020-07-27T08:43:14Z</time>
      </trkpt>
      <trkpt lat="42.9736660" lon="-0.3458700">
        <ele>1541.2</ele>
        <time>2020-07-27T08:43:16Z</time>
      </trkpt>
      <trkpt lat="42.9736480" lon="-0.3457290">
        <ele>1542.0</ele>
        <time>2020-07-27T08:43:21Z</time>
      </trkpt>
      <trkpt lat="42.9736450" lon="-0.3456990">
        <ele>1542.4</ele>
        <time>2020-07-27T08:43:22Z</time>
      </trkpt>
      <trkpt lat="42.9736500" lon="-0.3455820">
        <ele>1543.6</ele>
        <time>2020-07-27T08:43:26Z</time>
      </trkpt>
      <trkpt lat="42.9736620" lon="-0.3455230">
        <ele>1544.0</ele>
        <time>2020-07-27T08:43:28Z</time>
      </trkpt>
      <trkpt lat="42.9736930" lon="-0.3454380">
        <ele>1544.6</ele>
        <time>2020-07-27T08:43:31Z</time>
      </trkpt>
      <trkpt lat="42.9737600" lon="-0.3453410">
        <ele>1545.0</ele>
        <time>2020-07-27T08:43:35Z</time>
      </trkpt>
      <trkpt lat="42.9738460" lon="-0.3452890">
        <ele>1545.6</ele>
        <time>2020-07-27T08:43:39Z</time>
      </trkpt>
      <trkpt lat="42.9739120" lon="-0.3452550">
        <ele>1546.2</ele>
        <time>2020-07-27T08:43:42Z</time>
      </trkpt>
      <trkpt lat="42.9739340" lon="-0.3452450">
        <ele>1546.8</ele>
        <time>2020-07-27T08:43:43Z</time>
      </trkpt>
      <trkpt lat="42.9740720" lon="-0.3451560">
        <ele>1547.8</ele>
        <time>2020-07-27T08:43:49Z</time>
      </trkpt>
      <trkpt lat="42.9740920" lon="-0.3451360">
        <ele>1547.8</ele>
        <time>2020-07-27T08:43:50Z</time>
      </trkpt>
      <trkpt lat="42.9741560" lon="-0.3450390">
        <ele>1549.0</ele>
        <time>2020-07-27T08:43:54Z</time>
      </trkpt>
      <trkpt lat="42.9741950" lon="-0.3449230">
        <ele>1549.4</ele>
        <time>2020-07-27T08:43:58Z</time>
      </trkpt>
      <trkpt lat="42.9742230" lon="-0.3448340">
        <ele>1550.0</ele>
        <time>2020-07-27T08:44:01Z</time>
      </trkpt>
      <trkpt lat="42.9742690" lon="-0.3446880">
        <ele>1551.2</ele>
        <time>2020-07-27T08:44:06Z</time>
      </trkpt>
      <trkpt lat="42.9742810" lon="-0.3446600">
        <ele>1551.4</ele>
        <time>2020-07-27T08:44:07Z</time>
      </trkpt>
      <trkpt lat="42.9743250" lon="-0.3445810">
        <ele>1552.2</ele>
        <time>2020-07-27T08:44:10Z</time>
      </trkpt>
      <trkpt lat="42.9743740" lon="-0.3445030">
        <ele>1553.0</ele>
        <time>2020-07-27T08:44:13Z</time>
      </trkpt>
      <trkpt lat="42.9743920" lon="-0.3444800">
        <ele>1553.4</ele>
        <time>2020-07-27T08:44:14Z</time>
      </trkpt>
      <trkpt lat="42.9744370" lon="-0.3444370">
        <ele>1553.8</ele>
        <time>2020-07-27T08:44:16Z</time>
      </trkpt>
      <trkpt lat="42.9744890" lon="-0.3444100">
        <ele>1554.4</ele>
        <time>2020-07-27T08:44:18Z</time>
      </trkpt>
      <trkpt lat="42.9745150" lon="-0.3444020">
        <ele>1554.8</ele>
        <time>2020-07-27T08:44:19Z</time>
      </trkpt>
      <trkpt lat="42.9745910" lon="-0.3443900">
        <ele>1555.4</ele>
        <time>2020-07-27T08:44:22Z</time>
      </trkpt>
      <trkpt lat="42.9746940" lon="-0.3444070">
        <ele>1556.2</ele>
        <time>2020-07-27T08:44:26Z</time>
      </trkpt>
      <trkpt lat="42.9747180" lon="-0.3444160">
        <ele>1556.4</ele>
        <time>2020-07-27T08:44:27Z</time>
      </trkpt>
      <trkpt lat="42.9748310" lon="-0.3444800">
        <ele>1557.6</ele>
        <time>2020-07-27T08:44:32Z</time>
      </trkpt>
      <trkpt lat="42.9748720" lon="-0.3445120">
        <ele>1557.6</ele>
        <time>2020-07-27T08:44:34Z</time>
      </trkpt>
      <trkpt lat="42.9749780" lon="-0.3445920">
        <ele>1558.6</ele>
        <time>2020-07-27T08:44:39Z</time>
      </trkpt>
      <trkpt lat="42.9750660" lon="-0.3446630">
        <ele>1559.2</ele>
        <time>2020-07-27T08:44:43Z</time>
      </trkpt>
      <trkpt lat="42.9750890" lon="-0.3446810">
        <ele>1559.4</ele>
        <time>2020-07-27T08:44:44Z</time>
      </trkpt>
      <trkpt lat="42.9751880" lon="-0.3447930">
        <ele>1560.6</ele>
        <time>2020-07-27T08:44:49Z</time>
      </trkpt>
      <trkpt lat="42.9752060" lon="-0.3448150">
        <ele>1560.6</ele>
        <time>2020-07-27T08:44:50Z</time>
      </trkpt>
      <trkpt lat="42.9752530" lon="-0.3448880">
        <ele>1561.6</ele>
        <time>2020-07-27T08:44:53Z</time>
      </trkpt>
      <trkpt lat="42.9753420" lon="-0.3450380">
        <ele>1562.6</ele>
        <time>2020-07-27T08:44:59Z</time>
      </trkpt>
      <trkpt lat="42.9753690" lon="-0.3450870">
        <ele>1562.8</ele>
        <time>2020-07-27T08:45:01Z</time>
      </trkpt>
      <trkpt lat="42.9754520" lon="-0.3452000">
        <ele>1563.8</ele>
        <time>2020-07-27T08:45:06Z</time>
      </trkpt>
      <trkpt lat="42.9755120" lon="-0.3452510">
        <ele>1564.4</ele>
        <time>2020-07-27T08:45:09Z</time>
      </trkpt>
      <trkpt lat="42.9755570" lon="-0.3452650">
        <ele>1565.2</ele>
        <time>2020-07-27T08:45:11Z</time>
      </trkpt>
      <trkpt lat="42.9756490" lon="-0.3452780">
        <ele>1566.2</ele>
        <time>2020-07-27T08:45:15Z</time>
      </trkpt>
      <trkpt lat="42.9756720" lon="-0.3452760">
        <ele>1566.4</ele>
        <time>2020-07-27T08:45:16Z</time>
      </trkpt>
      <trkpt lat="42.9757850" lon="-0.3452320">
        <ele>1567.4</ele>
        <time>2020-07-27T08:45:21Z</time>
      </trkpt>
      <trkpt lat="42.9758060" lon="-0.3452190">
        <ele>1567.8</ele>
        <time>2020-07-27T08:45:22Z</time>
      </trkpt>
      <trkpt lat="42.9758650" lon="-0.3451670">
        <ele>1568.6</ele>
        <time>2020-07-27T08:45:25Z</time>
      </trkpt>
      <trkpt lat="42.9759270" lon="-0.3450770">
        <ele>1569.6</ele>
        <time>2020-07-27T08:45:29Z</time>
      </trkpt>
      <trkpt lat="42.9759400" lon="-0.3450520">
        <ele>1569.8</ele>
        <time>2020-07-27T08:45:30Z</time>
      </trkpt>
      <trkpt lat="42.9759850" lon="-0.3449810">
        <ele>1570.6</ele>
        <time>2020-07-27T08:45:33Z</time>
      </trkpt>
      <trkpt lat="42.9760520" lon="-0.3448840">
        <ele>1571.4</ele>
        <time>2020-07-27T08:45:37Z</time>
      </trkpt>
      <trkpt lat="42.9760980" lon="-0.3448470">
        <ele>1571.8</ele>
        <time>2020-07-27T08:45:39Z</time>
      </trkpt>
      <trkpt lat="42.9762050" lon="-0.3448200">
        <ele>1572.4</ele>
        <time>2020-07-27T08:45:43Z</time>
      </trkpt>
      <trkpt lat="42.9762740" lon="-0.3448560">
        <ele>1572.8</ele>
        <time>2020-07-27T08:45:46Z</time>
      </trkpt>
      <trkpt lat="42.9763130" lon="-0.3448930">
        <ele>1573.4</ele>
        <time>2020-07-27T08:45:48Z</time>
      </trkpt>
      <trkpt lat="42.9763490" lon="-0.3449370">
        <ele>1573.8</ele>
        <time>2020-07-27T08:45:50Z</time>
      </trkpt>
      <trkpt lat="42.9765090" lon="-0.3451120">
        <ele>1574.4</ele>
        <time>2020-07-27T08:45:58Z</time>
      </trkpt>
      <trkpt lat="42.9765930" lon="-0.3451820">
        <ele>1575.0</ele>
        <time>2020-07-27T08:46:02Z</time>
      </trkpt>
      <trkpt lat="42.9767080" lon="-0.3452350">
        <ele>1575.6</ele>
        <time>2020-07-27T08:46:07Z</time>
      </trkpt>
      <trkpt lat="42.9767300" lon="-0.3452480">
        <ele>1575.8</ele>
        <time>2020-07-27T08:46:08Z</time>
      </trkpt>
      <trkpt lat="42.9768230" lon="-0.3452850">
        <ele>1576.8</ele>
        <time>2020-07-27T08:46:12Z</time>
      </trkpt>
      <trkpt lat="42.9768910" lon="-0.3452910">
        <ele>1577.6</ele>
        <time>2020-07-27T08:46:15Z</time>
      </trkpt>
      <trkpt lat="42.9769400" lon="-0.3452920">
        <ele>1578.0</ele>
        <time>2020-07-27T08:46:17Z</time>
      </trkpt>
      <trkpt lat="42.9770580" lon="-0.3452610">
        <ele>1579.0</ele>
        <time>2020-07-27T08:46:22Z</time>
      </trkpt>
      <trkpt lat="42.9770830" lon="-0.3452490">
        <ele>1579.4</ele>
        <time>2020-07-27T08:46:23Z</time>
      </trkpt>
      <trkpt lat="42.9771520" lon="-0.3452050">
        <ele>1580.4</ele>
        <time>2020-07-27T08:46:26Z</time>
      </trkpt>
      <trkpt lat="42.9772550" lon="-0.3450980">
        <ele>1581.2</ele>
        <time>2020-07-27T08:46:31Z</time>
      </trkpt>
      <trkpt lat="42.9772730" lon="-0.3450700">
        <ele>1581.4</ele>
        <time>2020-07-27T08:46:32Z</time>
      </trkpt>
      <trkpt lat="42.9773550" lon="-0.3449200">
        <ele>1582.8</ele>
        <time>2020-07-27T08:46:37Z</time>
      </trkpt>
      <trkpt lat="42.9773910" lon="-0.3448220">
        <ele>1583.4</ele>
        <time>2020-07-27T08:46:40Z</time>
      </trkpt>
      <trkpt lat="42.9774060" lon="-0.3447920">
        <ele>1583.8</ele>
        <time>2020-07-27T08:46:41Z</time>
      </trkpt>
      <trkpt lat="42.9774810" lon="-0.3446490">
        <ele>1584.8</ele>
        <time>2020-07-27T08:46:46Z</time>
      </trkpt>
      <trkpt lat="42.9775130" lon="-0.3445920">
        <ele>1585.4</ele>
        <time>2020-07-27T08:46:48Z</time>
      </trkpt>
      <trkpt lat="42.9775470" lon="-0.3445410">
        <ele>1585.6</ele>
        <time>2020-07-27T08:46:50Z</time>
      </trkpt>
      <trkpt lat="42.9776170" lon="-0.3444410">
        <ele>1586.2</ele>
        <time>2020-07-27T08:46:54Z</time>
      </trkpt>
      <trkpt lat="42.9776730" lon="-0.3443710">
        <ele>1586.6</ele>
        <time>2020-07-27T08:46:57Z</time>
      </trkpt>
      <trkpt lat="42.9777610" lon="-0.3442120">
        <ele>1588.0</ele>
        <time>2020-07-27T08:47:03Z</time>
      </trkpt>
      <trkpt lat="42.9777920" lon="-0.3441610">
        <ele>1588.6</ele>
        <time>2020-07-27T08:47:05Z</time>
      </trkpt>
      <trkpt lat="42.9778230" lon="-0.3441100">
        <ele>1589.0</ele>
        <time>2020-07-27T08:47:07Z</time>
      </trkpt>
      <trkpt lat="42.9778890" lon="-0.3439730">
        <ele>1590.2</ele>
        <time>2020-07-27T08:47:12Z</time>
      </trkpt>
      <trkpt lat="42.9779210" lon="-0.3438820">
        <ele>1590.6</ele>
        <time>2020-07-27T08:47:15Z</time>
      </trkpt>
      <trkpt lat="42.9779590" lon="-0.3437930">
        <ele>1591.4</ele>
        <time>2020-07-27T08:47:18Z</time>
      </trkpt>
      <trkpt lat="42.9780350" lon="-0.3436560">
        <ele>1592.4</ele>
        <time>2020-07-27T08:47:23Z</time>
      </trkpt>
      <trkpt lat="42.9780490" lon="-0.3436270">
        <ele>1592.6</ele>
        <time>2020-07-27T08:47:24Z</time>
      </trkpt>
      <trkpt lat="42.9781100" lon="-0.3434770">
        <ele>1593.4</ele>
        <time>2020-07-27T08:47:29Z</time>
      </trkpt>
      <trkpt lat="42.9781420" lon="-0.3433500">
        <ele>1594.4</ele>
        <time>2020-07-27T08:47:33Z</time>
      </trkpt>
      <trkpt lat="42.9781940" lon="-0.3431550">
        <ele>1595.6</ele>
        <time>2020-07-27T08:47:39Z</time>
      </trkpt>
      <trkpt lat="42.9782390" lon="-0.3430700">
        <ele>1596.8</ele>
        <time>2020-07-27T08:47:42Z</time>
      </trkpt>
      <trkpt lat="42.9783860" lon="-0.3429660">
        <ele>1597.6</ele>
        <time>2020-07-27T08:47:48Z</time>
      </trkpt>
      <trkpt lat="42.9785510" lon="-0.3429480">
        <ele>1598.8</ele>
        <time>2020-07-27T08:47:54Z</time>
      </trkpt>
      <trkpt lat="42.9785800" lon="-0.3429540">
        <ele>1599.0</ele>
        <time>2020-07-27T08:47:55Z</time>
      </trkpt>
      <trkpt lat="42.9787460" lon="-0.3430020">
        <ele>1599.8</ele>
        <time>2020-07-27T08:48:00Z</time>
      </trkpt>
      <trkpt lat="42.9788520" lon="-0.3430260">
        <ele>1600.8</ele>
        <time>2020-07-27T08:48:03Z</time>
      </trkpt>
      <trkpt lat="42.9789550" lon="-0.3429990">
        <ele>1602.0</ele>
        <time>2020-07-27T08:48:06Z</time>
      </trkpt>
      <trkpt lat="42.9789800" lon="-0.3429730">
        <ele>1602.2</ele>
        <time>2020-07-27T08:48:07Z</time>
      </trkpt>
      <trkpt lat="42.9790070" lon="-0.3428420">
        <ele>1602.4</ele>
        <time>2020-07-27T08:48:11Z</time>
      </trkpt>
      <trkpt lat="42.9789210" lon="-0.3427550">
        <ele>1602.8</ele>
        <time>2020-07-27T08:48:15Z</time>
      </trkpt>
      <trkpt lat="42.9788020" lon="-0.3427470">
        <ele>1604.2</ele>
        <time>2020-07-27T08:48:19Z</time>
      </trkpt>
      <trkpt lat="42.9787450" lon="-0.3427540">
        <ele>1605.0</ele>
        <time>2020-07-27T08:48:21Z</time>
      </trkpt>
      <trkpt lat="42.9786870" lon="-0.3427590">
        <ele>1605.4</ele>
        <time>2020-07-27T08:48:23Z</time>
      </trkpt>
      <trkpt lat="42.9785520" lon="-0.3427850">
        <ele>1606.2</ele>
        <time>2020-07-27T08:48:28Z</time>
      </trkpt>
      <trkpt lat="42.9785290" lon="-0.3427860">
        <ele>1606.4</ele>
        <time>2020-07-27T08:48:29Z</time>
      </trkpt>
      <trkpt lat="42.9784250" lon="-0.3427760">
        <ele>1607.4</ele>
        <time>2020-07-27T08:48:33Z</time>
      </trkpt>
      <trkpt lat="42.9783720" lon="-0.3427730">
        <ele>1607.8</ele>
        <time>2020-07-27T08:48:35Z</time>
      </trkpt>
      <trkpt lat="42.9782620" lon="-0.3427690">
        <ele>1608.6</ele>
        <time>2020-07-27T08:48:39Z</time>
      </trkpt>
      <trkpt lat="42.9781510" lon="-0.3427870">
        <ele>1609.2</ele>
        <time>2020-07-27T08:48:43Z</time>
      </trkpt>
      <trkpt lat="42.9781000" lon="-0.3428130">
        <ele>1609.6</ele>
        <time>2020-07-27T08:48:45Z</time>
      </trkpt>
      <trkpt lat="42.9779920" lon="-0.3429140">
        <ele>1610.6</ele>
        <time>2020-07-27T08:48:50Z</time>
      </trkpt>
      <trkpt lat="42.9778580" lon="-0.3430660">
        <ele>1611.8</ele>
        <time>2020-07-27T08:48:57Z</time>
      </trkpt>
      <trkpt lat="42.9778380" lon="-0.3430840">
        <ele>1611.8</ele>
        <time>2020-07-27T08:48:58Z</time>
      </trkpt>
      <trkpt lat="42.9777240" lon="-0.3431520">
        <ele>1612.6</ele>
        <time>2020-07-27T08:49:03Z</time>
      </trkpt>
      <trkpt lat="42.9776500" lon="-0.3431830">
        <ele>1613.0</ele>
        <time>2020-07-27T08:49:06Z</time>
      </trkpt>
      <trkpt lat="42.9775720" lon="-0.3431980">
        <ele>1613.8</ele>
        <time>2020-07-27T08:49:09Z</time>
      </trkpt>
      <trkpt lat="42.9774200" lon="-0.3432220">
        <ele>1614.8</ele>
        <time>2020-07-27T08:49:15Z</time>
      </trkpt>
      <trkpt lat="42.9772660" lon="-0.3431830">
        <ele>1615.6</ele>
        <time>2020-07-27T08:49:21Z</time>
      </trkpt>
      <trkpt lat="42.9772430" lon="-0.3431670">
        <ele>1615.8</ele>
        <time>2020-07-27T08:49:22Z</time>
      </trkpt>
      <trkpt lat="42.9771670" lon="-0.3430780">
        <ele>1617.2</ele>
        <time>2020-07-27T08:49:26Z</time>
      </trkpt>
      <trkpt lat="42.9771520" lon="-0.3430500">
        <ele>1617.6</ele>
        <time>2020-07-27T08:49:27Z</time>
      </trkpt>
      <trkpt lat="42.9771310" lon="-0.3429890">
        <ele>1618.4</ele>
        <time>2020-07-27T08:49:29Z</time>
      </trkpt>
      <trkpt lat="42.9771010" lon="-0.3428990">
        <ele>1619.6</ele>
        <time>2020-07-27T08:49:32Z</time>
      </trkpt>
      <trkpt lat="42.9770660" lon="-0.3427760">
        <ele>1621.0</ele>
        <time>2020-07-27T08:49:36Z</time>
      </trkpt>
      <trkpt lat="42.9770330" lon="-0.3426070">
        <ele>1622.0</ele>
        <time>2020-07-27T08:49:41Z</time>
      </trkpt>
      <trkpt lat="42.9770100" lon="-0.3424760">
        <ele>1623.0</ele>
        <time>2020-07-27T08:49:45Z</time>
      </trkpt>
      <trkpt lat="42.9769760" lon="-0.3423140">
        <ele>1624.2</ele>
        <time>2020-07-27T08:49:50Z</time>
      </trkpt>
      <trkpt lat="42.9769420" lon="-0.3421880">
        <ele>1625.4</ele>
        <time>2020-07-27T08:49:54Z</time>
      </trkpt>
      <trkpt lat="42.9769300" lon="-0.3421570">
        <ele>1625.6</ele>
        <time>2020-07-27T08:49:55Z</time>
      </trkpt>
      <trkpt lat="42.9768920" lon="-0.3420670">
        <ele>1626.4</ele>
        <time>2020-07-27T08:49:58Z</time>
      </trkpt>
      <trkpt lat="42.9768360" lon="-0.3419640">
        <ele>1627.6</ele>
        <time>2020-07-27T08:50:02Z</time>
      </trkpt>
      <trkpt lat="42.9768220" lon="-0.3419400">
        <ele>1627.6</ele>
        <time>2020-07-27T08:50:03Z</time>
      </trkpt>
      <trkpt lat="42.9767720" lon="-0.3418770">
        <ele>1628.6</ele>
        <time>2020-07-27T08:50:06Z</time>
      </trkpt>
      <trkpt lat="42.9766880" lon="-0.3417560">
        <ele>1630.2</ele>
        <time>2020-07-27T08:50:11Z</time>
      </trkpt>
      <trkpt lat="42.9766390" lon="-0.3416860">
        <ele>1631.4</ele>
        <time>2020-07-27T08:50:14Z</time>
      </trkpt>
      <trkpt lat="42.9765380" lon="-0.3415380">
        <ele>1632.2</ele>
        <time>2020-07-27T08:50:20Z</time>
      </trkpt>
      <trkpt lat="42.9765210" lon="-0.3415130">
        <ele>1632.2</ele>
        <time>2020-07-27T08:50:21Z</time>
      </trkpt>
      <trkpt lat="42.9764390" lon="-0.3413400">
        <ele>1633.2</ele>
        <time>2020-07-27T08:50:27Z</time>
      </trkpt>
      <trkpt lat="42.9764140" lon="-0.3412790">
        <ele>1634.2</ele>
        <time>2020-07-27T08:50:29Z</time>
      </trkpt>
      <trkpt lat="42.9764040" lon="-0.3412480">
        <ele>1634.4</ele>
        <time>2020-07-27T08:50:30Z</time>
      </trkpt>
      <trkpt lat="42.9763420" lon="-0.3410590">
        <ele>1635.6</ele>
        <time>2020-07-27T08:50:36Z</time>
      </trkpt>
      <trkpt lat="42.9763210" lon="-0.3409640">
        <ele>1636.4</ele>
        <time>2020-07-27T08:50:39Z</time>
      </trkpt>
      <trkpt lat="42.9763160" lon="-0.3409320">
        <ele>1636.6</ele>
        <time>2020-07-27T08:50:40Z</time>
      </trkpt>
      <trkpt lat="42.9762960" lon="-0.3408040">
        <ele>1637.8</ele>
        <time>2020-07-27T08:50:44Z</time>
      </trkpt>
      <trkpt lat="42.9762910" lon="-0.3407370">
        <ele>1638.0</ele>
        <time>2020-07-27T08:50:46Z</time>
      </trkpt>
      <trkpt lat="42.9762940" lon="-0.3405950">
        <ele>1638.8</ele>
        <time>2020-07-27T08:50:50Z</time>
      </trkpt>
      <trkpt lat="42.9763020" lon="-0.3404510">
        <ele>1640.0</ele>
        <time>2020-07-27T08:50:54Z</time>
      </trkpt>
      <trkpt lat="42.9763100" lon="-0.3403800">
        <ele>1640.8</ele>
        <time>2020-07-27T08:50:56Z</time>
      </trkpt>
      <trkpt lat="42.9763180" lon="-0.3403160">
        <ele>1641.2</ele>
        <time>2020-07-27T08:50:58Z</time>
      </trkpt>
      <trkpt lat="42.9763530" lon="-0.3402050">
        <ele>1642.4</ele>
        <time>2020-07-27T08:51:02Z</time>
      </trkpt>
      <trkpt lat="42.9763650" lon="-0.3401760">
        <ele>1642.8</ele>
        <time>2020-07-27T08:51:03Z</time>
      </trkpt>
      <trkpt lat="42.9763940" lon="-0.3401190">
        <ele>1643.4</ele>
        <time>2020-07-27T08:51:05Z</time>
      </trkpt>
      <trkpt lat="42.9765000" lon="-0.3399530">
        <ele>1644.4</ele>
        <time>2020-07-27T08:51:11Z</time>
      </trkpt>
      <trkpt lat="42.9765830" lon="-0.3398160">
        <ele>1645.8</ele>
        <time>2020-07-27T08:51:16Z</time>
      </trkpt>
      <trkpt lat="42.9765620" lon="-0.3398190">
        <ele>1647.4</ele>
        <time>2020-07-27T09:01:40Z</time>
      </trkpt>
      <trkpt lat="42.9765810" lon="-0.3397910">
        <ele>1647.4</ele>
        <time>2020-07-27T09:01:41Z</time>
      </trkpt>
      <trkpt lat="42.9766330" lon="-0.3396660">
        <ele>1647.4</ele>
        <time>2020-07-27T09:01:44Z</time>
      </trkpt>
      <trkpt lat="42.9766410" lon="-0.3396040">
        <ele>1647.4</ele>
        <time>2020-07-27T09:01:45Z</time>
      </trkpt>
      <trkpt lat="42.9765990" lon="-0.3393700">
        <ele>1647.4</ele>
        <time>2020-07-27T09:01:48Z</time>
      </trkpt>
      <trkpt lat="42.9765220" lon="-0.3391890">
        <ele>1647.4</ele>
        <time>2020-07-27T09:01:50Z</time>
      </trkpt>
      <trkpt lat="42.9764440" lon="-0.3389700">
        <ele>1647.4</ele>
        <time>2020-07-27T09:01:52Z</time>
      </trkpt>
      <trkpt lat="42.9763520" lon="-0.3385830">
        <ele>1647.2</ele>
        <time>2020-07-27T09:01:55Z</time>
      </trkpt>
      <trkpt lat="42.9762850" lon="-0.3383220">
        <ele>1646.4</ele>
        <time>2020-07-27T09:01:57Z</time>
      </trkpt>
      <trkpt lat="42.9762420" lon="-0.3381990">
        <ele>1645.6</ele>
        <time>2020-07-27T09:01:58Z</time>
      </trkpt>
      <trkpt lat="42.9761930" lon="-0.3380860">
        <ele>1644.4</ele>
        <time>2020-07-27T09:01:59Z</time>
      </trkpt>
      <trkpt lat="42.9761350" lon="-0.3379870">
        <ele>1643.6</ele>
        <time>2020-07-27T09:02:00Z</time>
      </trkpt>
      <trkpt lat="42.9760640" lon="-0.3379000">
        <ele>1643.0</ele>
        <time>2020-07-27T09:02:01Z</time>
      </trkpt>
      <trkpt lat="42.9758930" lon="-0.3377480">
        <ele>1641.2</ele>
        <time>2020-07-27T09:02:03Z</time>
      </trkpt>
      <trkpt lat="42.9758010" lon="-0.3376760">
        <ele>1639.8</ele>
        <time>2020-07-27T09:02:04Z</time>
      </trkpt>
      <trkpt lat="42.9757060" lon="-0.3376020">
        <ele>1638.0</ele>
        <time>2020-07-27T09:02:05Z</time>
      </trkpt>
      <trkpt lat="42.9755080" lon="-0.3374400">
        <ele>1636.6</ele>
        <time>2020-07-27T09:02:07Z</time>
      </trkpt>
      <trkpt lat="42.9754150" lon="-0.3373470">
        <ele>1636.0</ele>
        <time>2020-07-27T09:02:08Z</time>
      </trkpt>
      <trkpt lat="42.9753330" lon="-0.3372400">
        <ele>1635.2</ele>
        <time>2020-07-27T09:02:09Z</time>
      </trkpt>
      <trkpt lat="42.9752660" lon="-0.3371220">
        <ele>1634.2</ele>
        <time>2020-07-27T09:02:10Z</time>
      </trkpt>
      <trkpt lat="42.9752160" lon="-0.3369930">
        <ele>1632.6</ele>
        <time>2020-07-27T09:02:11Z</time>
      </trkpt>
      <trkpt lat="42.9751810" lon="-0.3368560">
        <ele>1631.6</ele>
        <time>2020-07-27T09:02:12Z</time>
      </trkpt>
      <trkpt lat="42.9751590" lon="-0.3365540">
        <ele>1630.2</ele>
        <time>2020-07-27T09:02:14Z</time>
      </trkpt>
      <trkpt lat="42.9751590" lon="-0.3363970">
        <ele>1629.4</ele>
        <time>2020-07-27T09:02:15Z</time>
      </trkpt>
      <trkpt lat="42.9751500" lon="-0.3362380">
        <ele>1628.2</ele>
        <time>2020-07-27T09:02:16Z</time>
      </trkpt>
      <trkpt lat="42.9751350" lon="-0.3360750">
        <ele>1626.6</ele>
        <time>2020-07-27T09:02:17Z</time>
      </trkpt>
      <trkpt lat="42.9751180" lon="-0.3359130">
        <ele>1624.4</ele>
        <time>2020-07-27T09:02:18Z</time>
      </trkpt>
      <trkpt lat="42.9751010" lon="-0.3357520">
        <ele>1621.8</ele>
        <time>2020-07-27T09:02:19Z</time>
      </trkpt>
      <trkpt lat="42.9750830" lon="-0.3355950">
        <ele>1619.2</ele>
        <time>2020-07-27T09:02:20Z</time>
      </trkpt>
      <trkpt lat="42.9750660" lon="-0.3354400">
        <ele>1617.8</ele>
        <time>2020-07-27T09:02:21Z</time>
      </trkpt>
      <trkpt lat="42.9750220" lon="-0.3351310">
        <ele>1616.4</ele>
        <time>2020-07-27T09:02:23Z</time>
      </trkpt>
      <trkpt lat="42.9749880" lon="-0.3349820">
        <ele>1615.0</ele>
        <time>2020-07-27T09:02:24Z</time>
      </trkpt>
      <trkpt lat="42.9749490" lon="-0.3348400">
        <ele>1613.6</ele>
        <time>2020-07-27T09:02:25Z</time>
      </trkpt>
      <trkpt lat="42.9749020" lon="-0.3347060">
        <ele>1612.8</ele>
        <time>2020-07-27T09:02:26Z</time>
      </trkpt>
      <trkpt lat="42.9748410" lon="-0.3345780">
        <ele>1612.0</ele>
        <time>2020-07-27T09:02:27Z</time>
      </trkpt>
      <trkpt lat="42.9745920" lon="-0.3342270">
        <ele>1611.2</ele>
        <time>2020-07-27T09:02:30Z</time>
      </trkpt>
      <trkpt lat="42.9745060" lon="-0.3341030">
        <ele>1610.6</ele>
        <time>2020-07-27T09:02:31Z</time>
      </trkpt>
      <trkpt lat="42.9743660" lon="-0.3338070">
        <ele>1609.2</ele>
        <time>2020-07-27T09:02:33Z</time>
      </trkpt>
      <trkpt lat="42.9743070" lon="-0.3336420">
        <ele>1608.2</ele>
        <time>2020-07-27T09:02:34Z</time>
      </trkpt>
      <trkpt lat="42.9742490" lon="-0.3334710">
        <ele>1606.8</ele>
        <time>2020-07-27T09:02:35Z</time>
      </trkpt>
      <trkpt lat="42.9741900" lon="-0.3332970">
        <ele>1605.2</ele>
        <time>2020-07-27T09:02:36Z</time>
      </trkpt>
      <trkpt lat="42.9741300" lon="-0.3331270">
        <ele>1603.4</ele>
        <time>2020-07-27T09:02:37Z</time>
      </trkpt>
      <trkpt lat="42.9740680" lon="-0.3329680">
        <ele>1601.8</ele>
        <time>2020-07-27T09:02:38Z</time>
      </trkpt>
      <trkpt lat="42.9740040" lon="-0.3328200">
        <ele>1600.0</ele>
        <time>2020-07-27T09:02:39Z</time>
      </trkpt>
      <trkpt lat="42.9739310" lon="-0.3326850">
        <ele>1599.0</ele>
        <time>2020-07-27T09:02:40Z</time>
      </trkpt>
      <trkpt lat="42.9737550" lon="-0.3324480">
        <ele>1597.2</ele>
        <time>2020-07-27T09:02:42Z</time>
      </trkpt>
      <trkpt lat="42.9735620" lon="-0.3322440">
        <ele>1595.6</ele>
        <time>2020-07-27T09:02:44Z</time>
      </trkpt>
      <trkpt lat="42.9734560" lon="-0.3321580">
        <ele>1594.8</ele>
        <time>2020-07-27T09:02:45Z</time>
      </trkpt>
      <trkpt lat="42.9733450" lon="-0.3320850">
        <ele>1593.6</ele>
        <time>2020-07-27T09:02:46Z</time>
      </trkpt>
      <trkpt lat="42.9732290" lon="-0.3320280">
        <ele>1592.4</ele>
        <time>2020-07-27T09:02:47Z</time>
      </trkpt>
      <trkpt lat="42.9729960" lon="-0.3319480">
        <ele>1591.2</ele>
        <time>2020-07-27T09:02:49Z</time>
      </trkpt>
      <trkpt lat="42.9728790" lon="-0.3319310">
        <ele>1590.8</ele>
        <time>2020-07-27T09:02:50Z</time>
      </trkpt>
      <trkpt lat="42.9726550" lon="-0.3319400">
        <ele>1589.8</ele>
        <time>2020-07-27T09:02:52Z</time>
      </trkpt>
      <trkpt lat="42.9725520" lon="-0.3319610">
        <ele>1589.6</ele>
        <time>2020-07-27T09:02:53Z</time>
      </trkpt>
      <trkpt lat="42.9724570" lon="-0.3319870">
        <ele>1588.4</ele>
        <time>2020-07-27T09:02:54Z</time>
      </trkpt>
      <trkpt lat="42.9723700" lon="-0.3319990">
        <ele>1587.0</ele>
        <time>2020-07-27T09:02:55Z</time>
      </trkpt>
      <trkpt lat="42.9722920" lon="-0.3319770">
        <ele>1585.6</ele>
        <time>2020-07-27T09:02:56Z</time>
      </trkpt>
      <trkpt lat="42.9722240" lon="-0.3319170">
        <ele>1584.2</ele>
        <time>2020-07-27T09:02:57Z</time>
      </trkpt>
      <trkpt lat="42.9721790" lon="-0.3318280">
        <ele>1583.2</ele>
        <time>2020-07-27T09:02:58Z</time>
      </trkpt>
      <trkpt lat="42.9721620" lon="-0.3315970">
        <ele>1581.6</ele>
        <time>2020-07-27T09:03:00Z</time>
      </trkpt>
      <trkpt lat="42.9721980" lon="-0.3313290">
        <ele>1581.4</ele>
        <time>2020-07-27T09:03:02Z</time>
      </trkpt>
      <trkpt lat="42.9722110" lon="-0.3311910">
        <ele>1581.0</ele>
        <time>2020-07-27T09:03:03Z</time>
      </trkpt>
      <trkpt lat="42.9722080" lon="-0.3310640">
        <ele>1580.8</ele>
        <time>2020-07-27T09:03:04Z</time>
      </trkpt>
      <trkpt lat="42.9721830" lon="-0.3309480">
        <ele>1579.4</ele>
        <time>2020-07-27T09:03:05Z</time>
      </trkpt>
      <trkpt lat="42.9721390" lon="-0.3308420">
        <ele>1577.2</ele>
        <time>2020-07-27T09:03:06Z</time>
      </trkpt>
      <trkpt lat="42.9720830" lon="-0.3307390">
        <ele>1576.0</ele>
        <time>2020-07-27T09:03:07Z</time>
      </trkpt>
      <trkpt lat="42.9720230" lon="-0.3306300">
        <ele>1575.2</ele>
        <time>2020-07-27T09:03:08Z</time>
      </trkpt>
      <trkpt lat="42.9719620" lon="-0.3305140">
        <ele>1574.8</ele>
        <time>2020-07-27T09:03:09Z</time>
      </trkpt>
      <trkpt lat="42.9718980" lon="-0.3303800">
        <ele>1574.2</ele>
        <time>2020-07-27T09:03:10Z</time>
      </trkpt>
      <trkpt lat="42.9718290" lon="-0.3302400">
        <ele>1573.4</ele>
        <time>2020-07-27T09:03:11Z</time>
      </trkpt>
      <trkpt lat="42.9717610" lon="-0.3300990">
        <ele>1572.2</ele>
        <time>2020-07-27T09:03:12Z</time>
      </trkpt>
      <trkpt lat="42.9717050" lon="-0.3299490">
        <ele>1571.2</ele>
        <time>2020-07-27T09:03:13Z</time>
      </trkpt>
      <trkpt lat="42.9716640" lon="-0.3297890">
        <ele>1570.4</ele>
        <time>2020-07-27T09:03:14Z</time>
      </trkpt>
      <trkpt lat="42.9715960" lon="-0.3294620">
        <ele>1568.2</ele>
        <time>2020-07-27T09:03:16Z</time>
      </trkpt>
      <trkpt lat="42.9715410" lon="-0.3291190">
        <ele>1566.0</ele>
        <time>2020-07-27T09:03:18Z</time>
      </trkpt>
      <trkpt lat="42.9715190" lon="-0.3289440">
        <ele>1564.2</ele>
        <time>2020-07-27T09:03:19Z</time>
      </trkpt>
      <trkpt lat="42.9715050" lon="-0.3287710">
        <ele>1562.4</ele>
        <time>2020-07-27T09:03:20Z</time>
      </trkpt>
      <trkpt lat="42.9715040" lon="-0.3286050">
        <ele>1561.2</ele>
        <time>2020-07-27T09:03:21Z</time>
      </trkpt>
      <trkpt lat="42.9715170" lon="-0.3284510">
        <ele>1560.2</ele>
        <time>2020-07-27T09:03:22Z</time>
      </trkpt>
      <trkpt lat="42.9715380" lon="-0.3283190">
        <ele>1559.4</ele>
        <time>2020-07-27T09:03:23Z</time>
      </trkpt>
      <trkpt lat="42.9715470" lon="-0.3281990">
        <ele>1558.8</ele>
        <time>2020-07-27T09:03:24Z</time>
      </trkpt>
      <trkpt lat="42.9715310" lon="-0.3280840">
        <ele>1558.4</ele>
        <time>2020-07-27T09:03:25Z</time>
      </trkpt>
      <trkpt lat="42.9714870" lon="-0.3279790">
        <ele>1557.6</ele>
        <time>2020-07-27T09:03:26Z</time>
      </trkpt>
      <trkpt lat="42.9714200" lon="-0.3278840">
        <ele>1555.8</ele>
        <time>2020-07-27T09:03:27Z</time>
      </trkpt>
      <trkpt lat="42.9713480" lon="-0.3277910">
        <ele>1554.8</ele>
        <time>2020-07-27T09:03:28Z</time>
      </trkpt>
      <trkpt lat="42.9712860" lon="-0.3276860">
        <ele>1554.2</ele>
        <time>2020-07-27T09:03:29Z</time>
      </trkpt>
      <trkpt lat="42.9712390" lon="-0.3275680">
        <ele>1553.8</ele>
        <time>2020-07-27T09:03:30Z</time>
      </trkpt>
      <trkpt lat="42.9712120" lon="-0.3272990">
        <ele>1553.0</ele>
        <time>2020-07-27T09:03:32Z</time>
      </trkpt>
      <trkpt lat="42.9713370" lon="-0.3269160">
        <ele>1551.4</ele>
        <time>2020-07-27T09:03:35Z</time>
      </trkpt>
      <trkpt lat="42.9714730" lon="-0.3266890">
        <ele>1549.8</ele>
        <time>2020-07-27T09:03:37Z</time>
      </trkpt>
      <trkpt lat="42.9715380" lon="-0.3265720">
        <ele>1549.2</ele>
        <time>2020-07-27T09:03:38Z</time>
      </trkpt>
      <trkpt lat="42.9715950" lon="-0.3264550">
        <ele>1548.4</ele>
        <time>2020-07-27T09:03:39Z</time>
      </trkpt>
      <trkpt lat="42.9717210" lon="-0.3262280">
        <ele>1548.0</ele>
        <time>2020-07-27T09:03:41Z</time>
      </trkpt>
      <trkpt lat="42.9718840" lon="-0.3260440">
        <ele>1547.6</ele>
        <time>2020-07-27T09:03:43Z</time>
      </trkpt>
      <trkpt lat="42.9719740" lon="-0.3259660">
        <ele>1547.4</ele>
        <time>2020-07-27T09:03:44Z</time>
      </trkpt>
      <trkpt lat="42.9720670" lon="-0.3258930">
        <ele>1547.0</ele>
        <time>2020-07-27T09:03:45Z</time>
      </trkpt>
      <trkpt lat="42.9723310" lon="-0.3256470">
        <ele>1546.4</ele>
        <time>2020-07-27T09:03:48Z</time>
      </trkpt>
      <trkpt lat="42.9724010" lon="-0.3255380">
        <ele>1546.2</ele>
        <time>2020-07-27T09:03:49Z</time>
      </trkpt>
      <trkpt lat="42.9724850" lon="-0.3252820">
        <ele>1545.8</ele>
        <time>2020-07-27T09:03:51Z</time>
      </trkpt>
      <trkpt lat="42.9724840" lon="-0.3250030">
        <ele>1545.2</ele>
        <time>2020-07-27T09:03:53Z</time>
      </trkpt>
      <trkpt lat="42.9724490" lon="-0.3248740">
        <ele>1545.2</ele>
        <time>2020-07-27T09:03:54Z</time>
      </trkpt>
      <trkpt lat="42.9724010" lon="-0.3247700">
        <ele>1545.0</ele>
        <time>2020-07-27T09:03:55Z</time>
      </trkpt>
      <trkpt lat="42.9722540" lon="-0.3246430">
        <ele>1544.6</ele>
        <time>2020-07-27T09:03:57Z</time>
      </trkpt>
      <trkpt lat="42.9719540" lon="-0.3246400">
        <ele>1543.6</ele>
        <time>2020-07-27T09:04:00Z</time>
      </trkpt>
      <trkpt lat="42.9718490" lon="-0.3246390">
        <ele>1542.8</ele>
        <time>2020-07-27T09:04:01Z</time>
      </trkpt>
      <trkpt lat="42.9716360" lon="-0.3245950">
        <ele>1541.2</ele>
        <time>2020-07-27T09:04:03Z</time>
      </trkpt>
      <trkpt lat="42.9715260" lon="-0.3245800">
        <ele>1540.2</ele>
        <time>2020-07-27T09:04:04Z</time>
      </trkpt>
      <trkpt lat="42.9714150" lon="-0.3245680">
        <ele>1539.2</ele>
        <time>2020-07-27T09:04:05Z</time>
      </trkpt>
      <trkpt lat="42.9713050" lon="-0.3245410">
        <ele>1537.8</ele>
        <time>2020-07-27T09:04:06Z</time>
      </trkpt>
      <trkpt lat="42.9712010" lon="-0.3244940">
        <ele>1536.0</ele>
        <time>2020-07-27T09:04:07Z</time>
      </trkpt>
      <trkpt lat="42.9711030" lon="-0.3244350">
        <ele>1534.6</ele>
        <time>2020-07-27T09:04:08Z</time>
      </trkpt>
      <trkpt lat="42.9710150" lon="-0.3243710">
        <ele>1533.4</ele>
        <time>2020-07-27T09:04:09Z</time>
      </trkpt>
      <trkpt lat="42.9708960" lon="-0.3242140">
        <ele>1532.2</ele>
        <time>2020-07-27T09:04:11Z</time>
      </trkpt>
      <trkpt lat="42.9708710" lon="-0.3241210">
        <ele>1531.0</ele>
        <time>2020-07-27T09:04:12Z</time>
      </trkpt>
      <trkpt lat="42.9708790" lon="-0.3240310">
        <ele>1529.4</ele>
        <time>2020-07-27T09:04:13Z</time>
      </trkpt>
      <trkpt lat="42.9709840" lon="-0.3238780">
        <ele>1527.6</ele>
        <time>2020-07-27T09:04:15Z</time>
      </trkpt>
      <trkpt lat="42.9710630" lon="-0.3238130">
        <ele>1526.4</ele>
        <time>2020-07-27T09:04:16Z</time>
      </trkpt>
      <trkpt lat="42.9711480" lon="-0.3237470">
        <ele>1525.6</ele>
        <time>2020-07-27T09:04:17Z</time>
      </trkpt>
      <trkpt lat="42.9712290" lon="-0.3236650">
        <ele>1525.0</ele>
        <time>2020-07-27T09:04:18Z</time>
      </trkpt>
      <trkpt lat="42.9713850" lon="-0.3233130">
        <ele>1523.8</ele>
        <time>2020-07-27T09:04:21Z</time>
      </trkpt>
      <trkpt lat="42.9714080" lon="-0.3230640">
        <ele>1522.4</ele>
        <time>2020-07-27T09:04:23Z</time>
      </trkpt>
      <trkpt lat="42.9713810" lon="-0.3229370">
        <ele>1521.6</ele>
        <time>2020-07-27T09:04:24Z</time>
      </trkpt>
      <trkpt lat="42.9713580" lon="-0.3228100">
        <ele>1521.2</ele>
        <time>2020-07-27T09:04:25Z</time>
      </trkpt>
      <trkpt lat="42.9713740" lon="-0.3225470">
        <ele>1520.0</ele>
        <time>2020-07-27T09:04:27Z</time>
      </trkpt>
      <trkpt lat="42.9714930" lon="-0.3223100">
        <ele>1518.6</ele>
        <time>2020-07-27T09:04:29Z</time>
      </trkpt>
      <trkpt lat="42.9716740" lon="-0.3221350">
        <ele>1517.0</ele>
        <time>2020-07-27T09:04:31Z</time>
      </trkpt>
      <trkpt lat="42.9717650" lon="-0.3220460">
        <ele>1516.4</ele>
        <time>2020-07-27T09:04:32Z</time>
      </trkpt>
      <trkpt lat="42.9718410" lon="-0.3219330">
        <ele>1515.4</ele>
        <time>2020-07-27T09:04:33Z</time>
      </trkpt>
      <trkpt lat="42.9719040" lon="-0.3218010">
        <ele>1513.8</ele>
        <time>2020-07-27T09:04:34Z</time>
      </trkpt>
      <trkpt lat="42.9719710" lon="-0.3216630">
        <ele>1512.4</ele>
        <time>2020-07-27T09:04:35Z</time>
      </trkpt>
      <trkpt lat="42.9720410" lon="-0.3215240">
        <ele>1511.2</ele>
        <time>2020-07-27T09:04:36Z</time>
      </trkpt>
      <trkpt lat="42.9721140" lon="-0.3213800">
        <ele>1509.4</ele>
        <time>2020-07-27T09:04:37Z</time>
      </trkpt>
      <trkpt lat="42.9721810" lon="-0.3212290">
        <ele>1508.0</ele>
        <time>2020-07-27T09:04:38Z</time>
      </trkpt>
      <trkpt lat="42.9722370" lon="-0.3210730">
        <ele>1506.8</ele>
        <time>2020-07-27T09:04:39Z</time>
      </trkpt>
      <trkpt lat="42.9722730" lon="-0.3207300">
        <ele>1505.4</ele>
        <time>2020-07-27T09:04:41Z</time>
      </trkpt>
      <trkpt lat="42.9722710" lon="-0.3203840">
        <ele>1503.6</ele>
        <time>2020-07-27T09:04:43Z</time>
      </trkpt>
      <trkpt lat="42.9722810" lon="-0.3202080">
        <ele>1502.4</ele>
        <time>2020-07-27T09:04:44Z</time>
      </trkpt>
      <trkpt lat="42.9723000" lon="-0.3200290">
        <ele>1501.2</ele>
        <time>2020-07-27T09:04:45Z</time>
      </trkpt>
      <trkpt lat="42.9723250" lon="-0.3198470">
        <ele>1499.8</ele>
        <time>2020-07-27T09:04:46Z</time>
      </trkpt>
      <trkpt lat="42.9723520" lon="-0.3196660">
        <ele>1498.6</ele>
        <time>2020-07-27T09:04:47Z</time>
      </trkpt>
      <trkpt lat="42.9724010" lon="-0.3193100">
        <ele>1495.6</ele>
        <time>2020-07-27T09:04:49Z</time>
      </trkpt>
      <trkpt lat="42.9724200" lon="-0.3191340">
        <ele>1494.6</ele>
        <time>2020-07-27T09:04:50Z</time>
      </trkpt>
      <trkpt lat="42.9724450" lon="-0.3189650">
        <ele>1492.8</ele>
        <time>2020-07-27T09:04:51Z</time>
      </trkpt>
      <trkpt lat="42.9724710" lon="-0.3187990">
        <ele>1491.0</ele>
        <time>2020-07-27T09:04:52Z</time>
      </trkpt>
      <trkpt lat="42.9724940" lon="-0.3186380">
        <ele>1489.4</ele>
        <time>2020-07-27T09:04:53Z</time>
      </trkpt>
      <trkpt lat="42.9725130" lon="-0.3184840">
        <ele>1488.0</ele>
        <time>2020-07-27T09:04:54Z</time>
      </trkpt>
      <trkpt lat="42.9725340" lon="-0.3183430">
        <ele>1486.4</ele>
        <time>2020-07-27T09:04:55Z</time>
      </trkpt>
      <trkpt lat="42.9725650" lon="-0.3182160">
        <ele>1485.4</ele>
        <time>2020-07-27T09:04:56Z</time>
      </trkpt>
      <trkpt lat="42.9726170" lon="-0.3181070">
        <ele>1484.2</ele>
        <time>2020-07-27T09:04:57Z</time>
      </trkpt>
      <trkpt lat="42.9726920" lon="-0.3180190">
        <ele>1483.0</ele>
        <time>2020-07-27T09:04:58Z</time>
      </trkpt>
      <trkpt lat="42.9727880" lon="-0.3179610">
        <ele>1482.0</ele>
        <time>2020-07-27T09:04:59Z</time>
      </trkpt>
      <trkpt lat="42.9729030" lon="-0.3179330">
        <ele>1481.2</ele>
        <time>2020-07-27T09:05:00Z</time>
      </trkpt>
      <trkpt lat="42.9730250" lon="-0.3179170">
        <ele>1480.6</ele>
        <time>2020-07-27T09:05:01Z</time>
      </trkpt>
      <trkpt lat="42.9732730" lon="-0.3179350">
        <ele>1480.0</ele>
        <time>2020-07-27T09:05:03Z</time>
      </trkpt>
      <trkpt lat="42.9733960" lon="-0.3179550">
        <ele>1479.4</ele>
        <time>2020-07-27T09:05:04Z</time>
      </trkpt>
      <trkpt lat="42.9736570" lon="-0.3180400">
        <ele>1477.2</ele>
        <time>2020-07-27T09:05:06Z</time>
      </trkpt>
      <trkpt lat="42.9737960" lon="-0.3180830">
        <ele>1475.8</ele>
        <time>2020-07-27T09:05:07Z</time>
      </trkpt>
      <trkpt lat="42.9739310" lon="-0.3181170">
        <ele>1474.0</ele>
        <time>2020-07-27T09:05:08Z</time>
      </trkpt>
      <trkpt lat="42.9740590" lon="-0.3181460">
        <ele>1472.4</ele>
        <time>2020-07-27T09:05:09Z</time>
      </trkpt>
      <trkpt lat="42.9741770" lon="-0.3181770">
        <ele>1471.0</ele>
        <time>2020-07-27T09:05:10Z</time>
      </trkpt>
      <trkpt lat="42.9742810" lon="-0.3182090">
        <ele>1469.4</ele>
        <time>2020-07-27T09:05:11Z</time>
      </trkpt>
      <trkpt lat="42.9743740" lon="-0.3182280">
        <ele>1468.2</ele>
        <time>2020-07-27T09:05:12Z</time>
      </trkpt>
      <trkpt lat="42.9744590" lon="-0.3182250">
        <ele>1467.4</ele>
        <time>2020-07-27T09:05:13Z</time>
      </trkpt>
      <trkpt lat="42.9745330" lon="-0.3181910">
        <ele>1466.6</ele>
        <time>2020-07-27T09:05:14Z</time>
      </trkpt>
      <trkpt lat="42.9746020" lon="-0.3181240">
        <ele>1465.6</ele>
        <time>2020-07-27T09:05:15Z</time>
      </trkpt>
      <trkpt lat="42.9746770" lon="-0.3180450">
        <ele>1464.4</ele>
        <time>2020-07-27T09:05:16Z</time>
      </trkpt>
      <trkpt lat="42.9747610" lon="-0.3179790">
        <ele>1463.8</ele>
        <time>2020-07-27T09:05:17Z</time>
      </trkpt>
      <trkpt lat="42.9748540" lon="-0.3179260">
        <ele>1463.6</ele>
        <time>2020-07-27T09:05:18Z</time>
      </trkpt>
      <trkpt lat="42.9750650" lon="-0.3178230">
        <ele>1463.2</ele>
        <time>2020-07-27T09:05:20Z</time>
      </trkpt>
      <trkpt lat="42.9752820" lon="-0.3176930">
        <ele>1462.8</ele>
        <time>2020-07-27T09:05:22Z</time>
      </trkpt>
      <trkpt lat="42.9753810" lon="-0.3176050">
        <ele>1462.0</ele>
        <time>2020-07-27T09:05:23Z</time>
      </trkpt>
      <trkpt lat="42.9755500" lon="-0.3173710">
        <ele>1460.0</ele>
        <time>2020-07-27T09:05:25Z</time>
      </trkpt>
      <trkpt lat="42.9756190" lon="-0.3172330">
        <ele>1459.0</ele>
        <time>2020-07-27T09:05:26Z</time>
      </trkpt>
      <trkpt lat="42.9756760" lon="-0.3170730">
        <ele>1457.8</ele>
        <time>2020-07-27T09:05:27Z</time>
      </trkpt>
      <trkpt lat="42.9757170" lon="-0.3169060">
        <ele>1456.8</ele>
        <time>2020-07-27T09:05:28Z</time>
      </trkpt>
      <trkpt lat="42.9757480" lon="-0.3167380">
        <ele>1455.6</ele>
        <time>2020-07-27T09:05:29Z</time>
      </trkpt>
      <trkpt lat="42.9757730" lon="-0.3164080">
        <ele>1453.6</ele>
        <time>2020-07-27T09:05:31Z</time>
      </trkpt>
      <trkpt lat="42.9757590" lon="-0.3160820">
        <ele>1451.6</ele>
        <time>2020-07-27T09:05:33Z</time>
      </trkpt>
      <trkpt lat="42.9757450" lon="-0.3159220">
        <ele>1450.4</ele>
        <time>2020-07-27T09:05:34Z</time>
      </trkpt>
      <trkpt lat="42.9757370" lon="-0.3157750">
        <ele>1448.8</ele>
        <time>2020-07-27T09:05:35Z</time>
      </trkpt>
      <trkpt lat="42.9757280" lon="-0.3156310">
        <ele>1446.8</ele>
        <time>2020-07-27T09:05:36Z</time>
      </trkpt>
      <trkpt lat="42.9757220" lon="-0.3154860">
        <ele>1445.0</ele>
        <time>2020-07-27T09:05:37Z</time>
      </trkpt>
      <trkpt lat="42.9757180" lon="-0.3153430">
        <ele>1443.8</ele>
        <time>2020-07-27T09:05:38Z</time>
      </trkpt>
      <trkpt lat="42.9757120" lon="-0.3150660">
        <ele>1442.4</ele>
        <time>2020-07-27T09:05:40Z</time>
      </trkpt>
      <trkpt lat="42.9756970" lon="-0.3149390">
        <ele>1442.2</ele>
        <time>2020-07-27T09:05:41Z</time>
      </trkpt>
      <trkpt lat="42.9756500" lon="-0.3145750">
        <ele>1441.2</ele>
        <time>2020-07-27T09:05:44Z</time>
      </trkpt>
      <trkpt lat="42.9757290" lon="-0.3141890">
        <ele>1441.0</ele>
        <time>2020-07-27T09:05:47Z</time>
      </trkpt>
      <trkpt lat="42.9757490" lon="-0.3140510">
        <ele>1441.0</ele>
        <time>2020-07-27T09:05:48Z</time>
      </trkpt>
      <trkpt lat="42.9757800" lon="-0.3136200">
        <ele>1440.6</ele>
        <time>2020-07-27T09:05:51Z</time>
      </trkpt>
      <trkpt lat="42.9757690" lon="-0.3134910">
        <ele>1440.4</ele>
        <time>2020-07-27T09:05:52Z</time>
      </trkpt>
      <trkpt lat="42.9757390" lon="-0.3133620">
        <ele>1440.2</ele>
        <time>2020-07-27T09:05:53Z</time>
      </trkpt>
      <trkpt lat="42.9757050" lon="-0.3132270">
        <ele>1439.6</ele>
        <time>2020-07-27T09:05:54Z</time>
      </trkpt>
      <trkpt lat="42.9756780" lon="-0.3130870">
        <ele>1438.8</ele>
        <time>2020-07-27T09:05:55Z</time>
      </trkpt>
      <trkpt lat="42.9756860" lon="-0.3127980">
        <ele>1436.8</ele>
        <time>2020-07-27T09:05:57Z</time>
      </trkpt>
      <trkpt lat="42.9757880" lon="-0.3125420">
        <ele>1435.2</ele>
        <time>2020-07-27T09:05:59Z</time>
      </trkpt>
      <trkpt lat="42.9758410" lon="-0.3124080">
        <ele>1434.4</ele>
        <time>2020-07-27T09:06:00Z</time>
      </trkpt>
      <trkpt lat="42.9758890" lon="-0.3122700">
        <ele>1433.4</ele>
        <time>2020-07-27T09:06:01Z</time>
      </trkpt>
      <trkpt lat="42.9759620" lon="-0.3119620">
        <ele>1431.6</ele>
        <time>2020-07-27T09:06:03Z</time>
      </trkpt>
      <trkpt lat="42.9760340" lon="-0.3116470">
        <ele>1430.2</ele>
        <time>2020-07-27T09:06:05Z</time>
      </trkpt>
      <trkpt lat="42.9761100" lon="-0.3113060">
        <ele>1429.2</ele>
        <time>2020-07-27T09:06:07Z</time>
      </trkpt>
      <trkpt lat="42.9761450" lon="-0.3111320">
        <ele>1428.6</ele>
        <time>2020-07-27T09:06:08Z</time>
      </trkpt>
      <trkpt lat="42.9761720" lon="-0.3109610">
        <ele>1428.0</ele>
        <time>2020-07-27T09:06:09Z</time>
      </trkpt>
      <trkpt lat="42.9762060" lon="-0.3106480">
        <ele>1425.8</ele>
        <time>2020-07-27T09:06:11Z</time>
      </trkpt>
      <trkpt lat="42.9761980" lon="-0.3105080">
        <ele>1424.6</ele>
        <time>2020-07-27T09:06:12Z</time>
      </trkpt>
      <trkpt lat="42.9761620" lon="-0.3103920">
        <ele>1423.6</ele>
        <time>2020-07-27T09:06:13Z</time>
      </trkpt>
      <trkpt lat="42.9761080" lon="-0.3102950">
        <ele>1422.4</ele>
        <time>2020-07-27T09:06:14Z</time>
      </trkpt>
      <trkpt lat="42.9760320" lon="-0.3102090">
        <ele>1421.4</ele>
        <time>2020-07-27T09:06:15Z</time>
      </trkpt>
      <trkpt lat="42.9759490" lon="-0.3101280">
        <ele>1420.2</ele>
        <time>2020-07-27T09:06:16Z</time>
      </trkpt>
      <trkpt lat="42.9758610" lon="-0.3100390">
        <ele>1419.0</ele>
        <time>2020-07-27T09:06:17Z</time>
      </trkpt>
      <trkpt lat="42.9755980" lon="-0.3096870">
        <ele>1417.8</ele>
        <time>2020-07-27T09:06:20Z</time>
      </trkpt>
      <trkpt lat="42.9755140" lon="-0.3095490">
        <ele>1417.6</ele>
        <time>2020-07-27T09:06:21Z</time>
      </trkpt>
      <trkpt lat="42.9753500" lon="-0.3092680">
        <ele>1416.6</ele>
        <time>2020-07-27T09:06:23Z</time>
      </trkpt>
      <trkpt lat="42.9751620" lon="-0.3090210">
        <ele>1414.6</ele>
        <time>2020-07-27T09:06:25Z</time>
      </trkpt>
      <trkpt lat="42.9749490" lon="-0.3088340">
        <ele>1412.4</ele>
        <time>2020-07-27T09:06:27Z</time>
      </trkpt>
      <trkpt lat="42.9748500" lon="-0.3087280">
        <ele>1411.0</ele>
        <time>2020-07-27T09:06:28Z</time>
      </trkpt>
      <trkpt lat="42.9747630" lon="-0.3085930">
        <ele>1410.0</ele>
        <time>2020-07-27T09:06:29Z</time>
      </trkpt>
      <trkpt lat="42.9746910" lon="-0.3084560">
        <ele>1408.8</ele>
        <time>2020-07-27T09:06:30Z</time>
      </trkpt>
      <trkpt lat="42.9746250" lon="-0.3083170">
        <ele>1407.4</ele>
        <time>2020-07-27T09:06:31Z</time>
      </trkpt>
      <trkpt lat="42.9745690" lon="-0.3081700">
        <ele>1405.8</ele>
        <time>2020-07-27T09:06:32Z</time>
      </trkpt>
      <trkpt lat="42.9745280" lon="-0.3080260">
        <ele>1404.6</ele>
        <time>2020-07-27T09:06:33Z</time>
      </trkpt>
      <trkpt lat="42.9745200" lon="-0.3077270">
        <ele>1403.2</ele>
        <time>2020-07-27T09:06:35Z</time>
      </trkpt>
      <trkpt lat="42.9746030" lon="-0.3074410">
        <ele>1402.6</ele>
        <time>2020-07-27T09:06:37Z</time>
      </trkpt>
      <trkpt lat="42.9746400" lon="-0.3072910">
        <ele>1402.2</ele>
        <time>2020-07-27T09:06:38Z</time>
      </trkpt>
      <trkpt lat="42.9746680" lon="-0.3071320">
        <ele>1402.0</ele>
        <time>2020-07-27T09:06:39Z</time>
      </trkpt>
      <trkpt lat="42.9747340" lon="-0.3066280">
        <ele>1401.2</ele>
        <time>2020-07-27T09:06:42Z</time>
      </trkpt>
      <trkpt lat="42.9747740" lon="-0.3062870">
        <ele>1400.6</ele>
        <time>2020-07-27T09:06:44Z</time>
      </trkpt>
      <trkpt lat="42.9748060" lon="-0.3059540">
        <ele>1399.0</ele>
        <time>2020-07-27T09:06:46Z</time>
      </trkpt>
      <trkpt lat="42.9747950" lon="-0.3058160">
        <ele>1398.4</ele>
        <time>2020-07-27T09:06:47Z</time>
      </trkpt>
      <trkpt lat="42.9747610" lon="-0.3056820">
        <ele>1397.8</ele>
        <time>2020-07-27T09:06:48Z</time>
      </trkpt>
      <trkpt lat="42.9747050" lon="-0.3055620">
        <ele>1397.2</ele>
        <time>2020-07-27T09:06:49Z</time>
      </trkpt>
      <trkpt lat="42.9746310" lon="-0.3054620">
        <ele>1396.4</ele>
        <time>2020-07-27T09:06:50Z</time>
      </trkpt>
      <trkpt lat="42.9744620" lon="-0.3053120">
        <ele>1395.4</ele>
        <time>2020-07-27T09:06:52Z</time>
      </trkpt>
      <trkpt lat="42.9743750" lon="-0.3052440">
        <ele>1395.2</ele>
        <time>2020-07-27T09:06:53Z</time>
      </trkpt>
      <trkpt lat="42.9742050" lon="-0.3050910">
        <ele>1394.8</ele>
        <time>2020-07-27T09:06:55Z</time>
      </trkpt>
      <trkpt lat="42.9741310" lon="-0.3049990">
        <ele>1394.8</ele>
        <time>2020-07-27T09:06:56Z</time>
      </trkpt>
      <trkpt lat="42.9739160" lon="-0.3047160">
        <ele>1394.4</ele>
        <time>2020-07-27T09:06:59Z</time>
      </trkpt>
      <trkpt lat="42.9737540" lon="-0.3046190">
        <ele>1394.0</ele>
        <time>2020-07-27T09:07:01Z</time>
      </trkpt>
      <trkpt lat="42.9734120" lon="-0.3045420">
        <ele>1393.4</ele>
        <time>2020-07-27T09:07:05Z</time>
      </trkpt>
      <trkpt lat="42.9733290" lon="-0.3044940">
        <ele>1393.2</ele>
        <time>2020-07-27T09:07:06Z</time>
      </trkpt>
      <trkpt lat="42.9732430" lon="-0.3044520">
        <ele>1393.0</ele>
        <time>2020-07-27T09:07:07Z</time>
      </trkpt>
      <trkpt lat="42.9730640" lon="-0.3044320">
        <ele>1392.8</ele>
        <time>2020-07-27T09:07:09Z</time>
      </trkpt>
      <trkpt lat="42.9728830" lon="-0.3044390">
        <ele>1392.6</ele>
        <time>2020-07-27T09:07:11Z</time>
      </trkpt>
      <trkpt lat="42.9727120" lon="-0.3043520">
        <ele>1392.4</ele>
        <time>2020-07-27T09:07:13Z</time>
      </trkpt>
      <trkpt lat="42.9725780" lon="-0.3041780">
        <ele>1392.2</ele>
        <time>2020-07-27T09:07:15Z</time>
      </trkpt>
      <trkpt lat="42.9725170" lon="-0.3040840">
        <ele>1391.8</ele>
        <time>2020-07-27T09:07:16Z</time>
      </trkpt>
      <trkpt lat="42.9723950" lon="-0.3038990">
        <ele>1391.4</ele>
        <time>2020-07-27T09:07:18Z</time>
      </trkpt>
      <trkpt lat="42.9722870" lon="-0.3037000">
        <ele>1390.6</ele>
        <time>2020-07-27T09:07:20Z</time>
      </trkpt>
      <trkpt lat="42.9722260" lon="-0.3036070">
        <ele>1390.2</ele>
        <time>2020-07-27T09:07:21Z</time>
      </trkpt>
      <trkpt lat="42.9721580" lon="-0.3035200">
        <ele>1389.6</ele>
        <time>2020-07-27T09:07:22Z</time>
      </trkpt>
      <trkpt lat="42.9720240" lon="-0.3033360">
        <ele>1388.4</ele>
        <time>2020-07-27T09:07:24Z</time>
      </trkpt>
      <trkpt lat="42.9719600" lon="-0.3032290">
        <ele>1388.2</ele>
        <time>2020-07-27T09:07:25Z</time>
      </trkpt>
      <trkpt lat="42.9716270" lon="-0.3026370">
        <ele>1387.6</ele>
        <time>2020-07-27T09:07:30Z</time>
      </trkpt>
      <trkpt lat="42.9714880" lon="-0.3023780">
        <ele>1386.8</ele>
        <time>2020-07-27T09:07:32Z</time>
      </trkpt>
      <trkpt lat="42.9713330" lon="-0.3021320">
        <ele>1385.2</ele>
        <time>2020-07-27T09:07:34Z</time>
      </trkpt>
      <trkpt lat="42.9712490" lon="-0.3020180">
        <ele>1384.0</ele>
        <time>2020-07-27T09:07:35Z</time>
      </trkpt>
      <trkpt lat="42.9711580" lon="-0.3019210">
        <ele>1382.8</ele>
        <time>2020-07-27T09:07:36Z</time>
      </trkpt>
      <trkpt lat="42.9710630" lon="-0.3018380">
        <ele>1381.6</ele>
        <time>2020-07-27T09:07:37Z</time>
      </trkpt>
      <trkpt lat="42.9709660" lon="-0.3017560">
        <ele>1380.6</ele>
        <time>2020-07-27T09:07:38Z</time>
      </trkpt>
      <trkpt lat="42.9708730" lon="-0.3016740">
        <ele>1379.6</ele>
        <time>2020-07-27T09:07:39Z</time>
      </trkpt>
      <trkpt lat="42.9706950" lon="-0.3015110">
        <ele>1377.6</ele>
        <time>2020-07-27T09:07:41Z</time>
      </trkpt>
      <trkpt lat="42.9705200" lon="-0.3013570">
        <ele>1376.4</ele>
        <time>2020-07-27T09:07:43Z</time>
      </trkpt>
      <trkpt lat="42.9703550" lon="-0.3011910">
        <ele>1375.4</ele>
        <time>2020-07-27T09:07:45Z</time>
      </trkpt>
      <trkpt lat="42.9702850" lon="-0.3010880">
        <ele>1375.2</ele>
        <time>2020-07-27T09:07:46Z</time>
      </trkpt>
      <trkpt lat="42.9702280" lon="-0.3009720">
        <ele>1375.0</ele>
        <time>2020-07-27T09:07:47Z</time>
      </trkpt>
      <trkpt lat="42.9701540" lon="-0.3007380">
        <ele>1374.8</ele>
        <time>2020-07-27T09:07:49Z</time>
      </trkpt>
      <trkpt lat="42.9701170" lon="-0.3006590">
        <ele>1374.8</ele>
        <time>2020-07-27T09:07:50Z</time>
      </trkpt>
      <trkpt lat="42.9700060" lon="-0.3005480">
        <ele>1374.6</ele>
        <time>2020-07-27T09:07:52Z</time>
      </trkpt>
      <trkpt lat="42.9698560" lon="-0.3005640">
        <ele>1374.4</ele>
        <time>2020-07-27T09:07:54Z</time>
      </trkpt>
      <trkpt lat="42.9697820" lon="-0.3006090">
        <ele>1373.8</ele>
        <time>2020-07-27T09:07:55Z</time>
      </trkpt>
      <trkpt lat="42.9696360" lon="-0.3007320">
        <ele>1372.8</ele>
        <time>2020-07-27T09:07:57Z</time>
      </trkpt>
      <trkpt lat="42.9695620" lon="-0.3008020">
        <ele>1372.4</ele>
        <time>2020-07-27T09:07:58Z</time>
      </trkpt>
      <trkpt lat="42.9693280" lon="-0.3010120">
        <ele>1371.2</ele>
        <time>2020-07-27T09:08:01Z</time>
      </trkpt>
      <trkpt lat="42.9691640" lon="-0.3011410">
        <ele>1369.2</ele>
        <time>2020-07-27T09:08:03Z</time>
      </trkpt>
      <trkpt lat="42.9690850" lon="-0.3012100">
        <ele>1368.4</ele>
        <time>2020-07-27T09:08:04Z</time>
      </trkpt>
      <trkpt lat="42.9690110" lon="-0.3012890">
        <ele>1367.8</ele>
        <time>2020-07-27T09:08:05Z</time>
      </trkpt>
      <trkpt lat="42.9687390" lon="-0.3016220">
        <ele>1366.4</ele>
        <time>2020-07-27T09:08:09Z</time>
      </trkpt>
      <trkpt lat="42.9686730" lon="-0.3017120">
        <ele>1366.2</ele>
        <time>2020-07-27T09:08:10Z</time>
      </trkpt>
      <trkpt lat="42.9685000" lon="-0.3020000">
        <ele>1365.6</ele>
        <time>2020-07-27T09:08:13Z</time>
      </trkpt>
      <trkpt lat="42.9684300" lon="-0.3020780">
        <ele>1365.2</ele>
        <time>2020-07-27T09:08:14Z</time>
      </trkpt>
      <trkpt lat="42.9683490" lon="-0.3021280">
        <ele>1365.2</ele>
        <time>2020-07-27T09:08:15Z</time>
      </trkpt>
      <trkpt lat="42.9680500" lon="-0.3021340">
        <ele>1364.8</ele>
        <time>2020-07-27T09:08:18Z</time>
      </trkpt>
      <trkpt lat="42.9677590" lon="-0.3022010">
        <ele>1364.6</ele>
        <time>2020-07-27T09:08:21Z</time>
      </trkpt>
      <trkpt lat="42.9675750" lon="-0.3023230">
        <ele>1364.4</ele>
        <time>2020-07-27T09:08:23Z</time>
      </trkpt>
      <trkpt lat="42.9674890" lon="-0.3023990">
        <ele>1363.6</ele>
        <time>2020-07-27T09:08:24Z</time>
      </trkpt>
      <trkpt lat="42.9674010" lon="-0.3024720">
        <ele>1362.6</ele>
        <time>2020-07-27T09:08:25Z</time>
      </trkpt>
      <trkpt lat="42.9673160" lon="-0.3025510">
        <ele>1361.0</ele>
        <time>2020-07-27T09:08:26Z</time>
      </trkpt>
      <trkpt lat="42.9670640" lon="-0.3027640">
        <ele>1359.8</ele>
        <time>2020-07-27T09:08:29Z</time>
      </trkpt>
      <trkpt lat="42.9669820" lon="-0.3028180">
        <ele>1359.2</ele>
        <time>2020-07-27T09:08:30Z</time>
      </trkpt>
      <trkpt lat="42.9667450" lon="-0.3028510">
        <ele>1359.0</ele>
        <time>2020-07-27T09:08:33Z</time>
      </trkpt>
      <trkpt lat="42.9664490" lon="-0.3026170">
        <ele>1358.8</ele>
        <time>2020-07-27T09:08:37Z</time>
      </trkpt>
      <trkpt lat="42.9663450" lon="-0.3024200">
        <ele>1358.6</ele>
        <time>2020-07-27T09:08:39Z</time>
      </trkpt>
      <trkpt lat="42.9661880" lon="-0.3021120">
        <ele>1358.2</ele>
        <time>2020-07-27T09:08:42Z</time>
      </trkpt>
      <trkpt lat="42.9659720" lon="-0.3019170">
        <ele>1358.2</ele>
        <time>2020-07-27T09:08:45Z</time>
      </trkpt>
      <trkpt lat="42.9658090" lon="-0.3019580">
        <ele>1358.2</ele>
        <time>2020-07-27T09:08:47Z</time>
      </trkpt>
      <trkpt lat="42.9657290" lon="-0.3020010">
        <ele>1358.2</ele>
        <time>2020-07-27T09:08:48Z</time>
      </trkpt>
      <trkpt lat="42.9653880" lon="-0.3022100">
        <ele>1357.4</ele>
        <time>2020-07-27T09:08:52Z</time>
      </trkpt>
      <trkpt lat="42.9651120" lon="-0.3024090">
        <ele>1356.0</ele>
        <time>2020-07-27T09:08:55Z</time>
      </trkpt>
      <trkpt lat="42.9649150" lon="-0.3025700">
        <ele>1354.8</ele>
        <time>2020-07-27T09:08:57Z</time>
      </trkpt>
      <trkpt lat="42.9647110" lon="-0.3027390">
        <ele>1353.0</ele>
        <time>2020-07-27T09:08:59Z</time>
      </trkpt>
      <trkpt lat="42.9645010" lon="-0.3029260">
        <ele>1351.4</ele>
        <time>2020-07-27T09:09:01Z</time>
      </trkpt>
      <trkpt lat="42.9644020" lon="-0.3030160">
        <ele>1350.6</ele>
        <time>2020-07-27T09:09:02Z</time>
      </trkpt>
      <trkpt lat="42.9643170" lon="-0.3031170">
        <ele>1349.8</ele>
        <time>2020-07-27T09:09:03Z</time>
      </trkpt>
      <trkpt lat="42.9642330" lon="-0.3032110">
        <ele>1348.8</ele>
        <time>2020-07-27T09:09:04Z</time>
      </trkpt>
      <trkpt lat="42.9641420" lon="-0.3032800">
        <ele>1347.6</ele>
        <time>2020-07-27T09:09:05Z</time>
      </trkpt>
      <trkpt lat="42.9639450" lon="-0.3033400">
        <ele>1346.0</ele>
        <time>2020-07-27T09:09:07Z</time>
      </trkpt>
      <trkpt lat="42.9638530" lon="-0.3033490">
        <ele>1345.2</ele>
        <time>2020-07-27T09:09:08Z</time>
      </trkpt>
      <trkpt lat="42.9637720" lon="-0.3033340">
        <ele>1344.6</ele>
        <time>2020-07-27T09:09:09Z</time>
      </trkpt>
      <trkpt lat="42.9637020" lon="-0.3032820">
        <ele>1344.0</ele>
        <time>2020-07-27T09:09:10Z</time>
      </trkpt>
      <trkpt lat="42.9636040" lon="-0.3030970">
        <ele>1343.6</ele>
        <time>2020-07-27T09:09:12Z</time>
      </trkpt>
      <trkpt lat="42.9635700" lon="-0.3029880">
        <ele>1343.4</ele>
        <time>2020-07-27T09:09:13Z</time>
      </trkpt>
      <trkpt lat="42.9635140" lon="-0.3027500">
        <ele>1343.2</ele>
        <time>2020-07-27T09:09:15Z</time>
      </trkpt>
      <trkpt lat="42.9634380" lon="-0.3023880">
        <ele>1343.0</ele>
        <time>2020-07-27T09:09:18Z</time>
      </trkpt>
      <trkpt lat="42.9633620" lon="-0.3020230">
        <ele>1342.4</ele>
        <time>2020-07-27T09:09:21Z</time>
      </trkpt>
      <trkpt lat="42.9632610" lon="-0.3016600">
        <ele>1342.0</ele>
        <time>2020-07-27T09:09:24Z</time>
      </trkpt>
      <trkpt lat="42.9630500" lon="-0.3010560">
        <ele>1341.2</ele>
        <time>2020-07-27T09:09:29Z</time>
      </trkpt>
      <trkpt lat="42.9628890" lon="-0.3005720">
        <ele>1340.4</ele>
        <time>2020-07-27T09:09:33Z</time>
      </trkpt>
      <trkpt lat="42.9628420" lon="-0.3004570">
        <ele>1340.2</ele>
        <time>2020-07-27T09:09:34Z</time>
      </trkpt>
      <trkpt lat="42.9627230" lon="-0.3000950">
        <ele>1339.0</ele>
        <time>2020-07-27T09:09:37Z</time>
      </trkpt>
      <trkpt lat="42.9626960" lon="-0.2999690">
        <ele>1338.4</ele>
        <time>2020-07-27T09:09:38Z</time>
      </trkpt>
      <trkpt lat="42.9626710" lon="-0.2998410">
        <ele>1337.6</ele>
        <time>2020-07-27T09:09:39Z</time>
      </trkpt>
      <trkpt lat="42.9625810" lon="-0.2994770">
        <ele>1336.4</ele>
        <time>2020-07-27T09:09:42Z</time>
      </trkpt>
      <trkpt lat="42.9625330" lon="-0.2993710">
        <ele>1336.4</ele>
        <time>2020-07-27T09:09:43Z</time>
      </trkpt>
      <trkpt lat="42.9622410" lon="-0.2988670">
        <ele>1335.4</ele>
        <time>2020-07-27T09:09:48Z</time>
      </trkpt>
      <trkpt lat="42.9618970" lon="-0.2982620">
        <ele>1334.8</ele>
        <time>2020-07-27T09:09:54Z</time>
      </trkpt>
      <trkpt lat="42.9618430" lon="-0.2981580">
        <ele>1334.6</ele>
        <time>2020-07-27T09:09:55Z</time>
      </trkpt>
      <trkpt lat="42.9617330" lon="-0.2979560">
        <ele>1334.0</ele>
        <time>2020-07-27T09:09:57Z</time>
      </trkpt>
      <trkpt lat="42.9616640" lon="-0.2978770">
        <ele>1333.6</ele>
        <time>2020-07-27T09:09:58Z</time>
      </trkpt>
      <trkpt lat="42.9615830" lon="-0.2978180">
        <ele>1333.4</ele>
        <time>2020-07-27T09:09:59Z</time>
      </trkpt>
      <trkpt lat="42.9614110" lon="-0.2977230">
        <ele>1332.4</ele>
        <time>2020-07-27T09:10:01Z</time>
      </trkpt>
      <trkpt lat="42.9611690" lon="-0.2975450">
        <ele>1332.0</ele>
        <time>2020-07-27T09:10:04Z</time>
      </trkpt>
      <trkpt lat="42.9609520" lon="-0.2973210">
        <ele>1331.6</ele>
        <time>2020-07-27T09:10:07Z</time>
      </trkpt>
      <trkpt lat="42.9608940" lon="-0.2972270">
        <ele>1331.6</ele>
        <time>2020-07-27T09:10:08Z</time>
      </trkpt>
      <trkpt lat="42.9607480" lon="-0.2969130">
        <ele>1331.2</ele>
        <time>2020-07-27T09:10:11Z</time>
      </trkpt>
      <trkpt lat="42.9607010" lon="-0.2968030">
        <ele>1330.8</ele>
        <time>2020-07-27T09:10:12Z</time>
      </trkpt>
      <trkpt lat="42.9606130" lon="-0.2965810">
        <ele>1330.6</ele>
        <time>2020-07-27T09:10:14Z</time>
      </trkpt>
      <trkpt lat="42.9605220" lon="-0.2963580">
        <ele>1330.4</ele>
        <time>2020-07-27T09:10:16Z</time>
      </trkpt>
      <trkpt lat="42.9603040" lon="-0.2959570">
        <ele>1329.8</ele>
        <time>2020-07-27T09:10:20Z</time>
      </trkpt>
      <trkpt lat="42.9600970" lon="-0.2957470">
        <ele>1329.2</ele>
        <time>2020-07-27T09:10:23Z</time>
      </trkpt>
      <trkpt lat="42.9600270" lon="-0.2956970">
        <ele>1328.8</ele>
        <time>2020-07-27T09:10:24Z</time>
      </trkpt>
      <trkpt lat="42.9600270" lon="-0.2956970">
        <ele>1328.0</ele>
        <time>2020-07-27T09:10:27Z</time>
      </trkpt>
      <trkpt lat="42.9591150" lon="-0.2943010">
        <ele>1327.6</ele>
        <time>2020-07-27T09:10:41Z</time>
      </trkpt>
      <trkpt lat="42.9590970" lon="-0.2942720">
        <ele>1327.6</ele>
        <time>2020-07-27T09:10:42Z</time>
      </trkpt>
      <trkpt lat="42.9589990" lon="-0.2940430">
        <ele>1326.8</ele>
        <time>2020-07-27T09:10:45Z</time>
      </trkpt>
      <trkpt lat="42.9589460" lon="-0.2939730">
        <ele>1326.6</ele>
        <time>2020-07-27T09:10:46Z</time>
      </trkpt>
      <trkpt lat="42.9588370" lon="-0.2938250">
        <ele>1325.6</ele>
        <time>2020-07-27T09:10:48Z</time>
      </trkpt>
      <trkpt lat="42.9587450" lon="-0.2936460">
        <ele>1324.4</ele>
        <time>2020-07-27T09:10:50Z</time>
      </trkpt>
      <trkpt lat="42.9585960" lon="-0.2933730">
        <ele>1323.4</ele>
        <time>2020-07-27T09:10:53Z</time>
      </trkpt>
      <trkpt lat="42.9585330" lon="-0.2932880">
        <ele>1323.2</ele>
        <time>2020-07-27T09:10:54Z</time>
      </trkpt>
      <trkpt lat="42.9584640" lon="-0.2932120">
        <ele>1323.0</ele>
        <time>2020-07-27T09:10:55Z</time>
      </trkpt>
      <trkpt lat="42.9583280" lon="-0.2930660">
        <ele>1322.4</ele>
        <time>2020-07-27T09:10:57Z</time>
      </trkpt>
      <trkpt lat="42.9582810" lon="-0.2929790">
        <ele>1321.8</ele>
        <time>2020-07-27T09:10:58Z</time>
      </trkpt>
      <trkpt lat="42.9582520" lon="-0.2928770">
        <ele>1321.6</ele>
        <time>2020-07-27T09:10:59Z</time>
      </trkpt>
      <trkpt lat="42.9582650" lon="-0.2925370">
        <ele>1321.0</ele>
        <time>2020-07-27T09:11:02Z</time>
      </trkpt>
      <trkpt lat="42.9582770" lon="-0.2924180">
        <ele>1320.8</ele>
        <time>2020-07-27T09:11:03Z</time>
      </trkpt>
      <trkpt lat="42.9582520" lon="-0.2921790">
        <ele>1320.8</ele>
        <time>2020-07-27T09:11:05Z</time>
      </trkpt>
      <trkpt lat="42.9580980" lon="-0.2918090">
        <ele>1320.6</ele>
        <time>2020-07-27T09:11:09Z</time>
      </trkpt>
      <trkpt lat="42.9580560" lon="-0.2916230">
        <ele>1319.8</ele>
        <time>2020-07-27T09:11:11Z</time>
      </trkpt>
      <trkpt lat="42.9580570" lon="-0.2915140">
        <ele>1319.6</ele>
        <time>2020-07-27T09:11:12Z</time>
      </trkpt>
      <trkpt lat="42.9580200" lon="-0.2911830">
        <ele>1319.2</ele>
        <time>2020-07-27T09:11:15Z</time>
      </trkpt>
      <trkpt lat="42.9579140" lon="-0.2910570">
        <ele>1319.2</ele>
        <time>2020-07-27T09:11:17Z</time>
      </trkpt>
      <trkpt lat="42.9577810" lon="-0.2910150">
        <ele>1319.0</ele>
        <time>2020-07-27T09:11:19Z</time>
      </trkpt>
      <trkpt lat="42.9577160" lon="-0.2909860">
        <ele>1319.0</ele>
        <time>2020-07-27T09:11:20Z</time>
      </trkpt>
      <trkpt lat="42.9576550" lon="-0.2909390">
        <ele>1318.8</ele>
        <time>2020-07-27T09:11:21Z</time>
      </trkpt>
      <trkpt lat="42.9574950" lon="-0.2907450">
        <ele>1318.6</ele>
        <time>2020-07-27T09:11:24Z</time>
      </trkpt>
      <trkpt lat="42.9574370" lon="-0.2906830">
        <ele>1318.6</ele>
        <time>2020-07-27T09:11:25Z</time>
      </trkpt>
      <trkpt lat="42.9572120" lon="-0.2905680">
        <ele>1318.6</ele>
        <time>2020-07-27T09:11:29Z</time>
      </trkpt>
      <trkpt lat="42.9569640" lon="-0.2906460">
        <ele>1318.6</ele>
        <time>2020-07-27T09:11:32Z</time>
      </trkpt>
      <trkpt lat="42.9566420" lon="-0.2906860">
        <ele>1318.4</ele>
        <time>2020-07-27T09:11:36Z</time>
      </trkpt>
      <trkpt lat="42.9566420" lon="-0.2906860">
        <ele>1317.8</ele>
        <time>2020-07-27T09:11:43Z</time>
      </trkpt>
      <trkpt lat="42.9558020" lon="-0.2905990">
        <ele>1317.6</ele>
        <time>2020-07-27T09:11:47Z</time>
      </trkpt>
      <trkpt lat="42.9555210" lon="-0.2903930">
        <ele>1317.6</ele>
        <time>2020-07-27T09:11:51Z</time>
      </trkpt>
      <trkpt lat="42.9551970" lon="-0.2900990">
        <ele>1317.4</ele>
        <time>2020-07-27T09:11:56Z</time>
      </trkpt>
      <trkpt lat="42.9549330" lon="-0.2897880">
        <ele>1317.0</ele>
        <time>2020-07-27T09:12:01Z</time>
      </trkpt>
      <trkpt lat="42.9548920" lon="-0.2897080">
        <ele>1316.8</ele>
        <time>2020-07-27T09:12:02Z</time>
      </trkpt>
      <trkpt lat="42.9547990" lon="-0.2893230">
        <ele>1316.0</ele>
        <time>2020-07-27T09:12:06Z</time>
      </trkpt>
      <trkpt lat="42.9546160" lon="-0.2890480">
        <ele>1316.0</ele>
        <time>2020-07-27T09:12:10Z</time>
      </trkpt>
      <trkpt lat="42.9543980" lon="-0.2887880">
        <ele>1315.8</ele>
        <time>2020-07-27T09:12:14Z</time>
      </trkpt>
      <trkpt lat="42.9543620" lon="-0.2887050">
        <ele>1315.8</ele>
        <time>2020-07-27T09:12:15Z</time>
      </trkpt>
      <trkpt lat="42.9543170" lon="-0.2883990">
        <ele>1315.8</ele>
        <time>2020-07-27T09:12:18Z</time>
      </trkpt>
      <trkpt lat="42.9543110" lon="-0.2882930">
        <ele>1315.6</ele>
        <time>2020-07-27T09:12:19Z</time>
      </trkpt>
      <trkpt lat="42.9542070" lon="-0.2877970">
        <ele>1315.2</ele>
        <time>2020-07-27T09:12:24Z</time>
      </trkpt>
      <trkpt lat="42.9539770" lon="-0.2871670">
        <ele>1315.0</ele>
        <time>2020-07-27T09:12:31Z</time>
      </trkpt>
      <trkpt lat="42.9539070" lon="-0.2869830">
        <ele>1315.0</ele>
        <time>2020-07-27T09:12:33Z</time>
      </trkpt>
      <trkpt lat="42.9538890" lon="-0.2867820">
        <ele>1315.0</ele>
        <time>2020-07-27T09:12:35Z</time>
      </trkpt>
      <trkpt lat="42.9539820" lon="-0.2865380">
        <ele>1314.8</ele>
        <time>2020-07-27T09:12:38Z</time>
      </trkpt>
      <trkpt lat="42.9540290" lon="-0.2864570">
        <ele>1314.8</ele>
        <time>2020-07-27T09:12:39Z</time>
      </trkpt>
      <trkpt lat="42.9541190" lon="-0.2862620">
        <ele>1314.8</ele>
        <time>2020-07-27T09:12:41Z</time>
      </trkpt>
      <trkpt lat="42.9541930" lon="-0.2860640">
        <ele>1314.8</ele>
        <time>2020-07-27T09:12:43Z</time>
      </trkpt>
      <trkpt lat="42.9542760" lon="-0.2858750">
        <ele>1314.6</ele>
        <time>2020-07-27T09:12:45Z</time>
      </trkpt>
      <trkpt lat="42.9543240" lon="-0.2857860">
        <ele>1314.4</ele>
        <time>2020-07-27T09:12:46Z</time>
      </trkpt>
      <trkpt lat="42.9544240" lon="-0.2856020">
        <ele>1314.4</ele>
        <time>2020-07-27T09:12:48Z</time>
      </trkpt>
      <trkpt lat="42.9546730" lon="-0.2850370">
        <ele>1313.8</ele>
        <time>2020-07-27T09:12:54Z</time>
      </trkpt>
      <trkpt lat="42.9549050" lon="-0.2846080">
        <ele>1313.6</ele>
        <time>2020-07-27T09:12:59Z</time>
      </trkpt>
      <trkpt lat="42.9549400" lon="-0.2845160">
        <ele>1313.4</ele>
        <time>2020-07-27T09:13:00Z</time>
      </trkpt>
      <trkpt lat="42.9550530" lon="-0.2840350">
        <ele>1313.2</ele>
        <time>2020-07-27T09:13:05Z</time>
      </trkpt>
      <trkpt lat="42.9550610" lon="-0.2839390">
        <ele>1313.0</ele>
        <time>2020-07-27T09:13:06Z</time>
      </trkpt>
      <trkpt lat="42.9550390" lon="-0.2837540">
        <ele>1313.0</ele>
        <time>2020-07-27T09:13:08Z</time>
      </trkpt>
      <trkpt lat="42.9549790" lon="-0.2835850">
        <ele>1312.8</ele>
        <time>2020-07-27T09:13:10Z</time>
      </trkpt>
      <trkpt lat="42.9549500" lon="-0.2835020">
        <ele>1312.8</ele>
        <time>2020-07-27T09:13:11Z</time>
      </trkpt>
      <trkpt lat="42.9549300" lon="-0.2834130">
        <ele>1312.8</ele>
        <time>2020-07-27T09:13:12Z</time>
      </trkpt>
      <trkpt lat="42.9549290" lon="-0.2830580">
        <ele>1312.8</ele>
        <time>2020-07-27T09:13:16Z</time>
      </trkpt>
      <trkpt lat="42.9549580" lon="-0.2826630">
        <ele>1313.2</ele>
        <time>2020-07-27T09:13:21Z</time>
      </trkpt>
      <trkpt lat="42.9549760" lon="-0.2823550">
        <ele>1314.0</ele>
        <time>2020-07-27T09:13:26Z</time>
      </trkpt>
      <trkpt lat="42.9549960" lon="-0.2821850">
        <ele>1314.6</ele>
        <time>2020-07-27T09:13:30Z</time>
      </trkpt>
      <trkpt lat="42.9550010" lon="-0.2821510">
        <ele>1314.8</ele>
        <time>2020-07-27T09:13:31Z</time>
      </trkpt>
      <trkpt lat="42.9550180" lon="-0.2820820">
        <ele>1315.8</ele>
        <time>2020-07-27T09:13:33Z</time>
      </trkpt>
      <trkpt lat="42.9550190" lon="-0.2819620">
        <ele>1316.8</ele>
        <time>2020-07-27T09:13:36Z</time>
      </trkpt>
      <trkpt lat="42.9550230" lon="-0.2819190">
        <ele>1317.2</ele>
        <time>2020-07-27T09:13:37Z</time>
      </trkpt>
      <trkpt lat="42.9550440" lon="-0.2817910">
        <ele>1318.2</ele>
        <time>2020-07-27T09:13:40Z</time>
      </trkpt>
      <trkpt lat="42.9550290" lon="-0.2816310">
        <ele>1319.0</ele>
        <time>2020-07-27T09:13:44Z</time>
      </trkpt>
      <trkpt lat="42.9550190" lon="-0.2815900">
        <ele>1319.4</ele>
        <time>2020-07-27T09:13:45Z</time>
      </trkpt>
      <trkpt lat="42.9549640" lon="-0.2813960">
        <ele>1320.6</ele>
        <time>2020-07-27T09:13:50Z</time>
      </trkpt>
      <trkpt lat="42.9549540" lon="-0.2813570">
        <ele>1320.8</ele>
        <time>2020-07-27T09:13:51Z</time>
      </trkpt>
      <trkpt lat="42.9549270" lon="-0.2812320">
        <ele>1321.8</ele>
        <time>2020-07-27T09:13:54Z</time>
      </trkpt>
      <trkpt lat="42.9549180" lon="-0.2811010">
        <ele>1322.8</ele>
        <time>2020-07-27T09:13:57Z</time>
      </trkpt>
      <trkpt lat="42.9549230" lon="-0.2810600">
        <ele>1323.0</ele>
        <time>2020-07-27T09:13:58Z</time>
      </trkpt>
      <trkpt lat="42.9549650" lon="-0.2809050">
        <ele>1324.0</ele>
        <time>2020-07-27T09:14:02Z</time>
      </trkpt>
      <trkpt lat="42.9549900" lon="-0.2808370">
        <ele>1324.4</ele>
        <time>2020-07-27T09:14:04Z</time>
      </trkpt>
      <trkpt lat="42.9550510" lon="-0.2806980">
        <ele>1325.0</ele>
        <time>2020-07-27T09:14:08Z</time>
      </trkpt>
      <trkpt lat="42.9551130" lon="-0.2805780">
        <ele>1326.4</ele>
        <time>2020-07-27T09:14:12Z</time>
      </trkpt>
      <trkpt lat="42.9551840" lon="-0.2804350">
        <ele>1327.4</ele>
        <time>2020-07-27T09:14:17Z</time>
      </trkpt>
      <trkpt lat="42.9551910" lon="-0.2804010">
        <ele>1327.6</ele>
        <time>2020-07-27T09:14:18Z</time>
      </trkpt>
      <trkpt lat="42.9552150" lon="-0.2802550">
        <ele>1328.6</ele>
        <time>2020-07-27T09:14:22Z</time>
      </trkpt>
      <trkpt lat="42.9552270" lon="-0.2801770">
        <ele>1329.4</ele>
        <time>2020-07-27T09:14:24Z</time>
      </trkpt>
      <trkpt lat="42.9552340" lon="-0.2801440">
        <ele>1329.6</ele>
        <time>2020-07-27T09:14:25Z</time>
      </trkpt>
      <trkpt lat="42.9552600" lon="-0.2800090">
        <ele>1330.8</ele>
        <time>2020-07-27T09:14:29Z</time>
      </trkpt>
      <trkpt lat="42.9552790" lon="-0.2799170">
        <ele>1331.8</ele>
        <time>2020-07-27T09:14:32Z</time>
      </trkpt>
      <trkpt lat="42.9552940" lon="-0.2798570">
        <ele>1331.8</ele>
        <time>2020-07-27T09:14:34Z</time>
      </trkpt>
      <trkpt lat="42.9553170" lon="-0.2797400">
        <ele>1333.0</ele>
        <time>2020-07-27T09:14:38Z</time>
      </trkpt>
      <trkpt lat="42.9553220" lon="-0.2797100">
        <ele>1333.2</ele>
        <time>2020-07-27T09:14:39Z</time>
      </trkpt>
      <trkpt lat="42.9553450" lon="-0.2795490">
        <ele>1334.2</ele>
        <time>2020-07-27T09:14:44Z</time>
      </trkpt>
      <trkpt lat="42.9553570" lon="-0.2794850">
        <ele>1334.6</ele>
        <time>2020-07-27T09:14:46Z</time>
      </trkpt>
      <trkpt lat="42.9553710" lon="-0.2793350">
        <ele>1335.2</ele>
        <time>2020-07-27T09:14:51Z</time>
      </trkpt>
      <trkpt lat="42.9553720" lon="-0.2793030">
        <ele>1335.4</ele>
        <time>2020-07-27T09:14:52Z</time>
      </trkpt>
      <trkpt lat="42.9553740" lon="-0.2791790">
        <ele>1336.4</ele>
        <time>2020-07-27T09:14:56Z</time>
      </trkpt>
      <trkpt lat="42.9553830" lon="-0.2790390">
        <ele>1337.2</ele>
        <time>2020-07-27T09:15:00Z</time>
      </trkpt>
      <trkpt lat="42.9553860" lon="-0.2789660">
        <ele>1337.4</ele>
        <time>2020-07-27T09:15:02Z</time>
      </trkpt>
      <trkpt lat="42.9553990" lon="-0.2787800">
        <ele>1338.0</ele>
        <time>2020-07-27T09:15:07Z</time>
      </trkpt>
      <trkpt lat="42.9554050" lon="-0.2786720">
        <ele>1338.4</ele>
        <time>2020-07-27T09:15:10Z</time>
      </trkpt>
      <trkpt lat="42.9554200" lon="-0.2785300">
        <ele>1339.6</ele>
        <time>2020-07-27T09:15:14Z</time>
      </trkpt>
      <trkpt lat="42.9554270" lon="-0.2784610">
        <ele>1340.0</ele>
        <time>2020-07-27T09:15:16Z</time>
      </trkpt>
      <trkpt lat="42.9554360" lon="-0.2783570">
        <ele>1340.6</ele>
        <time>2020-07-27T09:15:19Z</time>
      </trkpt>
      <trkpt lat="42.9554360" lon="-0.2781490">
        <ele>1341.6</ele>
        <time>2020-07-27T09:15:25Z</time>
      </trkpt>
      <trkpt lat="42.9554350" lon="-0.2781150">
        <ele>1341.8</ele>
        <time>2020-07-27T09:15:26Z</time>
      </trkpt>
      <trkpt lat="42.9554190" lon="-0.2779440">
        <ele>1343.0</ele>
        <time>2020-07-27T09:15:31Z</time>
      </trkpt>
      <trkpt lat="42.9553970" lon="-0.2778440">
        <ele>1343.4</ele>
        <time>2020-07-27T09:15:34Z</time>
      </trkpt>
      <trkpt lat="42.9553750" lon="-0.2777090">
        <ele>1344.2</ele>
        <time>2020-07-27T09:15:38Z</time>
      </trkpt>
      <trkpt lat="42.9553530" lon="-0.2775370">
        <ele>1345.2</ele>
        <time>2020-07-27T09:15:43Z</time>
      </trkpt>
      <trkpt lat="42.9553580" lon="-0.2773740">
        <ele>1346.4</ele>
        <time>2020-07-27T09:15:48Z</time>
      </trkpt>
      <trkpt lat="42.9553830" lon="-0.2772700">
        <ele>1347.0</ele>
        <time>2020-07-27T09:15:51Z</time>
      </trkpt>
      <trkpt lat="42.9554120" lon="-0.2772050">
        <ele>1347.4</ele>
        <time>2020-07-27T09:15:53Z</time>
      </trkpt>
      <trkpt lat="42.9554740" lon="-0.2770990">
        <ele>1348.4</ele>
        <time>2020-07-27T09:15:57Z</time>
      </trkpt>
      <trkpt lat="42.9554910" lon="-0.2770800">
        <ele>1348.6</ele>
        <time>2020-07-27T09:15:58Z</time>
      </trkpt>
      <trkpt lat="42.9555680" lon="-0.2769980">
        <ele>1349.8</ele>
        <time>2020-07-27T09:16:02Z</time>
      </trkpt>
      <trkpt lat="42.9555960" lon="-0.2769550">
        <ele>1350.2</ele>
        <time>2020-07-27T09:16:04Z</time>
      </trkpt>
      <trkpt lat="42.9556500" lon="-0.2768970">
        <ele>1350.8</ele>
        <time>2020-07-27T09:16:07Z</time>
      </trkpt>
      <trkpt lat="42.9556860" lon="-0.2768610">
        <ele>1351.2</ele>
        <time>2020-07-27T09:16:09Z</time>
      </trkpt>
      <trkpt lat="42.9557570" lon="-0.2768010">
        <ele>1351.8</ele>
        <time>2020-07-27T09:16:12Z</time>
      </trkpt>
      <trkpt lat="42.9558510" lon="-0.2767090">
        <ele>1352.6</ele>
        <time>2020-07-27T09:16:16Z</time>
      </trkpt>
      <trkpt lat="42.9558950" lon="-0.2766540">
        <ele>1353.2</ele>
        <time>2020-07-27T09:16:18Z</time>
      </trkpt>
      <trkpt lat="42.9559380" lon="-0.2766080">
        <ele>1353.6</ele>
        <time>2020-07-27T09:16:20Z</time>
      </trkpt>
      <trkpt lat="42.9560150" lon="-0.2765490">
        <ele>1354.4</ele>
        <time>2020-07-27T09:16:23Z</time>
      </trkpt>
      <trkpt lat="42.9560860" lon="-0.2764820">
        <ele>1355.0</ele>
        <time>2020-07-27T09:16:26Z</time>
      </trkpt>
      <trkpt lat="42.9561330" lon="-0.2764470">
        <ele>1355.6</ele>
        <time>2020-07-27T09:16:28Z</time>
      </trkpt>
      <trkpt lat="42.9562390" lon="-0.2763680">
        <ele>1356.6</ele>
        <time>2020-07-27T09:16:33Z</time>
      </trkpt>
      <trkpt lat="42.9562620" lon="-0.2763540">
        <ele>1356.8</ele>
        <time>2020-07-27T09:16:34Z</time>
      </trkpt>
      <trkpt lat="42.9563540" lon="-0.2762930">
        <ele>1357.6</ele>
        <time>2020-07-27T09:16:38Z</time>
      </trkpt>
      <trkpt lat="42.9564190" lon="-0.2762520">
        <ele>1358.2</ele>
        <time>2020-07-27T09:16:41Z</time>
      </trkpt>
      <trkpt lat="42.9564580" lon="-0.2762340">
        <ele>1358.8</ele>
        <time>2020-07-27T09:16:43Z</time>
      </trkpt>
      <trkpt lat="42.9565550" lon="-0.2762080">
        <ele>1359.6</ele>
        <time>2020-07-27T09:16:47Z</time>
      </trkpt>
      <trkpt lat="42.9565780" lon="-0.2762090">
        <ele>1359.8</ele>
        <time>2020-07-27T09:16:48Z</time>
      </trkpt>
      <trkpt lat="42.9566800" lon="-0.2762350">
        <ele>1361.0</ele>
        <time>2020-07-27T09:16:52Z</time>
      </trkpt>
      <trkpt lat="42.9567090" lon="-0.2762390">
        <ele>1361.4</ele>
        <time>2020-07-27T09:16:53Z</time>
      </trkpt>
      <trkpt lat="42.9567650" lon="-0.2762580">
        <ele>1362.0</ele>
        <time>2020-07-27T09:16:55Z</time>
      </trkpt>
      <trkpt lat="42.9568720" lon="-0.2762890">
        <ele>1363.2</ele>
        <time>2020-07-27T09:16:59Z</time>
      </trkpt>
      <trkpt lat="42.9568980" lon="-0.2762940">
        <ele>1363.4</ele>
        <time>2020-07-27T09:17:00Z</time>
      </trkpt>
      <trkpt lat="42.9569780" lon="-0.2763030">
        <ele>1364.4</ele>
        <time>2020-07-27T09:17:03Z</time>
      </trkpt>
      <trkpt lat="42.9571540" lon="-0.2763250">
        <ele>1365.6</ele>
        <time>2020-07-27T09:17:10Z</time>
      </trkpt>
      <trkpt lat="42.9573140" lon="-0.2763660">
        <ele>1366.8</ele>
        <time>2020-07-27T09:17:16Z</time>
      </trkpt>
      <trkpt lat="42.9573400" lon="-0.2763790">
        <ele>1366.8</ele>
        <time>2020-07-27T09:17:17Z</time>
      </trkpt>
      <trkpt lat="42.9574520" lon="-0.2764490">
        <ele>1367.8</ele>
        <time>2020-07-27T09:17:22Z</time>
      </trkpt>
      <trkpt lat="42.9575480" lon="-0.2765060">
        <ele>1368.6</ele>
        <time>2020-07-27T09:17:26Z</time>
      </trkpt>
      <trkpt lat="42.9575730" lon="-0.2765190">
        <ele>1368.8</ele>
        <time>2020-07-27T09:17:27Z</time>
      </trkpt>
      <trkpt lat="42.9576960" lon="-0.2765770">
        <ele>1370.2</ele>
        <time>2020-07-27T09:17:32Z</time>
      </trkpt>
      <trkpt lat="42.9577510" lon="-0.2765750">
        <ele>1370.2</ele>
        <time>2020-07-27T09:17:34Z</time>
      </trkpt>
      <trkpt lat="42.9578640" lon="-0.2764770">
        <ele>1370.8</ele>
        <time>2020-07-27T09:17:39Z</time>
      </trkpt>
      <trkpt lat="42.9578820" lon="-0.2764480">
        <ele>1371.2</ele>
        <time>2020-07-27T09:17:40Z</time>
      </trkpt>
      <trkpt lat="42.9579310" lon="-0.2763210">
        <ele>1372.4</ele>
        <time>2020-07-27T09:17:44Z</time>
      </trkpt>
      <trkpt lat="42.9579460" lon="-0.2762530">
        <ele>1372.8</ele>
        <time>2020-07-27T09:17:46Z</time>
      </trkpt>
      <trkpt lat="42.9579760" lon="-0.2761520">
        <ele>1373.4</ele>
        <time>2020-07-27T09:17:49Z</time>
      </trkpt>
      <trkpt lat="42.9580100" lon="-0.2760220">
        <ele>1374.6</ele>
        <time>2020-07-27T09:17:53Z</time>
      </trkpt>
      <trkpt lat="42.9580190" lon="-0.2759880">
        <ele>1375.0</ele>
        <time>2020-07-27T09:17:54Z</time>
      </trkpt>
      <trkpt lat="42.9580720" lon="-0.2758220">
        <ele>1376.0</ele>
        <time>2020-07-27T09:17:59Z</time>
      </trkpt>
      <trkpt lat="42.9580810" lon="-0.2757910">
        <ele>1376.2</ele>
        <time>2020-07-27T09:18:00Z</time>
      </trkpt>
      <trkpt lat="42.9581110" lon="-0.2756380">
        <ele>1377.2</ele>
        <time>2020-07-27T09:18:05Z</time>
      </trkpt>
      <trkpt lat="42.9581310" lon="-0.2755480">
        <ele>1377.6</ele>
        <time>2020-07-27T09:18:08Z</time>
      </trkpt>
      <trkpt lat="42.9581520" lon="-0.2754500">
        <ele>1378.4</ele>
        <time>2020-07-27T09:18:11Z</time>
      </trkpt>
      <trkpt lat="42.9581750" lon="-0.2753080">
        <ele>1379.4</ele>
        <time>2020-07-27T09:18:15Z</time>
      </trkpt>
      <trkpt lat="42.9581870" lon="-0.2752380">
        <ele>1379.8</ele>
        <time>2020-07-27T09:18:17Z</time>
      </trkpt>
      <trkpt lat="42.9582240" lon="-0.2750050">
        <ele>1381.0</ele>
        <time>2020-07-27T09:18:23Z</time>
      </trkpt>
      <trkpt lat="42.9583100" lon="-0.2747710">
        <ele>1382.2</ele>
        <time>2020-07-27T09:18:29Z</time>
      </trkpt>
      <trkpt lat="42.9584050" lon="-0.2745660">
        <ele>1382.6</ele>
        <time>2020-07-27T09:18:35Z</time>
      </trkpt>
      <trkpt lat="42.9584390" lon="-0.2744520">
        <ele>1383.2</ele>
        <time>2020-07-27T09:18:38Z</time>
      </trkpt>
      <trkpt lat="42.9584400" lon="-0.2743240">
        <ele>1384.0</ele>
        <time>2020-07-27T09:18:41Z</time>
      </trkpt>
      <trkpt lat="42.9584270" lon="-0.2742300">
        <ele>1384.4</ele>
        <time>2020-07-27T09:18:43Z</time>
      </trkpt>
      <trkpt lat="42.9583570" lon="-0.2740400">
        <ele>1385.2</ele>
        <time>2020-07-27T09:18:47Z</time>
      </trkpt>
      <trkpt lat="42.9583130" lon="-0.2739480">
        <ele>1385.4</ele>
        <time>2020-07-27T09:18:49Z</time>
      </trkpt>
      <trkpt lat="42.9582100" lon="-0.2736650">
        <ele>1385.6</ele>
        <time>2020-07-27T09:18:55Z</time>
      </trkpt>
      <trkpt lat="42.9581240" lon="-0.2733400">
        <ele>1386.4</ele>
        <time>2020-07-27T09:19:02Z</time>
      </trkpt>
      <trkpt lat="42.9581080" lon="-0.2732430">
        <ele>1386.8</ele>
        <time>2020-07-27T09:19:04Z</time>
      </trkpt>
      <trkpt lat="42.9580920" lon="-0.2730870">
        <ele>1387.6</ele>
        <time>2020-07-27T09:19:07Z</time>
      </trkpt>
      <trkpt lat="42.9580760" lon="-0.2728620">
        <ele>1388.0</ele>
        <time>2020-07-27T09:19:11Z</time>
      </trkpt>
      <trkpt lat="42.9580840" lon="-0.2727430">
        <ele>1388.2</ele>
        <time>2020-07-27T09:19:13Z</time>
      </trkpt>
      <trkpt lat="42.9581380" lon="-0.2725110">
        <ele>1388.2</ele>
        <time>2020-07-27T09:19:17Z</time>
      </trkpt>
      <trkpt lat="42.9582600" lon="-0.2720900">
        <ele>1388.6</ele>
        <time>2020-07-27T09:19:24Z</time>
      </trkpt>
      <trkpt lat="42.9582770" lon="-0.2720290">
        <ele>1388.6</ele>
        <time>2020-07-27T09:19:25Z</time>
      </trkpt>
      <trkpt lat="42.9583640" lon="-0.2716110">
        <ele>1388.6</ele>
        <time>2020-07-27T09:19:31Z</time>
      </trkpt>
      <trkpt lat="42.9583320" lon="-0.2711290">
        <ele>1388.6</ele>
        <time>2020-07-27T09:19:37Z</time>
      </trkpt>
      <trkpt lat="42.9582900" lon="-0.2706850">
        <ele>1388.6</ele>
        <time>2020-07-27T09:19:43Z</time>
      </trkpt>
      <trkpt lat="42.9583570" lon="-0.2704110">
        <ele>1388.6</ele>
        <time>2020-07-27T09:19:47Z</time>
      </trkpt>
      <trkpt lat="42.9584230" lon="-0.2702960">
        <ele>1388.8</ele>
        <time>2020-07-27T09:19:49Z</time>
      </trkpt>
      <trkpt lat="42.9585560" lon="-0.2700880">
        <ele>1388.8</ele>
        <time>2020-07-27T09:19:53Z</time>
      </trkpt>
      <trkpt lat="42.9587180" lon="-0.2696750">
        <ele>1389.4</ele>
        <time>2020-07-27T09:20:00Z</time>
      </trkpt>
      <trkpt lat="42.9587340" lon="-0.2696130">
        <ele>1389.6</ele>
        <time>2020-07-27T09:20:01Z</time>
      </trkpt>
      <trkpt lat="42.9588010" lon="-0.2693690">
        <ele>1390.0</ele>
        <time>2020-07-27T09:20:05Z</time>
      </trkpt>
      <trkpt lat="42.9588250" lon="-0.2693130">
        <ele>1390.0</ele>
        <time>2020-07-27T09:20:06Z</time>
      </trkpt>
      <trkpt lat="42.9588820" lon="-0.2692100">
        <ele>1390.4</ele>
        <time>2020-07-27T09:20:08Z</time>
      </trkpt>
      <trkpt lat="42.9589160" lon="-0.2691600">
        <ele>1390.6</ele>
        <time>2020-07-27T09:20:09Z</time>
      </trkpt>
      <trkpt lat="42.9589560" lon="-0.2691090">
        <ele>1390.8</ele>
        <time>2020-07-27T09:20:10Z</time>
      </trkpt>
      <trkpt lat="42.9590940" lon="-0.2689310">
        <ele>1390.8</ele>
        <time>2020-07-27T09:20:13Z</time>
      </trkpt>
      <trkpt lat="42.9592410" lon="-0.2686830">
        <ele>1391.0</ele>
        <time>2020-07-27T09:20:17Z</time>
      </trkpt>
      <trkpt lat="42.9593490" lon="-0.2684400">
        <ele>1391.6</ele>
        <time>2020-07-27T09:20:22Z</time>
      </trkpt>
      <trkpt lat="42.9593660" lon="-0.2683860">
        <ele>1391.6</ele>
        <time>2020-07-27T09:20:23Z</time>
      </trkpt>
      <trkpt lat="42.9593910" lon="-0.2682720">
        <ele>1391.8</ele>
        <time>2020-07-27T09:20:25Z</time>
      </trkpt>
      <trkpt lat="42.9594160" lon="-0.2680280">
        <ele>1392.6</ele>
        <time>2020-07-27T09:20:29Z</time>
      </trkpt>
      <trkpt lat="42.9594540" lon="-0.2676050">
        <ele>1393.2</ele>
        <time>2020-07-27T09:20:36Z</time>
      </trkpt>
      <trkpt lat="42.9595610" lon="-0.2670570">
        <ele>1393.6</ele>
        <time>2020-07-27T09:20:45Z</time>
      </trkpt>
      <trkpt lat="42.9595810" lon="-0.2669360">
        <ele>1393.6</ele>
        <time>2020-07-27T09:20:47Z</time>
      </trkpt>
      <trkpt lat="42.9596640" lon="-0.2665190">
        <ele>1394.4</ele>
        <time>2020-07-27T09:20:54Z</time>
      </trkpt>
      <trkpt lat="42.9596870" lon="-0.2664060">
        <ele>1394.8</ele>
        <time>2020-07-27T09:20:56Z</time>
      </trkpt>
      <trkpt lat="42.9597890" lon="-0.2658970">
        <ele>1395.4</ele>
        <time>2020-07-27T09:21:05Z</time>
      </trkpt>
      <trkpt lat="42.9598300" lon="-0.2656940">
        <ele>1395.8</ele>
        <time>2020-07-27T09:21:09Z</time>
      </trkpt>
      <trkpt lat="42.9598770" lon="-0.2654590">
        <ele>1396.4</ele>
        <time>2020-07-27T09:21:14Z</time>
      </trkpt>
      <trkpt lat="42.9598920" lon="-0.2653660">
        <ele>1397.0</ele>
        <time>2020-07-27T09:21:16Z</time>
      </trkpt>
      <trkpt lat="42.9599150" lon="-0.2651440">
        <ele>1398.2</ele>
        <time>2020-07-27T09:21:21Z</time>
      </trkpt>
      <trkpt lat="42.9599270" lon="-0.2649770">
        <ele>1399.2</ele>
        <time>2020-07-27T09:21:25Z</time>
      </trkpt>
      <trkpt lat="42.9599410" lon="-0.2648970">
        <ele>1399.6</ele>
        <time>2020-07-27T09:21:27Z</time>
      </trkpt>
      <trkpt lat="42.9599640" lon="-0.2648260">
        <ele>1400.4</ele>
        <time>2020-07-27T09:21:29Z</time>
      </trkpt>
      <trkpt lat="42.9600330" lon="-0.2646910">
        <ele>1401.8</ele>
        <time>2020-07-27T09:21:33Z</time>
      </trkpt>
      <trkpt lat="42.9601170" lon="-0.2645340">
        <ele>1403.0</ele>
        <time>2020-07-27T09:21:38Z</time>
      </trkpt>
      <trkpt lat="42.9601640" lon="-0.2644400">
        <ele>1403.6</ele>
        <time>2020-07-27T09:21:41Z</time>
      </trkpt>
      <trkpt lat="42.9601940" lon="-0.2643790">
        <ele>1404.0</ele>
        <time>2020-07-27T09:21:43Z</time>
      </trkpt>
      <trkpt lat="42.9602600" lon="-0.2642200">
        <ele>1405.0</ele>
        <time>2020-07-27T09:21:48Z</time>
      </trkpt>
      <trkpt lat="42.9602710" lon="-0.2641900">
        <ele>1405.2</ele>
        <time>2020-07-27T09:21:49Z</time>
      </trkpt>
      <trkpt lat="42.9603500" lon="-0.2639800">
        <ele>1406.2</ele>
        <time>2020-07-27T09:21:55Z</time>
      </trkpt>
      <trkpt lat="42.9603760" lon="-0.2639070">
        <ele>1406.8</ele>
        <time>2020-07-27T09:21:57Z</time>
      </trkpt>
      <trkpt lat="42.9604100" lon="-0.2637980">
        <ele>1407.2</ele>
        <time>2020-07-27T09:22:00Z</time>
      </trkpt>
      <trkpt lat="42.9604460" lon="-0.2636500">
        <ele>1408.0</ele>
        <time>2020-07-27T09:22:04Z</time>
      </trkpt>
      <trkpt lat="42.9604540" lon="-0.2636140">
        <ele>1408.2</ele>
        <time>2020-07-27T09:22:05Z</time>
      </trkpt>
      <trkpt lat="42.9604910" lon="-0.2634000">
        <ele>1409.4</ele>
        <time>2020-07-27T09:22:11Z</time>
      </trkpt>
      <trkpt lat="42.9605000" lon="-0.2633310">
        <ele>1409.8</ele>
        <time>2020-07-27T09:22:13Z</time>
      </trkpt>
      <trkpt lat="42.9605180" lon="-0.2632230">
        <ele>1410.4</ele>
        <time>2020-07-27T09:22:16Z</time>
      </trkpt>
      <trkpt lat="42.9605400" lon="-0.2630440">
        <ele>1411.4</ele>
        <time>2020-07-27T09:22:21Z</time>
      </trkpt>
      <trkpt lat="42.9605440" lon="-0.2630080">
        <ele>1411.6</ele>
        <time>2020-07-27T09:22:22Z</time>
      </trkpt>
      <trkpt lat="42.9605690" lon="-0.2628290">
        <ele>1412.8</ele>
        <time>2020-07-27T09:22:27Z</time>
      </trkpt>
      <trkpt lat="42.9605910" lon="-0.2626450">
        <ele>1413.6</ele>
        <time>2020-07-27T09:22:32Z</time>
      </trkpt>
      <trkpt lat="42.9605950" lon="-0.2626070">
        <ele>1413.8</ele>
        <time>2020-07-27T09:22:33Z</time>
      </trkpt>
      <trkpt lat="42.9606130" lon="-0.2623300">
        <ele>1415.0</ele>
        <time>2020-07-27T09:22:40Z</time>
      </trkpt>
      <trkpt lat="42.9606180" lon="-0.2622910">
        <ele>1415.2</ele>
        <time>2020-07-27T09:22:41Z</time>
      </trkpt>
      <trkpt lat="42.9606370" lon="-0.2621080">
        <ele>1416.0</ele>
        <time>2020-07-27T09:22:46Z</time>
      </trkpt>
      <trkpt lat="42.9606420" lon="-0.2620310">
        <ele>1416.4</ele>
        <time>2020-07-27T09:22:48Z</time>
      </trkpt>
      <trkpt lat="42.9606570" lon="-0.2618880">
        <ele>1417.2</ele>
        <time>2020-07-27T09:22:52Z</time>
      </trkpt>
      <trkpt lat="42.9606610" lon="-0.2617370">
        <ele>1418.4</ele>
        <time>2020-07-27T09:22:56Z</time>
      </trkpt>
      <trkpt lat="42.9606620" lon="-0.2615880">
        <ele>1419.6</ele>
        <time>2020-07-27T09:23:00Z</time>
      </trkpt>
      <trkpt lat="42.9606590" lon="-0.2614310">
        <ele>1420.6</ele>
        <time>2020-07-27T09:23:04Z</time>
      </trkpt>
      <trkpt lat="42.9606540" lon="-0.2613510">
        <ele>1421.2</ele>
        <time>2020-07-27T09:23:06Z</time>
      </trkpt>
      <trkpt lat="42.9606430" lon="-0.2612350">
        <ele>1421.6</ele>
        <time>2020-07-27T09:23:09Z</time>
      </trkpt>
      <trkpt lat="42.9606340" lon="-0.2611700">
        <ele>1422.0</ele>
        <time>2020-07-27T09:23:11Z</time>
      </trkpt>
      <trkpt lat="42.9606100" lon="-0.2608960">
        <ele>1423.2</ele>
        <time>2020-07-27T09:24:41Z</time>
      </trkpt>
      <trkpt lat="42.9606140" lon="-0.2608650">
        <ele>1423.2</ele>
        <time>2020-07-27T09:24:42Z</time>
      </trkpt>
      <trkpt lat="42.9606310" lon="-0.2606300">
        <ele>1423.4</ele>
        <time>2020-07-27T09:24:46Z</time>
      </trkpt>
      <trkpt lat="42.9606300" lon="-0.2603540">
        <ele>1423.2</ele>
        <time>2020-07-27T09:24:49Z</time>
      </trkpt>
      <trkpt lat="42.9606010" lon="-0.2602530">
        <ele>1423.2</ele>
        <time>2020-07-27T09:24:50Z</time>
      </trkpt>
      <trkpt lat="42.9604570" lon="-0.2599590">
        <ele>1422.4</ele>
        <time>2020-07-27T09:24:53Z</time>
      </trkpt>
      <trkpt lat="42.9604180" lon="-0.2598500">
        <ele>1421.6</ele>
        <time>2020-07-27T09:24:54Z</time>
      </trkpt>
      <trkpt lat="42.9603910" lon="-0.2597260">
        <ele>1420.6</ele>
        <time>2020-07-27T09:24:55Z</time>
      </trkpt>
      <trkpt lat="42.9603710" lon="-0.2594490">
        <ele>1419.2</ele>
        <time>2020-07-27T09:24:57Z</time>
      </trkpt>
      <trkpt lat="42.9604110" lon="-0.2591600">
        <ele>1417.4</ele>
        <time>2020-07-27T09:24:59Z</time>
      </trkpt>
      <trkpt lat="42.9604490" lon="-0.2590100">
        <ele>1416.2</ele>
        <time>2020-07-27T09:25:00Z</time>
      </trkpt>
      <trkpt lat="42.9605450" lon="-0.2586970">
        <ele>1414.6</ele>
        <time>2020-07-27T09:25:02Z</time>
      </trkpt>
      <trkpt lat="42.9606340" lon="-0.2583620">
        <ele>1413.2</ele>
        <time>2020-07-27T09:25:04Z</time>
      </trkpt>
      <trkpt lat="42.9607130" lon="-0.2580130">
        <ele>1411.4</ele>
        <time>2020-07-27T09:25:06Z</time>
      </trkpt>
      <trkpt lat="42.9607540" lon="-0.2578320">
        <ele>1410.4</ele>
        <time>2020-07-27T09:25:07Z</time>
      </trkpt>
      <trkpt lat="42.9607900" lon="-0.2576460">
        <ele>1409.2</ele>
        <time>2020-07-27T09:25:08Z</time>
      </trkpt>
      <trkpt lat="42.9608140" lon="-0.2574550">
        <ele>1407.8</ele>
        <time>2020-07-27T09:25:09Z</time>
      </trkpt>
      <trkpt lat="42.9608270" lon="-0.2572650">
        <ele>1406.2</ele>
        <time>2020-07-27T09:25:10Z</time>
      </trkpt>
      <trkpt lat="42.9608350" lon="-0.2570800">
        <ele>1404.8</ele>
        <time>2020-07-27T09:25:11Z</time>
      </trkpt>
      <trkpt lat="42.9608440" lon="-0.2569030">
        <ele>1403.4</ele>
        <time>2020-07-27T09:25:12Z</time>
      </trkpt>
      <trkpt lat="42.9608510" lon="-0.2567330">
        <ele>1401.2</ele>
        <time>2020-07-27T09:25:13Z</time>
      </trkpt>
      <trkpt lat="42.9608500" lon="-0.2565730">
        <ele>1400.0</ele>
        <time>2020-07-27T09:25:14Z</time>
      </trkpt>
      <trkpt lat="42.9608360" lon="-0.2564280">
        <ele>1398.8</ele>
        <time>2020-07-27T09:25:15Z</time>
      </trkpt>
      <trkpt lat="42.9608010" lon="-0.2562910">
        <ele>1397.6</ele>
        <time>2020-07-27T09:25:16Z</time>
      </trkpt>
      <trkpt lat="42.9606620" lon="-0.2560600">
        <ele>1395.4</ele>
        <time>2020-07-27T09:25:18Z</time>
      </trkpt>
      <trkpt lat="42.9605740" lon="-0.2559730">
        <ele>1394.4</ele>
        <time>2020-07-27T09:25:19Z</time>
      </trkpt>
      <trkpt lat="42.9604120" lon="-0.2557880">
        <ele>1392.8</ele>
        <time>2020-07-27T09:25:21Z</time>
      </trkpt>
      <trkpt lat="42.9603120" lon="-0.2555200">
        <ele>1391.8</ele>
        <time>2020-07-27T09:25:23Z</time>
      </trkpt>
      <trkpt lat="42.9602850" lon="-0.2552020">
        <ele>1390.0</ele>
        <time>2020-07-27T09:25:25Z</time>
      </trkpt>
      <trkpt lat="42.9602960" lon="-0.2550350">
        <ele>1389.0</ele>
        <time>2020-07-27T09:25:26Z</time>
      </trkpt>
      <trkpt lat="42.9603240" lon="-0.2548690">
        <ele>1387.6</ele>
        <time>2020-07-27T09:25:27Z</time>
      </trkpt>
      <trkpt lat="42.9603760" lon="-0.2547080">
        <ele>1386.6</ele>
        <time>2020-07-27T09:25:28Z</time>
      </trkpt>
      <trkpt lat="42.9604480" lon="-0.2545560">
        <ele>1385.8</ele>
        <time>2020-07-27T09:25:29Z</time>
      </trkpt>
      <trkpt lat="42.9605290" lon="-0.2544170">
        <ele>1384.8</ele>
        <time>2020-07-27T09:25:30Z</time>
      </trkpt>
      <trkpt lat="42.9606140" lon="-0.2542900">
        <ele>1383.8</ele>
        <time>2020-07-27T09:25:31Z</time>
      </trkpt>
      <trkpt lat="42.9607050" lon="-0.2541750">
        <ele>1383.0</ele>
        <time>2020-07-27T09:25:32Z</time>
      </trkpt>
      <trkpt lat="42.9609020" lon="-0.2539790">
        <ele>1381.2</ele>
        <time>2020-07-27T09:25:34Z</time>
      </trkpt>
      <trkpt lat="42.9609960" lon="-0.2538630">
        <ele>1380.2</ele>
        <time>2020-07-27T09:25:35Z</time>
      </trkpt>
      <trkpt lat="42.9610800" lon="-0.2537190">
        <ele>1379.0</ele>
        <time>2020-07-27T09:25:36Z</time>
      </trkpt>
      <trkpt lat="42.9611440" lon="-0.2535520">
        <ele>1377.6</ele>
        <time>2020-07-27T09:25:37Z</time>
      </trkpt>
      <trkpt lat="42.9611780" lon="-0.2533760">
        <ele>1375.8</ele>
        <time>2020-07-27T09:25:38Z</time>
      </trkpt>
      <trkpt lat="42.9611890" lon="-0.2531950">
        <ele>1374.0</ele>
        <time>2020-07-27T09:25:39Z</time>
      </trkpt>
      <trkpt lat="42.9611950" lon="-0.2530110">
        <ele>1372.6</ele>
        <time>2020-07-27T09:25:40Z</time>
      </trkpt>
      <trkpt lat="42.9612070" lon="-0.2528300">
        <ele>1370.4</ele>
        <time>2020-07-27T09:25:41Z</time>
      </trkpt>
      <trkpt lat="42.9612260" lon="-0.2526630">
        <ele>1369.2</ele>
        <time>2020-07-27T09:25:42Z</time>
      </trkpt>
      <trkpt lat="42.9612470" lon="-0.2525080">
        <ele>1368.0</ele>
        <time>2020-07-27T09:25:43Z</time>
      </trkpt>
      <trkpt lat="42.9612510" lon="-0.2523560">
        <ele>1366.4</ele>
        <time>2020-07-27T09:25:44Z</time>
      </trkpt>
      <trkpt lat="42.9612210" lon="-0.2522150">
        <ele>1364.6</ele>
        <time>2020-07-27T09:25:45Z</time>
      </trkpt>
      <trkpt lat="42.9611590" lon="-0.2520940">
        <ele>1363.0</ele>
        <time>2020-07-27T09:25:46Z</time>
      </trkpt>
      <trkpt lat="42.9610860" lon="-0.2519890">
        <ele>1361.8</ele>
        <time>2020-07-27T09:25:47Z</time>
      </trkpt>
      <trkpt lat="42.9610220" lon="-0.2518780">
        <ele>1361.0</ele>
        <time>2020-07-27T09:25:48Z</time>
      </trkpt>
      <trkpt lat="42.9609830" lon="-0.2517480">
        <ele>1360.4</ele>
        <time>2020-07-27T09:25:49Z</time>
      </trkpt>
      <trkpt lat="42.9610060" lon="-0.2514540">
        <ele>1358.4</ele>
        <time>2020-07-27T09:25:51Z</time>
      </trkpt>
      <trkpt lat="42.9610450" lon="-0.2513060">
        <ele>1356.8</ele>
        <time>2020-07-27T09:25:52Z</time>
      </trkpt>
      <trkpt lat="42.9610890" lon="-0.2511570">
        <ele>1355.8</ele>
        <time>2020-07-27T09:25:53Z</time>
      </trkpt>
      <trkpt lat="42.9611540" lon="-0.2508750">
        <ele>1353.8</ele>
        <time>2020-07-27T09:25:55Z</time>
      </trkpt>
      <trkpt lat="42.9611450" lon="-0.2505980">
        <ele>1352.4</ele>
        <time>2020-07-27T09:25:57Z</time>
      </trkpt>
      <trkpt lat="42.9610970" lon="-0.2504790">
        <ele>1351.4</ele>
        <time>2020-07-27T09:25:58Z</time>
      </trkpt>
      <trkpt lat="42.9610180" lon="-0.2503900">
        <ele>1350.2</ele>
        <time>2020-07-27T09:25:59Z</time>
      </trkpt>
      <trkpt lat="42.9609230" lon="-0.2503340">
        <ele>1349.0</ele>
        <time>2020-07-27T09:26:00Z</time>
      </trkpt>
      <trkpt lat="42.9607080" lon="-0.2502920">
        <ele>1346.8</ele>
        <time>2020-07-27T09:26:02Z</time>
      </trkpt>
      <trkpt lat="42.9605970" lon="-0.2502870">
        <ele>1345.6</ele>
        <time>2020-07-27T09:26:03Z</time>
      </trkpt>
      <trkpt lat="42.9603870" lon="-0.2502600">
        <ele>1343.4</ele>
        <time>2020-07-27T09:26:05Z</time>
      </trkpt>
      <trkpt lat="42.9602920" lon="-0.2502070">
        <ele>1342.2</ele>
        <time>2020-07-27T09:26:06Z</time>
      </trkpt>
      <trkpt lat="42.9602100" lon="-0.2501150">
        <ele>1340.8</ele>
        <time>2020-07-27T09:26:07Z</time>
      </trkpt>
      <trkpt lat="42.9601460" lon="-0.2499910">
        <ele>1338.0</ele>
        <time>2020-07-27T09:26:08Z</time>
      </trkpt>
      <trkpt lat="42.9601000" lon="-0.2498480">
        <ele>1336.8</ele>
        <time>2020-07-27T09:26:09Z</time>
      </trkpt>
      <trkpt lat="42.9600700" lon="-0.2496920">
        <ele>1335.8</ele>
        <time>2020-07-27T09:26:10Z</time>
      </trkpt>
      <trkpt lat="42.9600590" lon="-0.2495280">
        <ele>1334.6</ele>
        <time>2020-07-27T09:26:11Z</time>
      </trkpt>
      <trkpt lat="42.9601010" lon="-0.2491910">
        <ele>1333.4</ele>
        <time>2020-07-27T09:26:13Z</time>
      </trkpt>
      <trkpt lat="42.9601420" lon="-0.2490260">
        <ele>1332.8</ele>
        <time>2020-07-27T09:26:14Z</time>
      </trkpt>
      <trkpt lat="42.9601910" lon="-0.2488600">
        <ele>1331.8</ele>
        <time>2020-07-27T09:26:15Z</time>
      </trkpt>
      <trkpt lat="42.9603190" lon="-0.2485400">
        <ele>1329.8</ele>
        <time>2020-07-27T09:26:17Z</time>
      </trkpt>
      <trkpt lat="42.9604030" lon="-0.2483990">
        <ele>1328.8</ele>
        <time>2020-07-27T09:26:18Z</time>
      </trkpt>
      <trkpt lat="42.9604990" lon="-0.2482640">
        <ele>1327.4</ele>
        <time>2020-07-27T09:26:19Z</time>
      </trkpt>
      <trkpt lat="42.9605940" lon="-0.2481210">
        <ele>1326.4</ele>
        <time>2020-07-27T09:26:20Z</time>
      </trkpt>
      <trkpt lat="42.9606780" lon="-0.2479620">
        <ele>1325.4</ele>
        <time>2020-07-27T09:26:21Z</time>
      </trkpt>
      <trkpt lat="42.9607530" lon="-0.2477930">
        <ele>1324.2</ele>
        <time>2020-07-27T09:26:22Z</time>
      </trkpt>
      <trkpt lat="42.9608170" lon="-0.2476180">
        <ele>1323.2</ele>
        <time>2020-07-27T09:26:23Z</time>
      </trkpt>
      <trkpt lat="42.9608680" lon="-0.2474280">
        <ele>1321.8</ele>
        <time>2020-07-27T09:26:24Z</time>
      </trkpt>
      <trkpt lat="42.9609110" lon="-0.2472310">
        <ele>1320.6</ele>
        <time>2020-07-27T09:26:25Z</time>
      </trkpt>
      <trkpt lat="42.9609570" lon="-0.2470320">
        <ele>1319.4</ele>
        <time>2020-07-27T09:26:26Z</time>
      </trkpt>
      <trkpt lat="42.9610090" lon="-0.2468370">
        <ele>1318.0</ele>
        <time>2020-07-27T09:26:27Z</time>
      </trkpt>
      <trkpt lat="42.9610650" lon="-0.2466400">
        <ele>1316.8</ele>
        <time>2020-07-27T09:26:28Z</time>
      </trkpt>
      <trkpt lat="42.9611220" lon="-0.2464460">
        <ele>1315.6</ele>
        <time>2020-07-27T09:26:29Z</time>
      </trkpt>
      <trkpt lat="42.9611790" lon="-0.2462610">
        <ele>1314.0</ele>
        <time>2020-07-27T09:26:30Z</time>
      </trkpt>
      <trkpt lat="42.9612390" lon="-0.2460870">
        <ele>1313.0</ele>
        <time>2020-07-27T09:26:31Z</time>
      </trkpt>
      <trkpt lat="42.9613130" lon="-0.2459260">
        <ele>1312.2</ele>
        <time>2020-07-27T09:26:32Z</time>
      </trkpt>
      <trkpt lat="42.9614040" lon="-0.2457870">
        <ele>1311.2</ele>
        <time>2020-07-27T09:26:33Z</time>
      </trkpt>
      <trkpt lat="42.9615080" lon="-0.2456610">
        <ele>1310.2</ele>
        <time>2020-07-27T09:26:34Z</time>
      </trkpt>
      <trkpt lat="42.9616200" lon="-0.2455400">
        <ele>1307.6</ele>
        <time>2020-07-27T09:26:35Z</time>
      </trkpt>
      <trkpt lat="42.9617380" lon="-0.2454210">
        <ele>1306.2</ele>
        <time>2020-07-27T09:26:36Z</time>
      </trkpt>
      <trkpt lat="42.9618580" lon="-0.2453030">
        <ele>1305.0</ele>
        <time>2020-07-27T09:26:37Z</time>
      </trkpt>
      <trkpt lat="42.9619790" lon="-0.2451860">
        <ele>1303.8</ele>
        <time>2020-07-27T09:26:38Z</time>
      </trkpt>
      <trkpt lat="42.9620990" lon="-0.2450720">
        <ele>1302.6</ele>
        <time>2020-07-27T09:26:39Z</time>
      </trkpt>
      <trkpt lat="42.9623360" lon="-0.2448440">
        <ele>1300.4</ele>
        <time>2020-07-27T09:26:41Z</time>
      </trkpt>
      <trkpt lat="42.9624520" lon="-0.2447190">
        <ele>1299.0</ele>
        <time>2020-07-27T09:26:42Z</time>
      </trkpt>
      <trkpt lat="42.9625600" lon="-0.2445750">
        <ele>1297.8</ele>
        <time>2020-07-27T09:26:43Z</time>
      </trkpt>
      <trkpt lat="42.9626550" lon="-0.2444080">
        <ele>1296.4</ele>
        <time>2020-07-27T09:26:44Z</time>
      </trkpt>
      <trkpt lat="42.9627350" lon="-0.2442390">
        <ele>1295.0</ele>
        <time>2020-07-27T09:26:45Z</time>
      </trkpt>
      <trkpt lat="42.9628070" lon="-0.2440600">
        <ele>1293.6</ele>
        <time>2020-07-27T09:26:46Z</time>
      </trkpt>
      <trkpt lat="42.9628760" lon="-0.2438810">
        <ele>1292.6</ele>
        <time>2020-07-27T09:26:47Z</time>
      </trkpt>
      <trkpt lat="42.9629450" lon="-0.2437060">
        <ele>1291.6</ele>
        <time>2020-07-27T09:26:48Z</time>
      </trkpt>
      <trkpt lat="42.9630230" lon="-0.2435340">
        <ele>1290.6</ele>
        <time>2020-07-27T09:26:49Z</time>
      </trkpt>
      <trkpt lat="42.9631090" lon="-0.2433750">
        <ele>1289.2</ele>
        <time>2020-07-27T09:26:50Z</time>
      </trkpt>
      <trkpt lat="42.9632040" lon="-0.2432270">
        <ele>1287.8</ele>
        <time>2020-07-27T09:26:51Z</time>
      </trkpt>
      <trkpt lat="42.9633000" lon="-0.2430900">
        <ele>1286.4</ele>
        <time>2020-07-27T09:26:52Z</time>
      </trkpt>
      <trkpt lat="42.9633860" lon="-0.2429670">
        <ele>1284.8</ele>
        <time>2020-07-27T09:26:53Z</time>
      </trkpt>
      <trkpt lat="42.9634550" lon="-0.2428430">
        <ele>1283.2</ele>
        <time>2020-07-27T09:26:54Z</time>
      </trkpt>
      <trkpt lat="42.9634970" lon="-0.2427130">
        <ele>1281.6</ele>
        <time>2020-07-27T09:26:55Z</time>
      </trkpt>
      <trkpt lat="42.9635040" lon="-0.2425840">
        <ele>1280.2</ele>
        <time>2020-07-27T09:26:56Z</time>
      </trkpt>
      <trkpt lat="42.9634750" lon="-0.2424660">
        <ele>1278.6</ele>
        <time>2020-07-27T09:26:57Z</time>
      </trkpt>
      <trkpt lat="42.9634140" lon="-0.2423750">
        <ele>1277.4</ele>
        <time>2020-07-27T09:26:58Z</time>
      </trkpt>
      <trkpt lat="42.9633280" lon="-0.2423170">
        <ele>1276.2</ele>
        <time>2020-07-27T09:26:59Z</time>
      </trkpt>
      <trkpt lat="42.9632320" lon="-0.2422890">
        <ele>1274.8</ele>
        <time>2020-07-27T09:27:00Z</time>
      </trkpt>
      <trkpt lat="42.9631380" lon="-0.2422700">
        <ele>1273.6</ele>
        <time>2020-07-27T09:27:01Z</time>
      </trkpt>
      <trkpt lat="42.9630480" lon="-0.2422350">
        <ele>1272.6</ele>
        <time>2020-07-27T09:27:02Z</time>
      </trkpt>
      <trkpt lat="42.9629610" lon="-0.2421680">
        <ele>1272.2</ele>
        <time>2020-07-27T09:27:03Z</time>
      </trkpt>
      <trkpt lat="42.9628270" lon="-0.2419460">
        <ele>1271.2</ele>
        <time>2020-07-27T09:27:05Z</time>
      </trkpt>
      <trkpt lat="42.9627650" lon="-0.2416800">
        <ele>1269.8</ele>
        <time>2020-07-27T09:27:07Z</time>
      </trkpt>
      <trkpt lat="42.9627640" lon="-0.2415480">
        <ele>1269.0</ele>
        <time>2020-07-27T09:27:08Z</time>
      </trkpt>
      <trkpt lat="42.9627810" lon="-0.2414170">
        <ele>1267.8</ele>
        <time>2020-07-27T09:27:09Z</time>
      </trkpt>
      <trkpt lat="42.9628120" lon="-0.2412940">
        <ele>1266.8</ele>
        <time>2020-07-27T09:27:10Z</time>
      </trkpt>
      <trkpt lat="42.9628690" lon="-0.2411850">
        <ele>1265.8</ele>
        <time>2020-07-27T09:27:11Z</time>
      </trkpt>
      <trkpt lat="42.9629410" lon="-0.2410910">
        <ele>1264.4</ele>
        <time>2020-07-27T09:27:12Z</time>
      </trkpt>
      <trkpt lat="42.9630320" lon="-0.2410190">
        <ele>1263.2</ele>
        <time>2020-07-27T09:27:13Z</time>
      </trkpt>
      <trkpt lat="42.9631400" lon="-0.2409780">
        <ele>1262.2</ele>
        <time>2020-07-27T09:27:14Z</time>
      </trkpt>
      <trkpt lat="42.9633790" lon="-0.2409600">
        <ele>1261.0</ele>
        <time>2020-07-27T09:27:16Z</time>
      </trkpt>
      <trkpt lat="42.9635010" lon="-0.2409500">
        <ele>1260.4</ele>
        <time>2020-07-27T09:27:17Z</time>
      </trkpt>
      <trkpt lat="42.9636230" lon="-0.2409210">
        <ele>1259.8</ele>
        <time>2020-07-27T09:27:18Z</time>
      </trkpt>
      <trkpt lat="42.9638370" lon="-0.2407590">
        <ele>1258.4</ele>
        <time>2020-07-27T09:27:20Z</time>
      </trkpt>
      <trkpt lat="42.9639240" lon="-0.2406450">
        <ele>1257.2</ele>
        <time>2020-07-27T09:27:21Z</time>
      </trkpt>
      <trkpt lat="42.9640030" lon="-0.2405230">
        <ele>1255.8</ele>
        <time>2020-07-27T09:27:22Z</time>
      </trkpt>
      <trkpt lat="42.9640770" lon="-0.2403900">
        <ele>1254.4</ele>
        <time>2020-07-27T09:27:23Z</time>
      </trkpt>
      <trkpt lat="42.9641430" lon="-0.2402550">
        <ele>1252.8</ele>
        <time>2020-07-27T09:27:24Z</time>
      </trkpt>
      <trkpt lat="42.9641930" lon="-0.2400940">
        <ele>1251.4</ele>
        <time>2020-07-27T09:27:25Z</time>
      </trkpt>
      <trkpt lat="42.9642100" lon="-0.2399390">
        <ele>1250.2</ele>
        <time>2020-07-27T09:27:26Z</time>
      </trkpt>
      <trkpt lat="42.9641390" lon="-0.2396640">
        <ele>1248.4</ele>
        <time>2020-07-27T09:27:28Z</time>
      </trkpt>
      <trkpt lat="42.9640760" lon="-0.2395330">
        <ele>1246.6</ele>
        <time>2020-07-27T09:27:29Z</time>
      </trkpt>
      <trkpt lat="42.9640220" lon="-0.2393930">
        <ele>1245.4</ele>
        <time>2020-07-27T09:27:30Z</time>
      </trkpt>
      <trkpt lat="42.9639780" lon="-0.2392390">
        <ele>1244.4</ele>
        <time>2020-07-27T09:27:31Z</time>
      </trkpt>
      <trkpt lat="42.9639530" lon="-0.2390830">
        <ele>1243.2</ele>
        <time>2020-07-27T09:27:32Z</time>
      </trkpt>
      <trkpt lat="42.9639560" lon="-0.2389230">
        <ele>1242.0</ele>
        <time>2020-07-27T09:27:33Z</time>
      </trkpt>
      <trkpt lat="42.9639850" lon="-0.2387700">
        <ele>1240.8</ele>
        <time>2020-07-27T09:27:34Z</time>
      </trkpt>
      <trkpt lat="42.9640240" lon="-0.2386150">
        <ele>1239.6</ele>
        <time>2020-07-27T09:27:35Z</time>
      </trkpt>
      <trkpt lat="42.9640490" lon="-0.2384420">
        <ele>1238.8</ele>
        <time>2020-07-27T09:27:36Z</time>
      </trkpt>
      <trkpt lat="42.9640380" lon="-0.2382590">
        <ele>1238.0</ele>
        <time>2020-07-27T09:27:37Z</time>
      </trkpt>
      <trkpt lat="42.9640020" lon="-0.2380850">
        <ele>1236.8</ele>
        <time>2020-07-27T09:27:38Z</time>
      </trkpt>
      <trkpt lat="42.9639510" lon="-0.2379170">
        <ele>1235.4</ele>
        <time>2020-07-27T09:27:39Z</time>
      </trkpt>
      <trkpt lat="42.9638940" lon="-0.2377520">
        <ele>1234.2</ele>
        <time>2020-07-27T09:27:40Z</time>
      </trkpt>
      <trkpt lat="42.9638360" lon="-0.2375810">
        <ele>1233.0</ele>
        <time>2020-07-27T09:27:41Z</time>
      </trkpt>
      <trkpt lat="42.9637770" lon="-0.2374070">
        <ele>1231.6</ele>
        <time>2020-07-27T09:27:42Z</time>
      </trkpt>
      <trkpt lat="42.9637140" lon="-0.2372340">
        <ele>1230.4</ele>
        <time>2020-07-27T09:27:43Z</time>
      </trkpt>
      <trkpt lat="42.9636470" lon="-0.2370610">
        <ele>1228.8</ele>
        <time>2020-07-27T09:27:44Z</time>
      </trkpt>
      <trkpt lat="42.9635770" lon="-0.2368910">
        <ele>1227.4</ele>
        <time>2020-07-27T09:27:45Z</time>
      </trkpt>
      <trkpt lat="42.9635000" lon="-0.2367270">
        <ele>1226.0</ele>
        <time>2020-07-27T09:27:46Z</time>
      </trkpt>
      <trkpt lat="42.9634150" lon="-0.2365700">
        <ele>1225.0</ele>
        <time>2020-07-27T09:27:47Z</time>
      </trkpt>
      <trkpt lat="42.9633300" lon="-0.2364130">
        <ele>1223.8</ele>
        <time>2020-07-27T09:27:48Z</time>
      </trkpt>
      <trkpt lat="42.9632500" lon="-0.2362490">
        <ele>1222.8</ele>
        <time>2020-07-27T09:27:49Z</time>
      </trkpt>
      <trkpt lat="42.9631790" lon="-0.2360740">
        <ele>1221.8</ele>
        <time>2020-07-27T09:27:50Z</time>
      </trkpt>
      <trkpt lat="42.9631140" lon="-0.2358960">
        <ele>1220.0</ele>
        <time>2020-07-27T09:27:51Z</time>
      </trkpt>
      <trkpt lat="42.9630560" lon="-0.2357100">
        <ele>1218.6</ele>
        <time>2020-07-27T09:27:52Z</time>
      </trkpt>
      <trkpt lat="42.9630010" lon="-0.2355210">
        <ele>1217.6</ele>
        <time>2020-07-27T09:27:53Z</time>
      </trkpt>
      <trkpt lat="42.9628940" lon="-0.2351280">
        <ele>1215.8</ele>
        <time>2020-07-27T09:27:55Z</time>
      </trkpt>
      <trkpt lat="42.9628390" lon="-0.2349290">
        <ele>1213.8</ele>
        <time>2020-07-27T09:27:56Z</time>
      </trkpt>
      <trkpt lat="42.9627190" lon="-0.2345330">
        <ele>1211.8</ele>
        <time>2020-07-27T09:27:58Z</time>
      </trkpt>
      <trkpt lat="42.9626560" lon="-0.2343430">
        <ele>1210.6</ele>
        <time>2020-07-27T09:27:59Z</time>
      </trkpt>
      <trkpt lat="42.9625940" lon="-0.2341540">
        <ele>1209.2</ele>
        <time>2020-07-27T09:28:00Z</time>
      </trkpt>
      <trkpt lat="42.9625320" lon="-0.2339710">
        <ele>1208.0</ele>
        <time>2020-07-27T09:28:01Z</time>
      </trkpt>
      <trkpt lat="42.9624730" lon="-0.2337910">
        <ele>1206.8</ele>
        <time>2020-07-27T09:28:02Z</time>
      </trkpt>
      <trkpt lat="42.9624210" lon="-0.2336120">
        <ele>1205.4</ele>
        <time>2020-07-27T09:28:03Z</time>
      </trkpt>
      <trkpt lat="42.9623860" lon="-0.2334300">
        <ele>1204.0</ele>
        <time>2020-07-27T09:28:04Z</time>
      </trkpt>
      <trkpt lat="42.9623730" lon="-0.2332430">
        <ele>1202.6</ele>
        <time>2020-07-27T09:28:05Z</time>
      </trkpt>
      <trkpt lat="42.9623790" lon="-0.2330510">
        <ele>1201.4</ele>
        <time>2020-07-27T09:28:06Z</time>
      </trkpt>
      <trkpt lat="42.9624000" lon="-0.2328570">
        <ele>1200.0</ele>
        <time>2020-07-27T09:28:07Z</time>
      </trkpt>
      <trkpt lat="42.9624360" lon="-0.2326640">
        <ele>1198.6</ele>
        <time>2020-07-27T09:28:08Z</time>
      </trkpt>
      <trkpt lat="42.9624800" lon="-0.2324800">
        <ele>1197.4</ele>
        <time>2020-07-27T09:28:09Z</time>
      </trkpt>
      <trkpt lat="42.9625240" lon="-0.2323010">
        <ele>1196.4</ele>
        <time>2020-07-27T09:28:10Z</time>
      </trkpt>
      <trkpt lat="42.9625680" lon="-0.2321260">
        <ele>1195.8</ele>
        <time>2020-07-27T09:28:11Z</time>
      </trkpt>
      <trkpt lat="42.9626650" lon="-0.2317860">
        <ele>1194.0</ele>
        <time>2020-07-27T09:28:13Z</time>
      </trkpt>
      <trkpt lat="42.9627270" lon="-0.2316290">
        <ele>1192.4</ele>
        <time>2020-07-27T09:28:14Z</time>
      </trkpt>
      <trkpt lat="42.9628080" lon="-0.2314910">
        <ele>1191.0</ele>
        <time>2020-07-27T09:28:15Z</time>
      </trkpt>
      <trkpt lat="42.9629030" lon="-0.2313680">
        <ele>1189.8</ele>
        <time>2020-07-27T09:28:16Z</time>
      </trkpt>
      <trkpt lat="42.9631160" lon="-0.2311430">
        <ele>1188.4</ele>
        <time>2020-07-27T09:28:18Z</time>
      </trkpt>
      <trkpt lat="42.9633320" lon="-0.2309350">
        <ele>1186.8</ele>
        <time>2020-07-27T09:28:20Z</time>
      </trkpt>
      <trkpt lat="42.9634340" lon="-0.2308620">
        <ele>1186.0</ele>
        <time>2020-07-27T09:28:21Z</time>
      </trkpt>
      <trkpt lat="42.9635440" lon="-0.2308210">
        <ele>1185.2</ele>
        <time>2020-07-27T09:28:22Z</time>
      </trkpt>
      <trkpt lat="42.9636630" lon="-0.2308230">
        <ele>1183.0</ele>
        <time>2020-07-27T09:28:23Z</time>
      </trkpt>
      <trkpt lat="42.9637860" lon="-0.2308300">
        <ele>1181.4</ele>
        <time>2020-07-27T09:28:24Z</time>
      </trkpt>
      <trkpt lat="42.9639090" lon="-0.2308140">
        <ele>1180.2</ele>
        <time>2020-07-27T09:28:25Z</time>
      </trkpt>
      <trkpt lat="42.9640260" lon="-0.2307700">
        <ele>1179.0</ele>
        <time>2020-07-27T09:28:26Z</time>
      </trkpt>
      <trkpt lat="42.9642150" lon="-0.2305750">
        <ele>1177.4</ele>
        <time>2020-07-27T09:28:28Z</time>
      </trkpt>
      <trkpt lat="42.9642770" lon="-0.2302790">
        <ele>1176.2</ele>
        <time>2020-07-27T09:28:30Z</time>
      </trkpt>
      <trkpt lat="42.9643010" lon="-0.2301280">
        <ele>1174.8</ele>
        <time>2020-07-27T09:28:31Z</time>
      </trkpt>
      <trkpt lat="42.9643390" lon="-0.2299750">
        <ele>1173.6</ele>
        <time>2020-07-27T09:28:32Z</time>
      </trkpt>
      <trkpt lat="42.9643990" lon="-0.2298310">
        <ele>1172.6</ele>
        <time>2020-07-27T09:28:33Z</time>
      </trkpt>
      <trkpt lat="42.9644810" lon="-0.2297080">
        <ele>1171.4</ele>
        <time>2020-07-27T09:28:34Z</time>
      </trkpt>
      <trkpt lat="42.9645770" lon="-0.2296010">
        <ele>1170.2</ele>
        <time>2020-07-27T09:28:35Z</time>
      </trkpt>
      <trkpt lat="42.9646820" lon="-0.2295020">
        <ele>1169.0</ele>
        <time>2020-07-27T09:28:36Z</time>
      </trkpt>
      <trkpt lat="42.9647930" lon="-0.2293960">
        <ele>1168.0</ele>
        <time>2020-07-27T09:28:37Z</time>
      </trkpt>
      <trkpt lat="42.9649010" lon="-0.2292680">
        <ele>1167.2</ele>
        <time>2020-07-27T09:28:38Z</time>
      </trkpt>
      <trkpt lat="42.9649980" lon="-0.2291190">
        <ele>1166.2</ele>
        <time>2020-07-27T09:28:39Z</time>
      </trkpt>
      <trkpt lat="42.9651370" lon="-0.2287810">
        <ele>1164.2</ele>
        <time>2020-07-27T09:28:41Z</time>
      </trkpt>
      <trkpt lat="42.9651950" lon="-0.2286010">
        <ele>1163.0</ele>
        <time>2020-07-27T09:28:42Z</time>
      </trkpt>
      <trkpt lat="42.9653020" lon="-0.2282540">
        <ele>1161.2</ele>
        <time>2020-07-27T09:28:44Z</time>
      </trkpt>
      <trkpt lat="42.9653970" lon="-0.2279120">
        <ele>1158.8</ele>
        <time>2020-07-27T09:28:46Z</time>
      </trkpt>
      <trkpt lat="42.9654480" lon="-0.2277480">
        <ele>1157.2</ele>
        <time>2020-07-27T09:28:47Z</time>
      </trkpt>
      <trkpt lat="42.9655100" lon="-0.2276030">
        <ele>1155.6</ele>
        <time>2020-07-27T09:28:48Z</time>
      </trkpt>
      <trkpt lat="42.9655820" lon="-0.2275100">
        <ele>1154.4</ele>
        <time>2020-07-27T09:28:49Z</time>
      </trkpt>
      <trkpt lat="42.9657670" lon="-0.2274260">
        <ele>1151.2</ele>
        <time>2020-07-27T09:28:51Z</time>
      </trkpt>
      <trkpt lat="42.9658760" lon="-0.2274380">
        <ele>1150.0</ele>
        <time>2020-07-27T09:28:52Z</time>
      </trkpt>
      <trkpt lat="42.9659880" lon="-0.2275050">
        <ele>1148.4</ele>
        <time>2020-07-27T09:28:53Z</time>
      </trkpt>
      <trkpt lat="42.9661970" lon="-0.2276800">
        <ele>1147.0</ele>
        <time>2020-07-27T09:28:55Z</time>
      </trkpt>
      <trkpt lat="42.9662970" lon="-0.2277510">
        <ele>1146.2</ele>
        <time>2020-07-27T09:28:56Z</time>
      </trkpt>
      <trkpt lat="42.9663990" lon="-0.2277960">
        <ele>1145.4</ele>
        <time>2020-07-27T09:28:57Z</time>
      </trkpt>
      <trkpt lat="42.9665120" lon="-0.2278130">
        <ele>1144.4</ele>
        <time>2020-07-27T09:28:58Z</time>
      </trkpt>
      <trkpt lat="42.9666330" lon="-0.2277950">
        <ele>1143.6</ele>
        <time>2020-07-27T09:28:59Z</time>
      </trkpt>
      <trkpt lat="42.9667530" lon="-0.2277470">
        <ele>1142.8</ele>
        <time>2020-07-27T09:29:00Z</time>
      </trkpt>
      <trkpt lat="42.9669730" lon="-0.2275780">
        <ele>1141.4</ele>
        <time>2020-07-27T09:29:02Z</time>
      </trkpt>
      <trkpt lat="42.9670700" lon="-0.2274810">
        <ele>1140.6</ele>
        <time>2020-07-27T09:29:03Z</time>
      </trkpt>
      <trkpt lat="42.9671440" lon="-0.2273660">
        <ele>1139.8</ele>
        <time>2020-07-27T09:29:04Z</time>
      </trkpt>
      <trkpt lat="42.9671970" lon="-0.2272320">
        <ele>1139.2</ele>
        <time>2020-07-27T09:29:05Z</time>
      </trkpt>
      <trkpt lat="42.9672150" lon="-0.2270920">
        <ele>1138.0</ele>
        <time>2020-07-27T09:29:06Z</time>
      </trkpt>
      <trkpt lat="42.9672000" lon="-0.2269480">
        <ele>1136.4</ele>
        <time>2020-07-27T09:29:07Z</time>
      </trkpt>
      <trkpt lat="42.9671650" lon="-0.2268010">
        <ele>1135.2</ele>
        <time>2020-07-27T09:29:08Z</time>
      </trkpt>
      <trkpt lat="42.9671270" lon="-0.2266500">
        <ele>1134.0</ele>
        <time>2020-07-27T09:29:09Z</time>
      </trkpt>
      <trkpt lat="42.9671030" lon="-0.2264900">
        <ele>1133.0</ele>
        <time>2020-07-27T09:29:10Z</time>
      </trkpt>
      <trkpt lat="42.9671010" lon="-0.2263220">
        <ele>1131.8</ele>
        <time>2020-07-27T09:29:11Z</time>
      </trkpt>
      <trkpt lat="42.9671430" lon="-0.2259810">
        <ele>1130.4</ele>
        <time>2020-07-27T09:29:13Z</time>
      </trkpt>
      <trkpt lat="42.9672070" lon="-0.2256280">
        <ele>1128.8</ele>
        <time>2020-07-27T09:29:15Z</time>
      </trkpt>
      <trkpt lat="42.9672380" lon="-0.2254550">
        <ele>1127.4</ele>
        <time>2020-07-27T09:29:16Z</time>
      </trkpt>
      <trkpt lat="42.9672830" lon="-0.2251130">
        <ele>1125.6</ele>
        <time>2020-07-27T09:29:18Z</time>
      </trkpt>
      <trkpt lat="42.9672850" lon="-0.2249440">
        <ele>1123.2</ele>
        <time>2020-07-27T09:29:19Z</time>
      </trkpt>
      <trkpt lat="42.9672570" lon="-0.2247830">
        <ele>1122.0</ele>
        <time>2020-07-27T09:29:20Z</time>
      </trkpt>
      <trkpt lat="42.9672030" lon="-0.2246330">
        <ele>1121.2</ele>
        <time>2020-07-27T09:29:21Z</time>
      </trkpt>
      <trkpt lat="42.9671320" lon="-0.2244910">
        <ele>1119.6</ele>
        <time>2020-07-27T09:29:22Z</time>
      </trkpt>
      <trkpt lat="42.9670500" lon="-0.2243630">
        <ele>1118.6</ele>
        <time>2020-07-27T09:29:23Z</time>
      </trkpt>
      <trkpt lat="42.9669650" lon="-0.2242540">
        <ele>1117.4</ele>
        <time>2020-07-27T09:29:24Z</time>
      </trkpt>
      <trkpt lat="42.9668810" lon="-0.2241440">
        <ele>1116.0</ele>
        <time>2020-07-27T09:29:25Z</time>
      </trkpt>
      <trkpt lat="42.9667930" lon="-0.2240440">
        <ele>1114.8</ele>
        <time>2020-07-27T09:29:26Z</time>
      </trkpt>
      <trkpt lat="42.9666930" lon="-0.2239610">
        <ele>1113.2</ele>
        <time>2020-07-27T09:29:27Z</time>
      </trkpt>
      <trkpt lat="42.9665820" lon="-0.2238910">
        <ele>1111.8</ele>
        <time>2020-07-27T09:29:28Z</time>
      </trkpt>
      <trkpt lat="42.9663450" lon="-0.2238030">
        <ele>1110.6</ele>
        <time>2020-07-27T09:29:30Z</time>
      </trkpt>
      <trkpt lat="42.9659850" lon="-0.2238710">
        <ele>1109.6</ele>
        <time>2020-07-27T09:29:33Z</time>
      </trkpt>
      <trkpt lat="42.9658700" lon="-0.2239180">
        <ele>1109.2</ele>
        <time>2020-07-27T09:29:34Z</time>
      </trkpt>
      <trkpt lat="42.9657540" lon="-0.2239480">
        <ele>1109.0</ele>
        <time>2020-07-27T09:29:35Z</time>
      </trkpt>
      <trkpt lat="42.9655130" lon="-0.2239660">
        <ele>1108.0</ele>
        <time>2020-07-27T09:29:37Z</time>
      </trkpt>
      <trkpt lat="42.9654010" lon="-0.2239570">
        <ele>1107.6</ele>
        <time>2020-07-27T09:29:38Z</time>
      </trkpt>
      <trkpt lat="42.9652120" lon="-0.2238770">
        <ele>1106.6</ele>
        <time>2020-07-27T09:29:40Z</time>
      </trkpt>
      <trkpt lat="42.9650840" lon="-0.2236970">
        <ele>1104.8</ele>
        <time>2020-07-27T09:29:42Z</time>
      </trkpt>
      <trkpt lat="42.9650680" lon="-0.2234260">
        <ele>1104.0</ele>
        <time>2020-07-27T09:29:44Z</time>
      </trkpt>
      <trkpt lat="42.9650990" lon="-0.2232720">
        <ele>1103.4</ele>
        <time>2020-07-27T09:29:45Z</time>
      </trkpt>
      <trkpt lat="42.9651530" lon="-0.2231060">
        <ele>1102.6</ele>
        <time>2020-07-27T09:29:46Z</time>
      </trkpt>
      <trkpt lat="42.9652180" lon="-0.2229310">
        <ele>1102.4</ele>
        <time>2020-07-27T09:29:47Z</time>
      </trkpt>
      <trkpt lat="42.9653570" lon="-0.2225730">
        <ele>1100.8</ele>
        <time>2020-07-27T09:29:49Z</time>
      </trkpt>
      <trkpt lat="42.9654990" lon="-0.2222030">
        <ele>1098.8</ele>
        <time>2020-07-27T09:29:51Z</time>
      </trkpt>
      <trkpt lat="42.9656000" lon="-0.2218380">
        <ele>1096.6</ele>
        <time>2020-07-27T09:29:53Z</time>
      </trkpt>
      <trkpt lat="42.9656120" lon="-0.2216540">
        <ele>1094.2</ele>
        <time>2020-07-27T09:29:54Z</time>
      </trkpt>
      <trkpt lat="42.9655960" lon="-0.2214730">
        <ele>1091.8</ele>
        <time>2020-07-27T09:29:55Z</time>
      </trkpt>
      <trkpt lat="42.9655610" lon="-0.2212970">
        <ele>1089.2</ele>
        <time>2020-07-27T09:29:56Z</time>
      </trkpt>
      <trkpt lat="42.9655280" lon="-0.2211190">
        <ele>1087.0</ele>
        <time>2020-07-27T09:29:57Z</time>
      </trkpt>
      <trkpt lat="42.9655200" lon="-0.2209450">
        <ele>1085.2</ele>
        <time>2020-07-27T09:29:58Z</time>
      </trkpt>
      <trkpt lat="42.9655290" lon="-0.2207560">
        <ele>1084.2</ele>
        <time>2020-07-27T09:29:59Z</time>
      </trkpt>
      <trkpt lat="42.9656210" lon="-0.2202300">
        <ele>1082.6</ele>
        <time>2020-07-27T09:30:02Z</time>
      </trkpt>
      <trkpt lat="42.9657290" lon="-0.2199370">
        <ele>1081.8</ele>
        <time>2020-07-27T09:30:04Z</time>
      </trkpt>
      <trkpt lat="42.9658630" lon="-0.2196730">
        <ele>1080.0</ele>
        <time>2020-07-27T09:30:06Z</time>
      </trkpt>
      <trkpt lat="42.9659100" lon="-0.2195180">
        <ele>1079.0</ele>
        <time>2020-07-27T09:30:07Z</time>
      </trkpt>
      <trkpt lat="42.9659380" lon="-0.2193500">
        <ele>1078.0</ele>
        <time>2020-07-27T09:30:08Z</time>
      </trkpt>
      <trkpt lat="42.9659670" lon="-0.2189980">
        <ele>1076.2</ele>
        <time>2020-07-27T09:30:10Z</time>
      </trkpt>
      <trkpt lat="42.9659880" lon="-0.2188280">
        <ele>1075.8</ele>
        <time>2020-07-27T09:30:11Z</time>
      </trkpt>
      <trkpt lat="42.9660540" lon="-0.2184910">
        <ele>1073.4</ele>
        <time>2020-07-27T09:30:13Z</time>
      </trkpt>
      <trkpt lat="42.9661070" lon="-0.2181500">
        <ele>1071.6</ele>
        <time>2020-07-27T09:30:15Z</time>
      </trkpt>
      <trkpt lat="42.9661220" lon="-0.2179710">
        <ele>1070.6</ele>
        <time>2020-07-27T09:30:16Z</time>
      </trkpt>
      <trkpt lat="42.9661460" lon="-0.2177920">
        <ele>1069.0</ele>
        <time>2020-07-27T09:30:17Z</time>
      </trkpt>
      <trkpt lat="42.9661890" lon="-0.2176230">
        <ele>1067.4</ele>
        <time>2020-07-27T09:30:18Z</time>
      </trkpt>
      <trkpt lat="42.9662460" lon="-0.2174680">
        <ele>1066.0</ele>
        <time>2020-07-27T09:30:19Z</time>
      </trkpt>
      <trkpt lat="42.9663030" lon="-0.2172950">
        <ele>1064.2</ele>
        <time>2020-07-27T09:30:20Z</time>
      </trkpt>
      <trkpt lat="42.9663510" lon="-0.2171190">
        <ele>1063.0</ele>
        <time>2020-07-27T09:30:21Z</time>
      </trkpt>
      <trkpt lat="42.9663890" lon="-0.2169330">
        <ele>1062.0</ele>
        <time>2020-07-27T09:30:22Z</time>
      </trkpt>
      <trkpt lat="42.9664180" lon="-0.2167450">
        <ele>1061.4</ele>
        <time>2020-07-27T09:30:23Z</time>
      </trkpt>
      <trkpt lat="42.9664370" lon="-0.2165620">
        <ele>1060.6</ele>
        <time>2020-07-27T09:30:24Z</time>
      </trkpt>
      <trkpt lat="42.9664490" lon="-0.2163810">
        <ele>1059.4</ele>
        <time>2020-07-27T09:30:25Z</time>
      </trkpt>
      <trkpt lat="42.9664500" lon="-0.2162120">
        <ele>1058.2</ele>
        <time>2020-07-27T09:30:26Z</time>
      </trkpt>
      <trkpt lat="42.9664440" lon="-0.2160600">
        <ele>1056.6</ele>
        <time>2020-07-27T09:30:27Z</time>
      </trkpt>
      <trkpt lat="42.9664440" lon="-0.2159150">
        <ele>1055.4</ele>
        <time>2020-07-27T09:30:28Z</time>
      </trkpt>
      <trkpt lat="42.9664680" lon="-0.2157740">
        <ele>1054.4</ele>
        <time>2020-07-27T09:30:29Z</time>
      </trkpt>
      <trkpt lat="42.9665010" lon="-0.2156430">
        <ele>1053.8</ele>
        <time>2020-07-27T09:30:30Z</time>
      </trkpt>
      <trkpt lat="42.9665540" lon="-0.2154150">
        <ele>1052.0</ele>
        <time>2020-07-27T09:30:32Z</time>
      </trkpt>
      <trkpt lat="42.9665440" lon="-0.2153170">
        <ele>1051.0</ele>
        <time>2020-07-27T09:30:33Z</time>
      </trkpt>
      <trkpt lat="42.9664170" lon="-0.2152060">
        <ele>1049.6</ele>
        <time>2020-07-27T09:30:35Z</time>
      </trkpt>
      <trkpt lat="42.9662460" lon="-0.2152420">
        <ele>1048.2</ele>
        <time>2020-07-27T09:30:37Z</time>
      </trkpt>
      <trkpt lat="42.9661330" lon="-0.2154360">
        <ele>1046.8</ele>
        <time>2020-07-27T09:30:39Z</time>
      </trkpt>
      <trkpt lat="42.9660530" lon="-0.2156830">
        <ele>1045.6</ele>
        <time>2020-07-27T09:30:41Z</time>
      </trkpt>
      <trkpt lat="42.9659650" lon="-0.2159400">
        <ele>1043.4</ele>
        <time>2020-07-27T09:30:43Z</time>
      </trkpt>
      <trkpt lat="42.9659070" lon="-0.2160460">
        <ele>1042.2</ele>
        <time>2020-07-27T09:30:44Z</time>
      </trkpt>
      <trkpt lat="42.9657510" lon="-0.2161890">
        <ele>1040.6</ele>
        <time>2020-07-27T09:30:46Z</time>
      </trkpt>
      <trkpt lat="42.9655530" lon="-0.2162970">
        <ele>1039.6</ele>
        <time>2020-07-27T09:30:48Z</time>
      </trkpt>
      <trkpt lat="42.9654530" lon="-0.2163720">
        <ele>1038.8</ele>
        <time>2020-07-27T09:30:49Z</time>
      </trkpt>
      <trkpt lat="42.9653550" lon="-0.2164670">
        <ele>1038.0</ele>
        <time>2020-07-27T09:30:50Z</time>
      </trkpt>
      <trkpt lat="42.9651580" lon="-0.2167040">
        <ele>1036.0</ele>
        <time>2020-07-27T09:30:52Z</time>
      </trkpt>
      <trkpt lat="42.9650570" lon="-0.2168280">
        <ele>1034.6</ele>
        <time>2020-07-27T09:30:53Z</time>
      </trkpt>
      <trkpt lat="42.9649540" lon="-0.2169630">
        <ele>1033.6</ele>
        <time>2020-07-27T09:30:54Z</time>
      </trkpt>
      <trkpt lat="42.9647350" lon="-0.2172220">
        <ele>1032.2</ele>
        <time>2020-07-27T09:30:56Z</time>
      </trkpt>
      <trkpt lat="42.9646260" lon="-0.2173510">
        <ele>1031.0</ele>
        <time>2020-07-27T09:30:57Z</time>
      </trkpt>
      <trkpt lat="42.9645190" lon="-0.2174740">
        <ele>1029.6</ele>
        <time>2020-07-27T09:30:58Z</time>
      </trkpt>
      <trkpt lat="42.9644080" lon="-0.2175950">
        <ele>1028.4</ele>
        <time>2020-07-27T09:30:59Z</time>
      </trkpt>
      <trkpt lat="42.9642980" lon="-0.2177140">
        <ele>1027.2</ele>
        <time>2020-07-27T09:31:00Z</time>
      </trkpt>
      <trkpt lat="42.9641850" lon="-0.2178390">
        <ele>1025.6</ele>
        <time>2020-07-27T09:31:01Z</time>
      </trkpt>
      <trkpt lat="42.9640720" lon="-0.2179670">
        <ele>1024.2</ele>
        <time>2020-07-27T09:31:02Z</time>
      </trkpt>
      <trkpt lat="42.9639580" lon="-0.2180950">
        <ele>1023.0</ele>
        <time>2020-07-27T09:31:03Z</time>
      </trkpt>
      <trkpt lat="42.9638410" lon="-0.2182250">
        <ele>1021.8</ele>
        <time>2020-07-27T09:31:04Z</time>
      </trkpt>
      <trkpt lat="42.9637250" lon="-0.2183500">
        <ele>1020.8</ele>
        <time>2020-07-27T09:31:05Z</time>
      </trkpt>
      <trkpt lat="42.9636140" lon="-0.2184710">
        <ele>1019.6</ele>
        <time>2020-07-27T09:31:06Z</time>
      </trkpt>
      <trkpt lat="42.9635130" lon="-0.2185830">
        <ele>1017.4</ele>
        <time>2020-07-27T09:31:07Z</time>
      </trkpt>
      <trkpt lat="42.9634190" lon="-0.2186840">
        <ele>1016.0</ele>
        <time>2020-07-27T09:31:08Z</time>
      </trkpt>
      <trkpt lat="42.9633370" lon="-0.2187590">
        <ele>1014.6</ele>
        <time>2020-07-27T09:31:09Z</time>
      </trkpt>
      <trkpt lat="42.9632550" lon="-0.2188030">
        <ele>1013.2</ele>
        <time>2020-07-27T09:31:10Z</time>
      </trkpt>
      <trkpt lat="42.9631710" lon="-0.2188160">
        <ele>1011.8</ele>
        <time>2020-07-27T09:31:11Z</time>
      </trkpt>
      <trkpt lat="42.9631060" lon="-0.2187790">
        <ele>1010.6</ele>
        <time>2020-07-27T09:31:12Z</time>
      </trkpt>
      <trkpt lat="42.9630460" lon="-0.2187060">
        <ele>1009.6</ele>
        <time>2020-07-27T09:31:13Z</time>
      </trkpt>
      <trkpt lat="42.9629930" lon="-0.2186040">
        <ele>1008.8</ele>
        <time>2020-07-27T09:31:14Z</time>
      </trkpt>
      <trkpt lat="42.9629590" lon="-0.2184870">
        <ele>1008.2</ele>
        <time>2020-07-27T09:31:15Z</time>
      </trkpt>
      <trkpt lat="42.9629450" lon="-0.2182410">
        <ele>1007.4</ele>
        <time>2020-07-27T09:31:17Z</time>
      </trkpt>
      <trkpt lat="42.9629140" lon="-0.2181430">
        <ele>1006.8</ele>
        <time>2020-07-27T09:31:18Z</time>
      </trkpt>
      <trkpt lat="42.9628600" lon="-0.2180560">
        <ele>1006.2</ele>
        <time>2020-07-27T09:31:19Z</time>
      </trkpt>
      <trkpt lat="42.9627820" lon="-0.2179950">
        <ele>1005.2</ele>
        <time>2020-07-27T09:31:20Z</time>
      </trkpt>
      <trkpt lat="42.9626880" lon="-0.2179610">
        <ele>1004.0</ele>
        <time>2020-07-27T09:31:21Z</time>
      </trkpt>
      <trkpt lat="42.9625880" lon="-0.2179660">
        <ele>1002.6</ele>
        <time>2020-07-27T09:31:22Z</time>
      </trkpt>
      <trkpt lat="42.9624980" lon="-0.2180110">
        <ele>1001.6</ele>
        <time>2020-07-27T09:31:23Z</time>
      </trkpt>
      <trkpt lat="42.9623600" lon="-0.2182060">
        <ele>1000.6</ele>
        <time>2020-07-27T09:31:25Z</time>
      </trkpt>
      <trkpt lat="42.9622690" lon="-0.2185870">
        <ele>998.6</ele>
        <time>2020-07-27T09:31:28Z</time>
      </trkpt>
      <trkpt lat="42.9622850" lon="-0.2187130">
        <ele>997.4</ele>
        <time>2020-07-27T09:31:29Z</time>
      </trkpt>
      <trkpt lat="42.9623490" lon="-0.2189490">
        <ele>995.4</ele>
        <time>2020-07-27T09:31:31Z</time>
      </trkpt>
      <trkpt lat="42.9623670" lon="-0.2190580">
        <ele>994.6</ele>
        <time>2020-07-27T09:31:32Z</time>
      </trkpt>
      <trkpt lat="42.9623670" lon="-0.2191620">
        <ele>993.2</ele>
        <time>2020-07-27T09:31:33Z</time>
      </trkpt>
      <trkpt lat="42.9623130" lon="-0.2192690">
        <ele>991.0</ele>
        <time>2020-07-27T09:31:34Z</time>
      </trkpt>
      <trkpt lat="42.9621670" lon="-0.2193510">
        <ele>989.8</ele>
        <time>2020-07-27T09:31:36Z</time>
      </trkpt>
      <trkpt lat="42.9619980" lon="-0.2193330">
        <ele>988.6</ele>
        <time>2020-07-27T09:31:38Z</time>
      </trkpt>
      <trkpt lat="42.9619200" lon="-0.2193090">
        <ele>988.4</ele>
        <time>2020-07-27T09:31:39Z</time>
      </trkpt>
      <trkpt lat="42.9617390" lon="-0.2192550">
        <ele>986.8</ele>
        <time>2020-07-27T09:31:41Z</time>
      </trkpt>
      <trkpt lat="42.9616410" lon="-0.2192390">
        <ele>985.4</ele>
        <time>2020-07-27T09:31:42Z</time>
      </trkpt>
      <trkpt lat="42.9615400" lon="-0.2192380">
        <ele>984.4</ele>
        <time>2020-07-27T09:31:43Z</time>
      </trkpt>
      <trkpt lat="42.9613640" lon="-0.2193340">
        <ele>982.8</ele>
        <time>2020-07-27T09:31:45Z</time>
      </trkpt>
      <trkpt lat="42.9612550" lon="-0.2195760">
        <ele>982.0</ele>
        <time>2020-07-27T09:31:47Z</time>
      </trkpt>
      <trkpt lat="42.9612330" lon="-0.2197150">
        <ele>981.6</ele>
        <time>2020-07-27T09:31:48Z</time>
      </trkpt>
      <trkpt lat="42.9612470" lon="-0.2199900">
        <ele>979.6</ele>
        <time>2020-07-27T09:31:50Z</time>
      </trkpt>
      <trkpt lat="42.9612860" lon="-0.2202190">
        <ele>978.2</ele>
        <time>2020-07-27T09:31:52Z</time>
      </trkpt>
      <trkpt lat="42.9612930" lon="-0.2203200">
        <ele>977.8</ele>
        <time>2020-07-27T09:31:53Z</time>
      </trkpt>
      <trkpt lat="42.9612790" lon="-0.2204170">
        <ele>977.2</ele>
        <time>2020-07-27T09:31:54Z</time>
      </trkpt>
      <trkpt lat="42.9612460" lon="-0.2204920">
        <ele>976.2</ele>
        <time>2020-07-27T09:31:55Z</time>
      </trkpt>
      <trkpt lat="42.9611950" lon="-0.2205480">
        <ele>975.0</ele>
        <time>2020-07-27T09:31:56Z</time>
      </trkpt>
      <trkpt lat="42.9611430" lon="-0.2205690">
        <ele>973.8</ele>
        <time>2020-07-27T09:31:57Z</time>
      </trkpt>
      <trkpt lat="42.9611000" lon="-0.2205400">
        <ele>972.6</ele>
        <time>2020-07-27T09:31:58Z</time>
      </trkpt>
      <trkpt lat="42.9610080" lon="-0.2203860">
        <ele>970.6</ele>
        <time>2020-07-27T09:32:00Z</time>
      </trkpt>
      <trkpt lat="42.9609500" lon="-0.2201370">
        <ele>968.0</ele>
        <time>2020-07-27T09:32:02Z</time>
      </trkpt>
      <trkpt lat="42.9609270" lon="-0.2199970">
        <ele>967.4</ele>
        <time>2020-07-27T09:32:03Z</time>
      </trkpt>
      <trkpt lat="42.9608640" lon="-0.2197010">
        <ele>967.0</ele>
        <time>2020-07-27T09:32:05Z</time>
      </trkpt>
      <trkpt lat="42.9607940" lon="-0.2194320">
        <ele>965.2</ele>
        <time>2020-07-27T09:32:07Z</time>
      </trkpt>
      <trkpt lat="42.9607610" lon="-0.2193080">
        <ele>963.4</ele>
        <time>2020-07-27T09:32:08Z</time>
      </trkpt>
      <trkpt lat="42.9607430" lon="-0.2191790">
        <ele>962.6</ele>
        <time>2020-07-27T09:32:09Z</time>
      </trkpt>
      <trkpt lat="42.9607520" lon="-0.2190480">
        <ele>962.0</ele>
        <time>2020-07-27T09:32:10Z</time>
      </trkpt>
      <trkpt lat="42.9608530" lon="-0.2186110">
        <ele>961.0</ele>
        <time>2020-07-27T09:32:13Z</time>
      </trkpt>
      <trkpt lat="42.9608820" lon="-0.2184530">
        <ele>960.8</ele>
        <time>2020-07-27T09:32:14Z</time>
      </trkpt>
      <trkpt lat="42.9608710" lon="-0.2179660">
        <ele>960.0</ele>
        <time>2020-07-27T09:32:17Z</time>
      </trkpt>
      <trkpt lat="42.9608670" lon="-0.2177950">
        <ele>959.4</ele>
        <time>2020-07-27T09:32:18Z</time>
      </trkpt>
      <trkpt lat="42.9609100" lon="-0.2174480">
        <ele>957.6</ele>
        <time>2020-07-27T09:32:20Z</time>
      </trkpt>
      <trkpt lat="42.9609590" lon="-0.2170870">
        <ele>956.4</ele>
        <time>2020-07-27T09:32:22Z</time>
      </trkpt>
      <trkpt lat="42.9609670" lon="-0.2169000">
        <ele>955.2</ele>
        <time>2020-07-27T09:32:23Z</time>
      </trkpt>
      <trkpt lat="42.9609670" lon="-0.2167100">
        <ele>953.8</ele>
        <time>2020-07-27T09:32:24Z</time>
      </trkpt>
      <trkpt lat="42.9609670" lon="-0.2165170">
        <ele>952.8</ele>
        <time>2020-07-27T09:32:25Z</time>
      </trkpt>
      <trkpt lat="42.9609790" lon="-0.2161220">
        <ele>951.6</ele>
        <time>2020-07-27T09:32:27Z</time>
      </trkpt>
      <trkpt lat="42.9609890" lon="-0.2159240">
        <ele>950.4</ele>
        <time>2020-07-27T09:32:28Z</time>
      </trkpt>
      <trkpt lat="42.9610030" lon="-0.2157260">
        <ele>948.2</ele>
        <time>2020-07-27T09:32:29Z</time>
      </trkpt>
      <trkpt lat="42.9610190" lon="-0.2155280">
        <ele>947.0</ele>
        <time>2020-07-27T09:32:30Z</time>
      </trkpt>
      <trkpt lat="42.9610350" lon="-0.2153370">
        <ele>945.8</ele>
        <time>2020-07-27T09:32:31Z</time>
      </trkpt>
      <trkpt lat="42.9610480" lon="-0.2151440">
        <ele>944.6</ele>
        <time>2020-07-27T09:32:32Z</time>
      </trkpt>
      <trkpt lat="42.9610510" lon="-0.2149590">
        <ele>943.0</ele>
        <time>2020-07-27T09:32:33Z</time>
      </trkpt>
      <trkpt lat="42.9610400" lon="-0.2147820">
        <ele>941.2</ele>
        <time>2020-07-27T09:32:34Z</time>
      </trkpt>
      <trkpt lat="42.9610110" lon="-0.2146140">
        <ele>939.4</ele>
        <time>2020-07-27T09:32:35Z</time>
      </trkpt>
      <trkpt lat="42.9609620" lon="-0.2144560">
        <ele>938.0</ele>
        <time>2020-07-27T09:32:36Z</time>
      </trkpt>
      <trkpt lat="42.9608960" lon="-0.2143110">
        <ele>937.0</ele>
        <time>2020-07-27T09:32:37Z</time>
      </trkpt>
      <trkpt lat="42.9608150" lon="-0.2141940">
        <ele>936.2</ele>
        <time>2020-07-27T09:32:38Z</time>
      </trkpt>
      <trkpt lat="42.9607360" lon="-0.2140890">
        <ele>935.2</ele>
        <time>2020-07-27T09:32:39Z</time>
      </trkpt>
      <trkpt lat="42.9606710" lon="-0.2139760">
        <ele>934.0</ele>
        <time>2020-07-27T09:32:40Z</time>
      </trkpt>
      <trkpt lat="42.9606210" lon="-0.2138500">
        <ele>932.8</ele>
        <time>2020-07-27T09:32:41Z</time>
      </trkpt>
      <trkpt lat="42.9605890" lon="-0.2135600">
        <ele>930.8</ele>
        <time>2020-07-27T09:32:43Z</time>
      </trkpt>
      <trkpt lat="42.9606040" lon="-0.2134060">
        <ele>929.4</ele>
        <time>2020-07-27T09:32:44Z</time>
      </trkpt>
      <trkpt lat="42.9606240" lon="-0.2132390">
        <ele>928.6</ele>
        <time>2020-07-27T09:32:45Z</time>
      </trkpt>
      <trkpt lat="42.9606430" lon="-0.2130660">
        <ele>928.0</ele>
        <time>2020-07-27T09:32:46Z</time>
      </trkpt>
      <trkpt lat="42.9606540" lon="-0.2128860">
        <ele>927.4</ele>
        <time>2020-07-27T09:32:47Z</time>
      </trkpt>
      <trkpt lat="42.9606590" lon="-0.2125260">
        <ele>926.2</ele>
        <time>2020-07-27T09:32:49Z</time>
      </trkpt>
      <trkpt lat="42.9606590" lon="-0.2123430">
        <ele>925.2</ele>
        <time>2020-07-27T09:32:50Z</time>
      </trkpt>
      <trkpt lat="42.9606590" lon="-0.2121590">
        <ele>923.8</ele>
        <time>2020-07-27T09:32:51Z</time>
      </trkpt>
      <trkpt lat="42.9606600" lon="-0.2119780">
        <ele>922.2</ele>
        <time>2020-07-27T09:32:52Z</time>
      </trkpt>
      <trkpt lat="42.9606640" lon="-0.2118030">
        <ele>920.6</ele>
        <time>2020-07-27T09:32:53Z</time>
      </trkpt>
      <trkpt lat="42.9606690" lon="-0.2115020">
        <ele>919.2</ele>
        <time>2020-07-27T09:32:55Z</time>
      </trkpt>
      <trkpt lat="42.9606610" lon="-0.2113650">
        <ele>917.8</ele>
        <time>2020-07-27T09:32:56Z</time>
      </trkpt>
      <trkpt lat="42.9606300" lon="-0.2112540">
        <ele>916.6</ele>
        <time>2020-07-27T09:32:57Z</time>
      </trkpt>
      <trkpt lat="42.9605770" lon="-0.2111740">
        <ele>915.8</ele>
        <time>2020-07-27T09:32:58Z</time>
      </trkpt>
      <trkpt lat="42.9605150" lon="-0.2111150">
        <ele>914.6</ele>
        <time>2020-07-27T09:32:59Z</time>
      </trkpt>
      <trkpt lat="42.9604440" lon="-0.2111000">
        <ele>913.6</ele>
        <time>2020-07-27T09:33:00Z</time>
      </trkpt>
      <trkpt lat="42.9603650" lon="-0.2111570">
        <ele>912.6</ele>
        <time>2020-07-27T09:33:01Z</time>
      </trkpt>
      <trkpt lat="42.9602420" lon="-0.2113850">
        <ele>911.8</ele>
        <time>2020-07-27T09:33:03Z</time>
      </trkpt>
      <trkpt lat="42.9601930" lon="-0.2115230">
        <ele>911.4</ele>
        <time>2020-07-27T09:33:04Z</time>
      </trkpt>
      <trkpt lat="42.9601360" lon="-0.2116490">
        <ele>911.2</ele>
        <time>2020-07-27T09:33:05Z</time>
      </trkpt>
      <trkpt lat="42.9599780" lon="-0.2118860">
        <ele>910.2</ele>
        <time>2020-07-27T09:33:07Z</time>
      </trkpt>
      <trkpt lat="42.9597870" lon="-0.2121260">
        <ele>909.2</ele>
        <time>2020-07-27T09:33:09Z</time>
      </trkpt>
      <trkpt lat="42.9595800" lon="-0.2123630">
        <ele>907.6</ele>
        <time>2020-07-27T09:33:11Z</time>
      </trkpt>
      <trkpt lat="42.9594750" lon="-0.2124880">
        <ele>906.8</ele>
        <time>2020-07-27T09:33:12Z</time>
      </trkpt>
      <trkpt lat="42.9593770" lon="-0.2126210">
        <ele>905.6</ele>
        <time>2020-07-27T09:33:13Z</time>
      </trkpt>
      <trkpt lat="42.9592850" lon="-0.2127710">
        <ele>904.4</ele>
        <time>2020-07-27T09:33:14Z</time>
      </trkpt>
      <trkpt lat="42.9591920" lon="-0.2129220">
        <ele>903.4</ele>
        <time>2020-07-27T09:33:15Z</time>
      </trkpt>
      <trkpt lat="42.9590950" lon="-0.2130610">
        <ele>902.8</ele>
        <time>2020-07-27T09:33:16Z</time>
      </trkpt>
      <trkpt lat="42.9589940" lon="-0.2131830">
        <ele>901.6</ele>
        <time>2020-07-27T09:33:17Z</time>
      </trkpt>
      <trkpt lat="42.9588940" lon="-0.2132880">
        <ele>900.2</ele>
        <time>2020-07-27T09:33:18Z</time>
      </trkpt>
      <trkpt lat="42.9587990" lon="-0.2133860">
        <ele>899.0</ele>
        <time>2020-07-27T09:33:19Z</time>
      </trkpt>
      <trkpt lat="42.9587120" lon="-0.2134950">
        <ele>897.8</ele>
        <time>2020-07-27T09:33:20Z</time>
      </trkpt>
      <trkpt lat="42.9586420" lon="-0.2136230">
        <ele>896.6</ele>
        <time>2020-07-27T09:33:21Z</time>
      </trkpt>
      <trkpt lat="42.9585940" lon="-0.2137730">
        <ele>895.2</ele>
        <time>2020-07-27T09:33:22Z</time>
      </trkpt>
      <trkpt lat="42.9585700" lon="-0.2139320">
        <ele>892.8</ele>
        <time>2020-07-27T09:33:23Z</time>
      </trkpt>
      <trkpt lat="42.9585480" lon="-0.2140960">
        <ele>891.4</ele>
        <time>2020-07-27T09:33:24Z</time>
      </trkpt>
      <trkpt lat="42.9585090" lon="-0.2142570">
        <ele>890.4</ele>
        <time>2020-07-27T09:33:25Z</time>
      </trkpt>
      <trkpt lat="42.9584550" lon="-0.2144130">
        <ele>889.2</ele>
        <time>2020-07-27T09:33:26Z</time>
      </trkpt>
      <trkpt lat="42.9583240" lon="-0.2147060">
        <ele>888.2</ele>
        <time>2020-07-27T09:33:28Z</time>
      </trkpt>
      <trkpt lat="42.9581910" lon="-0.2149660">
        <ele>886.6</ele>
        <time>2020-07-27T09:33:30Z</time>
      </trkpt>
      <trkpt lat="42.9581140" lon="-0.2150780">
        <ele>885.6</ele>
        <time>2020-07-27T09:33:31Z</time>
      </trkpt>
      <trkpt lat="42.9580280" lon="-0.2151550">
        <ele>885.0</ele>
        <time>2020-07-27T09:33:32Z</time>
      </trkpt>
      <trkpt lat="42.9579240" lon="-0.2152210">
        <ele>884.0</ele>
        <time>2020-07-27T09:33:33Z</time>
      </trkpt>
      <trkpt lat="42.9578150" lon="-0.2152920">
        <ele>882.4</ele>
        <time>2020-07-27T09:33:34Z</time>
      </trkpt>
      <trkpt lat="42.9577130" lon="-0.2153670">
        <ele>880.6</ele>
        <time>2020-07-27T09:33:35Z</time>
      </trkpt>
      <trkpt lat="42.9576210" lon="-0.2154510">
        <ele>879.4</ele>
        <time>2020-07-27T09:33:36Z</time>
      </trkpt>
      <trkpt lat="42.9575360" lon="-0.2155370">
        <ele>878.6</ele>
        <time>2020-07-27T09:33:37Z</time>
      </trkpt>
      <trkpt lat="42.9574500" lon="-0.2156050">
        <ele>878.0</ele>
        <time>2020-07-27T09:33:38Z</time>
      </trkpt>
      <trkpt lat="42.9573730" lon="-0.2156280">
        <ele>877.6</ele>
        <time>2020-07-27T09:33:39Z</time>
      </trkpt>
      <trkpt lat="42.9572890" lon="-0.2156140">
        <ele>876.8</ele>
        <time>2020-07-27T09:33:40Z</time>
      </trkpt>
      <trkpt lat="42.9570890" lon="-0.2155510">
        <ele>875.0</ele>
        <time>2020-07-27T09:33:42Z</time>
      </trkpt>
      <trkpt lat="42.9568940" lon="-0.2154680">
        <ele>873.2</ele>
        <time>2020-07-27T09:33:44Z</time>
      </trkpt>
      <trkpt lat="42.9567120" lon="-0.2153380">
        <ele>871.8</ele>
        <time>2020-07-27T09:33:46Z</time>
      </trkpt>
      <trkpt lat="42.9565560" lon="-0.2151850">
        <ele>870.0</ele>
        <time>2020-07-27T09:33:48Z</time>
      </trkpt>
      <trkpt lat="42.9564380" lon="-0.2149910">
        <ele>867.2</ele>
        <time>2020-07-27T09:33:50Z</time>
      </trkpt>
      <trkpt lat="42.9563480" lon="-0.2147600">
        <ele>865.8</ele>
        <time>2020-07-27T09:33:52Z</time>
      </trkpt>
      <trkpt lat="42.9562600" lon="-0.2145250">
        <ele>865.0</ele>
        <time>2020-07-27T09:33:54Z</time>
      </trkpt>
      <trkpt lat="42.9562150" lon="-0.2144200">
        <ele>864.6</ele>
        <time>2020-07-27T09:33:55Z</time>
      </trkpt>
      <trkpt lat="42.9561780" lon="-0.2142180">
        <ele>864.2</ele>
        <time>2020-07-27T09:33:57Z</time>
      </trkpt>
      <trkpt lat="42.9561750" lon="-0.2141220">
        <ele>864.0</ele>
        <time>2020-07-27T09:33:58Z</time>
      </trkpt>
      <trkpt lat="42.9561780" lon="-0.2139220">
        <ele>863.4</ele>
        <time>2020-07-27T09:34:00Z</time>
      </trkpt>
      <trkpt lat="42.9561840" lon="-0.2138260">
        <ele>863.2</ele>
        <time>2020-07-27T09:34:01Z</time>
      </trkpt>
      <trkpt lat="42.9562050" lon="-0.2137220">
        <ele>863.0</ele>
        <time>2020-07-27T09:34:02Z</time>
      </trkpt>
      <trkpt lat="42.9563300" lon="-0.2134720">
        <ele>862.8</ele>
        <time>2020-07-27T09:34:05Z</time>
      </trkpt>
      <trkpt lat="42.9564390" lon="-0.2133170">
        <ele>862.6</ele>
        <time>2020-07-27T09:34:07Z</time>
      </trkpt>
      <trkpt lat="42.9565180" lon="-0.2131280">
        <ele>862.4</ele>
        <time>2020-07-27T09:34:09Z</time>
      </trkpt>
      <trkpt lat="42.9565510" lon="-0.2130220">
        <ele>862.2</ele>
        <time>2020-07-27T09:34:10Z</time>
      </trkpt>
      <trkpt lat="42.9566070" lon="-0.2128050">
        <ele>861.8</ele>
        <time>2020-07-27T09:34:12Z</time>
      </trkpt>
      <trkpt lat="42.9566430" lon="-0.2125740">
        <ele>861.8</ele>
        <time>2020-07-27T09:34:14Z</time>
      </trkpt>
      <trkpt lat="42.9566540" lon="-0.2124600">
        <ele>861.4</ele>
        <time>2020-07-27T09:34:15Z</time>
      </trkpt>
      <trkpt lat="42.9567140" lon="-0.2121130">
        <ele>860.8</ele>
        <time>2020-07-27T09:34:18Z</time>
      </trkpt>
      <trkpt lat="42.9567490" lon="-0.2120010">
        <ele>860.2</ele>
        <time>2020-07-27T09:34:19Z</time>
      </trkpt>
      <trkpt lat="42.9569000" lon="-0.2115610">
        <ele>859.2</ele>
        <time>2020-07-27T09:34:23Z</time>
      </trkpt>
      <trkpt lat="42.9570560" lon="-0.2111170">
        <ele>859.0</ele>
        <time>2020-07-27T09:34:27Z</time>
      </trkpt>
      <trkpt lat="42.9571840" lon="-0.2108030">
        <ele>858.8</ele>
        <time>2020-07-27T09:34:30Z</time>
      </trkpt>
      <trkpt lat="42.9572870" lon="-0.2106110">
        <ele>858.2</ele>
        <time>2020-07-27T09:34:32Z</time>
      </trkpt>
      <trkpt lat="42.9576330" lon="-0.2100420">
        <ele>857.4</ele>
        <time>2020-07-27T09:34:38Z</time>
      </trkpt>
      <trkpt lat="42.9577510" lon="-0.2098550">
        <ele>857.2</ele>
        <time>2020-07-27T09:34:40Z</time>
      </trkpt>
      <trkpt lat="42.9578690" lon="-0.2096690">
        <ele>857.2</ele>
        <time>2020-07-27T09:34:42Z</time>
      </trkpt>
      <trkpt lat="42.9580470" lon="-0.2093870">
        <ele>856.2</ele>
        <time>2020-07-27T09:34:45Z</time>
      </trkpt>
      <trkpt lat="42.9583920" lon="-0.2088180">
        <ele>855.4</ele>
        <time>2020-07-27T09:34:51Z</time>
      </trkpt>
      <trkpt lat="42.9587120" lon="-0.2082280">
        <ele>854.2</ele>
        <time>2020-07-27T09:34:57Z</time>
      </trkpt>
      <trkpt lat="42.9588150" lon="-0.2080260">
        <ele>854.0</ele>
        <time>2020-07-27T09:34:59Z</time>
      </trkpt>
      <trkpt lat="42.9590790" lon="-0.2075330">
        <ele>853.4</ele>
        <time>2020-07-27T09:35:04Z</time>
      </trkpt>
      <trkpt lat="42.9593540" lon="-0.2070670">
        <ele>852.8</ele>
        <time>2020-07-27T09:35:09Z</time>
      </trkpt>
      <trkpt lat="42.9594730" lon="-0.2068920">
        <ele>852.2</ele>
        <time>2020-07-27T09:35:11Z</time>
      </trkpt>
      <trkpt lat="42.9599000" lon="-0.2062960">
        <ele>851.6</ele>
        <time>2020-07-27T09:35:18Z</time>
      </trkpt>
      <trkpt lat="42.9599490" lon="-0.2061990">
        <ele>851.4</ele>
        <time>2020-07-27T09:35:19Z</time>
      </trkpt>
      <trkpt lat="42.9601320" lon="-0.2057980">
        <ele>850.8</ele>
        <time>2020-07-27T09:35:23Z</time>
      </trkpt>
      <trkpt lat="42.9602820" lon="-0.2053800">
        <ele>850.6</ele>
        <time>2020-07-27T09:35:27Z</time>
      </trkpt>
      <trkpt lat="42.9604250" lon="-0.2049710">
        <ele>850.0</ele>
        <time>2020-07-27T09:35:31Z</time>
      </trkpt>
      <trkpt lat="42.9606660" lon="-0.2042930">
        <ele>849.8</ele>
        <time>2020-07-27T09:35:38Z</time>
      </trkpt>
      <trkpt lat="42.9607290" lon="-0.2041060">
        <ele>849.8</ele>
        <time>2020-07-27T09:35:40Z</time>
      </trkpt>
      <trkpt lat="42.9609900" lon="-0.2034230">
        <ele>850.6</ele>
        <time>2020-07-27T09:35:48Z</time>
      </trkpt>
      <trkpt lat="42.9612910" lon="-0.2029060">
        <ele>850.8</ele>
        <time>2020-07-27T09:35:55Z</time>
      </trkpt>
      <trkpt lat="42.9616370" lon="-0.2025730">
        <ele>850.8</ele>
        <time>2020-07-27T09:36:01Z</time>
      </trkpt>
      <trkpt lat="42.9620290" lon="-0.2023520">
        <ele>850.8</ele>
        <time>2020-07-27T09:36:07Z</time>
      </trkpt>
      <trkpt lat="42.9625900" lon="-0.2020400">
        <ele>850.6</ele>
        <time>2020-07-27T09:36:15Z</time>
      </trkpt>
      <trkpt lat="42.9629810" lon="-0.2018230">
        <ele>850.0</ele>
        <time>2020-07-27T09:36:20Z</time>
      </trkpt>
      <trkpt lat="42.9631460" lon="-0.2017380">
        <ele>849.4</ele>
        <time>2020-07-27T09:36:22Z</time>
      </trkpt>
      <trkpt lat="42.9633120" lon="-0.2016590">
        <ele>848.8</ele>
        <time>2020-07-27T09:36:24Z</time>
      </trkpt>
      <trkpt lat="42.9635600" lon="-0.2015630">
        <ele>847.8</ele>
        <time>2020-07-27T09:36:27Z</time>
      </trkpt>
      <trkpt lat="42.9636460" lon="-0.2015460">
        <ele>847.4</ele>
        <time>2020-07-27T09:36:28Z</time>
      </trkpt>
      <trkpt lat="42.9639050" lon="-0.2015240">
        <ele>846.6</ele>
        <time>2020-07-27T09:36:31Z</time>
      </trkpt>
      <trkpt lat="42.9640740" lon="-0.2015480">
        <ele>846.2</ele>
        <time>2020-07-27T09:36:33Z</time>
      </trkpt>
      <trkpt lat="42.9643670" lon="-0.2016950">
        <ele>845.8</ele>
        <time>2020-07-27T09:36:37Z</time>
      </trkpt>
      <trkpt lat="42.9644940" lon="-0.2017780">
        <ele>845.8</ele>
        <time>2020-07-27T09:36:39Z</time>
      </trkpt>
      <trkpt lat="42.9646180" lon="-0.2018020">
        <ele>846.0</ele>
        <time>2020-07-27T09:36:41Z</time>
      </trkpt>
      <trkpt lat="42.9648540" lon="-0.2017290">
        <ele>846.0</ele>
        <time>2020-07-27T09:36:45Z</time>
      </trkpt>
      <trkpt lat="42.9650290" lon="-0.2016390">
        <ele>846.8</ele>
        <time>2020-07-27T09:36:48Z</time>
      </trkpt>
      <trkpt lat="42.9651590" lon="-0.2016310">
        <ele>847.0</ele>
        <time>2020-07-27T09:36:50Z</time>
      </trkpt>
      <trkpt lat="42.9652820" lon="-0.2016810">
        <ele>847.2</ele>
        <time>2020-07-27T09:36:52Z</time>
      </trkpt>
      <trkpt lat="42.9654180" lon="-0.2017470">
        <ele>847.4</ele>
        <time>2020-07-27T09:36:54Z</time>
      </trkpt>
      <trkpt lat="42.9657210" lon="-0.2019760">
        <ele>847.2</ele>
        <time>2020-07-27T09:36:59Z</time>
      </trkpt>
      <trkpt lat="42.9658340" lon="-0.2020730">
        <ele>847.2</ele>
        <time>2020-07-27T09:37:01Z</time>
      </trkpt>
      <trkpt lat="42.9659550" lon="-0.2021180">
        <ele>847.0</ele>
        <time>2020-07-27T09:37:03Z</time>
      </trkpt>
      <trkpt lat="42.9662050" lon="-0.2022430">
        <ele>847.0</ele>
        <time>2020-07-27T09:37:07Z</time>
      </trkpt>
      <trkpt lat="42.9662670" lon="-0.2022860">
        <ele>847.0</ele>
        <time>2020-07-27T09:37:08Z</time>
      </trkpt>
      <trkpt lat="42.9665190" lon="-0.2024320">
        <ele>847.0</ele>
        <time>2020-07-27T09:37:12Z</time>
      </trkpt>
      <trkpt lat="42.9666560" lon="-0.2024520">
        <ele>847.0</ele>
        <time>2020-07-27T09:37:14Z</time>
      </trkpt>
      <trkpt lat="42.9671320" lon="-0.2023860">
        <ele>846.6</ele>
        <time>2020-07-27T09:37:21Z</time>
      </trkpt>
      <trkpt lat="42.9672710" lon="-0.2023470">
        <ele>846.4</ele>
        <time>2020-07-27T09:37:23Z</time>
      </trkpt>
      <trkpt lat="42.9676040" lon="-0.2022020">
        <ele>846.0</ele>
        <time>2020-07-27T09:37:28Z</time>
      </trkpt>
      <trkpt lat="42.9681030" lon="-0.2019040">
        <ele>845.8</ele>
        <time>2020-07-27T09:37:36Z</time>
      </trkpt>
      <trkpt lat="42.9684700" lon="-0.2015270">
        <ele>846.2</ele>
        <time>2020-07-27T09:37:43Z</time>
      </trkpt>
      <trkpt lat="42.9688510" lon="-0.2010360">
        <ele>846.2</ele>
        <time>2020-07-27T09:37:50Z</time>
      </trkpt>
      <trkpt lat="42.9691580" lon="-0.2006350">
        <ele>845.6</ele>
        <time>2020-07-27T09:37:55Z</time>
      </trkpt>
      <trkpt lat="42.9693420" lon="-0.2003790">
        <ele>845.0</ele>
        <time>2020-07-27T09:37:58Z</time>
      </trkpt>
      <trkpt lat="42.9693990" lon="-0.2002880">
        <ele>844.8</ele>
        <time>2020-07-27T09:37:59Z</time>
      </trkpt>
      <trkpt lat="42.9695510" lon="-0.1999950">
        <ele>843.6</ele>
        <time>2020-07-27T09:38:02Z</time>
      </trkpt>
      <trkpt lat="42.9695960" lon="-0.1998870">
        <ele>843.4</ele>
        <time>2020-07-27T09:38:03Z</time>
      </trkpt>
      <trkpt lat="42.9696790" lon="-0.1996570">
        <ele>842.6</ele>
        <time>2020-07-27T09:38:05Z</time>
      </trkpt>
      <trkpt lat="42.9698000" lon="-0.1993040">
        <ele>841.2</ele>
        <time>2020-07-27T09:38:08Z</time>
      </trkpt>
      <trkpt lat="42.9698820" lon="-0.1990720">
        <ele>841.0</ele>
        <time>2020-07-27T09:38:10Z</time>
      </trkpt>
      <trkpt lat="42.9699620" lon="-0.1988490">
        <ele>840.0</ele>
        <time>2020-07-27T09:38:12Z</time>
      </trkpt>
      <trkpt lat="42.9701250" lon="-0.1984370">
        <ele>838.6</ele>
        <time>2020-07-27T09:38:16Z</time>
      </trkpt>
      <trkpt lat="42.9701660" lon="-0.1983440">
        <ele>838.2</ele>
        <time>2020-07-27T09:38:17Z</time>
      </trkpt>
      <trkpt lat="42.9703960" lon="-0.1979630">
        <ele>838.0</ele>
        <time>2020-07-27T09:38:22Z</time>
      </trkpt>
      <trkpt lat="42.9707660" lon="-0.1974830">
        <ele>839.0</ele>
        <time>2020-07-27T09:38:30Z</time>
      </trkpt>
      <trkpt lat="42.9708920" lon="-0.1973200">
        <ele>840.0</ele>
        <time>2020-07-27T09:38:33Z</time>
      </trkpt>
      <trkpt lat="42.9711010" lon="-0.1970550">
        <ele>841.2</ele>
        <time>2020-07-27T09:38:38Z</time>
      </trkpt>
      <trkpt lat="42.9711410" lon="-0.1970010">
        <ele>841.4</ele>
        <time>2020-07-27T09:38:39Z</time>
      </trkpt>
      <trkpt lat="42.9713990" lon="-0.1966030">
        <ele>842.0</ele>
        <time>2020-07-27T09:38:46Z</time>
      </trkpt>
      <trkpt lat="42.9714360" lon="-0.1965500">
        <ele>842.2</ele>
        <time>2020-07-27T09:38:47Z</time>
      </trkpt>
      <trkpt lat="42.9716910" lon="-0.1962030">
        <ele>843.2</ele>
        <time>2020-07-27T09:38:54Z</time>
      </trkpt>
      <trkpt lat="42.9717590" lon="-0.1961040">
        <ele>843.6</ele>
        <time>2020-07-27T09:38:56Z</time>
      </trkpt>
      <trkpt lat="42.9719490" lon="-0.1958190">
        <ele>844.2</ele>
        <time>2020-07-27T09:39:02Z</time>
      </trkpt>
      <trkpt lat="42.9720960" lon="-0.1955860">
        <ele>845.0</ele>
        <time>2020-07-27T09:39:07Z</time>
      </trkpt>
      <trkpt lat="42.9721510" lon="-0.1954950">
        <ele>845.4</ele>
        <time>2020-07-27T09:39:09Z</time>
      </trkpt>
      <trkpt lat="42.9722400" lon="-0.1953540">
        <ele>846.0</ele>
        <time>2020-07-27T09:39:12Z</time>
      </trkpt>
      <trkpt lat="42.9723530" lon="-0.1951690">
        <ele>846.8</ele>
        <time>2020-07-27T09:39:16Z</time>
      </trkpt>
      <trkpt lat="42.9724070" lon="-0.1950810">
        <ele>847.2</ele>
        <time>2020-07-27T09:39:18Z</time>
      </trkpt>
      <trkpt lat="42.9725260" lon="-0.1949040">
        <ele>848.4</ele>
        <time>2020-07-27T09:39:22Z</time>
      </trkpt>
      <trkpt lat="42.9725900" lon="-0.1948110">
        <ele>848.8</ele>
        <time>2020-07-27T09:39:24Z</time>
      </trkpt>
      <trkpt lat="42.9726430" lon="-0.1947170">
        <ele>848.8</ele>
        <time>2020-07-27T09:39:26Z</time>
      </trkpt>
      <trkpt lat="42.9727190" lon="-0.1945770">
        <ele>849.2</ele>
        <time>2020-07-27T09:39:29Z</time>
      </trkpt>
      <trkpt lat="42.9727730" lon="-0.1944860">
        <ele>849.6</ele>
        <time>2020-07-27T09:39:31Z</time>
      </trkpt>
      <trkpt lat="42.9728710" lon="-0.1942430">
        <ele>850.6</ele>
        <time>2020-07-27T09:39:36Z</time>
      </trkpt>
      <trkpt lat="42.9729320" lon="-0.1939880">
        <ele>852.0</ele>
        <time>2020-07-27T09:39:41Z</time>
      </trkpt>
      <trkpt lat="42.9729640" lon="-0.1938250">
        <ele>852.6</ele>
        <time>2020-07-27T09:39:44Z</time>
      </trkpt>
      <trkpt lat="42.9730190" lon="-0.1935890">
        <ele>852.8</ele>
        <time>2020-07-27T09:39:48Z</time>
      </trkpt>
      <trkpt lat="42.9730640" lon="-0.1934820">
        <ele>853.2</ele>
        <time>2020-07-27T09:39:50Z</time>
      </trkpt>
      <trkpt lat="42.9730940" lon="-0.1934320">
        <ele>853.2</ele>
        <time>2020-07-27T09:39:51Z</time>
      </trkpt>
      <trkpt lat="42.9731250" lon="-0.1933870">
        <ele>853.2</ele>
        <time>2020-07-27T09:39:52Z</time>
      </trkpt>
      <trkpt lat="42.9732920" lon="-0.1931100">
        <ele>853.8</ele>
        <time>2020-07-27T09:39:58Z</time>
      </trkpt>
      <trkpt lat="42.9734000" lon="-0.1927830">
        <ele>854.0</ele>
        <time>2020-07-27T09:40:03Z</time>
      </trkpt>
      <trkpt lat="42.9735440" lon="-0.1925700">
        <ele>854.4</ele>
        <time>2020-07-27T09:40:07Z</time>
      </trkpt>
      <trkpt lat="42.9737750" lon="-0.1923130">
        <ele>854.6</ele>
        <time>2020-07-27T09:40:13Z</time>
      </trkpt>
      <trkpt lat="42.9739830" lon="-0.1920180">
        <ele>854.2</ele>
        <time>2020-07-27T09:40:18Z</time>
      </trkpt>
      <trkpt lat="42.9741780" lon="-0.1916110">
        <ele>854.2</ele>
        <time>2020-07-27T09:40:23Z</time>
      </trkpt>
      <trkpt lat="42.9740340" lon="-0.1919990">
        <ele>855.4</ele>
        <time>2020-07-27T09:43:47Z</time>
      </trkpt>
      <trkpt lat="42.9741080" lon="-0.1918150">
        <ele>855.2</ele>
        <time>2020-07-27T09:43:50Z</time>
      </trkpt>
      <trkpt lat="42.9741360" lon="-0.1917390">
        <ele>855.0</ele>
        <time>2020-07-27T09:43:51Z</time>
      </trkpt>
      <trkpt lat="42.9742280" lon="-0.1914940">
        <ele>854.4</ele>
        <time>2020-07-27T09:43:54Z</time>
      </trkpt>
      <trkpt lat="42.9743390" lon="-0.1912340">
        <ele>853.8</ele>
        <time>2020-07-27T09:43:57Z</time>
      </trkpt>
      <trkpt lat="42.9744200" lon="-0.1910510">
        <ele>852.8</ele>
        <time>2020-07-27T09:43:59Z</time>
      </trkpt>
      <trkpt lat="42.9745230" lon="-0.1907450">
        <ele>851.6</ele>
        <time>2020-07-27T09:44:02Z</time>
      </trkpt>
      <trkpt lat="42.9745890" lon="-0.1903890">
        <ele>850.4</ele>
        <time>2020-07-27T09:44:05Z</time>
      </trkpt>
      <trkpt lat="42.9746370" lon="-0.1901370">
        <ele>849.8</ele>
        <time>2020-07-27T09:44:07Z</time>
      </trkpt>
      <trkpt lat="42.9746880" lon="-0.1898820">
        <ele>849.4</ele>
        <time>2020-07-27T09:44:09Z</time>
      </trkpt>
      <trkpt lat="42.9747530" lon="-0.1896220">
        <ele>848.2</ele>
        <time>2020-07-27T09:44:11Z</time>
      </trkpt>
      <trkpt lat="42.9747830" lon="-0.1894880">
        <ele>847.6</ele>
        <time>2020-07-27T09:44:12Z</time>
      </trkpt>
      <trkpt lat="42.9748030" lon="-0.1893510">
        <ele>846.8</ele>
        <time>2020-07-27T09:44:13Z</time>
      </trkpt>
      <trkpt lat="42.9748110" lon="-0.1890660">
        <ele>845.2</ele>
        <time>2020-07-27T09:44:15Z</time>
      </trkpt>
      <trkpt lat="42.9747740" lon="-0.1887780">
        <ele>843.6</ele>
        <time>2020-07-27T09:44:17Z</time>
      </trkpt>
      <trkpt lat="42.9747420" lon="-0.1886380">
        <ele>842.6</ele>
        <time>2020-07-27T09:44:18Z</time>
      </trkpt>
      <trkpt lat="42.9747030" lon="-0.1885070">
        <ele>841.8</ele>
        <time>2020-07-27T09:44:19Z</time>
      </trkpt>
      <trkpt lat="42.9746220" lon="-0.1882330">
        <ele>840.4</ele>
        <time>2020-07-27T09:44:21Z</time>
      </trkpt>
      <trkpt lat="42.9745850" lon="-0.1880970">
        <ele>839.6</ele>
        <time>2020-07-27T09:44:22Z</time>
      </trkpt>
      <trkpt lat="42.9745600" lon="-0.1879550">
        <ele>839.0</ele>
        <time>2020-07-27T09:44:23Z</time>
      </trkpt>
      <trkpt lat="42.9745580" lon="-0.1876720">
        <ele>837.2</ele>
        <time>2020-07-27T09:44:25Z</time>
      </trkpt>
      <trkpt lat="42.9745850" lon="-0.1875410">
        <ele>836.0</ele>
        <time>2020-07-27T09:44:26Z</time>
      </trkpt>
      <trkpt lat="42.9746930" lon="-0.1873110">
        <ele>835.2</ele>
        <time>2020-07-27T09:44:28Z</time>
      </trkpt>
      <trkpt lat="42.9747600" lon="-0.1872130">
        <ele>835.0</ele>
        <time>2020-07-27T09:44:29Z</time>
      </trkpt>
      <trkpt lat="42.9748760" lon="-0.1870050">
        <ele>834.6</ele>
        <time>2020-07-27T09:44:31Z</time>
      </trkpt>
      <trkpt lat="42.9749180" lon="-0.1868840">
        <ele>834.4</ele>
        <time>2020-07-27T09:44:32Z</time>
      </trkpt>
      <trkpt lat="42.9750200" lon="-0.1863410">
        <ele>834.0</ele>
        <time>2020-07-27T09:44:36Z</time>
      </trkpt>
      <trkpt lat="42.9750850" lon="-0.1860640">
        <ele>834.0</ele>
        <time>2020-07-27T09:44:38Z</time>
      </trkpt>
      <trkpt lat="42.9751900" lon="-0.1858120">
        <ele>833.8</ele>
        <time>2020-07-27T09:44:40Z</time>
      </trkpt>
      <trkpt lat="42.9754120" lon="-0.1854910">
        <ele>833.2</ele>
        <time>2020-07-27T09:44:43Z</time>
      </trkpt>
      <trkpt lat="42.9754910" lon="-0.1853920">
        <ele>832.6</ele>
        <time>2020-07-27T09:44:44Z</time>
      </trkpt>
      <trkpt lat="42.9755790" lon="-0.1852700">
        <ele>831.8</ele>
        <time>2020-07-27T09:44:45Z</time>
      </trkpt>
      <trkpt lat="42.9756600" lon="-0.1851400">
        <ele>830.8</ele>
        <time>2020-07-27T09:44:46Z</time>
      </trkpt>
      <trkpt lat="42.9757700" lon="-0.1848940">
        <ele>829.4</ele>
        <time>2020-07-27T09:44:48Z</time>
      </trkpt>
      <trkpt lat="42.9758120" lon="-0.1847660">
        <ele>829.2</ele>
        <time>2020-07-27T09:44:49Z</time>
      </trkpt>
      <trkpt lat="42.9758490" lon="-0.1846390">
        <ele>829.0</ele>
        <time>2020-07-27T09:44:50Z</time>
      </trkpt>
      <trkpt lat="42.9759420" lon="-0.1842710">
        <ele>828.2</ele>
        <time>2020-07-27T09:44:53Z</time>
      </trkpt>
      <trkpt lat="42.9759750" lon="-0.1841530">
        <ele>827.8</ele>
        <time>2020-07-27T09:44:54Z</time>
      </trkpt>
      <trkpt lat="42.9762020" lon="-0.1834960">
        <ele>827.8</ele>
        <time>2020-07-27T09:45:00Z</time>
      </trkpt>
      <trkpt lat="42.9764220" lon="-0.1827850">
        <ele>828.6</ele>
        <time>2020-07-27T09:45:07Z</time>
      </trkpt>
      <trkpt lat="42.9766500" lon="-0.1821710">
        <ele>829.4</ele>
        <time>2020-07-27T09:45:13Z</time>
      </trkpt>
      <trkpt lat="42.9769750" lon="-0.1814830">
        <ele>829.4</ele>
        <time>2020-07-27T09:45:20Z</time>
      </trkpt>
      <trkpt lat="42.9772750" lon="-0.1809260">
        <ele>829.0</ele>
        <time>2020-07-27T09:45:26Z</time>
      </trkpt>
      <trkpt lat="42.9774230" lon="-0.1806320">
        <ele>828.8</ele>
        <time>2020-07-27T09:45:29Z</time>
      </trkpt>
      <trkpt lat="42.9774780" lon="-0.1804080">
        <ele>828.8</ele>
        <time>2020-07-27T09:45:31Z</time>
      </trkpt>
      <trkpt lat="42.9775060" lon="-0.1801710">
        <ele>828.6</ele>
        <time>2020-07-27T09:45:33Z</time>
      </trkpt>
      <trkpt lat="42.9775620" lon="-0.1796630">
        <ele>828.4</ele>
        <time>2020-07-27T09:45:37Z</time>
      </trkpt>
      <trkpt lat="42.9776450" lon="-0.1789920">
        <ele>827.8</ele>
        <time>2020-07-27T09:45:42Z</time>
      </trkpt>
      <trkpt lat="42.9776930" lon="-0.1787200">
        <ele>826.8</ele>
        <time>2020-07-27T09:45:44Z</time>
      </trkpt>
      <trkpt lat="42.9777200" lon="-0.1785880">
        <ele>826.0</ele>
        <time>2020-07-27T09:45:45Z</time>
      </trkpt>
      <trkpt lat="42.9778080" lon="-0.1781870">
        <ele>824.0</ele>
        <time>2020-07-27T09:45:48Z</time>
      </trkpt>
      <trkpt lat="42.9779120" lon="-0.1776270">
        <ele>823.0</ele>
        <time>2020-07-27T09:45:52Z</time>
      </trkpt>
      <trkpt lat="42.9779890" lon="-0.1771990">
        <ele>822.4</ele>
        <time>2020-07-27T09:45:55Z</time>
      </trkpt>
      <trkpt lat="42.9780290" lon="-0.1770630">
        <ele>822.0</ele>
        <time>2020-07-27T09:45:56Z</time>
      </trkpt>
      <trkpt lat="42.9780780" lon="-0.1769350">
        <ele>821.6</ele>
        <time>2020-07-27T09:45:57Z</time>
      </trkpt>
      <trkpt lat="42.9781800" lon="-0.1766790">
        <ele>820.6</ele>
        <time>2020-07-27T09:45:59Z</time>
      </trkpt>
      <trkpt lat="42.9782530" lon="-0.1764120">
        <ele>819.8</ele>
        <time>2020-07-27T09:46:01Z</time>
      </trkpt>
      <trkpt lat="42.9782750" lon="-0.1762710">
        <ele>819.4</ele>
        <time>2020-07-27T09:46:02Z</time>
      </trkpt>
      <trkpt lat="42.9783010" lon="-0.1758350">
        <ele>818.4</ele>
        <time>2020-07-27T09:46:05Z</time>
      </trkpt>
      <trkpt lat="42.9782960" lon="-0.1753980">
        <ele>817.6</ele>
        <time>2020-07-27T09:46:08Z</time>
      </trkpt>
      <trkpt lat="42.9782650" lon="-0.1751140">
        <ele>817.2</ele>
        <time>2020-07-27T09:46:10Z</time>
      </trkpt>
      <trkpt lat="42.9782340" lon="-0.1746920">
        <ele>816.2</ele>
        <time>2020-07-27T09:46:13Z</time>
      </trkpt>
      <trkpt lat="42.9782400" lon="-0.1742650">
        <ele>815.0</ele>
        <time>2020-07-27T09:46:16Z</time>
      </trkpt>
      <trkpt lat="42.9782440" lon="-0.1736810">
        <ele>814.6</ele>
        <time>2020-07-27T09:46:21Z</time>
      </trkpt>
      <trkpt lat="42.9782610" lon="-0.1731490">
        <ele>815.6</ele>
        <time>2020-07-27T09:46:27Z</time>
      </trkpt>
      <trkpt lat="42.9782810" lon="-0.1729980">
        <ele>816.4</ele>
        <time>2020-07-27T09:46:29Z</time>
      </trkpt>
      <trkpt lat="42.9783070" lon="-0.1728520">
        <ele>817.6</ele>
        <time>2020-07-27T09:46:31Z</time>
      </trkpt>
      <trkpt lat="42.9783400" lon="-0.1727040">
        <ele>819.0</ele>
        <time>2020-07-27T09:46:33Z</time>
      </trkpt>
      <trkpt lat="42.9784060" lon="-0.1725030">
        <ele>820.2</ele>
        <time>2020-07-27T09:46:36Z</time>
      </trkpt>
      <trkpt lat="42.9784970" lon="-0.1722720">
        <ele>821.4</ele>
        <time>2020-07-27T09:46:40Z</time>
      </trkpt>
      <trkpt lat="42.9785940" lon="-0.1720440">
        <ele>822.4</ele>
        <time>2020-07-27T09:46:44Z</time>
      </trkpt>
      <trkpt lat="42.9786470" lon="-0.1719330">
        <ele>822.8</ele>
        <time>2020-07-27T09:46:46Z</time>
      </trkpt>
      <trkpt lat="42.9787500" lon="-0.1717040">
        <ele>823.8</ele>
        <time>2020-07-27T09:46:50Z</time>
      </trkpt>
      <trkpt lat="42.9788840" lon="-0.1713580">
        <ele>825.0</ele>
        <time>2020-07-27T09:46:56Z</time>
      </trkpt>
      <trkpt lat="42.9789070" lon="-0.1712970">
        <ele>825.2</ele>
        <time>2020-07-27T09:46:57Z</time>
      </trkpt>
      <trkpt lat="42.9789690" lon="-0.1711000">
        <ele>826.0</ele>
        <time>2020-07-27T09:47:00Z</time>
      </trkpt>
      <trkpt lat="42.9790110" lon="-0.1708760">
        <ele>826.4</ele>
        <time>2020-07-27T09:47:03Z</time>
      </trkpt>
      <trkpt lat="42.9790400" lon="-0.1704030">
        <ele>826.6</ele>
        <time>2020-07-27T09:47:09Z</time>
      </trkpt>
      <trkpt lat="42.9791140" lon="-0.1700010">
        <ele>826.8</ele>
        <time>2020-07-27T09:47:15Z</time>
      </trkpt>
      <trkpt lat="42.9792700" lon="-0.1696470">
        <ele>827.4</ele>
        <time>2020-07-27T09:47:21Z</time>
      </trkpt>
      <trkpt lat="42.9792990" lon="-0.1695930">
        <ele>827.6</ele>
        <time>2020-07-27T09:47:22Z</time>
      </trkpt>
      <trkpt lat="42.9793540" lon="-0.1694850">
        <ele>827.8</ele>
        <time>2020-07-27T09:47:24Z</time>
      </trkpt>
      <trkpt lat="42.9794390" lon="-0.1692580">
        <ele>828.4</ele>
        <time>2020-07-27T09:47:28Z</time>
      </trkpt>
      <trkpt lat="42.9794560" lon="-0.1691980">
        <ele>828.6</ele>
        <time>2020-07-27T09:47:29Z</time>
      </trkpt>
      <trkpt lat="42.9795800" lon="-0.1687460">
        <ele>829.8</ele>
        <time>2020-07-27T09:47:36Z</time>
      </trkpt>
      <trkpt lat="42.9795970" lon="-0.1686750">
        <ele>830.0</ele>
        <time>2020-07-27T09:47:37Z</time>
      </trkpt>
      <trkpt lat="42.9797460" lon="-0.1681010">
        <ele>830.4</ele>
        <time>2020-07-27T09:47:44Z</time>
      </trkpt>
      <trkpt lat="42.9798080" lon="-0.1677970">
        <ele>830.2</ele>
        <time>2020-07-27T09:47:47Z</time>
      </trkpt>
      <trkpt lat="42.9798170" lon="-0.1675690">
        <ele>829.6</ele>
        <time>2020-07-27T09:47:49Z</time>
      </trkpt>
      <trkpt lat="42.9798000" lon="-0.1672060">
        <ele>828.8</ele>
        <time>2020-07-27T09:47:52Z</time>
      </trkpt>
      <trkpt lat="42.9797780" lon="-0.1666930">
        <ele>827.4</ele>
        <time>2020-07-27T09:47:56Z</time>
      </trkpt>
      <trkpt lat="42.9797740" lon="-0.1664260">
        <ele>826.2</ele>
        <time>2020-07-27T09:47:58Z</time>
      </trkpt>
      <trkpt lat="42.9797550" lon="-0.1659850">
        <ele>824.8</ele>
        <time>2020-07-27T09:48:01Z</time>
      </trkpt>
      <trkpt lat="42.9797390" lon="-0.1658250">
        <ele>823.8</ele>
        <time>2020-07-27T09:48:02Z</time>
      </trkpt>
      <trkpt lat="42.9797200" lon="-0.1656610">
        <ele>823.2</ele>
        <time>2020-07-27T09:48:03Z</time>
      </trkpt>
      <trkpt lat="42.9796820" lon="-0.1653230">
        <ele>822.0</ele>
        <time>2020-07-27T09:48:05Z</time>
      </trkpt>
      <trkpt lat="42.9796780" lon="-0.1649760">
        <ele>820.8</ele>
        <time>2020-07-27T09:48:07Z</time>
      </trkpt>
      <trkpt lat="42.9797010" lon="-0.1646390">
        <ele>819.0</ele>
        <time>2020-07-27T09:48:09Z</time>
      </trkpt>
      <trkpt lat="42.9797150" lon="-0.1644750">
        <ele>817.6</ele>
        <time>2020-07-27T09:48:10Z</time>
      </trkpt>
      <trkpt lat="42.9797290" lon="-0.1643140">
        <ele>816.4</ele>
        <time>2020-07-27T09:48:11Z</time>
      </trkpt>
      <trkpt lat="42.9797420" lon="-0.1641560">
        <ele>815.4</ele>
        <time>2020-07-27T09:48:12Z</time>
      </trkpt>
      <trkpt lat="42.9797540" lon="-0.1640030">
        <ele>814.2</ele>
        <time>2020-07-27T09:48:13Z</time>
      </trkpt>
      <trkpt lat="42.9797660" lon="-0.1638540">
        <ele>813.0</ele>
        <time>2020-07-27T09:48:14Z</time>
      </trkpt>
      <trkpt lat="42.9797760" lon="-0.1637060">
        <ele>811.8</ele>
        <time>2020-07-27T09:48:15Z</time>
      </trkpt>
      <trkpt lat="42.9797760" lon="-0.1635610">
        <ele>811.0</ele>
        <time>2020-07-27T09:48:16Z</time>
      </trkpt>
      <trkpt lat="42.9797670" lon="-0.1634170">
        <ele>810.6</ele>
        <time>2020-07-27T09:48:17Z</time>
      </trkpt>
      <trkpt lat="42.9797490" lon="-0.1632740">
        <ele>810.4</ele>
        <time>2020-07-27T09:48:18Z</time>
      </trkpt>
      <trkpt lat="42.9796190" lon="-0.1624280">
        <ele>810.0</ele>
        <time>2020-07-27T09:48:24Z</time>
      </trkpt>
      <trkpt lat="42.9796070" lon="-0.1622840">
        <ele>809.8</ele>
        <time>2020-07-27T09:48:25Z</time>
      </trkpt>
      <trkpt lat="42.9796050" lon="-0.1621380">
        <ele>809.6</ele>
        <time>2020-07-27T09:48:26Z</time>
      </trkpt>
      <trkpt lat="42.9796330" lon="-0.1617000">
        <ele>809.2</ele>
        <time>2020-07-27T09:48:29Z</time>
      </trkpt>
      <trkpt lat="42.9796590" lon="-0.1614070">
        <ele>808.6</ele>
        <time>2020-07-27T09:48:31Z</time>
      </trkpt>
      <trkpt lat="42.9796960" lon="-0.1609570">
        <ele>807.0</ele>
        <time>2020-07-27T09:48:34Z</time>
      </trkpt>
      <trkpt lat="42.9797220" lon="-0.1606410">
        <ele>806.2</ele>
        <time>2020-07-27T09:48:36Z</time>
      </trkpt>
      <trkpt lat="42.9797350" lon="-0.1604810">
        <ele>805.4</ele>
        <time>2020-07-27T09:48:37Z</time>
      </trkpt>
      <trkpt lat="42.9797560" lon="-0.1601530">
        <ele>804.2</ele>
        <time>2020-07-27T09:48:39Z</time>
      </trkpt>
      <trkpt lat="42.9797990" lon="-0.1596420">
        <ele>802.8</ele>
        <time>2020-07-27T09:48:42Z</time>
      </trkpt>
      <trkpt lat="42.9798650" lon="-0.1592920">
        <ele>800.8</ele>
        <time>2020-07-27T09:48:44Z</time>
      </trkpt>
      <trkpt lat="42.9799560" lon="-0.1589400">
        <ele>799.0</ele>
        <time>2020-07-27T09:48:46Z</time>
      </trkpt>
      <trkpt lat="42.9800450" lon="-0.1585760">
        <ele>797.4</ele>
        <time>2020-07-27T09:48:48Z</time>
      </trkpt>
      <trkpt lat="42.9800840" lon="-0.1583920">
        <ele>796.0</ele>
        <time>2020-07-27T09:48:49Z</time>
      </trkpt>
      <trkpt lat="42.9801210" lon="-0.1582080">
        <ele>794.8</ele>
        <time>2020-07-27T09:48:50Z</time>
      </trkpt>
      <trkpt lat="42.9801580" lon="-0.1580240">
        <ele>793.6</ele>
        <time>2020-07-27T09:48:51Z</time>
      </trkpt>
      <trkpt lat="42.9801950" lon="-0.1578400">
        <ele>792.2</ele>
        <time>2020-07-27T09:48:52Z</time>
      </trkpt>
      <trkpt lat="42.9802340" lon="-0.1576550">
        <ele>790.8</ele>
        <time>2020-07-27T09:48:53Z</time>
      </trkpt>
      <trkpt lat="42.9802730" lon="-0.1574700">
        <ele>789.4</ele>
        <time>2020-07-27T09:48:54Z</time>
      </trkpt>
      <trkpt lat="42.9803130" lon="-0.1572860">
        <ele>788.4</ele>
        <time>2020-07-27T09:48:55Z</time>
      </trkpt>
      <trkpt lat="42.9803530" lon="-0.1571050">
        <ele>787.2</ele>
        <time>2020-07-27T09:48:56Z</time>
      </trkpt>
      <trkpt lat="42.9803930" lon="-0.1569240">
        <ele>785.8</ele>
        <time>2020-07-27T09:48:57Z</time>
      </trkpt>
      <trkpt lat="42.9804330" lon="-0.1567430">
        <ele>784.6</ele>
        <time>2020-07-27T09:48:58Z</time>
      </trkpt>
      <trkpt lat="42.9804720" lon="-0.1565620">
        <ele>783.0</ele>
        <time>2020-07-27T09:48:59Z</time>
      </trkpt>
      <trkpt lat="42.9805470" lon="-0.1562080">
        <ele>781.4</ele>
        <time>2020-07-27T09:49:01Z</time>
      </trkpt>
      <trkpt lat="42.9806200" lon="-0.1558600">
        <ele>779.8</ele>
        <time>2020-07-27T09:49:03Z</time>
      </trkpt>
      <trkpt lat="42.9806920" lon="-0.1555190">
        <ele>778.4</ele>
        <time>2020-07-27T09:49:05Z</time>
      </trkpt>
      <trkpt lat="42.9807630" lon="-0.1551850">
        <ele>776.8</ele>
        <time>2020-07-27T09:49:07Z</time>
      </trkpt>
      <trkpt lat="42.9808340" lon="-0.1548560">
        <ele>775.6</ele>
        <time>2020-07-27T09:49:09Z</time>
      </trkpt>
      <trkpt lat="42.9809630" lon="-0.1543830">
        <ele>774.4</ele>
        <time>2020-07-27T09:49:12Z</time>
      </trkpt>
      <trkpt lat="42.9810760" lon="-0.1540860">
        <ele>773.2</ele>
        <time>2020-07-27T09:49:14Z</time>
      </trkpt>
      <trkpt lat="42.9812880" lon="-0.1536750">
        <ele>772.0</ele>
        <time>2020-07-27T09:49:17Z</time>
      </trkpt>
      <trkpt lat="42.9814360" lon="-0.1534130">
        <ele>771.6</ele>
        <time>2020-07-27T09:49:19Z</time>
      </trkpt>
      <trkpt lat="42.9816520" lon="-0.1530160">
        <ele>771.0</ele>
        <time>2020-07-27T09:49:22Z</time>
      </trkpt>
      <trkpt lat="42.9819500" lon="-0.1524960">
        <ele>769.6</ele>
        <time>2020-07-27T09:49:26Z</time>
      </trkpt>
      <trkpt lat="42.9821000" lon="-0.1522330">
        <ele>768.4</ele>
        <time>2020-07-27T09:49:28Z</time>
      </trkpt>
      <trkpt lat="42.9823890" lon="-0.1516670">
        <ele>767.6</ele>
        <time>2020-07-27T09:49:32Z</time>
      </trkpt>
      <trkpt lat="42.9824500" lon="-0.1515120">
        <ele>767.4</ele>
        <time>2020-07-27T09:49:33Z</time>
      </trkpt>
      <trkpt lat="42.9825960" lon="-0.1510190">
        <ele>766.2</ele>
        <time>2020-07-27T09:49:36Z</time>
      </trkpt>
      <trkpt lat="42.9826750" lon="-0.1506880">
        <ele>764.8</ele>
        <time>2020-07-27T09:49:38Z</time>
      </trkpt>
      <trkpt lat="42.9827480" lon="-0.1503620">
        <ele>763.2</ele>
        <time>2020-07-27T09:49:40Z</time>
      </trkpt>
      <trkpt lat="42.9828220" lon="-0.1500420">
        <ele>761.4</ele>
        <time>2020-07-27T09:49:42Z</time>
      </trkpt>
      <trkpt lat="42.9828610" lon="-0.1498840">
        <ele>760.8</ele>
        <time>2020-07-27T09:49:43Z</time>
      </trkpt>
      <trkpt lat="42.9829040" lon="-0.1497270">
        <ele>760.2</ele>
        <time>2020-07-27T09:49:44Z</time>
      </trkpt>
      <trkpt lat="42.9831090" lon="-0.1491390">
        <ele>759.2</ele>
        <time>2020-07-27T09:49:48Z</time>
      </trkpt>
      <trkpt lat="42.9833950" lon="-0.1484300">
        <ele>757.6</ele>
        <time>2020-07-27T09:49:53Z</time>
      </trkpt>
      <trkpt lat="42.9834810" lon="-0.1481350">
        <ele>757.6</ele>
        <time>2020-07-27T09:49:55Z</time>
      </trkpt>
      <trkpt lat="42.9835540" lon="-0.1476890">
        <ele>756.6</ele>
        <time>2020-07-27T09:49:58Z</time>
      </trkpt>
      <trkpt lat="42.9835660" lon="-0.1475440">
        <ele>756.2</ele>
        <time>2020-07-27T09:49:59Z</time>
      </trkpt>
      <trkpt lat="42.9835760" lon="-0.1474020">
        <ele>755.6</ele>
        <time>2020-07-27T09:50:00Z</time>
      </trkpt>
      <trkpt lat="42.9836470" lon="-0.1465860">
        <ele>755.0</ele>
        <time>2020-07-27T09:50:06Z</time>
      </trkpt>
      <trkpt lat="42.9837550" lon="-0.1459670">
        <ele>754.8</ele>
        <time>2020-07-27T09:50:11Z</time>
      </trkpt>
      <trkpt lat="42.9837980" lon="-0.1458610">
        <ele>754.6</ele>
        <time>2020-07-27T09:50:12Z</time>
      </trkpt>
      <trkpt lat="42.9839680" lon="-0.1455580">
        <ele>754.6</ele>
        <time>2020-07-27T09:50:15Z</time>
      </trkpt>
      <trkpt lat="42.9840280" lon="-0.1454550">
        <ele>754.6</ele>
        <time>2020-07-27T09:50:16Z</time>
      </trkpt>
      <trkpt lat="42.9844260" lon="-0.1448760">
        <ele>753.8</ele>
        <time>2020-07-27T09:50:22Z</time>
      </trkpt>
      <trkpt lat="42.9844990" lon="-0.1447820">
        <ele>753.4</ele>
        <time>2020-07-27T09:50:23Z</time>
      </trkpt>
      <trkpt lat="42.9846450" lon="-0.1445950">
        <ele>752.2</ele>
        <time>2020-07-27T09:50:25Z</time>
      </trkpt>
      <trkpt lat="42.9847870" lon="-0.1444100">
        <ele>750.8</ele>
        <time>2020-07-27T09:50:27Z</time>
      </trkpt>
      <trkpt lat="42.9851340" lon="-0.1439460">
        <ele>749.8</ele>
        <time>2020-07-27T09:50:32Z</time>
      </trkpt>
      <trkpt lat="42.9853040" lon="-0.1436150">
        <ele>748.6</ele>
        <time>2020-07-27T09:50:35Z</time>
      </trkpt>
      <trkpt lat="42.9853520" lon="-0.1434940">
        <ele>748.4</ele>
        <time>2020-07-27T09:50:36Z</time>
      </trkpt>
      <trkpt lat="42.9854980" lon="-0.1429610">
        <ele>748.0</ele>
        <time>2020-07-27T09:50:40Z</time>
      </trkpt>
      <trkpt lat="42.9855710" lon="-0.1426840">
        <ele>747.8</ele>
        <time>2020-07-27T09:50:42Z</time>
      </trkpt>
      <trkpt lat="42.9857050" lon="-0.1422500">
        <ele>746.6</ele>
        <time>2020-07-27T09:50:45Z</time>
      </trkpt>
      <trkpt lat="42.9858140" lon="-0.1419560">
        <ele>745.2</ele>
        <time>2020-07-27T09:50:47Z</time>
      </trkpt>
      <trkpt lat="42.9859330" lon="-0.1416690">
        <ele>744.0</ele>
        <time>2020-07-27T09:50:49Z</time>
      </trkpt>
      <trkpt lat="42.9860550" lon="-0.1413860">
        <ele>742.4</ele>
        <time>2020-07-27T09:50:51Z</time>
      </trkpt>
      <trkpt lat="42.9861810" lon="-0.1410940">
        <ele>740.6</ele>
        <time>2020-07-27T09:50:53Z</time>
      </trkpt>
      <trkpt lat="42.9863080" lon="-0.1407960">
        <ele>738.4</ele>
        <time>2020-07-27T09:50:55Z</time>
      </trkpt>
      <trkpt lat="42.9864360" lon="-0.1404830">
        <ele>737.2</ele>
        <time>2020-07-27T09:50:57Z</time>
      </trkpt>
      <trkpt lat="42.9864960" lon="-0.1403220">
        <ele>737.0</ele>
        <time>2020-07-27T09:50:58Z</time>
      </trkpt>
      <trkpt lat="42.9866120" lon="-0.1399890">
        <ele>736.0</ele>
        <time>2020-07-27T09:51:00Z</time>
      </trkpt>
      <trkpt lat="42.9867100" lon="-0.1396560">
        <ele>734.0</ele>
        <time>2020-07-27T09:51:02Z</time>
      </trkpt>
      <trkpt lat="42.9867660" lon="-0.1394980">
        <ele>733.0</ele>
        <time>2020-07-27T09:51:03Z</time>
      </trkpt>
      <trkpt lat="42.9868900" lon="-0.1391950">
        <ele>731.0</ele>
        <time>2020-07-27T09:51:05Z</time>
      </trkpt>
      <trkpt lat="42.9870110" lon="-0.1388980">
        <ele>729.2</ele>
        <time>2020-07-27T09:51:07Z</time>
      </trkpt>
      <trkpt lat="42.9870730" lon="-0.1387530">
        <ele>728.2</ele>
        <time>2020-07-27T09:51:08Z</time>
      </trkpt>
      <trkpt lat="42.9871340" lon="-0.1386100">
        <ele>726.8</ele>
        <time>2020-07-27T09:51:09Z</time>
      </trkpt>
      <trkpt lat="42.9872550" lon="-0.1383290">
        <ele>725.6</ele>
        <time>2020-07-27T09:51:11Z</time>
      </trkpt>
      <trkpt lat="42.9874830" lon="-0.1378000">
        <ele>724.4</ele>
        <time>2020-07-27T09:51:15Z</time>
      </trkpt>
      <trkpt lat="42.9875350" lon="-0.1376720">
        <ele>724.2</ele>
        <time>2020-07-27T09:51:16Z</time>
      </trkpt>
      <trkpt lat="42.9878260" lon="-0.1369250">
        <ele>723.8</ele>
        <time>2020-07-27T09:51:22Z</time>
      </trkpt>
      <trkpt lat="42.9879180" lon="-0.1366770">
        <ele>723.8</ele>
        <time>2020-07-27T09:51:24Z</time>
      </trkpt>
      <trkpt lat="42.9881560" lon="-0.1358880">
        <ele>723.8</ele>
        <time>2020-07-27T09:51:30Z</time>
      </trkpt>
      <trkpt lat="42.9882980" lon="-0.1353570">
        <ele>723.4</ele>
        <time>2020-07-27T09:51:34Z</time>
      </trkpt>
      <trkpt lat="42.9884330" lon="-0.1349870">
        <ele>722.0</ele>
        <time>2020-07-27T09:51:37Z</time>
      </trkpt>
      <trkpt lat="42.9885990" lon="-0.1346540">
        <ele>720.8</ele>
        <time>2020-07-27T09:51:40Z</time>
      </trkpt>
      <trkpt lat="42.9887240" lon="-0.1344420">
        <ele>720.2</ele>
        <time>2020-07-27T09:51:42Z</time>
      </trkpt>
      <trkpt lat="42.9889880" lon="-0.1338390">
        <ele>720.2</ele>
        <time>2020-07-27T09:51:47Z</time>
      </trkpt>
      <trkpt lat="42.9891220" lon="-0.1334550">
        <ele>719.6</ele>
        <time>2020-07-27T09:51:50Z</time>
      </trkpt>
      <trkpt lat="42.9891720" lon="-0.1333310">
        <ele>719.2</ele>
        <time>2020-07-27T09:51:51Z</time>
      </trkpt>
      <trkpt lat="42.9892930" lon="-0.1331100">
        <ele>718.4</ele>
        <time>2020-07-27T09:51:53Z</time>
      </trkpt>
      <trkpt lat="42.9895100" lon="-0.1328280">
        <ele>717.6</ele>
        <time>2020-07-27T09:51:56Z</time>
      </trkpt>
      <trkpt lat="42.9896580" lon="-0.1326580">
        <ele>716.6</ele>
        <time>2020-07-27T09:51:58Z</time>
      </trkpt>
      <trkpt lat="42.9897310" lon="-0.1325730">
        <ele>716.4</ele>
        <time>2020-07-27T09:51:59Z</time>
      </trkpt>
      <trkpt lat="42.9898660" lon="-0.1323920">
        <ele>716.2</ele>
        <time>2020-07-27T09:52:01Z</time>
      </trkpt>
      <trkpt lat="42.9899700" lon="-0.1321750">
        <ele>716.0</ele>
        <time>2020-07-27T09:52:03Z</time>
      </trkpt>
      <trkpt lat="42.9900540" lon="-0.1317890">
        <ele>715.8</ele>
        <time>2020-07-27T09:52:06Z</time>
      </trkpt>
      <trkpt lat="42.9900830" lon="-0.1316560">
        <ele>715.8</ele>
        <time>2020-07-27T09:52:07Z</time>
      </trkpt>
      <trkpt lat="42.9901820" lon="-0.1314100">
        <ele>715.8</ele>
        <time>2020-07-27T09:52:09Z</time>
      </trkpt>
      <trkpt lat="42.9903300" lon="-0.1312020">
        <ele>715.4</ele>
        <time>2020-07-27T09:52:11Z</time>
      </trkpt>
      <trkpt lat="42.9904180" lon="-0.1311070">
        <ele>715.0</ele>
        <time>2020-07-27T09:52:12Z</time>
      </trkpt>
      <trkpt lat="42.9906070" lon="-0.1309180">
        <ele>714.4</ele>
        <time>2020-07-27T09:52:14Z</time>
      </trkpt>
      <trkpt lat="42.9908990" lon="-0.1306020">
        <ele>713.0</ele>
        <time>2020-07-27T09:52:17Z</time>
      </trkpt>
      <trkpt lat="42.9910850" lon="-0.1303580">
        <ele>711.6</ele>
        <time>2020-07-27T09:52:19Z</time>
      </trkpt>
      <trkpt lat="42.9912610" lon="-0.1301020">
        <ele>709.8</ele>
        <time>2020-07-27T09:52:21Z</time>
      </trkpt>
      <trkpt lat="42.9913480" lon="-0.1299780">
        <ele>708.6</ele>
        <time>2020-07-27T09:52:22Z</time>
      </trkpt>
      <trkpt lat="42.9914360" lon="-0.1298560">
        <ele>707.4</ele>
        <time>2020-07-27T09:52:23Z</time>
      </trkpt>
      <trkpt lat="42.9915240" lon="-0.1297360">
        <ele>706.2</ele>
        <time>2020-07-27T09:52:24Z</time>
      </trkpt>
      <trkpt lat="42.9916120" lon="-0.1296160">
        <ele>705.2</ele>
        <time>2020-07-27T09:52:25Z</time>
      </trkpt>
      <trkpt lat="42.9916890" lon="-0.1294860">
        <ele>704.0</ele>
        <time>2020-07-27T09:52:26Z</time>
      </trkpt>
      <trkpt lat="42.9917550" lon="-0.1293420">
        <ele>703.2</ele>
        <time>2020-07-27T09:52:27Z</time>
      </trkpt>
      <trkpt lat="42.9918010" lon="-0.1291900">
        <ele>702.6</ele>
        <time>2020-07-27T09:52:28Z</time>
      </trkpt>
      <trkpt lat="42.9918390" lon="-0.1290350">
        <ele>701.4</ele>
        <time>2020-07-27T09:52:29Z</time>
      </trkpt>
      <trkpt lat="42.9918680" lon="-0.1288790">
        <ele>700.6</ele>
        <time>2020-07-27T09:52:30Z</time>
      </trkpt>
      <trkpt lat="42.9918960" lon="-0.1287230">
        <ele>700.2</ele>
        <time>2020-07-27T09:52:31Z</time>
      </trkpt>
      <trkpt lat="42.9920130" lon="-0.1281270">
        <ele>698.8</ele>
        <time>2020-07-27T09:52:35Z</time>
      </trkpt>
      <trkpt lat="42.9920500" lon="-0.1279930">
        <ele>698.4</ele>
        <time>2020-07-27T09:52:36Z</time>
      </trkpt>
      <trkpt lat="42.9920970" lon="-0.1278650">
        <ele>697.4</ele>
        <time>2020-07-27T09:52:37Z</time>
      </trkpt>
      <trkpt lat="42.9921520" lon="-0.1277400">
        <ele>697.0</ele>
        <time>2020-07-27T09:52:38Z</time>
      </trkpt>
      <trkpt lat="42.9922110" lon="-0.1276200">
        <ele>696.4</ele>
        <time>2020-07-27T09:52:39Z</time>
      </trkpt>
      <trkpt lat="42.9922760" lon="-0.1275000">
        <ele>695.6</ele>
        <time>2020-07-27T09:52:40Z</time>
      </trkpt>
      <trkpt lat="42.9923400" lon="-0.1273800">
        <ele>695.0</ele>
        <time>2020-07-27T09:52:41Z</time>
      </trkpt>
      <trkpt lat="42.9924630" lon="-0.1271320">
        <ele>694.2</ele>
        <time>2020-07-27T09:52:43Z</time>
      </trkpt>
      <trkpt lat="42.9925180" lon="-0.1270050">
        <ele>693.6</ele>
        <time>2020-07-27T09:52:44Z</time>
      </trkpt>
      <trkpt lat="42.9926210" lon="-0.1267390">
        <ele>692.4</ele>
        <time>2020-07-27T09:52:46Z</time>
      </trkpt>
      <trkpt lat="42.9926640" lon="-0.1265990">
        <ele>691.6</ele>
        <time>2020-07-27T09:52:47Z</time>
      </trkpt>
      <trkpt lat="42.9926970" lon="-0.1264580">
        <ele>691.2</ele>
        <time>2020-07-27T09:52:48Z</time>
      </trkpt>
      <trkpt lat="42.9927720" lon="-0.1260260">
        <ele>689.8</ele>
        <time>2020-07-27T09:52:51Z</time>
      </trkpt>
      <trkpt lat="42.9928240" lon="-0.1257410">
        <ele>688.8</ele>
        <time>2020-07-27T09:52:53Z</time>
      </trkpt>
      <trkpt lat="42.9928540" lon="-0.1256000">
        <ele>688.4</ele>
        <time>2020-07-27T09:52:54Z</time>
      </trkpt>
      <trkpt lat="42.9928950" lon="-0.1254680">
        <ele>688.2</ele>
        <time>2020-07-27T09:52:55Z</time>
      </trkpt>
      <trkpt lat="42.9929480" lon="-0.1253450">
        <ele>687.4</ele>
        <time>2020-07-27T09:52:56Z</time>
      </trkpt>
      <trkpt lat="42.9931710" lon="-0.1250210">
        <ele>686.2</ele>
        <time>2020-07-27T09:52:59Z</time>
      </trkpt>
      <trkpt lat="42.9934210" lon="-0.1246790">
        <ele>685.0</ele>
        <time>2020-07-27T09:53:02Z</time>
      </trkpt>
      <trkpt lat="42.9936820" lon="-0.1243140">
        <ele>683.2</ele>
        <time>2020-07-27T09:53:05Z</time>
      </trkpt>
      <trkpt lat="42.9937850" lon="-0.1242070">
        <ele>682.0</ele>
        <time>2020-07-27T09:53:06Z</time>
      </trkpt>
      <trkpt lat="42.9939000" lon="-0.1241190">
        <ele>680.8</ele>
        <time>2020-07-27T09:53:07Z</time>
      </trkpt>
      <trkpt lat="42.9940220" lon="-0.1240460">
        <ele>679.6</ele>
        <time>2020-07-27T09:53:08Z</time>
      </trkpt>
      <trkpt lat="42.9941490" lon="-0.1239640">
        <ele>678.4</ele>
        <time>2020-07-27T09:53:09Z</time>
      </trkpt>
      <trkpt lat="42.9942660" lon="-0.1238590">
        <ele>677.2</ele>
        <time>2020-07-27T09:53:10Z</time>
      </trkpt>
      <trkpt lat="42.9943700" lon="-0.1237290">
        <ele>676.2</ele>
        <time>2020-07-27T09:53:11Z</time>
      </trkpt>
      <trkpt lat="42.9944620" lon="-0.1235810">
        <ele>675.4</ele>
        <time>2020-07-27T09:53:12Z</time>
      </trkpt>
      <trkpt lat="42.9945470" lon="-0.1234230">
        <ele>674.0</ele>
        <time>2020-07-27T09:53:13Z</time>
      </trkpt>
      <trkpt lat="42.9946250" lon="-0.1232600">
        <ele>673.0</ele>
        <time>2020-07-27T09:53:14Z</time>
      </trkpt>
      <trkpt lat="42.9946980" lon="-0.1230890">
        <ele>671.8</ele>
        <time>2020-07-27T09:53:15Z</time>
      </trkpt>
      <trkpt lat="42.9947670" lon="-0.1229110">
        <ele>670.6</ele>
        <time>2020-07-27T09:53:16Z</time>
      </trkpt>
      <trkpt lat="42.9948290" lon="-0.1227250">
        <ele>669.4</ele>
        <time>2020-07-27T09:53:17Z</time>
      </trkpt>
      <trkpt lat="42.9948830" lon="-0.1225340">
        <ele>668.2</ele>
        <time>2020-07-27T09:53:18Z</time>
      </trkpt>
      <trkpt lat="42.9949320" lon="-0.1223400">
        <ele>667.0</ele>
        <time>2020-07-27T09:53:19Z</time>
      </trkpt>
      <trkpt lat="42.9949760" lon="-0.1221530">
        <ele>665.8</ele>
        <time>2020-07-27T09:53:20Z</time>
      </trkpt>
      <trkpt lat="42.9950190" lon="-0.1219760">
        <ele>664.4</ele>
        <time>2020-07-27T09:53:21Z</time>
      </trkpt>
      <trkpt lat="42.9950610" lon="-0.1218040">
        <ele>663.2</ele>
        <time>2020-07-27T09:53:22Z</time>
      </trkpt>
      <trkpt lat="42.9951020" lon="-0.1216390">
        <ele>662.0</ele>
        <time>2020-07-27T09:53:23Z</time>
      </trkpt>
      <trkpt lat="42.9951350" lon="-0.1214800">
        <ele>660.6</ele>
        <time>2020-07-27T09:53:24Z</time>
      </trkpt>
      <trkpt lat="42.9951560" lon="-0.1213240">
        <ele>659.4</ele>
        <time>2020-07-27T09:53:25Z</time>
      </trkpt>
      <trkpt lat="42.9951620" lon="-0.1211670">
        <ele>658.2</ele>
        <time>2020-07-27T09:53:26Z</time>
      </trkpt>
      <trkpt lat="42.9951480" lon="-0.1210110">
        <ele>656.8</ele>
        <time>2020-07-27T09:53:27Z</time>
      </trkpt>
      <trkpt lat="42.9951190" lon="-0.1208550">
        <ele>655.4</ele>
        <time>2020-07-27T09:53:28Z</time>
      </trkpt>
      <trkpt lat="42.9950770" lon="-0.1207010">
        <ele>654.6</ele>
        <time>2020-07-27T09:53:29Z</time>
      </trkpt>
      <trkpt lat="42.9950290" lon="-0.1205490">
        <ele>653.6</ele>
        <time>2020-07-27T09:53:30Z</time>
      </trkpt>
      <trkpt lat="42.9949810" lon="-0.1204030">
        <ele>652.4</ele>
        <time>2020-07-27T09:53:31Z</time>
      </trkpt>
      <trkpt lat="42.9949400" lon="-0.1202570">
        <ele>651.4</ele>
        <time>2020-07-27T09:53:32Z</time>
      </trkpt>
      <trkpt lat="42.9949120" lon="-0.1201080">
        <ele>650.6</ele>
        <time>2020-07-27T09:53:33Z</time>
      </trkpt>
      <trkpt lat="42.9949000" lon="-0.1199520">
        <ele>649.6</ele>
        <time>2020-07-27T09:53:34Z</time>
      </trkpt>
      <trkpt lat="42.9949060" lon="-0.1197910">
        <ele>648.6</ele>
        <time>2020-07-27T09:53:35Z</time>
      </trkpt>
      <trkpt lat="42.9949230" lon="-0.1196290">
        <ele>647.8</ele>
        <time>2020-07-27T09:53:36Z</time>
      </trkpt>
      <trkpt lat="42.9949470" lon="-0.1194660">
        <ele>647.2</ele>
        <time>2020-07-27T09:53:37Z</time>
      </trkpt>
      <trkpt lat="42.9949910" lon="-0.1191500">
        <ele>645.0</ele>
        <time>2020-07-27T09:53:39Z</time>
      </trkpt>
      <trkpt lat="42.9950090" lon="-0.1189950">
        <ele>643.8</ele>
        <time>2020-07-27T09:53:40Z</time>
      </trkpt>
      <trkpt lat="42.9950270" lon="-0.1188420">
        <ele>642.8</ele>
        <time>2020-07-27T09:53:41Z</time>
      </trkpt>
      <trkpt lat="42.9950450" lon="-0.1186890">
        <ele>641.4</ele>
        <time>2020-07-27T09:53:42Z</time>
      </trkpt>
      <trkpt lat="42.9950670" lon="-0.1185350">
        <ele>640.4</ele>
        <time>2020-07-27T09:53:43Z</time>
      </trkpt>
      <trkpt lat="42.9951000" lon="-0.1183830">
        <ele>639.4</ele>
        <time>2020-07-27T09:53:44Z</time>
      </trkpt>
      <trkpt lat="42.9951490" lon="-0.1182360">
        <ele>638.6</ele>
        <time>2020-07-27T09:53:45Z</time>
      </trkpt>
      <trkpt lat="42.9952710" lon="-0.1179630">
        <ele>636.8</ele>
        <time>2020-07-27T09:53:47Z</time>
      </trkpt>
      <trkpt lat="42.9954070" lon="-0.1177310">
        <ele>635.4</ele>
        <time>2020-07-27T09:53:49Z</time>
      </trkpt>
      <trkpt lat="42.9956540" lon="-0.1175440">
        <ele>634.4</ele>
        <time>2020-07-27T09:53:52Z</time>
      </trkpt>
      <trkpt lat="42.9959670" lon="-0.1175050">
        <ele>633.2</ele>
        <time>2020-07-27T09:53:55Z</time>
      </trkpt>
      <trkpt lat="42.9962000" lon="-0.1174550">
        <ele>631.4</ele>
        <time>2020-07-27T09:53:57Z</time>
      </trkpt>
      <trkpt lat="42.9964380" lon="-0.1173900">
        <ele>629.4</ele>
        <time>2020-07-27T09:53:59Z</time>
      </trkpt>
      <trkpt lat="42.9965650" lon="-0.1173560">
        <ele>628.6</ele>
        <time>2020-07-27T09:54:00Z</time>
      </trkpt>
      <trkpt lat="42.9966990" lon="-0.1173180">
        <ele>627.4</ele>
        <time>2020-07-27T09:54:01Z</time>
      </trkpt>
      <trkpt lat="42.9968340" lon="-0.1172800">
        <ele>626.0</ele>
        <time>2020-07-27T09:54:02Z</time>
      </trkpt>
      <trkpt lat="42.9969680" lon="-0.1172480">
        <ele>624.2</ele>
        <time>2020-07-27T09:54:03Z</time>
      </trkpt>
      <trkpt lat="42.9971070" lon="-0.1172140">
        <ele>623.0</ele>
        <time>2020-07-27T09:54:04Z</time>
      </trkpt>
      <trkpt lat="42.9972460" lon="-0.1171740">
        <ele>622.4</ele>
        <time>2020-07-27T09:54:05Z</time>
      </trkpt>
      <trkpt lat="42.9973890" lon="-0.1171220">
        <ele>621.4</ele>
        <time>2020-07-27T09:54:06Z</time>
      </trkpt>
      <trkpt lat="42.9975310" lon="-0.1170490">
        <ele>620.2</ele>
        <time>2020-07-27T09:54:07Z</time>
      </trkpt>
      <trkpt lat="42.9976730" lon="-0.1169550">
        <ele>619.4</ele>
        <time>2020-07-27T09:54:08Z</time>
      </trkpt>
      <trkpt lat="42.9978060" lon="-0.1168400">
        <ele>618.2</ele>
        <time>2020-07-27T09:54:09Z</time>
      </trkpt>
      <trkpt lat="42.9979300" lon="-0.1167010">
        <ele>616.8</ele>
        <time>2020-07-27T09:54:10Z</time>
      </trkpt>
      <trkpt lat="42.9980420" lon="-0.1165450">
        <ele>615.6</ele>
        <time>2020-07-27T09:54:11Z</time>
      </trkpt>
      <trkpt lat="42.9981420" lon="-0.1163760">
        <ele>614.4</ele>
        <time>2020-07-27T09:54:12Z</time>
      </trkpt>
      <trkpt lat="42.9982300" lon="-0.1162050">
        <ele>612.8</ele>
        <time>2020-07-27T09:54:13Z</time>
      </trkpt>
      <trkpt lat="42.9983130" lon="-0.1160270">
        <ele>611.2</ele>
        <time>2020-07-27T09:54:14Z</time>
      </trkpt>
      <trkpt lat="42.9983900" lon="-0.1158410">
        <ele>609.6</ele>
        <time>2020-07-27T09:54:15Z</time>
      </trkpt>
      <trkpt lat="42.9984470" lon="-0.1156500">
        <ele>607.8</ele>
        <time>2020-07-27T09:54:16Z</time>
      </trkpt>
      <trkpt lat="42.9984910" lon="-0.1154490">
        <ele>605.6</ele>
        <time>2020-07-27T09:54:17Z</time>
      </trkpt>
      <trkpt lat="42.9985110" lon="-0.1152530">
        <ele>603.8</ele>
        <time>2020-07-27T09:54:18Z</time>
      </trkpt>
      <trkpt lat="42.9985220" lon="-0.1150650">
        <ele>602.2</ele>
        <time>2020-07-27T09:54:19Z</time>
      </trkpt>
      <trkpt lat="42.9985390" lon="-0.1148810">
        <ele>601.0</ele>
        <time>2020-07-27T09:54:20Z</time>
      </trkpt>
      <trkpt lat="42.9985720" lon="-0.1146980">
        <ele>599.8</ele>
        <time>2020-07-27T09:54:21Z</time>
      </trkpt>
      <trkpt lat="42.9986110" lon="-0.1145130">
        <ele>598.8</ele>
        <time>2020-07-27T09:54:22Z</time>
      </trkpt>
      <trkpt lat="42.9986450" lon="-0.1143230">
        <ele>597.8</ele>
        <time>2020-07-27T09:54:23Z</time>
      </trkpt>
      <trkpt lat="42.9986720" lon="-0.1141280">
        <ele>596.4</ele>
        <time>2020-07-27T09:54:24Z</time>
      </trkpt>
      <trkpt lat="42.9986800" lon="-0.1139310">
        <ele>595.2</ele>
        <time>2020-07-27T09:54:25Z</time>
      </trkpt>
      <trkpt lat="42.9986760" lon="-0.1137350">
        <ele>594.2</ele>
        <time>2020-07-27T09:54:26Z</time>
      </trkpt>
      <trkpt lat="42.9986720" lon="-0.1135410">
        <ele>592.6</ele>
        <time>2020-07-27T09:54:27Z</time>
      </trkpt>
      <trkpt lat="42.9986790" lon="-0.1133510">
        <ele>591.4</ele>
        <time>2020-07-27T09:54:28Z</time>
      </trkpt>
      <trkpt lat="42.9987010" lon="-0.1131670">
        <ele>590.0</ele>
        <time>2020-07-27T09:54:29Z</time>
      </trkpt>
      <trkpt lat="42.9987420" lon="-0.1129910">
        <ele>588.8</ele>
        <time>2020-07-27T09:54:30Z</time>
      </trkpt>
      <trkpt lat="42.9988080" lon="-0.1128300">
        <ele>587.4</ele>
        <time>2020-07-27T09:54:31Z</time>
      </trkpt>
      <trkpt lat="42.9988940" lon="-0.1126830">
        <ele>586.0</ele>
        <time>2020-07-27T09:54:32Z</time>
      </trkpt>
      <trkpt lat="42.9989860" lon="-0.1125430">
        <ele>585.0</ele>
        <time>2020-07-27T09:54:33Z</time>
      </trkpt>
      <trkpt lat="42.9990750" lon="-0.1124000">
        <ele>584.2</ele>
        <time>2020-07-27T09:54:34Z</time>
      </trkpt>
      <trkpt lat="42.9992370" lon="-0.1121100">
        <ele>582.6</ele>
        <time>2020-07-27T09:54:36Z</time>
      </trkpt>
      <trkpt lat="42.9993010" lon="-0.1119540">
        <ele>581.8</ele>
        <time>2020-07-27T09:54:37Z</time>
      </trkpt>
      <trkpt lat="42.9993390" lon="-0.1117890">
        <ele>581.2</ele>
        <time>2020-07-27T09:54:38Z</time>
      </trkpt>
      <trkpt lat="42.9992710" lon="-0.1114850">
        <ele>580.0</ele>
        <time>2020-07-27T09:54:40Z</time>
      </trkpt>
      <trkpt lat="42.9992090" lon="-0.1113540">
        <ele>579.0</ele>
        <time>2020-07-27T09:54:41Z</time>
      </trkpt>
      <trkpt lat="42.9991610" lon="-0.1112090">
        <ele>578.0</ele>
        <time>2020-07-27T09:54:42Z</time>
      </trkpt>
      <trkpt lat="42.9991290" lon="-0.1110520">
        <ele>577.0</ele>
        <time>2020-07-27T09:54:43Z</time>
      </trkpt>
      <trkpt lat="42.9991180" lon="-0.1108940">
        <ele>576.2</ele>
        <time>2020-07-27T09:54:44Z</time>
      </trkpt>
      <trkpt lat="42.9991420" lon="-0.1105680">
        <ele>574.6</ele>
        <time>2020-07-27T09:54:46Z</time>
      </trkpt>
      <trkpt lat="42.9991720" lon="-0.1102220">
        <ele>573.0</ele>
        <time>2020-07-27T09:54:48Z</time>
      </trkpt>
      <trkpt lat="42.9991880" lon="-0.1098550">
        <ele>571.2</ele>
        <time>2020-07-27T09:54:50Z</time>
      </trkpt>
      <trkpt lat="42.9991940" lon="-0.1096660">
        <ele>570.4</ele>
        <time>2020-07-27T09:54:51Z</time>
      </trkpt>
      <trkpt lat="42.9992000" lon="-0.1094860">
        <ele>569.4</ele>
        <time>2020-07-27T09:54:52Z</time>
      </trkpt>
      <trkpt lat="42.9992080" lon="-0.1093180">
        <ele>568.4</ele>
        <time>2020-07-27T09:54:53Z</time>
      </trkpt>
      <trkpt lat="42.9992200" lon="-0.1091580">
        <ele>567.2</ele>
        <time>2020-07-27T09:54:54Z</time>
      </trkpt>
      <trkpt lat="42.9992430" lon="-0.1090070">
        <ele>564.8</ele>
        <time>2020-07-27T09:54:55Z</time>
      </trkpt>
      <trkpt lat="42.9992860" lon="-0.1088740">
        <ele>563.6</ele>
        <time>2020-07-27T09:54:56Z</time>
      </trkpt>
      <trkpt lat="42.9993510" lon="-0.1087560">
        <ele>562.4</ele>
        <time>2020-07-27T09:54:57Z</time>
      </trkpt>
      <trkpt lat="42.9994350" lon="-0.1086680">
        <ele>561.2</ele>
        <time>2020-07-27T09:54:58Z</time>
      </trkpt>
      <trkpt lat="42.9995340" lon="-0.1086040">
        <ele>559.8</ele>
        <time>2020-07-27T09:54:59Z</time>
      </trkpt>
      <trkpt lat="42.9996420" lon="-0.1085730">
        <ele>558.2</ele>
        <time>2020-07-27T09:55:00Z</time>
      </trkpt>
      <trkpt lat="42.9997530" lon="-0.1085630">
        <ele>557.0</ele>
        <time>2020-07-27T09:55:01Z</time>
      </trkpt>
      <trkpt lat="42.9998650" lon="-0.1085700">
        <ele>556.0</ele>
        <time>2020-07-27T09:55:02Z</time>
      </trkpt>
      <trkpt lat="42.9999790" lon="-0.1085830">
        <ele>555.2</ele>
        <time>2020-07-27T09:55:03Z</time>
      </trkpt>
      <trkpt lat="43.0000990" lon="-0.1085870">
        <ele>554.6</ele>
        <time>2020-07-27T09:55:04Z</time>
      </trkpt>
      <trkpt lat="43.0002190" lon="-0.1085670">
        <ele>553.6</ele>
        <time>2020-07-27T09:55:05Z</time>
      </trkpt>
      <trkpt lat="43.0004640" lon="-0.1084620">
        <ele>552.2</ele>
        <time>2020-07-27T09:55:07Z</time>
      </trkpt>
      <trkpt lat="43.0005900" lon="-0.1083860">
        <ele>551.4</ele>
        <time>2020-07-27T09:55:08Z</time>
      </trkpt>
      <trkpt lat="43.0007120" lon="-0.1083020">
        <ele>550.4</ele>
        <time>2020-07-27T09:55:09Z</time>
      </trkpt>
      <trkpt lat="43.0008340" lon="-0.1082160">
        <ele>549.2</ele>
        <time>2020-07-27T09:55:10Z</time>
      </trkpt>
      <trkpt lat="43.0009610" lon="-0.1081330">
        <ele>548.0</ele>
        <time>2020-07-27T09:55:11Z</time>
      </trkpt>
      <trkpt lat="43.0010900" lon="-0.1080440">
        <ele>547.0</ele>
        <time>2020-07-27T09:55:12Z</time>
      </trkpt>
      <trkpt lat="43.0012210" lon="-0.1079460">
        <ele>545.8</ele>
        <time>2020-07-27T09:55:13Z</time>
      </trkpt>
      <trkpt lat="43.0013480" lon="-0.1078470">
        <ele>544.6</ele>
        <time>2020-07-27T09:55:14Z</time>
      </trkpt>
      <trkpt lat="43.0014730" lon="-0.1077290">
        <ele>543.2</ele>
        <time>2020-07-27T09:55:15Z</time>
      </trkpt>
      <trkpt lat="43.0015920" lon="-0.1076170">
        <ele>542.0</ele>
        <time>2020-07-27T09:55:16Z</time>
      </trkpt>
      <trkpt lat="43.0017150" lon="-0.1075120">
        <ele>540.8</ele>
        <time>2020-07-27T09:55:17Z</time>
      </trkpt>
      <trkpt lat="43.0018460" lon="-0.1073950">
        <ele>539.4</ele>
        <time>2020-07-27T09:55:18Z</time>
      </trkpt>
      <trkpt lat="43.0019760" lon="-0.1072820">
        <ele>538.0</ele>
        <time>2020-07-27T09:55:19Z</time>
      </trkpt>
      <trkpt lat="43.0021050" lon="-0.1071720">
        <ele>537.0</ele>
        <time>2020-07-27T09:55:20Z</time>
      </trkpt>
      <trkpt lat="43.0023600" lon="-0.1069490">
        <ele>534.8</ele>
        <time>2020-07-27T09:55:22Z</time>
      </trkpt>
      <trkpt lat="43.0024830" lon="-0.1068410">
        <ele>532.6</ele>
        <time>2020-07-27T09:55:23Z</time>
      </trkpt>
      <trkpt lat="43.0026050" lon="-0.1067260">
        <ele>531.6</ele>
        <time>2020-07-27T09:55:24Z</time>
      </trkpt>
      <trkpt lat="43.0027300" lon="-0.1066030">
        <ele>530.4</ele>
        <time>2020-07-27T09:55:25Z</time>
      </trkpt>
      <trkpt lat="43.0028500" lon="-0.1064760">
        <ele>529.4</ele>
        <time>2020-07-27T09:55:26Z</time>
      </trkpt>
      <trkpt lat="43.0029660" lon="-0.1063360">
        <ele>528.2</ele>
        <time>2020-07-27T09:55:27Z</time>
      </trkpt>
      <trkpt lat="43.0030750" lon="-0.1061940">
        <ele>526.8</ele>
        <time>2020-07-27T09:55:28Z</time>
      </trkpt>
      <trkpt lat="43.0031870" lon="-0.1060570">
        <ele>525.6</ele>
        <time>2020-07-27T09:55:29Z</time>
      </trkpt>
      <trkpt lat="43.0032990" lon="-0.1059260">
        <ele>524.6</ele>
        <time>2020-07-27T09:55:30Z</time>
      </trkpt>
      <trkpt lat="43.0034200" lon="-0.1058160">
        <ele>523.6</ele>
        <time>2020-07-27T09:55:31Z</time>
      </trkpt>
      <trkpt lat="43.0035420" lon="-0.1057190">
        <ele>522.6</ele>
        <time>2020-07-27T09:55:32Z</time>
      </trkpt>
      <trkpt lat="43.0036590" lon="-0.1056200">
        <ele>521.2</ele>
        <time>2020-07-27T09:55:33Z</time>
      </trkpt>
      <trkpt lat="43.0037580" lon="-0.1054980">
        <ele>519.2</ele>
        <time>2020-07-27T09:55:34Z</time>
      </trkpt>
      <trkpt lat="43.0038460" lon="-0.1053580">
        <ele>517.6</ele>
        <time>2020-07-27T09:55:35Z</time>
      </trkpt>
      <trkpt lat="43.0039290" lon="-0.1052040">
        <ele>516.2</ele>
        <time>2020-07-27T09:55:36Z</time>
      </trkpt>
      <trkpt lat="43.0040090" lon="-0.1050450">
        <ele>514.6</ele>
        <time>2020-07-27T09:55:37Z</time>
      </trkpt>
      <trkpt lat="43.0040870" lon="-0.1048950">
        <ele>513.4</ele>
        <time>2020-07-27T09:55:38Z</time>
      </trkpt>
      <trkpt lat="43.0041720" lon="-0.1047450">
        <ele>512.0</ele>
        <time>2020-07-27T09:55:39Z</time>
      </trkpt>
      <trkpt lat="43.0042640" lon="-0.1046060">
        <ele>510.8</ele>
        <time>2020-07-27T09:55:40Z</time>
      </trkpt>
      <trkpt lat="43.0043590" lon="-0.1044830">
        <ele>509.8</ele>
        <time>2020-07-27T09:55:41Z</time>
      </trkpt>
      <trkpt lat="43.0044600" lon="-0.1043600">
        <ele>508.8</ele>
        <time>2020-07-27T09:55:42Z</time>
      </trkpt>
      <trkpt lat="43.0045590" lon="-0.1042440">
        <ele>507.6</ele>
        <time>2020-07-27T09:55:43Z</time>
      </trkpt>
      <trkpt lat="43.0046540" lon="-0.1041370">
        <ele>506.4</ele>
        <time>2020-07-27T09:55:44Z</time>
      </trkpt>
      <trkpt lat="43.0047440" lon="-0.1040210">
        <ele>505.0</ele>
        <time>2020-07-27T09:55:45Z</time>
      </trkpt>
      <trkpt lat="43.0048210" lon="-0.1038870">
        <ele>503.6</ele>
        <time>2020-07-27T09:55:46Z</time>
      </trkpt>
      <trkpt lat="43.0048750" lon="-0.1037440">
        <ele>502.0</ele>
        <time>2020-07-27T09:55:47Z</time>
      </trkpt>
      <trkpt lat="43.0049090" lon="-0.1035960">
        <ele>501.0</ele>
        <time>2020-07-27T09:55:48Z</time>
      </trkpt>
      <trkpt lat="43.0049260" lon="-0.1034480">
        <ele>499.6</ele>
        <time>2020-07-27T09:55:49Z</time>
      </trkpt>
      <trkpt lat="43.0049440" lon="-0.1032990">
        <ele>498.2</ele>
        <time>2020-07-27T09:55:50Z</time>
      </trkpt>
      <trkpt lat="43.0049670" lon="-0.1031580">
        <ele>497.8</ele>
        <time>2020-07-27T09:55:51Z</time>
      </trkpt>
      <trkpt lat="43.0050460" lon="-0.1029060">
        <ele>497.0</ele>
        <time>2020-07-27T09:55:53Z</time>
      </trkpt>
      <trkpt lat="43.0051720" lon="-0.1026970">
        <ele>495.8</ele>
        <time>2020-07-27T09:55:55Z</time>
      </trkpt>
      <trkpt lat="43.0052430" lon="-0.1025950">
        <ele>494.8</ele>
        <time>2020-07-27T09:55:56Z</time>
      </trkpt>
      <trkpt lat="43.0053100" lon="-0.1024880">
        <ele>493.4</ele>
        <time>2020-07-27T09:55:57Z</time>
      </trkpt>
      <trkpt lat="43.0053770" lon="-0.1023690">
        <ele>492.0</ele>
        <time>2020-07-27T09:55:58Z</time>
      </trkpt>
      <trkpt lat="43.0054380" lon="-0.1022420">
        <ele>491.2</ele>
        <time>2020-07-27T09:55:59Z</time>
      </trkpt>
      <trkpt lat="43.0055020" lon="-0.1021130">
        <ele>490.6</ele>
        <time>2020-07-27T09:56:00Z</time>
      </trkpt>
      <trkpt lat="43.0055740" lon="-0.1019940">
        <ele>490.2</ele>
        <time>2020-07-27T09:56:01Z</time>
      </trkpt>
      <trkpt lat="43.0056550" lon="-0.1018870">
        <ele>489.6</ele>
        <time>2020-07-27T09:56:02Z</time>
      </trkpt>
      <trkpt lat="43.0057400" lon="-0.1017960">
        <ele>488.6</ele>
        <time>2020-07-27T09:56:03Z</time>
      </trkpt>
      <trkpt lat="43.0058270" lon="-0.1017100">
        <ele>487.8</ele>
        <time>2020-07-27T09:56:04Z</time>
      </trkpt>
      <trkpt lat="43.0060130" lon="-0.1015700">
        <ele>486.6</ele>
        <time>2020-07-27T09:56:06Z</time>
      </trkpt>
      <trkpt lat="43.0062240" lon="-0.1015050">
        <ele>484.8</ele>
        <time>2020-07-27T09:56:08Z</time>
      </trkpt>
      <trkpt lat="43.0063370" lon="-0.1014910">
        <ele>484.0</ele>
        <time>2020-07-27T09:56:09Z</time>
      </trkpt>
      <trkpt lat="43.0064520" lon="-0.1014900">
        <ele>483.0</ele>
        <time>2020-07-27T09:56:10Z</time>
      </trkpt>
      <trkpt lat="43.0065670" lon="-0.1014890">
        <ele>482.0</ele>
        <time>2020-07-27T09:56:11Z</time>
      </trkpt>
      <trkpt lat="43.0067930" lon="-0.1014650">
        <ele>480.4</ele>
        <time>2020-07-27T09:56:13Z</time>
      </trkpt>
      <trkpt lat="43.0069780" lon="-0.1014370">
        <ele>478.8</ele>
        <time>2020-07-27T09:56:15Z</time>
      </trkpt>
      <trkpt lat="43.0070430" lon="-0.1013900">
        <ele>478.0</ele>
        <time>2020-07-27T09:56:16Z</time>
      </trkpt>
      <trkpt lat="43.0070860" lon="-0.1013130">
        <ele>476.2</ele>
        <time>2020-07-27T09:56:17Z</time>
      </trkpt>
      <trkpt lat="43.0071060" lon="-0.1012320">
        <ele>475.2</ele>
        <time>2020-07-27T09:56:18Z</time>
      </trkpt>
      <trkpt lat="43.0070950" lon="-0.1011700">
        <ele>474.4</ele>
        <time>2020-07-27T09:56:19Z</time>
      </trkpt>
      <trkpt lat="43.0070590" lon="-0.1011300">
        <ele>473.4</ele>
        <time>2020-07-27T09:56:20Z</time>
      </trkpt>
      <trkpt lat="43.0069500" lon="-0.1010940">
        <ele>472.2</ele>
        <time>2020-07-27T09:56:22Z</time>
      </trkpt>
      <trkpt lat="43.0068920" lon="-0.1010770">
        <ele>472.0</ele>
        <time>2020-07-27T09:56:23Z</time>
      </trkpt>
      <trkpt lat="43.0064980" lon="-0.1009530">
        <ele>471.6</ele>
        <time>2020-07-27T09:56:30Z</time>
      </trkpt>
      <trkpt lat="43.0063950" lon="-0.1009360">
        <ele>471.6</ele>
        <time>2020-07-27T09:56:32Z</time>
      </trkpt>
      <trkpt lat="43.0062880" lon="-0.1009160">
        <ele>471.6</ele>
        <time>2020-07-27T09:56:34Z</time>
      </trkpt>
      <trkpt lat="43.0062340" lon="-0.1008950">
        <ele>471.6</ele>
        <time>2020-07-27T09:56:35Z</time>
      </trkpt>
      <trkpt lat="43.0061280" lon="-0.1008510">
        <ele>471.6</ele>
        <time>2020-07-27T09:56:37Z</time>
      </trkpt>
      <trkpt lat="43.0060030" lon="-0.1008230">
        <ele>471.8</ele>
        <time>2020-07-27T09:56:40Z</time>
      </trkpt>
      <trkpt lat="43.0059130" lon="-0.1007120">
        <ele>472.2</ele>
        <time>2020-07-27T09:56:43Z</time>
      </trkpt>
      <trkpt lat="43.0058620" lon="-0.1005310">
        <ele>472.8</ele>
        <time>2020-07-27T09:56:45Z</time>
      </trkpt>
      <trkpt lat="43.0058340" lon="-0.1003350">
        <ele>473.2</ele>
        <time>2020-07-27T09:56:48Z</time>
      </trkpt>
      <trkpt lat="43.0058430" lon="-0.1002600">
        <ele>473.4</ele>
        <time>2020-07-27T09:56:50Z</time>
      </trkpt>
      <trkpt lat="43.0058500" lon="-0.1002340">
        <ele>473.4</ele>
        <time>2020-07-27T09:56:51Z</time>
      </trkpt>
      <trkpt lat="43.0058840" lon="-0.1001940">
        <ele>473.4</ele>
        <time>2020-07-27T09:56:54Z</time>
      </trkpt>
      <trkpt lat="43.0059160" lon="-0.1002020">
        <ele>473.4</ele>
        <time>2020-07-27T09:56:55Z</time>
      </trkpt>
      <trkpt lat="43.0060670" lon="-0.1001880">
        <ele>473.6</ele>
        <time>2020-07-27T09:56:58Z</time>
      </trkpt>
      <trkpt lat="43.0064310" lon="-0.1000650">
        <ele>473.0</ele>
        <time>2020-07-27T09:57:04Z</time>
      </trkpt>
      <trkpt lat="43.0067730" lon="-0.0999810">
        <ele>471.8</ele>
        <time>2020-07-27T09:57:09Z</time>
      </trkpt>
      <trkpt lat="43.0068430" lon="-0.0999640">
        <ele>471.6</ele>
        <time>2020-07-27T09:57:10Z</time>
      </trkpt>
      <trkpt lat="43.0069930" lon="-0.0999210">
        <ele>470.6</ele>
        <time>2020-07-27T09:57:12Z</time>
      </trkpt>
      <trkpt lat="43.0072180" lon="-0.0998660">
        <ele>469.8</ele>
        <time>2020-07-27T09:57:15Z</time>
      </trkpt>
      <trkpt lat="43.0072790" lon="-0.0998500">
        <ele>469.2</ele>
        <time>2020-07-27T09:57:16Z</time>
      </trkpt>
      <trkpt lat="43.0073300" lon="-0.0998460">
        <ele>468.8</ele>
        <time>2020-07-27T09:57:17Z</time>
      </trkpt>
      <trkpt lat="43.0074260" lon="-0.0998210">
        <ele>468.0</ele>
        <time>2020-07-27T09:57:19Z</time>
      </trkpt>
      <trkpt lat="43.0074720" lon="-0.0998020">
        <ele>467.8</ele>
        <time>2020-07-27T09:57:20Z</time>
      </trkpt>
      <trkpt lat="43.0075230" lon="-0.0997850">
        <ele>467.6</ele>
        <time>2020-07-27T09:57:21Z</time>
      </trkpt>
      <trkpt lat="43.0075820" lon="-0.0997580">
        <ele>467.6</ele>
        <time>2020-07-27T09:57:22Z</time>
      </trkpt>
      <trkpt lat="43.0077290" lon="-0.0996200">
        <ele>467.2</ele>
        <time>2020-07-27T09:57:25Z</time>
      </trkpt>
      <trkpt lat="43.0077750" lon="-0.0995540">
        <ele>467.0</ele>
        <time>2020-07-27T09:57:26Z</time>
      </trkpt>
      <trkpt lat="43.0078640" lon="-0.0994130">
        <ele>466.8</ele>
        <time>2020-07-27T09:57:28Z</time>
      </trkpt>
      <trkpt lat="43.0079110" lon="-0.0993310">
        <ele>466.6</ele>
        <time>2020-07-27T09:57:29Z</time>
      </trkpt>
      <trkpt lat="43.0079560" lon="-0.0992460">
        <ele>466.6</ele>
        <time>2020-07-27T09:57:30Z</time>
      </trkpt>
      <trkpt lat="43.0080440" lon="-0.0990730">
        <ele>466.4</ele>
        <time>2020-07-27T09:57:32Z</time>
      </trkpt>
      <trkpt lat="43.0081540" lon="-0.0989040">
        <ele>466.0</ele>
        <time>2020-07-27T09:57:34Z</time>
      </trkpt>
      <trkpt lat="43.0082260" lon="-0.0988340">
        <ele>465.8</ele>
        <time>2020-07-27T09:57:35Z</time>
      </trkpt>
      <trkpt lat="43.0084790" lon="-0.0987240">
        <ele>464.2</ele>
        <time>2020-07-27T09:57:38Z</time>
      </trkpt>
      <trkpt lat="43.0085670" lon="-0.0987000">
        <ele>464.2</ele>
        <time>2020-07-27T09:57:39Z</time>
      </trkpt>
      <trkpt lat="43.0088440" lon="-0.0986700">
        <ele>463.4</ele>
        <time>2020-07-27T09:57:42Z</time>
      </trkpt>
      <trkpt lat="43.0089430" lon="-0.0986700">
        <ele>463.0</ele>
        <time>2020-07-27T09:57:43Z</time>
      </trkpt>
      <trkpt lat="43.0090420" lon="-0.0986750">
        <ele>462.2</ele>
        <time>2020-07-27T09:57:44Z</time>
      </trkpt>
      <trkpt lat="43.0092480" lon="-0.0986780">
        <ele>461.0</ele>
        <time>2020-07-27T09:57:46Z</time>
      </trkpt>
      <trkpt lat="43.0094590" lon="-0.0986680">
        <ele>459.8</ele>
        <time>2020-07-27T09:57:48Z</time>
      </trkpt>
      <trkpt lat="43.0095670" lon="-0.0986590">
        <ele>459.2</ele>
        <time>2020-07-27T09:57:49Z</time>
      </trkpt>
      <trkpt lat="43.0096780" lon="-0.0986460">
        <ele>458.6</ele>
        <time>2020-07-27T09:57:50Z</time>
      </trkpt>
      <trkpt lat="43.0100160" lon="-0.0986090">
        <ele>457.4</ele>
        <time>2020-07-27T09:57:53Z</time>
      </trkpt>
      <trkpt lat="43.0102380" lon="-0.0985900">
        <ele>456.2</ele>
        <time>2020-07-27T09:57:55Z</time>
      </trkpt>
      <trkpt lat="43.0105390" lon="-0.0985730">
        <ele>455.0</ele>
        <time>2020-07-27T09:57:58Z</time>
      </trkpt>
      <trkpt lat="43.0106310" lon="-0.0985860">
        <ele>454.6</ele>
        <time>2020-07-27T09:57:59Z</time>
      </trkpt>
      <trkpt lat="43.0108090" lon="-0.0986560">
        <ele>453.4</ele>
        <time>2020-07-27T09:58:01Z</time>
      </trkpt>
      <trkpt lat="43.0109780" lon="-0.0987760">
        <ele>452.4</ele>
        <time>2020-07-27T09:58:03Z</time>
      </trkpt>
      <trkpt lat="43.0111450" lon="-0.0987680">
        <ele>451.2</ele>
        <time>2020-07-27T09:58:05Z</time>
      </trkpt>
      <trkpt lat="43.0112920" lon="-0.0986210">
        <ele>450.0</ele>
        <time>2020-07-27T09:58:07Z</time>
      </trkpt>
      <trkpt lat="43.0113700" lon="-0.0985390">
        <ele>449.4</ele>
        <time>2020-07-27T09:58:08Z</time>
      </trkpt>
      <trkpt lat="43.0114580" lon="-0.0984670">
        <ele>449.0</ele>
        <time>2020-07-27T09:58:09Z</time>
      </trkpt>
      <trkpt lat="43.0116310" lon="-0.0983760">
        <ele>448.0</ele>
        <time>2020-07-27T09:58:11Z</time>
      </trkpt>
      <trkpt lat="43.0117350" lon="-0.0983380">
        <ele>447.6</ele>
        <time>2020-07-27T09:58:12Z</time>
      </trkpt>
      <trkpt lat="43.0118410" lon="-0.0983060">
        <ele>446.8</ele>
        <time>2020-07-27T09:58:13Z</time>
      </trkpt>
      <trkpt lat="43.0119450" lon="-0.0982760">
        <ele>446.4</ele>
        <time>2020-07-27T09:58:14Z</time>
      </trkpt>
      <trkpt lat="43.0121660" lon="-0.0982180">
        <ele>445.4</ele>
        <time>2020-07-27T09:58:16Z</time>
      </trkpt>
      <trkpt lat="43.0123710" lon="-0.0981640">
        <ele>444.2</ele>
        <time>2020-07-27T09:58:18Z</time>
      </trkpt>
      <trkpt lat="43.0125960" lon="-0.0981290">
        <ele>442.4</ele>
        <time>2020-07-27T09:58:20Z</time>
      </trkpt>
      <trkpt lat="43.0127060" lon="-0.0981340">
        <ele>441.8</ele>
        <time>2020-07-27T09:58:21Z</time>
      </trkpt>
      <trkpt lat="43.0128120" lon="-0.0981620">
        <ele>441.0</ele>
        <time>2020-07-27T09:58:22Z</time>
      </trkpt>
      <trkpt lat="43.0129820" lon="-0.0982870">
        <ele>440.0</ele>
        <time>2020-07-27T09:58:24Z</time>
      </trkpt>
      <trkpt lat="43.0132030" lon="-0.0983700">
        <ele>438.8</ele>
        <time>2020-07-27T09:58:27Z</time>
      </trkpt>
      <trkpt lat="43.0132930" lon="-0.0982350">
        <ele>438.4</ele>
        <time>2020-07-27T09:58:29Z</time>
      </trkpt>
      <trkpt lat="43.0132760" lon="-0.0980890">
        <ele>438.4</ele>
        <time>2020-07-27T09:58:31Z</time>
      </trkpt>
      <trkpt lat="43.0131730" lon="-0.0980090">
        <ele>438.2</ele>
        <time>2020-07-27T09:58:33Z</time>
      </trkpt>
      <trkpt lat="43.0129070" lon="-0.0979890">
        <ele>438.2</ele>
        <time>2020-07-27T09:58:37Z</time>
      </trkpt>
      <trkpt lat="43.0128410" lon="-0.0979930">
        <ele>438.2</ele>
        <time>2020-07-27T09:58:38Z</time>
      </trkpt>
      <trkpt lat="43.0124490" lon="-0.0980180">
        <ele>438.4</ele>
        <time>2020-07-27T09:58:44Z</time>
      </trkpt>
      <trkpt lat="43.0122650" lon="-0.0980030">
        <ele>438.4</ele>
        <time>2020-07-27T09:58:47Z</time>
      </trkpt>
      <trkpt lat="43.0121530" lon="-0.0979450">
        <ele>438.8</ele>
        <time>2020-07-27T09:58:49Z</time>
      </trkpt>
      <trkpt lat="43.0119810" lon="-0.0976830">
        <ele>438.8</ele>
        <time>2020-07-27T09:58:53Z</time>
      </trkpt>
      <trkpt lat="43.0119500" lon="-0.0976140">
        <ele>438.8</ele>
        <time>2020-07-27T09:58:54Z</time>
      </trkpt>
      <trkpt lat="43.0119000" lon="-0.0975370">
        <ele>439.0</ele>
        <time>2020-07-27T09:58:56Z</time>
      </trkpt>
      <trkpt lat="43.0117740" lon="-0.0974910">
        <ele>439.2</ele>
        <time>2020-07-27T09:59:00Z</time>
      </trkpt>
      <trkpt lat="43.0116160" lon="-0.0976010">
        <ele>439.6</ele>
        <time>2020-07-27T09:59:04Z</time>
      </trkpt>
      <trkpt lat="43.0115600" lon="-0.0977040">
        <ele>439.8</ele>
        <time>2020-07-27T09:59:06Z</time>
      </trkpt>
      <trkpt lat="43.0114870" lon="-0.0978690">
        <ele>440.0</ele>
        <time>2020-07-27T09:59:09Z</time>
      </trkpt>
      <trkpt lat="43.0114320" lon="-0.0979760">
        <ele>440.2</ele>
        <time>2020-07-27T09:59:11Z</time>
      </trkpt>
      <trkpt lat="43.0113160" lon="-0.0980920">
        <ele>440.2</ele>
        <time>2020-07-27T09:59:14Z</time>
      </trkpt>
      <trkpt lat="43.0111190" lon="-0.0981420">
        <ele>440.6</ele>
        <time>2020-07-27T09:59:18Z</time>
      </trkpt>
      <trkpt lat="43.0110160" lon="-0.0981520">
        <ele>441.0</ele>
        <time>2020-07-27T09:59:20Z</time>
      </trkpt>
      <trkpt lat="43.0107040" lon="-0.0982010">
        <ele>441.6</ele>
        <time>2020-07-27T09:59:26Z</time>
      </trkpt>
      <trkpt lat="43.0103380" lon="-0.0982230">
        <ele>442.2</ele>
        <time>2020-07-27T09:59:33Z</time>
      </trkpt>
      <trkpt lat="43.0099880" lon="-0.0982190">
        <ele>442.8</ele>
        <time>2020-07-27T09:59:40Z</time>
      </trkpt>
      <trkpt lat="43.0097050" lon="-0.0982380">
        <ele>443.4</ele>
        <time>2020-07-27T09:59:46Z</time>
      </trkpt>
      <trkpt lat="43.0095230" lon="-0.0982540">
        <ele>444.2</ele>
        <time>2020-07-27T09:59:50Z</time>
      </trkpt>
      <trkpt lat="43.0093420" lon="-0.0982660">
        <ele>444.6</ele>
        <time>2020-07-27T09:59:54Z</time>
      </trkpt>
      <trkpt lat="43.0092510" lon="-0.0982720">
        <ele>445.6</ele>
        <time>2020-07-27T09:59:56Z</time>
      </trkpt>
      <trkpt lat="43.0090690" lon="-0.0982800">
        <ele>446.4</ele>
        <time>2020-07-27T10:00:00Z</time>
      </trkpt>
      <trkpt lat="43.0089280" lon="-0.0982890">
        <ele>447.0</ele>
        <time>2020-07-27T10:00:03Z</time>
      </trkpt>
      <trkpt lat="43.0085980" lon="-0.0983280">
        <ele>447.8</ele>
        <time>2020-07-27T10:00:10Z</time>
      </trkpt>
      <trkpt lat="43.0083600" lon="-0.0983640">
        <ele>448.2</ele>
        <time>2020-07-27T10:00:15Z</time>
      </trkpt>
      <trkpt lat="43.0081730" lon="-0.0983910">
        <ele>448.6</ele>
        <time>2020-07-27T10:00:19Z</time>
      </trkpt>
      <trkpt lat="43.0079050" lon="-0.0984510">
        <ele>449.4</ele>
        <time>2020-07-27T10:00:25Z</time>
      </trkpt>
      <trkpt lat="43.0077690" lon="-0.0984750">
        <ele>449.8</ele>
        <time>2020-07-27T10:00:28Z</time>
      </trkpt>
      <trkpt lat="43.0073490" lon="-0.0985490">
        <ele>450.6</ele>
        <time>2020-07-27T10:00:37Z</time>
      </trkpt>
      <trkpt lat="43.0072570" lon="-0.0985540">
        <ele>450.6</ele>
        <time>2020-07-27T10:00:39Z</time>
      </trkpt>
      <trkpt lat="43.0069890" lon="-0.0985770">
        <ele>451.4</ele>
        <time>2020-07-27T10:00:45Z</time>
      </trkpt>
      <trkpt lat="43.0068650" lon="-0.0986020">
        <ele>451.6</ele>
        <time>2020-07-27T10:00:48Z</time>
      </trkpt>
      <trkpt lat="43.0068220" lon="-0.0986020">
        <ele>451.8</ele>
        <time>2020-07-27T10:00:49Z</time>
      </trkpt>
      <trkpt lat="43.0067780" lon="-0.0986010">
        <ele>452.2</ele>
        <time>2020-07-27T10:00:50Z</time>
      </trkpt>
      <trkpt lat="43.0066370" lon="-0.0986100">
        <ele>452.8</ele>
        <time>2020-07-27T10:00:53Z</time>
      </trkpt>
      <trkpt lat="43.0065470" lon="-0.0986290">
        <ele>453.4</ele>
        <time>2020-07-27T10:00:55Z</time>
      </trkpt>
      <trkpt lat="43.0065080" lon="-0.0986450">
        <ele>453.4</ele>
        <time>2020-07-27T10:00:56Z</time>
      </trkpt>
      <trkpt lat="43.0064560" lon="-0.0986600">
        <ele>453.6</ele>
        <time>2020-07-27T10:00:59Z</time>
      </trkpt>
      <trkpt lat="43.0064550" lon="-0.0986570">
        <ele>453.6</ele>
        <time>2020-07-27T10:01:00Z</time>
      </trkpt>
      <trkpt lat="43.0063950" lon="-0.0986360">
        <ele>454.4</ele>
        <time>2020-07-27T10:04:39Z</time>
      </trkpt>
      <trkpt lat="43.0063660" lon="-0.0986350">
        <ele>454.4</ele>
        <time>2020-07-27T10:04:40Z</time>
      </trkpt>
      <trkpt lat="43.0062630" lon="-0.0986460">
        <ele>454.6</ele>
        <time>2020-07-27T10:04:43Z</time>
      </trkpt>
      <trkpt lat="43.0061120" lon="-0.0986700">
        <ele>454.4</ele>
        <time>2020-07-27T10:04:47Z</time>
      </trkpt>
      <trkpt lat="43.0057720" lon="-0.0987210">
        <ele>455.2</ele>
        <time>2020-07-27T10:04:55Z</time>
      </trkpt>
      <trkpt lat="43.0053870" lon="-0.0987670">
        <ele>455.6</ele>
        <time>2020-07-27T10:05:03Z</time>
      </trkpt>
      <trkpt lat="43.0051830" lon="-0.0987790">
        <ele>455.8</ele>
        <time>2020-07-27T10:05:07Z</time>
      </trkpt>
      <trkpt lat="43.0049890" lon="-0.0988060">
        <ele>456.4</ele>
        <time>2020-07-27T10:05:11Z</time>
      </trkpt>
      <trkpt lat="43.0045780" lon="-0.0988880">
        <ele>457.4</ele>
        <time>2020-07-27T10:05:19Z</time>
      </trkpt>
      <trkpt lat="43.0042210" lon="-0.0989400">
        <ele>457.6</ele>
        <time>2020-07-27T10:05:26Z</time>
      </trkpt>
      <trkpt lat="43.0038610" lon="-0.0990020">
        <ele>458.4</ele>
        <time>2020-07-27T10:05:33Z</time>
      </trkpt>
      <trkpt lat="43.0034930" lon="-0.0990290">
        <ele>459.0</ele>
        <time>2020-07-27T10:05:40Z</time>
      </trkpt>
      <trkpt lat="43.0031180" lon="-0.0990680">
        <ele>459.8</ele>
        <time>2020-07-27T10:05:47Z</time>
      </trkpt>
      <trkpt lat="43.0029050" lon="-0.0990940">
        <ele>460.0</ele>
        <time>2020-07-27T10:05:51Z</time>
      </trkpt>
      <trkpt lat="43.0023360" lon="-0.0991790">
        <ele>461.0</ele>
        <time>2020-07-27T10:06:02Z</time>
      </trkpt>
      <trkpt lat="43.0018700" lon="-0.0992890">
        <ele>461.4</ele>
        <time>2020-07-27T10:06:11Z</time>
      </trkpt>
      <trkpt lat="43.0017140" lon="-0.0993330">
        <ele>461.8</ele>
        <time>2020-07-27T10:06:14Z</time>
      </trkpt>
      <trkpt lat="43.0015720" lon="-0.0993980">
        <ele>462.0</ele>
        <time>2020-07-27T10:06:17Z</time>
      </trkpt>
      <trkpt lat="43.0014490" lon="-0.0993080">
        <ele>462.2</ele>
        <time>2020-07-27T10:06:20Z</time>
      </trkpt>
      <trkpt lat="43.0014120" lon="-0.0992550">
        <ele>462.4</ele>
        <time>2020-07-27T10:06:21Z</time>
      </trkpt>
      <trkpt lat="43.0012050" lon="-0.0989590">
        <ele>463.2</ele>
        <time>2020-07-27T10:06:26Z</time>
      </trkpt>
      <trkpt lat="43.0008380" lon="-0.0984340">
        <ele>463.2</ele>
        <time>2020-07-27T10:06:34Z</time>
      </trkpt>
      <trkpt lat="43.0004280" lon="-0.0978300">
        <ele>462.2</ele>
        <time>2020-07-27T10:06:42Z</time>
      </trkpt>
      <trkpt lat="43.0003770" lon="-0.0977520">
        <ele>461.8</ele>
        <time>2020-07-27T10:06:43Z</time>
      </trkpt>
      <trkpt lat="43.0002750" lon="-0.0975960">
        <ele>461.6</ele>
        <time>2020-07-27T10:06:45Z</time>
      </trkpt>
      <trkpt lat="42.9999240" lon="-0.0970670">
        <ele>461.0</ele>
        <time>2020-07-27T10:06:52Z</time>
      </trkpt>
      <trkpt lat="42.9995760" lon="-0.0965350">
        <ele>460.6</ele>
        <time>2020-07-27T10:06:59Z</time>
      </trkpt>
      <trkpt lat="42.9994840" lon="-0.0963960">
        <ele>460.6</ele>
        <time>2020-07-27T10:07:01Z</time>
      </trkpt>
      <trkpt lat="42.9994330" lon="-0.0962810">
        <ele>460.0</ele>
        <time>2020-07-27T10:07:04Z</time>
      </trkpt>
      <trkpt lat="42.9993700" lon="-0.0962410">
        <ele>459.2</ele>
        <time>2020-07-27T10:28:41Z</time>
      </trkpt>
      <trkpt lat="42.9993530" lon="-0.0962150">
        <ele>459.2</ele>
        <time>2020-07-27T10:28:42Z</time>
      </trkpt>
      <trkpt lat="42.9990620" lon="-0.0957890">
        <ele>458.6</ele>
        <time>2020-07-27T10:28:49Z</time>
      </trkpt>
      <trkpt lat="42.9989720" lon="-0.0956560">
        <ele>458.2</ele>
        <time>2020-07-27T10:28:51Z</time>
      </trkpt>
      <trkpt lat="42.9987410" lon="-0.0953140">
        <ele>457.4</ele>
        <time>2020-07-27T10:28:56Z</time>
      </trkpt>
      <trkpt lat="42.9986950" lon="-0.0952460">
        <ele>457.0</ele>
        <time>2020-07-27T10:28:57Z</time>
      </trkpt>
      <trkpt lat="42.9984700" lon="-0.0949230">
        <ele>456.6</ele>
        <time>2020-07-27T10:29:02Z</time>
      </trkpt>
      <trkpt lat="42.9982060" lon="-0.0945310">
        <ele>456.8</ele>
        <time>2020-07-27T10:29:08Z</time>
      </trkpt>
      <trkpt lat="42.9978460" lon="-0.0939560">
        <ele>457.4</ele>
        <time>2020-07-27T10:29:16Z</time>
      </trkpt>
      <trkpt lat="42.9975010" lon="-0.0934100">
        <ele>457.0</ele>
        <time>2020-07-27T10:29:22Z</time>
      </trkpt>
      <trkpt lat="42.9973760" lon="-0.0932150">
        <ele>456.2</ele>
        <time>2020-07-27T10:29:24Z</time>
      </trkpt>
      <trkpt lat="42.9972470" lon="-0.0930190">
        <ele>455.2</ele>
        <time>2020-07-27T10:29:26Z</time>
      </trkpt>
      <trkpt lat="42.9971160" lon="-0.0928210">
        <ele>453.8</ele>
        <time>2020-07-27T10:29:28Z</time>
      </trkpt>
      <trkpt lat="42.9969850" lon="-0.0926210">
        <ele>452.8</ele>
        <time>2020-07-27T10:29:30Z</time>
      </trkpt>
      <trkpt lat="42.9969200" lon="-0.0925220">
        <ele>452.2</ele>
        <time>2020-07-27T10:29:31Z</time>
      </trkpt>
      <trkpt lat="42.9968530" lon="-0.0924230">
        <ele>451.6</ele>
        <time>2020-07-27T10:29:32Z</time>
      </trkpt>
      <trkpt lat="42.9967840" lon="-0.0923290">
        <ele>451.0</ele>
        <time>2020-07-27T10:29:33Z</time>
      </trkpt>
      <trkpt lat="42.9967100" lon="-0.0922430">
        <ele>450.6</ele>
        <time>2020-07-27T10:29:34Z</time>
      </trkpt>
      <trkpt lat="42.9966290" lon="-0.0921710">
        <ele>450.2</ele>
        <time>2020-07-27T10:29:35Z</time>
      </trkpt>
      <trkpt lat="42.9965420" lon="-0.0921140">
        <ele>450.0</ele>
        <time>2020-07-27T10:29:36Z</time>
      </trkpt>
      <trkpt lat="42.9963610" lon="-0.0920300">
        <ele>449.2</ele>
        <time>2020-07-27T10:29:38Z</time>
      </trkpt>
      <trkpt lat="42.9960880" lon="-0.0919260">
        <ele>448.2</ele>
        <time>2020-07-27T10:29:41Z</time>
      </trkpt>
      <trkpt lat="42.9959960" lon="-0.0918910">
        <ele>448.0</ele>
        <time>2020-07-27T10:29:42Z</time>
      </trkpt>
      <trkpt lat="42.9958130" lon="-0.0918260">
        <ele>447.0</ele>
        <time>2020-07-27T10:29:44Z</time>
      </trkpt>
      <trkpt lat="42.9952650" lon="-0.0916300">
        <ele>446.2</ele>
        <time>2020-07-27T10:29:50Z</time>
      </trkpt>
      <trkpt lat="42.9951720" lon="-0.0916130">
        <ele>445.8</ele>
        <time>2020-07-27T10:29:51Z</time>
      </trkpt>
      <trkpt lat="42.9948070" lon="-0.0915900">
        <ele>445.2</ele>
        <time>2020-07-27T10:29:55Z</time>
      </trkpt>
      <trkpt lat="42.9946300" lon="-0.0915860">
        <ele>445.0</ele>
        <time>2020-07-27T10:29:57Z</time>
      </trkpt>
      <trkpt lat="42.9945430" lon="-0.0915710">
        <ele>444.8</ele>
        <time>2020-07-27T10:29:58Z</time>
      </trkpt>
      <trkpt lat="42.9943740" lon="-0.0915070">
        <ele>444.4</ele>
        <time>2020-07-27T10:30:00Z</time>
      </trkpt>
      <trkpt lat="42.9941260" lon="-0.0913930">
        <ele>444.0</ele>
        <time>2020-07-27T10:30:03Z</time>
      </trkpt>
      <trkpt lat="42.9937150" lon="-0.0912030">
        <ele>443.6</ele>
        <time>2020-07-27T10:30:08Z</time>
      </trkpt>
      <trkpt lat="42.9935510" lon="-0.0911310">
        <ele>443.4</ele>
        <time>2020-07-27T10:30:10Z</time>
      </trkpt>
      <trkpt lat="42.9933010" lon="-0.0910160">
        <ele>443.0</ele>
        <time>2020-07-27T10:30:13Z</time>
      </trkpt>
      <trkpt lat="42.9927960" lon="-0.0907810">
        <ele>442.4</ele>
        <time>2020-07-27T10:30:19Z</time>
      </trkpt>
      <trkpt lat="42.9926280" lon="-0.0907020">
        <ele>442.0</ele>
        <time>2020-07-27T10:30:21Z</time>
      </trkpt>
      <trkpt lat="42.9920740" lon="-0.0904300">
        <ele>441.6</ele>
        <time>2020-07-27T10:30:28Z</time>
      </trkpt>
      <trkpt lat="42.9919980" lon="-0.0903930">
        <ele>441.6</ele>
        <time>2020-07-27T10:30:29Z</time>
      </trkpt>
      <trkpt lat="42.9914800" lon="-0.0901590">
        <ele>441.6</ele>
        <time>2020-07-27T10:30:36Z</time>
      </trkpt>
      <trkpt lat="42.9912640" lon="-0.0900860">
        <ele>441.8</ele>
        <time>2020-07-27T10:30:39Z</time>
      </trkpt>
      <trkpt lat="42.9907350" lon="-0.0899310">
        <ele>442.6</ele>
        <time>2020-07-27T10:30:47Z</time>
      </trkpt>
      <trkpt lat="42.9903830" lon="-0.0898300">
        <ele>443.6</ele>
        <time>2020-07-27T10:30:53Z</time>
      </trkpt>
      <trkpt lat="42.9901040" lon="-0.0897490">
        <ele>444.0</ele>
        <time>2020-07-27T10:30:58Z</time>
      </trkpt>
      <trkpt lat="42.9899420" lon="-0.0897040">
        <ele>444.4</ele>
        <time>2020-07-27T10:31:01Z</time>
      </trkpt>
      <trkpt lat="42.9896150" lon="-0.0895950">
        <ele>444.8</ele>
        <time>2020-07-27T10:31:07Z</time>
      </trkpt>
      <trkpt lat="42.9895570" lon="-0.0895720">
        <ele>445.0</ele>
        <time>2020-07-27T10:31:08Z</time>
      </trkpt>
      <trkpt lat="42.9890450" lon="-0.0893510">
        <ele>445.8</ele>
        <time>2020-07-27T10:31:16Z</time>
      </trkpt>
      <trkpt lat="42.9885040" lon="-0.0891060">
        <ele>444.8</ele>
        <time>2020-07-27T10:31:24Z</time>
      </trkpt>
      <trkpt lat="42.9883690" lon="-0.0890450">
        <ele>444.6</ele>
        <time>2020-07-27T10:31:26Z</time>
      </trkpt>
      <trkpt lat="42.9878210" lon="-0.0888580">
        <ele>444.6</ele>
        <time>2020-07-27T10:31:34Z</time>
      </trkpt>
      <trkpt lat="42.9877510" lon="-0.0888410">
        <ele>444.6</ele>
        <time>2020-07-27T10:31:35Z</time>
      </trkpt>
      <trkpt lat="42.9873360" lon="-0.0887420">
        <ele>444.4</ele>
        <time>2020-07-27T10:31:41Z</time>
      </trkpt>
      <trkpt lat="42.9870640" lon="-0.0886770">
        <ele>444.2</ele>
        <time>2020-07-27T10:31:45Z</time>
      </trkpt>
      <trkpt lat="42.9864720" lon="-0.0885310">
        <ele>444.4</ele>
        <time>2020-07-27T10:31:54Z</time>
      </trkpt>
      <trkpt lat="42.9862840" lon="-0.0884650">
        <ele>444.8</ele>
        <time>2020-07-27T10:31:57Z</time>
      </trkpt>
      <trkpt lat="42.9857370" lon="-0.0882070">
        <ele>444.8</ele>
        <time>2020-07-27T10:32:06Z</time>
      </trkpt>
      <trkpt lat="42.9852090" lon="-0.0879370">
        <ele>445.2</ele>
        <time>2020-07-27T10:32:15Z</time>
      </trkpt>
      <trkpt lat="42.9850320" lon="-0.0878460">
        <ele>445.4</ele>
        <time>2020-07-27T10:32:18Z</time>
      </trkpt>
      <trkpt lat="42.9846670" lon="-0.0876620">
        <ele>445.8</ele>
        <time>2020-07-27T10:32:24Z</time>
      </trkpt>
      <trkpt lat="42.9843070" lon="-0.0874580">
        <ele>446.0</ele>
        <time>2020-07-27T10:32:30Z</time>
      </trkpt>
      <trkpt lat="42.9841330" lon="-0.0873460">
        <ele>446.0</ele>
        <time>2020-07-27T10:32:33Z</time>
      </trkpt>
      <trkpt lat="42.9838050" lon="-0.0870810">
        <ele>446.2</ele>
        <time>2020-07-27T10:32:39Z</time>
      </trkpt>
      <trkpt lat="42.9833340" lon="-0.0866260">
        <ele>446.6</ele>
        <time>2020-07-27T10:32:48Z</time>
      </trkpt>
      <trkpt lat="42.9831260" lon="-0.0864220">
        <ele>446.6</ele>
        <time>2020-07-27T10:32:52Z</time>
      </trkpt>
      <trkpt lat="42.9826720" lon="-0.0859600">
        <ele>446.8</ele>
        <time>2020-07-27T10:33:01Z</time>
      </trkpt>
      <trkpt lat="42.9826230" lon="-0.0859070">
        <ele>446.8</ele>
        <time>2020-07-27T10:33:02Z</time>
      </trkpt>
      <trkpt lat="42.9821800" lon="-0.0854520">
        <ele>447.0</ele>
        <time>2020-07-27T10:33:11Z</time>
      </trkpt>
      <trkpt lat="42.9821300" lon="-0.0853990">
        <ele>447.0</ele>
        <time>2020-07-27T10:33:12Z</time>
      </trkpt>
      <trkpt lat="42.9819250" lon="-0.0851980">
        <ele>447.6</ele>
        <time>2020-07-27T10:33:16Z</time>
      </trkpt>
      <trkpt lat="42.9816520" lon="-0.0849670">
        <ele>448.0</ele>
        <time>2020-07-27T10:33:21Z</time>
      </trkpt>
      <trkpt lat="42.9811910" lon="-0.0845120">
        <ele>448.4</ele>
        <time>2020-07-27T10:33:30Z</time>
      </trkpt>
      <trkpt lat="42.9807950" lon="-0.0841320">
        <ele>448.4</ele>
        <time>2020-07-27T10:33:38Z</time>
      </trkpt>
      <trkpt lat="42.9803070" lon="-0.0836570">
        <ele>448.8</ele>
        <time>2020-07-27T10:33:48Z</time>
      </trkpt>
      <trkpt lat="42.9802590" lon="-0.0836090">
        <ele>448.8</ele>
        <time>2020-07-27T10:33:49Z</time>
      </trkpt>
      <trkpt lat="42.9798670" lon="-0.0832370">
        <ele>449.2</ele>
        <time>2020-07-27T10:33:57Z</time>
      </trkpt>
      <trkpt lat="42.9796140" lon="-0.0830130">
        <ele>449.4</ele>
        <time>2020-07-27T10:34:02Z</time>
      </trkpt>
      <trkpt lat="42.9791100" lon="-0.0825950">
        <ele>449.6</ele>
        <time>2020-07-27T10:34:12Z</time>
      </trkpt>
      <trkpt lat="42.9789590" lon="-0.0824750">
        <ele>449.6</ele>
        <time>2020-07-27T10:34:15Z</time>
      </trkpt>
      <trkpt lat="42.9785200" lon="-0.0821170">
        <ele>449.8</ele>
        <time>2020-07-27T10:34:24Z</time>
      </trkpt>
      <trkpt lat="42.9780260" lon="-0.0817150">
        <ele>450.8</ele>
        <time>2020-07-27T10:34:34Z</time>
      </trkpt>
      <trkpt lat="42.9779260" lon="-0.0816310">
        <ele>451.0</ele>
        <time>2020-07-27T10:34:36Z</time>
      </trkpt>
      <trkpt lat="42.9774630" lon="-0.0812520">
        <ele>451.6</ele>
        <time>2020-07-27T10:34:45Z</time>
      </trkpt>
      <trkpt lat="42.9774120" lon="-0.0812110">
        <ele>451.8</ele>
        <time>2020-07-27T10:34:46Z</time>
      </trkpt>
      <trkpt lat="42.9772110" lon="-0.0810460">
        <ele>452.0</ele>
        <time>2020-07-27T10:34:50Z</time>
      </trkpt>
      <trkpt lat="42.9770600" lon="-0.0809150">
        <ele>452.0</ele>
        <time>2020-07-27T10:34:53Z</time>
      </trkpt>
      <trkpt lat="42.9768570" lon="-0.0807270">
        <ele>452.0</ele>
        <time>2020-07-27T10:34:57Z</time>
      </trkpt>
      <trkpt lat="42.9764110" lon="-0.0802890">
        <ele>452.2</ele>
        <time>2020-07-27T10:35:06Z</time>
      </trkpt>
      <trkpt lat="42.9762660" lon="-0.0801450">
        <ele>452.4</ele>
        <time>2020-07-27T10:35:09Z</time>
      </trkpt>
      <trkpt lat="42.9758100" lon="-0.0796830">
        <ele>452.6</ele>
        <time>2020-07-27T10:35:19Z</time>
      </trkpt>
      <trkpt lat="42.9757660" lon="-0.0796350">
        <ele>452.6</ele>
        <time>2020-07-27T10:35:20Z</time>
      </trkpt>
      <trkpt lat="42.9754320" lon="-0.0791940">
        <ele>453.4</ele>
        <time>2020-07-27T10:35:28Z</time>
      </trkpt>
      <trkpt lat="42.9753940" lon="-0.0791320">
        <ele>453.6</ele>
        <time>2020-07-27T10:35:29Z</time>
      </trkpt>
      <trkpt lat="42.9750770" lon="-0.0785220">
        <ele>453.8</ele>
        <time>2020-07-27T10:35:38Z</time>
      </trkpt>
      <trkpt lat="42.9748040" lon="-0.0778560">
        <ele>453.8</ele>
        <time>2020-07-27T10:35:47Z</time>
      </trkpt>
      <trkpt lat="42.9747460" lon="-0.0777040">
        <ele>454.0</ele>
        <time>2020-07-27T10:35:49Z</time>
      </trkpt>
      <trkpt lat="42.9744720" lon="-0.0770470">
        <ele>454.6</ele>
        <time>2020-07-27T10:35:58Z</time>
      </trkpt>
      <trkpt lat="42.9744000" lon="-0.0769120">
        <ele>454.6</ele>
        <time>2020-07-27T10:36:00Z</time>
      </trkpt>
      <trkpt lat="42.9740650" lon="-0.0764410">
        <ele>454.8</ele>
        <time>2020-07-27T10:36:08Z</time>
      </trkpt>
      <trkpt lat="42.9739730" lon="-0.0763430">
        <ele>455.0</ele>
        <time>2020-07-27T10:36:10Z</time>
      </trkpt>
      <trkpt lat="42.9736930" lon="-0.0760840">
        <ele>455.2</ele>
        <time>2020-07-27T10:36:16Z</time>
      </trkpt>
      <trkpt lat="42.9733250" lon="-0.0758710">
        <ele>456.0</ele>
        <time>2020-07-27T10:36:23Z</time>
      </trkpt>
      <trkpt lat="42.9732700" lon="-0.0758450">
        <ele>456.2</ele>
        <time>2020-07-27T10:36:24Z</time>
      </trkpt>
      <trkpt lat="42.9727810" lon="-0.0756130">
        <ele>456.6</ele>
        <time>2020-07-27T10:36:33Z</time>
      </trkpt>
      <trkpt lat="42.9722450" lon="-0.0753570">
        <ele>456.8</ele>
        <time>2020-07-27T10:36:43Z</time>
      </trkpt>
      <trkpt lat="42.9721400" lon="-0.0753080">
        <ele>457.0</ele>
        <time>2020-07-27T10:36:45Z</time>
      </trkpt>
      <trkpt lat="42.9718790" lon="-0.0751840">
        <ele>457.4</ele>
        <time>2020-07-27T10:36:50Z</time>
      </trkpt>
      <trkpt lat="42.9714680" lon="-0.0749950">
        <ele>458.2</ele>
        <time>2020-07-27T10:36:58Z</time>
      </trkpt>
      <trkpt lat="42.9712670" lon="-0.0749190">
        <ele>458.6</ele>
        <time>2020-07-27T10:37:02Z</time>
      </trkpt>
      <trkpt lat="42.9709660" lon="-0.0748320">
        <ele>459.0</ele>
        <time>2020-07-27T10:37:08Z</time>
      </trkpt>
      <trkpt lat="42.9706640" lon="-0.0747550">
        <ele>460.2</ele>
        <time>2020-07-27T10:37:14Z</time>
      </trkpt>
      <trkpt lat="42.9705170" lon="-0.0747180">
        <ele>460.8</ele>
        <time>2020-07-27T10:37:17Z</time>
      </trkpt>
      <trkpt lat="42.9703330" lon="-0.0746680">
        <ele>461.2</ele>
        <time>2020-07-27T10:37:21Z</time>
      </trkpt>
      <trkpt lat="42.9701550" lon="-0.0746190">
        <ele>461.8</ele>
        <time>2020-07-27T10:37:25Z</time>
      </trkpt>
      <trkpt lat="42.9700650" lon="-0.0745910">
        <ele>462.2</ele>
        <time>2020-07-27T10:37:27Z</time>
      </trkpt>
      <trkpt lat="42.9698420" lon="-0.0745220">
        <ele>463.4</ele>
        <time>2020-07-27T10:37:32Z</time>
      </trkpt>
      <trkpt lat="42.9696110" lon="-0.0744540">
        <ele>464.0</ele>
        <time>2020-07-27T10:37:37Z</time>
      </trkpt>
      <trkpt lat="42.9694720" lon="-0.0744150">
        <ele>464.4</ele>
        <time>2020-07-27T10:37:40Z</time>
      </trkpt>
      <trkpt lat="42.9691970" lon="-0.0743350">
        <ele>465.8</ele>
        <time>2020-07-27T10:37:46Z</time>
      </trkpt>
      <trkpt lat="42.9690570" lon="-0.0742970">
        <ele>466.2</ele>
        <time>2020-07-27T10:37:49Z</time>
      </trkpt>
      <trkpt lat="42.9688650" lon="-0.0742450">
        <ele>466.8</ele>
        <time>2020-07-27T10:37:53Z</time>
      </trkpt>
      <trkpt lat="42.9684270" lon="-0.0741200">
        <ele>467.2</ele>
        <time>2020-07-27T10:38:02Z</time>
      </trkpt>
      <trkpt lat="42.9682240" lon="-0.0740660">
        <ele>467.6</ele>
        <time>2020-07-27T10:38:06Z</time>
      </trkpt>
      <trkpt lat="42.9679690" lon="-0.0739970">
        <ele>468.0</ele>
        <time>2020-07-27T10:38:11Z</time>
      </trkpt>
      <trkpt lat="42.9677640" lon="-0.0739380">
        <ele>468.4</ele>
        <time>2020-07-27T10:38:15Z</time>
      </trkpt>
      <trkpt lat="42.9672670" lon="-0.0737940">
        <ele>469.2</ele>
        <time>2020-07-27T10:38:25Z</time>
      </trkpt>
      <trkpt lat="42.9671700" lon="-0.0737700">
        <ele>469.4</ele>
        <time>2020-07-27T10:38:27Z</time>
      </trkpt>
      <trkpt lat="42.9668460" lon="-0.0736830">
        <ele>470.0</ele>
        <time>2020-07-27T10:38:34Z</time>
      </trkpt>
      <trkpt lat="42.9667560" lon="-0.0736650">
        <ele>470.4</ele>
        <time>2020-07-27T10:38:36Z</time>
      </trkpt>
      <trkpt lat="42.9664840" lon="-0.0736400">
        <ele>471.4</ele>
        <time>2020-07-27T10:38:42Z</time>
      </trkpt>
      <trkpt lat="42.9664400" lon="-0.0736290">
        <ele>471.4</ele>
        <time>2020-07-27T10:38:43Z</time>
      </trkpt>
      <trkpt lat="42.9663080" lon="-0.0735950">
        <ele>472.0</ele>
        <time>2020-07-27T10:38:46Z</time>
      </trkpt>
      <trkpt lat="42.9662630" lon="-0.0736050">
        <ele>472.0</ele>
        <time>2020-07-27T10:38:47Z</time>
      </trkpt>
      <trkpt lat="42.9660830" lon="-0.0736740">
        <ele>472.8</ele>
        <time>2020-07-27T10:38:51Z</time>
      </trkpt>
      <trkpt lat="42.9660370" lon="-0.0736920">
        <ele>473.0</ele>
        <time>2020-07-27T10:38:52Z</time>
      </trkpt>
      <trkpt lat="42.9657690" lon="-0.0738580">
        <ele>473.4</ele>
        <time>2020-07-27T10:38:58Z</time>
      </trkpt>
      <trkpt lat="42.9657220" lon="-0.0738770">
        <ele>473.6</ele>
        <time>2020-07-27T10:38:59Z</time>
      </trkpt>
      <trkpt lat="42.9655310" lon="-0.0739330">
        <ele>474.0</ele>
        <time>2020-07-27T10:39:03Z</time>
      </trkpt>
      <trkpt lat="42.9652920" lon="-0.0739930">
        <ele>474.6</ele>
        <time>2020-07-27T10:39:08Z</time>
      </trkpt>
      <trkpt lat="42.9649670" lon="-0.0740890">
        <ele>475.2</ele>
        <time>2020-07-27T10:39:15Z</time>
      </trkpt>
      <trkpt lat="42.9647860" lon="-0.0741370">
        <ele>475.8</ele>
        <time>2020-07-27T10:39:19Z</time>
      </trkpt>
      <trkpt lat="42.9645140" lon="-0.0742170">
        <ele>476.4</ele>
        <time>2020-07-27T10:39:25Z</time>
      </trkpt>
      <trkpt lat="42.9643310" lon="-0.0742710">
        <ele>477.0</ele>
        <time>2020-07-27T10:39:29Z</time>
      </trkpt>
      <trkpt lat="42.9642390" lon="-0.0742960">
        <ele>477.4</ele>
        <time>2020-07-27T10:39:31Z</time>
      </trkpt>
      <trkpt lat="42.9638350" lon="-0.0744100">
        <ele>478.2</ele>
        <time>2020-07-27T10:39:40Z</time>
      </trkpt>
      <trkpt lat="42.9636170" lon="-0.0744750">
        <ele>478.8</ele>
        <time>2020-07-27T10:39:45Z</time>
      </trkpt>
      <trkpt lat="42.9634910" lon="-0.0745110">
        <ele>479.2</ele>
        <time>2020-07-27T10:39:48Z</time>
      </trkpt>
      <trkpt lat="42.9633260" lon="-0.0745390">
        <ele>479.8</ele>
        <time>2020-07-27T10:39:52Z</time>
      </trkpt>
      <trkpt lat="42.9631100" lon="-0.0745550">
        <ele>481.0</ele>
        <time>2020-07-27T10:39:57Z</time>
      </trkpt>
      <trkpt lat="42.9630660" lon="-0.0745540">
        <ele>481.2</ele>
        <time>2020-07-27T10:39:58Z</time>
      </trkpt>
      <trkpt lat="42.9628010" lon="-0.0745520">
        <ele>482.2</ele>
        <time>2020-07-27T10:40:04Z</time>
      </trkpt>
      <trkpt lat="42.9625360" lon="-0.0745490">
        <ele>482.8</ele>
        <time>2020-07-27T10:40:10Z</time>
      </trkpt>
      <trkpt lat="42.9624490" lon="-0.0745460">
        <ele>483.2</ele>
        <time>2020-07-27T10:40:12Z</time>
      </trkpt>
      <trkpt lat="42.9620620" lon="-0.0745370">
        <ele>484.4</ele>
        <time>2020-07-27T10:40:21Z</time>
      </trkpt>
      <trkpt lat="42.9619300" lon="-0.0745380">
        <ele>484.8</ele>
        <time>2020-07-27T10:40:24Z</time>
      </trkpt>
      <trkpt lat="42.9614540" lon="-0.0745400">
        <ele>485.4</ele>
        <time>2020-07-27T10:40:34Z</time>
      </trkpt>
      <trkpt lat="42.9613080" lon="-0.0745380">
        <ele>485.4</ele>
        <time>2020-07-27T10:40:37Z</time>
      </trkpt>
      <trkpt lat="42.9612590" lon="-0.0745380">
        <ele>485.6</ele>
        <time>2020-07-27T10:40:38Z</time>
      </trkpt>
      <trkpt lat="42.9609370" lon="-0.0745330">
        <ele>486.6</ele>
        <time>2020-07-27T10:40:45Z</time>
      </trkpt>
      <trkpt lat="42.9608080" lon="-0.0745340">
        <ele>486.8</ele>
        <time>2020-07-27T10:40:48Z</time>
      </trkpt>
      <trkpt lat="42.9605620" lon="-0.0745310">
        <ele>488.0</ele>
        <time>2020-07-27T10:40:54Z</time>
      </trkpt>
      <trkpt lat="42.9605220" lon="-0.0745310">
        <ele>488.0</ele>
        <time>2020-07-27T10:40:55Z</time>
      </trkpt>
      <trkpt lat="42.9602570" lon="-0.0745290">
        <ele>489.2</ele>
        <time>2020-07-27T10:41:02Z</time>
      </trkpt>
      <trkpt lat="42.9601790" lon="-0.0745390">
        <ele>489.6</ele>
        <time>2020-07-27T10:41:04Z</time>
      </trkpt>
      <trkpt lat="42.9600170" lon="-0.0745480">
        <ele>490.2</ele>
        <time>2020-07-27T10:41:08Z</time>
      </trkpt>
      <trkpt lat="42.9598970" lon="-0.0745410">
        <ele>491.0</ele>
        <time>2020-07-27T10:41:11Z</time>
      </trkpt>
      <trkpt lat="42.9597270" lon="-0.0745480">
        <ele>491.6</ele>
        <time>2020-07-27T10:41:15Z</time>
      </trkpt>
      <trkpt lat="42.9596010" lon="-0.0745470">
        <ele>492.4</ele>
        <time>2020-07-27T10:41:18Z</time>
      </trkpt>
      <trkpt lat="42.9595200" lon="-0.0745380">
        <ele>492.6</ele>
        <time>2020-07-27T10:41:20Z</time>
      </trkpt>
      <trkpt lat="42.9592950" lon="-0.0745480">
        <ele>493.6</ele>
        <time>2020-07-27T10:41:26Z</time>
      </trkpt>
      <trkpt lat="42.9591190" lon="-0.0745820">
        <ele>494.8</ele>
        <time>2020-07-27T10:41:31Z</time>
      </trkpt>
      <trkpt lat="42.9590420" lon="-0.0745790">
        <ele>495.2</ele>
        <time>2020-07-27T10:41:33Z</time>
      </trkpt>
      <trkpt lat="42.9588820" lon="-0.0745890">
        <ele>496.0</ele>
        <time>2020-07-27T10:41:37Z</time>
      </trkpt>
      <trkpt lat="42.9587180" lon="-0.0746200">
        <ele>496.2</ele>
        <time>2020-07-27T10:41:41Z</time>
      </trkpt>
      <trkpt lat="42.9584200" lon="-0.0747660">
        <ele>497.0</ele>
        <time>2020-07-27T10:41:49Z</time>
      </trkpt>
      <trkpt lat="42.9582380" lon="-0.0748720">
        <ele>498.0</ele>
        <time>2020-07-27T10:41:54Z</time>
      </trkpt>
      <trkpt lat="42.9580930" lon="-0.0749600">
        <ele>498.8</ele>
        <time>2020-07-27T10:41:58Z</time>
      </trkpt>
      <trkpt lat="42.9579460" lon="-0.0750340">
        <ele>499.2</ele>
        <time>2020-07-27T10:42:02Z</time>
      </trkpt>
      <trkpt lat="42.9578290" lon="-0.0750530">
        <ele>499.8</ele>
        <time>2020-07-27T10:42:05Z</time>
      </trkpt>
      <trkpt lat="42.9577420" lon="-0.0750560">
        <ele>500.6</ele>
        <time>2020-07-27T10:42:07Z</time>
      </trkpt>
      <trkpt lat="42.9576580" lon="-0.0750800">
        <ele>501.0</ele>
        <time>2020-07-27T10:42:09Z</time>
      </trkpt>
      <trkpt lat="42.9576180" lon="-0.0750940">
        <ele>501.2</ele>
        <time>2020-07-27T10:42:10Z</time>
      </trkpt>
      <trkpt lat="42.9573770" lon="-0.0751780">
        <ele>501.6</ele>
        <time>2020-07-27T10:42:17Z</time>
      </trkpt>
      <trkpt lat="42.9571560" lon="-0.0751690">
        <ele>502.6</ele>
        <time>2020-07-27T10:42:23Z</time>
      </trkpt>
      <trkpt lat="42.9571100" lon="-0.0751610">
        <ele>502.8</ele>
        <time>2020-07-27T10:42:24Z</time>
      </trkpt>
      <trkpt lat="42.9570610" lon="-0.0751480">
        <ele>503.4</ele>
        <time>2020-07-27T10:42:25Z</time>
      </trkpt>
      <trkpt lat="42.9570130" lon="-0.0751260">
        <ele>503.6</ele>
        <time>2020-07-27T10:42:26Z</time>
      </trkpt>
      <trkpt lat="42.9569220" lon="-0.0750610">
        <ele>504.0</ele>
        <time>2020-07-27T10:42:28Z</time>
      </trkpt>
      <trkpt lat="42.9567830" lon="-0.0748140">
        <ele>504.2</ele>
        <time>2020-07-27T10:42:32Z</time>
      </trkpt>
      <trkpt lat="42.9567390" lon="-0.0746420">
        <ele>504.2</ele>
        <time>2020-07-27T10:42:34Z</time>
      </trkpt>
      <trkpt lat="42.9566680" lon="-0.0743550">
        <ele>503.8</ele>
        <time>2020-07-27T10:42:37Z</time>
      </trkpt>
      <trkpt lat="42.9566380" lon="-0.0742570">
        <ele>503.4</ele>
        <time>2020-07-27T10:42:38Z</time>
      </trkpt>
      <trkpt lat="42.9565060" lon="-0.0739700">
        <ele>502.6</ele>
        <time>2020-07-27T10:42:41Z</time>
      </trkpt>
      <trkpt lat="42.9563460" lon="-0.0736820">
        <ele>501.4</ele>
        <time>2020-07-27T10:42:44Z</time>
      </trkpt>
      <trkpt lat="42.9562280" lon="-0.0734950">
        <ele>500.2</ele>
        <time>2020-07-27T10:42:46Z</time>
      </trkpt>
      <trkpt lat="42.9561690" lon="-0.0733990">
        <ele>499.6</ele>
        <time>2020-07-27T10:42:47Z</time>
      </trkpt>
      <trkpt lat="42.9561090" lon="-0.0733030">
        <ele>499.2</ele>
        <time>2020-07-27T10:42:48Z</time>
      </trkpt>
      <trkpt lat="42.9559220" lon="-0.0730150">
        <ele>497.8</ele>
        <time>2020-07-27T10:42:51Z</time>
      </trkpt>
      <trkpt lat="42.9557950" lon="-0.0728240">
        <ele>496.6</ele>
        <time>2020-07-27T10:42:53Z</time>
      </trkpt>
      <trkpt lat="42.9556660" lon="-0.0726370">
        <ele>495.4</ele>
        <time>2020-07-27T10:42:55Z</time>
      </trkpt>
      <trkpt lat="42.9556010" lon="-0.0725440">
        <ele>495.0</ele>
        <time>2020-07-27T10:42:56Z</time>
      </trkpt>
      <trkpt lat="42.9554110" lon="-0.0722650">
        <ele>494.2</ele>
        <time>2020-07-27T10:42:59Z</time>
      </trkpt>
      <trkpt lat="42.9550940" lon="-0.0718210">
        <ele>493.0</ele>
        <time>2020-07-27T10:43:04Z</time>
      </trkpt>
      <trkpt lat="42.9550300" lon="-0.0717340">
        <ele>492.6</ele>
        <time>2020-07-27T10:43:05Z</time>
      </trkpt>
      <trkpt lat="42.9548270" lon="-0.0714930">
        <ele>491.8</ele>
        <time>2020-07-27T10:43:08Z</time>
      </trkpt>
      <trkpt lat="42.9546190" lon="-0.0712810">
        <ele>491.4</ele>
        <time>2020-07-27T10:43:11Z</time>
      </trkpt>
      <trkpt lat="42.9541830" lon="-0.0708890">
        <ele>490.8</ele>
        <time>2020-07-27T10:43:17Z</time>
      </trkpt>
      <trkpt lat="42.9540250" lon="-0.0707740">
        <ele>490.6</ele>
        <time>2020-07-27T10:43:19Z</time>
      </trkpt>
      <trkpt lat="42.9535350" lon="-0.0704600">
        <ele>489.4</ele>
        <time>2020-07-27T10:43:25Z</time>
      </trkpt>
      <trkpt lat="42.9532900" lon="-0.0703100">
        <ele>488.4</ele>
        <time>2020-07-27T10:43:28Z</time>
      </trkpt>
      <trkpt lat="42.9532100" lon="-0.0702640">
        <ele>488.0</ele>
        <time>2020-07-27T10:43:29Z</time>
      </trkpt>
      <trkpt lat="42.9529790" lon="-0.0701450">
        <ele>487.2</ele>
        <time>2020-07-27T10:43:32Z</time>
      </trkpt>
      <trkpt lat="42.9527670" lon="-0.0700480">
        <ele>487.2</ele>
        <time>2020-07-27T10:43:35Z</time>
      </trkpt>
      <trkpt lat="42.9524040" lon="-0.0699180">
        <ele>487.2</ele>
        <time>2020-07-27T10:43:41Z</time>
      </trkpt>
      <trkpt lat="42.9522970" lon="-0.0699060">
        <ele>487.6</ele>
        <time>2020-07-27T10:43:43Z</time>
      </trkpt>
      <trkpt lat="42.9518760" lon="-0.0698120">
        <ele>492.0</ele>
        <time>2020-07-27T10:44:55Z</time>
      </trkpt>
      <trkpt lat="42.9518590" lon="-0.0698050">
        <ele>492.2</ele>
        <time>2020-07-27T10:44:56Z</time>
      </trkpt>
      <trkpt lat="42.9517110" lon="-0.0697130">
        <ele>492.4</ele>
        <time>2020-07-27T10:45:00Z</time>
      </trkpt>
      <trkpt lat="42.9516450" lon="-0.0696430">
        <ele>492.6</ele>
        <time>2020-07-27T10:45:02Z</time>
      </trkpt>
      <trkpt lat="42.9515470" lon="-0.0694440">
        <ele>492.6</ele>
        <time>2020-07-27T10:45:06Z</time>
      </trkpt>
      <trkpt lat="42.9515270" lon="-0.0693870">
        <ele>492.6</ele>
        <time>2020-07-27T10:45:07Z</time>
      </trkpt>
      <trkpt lat="42.9513500" lon="-0.0688810">
        <ele>492.6</ele>
        <time>2020-07-27T10:45:15Z</time>
      </trkpt>
      <trkpt lat="42.9511220" lon="-0.0683590">
        <ele>492.2</ele>
        <time>2020-07-27T10:45:22Z</time>
      </trkpt>
      <trkpt lat="42.9509130" lon="-0.0678930">
        <ele>491.2</ele>
        <time>2020-07-27T10:45:28Z</time>
      </trkpt>
      <trkpt lat="42.9508740" lon="-0.0678220">
        <ele>491.2</ele>
        <time>2020-07-27T10:45:29Z</time>
      </trkpt>
      <trkpt lat="42.9508300" lon="-0.0677700">
        <ele>490.8</ele>
        <time>2020-07-27T10:45:30Z</time>
      </trkpt>
      <trkpt lat="42.9507850" lon="-0.0677200">
        <ele>490.6</ele>
        <time>2020-07-27T10:45:31Z</time>
      </trkpt>
      <trkpt lat="42.9506750" lon="-0.0675270">
        <ele>490.6</ele>
        <time>2020-07-27T10:45:34Z</time>
      </trkpt>
      <trkpt lat="42.9506400" lon="-0.0674620">
        <ele>490.6</ele>
        <time>2020-07-27T10:45:35Z</time>
      </trkpt>
      <trkpt lat="42.9505320" lon="-0.0672720">
        <ele>490.4</ele>
        <time>2020-07-27T10:45:38Z</time>
      </trkpt>
      <trkpt lat="42.9504800" lon="-0.0671170">
        <ele>490.4</ele>
        <time>2020-07-27T10:45:40Z</time>
      </trkpt>
      <trkpt lat="42.9503160" lon="-0.0664860">
        <ele>491.0</ele>
        <time>2020-07-27T10:45:48Z</time>
      </trkpt>
      <trkpt lat="42.9501760" lon="-0.0657310">
        <ele>491.2</ele>
        <time>2020-07-27T10:45:57Z</time>
      </trkpt>
      <trkpt lat="42.9500420" lon="-0.0650450">
        <ele>491.4</ele>
        <time>2020-07-27T10:46:05Z</time>
      </trkpt>
      <trkpt lat="42.9498970" lon="-0.0644710">
        <ele>492.0</ele>
        <time>2020-07-27T10:46:12Z</time>
      </trkpt>
      <trkpt lat="42.9498460" lon="-0.0643050">
        <ele>492.2</ele>
        <time>2020-07-27T10:46:14Z</time>
      </trkpt>
      <trkpt lat="42.9496320" lon="-0.0636970">
        <ele>492.4</ele>
        <time>2020-07-27T10:46:22Z</time>
      </trkpt>
      <trkpt lat="42.9494030" lon="-0.0631650">
        <ele>493.2</ele>
        <time>2020-07-27T10:46:30Z</time>
      </trkpt>
      <trkpt lat="42.9493700" lon="-0.0631030">
        <ele>493.4</ele>
        <time>2020-07-27T10:46:31Z</time>
      </trkpt>
      <trkpt lat="42.9491200" lon="-0.0626860">
        <ele>494.2</ele>
        <time>2020-07-27T10:46:38Z</time>
      </trkpt>
      <trkpt lat="42.9490130" lon="-0.0625040">
        <ele>494.6</ele>
        <time>2020-07-27T10:46:41Z</time>
      </trkpt>
      <trkpt lat="42.9487290" lon="-0.0619190">
        <ele>495.4</ele>
        <time>2020-07-27T10:46:50Z</time>
      </trkpt>
      <trkpt lat="42.9484370" lon="-0.0613340">
        <ele>495.8</ele>
        <time>2020-07-27T10:46:59Z</time>
      </trkpt>
      <trkpt lat="42.9481690" lon="-0.0608340">
        <ele>496.4</ele>
        <time>2020-07-27T10:47:07Z</time>
      </trkpt>
      <trkpt lat="42.9481380" lon="-0.0607730">
        <ele>496.4</ele>
        <time>2020-07-27T10:47:08Z</time>
      </trkpt>
      <trkpt lat="42.9478410" lon="-0.0603450">
        <ele>497.4</ele>
        <time>2020-07-27T10:47:16Z</time>
      </trkpt>
      <trkpt lat="42.9478000" lon="-0.0602890">
        <ele>497.4</ele>
        <time>2020-07-27T10:47:17Z</time>
      </trkpt>
      <trkpt lat="42.9475460" lon="-0.0598950">
        <ele>497.8</ele>
        <time>2020-07-27T10:47:24Z</time>
      </trkpt>
      <trkpt lat="42.9473810" lon="-0.0594970">
        <ele>498.4</ele>
        <time>2020-07-27T10:47:30Z</time>
      </trkpt>
      <trkpt lat="42.9473300" lon="-0.0593630">
        <ele>498.8</ele>
        <time>2020-07-27T10:47:32Z</time>
      </trkpt>
      <trkpt lat="42.9471600" lon="-0.0588460">
        <ele>499.2</ele>
        <time>2020-07-27T10:47:40Z</time>
      </trkpt>
      <trkpt lat="42.9471180" lon="-0.0587200">
        <ele>499.4</ele>
        <time>2020-07-27T10:47:42Z</time>
      </trkpt>
      <trkpt lat="42.9471010" lon="-0.0586550">
        <ele>499.8</ele>
        <time>2020-07-27T10:47:43Z</time>
      </trkpt>
      <trkpt lat="42.9470540" lon="-0.0583740">
        <ele>500.4</ele>
        <time>2020-07-27T10:47:47Z</time>
      </trkpt>
      <trkpt lat="42.9470450" lon="-0.0583040">
        <ele>500.6</ele>
        <time>2020-07-27T10:47:48Z</time>
      </trkpt>
      <trkpt lat="42.9469930" lon="-0.0579630">
        <ele>501.0</ele>
        <time>2020-07-27T10:47:53Z</time>
      </trkpt>
      <trkpt lat="42.9469370" lon="-0.0576660">
        <ele>501.0</ele>
        <time>2020-07-27T10:47:57Z</time>
      </trkpt>
      <trkpt lat="42.9468290" lon="-0.0572890">
        <ele>501.8</ele>
        <time>2020-07-27T10:48:03Z</time>
      </trkpt>
      <trkpt lat="42.9468050" lon="-0.0572270">
        <ele>502.0</ele>
        <time>2020-07-27T10:48:04Z</time>
      </trkpt>
      <trkpt lat="42.9466210" lon="-0.0568820">
        <ele>502.8</ele>
        <time>2020-07-27T10:48:10Z</time>
      </trkpt>
      <trkpt lat="42.9465860" lon="-0.0568330">
        <ele>503.0</ele>
        <time>2020-07-27T10:48:11Z</time>
      </trkpt>
      <trkpt lat="42.9463130" lon="-0.0565100">
        <ele>503.8</ele>
        <time>2020-07-27T10:48:18Z</time>
      </trkpt>
      <trkpt lat="42.9462710" lon="-0.0564640">
        <ele>504.0</ele>
        <time>2020-07-27T10:48:19Z</time>
      </trkpt>
      <trkpt lat="42.9459120" lon="-0.0560740">
        <ele>504.4</ele>
        <time>2020-07-27T10:48:28Z</time>
      </trkpt>
      <trkpt lat="42.9457510" lon="-0.0558830">
        <ele>505.0</ele>
        <time>2020-07-27T10:48:32Z</time>
      </trkpt>
      <trkpt lat="42.9455470" lon="-0.0556430">
        <ele>505.4</ele>
        <time>2020-07-27T10:48:37Z</time>
      </trkpt>
      <trkpt lat="42.9453150" lon="-0.0553660">
        <ele>506.0</ele>
        <time>2020-07-27T10:48:43Z</time>
      </trkpt>
      <trkpt lat="42.9451590" lon="-0.0551740">
        <ele>506.6</ele>
        <time>2020-07-27T10:48:47Z</time>
      </trkpt>
      <trkpt lat="42.9447570" lon="-0.0546670">
        <ele>507.2</ele>
        <time>2020-07-27T10:48:57Z</time>
      </trkpt>
      <trkpt lat="42.9447170" lon="-0.0546170">
        <ele>507.2</ele>
        <time>2020-07-27T10:48:58Z</time>
      </trkpt>
      <trkpt lat="42.9442610" lon="-0.0541090">
        <ele>507.8</ele>
        <time>2020-07-27T10:49:09Z</time>
      </trkpt>
      <trkpt lat="42.9440940" lon="-0.0539290">
        <ele>508.2</ele>
        <time>2020-07-27T10:49:13Z</time>
      </trkpt>
      <trkpt lat="42.9438730" lon="-0.0537160">
        <ele>509.0</ele>
        <time>2020-07-27T10:49:18Z</time>
      </trkpt>
      <trkpt lat="42.9436250" lon="-0.0535400">
        <ele>509.4</ele>
        <time>2020-07-27T10:49:23Z</time>
      </trkpt>
      <trkpt lat="42.9434150" lon="-0.0534060">
        <ele>509.4</ele>
        <time>2020-07-27T10:49:27Z</time>
      </trkpt>
      <trkpt lat="42.9428960" lon="-0.0530840">
        <ele>509.6</ele>
        <time>2020-07-27T10:49:37Z</time>
      </trkpt>
      <trkpt lat="42.9428480" lon="-0.0530570">
        <ele>509.6</ele>
        <time>2020-07-27T10:49:38Z</time>
      </trkpt>
      <trkpt lat="42.9426640" lon="-0.0529170">
        <ele>509.6</ele>
        <time>2020-07-27T10:49:42Z</time>
      </trkpt>
      <trkpt lat="42.9425810" lon="-0.0528250">
        <ele>509.6</ele>
        <time>2020-07-27T10:49:44Z</time>
      </trkpt>
      <trkpt lat="42.9424970" lon="-0.0527250">
        <ele>509.6</ele>
        <time>2020-07-27T10:49:46Z</time>
      </trkpt>
      <trkpt lat="42.9424240" lon="-0.0526390">
        <ele>509.8</ele>
        <time>2020-07-27T10:49:48Z</time>
      </trkpt>
      <trkpt lat="42.9421590" lon="-0.0523560">
        <ele>510.4</ele>
        <time>2020-07-27T10:49:55Z</time>
      </trkpt>
      <trkpt lat="42.9421130" lon="-0.0523250">
        <ele>510.6</ele>
        <time>2020-07-27T10:49:56Z</time>
      </trkpt>
      <trkpt lat="42.9418890" lon="-0.0522850">
        <ele>510.8</ele>
        <time>2020-07-27T10:50:00Z</time>
      </trkpt>
      <trkpt lat="42.9418230" lon="-0.0522890">
        <ele>510.8</ele>
        <time>2020-07-27T10:50:01Z</time>
      </trkpt>
      <trkpt lat="42.9416880" lon="-0.0523140">
        <ele>510.8</ele>
        <time>2020-07-27T10:50:03Z</time>
      </trkpt>
      <trkpt lat="42.9415520" lon="-0.0523660">
        <ele>510.8</ele>
        <time>2020-07-27T10:50:05Z</time>
      </trkpt>
      <trkpt lat="42.9412380" lon="-0.0525600">
        <ele>510.2</ele>
        <time>2020-07-27T10:50:10Z</time>
      </trkpt>
      <trkpt lat="42.9410230" lon="-0.0527310">
        <ele>509.8</ele>
        <time>2020-07-27T10:50:14Z</time>
      </trkpt>
      <trkpt lat="42.9409270" lon="-0.0528320">
        <ele>509.8</ele>
        <time>2020-07-27T10:50:16Z</time>
      </trkpt>
      <trkpt lat="42.9406270" lon="-0.0531690">
        <ele>510.4</ele>
        <time>2020-07-27T10:50:23Z</time>
      </trkpt>
      <trkpt lat="42.9404780" lon="-0.0533080">
        <ele>511.2</ele>
        <time>2020-07-27T10:50:27Z</time>
      </trkpt>
      <trkpt lat="42.9403960" lon="-0.0533460">
        <ele>511.4</ele>
        <time>2020-07-27T10:50:29Z</time>
      </trkpt>
      <trkpt lat="42.9403530" lon="-0.0533590">
        <ele>511.6</ele>
        <time>2020-07-27T10:50:30Z</time>
      </trkpt>
      <trkpt lat="42.9402200" lon="-0.0533730">
        <ele>512.6</ele>
        <time>2020-07-27T10:50:33Z</time>
      </trkpt>
      <trkpt lat="42.9401770" lon="-0.0533660">
        <ele>512.8</ele>
        <time>2020-07-27T10:50:34Z</time>
      </trkpt>
      <trkpt lat="42.9399690" lon="-0.0532690">
        <ele>513.8</ele>
        <time>2020-07-27T10:50:39Z</time>
      </trkpt>
      <trkpt lat="42.9399310" lon="-0.0532330">
        <ele>513.8</ele>
        <time>2020-07-27T10:50:40Z</time>
      </trkpt>
      <trkpt lat="42.9398320" lon="-0.0531310">
        <ele>514.0</ele>
        <time>2020-07-27T10:50:43Z</time>
      </trkpt>
      <trkpt lat="42.9397580" lon="-0.0529920">
        <ele>514.8</ele>
        <time>2020-07-27T10:50:46Z</time>
      </trkpt>
      <trkpt lat="42.9397380" lon="-0.0529410">
        <ele>514.8</ele>
        <time>2020-07-27T10:50:47Z</time>
      </trkpt>
      <trkpt lat="42.9396340" lon="-0.0526420">
        <ele>515.4</ele>
        <time>2020-07-27T10:50:52Z</time>
      </trkpt>
      <trkpt lat="42.9395710" lon="-0.0524710">
        <ele>515.8</ele>
        <time>2020-07-27T10:50:55Z</time>
      </trkpt>
      <trkpt lat="42.9394950" lon="-0.0522430">
        <ele>516.2</ele>
        <time>2020-07-27T10:50:59Z</time>
      </trkpt>
      <trkpt lat="42.9394190" lon="-0.0519280">
        <ele>516.8</ele>
        <time>2020-07-27T10:51:05Z</time>
      </trkpt>
      <trkpt lat="42.9394000" lon="-0.0518170">
        <ele>517.2</ele>
        <time>2020-07-27T10:51:07Z</time>
      </trkpt>
      <trkpt lat="42.9393820" lon="-0.0517110">
        <ele>517.8</ele>
        <time>2020-07-27T10:51:09Z</time>
      </trkpt>
      <trkpt lat="42.9393420" lon="-0.0514300">
        <ele>518.8</ele>
        <time>2020-07-27T10:51:14Z</time>
      </trkpt>
      <trkpt lat="42.9393320" lon="-0.0513750">
        <ele>519.0</ele>
        <time>2020-07-27T10:51:15Z</time>
      </trkpt>
      <trkpt lat="42.9392460" lon="-0.0510770">
        <ele>520.0</ele>
        <time>2020-07-27T10:51:21Z</time>
      </trkpt>
      <trkpt lat="42.9392260" lon="-0.0510310">
        <ele>520.0</ele>
        <time>2020-07-27T10:51:22Z</time>
      </trkpt>
      <trkpt lat="42.9390970" lon="-0.0507920">
        <ele>521.2</ele>
        <time>2020-07-27T10:51:27Z</time>
      </trkpt>
      <trkpt lat="42.9390680" lon="-0.0507440">
        <ele>521.4</ele>
        <time>2020-07-27T10:51:28Z</time>
      </trkpt>
      <trkpt lat="42.9389470" lon="-0.0505790">
        <ele>521.8</ele>
        <time>2020-07-27T10:51:32Z</time>
      </trkpt>
      <trkpt lat="42.9389150" lon="-0.0505370">
        <ele>521.8</ele>
        <time>2020-07-27T10:51:33Z</time>
      </trkpt>
      <trkpt lat="42.9388070" lon="-0.0504190">
        <ele>522.0</ele>
        <time>2020-07-27T10:51:36Z</time>
      </trkpt>
      <trkpt lat="42.9387670" lon="-0.0503890">
        <ele>522.2</ele>
        <time>2020-07-27T10:51:37Z</time>
      </trkpt>
      <trkpt lat="42.9386790" lon="-0.0503350">
        <ele>522.4</ele>
        <time>2020-07-27T10:51:39Z</time>
      </trkpt>
      <trkpt lat="42.9385360" lon="-0.0502550">
        <ele>523.0</ele>
        <time>2020-07-27T10:51:42Z</time>
      </trkpt>
      <trkpt lat="42.9383460" lon="-0.0501560">
        <ele>523.2</ele>
        <time>2020-07-27T10:51:46Z</time>
      </trkpt>
      <trkpt lat="42.9382070" lon="-0.0500900">
        <ele>523.4</ele>
        <time>2020-07-27T10:51:49Z</time>
      </trkpt>
      <trkpt lat="42.9381210" lon="-0.0500510">
        <ele>523.4</ele>
        <time>2020-07-27T10:51:51Z</time>
      </trkpt>
      <trkpt lat="42.9380310" lon="-0.0499970">
        <ele>523.6</ele>
        <time>2020-07-27T10:51:53Z</time>
      </trkpt>
      <trkpt lat="42.9379430" lon="-0.0499660">
        <ele>523.8</ele>
        <time>2020-07-27T10:51:55Z</time>
      </trkpt>
      <trkpt lat="42.9378960" lon="-0.0499380">
        <ele>524.0</ele>
        <time>2020-07-27T10:51:56Z</time>
      </trkpt>
      <trkpt lat="42.9378540" lon="-0.0499230">
        <ele>524.2</ele>
        <time>2020-07-27T10:51:57Z</time>
      </trkpt>
      <trkpt lat="42.9377600" lon="-0.0498870">
        <ele>524.6</ele>
        <time>2020-07-27T10:51:59Z</time>
      </trkpt>
      <trkpt lat="42.9375620" lon="-0.0497930">
        <ele>525.2</ele>
        <time>2020-07-27T10:52:03Z</time>
      </trkpt>
      <trkpt lat="42.9374680" lon="-0.0497470">
        <ele>525.6</ele>
        <time>2020-07-27T10:52:05Z</time>
      </trkpt>
      <trkpt lat="42.9374190" lon="-0.0497150">
        <ele>525.6</ele>
        <time>2020-07-27T10:52:06Z</time>
      </trkpt>
      <trkpt lat="42.9371970" lon="-0.0495520">
        <ele>526.4</ele>
        <time>2020-07-27T10:52:11Z</time>
      </trkpt>
      <trkpt lat="42.9369430" lon="-0.0492700">
        <ele>527.4</ele>
        <time>2020-07-27T10:52:18Z</time>
      </trkpt>
      <trkpt lat="42.9369140" lon="-0.0492200">
        <ele>527.4</ele>
        <time>2020-07-27T10:52:19Z</time>
      </trkpt>
      <trkpt lat="42.9367970" lon="-0.0489550">
        <ele>528.2</ele>
        <time>2020-07-27T10:52:24Z</time>
      </trkpt>
      <trkpt lat="42.9367720" lon="-0.0489010">
        <ele>528.4</ele>
        <time>2020-07-27T10:52:25Z</time>
      </trkpt>
      <trkpt lat="42.9366170" lon="-0.0486700">
        <ele>528.8</ele>
        <time>2020-07-27T10:52:30Z</time>
      </trkpt>
      <trkpt lat="42.9365810" lon="-0.0486390">
        <ele>529.0</ele>
        <time>2020-07-27T10:52:31Z</time>
      </trkpt>
      <trkpt lat="42.9365070" lon="-0.0485980">
        <ele>529.4</ele>
        <time>2020-07-27T10:52:33Z</time>
      </trkpt>
      <trkpt lat="42.9364710" lon="-0.0485820">
        <ele>529.6</ele>
        <time>2020-07-27T10:52:34Z</time>
      </trkpt>
      <trkpt lat="42.9363990" lon="-0.0485580">
        <ele>530.0</ele>
        <time>2020-07-27T10:52:36Z</time>
      </trkpt>
      <trkpt lat="42.9362930" lon="-0.0485500">
        <ele>530.4</ele>
        <time>2020-07-27T10:52:39Z</time>
      </trkpt>
      <trkpt lat="42.9361840" lon="-0.0485460">
        <ele>531.0</ele>
        <time>2020-07-27T10:52:42Z</time>
      </trkpt>
      <trkpt lat="42.9361140" lon="-0.0485510">
        <ele>531.4</ele>
        <time>2020-07-27T10:52:44Z</time>
      </trkpt>
      <trkpt lat="42.9359380" lon="-0.0485490">
        <ele>532.6</ele>
        <time>2020-07-27T10:52:49Z</time>
      </trkpt>
      <trkpt lat="42.9356800" lon="-0.0485730">
        <ele>533.6</ele>
        <time>2020-07-27T10:52:56Z</time>
      </trkpt>
      <trkpt lat="42.9354970" lon="-0.0485900">
        <ele>534.6</ele>
        <time>2020-07-27T10:53:01Z</time>
      </trkpt>
      <trkpt lat="42.9354610" lon="-0.0485950">
        <ele>534.6</ele>
        <time>2020-07-27T10:53:02Z</time>
      </trkpt>
      <trkpt lat="42.9352490" lon="-0.0486330">
        <ele>535.6</ele>
        <time>2020-07-27T10:53:08Z</time>
      </trkpt>
      <trkpt lat="42.9352130" lon="-0.0486380">
        <ele>535.8</ele>
        <time>2020-07-27T10:53:09Z</time>
      </trkpt>
      <trkpt lat="42.9350730" lon="-0.0487270">
        <ele>536.6</ele>
        <time>2020-07-27T10:53:13Z</time>
      </trkpt>
      <trkpt lat="42.9350390" lon="-0.0487720">
        <ele>537.2</ele>
        <time>2020-07-27T10:53:14Z</time>
      </trkpt>
      <trkpt lat="42.9349020" lon="-0.0487940">
        <ele>537.6</ele>
        <time>2020-07-27T10:53:18Z</time>
      </trkpt>
      <trkpt lat="42.9348060" lon="-0.0487870">
        <ele>538.6</ele>
        <time>2020-07-27T10:53:21Z</time>
      </trkpt>
      <trkpt lat="42.9347730" lon="-0.0487810">
        <ele>538.8</ele>
        <time>2020-07-27T10:53:22Z</time>
      </trkpt>
      <trkpt lat="42.9346470" lon="-0.0486990">
        <ele>539.4</ele>
        <time>2020-07-27T10:53:26Z</time>
      </trkpt>
      <trkpt lat="42.9346190" lon="-0.0486630">
        <ele>539.8</ele>
        <time>2020-07-27T10:53:27Z</time>
      </trkpt>
      <trkpt lat="42.9345010" lon="-0.0484440">
        <ele>540.6</ele>
        <time>2020-07-27T10:53:32Z</time>
      </trkpt>
      <trkpt lat="42.9344860" lon="-0.0483960">
        <ele>540.8</ele>
        <time>2020-07-27T10:53:33Z</time>
      </trkpt>
      <trkpt lat="42.9344220" lon="-0.0482360">
        <ele>541.4</ele>
        <time>2020-07-27T10:53:37Z</time>
      </trkpt>
      <trkpt lat="42.9343980" lon="-0.0481650">
        <ele>541.6</ele>
        <time>2020-07-27T10:53:39Z</time>
      </trkpt>
      <trkpt lat="42.9343430" lon="-0.0480180">
        <ele>542.4</ele>
        <time>2020-07-27T10:53:43Z</time>
      </trkpt>
      <trkpt lat="42.9342990" lon="-0.0479640">
        <ele>542.6</ele>
        <time>2020-07-27T10:53:45Z</time>
      </trkpt>
      <trkpt lat="42.9341970" lon="-0.0478880">
        <ele>543.0</ele>
        <time>2020-07-27T10:53:49Z</time>
      </trkpt>
      <trkpt lat="42.9340600" lon="-0.0477850">
        <ele>543.6</ele>
        <time>2020-07-27T10:53:54Z</time>
      </trkpt>
      <trkpt lat="42.9340430" lon="-0.0478110">
        <ele>543.8</ele>
        <time>2020-07-27T10:53:55Z</time>
      </trkpt>
      <trkpt lat="42.9340200" lon="-0.0478130">
        <ele>543.8</ele>
        <time>2020-07-27T10:53:56Z</time>
      </trkpt>
      <trkpt lat="42.9339100" lon="-0.0477880">
        <ele>544.0</ele>
        <time>2020-07-27T10:54:00Z</time>
      </trkpt>
      <trkpt lat="42.9338550" lon="-0.0477610">
        <ele>544.0</ele>
        <time>2020-07-27T10:54:02Z</time>
      </trkpt>
      <trkpt lat="42.9338010" lon="-0.0477470">
        <ele>544.6</ele>
        <time>2020-07-27T10:54:04Z</time>
      </trkpt>
      <trkpt lat="42.9336460" lon="-0.0477340">
        <ele>545.4</ele>
        <time>2020-07-27T10:54:09Z</time>
      </trkpt>
      <trkpt lat="42.9336140" lon="-0.0477080">
        <ele>545.8</ele>
        <time>2020-07-27T10:54:10Z</time>
      </trkpt>
      <trkpt lat="42.9335500" lon="-0.0476760">
        <ele>546.0</ele>
        <time>2020-07-27T10:54:12Z</time>
      </trkpt>
      <trkpt lat="42.9334800" lon="-0.0476700">
        <ele>546.2</ele>
        <time>2020-07-27T10:54:14Z</time>
      </trkpt>
      <trkpt lat="42.9334180" lon="-0.0476550">
        <ele>546.6</ele>
        <time>2020-07-27T10:54:16Z</time>
      </trkpt>
      <trkpt lat="42.9333240" lon="-0.0475860">
        <ele>547.2</ele>
        <time>2020-07-27T10:54:19Z</time>
      </trkpt>
      <trkpt lat="42.9332490" lon="-0.0474680">
        <ele>547.8</ele>
        <time>2020-07-27T10:54:22Z</time>
      </trkpt>
      <trkpt lat="42.9332290" lon="-0.0474190">
        <ele>548.2</ele>
        <time>2020-07-27T10:54:23Z</time>
      </trkpt>
      <trkpt lat="42.9330310" lon="-0.0470620">
        <ele>549.0</ele>
        <time>2020-07-27T10:54:28Z</time>
      </trkpt>
      <trkpt lat="42.9327310" lon="-0.0469280">
        <ele>550.0</ele>
        <time>2020-07-27T10:54:36Z</time>
      </trkpt>
      <trkpt lat="42.9325020" lon="-0.0467500">
        <ele>551.2</ele>
        <time>2020-07-27T10:54:42Z</time>
      </trkpt>
      <trkpt lat="42.9323120" lon="-0.0466050">
        <ele>551.6</ele>
        <time>2020-07-27T10:54:47Z</time>
      </trkpt>
      <trkpt lat="42.9320280" lon="-0.0464290">
        <ele>552.2</ele>
        <time>2020-07-27T10:54:54Z</time>
      </trkpt>
      <trkpt lat="42.9319840" lon="-0.0464060">
        <ele>552.2</ele>
        <time>2020-07-27T10:54:55Z</time>
      </trkpt>
      <trkpt lat="42.9319380" lon="-0.0463740">
        <ele>552.2</ele>
        <time>2020-07-27T10:54:56Z</time>
      </trkpt>
      <trkpt lat="42.9316850" lon="-0.0462610">
        <ele>552.4</ele>
        <time>2020-07-27T10:55:02Z</time>
      </trkpt>
      <trkpt lat="42.9313760" lon="-0.0462330">
        <ele>553.2</ele>
        <time>2020-07-27T10:55:09Z</time>
      </trkpt>
      <trkpt lat="42.9313330" lon="-0.0462320">
        <ele>553.4</ele>
        <time>2020-07-27T10:55:10Z</time>
      </trkpt>
      <trkpt lat="42.9311650" lon="-0.0462300">
        <ele>554.0</ele>
        <time>2020-07-27T10:55:14Z</time>
      </trkpt>
      <trkpt lat="42.9311280" lon="-0.0462270">
        <ele>554.2</ele>
        <time>2020-07-27T10:55:15Z</time>
      </trkpt>
      <trkpt lat="42.9310890" lon="-0.0462210">
        <ele>554.6</ele>
        <time>2020-07-27T10:55:16Z</time>
      </trkpt>
      <trkpt lat="42.9309660" lon="-0.0461830">
        <ele>555.2</ele>
        <time>2020-07-27T10:55:19Z</time>
      </trkpt>
      <trkpt lat="42.9309260" lon="-0.0461620">
        <ele>555.4</ele>
        <time>2020-07-27T10:55:20Z</time>
      </trkpt>
      <trkpt lat="42.9307040" lon="-0.0459850">
        <ele>556.4</ele>
        <time>2020-07-27T10:55:26Z</time>
      </trkpt>
      <trkpt lat="42.9306730" lon="-0.0459470">
        <ele>556.6</ele>
        <time>2020-07-27T10:55:27Z</time>
      </trkpt>
      <trkpt lat="42.9304590" lon="-0.0456610">
        <ele>557.2</ele>
        <time>2020-07-27T10:55:34Z</time>
      </trkpt>
      <trkpt lat="42.9303980" lon="-0.0455800">
        <ele>557.6</ele>
        <time>2020-07-27T10:55:36Z</time>
      </trkpt>
      <trkpt lat="42.9302610" lon="-0.0454090">
        <ele>558.6</ele>
        <time>2020-07-27T10:55:41Z</time>
      </trkpt>
      <trkpt lat="42.9302350" lon="-0.0453740">
        <ele>559.0</ele>
        <time>2020-07-27T10:55:42Z</time>
      </trkpt>
      <trkpt lat="42.9301440" lon="-0.0452220">
        <ele>560.0</ele>
        <time>2020-07-27T10:55:46Z</time>
      </trkpt>
      <trkpt lat="42.9301080" lon="-0.0451460">
        <ele>560.2</ele>
        <time>2020-07-27T10:55:48Z</time>
      </trkpt>
      <trkpt lat="42.9300500" lon="-0.0450150">
        <ele>561.2</ele>
        <time>2020-07-27T10:55:51Z</time>
      </trkpt>
      <trkpt lat="42.9299830" lon="-0.0448480">
        <ele>562.0</ele>
        <time>2020-07-27T10:55:55Z</time>
      </trkpt>
      <trkpt lat="42.9299660" lon="-0.0448040">
        <ele>562.4</ele>
        <time>2020-07-27T10:55:56Z</time>
      </trkpt>
      <trkpt lat="42.9298510" lon="-0.0445260">
        <ele>563.6</ele>
        <time>2020-07-27T10:56:02Z</time>
      </trkpt>
      <trkpt lat="42.9297820" lon="-0.0443440">
        <ele>564.6</ele>
        <time>2020-07-27T10:56:06Z</time>
      </trkpt>
      <trkpt lat="42.9297380" lon="-0.0441700">
        <ele>565.4</ele>
        <time>2020-07-27T10:56:10Z</time>
      </trkpt>
      <trkpt lat="42.9297280" lon="-0.0441240">
        <ele>565.8</ele>
        <time>2020-07-27T10:56:11Z</time>
      </trkpt>
      <trkpt lat="42.9296640" lon="-0.0438970">
        <ele>566.8</ele>
        <time>2020-07-27T10:56:16Z</time>
      </trkpt>
      <trkpt lat="42.9296530" lon="-0.0438550">
        <ele>566.8</ele>
        <time>2020-07-27T10:56:17Z</time>
      </trkpt>
      <trkpt lat="42.9295490" lon="-0.0436920">
        <ele>567.6</ele>
        <time>2020-07-27T10:56:22Z</time>
      </trkpt>
      <trkpt lat="42.9295220" lon="-0.0436670">
        <ele>568.0</ele>
        <time>2020-07-27T10:56:23Z</time>
      </trkpt>
      <trkpt lat="42.9293810" lon="-0.0434900">
        <ele>569.0</ele>
        <time>2020-07-27T10:56:29Z</time>
      </trkpt>
      <trkpt lat="42.9292990" lon="-0.0433690">
        <ele>570.0</ele>
        <time>2020-07-27T10:56:33Z</time>
      </trkpt>
      <trkpt lat="42.9292000" lon="-0.0432250">
        <ele>571.0</ele>
        <time>2020-07-27T10:56:38Z</time>
      </trkpt>
      <trkpt lat="42.9291030" lon="-0.0430370">
        <ele>572.0</ele>
        <time>2020-07-27T10:56:44Z</time>
      </trkpt>
      <trkpt lat="42.9289880" lon="-0.0429380">
        <ele>573.4</ele>
        <time>2020-07-27T10:56:49Z</time>
      </trkpt>
      <trkpt lat="42.9289430" lon="-0.0428950">
        <ele>573.8</ele>
        <time>2020-07-27T10:56:51Z</time>
      </trkpt>
      <trkpt lat="42.9288770" lon="-0.0428730">
        <ele>574.6</ele>
        <time>2020-07-27T10:56:54Z</time>
      </trkpt>
      <trkpt lat="42.9287720" lon="-0.0428810">
        <ele>575.2</ele>
        <time>2020-07-27T10:56:58Z</time>
      </trkpt>
      <trkpt lat="42.9287350" lon="-0.0428410">
        <ele>575.4</ele>
        <time>2020-07-27T10:57:00Z</time>
      </trkpt>
      <trkpt lat="42.9286650" lon="-0.0427400">
        <ele>576.4</ele>
        <time>2020-07-27T10:57:04Z</time>
      </trkpt>
      <trkpt lat="42.9286350" lon="-0.0427030">
        <ele>576.6</ele>
        <time>2020-07-27T10:57:06Z</time>
      </trkpt>
      <trkpt lat="42.9284490" lon="-0.0425660">
        <ele>577.8</ele>
        <time>2020-07-27T10:57:11Z</time>
      </trkpt>
      <trkpt lat="42.9281780" lon="-0.0423570">
        <ele>579.0</ele>
        <time>2020-07-27T10:57:18Z</time>
      </trkpt>
      <trkpt lat="42.9280250" lon="-0.0422370">
        <ele>580.0</ele>
        <time>2020-07-27T10:57:23Z</time>
      </trkpt>
      <trkpt lat="42.9279690" lon="-0.0422090">
        <ele>580.4</ele>
        <time>2020-07-27T10:57:25Z</time>
      </trkpt>
      <trkpt lat="42.9278590" lon="-0.0421160">
        <ele>581.4</ele>
        <time>2020-07-27T10:57:29Z</time>
      </trkpt>
      <trkpt lat="42.9277760" lon="-0.0420520">
        <ele>581.8</ele>
        <time>2020-07-27T10:57:32Z</time>
      </trkpt>
      <trkpt lat="42.9276890" lon="-0.0420170">
        <ele>582.4</ele>
        <time>2020-07-27T10:57:35Z</time>
      </trkpt>
      <trkpt lat="42.9276020" lon="-0.0419880">
        <ele>582.8</ele>
        <time>2020-07-27T10:57:38Z</time>
      </trkpt>
      <trkpt lat="42.9274350" lon="-0.0419170">
        <ele>583.6</ele>
        <time>2020-07-27T10:57:43Z</time>
      </trkpt>
      <trkpt lat="42.9273640" lon="-0.0418870">
        <ele>584.0</ele>
        <time>2020-07-27T10:57:45Z</time>
      </trkpt>
      <trkpt lat="42.9272640" lon="-0.0418420">
        <ele>584.8</ele>
        <time>2020-07-27T10:57:48Z</time>
      </trkpt>
      <trkpt lat="42.9271710" lon="-0.0418120">
        <ele>585.2</ele>
        <time>2020-07-27T10:57:51Z</time>
      </trkpt>
      <trkpt lat="42.9270510" lon="-0.0417700">
        <ele>585.8</ele>
        <time>2020-07-27T10:57:55Z</time>
      </trkpt>
      <trkpt lat="42.9269940" lon="-0.0417420">
        <ele>586.8</ele>
        <time>2020-07-27T10:57:57Z</time>
      </trkpt>
      <trkpt lat="42.9269650" lon="-0.0417300">
        <ele>587.2</ele>
        <time>2020-07-27T10:57:58Z</time>
      </trkpt>
      <trkpt lat="42.9268120" lon="-0.0417190">
        <ele>588.0</ele>
        <time>2020-07-27T10:58:03Z</time>
      </trkpt>
      <trkpt lat="42.9267480" lon="-0.0417200">
        <ele>588.2</ele>
        <time>2020-07-27T10:58:05Z</time>
      </trkpt>
      <trkpt lat="42.9265680" lon="-0.0416850">
        <ele>589.2</ele>
        <time>2020-07-27T10:58:11Z</time>
      </trkpt>
      <trkpt lat="42.9264970" lon="-0.0417070">
        <ele>589.8</ele>
        <time>2020-07-27T10:58:14Z</time>
      </trkpt>
      <trkpt lat="42.9264690" lon="-0.0417150">
        <ele>589.8</ele>
        <time>2020-07-27T10:58:15Z</time>
      </trkpt>
      <trkpt lat="42.9263820" lon="-0.0417210">
        <ele>590.2</ele>
        <time>2020-07-27T10:58:18Z</time>
      </trkpt>
      <trkpt lat="42.9262910" lon="-0.0417130">
        <ele>591.0</ele>
        <time>2020-07-27T10:58:21Z</time>
      </trkpt>
      <trkpt lat="42.9262250" lon="-0.0417120">
        <ele>591.4</ele>
        <time>2020-07-27T10:58:23Z</time>
      </trkpt>
      <trkpt lat="42.9261250" lon="-0.0417270">
        <ele>591.8</ele>
        <time>2020-07-27T10:58:26Z</time>
      </trkpt>
      <trkpt lat="42.9259900" lon="-0.0418220">
        <ele>592.4</ele>
        <time>2020-07-27T10:58:31Z</time>
      </trkpt>
      <trkpt lat="42.9259480" lon="-0.0418770">
        <ele>592.8</ele>
        <time>2020-07-27T10:58:33Z</time>
      </trkpt>
      <trkpt lat="42.9258910" lon="-0.0419630">
        <ele>593.4</ele>
        <time>2020-07-27T10:58:36Z</time>
      </trkpt>
      <trkpt lat="42.9258350" lon="-0.0420570">
        <ele>594.2</ele>
        <time>2020-07-27T10:58:39Z</time>
      </trkpt>
      <trkpt lat="42.9258090" lon="-0.0420820">
        <ele>594.6</ele>
        <time>2020-07-27T10:58:40Z</time>
      </trkpt>
      <trkpt lat="42.9256870" lon="-0.0421670">
        <ele>595.8</ele>
        <time>2020-07-27T10:58:44Z</time>
      </trkpt>
      <trkpt lat="42.9255150" lon="-0.0422120">
        <ele>597.0</ele>
        <time>2020-07-27T10:58:49Z</time>
      </trkpt>
      <trkpt lat="42.9254520" lon="-0.0422150">
        <ele>597.4</ele>
        <time>2020-07-27T10:58:51Z</time>
      </trkpt>
      <trkpt lat="42.9253890" lon="-0.0422020">
        <ele>598.0</ele>
        <time>2020-07-27T10:58:53Z</time>
      </trkpt>
      <trkpt lat="42.9252690" lon="-0.0421330">
        <ele>599.0</ele>
        <time>2020-07-27T10:58:57Z</time>
      </trkpt>
      <trkpt lat="42.9251190" lon="-0.0420150">
        <ele>600.2</ele>
        <time>2020-07-27T10:59:02Z</time>
      </trkpt>
      <trkpt lat="42.9250270" lon="-0.0419450">
        <ele>600.4</ele>
        <time>2020-07-27T10:59:05Z</time>
      </trkpt>
      <trkpt lat="42.9248460" lon="-0.0417950">
        <ele>601.2</ele>
        <time>2020-07-27T10:59:11Z</time>
      </trkpt>
      <trkpt lat="42.9247540" lon="-0.0417170">
        <ele>601.4</ele>
        <time>2020-07-27T10:59:14Z</time>
      </trkpt>
      <trkpt lat="42.9245420" lon="-0.0415320">
        <ele>602.2</ele>
        <time>2020-07-27T10:59:21Z</time>
      </trkpt>
      <trkpt lat="42.9244800" lon="-0.0414760">
        <ele>602.4</ele>
        <time>2020-07-27T10:59:23Z</time>
      </trkpt>
      <trkpt lat="42.9243310" lon="-0.0413230">
        <ele>603.2</ele>
        <time>2020-07-27T10:59:28Z</time>
      </trkpt>
      <trkpt lat="42.9242220" lon="-0.0411760">
        <ele>603.6</ele>
        <time>2020-07-27T10:59:32Z</time>
      </trkpt>
      <trkpt lat="42.9239940" lon="-0.0408960">
        <ele>604.2</ele>
        <time>2020-07-27T10:59:40Z</time>
      </trkpt>
      <trkpt lat="42.9239600" lon="-0.0408770">
        <ele>604.2</ele>
        <time>2020-07-27T10:59:41Z</time>
      </trkpt>
      <trkpt lat="42.9238150" lon="-0.0408570">
        <ele>604.6</ele>
        <time>2020-07-27T10:59:45Z</time>
      </trkpt>
      <trkpt lat="42.9236110" lon="-0.0409180">
        <ele>605.4</ele>
        <time>2020-07-27T10:59:51Z</time>
      </trkpt>
      <trkpt lat="42.9235480" lon="-0.0409370">
        <ele>605.8</ele>
        <time>2020-07-27T10:59:53Z</time>
      </trkpt>
      <trkpt lat="42.9234840" lon="-0.0409400">
        <ele>606.4</ele>
        <time>2020-07-27T10:59:55Z</time>
      </trkpt>
      <trkpt lat="42.9233490" lon="-0.0409110">
        <ele>607.4</ele>
        <time>2020-07-27T10:59:59Z</time>
      </trkpt>
      <trkpt lat="42.9232080" lon="-0.0408640">
        <ele>608.4</ele>
        <time>2020-07-27T11:00:03Z</time>
      </trkpt>
      <trkpt lat="42.9230300" lon="-0.0408220">
        <ele>609.0</ele>
        <time>2020-07-27T11:00:08Z</time>
      </trkpt>
      <trkpt lat="42.9228560" lon="-0.0407530">
        <ele>609.4</ele>
        <time>2020-07-27T11:00:13Z</time>
      </trkpt>
      <trkpt lat="42.9228220" lon="-0.0407500">
        <ele>609.4</ele>
        <time>2020-07-27T11:00:14Z</time>
      </trkpt>
      <trkpt lat="42.9226620" lon="-0.0408180">
        <ele>610.4</ele>
        <time>2020-07-27T11:00:19Z</time>
      </trkpt>
      <trkpt lat="42.9224270" lon="-0.0408700">
        <ele>611.4</ele>
        <time>2020-07-27T11:00:26Z</time>
      </trkpt>
      <trkpt lat="42.9223930" lon="-0.0408720">
        <ele>612.0</ele>
        <time>2020-07-27T11:00:27Z</time>
      </trkpt>
      <trkpt lat="42.9223240" lon="-0.0408690">
        <ele>612.6</ele>
        <time>2020-07-27T11:00:29Z</time>
      </trkpt>
      <trkpt lat="42.9221590" lon="-0.0408780">
        <ele>613.6</ele>
        <time>2020-07-27T11:00:34Z</time>
      </trkpt>
      <trkpt lat="42.9221240" lon="-0.0408800">
        <ele>613.8</ele>
        <time>2020-07-27T11:00:35Z</time>
      </trkpt>
      <trkpt lat="42.9219390" lon="-0.0409240">
        <ele>614.4</ele>
        <time>2020-07-27T11:00:40Z</time>
      </trkpt>
      <trkpt lat="42.9218670" lon="-0.0409440">
        <ele>614.6</ele>
        <time>2020-07-27T11:00:42Z</time>
      </trkpt>
      <trkpt lat="42.9217620" lon="-0.0409860">
        <ele>615.0</ele>
        <time>2020-07-27T11:00:45Z</time>
      </trkpt>
      <trkpt lat="42.9216650" lon="-0.0410300">
        <ele>615.8</ele>
        <time>2020-07-27T11:00:48Z</time>
      </trkpt>
      <trkpt lat="42.9216020" lon="-0.0410480">
        <ele>616.0</ele>
        <time>2020-07-27T11:00:50Z</time>
      </trkpt>
      <trkpt lat="42.9213960" lon="-0.0410930">
        <ele>616.8</ele>
        <time>2020-07-27T11:00:56Z</time>
      </trkpt>
      <trkpt lat="42.9212000" lon="-0.0411210">
        <ele>617.2</ele>
        <time>2020-07-27T11:01:02Z</time>
      </trkpt>
      <trkpt lat="42.9211170" lon="-0.0410560">
        <ele>617.2</ele>
        <time>2020-07-27T11:01:04Z</time>
      </trkpt>
      <trkpt lat="42.9208960" lon="-0.0410130">
        <ele>617.2</ele>
        <time>2020-07-27T11:01:07Z</time>
      </trkpt>
      <trkpt lat="42.9206070" lon="-0.0409900">
        <ele>617.0</ele>
        <time>2020-07-27T11:01:12Z</time>
      </trkpt>
      <trkpt lat="42.9205360" lon="-0.0408710">
        <ele>616.8</ele>
        <time>2020-07-27T11:01:14Z</time>
      </trkpt>
      <trkpt lat="42.9204480" lon="-0.0407410">
        <ele>616.8</ele>
        <time>2020-07-27T11:01:16Z</time>
      </trkpt>
      <trkpt lat="42.9202150" lon="-0.0405780">
        <ele>616.0</ele>
        <time>2020-07-27T11:01:20Z</time>
      </trkpt>
      <trkpt lat="42.9201110" lon="-0.0406080">
        <ele>615.6</ele>
        <time>2020-07-27T11:01:21Z</time>
      </trkpt>
      <trkpt lat="42.9198060" lon="-0.0405580">
        <ele>614.8</ele>
        <time>2020-07-27T11:01:24Z</time>
      </trkpt>
      <trkpt lat="42.9197070" lon="-0.0405220">
        <ele>614.6</ele>
        <time>2020-07-27T11:01:25Z</time>
      </trkpt>
      <trkpt lat="42.9194520" lon="-0.0404040">
        <ele>613.6</ele>
        <time>2020-07-27T11:01:28Z</time>
      </trkpt>
      <trkpt lat="42.9193780" lon="-0.0403710">
        <ele>613.4</ele>
        <time>2020-07-27T11:01:29Z</time>
      </trkpt>
      <trkpt lat="42.9191720" lon="-0.0403140">
        <ele>613.4</ele>
        <time>2020-07-27T11:01:32Z</time>
      </trkpt>
      <trkpt lat="42.9191140" lon="-0.0403220">
        <ele>613.2</ele>
        <time>2020-07-27T11:01:33Z</time>
      </trkpt>
      <trkpt lat="42.9188240" lon="-0.0404370">
        <ele>613.2</ele>
        <time>2020-07-27T11:01:39Z</time>
      </trkpt>
      <trkpt lat="42.9187060" lon="-0.0404680">
        <ele>615.2</ele>
        <time>2020-07-27T11:01:42Z</time>
      </trkpt>
      <trkpt lat="42.9186630" lon="-0.0404720">
        <ele>615.6</ele>
        <time>2020-07-27T11:01:43Z</time>
      </trkpt>
      <trkpt lat="42.9185790" lon="-0.0404590">
        <ele>616.4</ele>
        <time>2020-07-27T11:01:45Z</time>
      </trkpt>
      <trkpt lat="42.9184370" lon="-0.0403310">
        <ele>617.2</ele>
        <time>2020-07-27T11:01:49Z</time>
      </trkpt>
      <trkpt lat="42.9184030" lon="-0.0402890">
        <ele>617.4</ele>
        <time>2020-07-27T11:01:50Z</time>
      </trkpt>
      <trkpt lat="42.9181830" lon="-0.0400510">
        <ele>618.4</ele>
        <time>2020-07-27T11:01:56Z</time>
      </trkpt>
      <trkpt lat="42.9181440" lon="-0.0400230">
        <ele>618.6</ele>
        <time>2020-07-27T11:01:57Z</time>
      </trkpt>
      <trkpt lat="42.9181040" lon="-0.0400000">
        <ele>618.6</ele>
        <time>2020-07-27T11:01:58Z</time>
      </trkpt>
      <trkpt lat="42.9178890" lon="-0.0399560">
        <ele>619.2</ele>
        <time>2020-07-27T11:02:03Z</time>
      </trkpt>
      <trkpt lat="42.9178460" lon="-0.0399580">
        <ele>619.4</ele>
        <time>2020-07-27T11:02:04Z</time>
      </trkpt>
      <trkpt lat="42.9177600" lon="-0.0399600">
        <ele>619.8</ele>
        <time>2020-07-27T11:02:06Z</time>
      </trkpt>
      <trkpt lat="42.9175520" lon="-0.0399370">
        <ele>620.6</ele>
        <time>2020-07-27T11:02:11Z</time>
      </trkpt>
      <trkpt lat="42.9175110" lon="-0.0399220">
        <ele>620.6</ele>
        <time>2020-07-27T11:02:12Z</time>
      </trkpt>
      <trkpt lat="42.9174300" lon="-0.0398750">
        <ele>620.8</ele>
        <time>2020-07-27T11:02:14Z</time>
      </trkpt>
      <trkpt lat="42.9173140" lon="-0.0397590">
        <ele>621.4</ele>
        <time>2020-07-27T11:02:17Z</time>
      </trkpt>
      <trkpt lat="42.9172770" lon="-0.0397120">
        <ele>621.6</ele>
        <time>2020-07-27T11:02:18Z</time>
      </trkpt>
      <trkpt lat="42.9171760" lon="-0.0395590">
        <ele>622.2</ele>
        <time>2020-07-27T11:02:21Z</time>
      </trkpt>
      <trkpt lat="42.9170730" lon="-0.0393910">
        <ele>622.8</ele>
        <time>2020-07-27T11:02:24Z</time>
      </trkpt>
      <trkpt lat="42.9167760" lon="-0.0388900">
        <ele>623.0</ele>
        <time>2020-07-27T11:02:32Z</time>
      </trkpt>
      <trkpt lat="42.9163740" lon="-0.0382930">
        <ele>622.6</ele>
        <time>2020-07-27T11:02:41Z</time>
      </trkpt>
      <trkpt lat="42.9161930" lon="-0.0381420">
        <ele>622.4</ele>
        <time>2020-07-27T11:02:44Z</time>
      </trkpt>
      <trkpt lat="42.9160570" lon="-0.0380720">
        <ele>622.2</ele>
        <time>2020-07-27T11:02:46Z</time>
      </trkpt>
      <trkpt lat="42.9156060" lon="-0.0378480">
        <ele>621.2</ele>
        <time>2020-07-27T11:02:52Z</time>
      </trkpt>
      <trkpt lat="42.9151980" lon="-0.0376390">
        <ele>619.8</ele>
        <time>2020-07-27T11:02:57Z</time>
      </trkpt>
      <trkpt lat="42.9149470" lon="-0.0375020">
        <ele>619.0</ele>
        <time>2020-07-27T11:03:00Z</time>
      </trkpt>
      <trkpt lat="42.9148620" lon="-0.0374570">
        <ele>618.6</ele>
        <time>2020-07-27T11:03:01Z</time>
      </trkpt>
      <trkpt lat="42.9144370" lon="-0.0372080">
        <ele>617.6</ele>
        <time>2020-07-27T11:03:06Z</time>
      </trkpt>
      <trkpt lat="42.9143500" lon="-0.0371630">
        <ele>617.2</ele>
        <time>2020-07-27T11:03:07Z</time>
      </trkpt>
      <trkpt lat="42.9140940" lon="-0.0370350">
        <ele>616.4</ele>
        <time>2020-07-27T11:03:10Z</time>
      </trkpt>
      <trkpt lat="42.9138410" lon="-0.0369690">
        <ele>616.2</ele>
        <time>2020-07-27T11:03:13Z</time>
      </trkpt>
      <trkpt lat="42.9136170" lon="-0.0370610">
        <ele>616.2</ele>
        <time>2020-07-27T11:03:16Z</time>
      </trkpt>
      <trkpt lat="42.9132970" lon="-0.0372180">
        <ele>616.2</ele>
        <time>2020-07-27T11:03:21Z</time>
      </trkpt>
      <trkpt lat="42.9130180" lon="-0.0372380">
        <ele>616.2</ele>
        <time>2020-07-27T11:03:26Z</time>
      </trkpt>
      <trkpt lat="42.9128720" lon="-0.0372620">
        <ele>617.2</ele>
        <time>2020-07-27T11:03:29Z</time>
      </trkpt>
      <trkpt lat="42.9128290" lon="-0.0372880">
        <ele>617.8</ele>
        <time>2020-07-27T11:03:30Z</time>
      </trkpt>
      <trkpt lat="42.9127870" lon="-0.0373270">
        <ele>618.2</ele>
        <time>2020-07-27T11:03:31Z</time>
      </trkpt>
      <trkpt lat="42.9127050" lon="-0.0373850">
        <ele>618.8</ele>
        <time>2020-07-27T11:03:33Z</time>
      </trkpt>
      <trkpt lat="42.9125890" lon="-0.0374450">
        <ele>619.8</ele>
        <time>2020-07-27T11:03:36Z</time>
      </trkpt>
      <trkpt lat="42.9124760" lon="-0.0374800">
        <ele>620.8</ele>
        <time>2020-07-27T11:03:39Z</time>
      </trkpt>
      <trkpt lat="42.9124390" lon="-0.0374840">
        <ele>621.2</ele>
        <time>2020-07-27T11:03:40Z</time>
      </trkpt>
      <trkpt lat="42.9123260" lon="-0.0374810">
        <ele>622.4</ele>
        <time>2020-07-27T11:03:43Z</time>
      </trkpt>
      <trkpt lat="42.9122130" lon="-0.0374620">
        <ele>623.4</ele>
        <time>2020-07-27T11:03:46Z</time>
      </trkpt>
      <trkpt lat="42.9120660" lon="-0.0374040">
        <ele>624.8</ele>
        <time>2020-07-27T11:03:50Z</time>
      </trkpt>
      <trkpt lat="42.9119060" lon="-0.0373300">
        <ele>625.6</ele>
        <time>2020-07-27T11:03:54Z</time>
      </trkpt>
      <trkpt lat="42.9118650" lon="-0.0373120">
        <ele>625.8</ele>
        <time>2020-07-27T11:03:55Z</time>
      </trkpt>
      <trkpt lat="42.9116100" lon="-0.0372390">
        <ele>627.0</ele>
        <time>2020-07-27T11:04:01Z</time>
      </trkpt>
      <trkpt lat="42.9115270" lon="-0.0372030">
        <ele>627.2</ele>
        <time>2020-07-27T11:04:03Z</time>
      </trkpt>
      <trkpt lat="42.9112730" lon="-0.0370350">
        <ele>627.8</ele>
        <time>2020-07-27T11:04:09Z</time>
      </trkpt>
      <trkpt lat="42.9111830" lon="-0.0369750">
        <ele>628.0</ele>
        <time>2020-07-27T11:04:11Z</time>
      </trkpt>
      <trkpt lat="42.9109830" lon="-0.0368330">
        <ele>628.4</ele>
        <time>2020-07-27T11:04:15Z</time>
      </trkpt>
      <trkpt lat="42.9109270" lon="-0.0368070">
        <ele>628.4</ele>
        <time>2020-07-27T11:04:16Z</time>
      </trkpt>
      <trkpt lat="42.9106900" lon="-0.0367590">
        <ele>628.4</ele>
        <time>2020-07-27T11:04:20Z</time>
      </trkpt>
      <trkpt lat="42.9103150" lon="-0.0367480">
        <ele>628.4</ele>
        <time>2020-07-27T11:04:26Z</time>
      </trkpt>
      <trkpt lat="42.9101230" lon="-0.0367410">
        <ele>628.2</ele>
        <time>2020-07-27T11:04:29Z</time>
      </trkpt>
      <trkpt lat="42.9099030" lon="-0.0367000">
        <ele>628.0</ele>
        <time>2020-07-27T11:04:32Z</time>
      </trkpt>
      <trkpt lat="42.9094180" lon="-0.0366790">
        <ele>627.6</ele>
        <time>2020-07-27T11:04:38Z</time>
      </trkpt>
      <trkpt lat="42.9089590" lon="-0.0364970">
        <ele>626.8</ele>
        <time>2020-07-27T11:04:43Z</time>
      </trkpt>
      <trkpt lat="42.9086750" lon="-0.0363340">
        <ele>625.8</ele>
        <time>2020-07-27T11:04:46Z</time>
      </trkpt>
      <trkpt lat="42.9084980" lon="-0.0361890">
        <ele>624.8</ele>
        <time>2020-07-27T11:04:48Z</time>
      </trkpt>
      <trkpt lat="42.9084160" lon="-0.0361080">
        <ele>624.2</ele>
        <time>2020-07-27T11:04:49Z</time>
      </trkpt>
      <trkpt lat="42.9082470" lon="-0.0359470">
        <ele>622.6</ele>
        <time>2020-07-27T11:04:51Z</time>
      </trkpt>
      <trkpt lat="42.9080710" lon="-0.0357990">
        <ele>621.8</ele>
        <time>2020-07-27T11:04:53Z</time>
      </trkpt>
      <trkpt lat="42.9079830" lon="-0.0357290">
        <ele>621.0</ele>
        <time>2020-07-27T11:04:54Z</time>
      </trkpt>
      <trkpt lat="42.9078100" lon="-0.0355940">
        <ele>619.8</ele>
        <time>2020-07-27T11:04:56Z</time>
      </trkpt>
      <trkpt lat="42.9076440" lon="-0.0354640">
        <ele>618.8</ele>
        <time>2020-07-27T11:04:58Z</time>
      </trkpt>
      <trkpt lat="42.9074860" lon="-0.0353300">
        <ele>617.6</ele>
        <time>2020-07-27T11:05:00Z</time>
      </trkpt>
      <trkpt lat="42.9071520" lon="-0.0350840">
        <ele>616.8</ele>
        <time>2020-07-27T11:05:04Z</time>
      </trkpt>
      <trkpt lat="42.9070600" lon="-0.0350360">
        <ele>616.8</ele>
        <time>2020-07-27T11:05:05Z</time>
      </trkpt>
      <trkpt lat="42.9067770" lon="-0.0348970">
        <ele>616.4</ele>
        <time>2020-07-27T11:05:08Z</time>
      </trkpt>
      <trkpt lat="42.9066840" lon="-0.0348330">
        <ele>616.4</ele>
        <time>2020-07-27T11:05:09Z</time>
      </trkpt>
      <trkpt lat="42.9063990" lon="-0.0346270">
        <ele>615.8</ele>
        <time>2020-07-27T11:05:12Z</time>
      </trkpt>
      <trkpt lat="42.9062970" lon="-0.0346010">
        <ele>616.0</ele>
        <time>2020-07-27T11:05:13Z</time>
      </trkpt>
      <trkpt lat="42.9060970" lon="-0.0346460">
        <ele>615.8</ele>
        <time>2020-07-27T11:05:15Z</time>
      </trkpt>
      <trkpt lat="42.9060010" lon="-0.0346540">
        <ele>615.8</ele>
        <time>2020-07-27T11:05:16Z</time>
      </trkpt>
      <trkpt lat="42.9059140" lon="-0.0346250">
        <ele>615.2</ele>
        <time>2020-07-27T11:05:17Z</time>
      </trkpt>
      <trkpt lat="42.9057850" lon="-0.0344800">
        <ele>614.0</ele>
        <time>2020-07-27T11:05:19Z</time>
      </trkpt>
      <trkpt lat="42.9056950" lon="-0.0342810">
        <ele>613.4</ele>
        <time>2020-07-27T11:05:21Z</time>
      </trkpt>
      <trkpt lat="42.9056130" lon="-0.0340760">
        <ele>613.2</ele>
        <time>2020-07-27T11:05:23Z</time>
      </trkpt>
      <trkpt lat="42.9054840" lon="-0.0337920">
        <ele>613.0</ele>
        <time>2020-07-27T11:05:26Z</time>
      </trkpt>
      <trkpt lat="42.9053980" lon="-0.0336290">
        <ele>613.0</ele>
        <time>2020-07-27T11:05:28Z</time>
      </trkpt>
      <trkpt lat="42.9051550" lon="-0.0332610">
        <ele>613.4</ele>
        <time>2020-07-27T11:05:34Z</time>
      </trkpt>
      <trkpt lat="42.9051180" lon="-0.0332070">
        <ele>614.2</ele>
        <time>2020-07-27T11:05:35Z</time>
      </trkpt>
      <trkpt lat="42.9050120" lon="-0.0330470">
        <ele>615.6</ele>
        <time>2020-07-27T11:05:38Z</time>
      </trkpt>
      <trkpt lat="42.9049160" lon="-0.0328900">
        <ele>616.6</ele>
        <time>2020-07-27T11:05:41Z</time>
      </trkpt>
      <trkpt lat="42.9048870" lon="-0.0328350">
        <ele>616.8</ele>
        <time>2020-07-27T11:05:42Z</time>
      </trkpt>
      <trkpt lat="42.9047860" lon="-0.0325850">
        <ele>618.0</ele>
        <time>2020-07-27T11:05:46Z</time>
      </trkpt>
      <trkpt lat="42.9047050" lon="-0.0324110">
        <ele>618.4</ele>
        <time>2020-07-27T11:05:49Z</time>
      </trkpt>
      <trkpt lat="42.9045210" lon="-0.0320620">
        <ele>619.0</ele>
        <time>2020-07-27T11:05:55Z</time>
      </trkpt>
      <trkpt lat="42.9044600" lon="-0.0319480">
        <ele>619.4</ele>
        <time>2020-07-27T11:05:57Z</time>
      </trkpt>
      <trkpt lat="42.9043380" lon="-0.0317280">
        <ele>619.8</ele>
        <time>2020-07-27T11:06:01Z</time>
      </trkpt>
      <trkpt lat="42.9042290" lon="-0.0315880">
        <ele>620.2</ele>
        <time>2020-07-27T11:06:04Z</time>
      </trkpt>
      <trkpt lat="42.9041910" lon="-0.0315450">
        <ele>620.4</ele>
        <time>2020-07-27T11:06:05Z</time>
      </trkpt>
      <trkpt lat="42.9040180" lon="-0.0313970">
        <ele>621.0</ele>
        <time>2020-07-27T11:06:09Z</time>
      </trkpt>
      <trkpt lat="42.9039700" lon="-0.0313740">
        <ele>621.0</ele>
        <time>2020-07-27T11:06:10Z</time>
      </trkpt>
      <trkpt lat="42.9038680" lon="-0.0313490">
        <ele>621.2</ele>
        <time>2020-07-27T11:06:12Z</time>
      </trkpt>
      <trkpt lat="42.9037040" lon="-0.0313690">
        <ele>621.8</ele>
        <time>2020-07-27T11:06:15Z</time>
      </trkpt>
      <trkpt lat="42.9036500" lon="-0.0313880">
        <ele>622.0</ele>
        <time>2020-07-27T11:06:16Z</time>
      </trkpt>
      <trkpt lat="42.9036010" lon="-0.0314140">
        <ele>622.2</ele>
        <time>2020-07-27T11:06:17Z</time>
      </trkpt>
      <trkpt lat="42.9034060" lon="-0.0315030">
        <ele>622.4</ele>
        <time>2020-07-27T11:06:21Z</time>
      </trkpt>
      <trkpt lat="42.9033560" lon="-0.0315120">
        <ele>622.6</ele>
        <time>2020-07-27T11:06:22Z</time>
      </trkpt>
      <trkpt lat="42.9032020" lon="-0.0314790">
        <ele>623.2</ele>
        <time>2020-07-27T11:06:25Z</time>
      </trkpt>
      <trkpt lat="42.9031490" lon="-0.0314570">
        <ele>623.2</ele>
        <time>2020-07-27T11:06:26Z</time>
      </trkpt>
      <trkpt lat="42.9028630" lon="-0.0313210">
        <ele>623.6</ele>
        <time>2020-07-27T11:06:32Z</time>
      </trkpt>
      <trkpt lat="42.9027140" lon="-0.0312420">
        <ele>623.6</ele>
        <time>2020-07-27T11:06:35Z</time>
      </trkpt>
      <trkpt lat="42.9025150" lon="-0.0311170">
        <ele>623.8</ele>
        <time>2020-07-27T11:06:39Z</time>
      </trkpt>
      <trkpt lat="42.9021710" lon="-0.0308630">
        <ele>623.8</ele>
        <time>2020-07-27T11:06:46Z</time>
      </trkpt>
      <trkpt lat="42.9018890" lon="-0.0306650">
        <ele>624.4</ele>
        <time>2020-07-27T11:06:52Z</time>
      </trkpt>
      <trkpt lat="42.9017510" lon="-0.0305690">
        <ele>624.4</ele>
        <time>2020-07-27T11:06:55Z</time>
      </trkpt>
      <trkpt lat="42.9014140" lon="-0.0303180">
        <ele>625.0</ele>
        <time>2020-07-27T11:07:03Z</time>
      </trkpt>
      <trkpt lat="42.9013340" lon="-0.0302590">
        <ele>625.6</ele>
        <time>2020-07-27T11:07:05Z</time>
      </trkpt>
      <trkpt lat="42.9010620" lon="-0.0300550">
        <ele>626.8</ele>
        <time>2020-07-27T11:07:12Z</time>
      </trkpt>
      <trkpt lat="42.9007900" lon="-0.0298460">
        <ele>627.8</ele>
        <time>2020-07-27T11:07:19Z</time>
      </trkpt>
      <trkpt lat="42.9007550" lon="-0.0298190">
        <ele>628.0</ele>
        <time>2020-07-27T11:07:20Z</time>
      </trkpt>
      <trkpt lat="42.9005370" lon="-0.0296510">
        <ele>629.0</ele>
        <time>2020-07-27T11:07:26Z</time>
      </trkpt>
      <trkpt lat="42.9003780" lon="-0.0295320">
        <ele>630.0</ele>
        <time>2020-07-27T11:07:30Z</time>
      </trkpt>
      <trkpt lat="42.9002970" lon="-0.0294730">
        <ele>630.2</ele>
        <time>2020-07-27T11:07:32Z</time>
      </trkpt>
      <trkpt lat="42.8999810" lon="-0.0292360">
        <ele>630.8</ele>
        <time>2020-07-27T11:07:40Z</time>
      </trkpt>
      <trkpt lat="42.8998240" lon="-0.0291290">
        <ele>631.2</ele>
        <time>2020-07-27T11:07:44Z</time>
      </trkpt>
      <trkpt lat="42.8995850" lon="-0.0289720">
        <ele>632.4</ele>
        <time>2020-07-27T11:07:50Z</time>
      </trkpt>
      <trkpt lat="42.8995450" lon="-0.0289450">
        <ele>632.6</ele>
        <time>2020-07-27T11:07:51Z</time>
      </trkpt>
      <trkpt lat="42.8992780" lon="-0.0287240">
        <ele>633.4</ele>
        <time>2020-07-27T11:07:57Z</time>
      </trkpt>
      <trkpt lat="42.8989920" lon="-0.0284880">
        <ele>633.4</ele>
        <time>2020-07-27T11:08:02Z</time>
      </trkpt>
      <trkpt lat="42.8985180" lon="-0.0282030">
        <ele>633.0</ele>
        <time>2020-07-27T11:08:09Z</time>
      </trkpt>
      <trkpt lat="42.8980930" lon="-0.0279790">
        <ele>631.4</ele>
        <time>2020-07-27T11:08:15Z</time>
      </trkpt>
      <trkpt lat="42.8978970" lon="-0.0278750">
        <ele>630.8</ele>
        <time>2020-07-27T11:08:18Z</time>
      </trkpt>
      <trkpt lat="42.8974070" lon="-0.0275630">
        <ele>631.0</ele>
        <time>2020-07-27T11:08:26Z</time>
      </trkpt>
      <trkpt lat="42.8973500" lon="-0.0275270">
        <ele>631.0</ele>
        <time>2020-07-27T11:08:27Z</time>
      </trkpt>
      <trkpt lat="42.8968530" lon="-0.0272220">
        <ele>632.0</ele>
        <time>2020-07-27T11:08:36Z</time>
      </trkpt>
      <trkpt lat="42.8966300" lon="-0.0270920">
        <ele>632.4</ele>
        <time>2020-07-27T11:08:40Z</time>
      </trkpt>
      <trkpt lat="42.8963580" lon="-0.0269350">
        <ele>633.2</ele>
        <time>2020-07-27T11:08:45Z</time>
      </trkpt>
      <trkpt lat="42.8962510" lon="-0.0268690">
        <ele>633.6</ele>
        <time>2020-07-27T11:08:47Z</time>
      </trkpt>
      <trkpt lat="42.8959390" lon="-0.0266740">
        <ele>634.0</ele>
        <time>2020-07-27T11:08:53Z</time>
      </trkpt>
      <trkpt lat="42.8957200" lon="-0.0265350">
        <ele>634.8</ele>
        <time>2020-07-27T11:08:57Z</time>
      </trkpt>
      <trkpt lat="42.8953890" lon="-0.0263340">
        <ele>635.4</ele>
        <time>2020-07-27T11:09:03Z</time>
      </trkpt>
      <trkpt lat="42.8950130" lon="-0.0261010">
        <ele>635.8</ele>
        <time>2020-07-27T11:09:10Z</time>
      </trkpt>
      <trkpt lat="42.8948020" lon="-0.0259700">
        <ele>636.8</ele>
        <time>2020-07-27T11:09:14Z</time>
      </trkpt>
      <trkpt lat="42.8946940" lon="-0.0259010">
        <ele>637.0</ele>
        <time>2020-07-27T11:09:16Z</time>
      </trkpt>
      <trkpt lat="42.8943480" lon="-0.0256900">
        <ele>637.4</ele>
        <time>2020-07-27T11:09:22Z</time>
      </trkpt>
      <trkpt lat="42.8938810" lon="-0.0254010">
        <ele>637.6</ele>
        <time>2020-07-27T11:09:30Z</time>
      </trkpt>
      <trkpt lat="42.8934080" lon="-0.0251070">
        <ele>638.2</ele>
        <time>2020-07-27T11:09:39Z</time>
      </trkpt>
      <trkpt lat="42.8933550" lon="-0.0250760">
        <ele>638.4</ele>
        <time>2020-07-27T11:09:40Z</time>
      </trkpt>
      <trkpt lat="42.8931460" lon="-0.0249440">
        <ele>639.6</ele>
        <time>2020-07-27T11:09:44Z</time>
      </trkpt>
      <trkpt lat="42.8929880" lon="-0.0248450">
        <ele>639.8</ele>
        <time>2020-07-27T11:09:47Z</time>
      </trkpt>
      <trkpt lat="42.8924510" lon="-0.0245150">
        <ele>640.4</ele>
        <time>2020-07-27T11:09:57Z</time>
      </trkpt>
      <trkpt lat="42.8923960" lon="-0.0244820">
        <ele>640.4</ele>
        <time>2020-07-27T11:09:58Z</time>
      </trkpt>
      <trkpt lat="42.8921770" lon="-0.0243490">
        <ele>640.4</ele>
        <time>2020-07-27T11:10:02Z</time>
      </trkpt>
      <trkpt lat="42.8918060" lon="-0.0241100">
        <ele>640.8</ele>
        <time>2020-07-27T11:10:09Z</time>
      </trkpt>
      <trkpt lat="42.8913150" lon="-0.0238010">
        <ele>641.4</ele>
        <time>2020-07-27T11:10:19Z</time>
      </trkpt>
      <trkpt lat="42.8911380" lon="-0.0236430">
        <ele>641.6</ele>
        <time>2020-07-27T11:10:23Z</time>
      </trkpt>
      <trkpt lat="42.8910090" lon="-0.0234980">
        <ele>642.0</ele>
        <time>2020-07-27T11:10:26Z</time>
      </trkpt>
      <trkpt lat="42.8907890" lon="-0.0231270">
        <ele>642.6</ele>
        <time>2020-07-27T11:10:32Z</time>
      </trkpt>
      <trkpt lat="42.8907540" lon="-0.0230640">
        <ele>642.6</ele>
        <time>2020-07-27T11:10:33Z</time>
      </trkpt>
      <trkpt lat="42.8905200" lon="-0.0225960">
        <ele>643.2</ele>
        <time>2020-07-27T11:10:40Z</time>
      </trkpt>
      <trkpt lat="42.8902820" lon="-0.0221220">
        <ele>643.8</ele>
        <time>2020-07-27T11:10:47Z</time>
      </trkpt>
      <trkpt lat="42.8902080" lon="-0.0219850">
        <ele>644.2</ele>
        <time>2020-07-27T11:10:49Z</time>
      </trkpt>
      <trkpt lat="42.8899130" lon="-0.0214490">
        <ele>644.6</ele>
        <time>2020-07-27T11:10:57Z</time>
      </trkpt>
      <trkpt lat="42.8897270" lon="-0.0212160">
        <ele>644.8</ele>
        <time>2020-07-27T11:11:01Z</time>
      </trkpt>
      <trkpt lat="42.8896270" lon="-0.0210880">
        <ele>645.2</ele>
        <time>2020-07-27T11:11:03Z</time>
      </trkpt>
      <trkpt lat="42.8895260" lon="-0.0209750">
        <ele>646.0</ele>
        <time>2020-07-27T11:11:05Z</time>
      </trkpt>
      <trkpt lat="42.8892580" lon="-0.0207000">
        <ele>646.2</ele>
        <time>2020-07-27T11:11:10Z</time>
      </trkpt>
      <trkpt lat="42.8889540" lon="-0.0203560">
        <ele>646.2</ele>
        <time>2020-07-27T11:11:16Z</time>
      </trkpt>
      <trkpt lat="42.8886790" lon="-0.0199140">
        <ele>646.2</ele>
        <time>2020-07-27T11:11:23Z</time>
      </trkpt>
      <trkpt lat="42.8884590" lon="-0.0194400">
        <ele>646.6</ele>
        <time>2020-07-27T11:11:30Z</time>
      </trkpt>
      <trkpt lat="42.8884240" lon="-0.0193670">
        <ele>647.0</ele>
        <time>2020-07-27T11:11:31Z</time>
      </trkpt>
      <trkpt lat="42.8882260" lon="-0.0190250">
        <ele>647.8</ele>
        <time>2020-07-27T11:11:36Z</time>
      </trkpt>
      <trkpt lat="42.8881790" lon="-0.0189660">
        <ele>648.0</ele>
        <time>2020-07-27T11:11:37Z</time>
      </trkpt>
      <trkpt lat="42.8878300" lon="-0.0186130">
        <ele>648.4</ele>
        <time>2020-07-27T11:11:44Z</time>
      </trkpt>
      <trkpt lat="42.8876070" lon="-0.0184160">
        <ele>648.8</ele>
        <time>2020-07-27T11:11:49Z</time>
      </trkpt>
      <trkpt lat="42.8875180" lon="-0.0183410">
        <ele>649.0</ele>
        <time>2020-07-27T11:11:51Z</time>
      </trkpt>
      <trkpt lat="42.8872530" lon="-0.0181060">
        <ele>649.6</ele>
        <time>2020-07-27T11:11:57Z</time>
      </trkpt>
      <trkpt lat="42.8870750" lon="-0.0179470">
        <ele>650.2</ele>
        <time>2020-07-27T11:12:01Z</time>
      </trkpt>
      <trkpt lat="42.8869840" lon="-0.0178710">
        <ele>650.8</ele>
        <time>2020-07-27T11:12:03Z</time>
      </trkpt>
      <trkpt lat="42.8866680" lon="-0.0175990">
        <ele>651.4</ele>
        <time>2020-07-27T11:12:10Z</time>
      </trkpt>
      <trkpt lat="42.8865350" lon="-0.0174850">
        <ele>651.8</ele>
        <time>2020-07-27T11:12:13Z</time>
      </trkpt>
      <trkpt lat="42.8863290" lon="-0.0173000">
        <ele>652.2</ele>
        <time>2020-07-27T11:12:18Z</time>
      </trkpt>
      <trkpt lat="42.8862550" lon="-0.0172320">
        <ele>652.8</ele>
        <time>2020-07-27T11:12:20Z</time>
      </trkpt>
      <trkpt lat="42.8860710" lon="-0.0170660">
        <ele>654.0</ele>
        <time>2020-07-27T11:12:25Z</time>
      </trkpt>
      <trkpt lat="42.8860350" lon="-0.0170320">
        <ele>654.2</ele>
        <time>2020-07-27T11:12:26Z</time>
      </trkpt>
      <trkpt lat="42.8858910" lon="-0.0169050">
        <ele>655.0</ele>
        <time>2020-07-27T11:12:30Z</time>
      </trkpt>
      <trkpt lat="42.8857350" lon="-0.0167690">
        <ele>656.2</ele>
        <time>2020-07-27T11:12:34Z</time>
      </trkpt>
      <trkpt lat="42.8856150" lon="-0.0166490">
        <ele>657.0</ele>
        <time>2020-07-27T11:12:37Z</time>
      </trkpt>
      <trkpt lat="42.8854560" lon="-0.0164510">
        <ele>657.2</ele>
        <time>2020-07-27T11:12:41Z</time>
      </trkpt>
      <trkpt lat="42.8853620" lon="-0.0161510">
        <ele>657.2</ele>
        <time>2020-07-27T11:12:45Z</time>
      </trkpt>
      <trkpt lat="42.8853460" lon="-0.0159790">
        <ele>657.2</ele>
        <time>2020-07-27T11:12:47Z</time>
      </trkpt>
      <trkpt lat="42.8853130" lon="-0.0157230">
        <ele>657.0</ele>
        <time>2020-07-27T11:12:50Z</time>
      </trkpt>
      <trkpt lat="42.8852900" lon="-0.0156410">
        <ele>657.0</ele>
        <time>2020-07-27T11:12:51Z</time>
      </trkpt>
      <trkpt lat="42.8851260" lon="-0.0153770">
        <ele>656.6</ele>
        <time>2020-07-27T11:12:55Z</time>
      </trkpt>
      <trkpt lat="42.8850190" lon="-0.0152960">
        <ele>656.6</ele>
        <time>2020-07-27T11:12:57Z</time>
      </trkpt>
      <trkpt lat="42.8847960" lon="-0.0151370">
        <ele>656.4</ele>
        <time>2020-07-27T11:13:01Z</time>
      </trkpt>
      <trkpt lat="42.8843630" lon="-0.0148170">
        <ele>656.4</ele>
        <time>2020-07-27T11:13:09Z</time>
      </trkpt>
      <trkpt lat="42.8841190" lon="-0.0146590">
        <ele>656.4</ele>
        <time>2020-07-27T11:13:14Z</time>
      </trkpt>
      <trkpt lat="42.8838490" lon="-0.0144580">
        <ele>657.0</ele>
        <time>2020-07-27T11:13:20Z</time>
      </trkpt>
      <trkpt lat="42.8838070" lon="-0.0144290">
        <ele>657.2</ele>
        <time>2020-07-27T11:13:21Z</time>
      </trkpt>
      <trkpt lat="42.8836780" lon="-0.0143240">
        <ele>657.4</ele>
        <time>2020-07-27T11:13:24Z</time>
      </trkpt>
      <trkpt lat="42.8835500" lon="-0.0142320">
        <ele>657.6</ele>
        <time>2020-07-27T11:13:27Z</time>
      </trkpt>
      <trkpt lat="42.8833350" lon="-0.0140840">
        <ele>658.6</ele>
        <time>2020-07-27T11:13:33Z</time>
      </trkpt>
      <trkpt lat="42.8832020" lon="-0.0139820">
        <ele>659.6</ele>
        <time>2020-07-27T11:13:37Z</time>
      </trkpt>
      <trkpt lat="42.8831360" lon="-0.0139370">
        <ele>660.4</ele>
        <time>2020-07-27T11:13:39Z</time>
      </trkpt>
      <trkpt lat="42.8831040" lon="-0.0139130">
        <ele>660.6</ele>
        <time>2020-07-27T11:13:40Z</time>
      </trkpt>
      <trkpt lat="42.8829630" lon="-0.0138130">
        <ele>661.6</ele>
        <time>2020-07-27T11:13:44Z</time>
      </trkpt>
      <trkpt lat="42.8828890" lon="-0.0137600">
        <ele>662.0</ele>
        <time>2020-07-27T11:13:46Z</time>
      </trkpt>
      <trkpt lat="42.8826350" lon="-0.0135820">
        <ele>662.8</ele>
        <time>2020-07-27T11:13:53Z</time>
      </trkpt>
      <trkpt lat="42.8823820" lon="-0.0133820">
        <ele>664.2</ele>
        <time>2020-07-27T11:14:00Z</time>
      </trkpt>
      <trkpt lat="42.8823170" lon="-0.0133320">
        <ele>664.6</ele>
        <time>2020-07-27T11:14:02Z</time>
      </trkpt>
      <trkpt lat="42.8821430" lon="-0.0131980">
        <ele>665.2</ele>
        <time>2020-07-27T11:14:07Z</time>
      </trkpt>
      <trkpt lat="42.8819820" lon="-0.0130720">
        <ele>666.0</ele>
        <time>2020-07-27T11:14:12Z</time>
      </trkpt>
      <trkpt lat="42.8818870" lon="-0.0130020">
        <ele>666.2</ele>
        <time>2020-07-27T11:14:15Z</time>
      </trkpt>
      <trkpt lat="42.8817320" lon="-0.0128860">
        <ele>667.2</ele>
        <time>2020-07-27T11:14:20Z</time>
      </trkpt>
      <trkpt lat="42.8816990" lon="-0.0128540">
        <ele>667.4</ele>
        <time>2020-07-27T11:14:21Z</time>
      </trkpt>
      <trkpt lat="42.8814590" lon="-0.0126700">
        <ele>668.6</ele>
        <time>2020-07-27T11:14:28Z</time>
      </trkpt>
      <trkpt lat="42.8814250" lon="-0.0126480">
        <ele>668.8</ele>
        <time>2020-07-27T11:14:29Z</time>
      </trkpt>
      <trkpt lat="42.8812340" lon="-0.0125130">
        <ele>669.6</ele>
        <time>2020-07-27T11:14:35Z</time>
      </trkpt>
      <trkpt lat="42.8811620" lon="-0.0124570">
        <ele>669.8</ele>
        <time>2020-07-27T11:14:37Z</time>
      </trkpt>
      <trkpt lat="42.8810250" lon="-0.0123540">
        <ele>670.4</ele>
        <time>2020-07-27T11:14:41Z</time>
      </trkpt>
      <trkpt lat="42.8809320" lon="-0.0122800">
        <ele>671.0</ele>
        <time>2020-07-27T11:14:44Z</time>
      </trkpt>
      <trkpt lat="42.8808050" lon="-0.0121750">
        <ele>671.6</ele>
        <time>2020-07-27T11:14:48Z</time>
      </trkpt>
      <trkpt lat="42.8807120" lon="-0.0121000">
        <ele>672.0</ele>
        <time>2020-07-27T11:14:51Z</time>
      </trkpt>
      <trkpt lat="42.8805340" lon="-0.0119590">
        <ele>673.2</ele>
        <time>2020-07-27T11:14:56Z</time>
      </trkpt>
      <trkpt lat="42.8804610" lon="-0.0118960">
        <ele>673.4</ele>
        <time>2020-07-27T11:14:58Z</time>
      </trkpt>
      <trkpt lat="42.8802580" lon="-0.0117230">
        <ele>674.2</ele>
        <time>2020-07-27T11:15:04Z</time>
      </trkpt>
      <trkpt lat="42.8802300" lon="-0.0116930">
        <ele>674.2</ele>
        <time>2020-07-27T11:15:05Z</time>
      </trkpt>
      <trkpt lat="42.8800450" lon="-0.0114550">
        <ele>675.6</ele>
        <time>2020-07-27T11:15:12Z</time>
      </trkpt>
      <trkpt lat="42.8799880" lon="-0.0113780">
        <ele>676.0</ele>
        <time>2020-07-27T11:15:14Z</time>
      </trkpt>
      <trkpt lat="42.8798480" lon="-0.0111760">
        <ele>676.6</ele>
        <time>2020-07-27T11:15:19Z</time>
      </trkpt>
      <trkpt lat="42.8797620" lon="-0.0110550">
        <ele>677.0</ele>
        <time>2020-07-27T11:15:22Z</time>
      </trkpt>
      <trkpt lat="42.8795660" lon="-0.0107720">
        <ele>677.6</ele>
        <time>2020-07-27T11:15:29Z</time>
      </trkpt>
      <trkpt lat="42.8794300" lon="-0.0105720">
        <ele>678.2</ele>
        <time>2020-07-27T11:15:34Z</time>
      </trkpt>
      <trkpt lat="42.8792950" lon="-0.0103770">
        <ele>679.0</ele>
        <time>2020-07-27T11:15:39Z</time>
      </trkpt>
      <trkpt lat="42.8792400" lon="-0.0102990">
        <ele>680.0</ele>
        <time>2020-07-27T11:15:41Z</time>
      </trkpt>
      <trkpt lat="42.8791340" lon="-0.0101410">
        <ele>680.6</ele>
        <time>2020-07-27T11:15:45Z</time>
      </trkpt>
      <trkpt lat="42.8790010" lon="-0.0099450">
        <ele>681.2</ele>
        <time>2020-07-27T11:15:50Z</time>
      </trkpt>
      <trkpt lat="42.8788650" lon="-0.0097440">
        <ele>682.2</ele>
        <time>2020-07-27T11:15:55Z</time>
      </trkpt>
      <trkpt lat="42.8788370" lon="-0.0097050">
        <ele>682.2</ele>
        <time>2020-07-27T11:15:56Z</time>
      </trkpt>
      <trkpt lat="42.8786240" lon="-0.0093900">
        <ele>683.2</ele>
        <time>2020-07-27T11:16:04Z</time>
      </trkpt>
      <trkpt lat="42.8785980" lon="-0.0093500">
        <ele>683.4</ele>
        <time>2020-07-27T11:16:05Z</time>
      </trkpt>
      <trkpt lat="42.8784340" lon="-0.0091190">
        <ele>684.6</ele>
        <time>2020-07-27T11:16:11Z</time>
      </trkpt>
      <trkpt lat="42.8783540" lon="-0.0090040">
        <ele>684.8</ele>
        <time>2020-07-27T11:16:14Z</time>
      </trkpt>
      <trkpt lat="42.8781700" lon="-0.0087320">
        <ele>685.6</ele>
        <time>2020-07-27T11:16:21Z</time>
      </trkpt>
      <trkpt lat="42.8781170" lon="-0.0086600">
        <ele>686.0</ele>
        <time>2020-07-27T11:16:23Z</time>
      </trkpt>
      <trkpt lat="42.8779100" lon="-0.0083680">
        <ele>686.8</ele>
        <time>2020-07-27T11:16:31Z</time>
      </trkpt>
      <trkpt lat="42.8778010" lon="-0.0082150">
        <ele>688.0</ele>
        <time>2020-07-27T11:16:35Z</time>
      </trkpt>
      <trkpt lat="42.8777210" lon="-0.0080950">
        <ele>688.4</ele>
        <time>2020-07-27T11:16:38Z</time>
      </trkpt>
      <trkpt lat="42.8776140" lon="-0.0079360">
        <ele>689.2</ele>
        <time>2020-07-27T11:16:42Z</time>
      </trkpt>
      <trkpt lat="42.8775100" lon="-0.0077810">
        <ele>689.8</ele>
        <time>2020-07-27T11:16:46Z</time>
      </trkpt>
      <trkpt lat="42.8774330" lon="-0.0076680">
        <ele>690.4</ele>
        <time>2020-07-27T11:16:49Z</time>
      </trkpt>
      <trkpt lat="42.8772000" lon="-0.0073380">
        <ele>691.0</ele>
        <time>2020-07-27T11:16:58Z</time>
      </trkpt>
      <trkpt lat="42.8770670" lon="-0.0071460">
        <ele>691.6</ele>
        <time>2020-07-27T11:17:03Z</time>
      </trkpt>
      <trkpt lat="42.8769880" lon="-0.0070320">
        <ele>692.8</ele>
        <time>2020-07-27T11:17:06Z</time>
      </trkpt>
      <trkpt lat="42.8769400" lon="-0.0069490">
        <ele>693.0</ele>
        <time>2020-07-27T11:17:08Z</time>
      </trkpt>
      <trkpt lat="42.8767400" lon="-0.0066260">
        <ele>693.4</ele>
        <time>2020-07-27T11:17:16Z</time>
      </trkpt>
      <trkpt lat="42.8766840" lon="-0.0065460">
        <ele>693.8</ele>
        <time>2020-07-27T11:17:18Z</time>
      </trkpt>
      <trkpt lat="42.8766290" lon="-0.0064700">
        <ele>694.0</ele>
        <time>2020-07-27T11:17:20Z</time>
      </trkpt>
      <trkpt lat="42.8764650" lon="-0.0062370">
        <ele>694.8</ele>
        <time>2020-07-27T11:17:26Z</time>
      </trkpt>
      <trkpt lat="42.8762810" lon="-0.0059740">
        <ele>696.0</ele>
        <time>2020-07-27T11:17:33Z</time>
      </trkpt>
      <trkpt lat="42.8761480" lon="-0.0057880">
        <ele>696.6</ele>
        <time>2020-07-27T11:17:38Z</time>
      </trkpt>
      <trkpt lat="42.8760930" lon="-0.0057140">
        <ele>697.0</ele>
        <time>2020-07-27T11:17:40Z</time>
      </trkpt>
      <trkpt lat="42.8759370" lon="-0.0054910">
        <ele>698.0</ele>
        <time>2020-07-27T11:17:46Z</time>
      </trkpt>
      <trkpt lat="42.8756870" lon="-0.0051310">
        <ele>699.0</ele>
        <time>2020-07-27T11:17:56Z</time>
      </trkpt>
      <trkpt lat="42.8756380" lon="-0.0050590">
        <ele>699.4</ele>
        <time>2020-07-27T11:17:58Z</time>
      </trkpt>
      <trkpt lat="42.8755160" lon="-0.0048860">
        <ele>700.4</ele>
        <time>2020-07-27T11:18:03Z</time>
      </trkpt>
      <trkpt lat="42.8753710" lon="-0.0046720">
        <ele>701.2</ele>
        <time>2020-07-27T11:18:09Z</time>
      </trkpt>
      <trkpt lat="42.8753220" lon="-0.0046030">
        <ele>701.4</ele>
        <time>2020-07-27T11:18:11Z</time>
      </trkpt>
      <trkpt lat="42.8752510" lon="-0.0044920">
        <ele>702.6</ele>
        <time>2020-07-27T11:18:14Z</time>
      </trkpt>
      <trkpt lat="42.8751500" lon="-0.0043500">
        <ele>703.4</ele>
        <time>2020-07-27T11:18:18Z</time>
      </trkpt>
      <trkpt lat="42.8751260" lon="-0.0043150">
        <ele>703.8</ele>
        <time>2020-07-27T11:18:19Z</time>
      </trkpt>
      <trkpt lat="42.8749680" lon="-0.0040740">
        <ele>704.8</ele>
        <time>2020-07-27T11:18:26Z</time>
      </trkpt>
      <trkpt lat="42.8749450" lon="-0.0040410">
        <ele>705.0</ele>
        <time>2020-07-27T11:18:27Z</time>
      </trkpt>
      <trkpt lat="42.8748330" lon="-0.0038780">
        <ele>705.8</ele>
        <time>2020-07-27T11:18:32Z</time>
      </trkpt>
      <trkpt lat="42.8747460" lon="-0.0037460">
        <ele>706.8</ele>
        <time>2020-07-27T11:18:36Z</time>
      </trkpt>
      <trkpt lat="42.8746820" lon="-0.0036470">
        <ele>707.6</ele>
        <time>2020-07-27T11:18:39Z</time>
      </trkpt>
      <trkpt lat="42.8746380" lon="-0.0035810">
        <ele>708.2</ele>
        <time>2020-07-27T11:18:41Z</time>
      </trkpt>
      <trkpt lat="42.8745320" lon="-0.0034140">
        <ele>709.4</ele>
        <time>2020-07-27T11:18:46Z</time>
      </trkpt>
      <trkpt lat="42.8744890" lon="-0.0033480">
        <ele>709.6</ele>
        <time>2020-07-27T11:18:48Z</time>
      </trkpt>
      <trkpt lat="42.8744360" lon="-0.0032390">
        <ele>710.0</ele>
        <time>2020-07-27T11:18:51Z</time>
      </trkpt>
      <trkpt lat="42.8742550" lon="-0.0031430">
        <ele>713.2</ele>
        <time>2020-07-27T11:21:18Z</time>
      </trkpt>
      <trkpt lat="42.8742280" lon="-0.0031540">
        <ele>713.2</ele>
        <time>2020-07-27T11:21:19Z</time>
      </trkpt>
      <trkpt lat="42.8740200" lon="-0.0031860">
        <ele>713.2</ele>
        <time>2020-07-27T11:21:25Z</time>
      </trkpt>
      <trkpt lat="42.8738480" lon="-0.0032330">
        <ele>713.2</ele>
        <time>2020-07-27T11:21:31Z</time>
      </trkpt>
      <trkpt lat="42.8738290" lon="-0.0032070">
        <ele>713.6</ele>
        <time>2020-07-27T11:21:35Z</time>
      </trkpt>
      <trkpt lat="42.8733210" lon="-0.0033350">
        <ele>713.8</ele>
        <time>2020-07-27T11:22:03Z</time>
      </trkpt>
      <trkpt lat="42.8732610" lon="-0.0033330">
        <ele>713.8</ele>
        <time>2020-07-27T11:22:05Z</time>
      </trkpt>
      <trkpt lat="42.8730870" lon="-0.0031960">
        <ele>713.4</ele>
        <time>2020-07-27T11:22:10Z</time>
      </trkpt>
      <trkpt lat="42.8729240" lon="-0.0029260">
        <ele>713.4</ele>
        <time>2020-07-27T11:22:17Z</time>
      </trkpt>
      <trkpt lat="42.8727820" lon="-0.0026450">
        <ele>713.8</ele>
        <time>2020-07-27T11:22:25Z</time>
      </trkpt>
      <trkpt lat="42.8727270" lon="-0.0025310">
        <ele>714.6</ele>
        <time>2020-07-27T11:22:29Z</time>
      </trkpt>
      <trkpt lat="42.8726840" lon="-0.0024550">
        <ele>715.6</ele>
        <time>2020-07-27T11:22:32Z</time>
      </trkpt>
      <trkpt lat="42.8726680" lon="-0.0024260">
        <ele>716.0</ele>
        <time>2020-07-27T11:22:33Z</time>
      </trkpt>
      <trkpt lat="42.8725760" lon="-0.0022900">
        <ele>717.0</ele>
        <time>2020-07-27T11:22:38Z</time>
      </trkpt>
      <trkpt lat="42.8725610" lon="-0.0022660">
        <ele>717.2</ele>
        <time>2020-07-27T11:22:39Z</time>
      </trkpt>
      <trkpt lat="42.8724980" lon="-0.0021600">
        <ele>718.2</ele>
        <time>2020-07-27T11:22:43Z</time>
      </trkpt>
      <trkpt lat="42.8724670" lon="-0.0021260">
        <ele>718.6</ele>
        <time>2020-07-27T11:22:45Z</time>
      </trkpt>
      <trkpt lat="42.8724210" lon="-0.0020500">
        <ele>719.2</ele>
        <time>2020-07-27T11:22:48Z</time>
      </trkpt>
      <trkpt lat="42.8723890" lon="-0.0019980">
        <ele>719.8</ele>
        <time>2020-07-27T11:22:50Z</time>
      </trkpt>
      <trkpt lat="42.8723510" lon="-0.0019080">
        <ele>720.8</ele>
        <time>2020-07-27T11:22:53Z</time>
      </trkpt>
      <trkpt lat="42.8722920" lon="-0.0017700">
        <ele>721.8</ele>
        <time>2020-07-27T11:22:57Z</time>
      </trkpt>
      <trkpt lat="42.8722850" lon="-0.0015990">
        <ele>723.0</ele>
        <time>2020-07-27T11:23:01Z</time>
      </trkpt>
      <trkpt lat="42.8722930" lon="-0.0015560">
        <ele>723.2</ele>
        <time>2020-07-27T11:23:02Z</time>
      </trkpt>
      <trkpt lat="42.8723350" lon="-0.0013870">
        <ele>724.0</ele>
        <time>2020-07-27T11:23:06Z</time>
      </trkpt>
      <trkpt lat="42.8724050" lon="-0.0011370">
        <ele>724.6</ele>
        <time>2020-07-27T11:23:12Z</time>
      </trkpt>
      <trkpt lat="42.8724380" lon="-0.0010140">
        <ele>725.2</ele>
        <time>2020-07-27T11:23:15Z</time>
      </trkpt>
      <trkpt lat="42.8725430" lon="-0.0006520">
        <ele>726.2</ele>
        <time>2020-07-27T11:23:24Z</time>
      </trkpt>
      <trkpt lat="42.8726230" lon="-0.0003780">
        <ele>726.8</ele>
        <time>2020-07-27T11:23:31Z</time>
      </trkpt>
      <trkpt lat="42.8726570" lon="-0.0002600">
        <ele>727.2</ele>
        <time>2020-07-27T11:23:34Z</time>
      </trkpt>
      <trkpt lat="42.8727340" lon="0.0000190">
        <ele>728.2</ele>
        <time>2020-07-27T11:23:41Z</time>
      </trkpt>
      <trkpt lat="42.8727440" lon="0.0000580">
        <ele>728.4</ele>
        <time>2020-07-27T11:23:42Z</time>
      </trkpt>
      <trkpt lat="42.8728370" lon="0.0003790">
        <ele>729.6</ele>
        <time>2020-07-27T11:23:50Z</time>
      </trkpt>
      <trkpt lat="42.8728470" lon="0.0004180">
        <ele>729.8</ele>
        <time>2020-07-27T11:23:51Z</time>
      </trkpt>
      <trkpt lat="42.8728940" lon="0.0005790">
        <ele>730.6</ele>
        <time>2020-07-27T11:23:55Z</time>
      </trkpt>
      <trkpt lat="42.8729570" lon="0.0008070">
        <ele>731.6</ele>
        <time>2020-07-27T11:24:00Z</time>
      </trkpt>
      <trkpt lat="42.8729860" lon="0.0009090">
        <ele>731.8</ele>
        <time>2020-07-27T11:24:02Z</time>
      </trkpt>
      <trkpt lat="42.8730590" lon="0.0011860">
        <ele>732.0</ele>
        <time>2020-07-27T11:24:07Z</time>
      </trkpt>
      <trkpt lat="42.8732250" lon="0.0018240">
        <ele>732.2</ele>
        <time>2020-07-27T11:24:17Z</time>
      </trkpt>
      <trkpt lat="42.8733870" lon="0.0024180">
        <ele>732.2</ele>
        <time>2020-07-27T11:24:26Z</time>
      </trkpt>
      <trkpt lat="42.8735330" lon="0.0029450">
        <ele>732.6</ele>
        <time>2020-07-27T11:24:35Z</time>
      </trkpt>
      <trkpt lat="42.8735750" lon="0.0031050">
        <ele>732.8</ele>
        <time>2020-07-27T11:24:38Z</time>
      </trkpt>
      <trkpt lat="42.8736420" lon="0.0033490">
        <ele>733.4</ele>
        <time>2020-07-27T11:24:43Z</time>
      </trkpt>
      <trkpt lat="42.8736690" lon="0.0034470">
        <ele>734.2</ele>
        <time>2020-07-27T11:24:45Z</time>
      </trkpt>
      <trkpt lat="42.8737620" lon="0.0037770">
        <ele>735.4</ele>
        <time>2020-07-27T11:24:52Z</time>
      </trkpt>
      <trkpt lat="42.8738440" lon="0.0040890">
        <ele>736.6</ele>
        <time>2020-07-27T11:24:59Z</time>
      </trkpt>
      <trkpt lat="42.8739010" lon="0.0042960">
        <ele>737.8</ele>
        <time>2020-07-27T11:25:04Z</time>
      </trkpt>
      <trkpt lat="42.8739530" lon="0.0045070">
        <ele>739.0</ele>
        <time>2020-07-27T11:25:09Z</time>
      </trkpt>
      <trkpt lat="42.8739630" lon="0.0045490">
        <ele>739.2</ele>
        <time>2020-07-27T11:25:10Z</time>
      </trkpt>
      <trkpt lat="42.8740070" lon="0.0047180">
        <ele>740.2</ele>
        <time>2020-07-27T11:25:14Z</time>
      </trkpt>
      <trkpt lat="42.8740540" lon="0.0048820">
        <ele>741.2</ele>
        <time>2020-07-27T11:25:18Z</time>
      </trkpt>
      <trkpt lat="42.8740750" lon="0.0049630">
        <ele>741.6</ele>
        <time>2020-07-27T11:25:20Z</time>
      </trkpt>
      <trkpt lat="42.8741210" lon="0.0050820">
        <ele>742.4</ele>
        <time>2020-07-27T11:25:23Z</time>
      </trkpt>
      <trkpt lat="42.8742120" lon="0.0052770">
        <ele>743.4</ele>
        <time>2020-07-27T11:25:28Z</time>
      </trkpt>
      <trkpt lat="42.8743960" lon="0.0055480">
        <ele>744.4</ele>
        <time>2020-07-27T11:25:36Z</time>
      </trkpt>
      <trkpt lat="42.8744430" lon="0.0056180">
        <ele>744.6</ele>
        <time>2020-07-27T11:25:38Z</time>
      </trkpt>
      <trkpt lat="42.8746000" lon="0.0058700">
        <ele>745.4</ele>
        <time>2020-07-27T11:25:45Z</time>
      </trkpt>
      <trkpt lat="42.8746450" lon="0.0059410">
        <ele>745.6</ele>
        <time>2020-07-27T11:25:47Z</time>
      </trkpt>
      <trkpt lat="42.8747680" lon="0.0061410">
        <ele>746.4</ele>
        <time>2020-07-27T11:25:53Z</time>
      </trkpt>
      <trkpt lat="42.8748310" lon="0.0062440">
        <ele>747.0</ele>
        <time>2020-07-27T11:25:56Z</time>
      </trkpt>
      <trkpt lat="42.8749140" lon="0.0063820">
        <ele>747.4</ele>
        <time>2020-07-27T11:26:00Z</time>
      </trkpt>
      <trkpt lat="42.8750510" lon="0.0065690">
        <ele>748.6</ele>
        <time>2020-07-27T11:26:06Z</time>
      </trkpt>
      <trkpt lat="42.8751600" lon="0.0067330">
        <ele>749.6</ele>
        <time>2020-07-27T11:26:11Z</time>
      </trkpt>
      <trkpt lat="42.8752480" lon="0.0068640">
        <ele>750.6</ele>
        <time>2020-07-27T11:26:15Z</time>
      </trkpt>
      <trkpt lat="42.8752710" lon="0.0068960">
        <ele>750.8</ele>
        <time>2020-07-27T11:26:16Z</time>
      </trkpt>
      <trkpt lat="42.8754040" lon="0.0070880">
        <ele>751.8</ele>
        <time>2020-07-27T11:26:22Z</time>
      </trkpt>
      <trkpt lat="42.8754950" lon="0.0072190">
        <ele>752.6</ele>
        <time>2020-07-27T11:26:26Z</time>
      </trkpt>
      <trkpt lat="42.8755180" lon="0.0072520">
        <ele>752.8</ele>
        <time>2020-07-27T11:26:27Z</time>
      </trkpt>
      <trkpt lat="42.8756290" lon="0.0074090">
        <ele>753.8</ele>
        <time>2020-07-27T11:26:32Z</time>
      </trkpt>
      <trkpt lat="42.8757350" lon="0.0075710">
        <ele>754.6</ele>
        <time>2020-07-27T11:26:37Z</time>
      </trkpt>
      <trkpt lat="42.8757800" lon="0.0076340">
        <ele>755.2</ele>
        <time>2020-07-27T11:26:39Z</time>
      </trkpt>
      <trkpt lat="42.8758900" lon="0.0077900">
        <ele>756.2</ele>
        <time>2020-07-27T11:26:44Z</time>
      </trkpt>
      <trkpt lat="42.8759800" lon="0.0079190">
        <ele>757.0</ele>
        <time>2020-07-27T11:26:48Z</time>
      </trkpt>
      <trkpt lat="42.8760000" lon="0.0079500">
        <ele>757.2</ele>
        <time>2020-07-27T11:26:49Z</time>
      </trkpt>
      <trkpt lat="42.8761530" lon="0.0081820">
        <ele>758.4</ele>
        <time>2020-07-27T11:26:56Z</time>
      </trkpt>
      <trkpt lat="42.8761760" lon="0.0082170">
        <ele>758.6</ele>
        <time>2020-07-27T11:26:57Z</time>
      </trkpt>
      <trkpt lat="42.8762920" lon="0.0083880">
        <ele>759.4</ele>
        <time>2020-07-27T11:27:02Z</time>
      </trkpt>
      <trkpt lat="42.8764300" lon="0.0085900">
        <ele>760.6</ele>
        <time>2020-07-27T11:27:08Z</time>
      </trkpt>
      <trkpt lat="42.8766030" lon="0.0088650">
        <ele>761.6</ele>
        <time>2020-07-27T11:27:16Z</time>
      </trkpt>
      <trkpt lat="42.8766230" lon="0.0089020">
        <ele>761.8</ele>
        <time>2020-07-27T11:27:17Z</time>
      </trkpt>
      <trkpt lat="42.8767320" lon="0.0091320">
        <ele>762.4</ele>
        <time>2020-07-27T11:27:23Z</time>
      </trkpt>
      <trkpt lat="42.8767770" lon="0.0092520">
        <ele>762.6</ele>
        <time>2020-07-27T11:27:26Z</time>
      </trkpt>
      <trkpt lat="42.8768330" lon="0.0094140">
        <ele>763.4</ele>
        <time>2020-07-27T11:27:30Z</time>
      </trkpt>
      <trkpt lat="42.8769000" lon="0.0096160">
        <ele>764.6</ele>
        <time>2020-07-27T11:27:35Z</time>
      </trkpt>
      <trkpt lat="42.8769130" lon="0.0096570">
        <ele>764.8</ele>
        <time>2020-07-27T11:27:36Z</time>
      </trkpt>
      <trkpt lat="42.8769610" lon="0.0098180">
        <ele>765.6</ele>
        <time>2020-07-27T11:27:40Z</time>
      </trkpt>
      <trkpt lat="42.8770330" lon="0.0100440">
        <ele>766.6</ele>
        <time>2020-07-27T11:27:46Z</time>
      </trkpt>
      <trkpt lat="42.8770580" lon="0.0101190">
        <ele>767.0</ele>
        <time>2020-07-27T11:27:48Z</time>
      </trkpt>
      <trkpt lat="42.8770960" lon="0.0102300">
        <ele>767.6</ele>
        <time>2020-07-27T11:27:51Z</time>
      </trkpt>
      <trkpt lat="42.8771490" lon="0.0103800">
        <ele>768.8</ele>
        <time>2020-07-27T11:27:55Z</time>
      </trkpt>
      <trkpt lat="42.8771880" lon="0.0104940">
        <ele>769.4</ele>
        <time>2020-07-27T11:27:58Z</time>
      </trkpt>
      <trkpt lat="42.8772150" lon="0.0105650">
        <ele>769.8</ele>
        <time>2020-07-27T11:28:00Z</time>
      </trkpt>
      <trkpt lat="42.8773010" lon="0.0107800">
        <ele>771.0</ele>
        <time>2020-07-27T11:28:06Z</time>
      </trkpt>
      <trkpt lat="42.8773550" lon="0.0109200">
        <ele>771.8</ele>
        <time>2020-07-27T11:28:10Z</time>
      </trkpt>
      <trkpt lat="42.8774250" lon="0.0110970">
        <ele>773.0</ele>
        <time>2020-07-27T11:28:15Z</time>
      </trkpt>
      <trkpt lat="42.8775000" lon="0.0112640">
        <ele>774.0</ele>
        <time>2020-07-27T11:28:20Z</time>
      </trkpt>
      <trkpt lat="42.8775300" lon="0.0113280">
        <ele>774.4</ele>
        <time>2020-07-27T11:28:22Z</time>
      </trkpt>
      <trkpt lat="42.8775560" lon="0.0113960">
        <ele>775.0</ele>
        <time>2020-07-27T11:28:24Z</time>
      </trkpt>
      <trkpt lat="42.8776080" lon="0.0115390">
        <ele>776.2</ele>
        <time>2020-07-27T11:28:28Z</time>
      </trkpt>
      <trkpt lat="42.8776470" lon="0.0116450">
        <ele>777.0</ele>
        <time>2020-07-27T11:28:31Z</time>
      </trkpt>
      <trkpt lat="42.8776600" lon="0.0116820">
        <ele>777.2</ele>
        <time>2020-07-27T11:28:32Z</time>
      </trkpt>
      <trkpt lat="42.8777220" lon="0.0118500">
        <ele>778.2</ele>
        <time>2020-07-27T11:28:37Z</time>
      </trkpt>
      <trkpt lat="42.8777440" lon="0.0119180">
        <ele>778.8</ele>
        <time>2020-07-27T11:28:39Z</time>
      </trkpt>
      <trkpt lat="42.8777790" lon="0.0120190">
        <ele>779.6</ele>
        <time>2020-07-27T11:28:42Z</time>
      </trkpt>
      <trkpt lat="42.8778260" lon="0.0121500">
        <ele>780.6</ele>
        <time>2020-07-27T11:28:46Z</time>
      </trkpt>
      <trkpt lat="42.8778600" lon="0.0122500">
        <ele>781.4</ele>
        <time>2020-07-27T11:28:49Z</time>
      </trkpt>
      <trkpt lat="42.8778990" lon="0.0123460">
        <ele>781.8</ele>
        <time>2020-07-27T11:28:52Z</time>
      </trkpt>
      <trkpt lat="42.8779560" lon="0.0125070">
        <ele>782.8</ele>
        <time>2020-07-27T11:28:57Z</time>
      </trkpt>
      <trkpt lat="42.8779670" lon="0.0125410">
        <ele>783.0</ele>
        <time>2020-07-27T11:28:58Z</time>
      </trkpt>
      <trkpt lat="42.8779940" lon="0.0126490">
        <ele>784.0</ele>
        <time>2020-07-27T11:29:01Z</time>
      </trkpt>
      <trkpt lat="42.8780390" lon="0.0127840">
        <ele>784.8</ele>
        <time>2020-07-27T11:29:05Z</time>
      </trkpt>
      <trkpt lat="42.8780490" lon="0.0128170">
        <ele>785.0</ele>
        <time>2020-07-27T11:29:06Z</time>
      </trkpt>
      <trkpt lat="42.8780900" lon="0.0129670">
        <ele>785.8</ele>
        <time>2020-07-27T11:29:10Z</time>
      </trkpt>
      <trkpt lat="42.8781050" lon="0.0130460">
        <ele>786.2</ele>
        <time>2020-07-27T11:29:12Z</time>
      </trkpt>
      <trkpt lat="42.8781120" lon="0.0130870">
        <ele>786.4</ele>
        <time>2020-07-27T11:29:13Z</time>
      </trkpt>
      <trkpt lat="42.8781290" lon="0.0132450">
        <ele>787.4</ele>
        <time>2020-07-27T11:29:17Z</time>
      </trkpt>
      <trkpt lat="42.8781440" lon="0.0134470">
        <ele>788.4</ele>
        <time>2020-07-27T11:29:22Z</time>
      </trkpt>
      <trkpt lat="42.8781450" lon="0.0134860">
        <ele>788.8</ele>
        <time>2020-07-27T11:29:23Z</time>
      </trkpt>
      <trkpt lat="42.8781480" lon="0.0136090">
        <ele>789.4</ele>
        <time>2020-07-27T11:29:26Z</time>
      </trkpt>
      <trkpt lat="42.8781530" lon="0.0137630">
        <ele>790.4</ele>
        <time>2020-07-27T11:29:30Z</time>
      </trkpt>
      <trkpt lat="42.8781540" lon="0.0138010">
        <ele>790.8</ele>
        <time>2020-07-27T11:29:31Z</time>
      </trkpt>
      <trkpt lat="42.8781560" lon="0.0139880">
        <ele>791.6</ele>
        <time>2020-07-27T11:29:36Z</time>
      </trkpt>
      <trkpt lat="42.8781560" lon="0.0141750">
        <ele>792.4</ele>
        <time>2020-07-27T11:29:41Z</time>
      </trkpt>
      <trkpt lat="42.8781590" lon="0.0142480">
        <ele>792.8</ele>
        <time>2020-07-27T11:29:43Z</time>
      </trkpt>
      <trkpt lat="42.8781580" lon="0.0144330">
        <ele>794.0</ele>
        <time>2020-07-27T11:29:48Z</time>
      </trkpt>
      <trkpt lat="42.8781560" lon="0.0145070">
        <ele>794.4</ele>
        <time>2020-07-27T11:29:50Z</time>
      </trkpt>
      <trkpt lat="42.8781550" lon="0.0145810">
        <ele>795.0</ele>
        <time>2020-07-27T11:29:52Z</time>
      </trkpt>
      <trkpt lat="42.8781580" lon="0.0147650">
        <ele>796.0</ele>
        <time>2020-07-27T11:29:57Z</time>
      </trkpt>
      <trkpt lat="42.8781620" lon="0.0149120">
        <ele>796.6</ele>
        <time>2020-07-27T11:30:01Z</time>
      </trkpt>
      <trkpt lat="42.8781630" lon="0.0149860">
        <ele>797.2</ele>
        <time>2020-07-27T11:30:03Z</time>
      </trkpt>
      <trkpt lat="42.8781580" lon="0.0152100">
        <ele>798.2</ele>
        <time>2020-07-27T11:30:09Z</time>
      </trkpt>
      <trkpt lat="42.8781570" lon="0.0152480">
        <ele>798.4</ele>
        <time>2020-07-27T11:30:10Z</time>
      </trkpt>
      <trkpt lat="42.8781690" lon="0.0154700">
        <ele>799.4</ele>
        <time>2020-07-27T11:30:16Z</time>
      </trkpt>
      <trkpt lat="42.8781790" lon="0.0155820">
        <ele>799.8</ele>
        <time>2020-07-27T11:30:19Z</time>
      </trkpt>
      <trkpt lat="42.8781880" lon="0.0156980">
        <ele>800.2</ele>
        <time>2020-07-27T11:30:22Z</time>
      </trkpt>
      <trkpt lat="42.8782010" lon="0.0158500">
        <ele>801.4</ele>
        <time>2020-07-27T11:30:26Z</time>
      </trkpt>
      <trkpt lat="42.8782080" lon="0.0159610">
        <ele>802.0</ele>
        <time>2020-07-27T11:30:29Z</time>
      </trkpt>
      <trkpt lat="42.8782120" lon="0.0160360">
        <ele>802.4</ele>
        <time>2020-07-27T11:30:31Z</time>
      </trkpt>
      <trkpt lat="42.8782250" lon="0.0162250">
        <ele>803.6</ele>
        <time>2020-07-27T11:30:36Z</time>
      </trkpt>
      <trkpt lat="42.8782360" lon="0.0163770">
        <ele>804.4</ele>
        <time>2020-07-27T11:30:40Z</time>
      </trkpt>
      <trkpt lat="42.8782410" lon="0.0164520">
        <ele>804.8</ele>
        <time>2020-07-27T11:30:42Z</time>
      </trkpt>
      <trkpt lat="42.8782560" lon="0.0166730">
        <ele>805.8</ele>
        <time>2020-07-27T11:30:48Z</time>
      </trkpt>
      <trkpt lat="42.8782610" lon="0.0167450">
        <ele>806.2</ele>
        <time>2020-07-27T11:30:50Z</time>
      </trkpt>
      <trkpt lat="42.8782680" lon="0.0168530">
        <ele>807.0</ele>
        <time>2020-07-27T11:30:53Z</time>
      </trkpt>
      <trkpt lat="42.8782830" lon="0.0170360">
        <ele>808.0</ele>
        <time>2020-07-27T11:30:58Z</time>
      </trkpt>
      <trkpt lat="42.8782840" lon="0.0170730">
        <ele>808.2</ele>
        <time>2020-07-27T11:30:59Z</time>
      </trkpt>
      <trkpt lat="42.8782910" lon="0.0172130">
        <ele>809.0</ele>
        <time>2020-07-27T11:31:03Z</time>
      </trkpt>
      <trkpt lat="42.8783010" lon="0.0173930">
        <ele>810.0</ele>
        <time>2020-07-27T11:31:08Z</time>
      </trkpt>
      <trkpt lat="42.8783110" lon="0.0175360">
        <ele>811.0</ele>
        <time>2020-07-27T11:31:12Z</time>
      </trkpt>
      <trkpt lat="42.8783180" lon="0.0177620">
        <ele>812.0</ele>
        <time>2020-07-27T11:31:18Z</time>
      </trkpt>
      <trkpt lat="42.8783300" lon="0.0179470">
        <ele>813.0</ele>
        <time>2020-07-27T11:31:23Z</time>
      </trkpt>
      <trkpt lat="42.8783410" lon="0.0180940">
        <ele>814.0</ele>
        <time>2020-07-27T11:31:27Z</time>
      </trkpt>
      <trkpt lat="42.8783420" lon="0.0181320">
        <ele>814.4</ele>
        <time>2020-07-27T11:31:28Z</time>
      </trkpt>
      <trkpt lat="42.8783530" lon="0.0183510">
        <ele>815.4</ele>
        <time>2020-07-27T11:31:34Z</time>
      </trkpt>
      <trkpt lat="42.8783580" lon="0.0184590">
        <ele>816.0</ele>
        <time>2020-07-27T11:31:37Z</time>
      </trkpt>
      <trkpt lat="42.8783620" lon="0.0185310">
        <ele>816.4</ele>
        <time>2020-07-27T11:31:39Z</time>
      </trkpt>
      <trkpt lat="42.8783720" lon="0.0187480">
        <ele>817.6</ele>
        <time>2020-07-27T11:31:45Z</time>
      </trkpt>
      <trkpt lat="42.8783800" lon="0.0188580">
        <ele>818.2</ele>
        <time>2020-07-27T11:31:48Z</time>
      </trkpt>
      <trkpt lat="42.8783840" lon="0.0189290">
        <ele>818.6</ele>
        <time>2020-07-27T11:31:50Z</time>
      </trkpt>
      <trkpt lat="42.8783950" lon="0.0191430">
        <ele>819.4</ele>
        <time>2020-07-27T11:31:56Z</time>
      </trkpt>
      <trkpt lat="42.8784020" lon="0.0192510">
        <ele>820.0</ele>
        <time>2020-07-27T11:31:59Z</time>
      </trkpt>
      <trkpt lat="42.8784050" lon="0.0193610">
        <ele>820.6</ele>
        <time>2020-07-27T11:32:02Z</time>
      </trkpt>
      <trkpt lat="42.8784090" lon="0.0195430">
        <ele>821.8</ele>
        <time>2020-07-27T11:32:07Z</time>
      </trkpt>
      <trkpt lat="42.8784140" lon="0.0196870">
        <ele>822.4</ele>
        <time>2020-07-27T11:32:11Z</time>
      </trkpt>
      <trkpt lat="42.8784190" lon="0.0197590">
        <ele>822.8</ele>
        <time>2020-07-27T11:32:13Z</time>
      </trkpt>
      <trkpt lat="42.8784290" lon="0.0199400">
        <ele>824.2</ele>
        <time>2020-07-27T11:32:18Z</time>
      </trkpt>
      <trkpt lat="42.8784320" lon="0.0199760">
        <ele>824.4</ele>
        <time>2020-07-27T11:32:19Z</time>
      </trkpt>
      <trkpt lat="42.8784390" lon="0.0201600">
        <ele>825.2</ele>
        <time>2020-07-27T11:32:24Z</time>
      </trkpt>
      <trkpt lat="42.8784510" lon="0.0204210">
        <ele>826.4</ele>
        <time>2020-07-27T11:32:31Z</time>
      </trkpt>
      <trkpt lat="42.8784610" lon="0.0205790">
        <ele>827.4</ele>
        <time>2020-07-27T11:32:35Z</time>
      </trkpt>
      <trkpt lat="42.8784640" lon="0.0206920">
        <ele>828.2</ele>
        <time>2020-07-27T11:32:38Z</time>
      </trkpt>
      <trkpt lat="42.8784670" lon="0.0207680">
        <ele>828.6</ele>
        <time>2020-07-27T11:32:40Z</time>
      </trkpt>
      <trkpt lat="42.8784700" lon="0.0208430">
        <ele>828.8</ele>
        <time>2020-07-27T11:32:42Z</time>
      </trkpt>
      <trkpt lat="42.8784790" lon="0.0210340">
        <ele>829.6</ele>
        <time>2020-07-27T11:32:47Z</time>
      </trkpt>
      <trkpt lat="42.8784850" lon="0.0211890">
        <ele>830.2</ele>
        <time>2020-07-27T11:32:51Z</time>
      </trkpt>
      <trkpt lat="42.8784890" lon="0.0212660">
        <ele>830.8</ele>
        <time>2020-07-27T11:32:53Z</time>
      </trkpt>
      <trkpt lat="42.8784970" lon="0.0215380">
        <ele>832.0</ele>
        <time>2020-07-27T11:33:00Z</time>
      </trkpt>
      <trkpt lat="42.8784980" lon="0.0215780">
        <ele>832.2</ele>
        <time>2020-07-27T11:33:01Z</time>
      </trkpt>
      <trkpt lat="42.8785050" lon="0.0217350">
        <ele>833.0</ele>
        <time>2020-07-27T11:33:05Z</time>
      </trkpt>
      <trkpt lat="42.8785170" lon="0.0220070">
        <ele>833.8</ele>
        <time>2020-07-27T11:33:12Z</time>
      </trkpt>
      <trkpt lat="42.8785190" lon="0.0220450">
        <ele>834.0</ele>
        <time>2020-07-27T11:33:13Z</time>
      </trkpt>
      <trkpt lat="42.8785260" lon="0.0221560">
        <ele>834.8</ele>
        <time>2020-07-27T11:33:16Z</time>
      </trkpt>
      <trkpt lat="42.8785440" lon="0.0224220">
        <ele>835.8</ele>
        <time>2020-07-27T11:33:23Z</time>
      </trkpt>
      <trkpt lat="42.8785480" lon="0.0224600">
        <ele>836.2</ele>
        <time>2020-07-27T11:33:24Z</time>
      </trkpt>
      <trkpt lat="42.8785690" lon="0.0226100">
        <ele>836.8</ele>
        <time>2020-07-27T11:33:28Z</time>
      </trkpt>
      <trkpt lat="42.8786110" lon="0.0228650">
        <ele>837.8</ele>
        <time>2020-07-27T11:33:35Z</time>
      </trkpt>
      <trkpt lat="42.8786200" lon="0.0229010">
        <ele>838.0</ele>
        <time>2020-07-27T11:33:36Z</time>
      </trkpt>
      <trkpt lat="42.8786630" lon="0.0230780">
        <ele>839.0</ele>
        <time>2020-07-27T11:33:41Z</time>
      </trkpt>
      <trkpt lat="42.8787040" lon="0.0232140">
        <ele>840.0</ele>
        <time>2020-07-27T11:33:45Z</time>
      </trkpt>
      <trkpt lat="42.8787250" lon="0.0232820">
        <ele>840.4</ele>
        <time>2020-07-27T11:33:47Z</time>
      </trkpt>
      <trkpt lat="42.8787430" lon="0.0233520">
        <ele>841.0</ele>
        <time>2020-07-27T11:33:49Z</time>
      </trkpt>
      <trkpt lat="42.8787810" lon="0.0235270">
        <ele>842.2</ele>
        <time>2020-07-27T11:33:54Z</time>
      </trkpt>
      <trkpt lat="42.8788060" lon="0.0237040">
        <ele>843.0</ele>
        <time>2020-07-27T11:33:59Z</time>
      </trkpt>
      <trkpt lat="42.8788420" lon="0.0239130">
        <ele>844.0</ele>
        <time>2020-07-27T11:34:05Z</time>
      </trkpt>
      <trkpt lat="42.8788770" lon="0.0241130">
        <ele>845.2</ele>
        <time>2020-07-27T11:34:11Z</time>
      </trkpt>
      <trkpt lat="42.8789040" lon="0.0242130">
        <ele>846.0</ele>
        <time>2020-07-27T11:34:14Z</time>
      </trkpt>
      <trkpt lat="42.8789110" lon="0.0242450">
        <ele>846.4</ele>
        <time>2020-07-27T11:34:15Z</time>
      </trkpt>
      <trkpt lat="42.8789640" lon="0.0244870">
        <ele>847.2</ele>
        <time>2020-07-27T11:34:22Z</time>
      </trkpt>
      <trkpt lat="42.8789790" lon="0.0245570">
        <ele>847.8</ele>
        <time>2020-07-27T11:34:24Z</time>
      </trkpt>
      <trkpt lat="42.8790100" lon="0.0246980">
        <ele>848.4</ele>
        <time>2020-07-27T11:34:28Z</time>
      </trkpt>
      <trkpt lat="42.8790530" lon="0.0248670">
        <ele>849.4</ele>
        <time>2020-07-27T11:34:33Z</time>
      </trkpt>
      <trkpt lat="42.8790590" lon="0.0249010">
        <ele>849.6</ele>
        <time>2020-07-27T11:34:34Z</time>
      </trkpt>
      <trkpt lat="42.8790970" lon="0.0250820">
        <ele>850.6</ele>
        <time>2020-07-27T11:34:39Z</time>
      </trkpt>
      <trkpt lat="42.8791340" lon="0.0252600">
        <ele>851.6</ele>
        <time>2020-07-27T11:34:44Z</time>
      </trkpt>
      <trkpt lat="42.8791820" lon="0.0254670">
        <ele>852.6</ele>
        <time>2020-07-27T11:34:50Z</time>
      </trkpt>
      <trkpt lat="42.8792090" lon="0.0255690">
        <ele>853.2</ele>
        <time>2020-07-27T11:34:53Z</time>
      </trkpt>
      <trkpt lat="42.8792290" lon="0.0256760">
        <ele>853.8</ele>
        <time>2020-07-27T11:34:56Z</time>
      </trkpt>
      <trkpt lat="42.8792880" lon="0.0258830">
        <ele>854.8</ele>
        <time>2020-07-27T11:35:02Z</time>
      </trkpt>
      <trkpt lat="42.8793330" lon="0.0260200">
        <ele>856.0</ele>
        <time>2020-07-27T11:35:06Z</time>
      </trkpt>
      <trkpt lat="42.8793680" lon="0.0261210">
        <ele>856.8</ele>
        <time>2020-07-27T11:35:09Z</time>
      </trkpt>
      <trkpt lat="42.8794090" lon="0.0262100">
        <ele>857.4</ele>
        <time>2020-07-27T11:35:12Z</time>
      </trkpt>
      <trkpt lat="42.8794400" lon="0.0262680">
        <ele>857.8</ele>
        <time>2020-07-27T11:35:14Z</time>
      </trkpt>
      <trkpt lat="42.8795220" lon="0.0264100">
        <ele>859.0</ele>
        <time>2020-07-27T11:35:19Z</time>
      </trkpt>
      <trkpt lat="42.8795780" lon="0.0264910">
        <ele>859.4</ele>
        <time>2020-07-27T11:35:22Z</time>
      </trkpt>
      <trkpt lat="42.8796560" lon="0.0265920">
        <ele>860.2</ele>
        <time>2020-07-27T11:35:26Z</time>
      </trkpt>
      <trkpt lat="42.8797960" lon="0.0267620">
        <ele>861.2</ele>
        <time>2020-07-27T11:35:33Z</time>
      </trkpt>
      <trkpt lat="42.8799060" lon="0.0268870">
        <ele>862.2</ele>
        <time>2020-07-27T11:35:38Z</time>
      </trkpt>
      <trkpt lat="42.8799870" lon="0.0269880">
        <ele>863.0</ele>
        <time>2020-07-27T11:35:42Z</time>
      </trkpt>
      <trkpt lat="42.8800070" lon="0.0270100">
        <ele>863.2</ele>
        <time>2020-07-27T11:35:43Z</time>
      </trkpt>
      <trkpt lat="42.8801490" lon="0.0271720">
        <ele>864.4</ele>
        <time>2020-07-27T11:35:50Z</time>
      </trkpt>
      <trkpt lat="42.8802090" lon="0.0272410">
        <ele>864.8</ele>
        <time>2020-07-27T11:35:53Z</time>
      </trkpt>
      <trkpt lat="42.8802670" lon="0.0273070">
        <ele>865.4</ele>
        <time>2020-07-27T11:35:56Z</time>
      </trkpt>
      <trkpt lat="42.8803870" lon="0.0274420">
        <ele>866.4</ele>
        <time>2020-07-27T11:36:02Z</time>
      </trkpt>
      <trkpt lat="42.8804260" lon="0.0274880">
        <ele>866.8</ele>
        <time>2020-07-27T11:36:04Z</time>
      </trkpt>
      <trkpt lat="42.8804870" lon="0.0275600">
        <ele>867.6</ele>
        <time>2020-07-27T11:36:07Z</time>
      </trkpt>
      <trkpt lat="42.8806090" lon="0.0277020">
        <ele>868.6</ele>
        <time>2020-07-27T11:36:13Z</time>
      </trkpt>
      <trkpt lat="42.8806720" lon="0.0277720">
        <ele>869.2</ele>
        <time>2020-07-27T11:36:16Z</time>
      </trkpt>
      <trkpt lat="42.8807140" lon="0.0278210">
        <ele>869.8</ele>
        <time>2020-07-27T11:36:18Z</time>
      </trkpt>
      <trkpt lat="42.8808370" lon="0.0279640">
        <ele>870.8</ele>
        <time>2020-07-27T11:36:24Z</time>
      </trkpt>
      <trkpt lat="42.8808800" lon="0.0280110">
        <ele>871.2</ele>
        <time>2020-07-27T11:36:26Z</time>
      </trkpt>
      <trkpt lat="42.8809650" lon="0.0281100">
        <ele>872.0</ele>
        <time>2020-07-27T11:36:30Z</time>
      </trkpt>
      <trkpt lat="42.8810780" lon="0.0282310">
        <ele>873.2</ele>
        <time>2020-07-27T11:36:35Z</time>
      </trkpt>
      <trkpt lat="42.8812060" lon="0.0283750">
        <ele>874.2</ele>
        <time>2020-07-27T11:36:41Z</time>
      </trkpt>
      <trkpt lat="42.8813100" lon="0.0284910">
        <ele>875.0</ele>
        <time>2020-07-27T11:36:46Z</time>
      </trkpt>
      <trkpt lat="42.8813310" lon="0.0285150">
        <ele>875.4</ele>
        <time>2020-07-27T11:36:47Z</time>
      </trkpt>
      <trkpt lat="42.8814560" lon="0.0286510">
        <ele>876.6</ele>
        <time>2020-07-27T11:36:53Z</time>
      </trkpt>
      <trkpt lat="42.8815660" lon="0.0287680">
        <ele>877.4</ele>
        <time>2020-07-27T11:36:58Z</time>
      </trkpt>
      <trkpt lat="42.8816700" lon="0.0288890">
        <ele>878.4</ele>
        <time>2020-07-27T11:37:03Z</time>
      </trkpt>
      <trkpt lat="42.8817760" lon="0.0290100">
        <ele>879.2</ele>
        <time>2020-07-27T11:37:08Z</time>
      </trkpt>
      <trkpt lat="42.8817970" lon="0.0290340">
        <ele>879.4</ele>
        <time>2020-07-27T11:37:09Z</time>
      </trkpt>
      <trkpt lat="42.8819270" lon="0.0291720">
        <ele>880.6</ele>
        <time>2020-07-27T11:37:15Z</time>
      </trkpt>
      <trkpt lat="42.8819690" lon="0.0292170">
        <ele>881.0</ele>
        <time>2020-07-27T11:37:17Z</time>
      </trkpt>
      <trkpt lat="42.8820540" lon="0.0293100">
        <ele>881.6</ele>
        <time>2020-07-27T11:37:21Z</time>
      </trkpt>
      <trkpt lat="42.8821790" lon="0.0294530">
        <ele>882.8</ele>
        <time>2020-07-27T11:37:27Z</time>
      </trkpt>
      <trkpt lat="42.8822000" lon="0.0294780">
        <ele>883.0</ele>
        <time>2020-07-27T11:37:28Z</time>
      </trkpt>
      <trkpt lat="42.8822620" lon="0.0295470">
        <ele>883.6</ele>
        <time>2020-07-27T11:37:31Z</time>
      </trkpt>
      <trkpt lat="42.8823660" lon="0.0296700">
        <ele>884.6</ele>
        <time>2020-07-27T11:37:36Z</time>
      </trkpt>
      <trkpt lat="42.8823870" lon="0.0296940">
        <ele>884.8</ele>
        <time>2020-07-27T11:37:37Z</time>
      </trkpt>
      <trkpt lat="42.8824670" lon="0.0297840">
        <ele>885.6</ele>
        <time>2020-07-27T11:37:41Z</time>
      </trkpt>
      <trkpt lat="42.8825500" lon="0.0298780">
        <ele>886.8</ele>
        <time>2020-07-27T11:37:45Z</time>
      </trkpt>
      <trkpt lat="42.8826350" lon="0.0299750">
        <ele>888.0</ele>
        <time>2020-07-27T11:37:49Z</time>
      </trkpt>
      <trkpt lat="42.8827330" lon="0.0300840">
        <ele>889.2</ele>
        <time>2020-07-27T11:37:54Z</time>
      </trkpt>
      <trkpt lat="42.8827520" lon="0.0301060">
        <ele>889.4</ele>
        <time>2020-07-27T11:37:55Z</time>
      </trkpt>
      <trkpt lat="42.8828270" lon="0.0301920">
        <ele>890.2</ele>
        <time>2020-07-27T11:37:59Z</time>
      </trkpt>
      <trkpt lat="42.8829400" lon="0.0303160">
        <ele>891.0</ele>
        <time>2020-07-27T11:38:05Z</time>
      </trkpt>
      <trkpt lat="42.8829760" lon="0.0303580">
        <ele>891.4</ele>
        <time>2020-07-27T11:38:07Z</time>
      </trkpt>
      <trkpt lat="42.8830500" lon="0.0304430">
        <ele>892.2</ele>
        <time>2020-07-27T11:38:11Z</time>
      </trkpt>
      <trkpt lat="42.8831350" lon="0.0305650">
        <ele>893.4</ele>
        <time>2020-07-27T11:38:16Z</time>
      </trkpt>
      <trkpt lat="42.8831670" lon="0.0306130">
        <ele>893.8</ele>
        <time>2020-07-27T11:38:18Z</time>
      </trkpt>
      <trkpt lat="42.8832070" lon="0.0307020">
        <ele>894.2</ele>
        <time>2020-07-27T11:38:21Z</time>
      </trkpt>
      <trkpt lat="42.8832410" lon="0.0307960">
        <ele>894.8</ele>
        <time>2020-07-27T11:38:24Z</time>
      </trkpt>
      <trkpt lat="42.8832610" lon="0.0308560">
        <ele>895.8</ele>
        <time>2020-07-27T11:38:26Z</time>
      </trkpt>
      <trkpt lat="42.8833020" lon="0.0310370">
        <ele>896.8</ele>
        <time>2020-07-27T11:38:32Z</time>
      </trkpt>
      <trkpt lat="42.8833100" lon="0.0311780">
        <ele>897.8</ele>
        <time>2020-07-27T11:38:36Z</time>
      </trkpt>
      <trkpt lat="42.8833160" lon="0.0313090">
        <ele>898.6</ele>
        <time>2020-07-27T11:38:40Z</time>
      </trkpt>
      <trkpt lat="42.8833170" lon="0.0313420">
        <ele>899.0</ele>
        <time>2020-07-27T11:38:41Z</time>
      </trkpt>
      <trkpt lat="42.8833140" lon="0.0315110">
        <ele>899.8</ele>
        <time>2020-07-27T11:38:46Z</time>
      </trkpt>
      <trkpt lat="42.8833060" lon="0.0315750">
        <ele>900.4</ele>
        <time>2020-07-27T11:38:48Z</time>
      </trkpt>
      <trkpt lat="42.8832960" lon="0.0316720">
        <ele>901.0</ele>
        <time>2020-07-27T11:38:51Z</time>
      </trkpt>
      <trkpt lat="42.8832580" lon="0.0318280">
        <ele>901.8</ele>
        <time>2020-07-27T11:38:56Z</time>
      </trkpt>
      <trkpt lat="42.8832440" lon="0.0318580">
        <ele>902.6</ele>
        <time>2020-07-27T11:38:57Z</time>
      </trkpt>
      <trkpt lat="42.8832020" lon="0.0319750">
        <ele>903.6</ele>
        <time>2020-07-27T11:39:01Z</time>
      </trkpt>
      <trkpt lat="42.8831730" lon="0.0320320">
        <ele>904.0</ele>
        <time>2020-07-27T11:39:03Z</time>
      </trkpt>
      <trkpt lat="42.8831230" lon="0.0321450">
        <ele>904.8</ele>
        <time>2020-07-27T11:39:07Z</time>
      </trkpt>
      <trkpt lat="42.8830540" lon="0.0322560">
        <ele>905.8</ele>
        <time>2020-07-27T11:39:11Z</time>
      </trkpt>
      <trkpt lat="42.8830390" lon="0.0322860">
        <ele>906.0</ele>
        <time>2020-07-27T11:39:12Z</time>
      </trkpt>
      <trkpt lat="42.8829940" lon="0.0324070">
        <ele>907.0</ele>
        <time>2020-07-27T11:39:16Z</time>
      </trkpt>
      <trkpt lat="42.8829760" lon="0.0324690">
        <ele>907.8</ele>
        <time>2020-07-27T11:39:18Z</time>
      </trkpt>
      <trkpt lat="42.8829680" lon="0.0325000">
        <ele>908.2</ele>
        <time>2020-07-27T11:39:19Z</time>
      </trkpt>
      <trkpt lat="42.8829420" lon="0.0326270">
        <ele>909.2</ele>
        <time>2020-07-27T11:39:23Z</time>
      </trkpt>
      <trkpt lat="42.8829250" lon="0.0327520">
        <ele>910.0</ele>
        <time>2020-07-27T11:39:27Z</time>
      </trkpt>
      <trkpt lat="42.8829180" lon="0.0328180">
        <ele>910.4</ele>
        <time>2020-07-27T11:39:29Z</time>
      </trkpt>
      <trkpt lat="42.8828920" lon="0.0329850">
        <ele>911.2</ele>
        <time>2020-07-27T11:39:34Z</time>
      </trkpt>
      <trkpt lat="42.8828860" lon="0.0330500">
        <ele>911.6</ele>
        <time>2020-07-27T11:39:36Z</time>
      </trkpt>
      <trkpt lat="42.8828670" lon="0.0331740">
        <ele>912.2</ele>
        <time>2020-07-27T11:39:40Z</time>
      </trkpt>
      <trkpt lat="42.8828680" lon="0.0333380">
        <ele>913.2</ele>
        <time>2020-07-27T11:39:45Z</time>
      </trkpt>
      <trkpt lat="42.8828540" lon="0.0335160">
        <ele>914.6</ele>
        <time>2020-07-27T11:39:51Z</time>
      </trkpt>
      <trkpt lat="42.8828420" lon="0.0336020">
        <ele>915.0</ele>
        <time>2020-07-27T11:39:54Z</time>
      </trkpt>
      <trkpt lat="42.8828380" lon="0.0336640">
        <ele>915.4</ele>
        <time>2020-07-27T11:39:56Z</time>
      </trkpt>
      <trkpt lat="42.8828360" lon="0.0337590">
        <ele>916.0</ele>
        <time>2020-07-27T11:39:59Z</time>
      </trkpt>
      <trkpt lat="42.8828270" lon="0.0338180">
        <ele>916.4</ele>
        <time>2020-07-27T11:40:01Z</time>
      </trkpt>
      <trkpt lat="42.8828320" lon="0.0338840">
        <ele>916.8</ele>
        <time>2020-07-27T11:40:03Z</time>
      </trkpt>
      <trkpt lat="42.8828350" lon="0.0339810">
        <ele>917.6</ele>
        <time>2020-07-27T11:40:06Z</time>
      </trkpt>
      <trkpt lat="42.8828250" lon="0.0341380">
        <ele>918.4</ele>
        <time>2020-07-27T11:40:11Z</time>
      </trkpt>
      <trkpt lat="42.8828240" lon="0.0341700">
        <ele>918.6</ele>
        <time>2020-07-27T11:40:12Z</time>
      </trkpt>
      <trkpt lat="42.8828210" lon="0.0343380">
        <ele>919.8</ele>
        <time>2020-07-27T11:40:17Z</time>
      </trkpt>
      <trkpt lat="42.8828230" lon="0.0344390">
        <ele>920.8</ele>
        <time>2020-07-27T11:40:20Z</time>
      </trkpt>
      <trkpt lat="42.8828230" lon="0.0344750">
        <ele>921.0</ele>
        <time>2020-07-27T11:40:21Z</time>
      </trkpt>
      <trkpt lat="42.8828340" lon="0.0346170">
        <ele>921.8</ele>
        <time>2020-07-27T11:40:25Z</time>
      </trkpt>
      <trkpt lat="42.8828060" lon="0.0347710">
        <ele>922.8</ele>
        <time>2020-07-27T11:40:30Z</time>
      </trkpt>
      <trkpt lat="42.8827520" lon="0.0349150">
        <ele>923.8</ele>
        <time>2020-07-27T11:40:35Z</time>
      </trkpt>
      <trkpt lat="42.8827180" lon="0.0349990">
        <ele>924.6</ele>
        <time>2020-07-27T11:40:38Z</time>
      </trkpt>
      <trkpt lat="42.8827110" lon="0.0350320">
        <ele>924.6</ele>
        <time>2020-07-27T11:40:39Z</time>
      </trkpt>
      <trkpt lat="42.8827020" lon="0.0350630">
        <ele>924.8</ele>
        <time>2020-07-27T11:40:40Z</time>
      </trkpt>
      <trkpt lat="42.8826520" lon="0.0352430">
        <ele>925.6</ele>
        <time>2020-07-27T11:40:46Z</time>
      </trkpt>
      <trkpt lat="42.8826330" lon="0.0353760">
        <ele>926.8</ele>
        <time>2020-07-27T11:40:50Z</time>
      </trkpt>
      <trkpt lat="42.8826260" lon="0.0355460">
        <ele>927.8</ele>
        <time>2020-07-27T11:40:55Z</time>
      </trkpt>
      <trkpt lat="42.8826240" lon="0.0355790">
        <ele>928.0</ele>
        <time>2020-07-27T11:40:56Z</time>
      </trkpt>
      <trkpt lat="42.8826230" lon="0.0357470">
        <ele>929.0</ele>
        <time>2020-07-27T11:41:01Z</time>
      </trkpt>
      <trkpt lat="42.8826280" lon="0.0358810">
        <ele>929.8</ele>
        <time>2020-07-27T11:41:05Z</time>
      </trkpt>
      <trkpt lat="42.8826260" lon="0.0359130">
        <ele>930.0</ele>
        <time>2020-07-27T11:41:06Z</time>
      </trkpt>
      <trkpt lat="42.8826350" lon="0.0360810">
        <ele>931.2</ele>
        <time>2020-07-27T11:41:11Z</time>
      </trkpt>
      <trkpt lat="42.8826350" lon="0.0362120">
        <ele>931.8</ele>
        <time>2020-07-27T11:41:15Z</time>
      </trkpt>
      <trkpt lat="42.8826350" lon="0.0362440">
        <ele>932.0</ele>
        <time>2020-07-27T11:41:16Z</time>
      </trkpt>
      <trkpt lat="42.8826340" lon="0.0363440">
        <ele>933.0</ele>
        <time>2020-07-27T11:41:19Z</time>
      </trkpt>
      <trkpt lat="42.8826410" lon="0.0365100">
        <ele>934.2</ele>
        <time>2020-07-27T11:41:24Z</time>
      </trkpt>
      <trkpt lat="42.8826320" lon="0.0367030">
        <ele>935.4</ele>
        <time>2020-07-27T11:41:30Z</time>
      </trkpt>
      <trkpt lat="42.8826490" lon="0.0368950">
        <ele>936.2</ele>
        <time>2020-07-27T11:41:36Z</time>
      </trkpt>
      <trkpt lat="42.8826670" lon="0.0370230">
        <ele>937.2</ele>
        <time>2020-07-27T11:41:40Z</time>
      </trkpt>
      <trkpt lat="42.8826740" lon="0.0370550">
        <ele>937.2</ele>
        <time>2020-07-27T11:41:41Z</time>
      </trkpt>
      <trkpt lat="42.8827010" lon="0.0372230">
        <ele>938.4</ele>
        <time>2020-07-27T11:41:46Z</time>
      </trkpt>
      <trkpt lat="42.8827220" lon="0.0372860">
        <ele>938.8</ele>
        <time>2020-07-27T11:41:48Z</time>
      </trkpt>
      <trkpt lat="42.8827490" lon="0.0373810">
        <ele>939.4</ele>
        <time>2020-07-27T11:41:51Z</time>
      </trkpt>
      <trkpt lat="42.8827880" lon="0.0375470">
        <ele>940.6</ele>
        <time>2020-07-27T11:41:56Z</time>
      </trkpt>
      <trkpt lat="42.8827940" lon="0.0375790">
        <ele>940.8</ele>
        <time>2020-07-27T11:41:57Z</time>
      </trkpt>
      <trkpt lat="42.8828290" lon="0.0377000">
        <ele>941.8</ele>
        <time>2020-07-27T11:42:01Z</time>
      </trkpt>
      <trkpt lat="42.8828550" lon="0.0378240">
        <ele>942.6</ele>
        <time>2020-07-27T11:42:05Z</time>
      </trkpt>
      <trkpt lat="42.8828630" lon="0.0378500">
        <ele>942.8</ele>
        <time>2020-07-27T11:42:06Z</time>
      </trkpt>
      <trkpt lat="42.8828980" lon="0.0379640">
        <ele>943.8</ele>
        <time>2020-07-27T11:42:10Z</time>
      </trkpt>
      <trkpt lat="42.8829050" lon="0.0379920">
        <ele>944.2</ele>
        <time>2020-07-27T11:42:11Z</time>
      </trkpt>
      <trkpt lat="42.8829420" lon="0.0381150">
        <ele>944.8</ele>
        <time>2020-07-27T11:42:15Z</time>
      </trkpt>
      <trkpt lat="42.8829820" lon="0.0382390">
        <ele>945.8</ele>
        <time>2020-07-27T11:42:19Z</time>
      </trkpt>
      <trkpt lat="42.8830060" lon="0.0382960">
        <ele>946.0</ele>
        <time>2020-07-27T11:42:21Z</time>
      </trkpt>
      <trkpt lat="42.8830870" lon="0.0384670">
        <ele>946.6</ele>
        <time>2020-07-27T11:42:27Z</time>
      </trkpt>
      <trkpt lat="42.8831170" lon="0.0385220">
        <ele>946.8</ele>
        <time>2020-07-27T11:42:29Z</time>
      </trkpt>
      <trkpt lat="42.8831670" lon="0.0386310">
        <ele>948.0</ele>
        <time>2020-07-27T11:42:33Z</time>
      </trkpt>
      <trkpt lat="42.8832090" lon="0.0387430">
        <ele>949.0</ele>
        <time>2020-07-27T11:42:37Z</time>
      </trkpt>
      <trkpt lat="42.8832200" lon="0.0387720">
        <ele>949.2</ele>
        <time>2020-07-27T11:42:38Z</time>
      </trkpt>
      <trkpt lat="42.8832780" lon="0.0389120">
        <ele>950.2</ele>
        <time>2020-07-27T11:42:43Z</time>
      </trkpt>
      <trkpt lat="42.8833190" lon="0.0390250">
        <ele>950.8</ele>
        <time>2020-07-27T11:42:47Z</time>
      </trkpt>
      <trkpt lat="42.8833430" lon="0.0390820">
        <ele>951.2</ele>
        <time>2020-07-27T11:42:49Z</time>
      </trkpt>
      <trkpt lat="42.8834100" lon="0.0392530">
        <ele>952.4</ele>
        <time>2020-07-27T11:42:55Z</time>
      </trkpt>
      <trkpt lat="42.8834530" lon="0.0393970">
        <ele>953.4</ele>
        <time>2020-07-27T11:43:00Z</time>
      </trkpt>
      <trkpt lat="42.8834980" lon="0.0395220">
        <ele>954.4</ele>
        <time>2020-07-27T11:43:04Z</time>
      </trkpt>
      <trkpt lat="42.8835540" lon="0.0396660">
        <ele>955.2</ele>
        <time>2020-07-27T11:43:09Z</time>
      </trkpt>
      <trkpt lat="42.8835660" lon="0.0396940">
        <ele>955.4</ele>
        <time>2020-07-27T11:43:10Z</time>
      </trkpt>
      <trkpt lat="42.8836130" lon="0.0398080">
        <ele>956.4</ele>
        <time>2020-07-27T11:43:14Z</time>
      </trkpt>
      <trkpt lat="42.8836730" lon="0.0399530">
        <ele>957.2</ele>
        <time>2020-07-27T11:43:19Z</time>
      </trkpt>
      <trkpt lat="42.8836830" lon="0.0399840">
        <ele>957.4</ele>
        <time>2020-07-27T11:43:20Z</time>
      </trkpt>
      <trkpt lat="42.8837330" lon="0.0401740">
        <ele>958.2</ele>
        <time>2020-07-27T11:43:26Z</time>
      </trkpt>
      <trkpt lat="42.8837300" lon="0.0402080">
        <ele>958.4</ele>
        <time>2020-07-27T11:43:27Z</time>
      </trkpt>
      <trkpt lat="42.8836760" lon="0.0403190">
        <ele>959.4</ele>
        <time>2020-07-27T11:43:31Z</time>
      </trkpt>
      <trkpt lat="42.8835700" lon="0.0403370">
        <ele>960.0</ele>
        <time>2020-07-27T11:43:35Z</time>
      </trkpt>
      <trkpt lat="42.8834940" lon="0.0402430">
        <ele>960.2</ele>
        <time>2020-07-27T11:43:39Z</time>
      </trkpt>
      <trkpt lat="42.8833840" lon="0.0400330">
        <ele>961.4</ele>
        <time>2020-07-27T11:43:47Z</time>
      </trkpt>
      <trkpt lat="42.8833510" lon="0.0399820">
        <ele>961.8</ele>
        <time>2020-07-27T11:43:49Z</time>
      </trkpt>
      <trkpt lat="42.8832760" lon="0.0398670">
        <ele>962.6</ele>
        <time>2020-07-27T11:43:53Z</time>
      </trkpt>
      <trkpt lat="42.8831860" lon="0.0397750">
        <ele>963.2</ele>
        <time>2020-07-27T11:43:57Z</time>
      </trkpt>
      <trkpt lat="42.8831100" lon="0.0397140">
        <ele>963.6</ele>
        <time>2020-07-27T11:44:00Z</time>
      </trkpt>
      <trkpt lat="42.8829430" lon="0.0396040">
        <ele>964.6</ele>
        <time>2020-07-27T11:44:07Z</time>
      </trkpt>
      <trkpt lat="42.8828300" lon="0.0395320">
        <ele>965.8</ele>
        <time>2020-07-27T11:44:12Z</time>
      </trkpt>
      <trkpt lat="42.8827100" lon="0.0394750">
        <ele>966.8</ele>
        <time>2020-07-27T11:44:17Z</time>
      </trkpt>
      <trkpt lat="42.8826850" lon="0.0394710">
        <ele>967.0</ele>
        <time>2020-07-27T11:44:18Z</time>
      </trkpt>
      <trkpt lat="42.8825680" lon="0.0395490">
        <ele>967.8</ele>
        <time>2020-07-27T11:44:23Z</time>
      </trkpt>
      <trkpt lat="42.8825450" lon="0.0396880">
        <ele>968.4</ele>
        <time>2020-07-27T11:44:27Z</time>
      </trkpt>
      <trkpt lat="42.8826000" lon="0.0398130">
        <ele>969.0</ele>
        <time>2020-07-27T11:44:31Z</time>
      </trkpt>
      <trkpt lat="42.8826210" lon="0.0398360">
        <ele>969.0</ele>
        <time>2020-07-27T11:44:32Z</time>
      </trkpt>
      <trkpt lat="42.8827840" lon="0.0399200">
        <ele>970.0</ele>
        <time>2020-07-27T11:44:39Z</time>
      </trkpt>
      <trkpt lat="42.8828830" lon="0.0399530">
        <ele>971.0</ele>
        <time>2020-07-27T11:44:43Z</time>
      </trkpt>
      <trkpt lat="42.8829510" lon="0.0399880">
        <ele>971.4</ele>
        <time>2020-07-27T11:44:46Z</time>
      </trkpt>
      <trkpt lat="42.8830350" lon="0.0400550">
        <ele>972.0</ele>
        <time>2020-07-27T11:44:50Z</time>
      </trkpt>
      <trkpt lat="42.8831280" lon="0.0401660">
        <ele>973.0</ele>
        <time>2020-07-27T11:44:55Z</time>
      </trkpt>
      <trkpt lat="42.8831450" lon="0.0401900">
        <ele>973.2</ele>
        <time>2020-07-27T11:44:56Z</time>
      </trkpt>
      <trkpt lat="42.8832630" lon="0.0403600">
        <ele>974.2</ele>
        <time>2020-07-27T11:45:03Z</time>
      </trkpt>
      <trkpt lat="42.8833120" lon="0.0404380">
        <ele>975.0</ele>
        <time>2020-07-27T11:45:06Z</time>
      </trkpt>
      <trkpt lat="42.8833260" lon="0.0404670">
        <ele>975.4</ele>
        <time>2020-07-27T11:45:07Z</time>
      </trkpt>
      <trkpt lat="42.8834470" lon="0.0406450">
        <ele>976.4</ele>
        <time>2020-07-27T11:45:14Z</time>
      </trkpt>
      <trkpt lat="42.8834650" lon="0.0406700">
        <ele>976.4</ele>
        <time>2020-07-27T11:45:15Z</time>
      </trkpt>
      <trkpt lat="42.8835560" lon="0.0407870">
        <ele>977.2</ele>
        <time>2020-07-27T11:45:20Z</time>
      </trkpt>
      <trkpt lat="42.8836470" lon="0.0409040">
        <ele>978.0</ele>
        <time>2020-07-27T11:45:25Z</time>
      </trkpt>
      <trkpt lat="42.8836660" lon="0.0409260">
        <ele>978.2</ele>
        <time>2020-07-27T11:45:26Z</time>
      </trkpt>
      <trkpt lat="42.8837700" lon="0.0410720">
        <ele>979.4</ele>
        <time>2020-07-27T11:45:32Z</time>
      </trkpt>
      <trkpt lat="42.8838910" lon="0.0412390">
        <ele>980.4</ele>
        <time>2020-07-27T11:45:39Z</time>
      </trkpt>
      <trkpt lat="42.8839250" lon="0.0412870">
        <ele>980.8</ele>
        <time>2020-07-27T11:45:41Z</time>
      </trkpt>
      <trkpt lat="42.8839970" lon="0.0413810">
        <ele>981.4</ele>
        <time>2020-07-27T11:45:45Z</time>
      </trkpt>
      <trkpt lat="42.8840710" lon="0.0415000">
        <ele>982.4</ele>
        <time>2020-07-27T11:45:50Z</time>
      </trkpt>
      <trkpt lat="42.8840870" lon="0.0415260">
        <ele>982.6</ele>
        <time>2020-07-27T11:45:51Z</time>
      </trkpt>
      <trkpt lat="42.8841790" lon="0.0416500">
        <ele>983.6</ele>
        <time>2020-07-27T11:45:56Z</time>
      </trkpt>
      <trkpt lat="42.8842500" lon="0.0417470">
        <ele>984.6</ele>
        <time>2020-07-27T11:46:00Z</time>
      </trkpt>
      <trkpt lat="42.8842650" lon="0.0417730">
        <ele>984.8</ele>
        <time>2020-07-27T11:46:01Z</time>
      </trkpt>
      <trkpt lat="42.8843730" lon="0.0419170">
        <ele>985.8</ele>
        <time>2020-07-27T11:46:07Z</time>
      </trkpt>
      <trkpt lat="42.8844260" lon="0.0419880">
        <ele>986.2</ele>
        <time>2020-07-27T11:46:10Z</time>
      </trkpt>
      <trkpt lat="42.8844970" lon="0.0420840">
        <ele>986.8</ele>
        <time>2020-07-27T11:46:14Z</time>
      </trkpt>
      <trkpt lat="42.8845850" lon="0.0421970">
        <ele>988.0</ele>
        <time>2020-07-27T11:46:19Z</time>
      </trkpt>
      <trkpt lat="42.8846870" lon="0.0423300">
        <ele>989.0</ele>
        <time>2020-07-27T11:46:25Z</time>
      </trkpt>
      <trkpt lat="42.8847540" lon="0.0424140">
        <ele>990.0</ele>
        <time>2020-07-27T11:46:29Z</time>
      </trkpt>
      <trkpt lat="42.8847720" lon="0.0424350">
        <ele>990.0</ele>
        <time>2020-07-27T11:46:30Z</time>
      </trkpt>
      <trkpt lat="42.8849050" lon="0.0425840">
        <ele>991.0</ele>
        <time>2020-07-27T11:46:37Z</time>
      </trkpt>
      <trkpt lat="42.8849900" lon="0.0426640">
        <ele>992.0</ele>
        <time>2020-07-27T11:46:41Z</time>
      </trkpt>
      <trkpt lat="42.8850750" lon="0.0427390">
        <ele>992.6</ele>
        <time>2020-07-27T11:46:45Z</time>
      </trkpt>
      <trkpt lat="42.8851360" lon="0.0428040">
        <ele>993.0</ele>
        <time>2020-07-27T11:46:48Z</time>
      </trkpt>
      <trkpt lat="42.8851950" lon="0.0428700">
        <ele>993.8</ele>
        <time>2020-07-27T11:46:51Z</time>
      </trkpt>
      <trkpt lat="42.8852250" lon="0.0429200">
        <ele>994.0</ele>
        <time>2020-07-27T11:46:53Z</time>
      </trkpt>
      <trkpt lat="42.8852950" lon="0.0430550">
        <ele>995.0</ele>
        <time>2020-07-27T11:46:58Z</time>
      </trkpt>
      <trkpt lat="42.8853060" lon="0.0430820">
        <ele>995.2</ele>
        <time>2020-07-27T11:46:59Z</time>
      </trkpt>
      <trkpt lat="42.8853710" lon="0.0431960">
        <ele>996.2</ele>
        <time>2020-07-27T11:47:03Z</time>
      </trkpt>
      <trkpt lat="42.8853890" lon="0.0432250">
        <ele>996.4</ele>
        <time>2020-07-27T11:47:04Z</time>
      </trkpt>
      <trkpt lat="42.8854700" lon="0.0433730">
        <ele>997.0</ele>
        <time>2020-07-27T11:47:09Z</time>
      </trkpt>
      <trkpt lat="42.8855010" lon="0.0434300">
        <ele>997.4</ele>
        <time>2020-07-27T11:47:11Z</time>
      </trkpt>
      <trkpt lat="42.8855590" lon="0.0435170">
        <ele>998.2</ele>
        <time>2020-07-27T11:47:14Z</time>
      </trkpt>
      <trkpt lat="42.8856250" lon="0.0436300">
        <ele>999.4</ele>
        <time>2020-07-27T11:47:18Z</time>
      </trkpt>
      <trkpt lat="42.8856570" lon="0.0436930">
        <ele>1000.0</ele>
        <time>2020-07-27T11:47:20Z</time>
      </trkpt>
      <trkpt lat="42.8856910" lon="0.0437490">
        <ele>1000.4</ele>
        <time>2020-07-27T11:47:22Z</time>
      </trkpt>
      <trkpt lat="42.8857680" lon="0.0438740">
        <ele>1001.6</ele>
        <time>2020-07-27T11:47:27Z</time>
      </trkpt>
      <trkpt lat="42.8858030" lon="0.0439190">
        <ele>1002.0</ele>
        <time>2020-07-27T11:47:29Z</time>
      </trkpt>
      <trkpt lat="42.8858380" lon="0.0439610">
        <ele>1002.4</ele>
        <time>2020-07-27T11:47:31Z</time>
      </trkpt>
      <trkpt lat="42.8859180" lon="0.0440740">
        <ele>1003.4</ele>
        <time>2020-07-27T11:47:36Z</time>
      </trkpt>
      <trkpt lat="42.8859430" lon="0.0441250">
        <ele>1003.8</ele>
        <time>2020-07-27T11:47:38Z</time>
      </trkpt>
      <trkpt lat="42.8860000" lon="0.0442250">
        <ele>1004.6</ele>
        <time>2020-07-27T11:47:42Z</time>
      </trkpt>
      <trkpt lat="42.8860560" lon="0.0442830">
        <ele>1005.0</ele>
        <time>2020-07-27T11:47:45Z</time>
      </trkpt>
      <trkpt lat="42.8860920" lon="0.0443210">
        <ele>1005.4</ele>
        <time>2020-07-27T11:47:47Z</time>
      </trkpt>
      <trkpt lat="42.8862030" lon="0.0444420">
        <ele>1007.0</ele>
        <time>2020-07-27T11:47:53Z</time>
      </trkpt>
      <trkpt lat="42.8863180" lon="0.0445580">
        <ele>1008.0</ele>
        <time>2020-07-27T11:47:59Z</time>
      </trkpt>
      <trkpt lat="42.8863750" lon="0.0446150">
        <ele>1008.6</ele>
        <time>2020-07-27T11:48:02Z</time>
      </trkpt>
      <trkpt lat="42.8864320" lon="0.0446710">
        <ele>1009.2</ele>
        <time>2020-07-27T11:48:05Z</time>
      </trkpt>
      <trkpt lat="42.8865700" lon="0.0448020">
        <ele>1010.2</ele>
        <time>2020-07-27T11:48:12Z</time>
      </trkpt>
      <trkpt lat="42.8865900" lon="0.0448200">
        <ele>1010.4</ele>
        <time>2020-07-27T11:48:13Z</time>
      </trkpt>
      <trkpt lat="42.8866930" lon="0.0449050">
        <ele>1011.2</ele>
        <time>2020-07-27T11:48:18Z</time>
      </trkpt>
      <trkpt lat="42.8867540" lon="0.0449550">
        <ele>1011.8</ele>
        <time>2020-07-27T11:48:21Z</time>
      </trkpt>
      <trkpt lat="42.8867930" lon="0.0449870">
        <ele>1012.0</ele>
        <time>2020-07-27T11:48:23Z</time>
      </trkpt>
      <trkpt lat="42.8868880" lon="0.0450690">
        <ele>1013.2</ele>
        <time>2020-07-27T11:48:28Z</time>
      </trkpt>
      <trkpt lat="42.8869080" lon="0.0450860">
        <ele>1013.4</ele>
        <time>2020-07-27T11:48:29Z</time>
      </trkpt>
      <trkpt lat="42.8869970" lon="0.0451360">
        <ele>1014.4</ele>
        <time>2020-07-27T11:48:33Z</time>
      </trkpt>
      <trkpt lat="42.8870320" lon="0.0451630">
        <ele>1014.8</ele>
        <time>2020-07-27T11:48:35Z</time>
      </trkpt>
      <trkpt lat="42.8870920" lon="0.0452190">
        <ele>1015.4</ele>
        <time>2020-07-27T11:48:38Z</time>
      </trkpt>
      <trkpt lat="42.8872120" lon="0.0453370">
        <ele>1016.8</ele>
        <time>2020-07-27T11:48:44Z</time>
      </trkpt>
      <trkpt lat="42.8872310" lon="0.0453560">
        <ele>1017.0</ele>
        <time>2020-07-27T11:48:45Z</time>
      </trkpt>
      <trkpt lat="42.8873290" lon="0.0454490">
        <ele>1017.8</ele>
        <time>2020-07-27T11:48:50Z</time>
      </trkpt>
      <trkpt lat="42.8873680" lon="0.0454890">
        <ele>1018.0</ele>
        <time>2020-07-27T11:48:52Z</time>
      </trkpt>
      <trkpt lat="42.8874850" lon="0.0456040">
        <ele>1018.8</ele>
        <time>2020-07-27T11:48:58Z</time>
      </trkpt>
      <trkpt lat="42.8875860" lon="0.0457040">
        <ele>1019.8</ele>
        <time>2020-07-27T11:49:03Z</time>
      </trkpt>
      <trkpt lat="42.8876070" lon="0.0457250">
        <ele>1020.0</ele>
        <time>2020-07-27T11:49:04Z</time>
      </trkpt>
      <trkpt lat="42.8877280" lon="0.0458560">
        <ele>1020.8</ele>
        <time>2020-07-27T11:49:10Z</time>
      </trkpt>
      <trkpt lat="42.8878330" lon="0.0459590">
        <ele>1021.8</ele>
        <time>2020-07-27T11:49:15Z</time>
      </trkpt>
      <trkpt lat="42.8878550" lon="0.0459800">
        <ele>1021.8</ele>
        <time>2020-07-27T11:49:16Z</time>
      </trkpt>
      <trkpt lat="42.8879670" lon="0.0460850">
        <ele>1023.0</ele>
        <time>2020-07-27T11:49:21Z</time>
      </trkpt>
      <trkpt lat="42.8880840" lon="0.0461810">
        <ele>1023.6</ele>
        <time>2020-07-27T11:49:26Z</time>
      </trkpt>
      <trkpt lat="42.8881810" lon="0.0462390">
        <ele>1024.0</ele>
        <time>2020-07-27T11:49:30Z</time>
      </trkpt>
      <trkpt lat="42.8882750" lon="0.0462930">
        <ele>1025.0</ele>
        <time>2020-07-27T11:49:34Z</time>
      </trkpt>
      <trkpt lat="42.8882990" lon="0.0463040">
        <ele>1025.0</ele>
        <time>2020-07-27T11:49:35Z</time>
      </trkpt>
      <trkpt lat="42.8884740" lon="0.0463810">
        <ele>1026.0</ele>
        <time>2020-07-27T11:49:42Z</time>
      </trkpt>
      <trkpt lat="42.8885240" lon="0.0463970">
        <ele>1026.4</ele>
        <time>2020-07-27T11:49:44Z</time>
      </trkpt>
      <trkpt lat="42.8885960" lon="0.0464210">
        <ele>1027.0</ele>
        <time>2020-07-27T11:49:47Z</time>
      </trkpt>
      <trkpt lat="42.8887150" lon="0.0464520">
        <ele>1027.8</ele>
        <time>2020-07-27T11:49:52Z</time>
      </trkpt>
      <trkpt lat="42.8887620" lon="0.0464700">
        <ele>1028.2</ele>
        <time>2020-07-27T11:49:54Z</time>
      </trkpt>
      <trkpt lat="42.8888730" lon="0.0465240">
        <ele>1029.4</ele>
        <time>2020-07-27T11:49:59Z</time>
      </trkpt>
      <trkpt lat="42.8889310" lon="0.0465590">
        <ele>1030.0</ele>
        <time>2020-07-27T11:50:02Z</time>
      </trkpt>
      <trkpt lat="42.8889660" lon="0.0465850">
        <ele>1030.2</ele>
        <time>2020-07-27T11:50:04Z</time>
      </trkpt>
      <trkpt lat="42.8890610" lon="0.0466450">
        <ele>1031.2</ele>
        <time>2020-07-27T11:50:09Z</time>
      </trkpt>
      <trkpt lat="42.8890790" lon="0.0466600">
        <ele>1031.4</ele>
        <time>2020-07-27T11:50:10Z</time>
      </trkpt>
      <trkpt lat="42.8891820" lon="0.0467210">
        <ele>1032.8</ele>
        <time>2020-07-27T11:50:15Z</time>
      </trkpt>
      <trkpt lat="42.8892930" lon="0.0467800">
        <ele>1033.8</ele>
        <time>2020-07-27T11:50:20Z</time>
      </trkpt>
      <trkpt lat="42.8893380" lon="0.0468090">
        <ele>1034.4</ele>
        <time>2020-07-27T11:50:22Z</time>
      </trkpt>
      <trkpt lat="42.8893790" lon="0.0468350">
        <ele>1035.0</ele>
        <time>2020-07-27T11:50:24Z</time>
      </trkpt>
      <trkpt lat="42.8894710" lon="0.0468790">
        <ele>1035.8</ele>
        <time>2020-07-27T11:50:29Z</time>
      </trkpt>
      <trkpt lat="42.8895560" lon="0.0469150">
        <ele>1037.0</ele>
        <time>2020-07-27T11:50:34Z</time>
      </trkpt>
      <trkpt lat="42.8895950" lon="0.0469270">
        <ele>1037.4</ele>
        <time>2020-07-27T11:50:36Z</time>
      </trkpt>
      <trkpt lat="42.8896540" lon="0.0469440">
        <ele>1038.0</ele>
        <time>2020-07-27T11:50:39Z</time>
      </trkpt>
      <trkpt lat="42.8897440" lon="0.0469760">
        <ele>1039.2</ele>
        <time>2020-07-27T11:50:43Z</time>
      </trkpt>
      <trkpt lat="42.8898560" lon="0.0470150">
        <ele>1040.4</ele>
        <time>2020-07-27T11:50:48Z</time>
      </trkpt>
      <trkpt lat="42.8898740" lon="0.0470220">
        <ele>1040.8</ele>
        <time>2020-07-27T11:50:49Z</time>
      </trkpt>
      <trkpt lat="42.8899730" lon="0.0470680">
        <ele>1041.6</ele>
        <time>2020-07-27T11:50:54Z</time>
      </trkpt>
      <trkpt lat="42.8899940" lon="0.0470820">
        <ele>1041.8</ele>
        <time>2020-07-27T11:50:55Z</time>
      </trkpt>
      <trkpt lat="42.8900510" lon="0.0471270">
        <ele>1042.4</ele>
        <time>2020-07-27T11:50:58Z</time>
      </trkpt>
      <trkpt lat="42.8901130" lon="0.0471740">
        <ele>1043.4</ele>
        <time>2020-07-27T11:51:01Z</time>
      </trkpt>
      <trkpt lat="42.8901660" lon="0.0472340">
        <ele>1044.2</ele>
        <time>2020-07-27T11:51:04Z</time>
      </trkpt>
      <trkpt lat="42.8901880" lon="0.0472540">
        <ele>1044.6</ele>
        <time>2020-07-27T11:51:05Z</time>
      </trkpt>
      <trkpt lat="42.8902840" lon="0.0473680">
        <ele>1045.6</ele>
        <time>2020-07-27T11:51:10Z</time>
      </trkpt>
      <trkpt lat="42.8903350" lon="0.0474360">
        <ele>1046.4</ele>
        <time>2020-07-27T11:51:13Z</time>
      </trkpt>
      <trkpt lat="42.8903530" lon="0.0474600">
        <ele>1046.6</ele>
        <time>2020-07-27T11:51:14Z</time>
      </trkpt>
      <trkpt lat="42.8904400" lon="0.0475830">
        <ele>1047.6</ele>
        <time>2020-07-27T11:51:19Z</time>
      </trkpt>
      <trkpt lat="42.8904870" lon="0.0476590">
        <ele>1048.0</ele>
        <time>2020-07-27T11:51:22Z</time>
      </trkpt>
      <trkpt lat="42.8905610" lon="0.0477540">
        <ele>1048.6</ele>
        <time>2020-07-27T11:51:26Z</time>
      </trkpt>
      <trkpt lat="42.8906690" lon="0.0479130">
        <ele>1049.6</ele>
        <time>2020-07-27T11:51:32Z</time>
      </trkpt>
      <trkpt lat="42.8906880" lon="0.0479380">
        <ele>1049.6</ele>
        <time>2020-07-27T11:51:33Z</time>
      </trkpt>
      <trkpt lat="42.8907570" lon="0.0480360">
        <ele>1050.8</ele>
        <time>2020-07-27T11:51:37Z</time>
      </trkpt>
      <trkpt lat="42.8908190" lon="0.0481380">
        <ele>1051.6</ele>
        <time>2020-07-27T11:51:41Z</time>
      </trkpt>
      <trkpt lat="42.8908350" lon="0.0481620">
        <ele>1051.8</ele>
        <time>2020-07-27T11:51:42Z</time>
      </trkpt>
      <trkpt lat="42.8909550" lon="0.0483330">
        <ele>1052.8</ele>
        <time>2020-07-27T11:51:49Z</time>
      </trkpt>
      <trkpt lat="42.8909890" lon="0.0483840">
        <ele>1053.0</ele>
        <time>2020-07-27T11:51:51Z</time>
      </trkpt>
      <trkpt lat="42.8910490" lon="0.0484980">
        <ele>1053.8</ele>
        <time>2020-07-27T11:51:55Z</time>
      </trkpt>
      <trkpt lat="42.8910720" lon="0.0486000">
        <ele>1054.4</ele>
        <time>2020-07-27T11:51:58Z</time>
      </trkpt>
      <trkpt lat="42.8910630" lon="0.0486710">
        <ele>1054.8</ele>
        <time>2020-07-27T11:52:00Z</time>
      </trkpt>
      <trkpt lat="42.8910330" lon="0.0487300">
        <ele>1055.2</ele>
        <time>2020-07-27T11:52:02Z</time>
      </trkpt>
      <trkpt lat="42.8909370" lon="0.0487590">
        <ele>1055.8</ele>
        <time>2020-07-27T11:52:06Z</time>
      </trkpt>
      <trkpt lat="42.8908010" lon="0.0486620">
        <ele>1056.8</ele>
        <time>2020-07-27T11:52:12Z</time>
      </trkpt>
      <trkpt lat="42.8906820" lon="0.0485330">
        <ele>1057.8</ele>
        <time>2020-07-27T11:52:18Z</time>
      </trkpt>
      <trkpt lat="42.8906470" lon="0.0484820">
        <ele>1058.4</ele>
        <time>2020-07-27T11:52:20Z</time>
      </trkpt>
      <trkpt lat="42.8905810" lon="0.0483730">
        <ele>1059.0</ele>
        <time>2020-07-27T11:52:24Z</time>
      </trkpt>
      <trkpt lat="42.8904900" lon="0.0481970">
        <ele>1059.8</ele>
        <time>2020-07-27T11:52:30Z</time>
      </trkpt>
      <trkpt lat="42.8903580" lon="0.0480210">
        <ele>1061.0</ele>
        <time>2020-07-27T11:52:37Z</time>
      </trkpt>
      <trkpt lat="42.8901910" lon="0.0480250">
        <ele>1062.0</ele>
        <time>2020-07-27T11:52:43Z</time>
      </trkpt>
      <trkpt lat="42.8901670" lon="0.0480430">
        <ele>1062.2</ele>
        <time>2020-07-27T11:52:44Z</time>
      </trkpt>
      <trkpt lat="42.8901110" lon="0.0481610">
        <ele>1062.4</ele>
        <time>2020-07-27T11:52:48Z</time>
      </trkpt>
      <trkpt lat="42.8901210" lon="0.0483120">
        <ele>1063.2</ele>
        <time>2020-07-27T11:52:52Z</time>
      </trkpt>
      <trkpt lat="42.8901330" lon="0.0483470">
        <ele>1063.2</ele>
        <time>2020-07-27T11:52:53Z</time>
      </trkpt>
      <trkpt lat="42.8902580" lon="0.0485570">
        <ele>1064.0</ele>
        <time>2020-07-27T11:53:00Z</time>
      </trkpt>
      <trkpt lat="42.8904200" lon="0.0487750">
        <ele>1065.2</ele>
        <time>2020-07-27T11:53:08Z</time>
      </trkpt>
      <trkpt lat="42.8904370" lon="0.0488070">
        <ele>1065.4</ele>
        <time>2020-07-27T11:53:09Z</time>
      </trkpt>
      <trkpt lat="42.8905150" lon="0.0490320">
        <ele>1066.2</ele>
        <time>2020-07-27T11:53:16Z</time>
      </trkpt>
      <trkpt lat="42.8905360" lon="0.0492870">
        <ele>1067.4</ele>
        <time>2020-07-27T11:53:23Z</time>
      </trkpt>
      <trkpt lat="42.8905530" lon="0.0494830">
        <ele>1068.4</ele>
        <time>2020-07-27T11:53:28Z</time>
      </trkpt>
      <trkpt lat="42.8905580" lon="0.0495270">
        <ele>1068.6</ele>
        <time>2020-07-27T11:53:29Z</time>
      </trkpt>
      <trkpt lat="42.8905740" lon="0.0496420">
        <ele>1069.2</ele>
        <time>2020-07-27T11:53:32Z</time>
      </trkpt>
      <trkpt lat="42.8906030" lon="0.0497310">
        <ele>1070.0</ele>
        <time>2020-07-27T11:53:35Z</time>
      </trkpt>
      <trkpt lat="42.8906280" lon="0.0497850">
        <ele>1070.2</ele>
        <time>2020-07-27T11:53:37Z</time>
      </trkpt>
      <trkpt lat="42.8906730" lon="0.0498570">
        <ele>1070.8</ele>
        <time>2020-07-27T11:53:40Z</time>
      </trkpt>
      <trkpt lat="42.8907020" lon="0.0499050">
        <ele>1071.4</ele>
        <time>2020-07-27T11:53:42Z</time>
      </trkpt>
      <trkpt lat="42.8907620" lon="0.0500020">
        <ele>1072.2</ele>
        <time>2020-07-27T11:53:46Z</time>
      </trkpt>
      <trkpt lat="42.8908440" lon="0.0501120">
        <ele>1073.4</ele>
        <time>2020-07-27T11:53:51Z</time>
      </trkpt>
      <trkpt lat="42.8908600" lon="0.0501330">
        <ele>1073.4</ele>
        <time>2020-07-27T11:53:52Z</time>
      </trkpt>
      <trkpt lat="42.8909350" lon="0.0502430">
        <ele>1074.4</ele>
        <time>2020-07-27T11:53:57Z</time>
      </trkpt>
      <trkpt lat="42.8910020" lon="0.0503310">
        <ele>1075.4</ele>
        <time>2020-07-27T11:54:01Z</time>
      </trkpt>
      <trkpt lat="42.8910530" lon="0.0503960">
        <ele>1076.2</ele>
        <time>2020-07-27T11:54:04Z</time>
      </trkpt>
      <trkpt lat="42.8910690" lon="0.0504190">
        <ele>1076.4</ele>
        <time>2020-07-27T11:54:05Z</time>
      </trkpt>
      <trkpt lat="42.8911470" lon="0.0505340">
        <ele>1077.4</ele>
        <time>2020-07-27T11:54:10Z</time>
      </trkpt>
      <trkpt lat="42.8912000" lon="0.0505930">
        <ele>1078.0</ele>
        <time>2020-07-27T11:54:13Z</time>
      </trkpt>
      <trkpt lat="42.8912550" lon="0.0506490">
        <ele>1078.4</ele>
        <time>2020-07-27T11:54:16Z</time>
      </trkpt>
      <trkpt lat="42.8913590" lon="0.0507240">
        <ele>1079.4</ele>
        <time>2020-07-27T11:54:21Z</time>
      </trkpt>
      <trkpt lat="42.8914240" lon="0.0507630">
        <ele>1080.0</ele>
        <time>2020-07-27T11:54:24Z</time>
      </trkpt>
      <trkpt lat="42.8914900" lon="0.0507980">
        <ele>1080.6</ele>
        <time>2020-07-27T11:54:27Z</time>
      </trkpt>
      <trkpt lat="42.8916180" lon="0.0508640">
        <ele>1081.6</ele>
        <time>2020-07-27T11:54:33Z</time>
      </trkpt>
      <trkpt lat="42.8917490" lon="0.0509280">
        <ele>1082.6</ele>
        <time>2020-07-27T11:54:39Z</time>
      </trkpt>
      <trkpt lat="42.8918320" lon="0.0509680">
        <ele>1083.2</ele>
        <time>2020-07-27T11:54:43Z</time>
      </trkpt>
      <trkpt lat="42.8918740" lon="0.0509870">
        <ele>1084.0</ele>
        <time>2020-07-27T11:54:45Z</time>
      </trkpt>
      <trkpt lat="42.8919980" lon="0.0510860">
        <ele>1085.0</ele>
        <time>2020-07-27T11:54:51Z</time>
      </trkpt>
      <trkpt lat="42.8920910" lon="0.0512010">
        <ele>1086.0</ele>
        <time>2020-07-27T11:54:56Z</time>
      </trkpt>
      <trkpt lat="42.8921180" lon="0.0512540">
        <ele>1086.2</ele>
        <time>2020-07-27T11:54:58Z</time>
      </trkpt>
      <trkpt lat="42.8921560" lon="0.0513360">
        <ele>1087.0</ele>
        <time>2020-07-27T11:55:01Z</time>
      </trkpt>
      <trkpt lat="42.8922420" lon="0.0515070">
        <ele>1088.2</ele>
        <time>2020-07-27T11:55:07Z</time>
      </trkpt>
      <trkpt lat="42.8923090" lon="0.0516460">
        <ele>1089.2</ele>
        <time>2020-07-27T11:55:12Z</time>
      </trkpt>
      <trkpt lat="42.8923740" lon="0.0517860">
        <ele>1090.2</ele>
        <time>2020-07-27T11:55:17Z</time>
      </trkpt>
      <trkpt lat="42.8924390" lon="0.0519260">
        <ele>1091.4</ele>
        <time>2020-07-27T11:55:22Z</time>
      </trkpt>
      <trkpt lat="42.8925060" lon="0.0520650">
        <ele>1092.2</ele>
        <time>2020-07-27T11:55:27Z</time>
      </trkpt>
      <trkpt lat="42.8925180" lon="0.0520900">
        <ele>1092.4</ele>
        <time>2020-07-27T11:55:28Z</time>
      </trkpt>
      <trkpt lat="42.8926000" lon="0.0522770">
        <ele>1093.4</ele>
        <time>2020-07-27T11:55:35Z</time>
      </trkpt>
      <trkpt lat="42.8926260" lon="0.0523290">
        <ele>1093.8</ele>
        <time>2020-07-27T11:55:37Z</time>
      </trkpt>
      <trkpt lat="42.8926620" lon="0.0524070">
        <ele>1094.6</ele>
        <time>2020-07-27T11:55:40Z</time>
      </trkpt>
      <trkpt lat="42.8927480" lon="0.0525930">
        <ele>1095.6</ele>
        <time>2020-07-27T11:55:47Z</time>
      </trkpt>
      <trkpt lat="42.8927610" lon="0.0526200">
        <ele>1095.8</ele>
        <time>2020-07-27T11:55:48Z</time>
      </trkpt>
      <trkpt lat="42.8928160" lon="0.0527570">
        <ele>1096.6</ele>
        <time>2020-07-27T11:55:53Z</time>
      </trkpt>
      <trkpt lat="42.8928390" lon="0.0528490">
        <ele>1097.6</ele>
        <time>2020-07-27T11:55:56Z</time>
      </trkpt>
      <trkpt lat="42.8928460" lon="0.0528800">
        <ele>1097.8</ele>
        <time>2020-07-27T11:55:57Z</time>
      </trkpt>
      <trkpt lat="42.8928810" lon="0.0530370">
        <ele>1098.8</ele>
        <time>2020-07-27T11:56:02Z</time>
      </trkpt>
      <trkpt lat="42.8928990" lon="0.0531700">
        <ele>1099.6</ele>
        <time>2020-07-27T11:56:06Z</time>
      </trkpt>
      <trkpt lat="42.8928990" lon="0.0532070">
        <ele>1099.8</ele>
        <time>2020-07-27T11:56:07Z</time>
      </trkpt>
      <trkpt lat="42.8928980" lon="0.0534720">
        <ele>1100.8</ele>
        <time>2020-07-27T11:56:14Z</time>
      </trkpt>
      <trkpt lat="42.8929010" lon="0.0535080">
        <ele>1100.8</ele>
        <time>2020-07-27T11:56:15Z</time>
      </trkpt>
      <trkpt lat="42.8929040" lon="0.0536170">
        <ele>1101.4</ele>
        <time>2020-07-27T11:56:18Z</time>
      </trkpt>
      <trkpt lat="42.8929280" lon="0.0536810">
        <ele>1101.8</ele>
        <time>2020-07-27T11:56:20Z</time>
      </trkpt>
      <trkpt lat="42.8929370" lon="0.0537140">
        <ele>1102.0</ele>
        <time>2020-07-27T11:56:21Z</time>
      </trkpt>
      <trkpt lat="42.8929450" lon="0.0537490">
        <ele>1102.2</ele>
        <time>2020-07-27T11:56:22Z</time>
      </trkpt>
      <trkpt lat="42.8929950" lon="0.0538700">
        <ele>1103.0</ele>
        <time>2020-07-27T11:56:26Z</time>
      </trkpt>
      <trkpt lat="42.8930630" lon="0.0540120">
        <ele>1104.0</ele>
        <time>2020-07-27T11:56:31Z</time>
      </trkpt>
      <trkpt lat="42.8931040" lon="0.0541400">
        <ele>1104.8</ele>
        <time>2020-07-27T11:56:35Z</time>
      </trkpt>
      <trkpt lat="42.8931330" lon="0.0541970">
        <ele>1105.0</ele>
        <time>2020-07-27T11:56:37Z</time>
      </trkpt>
      <trkpt lat="42.8932280" lon="0.0543950">
        <ele>1106.0</ele>
        <time>2020-07-27T11:56:44Z</time>
      </trkpt>
      <trkpt lat="42.8933190" lon="0.0545910">
        <ele>1107.2</ele>
        <time>2020-07-27T11:56:51Z</time>
      </trkpt>
      <trkpt lat="42.8933560" lon="0.0546730">
        <ele>1108.0</ele>
        <time>2020-07-27T11:56:54Z</time>
      </trkpt>
      <trkpt lat="42.8933690" lon="0.0547010">
        <ele>1108.0</ele>
        <time>2020-07-27T11:56:55Z</time>
      </trkpt>
      <trkpt lat="42.8934320" lon="0.0548360">
        <ele>1109.2</ele>
        <time>2020-07-27T11:57:00Z</time>
      </trkpt>
      <trkpt lat="42.8934800" lon="0.0549450">
        <ele>1110.0</ele>
        <time>2020-07-27T11:57:04Z</time>
      </trkpt>
      <trkpt lat="42.8934910" lon="0.0549730">
        <ele>1110.2</ele>
        <time>2020-07-27T11:57:05Z</time>
      </trkpt>
      <trkpt lat="42.8935520" lon="0.0551050">
        <ele>1111.2</ele>
        <time>2020-07-27T11:57:10Z</time>
      </trkpt>
      <trkpt lat="42.8935740" lon="0.0551570">
        <ele>1111.8</ele>
        <time>2020-07-27T11:57:12Z</time>
      </trkpt>
      <trkpt lat="42.8935950" lon="0.0552060">
        <ele>1112.4</ele>
        <time>2020-07-27T11:57:14Z</time>
      </trkpt>
      <trkpt lat="42.8936550" lon="0.0553280">
        <ele>1113.6</ele>
        <time>2020-07-27T11:57:19Z</time>
      </trkpt>
      <trkpt lat="42.8936800" lon="0.0553760">
        <ele>1114.2</ele>
        <time>2020-07-27T11:57:21Z</time>
      </trkpt>
      <trkpt lat="42.8936890" lon="0.0554020">
        <ele>1114.4</ele>
        <time>2020-07-27T11:57:22Z</time>
      </trkpt>
      <trkpt lat="42.8937360" lon="0.0555010">
        <ele>1115.4</ele>
        <time>2020-07-27T11:57:26Z</time>
      </trkpt>
      <trkpt lat="42.8937560" lon="0.0555470">
        <ele>1116.0</ele>
        <time>2020-07-27T11:57:28Z</time>
      </trkpt>
      <trkpt lat="42.8937810" lon="0.0556030">
        <ele>1116.4</ele>
        <time>2020-07-27T11:57:30Z</time>
      </trkpt>
      <trkpt lat="42.8938390" lon="0.0557430">
        <ele>1117.4</ele>
        <time>2020-07-27T11:57:35Z</time>
      </trkpt>
      <trkpt lat="42.8938870" lon="0.0558560">
        <ele>1118.4</ele>
        <time>2020-07-27T11:57:39Z</time>
      </trkpt>
      <trkpt lat="42.8939420" lon="0.0559960">
        <ele>1119.6</ele>
        <time>2020-07-27T11:57:44Z</time>
      </trkpt>
      <trkpt lat="42.8939750" lon="0.0561110">
        <ele>1120.4</ele>
        <time>2020-07-27T11:57:48Z</time>
      </trkpt>
      <trkpt lat="42.8940030" lon="0.0561890">
        <ele>1121.4</ele>
        <time>2020-07-27T11:57:51Z</time>
      </trkpt>
      <trkpt lat="42.8940620" lon="0.0563230">
        <ele>1122.6</ele>
        <time>2020-07-27T11:57:56Z</time>
      </trkpt>
      <trkpt lat="42.8940990" lon="0.0564050">
        <ele>1123.4</ele>
        <time>2020-07-27T11:57:59Z</time>
      </trkpt>
      <trkpt lat="42.8941100" lon="0.0564310">
        <ele>1123.6</ele>
        <time>2020-07-27T11:58:00Z</time>
      </trkpt>
      <trkpt lat="42.8941490" lon="0.0565360">
        <ele>1124.8</ele>
        <time>2020-07-27T11:58:04Z</time>
      </trkpt>
      <trkpt lat="42.8941600" lon="0.0566140">
        <ele>1125.8</ele>
        <time>2020-07-27T11:58:07Z</time>
      </trkpt>
      <trkpt lat="42.8941650" lon="0.0566420">
        <ele>1126.0</ele>
        <time>2020-07-27T11:58:08Z</time>
      </trkpt>
      <trkpt lat="42.8942050" lon="0.0567730">
        <ele>1127.0</ele>
        <time>2020-07-27T11:58:13Z</time>
      </trkpt>
      <trkpt lat="42.8942120" lon="0.0568000">
        <ele>1127.4</ele>
        <time>2020-07-27T11:58:14Z</time>
      </trkpt>
      <trkpt lat="42.8942440" lon="0.0569110">
        <ele>1128.2</ele>
        <time>2020-07-27T11:58:18Z</time>
      </trkpt>
      <trkpt lat="42.8942720" lon="0.0570190">
        <ele>1129.0</ele>
        <time>2020-07-27T11:58:22Z</time>
      </trkpt>
      <trkpt lat="42.8942800" lon="0.0570440">
        <ele>1129.2</ele>
        <time>2020-07-27T11:58:23Z</time>
      </trkpt>
      <trkpt lat="42.8943370" lon="0.0572060">
        <ele>1130.4</ele>
        <time>2020-07-27T11:58:29Z</time>
      </trkpt>
      <trkpt lat="42.8943600" lon="0.0572580">
        <ele>1130.6</ele>
        <time>2020-07-27T11:58:31Z</time>
      </trkpt>
      <trkpt lat="42.8943980" lon="0.0573610">
        <ele>1131.4</ele>
        <time>2020-07-27T11:58:35Z</time>
      </trkpt>
      <trkpt lat="42.8944370" lon="0.0574610">
        <ele>1132.2</ele>
        <time>2020-07-27T11:58:39Z</time>
      </trkpt>
      <trkpt lat="42.8944470" lon="0.0574870">
        <ele>1132.4</ele>
        <time>2020-07-27T11:58:40Z</time>
      </trkpt>
      <trkpt lat="42.8945260" lon="0.0576300">
        <ele>1133.8</ele>
        <time>2020-07-27T11:58:46Z</time>
      </trkpt>
      <trkpt lat="42.8945970" lon="0.0577520">
        <ele>1134.8</ele>
        <time>2020-07-27T11:58:51Z</time>
      </trkpt>
      <trkpt lat="42.8946830" lon="0.0578870">
        <ele>1135.6</ele>
        <time>2020-07-27T11:58:57Z</time>
      </trkpt>
      <trkpt lat="42.8946980" lon="0.0579070">
        <ele>1135.8</ele>
        <time>2020-07-27T11:58:58Z</time>
      </trkpt>
      <trkpt lat="42.8947690" lon="0.0580150">
        <ele>1137.0</ele>
        <time>2020-07-27T11:59:03Z</time>
      </trkpt>
      <trkpt lat="42.8947980" lon="0.0580540">
        <ele>1137.4</ele>
        <time>2020-07-27T11:59:05Z</time>
      </trkpt>
      <trkpt lat="42.8948730" lon="0.0581570">
        <ele>1138.0</ele>
        <time>2020-07-27T11:59:10Z</time>
      </trkpt>
      <trkpt lat="42.8949390" lon="0.0582340">
        <ele>1139.0</ele>
        <time>2020-07-27T11:59:14Z</time>
      </trkpt>
      <trkpt lat="42.8949550" lon="0.0582530">
        <ele>1139.0</ele>
        <time>2020-07-27T11:59:15Z</time>
      </trkpt>
      <trkpt lat="42.8950890" lon="0.0583810">
        <ele>1140.2</ele>
        <time>2020-07-27T11:59:22Z</time>
      </trkpt>
      <trkpt lat="42.8952300" lon="0.0584790">
        <ele>1141.2</ele>
        <time>2020-07-27T11:59:29Z</time>
      </trkpt>
      <trkpt lat="42.8952910" lon="0.0585130">
        <ele>1142.0</ele>
        <time>2020-07-27T11:59:32Z</time>
      </trkpt>
      <trkpt lat="42.8953360" lon="0.0585370">
        <ele>1142.4</ele>
        <time>2020-07-27T11:59:34Z</time>
      </trkpt>
      <trkpt lat="42.8954410" lon="0.0586110">
        <ele>1143.2</ele>
        <time>2020-07-27T11:59:39Z</time>
      </trkpt>
      <trkpt lat="42.8954810" lon="0.0586340">
        <ele>1143.6</ele>
        <time>2020-07-27T11:59:41Z</time>
      </trkpt>
      <trkpt lat="42.8955700" lon="0.0586880">
        <ele>1144.4</ele>
        <time>2020-07-27T11:59:45Z</time>
      </trkpt>
      <trkpt lat="42.8956080" lon="0.0587270">
        <ele>1144.4</ele>
        <time>2020-07-27T11:59:47Z</time>
      </trkpt>
      <trkpt lat="42.8956370" lon="0.0588080">
        <ele>1145.2</ele>
        <time>2020-07-27T11:59:50Z</time>
      </trkpt>
      <trkpt lat="42.8956390" lon="0.0588670">
        <ele>1145.6</ele>
        <time>2020-07-27T11:59:52Z</time>
      </trkpt>
      <trkpt lat="42.8956180" lon="0.0589560">
        <ele>1146.2</ele>
        <time>2020-07-27T11:59:55Z</time>
      </trkpt>
      <trkpt lat="42.8955850" lon="0.0590100">
        <ele>1146.8</ele>
        <time>2020-07-27T11:59:57Z</time>
      </trkpt>
      <trkpt lat="42.8955150" lon="0.0590880">
        <ele>1147.4</ele>
        <time>2020-07-27T12:00:01Z</time>
      </trkpt>
      <trkpt lat="42.8954690" lon="0.0590840">
        <ele>1147.8</ele>
        <time>2020-07-27T12:00:03Z</time>
      </trkpt>
      <trkpt lat="42.8954050" lon="0.0590600">
        <ele>1148.4</ele>
        <time>2020-07-27T12:00:06Z</time>
      </trkpt>
      <trkpt lat="42.8953610" lon="0.0590320">
        <ele>1149.0</ele>
        <time>2020-07-27T12:00:08Z</time>
      </trkpt>
      <trkpt lat="42.8952940" lon="0.0589870">
        <ele>1150.0</ele>
        <time>2020-07-27T12:00:11Z</time>
      </trkpt>
      <trkpt lat="42.8952400" lon="0.0589600">
        <ele>1150.6</ele>
        <time>2020-07-27T12:00:13Z</time>
      </trkpt>
      <trkpt lat="42.8951600" lon="0.0589410">
        <ele>1151.0</ele>
        <time>2020-07-27T12:00:16Z</time>
      </trkpt>
      <trkpt lat="42.8950860" lon="0.0589490">
        <ele>1151.2</ele>
        <time>2020-07-27T12:00:19Z</time>
      </trkpt>
      <trkpt lat="42.8950050" lon="0.0590130">
        <ele>1152.0</ele>
        <time>2020-07-27T12:00:23Z</time>
      </trkpt>
      <trkpt lat="42.8949770" lon="0.0590650">
        <ele>1152.2</ele>
        <time>2020-07-27T12:00:25Z</time>
      </trkpt>
      <trkpt lat="42.8949200" lon="0.0592720">
        <ele>1153.0</ele>
        <time>2020-07-27T12:00:32Z</time>
      </trkpt>
      <trkpt lat="42.8949820" lon="0.0594740">
        <ele>1153.8</ele>
        <time>2020-07-27T12:00:38Z</time>
      </trkpt>
      <trkpt lat="42.8951100" lon="0.0595220">
        <ele>1154.8</ele>
        <time>2020-07-27T12:00:43Z</time>
      </trkpt>
      <trkpt lat="42.8952760" lon="0.0595070">
        <ele>1155.8</ele>
        <time>2020-07-27T12:00:50Z</time>
      </trkpt>
      <trkpt lat="42.8953040" lon="0.0594940">
        <ele>1156.0</ele>
        <time>2020-07-27T12:00:52Z</time>
      </trkpt>
      <trkpt lat="42.8953390" lon="0.0594810">
        <ele>1156.6</ele>
        <time>2020-07-27T12:00:55Z</time>
      </trkpt>
      <trkpt lat="42.8953870" lon="0.0594830">
        <ele>1157.0</ele>
        <time>2020-07-27T12:00:58Z</time>
      </trkpt>
      <trkpt lat="42.8954690" lon="0.0594880">
        <ele>1157.4</ele>
        <time>2020-07-27T12:01:01Z</time>
      </trkpt>
      <trkpt lat="42.8955470" lon="0.0594890">
        <ele>1157.8</ele>
        <time>2020-07-27T12:01:04Z</time>
      </trkpt>
      <trkpt lat="42.8956050" lon="0.0594950">
        <ele>1158.2</ele>
        <time>2020-07-27T12:01:06Z</time>
      </trkpt>
      <trkpt lat="42.8956710" lon="0.0595320">
        <ele>1159.2</ele>
        <time>2020-07-27T12:01:09Z</time>
      </trkpt>
      <trkpt lat="42.8957130" lon="0.0595640">
        <ele>1159.8</ele>
        <time>2020-07-27T12:01:11Z</time>
      </trkpt>
      <trkpt lat="42.8957550" lon="0.0596010">
        <ele>1160.2</ele>
        <time>2020-07-27T12:01:13Z</time>
      </trkpt>
      <trkpt lat="42.8958560" lon="0.0597170">
        <ele>1161.0</ele>
        <time>2020-07-27T12:01:18Z</time>
      </trkpt>
      <trkpt lat="42.8958890" lon="0.0597690">
        <ele>1161.2</ele>
        <time>2020-07-27T12:01:20Z</time>
      </trkpt>
      <trkpt lat="42.8959480" lon="0.0599500">
        <ele>1162.0</ele>
        <time>2020-07-27T12:01:26Z</time>
      </trkpt>
      <trkpt lat="42.8959730" lon="0.0601380">
        <ele>1163.2</ele>
        <time>2020-07-27T12:01:32Z</time>
      </trkpt>
      <trkpt lat="42.8959770" lon="0.0601700">
        <ele>1163.2</ele>
        <time>2020-07-27T12:01:33Z</time>
      </trkpt>
      <trkpt lat="42.8959830" lon="0.0602940">
        <ele>1164.2</ele>
        <time>2020-07-27T12:01:37Z</time>
      </trkpt>
      <trkpt lat="42.8959990" lon="0.0603910">
        <ele>1164.6</ele>
        <time>2020-07-27T12:01:40Z</time>
      </trkpt>
      <trkpt lat="42.8960210" lon="0.0605190">
        <ele>1165.4</ele>
        <time>2020-07-27T12:01:44Z</time>
      </trkpt>
      <trkpt lat="42.8960470" lon="0.0606760">
        <ele>1166.2</ele>
        <time>2020-07-27T12:01:49Z</time>
      </trkpt>
      <trkpt lat="42.8960520" lon="0.0607390">
        <ele>1166.6</ele>
        <time>2020-07-27T12:01:51Z</time>
      </trkpt>
      <trkpt lat="42.8960870" lon="0.0609360">
        <ele>1167.8</ele>
        <time>2020-07-27T12:01:57Z</time>
      </trkpt>
      <trkpt lat="42.8961030" lon="0.0611470">
        <ele>1168.6</ele>
        <time>2020-07-27T12:02:03Z</time>
      </trkpt>
      <trkpt lat="42.8961070" lon="0.0611800">
        <ele>1169.0</ele>
        <time>2020-07-27T12:02:04Z</time>
      </trkpt>
      <trkpt lat="42.8961120" lon="0.0612920">
        <ele>1169.8</ele>
        <time>2020-07-27T12:02:07Z</time>
      </trkpt>
      <trkpt lat="42.8961150" lon="0.0614440">
        <ele>1170.4</ele>
        <time>2020-07-27T12:02:11Z</time>
      </trkpt>
      <trkpt lat="42.8961200" lon="0.0615950">
        <ele>1171.0</ele>
        <time>2020-07-27T12:02:15Z</time>
      </trkpt>
      <trkpt lat="42.8961200" lon="0.0618070">
        <ele>1171.4</ele>
        <time>2020-07-27T12:02:21Z</time>
      </trkpt>
      <trkpt lat="42.8961220" lon="0.0619160">
        <ele>1171.8</ele>
        <time>2020-07-27T12:02:24Z</time>
      </trkpt>
      <trkpt lat="42.8961240" lon="0.0620860">
        <ele>1172.6</ele>
        <time>2020-07-27T12:02:29Z</time>
      </trkpt>
      <trkpt lat="42.8961250" lon="0.0621580">
        <ele>1172.8</ele>
        <time>2020-07-27T12:02:31Z</time>
      </trkpt>
      <trkpt lat="42.8961550" lon="0.0624290">
        <ele>1173.8</ele>
        <time>2020-07-27T12:02:38Z</time>
      </trkpt>
      <trkpt lat="42.8961550" lon="0.0624600">
        <ele>1173.8</ele>
        <time>2020-07-27T12:02:39Z</time>
      </trkpt>
      <trkpt lat="42.8961860" lon="0.0626590">
        <ele>1174.8</ele>
        <time>2020-07-27T12:02:45Z</time>
      </trkpt>
      <trkpt lat="42.8961890" lon="0.0626910">
        <ele>1175.0</ele>
        <time>2020-07-27T12:02:46Z</time>
      </trkpt>
      <trkpt lat="42.8961890" lon="0.0628480">
        <ele>1176.0</ele>
        <time>2020-07-27T12:02:51Z</time>
      </trkpt>
      <trkpt lat="42.8961920" lon="0.0629750">
        <ele>1177.0</ele>
        <time>2020-07-27T12:02:55Z</time>
      </trkpt>
      <trkpt lat="42.8961930" lon="0.0630060">
        <ele>1177.2</ele>
        <time>2020-07-27T12:02:56Z</time>
      </trkpt>
      <trkpt lat="42.8961910" lon="0.0631660">
        <ele>1178.2</ele>
        <time>2020-07-27T12:03:01Z</time>
      </trkpt>
      <trkpt lat="42.8961930" lon="0.0632320">
        <ele>1179.0</ele>
        <time>2020-07-27T12:03:03Z</time>
      </trkpt>
      <trkpt lat="42.8962070" lon="0.0632960">
        <ele>1179.4</ele>
        <time>2020-07-27T12:03:05Z</time>
      </trkpt>
      <trkpt lat="42.8962360" lon="0.0634620">
        <ele>1180.4</ele>
        <time>2020-07-27T12:03:10Z</time>
      </trkpt>
      <trkpt lat="42.8963090" lon="0.0636430">
        <ele>1181.2</ele>
        <time>2020-07-27T12:03:15Z</time>
      </trkpt>
      <trkpt lat="42.8964200" lon="0.0636390">
        <ele>1182.8</ele>
        <time>2020-07-27T12:04:25Z</time>
      </trkpt>
      <trkpt lat="42.8964700" lon="0.0638480">
        <ele>1182.8</ele>
        <time>2020-07-27T12:04:32Z</time>
      </trkpt>
      <trkpt lat="42.8965270" lon="0.0640250">
        <ele>1183.6</ele>
        <time>2020-07-27T12:04:39Z</time>
      </trkpt>
      <trkpt lat="42.8965330" lon="0.0641160">
        <ele>1184.6</ele>
        <time>2020-07-27T12:04:44Z</time>
      </trkpt>
      <trkpt lat="42.8965320" lon="0.0641410">
        <ele>1184.8</ele>
        <time>2020-07-27T12:04:45Z</time>
      </trkpt>
      <trkpt lat="42.8964940" lon="0.0642450">
        <ele>1185.2</ele>
        <time>2020-07-27T12:04:49Z</time>
      </trkpt>
      <trkpt lat="42.8964780" lon="0.0642610">
        <ele>1185.4</ele>
        <time>2020-07-27T12:04:50Z</time>
      </trkpt>
      <trkpt lat="42.8965990" lon="0.0643740">
        <ele>1186.0</ele>
        <time>2020-07-27T12:13:45Z</time>
      </trkpt>
      <trkpt lat="42.8965990" lon="0.0643740">
        <ele>1186.0</ele>
        <time>2020-07-27T12:13:46Z</time>
      </trkpt>
      <trkpt lat="42.8966820" lon="0.0646050">
        <ele>1186.2</ele>
        <time>2020-07-27T12:13:53Z</time>
      </trkpt>
      <trkpt lat="42.8967540" lon="0.0647840">
        <ele>1186.8</ele>
        <time>2020-07-27T12:14:00Z</time>
      </trkpt>
      <trkpt lat="42.8967720" lon="0.0648390">
        <ele>1187.0</ele>
        <time>2020-07-27T12:14:02Z</time>
      </trkpt>
      <trkpt lat="42.8968270" lon="0.0649420">
        <ele>1187.8</ele>
        <time>2020-07-27T12:14:06Z</time>
      </trkpt>
      <trkpt lat="42.8968400" lon="0.0649680">
        <ele>1188.0</ele>
        <time>2020-07-27T12:14:07Z</time>
      </trkpt>
      <trkpt lat="42.8969210" lon="0.0651450">
        <ele>1189.2</ele>
        <time>2020-07-27T12:14:14Z</time>
      </trkpt>
      <trkpt lat="42.8969310" lon="0.0652800">
        <ele>1190.4</ele>
        <time>2020-07-27T12:14:19Z</time>
      </trkpt>
      <trkpt lat="42.8969390" lon="0.0653350">
        <ele>1190.8</ele>
        <time>2020-07-27T12:14:21Z</time>
      </trkpt>
      <trkpt lat="42.8969730" lon="0.0654190">
        <ele>1191.4</ele>
        <time>2020-07-27T12:14:24Z</time>
      </trkpt>
      <trkpt lat="42.8970230" lon="0.0655520">
        <ele>1192.2</ele>
        <time>2020-07-27T12:14:29Z</time>
      </trkpt>
      <trkpt lat="42.8970320" lon="0.0655760">
        <ele>1192.4</ele>
        <time>2020-07-27T12:14:30Z</time>
      </trkpt>
      <trkpt lat="42.8970790" lon="0.0657430">
        <ele>1193.2</ele>
        <time>2020-07-27T12:14:36Z</time>
      </trkpt>
      <trkpt lat="42.8970910" lon="0.0657720">
        <ele>1193.4</ele>
        <time>2020-07-27T12:14:37Z</time>
      </trkpt>
      <trkpt lat="42.8971560" lon="0.0659770">
        <ele>1194.2</ele>
        <time>2020-07-27T12:14:44Z</time>
      </trkpt>
      <trkpt lat="42.8971630" lon="0.0660060">
        <ele>1194.4</ele>
        <time>2020-07-27T12:14:45Z</time>
      </trkpt>
      <trkpt lat="42.8972290" lon="0.0662110">
        <ele>1195.4</ele>
        <time>2020-07-27T12:14:52Z</time>
      </trkpt>
      <trkpt lat="42.8972560" lon="0.0662690">
        <ele>1195.8</ele>
        <time>2020-07-27T12:14:54Z</time>
      </trkpt>
      <trkpt lat="42.8972890" lon="0.0663540">
        <ele>1196.4</ele>
        <time>2020-07-27T12:14:57Z</time>
      </trkpt>
      <trkpt lat="42.8973160" lon="0.0664080">
        <ele>1197.0</ele>
        <time>2020-07-27T12:14:59Z</time>
      </trkpt>
      <trkpt lat="42.8973400" lon="0.0664610">
        <ele>1197.4</ele>
        <time>2020-07-27T12:15:01Z</time>
      </trkpt>
      <trkpt lat="42.8974210" lon="0.0666350">
        <ele>1198.4</ele>
        <time>2020-07-27T12:15:07Z</time>
      </trkpt>
      <trkpt lat="42.8974430" lon="0.0666970">
        <ele>1198.6</ele>
        <time>2020-07-27T12:15:09Z</time>
      </trkpt>
      <trkpt lat="42.8975150" lon="0.0669330">
        <ele>1199.4</ele>
        <time>2020-07-27T12:15:16Z</time>
      </trkpt>
      <trkpt lat="42.8975250" lon="0.0669650">
        <ele>1199.6</ele>
        <time>2020-07-27T12:15:17Z</time>
      </trkpt>
      <trkpt lat="42.8976200" lon="0.0672480">
        <ele>1200.6</ele>
        <time>2020-07-27T12:15:26Z</time>
      </trkpt>
      <trkpt lat="42.8976630" lon="0.0674160">
        <ele>1201.8</ele>
        <time>2020-07-27T12:15:31Z</time>
      </trkpt>
      <trkpt lat="42.8976970" lon="0.0675390">
        <ele>1202.4</ele>
        <time>2020-07-27T12:15:35Z</time>
      </trkpt>
      <trkpt lat="42.8977160" lon="0.0676650">
        <ele>1202.8</ele>
        <time>2020-07-27T12:15:39Z</time>
      </trkpt>
      <trkpt lat="42.8977290" lon="0.0678320">
        <ele>1203.8</ele>
        <time>2020-07-27T12:15:44Z</time>
      </trkpt>
      <trkpt lat="42.8977550" lon="0.0680290">
        <ele>1205.0</ele>
        <time>2020-07-27T12:15:50Z</time>
      </trkpt>
      <trkpt lat="42.8977620" lon="0.0680970">
        <ele>1205.4</ele>
        <time>2020-07-27T12:15:52Z</time>
      </trkpt>
      <trkpt lat="42.8977730" lon="0.0681630">
        <ele>1205.8</ele>
        <time>2020-07-27T12:15:54Z</time>
      </trkpt>
      <trkpt lat="42.8978040" lon="0.0683110">
        <ele>1207.0</ele>
        <time>2020-07-27T12:15:59Z</time>
      </trkpt>
      <trkpt lat="42.8978120" lon="0.0683740">
        <ele>1208.0</ele>
        <time>2020-07-27T12:16:01Z</time>
      </trkpt>
      <trkpt lat="42.8978160" lon="0.0684040">
        <ele>1208.2</ele>
        <time>2020-07-27T12:16:02Z</time>
      </trkpt>
      <trkpt lat="42.8978360" lon="0.0685170">
        <ele>1209.4</ele>
        <time>2020-07-27T12:16:06Z</time>
      </trkpt>
      <trkpt lat="42.8978560" lon="0.0686020">
        <ele>1210.2</ele>
        <time>2020-07-27T12:16:09Z</time>
      </trkpt>
      <trkpt lat="42.8978750" lon="0.0687230">
        <ele>1211.2</ele>
        <time>2020-07-27T12:16:13Z</time>
      </trkpt>
      <trkpt lat="42.8979020" lon="0.0688810">
        <ele>1212.2</ele>
        <time>2020-07-27T12:16:18Z</time>
      </trkpt>
      <trkpt lat="42.8979260" lon="0.0690330">
        <ele>1213.2</ele>
        <time>2020-07-27T12:16:23Z</time>
      </trkpt>
      <trkpt lat="42.8979420" lon="0.0691230">
        <ele>1213.8</ele>
        <time>2020-07-27T12:16:26Z</time>
      </trkpt>
      <trkpt lat="42.8979550" lon="0.0692180">
        <ele>1214.4</ele>
        <time>2020-07-27T12:16:29Z</time>
      </trkpt>
      <trkpt lat="42.8979780" lon="0.0693770">
        <ele>1215.6</ele>
        <time>2020-07-27T12:16:34Z</time>
      </trkpt>
      <trkpt lat="42.8979910" lon="0.0694660">
        <ele>1216.6</ele>
        <time>2020-07-27T12:16:37Z</time>
      </trkpt>
      <trkpt lat="42.8980170" lon="0.0696260">
        <ele>1217.6</ele>
        <time>2020-07-27T12:16:42Z</time>
      </trkpt>
      <trkpt lat="42.8980220" lon="0.0696570">
        <ele>1218.0</ele>
        <time>2020-07-27T12:16:43Z</time>
      </trkpt>
      <trkpt lat="42.8980380" lon="0.0697270">
        <ele>1218.2</ele>
        <time>2020-07-27T12:16:45Z</time>
      </trkpt>
      <trkpt lat="42.8980620" lon="0.0697730">
        <ele>1218.6</ele>
        <time>2020-07-27T12:16:47Z</time>
      </trkpt>
      <trkpt lat="42.8980910" lon="0.0698990">
        <ele>1219.6</ele>
        <time>2020-07-27T12:16:51Z</time>
      </trkpt>
      <trkpt lat="42.8980940" lon="0.0699660">
        <ele>1220.0</ele>
        <time>2020-07-27T12:16:53Z</time>
      </trkpt>
      <trkpt lat="42.8981010" lon="0.0700660">
        <ele>1220.8</ele>
        <time>2020-07-27T12:16:56Z</time>
      </trkpt>
      <trkpt lat="42.8981250" lon="0.0702050">
        <ele>1222.0</ele>
        <time>2020-07-27T12:17:00Z</time>
      </trkpt>
      <trkpt lat="42.8981340" lon="0.0702710">
        <ele>1222.2</ele>
        <time>2020-07-27T12:17:02Z</time>
      </trkpt>
      <trkpt lat="42.8981450" lon="0.0703340">
        <ele>1223.0</ele>
        <time>2020-07-27T12:17:04Z</time>
      </trkpt>
      <trkpt lat="42.8981660" lon="0.0704800">
        <ele>1224.0</ele>
        <time>2020-07-27T12:17:09Z</time>
      </trkpt>
      <trkpt lat="42.8981800" lon="0.0705810">
        <ele>1224.4</ele>
        <time>2020-07-27T12:17:13Z</time>
      </trkpt>
      <trkpt lat="42.8982070" lon="0.0706820">
        <ele>1225.0</ele>
        <time>2020-07-27T12:17:17Z</time>
      </trkpt>
      <trkpt lat="42.8982210" lon="0.0707380">
        <ele>1226.4</ele>
        <time>2020-07-27T12:17:19Z</time>
      </trkpt>
      <trkpt lat="42.8982550" lon="0.0708750">
        <ele>1227.4</ele>
        <time>2020-07-27T12:17:24Z</time>
      </trkpt>
      <trkpt lat="42.8982630" lon="0.0709320">
        <ele>1227.8</ele>
        <time>2020-07-27T12:17:26Z</time>
      </trkpt>
      <trkpt lat="42.8982790" lon="0.0710210">
        <ele>1228.4</ele>
        <time>2020-07-27T12:17:29Z</time>
      </trkpt>
      <trkpt lat="42.8982880" lon="0.0710810">
        <ele>1229.0</ele>
        <time>2020-07-27T12:17:31Z</time>
      </trkpt>
      <trkpt lat="42.8982980" lon="0.0711430">
        <ele>1229.6</ele>
        <time>2020-07-27T12:17:33Z</time>
      </trkpt>
      <trkpt lat="42.8983210" lon="0.0712970">
        <ele>1230.8</ele>
        <time>2020-07-27T12:17:38Z</time>
      </trkpt>
      <trkpt lat="42.8983360" lon="0.0714420">
        <ele>1231.8</ele>
        <time>2020-07-27T12:17:43Z</time>
      </trkpt>
      <trkpt lat="42.8983420" lon="0.0715250">
        <ele>1232.2</ele>
        <time>2020-07-27T12:17:46Z</time>
      </trkpt>
      <trkpt lat="42.8983440" lon="0.0715860">
        <ele>1232.6</ele>
        <time>2020-07-27T12:17:48Z</time>
      </trkpt>
      <trkpt lat="42.8983560" lon="0.0717050">
        <ele>1234.0</ele>
        <time>2020-07-27T12:17:52Z</time>
      </trkpt>
      <trkpt lat="42.8983630" lon="0.0717960">
        <ele>1234.6</ele>
        <time>2020-07-27T12:17:55Z</time>
      </trkpt>
      <trkpt lat="42.8983690" lon="0.0718810">
        <ele>1235.0</ele>
        <time>2020-07-27T12:17:58Z</time>
      </trkpt>
      <trkpt lat="42.8983720" lon="0.0719940">
        <ele>1236.0</ele>
        <time>2020-07-27T12:18:02Z</time>
      </trkpt>
      <trkpt lat="42.8983700" lon="0.0720220">
        <ele>1236.2</ele>
        <time>2020-07-27T12:18:03Z</time>
      </trkpt>
      <trkpt lat="42.8983680" lon="0.0721410">
        <ele>1237.0</ele>
        <time>2020-07-27T12:18:07Z</time>
      </trkpt>
      <trkpt lat="42.8983710" lon="0.0722600">
        <ele>1237.8</ele>
        <time>2020-07-27T12:18:11Z</time>
      </trkpt>
      <trkpt lat="42.8983770" lon="0.0723150">
        <ele>1238.2</ele>
        <time>2020-07-27T12:18:13Z</time>
      </trkpt>
      <trkpt lat="42.8984020" lon="0.0724480">
        <ele>1239.2</ele>
        <time>2020-07-27T12:18:18Z</time>
      </trkpt>
      <trkpt lat="42.8984300" lon="0.0725800">
        <ele>1240.4</ele>
        <time>2020-07-27T12:18:23Z</time>
      </trkpt>
      <trkpt lat="42.8984560" lon="0.0726590">
        <ele>1240.8</ele>
        <time>2020-07-27T12:18:26Z</time>
      </trkpt>
      <trkpt lat="42.8984590" lon="0.0726860">
        <ele>1241.2</ele>
        <time>2020-07-27T12:18:27Z</time>
      </trkpt>
      <trkpt lat="42.8984660" lon="0.0727390">
        <ele>1241.8</ele>
        <time>2020-07-27T12:18:29Z</time>
      </trkpt>
      <trkpt lat="42.8984730" lon="0.0727960">
        <ele>1242.4</ele>
        <time>2020-07-27T12:18:31Z</time>
      </trkpt>
      <trkpt lat="42.8984940" lon="0.0729080">
        <ele>1243.2</ele>
        <time>2020-07-27T12:18:35Z</time>
      </trkpt>
      <trkpt lat="42.8984980" lon="0.0729640">
        <ele>1243.4</ele>
        <time>2020-07-27T12:18:37Z</time>
      </trkpt>
      <trkpt lat="42.8985160" lon="0.0731110">
        <ele>1244.4</ele>
        <time>2020-07-27T12:18:42Z</time>
      </trkpt>
      <trkpt lat="42.8985380" lon="0.0732860">
        <ele>1245.4</ele>
        <time>2020-07-27T12:18:48Z</time>
      </trkpt>
      <trkpt lat="42.8985430" lon="0.0733730">
        <ele>1245.6</ele>
        <time>2020-07-27T12:18:51Z</time>
      </trkpt>
      <trkpt lat="42.8985480" lon="0.0734980">
        <ele>1246.4</ele>
        <time>2020-07-27T12:18:55Z</time>
      </trkpt>
      <trkpt lat="42.8985730" lon="0.0736170">
        <ele>1247.4</ele>
        <time>2020-07-27T12:18:59Z</time>
      </trkpt>
      <trkpt lat="42.8985840" lon="0.0736750">
        <ele>1248.2</ele>
        <time>2020-07-27T12:19:01Z</time>
      </trkpt>
      <trkpt lat="42.8985900" lon="0.0737330">
        <ele>1248.6</ele>
        <time>2020-07-27T12:19:03Z</time>
      </trkpt>
      <trkpt lat="42.8985970" lon="0.0738550">
        <ele>1249.2</ele>
        <time>2020-07-27T12:19:07Z</time>
      </trkpt>
      <trkpt lat="42.8986020" lon="0.0739190">
        <ele>1249.6</ele>
        <time>2020-07-27T12:19:09Z</time>
      </trkpt>
      <trkpt lat="42.8986220" lon="0.0741070">
        <ele>1250.8</ele>
        <time>2020-07-27T12:19:15Z</time>
      </trkpt>
      <trkpt lat="42.8986290" lon="0.0741670">
        <ele>1251.2</ele>
        <time>2020-07-27T12:19:17Z</time>
      </trkpt>
      <trkpt lat="42.8986300" lon="0.0742600">
        <ele>1252.0</ele>
        <time>2020-07-27T12:19:20Z</time>
      </trkpt>
      <trkpt lat="42.8986240" lon="0.0743770">
        <ele>1252.8</ele>
        <time>2020-07-27T12:19:24Z</time>
      </trkpt>
      <trkpt lat="42.8986220" lon="0.0744060">
        <ele>1253.2</ele>
        <time>2020-07-27T12:19:25Z</time>
      </trkpt>
      <trkpt lat="42.8986440" lon="0.0745830">
        <ele>1254.2</ele>
        <time>2020-07-27T12:19:31Z</time>
      </trkpt>
      <trkpt lat="42.8986490" lon="0.0746150">
        <ele>1254.4</ele>
        <time>2020-07-27T12:19:32Z</time>
      </trkpt>
      <trkpt lat="42.8986500" lon="0.0746790">
        <ele>1254.8</ele>
        <time>2020-07-27T12:19:34Z</time>
      </trkpt>
      <trkpt lat="42.8986590" lon="0.0747460">
        <ele>1255.6</ele>
        <time>2020-07-27T12:19:36Z</time>
      </trkpt>
      <trkpt lat="42.8986800" lon="0.0748710">
        <ele>1256.2</ele>
        <time>2020-07-27T12:19:40Z</time>
      </trkpt>
      <trkpt lat="42.8986970" lon="0.0749300">
        <ele>1256.4</ele>
        <time>2020-07-27T12:19:42Z</time>
      </trkpt>
      <trkpt lat="42.8987750" lon="0.0751070">
        <ele>1257.4</ele>
        <time>2020-07-27T12:19:48Z</time>
      </trkpt>
      <trkpt lat="42.8987870" lon="0.0751350">
        <ele>1257.6</ele>
        <time>2020-07-27T12:19:49Z</time>
      </trkpt>
      <trkpt lat="42.8988400" lon="0.0752410">
        <ele>1258.4</ele>
        <time>2020-07-27T12:19:53Z</time>
      </trkpt>
      <trkpt lat="42.8989110" lon="0.0753650">
        <ele>1259.6</ele>
        <time>2020-07-27T12:19:58Z</time>
      </trkpt>
      <trkpt lat="42.8989250" lon="0.0753890">
        <ele>1259.8</ele>
        <time>2020-07-27T12:19:59Z</time>
      </trkpt>
      <trkpt lat="42.8989920" lon="0.0755100">
        <ele>1260.8</ele>
        <time>2020-07-27T12:20:04Z</time>
      </trkpt>
      <trkpt lat="42.8990470" lon="0.0756110">
        <ele>1261.8</ele>
        <time>2020-07-27T12:20:08Z</time>
      </trkpt>
      <trkpt lat="42.8990620" lon="0.0756360">
        <ele>1262.0</ele>
        <time>2020-07-27T12:20:09Z</time>
      </trkpt>
      <trkpt lat="42.8991390" lon="0.0757570">
        <ele>1262.6</ele>
        <time>2020-07-27T12:20:14Z</time>
      </trkpt>
      <trkpt lat="42.8991890" lon="0.0758580">
        <ele>1263.4</ele>
        <time>2020-07-27T12:20:18Z</time>
      </trkpt>
      <trkpt lat="42.8992150" lon="0.0759100">
        <ele>1263.6</ele>
        <time>2020-07-27T12:20:20Z</time>
      </trkpt>
      <trkpt lat="42.8992290" lon="0.0759340">
        <ele>1264.2</ele>
        <time>2020-07-27T12:20:21Z</time>
      </trkpt>
      <trkpt lat="42.8992550" lon="0.0759810">
        <ele>1264.8</ele>
        <time>2020-07-27T12:20:23Z</time>
      </trkpt>
      <trkpt lat="42.8993060" lon="0.0760790">
        <ele>1265.2</ele>
        <time>2020-07-27T12:20:27Z</time>
      </trkpt>
      <trkpt lat="42.8993440" lon="0.0761530">
        <ele>1266.0</ele>
        <time>2020-07-27T12:20:30Z</time>
      </trkpt>
      <trkpt lat="42.8994030" lon="0.0762790">
        <ele>1267.2</ele>
        <time>2020-07-27T12:20:35Z</time>
      </trkpt>
      <trkpt lat="42.8994240" lon="0.0763310">
        <ele>1267.6</ele>
        <time>2020-07-27T12:20:37Z</time>
      </trkpt>
      <trkpt lat="42.8994450" lon="0.0764170">
        <ele>1268.2</ele>
        <time>2020-07-27T12:20:40Z</time>
      </trkpt>
      <trkpt lat="42.8994740" lon="0.0765560">
        <ele>1269.2</ele>
        <time>2020-07-27T12:20:45Z</time>
      </trkpt>
      <trkpt lat="42.8994780" lon="0.0766740">
        <ele>1270.2</ele>
        <time>2020-07-27T12:20:49Z</time>
      </trkpt>
      <trkpt lat="42.8994830" lon="0.0767940">
        <ele>1271.0</ele>
        <time>2020-07-27T12:20:53Z</time>
      </trkpt>
      <trkpt lat="42.8994920" lon="0.0768520">
        <ele>1271.2</ele>
        <time>2020-07-27T12:20:55Z</time>
      </trkpt>
      <trkpt lat="42.8994900" lon="0.0769660">
        <ele>1272.4</ele>
        <time>2020-07-27T12:20:59Z</time>
      </trkpt>
      <trkpt lat="42.8994930" lon="0.0771050">
        <ele>1273.4</ele>
        <time>2020-07-27T12:21:04Z</time>
      </trkpt>
      <trkpt lat="42.8994960" lon="0.0771600">
        <ele>1273.8</ele>
        <time>2020-07-27T12:21:06Z</time>
      </trkpt>
      <trkpt lat="42.8995020" lon="0.0772760">
        <ele>1274.6</ele>
        <time>2020-07-27T12:21:10Z</time>
      </trkpt>
      <trkpt lat="42.8995190" lon="0.0773620">
        <ele>1275.2</ele>
        <time>2020-07-27T12:21:13Z</time>
      </trkpt>
      <trkpt lat="42.8995360" lon="0.0774430">
        <ele>1275.8</ele>
        <time>2020-07-27T12:21:16Z</time>
      </trkpt>
      <trkpt lat="42.8995600" lon="0.0775210">
        <ele>1276.6</ele>
        <time>2020-07-27T12:21:19Z</time>
      </trkpt>
      <trkpt lat="42.8995790" lon="0.0775740">
        <ele>1277.0</ele>
        <time>2020-07-27T12:21:21Z</time>
      </trkpt>
      <trkpt lat="42.8996090" lon="0.0776900">
        <ele>1277.8</ele>
        <time>2020-07-27T12:21:25Z</time>
      </trkpt>
      <trkpt lat="42.8996620" lon="0.0778800">
        <ele>1278.8</ele>
        <time>2020-07-27T12:21:31Z</time>
      </trkpt>
      <trkpt lat="42.8997070" lon="0.0780500">
        <ele>1280.0</ele>
        <time>2020-07-27T12:21:36Z</time>
      </trkpt>
      <trkpt lat="42.8997470" lon="0.0782060">
        <ele>1280.8</ele>
        <time>2020-07-27T12:21:41Z</time>
      </trkpt>
      <trkpt lat="42.8997570" lon="0.0782380">
        <ele>1281.0</ele>
        <time>2020-07-27T12:21:42Z</time>
      </trkpt>
      <trkpt lat="42.8998060" lon="0.0783530">
        <ele>1282.2</ele>
        <time>2020-07-27T12:21:46Z</time>
      </trkpt>
      <trkpt lat="42.8998540" lon="0.0784660">
        <ele>1283.0</ele>
        <time>2020-07-27T12:21:50Z</time>
      </trkpt>
      <trkpt lat="42.8998690" lon="0.0784960">
        <ele>1283.2</ele>
        <time>2020-07-27T12:21:51Z</time>
      </trkpt>
      <trkpt lat="42.8999250" lon="0.0786380">
        <ele>1284.4</ele>
        <time>2020-07-27T12:21:56Z</time>
      </trkpt>
      <trkpt lat="42.8999450" lon="0.0786920">
        <ele>1284.8</ele>
        <time>2020-07-27T12:21:58Z</time>
      </trkpt>
      <trkpt lat="42.8999580" lon="0.0787180">
        <ele>1285.0</ele>
        <time>2020-07-27T12:21:59Z</time>
      </trkpt>
      <trkpt lat="42.8999910" lon="0.0788010">
        <ele>1285.6</ele>
        <time>2020-07-27T12:22:02Z</time>
      </trkpt>
      <trkpt lat="42.9000160" lon="0.0788890">
        <ele>1286.4</ele>
        <time>2020-07-27T12:22:05Z</time>
      </trkpt>
      <trkpt lat="42.9000230" lon="0.0789180">
        <ele>1286.6</ele>
        <time>2020-07-27T12:22:06Z</time>
      </trkpt>
      <trkpt lat="42.9000550" lon="0.0790610">
        <ele>1287.4</ele>
        <time>2020-07-27T12:22:11Z</time>
      </trkpt>
      <trkpt lat="42.9000660" lon="0.0790900">
        <ele>1287.6</ele>
        <time>2020-07-27T12:22:12Z</time>
      </trkpt>
      <trkpt lat="42.9001030" lon="0.0792200">
        <ele>1288.6</ele>
        <time>2020-07-27T12:22:16Z</time>
      </trkpt>
      <trkpt lat="42.9001470" lon="0.0793640">
        <ele>1289.8</ele>
        <time>2020-07-27T12:22:21Z</time>
      </trkpt>
      <trkpt lat="42.9001810" lon="0.0794710">
        <ele>1290.8</ele>
        <time>2020-07-27T12:22:25Z</time>
      </trkpt>
      <trkpt lat="42.9002180" lon="0.0795820">
        <ele>1291.6</ele>
        <time>2020-07-27T12:22:29Z</time>
      </trkpt>
      <trkpt lat="42.9002270" lon="0.0796110">
        <ele>1292.0</ele>
        <time>2020-07-27T12:22:30Z</time>
      </trkpt>
      <trkpt lat="42.9002730" lon="0.0797330">
        <ele>1292.8</ele>
        <time>2020-07-27T12:22:34Z</time>
      </trkpt>
      <trkpt lat="42.9002930" lon="0.0797980">
        <ele>1293.2</ele>
        <time>2020-07-27T12:22:36Z</time>
      </trkpt>
      <trkpt lat="42.9003220" lon="0.0798930">
        <ele>1293.8</ele>
        <time>2020-07-27T12:22:39Z</time>
      </trkpt>
      <trkpt lat="42.9003650" lon="0.0800180">
        <ele>1295.0</ele>
        <time>2020-07-27T12:22:43Z</time>
      </trkpt>
      <trkpt lat="42.9003810" lon="0.0800700">
        <ele>1295.2</ele>
        <time>2020-07-27T12:22:45Z</time>
      </trkpt>
      <trkpt lat="42.9004130" lon="0.0801540">
        <ele>1296.0</ele>
        <time>2020-07-27T12:22:48Z</time>
      </trkpt>
      <trkpt lat="42.9004450" lon="0.0802670">
        <ele>1296.8</ele>
        <time>2020-07-27T12:22:52Z</time>
      </trkpt>
      <trkpt lat="42.9004560" lon="0.0802950">
        <ele>1297.0</ele>
        <time>2020-07-27T12:22:53Z</time>
      </trkpt>
      <trkpt lat="42.9005070" lon="0.0804370">
        <ele>1298.0</ele>
        <time>2020-07-27T12:22:58Z</time>
      </trkpt>
      <trkpt lat="42.9005170" lon="0.0804970">
        <ele>1298.4</ele>
        <time>2020-07-27T12:23:00Z</time>
      </trkpt>
      <trkpt lat="42.9005290" lon="0.0805840">
        <ele>1299.0</ele>
        <time>2020-07-27T12:23:03Z</time>
      </trkpt>
      <trkpt lat="42.9005580" lon="0.0807040">
        <ele>1300.0</ele>
        <time>2020-07-27T12:23:07Z</time>
      </trkpt>
      <trkpt lat="42.9006070" lon="0.0808180">
        <ele>1300.8</ele>
        <time>2020-07-27T12:23:11Z</time>
      </trkpt>
      <trkpt lat="42.9006180" lon="0.0808500">
        <ele>1301.2</ele>
        <time>2020-07-27T12:23:12Z</time>
      </trkpt>
      <trkpt lat="42.9006770" lon="0.0810250">
        <ele>1302.2</ele>
        <time>2020-07-27T12:23:18Z</time>
      </trkpt>
      <trkpt lat="42.9006820" lon="0.0810520">
        <ele>1302.4</ele>
        <time>2020-07-27T12:23:19Z</time>
      </trkpt>
      <trkpt lat="42.9007140" lon="0.0811290">
        <ele>1303.4</ele>
        <time>2020-07-27T12:23:22Z</time>
      </trkpt>
      <trkpt lat="42.9007600" lon="0.0812460">
        <ele>1304.2</ele>
        <time>2020-07-27T12:23:26Z</time>
      </trkpt>
      <trkpt lat="42.9007670" lon="0.0812760">
        <ele>1304.4</ele>
        <time>2020-07-27T12:23:27Z</time>
      </trkpt>
      <trkpt lat="42.9008010" lon="0.0814310">
        <ele>1305.4</ele>
        <time>2020-07-27T12:23:32Z</time>
      </trkpt>
      <trkpt lat="42.9008300" lon="0.0815590">
        <ele>1306.0</ele>
        <time>2020-07-27T12:23:36Z</time>
      </trkpt>
      <trkpt lat="42.9008410" lon="0.0816200">
        <ele>1306.4</ele>
        <time>2020-07-27T12:23:38Z</time>
      </trkpt>
      <trkpt lat="42.9008870" lon="0.0817920">
        <ele>1307.6</ele>
        <time>2020-07-27T12:23:43Z</time>
      </trkpt>
      <trkpt lat="42.9008940" lon="0.0818240">
        <ele>1307.8</ele>
        <time>2020-07-27T12:23:44Z</time>
      </trkpt>
      <trkpt lat="42.9009310" lon="0.0819570">
        <ele>1308.6</ele>
        <time>2020-07-27T12:23:48Z</time>
      </trkpt>
      <trkpt lat="42.9009920" lon="0.0821050">
        <ele>1309.6</ele>
        <time>2020-07-27T12:23:53Z</time>
      </trkpt>
      <trkpt lat="42.9010460" lon="0.0822100">
        <ele>1310.8</ele>
        <time>2020-07-27T12:23:57Z</time>
      </trkpt>
      <trkpt lat="42.9011100" lon="0.0823340">
        <ele>1311.6</ele>
        <time>2020-07-27T12:24:02Z</time>
      </trkpt>
      <trkpt lat="42.9011250" lon="0.0823590">
        <ele>1311.8</ele>
        <time>2020-07-27T12:24:03Z</time>
      </trkpt>
      <trkpt lat="42.9012070" lon="0.0824830">
        <ele>1313.0</ele>
        <time>2020-07-27T12:24:08Z</time>
      </trkpt>
      <trkpt lat="42.9012350" lon="0.0825320">
        <ele>1313.4</ele>
        <time>2020-07-27T12:24:10Z</time>
      </trkpt>
      <trkpt lat="42.9012760" lon="0.0826110">
        <ele>1313.8</ele>
        <time>2020-07-27T12:24:13Z</time>
      </trkpt>
      <trkpt lat="42.9013370" lon="0.0827260">
        <ele>1314.8</ele>
        <time>2020-07-27T12:24:18Z</time>
      </trkpt>
      <trkpt lat="42.9013460" lon="0.0827500">
        <ele>1315.0</ele>
        <time>2020-07-27T12:24:19Z</time>
      </trkpt>
      <trkpt lat="42.9013850" lon="0.0828690">
        <ele>1316.0</ele>
        <time>2020-07-27T12:24:24Z</time>
      </trkpt>
      <trkpt lat="42.9014280" lon="0.0829650">
        <ele>1316.8</ele>
        <time>2020-07-27T12:24:28Z</time>
      </trkpt>
      <trkpt lat="42.9014500" lon="0.0830130">
        <ele>1317.2</ele>
        <time>2020-07-27T12:24:30Z</time>
      </trkpt>
      <trkpt lat="42.9014890" lon="0.0831360">
        <ele>1318.2</ele>
        <time>2020-07-27T12:24:35Z</time>
      </trkpt>
      <trkpt lat="42.9015120" lon="0.0832140">
        <ele>1319.2</ele>
        <time>2020-07-27T12:24:38Z</time>
      </trkpt>
      <trkpt lat="42.9015230" lon="0.0832450">
        <ele>1319.4</ele>
        <time>2020-07-27T12:24:39Z</time>
      </trkpt>
      <trkpt lat="42.9015480" lon="0.0833940">
        <ele>1320.6</ele>
        <time>2020-07-27T12:24:44Z</time>
      </trkpt>
      <trkpt lat="42.9015530" lon="0.0834890">
        <ele>1321.4</ele>
        <time>2020-07-27T12:24:47Z</time>
      </trkpt>
      <trkpt lat="42.9015510" lon="0.0835220">
        <ele>1321.6</ele>
        <time>2020-07-27T12:24:48Z</time>
      </trkpt>
      <trkpt lat="42.9015430" lon="0.0836810">
        <ele>1322.8</ele>
        <time>2020-07-27T12:24:53Z</time>
      </trkpt>
      <trkpt lat="42.9015350" lon="0.0837690">
        <ele>1323.2</ele>
        <time>2020-07-27T12:24:56Z</time>
      </trkpt>
      <trkpt lat="42.9015330" lon="0.0838360">
        <ele>1323.8</ele>
        <time>2020-07-27T12:24:58Z</time>
      </trkpt>
      <trkpt lat="42.9015370" lon="0.0840080">
        <ele>1324.6</ele>
        <time>2020-07-27T12:25:03Z</time>
      </trkpt>
      <trkpt lat="42.9015410" lon="0.0840420">
        <ele>1324.8</ele>
        <time>2020-07-27T12:25:04Z</time>
      </trkpt>
      <trkpt lat="42.9015670" lon="0.0841990">
        <ele>1326.0</ele>
        <time>2020-07-27T12:25:09Z</time>
      </trkpt>
      <trkpt lat="42.9015710" lon="0.0842300">
        <ele>1326.2</ele>
        <time>2020-07-27T12:25:10Z</time>
      </trkpt>
      <trkpt lat="42.9015860" lon="0.0843440">
        <ele>1326.8</ele>
        <time>2020-07-27T12:25:14Z</time>
      </trkpt>
      <trkpt lat="42.9016030" lon="0.0845020">
        <ele>1327.6</ele>
        <time>2020-07-27T12:25:19Z</time>
      </trkpt>
      <trkpt lat="42.9016110" lon="0.0845340">
        <ele>1327.8</ele>
        <time>2020-07-27T12:25:20Z</time>
      </trkpt>
      <trkpt lat="42.9016410" lon="0.0846820">
        <ele>1329.0</ele>
        <time>2020-07-27T12:25:25Z</time>
      </trkpt>
      <trkpt lat="42.9016520" lon="0.0847750">
        <ele>1329.6</ele>
        <time>2020-07-27T12:25:28Z</time>
      </trkpt>
      <trkpt lat="42.9016570" lon="0.0848320">
        <ele>1330.0</ele>
        <time>2020-07-27T12:25:30Z</time>
      </trkpt>
      <trkpt lat="42.9016780" lon="0.0849790">
        <ele>1331.0</ele>
        <time>2020-07-27T12:25:35Z</time>
      </trkpt>
      <trkpt lat="42.9016860" lon="0.0850400">
        <ele>1331.4</ele>
        <time>2020-07-27T12:25:37Z</time>
      </trkpt>
      <trkpt lat="42.9017010" lon="0.0851340">
        <ele>1332.0</ele>
        <time>2020-07-27T12:25:40Z</time>
      </trkpt>
      <trkpt lat="42.9017170" lon="0.0852600">
        <ele>1332.8</ele>
        <time>2020-07-27T12:25:44Z</time>
      </trkpt>
      <trkpt lat="42.9017250" lon="0.0853230">
        <ele>1333.2</ele>
        <time>2020-07-27T12:25:46Z</time>
      </trkpt>
      <trkpt lat="42.9017300" lon="0.0855070">
        <ele>1334.2</ele>
        <time>2020-07-27T12:25:52Z</time>
      </trkpt>
      <trkpt lat="42.9017350" lon="0.0855380">
        <ele>1334.4</ele>
        <time>2020-07-27T12:25:53Z</time>
      </trkpt>
      <trkpt lat="42.9017560" lon="0.0857170">
        <ele>1335.6</ele>
        <time>2020-07-27T12:25:59Z</time>
      </trkpt>
      <trkpt lat="42.9017600" lon="0.0857480">
        <ele>1335.6</ele>
        <time>2020-07-27T12:26:00Z</time>
      </trkpt>
      <trkpt lat="42.9017670" lon="0.0858420">
        <ele>1336.4</ele>
        <time>2020-07-27T12:26:03Z</time>
      </trkpt>
      <trkpt lat="42.9017830" lon="0.0859960">
        <ele>1337.8</ele>
        <time>2020-07-27T12:26:08Z</time>
      </trkpt>
      <trkpt lat="42.9017920" lon="0.0861240">
        <ele>1338.6</ele>
        <time>2020-07-27T12:26:12Z</time>
      </trkpt>
      <trkpt lat="42.9018000" lon="0.0862410">
        <ele>1339.2</ele>
        <time>2020-07-27T12:26:16Z</time>
      </trkpt>
      <trkpt lat="42.9018170" lon="0.0863210">
        <ele>1339.8</ele>
        <time>2020-07-27T12:26:18Z</time>
      </trkpt>
      <trkpt lat="42.9018290" lon="0.0864860">
        <ele>1341.0</ele>
        <time>2020-07-27T12:26:23Z</time>
      </trkpt>
      <trkpt lat="42.9018380" lon="0.0865490">
        <ele>1341.2</ele>
        <time>2020-07-27T12:26:25Z</time>
      </trkpt>
      <trkpt lat="42.9018500" lon="0.0866480">
        <ele>1341.8</ele>
        <time>2020-07-27T12:26:28Z</time>
      </trkpt>
      <trkpt lat="42.9018870" lon="0.0868550">
        <ele>1343.0</ele>
        <time>2020-07-27T12:26:34Z</time>
      </trkpt>
      <trkpt lat="42.9019210" lon="0.0870310">
        <ele>1343.8</ele>
        <time>2020-07-27T12:26:39Z</time>
      </trkpt>
      <trkpt lat="42.9019400" lon="0.0871390">
        <ele>1344.2</ele>
        <time>2020-07-27T12:26:42Z</time>
      </trkpt>
      <trkpt lat="42.9019720" lon="0.0872870">
        <ele>1345.0</ele>
        <time>2020-07-27T12:26:46Z</time>
      </trkpt>
      <trkpt lat="42.9020170" lon="0.0874390">
        <ele>1345.4</ele>
        <time>2020-07-27T12:26:50Z</time>
      </trkpt>
      <trkpt lat="42.9020440" lon="0.0875220">
        <ele>1345.4</ele>
        <time>2020-07-27T12:26:52Z</time>
      </trkpt>
      <trkpt lat="42.9020700" lon="0.0876020">
        <ele>1345.8</ele>
        <time>2020-07-27T12:26:54Z</time>
      </trkpt>
      <trkpt lat="42.9021450" lon="0.0878160">
        <ele>1347.0</ele>
        <time>2020-07-27T12:26:59Z</time>
      </trkpt>
      <trkpt lat="42.9021710" lon="0.0879050">
        <ele>1347.0</ele>
        <time>2020-07-27T12:27:01Z</time>
      </trkpt>
      <trkpt lat="42.9022600" lon="0.0882170">
        <ele>1347.8</ele>
        <time>2020-07-27T12:27:08Z</time>
      </trkpt>
      <trkpt lat="42.9022710" lon="0.0882650">
        <ele>1348.0</ele>
        <time>2020-07-27T12:27:09Z</time>
      </trkpt>
      <trkpt lat="42.9023770" lon="0.0887020">
        <ele>1348.6</ele>
        <time>2020-07-27T12:27:18Z</time>
      </trkpt>
      <trkpt lat="42.9024200" lon="0.0888730">
        <ele>1348.6</ele>
        <time>2020-07-27T12:27:21Z</time>
      </trkpt>
      <trkpt lat="42.9025290" lon="0.0893320">
        <ele>1349.4</ele>
        <time>2020-07-27T12:27:29Z</time>
      </trkpt>
      <trkpt lat="42.9025820" lon="0.0895580">
        <ele>1349.6</ele>
        <time>2020-07-27T12:27:33Z</time>
      </trkpt>
      <trkpt lat="42.9026480" lon="0.0898330">
        <ele>1349.6</ele>
        <time>2020-07-27T12:27:38Z</time>
      </trkpt>
      <trkpt lat="42.9027120" lon="0.0902420">
        <ele>1350.4</ele>
        <time>2020-07-27T12:27:46Z</time>
      </trkpt>
      <trkpt lat="42.9027130" lon="0.0902890">
        <ele>1350.6</ele>
        <time>2020-07-27T12:27:47Z</time>
      </trkpt>
      <trkpt lat="42.9026950" lon="0.0904960">
        <ele>1351.6</ele>
        <time>2020-07-27T12:27:52Z</time>
      </trkpt>
      <trkpt lat="42.9026900" lon="0.0905370">
        <ele>1351.6</ele>
        <time>2020-07-27T12:27:53Z</time>
      </trkpt>
      <trkpt lat="42.9026770" lon="0.0906570">
        <ele>1352.6</ele>
        <time>2020-07-27T12:27:56Z</time>
      </trkpt>
      <trkpt lat="42.9026470" lon="0.0908830">
        <ele>1353.8</ele>
        <time>2020-07-27T12:28:02Z</time>
      </trkpt>
      <trkpt lat="42.9026450" lon="0.0909210">
        <ele>1354.0</ele>
        <time>2020-07-27T12:28:03Z</time>
      </trkpt>
      <trkpt lat="42.9026430" lon="0.0910780">
        <ele>1354.8</ele>
        <time>2020-07-27T12:28:07Z</time>
      </trkpt>
      <trkpt lat="42.9026500" lon="0.0912990">
        <ele>1355.8</ele>
        <time>2020-07-27T12:28:13Z</time>
      </trkpt>
      <trkpt lat="42.9026530" lon="0.0913360">
        <ele>1356.0</ele>
        <time>2020-07-27T12:28:14Z</time>
      </trkpt>
      <trkpt lat="42.9026710" lon="0.0914880">
        <ele>1356.8</ele>
        <time>2020-07-27T12:28:18Z</time>
      </trkpt>
      <trkpt lat="42.9027020" lon="0.0916780">
        <ele>1357.8</ele>
        <time>2020-07-27T12:28:23Z</time>
      </trkpt>
      <trkpt lat="42.9027110" lon="0.0917150">
        <ele>1358.0</ele>
        <time>2020-07-27T12:28:24Z</time>
      </trkpt>
      <trkpt lat="42.9027500" lon="0.0918690">
        <ele>1359.0</ele>
        <time>2020-07-27T12:28:28Z</time>
      </trkpt>
      <trkpt lat="42.9028010" lon="0.0920610">
        <ele>1359.6</ele>
        <time>2020-07-27T12:28:33Z</time>
      </trkpt>
      <trkpt lat="42.9028120" lon="0.0921000">
        <ele>1359.8</ele>
        <time>2020-07-27T12:28:34Z</time>
      </trkpt>
      <trkpt lat="42.9028750" lon="0.0923410">
        <ele>1361.0</ele>
        <time>2020-07-27T12:28:40Z</time>
      </trkpt>
      <trkpt lat="42.9029140" lon="0.0924990">
        <ele>1361.4</ele>
        <time>2020-07-27T12:28:44Z</time>
      </trkpt>
      <trkpt lat="42.9029300" lon="0.0925740">
        <ele>1361.8</ele>
        <time>2020-07-27T12:28:46Z</time>
      </trkpt>
      <trkpt lat="42.9029720" lon="0.0927730">
        <ele>1363.2</ele>
        <time>2020-07-27T12:28:51Z</time>
      </trkpt>
      <trkpt lat="42.9030060" lon="0.0929120">
        <ele>1363.4</ele>
        <time>2020-07-27T12:28:54Z</time>
      </trkpt>
      <trkpt lat="42.9030610" lon="0.0932190">
        <ele>1364.0</ele>
        <time>2020-07-27T12:29:01Z</time>
      </trkpt>
      <trkpt lat="42.9030810" lon="0.0933490">
        <ele>1364.4</ele>
        <time>2020-07-27T12:29:04Z</time>
      </trkpt>
      <trkpt lat="42.9031270" lon="0.0936590">
        <ele>1365.2</ele>
        <time>2020-07-27T12:29:11Z</time>
      </trkpt>
      <trkpt lat="42.9031530" lon="0.0937930">
        <ele>1365.2</ele>
        <time>2020-07-27T12:29:14Z</time>
      </trkpt>
      <trkpt lat="42.9032090" lon="0.0940730">
        <ele>1366.0</ele>
        <time>2020-07-27T12:29:20Z</time>
      </trkpt>
      <trkpt lat="42.9032210" lon="0.0942490">
        <ele>1366.6</ele>
        <time>2020-07-27T12:29:24Z</time>
      </trkpt>
      <trkpt lat="42.9032300" lon="0.0944230">
        <ele>1367.0</ele>
        <time>2020-07-27T12:29:28Z</time>
      </trkpt>
      <trkpt lat="42.9032520" lon="0.0946830">
        <ele>1368.0</ele>
        <time>2020-07-27T12:29:34Z</time>
      </trkpt>
      <trkpt lat="42.9032540" lon="0.0947260">
        <ele>1368.0</ele>
        <time>2020-07-27T12:29:35Z</time>
      </trkpt>
      <trkpt lat="42.9032630" lon="0.0949360">
        <ele>1368.8</ele>
        <time>2020-07-27T12:29:40Z</time>
      </trkpt>
      <trkpt lat="42.9032720" lon="0.0950600">
        <ele>1369.4</ele>
        <time>2020-07-27T12:29:43Z</time>
      </trkpt>
      <trkpt lat="42.9032890" lon="0.0951410">
        <ele>1370.0</ele>
        <time>2020-07-27T12:29:45Z</time>
      </trkpt>
      <trkpt lat="42.9032960" lon="0.0953510">
        <ele>1371.0</ele>
        <time>2020-07-27T12:29:50Z</time>
      </trkpt>
      <trkpt lat="42.9032970" lon="0.0953910">
        <ele>1371.2</ele>
        <time>2020-07-27T12:29:51Z</time>
      </trkpt>
      <trkpt lat="42.9032980" lon="0.0956260">
        <ele>1371.8</ele>
        <time>2020-07-27T12:29:57Z</time>
      </trkpt>
      <trkpt lat="42.9033010" lon="0.0957930">
        <ele>1372.4</ele>
        <time>2020-07-27T12:30:01Z</time>
      </trkpt>
      <trkpt lat="42.9033050" lon="0.0959150">
        <ele>1372.8</ele>
        <time>2020-07-27T12:30:04Z</time>
      </trkpt>
      <trkpt lat="42.9033090" lon="0.0961590">
        <ele>1373.8</ele>
        <time>2020-07-27T12:30:10Z</time>
      </trkpt>
      <trkpt lat="42.9033160" lon="0.0964050">
        <ele>1375.2</ele>
        <time>2020-07-27T12:30:16Z</time>
      </trkpt>
      <trkpt lat="42.9033190" lon="0.0965660">
        <ele>1375.6</ele>
        <time>2020-07-27T12:30:20Z</time>
      </trkpt>
      <trkpt lat="42.9033270" lon="0.0966850">
        <ele>1376.0</ele>
        <time>2020-07-27T12:30:23Z</time>
      </trkpt>
      <trkpt lat="42.9033300" lon="0.0968830">
        <ele>1377.0</ele>
        <time>2020-07-27T12:30:28Z</time>
      </trkpt>
      <trkpt lat="42.9033320" lon="0.0969230">
        <ele>1377.2</ele>
        <time>2020-07-27T12:30:29Z</time>
      </trkpt>
      <trkpt lat="42.9033360" lon="0.0971550">
        <ele>1378.0</ele>
        <time>2020-07-27T12:30:35Z</time>
      </trkpt>
      <trkpt lat="42.9033400" lon="0.0972330">
        <ele>1378.4</ele>
        <time>2020-07-27T12:30:37Z</time>
      </trkpt>
      <trkpt lat="42.9033560" lon="0.0974650">
        <ele>1379.2</ele>
        <time>2020-07-27T12:30:43Z</time>
      </trkpt>
      <trkpt lat="42.9033700" lon="0.0976260">
        <ele>1380.0</ele>
        <time>2020-07-27T12:30:47Z</time>
      </trkpt>
      <trkpt lat="42.9033770" lon="0.0977070">
        <ele>1380.2</ele>
        <time>2020-07-27T12:30:49Z</time>
      </trkpt>
      <trkpt lat="42.9034130" lon="0.0979880">
        <ele>1381.2</ele>
        <time>2020-07-27T12:30:56Z</time>
      </trkpt>
      <trkpt lat="42.9034270" lon="0.0981060">
        <ele>1381.8</ele>
        <time>2020-07-27T12:30:59Z</time>
      </trkpt>
      <trkpt lat="42.9034400" lon="0.0982250">
        <ele>1382.4</ele>
        <time>2020-07-27T12:31:02Z</time>
      </trkpt>
      <trkpt lat="42.9034630" lon="0.0984230">
        <ele>1383.4</ele>
        <time>2020-07-27T12:31:07Z</time>
      </trkpt>
      <trkpt lat="42.9034770" lon="0.0985360">
        <ele>1383.8</ele>
        <time>2020-07-27T12:31:10Z</time>
      </trkpt>
      <trkpt lat="42.9034880" lon="0.0986550">
        <ele>1384.4</ele>
        <time>2020-07-27T12:31:13Z</time>
      </trkpt>
      <trkpt lat="42.9035010" lon="0.0988660">
        <ele>1385.0</ele>
        <time>2020-07-27T12:31:18Z</time>
      </trkpt>
      <trkpt lat="42.9035060" lon="0.0989470">
        <ele>1385.4</ele>
        <time>2020-07-27T12:31:20Z</time>
      </trkpt>
      <trkpt lat="42.9035190" lon="0.0991320">
        <ele>1386.6</ele>
        <time>2020-07-27T12:31:25Z</time>
      </trkpt>
      <trkpt lat="42.9035180" lon="0.0991670">
        <ele>1386.8</ele>
        <time>2020-07-27T12:31:26Z</time>
      </trkpt>
      <trkpt lat="42.9035220" lon="0.0993050">
        <ele>1387.6</ele>
        <time>2020-07-27T12:31:30Z</time>
      </trkpt>
      <trkpt lat="42.9035240" lon="0.0994430">
        <ele>1388.8</ele>
        <time>2020-07-27T12:31:34Z</time>
      </trkpt>
      <trkpt lat="42.9035250" lon="0.0994770">
        <ele>1389.0</ele>
        <time>2020-07-27T12:31:35Z</time>
      </trkpt>
      <trkpt lat="42.9035230" lon="0.0996120">
        <ele>1389.8</ele>
        <time>2020-07-27T12:31:39Z</time>
      </trkpt>
      <trkpt lat="42.9035210" lon="0.0997440">
        <ele>1390.8</ele>
        <time>2020-07-27T12:31:43Z</time>
      </trkpt>
      <trkpt lat="42.9035250" lon="0.0999060">
        <ele>1391.6</ele>
        <time>2020-07-27T12:31:48Z</time>
      </trkpt>
      <trkpt lat="42.9035230" lon="0.0999380">
        <ele>1391.8</ele>
        <time>2020-07-27T12:31:49Z</time>
      </trkpt>
      <trkpt lat="42.9035050" lon="0.1000960">
        <ele>1393.0</ele>
        <time>2020-07-27T12:31:54Z</time>
      </trkpt>
      <trkpt lat="42.9034860" lon="0.1001590">
        <ele>1393.4</ele>
        <time>2020-07-27T12:31:56Z</time>
      </trkpt>
      <trkpt lat="42.9034610" lon="0.1002200">
        <ele>1394.2</ele>
        <time>2020-07-27T12:31:58Z</time>
      </trkpt>
      <trkpt lat="42.9033990" lon="0.1003340">
        <ele>1395.2</ele>
        <time>2020-07-27T12:32:02Z</time>
      </trkpt>
      <trkpt lat="42.9033480" lon="0.1004170">
        <ele>1396.0</ele>
        <time>2020-07-27T12:32:05Z</time>
      </trkpt>
      <trkpt lat="42.9032760" lon="0.1005360">
        <ele>1397.4</ele>
        <time>2020-07-27T12:32:09Z</time>
      </trkpt>
      <trkpt lat="42.9032250" lon="0.1006670">
        <ele>1398.2</ele>
        <time>2020-07-27T12:32:13Z</time>
      </trkpt>
      <trkpt lat="42.9032150" lon="0.1007010">
        <ele>1398.4</ele>
        <time>2020-07-27T12:32:14Z</time>
      </trkpt>
      <trkpt lat="42.9031920" lon="0.1008430">
        <ele>1399.4</ele>
        <time>2020-07-27T12:32:18Z</time>
      </trkpt>
      <trkpt lat="42.9031910" lon="0.1009190">
        <ele>1399.8</ele>
        <time>2020-07-27T12:32:20Z</time>
      </trkpt>
      <trkpt lat="42.9031970" lon="0.1010350">
        <ele>1400.4</ele>
        <time>2020-07-27T12:32:23Z</time>
      </trkpt>
      <trkpt lat="42.9032300" lon="0.1012030">
        <ele>1401.0</ele>
        <time>2020-07-27T12:32:27Z</time>
      </trkpt>
      <trkpt lat="42.9032780" lon="0.1014340">
        <ele>1401.4</ele>
        <time>2020-07-27T12:32:32Z</time>
      </trkpt>
      <trkpt lat="42.9033070" lon="0.1015700">
        <ele>1401.6</ele>
        <time>2020-07-27T12:32:35Z</time>
      </trkpt>
      <trkpt lat="42.9033230" lon="0.1016580">
        <ele>1401.6</ele>
        <time>2020-07-27T12:32:37Z</time>
      </trkpt>
      <trkpt lat="42.9033490" lon="0.1019090">
        <ele>1401.8</ele>
        <time>2020-07-27T12:32:43Z</time>
      </trkpt>
      <trkpt lat="42.9033710" lon="0.1021190">
        <ele>1402.4</ele>
        <time>2020-07-27T12:32:48Z</time>
      </trkpt>
      <trkpt lat="42.9033800" lon="0.1022390">
        <ele>1402.8</ele>
        <time>2020-07-27T12:32:51Z</time>
      </trkpt>
      <trkpt lat="42.9033930" lon="0.1023540">
        <ele>1403.4</ele>
        <time>2020-07-27T12:32:54Z</time>
      </trkpt>
      <trkpt lat="42.9034170" lon="0.1025410">
        <ele>1404.4</ele>
        <time>2020-07-27T12:32:59Z</time>
      </trkpt>
      <trkpt lat="42.9034240" lon="0.1025780">
        <ele>1404.6</ele>
        <time>2020-07-27T12:33:00Z</time>
      </trkpt>
      <trkpt lat="42.9034620" lon="0.1027480">
        <ele>1405.8</ele>
        <time>2020-07-27T12:33:05Z</time>
      </trkpt>
      <trkpt lat="42.9034810" lon="0.1028110">
        <ele>1406.0</ele>
        <time>2020-07-27T12:33:07Z</time>
      </trkpt>
      <trkpt lat="42.9035290" lon="0.1029340">
        <ele>1406.8</ele>
        <time>2020-07-27T12:33:11Z</time>
      </trkpt>
      <trkpt lat="42.9036010" lon="0.1030830">
        <ele>1407.8</ele>
        <time>2020-07-27T12:33:16Z</time>
      </trkpt>
      <trkpt lat="42.9036160" lon="0.1031130">
        <ele>1407.8</ele>
        <time>2020-07-27T12:33:17Z</time>
      </trkpt>
      <trkpt lat="42.9037010" lon="0.1032870">
        <ele>1409.0</ele>
        <time>2020-07-27T12:33:23Z</time>
      </trkpt>
      <trkpt lat="42.9037830" lon="0.1034260">
        <ele>1409.6</ele>
        <time>2020-07-27T12:33:28Z</time>
      </trkpt>
      <trkpt lat="42.9038220" lon="0.1034730">
        <ele>1409.8</ele>
        <time>2020-07-27T12:33:30Z</time>
      </trkpt>
      <trkpt lat="42.9039280" lon="0.1035830">
        <ele>1410.8</ele>
        <time>2020-07-27T12:33:35Z</time>
      </trkpt>
      <trkpt lat="42.9039480" lon="0.1036040">
        <ele>1411.0</ele>
        <time>2020-07-27T12:33:36Z</time>
      </trkpt>
      <trkpt lat="42.9041020" lon="0.1036760">
        <ele>1412.0</ele>
        <time>2020-07-27T12:33:42Z</time>
      </trkpt>
      <trkpt lat="42.9042470" lon="0.1036800">
        <ele>1413.2</ele>
        <time>2020-07-27T12:33:47Z</time>
      </trkpt>
      <trkpt lat="42.9042790" lon="0.1036710">
        <ele>1413.4</ele>
        <time>2020-07-27T12:33:48Z</time>
      </trkpt>
      <trkpt lat="42.9043990" lon="0.1035930">
        <ele>1414.2</ele>
        <time>2020-07-27T12:33:52Z</time>
      </trkpt>
      <trkpt lat="42.9044540" lon="0.1035310">
        <ele>1414.4</ele>
        <time>2020-07-27T12:33:54Z</time>
      </trkpt>
      <trkpt lat="42.9046570" lon="0.1032880">
        <ele>1414.8</ele>
        <time>2020-07-27T12:34:02Z</time>
      </trkpt>
      <trkpt lat="42.9047180" lon="0.1032150">
        <ele>1415.2</ele>
        <time>2020-07-27T12:34:05Z</time>
      </trkpt>
      <trkpt lat="42.9048420" lon="0.1030760">
        <ele>1416.4</ele>
        <time>2020-07-27T12:34:11Z</time>
      </trkpt>
      <trkpt lat="42.9049230" lon="0.1029860">
        <ele>1417.6</ele>
        <time>2020-07-27T12:34:15Z</time>
      </trkpt>
      <trkpt lat="42.9050140" lon="0.1028630">
        <ele>1418.8</ele>
        <time>2020-07-27T12:34:20Z</time>
      </trkpt>
      <trkpt lat="42.9050320" lon="0.1028380">
        <ele>1419.0</ele>
        <time>2020-07-27T12:34:21Z</time>
      </trkpt>
      <trkpt lat="42.9051110" lon="0.1027410">
        <ele>1420.0</ele>
        <time>2020-07-27T12:34:25Z</time>
      </trkpt>
      <trkpt lat="42.9051960" lon="0.1026110">
        <ele>1421.0</ele>
        <time>2020-07-27T12:34:30Z</time>
      </trkpt>
      <trkpt lat="42.9052380" lon="0.1024790">
        <ele>1422.0</ele>
        <time>2020-07-27T12:34:34Z</time>
      </trkpt>
      <trkpt lat="42.9052800" lon="0.1023520">
        <ele>1423.0</ele>
        <time>2020-07-27T12:34:38Z</time>
      </trkpt>
      <trkpt lat="42.9052880" lon="0.1023190">
        <ele>1423.2</ele>
        <time>2020-07-27T12:34:39Z</time>
      </trkpt>
      <trkpt lat="42.9053000" lon="0.1021340">
        <ele>1424.0</ele>
        <time>2020-07-27T12:34:44Z</time>
      </trkpt>
      <trkpt lat="42.9052980" lon="0.1020970">
        <ele>1424.4</ele>
        <time>2020-07-27T12:34:45Z</time>
      </trkpt>
      <trkpt lat="42.9052920" lon="0.1019300">
        <ele>1425.4</ele>
        <time>2020-07-27T12:34:50Z</time>
      </trkpt>
      <trkpt lat="42.9052790" lon="0.1017880">
        <ele>1426.2</ele>
        <time>2020-07-27T12:34:54Z</time>
      </trkpt>
      <trkpt lat="42.9052800" lon="0.1017130">
        <ele>1426.6</ele>
        <time>2020-07-27T12:34:56Z</time>
      </trkpt>
      <trkpt lat="42.9053290" lon="0.1015920">
        <ele>1427.6</ele>
        <time>2020-07-27T12:35:00Z</time>
      </trkpt>
      <trkpt lat="42.9054370" lon="0.1015860">
        <ele>1428.4</ele>
        <time>2020-07-27T12:35:04Z</time>
      </trkpt>
      <trkpt lat="42.9054610" lon="0.1016030">
        <ele>1428.6</ele>
        <time>2020-07-27T12:35:05Z</time>
      </trkpt>
      <trkpt lat="42.9055240" lon="0.1017060">
        <ele>1429.2</ele>
        <time>2020-07-27T12:35:09Z</time>
      </trkpt>
      <trkpt lat="42.9055420" lon="0.1017680">
        <ele>1429.8</ele>
        <time>2020-07-27T12:35:11Z</time>
      </trkpt>
      <trkpt lat="42.9055740" lon="0.1019280">
        <ele>1430.8</ele>
        <time>2020-07-27T12:35:16Z</time>
      </trkpt>
      <trkpt lat="42.9055820" lon="0.1019600">
        <ele>1431.0</ele>
        <time>2020-07-27T12:35:17Z</time>
      </trkpt>
      <trkpt lat="42.9055970" lon="0.1021250">
        <ele>1431.8</ele>
        <time>2020-07-27T12:35:22Z</time>
      </trkpt>
      <trkpt lat="42.9056010" lon="0.1021570">
        <ele>1432.0</ele>
        <time>2020-07-27T12:35:23Z</time>
      </trkpt>
      <trkpt lat="42.9056150" lon="0.1022860">
        <ele>1433.0</ele>
        <time>2020-07-27T12:35:27Z</time>
      </trkpt>
      <trkpt lat="42.9056180" lon="0.1024540">
        <ele>1434.2</ele>
        <time>2020-07-27T12:35:32Z</time>
      </trkpt>
      <trkpt lat="42.9056190" lon="0.1024890">
        <ele>1434.2</ele>
        <time>2020-07-27T12:35:33Z</time>
      </trkpt>
      <trkpt lat="42.9056150" lon="0.1026570">
        <ele>1435.0</ele>
        <time>2020-07-27T12:35:38Z</time>
      </trkpt>
      <trkpt lat="42.9056040" lon="0.1028170">
        <ele>1435.8</ele>
        <time>2020-07-27T12:35:43Z</time>
      </trkpt>
      <trkpt lat="42.9056030" lon="0.1028500">
        <ele>1436.0</ele>
        <time>2020-07-27T12:35:44Z</time>
      </trkpt>
      <trkpt lat="42.9056030" lon="0.1029830">
        <ele>1437.2</ele>
        <time>2020-07-27T12:35:48Z</time>
      </trkpt>
      <trkpt lat="42.9055960" lon="0.1030820">
        <ele>1437.6</ele>
        <time>2020-07-27T12:35:51Z</time>
      </trkpt>
      <trkpt lat="42.9055810" lon="0.1031770">
        <ele>1438.2</ele>
        <time>2020-07-27T12:35:54Z</time>
      </trkpt>
      <trkpt lat="42.9055600" lon="0.1033380">
        <ele>1439.2</ele>
        <time>2020-07-27T12:35:59Z</time>
      </trkpt>
      <trkpt lat="42.9055300" lon="0.1035470">
        <ele>1440.4</ele>
        <time>2020-07-27T12:36:05Z</time>
      </trkpt>
      <trkpt lat="42.9055100" lon="0.1036520">
        <ele>1440.6</ele>
        <time>2020-07-27T12:36:08Z</time>
      </trkpt>
      <trkpt lat="42.9054880" lon="0.1037570">
        <ele>1441.2</ele>
        <time>2020-07-27T12:36:11Z</time>
      </trkpt>
      <trkpt lat="42.9054350" lon="0.1039590">
        <ele>1442.4</ele>
        <time>2020-07-27T12:36:17Z</time>
      </trkpt>
      <trkpt lat="42.9053970" lon="0.1040480">
        <ele>1442.8</ele>
        <time>2020-07-27T12:36:20Z</time>
      </trkpt>
      <trkpt lat="42.9053210" lon="0.1041550">
        <ele>1443.8</ele>
        <time>2020-07-27T12:36:24Z</time>
      </trkpt>
      <trkpt lat="42.9052700" lon="0.1042340">
        <ele>1444.4</ele>
        <time>2020-07-27T12:36:27Z</time>
      </trkpt>
      <trkpt lat="42.9052350" lon="0.1042800">
        <ele>1444.8</ele>
        <time>2020-07-27T12:36:29Z</time>
      </trkpt>
      <trkpt lat="42.9051820" lon="0.1044240">
        <ele>1445.4</ele>
        <time>2020-07-27T12:36:34Z</time>
      </trkpt>
      <trkpt lat="42.9051810" lon="0.1044580">
        <ele>1445.8</ele>
        <time>2020-07-27T12:36:35Z</time>
      </trkpt>
      <trkpt lat="42.9052260" lon="0.1045810">
        <ele>1446.6</ele>
        <time>2020-07-27T12:36:39Z</time>
      </trkpt>
      <trkpt lat="42.9052700" lon="0.1046190">
        <ele>1446.8</ele>
        <time>2020-07-27T12:36:41Z</time>
      </trkpt>
      <trkpt lat="42.9053490" lon="0.1046290">
        <ele>1447.4</ele>
        <time>2020-07-27T12:36:44Z</time>
      </trkpt>
      <trkpt lat="42.9054290" lon="0.1046030">
        <ele>1448.0</ele>
        <time>2020-07-27T12:36:47Z</time>
      </trkpt>
      <trkpt lat="42.9055170" lon="0.1045280">
        <ele>1448.8</ele>
        <time>2020-07-27T12:36:51Z</time>
      </trkpt>
      <trkpt lat="42.9055370" lon="0.1045040">
        <ele>1449.2</ele>
        <time>2020-07-27T12:36:52Z</time>
      </trkpt>
      <trkpt lat="42.9056180" lon="0.1043770">
        <ele>1450.2</ele>
        <time>2020-07-27T12:36:57Z</time>
      </trkpt>
      <trkpt lat="42.9056460" lon="0.1043240">
        <ele>1450.6</ele>
        <time>2020-07-27T12:36:59Z</time>
      </trkpt>
      <trkpt lat="42.9057080" lon="0.1042140">
        <ele>1451.2</ele>
        <time>2020-07-27T12:37:03Z</time>
      </trkpt>
      <trkpt lat="42.9057640" lon="0.1041030">
        <ele>1452.0</ele>
        <time>2020-07-27T12:37:07Z</time>
      </trkpt>
      <trkpt lat="42.9057940" lon="0.1040500">
        <ele>1452.4</ele>
        <time>2020-07-27T12:37:09Z</time>
      </trkpt>
      <trkpt lat="42.9058780" lon="0.1038760">
        <ele>1453.4</ele>
        <time>2020-07-27T12:37:15Z</time>
      </trkpt>
      <trkpt lat="42.9059300" lon="0.1037590">
        <ele>1454.0</ele>
        <time>2020-07-27T12:37:19Z</time>
      </trkpt>
      <trkpt lat="42.9059570" lon="0.1037030">
        <ele>1454.4</ele>
        <time>2020-07-27T12:37:21Z</time>
      </trkpt>
      <trkpt lat="42.9060240" lon="0.1035170">
        <ele>1455.4</ele>
        <time>2020-07-27T12:37:27Z</time>
      </trkpt>
      <trkpt lat="42.9060320" lon="0.1034830">
        <ele>1455.4</ele>
        <time>2020-07-27T12:37:28Z</time>
      </trkpt>
      <trkpt lat="42.9060750" lon="0.1033090">
        <ele>1456.2</ele>
        <time>2020-07-27T12:37:33Z</time>
      </trkpt>
      <trkpt lat="42.9061080" lon="0.1032060">
        <ele>1456.8</ele>
        <time>2020-07-27T12:37:36Z</time>
      </trkpt>
      <trkpt lat="42.9061770" lon="0.1030530">
        <ele>1457.4</ele>
        <time>2020-07-27T12:37:41Z</time>
      </trkpt>
      <trkpt lat="42.9062120" lon="0.1029640">
        <ele>1458.0</ele>
        <time>2020-07-27T12:37:44Z</time>
      </trkpt>
      <trkpt lat="42.9062630" lon="0.1028410">
        <ele>1458.8</ele>
        <time>2020-07-27T12:37:48Z</time>
      </trkpt>
      <trkpt lat="42.9062780" lon="0.1028120">
        <ele>1458.8</ele>
        <time>2020-07-27T12:37:49Z</time>
      </trkpt>
      <trkpt lat="42.9063030" lon="0.1027480">
        <ele>1459.2</ele>
        <time>2020-07-27T12:37:51Z</time>
      </trkpt>
      <trkpt lat="42.9063350" lon="0.1026490">
        <ele>1459.8</ele>
        <time>2020-07-27T12:37:54Z</time>
      </trkpt>
      <trkpt lat="42.9063640" lon="0.1024810">
        <ele>1460.4</ele>
        <time>2020-07-27T12:37:59Z</time>
      </trkpt>
      <trkpt lat="42.9063720" lon="0.1024100">
        <ele>1460.6</ele>
        <time>2020-07-27T12:38:01Z</time>
      </trkpt>
      <trkpt lat="42.9063790" lon="0.1021970">
        <ele>1461.8</ele>
        <time>2020-07-27T12:38:07Z</time>
      </trkpt>
      <trkpt lat="42.9063840" lon="0.1020130">
        <ele>1463.0</ele>
        <time>2020-07-27T12:38:12Z</time>
      </trkpt>
      <trkpt lat="42.9063950" lon="0.1019800">
        <ele>1463.2</ele>
        <time>2020-07-27T12:38:13Z</time>
      </trkpt>
      <trkpt lat="42.9064800" lon="0.1019270">
        <ele>1464.0</ele>
        <time>2020-07-27T12:38:17Z</time>
      </trkpt>
      <trkpt lat="42.9065690" lon="0.1020060">
        <ele>1464.8</ele>
        <time>2020-07-27T12:38:22Z</time>
      </trkpt>
      <trkpt lat="42.9065810" lon="0.1020660">
        <ele>1465.0</ele>
        <time>2020-07-27T12:38:24Z</time>
      </trkpt>
      <trkpt lat="42.9065770" lon="0.1021600">
        <ele>1466.0</ele>
        <time>2020-07-27T12:38:27Z</time>
      </trkpt>
      <trkpt lat="42.9065710" lon="0.1021910">
        <ele>1466.2</ele>
        <time>2020-07-27T12:38:28Z</time>
      </trkpt>
      <trkpt lat="42.9065390" lon="0.1023840">
        <ele>1467.0</ele>
        <time>2020-07-27T12:38:34Z</time>
      </trkpt>
      <trkpt lat="42.9065310" lon="0.1024490">
        <ele>1467.4</ele>
        <time>2020-07-27T12:38:36Z</time>
      </trkpt>
      <trkpt lat="42.9065010" lon="0.1026430">
        <ele>1468.6</ele>
        <time>2020-07-27T12:38:42Z</time>
      </trkpt>
      <trkpt lat="42.9064980" lon="0.1026750">
        <ele>1468.8</ele>
        <time>2020-07-27T12:38:43Z</time>
      </trkpt>
      <trkpt lat="42.9064800" lon="0.1028080">
        <ele>1469.6</ele>
        <time>2020-07-27T12:38:47Z</time>
      </trkpt>
      <trkpt lat="42.9064560" lon="0.1030220">
        <ele>1470.8</ele>
        <time>2020-07-27T12:38:53Z</time>
      </trkpt>
      <trkpt lat="42.9064270" lon="0.1032360">
        <ele>1471.8</ele>
        <time>2020-07-27T12:38:59Z</time>
      </trkpt>
      <trkpt lat="42.9064170" lon="0.1033740">
        <ele>1473.0</ele>
        <time>2020-07-27T12:39:03Z</time>
      </trkpt>
      <trkpt lat="42.9064150" lon="0.1034080">
        <ele>1473.0</ele>
        <time>2020-07-27T12:39:04Z</time>
      </trkpt>
      <trkpt lat="42.9063980" lon="0.1035400">
        <ele>1474.0</ele>
        <time>2020-07-27T12:39:08Z</time>
      </trkpt>
      <trkpt lat="42.9063800" lon="0.1037050">
        <ele>1475.4</ele>
        <time>2020-07-27T12:39:13Z</time>
      </trkpt>
      <trkpt lat="42.9063760" lon="0.1037370">
        <ele>1475.4</ele>
        <time>2020-07-27T12:39:14Z</time>
      </trkpt>
      <trkpt lat="42.9063610" lon="0.1038960">
        <ele>1476.4</ele>
        <time>2020-07-27T12:39:19Z</time>
      </trkpt>
      <trkpt lat="42.9063440" lon="0.1040260">
        <ele>1477.2</ele>
        <time>2020-07-27T12:39:23Z</time>
      </trkpt>
      <trkpt lat="42.9063420" lon="0.1040590">
        <ele>1477.4</ele>
        <time>2020-07-27T12:39:24Z</time>
      </trkpt>
      <trkpt lat="42.9063220" lon="0.1042770">
        <ele>1478.4</ele>
        <time>2020-07-27T12:39:31Z</time>
      </trkpt>
      <trkpt lat="42.9063170" lon="0.1043070">
        <ele>1478.6</ele>
        <time>2020-07-27T12:39:32Z</time>
      </trkpt>
      <trkpt lat="42.9062960" lon="0.1044620">
        <ele>1479.6</ele>
        <time>2020-07-27T12:39:37Z</time>
      </trkpt>
      <trkpt lat="42.9062880" lon="0.1045940">
        <ele>1480.4</ele>
        <time>2020-07-27T12:39:41Z</time>
      </trkpt>
      <trkpt lat="42.9062840" lon="0.1046260">
        <ele>1480.6</ele>
        <time>2020-07-27T12:39:42Z</time>
      </trkpt>
      <trkpt lat="42.9062660" lon="0.1047830">
        <ele>1481.8</ele>
        <time>2020-07-27T12:39:47Z</time>
      </trkpt>
      <trkpt lat="42.9062630" lon="0.1049190">
        <ele>1482.4</ele>
        <time>2020-07-27T12:39:51Z</time>
      </trkpt>
      <trkpt lat="42.9062620" lon="0.1049530">
        <ele>1482.6</ele>
        <time>2020-07-27T12:39:52Z</time>
      </trkpt>
      <trkpt lat="42.9062680" lon="0.1051520">
        <ele>1483.6</ele>
        <time>2020-07-27T12:39:58Z</time>
      </trkpt>
      <trkpt lat="42.9062650" lon="0.1052900">
        <ele>1484.2</ele>
        <time>2020-07-27T12:40:02Z</time>
      </trkpt>
      <trkpt lat="42.9062560" lon="0.1054280">
        <ele>1485.0</ele>
        <time>2020-07-27T12:40:06Z</time>
      </trkpt>
      <trkpt lat="42.9062230" lon="0.1055520">
        <ele>1485.8</ele>
        <time>2020-07-27T12:40:10Z</time>
      </trkpt>
      <trkpt lat="42.9062120" lon="0.1055800">
        <ele>1486.0</ele>
        <time>2020-07-27T12:40:11Z</time>
      </trkpt>
      <trkpt lat="42.9061650" lon="0.1057330">
        <ele>1487.2</ele>
        <time>2020-07-27T12:40:16Z</time>
      </trkpt>
      <trkpt lat="42.9061290" lon="0.1059280">
        <ele>1488.4</ele>
        <time>2020-07-27T12:40:22Z</time>
      </trkpt>
      <trkpt lat="42.9061290" lon="0.1059940">
        <ele>1488.8</ele>
        <time>2020-07-27T12:40:24Z</time>
      </trkpt>
      <trkpt lat="42.9061310" lon="0.1060930">
        <ele>1489.6</ele>
        <time>2020-07-27T12:40:27Z</time>
      </trkpt>
      <trkpt lat="42.9061560" lon="0.1062190">
        <ele>1489.8</ele>
        <time>2020-07-27T12:40:31Z</time>
      </trkpt>
      <trkpt lat="42.9061630" lon="0.1062490">
        <ele>1490.0</ele>
        <time>2020-07-27T12:40:32Z</time>
      </trkpt>
      <trkpt lat="42.9061970" lon="0.1063960">
        <ele>1492.0</ele>
        <time>2020-07-27T12:40:37Z</time>
      </trkpt>
      <trkpt lat="42.9062170" lon="0.1064840">
        <ele>1492.8</ele>
        <time>2020-07-27T12:40:40Z</time>
      </trkpt>
      <trkpt lat="42.9062220" lon="0.1065140">
        <ele>1493.0</ele>
        <time>2020-07-27T12:40:41Z</time>
      </trkpt>
      <trkpt lat="42.9062670" lon="0.1066900">
        <ele>1493.8</ele>
        <time>2020-07-27T12:40:47Z</time>
      </trkpt>
      <trkpt lat="42.9062810" lon="0.1067560">
        <ele>1494.2</ele>
        <time>2020-07-27T12:40:49Z</time>
      </trkpt>
      <trkpt lat="42.9062980" lon="0.1068530">
        <ele>1494.8</ele>
        <time>2020-07-27T12:40:52Z</time>
      </trkpt>
      <trkpt lat="42.9063250" lon="0.1069810">
        <ele>1496.2</ele>
        <time>2020-07-27T12:40:56Z</time>
      </trkpt>
      <trkpt lat="42.9063360" lon="0.1070480">
        <ele>1496.4</ele>
        <time>2020-07-27T12:40:58Z</time>
      </trkpt>
      <trkpt lat="42.9063450" lon="0.1071470">
        <ele>1497.2</ele>
        <time>2020-07-27T12:41:01Z</time>
      </trkpt>
      <trkpt lat="42.9063470" lon="0.1072750">
        <ele>1498.0</ele>
        <time>2020-07-27T12:41:05Z</time>
      </trkpt>
      <trkpt lat="42.9063470" lon="0.1073070">
        <ele>1498.0</ele>
        <time>2020-07-27T12:41:06Z</time>
      </trkpt>
      <trkpt lat="42.9063420" lon="0.1074680">
        <ele>1499.4</ele>
        <time>2020-07-27T12:41:11Z</time>
      </trkpt>
      <trkpt lat="42.9063460" lon="0.1076230">
        <ele>1500.0</ele>
        <time>2020-07-27T12:41:16Z</time>
      </trkpt>
      <trkpt lat="42.9063440" lon="0.1076540">
        <ele>1500.2</ele>
        <time>2020-07-27T12:41:17Z</time>
      </trkpt>
      <trkpt lat="42.9063440" lon="0.1078120">
        <ele>1501.2</ele>
        <time>2020-07-27T12:41:22Z</time>
      </trkpt>
      <trkpt lat="42.9063510" lon="0.1078750">
        <ele>1501.6</ele>
        <time>2020-07-27T12:41:24Z</time>
      </trkpt>
      <trkpt lat="42.9063560" lon="0.1079980">
        <ele>1502.4</ele>
        <time>2020-07-27T12:41:28Z</time>
      </trkpt>
      <trkpt lat="42.9063550" lon="0.1081240">
        <ele>1503.4</ele>
        <time>2020-07-27T12:41:32Z</time>
      </trkpt>
      <trkpt lat="42.9063570" lon="0.1081550">
        <ele>1503.6</ele>
        <time>2020-07-27T12:41:33Z</time>
      </trkpt>
      <trkpt lat="42.9063720" lon="0.1083380">
        <ele>1504.4</ele>
        <time>2020-07-27T12:41:39Z</time>
      </trkpt>
      <trkpt lat="42.9063850" lon="0.1084290">
        <ele>1505.0</ele>
        <time>2020-07-27T12:41:42Z</time>
      </trkpt>
      <trkpt lat="42.9063900" lon="0.1084940">
        <ele>1505.6</ele>
        <time>2020-07-27T12:41:44Z</time>
      </trkpt>
      <trkpt lat="42.9064050" lon="0.1086510">
        <ele>1506.8</ele>
        <time>2020-07-27T12:41:49Z</time>
      </trkpt>
      <trkpt lat="42.9064220" lon="0.1087720">
        <ele>1507.6</ele>
        <time>2020-07-27T12:41:53Z</time>
      </trkpt>
      <trkpt lat="42.9064250" lon="0.1088040">
        <ele>1507.8</ele>
        <time>2020-07-27T12:41:54Z</time>
      </trkpt>
      <trkpt lat="42.9064490" lon="0.1089880">
        <ele>1508.8</ele>
        <time>2020-07-27T12:42:00Z</time>
      </trkpt>
      <trkpt lat="42.9064560" lon="0.1090460">
        <ele>1509.4</ele>
        <time>2020-07-27T12:42:02Z</time>
      </trkpt>
      <trkpt lat="42.9064570" lon="0.1091050">
        <ele>1509.8</ele>
        <time>2020-07-27T12:42:04Z</time>
      </trkpt>
      <trkpt lat="42.9064780" lon="0.1092530">
        <ele>1510.8</ele>
        <time>2020-07-27T12:42:09Z</time>
      </trkpt>
      <trkpt lat="42.9064850" lon="0.1093110">
        <ele>1511.4</ele>
        <time>2020-07-27T12:42:11Z</time>
      </trkpt>
      <trkpt lat="42.9065030" lon="0.1093980">
        <ele>1512.0</ele>
        <time>2020-07-27T12:42:14Z</time>
      </trkpt>
      <trkpt lat="42.9065260" lon="0.1095160">
        <ele>1512.6</ele>
        <time>2020-07-27T12:42:18Z</time>
      </trkpt>
      <trkpt lat="42.9065420" lon="0.1095720">
        <ele>1513.0</ele>
        <time>2020-07-27T12:42:20Z</time>
      </trkpt>
      <trkpt lat="42.9065740" lon="0.1097170">
        <ele>1514.2</ele>
        <time>2020-07-27T12:42:25Z</time>
      </trkpt>
      <trkpt lat="42.9065820" lon="0.1097440">
        <ele>1514.4</ele>
        <time>2020-07-27T12:42:26Z</time>
      </trkpt>
      <trkpt lat="42.9066100" lon="0.1098550">
        <ele>1515.4</ele>
        <time>2020-07-27T12:42:30Z</time>
      </trkpt>
      <trkpt lat="42.9066500" lon="0.1099900">
        <ele>1516.6</ele>
        <time>2020-07-27T12:42:35Z</time>
      </trkpt>
      <trkpt lat="42.9066690" lon="0.1100430">
        <ele>1517.0</ele>
        <time>2020-07-27T12:42:37Z</time>
      </trkpt>
      <trkpt lat="42.9066960" lon="0.1101310">
        <ele>1517.6</ele>
        <time>2020-07-27T12:42:40Z</time>
      </trkpt>
      <trkpt lat="42.9067340" lon="0.1102530">
        <ele>1518.2</ele>
        <time>2020-07-27T12:42:44Z</time>
      </trkpt>
      <trkpt lat="42.9067660" lon="0.1103510">
        <ele>1518.8</ele>
        <time>2020-07-27T12:42:47Z</time>
      </trkpt>
      <trkpt lat="42.9068150" lon="0.1105090">
        <ele>1519.8</ele>
        <time>2020-07-27T12:42:52Z</time>
      </trkpt>
      <trkpt lat="42.9068360" lon="0.1105760">
        <ele>1520.4</ele>
        <time>2020-07-27T12:42:54Z</time>
      </trkpt>
      <trkpt lat="42.9068640" lon="0.1106670">
        <ele>1521.0</ele>
        <time>2020-07-27T12:42:57Z</time>
      </trkpt>
      <trkpt lat="42.9068930" lon="0.1107850">
        <ele>1521.8</ele>
        <time>2020-07-27T12:43:01Z</time>
      </trkpt>
      <trkpt lat="42.9069000" lon="0.1108130">
        <ele>1522.0</ele>
        <time>2020-07-27T12:43:02Z</time>
      </trkpt>
      <trkpt lat="42.9069360" lon="0.1109520">
        <ele>1523.2</ele>
        <time>2020-07-27T12:43:07Z</time>
      </trkpt>
      <trkpt lat="42.9069600" lon="0.1110670">
        <ele>1524.0</ele>
        <time>2020-07-27T12:43:11Z</time>
      </trkpt>
      <trkpt lat="42.9069740" lon="0.1111240">
        <ele>1524.4</ele>
        <time>2020-07-27T12:43:13Z</time>
      </trkpt>
      <trkpt lat="42.9070220" lon="0.1112940">
        <ele>1525.4</ele>
        <time>2020-07-27T12:43:19Z</time>
      </trkpt>
      <trkpt lat="42.9070290" lon="0.1113240">
        <ele>1525.6</ele>
        <time>2020-07-27T12:43:20Z</time>
      </trkpt>
      <trkpt lat="42.9070560" lon="0.1114470">
        <ele>1526.4</ele>
        <time>2020-07-27T12:43:24Z</time>
      </trkpt>
      <trkpt lat="42.9070850" lon="0.1115680">
        <ele>1527.6</ele>
        <time>2020-07-27T12:43:28Z</time>
      </trkpt>
      <trkpt lat="42.9071190" lon="0.1116820">
        <ele>1528.2</ele>
        <time>2020-07-27T12:43:32Z</time>
      </trkpt>
      <trkpt lat="42.9071460" lon="0.1118010">
        <ele>1528.8</ele>
        <time>2020-07-27T12:43:36Z</time>
      </trkpt>
      <trkpt lat="42.9071760" lon="0.1119200">
        <ele>1529.4</ele>
        <time>2020-07-27T12:43:40Z</time>
      </trkpt>
      <trkpt lat="42.9071930" lon="0.1120100">
        <ele>1529.6</ele>
        <time>2020-07-27T12:43:43Z</time>
      </trkpt>
      <trkpt lat="42.9072130" lon="0.1121990">
        <ele>1530.8</ele>
        <time>2020-07-27T12:43:49Z</time>
      </trkpt>
      <trkpt lat="42.9072170" lon="0.1122620">
        <ele>1531.2</ele>
        <time>2020-07-27T12:43:51Z</time>
      </trkpt>
      <trkpt lat="42.9072250" lon="0.1123900">
        <ele>1532.0</ele>
        <time>2020-07-27T12:43:55Z</time>
      </trkpt>
      <trkpt lat="42.9072310" lon="0.1125490">
        <ele>1533.2</ele>
        <time>2020-07-27T12:44:00Z</time>
      </trkpt>
      <trkpt lat="42.9072320" lon="0.1127080">
        <ele>1534.4</ele>
        <time>2020-07-27T12:44:05Z</time>
      </trkpt>
      <trkpt lat="42.9072350" lon="0.1128970">
        <ele>1535.4</ele>
        <time>2020-07-27T12:44:11Z</time>
      </trkpt>
      <trkpt lat="42.9072340" lon="0.1129300">
        <ele>1535.4</ele>
        <time>2020-07-27T12:44:12Z</time>
      </trkpt>
      <trkpt lat="42.9072390" lon="0.1130840">
        <ele>1536.4</ele>
        <time>2020-07-27T12:44:17Z</time>
      </trkpt>
      <trkpt lat="42.9072360" lon="0.1132110">
        <ele>1537.0</ele>
        <time>2020-07-27T12:44:21Z</time>
      </trkpt>
      <trkpt lat="42.9072410" lon="0.1132730">
        <ele>1537.6</ele>
        <time>2020-07-27T12:44:23Z</time>
      </trkpt>
      <trkpt lat="42.9072500" lon="0.1133990">
        <ele>1538.6</ele>
        <time>2020-07-27T12:44:27Z</time>
      </trkpt>
      <trkpt lat="42.9072530" lon="0.1134630">
        <ele>1538.8</ele>
        <time>2020-07-27T12:44:29Z</time>
      </trkpt>
      <trkpt lat="42.9072640" lon="0.1135880">
        <ele>1539.6</ele>
        <time>2020-07-27T12:44:33Z</time>
      </trkpt>
      <trkpt lat="42.9072850" lon="0.1137440">
        <ele>1540.6</ele>
        <time>2020-07-27T12:44:38Z</time>
      </trkpt>
      <trkpt lat="42.9073050" lon="0.1139050">
        <ele>1541.6</ele>
        <time>2020-07-27T12:44:43Z</time>
      </trkpt>
      <trkpt lat="42.9073210" lon="0.1140310">
        <ele>1542.4</ele>
        <time>2020-07-27T12:44:47Z</time>
      </trkpt>
      <trkpt lat="42.9073250" lon="0.1140940">
        <ele>1542.8</ele>
        <time>2020-07-27T12:44:49Z</time>
      </trkpt>
      <trkpt lat="42.9073430" lon="0.1142490">
        <ele>1544.0</ele>
        <time>2020-07-27T12:44:54Z</time>
      </trkpt>
      <trkpt lat="42.9073470" lon="0.1142800">
        <ele>1544.2</ele>
        <time>2020-07-27T12:44:55Z</time>
      </trkpt>
      <trkpt lat="42.9073500" lon="0.1144090">
        <ele>1545.0</ele>
        <time>2020-07-27T12:44:59Z</time>
      </trkpt>
      <trkpt lat="42.9073560" lon="0.1145700">
        <ele>1546.0</ele>
        <time>2020-07-27T12:45:04Z</time>
      </trkpt>
      <trkpt lat="42.9073580" lon="0.1146020">
        <ele>1546.0</ele>
        <time>2020-07-27T12:45:05Z</time>
      </trkpt>
      <trkpt lat="42.9073580" lon="0.1148320">
        <ele>1547.2</ele>
        <time>2020-07-27T12:45:12Z</time>
      </trkpt>
      <trkpt lat="42.9073450" lon="0.1150240">
        <ele>1548.2</ele>
        <time>2020-07-27T12:45:18Z</time>
      </trkpt>
      <trkpt lat="42.9073360" lon="0.1151210">
        <ele>1548.8</ele>
        <time>2020-07-27T12:45:21Z</time>
      </trkpt>
      <trkpt lat="42.9073270" lon="0.1151860">
        <ele>1549.4</ele>
        <time>2020-07-27T12:45:23Z</time>
      </trkpt>
      <trkpt lat="42.9073090" lon="0.1153150">
        <ele>1550.2</ele>
        <time>2020-07-27T12:45:27Z</time>
      </trkpt>
      <trkpt lat="42.9072900" lon="0.1154090">
        <ele>1550.8</ele>
        <time>2020-07-27T12:45:30Z</time>
      </trkpt>
      <trkpt lat="42.9072670" lon="0.1155390">
        <ele>1551.4</ele>
        <time>2020-07-27T12:45:34Z</time>
      </trkpt>
      <trkpt lat="42.9072340" lon="0.1156960">
        <ele>1552.4</ele>
        <time>2020-07-27T12:45:39Z</time>
      </trkpt>
      <trkpt lat="42.9072300" lon="0.1157290">
        <ele>1552.6</ele>
        <time>2020-07-27T12:45:40Z</time>
      </trkpt>
      <trkpt lat="42.9072240" lon="0.1157610">
        <ele>1552.8</ele>
        <time>2020-07-27T12:45:41Z</time>
      </trkpt>
      <trkpt lat="42.9071720" lon="0.1159070">
        <ele>1553.6</ele>
        <time>2020-07-27T12:45:46Z</time>
      </trkpt>
      <trkpt lat="42.9071620" lon="0.1159360">
        <ele>1553.8</ele>
        <time>2020-07-27T12:45:47Z</time>
      </trkpt>
      <trkpt lat="42.9071360" lon="0.1160280">
        <ele>1554.8</ele>
        <time>2020-07-27T12:45:50Z</time>
      </trkpt>
      <trkpt lat="42.9071350" lon="0.1161570">
        <ele>1555.4</ele>
        <time>2020-07-27T12:45:54Z</time>
      </trkpt>
      <trkpt lat="42.9071450" lon="0.1161870">
        <ele>1555.6</ele>
        <time>2020-07-27T12:45:55Z</time>
      </trkpt>
      <trkpt lat="42.9072180" lon="0.1162760">
        <ele>1556.6</ele>
        <time>2020-07-27T12:45:59Z</time>
      </trkpt>
      <trkpt lat="42.9072440" lon="0.1162860">
        <ele>1556.8</ele>
        <time>2020-07-27T12:46:00Z</time>
      </trkpt>
      <trkpt lat="42.9073180" lon="0.1162630">
        <ele>1557.2</ele>
        <time>2020-07-27T12:46:03Z</time>
      </trkpt>
      <trkpt lat="42.9073870" lon="0.1162140">
        <ele>1558.0</ele>
        <time>2020-07-27T12:46:06Z</time>
      </trkpt>
      <trkpt lat="42.9074630" lon="0.1161300">
        <ele>1558.6</ele>
        <time>2020-07-27T12:46:10Z</time>
      </trkpt>
      <trkpt lat="42.9075550" lon="0.1160110">
        <ele>1559.2</ele>
        <time>2020-07-27T12:46:15Z</time>
      </trkpt>
      <trkpt lat="42.9076090" lon="0.1159390">
        <ele>1559.6</ele>
        <time>2020-07-27T12:46:18Z</time>
      </trkpt>
      <trkpt lat="42.9076640" lon="0.1158730">
        <ele>1560.0</ele>
        <time>2020-07-27T12:46:21Z</time>
      </trkpt>
      <trkpt lat="42.9078050" lon="0.1157290">
        <ele>1561.2</ele>
        <time>2020-07-27T12:46:28Z</time>
      </trkpt>
      <trkpt lat="42.9078430" lon="0.1156840">
        <ele>1561.6</ele>
        <time>2020-07-27T12:46:30Z</time>
      </trkpt>
      <trkpt lat="42.9079260" lon="0.1156090">
        <ele>1562.2</ele>
        <time>2020-07-27T12:46:34Z</time>
      </trkpt>
      <trkpt lat="42.9080170" lon="0.1155600">
        <ele>1563.0</ele>
        <time>2020-07-27T12:46:38Z</time>
      </trkpt>
      <trkpt lat="42.9080420" lon="0.1155660">
        <ele>1563.2</ele>
        <time>2020-07-27T12:46:39Z</time>
      </trkpt>
      <trkpt lat="42.9080650" lon="0.1155830">
        <ele>1563.4</ele>
        <time>2020-07-27T12:46:40Z</time>
      </trkpt>
      <trkpt lat="42.9080960" lon="0.1156420">
        <ele>1563.6</ele>
        <time>2020-07-27T12:46:42Z</time>
      </trkpt>
      <trkpt lat="42.9080620" lon="0.1157770">
        <ele>1564.2</ele>
        <time>2020-07-27T12:46:46Z</time>
      </trkpt>
      <trkpt lat="42.9080460" lon="0.1158060">
        <ele>1565.0</ele>
        <time>2020-07-27T12:46:47Z</time>
      </trkpt>
      <trkpt lat="42.9080300" lon="0.1158350">
        <ele>1565.4</ele>
        <time>2020-07-27T12:46:48Z</time>
      </trkpt>
      <trkpt lat="42.9079830" lon="0.1159210">
        <ele>1566.4</ele>
        <time>2020-07-27T12:46:51Z</time>
      </trkpt>
      <trkpt lat="42.9079230" lon="0.1160330">
        <ele>1567.4</ele>
        <time>2020-07-27T12:46:55Z</time>
      </trkpt>
      <trkpt lat="42.9079120" lon="0.1160620">
        <ele>1567.6</ele>
        <time>2020-07-27T12:46:56Z</time>
      </trkpt>
      <trkpt lat="42.9078450" lon="0.1162290">
        <ele>1568.6</ele>
        <time>2020-07-27T12:47:02Z</time>
      </trkpt>
      <trkpt lat="42.9077800" lon="0.1163960">
        <ele>1569.6</ele>
        <time>2020-07-27T12:47:08Z</time>
      </trkpt>
      <trkpt lat="42.9077480" lon="0.1164770">
        <ele>1570.2</ele>
        <time>2020-07-27T12:47:11Z</time>
      </trkpt>
      <trkpt lat="42.9077230" lon="0.1165300">
        <ele>1570.6</ele>
        <time>2020-07-27T12:47:13Z</time>
      </trkpt>
      <trkpt lat="42.9076870" lon="0.1166470">
        <ele>1571.4</ele>
        <time>2020-07-27T12:47:17Z</time>
      </trkpt>
      <trkpt lat="42.9076710" lon="0.1167040">
        <ele>1572.0</ele>
        <time>2020-07-27T12:47:19Z</time>
      </trkpt>
      <trkpt lat="42.9076350" lon="0.1167830">
        <ele>1572.6</ele>
        <time>2020-07-27T12:47:22Z</time>
      </trkpt>
      <trkpt lat="42.9075870" lon="0.1169210">
        <ele>1573.6</ele>
        <time>2020-07-27T12:47:27Z</time>
      </trkpt>
      <trkpt lat="42.9075390" lon="0.1170660">
        <ele>1574.6</ele>
        <time>2020-07-27T12:47:32Z</time>
      </trkpt>
      <trkpt lat="42.9075130" lon="0.1171560">
        <ele>1575.4</ele>
        <time>2020-07-27T12:47:35Z</time>
      </trkpt>
      <trkpt lat="42.9074990" lon="0.1172180">
        <ele>1575.8</ele>
        <time>2020-07-27T12:47:37Z</time>
      </trkpt>
      <trkpt lat="42.9074690" lon="0.1174010">
        <ele>1576.8</ele>
        <time>2020-07-27T12:47:43Z</time>
      </trkpt>
      <trkpt lat="42.9074500" lon="0.1174910">
        <ele>1577.4</ele>
        <time>2020-07-27T12:47:46Z</time>
      </trkpt>
      <trkpt lat="42.9074370" lon="0.1175510">
        <ele>1577.8</ele>
        <time>2020-07-27T12:47:48Z</time>
      </trkpt>
      <trkpt lat="42.9074040" lon="0.1177360">
        <ele>1579.0</ele>
        <time>2020-07-27T12:47:54Z</time>
      </trkpt>
      <trkpt lat="42.9073810" lon="0.1178900">
        <ele>1579.8</ele>
        <time>2020-07-27T12:47:59Z</time>
      </trkpt>
      <trkpt lat="42.9073750" lon="0.1179210">
        <ele>1580.0</ele>
        <time>2020-07-27T12:48:00Z</time>
      </trkpt>
      <trkpt lat="42.9073430" lon="0.1180970">
        <ele>1581.2</ele>
        <time>2020-07-27T12:48:06Z</time>
      </trkpt>
      <trkpt lat="42.9073220" lon="0.1182510">
        <ele>1582.4</ele>
        <time>2020-07-27T12:48:11Z</time>
      </trkpt>
      <trkpt lat="42.9073060" lon="0.1183730">
        <ele>1583.2</ele>
        <time>2020-07-27T12:48:15Z</time>
      </trkpt>
      <trkpt lat="42.9072880" lon="0.1185250">
        <ele>1584.2</ele>
        <time>2020-07-27T12:48:20Z</time>
      </trkpt>
      <trkpt lat="42.9072830" lon="0.1186170">
        <ele>1585.0</ele>
        <time>2020-07-27T12:48:23Z</time>
      </trkpt>
      <trkpt lat="42.9072770" lon="0.1186790">
        <ele>1585.4</ele>
        <time>2020-07-27T12:48:25Z</time>
      </trkpt>
      <trkpt lat="42.9072630" lon="0.1188350">
        <ele>1586.4</ele>
        <time>2020-07-27T12:48:30Z</time>
      </trkpt>
      <trkpt lat="42.9072610" lon="0.1188670">
        <ele>1586.6</ele>
        <time>2020-07-27T12:48:31Z</time>
      </trkpt>
      <trkpt lat="42.9072470" lon="0.1190220">
        <ele>1587.4</ele>
        <time>2020-07-27T12:48:36Z</time>
      </trkpt>
      <trkpt lat="42.9072200" lon="0.1191700">
        <ele>1588.4</ele>
        <time>2020-07-27T12:48:41Z</time>
      </trkpt>
      <trkpt lat="42.9072070" lon="0.1193160">
        <ele>1589.4</ele>
        <time>2020-07-27T12:48:46Z</time>
      </trkpt>
      <trkpt lat="42.9071940" lon="0.1194680">
        <ele>1590.2</ele>
        <time>2020-07-27T12:48:51Z</time>
      </trkpt>
      <trkpt lat="42.9071860" lon="0.1195290">
        <ele>1590.6</ele>
        <time>2020-07-27T12:48:53Z</time>
      </trkpt>
      <trkpt lat="42.9071710" lon="0.1196850">
        <ele>1591.6</ele>
        <time>2020-07-27T12:48:58Z</time>
      </trkpt>
      <trkpt lat="42.9071680" lon="0.1197490">
        <ele>1592.0</ele>
        <time>2020-07-27T12:49:00Z</time>
      </trkpt>
      <trkpt lat="42.9071600" lon="0.1198440">
        <ele>1592.8</ele>
        <time>2020-07-27T12:49:03Z</time>
      </trkpt>
      <trkpt lat="42.9071500" lon="0.1200030">
        <ele>1593.8</ele>
        <time>2020-07-27T12:49:08Z</time>
      </trkpt>
      <trkpt lat="42.9071510" lon="0.1200350">
        <ele>1593.8</ele>
        <time>2020-07-27T12:49:09Z</time>
      </trkpt>
      <trkpt lat="42.9071410" lon="0.1201290">
        <ele>1594.6</ele>
        <time>2020-07-27T12:49:12Z</time>
      </trkpt>
      <trkpt lat="42.9071260" lon="0.1202750">
        <ele>1595.4</ele>
        <time>2020-07-27T12:49:17Z</time>
      </trkpt>
      <trkpt lat="42.9071220" lon="0.1203030">
        <ele>1595.8</ele>
        <time>2020-07-27T12:49:18Z</time>
      </trkpt>
      <trkpt lat="42.9070980" lon="0.1204720">
        <ele>1596.8</ele>
        <time>2020-07-27T12:49:24Z</time>
      </trkpt>
      <trkpt lat="42.9070890" lon="0.1205890">
        <ele>1597.8</ele>
        <time>2020-07-27T12:49:28Z</time>
      </trkpt>
      <trkpt lat="42.9070870" lon="0.1206190">
        <ele>1598.0</ele>
        <time>2020-07-27T12:49:29Z</time>
      </trkpt>
      <trkpt lat="42.9070870" lon="0.1207630">
        <ele>1599.0</ele>
        <time>2020-07-27T12:49:34Z</time>
      </trkpt>
      <trkpt lat="42.9070740" lon="0.1208490">
        <ele>1599.8</ele>
        <time>2020-07-27T12:49:37Z</time>
      </trkpt>
      <trkpt lat="42.9070720" lon="0.1208790">
        <ele>1600.2</ele>
        <time>2020-07-27T12:49:38Z</time>
      </trkpt>
      <trkpt lat="42.9070710" lon="0.1210350">
        <ele>1601.2</ele>
        <time>2020-07-27T12:49:43Z</time>
      </trkpt>
      <trkpt lat="42.9070750" lon="0.1210990">
        <ele>1601.6</ele>
        <time>2020-07-27T12:49:45Z</time>
      </trkpt>
      <trkpt lat="42.9070790" lon="0.1211610">
        <ele>1602.2</ele>
        <time>2020-07-27T12:49:47Z</time>
      </trkpt>
      <trkpt lat="42.9070760" lon="0.1213220">
        <ele>1603.4</ele>
        <time>2020-07-27T12:49:52Z</time>
      </trkpt>
      <trkpt lat="42.9070740" lon="0.1213520">
        <ele>1603.6</ele>
        <time>2020-07-27T12:49:53Z</time>
      </trkpt>
      <trkpt lat="42.9070730" lon="0.1214700">
        <ele>1604.6</ele>
        <time>2020-07-27T12:49:57Z</time>
      </trkpt>
      <trkpt lat="42.9070720" lon="0.1216190">
        <ele>1605.2</ele>
        <time>2020-07-27T12:50:02Z</time>
      </trkpt>
      <trkpt lat="42.9070710" lon="0.1216490">
        <ele>1605.4</ele>
        <time>2020-07-27T12:50:03Z</time>
      </trkpt>
      <trkpt lat="42.9070710" lon="0.1217630">
        <ele>1606.6</ele>
        <time>2020-07-27T12:50:07Z</time>
      </trkpt>
      <trkpt lat="42.9070690" lon="0.1218580">
        <ele>1607.0</ele>
        <time>2020-07-27T12:50:10Z</time>
      </trkpt>
      <trkpt lat="42.9070660" lon="0.1219250">
        <ele>1607.6</ele>
        <time>2020-07-27T12:50:12Z</time>
      </trkpt>
      <trkpt lat="42.9070620" lon="0.1220900">
        <ele>1608.6</ele>
        <time>2020-07-27T12:50:17Z</time>
      </trkpt>
      <trkpt lat="42.9070610" lon="0.1221230">
        <ele>1608.8</ele>
        <time>2020-07-27T12:50:18Z</time>
      </trkpt>
      <trkpt lat="42.9070590" lon="0.1222580">
        <ele>1609.6</ele>
        <time>2020-07-27T12:50:22Z</time>
      </trkpt>
      <trkpt lat="42.9070560" lon="0.1224260">
        <ele>1610.6</ele>
        <time>2020-07-27T12:50:27Z</time>
      </trkpt>
      <trkpt lat="42.9070660" lon="0.1226340">
        <ele>1611.8</ele>
        <time>2020-07-27T12:50:33Z</time>
      </trkpt>
      <trkpt lat="42.9070670" lon="0.1226670">
        <ele>1612.0</ele>
        <time>2020-07-27T12:50:34Z</time>
      </trkpt>
      <trkpt lat="42.9070680" lon="0.1227930">
        <ele>1612.8</ele>
        <time>2020-07-27T12:50:38Z</time>
      </trkpt>
      <trkpt lat="42.9070740" lon="0.1229740">
        <ele>1613.6</ele>
        <time>2020-07-27T12:50:44Z</time>
      </trkpt>
      <trkpt lat="42.9070670" lon="0.1231590">
        <ele>1614.6</ele>
        <time>2020-07-27T12:50:50Z</time>
      </trkpt>
      <trkpt lat="42.9070590" lon="0.1232800">
        <ele>1615.6</ele>
        <time>2020-07-27T12:50:54Z</time>
      </trkpt>
      <trkpt lat="42.9070580" lon="0.1233110">
        <ele>1615.8</ele>
        <time>2020-07-27T12:50:55Z</time>
      </trkpt>
      <trkpt lat="42.9070440" lon="0.1235300">
        <ele>1617.0</ele>
        <time>2020-07-27T12:51:02Z</time>
      </trkpt>
      <trkpt lat="42.9070410" lon="0.1235940">
        <ele>1617.4</ele>
        <time>2020-07-27T12:51:04Z</time>
      </trkpt>
      <trkpt lat="42.9070360" lon="0.1236860">
        <ele>1617.8</ele>
        <time>2020-07-27T12:51:07Z</time>
      </trkpt>
      <trkpt lat="42.9070300" lon="0.1238680">
        <ele>1619.0</ele>
        <time>2020-07-27T12:51:13Z</time>
      </trkpt>
      <trkpt lat="42.9070250" lon="0.1240220">
        <ele>1620.0</ele>
        <time>2020-07-27T12:51:18Z</time>
      </trkpt>
      <trkpt lat="42.9070270" lon="0.1241750">
        <ele>1620.8</ele>
        <time>2020-07-27T12:51:23Z</time>
      </trkpt>
      <trkpt lat="42.9070300" lon="0.1242040">
        <ele>1621.0</ele>
        <time>2020-07-27T12:51:24Z</time>
      </trkpt>
      <trkpt lat="42.9070230" lon="0.1242920">
        <ele>1621.8</ele>
        <time>2020-07-27T12:51:27Z</time>
      </trkpt>
      <trkpt lat="42.9070290" lon="0.1243800">
        <ele>1622.8</ele>
        <time>2020-07-27T12:51:30Z</time>
      </trkpt>
      <trkpt lat="42.9070290" lon="0.1244080">
        <ele>1623.0</ele>
        <time>2020-07-27T12:51:31Z</time>
      </trkpt>
      <trkpt lat="42.9070240" lon="0.1245590">
        <ele>1624.2</ele>
        <time>2020-07-27T12:51:36Z</time>
      </trkpt>
      <trkpt lat="42.9070270" lon="0.1246200">
        <ele>1624.6</ele>
        <time>2020-07-27T12:51:38Z</time>
      </trkpt>
      <trkpt lat="42.9070270" lon="0.1247140">
        <ele>1625.2</ele>
        <time>2020-07-27T12:51:41Z</time>
      </trkpt>
      <trkpt lat="42.9070330" lon="0.1248980">
        <ele>1626.4</ele>
        <time>2020-07-27T12:51:47Z</time>
      </trkpt>
      <trkpt lat="42.9070420" lon="0.1250420">
        <ele>1627.4</ele>
        <time>2020-07-27T12:51:52Z</time>
      </trkpt>
      <trkpt lat="42.9070540" lon="0.1251900">
        <ele>1628.6</ele>
        <time>2020-07-27T12:51:57Z</time>
      </trkpt>
      <trkpt lat="42.9070580" lon="0.1252500">
        <ele>1628.8</ele>
        <time>2020-07-27T12:51:59Z</time>
      </trkpt>
      <trkpt lat="42.9070650" lon="0.1253370">
        <ele>1629.4</ele>
        <time>2020-07-27T12:52:02Z</time>
      </trkpt>
      <trkpt lat="42.9070790" lon="0.1254800">
        <ele>1630.6</ele>
        <time>2020-07-27T12:52:07Z</time>
      </trkpt>
      <trkpt lat="42.9070890" lon="0.1255380">
        <ele>1631.0</ele>
        <time>2020-07-27T12:52:09Z</time>
      </trkpt>
      <trkpt lat="42.9070930" lon="0.1256570">
        <ele>1631.6</ele>
        <time>2020-07-27T12:52:13Z</time>
      </trkpt>
      <trkpt lat="42.9070940" lon="0.1257660">
        <ele>1632.2</ele>
        <time>2020-07-27T12:52:16Z</time>
      </trkpt>
      <trkpt lat="42.9070970" lon="0.1258030">
        <ele>1632.6</ele>
        <time>2020-07-27T12:52:17Z</time>
      </trkpt>
      <trkpt lat="42.9071000" lon="0.1259920">
        <ele>1633.6</ele>
        <time>2020-07-27T12:52:22Z</time>
      </trkpt>
      <trkpt lat="42.9071010" lon="0.1260620">
        <ele>1634.0</ele>
        <time>2020-07-27T12:52:24Z</time>
      </trkpt>
      <trkpt lat="42.9070970" lon="0.1261270">
        <ele>1634.6</ele>
        <time>2020-07-27T12:52:26Z</time>
      </trkpt>
      <trkpt lat="42.9070880" lon="0.1262850">
        <ele>1635.8</ele>
        <time>2020-07-27T12:52:31Z</time>
      </trkpt>
      <trkpt lat="42.9070850" lon="0.1263160">
        <ele>1636.0</ele>
        <time>2020-07-27T12:52:32Z</time>
      </trkpt>
      <trkpt lat="42.9070800" lon="0.1264650">
        <ele>1636.6</ele>
        <time>2020-07-27T12:52:37Z</time>
      </trkpt>
      <trkpt lat="42.9070750" lon="0.1265850">
        <ele>1637.2</ele>
        <time>2020-07-27T12:52:41Z</time>
      </trkpt>
      <trkpt lat="42.9070670" lon="0.1266770">
        <ele>1637.8</ele>
        <time>2020-07-27T12:52:44Z</time>
      </trkpt>
      <trkpt lat="42.9070520" lon="0.1268640">
        <ele>1638.8</ele>
        <time>2020-07-27T12:52:50Z</time>
      </trkpt>
      <trkpt lat="42.9070490" lon="0.1268960">
        <ele>1639.0</ele>
        <time>2020-07-27T12:52:51Z</time>
      </trkpt>
      <trkpt lat="42.9070350" lon="0.1270940">
        <ele>1639.8</ele>
        <time>2020-07-27T12:52:57Z</time>
      </trkpt>
      <trkpt lat="42.9070260" lon="0.1271900">
        <ele>1640.6</ele>
        <time>2020-07-27T12:53:00Z</time>
      </trkpt>
      <trkpt lat="42.9070200" lon="0.1272530">
        <ele>1641.0</ele>
        <time>2020-07-27T12:53:02Z</time>
      </trkpt>
      <trkpt lat="42.9070050" lon="0.1274510">
        <ele>1642.2</ele>
        <time>2020-07-27T12:53:08Z</time>
      </trkpt>
      <trkpt lat="42.9069950" lon="0.1275530">
        <ele>1642.6</ele>
        <time>2020-07-27T12:53:11Z</time>
      </trkpt>
      <trkpt lat="42.9069870" lon="0.1276830">
        <ele>1643.2</ele>
        <time>2020-07-27T12:53:15Z</time>
      </trkpt>
      <trkpt lat="42.9069740" lon="0.1278470">
        <ele>1644.2</ele>
        <time>2020-07-27T12:53:20Z</time>
      </trkpt>
      <trkpt lat="42.9069730" lon="0.1278790">
        <ele>1644.4</ele>
        <time>2020-07-27T12:53:21Z</time>
      </trkpt>
      <trkpt lat="42.9069590" lon="0.1280360">
        <ele>1645.2</ele>
        <time>2020-07-27T12:53:26Z</time>
      </trkpt>
      <trkpt lat="42.9069560" lon="0.1281340">
        <ele>1645.8</ele>
        <time>2020-07-27T12:53:29Z</time>
      </trkpt>
      <trkpt lat="42.9069530" lon="0.1282000">
        <ele>1646.2</ele>
        <time>2020-07-27T12:53:31Z</time>
      </trkpt>
      <trkpt lat="42.9069470" lon="0.1283930">
        <ele>1647.2</ele>
        <time>2020-07-27T12:53:37Z</time>
      </trkpt>
      <trkpt lat="42.9069430" lon="0.1284860">
        <ele>1647.8</ele>
        <time>2020-07-27T12:53:40Z</time>
      </trkpt>
      <trkpt lat="42.9069370" lon="0.1285780">
        <ele>1648.4</ele>
        <time>2020-07-27T12:53:43Z</time>
      </trkpt>
      <trkpt lat="42.9069330" lon="0.1287700">
        <ele>1649.4</ele>
        <time>2020-07-27T12:53:49Z</time>
      </trkpt>
      <trkpt lat="42.9069260" lon="0.1288660">
        <ele>1650.0</ele>
        <time>2020-07-27T12:53:52Z</time>
      </trkpt>
      <trkpt lat="42.9069260" lon="0.1289300">
        <ele>1650.4</ele>
        <time>2020-07-27T12:53:54Z</time>
      </trkpt>
      <trkpt lat="42.9069250" lon="0.1290580">
        <ele>1651.6</ele>
        <time>2020-07-27T12:53:58Z</time>
      </trkpt>
      <trkpt lat="42.9069200" lon="0.1291870">
        <ele>1652.4</ele>
        <time>2020-07-27T12:54:02Z</time>
      </trkpt>
      <trkpt lat="42.9069190" lon="0.1292190">
        <ele>1652.8</ele>
        <time>2020-07-27T12:54:03Z</time>
      </trkpt>
      <trkpt lat="42.9069170" lon="0.1294120">
        <ele>1653.8</ele>
        <time>2020-07-27T12:54:09Z</time>
      </trkpt>
      <trkpt lat="42.9069180" lon="0.1294750">
        <ele>1654.4</ele>
        <time>2020-07-27T12:54:11Z</time>
      </trkpt>
      <trkpt lat="42.9069150" lon="0.1295720">
        <ele>1655.0</ele>
        <time>2020-07-27T12:54:14Z</time>
      </trkpt>
      <trkpt lat="42.9068940" lon="0.1297320">
        <ele>1656.0</ele>
        <time>2020-07-27T12:54:19Z</time>
      </trkpt>
      <trkpt lat="42.9068870" lon="0.1297630">
        <ele>1656.4</ele>
        <time>2020-07-27T12:54:20Z</time>
      </trkpt>
      <trkpt lat="42.9068440" lon="0.1299420">
        <ele>1657.2</ele>
        <time>2020-07-27T12:54:26Z</time>
      </trkpt>
      <trkpt lat="42.9068140" lon="0.1300340">
        <ele>1657.8</ele>
        <time>2020-07-27T12:54:29Z</time>
      </trkpt>
      <trkpt lat="42.9067830" lon="0.1301330">
        <ele>1658.4</ele>
        <time>2020-07-27T12:54:32Z</time>
      </trkpt>
      <trkpt lat="42.9067260" lon="0.1303510">
        <ele>1659.6</ele>
        <time>2020-07-27T12:54:38Z</time>
      </trkpt>
      <trkpt lat="42.9066620" lon="0.1306120">
        <ele>1660.4</ele>
        <time>2020-07-27T12:54:45Z</time>
      </trkpt>
      <trkpt lat="42.9066520" lon="0.1306530">
        <ele>1660.6</ele>
        <time>2020-07-27T12:54:46Z</time>
      </trkpt>
      <trkpt lat="42.9065930" lon="0.1309170">
        <ele>1661.6</ele>
        <time>2020-07-27T12:54:52Z</time>
      </trkpt>
      <trkpt lat="42.9065650" lon="0.1310100">
        <ele>1662.0</ele>
        <time>2020-07-27T12:54:54Z</time>
      </trkpt>
      <trkpt lat="42.9064560" lon="0.1312630">
        <ele>1662.6</ele>
        <time>2020-07-27T12:55:00Z</time>
      </trkpt>
      <trkpt lat="42.9063980" lon="0.1313410">
        <ele>1662.8</ele>
        <time>2020-07-27T12:55:02Z</time>
      </trkpt>
      <trkpt lat="42.9063650" lon="0.1313740">
        <ele>1662.8</ele>
        <time>2020-07-27T12:55:03Z</time>
      </trkpt>
      <trkpt lat="42.9062940" lon="0.1314220">
        <ele>1662.8</ele>
        <time>2020-07-27T12:55:05Z</time>
      </trkpt>
      <trkpt lat="42.9061030" lon="0.1315050">
        <ele>1662.8</ele>
        <time>2020-07-27T12:55:10Z</time>
      </trkpt>
      <trkpt lat="42.9060210" lon="0.1315250">
        <ele>1663.0</ele>
        <time>2020-07-27T12:55:12Z</time>
      </trkpt>
      <trkpt lat="42.9059800" lon="0.1315340">
        <ele>1663.0</ele>
        <time>2020-07-27T12:55:13Z</time>
      </trkpt>
      <trkpt lat="42.9058230" lon="0.1314940">
        <ele>1663.2</ele>
        <time>2020-07-27T12:55:17Z</time>
      </trkpt>
      <trkpt lat="42.9057130" lon="0.1313580">
        <ele>1663.4</ele>
        <time>2020-07-27T12:55:21Z</time>
      </trkpt>
      <trkpt lat="42.9056960" lon="0.1313160">
        <ele>1663.4</ele>
        <time>2020-07-27T12:55:22Z</time>
      </trkpt>
      <trkpt lat="42.9056740" lon="0.1312300">
        <ele>1663.6</ele>
        <time>2020-07-27T12:55:24Z</time>
      </trkpt>
      <trkpt lat="42.9056530" lon="0.1310800">
        <ele>1664.0</ele>
        <time>2020-07-27T12:55:28Z</time>
      </trkpt>
      <trkpt lat="42.9056360" lon="0.1309730">
        <ele>1664.6</ele>
        <time>2020-07-27T12:55:31Z</time>
      </trkpt>
      <trkpt lat="42.9056030" lon="0.1308410">
        <ele>1665.6</ele>
        <time>2020-07-27T12:55:35Z</time>
      </trkpt>
      <trkpt lat="42.9055730" lon="0.1307410">
        <ele>1666.4</ele>
        <time>2020-07-27T12:55:38Z</time>
      </trkpt>
      <trkpt lat="42.9055610" lon="0.1307090">
        <ele>1666.8</ele>
        <time>2020-07-27T12:55:39Z</time>
      </trkpt>
      <trkpt lat="42.9055000" lon="0.1305950">
        <ele>1667.6</ele>
        <time>2020-07-27T12:55:43Z</time>
      </trkpt>
      <trkpt lat="42.9054670" lon="0.1305350">
        <ele>1668.2</ele>
        <time>2020-07-27T12:55:45Z</time>
      </trkpt>
      <trkpt lat="42.9054230" lon="0.1304540">
        <ele>1668.6</ele>
        <time>2020-07-27T12:55:48Z</time>
      </trkpt>
      <trkpt lat="42.9053480" lon="0.1303330">
        <ele>1669.8</ele>
        <time>2020-07-27T12:55:53Z</time>
      </trkpt>
      <trkpt lat="42.9052450" lon="0.1302050">
        <ele>1671.0</ele>
        <time>2020-07-27T12:55:59Z</time>
      </trkpt>
      <trkpt lat="42.9051840" lon="0.1301540">
        <ele>1671.4</ele>
        <time>2020-07-27T12:56:02Z</time>
      </trkpt>
      <trkpt lat="42.9051210" lon="0.1301050">
        <ele>1671.8</ele>
        <time>2020-07-27T12:56:05Z</time>
      </trkpt>
      <trkpt lat="42.9050130" lon="0.1300350">
        <ele>1672.8</ele>
        <time>2020-07-27T12:56:10Z</time>
      </trkpt>
      <trkpt lat="42.9049700" lon="0.1300080">
        <ele>1674.0</ele>
        <time>2020-07-27T12:56:12Z</time>
      </trkpt>
      <trkpt lat="42.9048610" lon="0.1299510">
        <ele>1675.0</ele>
        <time>2020-07-27T12:56:17Z</time>
      </trkpt>
      <trkpt lat="42.9048200" lon="0.1299230">
        <ele>1675.2</ele>
        <time>2020-07-27T12:56:19Z</time>
      </trkpt>
      <trkpt lat="42.9047420" lon="0.1298600">
        <ele>1676.0</ele>
        <time>2020-07-27T12:56:23Z</time>
      </trkpt>
      <trkpt lat="42.9046720" lon="0.1297810">
        <ele>1676.8</ele>
        <time>2020-07-27T12:56:27Z</time>
      </trkpt>
      <trkpt lat="42.9046550" lon="0.1297570">
        <ele>1677.2</ele>
        <time>2020-07-27T12:56:28Z</time>
      </trkpt>
      <trkpt lat="42.9045640" lon="0.1296100">
        <ele>1678.2</ele>
        <time>2020-07-27T12:56:34Z</time>
      </trkpt>
      <trkpt lat="42.9045520" lon="0.1295830">
        <ele>1678.4</ele>
        <time>2020-07-27T12:56:35Z</time>
      </trkpt>
      <trkpt lat="42.9044860" lon="0.1294050">
        <ele>1679.2</ele>
        <time>2020-07-27T12:56:41Z</time>
      </trkpt>
      <trkpt lat="42.9044790" lon="0.1293740">
        <ele>1679.4</ele>
        <time>2020-07-27T12:56:42Z</time>
      </trkpt>
      <trkpt lat="42.9044490" lon="0.1292480">
        <ele>1680.4</ele>
        <time>2020-07-27T12:56:46Z</time>
      </trkpt>
      <trkpt lat="42.9044280" lon="0.1291490">
        <ele>1681.2</ele>
        <time>2020-07-27T12:56:49Z</time>
      </trkpt>
      <trkpt lat="42.9044140" lon="0.1290780">
        <ele>1681.6</ele>
        <time>2020-07-27T12:56:51Z</time>
      </trkpt>
      <trkpt lat="42.9043740" lon="0.1288820">
        <ele>1682.8</ele>
        <time>2020-07-27T12:56:57Z</time>
      </trkpt>
      <trkpt lat="42.9043500" lon="0.1287450">
        <ele>1683.6</ele>
        <time>2020-07-27T12:57:01Z</time>
      </trkpt>
      <trkpt lat="42.9043450" lon="0.1287100">
        <ele>1684.0</ele>
        <time>2020-07-27T12:57:02Z</time>
      </trkpt>
      <trkpt lat="42.9042930" lon="0.1284630">
        <ele>1685.0</ele>
        <time>2020-07-27T12:57:09Z</time>
      </trkpt>
      <trkpt lat="42.9042750" lon="0.1283560">
        <ele>1685.2</ele>
        <time>2020-07-27T12:57:12Z</time>
      </trkpt>
      <trkpt lat="42.9042370" lon="0.1281200">
        <ele>1686.0</ele>
        <time>2020-07-27T12:57:19Z</time>
      </trkpt>
      <trkpt lat="42.9042380" lon="0.1280850">
        <ele>1686.4</ele>
        <time>2020-07-27T12:57:20Z</time>
      </trkpt>
      <trkpt lat="42.9042430" lon="0.1278670">
        <ele>1687.2</ele>
        <time>2020-07-27T12:57:26Z</time>
      </trkpt>
      <trkpt lat="42.9042370" lon="0.1277150">
        <ele>1687.8</ele>
        <time>2020-07-27T12:57:30Z</time>
      </trkpt>
      <trkpt lat="42.9042110" lon="0.1274860">
        <ele>1688.6</ele>
        <time>2020-07-27T12:57:36Z</time>
      </trkpt>
      <trkpt lat="42.9042020" lon="0.1274510">
        <ele>1688.6</ele>
        <time>2020-07-27T12:57:37Z</time>
      </trkpt>
      <trkpt lat="42.9041070" lon="0.1271820">
        <ele>1689.6</ele>
        <time>2020-07-27T12:57:45Z</time>
      </trkpt>
      <trkpt lat="42.9040960" lon="0.1271080">
        <ele>1689.8</ele>
        <time>2020-07-27T12:57:47Z</time>
      </trkpt>
      <trkpt lat="42.9040880" lon="0.1269300">
        <ele>1690.6</ele>
        <time>2020-07-27T12:57:52Z</time>
      </trkpt>
      <trkpt lat="42.9041200" lon="0.1267580">
        <ele>1691.2</ele>
        <time>2020-07-27T12:57:57Z</time>
      </trkpt>
      <trkpt lat="42.9041330" lon="0.1266600">
        <ele>1692.0</ele>
        <time>2020-07-27T12:58:00Z</time>
      </trkpt>
      <trkpt lat="42.9041300" lon="0.1265920">
        <ele>1692.6</ele>
        <time>2020-07-27T12:58:02Z</time>
      </trkpt>
      <trkpt lat="42.9040900" lon="0.1264640">
        <ele>1693.8</ele>
        <time>2020-07-27T12:58:06Z</time>
      </trkpt>
      <trkpt lat="42.9040050" lon="0.1263810">
        <ele>1694.8</ele>
        <time>2020-07-27T12:58:10Z</time>
      </trkpt>
      <trkpt lat="42.9039800" lon="0.1263730">
        <ele>1695.2</ele>
        <time>2020-07-27T12:58:11Z</time>
      </trkpt>
      <trkpt lat="42.9038790" lon="0.1264050">
        <ele>1696.0</ele>
        <time>2020-07-27T12:58:15Z</time>
      </trkpt>
      <trkpt lat="42.9038580" lon="0.1264280">
        <ele>1696.2</ele>
        <time>2020-07-27T12:58:16Z</time>
      </trkpt>
      <trkpt lat="42.9037750" lon="0.1266050">
        <ele>1697.2</ele>
        <time>2020-07-27T12:58:22Z</time>
      </trkpt>
      <trkpt lat="42.9037640" lon="0.1266380">
        <ele>1697.2</ele>
        <time>2020-07-27T12:58:23Z</time>
      </trkpt>
      <trkpt lat="42.9037250" lon="0.1269130">
        <ele>1698.2</ele>
        <time>2020-07-27T12:58:31Z</time>
      </trkpt>
      <trkpt lat="42.9037180" lon="0.1271170">
        <ele>1699.4</ele>
        <time>2020-07-27T12:58:37Z</time>
      </trkpt>
      <trkpt lat="42.9037160" lon="0.1271510">
        <ele>1699.6</ele>
        <time>2020-07-27T12:58:38Z</time>
      </trkpt>
      <trkpt lat="42.9037060" lon="0.1273170">
        <ele>1700.4</ele>
        <time>2020-07-27T12:58:43Z</time>
      </trkpt>
      <trkpt lat="42.9036750" lon="0.1274740">
        <ele>1701.6</ele>
        <time>2020-07-27T12:58:48Z</time>
      </trkpt>
      <trkpt lat="42.9036260" lon="0.1276290">
        <ele>1702.8</ele>
        <time>2020-07-27T12:58:53Z</time>
      </trkpt>
      <trkpt lat="42.9036050" lon="0.1276900">
        <ele>1703.2</ele>
        <time>2020-07-27T12:58:55Z</time>
      </trkpt>
      <trkpt lat="42.9035890" lon="0.1277510">
        <ele>1703.8</ele>
        <time>2020-07-27T12:58:57Z</time>
      </trkpt>
      <trkpt lat="42.9035640" lon="0.1279140">
        <ele>1704.8</ele>
        <time>2020-07-27T12:59:02Z</time>
      </trkpt>
      <trkpt lat="42.9035630" lon="0.1279480">
        <ele>1705.4</ele>
        <time>2020-07-27T12:59:03Z</time>
      </trkpt>
      <trkpt lat="42.9035790" lon="0.1280800">
        <ele>1706.2</ele>
        <time>2020-07-27T12:59:07Z</time>
      </trkpt>
      <trkpt lat="42.9036000" lon="0.1281750">
        <ele>1706.8</ele>
        <time>2020-07-27T12:59:10Z</time>
      </trkpt>
      <trkpt lat="42.9036310" lon="0.1282960">
        <ele>1707.4</ele>
        <time>2020-07-27T12:59:14Z</time>
      </trkpt>
      <trkpt lat="42.9036650" lon="0.1284160">
        <ele>1708.2</ele>
        <time>2020-07-27T12:59:18Z</time>
      </trkpt>
      <trkpt lat="42.9036730" lon="0.1284440">
        <ele>1708.4</ele>
        <time>2020-07-27T12:59:19Z</time>
      </trkpt>
      <trkpt lat="42.9037240" lon="0.1285850">
        <ele>1709.4</ele>
        <time>2020-07-27T12:59:24Z</time>
      </trkpt>
      <trkpt lat="42.9037670" lon="0.1287650">
        <ele>1710.6</ele>
        <time>2020-07-27T12:59:30Z</time>
      </trkpt>
      <trkpt lat="42.9037750" lon="0.1288900">
        <ele>1711.4</ele>
        <time>2020-07-27T12:59:34Z</time>
      </trkpt>
      <trkpt lat="42.9037740" lon="0.1289530">
        <ele>1711.8</ele>
        <time>2020-07-27T12:59:36Z</time>
      </trkpt>
      <trkpt lat="42.9037750" lon="0.1290730">
        <ele>1713.0</ele>
        <time>2020-07-27T12:59:40Z</time>
      </trkpt>
      <trkpt lat="42.9037690" lon="0.1291960">
        <ele>1713.8</ele>
        <time>2020-07-27T12:59:44Z</time>
      </trkpt>
      <trkpt lat="42.9037660" lon="0.1292560">
        <ele>1714.0</ele>
        <time>2020-07-27T12:59:46Z</time>
      </trkpt>
      <trkpt lat="42.9037360" lon="0.1294130">
        <ele>1715.2</ele>
        <time>2020-07-27T12:59:51Z</time>
      </trkpt>
      <trkpt lat="42.9036860" lon="0.1295670">
        <ele>1716.4</ele>
        <time>2020-07-27T12:59:56Z</time>
      </trkpt>
      <trkpt lat="42.9036530" lon="0.1296540">
        <ele>1717.0</ele>
        <time>2020-07-27T12:59:59Z</time>
      </trkpt>
      <trkpt lat="42.9036310" lon="0.1297080">
        <ele>1717.2</ele>
        <time>2020-07-27T13:00:01Z</time>
      </trkpt>
      <trkpt lat="42.9035860" lon="0.1298430">
        <ele>1718.6</ele>
        <time>2020-07-27T13:00:06Z</time>
      </trkpt>
      <trkpt lat="42.9035450" lon="0.1299520">
        <ele>1719.4</ele>
        <time>2020-07-27T13:00:10Z</time>
      </trkpt>
      <trkpt lat="42.9035270" lon="0.1300110">
        <ele>1719.6</ele>
        <time>2020-07-27T13:00:12Z</time>
      </trkpt>
      <trkpt lat="42.9034730" lon="0.1301910">
        <ele>1720.8</ele>
        <time>2020-07-27T13:00:18Z</time>
      </trkpt>
      <trkpt lat="42.9034280" lon="0.1303730">
        <ele>1721.6</ele>
        <time>2020-07-27T13:00:24Z</time>
      </trkpt>
      <trkpt lat="42.9034000" lon="0.1304910">
        <ele>1722.4</ele>
        <time>2020-07-27T13:00:28Z</time>
      </trkpt>
      <trkpt lat="42.9033920" lon="0.1305200">
        <ele>1722.6</ele>
        <time>2020-07-27T13:00:29Z</time>
      </trkpt>
      <trkpt lat="42.9033500" lon="0.1306570">
        <ele>1723.6</ele>
        <time>2020-07-27T13:00:34Z</time>
      </trkpt>
      <trkpt lat="42.9033420" lon="0.1307170">
        <ele>1724.2</ele>
        <time>2020-07-27T13:00:36Z</time>
      </trkpt>
      <trkpt lat="42.9033430" lon="0.1307780">
        <ele>1724.6</ele>
        <time>2020-07-27T13:00:38Z</time>
      </trkpt>
      <trkpt lat="42.9033620" lon="0.1309320">
        <ele>1725.6</ele>
        <time>2020-07-27T13:00:43Z</time>
      </trkpt>
      <trkpt lat="42.9033740" lon="0.1311310">
        <ele>1726.8</ele>
        <time>2020-07-27T13:00:49Z</time>
      </trkpt>
      <trkpt lat="42.9033760" lon="0.1311660">
        <ele>1727.0</ele>
        <time>2020-07-27T13:00:50Z</time>
      </trkpt>
      <trkpt lat="42.9033570" lon="0.1312890">
        <ele>1727.8</ele>
        <time>2020-07-27T13:00:54Z</time>
      </trkpt>
      <trkpt lat="42.9033370" lon="0.1313470">
        <ele>1728.8</ele>
        <time>2020-07-27T13:00:56Z</time>
      </trkpt>
      <trkpt lat="42.9033270" lon="0.1313750">
        <ele>1729.0</ele>
        <time>2020-07-27T13:00:57Z</time>
      </trkpt>
      <trkpt lat="42.9032710" lon="0.1314650">
        <ele>1730.2</ele>
        <time>2020-07-27T13:01:01Z</time>
      </trkpt>
      <trkpt lat="42.9032520" lon="0.1314870">
        <ele>1730.4</ele>
        <time>2020-07-27T13:01:02Z</time>
      </trkpt>
      <trkpt lat="42.9031770" lon="0.1315600">
        <ele>1731.6</ele>
        <time>2020-07-27T13:01:06Z</time>
      </trkpt>
      <trkpt lat="42.9030920" lon="0.1316510">
        <ele>1732.6</ele>
        <time>2020-07-27T13:01:11Z</time>
      </trkpt>
      <trkpt lat="42.9030090" lon="0.1317480">
        <ele>1733.6</ele>
        <time>2020-07-27T13:01:16Z</time>
      </trkpt>
      <trkpt lat="42.9029510" lon="0.1318400">
        <ele>1734.6</ele>
        <time>2020-07-27T13:01:20Z</time>
      </trkpt>
      <trkpt lat="42.9029380" lon="0.1318660">
        <ele>1734.8</ele>
        <time>2020-07-27T13:01:21Z</time>
      </trkpt>
      <trkpt lat="42.9028690" lon="0.1319850">
        <ele>1735.8</ele>
        <time>2020-07-27T13:01:26Z</time>
      </trkpt>
      <trkpt lat="42.9028430" lon="0.1320320">
        <ele>1736.0</ele>
        <time>2020-07-27T13:01:28Z</time>
      </trkpt>
      <trkpt lat="42.9027870" lon="0.1321170">
        <ele>1736.6</ele>
        <time>2020-07-27T13:01:32Z</time>
      </trkpt>
      <trkpt lat="42.9027140" lon="0.1321790">
        <ele>1737.4</ele>
        <time>2020-07-27T13:01:36Z</time>
      </trkpt>
      <trkpt lat="42.9026930" lon="0.1321910">
        <ele>1737.6</ele>
        <time>2020-07-27T13:01:37Z</time>
      </trkpt>
      <trkpt lat="42.9025850" lon="0.1322300">
        <ele>1738.6</ele>
        <time>2020-07-27T13:01:42Z</time>
      </trkpt>
      <trkpt lat="42.9025180" lon="0.1322540">
        <ele>1739.0</ele>
        <time>2020-07-27T13:01:45Z</time>
      </trkpt>
      <trkpt lat="42.9024730" lon="0.1322700">
        <ele>1739.4</ele>
        <time>2020-07-27T13:01:47Z</time>
      </trkpt>
      <trkpt lat="42.9023610" lon="0.1322910">
        <ele>1740.6</ele>
        <time>2020-07-27T13:01:52Z</time>
      </trkpt>
      <trkpt lat="42.9022720" lon="0.1323050">
        <ele>1741.4</ele>
        <time>2020-07-27T13:01:56Z</time>
      </trkpt>
      <trkpt lat="42.9022260" lon="0.1323130">
        <ele>1741.6</ele>
        <time>2020-07-27T13:01:58Z</time>
      </trkpt>
      <trkpt lat="42.9020890" lon="0.1323220">
        <ele>1742.8</ele>
        <time>2020-07-27T13:02:04Z</time>
      </trkpt>
      <trkpt lat="42.9019830" lon="0.1323900">
        <ele>1743.6</ele>
        <time>2020-07-27T13:02:09Z</time>
      </trkpt>
      <trkpt lat="42.9019680" lon="0.1324160">
        <ele>1743.8</ele>
        <time>2020-07-27T13:02:10Z</time>
      </trkpt>
      <trkpt lat="42.9019210" lon="0.1325430">
        <ele>1744.6</ele>
        <time>2020-07-27T13:02:14Z</time>
      </trkpt>
      <trkpt lat="42.9019150" lon="0.1326470">
        <ele>1745.2</ele>
        <time>2020-07-27T13:02:17Z</time>
      </trkpt>
      <trkpt lat="42.9019230" lon="0.1327140">
        <ele>1745.6</ele>
        <time>2020-07-27T13:02:19Z</time>
      </trkpt>
      <trkpt lat="42.9019440" lon="0.1328070">
        <ele>1746.6</ele>
        <time>2020-07-27T13:02:22Z</time>
      </trkpt>
      <trkpt lat="42.9019810" lon="0.1328910">
        <ele>1747.4</ele>
        <time>2020-07-27T13:02:25Z</time>
      </trkpt>
      <trkpt lat="42.9019980" lon="0.1329170">
        <ele>1747.6</ele>
        <time>2020-07-27T13:02:26Z</time>
      </trkpt>
      <trkpt lat="42.9020430" lon="0.1330350">
        <ele>1748.8</ele>
        <time>2020-07-27T13:02:30Z</time>
      </trkpt>
      <trkpt lat="42.9020740" lon="0.1331220">
        <ele>1749.0</ele>
        <time>2020-07-27T13:02:33Z</time>
      </trkpt>
      <trkpt lat="42.9021060" lon="0.1332050">
        <ele>1749.6</ele>
        <time>2020-07-27T13:02:36Z</time>
      </trkpt>
      <trkpt lat="42.9021580" lon="0.1333780">
        <ele>1750.4</ele>
        <time>2020-07-27T13:02:42Z</time>
      </trkpt>
      <trkpt lat="42.9021640" lon="0.1334080">
        <ele>1750.6</ele>
        <time>2020-07-27T13:02:43Z</time>
      </trkpt>
      <trkpt lat="42.9021850" lon="0.1335600">
        <ele>1751.6</ele>
        <time>2020-07-27T13:02:48Z</time>
      </trkpt>
      <trkpt lat="42.9022000" lon="0.1336820">
        <ele>1752.8</ele>
        <time>2020-07-27T13:02:52Z</time>
      </trkpt>
      <trkpt lat="42.9021980" lon="0.1337800">
        <ele>1754.2</ele>
        <time>2020-07-27T13:02:56Z</time>
      </trkpt>
      <trkpt lat="42.9022120" lon="0.1338430">
        <ele>1754.8</ele>
        <time>2020-07-27T13:02:58Z</time>
      </trkpt>
      <trkpt lat="42.9022320" lon="0.1338990">
        <ele>1755.0</ele>
        <time>2020-07-27T13:03:00Z</time>
      </trkpt>
      <trkpt lat="42.9022990" lon="0.1339770">
        <ele>1756.0</ele>
        <time>2020-07-27T13:03:04Z</time>
      </trkpt>
      <trkpt lat="42.9024260" lon="0.1340540">
        <ele>1756.8</ele>
        <time>2020-07-27T13:03:10Z</time>
      </trkpt>
      <trkpt lat="42.9024730" lon="0.1340830">
        <ele>1757.0</ele>
        <time>2020-07-27T13:03:12Z</time>
      </trkpt>
      <trkpt lat="42.9025830" lon="0.1341730">
        <ele>1758.2</ele>
        <time>2020-07-27T13:03:17Z</time>
      </trkpt>
      <trkpt lat="42.9026190" lon="0.1342230">
        <ele>1758.6</ele>
        <time>2020-07-27T13:03:19Z</time>
      </trkpt>
      <trkpt lat="42.9026600" lon="0.1343000">
        <ele>1759.2</ele>
        <time>2020-07-27T13:03:22Z</time>
      </trkpt>
      <trkpt lat="42.9026980" lon="0.1343870">
        <ele>1760.2</ele>
        <time>2020-07-27T13:03:25Z</time>
      </trkpt>
      <trkpt lat="42.9027110" lon="0.1344170">
        <ele>1760.4</ele>
        <time>2020-07-27T13:03:26Z</time>
      </trkpt>
      <trkpt lat="42.9027390" lon="0.1345120">
        <ele>1761.2</ele>
        <time>2020-07-27T13:03:29Z</time>
      </trkpt>
      <trkpt lat="42.9027570" lon="0.1346080">
        <ele>1761.8</ele>
        <time>2020-07-27T13:03:32Z</time>
      </trkpt>
      <trkpt lat="42.9027620" lon="0.1346370">
        <ele>1762.0</ele>
        <time>2020-07-27T13:03:33Z</time>
      </trkpt>
      <trkpt lat="42.9027610" lon="0.1348190">
        <ele>1763.0</ele>
        <time>2020-07-27T13:03:39Z</time>
      </trkpt>
      <trkpt lat="42.9027540" lon="0.1348480">
        <ele>1763.2</ele>
        <time>2020-07-27T13:03:40Z</time>
      </trkpt>
      <trkpt lat="42.9027320" lon="0.1349580">
        <ele>1764.4</ele>
        <time>2020-07-27T13:03:44Z</time>
      </trkpt>
      <trkpt lat="42.9027220" lon="0.1350500">
        <ele>1765.2</ele>
        <time>2020-07-27T13:03:47Z</time>
      </trkpt>
      <trkpt lat="42.9027200" lon="0.1350810">
        <ele>1765.2</ele>
        <time>2020-07-27T13:03:48Z</time>
      </trkpt>
      <trkpt lat="42.9027280" lon="0.1352650">
        <ele>1766.6</ele>
        <time>2020-07-27T13:03:54Z</time>
      </trkpt>
      <trkpt lat="42.9027450" lon="0.1353240">
        <ele>1767.0</ele>
        <time>2020-07-27T13:03:56Z</time>
      </trkpt>
      <trkpt lat="42.9027780" lon="0.1354480">
        <ele>1767.6</ele>
        <time>2020-07-27T13:04:00Z</time>
      </trkpt>
      <trkpt lat="42.9028100" lon="0.1355680">
        <ele>1768.2</ele>
        <time>2020-07-27T13:04:04Z</time>
      </trkpt>
      <trkpt lat="42.9028220" lon="0.1356300">
        <ele>1768.6</ele>
        <time>2020-07-27T13:04:06Z</time>
      </trkpt>
      <trkpt lat="42.9028490" lon="0.1358110">
        <ele>1769.4</ele>
        <time>2020-07-27T13:04:12Z</time>
      </trkpt>
      <trkpt lat="42.9028710" lon="0.1359620">
        <ele>1770.6</ele>
        <time>2020-07-27T13:04:17Z</time>
      </trkpt>
      <trkpt lat="42.9028900" lon="0.1360230">
        <ele>1771.0</ele>
        <time>2020-07-27T13:04:19Z</time>
      </trkpt>
      <trkpt lat="42.9029360" lon="0.1360910">
        <ele>1771.8</ele>
        <time>2020-07-27T13:04:22Z</time>
      </trkpt>
      <trkpt lat="42.9029800" lon="0.1361150">
        <ele>1772.0</ele>
        <time>2020-07-27T13:04:24Z</time>
      </trkpt>
      <trkpt lat="42.9030030" lon="0.1361240">
        <ele>1772.2</ele>
        <time>2020-07-27T13:04:25Z</time>
      </trkpt>
      <trkpt lat="42.9030540" lon="0.1361330">
        <ele>1772.8</ele>
        <time>2020-07-27T13:04:27Z</time>
      </trkpt>
      <trkpt lat="42.9031540" lon="0.1361420">
        <ele>1774.0</ele>
        <time>2020-07-27T13:04:31Z</time>
      </trkpt>
      <trkpt lat="42.9033180" lon="0.1362300">
        <ele>1774.8</ele>
        <time>2020-07-27T13:04:38Z</time>
      </trkpt>
      <trkpt lat="42.9034090" lon="0.1363050">
        <ele>1776.2</ele>
        <time>2020-07-27T13:04:42Z</time>
      </trkpt>
      <trkpt lat="42.9034930" lon="0.1363900">
        <ele>1777.2</ele>
        <time>2020-07-27T13:04:46Z</time>
      </trkpt>
      <trkpt lat="42.9035110" lon="0.1364160">
        <ele>1777.4</ele>
        <time>2020-07-27T13:04:47Z</time>
      </trkpt>
      <trkpt lat="42.9035760" lon="0.1365470">
        <ele>1778.2</ele>
        <time>2020-07-27T13:04:52Z</time>
      </trkpt>
      <trkpt lat="42.9035950" lon="0.1366030">
        <ele>1778.6</ele>
        <time>2020-07-27T13:04:54Z</time>
      </trkpt>
      <trkpt lat="42.9036610" lon="0.1367440">
        <ele>1779.4</ele>
        <time>2020-07-27T13:04:59Z</time>
      </trkpt>
      <trkpt lat="42.9036940" lon="0.1367970">
        <ele>1780.0</ele>
        <time>2020-07-27T13:05:01Z</time>
      </trkpt>
      <trkpt lat="42.9037340" lon="0.1368400">
        <ele>1780.4</ele>
        <time>2020-07-27T13:05:03Z</time>
      </trkpt>
      <trkpt lat="42.9038140" lon="0.1369110">
        <ele>1781.6</ele>
        <time>2020-07-27T13:05:07Z</time>
      </trkpt>
      <trkpt lat="42.9038320" lon="0.1369310">
        <ele>1782.0</ele>
        <time>2020-07-27T13:05:08Z</time>
      </trkpt>
      <trkpt lat="42.9038720" lon="0.1369630">
        <ele>1782.6</ele>
        <time>2020-07-27T13:05:10Z</time>
      </trkpt>
      <trkpt lat="42.9039720" lon="0.1370400">
        <ele>1783.8</ele>
        <time>2020-07-27T13:05:15Z</time>
      </trkpt>
      <trkpt lat="42.9041080" lon="0.1370990">
        <ele>1784.6</ele>
        <time>2020-07-27T13:05:21Z</time>
      </trkpt>
      <trkpt lat="42.9041550" lon="0.1371140">
        <ele>1785.0</ele>
        <time>2020-07-27T13:05:23Z</time>
      </trkpt>
      <trkpt lat="42.9042530" lon="0.1371310">
        <ele>1785.8</ele>
        <time>2020-07-27T13:05:27Z</time>
      </trkpt>
      <trkpt lat="42.9044000" lon="0.1371410">
        <ele>1786.4</ele>
        <time>2020-07-27T13:05:33Z</time>
      </trkpt>
      <trkpt lat="42.9044480" lon="0.1371400">
        <ele>1786.6</ele>
        <time>2020-07-27T13:05:35Z</time>
      </trkpt>
      <trkpt lat="42.9045470" lon="0.1371260">
        <ele>1787.6</ele>
        <time>2020-07-27T13:05:39Z</time>
      </trkpt>
      <trkpt lat="42.9046680" lon="0.1371070">
        <ele>1788.6</ele>
        <time>2020-07-27T13:05:44Z</time>
      </trkpt>
      <trkpt lat="42.9048120" lon="0.1370990">
        <ele>1789.8</ele>
        <time>2020-07-27T13:05:50Z</time>
      </trkpt>
      <trkpt lat="42.9048340" lon="0.1371080">
        <ele>1789.8</ele>
        <time>2020-07-27T13:05:51Z</time>
      </trkpt>
      <trkpt lat="42.9048570" lon="0.1371190">
        <ele>1790.0</ele>
        <time>2020-07-27T13:05:52Z</time>
      </trkpt>
      <trkpt lat="42.9049660" lon="0.1371840">
        <ele>1790.8</ele>
        <time>2020-07-27T13:05:57Z</time>
      </trkpt>
      <trkpt lat="42.9050360" lon="0.1372660">
        <ele>1791.6</ele>
        <time>2020-07-27T13:06:01Z</time>
      </trkpt>
      <trkpt lat="42.9050530" lon="0.1372870">
        <ele>1792.0</ele>
        <time>2020-07-27T13:06:02Z</time>
      </trkpt>
      <trkpt lat="42.9051220" lon="0.1373720">
        <ele>1793.2</ele>
        <time>2020-07-27T13:06:06Z</time>
      </trkpt>
      <trkpt lat="42.9051750" lon="0.1374360">
        <ele>1794.4</ele>
        <time>2020-07-27T13:06:09Z</time>
      </trkpt>
      <trkpt lat="42.9051910" lon="0.1374580">
        <ele>1794.6</ele>
        <time>2020-07-27T13:06:10Z</time>
      </trkpt>
      <trkpt lat="42.9052480" lon="0.1375530">
        <ele>1795.2</ele>
        <time>2020-07-27T13:06:14Z</time>
      </trkpt>
      <trkpt lat="42.9053060" lon="0.1376910">
        <ele>1796.4</ele>
        <time>2020-07-27T13:06:19Z</time>
      </trkpt>
      <trkpt lat="42.9053190" lon="0.1377180">
        <ele>1796.4</ele>
        <time>2020-07-27T13:06:20Z</time>
      </trkpt>
      <trkpt lat="42.9054070" lon="0.1378710">
        <ele>1797.6</ele>
        <time>2020-07-27T13:06:26Z</time>
      </trkpt>
      <trkpt lat="42.9054670" lon="0.1379630">
        <ele>1798.0</ele>
        <time>2020-07-27T13:06:30Z</time>
      </trkpt>
      <trkpt lat="42.9055230" lon="0.1380140">
        <ele>1798.6</ele>
        <time>2020-07-27T13:06:33Z</time>
      </trkpt>
      <trkpt lat="42.9055930" lon="0.1380930">
        <ele>1799.6</ele>
        <time>2020-07-27T13:06:37Z</time>
      </trkpt>
      <trkpt lat="42.9056120" lon="0.1381130">
        <ele>1799.8</ele>
        <time>2020-07-27T13:06:38Z</time>
      </trkpt>
      <trkpt lat="42.9057090" lon="0.1382020">
        <ele>1800.6</ele>
        <time>2020-07-27T13:06:43Z</time>
      </trkpt>
      <trkpt lat="42.9058050" lon="0.1382890">
        <ele>1801.4</ele>
        <time>2020-07-27T13:06:48Z</time>
      </trkpt>
      <trkpt lat="42.9058250" lon="0.1383040">
        <ele>1801.6</ele>
        <time>2020-07-27T13:06:49Z</time>
      </trkpt>
      <trkpt lat="42.9059140" lon="0.1383590">
        <ele>1802.4</ele>
        <time>2020-07-27T13:06:53Z</time>
      </trkpt>
      <trkpt lat="42.9059370" lon="0.1383680">
        <ele>1802.6</ele>
        <time>2020-07-27T13:06:54Z</time>
      </trkpt>
      <trkpt lat="42.9059830" lon="0.1383890">
        <ele>1803.2</ele>
        <time>2020-07-27T13:06:56Z</time>
      </trkpt>
      <trkpt lat="42.9060290" lon="0.1384140">
        <ele>1803.6</ele>
        <time>2020-07-27T13:06:58Z</time>
      </trkpt>
      <trkpt lat="42.9061270" lon="0.1384990">
        <ele>1804.8</ele>
        <time>2020-07-27T13:07:03Z</time>
      </trkpt>
      <trkpt lat="42.9061430" lon="0.1385200">
        <ele>1805.2</ele>
        <time>2020-07-27T13:07:04Z</time>
      </trkpt>
      <trkpt lat="42.9061960" lon="0.1385810">
        <ele>1805.8</ele>
        <time>2020-07-27T13:07:07Z</time>
      </trkpt>
      <trkpt lat="42.9063030" lon="0.1386700">
        <ele>1806.6</ele>
        <time>2020-07-27T13:07:12Z</time>
      </trkpt>
      <trkpt lat="42.9063240" lon="0.1386860">
        <ele>1806.8</ele>
        <time>2020-07-27T13:07:13Z</time>
      </trkpt>
      <trkpt lat="42.9064370" lon="0.1387260">
        <ele>1807.8</ele>
        <time>2020-07-27T13:07:18Z</time>
      </trkpt>
      <trkpt lat="42.9064820" lon="0.1387270">
        <ele>1808.0</ele>
        <time>2020-07-27T13:07:20Z</time>
      </trkpt>
      <trkpt lat="42.9065780" lon="0.1387300">
        <ele>1808.8</ele>
        <time>2020-07-27T13:07:24Z</time>
      </trkpt>
      <trkpt lat="42.9066710" lon="0.1387140">
        <ele>1809.4</ele>
        <time>2020-07-27T13:07:28Z</time>
      </trkpt>
      <trkpt lat="42.9067370" lon="0.1386940">
        <ele>1809.8</ele>
        <time>2020-07-27T13:07:31Z</time>
      </trkpt>
      <trkpt lat="42.9068260" lon="0.1386660">
        <ele>1810.8</ele>
        <time>2020-07-27T13:07:35Z</time>
      </trkpt>
      <trkpt lat="42.9068720" lon="0.1386500">
        <ele>1811.2</ele>
        <time>2020-07-27T13:07:37Z</time>
      </trkpt>
      <trkpt lat="42.9069430" lon="0.1386290">
        <ele>1811.8</ele>
        <time>2020-07-27T13:07:40Z</time>
      </trkpt>
      <trkpt lat="42.9070780" lon="0.1385990">
        <ele>1812.8</ele>
        <time>2020-07-27T13:07:46Z</time>
      </trkpt>
      <trkpt lat="42.9072070" lon="0.1386110">
        <ele>1813.8</ele>
        <time>2020-07-27T13:07:52Z</time>
      </trkpt>
      <trkpt lat="42.9072700" lon="0.1386200">
        <ele>1814.2</ele>
        <time>2020-07-27T13:07:55Z</time>
      </trkpt>
      <trkpt lat="42.9073330" lon="0.1386160">
        <ele>1814.8</ele>
        <time>2020-07-27T13:07:58Z</time>
      </trkpt>
      <trkpt lat="42.9074190" lon="0.1385890">
        <ele>1816.0</ele>
        <time>2020-07-27T13:08:02Z</time>
      </trkpt>
      <trkpt lat="42.9074400" lon="0.1385780">
        <ele>1816.2</ele>
        <time>2020-07-27T13:08:03Z</time>
      </trkpt>
      <trkpt lat="42.9075390" lon="0.1385060">
        <ele>1816.8</ele>
        <time>2020-07-27T13:08:08Z</time>
      </trkpt>
      <trkpt lat="42.9076180" lon="0.1384350">
        <ele>1817.4</ele>
        <time>2020-07-27T13:08:12Z</time>
      </trkpt>
      <trkpt lat="42.9076360" lon="0.1384160">
        <ele>1817.6</ele>
        <time>2020-07-27T13:08:13Z</time>
      </trkpt>
      <trkpt lat="42.9077180" lon="0.1383110">
        <ele>1818.6</ele>
        <time>2020-07-27T13:08:18Z</time>
      </trkpt>
      <trkpt lat="42.9077620" lon="0.1382400">
        <ele>1819.0</ele>
        <time>2020-07-27T13:08:21Z</time>
      </trkpt>
      <trkpt lat="42.9078280" lon="0.1381560">
        <ele>1819.6</ele>
        <time>2020-07-27T13:08:25Z</time>
      </trkpt>
      <trkpt lat="42.9079050" lon="0.1380880">
        <ele>1820.4</ele>
        <time>2020-07-27T13:08:29Z</time>
      </trkpt>
      <trkpt lat="42.9079260" lon="0.1380750">
        <ele>1820.8</ele>
        <time>2020-07-27T13:08:30Z</time>
      </trkpt>
      <trkpt lat="42.9080270" lon="0.1380080">
        <ele>1821.8</ele>
        <time>2020-07-27T13:08:35Z</time>
      </trkpt>
      <trkpt lat="42.9081260" lon="0.1379430">
        <ele>1822.2</ele>
        <time>2020-07-27T13:08:40Z</time>
      </trkpt>
      <trkpt lat="42.9081660" lon="0.1379170">
        <ele>1823.0</ele>
        <time>2020-07-27T13:08:42Z</time>
      </trkpt>
      <trkpt lat="42.9082720" lon="0.1378560">
        <ele>1824.0</ele>
        <time>2020-07-27T13:08:47Z</time>
      </trkpt>
      <trkpt lat="42.9083360" lon="0.1378250">
        <ele>1824.4</ele>
        <time>2020-07-27T13:08:50Z</time>
      </trkpt>
      <trkpt lat="42.9084210" lon="0.1378000">
        <ele>1825.0</ele>
        <time>2020-07-27T13:08:54Z</time>
      </trkpt>
      <trkpt lat="42.9085110" lon="0.1378040">
        <ele>1826.0</ele>
        <time>2020-07-27T13:08:58Z</time>
      </trkpt>
      <trkpt lat="42.9086270" lon="0.1378120">
        <ele>1827.0</ele>
        <time>2020-07-27T13:09:03Z</time>
      </trkpt>
      <trkpt lat="42.9087430" lon="0.1378010">
        <ele>1827.8</ele>
        <time>2020-07-27T13:09:08Z</time>
      </trkpt>
      <trkpt lat="42.9087680" lon="0.1378000">
        <ele>1828.2</ele>
        <time>2020-07-27T13:09:09Z</time>
      </trkpt>
      <trkpt lat="42.9089340" lon="0.1378170">
        <ele>1829.2</ele>
        <time>2020-07-27T13:09:16Z</time>
      </trkpt>
      <trkpt lat="42.9089780" lon="0.1378360">
        <ele>1829.4</ele>
        <time>2020-07-27T13:09:18Z</time>
      </trkpt>
      <trkpt lat="42.9090670" lon="0.1378660">
        <ele>1830.2</ele>
        <time>2020-07-27T13:09:22Z</time>
      </trkpt>
      <trkpt lat="42.9091810" lon="0.1379120">
        <ele>1831.6</ele>
        <time>2020-07-27T13:09:27Z</time>
      </trkpt>
      <trkpt lat="42.9092930" lon="0.1379520">
        <ele>1832.8</ele>
        <time>2020-07-27T13:09:32Z</time>
      </trkpt>
      <trkpt lat="42.9093790" lon="0.1379810">
        <ele>1833.8</ele>
        <time>2020-07-27T13:09:36Z</time>
      </trkpt>
      <trkpt lat="42.9094020" lon="0.1379850">
        <ele>1833.8</ele>
        <time>2020-07-27T13:09:37Z</time>
      </trkpt>
      <trkpt lat="42.9095210" lon="0.1380000">
        <ele>1835.0</ele>
        <time>2020-07-27T13:09:42Z</time>
      </trkpt>
      <trkpt lat="42.9095930" lon="0.1380130">
        <ele>1835.2</ele>
        <time>2020-07-27T13:09:45Z</time>
      </trkpt>
      <trkpt lat="42.9096830" lon="0.1380240">
        <ele>1835.8</ele>
        <time>2020-07-27T13:09:49Z</time>
      </trkpt>
      <trkpt lat="42.9098040" lon="0.1380350">
        <ele>1836.8</ele>
        <time>2020-07-27T13:09:54Z</time>
      </trkpt>
      <trkpt lat="42.9098290" lon="0.1380350">
        <ele>1837.0</ele>
        <time>2020-07-27T13:09:55Z</time>
      </trkpt>
      <trkpt lat="42.9099490" lon="0.1380400">
        <ele>1838.0</ele>
        <time>2020-07-27T13:10:00Z</time>
      </trkpt>
      <trkpt lat="42.9100220" lon="0.1380480">
        <ele>1838.6</ele>
        <time>2020-07-27T13:10:03Z</time>
      </trkpt>
      <trkpt lat="42.9100680" lon="0.1380480">
        <ele>1839.0</ele>
        <time>2020-07-27T13:10:05Z</time>
      </trkpt>
      <trkpt lat="42.9101820" lon="0.1380680">
        <ele>1840.2</ele>
        <time>2020-07-27T13:10:10Z</time>
      </trkpt>
      <trkpt lat="42.9102270" lon="0.1380630">
        <ele>1840.6</ele>
        <time>2020-07-27T13:10:12Z</time>
      </trkpt>
      <trkpt lat="42.9102950" lon="0.1380540">
        <ele>1841.0</ele>
        <time>2020-07-27T13:10:15Z</time>
      </trkpt>
      <trkpt lat="42.9104390" lon="0.1380460">
        <ele>1842.0</ele>
        <time>2020-07-27T13:10:21Z</time>
      </trkpt>
      <trkpt lat="42.9104630" lon="0.1380450">
        <ele>1842.2</ele>
        <time>2020-07-27T13:10:22Z</time>
      </trkpt>
      <trkpt lat="42.9105600" lon="0.1380550">
        <ele>1843.4</ele>
        <time>2020-07-27T13:10:26Z</time>
      </trkpt>
      <trkpt lat="42.9106330" lon="0.1380860">
        <ele>1844.2</ele>
        <time>2020-07-27T13:10:29Z</time>
      </trkpt>
      <trkpt lat="42.9106750" lon="0.1381260">
        <ele>1844.4</ele>
        <time>2020-07-27T13:10:31Z</time>
      </trkpt>
      <trkpt lat="42.9107460" lon="0.1382330">
        <ele>1845.2</ele>
        <time>2020-07-27T13:10:35Z</time>
      </trkpt>
      <trkpt lat="42.9107620" lon="0.1382580">
        <ele>1845.4</ele>
        <time>2020-07-27T13:10:36Z</time>
      </trkpt>
      <trkpt lat="42.9108350" lon="0.1383920">
        <ele>1846.6</ele>
        <time>2020-07-27T13:10:41Z</time>
      </trkpt>
      <trkpt lat="42.9108800" lon="0.1384750">
        <ele>1847.2</ele>
        <time>2020-07-27T13:10:44Z</time>
      </trkpt>
      <trkpt lat="42.9109250" lon="0.1385540">
        <ele>1847.6</ele>
        <time>2020-07-27T13:10:47Z</time>
      </trkpt>
      <trkpt lat="42.9109680" lon="0.1385790">
        <ele>1848.0</ele>
        <time>2020-07-27T13:10:49Z</time>
      </trkpt>
      <trkpt lat="42.9110540" lon="0.1385770">
        <ele>1848.6</ele>
        <time>2020-07-27T13:10:52Z</time>
      </trkpt>
      <trkpt lat="42.9111070" lon="0.1385290">
        <ele>1849.0</ele>
        <time>2020-07-27T13:10:54Z</time>
      </trkpt>
      <trkpt lat="42.9113110" lon="0.1382320">
        <ele>1849.4</ele>
        <time>2020-07-27T13:11:02Z</time>
      </trkpt>
      <trkpt lat="42.9113850" lon="0.1381340">
        <ele>1849.4</ele>
        <time>2020-07-27T13:11:05Z</time>
      </trkpt>
      <trkpt lat="42.9114820" lon="0.1380160">
        <ele>1849.8</ele>
        <time>2020-07-27T13:11:09Z</time>
      </trkpt>
      <trkpt lat="42.9115520" lon="0.1379320">
        <ele>1850.2</ele>
        <time>2020-07-27T13:11:12Z</time>
      </trkpt>
      <trkpt lat="42.9116640" lon="0.1378750">
        <ele>1850.8</ele>
        <time>2020-07-27T13:11:16Z</time>
      </trkpt>
      <trkpt lat="42.9117530" lon="0.1378450">
        <ele>1851.2</ele>
        <time>2020-07-27T13:11:19Z</time>
      </trkpt>
      <trkpt lat="42.9119210" lon="0.1378320">
        <ele>1852.2</ele>
        <time>2020-07-27T13:11:24Z</time>
      </trkpt>
      <trkpt lat="42.9119570" lon="0.1378380">
        <ele>1852.4</ele>
        <time>2020-07-27T13:11:25Z</time>
      </trkpt>
      <trkpt lat="42.9122420" lon="0.1378290">
        <ele>1853.2</ele>
        <time>2020-07-27T13:11:33Z</time>
      </trkpt>
      <trkpt lat="42.9123430" lon="0.1377870">
        <ele>1853.4</ele>
        <time>2020-07-27T13:11:36Z</time>
      </trkpt>
      <trkpt lat="42.9124480" lon="0.1377220">
        <ele>1854.0</ele>
        <time>2020-07-27T13:11:39Z</time>
      </trkpt>
      <trkpt lat="42.9125500" lon="0.1376460">
        <ele>1854.6</ele>
        <time>2020-07-27T13:11:42Z</time>
      </trkpt>
      <trkpt lat="42.9126340" lon="0.1375360">
        <ele>1854.6</ele>
        <time>2020-07-27T13:11:45Z</time>
      </trkpt>
      <trkpt lat="42.9128100" lon="0.1372000">
        <ele>1855.0</ele>
        <time>2020-07-27T13:11:53Z</time>
      </trkpt>
      <trkpt lat="42.9129900" lon="0.1368940">
        <ele>1855.4</ele>
        <time>2020-07-27T13:12:01Z</time>
      </trkpt>
      <trkpt lat="42.9131660" lon="0.1367720">
        <ele>1855.8</ele>
        <time>2020-07-27T13:12:07Z</time>
      </trkpt>
      <trkpt lat="42.9132870" lon="0.1367750">
        <ele>1856.0</ele>
        <time>2020-07-27T13:12:11Z</time>
      </trkpt>
      <trkpt lat="42.9133370" lon="0.1368140">
        <ele>1856.4</ele>
        <time>2020-07-27T13:12:13Z</time>
      </trkpt>
      <trkpt lat="42.9133750" lon="0.1368950">
        <ele>1857.2</ele>
        <time>2020-07-27T13:12:16Z</time>
      </trkpt>
      <trkpt lat="42.9133760" lon="0.1369730">
        <ele>1857.6</ele>
        <time>2020-07-27T13:12:18Z</time>
      </trkpt>
      <trkpt lat="42.9133580" lon="0.1370490">
        <ele>1858.2</ele>
        <time>2020-07-27T13:12:20Z</time>
      </trkpt>
      <trkpt lat="42.9133230" lon="0.1371120">
        <ele>1858.8</ele>
        <time>2020-07-27T13:12:22Z</time>
      </trkpt>
      <trkpt lat="42.9132460" lon="0.1371800">
        <ele>1859.8</ele>
        <time>2020-07-27T13:12:25Z</time>
      </trkpt>
      <trkpt lat="42.9131210" lon="0.1372670">
        <ele>1860.8</ele>
        <time>2020-07-27T13:12:30Z</time>
      </trkpt>
      <trkpt lat="42.9130780" lon="0.1372980">
        <ele>1861.6</ele>
        <time>2020-07-27T13:12:32Z</time>
      </trkpt>
      <trkpt lat="42.9130580" lon="0.1373120">
        <ele>1862.2</ele>
        <time>2020-07-27T13:12:33Z</time>
      </trkpt>
      <trkpt lat="42.9129980" lon="0.1373580">
        <ele>1863.4</ele>
        <time>2020-07-27T13:12:36Z</time>
      </trkpt>
      <trkpt lat="42.9129290" lon="0.1374340">
        <ele>1864.6</ele>
        <time>2020-07-27T13:12:40Z</time>
      </trkpt>
      <trkpt lat="42.9129140" lon="0.1374550">
        <ele>1864.8</ele>
        <time>2020-07-27T13:12:41Z</time>
      </trkpt>
      <trkpt lat="42.9128770" lon="0.1375340">
        <ele>1865.6</ele>
        <time>2020-07-27T13:12:44Z</time>
      </trkpt>
      <trkpt lat="42.9128250" lon="0.1376360">
        <ele>1866.6</ele>
        <time>2020-07-27T13:12:48Z</time>
      </trkpt>
      <trkpt lat="42.9127650" lon="0.1377650">
        <ele>1867.8</ele>
        <time>2020-07-27T13:12:53Z</time>
      </trkpt>
      <trkpt lat="42.9127010" lon="0.1378820">
        <ele>1868.4</ele>
        <time>2020-07-27T13:12:58Z</time>
      </trkpt>
      <trkpt lat="42.9126580" lon="0.1379460">
        <ele>1868.6</ele>
        <time>2020-07-27T13:13:01Z</time>
      </trkpt>
      <trkpt lat="42.9125800" lon="0.1380640">
        <ele>1869.8</ele>
        <time>2020-07-27T13:13:06Z</time>
      </trkpt>
      <trkpt lat="42.9125490" lon="0.1381100">
        <ele>1870.6</ele>
        <time>2020-07-27T13:13:08Z</time>
      </trkpt>
      <trkpt lat="42.9125110" lon="0.1381460">
        <ele>1871.0</ele>
        <time>2020-07-27T13:13:10Z</time>
      </trkpt>
      <trkpt lat="42.9124280" lon="0.1382000">
        <ele>1871.6</ele>
        <time>2020-07-27T13:13:14Z</time>
      </trkpt>
      <trkpt lat="42.9123830" lon="0.1382190">
        <ele>1872.2</ele>
        <time>2020-07-27T13:13:16Z</time>
      </trkpt>
      <trkpt lat="42.9122960" lon="0.1382600">
        <ele>1872.8</ele>
        <time>2020-07-27T13:13:20Z</time>
      </trkpt>
      <trkpt lat="42.9122750" lon="0.1382700">
        <ele>1873.0</ele>
        <time>2020-07-27T13:13:21Z</time>
      </trkpt>
      <trkpt lat="42.9122520" lon="0.1382760">
        <ele>1873.4</ele>
        <time>2020-07-27T13:13:22Z</time>
      </trkpt>
      <trkpt lat="42.9121480" lon="0.1383200">
        <ele>1874.4</ele>
        <time>2020-07-27T13:13:27Z</time>
      </trkpt>
      <trkpt lat="42.9120100" lon="0.1383510">
        <ele>1875.4</ele>
        <time>2020-07-27T13:13:34Z</time>
      </trkpt>
      <trkpt lat="42.9118870" lon="0.1383750">
        <ele>1876.4</ele>
        <time>2020-07-27T13:13:40Z</time>
      </trkpt>
      <trkpt lat="42.9118700" lon="0.1383830">
        <ele>1876.8</ele>
        <time>2020-07-27T13:13:41Z</time>
      </trkpt>
      <trkpt lat="42.9118040" lon="0.1384190">
        <ele>1877.6</ele>
        <time>2020-07-27T13:13:44Z</time>
      </trkpt>
      <trkpt lat="42.9117290" lon="0.1384820">
        <ele>1878.6</ele>
        <time>2020-07-27T13:13:48Z</time>
      </trkpt>
      <trkpt lat="42.9117150" lon="0.1385030">
        <ele>1879.0</ele>
        <time>2020-07-27T13:13:49Z</time>
      </trkpt>
      <trkpt lat="42.9116350" lon="0.1386550">
        <ele>1880.0</ele>
        <time>2020-07-27T13:13:55Z</time>
      </trkpt>
      <trkpt lat="42.9115600" lon="0.1387750">
        <ele>1881.0</ele>
        <time>2020-07-27T13:14:00Z</time>
      </trkpt>
      <trkpt lat="42.9115310" lon="0.1388230">
        <ele>1881.6</ele>
        <time>2020-07-27T13:14:02Z</time>
      </trkpt>
      <trkpt lat="42.9114900" lon="0.1389340">
        <ele>1882.2</ele>
        <time>2020-07-27T13:14:06Z</time>
      </trkpt>
      <trkpt lat="42.9114800" lon="0.1389590">
        <ele>1882.2</ele>
        <time>2020-07-27T13:14:07Z</time>
      </trkpt>
      <trkpt lat="42.9114670" lon="0.1389780">
        <ele>1882.4</ele>
        <time>2020-07-27T13:14:08Z</time>
      </trkpt>
      <trkpt lat="42.9114200" lon="0.1390680">
        <ele>1883.6</ele>
        <time>2020-07-27T13:14:12Z</time>
      </trkpt>
      <trkpt lat="42.9114050" lon="0.1391240">
        <ele>1884.2</ele>
        <time>2020-07-27T13:14:14Z</time>
      </trkpt>
      <trkpt lat="42.9113810" lon="0.1392030">
        <ele>1884.6</ele>
        <time>2020-07-27T13:14:17Z</time>
      </trkpt>
      <trkpt lat="42.9113580" lon="0.1392780">
        <ele>1885.4</ele>
        <time>2020-07-27T13:14:20Z</time>
      </trkpt>
      <trkpt lat="42.9113520" lon="0.1393040">
        <ele>1885.6</ele>
        <time>2020-07-27T13:14:21Z</time>
      </trkpt>
      <trkpt lat="42.9113020" lon="0.1393910">
        <ele>1886.8</ele>
        <time>2020-07-27T13:14:25Z</time>
      </trkpt>
      <trkpt lat="42.9112650" lon="0.1394250">
        <ele>1887.0</ele>
        <time>2020-07-27T13:14:27Z</time>
      </trkpt>
      <trkpt lat="42.9112230" lon="0.1394480">
        <ele>1887.6</ele>
        <time>2020-07-27T13:14:29Z</time>
      </trkpt>
      <trkpt lat="42.9111300" lon="0.1394490">
        <ele>1888.6</ele>
        <time>2020-07-27T13:14:33Z</time>
      </trkpt>
      <trkpt lat="42.9111070" lon="0.1394530">
        <ele>1888.8</ele>
        <time>2020-07-27T13:14:34Z</time>
      </trkpt>
      <trkpt lat="42.9110610" lon="0.1394560">
        <ele>1889.2</ele>
        <time>2020-07-27T13:14:36Z</time>
      </trkpt>
      <trkpt lat="42.9109900" lon="0.1394470">
        <ele>1889.8</ele>
        <time>2020-07-27T13:14:39Z</time>
      </trkpt>
      <trkpt lat="42.9109650" lon="0.1394390">
        <ele>1889.8</ele>
        <time>2020-07-27T13:14:40Z</time>
      </trkpt>
      <trkpt lat="42.9108550" lon="0.1394260">
        <ele>1890.6</ele>
        <time>2020-07-27T13:14:45Z</time>
      </trkpt>
      <trkpt lat="42.9108110" lon="0.1394080">
        <ele>1890.8</ele>
        <time>2020-07-27T13:14:47Z</time>
      </trkpt>
      <trkpt lat="42.9107560" lon="0.1393940">
        <ele>1891.4</ele>
        <time>2020-07-27T13:14:50Z</time>
      </trkpt>
      <trkpt lat="42.9106610" lon="0.1393570">
        <ele>1892.4</ele>
        <time>2020-07-27T13:14:55Z</time>
      </trkpt>
      <trkpt lat="42.9106420" lon="0.1393510">
        <ele>1892.6</ele>
        <time>2020-07-27T13:14:56Z</time>
      </trkpt>
      <trkpt lat="42.9105660" lon="0.1393310">
        <ele>1893.4</ele>
        <time>2020-07-27T13:15:00Z</time>
      </trkpt>
      <trkpt lat="42.9105110" lon="0.1393100">
        <ele>1894.4</ele>
        <time>2020-07-27T13:15:03Z</time>
      </trkpt>
      <trkpt lat="42.9104700" lon="0.1392970">
        <ele>1894.8</ele>
        <time>2020-07-27T13:15:05Z</time>
      </trkpt>
      <trkpt lat="42.9104320" lon="0.1392920">
        <ele>1895.2</ele>
        <time>2020-07-27T13:15:07Z</time>
      </trkpt>
      <trkpt lat="42.9103340" lon="0.1392710">
        <ele>1895.8</ele>
        <time>2020-07-27T13:15:12Z</time>
      </trkpt>
      <trkpt lat="42.9103130" lon="0.1392690">
        <ele>1896.0</ele>
        <time>2020-07-27T13:15:13Z</time>
      </trkpt>
      <trkpt lat="42.9101880" lon="0.1392780">
        <ele>1896.8</ele>
        <time>2020-07-27T13:15:19Z</time>
      </trkpt>
      <trkpt lat="42.9101660" lon="0.1392720">
        <ele>1897.0</ele>
        <time>2020-07-27T13:15:20Z</time>
      </trkpt>
      <trkpt lat="42.9100570" lon="0.1392550">
        <ele>1898.2</ele>
        <time>2020-07-27T13:15:25Z</time>
      </trkpt>
      <trkpt lat="42.9099960" lon="0.1392640">
        <ele>1898.6</ele>
        <time>2020-07-27T13:15:28Z</time>
      </trkpt>
      <trkpt lat="42.9099110" lon="0.1392730">
        <ele>1899.2</ele>
        <time>2020-07-27T13:15:32Z</time>
      </trkpt>
      <trkpt lat="42.9098220" lon="0.1392750">
        <ele>1899.8</ele>
        <time>2020-07-27T13:15:36Z</time>
      </trkpt>
      <trkpt lat="42.9098000" lon="0.1392800">
        <ele>1900.2</ele>
        <time>2020-07-27T13:15:37Z</time>
      </trkpt>
      <trkpt lat="42.9096880" lon="0.1392730">
        <ele>1901.2</ele>
        <time>2020-07-27T13:15:42Z</time>
      </trkpt>
      <trkpt lat="42.9096670" lon="0.1392710">
        <ele>1901.4</ele>
        <time>2020-07-27T13:15:43Z</time>
      </trkpt>
      <trkpt lat="42.9095650" lon="0.1392670">
        <ele>1902.2</ele>
        <time>2020-07-27T13:15:48Z</time>
      </trkpt>
      <trkpt lat="42.9095440" lon="0.1392630">
        <ele>1902.4</ele>
        <time>2020-07-27T13:15:49Z</time>
      </trkpt>
      <trkpt lat="42.9094890" lon="0.1392610">
        <ele>1903.2</ele>
        <time>2020-07-27T13:15:52Z</time>
      </trkpt>
      <trkpt lat="42.9094700" lon="0.1392590">
        <ele>1903.4</ele>
        <time>2020-07-27T13:15:53Z</time>
      </trkpt>
      <trkpt lat="42.9094080" lon="0.1392650">
        <ele>1904.0</ele>
        <time>2020-07-27T13:15:56Z</time>
      </trkpt>
      <trkpt lat="42.9093640" lon="0.1392670">
        <ele>1904.2</ele>
        <time>2020-07-27T13:15:58Z</time>
      </trkpt>
      <trkpt lat="42.9092780" lon="0.1392850">
        <ele>1905.2</ele>
        <time>2020-07-27T13:16:02Z</time>
      </trkpt>
      <trkpt lat="42.9092370" lon="0.1392980">
        <ele>1905.4</ele>
        <time>2020-07-27T13:16:04Z</time>
      </trkpt>
      <trkpt lat="42.9091940" lon="0.1393150">
        <ele>1906.2</ele>
        <time>2020-07-27T13:16:06Z</time>
      </trkpt>
      <trkpt lat="42.9091100" lon="0.1393470">
        <ele>1907.4</ele>
        <time>2020-07-27T13:16:10Z</time>
      </trkpt>
      <trkpt lat="42.9090900" lon="0.1393580">
        <ele>1907.6</ele>
        <time>2020-07-27T13:16:11Z</time>
      </trkpt>
      <trkpt lat="42.9090040" lon="0.1394140">
        <ele>1908.2</ele>
        <time>2020-07-27T13:16:15Z</time>
      </trkpt>
      <trkpt lat="42.9089250" lon="0.1394770">
        <ele>1909.2</ele>
        <time>2020-07-27T13:16:19Z</time>
      </trkpt>
      <trkpt lat="42.9089080" lon="0.1394940">
        <ele>1909.6</ele>
        <time>2020-07-27T13:16:20Z</time>
      </trkpt>
      <trkpt lat="42.9088550" lon="0.1395410">
        <ele>1910.4</ele>
        <time>2020-07-27T13:16:23Z</time>
      </trkpt>
      <trkpt lat="42.9087920" lon="0.1396170">
        <ele>1911.2</ele>
        <time>2020-07-27T13:16:27Z</time>
      </trkpt>
      <trkpt lat="42.9087610" lon="0.1396560">
        <ele>1911.8</ele>
        <time>2020-07-27T13:16:29Z</time>
      </trkpt>
      <trkpt lat="42.9086990" lon="0.1397330">
        <ele>1912.8</ele>
        <time>2020-07-27T13:16:33Z</time>
      </trkpt>
      <trkpt lat="42.9086310" lon="0.1397980">
        <ele>1913.4</ele>
        <time>2020-07-27T13:16:37Z</time>
      </trkpt>
      <trkpt lat="42.9085890" lon="0.1398650">
        <ele>1913.6</ele>
        <time>2020-07-27T13:16:40Z</time>
      </trkpt>
      <trkpt lat="42.9085180" lon="0.1399600">
        <ele>1914.8</ele>
        <time>2020-07-27T13:16:45Z</time>
      </trkpt>
      <trkpt lat="42.9084440" lon="0.1400470">
        <ele>1915.8</ele>
        <time>2020-07-27T13:16:50Z</time>
      </trkpt>
      <trkpt lat="42.9083900" lon="0.1400840">
        <ele>1916.6</ele>
        <time>2020-07-27T13:16:53Z</time>
      </trkpt>
      <trkpt lat="42.9083550" lon="0.1401100">
        <ele>1917.2</ele>
        <time>2020-07-27T13:16:55Z</time>
      </trkpt>
      <trkpt lat="42.9082740" lon="0.1401840">
        <ele>1918.0</ele>
        <time>2020-07-27T13:17:00Z</time>
      </trkpt>
      <trkpt lat="42.9082220" lon="0.1402260">
        <ele>1918.8</ele>
        <time>2020-07-27T13:17:03Z</time>
      </trkpt>
      <trkpt lat="42.9081870" lon="0.1402540">
        <ele>1919.2</ele>
        <time>2020-07-27T13:17:05Z</time>
      </trkpt>
      <trkpt lat="42.9080780" lon="0.1403770">
        <ele>1920.2</ele>
        <time>2020-07-27T13:17:12Z</time>
      </trkpt>
      <trkpt lat="42.9079970" lon="0.1405060">
        <ele>1921.2</ele>
        <time>2020-07-27T13:17:18Z</time>
      </trkpt>
      <trkpt lat="42.9079530" lon="0.1405700">
        <ele>1921.8</ele>
        <time>2020-07-27T13:17:21Z</time>
      </trkpt>
      <trkpt lat="42.9079090" lon="0.1406330">
        <ele>1922.4</ele>
        <time>2020-07-27T13:17:24Z</time>
      </trkpt>
      <trkpt lat="42.9078070" lon="0.1407460">
        <ele>1923.6</ele>
        <time>2020-07-27T13:17:30Z</time>
      </trkpt>
      <trkpt lat="42.9077570" lon="0.1408050">
        <ele>1924.6</ele>
        <time>2020-07-27T13:17:33Z</time>
      </trkpt>
      <trkpt lat="42.9076950" lon="0.1408880">
        <ele>1925.4</ele>
        <time>2020-07-27T13:17:37Z</time>
      </trkpt>
      <trkpt lat="42.9076810" lon="0.1409120">
        <ele>1925.6</ele>
        <time>2020-07-27T13:17:38Z</time>
      </trkpt>
      <trkpt lat="42.9076370" lon="0.1409820">
        <ele>1926.6</ele>
        <time>2020-07-27T13:17:41Z</time>
      </trkpt>
      <trkpt lat="42.9075720" lon="0.1410790">
        <ele>1927.6</ele>
        <time>2020-07-27T13:17:45Z</time>
      </trkpt>
      <trkpt lat="42.9075410" lon="0.1411280">
        <ele>1928.0</ele>
        <time>2020-07-27T13:17:47Z</time>
      </trkpt>
      <trkpt lat="42.9074950" lon="0.1412000">
        <ele>1928.6</ele>
        <time>2020-07-27T13:17:50Z</time>
      </trkpt>
      <trkpt lat="42.9074270" lon="0.1413610">
        <ele>1929.6</ele>
        <time>2020-07-27T13:17:56Z</time>
      </trkpt>
      <trkpt lat="42.9073720" lon="0.1415230">
        <ele>1930.6</ele>
        <time>2020-07-27T13:18:02Z</time>
      </trkpt>
      <trkpt lat="42.9073500" lon="0.1416060">
        <ele>1931.8</ele>
        <time>2020-07-27T13:18:05Z</time>
      </trkpt>
      <trkpt lat="42.9073430" lon="0.1416350">
        <ele>1932.0</ele>
        <time>2020-07-27T13:18:06Z</time>
      </trkpt>
      <trkpt lat="42.9073290" lon="0.1416930">
        <ele>1933.0</ele>
        <time>2020-07-27T13:18:08Z</time>
      </trkpt>
      <trkpt lat="42.9072860" lon="0.1418310">
        <ele>1933.8</ele>
        <time>2020-07-27T13:18:13Z</time>
      </trkpt>
      <trkpt lat="42.9072630" lon="0.1419150">
        <ele>1934.4</ele>
        <time>2020-07-27T13:18:16Z</time>
      </trkpt>
      <trkpt lat="42.9072350" lon="0.1420600">
        <ele>1934.8</ele>
        <time>2020-07-27T13:18:21Z</time>
      </trkpt>
      <trkpt lat="42.9072180" lon="0.1421490">
        <ele>1935.4</ele>
        <time>2020-07-27T13:18:24Z</time>
      </trkpt>
      <trkpt lat="42.9072130" lon="0.1422050">
        <ele>1936.0</ele>
        <time>2020-07-27T13:18:26Z</time>
      </trkpt>
      <trkpt lat="42.9071930" lon="0.1423970">
        <ele>1937.0</ele>
        <time>2020-07-27T13:18:32Z</time>
      </trkpt>
      <trkpt lat="42.9072140" lon="0.1425980">
        <ele>1938.0</ele>
        <time>2020-07-27T13:18:38Z</time>
      </trkpt>
      <trkpt lat="42.9072290" lon="0.1426620">
        <ele>1938.4</ele>
        <time>2020-07-27T13:18:40Z</time>
      </trkpt>
      <trkpt lat="42.9072490" lon="0.1427200">
        <ele>1939.2</ele>
        <time>2020-07-27T13:18:42Z</time>
      </trkpt>
      <trkpt lat="42.9072970" lon="0.1428260">
        <ele>1940.2</ele>
        <time>2020-07-27T13:18:46Z</time>
      </trkpt>
      <trkpt lat="42.9073200" lon="0.1428810">
        <ele>1940.8</ele>
        <time>2020-07-27T13:18:48Z</time>
      </trkpt>
      <trkpt lat="42.9073480" lon="0.1429370">
        <ele>1941.4</ele>
        <time>2020-07-27T13:18:50Z</time>
      </trkpt>
      <trkpt lat="42.9074000" lon="0.1430540">
        <ele>1942.6</ele>
        <time>2020-07-27T13:18:54Z</time>
      </trkpt>
      <trkpt lat="42.9074160" lon="0.1431240">
        <ele>1943.4</ele>
        <time>2020-07-27T13:18:56Z</time>
      </trkpt>
      <trkpt lat="42.9074540" lon="0.1432580">
        <ele>1944.4</ele>
        <time>2020-07-27T13:19:00Z</time>
      </trkpt>
      <trkpt lat="42.9074620" lon="0.1432880">
        <ele>1944.8</ele>
        <time>2020-07-27T13:19:01Z</time>
      </trkpt>
      <trkpt lat="42.9074840" lon="0.1434330">
        <ele>1945.6</ele>
        <time>2020-07-27T13:19:06Z</time>
      </trkpt>
      <trkpt lat="42.9074840" lon="0.1434910">
        <ele>1946.0</ele>
        <time>2020-07-27T13:19:08Z</time>
      </trkpt>
      <trkpt lat="42.9074880" lon="0.1435770">
        <ele>1946.6</ele>
        <time>2020-07-27T13:19:11Z</time>
      </trkpt>
      <trkpt lat="42.9074850" lon="0.1437110">
        <ele>1947.6</ele>
        <time>2020-07-27T13:19:16Z</time>
      </trkpt>
      <trkpt lat="42.9074820" lon="0.1437370">
        <ele>1947.8</ele>
        <time>2020-07-27T13:19:17Z</time>
      </trkpt>
      <trkpt lat="42.9074400" lon="0.1438530">
        <ele>1948.6</ele>
        <time>2020-07-27T13:19:22Z</time>
      </trkpt>
      <trkpt lat="42.9074240" lon="0.1438680">
        <ele>1948.8</ele>
        <time>2020-07-27T13:19:23Z</time>
      </trkpt>
      <trkpt lat="42.9073760" lon="0.1439100">
        <ele>1949.6</ele>
        <time>2020-07-27T13:19:26Z</time>
      </trkpt>
      <trkpt lat="42.9072870" lon="0.1439720">
        <ele>1950.4</ele>
        <time>2020-07-27T13:19:31Z</time>
      </trkpt>
      <trkpt lat="42.9072670" lon="0.1439870">
        <ele>1950.6</ele>
        <time>2020-07-27T13:19:32Z</time>
      </trkpt>
      <trkpt lat="42.9071940" lon="0.1440400">
        <ele>1951.8</ele>
        <time>2020-07-27T13:19:36Z</time>
      </trkpt>
      <trkpt lat="42.9071770" lon="0.1440620">
        <ele>1952.0</ele>
        <time>2020-07-27T13:19:37Z</time>
      </trkpt>
      <trkpt lat="42.9071020" lon="0.1441390">
        <ele>1952.6</ele>
        <time>2020-07-27T13:19:41Z</time>
      </trkpt>
      <trkpt lat="42.9070340" lon="0.1441990">
        <ele>1953.4</ele>
        <time>2020-07-27T13:19:45Z</time>
      </trkpt>
      <trkpt lat="42.9069940" lon="0.1442200">
        <ele>1953.8</ele>
        <time>2020-07-27T13:19:47Z</time>
      </trkpt>
      <trkpt lat="42.9069320" lon="0.1442560">
        <ele>1954.8</ele>
        <time>2020-07-27T13:19:50Z</time>
      </trkpt>
      <trkpt lat="42.9068510" lon="0.1443070">
        <ele>1955.4</ele>
        <time>2020-07-27T13:19:54Z</time>
      </trkpt>
      <trkpt lat="42.9067830" lon="0.1443410">
        <ele>1955.8</ele>
        <time>2020-07-27T13:19:57Z</time>
      </trkpt>
      <trkpt lat="42.9066750" lon="0.1443980">
        <ele>1956.6</ele>
        <time>2020-07-27T13:20:02Z</time>
      </trkpt>
      <trkpt lat="42.9066320" lon="0.1444090">
        <ele>1956.8</ele>
        <time>2020-07-27T13:20:04Z</time>
      </trkpt>
      <trkpt lat="42.9065220" lon="0.1444630">
        <ele>1958.0</ele>
        <time>2020-07-27T13:20:09Z</time>
      </trkpt>
      <trkpt lat="42.9063760" lon="0.1445360">
        <ele>1958.8</ele>
        <time>2020-07-27T13:20:16Z</time>
      </trkpt>
      <trkpt lat="42.9063610" lon="0.1445560">
        <ele>1959.0</ele>
        <time>2020-07-27T13:20:17Z</time>
      </trkpt>
      <trkpt lat="42.9062980" lon="0.1446480">
        <ele>1960.6</ele>
        <time>2020-07-27T13:20:21Z</time>
      </trkpt>
      <trkpt lat="42.9062580" lon="0.1447180">
        <ele>1961.0</ele>
        <time>2020-07-27T13:20:24Z</time>
      </trkpt>
      <trkpt lat="42.9062290" lon="0.1448220">
        <ele>1961.6</ele>
        <time>2020-07-27T13:20:28Z</time>
      </trkpt>
      <trkpt lat="42.9062020" lon="0.1448940">
        <ele>1962.4</ele>
        <time>2020-07-27T13:20:31Z</time>
      </trkpt>
      <trkpt lat="42.9061840" lon="0.1449440">
        <ele>1963.0</ele>
        <time>2020-07-27T13:20:33Z</time>
      </trkpt>
      <trkpt lat="42.9061220" lon="0.1450900">
        <ele>1963.8</ele>
        <time>2020-07-27T13:20:39Z</time>
      </trkpt>
      <trkpt lat="42.9061120" lon="0.1451160">
        <ele>1963.8</ele>
        <time>2020-07-27T13:20:40Z</time>
      </trkpt>
      <trkpt lat="42.9060670" lon="0.1452520">
        <ele>1965.0</ele>
        <time>2020-07-27T13:20:45Z</time>
      </trkpt>
      <trkpt lat="42.9060460" lon="0.1453360">
        <ele>1965.4</ele>
        <time>2020-07-27T13:20:48Z</time>
      </trkpt>
      <trkpt lat="42.9060400" lon="0.1453650">
        <ele>1965.8</ele>
        <time>2020-07-27T13:20:49Z</time>
      </trkpt>
      <trkpt lat="42.9060030" lon="0.1455340">
        <ele>1967.2</ele>
        <time>2020-07-27T13:20:55Z</time>
      </trkpt>
      <trkpt lat="42.9059860" lon="0.1455870">
        <ele>1968.0</ele>
        <time>2020-07-27T13:20:57Z</time>
      </trkpt>
      <trkpt lat="42.9059590" lon="0.1456550">
        <ele>1968.4</ele>
        <time>2020-07-27T13:21:00Z</time>
      </trkpt>
      <trkpt lat="42.9059220" lon="0.1457830">
        <ele>1968.6</ele>
        <time>2020-07-27T13:21:05Z</time>
      </trkpt>
      <trkpt lat="42.9059020" lon="0.1458290">
        <ele>1969.2</ele>
        <time>2020-07-27T13:21:07Z</time>
      </trkpt>
      <trkpt lat="42.9058620" lon="0.1459220">
        <ele>1970.2</ele>
        <time>2020-07-27T13:21:11Z</time>
      </trkpt>
      <trkpt lat="42.9058460" lon="0.1459390">
        <ele>1970.2</ele>
        <time>2020-07-27T13:21:12Z</time>
      </trkpt>
      <trkpt lat="42.9057670" lon="0.1460600">
        <ele>1971.4</ele>
        <time>2020-07-27T13:21:18Z</time>
      </trkpt>
      <trkpt lat="42.9057090" lon="0.1461400">
        <ele>1972.6</ele>
        <time>2020-07-27T13:21:22Z</time>
      </trkpt>
      <trkpt lat="42.9056540" lon="0.1462290">
        <ele>1973.6</ele>
        <time>2020-07-27T13:21:26Z</time>
      </trkpt>
      <trkpt lat="42.9056410" lon="0.1462490">
        <ele>1973.8</ele>
        <time>2020-07-27T13:21:27Z</time>
      </trkpt>
      <trkpt lat="42.9055580" lon="0.1463290">
        <ele>1974.6</ele>
        <time>2020-07-27T13:21:32Z</time>
      </trkpt>
      <trkpt lat="42.9055180" lon="0.1463500">
        <ele>1975.0</ele>
        <time>2020-07-27T13:21:34Z</time>
      </trkpt>
      <trkpt lat="42.9054540" lon="0.1463830">
        <ele>1975.6</ele>
        <time>2020-07-27T13:21:37Z</time>
      </trkpt>
      <trkpt lat="42.9053420" lon="0.1464140">
        <ele>1976.6</ele>
        <time>2020-07-27T13:21:42Z</time>
      </trkpt>
      <trkpt lat="42.9053180" lon="0.1464170">
        <ele>1976.8</ele>
        <time>2020-07-27T13:21:43Z</time>
      </trkpt>
      <trkpt lat="42.9052300" lon="0.1464430">
        <ele>1977.6</ele>
        <time>2020-07-27T13:21:47Z</time>
      </trkpt>
      <trkpt lat="42.9051730" lon="0.1464900">
        <ele>1977.8</ele>
        <time>2020-07-27T13:21:50Z</time>
      </trkpt>
      <trkpt lat="42.9051480" lon="0.1466100">
        <ele>1978.6</ele>
        <time>2020-07-27T13:21:54Z</time>
      </trkpt>
      <trkpt lat="42.9051890" lon="0.1466890">
        <ele>1979.0</ele>
        <time>2020-07-27T13:21:57Z</time>
      </trkpt>
      <trkpt lat="42.9052120" lon="0.1467010">
        <ele>1979.2</ele>
        <time>2020-07-27T13:21:58Z</time>
      </trkpt>
      <trkpt lat="42.9052840" lon="0.1467100">
        <ele>1979.6</ele>
        <time>2020-07-27T13:22:01Z</time>
      </trkpt>
      <trkpt lat="42.9053480" lon="0.1466890">
        <ele>1980.4</ele>
        <time>2020-07-27T13:22:04Z</time>
      </trkpt>
      <trkpt lat="42.9053690" lon="0.1466810">
        <ele>1980.6</ele>
        <time>2020-07-27T13:22:05Z</time>
      </trkpt>
      <trkpt lat="42.9053910" lon="0.1466710">
        <ele>1981.0</ele>
        <time>2020-07-27T13:22:06Z</time>
      </trkpt>
      <trkpt lat="42.9054810" lon="0.1466300">
        <ele>1981.6</ele>
        <time>2020-07-27T13:22:10Z</time>
      </trkpt>
      <trkpt lat="42.9055200" lon="0.1466140">
        <ele>1981.6</ele>
        <time>2020-07-27T13:22:12Z</time>
      </trkpt>
      <trkpt lat="42.9056060" lon="0.1465750">
        <ele>1982.8</ele>
        <time>2020-07-27T13:22:16Z</time>
      </trkpt>
      <trkpt lat="42.9056490" lon="0.1465520">
        <ele>1983.6</ele>
        <time>2020-07-27T13:22:18Z</time>
      </trkpt>
      <trkpt lat="42.9056710" lon="0.1465410">
        <ele>1983.8</ele>
        <time>2020-07-27T13:22:19Z</time>
      </trkpt>
      <trkpt lat="42.9057340" lon="0.1464990">
        <ele>1984.8</ele>
        <time>2020-07-27T13:22:22Z</time>
      </trkpt>
      <trkpt lat="42.9058060" lon="0.1464280">
        <ele>1985.8</ele>
        <time>2020-07-27T13:22:26Z</time>
      </trkpt>
      <trkpt lat="42.9058220" lon="0.1464080">
        <ele>1986.0</ele>
        <time>2020-07-27T13:22:27Z</time>
      </trkpt>
      <trkpt lat="42.9058980" lon="0.1463030">
        <ele>1987.0</ele>
        <time>2020-07-27T13:22:32Z</time>
      </trkpt>
      <trkpt lat="42.9059420" lon="0.1462460">
        <ele>1987.4</ele>
        <time>2020-07-27T13:22:35Z</time>
      </trkpt>
      <trkpt lat="42.9059840" lon="0.1461820">
        <ele>1988.0</ele>
        <time>2020-07-27T13:22:38Z</time>
      </trkpt>
      <trkpt lat="42.9060480" lon="0.1461200">
        <ele>1989.6</ele>
        <time>2020-07-27T13:22:42Z</time>
      </trkpt>
      <trkpt lat="42.9060640" lon="0.1461020">
        <ele>1990.0</ele>
        <time>2020-07-27T13:22:43Z</time>
      </trkpt>
      <trkpt lat="42.9061430" lon="0.1460180">
        <ele>1990.6</ele>
        <time>2020-07-27T13:22:48Z</time>
      </trkpt>
      <trkpt lat="42.9061930" lon="0.1459710">
        <ele>1991.2</ele>
        <time>2020-07-27T13:22:51Z</time>
      </trkpt>
      <trkpt lat="42.9062480" lon="0.1459350">
        <ele>1991.8</ele>
        <time>2020-07-27T13:22:54Z</time>
      </trkpt>
      <trkpt lat="42.9063400" lon="0.1458610">
        <ele>1992.2</ele>
        <time>2020-07-27T13:22:59Z</time>
      </trkpt>
      <trkpt lat="42.9063920" lon="0.1458130">
        <ele>1992.8</ele>
        <time>2020-07-27T13:23:02Z</time>
      </trkpt>
      <trkpt lat="42.9064490" lon="0.1457710">
        <ele>1994.2</ele>
        <time>2020-07-27T13:23:05Z</time>
      </trkpt>
      <trkpt lat="42.9065290" lon="0.1457300">
        <ele>1995.4</ele>
        <time>2020-07-27T13:23:09Z</time>
      </trkpt>
      <trkpt lat="42.9065860" lon="0.1456930">
        <ele>1995.8</ele>
        <time>2020-07-27T13:23:12Z</time>
      </trkpt>
      <trkpt lat="42.9066180" lon="0.1456600">
        <ele>1996.2</ele>
        <time>2020-07-27T13:23:14Z</time>
      </trkpt>
      <trkpt lat="42.9066660" lon="0.1455660">
        <ele>1997.0</ele>
        <time>2020-07-27T13:23:18Z</time>
      </trkpt>
      <trkpt lat="42.9066920" lon="0.1455190">
        <ele>1997.4</ele>
        <time>2020-07-27T13:23:20Z</time>
      </trkpt>
      <trkpt lat="42.9067660" lon="0.1454120">
        <ele>1998.2</ele>
        <time>2020-07-27T13:23:25Z</time>
      </trkpt>
      <trkpt lat="42.9068320" lon="0.1453370">
        <ele>1999.4</ele>
        <time>2020-07-27T13:23:29Z</time>
      </trkpt>
      <trkpt lat="42.9069130" lon="0.1452800">
        <ele>2000.2</ele>
        <time>2020-07-27T13:23:33Z</time>
      </trkpt>
      <trkpt lat="42.9069360" lon="0.1452700">
        <ele>2000.4</ele>
        <time>2020-07-27T13:23:34Z</time>
      </trkpt>
      <trkpt lat="42.9070290" lon="0.1452410">
        <ele>2001.6</ele>
        <time>2020-07-27T13:23:38Z</time>
      </trkpt>
      <trkpt lat="42.9070700" lon="0.1452310">
        <ele>2002.6</ele>
        <time>2020-07-27T13:23:40Z</time>
      </trkpt>
      <trkpt lat="42.9071070" lon="0.1452160">
        <ele>2003.4</ele>
        <time>2020-07-27T13:23:42Z</time>
      </trkpt>
      <trkpt lat="42.9071250" lon="0.1452100">
        <ele>2003.8</ele>
        <time>2020-07-27T13:23:43Z</time>
      </trkpt>
      <trkpt lat="42.9072020" lon="0.1451850">
        <ele>2004.8</ele>
        <time>2020-07-27T13:23:47Z</time>
      </trkpt>
      <trkpt lat="42.9072570" lon="0.1451720">
        <ele>2005.4</ele>
        <time>2020-07-27T13:23:50Z</time>
      </trkpt>
      <trkpt lat="42.9072770" lon="0.1451700">
        <ele>2005.8</ele>
        <time>2020-07-27T13:23:51Z</time>
      </trkpt>
      <trkpt lat="42.9073560" lon="0.1451520">
        <ele>2006.8</ele>
        <time>2020-07-27T13:23:55Z</time>
      </trkpt>
      <trkpt lat="42.9073980" lon="0.1451450">
        <ele>2007.2</ele>
        <time>2020-07-27T13:23:57Z</time>
      </trkpt>
      <trkpt lat="42.9074630" lon="0.1451380">
        <ele>2007.8</ele>
        <time>2020-07-27T13:24:00Z</time>
      </trkpt>
      <trkpt lat="42.9075410" lon="0.1451450">
        <ele>2008.8</ele>
        <time>2020-07-27T13:24:04Z</time>
      </trkpt>
      <trkpt lat="42.9075630" lon="0.1451520">
        <ele>2009.0</ele>
        <time>2020-07-27T13:24:05Z</time>
      </trkpt>
      <trkpt lat="42.9076260" lon="0.1451820">
        <ele>2010.0</ele>
        <time>2020-07-27T13:24:08Z</time>
      </trkpt>
      <trkpt lat="42.9076820" lon="0.1452040">
        <ele>2011.2</ele>
        <time>2020-07-27T13:24:11Z</time>
      </trkpt>
      <trkpt lat="42.9077020" lon="0.1452120">
        <ele>2011.6</ele>
        <time>2020-07-27T13:24:12Z</time>
      </trkpt>
      <trkpt lat="42.9077440" lon="0.1452170">
        <ele>2012.4</ele>
        <time>2020-07-27T13:24:14Z</time>
      </trkpt>
      <trkpt lat="42.9078070" lon="0.1452180">
        <ele>2013.6</ele>
        <time>2020-07-27T13:24:17Z</time>
      </trkpt>
      <trkpt lat="42.9078710" lon="0.1452120">
        <ele>2014.6</ele>
        <time>2020-07-27T13:24:20Z</time>
      </trkpt>
      <trkpt lat="42.9078920" lon="0.1452040">
        <ele>2014.8</ele>
        <time>2020-07-27T13:24:21Z</time>
      </trkpt>
      <trkpt lat="42.9080390" lon="0.1451620">
        <ele>2015.8</ele>
        <time>2020-07-27T13:24:28Z</time>
      </trkpt>
      <trkpt lat="42.9081840" lon="0.1451350">
        <ele>2016.8</ele>
        <time>2020-07-27T13:24:35Z</time>
      </trkpt>
      <trkpt lat="42.9082000" lon="0.1451410">
        <ele>2016.8</ele>
        <time>2020-07-27T13:24:36Z</time>
      </trkpt>
      <trkpt lat="42.9082820" lon="0.1451720">
        <ele>2017.6</ele>
        <time>2020-07-27T13:24:41Z</time>
      </trkpt>
      <trkpt lat="42.9084070" lon="0.1457430">
        <ele>2018.6</ele>
        <time>2020-07-27T13:53:00Z</time>
      </trkpt>
      <trkpt lat="42.9084900" lon="0.1458030">
        <ele>2017.4</ele>
        <time>2020-07-27T13:53:04Z</time>
      </trkpt>
      <trkpt lat="42.9085100" lon="0.1458830">
        <ele>2016.8</ele>
        <time>2020-07-27T13:53:05Z</time>
      </trkpt>
      <trkpt lat="42.9085500" lon="0.1459020">
        <ele>2016.2</ele>
        <time>2020-07-27T13:53:06Z</time>
      </trkpt>
      <trkpt lat="42.9085790" lon="0.1459650">
        <ele>2015.0</ele>
        <time>2020-07-27T13:53:07Z</time>
      </trkpt>
      <trkpt lat="42.9085770" lon="0.1460090">
        <ele>2013.6</ele>
        <time>2020-07-27T13:53:08Z</time>
      </trkpt>
      <trkpt lat="42.9085700" lon="0.1460840">
        <ele>2012.0</ele>
        <time>2020-07-27T13:53:09Z</time>
      </trkpt>
      <trkpt lat="42.9085420" lon="0.1461380">
        <ele>2011.0</ele>
        <time>2020-07-27T13:53:10Z</time>
      </trkpt>
      <trkpt lat="42.9084860" lon="0.1462470">
        <ele>2009.8</ele>
        <time>2020-07-27T13:53:11Z</time>
      </trkpt>
      <trkpt lat="42.9084300" lon="0.1463340">
        <ele>2008.6</ele>
        <time>2020-07-27T13:53:12Z</time>
      </trkpt>
      <trkpt lat="42.9083630" lon="0.1464150">
        <ele>2007.2</ele>
        <time>2020-07-27T13:53:13Z</time>
      </trkpt>
      <trkpt lat="42.9082840" lon="0.1464980">
        <ele>2005.8</ele>
        <time>2020-07-27T13:53:14Z</time>
      </trkpt>
      <trkpt lat="42.9082000" lon="0.1465880">
        <ele>2004.6</ele>
        <time>2020-07-27T13:53:15Z</time>
      </trkpt>
      <trkpt lat="42.9081190" lon="0.1466870">
        <ele>2003.2</ele>
        <time>2020-07-27T13:53:16Z</time>
      </trkpt>
      <trkpt lat="42.9080390" lon="0.1467950">
        <ele>2007.6</ele>
        <time>2020-07-27T13:53:17Z</time>
      </trkpt>
      <trkpt lat="42.9079630" lon="0.1469020">
        <ele>2009.0</ele>
        <time>2020-07-27T13:53:18Z</time>
      </trkpt>
      <trkpt lat="42.9078840" lon="0.1470100">
        <ele>2009.4</ele>
        <time>2020-07-27T13:53:19Z</time>
      </trkpt>
      <trkpt lat="42.9076430" lon="0.1473180">
        <ele>2007.0</ele>
        <time>2020-07-27T13:53:22Z</time>
      </trkpt>
      <trkpt lat="42.9075580" lon="0.1474170">
        <ele>2005.8</ele>
        <time>2020-07-27T13:53:23Z</time>
      </trkpt>
      <trkpt lat="42.9074710" lon="0.1475100">
        <ele>2004.6</ele>
        <time>2020-07-27T13:53:24Z</time>
      </trkpt>
      <trkpt lat="42.9073800" lon="0.1475880">
        <ele>2003.2</ele>
        <time>2020-07-27T13:53:25Z</time>
      </trkpt>
      <trkpt lat="42.9072840" lon="0.1476440">
        <ele>2001.8</ele>
        <time>2020-07-27T13:53:26Z</time>
      </trkpt>
      <trkpt lat="42.9071850" lon="0.1476890">
        <ele>2000.6</ele>
        <time>2020-07-27T13:53:27Z</time>
      </trkpt>
      <trkpt lat="42.9070850" lon="0.1477210">
        <ele>1999.4</ele>
        <time>2020-07-27T13:53:28Z</time>
      </trkpt>
      <trkpt lat="42.9069830" lon="0.1477470">
        <ele>1998.4</ele>
        <time>2020-07-27T13:53:29Z</time>
      </trkpt>
      <trkpt lat="42.9068820" lon="0.1477720">
        <ele>1997.2</ele>
        <time>2020-07-27T13:53:30Z</time>
      </trkpt>
      <trkpt lat="42.9067790" lon="0.1477970">
        <ele>1996.2</ele>
        <time>2020-07-27T13:53:31Z</time>
      </trkpt>
      <trkpt lat="42.9066760" lon="0.1478200">
        <ele>1994.0</ele>
        <time>2020-07-27T13:53:32Z</time>
      </trkpt>
      <trkpt lat="42.9065770" lon="0.1478420">
        <ele>1992.6</ele>
        <time>2020-07-27T13:53:33Z</time>
      </trkpt>
      <trkpt lat="42.9064810" lon="0.1478620">
        <ele>1991.6</ele>
        <time>2020-07-27T13:53:34Z</time>
      </trkpt>
      <trkpt lat="42.9063050" lon="0.1479180">
        <ele>1989.6</ele>
        <time>2020-07-27T13:53:36Z</time>
      </trkpt>
      <trkpt lat="42.9061520" lon="0.1479870">
        <ele>1988.4</ele>
        <time>2020-07-27T13:53:38Z</time>
      </trkpt>
      <trkpt lat="42.9060900" lon="0.1480260">
        <ele>1987.8</ele>
        <time>2020-07-27T13:53:39Z</time>
      </trkpt>
      <trkpt lat="42.9060420" lon="0.1480720">
        <ele>1987.0</ele>
        <time>2020-07-27T13:53:40Z</time>
      </trkpt>
      <trkpt lat="42.9060140" lon="0.1481320">
        <ele>1985.8</ele>
        <time>2020-07-27T13:53:41Z</time>
      </trkpt>
      <trkpt lat="42.9060380" lon="0.1482650">
        <ele>1984.2</ele>
        <time>2020-07-27T13:53:43Z</time>
      </trkpt>
      <trkpt lat="42.9061690" lon="0.1483250">
        <ele>1982.8</ele>
        <time>2020-07-27T13:53:45Z</time>
      </trkpt>
      <trkpt lat="42.9063410" lon="0.1482690">
        <ele>1982.0</ele>
        <time>2020-07-27T13:53:47Z</time>
      </trkpt>
      <trkpt lat="42.9064340" lon="0.1482460">
        <ele>1981.8</ele>
        <time>2020-07-27T13:53:48Z</time>
      </trkpt>
      <trkpt lat="42.9065340" lon="0.1482490">
        <ele>1981.6</ele>
        <time>2020-07-27T13:53:49Z</time>
      </trkpt>
      <trkpt lat="42.9067480" lon="0.1483200">
        <ele>1981.2</ele>
        <time>2020-07-27T13:53:51Z</time>
      </trkpt>
      <trkpt lat="42.9068540" lon="0.1483830">
        <ele>1980.4</ele>
        <time>2020-07-27T13:53:52Z</time>
      </trkpt>
      <trkpt lat="42.9069600" lon="0.1484600">
        <ele>1979.2</ele>
        <time>2020-07-27T13:53:53Z</time>
      </trkpt>
      <trkpt lat="42.9070610" lon="0.1485430">
        <ele>1978.0</ele>
        <time>2020-07-27T13:53:54Z</time>
      </trkpt>
      <trkpt lat="42.9071570" lon="0.1486250">
        <ele>1976.8</ele>
        <time>2020-07-27T13:53:55Z</time>
      </trkpt>
      <trkpt lat="42.9072540" lon="0.1486950">
        <ele>1975.2</ele>
        <time>2020-07-27T13:53:56Z</time>
      </trkpt>
      <trkpt lat="42.9073610" lon="0.1487410">
        <ele>1973.6</ele>
        <time>2020-07-27T13:53:57Z</time>
      </trkpt>
      <trkpt lat="42.9074780" lon="0.1487620">
        <ele>1972.2</ele>
        <time>2020-07-27T13:53:58Z</time>
      </trkpt>
      <trkpt lat="42.9077180" lon="0.1487900">
        <ele>1968.8</ele>
        <time>2020-07-27T13:54:00Z</time>
      </trkpt>
      <trkpt lat="42.9078370" lon="0.1488280">
        <ele>1967.6</ele>
        <time>2020-07-27T13:54:01Z</time>
      </trkpt>
      <trkpt lat="42.9079540" lon="0.1488720">
        <ele>1966.6</ele>
        <time>2020-07-27T13:54:02Z</time>
      </trkpt>
      <trkpt lat="42.9080740" lon="0.1489030">
        <ele>1965.8</ele>
        <time>2020-07-27T13:54:03Z</time>
      </trkpt>
      <trkpt lat="42.9081920" lon="0.1489150">
        <ele>1965.0</ele>
        <time>2020-07-27T13:54:04Z</time>
      </trkpt>
      <trkpt lat="42.9084050" lon="0.1489170">
        <ele>1963.0</ele>
        <time>2020-07-27T13:54:06Z</time>
      </trkpt>
      <trkpt lat="42.9084930" lon="0.1489260">
        <ele>1961.8</ele>
        <time>2020-07-27T13:54:07Z</time>
      </trkpt>
      <trkpt lat="42.9085690" lon="0.1489560">
        <ele>1960.2</ele>
        <time>2020-07-27T13:54:08Z</time>
      </trkpt>
      <trkpt lat="42.9086290" lon="0.1490130">
        <ele>1958.4</ele>
        <time>2020-07-27T13:54:09Z</time>
      </trkpt>
      <trkpt lat="42.9086610" lon="0.1490990">
        <ele>1957.2</ele>
        <time>2020-07-27T13:54:10Z</time>
      </trkpt>
      <trkpt lat="42.9086670" lon="0.1492030">
        <ele>1956.4</ele>
        <time>2020-07-27T13:54:11Z</time>
      </trkpt>
      <trkpt lat="42.9086500" lon="0.1493140">
        <ele>1955.8</ele>
        <time>2020-07-27T13:54:12Z</time>
      </trkpt>
      <trkpt lat="42.9086240" lon="0.1494360">
        <ele>1955.0</ele>
        <time>2020-07-27T13:54:13Z</time>
      </trkpt>
      <trkpt lat="42.9086050" lon="0.1495690">
        <ele>1954.8</ele>
        <time>2020-07-27T13:54:14Z</time>
      </trkpt>
      <trkpt lat="42.9086050" lon="0.1498630">
        <ele>1954.4</ele>
        <time>2020-07-27T13:54:16Z</time>
      </trkpt>
      <trkpt lat="42.9086330" lon="0.1500140">
        <ele>1954.2</ele>
        <time>2020-07-27T13:54:17Z</time>
      </trkpt>
      <trkpt lat="42.9087400" lon="0.1503070">
        <ele>1953.2</ele>
        <time>2020-07-27T13:54:19Z</time>
      </trkpt>
      <trkpt lat="42.9088020" lon="0.1504590">
        <ele>1952.0</ele>
        <time>2020-07-27T13:54:20Z</time>
      </trkpt>
      <trkpt lat="42.9089100" lon="0.1507770">
        <ele>1950.0</ele>
        <time>2020-07-27T13:54:22Z</time>
      </trkpt>
      <trkpt lat="42.9089560" lon="0.1509380">
        <ele>1948.6</ele>
        <time>2020-07-27T13:54:23Z</time>
      </trkpt>
      <trkpt lat="42.9089900" lon="0.1510980">
        <ele>1947.2</ele>
        <time>2020-07-27T13:54:24Z</time>
      </trkpt>
      <trkpt lat="42.9090060" lon="0.1512620">
        <ele>1945.8</ele>
        <time>2020-07-27T13:54:25Z</time>
      </trkpt>
      <trkpt lat="42.9089990" lon="0.1514310">
        <ele>1944.4</ele>
        <time>2020-07-27T13:54:26Z</time>
      </trkpt>
      <trkpt lat="42.9089670" lon="0.1516000">
        <ele>1942.8</ele>
        <time>2020-07-27T13:54:27Z</time>
      </trkpt>
      <trkpt lat="42.9089250" lon="0.1517700">
        <ele>1939.6</ele>
        <time>2020-07-27T13:54:28Z</time>
      </trkpt>
      <trkpt lat="42.9088820" lon="0.1519440">
        <ele>1938.4</ele>
        <time>2020-07-27T13:54:29Z</time>
      </trkpt>
      <trkpt lat="42.9088000" lon="0.1523040">
        <ele>1936.4</ele>
        <time>2020-07-27T13:54:31Z</time>
      </trkpt>
      <trkpt lat="42.9087460" lon="0.1524820">
        <ele>1936.0</ele>
        <time>2020-07-27T13:54:32Z</time>
      </trkpt>
      <trkpt lat="42.9086840" lon="0.1526520">
        <ele>1935.6</ele>
        <time>2020-07-27T13:54:33Z</time>
      </trkpt>
      <trkpt lat="42.9086190" lon="0.1528190">
        <ele>1934.6</ele>
        <time>2020-07-27T13:54:34Z</time>
      </trkpt>
      <trkpt lat="42.9085570" lon="0.1529790">
        <ele>1933.2</ele>
        <time>2020-07-27T13:54:35Z</time>
      </trkpt>
      <trkpt lat="42.9085030" lon="0.1531300">
        <ele>1931.4</ele>
        <time>2020-07-27T13:54:36Z</time>
      </trkpt>
      <trkpt lat="42.9084600" lon="0.1532790">
        <ele>1929.8</ele>
        <time>2020-07-27T13:54:37Z</time>
      </trkpt>
      <trkpt lat="42.9084350" lon="0.1534320">
        <ele>1928.4</ele>
        <time>2020-07-27T13:54:38Z</time>
      </trkpt>
      <trkpt lat="42.9084280" lon="0.1535830">
        <ele>1927.0</ele>
        <time>2020-07-27T13:54:39Z</time>
      </trkpt>
      <trkpt lat="42.9084450" lon="0.1537340">
        <ele>1925.6</ele>
        <time>2020-07-27T13:54:40Z</time>
      </trkpt>
      <trkpt lat="42.9084830" lon="0.1538830">
        <ele>1924.2</ele>
        <time>2020-07-27T13:54:41Z</time>
      </trkpt>
      <trkpt lat="42.9085320" lon="0.1540300">
        <ele>1923.0</ele>
        <time>2020-07-27T13:54:42Z</time>
      </trkpt>
      <trkpt lat="42.9085820" lon="0.1541760">
        <ele>1921.6</ele>
        <time>2020-07-27T13:54:43Z</time>
      </trkpt>
      <trkpt lat="42.9086310" lon="0.1543140">
        <ele>1920.4</ele>
        <time>2020-07-27T13:54:44Z</time>
      </trkpt>
      <trkpt lat="42.9086820" lon="0.1544370">
        <ele>1920.0</ele>
        <time>2020-07-27T13:54:45Z</time>
      </trkpt>
      <trkpt lat="42.9087380" lon="0.1545380">
        <ele>1919.0</ele>
        <time>2020-07-27T13:54:46Z</time>
      </trkpt>
      <trkpt lat="42.9088850" lon="0.1546560">
        <ele>1917.2</ele>
        <time>2020-07-27T13:54:48Z</time>
      </trkpt>
      <trkpt lat="42.9089790" lon="0.1546710">
        <ele>1915.8</ele>
        <time>2020-07-27T13:54:49Z</time>
      </trkpt>
      <trkpt lat="42.9091750" lon="0.1547410">
        <ele>1913.6</ele>
        <time>2020-07-27T13:54:51Z</time>
      </trkpt>
      <trkpt lat="42.9094120" lon="0.1550580">
        <ele>1912.4</ele>
        <time>2020-07-27T13:54:54Z</time>
      </trkpt>
      <trkpt lat="42.9095750" lon="0.1552940">
        <ele>1911.6</ele>
        <time>2020-07-27T13:54:56Z</time>
      </trkpt>
      <trkpt lat="42.9096660" lon="0.1553930">
        <ele>1911.4</ele>
        <time>2020-07-27T13:54:57Z</time>
      </trkpt>
      <trkpt lat="42.9097630" lon="0.1554750">
        <ele>1910.6</ele>
        <time>2020-07-27T13:54:58Z</time>
      </trkpt>
      <trkpt lat="42.9098580" lon="0.1555500">
        <ele>1909.4</ele>
        <time>2020-07-27T13:54:59Z</time>
      </trkpt>
      <trkpt lat="42.9099470" lon="0.1556290">
        <ele>1907.6</ele>
        <time>2020-07-27T13:55:00Z</time>
      </trkpt>
      <trkpt lat="42.9100250" lon="0.1557190">
        <ele>1905.8</ele>
        <time>2020-07-27T13:55:01Z</time>
      </trkpt>
      <trkpt lat="42.9100890" lon="0.1558150">
        <ele>1903.8</ele>
        <time>2020-07-27T13:55:02Z</time>
      </trkpt>
      <trkpt lat="42.9101370" lon="0.1559130">
        <ele>1902.2</ele>
        <time>2020-07-27T13:55:03Z</time>
      </trkpt>
      <trkpt lat="42.9101630" lon="0.1560100">
        <ele>1901.2</ele>
        <time>2020-07-27T13:55:04Z</time>
      </trkpt>
      <trkpt lat="42.9101620" lon="0.1561040">
        <ele>1900.4</ele>
        <time>2020-07-27T13:55:05Z</time>
      </trkpt>
      <trkpt lat="42.9101300" lon="0.1561880">
        <ele>1900.0</ele>
        <time>2020-07-27T13:55:06Z</time>
      </trkpt>
      <trkpt lat="42.9100690" lon="0.1562490">
        <ele>1899.8</ele>
        <time>2020-07-27T13:55:07Z</time>
      </trkpt>
      <trkpt lat="42.9099050" lon="0.1562320">
        <ele>1898.8</ele>
        <time>2020-07-27T13:55:09Z</time>
      </trkpt>
      <trkpt lat="42.9097450" lon="0.1560960">
        <ele>1897.6</ele>
        <time>2020-07-27T13:55:11Z</time>
      </trkpt>
      <trkpt lat="42.9096510" lon="0.1560550">
        <ele>1897.4</ele>
        <time>2020-07-27T13:55:12Z</time>
      </trkpt>
      <trkpt lat="42.9094440" lon="0.1560970">
        <ele>1896.2</ele>
        <time>2020-07-27T13:55:14Z</time>
      </trkpt>
      <trkpt lat="42.9092440" lon="0.1562290">
        <ele>1895.0</ele>
        <time>2020-07-27T13:55:16Z</time>
      </trkpt>
      <trkpt lat="42.9090570" lon="0.1563580">
        <ele>1893.2</ele>
        <time>2020-07-27T13:55:18Z</time>
      </trkpt>
      <trkpt lat="42.9088570" lon="0.1564000">
        <ele>1891.4</ele>
        <time>2020-07-27T13:55:20Z</time>
      </trkpt>
      <trkpt lat="42.9087490" lon="0.1563770">
        <ele>1890.4</ele>
        <time>2020-07-27T13:55:21Z</time>
      </trkpt>
      <trkpt lat="42.9086410" lon="0.1563400">
        <ele>1887.2</ele>
        <time>2020-07-27T13:55:22Z</time>
      </trkpt>
      <trkpt lat="42.9085370" lon="0.1562980">
        <ele>1885.8</ele>
        <time>2020-07-27T13:55:23Z</time>
      </trkpt>
      <trkpt lat="42.9084400" lon="0.1562580">
        <ele>1884.4</ele>
        <time>2020-07-27T13:55:24Z</time>
      </trkpt>
      <trkpt lat="42.9083440" lon="0.1562350">
        <ele>1883.6</ele>
        <time>2020-07-27T13:55:25Z</time>
      </trkpt>
      <trkpt lat="42.9082520" lon="0.1562340">
        <ele>1883.0</ele>
        <time>2020-07-27T13:55:26Z</time>
      </trkpt>
      <trkpt lat="42.9081670" lon="0.1562290">
        <ele>1882.0</ele>
        <time>2020-07-27T13:55:27Z</time>
      </trkpt>
      <trkpt lat="42.9080840" lon="0.1561950">
        <ele>1880.8</ele>
        <time>2020-07-27T13:55:28Z</time>
      </trkpt>
      <trkpt lat="42.9080020" lon="0.1561250">
        <ele>1879.8</ele>
        <time>2020-07-27T13:55:29Z</time>
      </trkpt>
      <trkpt lat="42.9078460" lon="0.1559250">
        <ele>1878.0</ele>
        <time>2020-07-27T13:55:31Z</time>
      </trkpt>
      <trkpt lat="42.9077610" lon="0.1558240">
        <ele>1877.6</ele>
        <time>2020-07-27T13:55:32Z</time>
      </trkpt>
      <trkpt lat="42.9076690" lon="0.1557350">
        <ele>1877.0</ele>
        <time>2020-07-27T13:55:33Z</time>
      </trkpt>
      <trkpt lat="42.9073840" lon="0.1555380">
        <ele>1875.8</ele>
        <time>2020-07-27T13:55:36Z</time>
      </trkpt>
      <trkpt lat="42.9072160" lon="0.1553350">
        <ele>1873.8</ele>
        <time>2020-07-27T13:55:38Z</time>
      </trkpt>
      <trkpt lat="42.9071320" lon="0.1552190">
        <ele>1872.6</ele>
        <time>2020-07-27T13:55:39Z</time>
      </trkpt>
      <trkpt lat="42.9070420" lon="0.1551080">
        <ele>1871.2</ele>
        <time>2020-07-27T13:55:40Z</time>
      </trkpt>
      <trkpt lat="42.9069550" lon="0.1549950">
        <ele>1869.8</ele>
        <time>2020-07-27T13:55:41Z</time>
      </trkpt>
      <trkpt lat="42.9068810" lon="0.1548810">
        <ele>1868.8</ele>
        <time>2020-07-27T13:55:42Z</time>
      </trkpt>
      <trkpt lat="42.9068210" lon="0.1547650">
        <ele>1868.0</ele>
        <time>2020-07-27T13:55:43Z</time>
      </trkpt>
      <trkpt lat="42.9067820" lon="0.1546410">
        <ele>1867.0</ele>
        <time>2020-07-27T13:55:44Z</time>
      </trkpt>
      <trkpt lat="42.9067680" lon="0.1545040">
        <ele>1865.8</ele>
        <time>2020-07-27T13:55:45Z</time>
      </trkpt>
      <trkpt lat="42.9067770" lon="0.1543630">
        <ele>1864.8</ele>
        <time>2020-07-27T13:55:46Z</time>
      </trkpt>
      <trkpt lat="42.9067930" lon="0.1542330">
        <ele>1863.6</ele>
        <time>2020-07-27T13:55:47Z</time>
      </trkpt>
      <trkpt lat="42.9068040" lon="0.1541190">
        <ele>1862.6</ele>
        <time>2020-07-27T13:55:48Z</time>
      </trkpt>
      <trkpt lat="42.9068040" lon="0.1540230">
        <ele>1861.6</ele>
        <time>2020-07-27T13:55:49Z</time>
      </trkpt>
      <trkpt lat="42.9067860" lon="0.1539480">
        <ele>1859.4</ele>
        <time>2020-07-27T13:55:50Z</time>
      </trkpt>
      <trkpt lat="42.9067470" lon="0.1538970">
        <ele>1858.8</ele>
        <time>2020-07-27T13:55:51Z</time>
      </trkpt>
      <trkpt lat="42.9066890" lon="0.1538840">
        <ele>1858.2</ele>
        <time>2020-07-27T13:55:52Z</time>
      </trkpt>
      <trkpt lat="42.9066260" lon="0.1539070">
        <ele>1858.0</ele>
        <time>2020-07-27T13:55:53Z</time>
      </trkpt>
      <trkpt lat="42.9065510" lon="0.1540670">
        <ele>1857.2</ele>
        <time>2020-07-27T13:55:55Z</time>
      </trkpt>
      <trkpt lat="42.9065240" lon="0.1543040">
        <ele>1856.8</ele>
        <time>2020-07-27T13:55:57Z</time>
      </trkpt>
      <trkpt lat="42.9065170" lon="0.1544360">
        <ele>1856.8</ele>
        <time>2020-07-27T13:55:58Z</time>
      </trkpt>
      <trkpt lat="42.9065120" lon="0.1547200">
        <ele>1855.4</ele>
        <time>2020-07-27T13:56:00Z</time>
      </trkpt>
      <trkpt lat="42.9065180" lon="0.1548720">
        <ele>1854.2</ele>
        <time>2020-07-27T13:56:01Z</time>
      </trkpt>
      <trkpt lat="42.9065320" lon="0.1550270">
        <ele>1853.0</ele>
        <time>2020-07-27T13:56:02Z</time>
      </trkpt>
      <trkpt lat="42.9065530" lon="0.1551830">
        <ele>1851.4</ele>
        <time>2020-07-27T13:56:03Z</time>
      </trkpt>
      <trkpt lat="42.9065810" lon="0.1553420">
        <ele>1850.0</ele>
        <time>2020-07-27T13:56:04Z</time>
      </trkpt>
      <trkpt lat="42.9066400" lon="0.1556710">
        <ele>1848.2</ele>
        <time>2020-07-27T13:56:06Z</time>
      </trkpt>
      <trkpt lat="42.9066700" lon="0.1558410">
        <ele>1847.0</ele>
        <time>2020-07-27T13:56:07Z</time>
      </trkpt>
      <trkpt lat="42.9067070" lon="0.1560130">
        <ele>1845.6</ele>
        <time>2020-07-27T13:56:08Z</time>
      </trkpt>
      <trkpt lat="42.9067500" lon="0.1561860">
        <ele>1844.4</ele>
        <time>2020-07-27T13:56:09Z</time>
      </trkpt>
      <trkpt lat="42.9067940" lon="0.1563590">
        <ele>1843.2</ele>
        <time>2020-07-27T13:56:10Z</time>
      </trkpt>
      <trkpt lat="42.9068460" lon="0.1565320">
        <ele>1841.8</ele>
        <time>2020-07-27T13:56:11Z</time>
      </trkpt>
      <trkpt lat="42.9069020" lon="0.1567020">
        <ele>1840.4</ele>
        <time>2020-07-27T13:56:12Z</time>
      </trkpt>
      <trkpt lat="42.9069660" lon="0.1568670">
        <ele>1839.4</ele>
        <time>2020-07-27T13:56:13Z</time>
      </trkpt>
      <trkpt lat="42.9070460" lon="0.1570260">
        <ele>1838.4</ele>
        <time>2020-07-27T13:56:14Z</time>
      </trkpt>
      <trkpt lat="42.9071320" lon="0.1571790">
        <ele>1837.4</ele>
        <time>2020-07-27T13:56:15Z</time>
      </trkpt>
      <trkpt lat="42.9072180" lon="0.1573350">
        <ele>1836.4</ele>
        <time>2020-07-27T13:56:16Z</time>
      </trkpt>
      <trkpt lat="42.9072940" lon="0.1575020">
        <ele>1833.6</ele>
        <time>2020-07-27T13:56:17Z</time>
      </trkpt>
      <trkpt lat="42.9073660" lon="0.1576750">
        <ele>1832.6</ele>
        <time>2020-07-27T13:56:18Z</time>
      </trkpt>
      <trkpt lat="42.9074440" lon="0.1578420">
        <ele>1831.2</ele>
        <time>2020-07-27T13:56:19Z</time>
      </trkpt>
      <trkpt lat="42.9075330" lon="0.1580030">
        <ele>1829.8</ele>
        <time>2020-07-27T13:56:20Z</time>
      </trkpt>
      <trkpt lat="42.9076280" lon="0.1581580">
        <ele>1828.2</ele>
        <time>2020-07-27T13:56:21Z</time>
      </trkpt>
      <trkpt lat="42.9077240" lon="0.1583150">
        <ele>1826.6</ele>
        <time>2020-07-27T13:56:22Z</time>
      </trkpt>
      <trkpt lat="42.9078220" lon="0.1584720">
        <ele>1825.4</ele>
        <time>2020-07-27T13:56:23Z</time>
      </trkpt>
      <trkpt lat="42.9079240" lon="0.1586270">
        <ele>1824.2</ele>
        <time>2020-07-27T13:56:24Z</time>
      </trkpt>
      <trkpt lat="42.9080290" lon="0.1587760">
        <ele>1823.0</ele>
        <time>2020-07-27T13:56:25Z</time>
      </trkpt>
      <trkpt lat="42.9081340" lon="0.1589210">
        <ele>1821.6</ele>
        <time>2020-07-27T13:56:26Z</time>
      </trkpt>
      <trkpt lat="42.9082360" lon="0.1590650">
        <ele>1820.2</ele>
        <time>2020-07-27T13:56:27Z</time>
      </trkpt>
      <trkpt lat="42.9083320" lon="0.1592150">
        <ele>1819.0</ele>
        <time>2020-07-27T13:56:28Z</time>
      </trkpt>
      <trkpt lat="42.9084170" lon="0.1593730">
        <ele>1818.0</ele>
        <time>2020-07-27T13:56:29Z</time>
      </trkpt>
      <trkpt lat="42.9084900" lon="0.1595400">
        <ele>1816.6</ele>
        <time>2020-07-27T13:56:30Z</time>
      </trkpt>
      <trkpt lat="42.9085510" lon="0.1597180">
        <ele>1815.4</ele>
        <time>2020-07-27T13:56:31Z</time>
      </trkpt>
      <trkpt lat="42.9085950" lon="0.1599030">
        <ele>1814.2</ele>
        <time>2020-07-27T13:56:32Z</time>
      </trkpt>
      <trkpt lat="42.9086250" lon="0.1600960">
        <ele>1812.8</ele>
        <time>2020-07-27T13:56:33Z</time>
      </trkpt>
      <trkpt lat="42.9086530" lon="0.1602890">
        <ele>1811.8</ele>
        <time>2020-07-27T13:56:34Z</time>
      </trkpt>
      <trkpt lat="42.9086840" lon="0.1604830">
        <ele>1811.0</ele>
        <time>2020-07-27T13:56:35Z</time>
      </trkpt>
      <trkpt lat="42.9087180" lon="0.1606780">
        <ele>1810.0</ele>
        <time>2020-07-27T13:56:36Z</time>
      </trkpt>
      <trkpt lat="42.9087520" lon="0.1608760">
        <ele>1808.4</ele>
        <time>2020-07-27T13:56:37Z</time>
      </trkpt>
      <trkpt lat="42.9087890" lon="0.1610710">
        <ele>1806.4</ele>
        <time>2020-07-27T13:56:38Z</time>
      </trkpt>
      <trkpt lat="42.9088300" lon="0.1612650">
        <ele>1804.6</ele>
        <time>2020-07-27T13:56:39Z</time>
      </trkpt>
      <trkpt lat="42.9088750" lon="0.1614560">
        <ele>1803.0</ele>
        <time>2020-07-27T13:56:40Z</time>
      </trkpt>
      <trkpt lat="42.9089240" lon="0.1616450">
        <ele>1801.2</ele>
        <time>2020-07-27T13:56:41Z</time>
      </trkpt>
      <trkpt lat="42.9089760" lon="0.1618330">
        <ele>1800.0</ele>
        <time>2020-07-27T13:56:42Z</time>
      </trkpt>
      <trkpt lat="42.9090330" lon="0.1620180">
        <ele>1798.4</ele>
        <time>2020-07-27T13:56:43Z</time>
      </trkpt>
      <trkpt lat="42.9090950" lon="0.1622000">
        <ele>1796.8</ele>
        <time>2020-07-27T13:56:44Z</time>
      </trkpt>
      <trkpt lat="42.9091630" lon="0.1623780">
        <ele>1794.6</ele>
        <time>2020-07-27T13:56:45Z</time>
      </trkpt>
      <trkpt lat="42.9092320" lon="0.1625530">
        <ele>1793.2</ele>
        <time>2020-07-27T13:56:46Z</time>
      </trkpt>
      <trkpt lat="42.9093010" lon="0.1627240">
        <ele>1792.0</ele>
        <time>2020-07-27T13:56:47Z</time>
      </trkpt>
      <trkpt lat="42.9093700" lon="0.1628950">
        <ele>1791.0</ele>
        <time>2020-07-27T13:56:48Z</time>
      </trkpt>
      <trkpt lat="42.9094290" lon="0.1630730">
        <ele>1789.8</ele>
        <time>2020-07-27T13:56:49Z</time>
      </trkpt>
      <trkpt lat="42.9094750" lon="0.1632610">
        <ele>1788.6</ele>
        <time>2020-07-27T13:56:50Z</time>
      </trkpt>
      <trkpt lat="42.9095120" lon="0.1634540">
        <ele>1787.6</ele>
        <time>2020-07-27T13:56:51Z</time>
      </trkpt>
      <trkpt lat="42.9095430" lon="0.1636460">
        <ele>1786.4</ele>
        <time>2020-07-27T13:56:52Z</time>
      </trkpt>
      <trkpt lat="42.9095760" lon="0.1638320">
        <ele>1785.4</ele>
        <time>2020-07-27T13:56:53Z</time>
      </trkpt>
      <trkpt lat="42.9096390" lon="0.1641850">
        <ele>1783.4</ele>
        <time>2020-07-27T13:56:55Z</time>
      </trkpt>
      <trkpt lat="42.9096540" lon="0.1643650">
        <ele>1782.4</ele>
        <time>2020-07-27T13:56:56Z</time>
      </trkpt>
      <trkpt lat="42.9096500" lon="0.1645470">
        <ele>1781.2</ele>
        <time>2020-07-27T13:56:57Z</time>
      </trkpt>
      <trkpt lat="42.9096310" lon="0.1647290">
        <ele>1779.6</ele>
        <time>2020-07-27T13:56:58Z</time>
      </trkpt>
      <trkpt lat="42.9096100" lon="0.1649120">
        <ele>1778.2</ele>
        <time>2020-07-27T13:56:59Z</time>
      </trkpt>
      <trkpt lat="42.9095930" lon="0.1650960">
        <ele>1776.4</ele>
        <time>2020-07-27T13:57:00Z</time>
      </trkpt>
      <trkpt lat="42.9095750" lon="0.1652810">
        <ele>1775.0</ele>
        <time>2020-07-27T13:57:01Z</time>
      </trkpt>
      <trkpt lat="42.9095500" lon="0.1654640">
        <ele>1773.6</ele>
        <time>2020-07-27T13:57:02Z</time>
      </trkpt>
      <trkpt lat="42.9095200" lon="0.1656420">
        <ele>1772.4</ele>
        <time>2020-07-27T13:57:03Z</time>
      </trkpt>
      <trkpt lat="42.9094890" lon="0.1658160">
        <ele>1771.4</ele>
        <time>2020-07-27T13:57:04Z</time>
      </trkpt>
      <trkpt lat="42.9094640" lon="0.1659900">
        <ele>1770.4</ele>
        <time>2020-07-27T13:57:05Z</time>
      </trkpt>
      <trkpt lat="42.9094500" lon="0.1661650">
        <ele>1769.4</ele>
        <time>2020-07-27T13:57:06Z</time>
      </trkpt>
      <trkpt lat="42.9094440" lon="0.1663440">
        <ele>1768.4</ele>
        <time>2020-07-27T13:57:07Z</time>
      </trkpt>
      <trkpt lat="42.9094430" lon="0.1665240">
        <ele>1767.2</ele>
        <time>2020-07-27T13:57:08Z</time>
      </trkpt>
      <trkpt lat="42.9094430" lon="0.1667040">
        <ele>1765.4</ele>
        <time>2020-07-27T13:57:09Z</time>
      </trkpt>
      <trkpt lat="42.9094440" lon="0.1668820">
        <ele>1764.0</ele>
        <time>2020-07-27T13:57:10Z</time>
      </trkpt>
      <trkpt lat="42.9094480" lon="0.1670530">
        <ele>1762.8</ele>
        <time>2020-07-27T13:57:11Z</time>
      </trkpt>
      <trkpt lat="42.9094590" lon="0.1672180">
        <ele>1760.2</ele>
        <time>2020-07-27T13:57:12Z</time>
      </trkpt>
      <trkpt lat="42.9094770" lon="0.1673800">
        <ele>1759.4</ele>
        <time>2020-07-27T13:57:13Z</time>
      </trkpt>
      <trkpt lat="42.9095060" lon="0.1675360">
        <ele>1758.6</ele>
        <time>2020-07-27T13:57:14Z</time>
      </trkpt>
      <trkpt lat="42.9095950" lon="0.1678350">
        <ele>1756.6</ele>
        <time>2020-07-27T13:57:16Z</time>
      </trkpt>
      <trkpt lat="42.9096570" lon="0.1679770">
        <ele>1755.0</ele>
        <time>2020-07-27T13:57:17Z</time>
      </trkpt>
      <trkpt lat="42.9097250" lon="0.1681180">
        <ele>1754.0</ele>
        <time>2020-07-27T13:57:18Z</time>
      </trkpt>
      <trkpt lat="42.9097920" lon="0.1682620">
        <ele>1753.6</ele>
        <time>2020-07-27T13:57:19Z</time>
      </trkpt>
      <trkpt lat="42.9098450" lon="0.1684180">
        <ele>1753.0</ele>
        <time>2020-07-27T13:57:20Z</time>
      </trkpt>
      <trkpt lat="42.9098920" lon="0.1685800">
        <ele>1752.0</ele>
        <time>2020-07-27T13:57:21Z</time>
      </trkpt>
      <trkpt lat="42.9099440" lon="0.1687440">
        <ele>1750.6</ele>
        <time>2020-07-27T13:57:22Z</time>
      </trkpt>
      <trkpt lat="42.9100020" lon="0.1689050">
        <ele>1749.4</ele>
        <time>2020-07-27T13:57:23Z</time>
      </trkpt>
      <trkpt lat="42.9101230" lon="0.1692230">
        <ele>1747.6</ele>
        <time>2020-07-27T13:57:25Z</time>
      </trkpt>
      <trkpt lat="42.9101770" lon="0.1693790">
        <ele>1746.6</ele>
        <time>2020-07-27T13:57:26Z</time>
      </trkpt>
      <trkpt lat="42.9102460" lon="0.1697020">
        <ele>1745.0</ele>
        <time>2020-07-27T13:57:28Z</time>
      </trkpt>
      <trkpt lat="42.9102750" lon="0.1700420">
        <ele>1742.4</ele>
        <time>2020-07-27T13:57:30Z</time>
      </trkpt>
      <trkpt lat="42.9102820" lon="0.1702170">
        <ele>1741.2</ele>
        <time>2020-07-27T13:57:31Z</time>
      </trkpt>
      <trkpt lat="42.9102910" lon="0.1703930">
        <ele>1740.0</ele>
        <time>2020-07-27T13:57:32Z</time>
      </trkpt>
      <trkpt lat="42.9103000" lon="0.1705730">
        <ele>1738.8</ele>
        <time>2020-07-27T13:57:33Z</time>
      </trkpt>
      <trkpt lat="42.9103070" lon="0.1707550">
        <ele>1737.8</ele>
        <time>2020-07-27T13:57:34Z</time>
      </trkpt>
      <trkpt lat="42.9103120" lon="0.1711240">
        <ele>1735.6</ele>
        <time>2020-07-27T13:57:36Z</time>
      </trkpt>
      <trkpt lat="42.9103120" lon="0.1713060">
        <ele>1734.6</ele>
        <time>2020-07-27T13:57:37Z</time>
      </trkpt>
      <trkpt lat="42.9103110" lon="0.1714860">
        <ele>1733.6</ele>
        <time>2020-07-27T13:57:38Z</time>
      </trkpt>
      <trkpt lat="42.9103100" lon="0.1716650">
        <ele>1732.4</ele>
        <time>2020-07-27T13:57:39Z</time>
      </trkpt>
      <trkpt lat="42.9103090" lon="0.1718450">
        <ele>1730.2</ele>
        <time>2020-07-27T13:57:40Z</time>
      </trkpt>
      <trkpt lat="42.9103070" lon="0.1720270">
        <ele>1728.4</ele>
        <time>2020-07-27T13:57:41Z</time>
      </trkpt>
      <trkpt lat="42.9103040" lon="0.1722060">
        <ele>1726.6</ele>
        <time>2020-07-27T13:57:42Z</time>
      </trkpt>
      <trkpt lat="42.9102980" lon="0.1723880">
        <ele>1724.8</ele>
        <time>2020-07-27T13:57:43Z</time>
      </trkpt>
      <trkpt lat="42.9102910" lon="0.1725710">
        <ele>1723.0</ele>
        <time>2020-07-27T13:57:44Z</time>
      </trkpt>
      <trkpt lat="42.9102870" lon="0.1727510">
        <ele>1722.0</ele>
        <time>2020-07-27T13:57:45Z</time>
      </trkpt>
      <trkpt lat="42.9102870" lon="0.1729280">
        <ele>1721.4</ele>
        <time>2020-07-27T13:57:46Z</time>
      </trkpt>
      <trkpt lat="42.9102920" lon="0.1730990">
        <ele>1720.2</ele>
        <time>2020-07-27T13:57:47Z</time>
      </trkpt>
      <trkpt lat="42.9103030" lon="0.1732690">
        <ele>1719.2</ele>
        <time>2020-07-27T13:57:48Z</time>
      </trkpt>
      <trkpt lat="42.9103260" lon="0.1734370">
        <ele>1718.0</ele>
        <time>2020-07-27T13:57:49Z</time>
      </trkpt>
      <trkpt lat="42.9103640" lon="0.1735990">
        <ele>1717.2</ele>
        <time>2020-07-27T13:57:50Z</time>
      </trkpt>
      <trkpt lat="42.9104100" lon="0.1737610">
        <ele>1716.0</ele>
        <time>2020-07-27T13:57:51Z</time>
      </trkpt>
      <trkpt lat="42.9104590" lon="0.1739210">
        <ele>1714.8</ele>
        <time>2020-07-27T13:57:52Z</time>
      </trkpt>
      <trkpt lat="42.9105070" lon="0.1740860">
        <ele>1713.4</ele>
        <time>2020-07-27T13:57:53Z</time>
      </trkpt>
      <trkpt lat="42.9105730" lon="0.1744330">
        <ele>1712.0</ele>
        <time>2020-07-27T13:57:55Z</time>
      </trkpt>
      <trkpt lat="42.9105960" lon="0.1747940">
        <ele>1710.6</ele>
        <time>2020-07-27T13:57:57Z</time>
      </trkpt>
      <trkpt lat="42.9105980" lon="0.1749780">
        <ele>1709.4</ele>
        <time>2020-07-27T13:57:58Z</time>
      </trkpt>
      <trkpt lat="42.9105980" lon="0.1751610">
        <ele>1707.8</ele>
        <time>2020-07-27T13:57:59Z</time>
      </trkpt>
      <trkpt lat="42.9105950" lon="0.1753410">
        <ele>1706.6</ele>
        <time>2020-07-27T13:58:00Z</time>
      </trkpt>
      <trkpt lat="42.9105910" lon="0.1755180">
        <ele>1705.2</ele>
        <time>2020-07-27T13:58:01Z</time>
      </trkpt>
      <trkpt lat="42.9105890" lon="0.1756900">
        <ele>1704.2</ele>
        <time>2020-07-27T13:58:02Z</time>
      </trkpt>
      <trkpt lat="42.9105940" lon="0.1758620">
        <ele>1703.0</ele>
        <time>2020-07-27T13:58:03Z</time>
      </trkpt>
      <trkpt lat="42.9106090" lon="0.1760340">
        <ele>1702.2</ele>
        <time>2020-07-27T13:58:04Z</time>
      </trkpt>
      <trkpt lat="42.9106380" lon="0.1762020">
        <ele>1701.8</ele>
        <time>2020-07-27T13:58:05Z</time>
      </trkpt>
      <trkpt lat="42.9106810" lon="0.1763680">
        <ele>1700.8</ele>
        <time>2020-07-27T13:58:06Z</time>
      </trkpt>
      <trkpt lat="42.9107280" lon="0.1765320">
        <ele>1697.6</ele>
        <time>2020-07-27T13:58:07Z</time>
      </trkpt>
      <trkpt lat="42.9107800" lon="0.1766930">
        <ele>1696.4</ele>
        <time>2020-07-27T13:58:08Z</time>
      </trkpt>
      <trkpt lat="42.9108970" lon="0.1770110">
        <ele>1694.4</ele>
        <time>2020-07-27T13:58:10Z</time>
      </trkpt>
      <trkpt lat="42.9110130" lon="0.1773310">
        <ele>1692.2</ele>
        <time>2020-07-27T13:58:12Z</time>
      </trkpt>
      <trkpt lat="42.9110570" lon="0.1774980">
        <ele>1691.2</ele>
        <time>2020-07-27T13:58:13Z</time>
      </trkpt>
      <trkpt lat="42.9110870" lon="0.1776670">
        <ele>1690.6</ele>
        <time>2020-07-27T13:58:14Z</time>
      </trkpt>
      <trkpt lat="42.9111060" lon="0.1778350">
        <ele>1690.0</ele>
        <time>2020-07-27T13:58:15Z</time>
      </trkpt>
      <trkpt lat="42.9111240" lon="0.1781480">
        <ele>1688.4</ele>
        <time>2020-07-27T13:58:17Z</time>
      </trkpt>
      <trkpt lat="42.9111220" lon="0.1784280">
        <ele>1686.6</ele>
        <time>2020-07-27T13:58:19Z</time>
      </trkpt>
      <trkpt lat="42.9111120" lon="0.1785590">
        <ele>1685.2</ele>
        <time>2020-07-27T13:58:20Z</time>
      </trkpt>
      <trkpt lat="42.9110900" lon="0.1786850">
        <ele>1684.0</ele>
        <time>2020-07-27T13:58:21Z</time>
      </trkpt>
      <trkpt lat="42.9110510" lon="0.1787970">
        <ele>1682.8</ele>
        <time>2020-07-27T13:58:22Z</time>
      </trkpt>
      <trkpt lat="42.9109940" lon="0.1788960">
        <ele>1681.6</ele>
        <time>2020-07-27T13:58:23Z</time>
      </trkpt>
      <trkpt lat="42.9108270" lon="0.1790550">
        <ele>1679.8</ele>
        <time>2020-07-27T13:58:25Z</time>
      </trkpt>
      <trkpt lat="42.9106230" lon="0.1791560">
        <ele>1678.6</ele>
        <time>2020-07-27T13:58:27Z</time>
      </trkpt>
      <trkpt lat="42.9105150" lon="0.1792030">
        <ele>1677.8</ele>
        <time>2020-07-27T13:58:28Z</time>
      </trkpt>
      <trkpt lat="42.9104220" lon="0.1792440">
        <ele>1677.2</ele>
        <time>2020-07-27T13:58:29Z</time>
      </trkpt>
      <trkpt lat="42.9103370" lon="0.1792920">
        <ele>1676.6</ele>
        <time>2020-07-27T13:58:30Z</time>
      </trkpt>
      <trkpt lat="42.9102620" lon="0.1793510">
        <ele>1676.2</ele>
        <time>2020-07-27T13:58:31Z</time>
      </trkpt>
      <trkpt lat="42.9101970" lon="0.1794280">
        <ele>1675.4</ele>
        <time>2020-07-27T13:58:32Z</time>
      </trkpt>
      <trkpt lat="42.9101440" lon="0.1795240">
        <ele>1674.2</ele>
        <time>2020-07-27T13:58:33Z</time>
      </trkpt>
      <trkpt lat="42.9101070" lon="0.1796340">
        <ele>1671.0</ele>
        <time>2020-07-27T13:58:34Z</time>
      </trkpt>
      <trkpt lat="42.9100830" lon="0.1797560">
        <ele>1669.8</ele>
        <time>2020-07-27T13:58:35Z</time>
      </trkpt>
      <trkpt lat="42.9100710" lon="0.1800280">
        <ele>1668.6</ele>
        <time>2020-07-27T13:58:37Z</time>
      </trkpt>
      <trkpt lat="42.9100830" lon="0.1801750">
        <ele>1668.2</ele>
        <time>2020-07-27T13:58:38Z</time>
      </trkpt>
      <trkpt lat="42.9101020" lon="0.1803280">
        <ele>1667.6</ele>
        <time>2020-07-27T13:58:39Z</time>
      </trkpt>
      <trkpt lat="42.9101250" lon="0.1804880">
        <ele>1667.2</ele>
        <time>2020-07-27T13:58:40Z</time>
      </trkpt>
      <trkpt lat="42.9101850" lon="0.1808150">
        <ele>1665.6</ele>
        <time>2020-07-27T13:58:42Z</time>
      </trkpt>
      <trkpt lat="42.9102570" lon="0.1811500">
        <ele>1664.8</ele>
        <time>2020-07-27T13:58:44Z</time>
      </trkpt>
      <trkpt lat="42.9102940" lon="0.1813030">
        <ele>1663.8</ele>
        <time>2020-07-27T13:58:45Z</time>
      </trkpt>
      <trkpt lat="42.9103330" lon="0.1814360">
        <ele>1662.4</ele>
        <time>2020-07-27T13:58:46Z</time>
      </trkpt>
      <trkpt lat="42.9103740" lon="0.1815440">
        <ele>1661.2</ele>
        <time>2020-07-27T13:58:47Z</time>
      </trkpt>
      <trkpt lat="42.9104180" lon="0.1816380">
        <ele>1659.6</ele>
        <time>2020-07-27T13:58:48Z</time>
      </trkpt>
      <trkpt lat="42.9104650" lon="0.1817250">
        <ele>1658.0</ele>
        <time>2020-07-27T13:58:49Z</time>
      </trkpt>
      <trkpt lat="42.9105120" lon="0.1818210">
        <ele>1656.2</ele>
        <time>2020-07-27T13:58:50Z</time>
      </trkpt>
      <trkpt lat="42.9105610" lon="0.1819210">
        <ele>1654.8</ele>
        <time>2020-07-27T13:58:51Z</time>
      </trkpt>
      <trkpt lat="42.9106190" lon="0.1820240">
        <ele>1653.4</ele>
        <time>2020-07-27T13:58:52Z</time>
      </trkpt>
      <trkpt lat="42.9106850" lon="0.1821310">
        <ele>1652.4</ele>
        <time>2020-07-27T13:58:53Z</time>
      </trkpt>
      <trkpt lat="42.9107580" lon="0.1822470">
        <ele>1651.6</ele>
        <time>2020-07-27T13:58:54Z</time>
      </trkpt>
      <trkpt lat="42.9108980" lon="0.1825150">
        <ele>1650.8</ele>
        <time>2020-07-27T13:58:56Z</time>
      </trkpt>
      <trkpt lat="42.9109530" lon="0.1826690">
        <ele>1650.4</ele>
        <time>2020-07-27T13:58:57Z</time>
      </trkpt>
      <trkpt lat="42.9110520" lon="0.1829890">
        <ele>1649.4</ele>
        <time>2020-07-27T13:58:59Z</time>
      </trkpt>
      <trkpt lat="42.9111600" lon="0.1832970">
        <ele>1647.6</ele>
        <time>2020-07-27T13:59:01Z</time>
      </trkpt>
      <trkpt lat="42.9112260" lon="0.1834400">
        <ele>1645.6</ele>
        <time>2020-07-27T13:59:02Z</time>
      </trkpt>
      <trkpt lat="42.9113030" lon="0.1835720">
        <ele>1644.4</ele>
        <time>2020-07-27T13:59:03Z</time>
      </trkpt>
      <trkpt lat="42.9113890" lon="0.1836950">
        <ele>1642.8</ele>
        <time>2020-07-27T13:59:04Z</time>
      </trkpt>
      <trkpt lat="42.9114830" lon="0.1838130">
        <ele>1640.6</ele>
        <time>2020-07-27T13:59:05Z</time>
      </trkpt>
      <trkpt lat="42.9115810" lon="0.1839270">
        <ele>1638.8</ele>
        <time>2020-07-27T13:59:06Z</time>
      </trkpt>
      <trkpt lat="42.9116910" lon="0.1840310">
        <ele>1637.4</ele>
        <time>2020-07-27T13:59:07Z</time>
      </trkpt>
      <trkpt lat="42.9118100" lon="0.1841140">
        <ele>1636.0</ele>
        <time>2020-07-27T13:59:08Z</time>
      </trkpt>
      <trkpt lat="42.9119360" lon="0.1841750">
        <ele>1635.2</ele>
        <time>2020-07-27T13:59:09Z</time>
      </trkpt>
      <trkpt lat="42.9120720" lon="0.1842210">
        <ele>1634.2</ele>
        <time>2020-07-27T13:59:10Z</time>
      </trkpt>
      <trkpt lat="42.9122120" lon="0.1842650">
        <ele>1633.0</ele>
        <time>2020-07-27T13:59:11Z</time>
      </trkpt>
      <trkpt lat="42.9123490" lon="0.1843220">
        <ele>1631.4</ele>
        <time>2020-07-27T13:59:12Z</time>
      </trkpt>
      <trkpt lat="42.9124790" lon="0.1843990">
        <ele>1629.4</ele>
        <time>2020-07-27T13:59:13Z</time>
      </trkpt>
      <trkpt lat="42.9126020" lon="0.1844980">
        <ele>1627.6</ele>
        <time>2020-07-27T13:59:14Z</time>
      </trkpt>
      <trkpt lat="42.9127190" lon="0.1846120">
        <ele>1626.2</ele>
        <time>2020-07-27T13:59:15Z</time>
      </trkpt>
      <trkpt lat="42.9128240" lon="0.1847360">
        <ele>1624.8</ele>
        <time>2020-07-27T13:59:16Z</time>
      </trkpt>
      <trkpt lat="42.9129150" lon="0.1848730">
        <ele>1623.2</ele>
        <time>2020-07-27T13:59:17Z</time>
      </trkpt>
      <trkpt lat="42.9129900" lon="0.1850230">
        <ele>1621.6</ele>
        <time>2020-07-27T13:59:18Z</time>
      </trkpt>
      <trkpt lat="42.9130500" lon="0.1851780">
        <ele>1620.0</ele>
        <time>2020-07-27T13:59:19Z</time>
      </trkpt>
      <trkpt lat="42.9131040" lon="0.1853310">
        <ele>1618.4</ele>
        <time>2020-07-27T13:59:20Z</time>
      </trkpt>
      <trkpt lat="42.9131550" lon="0.1854800">
        <ele>1616.4</ele>
        <time>2020-07-27T13:59:21Z</time>
      </trkpt>
      <trkpt lat="42.9132070" lon="0.1856300">
        <ele>1615.0</ele>
        <time>2020-07-27T13:59:22Z</time>
      </trkpt>
      <trkpt lat="42.9132560" lon="0.1857790">
        <ele>1613.8</ele>
        <time>2020-07-27T13:59:23Z</time>
      </trkpt>
      <trkpt lat="42.9133470" lon="0.1860480">
        <ele>1612.4</ele>
        <time>2020-07-27T13:59:25Z</time>
      </trkpt>
      <trkpt lat="42.9134330" lon="0.1862900">
        <ele>1610.2</ele>
        <time>2020-07-27T13:59:27Z</time>
      </trkpt>
      <trkpt lat="42.9134670" lon="0.1864100">
        <ele>1608.2</ele>
        <time>2020-07-27T13:59:28Z</time>
      </trkpt>
      <trkpt lat="42.9134940" lon="0.1865170">
        <ele>1606.4</ele>
        <time>2020-07-27T13:59:29Z</time>
      </trkpt>
      <trkpt lat="42.9135300" lon="0.1865950">
        <ele>1605.4</ele>
        <time>2020-07-27T13:59:30Z</time>
      </trkpt>
      <trkpt lat="42.9135750" lon="0.1866480">
        <ele>1604.4</ele>
        <time>2020-07-27T13:59:31Z</time>
      </trkpt>
      <trkpt lat="42.9137290" lon="0.1866800">
        <ele>1603.0</ele>
        <time>2020-07-27T13:59:33Z</time>
      </trkpt>
      <trkpt lat="42.9138830" lon="0.1866500">
        <ele>1602.0</ele>
        <time>2020-07-27T13:59:35Z</time>
      </trkpt>
      <trkpt lat="42.9140110" lon="0.1866390">
        <ele>1601.4</ele>
        <time>2020-07-27T13:59:36Z</time>
      </trkpt>
      <trkpt lat="42.9141190" lon="0.1866430">
        <ele>1601.0</ele>
        <time>2020-07-27T13:59:37Z</time>
      </trkpt>
      <trkpt lat="42.9142110" lon="0.1866600">
        <ele>1600.4</ele>
        <time>2020-07-27T13:59:38Z</time>
      </trkpt>
      <trkpt lat="42.9143720" lon="0.1867150">
        <ele>1598.2</ele>
        <time>2020-07-27T13:59:40Z</time>
      </trkpt>
      <trkpt lat="42.9144400" lon="0.1867630">
        <ele>1597.4</ele>
        <time>2020-07-27T13:59:41Z</time>
      </trkpt>
      <trkpt lat="42.9144950" lon="0.1868130">
        <ele>1596.6</ele>
        <time>2020-07-27T13:59:42Z</time>
      </trkpt>
      <trkpt lat="42.9145680" lon="0.1869220">
        <ele>1594.2</ele>
        <time>2020-07-27T13:59:44Z</time>
      </trkpt>
      <trkpt lat="42.9145960" lon="0.1869780">
        <ele>1593.0</ele>
        <time>2020-07-27T13:59:45Z</time>
      </trkpt>
      <trkpt lat="42.9146690" lon="0.1870750">
        <ele>1591.4</ele>
        <time>2020-07-27T13:59:47Z</time>
      </trkpt>
      <trkpt lat="42.9147950" lon="0.1871160">
        <ele>1589.6</ele>
        <time>2020-07-27T13:59:49Z</time>
      </trkpt>
      <trkpt lat="42.9151410" lon="0.1871340">
        <ele>1588.4</ele>
        <time>2020-07-27T13:59:51Z</time>
      </trkpt>
      <trkpt lat="42.9152990" lon="0.1871180">
        <ele>1587.6</ele>
        <time>2020-07-27T13:59:52Z</time>
      </trkpt>
      <trkpt lat="42.9154660" lon="0.1871270">
        <ele>1586.8</ele>
        <time>2020-07-27T13:59:53Z</time>
      </trkpt>
      <trkpt lat="42.9156080" lon="0.1871570">
        <ele>1586.2</ele>
        <time>2020-07-27T13:59:54Z</time>
      </trkpt>
      <trkpt lat="42.9157160" lon="0.1871960">
        <ele>1585.6</ele>
        <time>2020-07-27T13:59:55Z</time>
      </trkpt>
      <trkpt lat="42.9158140" lon="0.1872660">
        <ele>1584.8</ele>
        <time>2020-07-27T13:59:56Z</time>
      </trkpt>
      <trkpt lat="42.9159140" lon="0.1873640">
        <ele>1583.4</ele>
        <time>2020-07-27T13:59:57Z</time>
      </trkpt>
      <trkpt lat="42.9160570" lon="0.1876100">
        <ele>1581.6</ele>
        <time>2020-07-27T13:59:59Z</time>
      </trkpt>
      <trkpt lat="42.9161090" lon="0.1877460">
        <ele>1580.4</ele>
        <time>2020-07-27T14:00:00Z</time>
      </trkpt>
      <trkpt lat="42.9161460" lon="0.1878720">
        <ele>1579.2</ele>
        <time>2020-07-27T14:00:01Z</time>
      </trkpt>
      <trkpt lat="42.9162330" lon="0.1879790">
        <ele>1577.6</ele>
        <time>2020-07-27T14:00:02Z</time>
      </trkpt>
      <trkpt lat="42.9163200" lon="0.1880850">
        <ele>1576.2</ele>
        <time>2020-07-27T14:00:03Z</time>
      </trkpt>
      <trkpt lat="42.9164070" lon="0.1881920">
        <ele>1574.6</ele>
        <time>2020-07-27T14:00:04Z</time>
      </trkpt>
      <trkpt lat="42.9164940" lon="0.1882990">
        <ele>1573.2</ele>
        <time>2020-07-27T14:00:05Z</time>
      </trkpt>
      <trkpt lat="42.9166270" lon="0.1884000">
        <ele>1572.0</ele>
        <time>2020-07-27T14:00:06Z</time>
      </trkpt>
      <trkpt lat="42.9167570" lon="0.1885040">
        <ele>1570.4</ele>
        <time>2020-07-27T14:00:07Z</time>
      </trkpt>
      <trkpt lat="42.9168970" lon="0.1886170">
        <ele>1568.4</ele>
        <time>2020-07-27T14:00:08Z</time>
      </trkpt>
      <trkpt lat="42.9170300" lon="0.1887260">
        <ele>1566.4</ele>
        <time>2020-07-27T14:00:09Z</time>
      </trkpt>
      <trkpt lat="42.9171630" lon="0.1888790">
        <ele>1564.4</ele>
        <time>2020-07-27T14:00:10Z</time>
      </trkpt>
      <trkpt lat="42.9172950" lon="0.1890280">
        <ele>1562.8</ele>
        <time>2020-07-27T14:00:11Z</time>
      </trkpt>
      <trkpt lat="42.9174350" lon="0.1891620">
        <ele>1561.4</ele>
        <time>2020-07-27T14:00:12Z</time>
      </trkpt>
      <trkpt lat="42.9175670" lon="0.1893150">
        <ele>1560.0</ele>
        <time>2020-07-27T14:00:13Z</time>
      </trkpt>
      <trkpt lat="42.9176820" lon="0.1894750">
        <ele>1558.4</ele>
        <time>2020-07-27T14:00:14Z</time>
      </trkpt>
      <trkpt lat="42.9177940" lon="0.1896270">
        <ele>1556.6</ele>
        <time>2020-07-27T14:00:15Z</time>
      </trkpt>
      <trkpt lat="42.9179130" lon="0.1897710">
        <ele>1555.2</ele>
        <time>2020-07-27T14:00:16Z</time>
      </trkpt>
      <trkpt lat="42.9180350" lon="0.1899070">
        <ele>1553.6</ele>
        <time>2020-07-27T14:00:17Z</time>
      </trkpt>
      <trkpt lat="42.9181610" lon="0.1900390">
        <ele>1552.0</ele>
        <time>2020-07-27T14:00:18Z</time>
      </trkpt>
      <trkpt lat="42.9182890" lon="0.1901660">
        <ele>1550.6</ele>
        <time>2020-07-27T14:00:19Z</time>
      </trkpt>
      <trkpt lat="42.9184160" lon="0.1902880">
        <ele>1548.8</ele>
        <time>2020-07-27T14:00:20Z</time>
      </trkpt>
      <trkpt lat="42.9185470" lon="0.1904070">
        <ele>1547.0</ele>
        <time>2020-07-27T14:00:21Z</time>
      </trkpt>
      <trkpt lat="42.9186790" lon="0.1905270">
        <ele>1545.4</ele>
        <time>2020-07-27T14:00:22Z</time>
      </trkpt>
      <trkpt lat="42.9188110" lon="0.1906460">
        <ele>1543.6</ele>
        <time>2020-07-27T14:00:23Z</time>
      </trkpt>
      <trkpt lat="42.9189400" lon="0.1907590">
        <ele>1540.0</ele>
        <time>2020-07-27T14:00:24Z</time>
      </trkpt>
      <trkpt lat="42.9190600" lon="0.1908660">
        <ele>1538.0</ele>
        <time>2020-07-27T14:00:25Z</time>
      </trkpt>
      <trkpt lat="42.9191720" lon="0.1909750">
        <ele>1536.4</ele>
        <time>2020-07-27T14:00:26Z</time>
      </trkpt>
      <trkpt lat="42.9192730" lon="0.1911010">
        <ele>1535.0</ele>
        <time>2020-07-27T14:00:27Z</time>
      </trkpt>
      <trkpt lat="42.9193590" lon="0.1912410">
        <ele>1533.4</ele>
        <time>2020-07-27T14:00:28Z</time>
      </trkpt>
      <trkpt lat="42.9194350" lon="0.1913900">
        <ele>1532.6</ele>
        <time>2020-07-27T14:00:29Z</time>
      </trkpt>
      <trkpt lat="42.9194980" lon="0.1915490">
        <ele>1532.0</ele>
        <time>2020-07-27T14:00:30Z</time>
      </trkpt>
      <trkpt lat="42.9195880" lon="0.1918950">
        <ele>1530.6</ele>
        <time>2020-07-27T14:00:32Z</time>
      </trkpt>
      <trkpt lat="42.9196220" lon="0.1920790">
        <ele>1529.2</ele>
        <time>2020-07-27T14:00:33Z</time>
      </trkpt>
      <trkpt lat="42.9196500" lon="0.1922690">
        <ele>1527.8</ele>
        <time>2020-07-27T14:00:34Z</time>
      </trkpt>
      <trkpt lat="42.9196690" lon="0.1924640">
        <ele>1525.8</ele>
        <time>2020-07-27T14:00:35Z</time>
      </trkpt>
      <trkpt lat="42.9196830" lon="0.1926620">
        <ele>1524.0</ele>
        <time>2020-07-27T14:00:36Z</time>
      </trkpt>
      <trkpt lat="42.9196960" lon="0.1930680">
        <ele>1522.0</ele>
        <time>2020-07-27T14:00:38Z</time>
      </trkpt>
      <trkpt lat="42.9197130" lon="0.1934900">
        <ele>1520.2</ele>
        <time>2020-07-27T14:00:40Z</time>
      </trkpt>
      <trkpt lat="42.9197340" lon="0.1937030">
        <ele>1519.0</ele>
        <time>2020-07-27T14:00:41Z</time>
      </trkpt>
      <trkpt lat="42.9197550" lon="0.1939190">
        <ele>1517.8</ele>
        <time>2020-07-27T14:00:42Z</time>
      </trkpt>
      <trkpt lat="42.9197790" lon="0.1941350">
        <ele>1516.0</ele>
        <time>2020-07-27T14:00:43Z</time>
      </trkpt>
      <trkpt lat="42.9198110" lon="0.1943500">
        <ele>1514.6</ele>
        <time>2020-07-27T14:00:44Z</time>
      </trkpt>
      <trkpt lat="42.9198540" lon="0.1945620">
        <ele>1513.2</ele>
        <time>2020-07-27T14:00:45Z</time>
      </trkpt>
      <trkpt lat="42.9199010" lon="0.1947750">
        <ele>1511.8</ele>
        <time>2020-07-27T14:00:46Z</time>
      </trkpt>
      <trkpt lat="42.9199680" lon="0.1949810">
        <ele>1510.4</ele>
        <time>2020-07-27T14:00:47Z</time>
      </trkpt>
      <trkpt lat="42.9200290" lon="0.1951850">
        <ele>1508.8</ele>
        <time>2020-07-27T14:00:48Z</time>
      </trkpt>
      <trkpt lat="42.9201070" lon="0.1953940">
        <ele>1507.2</ele>
        <time>2020-07-27T14:00:49Z</time>
      </trkpt>
      <trkpt lat="42.9201790" lon="0.1956050">
        <ele>1505.6</ele>
        <time>2020-07-27T14:00:50Z</time>
      </trkpt>
      <trkpt lat="42.9202450" lon="0.1958130">
        <ele>1502.6</ele>
        <time>2020-07-27T14:00:51Z</time>
      </trkpt>
      <trkpt lat="42.9203150" lon="0.1960180">
        <ele>1501.2</ele>
        <time>2020-07-27T14:00:52Z</time>
      </trkpt>
      <trkpt lat="42.9203700" lon="0.1962200">
        <ele>1499.4</ele>
        <time>2020-07-27T14:00:53Z</time>
      </trkpt>
      <trkpt lat="42.9205250" lon="0.1964080">
        <ele>1497.4</ele>
        <time>2020-07-27T14:00:54Z</time>
      </trkpt>
      <trkpt lat="42.9206140" lon="0.1965990">
        <ele>1496.0</ele>
        <time>2020-07-27T14:00:55Z</time>
      </trkpt>
      <trkpt lat="42.9206830" lon="0.1967900">
        <ele>1494.6</ele>
        <time>2020-07-27T14:00:56Z</time>
      </trkpt>
      <trkpt lat="42.9207690" lon="0.1969770">
        <ele>1493.2</ele>
        <time>2020-07-27T14:00:57Z</time>
      </trkpt>
      <trkpt lat="42.9208560" lon="0.1971650">
        <ele>1491.8</ele>
        <time>2020-07-27T14:00:58Z</time>
      </trkpt>
      <trkpt lat="42.9209500" lon="0.1973530">
        <ele>1490.2</ele>
        <time>2020-07-27T14:00:59Z</time>
      </trkpt>
      <trkpt lat="42.9210390" lon="0.1975420">
        <ele>1488.4</ele>
        <time>2020-07-27T14:01:00Z</time>
      </trkpt>
      <trkpt lat="42.9211360" lon="0.1977320">
        <ele>1486.6</ele>
        <time>2020-07-27T14:01:01Z</time>
      </trkpt>
      <trkpt lat="42.9212300" lon="0.1979190">
        <ele>1485.2</ele>
        <time>2020-07-27T14:01:02Z</time>
      </trkpt>
      <trkpt lat="42.9213240" lon="0.1981010">
        <ele>1484.2</ele>
        <time>2020-07-27T14:01:03Z</time>
      </trkpt>
      <trkpt lat="42.9214160" lon="0.1982820">
        <ele>1483.0</ele>
        <time>2020-07-27T14:01:04Z</time>
      </trkpt>
      <trkpt lat="42.9215050" lon="0.1984610">
        <ele>1481.6</ele>
        <time>2020-07-27T14:01:05Z</time>
      </trkpt>
      <trkpt lat="42.9215920" lon="0.1986410">
        <ele>1480.0</ele>
        <time>2020-07-27T14:01:06Z</time>
      </trkpt>
      <trkpt lat="42.9216820" lon="0.1988240">
        <ele>1478.0</ele>
        <time>2020-07-27T14:01:07Z</time>
      </trkpt>
      <trkpt lat="42.9217710" lon="0.1990120">
        <ele>1476.2</ele>
        <time>2020-07-27T14:01:08Z</time>
      </trkpt>
      <trkpt lat="42.9218540" lon="0.1992010">
        <ele>1473.8</ele>
        <time>2020-07-27T14:01:09Z</time>
      </trkpt>
      <trkpt lat="42.9219300" lon="0.1993950">
        <ele>1471.8</ele>
        <time>2020-07-27T14:01:10Z</time>
      </trkpt>
      <trkpt lat="42.9220040" lon="0.1995940">
        <ele>1469.8</ele>
        <time>2020-07-27T14:01:11Z</time>
      </trkpt>
      <trkpt lat="42.9220840" lon="0.1997900">
        <ele>1468.8</ele>
        <time>2020-07-27T14:01:12Z</time>
      </trkpt>
      <trkpt lat="42.9222230" lon="0.2001650">
        <ele>1467.4</ele>
        <time>2020-07-27T14:01:14Z</time>
      </trkpt>
      <trkpt lat="42.9222790" lon="0.2003420">
        <ele>1466.6</ele>
        <time>2020-07-27T14:01:15Z</time>
      </trkpt>
      <trkpt lat="42.9223280" lon="0.2005080">
        <ele>1465.4</ele>
        <time>2020-07-27T14:01:16Z</time>
      </trkpt>
      <trkpt lat="42.9223690" lon="0.2006730">
        <ele>1463.8</ele>
        <time>2020-07-27T14:01:17Z</time>
      </trkpt>
      <trkpt lat="42.9224000" lon="0.2008360">
        <ele>1460.6</ele>
        <time>2020-07-27T14:01:18Z</time>
      </trkpt>
      <trkpt lat="42.9224170" lon="0.2009980">
        <ele>1459.0</ele>
        <time>2020-07-27T14:01:19Z</time>
      </trkpt>
      <trkpt lat="42.9224140" lon="0.2011610">
        <ele>1457.6</ele>
        <time>2020-07-27T14:01:20Z</time>
      </trkpt>
      <trkpt lat="42.9223930" lon="0.2013220">
        <ele>1456.4</ele>
        <time>2020-07-27T14:01:21Z</time>
      </trkpt>
      <trkpt lat="42.9223470" lon="0.2014770">
        <ele>1455.2</ele>
        <time>2020-07-27T14:01:22Z</time>
      </trkpt>
      <trkpt lat="42.9222920" lon="0.2016350">
        <ele>1454.6</ele>
        <time>2020-07-27T14:01:23Z</time>
      </trkpt>
      <trkpt lat="42.9222330" lon="0.2017980">
        <ele>1454.0</ele>
        <time>2020-07-27T14:01:24Z</time>
      </trkpt>
      <trkpt lat="42.9221100" lon="0.2021340">
        <ele>1452.2</ele>
        <time>2020-07-27T14:01:26Z</time>
      </trkpt>
      <trkpt lat="42.9219790" lon="0.2024720">
        <ele>1450.0</ele>
        <time>2020-07-27T14:01:28Z</time>
      </trkpt>
      <trkpt lat="42.9219150" lon="0.2026430">
        <ele>1448.6</ele>
        <time>2020-07-27T14:01:29Z</time>
      </trkpt>
      <trkpt lat="42.9218570" lon="0.2028260">
        <ele>1447.2</ele>
        <time>2020-07-27T14:01:30Z</time>
      </trkpt>
      <trkpt lat="42.9218040" lon="0.2030130">
        <ele>1446.0</ele>
        <time>2020-07-27T14:01:31Z</time>
      </trkpt>
      <trkpt lat="42.9217510" lon="0.2031970">
        <ele>1445.0</ele>
        <time>2020-07-27T14:01:32Z</time>
      </trkpt>
      <trkpt lat="42.9216960" lon="0.2033780">
        <ele>1443.6</ele>
        <time>2020-07-27T14:01:33Z</time>
      </trkpt>
      <trkpt lat="42.9216350" lon="0.2035510">
        <ele>1442.2</ele>
        <time>2020-07-27T14:01:34Z</time>
      </trkpt>
      <trkpt lat="42.9215650" lon="0.2037170">
        <ele>1440.6</ele>
        <time>2020-07-27T14:01:35Z</time>
      </trkpt>
      <trkpt lat="42.9214750" lon="0.2038640">
        <ele>1439.2</ele>
        <time>2020-07-27T14:01:36Z</time>
      </trkpt>
      <trkpt lat="42.9213830" lon="0.2040150">
        <ele>1437.8</ele>
        <time>2020-07-27T14:01:37Z</time>
      </trkpt>
      <trkpt lat="42.9212860" lon="0.2041700">
        <ele>1436.8</ele>
        <time>2020-07-27T14:01:38Z</time>
      </trkpt>
      <trkpt lat="42.9211920" lon="0.2043260">
        <ele>1435.6</ele>
        <time>2020-07-27T14:01:39Z</time>
      </trkpt>
      <trkpt lat="42.9210920" lon="0.2044750">
        <ele>1434.4</ele>
        <time>2020-07-27T14:01:40Z</time>
      </trkpt>
      <trkpt lat="42.9209950" lon="0.2046260">
        <ele>1433.4</ele>
        <time>2020-07-27T14:01:41Z</time>
      </trkpt>
      <trkpt lat="42.9208870" lon="0.2047610">
        <ele>1432.2</ele>
        <time>2020-07-27T14:01:42Z</time>
      </trkpt>
      <trkpt lat="42.9207730" lon="0.2048910">
        <ele>1430.8</ele>
        <time>2020-07-27T14:01:43Z</time>
      </trkpt>
      <trkpt lat="42.9206570" lon="0.2050170">
        <ele>1429.4</ele>
        <time>2020-07-27T14:01:44Z</time>
      </trkpt>
      <trkpt lat="42.9205540" lon="0.2051510">
        <ele>1426.8</ele>
        <time>2020-07-27T14:01:45Z</time>
      </trkpt>
      <trkpt lat="42.9204530" lon="0.2052850">
        <ele>1425.4</ele>
        <time>2020-07-27T14:01:46Z</time>
      </trkpt>
      <trkpt lat="42.9203430" lon="0.2054020">
        <ele>1424.4</ele>
        <time>2020-07-27T14:01:47Z</time>
      </trkpt>
      <trkpt lat="42.9202240" lon="0.2055130">
        <ele>1423.0</ele>
        <time>2020-07-27T14:01:48Z</time>
      </trkpt>
      <trkpt lat="42.9201030" lon="0.2056250">
        <ele>1421.8</ele>
        <time>2020-07-27T14:01:49Z</time>
      </trkpt>
      <trkpt lat="42.9199820" lon="0.2057470">
        <ele>1420.6</ele>
        <time>2020-07-27T14:01:50Z</time>
      </trkpt>
      <trkpt lat="42.9198680" lon="0.2058680">
        <ele>1419.2</ele>
        <time>2020-07-27T14:01:51Z</time>
      </trkpt>
      <trkpt lat="42.9197630" lon="0.2060120">
        <ele>1417.8</ele>
        <time>2020-07-27T14:01:52Z</time>
      </trkpt>
      <trkpt lat="42.9196660" lon="0.2061730">
        <ele>1416.8</ele>
        <time>2020-07-27T14:01:53Z</time>
      </trkpt>
      <trkpt lat="42.9195720" lon="0.2063420">
        <ele>1415.6</ele>
        <time>2020-07-27T14:01:54Z</time>
      </trkpt>
      <trkpt lat="42.9194730" lon="0.2065070">
        <ele>1414.0</ele>
        <time>2020-07-27T14:01:55Z</time>
      </trkpt>
      <trkpt lat="42.9193680" lon="0.2066650">
        <ele>1412.6</ele>
        <time>2020-07-27T14:01:56Z</time>
      </trkpt>
      <trkpt lat="42.9192550" lon="0.2068210">
        <ele>1411.4</ele>
        <time>2020-07-27T14:01:57Z</time>
      </trkpt>
      <trkpt lat="42.9191390" lon="0.2069730">
        <ele>1410.0</ele>
        <time>2020-07-27T14:01:58Z</time>
      </trkpt>
      <trkpt lat="42.9190230" lon="0.2071190">
        <ele>1408.0</ele>
        <time>2020-07-27T14:01:59Z</time>
      </trkpt>
      <trkpt lat="42.9189080" lon="0.2072530">
        <ele>1406.0</ele>
        <time>2020-07-27T14:02:00Z</time>
      </trkpt>
      <trkpt lat="42.9187920" lon="0.2073900">
        <ele>1404.8</ele>
        <time>2020-07-27T14:02:01Z</time>
      </trkpt>
      <trkpt lat="42.9185570" lon="0.2076430">
        <ele>1402.6</ele>
        <time>2020-07-27T14:02:03Z</time>
      </trkpt>
      <trkpt lat="42.9184380" lon="0.2077620">
        <ele>1401.4</ele>
        <time>2020-07-27T14:02:04Z</time>
      </trkpt>
      <trkpt lat="42.9183160" lon="0.2078820">
        <ele>1400.4</ele>
        <time>2020-07-27T14:02:05Z</time>
      </trkpt>
      <trkpt lat="42.9181940" lon="0.2080040">
        <ele>1399.0</ele>
        <time>2020-07-27T14:02:06Z</time>
      </trkpt>
      <trkpt lat="42.9180770" lon="0.2081290">
        <ele>1397.8</ele>
        <time>2020-07-27T14:02:07Z</time>
      </trkpt>
      <trkpt lat="42.9179570" lon="0.2082460">
        <ele>1396.8</ele>
        <time>2020-07-27T14:02:08Z</time>
      </trkpt>
      <trkpt lat="42.9178390" lon="0.2083620">
        <ele>1395.4</ele>
        <time>2020-07-27T14:02:09Z</time>
      </trkpt>
      <trkpt lat="42.9177200" lon="0.2084750">
        <ele>1393.8</ele>
        <time>2020-07-27T14:02:10Z</time>
      </trkpt>
      <trkpt lat="42.9176020" lon="0.2085920">
        <ele>1392.6</ele>
        <time>2020-07-27T14:02:11Z</time>
      </trkpt>
      <trkpt lat="42.9174910" lon="0.2087030">
        <ele>1390.6</ele>
        <time>2020-07-27T14:02:12Z</time>
      </trkpt>
      <trkpt lat="42.9173880" lon="0.2088050">
        <ele>1389.4</ele>
        <time>2020-07-27T14:02:13Z</time>
      </trkpt>
      <trkpt lat="42.9172910" lon="0.2088990">
        <ele>1388.0</ele>
        <time>2020-07-27T14:02:14Z</time>
      </trkpt>
      <trkpt lat="42.9172010" lon="0.2089850">
        <ele>1386.8</ele>
        <time>2020-07-27T14:02:15Z</time>
      </trkpt>
      <trkpt lat="42.9171180" lon="0.2090680">
        <ele>1385.4</ele>
        <time>2020-07-27T14:02:16Z</time>
      </trkpt>
      <trkpt lat="42.9170450" lon="0.2091410">
        <ele>1383.8</ele>
        <time>2020-07-27T14:02:17Z</time>
      </trkpt>
      <trkpt lat="42.9169830" lon="0.2092260">
        <ele>1382.4</ele>
        <time>2020-07-27T14:02:18Z</time>
      </trkpt>
      <trkpt lat="42.9169390" lon="0.2093150">
        <ele>1381.2</ele>
        <time>2020-07-27T14:02:19Z</time>
      </trkpt>
      <trkpt lat="42.9169320" lon="0.2095080">
        <ele>1379.6</ele>
        <time>2020-07-27T14:02:21Z</time>
      </trkpt>
      <trkpt lat="42.9170340" lon="0.2096240">
        <ele>1379.0</ele>
        <time>2020-07-27T14:02:23Z</time>
      </trkpt>
      <trkpt lat="42.9171880" lon="0.2095780">
        <ele>1378.4</ele>
        <time>2020-07-27T14:02:25Z</time>
      </trkpt>
      <trkpt lat="42.9174450" lon="0.2093390">
        <ele>1377.4</ele>
        <time>2020-07-27T14:02:28Z</time>
      </trkpt>
      <trkpt lat="42.9175390" lon="0.2092390">
        <ele>1376.8</ele>
        <time>2020-07-27T14:02:29Z</time>
      </trkpt>
      <trkpt lat="42.9177260" lon="0.2090390">
        <ele>1374.6</ele>
        <time>2020-07-27T14:02:31Z</time>
      </trkpt>
      <trkpt lat="42.9178240" lon="0.2089280">
        <ele>1373.2</ele>
        <time>2020-07-27T14:02:32Z</time>
      </trkpt>
      <trkpt lat="42.9179240" lon="0.2088170">
        <ele>1372.0</ele>
        <time>2020-07-27T14:02:33Z</time>
      </trkpt>
      <trkpt lat="42.9181370" lon="0.2086200">
        <ele>1370.6</ele>
        <time>2020-07-27T14:02:35Z</time>
      </trkpt>
      <trkpt lat="42.9182540" lon="0.2085570">
        <ele>1370.0</ele>
        <time>2020-07-27T14:02:36Z</time>
      </trkpt>
      <trkpt lat="42.9183740" lon="0.2085340">
        <ele>1369.0</ele>
        <time>2020-07-27T14:02:37Z</time>
      </trkpt>
      <trkpt lat="42.9184910" lon="0.2085390">
        <ele>1367.6</ele>
        <time>2020-07-27T14:02:38Z</time>
      </trkpt>
      <trkpt lat="42.9186050" lon="0.2085520">
        <ele>1364.6</ele>
        <time>2020-07-27T14:02:39Z</time>
      </trkpt>
      <trkpt lat="42.9187180" lon="0.2085460">
        <ele>1363.4</ele>
        <time>2020-07-27T14:02:40Z</time>
      </trkpt>
      <trkpt lat="42.9188310" lon="0.2084980">
        <ele>1362.4</ele>
        <time>2020-07-27T14:02:41Z</time>
      </trkpt>
      <trkpt lat="42.9189400" lon="0.2084220">
        <ele>1361.6</ele>
        <time>2020-07-27T14:02:42Z</time>
      </trkpt>
      <trkpt lat="42.9191670" lon="0.2082450">
        <ele>1360.0</ele>
        <time>2020-07-27T14:02:44Z</time>
      </trkpt>
      <trkpt lat="42.9192850" lon="0.2081410">
        <ele>1359.0</ele>
        <time>2020-07-27T14:02:45Z</time>
      </trkpt>
      <trkpt lat="42.9195270" lon="0.2079150">
        <ele>1357.2</ele>
        <time>2020-07-27T14:02:47Z</time>
      </trkpt>
      <trkpt lat="42.9196480" lon="0.2078010">
        <ele>1355.2</ele>
        <time>2020-07-27T14:02:48Z</time>
      </trkpt>
      <trkpt lat="42.9197730" lon="0.2076890">
        <ele>1353.0</ele>
        <time>2020-07-27T14:02:49Z</time>
      </trkpt>
      <trkpt lat="42.9198970" lon="0.2075770">
        <ele>1351.0</ele>
        <time>2020-07-27T14:02:50Z</time>
      </trkpt>
      <trkpt lat="42.9200260" lon="0.2074720">
        <ele>1349.4</ele>
        <time>2020-07-27T14:02:51Z</time>
      </trkpt>
      <trkpt lat="42.9201600" lon="0.2073730">
        <ele>1347.8</ele>
        <time>2020-07-27T14:02:52Z</time>
      </trkpt>
      <trkpt lat="42.9202890" lon="0.2072710">
        <ele>1346.0</ele>
        <time>2020-07-27T14:02:53Z</time>
      </trkpt>
      <trkpt lat="42.9204150" lon="0.2071700">
        <ele>1344.0</ele>
        <time>2020-07-27T14:02:54Z</time>
      </trkpt>
      <trkpt lat="42.9205430" lon="0.2070790">
        <ele>1342.6</ele>
        <time>2020-07-27T14:02:55Z</time>
      </trkpt>
      <trkpt lat="42.9206790" lon="0.2070020">
        <ele>1341.2</ele>
        <time>2020-07-27T14:02:56Z</time>
      </trkpt>
      <trkpt lat="42.9208130" lon="0.2069240">
        <ele>1339.8</ele>
        <time>2020-07-27T14:02:57Z</time>
      </trkpt>
      <trkpt lat="42.9210970" lon="0.2068020">
        <ele>1337.8</ele>
        <time>2020-07-27T14:02:59Z</time>
      </trkpt>
      <trkpt lat="42.9213670" lon="0.2066530">
        <ele>1335.8</ele>
        <time>2020-07-27T14:03:01Z</time>
      </trkpt>
      <trkpt lat="42.9214960" lon="0.2065730">
        <ele>1334.4</ele>
        <time>2020-07-27T14:03:02Z</time>
      </trkpt>
      <trkpt lat="42.9216240" lon="0.2064770">
        <ele>1333.4</ele>
        <time>2020-07-27T14:03:03Z</time>
      </trkpt>
      <trkpt lat="42.9218770" lon="0.2062630">
        <ele>1331.2</ele>
        <time>2020-07-27T14:03:05Z</time>
      </trkpt>
      <trkpt lat="42.9220050" lon="0.2061620">
        <ele>1328.4</ele>
        <time>2020-07-27T14:03:06Z</time>
      </trkpt>
      <trkpt lat="42.9221390" lon="0.2060670">
        <ele>1326.6</ele>
        <time>2020-07-27T14:03:07Z</time>
      </trkpt>
      <trkpt lat="42.9222840" lon="0.2059880">
        <ele>1325.0</ele>
        <time>2020-07-27T14:03:08Z</time>
      </trkpt>
      <trkpt lat="42.9224340" lon="0.2059260">
        <ele>1323.6</ele>
        <time>2020-07-27T14:03:09Z</time>
      </trkpt>
      <trkpt lat="42.9225770" lon="0.2058630">
        <ele>1322.8</ele>
        <time>2020-07-27T14:03:10Z</time>
      </trkpt>
      <trkpt lat="42.9227080" lon="0.2057870">
        <ele>1321.6</ele>
        <time>2020-07-27T14:03:11Z</time>
      </trkpt>
      <trkpt lat="42.9228250" lon="0.2056830">
        <ele>1320.6</ele>
        <time>2020-07-27T14:03:12Z</time>
      </trkpt>
      <trkpt lat="42.9229300" lon="0.2055550">
        <ele>1319.4</ele>
        <time>2020-07-27T14:03:13Z</time>
      </trkpt>
      <trkpt lat="42.9230300" lon="0.2054090">
        <ele>1318.0</ele>
        <time>2020-07-27T14:03:14Z</time>
      </trkpt>
      <trkpt lat="42.9231250" lon="0.2052550">
        <ele>1316.6</ele>
        <time>2020-07-27T14:03:15Z</time>
      </trkpt>
      <trkpt lat="42.9232230" lon="0.2050970">
        <ele>1315.2</ele>
        <time>2020-07-27T14:03:16Z</time>
      </trkpt>
      <trkpt lat="42.9233290" lon="0.2049480">
        <ele>1313.8</ele>
        <time>2020-07-27T14:03:17Z</time>
      </trkpt>
      <trkpt lat="42.9235350" lon="0.2046500">
        <ele>1312.6</ele>
        <time>2020-07-27T14:03:19Z</time>
      </trkpt>
      <trkpt lat="42.9237050" lon="0.2043090">
        <ele>1311.2</ele>
        <time>2020-07-27T14:03:21Z</time>
      </trkpt>
      <trkpt lat="42.9237800" lon="0.2041300">
        <ele>1310.0</ele>
        <time>2020-07-27T14:03:22Z</time>
      </trkpt>
      <trkpt lat="42.9238570" lon="0.2039570">
        <ele>1308.6</ele>
        <time>2020-07-27T14:03:23Z</time>
      </trkpt>
      <trkpt lat="42.9239400" lon="0.2037970">
        <ele>1306.6</ele>
        <time>2020-07-27T14:03:24Z</time>
      </trkpt>
      <trkpt lat="42.9240260" lon="0.2036390">
        <ele>1304.4</ele>
        <time>2020-07-27T14:03:25Z</time>
      </trkpt>
      <trkpt lat="42.9241180" lon="0.2034830">
        <ele>1302.8</ele>
        <time>2020-07-27T14:03:26Z</time>
      </trkpt>
      <trkpt lat="42.9242020" lon="0.2033210">
        <ele>1301.2</ele>
        <time>2020-07-27T14:03:27Z</time>
      </trkpt>
      <trkpt lat="42.9242730" lon="0.2031480">
        <ele>1299.8</ele>
        <time>2020-07-27T14:03:28Z</time>
      </trkpt>
      <trkpt lat="42.9243380" lon="0.2029610">
        <ele>1298.8</ele>
        <time>2020-07-27T14:03:29Z</time>
      </trkpt>
      <trkpt lat="42.9243880" lon="0.2027690">
        <ele>1297.8</ele>
        <time>2020-07-27T14:03:30Z</time>
      </trkpt>
      <trkpt lat="42.9244250" lon="0.2025690">
        <ele>1296.8</ele>
        <time>2020-07-27T14:03:31Z</time>
      </trkpt>
      <trkpt lat="42.9244500" lon="0.2023690">
        <ele>1295.6</ele>
        <time>2020-07-27T14:03:32Z</time>
      </trkpt>
      <trkpt lat="42.9244690" lon="0.2021840">
        <ele>1292.6</ele>
        <time>2020-07-27T14:03:33Z</time>
      </trkpt>
      <trkpt lat="42.9244930" lon="0.2019890">
        <ele>1291.2</ele>
        <time>2020-07-27T14:03:34Z</time>
      </trkpt>
      <trkpt lat="42.9245190" lon="0.2017780">
        <ele>1290.2</ele>
        <time>2020-07-27T14:03:35Z</time>
      </trkpt>
      <trkpt lat="42.9245550" lon="0.2015720">
        <ele>1288.8</ele>
        <time>2020-07-27T14:03:36Z</time>
      </trkpt>
      <trkpt lat="42.9245970" lon="0.2013600">
        <ele>1287.4</ele>
        <time>2020-07-27T14:03:37Z</time>
      </trkpt>
      <trkpt lat="42.9246390" lon="0.2011580">
        <ele>1286.2</ele>
        <time>2020-07-27T14:03:38Z</time>
      </trkpt>
      <trkpt lat="42.9246790" lon="0.2009460">
        <ele>1284.8</ele>
        <time>2020-07-27T14:03:39Z</time>
      </trkpt>
      <trkpt lat="42.9247090" lon="0.2007310">
        <ele>1283.8</ele>
        <time>2020-07-27T14:03:40Z</time>
      </trkpt>
      <trkpt lat="42.9247240" lon="0.2005030">
        <ele>1282.4</ele>
        <time>2020-07-27T14:03:41Z</time>
      </trkpt>
      <trkpt lat="42.9247360" lon="0.2002770">
        <ele>1280.6</ele>
        <time>2020-07-27T14:03:42Z</time>
      </trkpt>
      <trkpt lat="42.9247450" lon="0.2000550">
        <ele>1279.2</ele>
        <time>2020-07-27T14:03:43Z</time>
      </trkpt>
      <trkpt lat="42.9247580" lon="0.1998350">
        <ele>1277.8</ele>
        <time>2020-07-27T14:03:44Z</time>
      </trkpt>
      <trkpt lat="42.9247650" lon="0.1996010">
        <ele>1276.4</ele>
        <time>2020-07-27T14:03:45Z</time>
      </trkpt>
      <trkpt lat="42.9247700" lon="0.1993710">
        <ele>1274.8</ele>
        <time>2020-07-27T14:03:46Z</time>
      </trkpt>
      <trkpt lat="42.9247750" lon="0.1991480">
        <ele>1273.6</ele>
        <time>2020-07-27T14:03:47Z</time>
      </trkpt>
      <trkpt lat="42.9247690" lon="0.1989320">
        <ele>1272.6</ele>
        <time>2020-07-27T14:03:48Z</time>
      </trkpt>
      <trkpt lat="42.9247600" lon="0.1987270">
        <ele>1271.4</ele>
        <time>2020-07-27T14:03:49Z</time>
      </trkpt>
      <trkpt lat="42.9247520" lon="0.1985400">
        <ele>1270.4</ele>
        <time>2020-07-27T14:03:50Z</time>
      </trkpt>
      <trkpt lat="42.9247400" lon="0.1983650">
        <ele>1269.0</ele>
        <time>2020-07-27T14:03:51Z</time>
      </trkpt>
      <trkpt lat="42.9247220" lon="0.1982040">
        <ele>1267.6</ele>
        <time>2020-07-27T14:03:52Z</time>
      </trkpt>
      <trkpt lat="42.9247170" lon="0.1980630">
        <ele>1266.4</ele>
        <time>2020-07-27T14:03:53Z</time>
      </trkpt>
      <trkpt lat="42.9247260" lon="0.1979380">
        <ele>1265.0</ele>
        <time>2020-07-27T14:03:54Z</time>
      </trkpt>
      <trkpt lat="42.9247530" lon="0.1978220">
        <ele>1263.8</ele>
        <time>2020-07-27T14:03:55Z</time>
      </trkpt>
      <trkpt lat="42.9248050" lon="0.1977230">
        <ele>1262.8</ele>
        <time>2020-07-27T14:03:56Z</time>
      </trkpt>
      <trkpt lat="42.9248610" lon="0.1976410">
        <ele>1261.8</ele>
        <time>2020-07-27T14:03:57Z</time>
      </trkpt>
      <trkpt lat="42.9249400" lon="0.1976090">
        <ele>1260.8</ele>
        <time>2020-07-27T14:03:58Z</time>
      </trkpt>
      <trkpt lat="42.9250280" lon="0.1975950">
        <ele>1260.0</ele>
        <time>2020-07-27T14:03:59Z</time>
      </trkpt>
      <trkpt lat="42.9251150" lon="0.1975680">
        <ele>1258.8</ele>
        <time>2020-07-27T14:04:00Z</time>
      </trkpt>
      <trkpt lat="42.9253410" lon="0.1974740">
        <ele>1258.0</ele>
        <time>2020-07-27T14:04:02Z</time>
      </trkpt>
      <trkpt lat="42.9255490" lon="0.1973260">
        <ele>1257.6</ele>
        <time>2020-07-27T14:04:04Z</time>
      </trkpt>
      <trkpt lat="42.9256310" lon="0.1972340">
        <ele>1257.4</ele>
        <time>2020-07-27T14:04:05Z</time>
      </trkpt>
      <trkpt lat="42.9257170" lon="0.1971480">
        <ele>1257.0</ele>
        <time>2020-07-27T14:04:06Z</time>
      </trkpt>
      <trkpt lat="42.9258160" lon="0.1971070">
        <ele>1256.2</ele>
        <time>2020-07-27T14:04:07Z</time>
      </trkpt>
      <trkpt lat="42.9259220" lon="0.1971230">
        <ele>1255.0</ele>
        <time>2020-07-27T14:04:08Z</time>
      </trkpt>
      <trkpt lat="42.9260220" lon="0.1971780">
        <ele>1253.6</ele>
        <time>2020-07-27T14:04:09Z</time>
      </trkpt>
      <trkpt lat="42.9261030" lon="0.1972740">
        <ele>1252.0</ele>
        <time>2020-07-27T14:04:10Z</time>
      </trkpt>
      <trkpt lat="42.9261700" lon="0.1973950">
        <ele>1250.2</ele>
        <time>2020-07-27T14:04:11Z</time>
      </trkpt>
      <trkpt lat="42.9262340" lon="0.1975340">
        <ele>1249.0</ele>
        <time>2020-07-27T14:04:12Z</time>
      </trkpt>
      <trkpt lat="42.9263000" lon="0.1976770">
        <ele>1248.2</ele>
        <time>2020-07-27T14:04:13Z</time>
      </trkpt>
      <trkpt lat="42.9263780" lon="0.1978160">
        <ele>1247.8</ele>
        <time>2020-07-27T14:04:14Z</time>
      </trkpt>
      <trkpt lat="42.9265720" lon="0.1980700">
        <ele>1246.6</ele>
        <time>2020-07-27T14:04:16Z</time>
      </trkpt>
      <trkpt lat="42.9267760" lon="0.1982900">
        <ele>1245.0</ele>
        <time>2020-07-27T14:04:18Z</time>
      </trkpt>
      <trkpt lat="42.9269710" lon="0.1985440">
        <ele>1243.0</ele>
        <time>2020-07-27T14:04:20Z</time>
      </trkpt>
      <trkpt lat="42.9270410" lon="0.1987060">
        <ele>1241.0</ele>
        <time>2020-07-27T14:04:21Z</time>
      </trkpt>
      <trkpt lat="42.9270930" lon="0.1988770">
        <ele>1238.6</ele>
        <time>2020-07-27T14:04:22Z</time>
      </trkpt>
      <trkpt lat="42.9271520" lon="0.1990430">
        <ele>1236.8</ele>
        <time>2020-07-27T14:04:23Z</time>
      </trkpt>
      <trkpt lat="42.9272320" lon="0.1991970">
        <ele>1235.6</ele>
        <time>2020-07-27T14:04:24Z</time>
      </trkpt>
      <trkpt lat="42.9273220" lon="0.1993380">
        <ele>1234.4</ele>
        <time>2020-07-27T14:04:25Z</time>
      </trkpt>
      <trkpt lat="42.9274210" lon="0.1994740">
        <ele>1233.4</ele>
        <time>2020-07-27T14:04:26Z</time>
      </trkpt>
      <trkpt lat="42.9275240" lon="0.1996080">
        <ele>1232.2</ele>
        <time>2020-07-27T14:04:27Z</time>
      </trkpt>
      <trkpt lat="42.9276310" lon="0.1997430">
        <ele>1231.0</ele>
        <time>2020-07-27T14:04:28Z</time>
      </trkpt>
      <trkpt lat="42.9277400" lon="0.1998750">
        <ele>1229.4</ele>
        <time>2020-07-27T14:04:29Z</time>
      </trkpt>
      <trkpt lat="42.9278530" lon="0.2000090">
        <ele>1228.0</ele>
        <time>2020-07-27T14:04:30Z</time>
      </trkpt>
      <trkpt lat="42.9279640" lon="0.2001460">
        <ele>1226.2</ele>
        <time>2020-07-27T14:04:31Z</time>
      </trkpt>
      <trkpt lat="42.9280720" lon="0.2002860">
        <ele>1224.8</ele>
        <time>2020-07-27T14:04:32Z</time>
      </trkpt>
      <trkpt lat="42.9281810" lon="0.2004360">
        <ele>1223.6</ele>
        <time>2020-07-27T14:04:33Z</time>
      </trkpt>
      <trkpt lat="42.9283910" lon="0.2007550">
        <ele>1221.4</ele>
        <time>2020-07-27T14:04:35Z</time>
      </trkpt>
      <trkpt lat="42.9284980" lon="0.2009210">
        <ele>1220.0</ele>
        <time>2020-07-27T14:04:36Z</time>
      </trkpt>
      <trkpt lat="42.9286050" lon="0.2010790">
        <ele>1218.4</ele>
        <time>2020-07-27T14:04:37Z</time>
      </trkpt>
      <trkpt lat="42.9287200" lon="0.2012310">
        <ele>1216.6</ele>
        <time>2020-07-27T14:04:38Z</time>
      </trkpt>
      <trkpt lat="42.9288410" lon="0.2013760">
        <ele>1215.2</ele>
        <time>2020-07-27T14:04:39Z</time>
      </trkpt>
      <trkpt lat="42.9289690" lon="0.2015040">
        <ele>1213.8</ele>
        <time>2020-07-27T14:04:40Z</time>
      </trkpt>
      <trkpt lat="42.9291000" lon="0.2016150">
        <ele>1212.6</ele>
        <time>2020-07-27T14:04:41Z</time>
      </trkpt>
      <trkpt lat="42.9293760" lon="0.2018090">
        <ele>1210.6</ele>
        <time>2020-07-27T14:04:43Z</time>
      </trkpt>
      <trkpt lat="42.9295160" lon="0.2019090">
        <ele>1209.0</ele>
        <time>2020-07-27T14:04:44Z</time>
      </trkpt>
      <trkpt lat="42.9296520" lon="0.2020100">
        <ele>1207.6</ele>
        <time>2020-07-27T14:04:45Z</time>
      </trkpt>
      <trkpt lat="42.9297860" lon="0.2021120">
        <ele>1206.2</ele>
        <time>2020-07-27T14:04:46Z</time>
      </trkpt>
      <trkpt lat="42.9299190" lon="0.2022170">
        <ele>1204.8</ele>
        <time>2020-07-27T14:04:47Z</time>
      </trkpt>
      <trkpt lat="42.9300490" lon="0.2023280">
        <ele>1203.2</ele>
        <time>2020-07-27T14:04:48Z</time>
      </trkpt>
      <trkpt lat="42.9301750" lon="0.2024550">
        <ele>1201.6</ele>
        <time>2020-07-27T14:04:49Z</time>
      </trkpt>
      <trkpt lat="42.9302930" lon="0.2025990">
        <ele>1200.2</ele>
        <time>2020-07-27T14:04:50Z</time>
      </trkpt>
      <trkpt lat="42.9304060" lon="0.2027590">
        <ele>1199.0</ele>
        <time>2020-07-27T14:04:51Z</time>
      </trkpt>
      <trkpt lat="42.9305100" lon="0.2029250">
        <ele>1197.4</ele>
        <time>2020-07-27T14:04:52Z</time>
      </trkpt>
      <trkpt lat="42.9306090" lon="0.2031050">
        <ele>1195.4</ele>
        <time>2020-07-27T14:04:53Z</time>
      </trkpt>
      <trkpt lat="42.9307080" lon="0.2032810">
        <ele>1193.4</ele>
        <time>2020-07-27T14:04:54Z</time>
      </trkpt>
      <trkpt lat="42.9308110" lon="0.2034560">
        <ele>1192.4</ele>
        <time>2020-07-27T14:04:55Z</time>
      </trkpt>
      <trkpt lat="42.9309210" lon="0.2036190">
        <ele>1191.2</ele>
        <time>2020-07-27T14:04:56Z</time>
      </trkpt>
      <trkpt lat="42.9310400" lon="0.2037700">
        <ele>1190.4</ele>
        <time>2020-07-27T14:04:57Z</time>
      </trkpt>
      <trkpt lat="42.9311650" lon="0.2039040">
        <ele>1189.2</ele>
        <time>2020-07-27T14:04:58Z</time>
      </trkpt>
      <trkpt lat="42.9312990" lon="0.2040190">
        <ele>1187.8</ele>
        <time>2020-07-27T14:04:59Z</time>
      </trkpt>
      <trkpt lat="42.9314400" lon="0.2041210">
        <ele>1186.6</ele>
        <time>2020-07-27T14:05:00Z</time>
      </trkpt>
      <trkpt lat="42.9315820" lon="0.2042160">
        <ele>1185.2</ele>
        <time>2020-07-27T14:05:01Z</time>
      </trkpt>
      <trkpt lat="42.9317240" lon="0.2043110">
        <ele>1183.8</ele>
        <time>2020-07-27T14:05:02Z</time>
      </trkpt>
      <trkpt lat="42.9318660" lon="0.2044040">
        <ele>1182.6</ele>
        <time>2020-07-27T14:05:03Z</time>
      </trkpt>
      <trkpt lat="42.9320080" lon="0.2044980">
        <ele>1181.0</ele>
        <time>2020-07-27T14:05:04Z</time>
      </trkpt>
      <trkpt lat="42.9321510" lon="0.2045900">
        <ele>1179.6</ele>
        <time>2020-07-27T14:05:05Z</time>
      </trkpt>
      <trkpt lat="42.9322940" lon="0.2046780">
        <ele>1178.0</ele>
        <time>2020-07-27T14:05:06Z</time>
      </trkpt>
      <trkpt lat="42.9324350" lon="0.2047740">
        <ele>1176.4</ele>
        <time>2020-07-27T14:05:07Z</time>
      </trkpt>
      <trkpt lat="42.9325740" lon="0.2048830">
        <ele>1174.6</ele>
        <time>2020-07-27T14:05:08Z</time>
      </trkpt>
      <trkpt lat="42.9327100" lon="0.2050020">
        <ele>1172.8</ele>
        <time>2020-07-27T14:05:09Z</time>
      </trkpt>
      <trkpt lat="42.9328410" lon="0.2051270">
        <ele>1171.6</ele>
        <time>2020-07-27T14:05:10Z</time>
      </trkpt>
      <trkpt lat="42.9329720" lon="0.2052570">
        <ele>1170.6</ele>
        <time>2020-07-27T14:05:11Z</time>
      </trkpt>
      <trkpt lat="42.9330990" lon="0.2053910">
        <ele>1169.4</ele>
        <time>2020-07-27T14:05:12Z</time>
      </trkpt>
      <trkpt lat="42.9332280" lon="0.2055300">
        <ele>1168.0</ele>
        <time>2020-07-27T14:05:13Z</time>
      </trkpt>
      <trkpt lat="42.9333560" lon="0.2056600">
        <ele>1166.6</ele>
        <time>2020-07-27T14:05:14Z</time>
      </trkpt>
      <trkpt lat="42.9334840" lon="0.2057880">
        <ele>1165.2</ele>
        <time>2020-07-27T14:05:15Z</time>
      </trkpt>
      <trkpt lat="42.9336130" lon="0.2059170">
        <ele>1163.6</ele>
        <time>2020-07-27T14:05:16Z</time>
      </trkpt>
      <trkpt lat="42.9337380" lon="0.2060590">
        <ele>1162.2</ele>
        <time>2020-07-27T14:05:17Z</time>
      </trkpt>
      <trkpt lat="42.9338580" lon="0.2062170">
        <ele>1160.8</ele>
        <time>2020-07-27T14:05:18Z</time>
      </trkpt>
      <trkpt lat="42.9339670" lon="0.2063910">
        <ele>1159.4</ele>
        <time>2020-07-27T14:05:19Z</time>
      </trkpt>
      <trkpt lat="42.9340620" lon="0.2065720">
        <ele>1158.0</ele>
        <time>2020-07-27T14:05:20Z</time>
      </trkpt>
      <trkpt lat="42.9341490" lon="0.2067460">
        <ele>1155.6</ele>
        <time>2020-07-27T14:05:21Z</time>
      </trkpt>
      <trkpt lat="42.9342440" lon="0.2069090">
        <ele>1154.6</ele>
        <time>2020-07-27T14:05:22Z</time>
      </trkpt>
      <trkpt lat="42.9343510" lon="0.2070590">
        <ele>1153.4</ele>
        <time>2020-07-27T14:05:23Z</time>
      </trkpt>
      <trkpt lat="42.9344660" lon="0.2071930">
        <ele>1152.2</ele>
        <time>2020-07-27T14:05:24Z</time>
      </trkpt>
      <trkpt lat="42.9345820" lon="0.2073200">
        <ele>1150.8</ele>
        <time>2020-07-27T14:05:25Z</time>
      </trkpt>
      <trkpt lat="42.9346970" lon="0.2074520">
        <ele>1149.2</ele>
        <time>2020-07-27T14:05:26Z</time>
      </trkpt>
      <trkpt lat="42.9348000" lon="0.2075890">
        <ele>1147.6</ele>
        <time>2020-07-27T14:05:27Z</time>
      </trkpt>
      <trkpt lat="42.9348870" lon="0.2077340">
        <ele>1146.4</ele>
        <time>2020-07-27T14:05:28Z</time>
      </trkpt>
      <trkpt lat="42.9349540" lon="0.2078870">
        <ele>1145.0</ele>
        <time>2020-07-27T14:05:29Z</time>
      </trkpt>
      <trkpt lat="42.9350190" lon="0.2080390">
        <ele>1143.8</ele>
        <time>2020-07-27T14:05:30Z</time>
      </trkpt>
      <trkpt lat="42.9350900" lon="0.2081770">
        <ele>1142.4</ele>
        <time>2020-07-27T14:05:31Z</time>
      </trkpt>
      <trkpt lat="42.9351770" lon="0.2082920">
        <ele>1141.0</ele>
        <time>2020-07-27T14:05:32Z</time>
      </trkpt>
      <trkpt lat="42.9352850" lon="0.2083760">
        <ele>1139.6</ele>
        <time>2020-07-27T14:05:33Z</time>
      </trkpt>
      <trkpt lat="42.9355350" lon="0.2084980">
        <ele>1138.6</ele>
        <time>2020-07-27T14:05:35Z</time>
      </trkpt>
      <trkpt lat="42.9356600" lon="0.2085640">
        <ele>1138.4</ele>
        <time>2020-07-27T14:05:36Z</time>
      </trkpt>
      <trkpt lat="42.9358610" lon="0.2087570">
        <ele>1136.8</ele>
        <time>2020-07-27T14:05:38Z</time>
      </trkpt>
      <trkpt lat="42.9359460" lon="0.2088480">
        <ele>1135.6</ele>
        <time>2020-07-27T14:05:39Z</time>
      </trkpt>
      <trkpt lat="42.9361190" lon="0.2088930">
        <ele>1134.0</ele>
        <time>2020-07-27T14:05:41Z</time>
      </trkpt>
      <trkpt lat="42.9362790" lon="0.2087820">
        <ele>1132.4</ele>
        <time>2020-07-27T14:05:43Z</time>
      </trkpt>
      <trkpt lat="42.9363470" lon="0.2087240">
        <ele>1131.2</ele>
        <time>2020-07-27T14:05:44Z</time>
      </trkpt>
      <trkpt lat="42.9364150" lon="0.2087090">
        <ele>1130.4</ele>
        <time>2020-07-27T14:05:45Z</time>
      </trkpt>
      <trkpt lat="42.9365200" lon="0.2088120">
        <ele>1129.4</ele>
        <time>2020-07-27T14:05:47Z</time>
      </trkpt>
      <trkpt lat="42.9365500" lon="0.2089120">
        <ele>1129.0</ele>
        <time>2020-07-27T14:05:48Z</time>
      </trkpt>
      <trkpt lat="42.9365850" lon="0.2091370">
        <ele>1128.2</ele>
        <time>2020-07-27T14:05:50Z</time>
      </trkpt>
      <trkpt lat="42.9366270" lon="0.2092410">
        <ele>1127.8</ele>
        <time>2020-07-27T14:05:51Z</time>
      </trkpt>
      <trkpt lat="42.9366910" lon="0.2093230">
        <ele>1127.6</ele>
        <time>2020-07-27T14:05:52Z</time>
      </trkpt>
      <trkpt lat="42.9369650" lon="0.2095350">
        <ele>1126.4</ele>
        <time>2020-07-27T14:05:55Z</time>
      </trkpt>
      <trkpt lat="42.9371810" lon="0.2097050">
        <ele>1125.2</ele>
        <time>2020-07-27T14:05:57Z</time>
      </trkpt>
      <trkpt lat="42.9372830" lon="0.2098150">
        <ele>1124.6</ele>
        <time>2020-07-27T14:05:58Z</time>
      </trkpt>
      <trkpt lat="42.9373740" lon="0.2099470">
        <ele>1124.2</ele>
        <time>2020-07-27T14:05:59Z</time>
      </trkpt>
      <trkpt lat="42.9375390" lon="0.2102250">
        <ele>1122.4</ele>
        <time>2020-07-27T14:06:01Z</time>
      </trkpt>
      <trkpt lat="42.9377280" lon="0.2104740">
        <ele>1120.0</ele>
        <time>2020-07-27T14:06:03Z</time>
      </trkpt>
      <trkpt lat="42.9378260" lon="0.2105960">
        <ele>1118.6</ele>
        <time>2020-07-27T14:06:04Z</time>
      </trkpt>
      <trkpt lat="42.9379240" lon="0.2107240">
        <ele>1117.2</ele>
        <time>2020-07-27T14:06:05Z</time>
      </trkpt>
      <trkpt lat="42.9380260" lon="0.2108470">
        <ele>1115.6</ele>
        <time>2020-07-27T14:06:06Z</time>
      </trkpt>
      <trkpt lat="42.9381320" lon="0.2109740">
        <ele>1114.0</ele>
        <time>2020-07-27T14:06:07Z</time>
      </trkpt>
      <trkpt lat="42.9382320" lon="0.2111040">
        <ele>1112.4</ele>
        <time>2020-07-27T14:06:08Z</time>
      </trkpt>
      <trkpt lat="42.9383320" lon="0.2112380">
        <ele>1110.8</ele>
        <time>2020-07-27T14:06:09Z</time>
      </trkpt>
      <trkpt lat="42.9384290" lon="0.2113820">
        <ele>1109.6</ele>
        <time>2020-07-27T14:06:10Z</time>
      </trkpt>
      <trkpt lat="42.9385250" lon="0.2115240">
        <ele>1108.6</ele>
        <time>2020-07-27T14:06:11Z</time>
      </trkpt>
      <trkpt lat="42.9386210" lon="0.2116700">
        <ele>1107.6</ele>
        <time>2020-07-27T14:06:12Z</time>
      </trkpt>
      <trkpt lat="42.9387130" lon="0.2118240">
        <ele>1106.6</ele>
        <time>2020-07-27T14:06:13Z</time>
      </trkpt>
      <trkpt lat="42.9387360" lon="0.2120980">
        <ele>1105.4</ele>
        <time>2020-07-27T14:06:14Z</time>
      </trkpt>
      <trkpt lat="42.9388350" lon="0.2122950">
        <ele>1103.2</ele>
        <time>2020-07-27T14:06:15Z</time>
      </trkpt>
      <trkpt lat="42.9389400" lon="0.2124840">
        <ele>1101.8</ele>
        <time>2020-07-27T14:06:16Z</time>
      </trkpt>
      <trkpt lat="42.9390430" lon="0.2126630">
        <ele>1100.2</ele>
        <time>2020-07-27T14:06:17Z</time>
      </trkpt>
      <trkpt lat="42.9391500" lon="0.2128300">
        <ele>1098.8</ele>
        <time>2020-07-27T14:06:18Z</time>
      </trkpt>
      <trkpt lat="42.9393680" lon="0.2131330">
        <ele>1096.8</ele>
        <time>2020-07-27T14:06:20Z</time>
      </trkpt>
      <trkpt lat="42.9394850" lon="0.2132720">
        <ele>1095.2</ele>
        <time>2020-07-27T14:06:21Z</time>
      </trkpt>
      <trkpt lat="42.9396140" lon="0.2133960">
        <ele>1093.8</ele>
        <time>2020-07-27T14:06:22Z</time>
      </trkpt>
      <trkpt lat="42.9397580" lon="0.2134850">
        <ele>1092.2</ele>
        <time>2020-07-27T14:06:23Z</time>
      </trkpt>
      <trkpt lat="42.9399080" lon="0.2135570">
        <ele>1090.6</ele>
        <time>2020-07-27T14:06:24Z</time>
      </trkpt>
      <trkpt lat="42.9400530" lon="0.2136450">
        <ele>1089.2</ele>
        <time>2020-07-27T14:06:25Z</time>
      </trkpt>
      <trkpt lat="42.9401910" lon="0.2137620">
        <ele>1087.6</ele>
        <time>2020-07-27T14:06:26Z</time>
      </trkpt>
      <trkpt lat="42.9403090" lon="0.2138870">
        <ele>1086.0</ele>
        <time>2020-07-27T14:06:27Z</time>
      </trkpt>
      <trkpt lat="42.9404300" lon="0.2140240">
        <ele>1084.8</ele>
        <time>2020-07-27T14:06:28Z</time>
      </trkpt>
      <trkpt lat="42.9405510" lon="0.2141750">
        <ele>1083.6</ele>
        <time>2020-07-27T14:06:29Z</time>
      </trkpt>
      <trkpt lat="42.9406660" lon="0.2143090">
        <ele>1082.6</ele>
        <time>2020-07-27T14:06:30Z</time>
      </trkpt>
      <trkpt lat="42.9407920" lon="0.2144580">
        <ele>1081.4</ele>
        <time>2020-07-27T14:06:31Z</time>
      </trkpt>
      <trkpt lat="42.9409140" lon="0.2146010">
        <ele>1080.6</ele>
        <time>2020-07-27T14:06:32Z</time>
      </trkpt>
      <trkpt lat="42.9410370" lon="0.2147430">
        <ele>1079.6</ele>
        <time>2020-07-27T14:06:33Z</time>
      </trkpt>
      <trkpt lat="42.9411580" lon="0.2148890">
        <ele>1078.2</ele>
        <time>2020-07-27T14:06:34Z</time>
      </trkpt>
      <trkpt lat="42.9413830" lon="0.2152170">
        <ele>1076.4</ele>
        <time>2020-07-27T14:06:36Z</time>
      </trkpt>
      <trkpt lat="42.9414830" lon="0.2154060">
        <ele>1075.2</ele>
        <time>2020-07-27T14:06:37Z</time>
      </trkpt>
      <trkpt lat="42.9415660" lon="0.2156100">
        <ele>1074.0</ele>
        <time>2020-07-27T14:06:38Z</time>
      </trkpt>
      <trkpt lat="42.9416280" lon="0.2158040">
        <ele>1072.8</ele>
        <time>2020-07-27T14:06:39Z</time>
      </trkpt>
      <trkpt lat="42.9416800" lon="0.2159840">
        <ele>1071.6</ele>
        <time>2020-07-27T14:06:40Z</time>
      </trkpt>
      <trkpt lat="42.9417350" lon="0.2161410">
        <ele>1070.2</ele>
        <time>2020-07-27T14:06:41Z</time>
      </trkpt>
      <trkpt lat="42.9417940" lon="0.2162880">
        <ele>1069.0</ele>
        <time>2020-07-27T14:06:42Z</time>
      </trkpt>
      <trkpt lat="42.9418700" lon="0.2164130">
        <ele>1066.2</ele>
        <time>2020-07-27T14:06:43Z</time>
      </trkpt>
      <trkpt lat="42.9419660" lon="0.2165220">
        <ele>1064.6</ele>
        <time>2020-07-27T14:06:44Z</time>
      </trkpt>
      <trkpt lat="42.9420680" lon="0.2166170">
        <ele>1063.0</ele>
        <time>2020-07-27T14:06:45Z</time>
      </trkpt>
      <trkpt lat="42.9421650" lon="0.2167280">
        <ele>1061.6</ele>
        <time>2020-07-27T14:06:46Z</time>
      </trkpt>
      <trkpt lat="42.9423280" lon="0.2170180">
        <ele>1060.4</ele>
        <time>2020-07-27T14:06:48Z</time>
      </trkpt>
      <trkpt lat="42.9424110" lon="0.2171680">
        <ele>1060.2</ele>
        <time>2020-07-27T14:06:49Z</time>
      </trkpt>
      <trkpt lat="42.9425950" lon="0.2174690">
        <ele>1059.4</ele>
        <time>2020-07-27T14:06:51Z</time>
      </trkpt>
      <trkpt lat="42.9427040" lon="0.2176140">
        <ele>1058.2</ele>
        <time>2020-07-27T14:06:52Z</time>
      </trkpt>
      <trkpt lat="42.9428160" lon="0.2177520">
        <ele>1057.0</ele>
        <time>2020-07-27T14:06:53Z</time>
      </trkpt>
      <trkpt lat="42.9429320" lon="0.2178860">
        <ele>1055.8</ele>
        <time>2020-07-27T14:06:54Z</time>
      </trkpt>
      <trkpt lat="42.9430450" lon="0.2180140">
        <ele>1054.4</ele>
        <time>2020-07-27T14:06:55Z</time>
      </trkpt>
      <trkpt lat="42.9431640" lon="0.2181570">
        <ele>1052.8</ele>
        <time>2020-07-27T14:06:56Z</time>
      </trkpt>
      <trkpt lat="42.9432740" lon="0.2183020">
        <ele>1051.4</ele>
        <time>2020-07-27T14:06:57Z</time>
      </trkpt>
      <trkpt lat="42.9433840" lon="0.2184530">
        <ele>1049.6</ele>
        <time>2020-07-27T14:06:58Z</time>
      </trkpt>
      <trkpt lat="42.9434910" lon="0.2186060">
        <ele>1047.8</ele>
        <time>2020-07-27T14:06:59Z</time>
      </trkpt>
      <trkpt lat="42.9435980" lon="0.2187490">
        <ele>1046.4</ele>
        <time>2020-07-27T14:07:00Z</time>
      </trkpt>
      <trkpt lat="42.9437060" lon="0.2188880">
        <ele>1045.4</ele>
        <time>2020-07-27T14:07:01Z</time>
      </trkpt>
      <trkpt lat="42.9438220" lon="0.2190340">
        <ele>1044.2</ele>
        <time>2020-07-27T14:07:02Z</time>
      </trkpt>
      <trkpt lat="42.9439400" lon="0.2191780">
        <ele>1042.6</ele>
        <time>2020-07-27T14:07:03Z</time>
      </trkpt>
      <trkpt lat="42.9440610" lon="0.2193200">
        <ele>1041.2</ele>
        <time>2020-07-27T14:07:04Z</time>
      </trkpt>
      <trkpt lat="42.9441830" lon="0.2194540">
        <ele>1039.8</ele>
        <time>2020-07-27T14:07:05Z</time>
      </trkpt>
      <trkpt lat="42.9443040" lon="0.2195810">
        <ele>1038.6</ele>
        <time>2020-07-27T14:07:06Z</time>
      </trkpt>
      <trkpt lat="42.9444300" lon="0.2197010">
        <ele>1037.2</ele>
        <time>2020-07-27T14:07:07Z</time>
      </trkpt>
      <trkpt lat="42.9445560" lon="0.2198140">
        <ele>1035.6</ele>
        <time>2020-07-27T14:07:08Z</time>
      </trkpt>
      <trkpt lat="42.9446870" lon="0.2199180">
        <ele>1034.4</ele>
        <time>2020-07-27T14:07:09Z</time>
      </trkpt>
      <trkpt lat="42.9448190" lon="0.2200170">
        <ele>1032.2</ele>
        <time>2020-07-27T14:07:10Z</time>
      </trkpt>
      <trkpt lat="42.9449490" lon="0.2201230">
        <ele>1030.2</ele>
        <time>2020-07-27T14:07:11Z</time>
      </trkpt>
      <trkpt lat="42.9450730" lon="0.2202380">
        <ele>1028.4</ele>
        <time>2020-07-27T14:07:12Z</time>
      </trkpt>
      <trkpt lat="42.9451910" lon="0.2203580">
        <ele>1027.0</ele>
        <time>2020-07-27T14:07:13Z</time>
      </trkpt>
      <trkpt lat="42.9452950" lon="0.2204960">
        <ele>1025.8</ele>
        <time>2020-07-27T14:07:14Z</time>
      </trkpt>
      <trkpt lat="42.9454790" lon="0.2207870">
        <ele>1024.4</ele>
        <time>2020-07-27T14:07:16Z</time>
      </trkpt>
      <trkpt lat="42.9455670" lon="0.2209340">
        <ele>1023.6</ele>
        <time>2020-07-27T14:07:17Z</time>
      </trkpt>
      <trkpt lat="42.9456520" lon="0.2210720">
        <ele>1022.4</ele>
        <time>2020-07-27T14:07:18Z</time>
      </trkpt>
      <trkpt lat="42.9457410" lon="0.2211980">
        <ele>1021.2</ele>
        <time>2020-07-27T14:07:19Z</time>
      </trkpt>
      <trkpt lat="42.9458420" lon="0.2213040">
        <ele>1020.2</ele>
        <time>2020-07-27T14:07:20Z</time>
      </trkpt>
      <trkpt lat="42.9459540" lon="0.2213830">
        <ele>1019.2</ele>
        <time>2020-07-27T14:07:21Z</time>
      </trkpt>
      <trkpt lat="42.9460750" lon="0.2214350">
        <ele>1017.8</ele>
        <time>2020-07-27T14:07:22Z</time>
      </trkpt>
      <trkpt lat="42.9461970" lon="0.2214660">
        <ele>1016.6</ele>
        <time>2020-07-27T14:07:23Z</time>
      </trkpt>
      <trkpt lat="42.9464300" lon="0.2215890">
        <ele>1015.2</ele>
        <time>2020-07-27T14:07:25Z</time>
      </trkpt>
      <trkpt lat="42.9465180" lon="0.2217030">
        <ele>1014.8</ele>
        <time>2020-07-27T14:07:26Z</time>
      </trkpt>
      <trkpt lat="42.9465890" lon="0.2218360">
        <ele>1014.2</ele>
        <time>2020-07-27T14:07:27Z</time>
      </trkpt>
      <trkpt lat="42.9466460" lon="0.2219880">
        <ele>1013.2</ele>
        <time>2020-07-27T14:07:28Z</time>
      </trkpt>
      <trkpt lat="42.9466880" lon="0.2221540">
        <ele>1012.4</ele>
        <time>2020-07-27T14:07:29Z</time>
      </trkpt>
      <trkpt lat="42.9467260" lon="0.2223220">
        <ele>1011.4</ele>
        <time>2020-07-27T14:07:30Z</time>
      </trkpt>
      <trkpt lat="42.9467640" lon="0.2224960">
        <ele>1010.4</ele>
        <time>2020-07-27T14:07:31Z</time>
      </trkpt>
      <trkpt lat="42.9468040" lon="0.2226770">
        <ele>1009.8</ele>
        <time>2020-07-27T14:07:32Z</time>
      </trkpt>
      <trkpt lat="42.9468550" lon="0.2228540">
        <ele>1008.8</ele>
        <time>2020-07-27T14:07:33Z</time>
      </trkpt>
      <trkpt lat="42.9469190" lon="0.2230230">
        <ele>1007.4</ele>
        <time>2020-07-27T14:07:34Z</time>
      </trkpt>
      <trkpt lat="42.9469890" lon="0.2231800">
        <ele>1006.0</ele>
        <time>2020-07-27T14:07:35Z</time>
      </trkpt>
      <trkpt lat="42.9470650" lon="0.2233280">
        <ele>1004.8</ele>
        <time>2020-07-27T14:07:36Z</time>
      </trkpt>
      <trkpt lat="42.9471470" lon="0.2234610">
        <ele>1003.2</ele>
        <time>2020-07-27T14:07:37Z</time>
      </trkpt>
      <trkpt lat="42.9472340" lon="0.2235820">
        <ele>999.6</ele>
        <time>2020-07-27T14:07:38Z</time>
      </trkpt>
      <trkpt lat="42.9473260" lon="0.2236960">
        <ele>998.0</ele>
        <time>2020-07-27T14:07:39Z</time>
      </trkpt>
      <trkpt lat="42.9474250" lon="0.2238030">
        <ele>996.6</ele>
        <time>2020-07-27T14:07:40Z</time>
      </trkpt>
      <trkpt lat="42.9476400" lon="0.2240070">
        <ele>995.4</ele>
        <time>2020-07-27T14:07:42Z</time>
      </trkpt>
      <trkpt lat="42.9481050" lon="0.2243210">
        <ele>994.6</ele>
        <time>2020-07-27T14:07:46Z</time>
      </trkpt>
      <trkpt lat="42.9482170" lon="0.2243890">
        <ele>994.4</ele>
        <time>2020-07-27T14:07:47Z</time>
      </trkpt>
      <trkpt lat="42.9484400" lon="0.2244970">
        <ele>992.6</ele>
        <time>2020-07-27T14:07:49Z</time>
      </trkpt>
      <trkpt lat="42.9485540" lon="0.2245300">
        <ele>991.2</ele>
        <time>2020-07-27T14:07:50Z</time>
      </trkpt>
      <trkpt lat="42.9487920" lon="0.2246090">
        <ele>990.0</ele>
        <time>2020-07-27T14:07:52Z</time>
      </trkpt>
      <trkpt lat="42.9489010" lon="0.2246880">
        <ele>990.0</ele>
        <time>2020-07-27T14:07:53Z</time>
      </trkpt>
      <trkpt lat="42.9490590" lon="0.2249380">
        <ele>989.6</ele>
        <time>2020-07-27T14:07:55Z</time>
      </trkpt>
      <trkpt lat="42.9492910" lon="0.2253190">
        <ele>989.0</ele>
        <time>2020-07-27T14:07:58Z</time>
      </trkpt>
      <trkpt lat="42.9496100" lon="0.2255750">
        <ele>987.4</ele>
        <time>2020-07-27T14:08:01Z</time>
      </trkpt>
      <trkpt lat="42.9497310" lon="0.2256230">
        <ele>986.2</ele>
        <time>2020-07-27T14:08:02Z</time>
      </trkpt>
      <trkpt lat="42.9499900" lon="0.2256930">
        <ele>984.4</ele>
        <time>2020-07-27T14:08:04Z</time>
      </trkpt>
      <trkpt lat="42.9501200" lon="0.2257430">
        <ele>983.4</ele>
        <time>2020-07-27T14:08:05Z</time>
      </trkpt>
      <trkpt lat="42.9502480" lon="0.2258040">
        <ele>982.8</ele>
        <time>2020-07-27T14:08:06Z</time>
      </trkpt>
      <trkpt lat="42.9503760" lon="0.2258710">
        <ele>982.4</ele>
        <time>2020-07-27T14:08:07Z</time>
      </trkpt>
      <trkpt lat="42.9505070" lon="0.2259410">
        <ele>981.4</ele>
        <time>2020-07-27T14:08:08Z</time>
      </trkpt>
      <trkpt lat="42.9506340" lon="0.2260090">
        <ele>980.0</ele>
        <time>2020-07-27T14:08:09Z</time>
      </trkpt>
      <trkpt lat="42.9507590" lon="0.2260740">
        <ele>979.0</ele>
        <time>2020-07-27T14:08:10Z</time>
      </trkpt>
      <trkpt lat="42.9508820" lon="0.2261370">
        <ele>977.4</ele>
        <time>2020-07-27T14:08:11Z</time>
      </trkpt>
      <trkpt lat="42.9510050" lon="0.2261990">
        <ele>975.8</ele>
        <time>2020-07-27T14:08:12Z</time>
      </trkpt>
      <trkpt lat="42.9511270" lon="0.2262650">
        <ele>974.4</ele>
        <time>2020-07-27T14:08:13Z</time>
      </trkpt>
      <trkpt lat="42.9512460" lon="0.2263470">
        <ele>973.0</ele>
        <time>2020-07-27T14:08:14Z</time>
      </trkpt>
      <trkpt lat="42.9513590" lon="0.2264300">
        <ele>971.6</ele>
        <time>2020-07-27T14:08:15Z</time>
      </trkpt>
      <trkpt lat="42.9514660" lon="0.2265160">
        <ele>970.4</ele>
        <time>2020-07-27T14:08:16Z</time>
      </trkpt>
      <trkpt lat="42.9516820" lon="0.2266750">
        <ele>968.8</ele>
        <time>2020-07-27T14:08:18Z</time>
      </trkpt>
      <trkpt lat="42.9518870" lon="0.2268200">
        <ele>967.6</ele>
        <time>2020-07-27T14:08:20Z</time>
      </trkpt>
      <trkpt lat="42.9519850" lon="0.2269040">
        <ele>967.0</ele>
        <time>2020-07-27T14:08:21Z</time>
      </trkpt>
      <trkpt lat="42.9520840" lon="0.2269880">
        <ele>966.6</ele>
        <time>2020-07-27T14:08:22Z</time>
      </trkpt>
      <trkpt lat="42.9524630" lon="0.2272780">
        <ele>966.0</ele>
        <time>2020-07-27T14:08:26Z</time>
      </trkpt>
      <trkpt lat="42.9528490" lon="0.2274910">
        <ele>965.6</ele>
        <time>2020-07-27T14:08:30Z</time>
      </trkpt>
      <trkpt lat="42.9530470" lon="0.2275890">
        <ele>965.6</ele>
        <time>2020-07-27T14:08:32Z</time>
      </trkpt>
      <trkpt lat="42.9532450" lon="0.2276990">
        <ele>964.8</ele>
        <time>2020-07-27T14:08:34Z</time>
      </trkpt>
      <trkpt lat="42.9534380" lon="0.2277920">
        <ele>963.2</ele>
        <time>2020-07-27T14:08:36Z</time>
      </trkpt>
      <trkpt lat="42.9537400" lon="0.2279390">
        <ele>962.4</ele>
        <time>2020-07-27T14:08:39Z</time>
      </trkpt>
      <trkpt lat="42.9540690" lon="0.2280340">
        <ele>961.2</ele>
        <time>2020-07-27T14:08:42Z</time>
      </trkpt>
      <trkpt lat="42.9541840" lon="0.2280470">
        <ele>961.0</ele>
        <time>2020-07-27T14:08:43Z</time>
      </trkpt>
      <trkpt lat="42.9546360" lon="0.2280570">
        <ele>960.0</ele>
        <time>2020-07-27T14:08:47Z</time>
      </trkpt>
      <trkpt lat="42.9549660" lon="0.2280600">
        <ele>958.0</ele>
        <time>2020-07-27T14:08:50Z</time>
      </trkpt>
      <trkpt lat="42.9550760" lon="0.2280640">
        <ele>956.4</ele>
        <time>2020-07-27T14:08:51Z</time>
      </trkpt>
      <trkpt lat="42.9551850" lon="0.2280600">
        <ele>955.6</ele>
        <time>2020-07-27T14:08:52Z</time>
      </trkpt>
      <trkpt lat="42.9552940" lon="0.2280520">
        <ele>954.4</ele>
        <time>2020-07-27T14:08:53Z</time>
      </trkpt>
      <trkpt lat="42.9554990" lon="0.2280260">
        <ele>953.6</ele>
        <time>2020-07-27T14:08:55Z</time>
      </trkpt>
      <trkpt lat="42.9556020" lon="0.2280130">
        <ele>953.4</ele>
        <time>2020-07-27T14:08:56Z</time>
      </trkpt>
      <trkpt lat="42.9560460" lon="0.2280000">
        <ele>952.8</ele>
        <time>2020-07-27T14:09:00Z</time>
      </trkpt>
      <trkpt lat="42.9561630" lon="0.2280220">
        <ele>952.8</ele>
        <time>2020-07-27T14:09:01Z</time>
      </trkpt>
      <trkpt lat="42.9565070" lon="0.2281290">
        <ele>952.4</ele>
        <time>2020-07-27T14:09:04Z</time>
      </trkpt>
      <trkpt lat="42.9566190" lon="0.2281790">
        <ele>952.2</ele>
        <time>2020-07-27T14:09:05Z</time>
      </trkpt>
      <trkpt lat="42.9568500" lon="0.2282750">
        <ele>950.4</ele>
        <time>2020-07-27T14:09:07Z</time>
      </trkpt>
      <trkpt lat="42.9569660" lon="0.2283250">
        <ele>949.0</ele>
        <time>2020-07-27T14:09:08Z</time>
      </trkpt>
      <trkpt lat="42.9571990" lon="0.2284270">
        <ele>947.8</ele>
        <time>2020-07-27T14:09:10Z</time>
      </trkpt>
      <trkpt lat="42.9573220" lon="0.2284710">
        <ele>947.4</ele>
        <time>2020-07-27T14:09:11Z</time>
      </trkpt>
      <trkpt lat="42.9576660" lon="0.2286570">
        <ele>946.6</ele>
        <time>2020-07-27T14:09:14Z</time>
      </trkpt>
      <trkpt lat="42.9577780" lon="0.2287070">
        <ele>945.6</ele>
        <time>2020-07-27T14:09:15Z</time>
      </trkpt>
      <trkpt lat="42.9578920" lon="0.2287380">
        <ele>944.6</ele>
        <time>2020-07-27T14:09:16Z</time>
      </trkpt>
      <trkpt lat="42.9580080" lon="0.2287570">
        <ele>943.2</ele>
        <time>2020-07-27T14:09:17Z</time>
      </trkpt>
      <trkpt lat="42.9581250" lon="0.2287670">
        <ele>941.8</ele>
        <time>2020-07-27T14:09:18Z</time>
      </trkpt>
      <trkpt lat="42.9582390" lon="0.2287770">
        <ele>941.0</ele>
        <time>2020-07-27T14:09:19Z</time>
      </trkpt>
      <trkpt lat="42.9583520" lon="0.2287890">
        <ele>940.4</ele>
        <time>2020-07-27T14:09:20Z</time>
      </trkpt>
      <trkpt lat="42.9585670" lon="0.2288410">
        <ele>939.0</ele>
        <time>2020-07-27T14:09:22Z</time>
      </trkpt>
      <trkpt lat="42.9587710" lon="0.2289490">
        <ele>937.8</ele>
        <time>2020-07-27T14:09:24Z</time>
      </trkpt>
      <trkpt lat="42.9592310" lon="0.2293040">
        <ele>936.8</ele>
        <time>2020-07-27T14:09:29Z</time>
      </trkpt>
      <trkpt lat="42.9593130" lon="0.2293830">
        <ele>936.6</ele>
        <time>2020-07-27T14:09:30Z</time>
      </trkpt>
      <trkpt lat="42.9598220" lon="0.2298440">
        <ele>936.0</ele>
        <time>2020-07-27T14:09:36Z</time>
      </trkpt>
      <trkpt lat="42.9599060" lon="0.2299170">
        <ele>935.8</ele>
        <time>2020-07-27T14:09:37Z</time>
      </trkpt>
      <trkpt lat="42.9599910" lon="0.2299910">
        <ele>935.6</ele>
        <time>2020-07-27T14:09:38Z</time>
      </trkpt>
      <trkpt lat="42.9604370" lon="0.2302490">
        <ele>935.0</ele>
        <time>2020-07-27T14:09:43Z</time>
      </trkpt>
      <trkpt lat="42.9605330" lon="0.2302680">
        <ele>934.6</ele>
        <time>2020-07-27T14:09:44Z</time>
      </trkpt>
      <trkpt lat="42.9609250" lon="0.2303370">
        <ele>933.2</ele>
        <time>2020-07-27T14:09:48Z</time>
      </trkpt>
      <trkpt lat="42.9611200" lon="0.2303720">
        <ele>932.0</ele>
        <time>2020-07-27T14:09:50Z</time>
      </trkpt>
      <trkpt lat="42.9612210" lon="0.2303880">
        <ele>931.6</ele>
        <time>2020-07-27T14:09:51Z</time>
      </trkpt>
      <trkpt lat="42.9614210" lon="0.2304130">
        <ele>930.6</ele>
        <time>2020-07-27T14:09:53Z</time>
      </trkpt>
      <trkpt lat="42.9616160" lon="0.2304340">
        <ele>929.2</ele>
        <time>2020-07-27T14:09:55Z</time>
      </trkpt>
      <trkpt lat="42.9617160" lon="0.2304430">
        <ele>928.8</ele>
        <time>2020-07-27T14:09:56Z</time>
      </trkpt>
      <trkpt lat="42.9619280" lon="0.2304580">
        <ele>928.0</ele>
        <time>2020-07-27T14:09:58Z</time>
      </trkpt>
      <trkpt lat="42.9622680" lon="0.2305240">
        <ele>926.6</ele>
        <time>2020-07-27T14:10:01Z</time>
      </trkpt>
      <trkpt lat="42.9626140" lon="0.2305680">
        <ele>925.0</ele>
        <time>2020-07-27T14:10:04Z</time>
      </trkpt>
      <trkpt lat="42.9627290" lon="0.2305620">
        <ele>924.0</ele>
        <time>2020-07-27T14:10:05Z</time>
      </trkpt>
      <trkpt lat="42.9629570" lon="0.2305280">
        <ele>922.0</ele>
        <time>2020-07-27T14:10:07Z</time>
      </trkpt>
      <trkpt lat="42.9630680" lon="0.2305100">
        <ele>921.0</ele>
        <time>2020-07-27T14:10:08Z</time>
      </trkpt>
      <trkpt lat="42.9631840" lon="0.2304930">
        <ele>920.0</ele>
        <time>2020-07-27T14:10:09Z</time>
      </trkpt>
      <trkpt lat="42.9634130" lon="0.2304660">
        <ele>918.6</ele>
        <time>2020-07-27T14:10:11Z</time>
      </trkpt>
      <trkpt lat="42.9636350" lon="0.2304510">
        <ele>917.0</ele>
        <time>2020-07-27T14:10:13Z</time>
      </trkpt>
      <trkpt lat="42.9638410" lon="0.2304430">
        <ele>915.4</ele>
        <time>2020-07-27T14:10:15Z</time>
      </trkpt>
      <trkpt lat="42.9642210" lon="0.2304170">
        <ele>914.4</ele>
        <time>2020-07-27T14:10:19Z</time>
      </trkpt>
      <trkpt lat="42.9644850" lon="0.2304030">
        <ele>914.4</ele>
        <time>2020-07-27T14:10:22Z</time>
      </trkpt>
      <trkpt lat="42.9650430" lon="0.2304030">
        <ele>915.0</ele>
        <time>2020-07-27T14:10:29Z</time>
      </trkpt>
      <trkpt lat="42.9652830" lon="0.2304240">
        <ele>916.0</ele>
        <time>2020-07-27T14:10:32Z</time>
      </trkpt>
      <trkpt lat="42.9655940" lon="0.2304560">
        <ele>916.6</ele>
        <time>2020-07-27T14:10:36Z</time>
      </trkpt>
      <trkpt lat="42.9659670" lon="0.2305080">
        <ele>917.2</ele>
        <time>2020-07-27T14:10:41Z</time>
      </trkpt>
      <trkpt lat="42.9661030" lon="0.2305280">
        <ele>917.2</ele>
        <time>2020-07-27T14:10:43Z</time>
      </trkpt>
      <trkpt lat="42.9665860" lon="0.2304970">
        <ele>918.4</ele>
        <time>2020-07-27T14:10:50Z</time>
      </trkpt>
      <trkpt lat="42.9668690" lon="0.2304570">
        <ele>919.4</ele>
        <time>2020-07-27T14:10:55Z</time>
      </trkpt>
      <trkpt lat="42.9669270" lon="0.2304310">
        <ele>919.6</ele>
        <time>2020-07-27T14:10:56Z</time>
      </trkpt>
      <trkpt lat="42.9673320" lon="0.2303110">
        <ele>920.4</ele>
        <time>2020-07-27T14:11:03Z</time>
      </trkpt>
      <trkpt lat="42.9677330" lon="0.2303180">
        <ele>920.8</ele>
        <time>2020-07-27T14:11:10Z</time>
      </trkpt>
      <trkpt lat="42.9679160" lon="0.2303510">
        <ele>921.2</ele>
        <time>2020-07-27T14:11:13Z</time>
      </trkpt>
      <trkpt lat="42.9681240" lon="0.2303850">
        <ele>921.2</ele>
        <time>2020-07-27T14:11:16Z</time>
      </trkpt>
      <trkpt lat="42.9685990" lon="0.2305120">
        <ele>921.0</ele>
        <time>2020-07-27T14:11:22Z</time>
      </trkpt>
      <trkpt lat="42.9688500" lon="0.2306480">
        <ele>920.2</ele>
        <time>2020-07-27T14:11:25Z</time>
      </trkpt>
      <trkpt lat="42.9689320" lon="0.2307130">
        <ele>919.6</ele>
        <time>2020-07-27T14:11:26Z</time>
      </trkpt>
      <trkpt lat="42.9690970" lon="0.2308540">
        <ele>918.8</ele>
        <time>2020-07-27T14:11:28Z</time>
      </trkpt>
      <trkpt lat="42.9693890" lon="0.2310480">
        <ele>918.0</ele>
        <time>2020-07-27T14:11:31Z</time>
      </trkpt>
      <trkpt lat="42.9697190" lon="0.2311660">
        <ele>916.4</ele>
        <time>2020-07-27T14:11:34Z</time>
      </trkpt>
      <trkpt lat="42.9699580" lon="0.2312160">
        <ele>914.8</ele>
        <time>2020-07-27T14:11:36Z</time>
      </trkpt>
      <trkpt lat="42.9702060" lon="0.2312450">
        <ele>912.8</ele>
        <time>2020-07-27T14:11:38Z</time>
      </trkpt>
      <trkpt lat="42.9704360" lon="0.2312720">
        <ele>911.2</ele>
        <time>2020-07-27T14:11:40Z</time>
      </trkpt>
      <trkpt lat="42.9705520" lon="0.2312760">
        <ele>910.8</ele>
        <time>2020-07-27T14:11:41Z</time>
      </trkpt>
      <trkpt lat="42.9706630" lon="0.2312780">
        <ele>910.4</ele>
        <time>2020-07-27T14:11:42Z</time>
      </trkpt>
      <trkpt lat="42.9707700" lon="0.2312700">
        <ele>909.6</ele>
        <time>2020-07-27T14:11:43Z</time>
      </trkpt>
      <trkpt lat="42.9708740" lon="0.2312300">
        <ele>908.8</ele>
        <time>2020-07-27T14:11:44Z</time>
      </trkpt>
      <trkpt lat="42.9709790" lon="0.2311660">
        <ele>908.2</ele>
        <time>2020-07-27T14:11:45Z</time>
      </trkpt>
      <trkpt lat="42.9710810" lon="0.2310980">
        <ele>907.8</ele>
        <time>2020-07-27T14:11:46Z</time>
      </trkpt>
      <trkpt lat="42.9711880" lon="0.2310200">
        <ele>907.2</ele>
        <time>2020-07-27T14:11:47Z</time>
      </trkpt>
      <trkpt lat="42.9714070" lon="0.2308590">
        <ele>906.0</ele>
        <time>2020-07-27T14:11:49Z</time>
      </trkpt>
      <trkpt lat="42.9717370" lon="0.2305980">
        <ele>904.8</ele>
        <time>2020-07-27T14:11:52Z</time>
      </trkpt>
      <trkpt lat="42.9718450" lon="0.2305110">
        <ele>904.0</ele>
        <time>2020-07-27T14:11:53Z</time>
      </trkpt>
      <trkpt lat="42.9719530" lon="0.2304280">
        <ele>902.8</ele>
        <time>2020-07-27T14:11:54Z</time>
      </trkpt>
      <trkpt lat="42.9720630" lon="0.2303590">
        <ele>901.6</ele>
        <time>2020-07-27T14:11:55Z</time>
      </trkpt>
      <trkpt lat="42.9722930" lon="0.2302500">
        <ele>899.8</ele>
        <time>2020-07-27T14:11:57Z</time>
      </trkpt>
      <trkpt lat="42.9724110" lon="0.2302190">
        <ele>899.0</ele>
        <time>2020-07-27T14:11:58Z</time>
      </trkpt>
      <trkpt lat="42.9725300" lon="0.2301980">
        <ele>898.6</ele>
        <time>2020-07-27T14:11:59Z</time>
      </trkpt>
      <trkpt lat="42.9727600" lon="0.2301750">
        <ele>897.4</ele>
        <time>2020-07-27T14:12:01Z</time>
      </trkpt>
      <trkpt lat="42.9730940" lon="0.2301310">
        <ele>896.2</ele>
        <time>2020-07-27T14:12:04Z</time>
      </trkpt>
      <trkpt lat="42.9731970" lon="0.2301080">
        <ele>896.0</ele>
        <time>2020-07-27T14:12:05Z</time>
      </trkpt>
      <trkpt lat="42.9734010" lon="0.2300110">
        <ele>895.4</ele>
        <time>2020-07-27T14:12:07Z</time>
      </trkpt>
      <trkpt lat="42.9735020" lon="0.2299420">
        <ele>895.0</ele>
        <time>2020-07-27T14:12:08Z</time>
      </trkpt>
      <trkpt lat="42.9736030" lon="0.2298690">
        <ele>895.0</ele>
        <time>2020-07-27T14:12:09Z</time>
      </trkpt>
      <trkpt lat="42.9739070" lon="0.2296350">
        <ele>894.0</ele>
        <time>2020-07-27T14:12:12Z</time>
      </trkpt>
      <trkpt lat="42.9742100" lon="0.2293770">
        <ele>893.0</ele>
        <time>2020-07-27T14:12:15Z</time>
      </trkpt>
      <trkpt lat="42.9744170" lon="0.2292120">
        <ele>891.8</ele>
        <time>2020-07-27T14:12:17Z</time>
      </trkpt>
      <trkpt lat="42.9745220" lon="0.2291280">
        <ele>891.0</ele>
        <time>2020-07-27T14:12:18Z</time>
      </trkpt>
      <trkpt lat="42.9746280" lon="0.2290480">
        <ele>890.4</ele>
        <time>2020-07-27T14:12:19Z</time>
      </trkpt>
      <trkpt lat="42.9748400" lon="0.2288840">
        <ele>888.8</ele>
        <time>2020-07-27T14:12:21Z</time>
      </trkpt>
      <trkpt lat="42.9750480" lon="0.2287260">
        <ele>887.6</ele>
        <time>2020-07-27T14:12:23Z</time>
      </trkpt>
      <trkpt lat="42.9752550" lon="0.2285660">
        <ele>886.4</ele>
        <time>2020-07-27T14:12:25Z</time>
      </trkpt>
      <trkpt lat="42.9754640" lon="0.2284330">
        <ele>885.2</ele>
        <time>2020-07-27T14:12:27Z</time>
      </trkpt>
      <trkpt lat="42.9756720" lon="0.2283410">
        <ele>884.6</ele>
        <time>2020-07-27T14:12:29Z</time>
      </trkpt>
      <trkpt lat="42.9760730" lon="0.2282540">
        <ele>884.4</ele>
        <time>2020-07-27T14:12:33Z</time>
      </trkpt>
      <trkpt lat="42.9762670" lon="0.2282510">
        <ele>884.4</ele>
        <time>2020-07-27T14:12:35Z</time>
      </trkpt>
      <trkpt lat="42.9763610" lon="0.2282700">
        <ele>884.2</ele>
        <time>2020-07-27T14:12:36Z</time>
      </trkpt>
      <trkpt lat="42.9764550" lon="0.2282980">
        <ele>884.0</ele>
        <time>2020-07-27T14:12:37Z</time>
      </trkpt>
      <trkpt lat="42.9768630" lon="0.2283890">
        <ele>883.6</ele>
        <time>2020-07-27T14:12:41Z</time>
      </trkpt>
      <trkpt lat="42.9770910" lon="0.2283860">
        <ele>883.4</ele>
        <time>2020-07-27T14:12:43Z</time>
      </trkpt>
      <trkpt lat="42.9772130" lon="0.2283890">
        <ele>883.0</ele>
        <time>2020-07-27T14:12:44Z</time>
      </trkpt>
      <trkpt lat="42.9773440" lon="0.2283850">
        <ele>882.2</ele>
        <time>2020-07-27T14:12:45Z</time>
      </trkpt>
      <trkpt lat="42.9774820" lon="0.2283700">
        <ele>881.6</ele>
        <time>2020-07-27T14:12:46Z</time>
      </trkpt>
      <trkpt lat="42.9776200" lon="0.2283380">
        <ele>880.8</ele>
        <time>2020-07-27T14:12:47Z</time>
      </trkpt>
      <trkpt lat="42.9777530" lon="0.2282940">
        <ele>879.6</ele>
        <time>2020-07-27T14:12:48Z</time>
      </trkpt>
      <trkpt lat="42.9778820" lon="0.2282470">
        <ele>878.0</ele>
        <time>2020-07-27T14:12:49Z</time>
      </trkpt>
      <trkpt lat="42.9780110" lon="0.2282020">
        <ele>877.0</ele>
        <time>2020-07-27T14:12:50Z</time>
      </trkpt>
      <trkpt lat="42.9781430" lon="0.2281650">
        <ele>875.8</ele>
        <time>2020-07-27T14:12:51Z</time>
      </trkpt>
      <trkpt lat="42.9782750" lon="0.2281370">
        <ele>874.8</ele>
        <time>2020-07-27T14:12:52Z</time>
      </trkpt>
      <trkpt lat="42.9785420" lon="0.2281050">
        <ele>873.2</ele>
        <time>2020-07-27T14:12:54Z</time>
      </trkpt>
      <trkpt lat="42.9786760" lon="0.2280800">
        <ele>872.2</ele>
        <time>2020-07-27T14:12:55Z</time>
      </trkpt>
      <trkpt lat="42.9788100" lon="0.2280440">
        <ele>871.0</ele>
        <time>2020-07-27T14:12:56Z</time>
      </trkpt>
      <trkpt lat="42.9789400" lon="0.2280020">
        <ele>869.4</ele>
        <time>2020-07-27T14:12:57Z</time>
      </trkpt>
      <trkpt lat="42.9790690" lon="0.2279640">
        <ele>868.4</ele>
        <time>2020-07-27T14:12:58Z</time>
      </trkpt>
      <trkpt lat="42.9791950" lon="0.2279390">
        <ele>867.2</ele>
        <time>2020-07-27T14:12:59Z</time>
      </trkpt>
      <trkpt lat="42.9793170" lon="0.2279190">
        <ele>866.0</ele>
        <time>2020-07-27T14:13:00Z</time>
      </trkpt>
      <trkpt lat="42.9795460" lon="0.2278550">
        <ele>864.2</ele>
        <time>2020-07-27T14:13:02Z</time>
      </trkpt>
      <trkpt lat="42.9796520" lon="0.2278050">
        <ele>864.0</ele>
        <time>2020-07-27T14:13:03Z</time>
      </trkpt>
      <trkpt lat="42.9797540" lon="0.2277440">
        <ele>863.4</ele>
        <time>2020-07-27T14:13:04Z</time>
      </trkpt>
      <trkpt lat="42.9799480" lon="0.2276200">
        <ele>862.2</ele>
        <time>2020-07-27T14:13:06Z</time>
      </trkpt>
      <trkpt lat="42.9801410" lon="0.2275210">
        <ele>862.0</ele>
        <time>2020-07-27T14:13:08Z</time>
      </trkpt>
      <trkpt lat="42.9806390" lon="0.2272830">
        <ele>861.4</ele>
        <time>2020-07-27T14:13:13Z</time>
      </trkpt>
      <trkpt lat="42.9807430" lon="0.2272440">
        <ele>861.2</ele>
        <time>2020-07-27T14:13:14Z</time>
      </trkpt>
      <trkpt lat="42.9810630" lon="0.2271740">
        <ele>861.0</ele>
        <time>2020-07-27T14:13:17Z</time>
      </trkpt>
      <trkpt lat="42.9815070" lon="0.2270960">
        <ele>860.2</ele>
        <time>2020-07-27T14:13:21Z</time>
      </trkpt>
      <trkpt lat="42.9817260" lon="0.2270900">
        <ele>859.6</ele>
        <time>2020-07-27T14:13:23Z</time>
      </trkpt>
      <trkpt lat="42.9818330" lon="0.2270880">
        <ele>859.2</ele>
        <time>2020-07-27T14:13:24Z</time>
      </trkpt>
      <trkpt lat="42.9820390" lon="0.2270620">
        <ele>857.6</ele>
        <time>2020-07-27T14:13:26Z</time>
      </trkpt>
      <trkpt lat="42.9822390" lon="0.2270120">
        <ele>856.6</ele>
        <time>2020-07-27T14:13:28Z</time>
      </trkpt>
      <trkpt lat="42.9826330" lon="0.2269250">
        <ele>855.8</ele>
        <time>2020-07-27T14:13:32Z</time>
      </trkpt>
      <trkpt lat="42.9828270" lon="0.2268990">
        <ele>855.6</ele>
        <time>2020-07-27T14:13:34Z</time>
      </trkpt>
      <trkpt lat="42.9832260" lon="0.2268280">
        <ele>854.6</ele>
        <time>2020-07-27T14:13:38Z</time>
      </trkpt>
      <trkpt lat="42.9833290" lon="0.2268200">
        <ele>854.6</ele>
        <time>2020-07-27T14:13:39Z</time>
      </trkpt>
      <trkpt lat="42.9834340" lon="0.2268260">
        <ele>854.2</ele>
        <time>2020-07-27T14:13:40Z</time>
      </trkpt>
      <trkpt lat="42.9836540" lon="0.2268690">
        <ele>853.6</ele>
        <time>2020-07-27T14:13:42Z</time>
      </trkpt>
      <trkpt lat="42.9838750" lon="0.2269300">
        <ele>853.2</ele>
        <time>2020-07-27T14:13:44Z</time>
      </trkpt>
      <trkpt lat="42.9840980" lon="0.2269830">
        <ele>852.2</ele>
        <time>2020-07-27T14:13:46Z</time>
      </trkpt>
      <trkpt lat="42.9843040" lon="0.2270450">
        <ele>851.0</ele>
        <time>2020-07-27T14:13:48Z</time>
      </trkpt>
      <trkpt lat="42.9843950" lon="0.2270740">
        <ele>850.4</ele>
        <time>2020-07-27T14:13:49Z</time>
      </trkpt>
      <trkpt lat="42.9844770" lon="0.2271080">
        <ele>849.4</ele>
        <time>2020-07-27T14:13:50Z</time>
      </trkpt>
      <trkpt lat="42.9845410" lon="0.2271580">
        <ele>848.4</ele>
        <time>2020-07-27T14:13:51Z</time>
      </trkpt>
      <trkpt lat="42.9845880" lon="0.2272240">
        <ele>847.4</ele>
        <time>2020-07-27T14:13:52Z</time>
      </trkpt>
      <trkpt lat="42.9846120" lon="0.2273000">
        <ele>845.8</ele>
        <time>2020-07-27T14:13:53Z</time>
      </trkpt>
      <trkpt lat="42.9846130" lon="0.2273830">
        <ele>845.2</ele>
        <time>2020-07-27T14:13:54Z</time>
      </trkpt>
      <trkpt lat="42.9845930" lon="0.2274560">
        <ele>844.6</ele>
        <time>2020-07-27T14:13:55Z</time>
      </trkpt>
      <trkpt lat="42.9845160" lon="0.2275630">
        <ele>844.0</ele>
        <time>2020-07-27T14:13:57Z</time>
      </trkpt>
      <trkpt lat="42.9844040" lon="0.2276150">
        <ele>844.0</ele>
        <time>2020-07-27T14:13:59Z</time>
      </trkpt>
      <trkpt lat="42.9843460" lon="0.2276340">
        <ele>844.0</ele>
        <time>2020-07-27T14:14:00Z</time>
      </trkpt>
      <trkpt lat="42.9841660" lon="0.2277000">
        <ele>843.8</ele>
        <time>2020-07-27T14:14:03Z</time>
      </trkpt>
      <trkpt lat="42.9840310" lon="0.2277650">
        <ele>843.8</ele>
        <time>2020-07-27T14:14:05Z</time>
      </trkpt>
      <trkpt lat="42.9836470" lon="0.2279360">
        <ele>843.6</ele>
        <time>2020-07-27T14:14:10Z</time>
      </trkpt>
      <trkpt lat="42.9833800" lon="0.2280380">
        <ele>843.2</ele>
        <time>2020-07-27T14:14:13Z</time>
      </trkpt>
      <trkpt lat="42.9831990" lon="0.2280830">
        <ele>843.0</ele>
        <time>2020-07-27T14:14:15Z</time>
      </trkpt>
      <trkpt lat="42.9829190" lon="0.2280960">
        <ele>841.4</ele>
        <time>2020-07-27T14:14:18Z</time>
      </trkpt>
      <trkpt lat="42.9827340" lon="0.2280850">
        <ele>840.2</ele>
        <time>2020-07-27T14:14:20Z</time>
      </trkpt>
      <trkpt lat="42.9823830" lon="0.2281370">
        <ele>839.2</ele>
        <time>2020-07-27T14:14:24Z</time>
      </trkpt>
      <trkpt lat="42.9822060" lon="0.2283380">
        <ele>838.0</ele>
        <time>2020-07-27T14:14:27Z</time>
      </trkpt>
      <trkpt lat="42.9821860" lon="0.2286380">
        <ele>837.8</ele>
        <time>2020-07-27T14:14:30Z</time>
      </trkpt>
      <trkpt lat="42.9822750" lon="0.2288840">
        <ele>837.4</ele>
        <time>2020-07-27T14:14:33Z</time>
      </trkpt>
      <trkpt lat="42.9824710" lon="0.2290590">
        <ele>837.6</ele>
        <time>2020-07-27T14:14:37Z</time>
      </trkpt>
      <trkpt lat="42.9826950" lon="0.2291740">
        <ele>838.0</ele>
        <time>2020-07-27T14:14:42Z</time>
      </trkpt>
      <trkpt lat="42.9827290" lon="0.2292050">
        <ele>838.2</ele>
        <time>2020-07-27T14:14:43Z</time>
      </trkpt>
      <trkpt lat="42.9828470" lon="0.2293280">
        <ele>839.8</ele>
        <time>2020-07-27T14:14:47Z</time>
      </trkpt>
      <trkpt lat="42.9829260" lon="0.2294350">
        <ele>840.2</ele>
        <time>2020-07-27T14:14:50Z</time>
      </trkpt>
      <trkpt lat="42.9829710" lon="0.2295020">
        <ele>841.0</ele>
        <time>2020-07-27T14:14:52Z</time>
      </trkpt>
      <trkpt lat="42.9830100" lon="0.2295650">
        <ele>842.4</ele>
        <time>2020-07-27T14:14:54Z</time>
      </trkpt>
      <trkpt lat="42.9830630" lon="0.2296560">
        <ele>843.6</ele>
        <time>2020-07-27T14:14:57Z</time>
      </trkpt>
      <trkpt lat="42.9831150" lon="0.2297870">
        <ele>845.0</ele>
        <time>2020-07-27T14:15:01Z</time>
      </trkpt>
      <trkpt lat="42.9831310" lon="0.2298610">
        <ele>845.4</ele>
        <time>2020-07-27T14:15:03Z</time>
      </trkpt>
      <trkpt lat="42.9831480" lon="0.2299380">
        <ele>846.4</ele>
        <time>2020-07-27T14:15:05Z</time>
      </trkpt>
      <trkpt lat="42.9831840" lon="0.2300560">
        <ele>847.4</ele>
        <time>2020-07-27T14:15:08Z</time>
      </trkpt>
      <trkpt lat="42.9832480" lon="0.2302430">
        <ele>848.6</ele>
        <time>2020-07-27T14:15:12Z</time>
      </trkpt>
      <trkpt lat="42.9833040" lon="0.2304850">
        <ele>850.0</ele>
        <time>2020-07-27T14:15:17Z</time>
      </trkpt>
      <trkpt lat="42.9833770" lon="0.2307200">
        <ele>850.8</ele>
        <time>2020-07-27T14:15:22Z</time>
      </trkpt>
      <trkpt lat="42.9834640" lon="0.2310060">
        <ele>851.2</ele>
        <time>2020-07-27T14:15:28Z</time>
      </trkpt>
      <trkpt lat="42.9835180" lon="0.2311890">
        <ele>851.6</ele>
        <time>2020-07-27T14:15:32Z</time>
      </trkpt>
      <trkpt lat="42.9836070" lon="0.2314890">
        <ele>852.8</ele>
        <time>2020-07-27T14:15:39Z</time>
      </trkpt>
      <trkpt lat="42.9836920" lon="0.2317460">
        <ele>854.0</ele>
        <time>2020-07-27T14:15:45Z</time>
      </trkpt>
      <trkpt lat="42.9837820" lon="0.2320460">
        <ele>855.2</ele>
        <time>2020-07-27T14:15:52Z</time>
      </trkpt>
      <trkpt lat="42.9837920" lon="0.2320900">
        <ele>855.4</ele>
        <time>2020-07-27T14:15:53Z</time>
      </trkpt>
      <trkpt lat="42.9838120" lon="0.2323560">
        <ele>856.4</ele>
        <time>2020-07-27T14:15:59Z</time>
      </trkpt>
      <trkpt lat="42.9838060" lon="0.2324010">
        <ele>856.6</ele>
        <time>2020-07-27T14:16:00Z</time>
      </trkpt>
      <trkpt lat="42.9837420" lon="0.2326500">
        <ele>857.6</ele>
        <time>2020-07-27T14:16:06Z</time>
      </trkpt>
      <trkpt lat="42.9837100" lon="0.2327270">
        <ele>858.0</ele>
        <time>2020-07-27T14:16:08Z</time>
      </trkpt>
      <trkpt lat="42.9836410" lon="0.2328820">
        <ele>859.2</ele>
        <time>2020-07-27T14:16:12Z</time>
      </trkpt>
      <trkpt lat="42.9835860" lon="0.2329950">
        <ele>860.0</ele>
        <time>2020-07-27T14:16:15Z</time>
      </trkpt>
      <trkpt lat="42.9835360" lon="0.2331030">
        <ele>860.6</ele>
        <time>2020-07-27T14:16:18Z</time>
      </trkpt>
      <trkpt lat="42.9834030" lon="0.2333460">
        <ele>861.8</ele>
        <time>2020-07-27T14:16:25Z</time>
      </trkpt>
      <trkpt lat="42.9832190" lon="0.2335360">
        <ele>863.6</ele>
        <time>2020-07-27T14:16:32Z</time>
      </trkpt>
      <trkpt lat="42.9831040" lon="0.2336180">
        <ele>865.0</ele>
        <time>2020-07-27T14:16:36Z</time>
      </trkpt>
      <trkpt lat="42.9829290" lon="0.2337540">
        <ele>865.6</ele>
        <time>2020-07-27T14:16:42Z</time>
      </trkpt>
      <trkpt lat="42.9828170" lon="0.2338720">
        <ele>866.2</ele>
        <time>2020-07-27T14:16:46Z</time>
      </trkpt>
      <trkpt lat="42.9827430" lon="0.2339890">
        <ele>867.0</ele>
        <time>2020-07-27T14:16:49Z</time>
      </trkpt>
      <trkpt lat="42.9825680" lon="0.2343930">
        <ele>867.4</ele>
        <time>2020-07-27T14:16:57Z</time>
      </trkpt>
      <trkpt lat="42.9824100" lon="0.2349590">
        <ele>867.8</ele>
        <time>2020-07-27T14:17:07Z</time>
      </trkpt>
      <trkpt lat="42.9823780" lon="0.2351770">
        <ele>867.8</ele>
        <time>2020-07-27T14:17:11Z</time>
      </trkpt>
      <trkpt lat="42.9823390" lon="0.2353750">
        <ele>868.8</ele>
        <time>2020-07-27T14:17:15Z</time>
      </trkpt>
      <trkpt lat="42.9823160" lon="0.2354640">
        <ele>869.2</ele>
        <time>2020-07-27T14:17:17Z</time>
      </trkpt>
      <trkpt lat="42.9822380" lon="0.2357000">
        <ele>870.4</ele>
        <time>2020-07-27T14:17:23Z</time>
      </trkpt>
      <trkpt lat="42.9822240" lon="0.2357360">
        <ele>870.4</ele>
        <time>2020-07-27T14:17:24Z</time>
      </trkpt>
      <trkpt lat="42.9821110" lon="0.2359440">
        <ele>871.8</ele>
        <time>2020-07-27T14:17:30Z</time>
      </trkpt>
      <trkpt lat="42.9820260" lon="0.2361160">
        <ele>873.0</ele>
        <time>2020-07-27T14:17:35Z</time>
      </trkpt>
      <trkpt lat="42.9819570" lon="0.2362780">
        <ele>874.2</ele>
        <time>2020-07-27T14:17:39Z</time>
      </trkpt>
      <trkpt lat="42.9818440" lon="0.2364270">
        <ele>875.2</ele>
        <time>2020-07-27T14:17:44Z</time>
      </trkpt>
      <trkpt lat="42.9818220" lon="0.2364590">
        <ele>875.8</ele>
        <time>2020-07-27T14:17:45Z</time>
      </trkpt>
      <trkpt lat="42.9817520" lon="0.2365530">
        <ele>876.8</ele>
        <time>2020-07-27T14:17:48Z</time>
      </trkpt>
      <trkpt lat="42.9816510" lon="0.2366730">
        <ele>877.8</ele>
        <time>2020-07-27T14:17:52Z</time>
      </trkpt>
      <trkpt lat="42.9816250" lon="0.2367030">
        <ele>878.2</ele>
        <time>2020-07-27T14:17:53Z</time>
      </trkpt>
      <trkpt lat="42.9815160" lon="0.2368320">
        <ele>879.0</ele>
        <time>2020-07-27T14:17:57Z</time>
      </trkpt>
      <trkpt lat="42.9814200" lon="0.2369210">
        <ele>879.6</ele>
        <time>2020-07-27T14:18:00Z</time>
      </trkpt>
      <trkpt lat="42.9812520" lon="0.2371060">
        <ele>880.2</ele>
        <time>2020-07-27T14:18:06Z</time>
      </trkpt>
      <trkpt lat="42.9811230" lon="0.2372660">
        <ele>881.6</ele>
        <time>2020-07-27T14:18:11Z</time>
      </trkpt>
      <trkpt lat="42.9809680" lon="0.2374500">
        <ele>882.6</ele>
        <time>2020-07-27T14:18:17Z</time>
      </trkpt>
      <trkpt lat="42.9808520" lon="0.2375840">
        <ele>883.4</ele>
        <time>2020-07-27T14:18:21Z</time>
      </trkpt>
      <trkpt lat="42.9807910" lon="0.2376510">
        <ele>884.0</ele>
        <time>2020-07-27T14:18:23Z</time>
      </trkpt>
      <trkpt lat="42.9804920" lon="0.2379970">
        <ele>885.0</ele>
        <time>2020-07-27T14:18:33Z</time>
      </trkpt>
      <trkpt lat="42.9804250" lon="0.2380600">
        <ele>885.4</ele>
        <time>2020-07-27T14:18:35Z</time>
      </trkpt>
      <trkpt lat="42.9803880" lon="0.2380870">
        <ele>885.6</ele>
        <time>2020-07-27T14:18:36Z</time>
      </trkpt>
      <trkpt lat="42.9802870" lon="0.2381880">
        <ele>885.8</ele>
        <time>2020-07-27T14:18:39Z</time>
      </trkpt>
      <trkpt lat="42.9801520" lon="0.2383580">
        <ele>886.2</ele>
        <time>2020-07-27T14:18:43Z</time>
      </trkpt>
      <trkpt lat="42.9801170" lon="0.2384030">
        <ele>886.4</ele>
        <time>2020-07-27T14:18:44Z</time>
      </trkpt>
      <trkpt lat="42.9800510" lon="0.2384940">
        <ele>887.0</ele>
        <time>2020-07-27T14:18:46Z</time>
      </trkpt>
      <trkpt lat="42.9797760" lon="0.2389040">
        <ele>887.8</ele>
        <time>2020-07-27T14:18:55Z</time>
      </trkpt>
      <trkpt lat="42.9797450" lon="0.2389500">
        <ele>887.8</ele>
        <time>2020-07-27T14:18:56Z</time>
      </trkpt>
      <trkpt lat="42.9795660" lon="0.2392030">
        <ele>888.4</ele>
        <time>2020-07-27T14:19:01Z</time>
      </trkpt>
      <trkpt lat="42.9794020" lon="0.2394220">
        <ele>888.6</ele>
        <time>2020-07-27T14:19:05Z</time>
      </trkpt>
      <trkpt lat="42.9793030" lon="0.2395180">
        <ele>888.6</ele>
        <time>2020-07-27T14:19:07Z</time>
      </trkpt>
      <trkpt lat="42.9791220" lon="0.2396250">
        <ele>888.6</ele>
        <time>2020-07-27T14:19:10Z</time>
      </trkpt>
      <trkpt lat="42.9789890" lon="0.2396970">
        <ele>888.6</ele>
        <time>2020-07-27T14:19:12Z</time>
      </trkpt>
      <trkpt lat="42.9785580" lon="0.2399240">
        <ele>887.6</ele>
        <time>2020-07-27T14:19:18Z</time>
      </trkpt>
      <trkpt lat="42.9784770" lon="0.2399680">
        <ele>887.4</ele>
        <time>2020-07-27T14:19:19Z</time>
      </trkpt>
      <trkpt lat="42.9784040" lon="0.2400270">
        <ele>887.2</ele>
        <time>2020-07-27T14:19:20Z</time>
      </trkpt>
      <trkpt lat="42.9782780" lon="0.2401760">
        <ele>886.6</ele>
        <time>2020-07-27T14:19:22Z</time>
      </trkpt>
      <trkpt lat="42.9782330" lon="0.2402820">
        <ele>886.4</ele>
        <time>2020-07-27T14:19:23Z</time>
      </trkpt>
      <trkpt lat="42.9781550" lon="0.2405060">
        <ele>886.0</ele>
        <time>2020-07-27T14:19:25Z</time>
      </trkpt>
      <trkpt lat="42.9781170" lon="0.2406210">
        <ele>885.8</ele>
        <time>2020-07-27T14:19:26Z</time>
      </trkpt>
      <trkpt lat="42.9780800" lon="0.2407370">
        <ele>885.6</ele>
        <time>2020-07-27T14:19:27Z</time>
      </trkpt>
      <trkpt lat="42.9779680" lon="0.2410660">
        <ele>884.4</ele>
        <time>2020-07-27T14:19:30Z</time>
      </trkpt>
      <trkpt lat="42.9779310" lon="0.2411700">
        <ele>884.2</ele>
        <time>2020-07-27T14:19:31Z</time>
      </trkpt>
      <trkpt lat="42.9778180" lon="0.2414770">
        <ele>883.4</ele>
        <time>2020-07-27T14:19:34Z</time>
      </trkpt>
      <trkpt lat="42.9776580" lon="0.2418750">
        <ele>883.0</ele>
        <time>2020-07-27T14:19:38Z</time>
      </trkpt>
      <trkpt lat="42.9773930" lon="0.2422700">
        <ele>882.6</ele>
        <time>2020-07-27T14:19:43Z</time>
      </trkpt>
      <trkpt lat="42.9772480" lon="0.2423690">
        <ele>882.4</ele>
        <time>2020-07-27T14:19:45Z</time>
      </trkpt>
      <trkpt lat="42.9770920" lon="0.2424350">
        <ele>882.4</ele>
        <time>2020-07-27T14:19:47Z</time>
      </trkpt>
      <trkpt lat="42.9770190" lon="0.2424650">
        <ele>882.4</ele>
        <time>2020-07-27T14:19:48Z</time>
      </trkpt>
      <trkpt lat="42.9767710" lon="0.2425920">
        <ele>882.2</ele>
        <time>2020-07-27T14:19:52Z</time>
      </trkpt>
      <trkpt lat="42.9764930" lon="0.2426950">
        <ele>882.6</ele>
        <time>2020-07-27T14:19:58Z</time>
      </trkpt>
      <trkpt lat="42.9764460" lon="0.2426990">
        <ele>883.0</ele>
        <time>2020-07-27T14:19:59Z</time>
      </trkpt>
      <trkpt lat="42.9763530" lon="0.2427050">
        <ele>883.8</ele>
        <time>2020-07-27T14:20:01Z</time>
      </trkpt>
      <trkpt lat="42.9762660" lon="0.2427070">
        <ele>884.8</ele>
        <time>2020-07-27T14:20:03Z</time>
      </trkpt>
      <trkpt lat="42.9762240" lon="0.2427060">
        <ele>885.2</ele>
        <time>2020-07-27T14:20:04Z</time>
      </trkpt>
      <trkpt lat="42.9760250" lon="0.2427400">
        <ele>886.2</ele>
        <time>2020-07-27T14:20:09Z</time>
      </trkpt>
      <trkpt lat="42.9758960" lon="0.2427940">
        <ele>888.2</ele>
        <time>2020-07-27T14:20:13Z</time>
      </trkpt>
      <trkpt lat="42.9757070" lon="0.2428360">
        <ele>889.2</ele>
        <time>2020-07-27T14:20:18Z</time>
      </trkpt>
      <trkpt lat="42.9756630" lon="0.2428420">
        <ele>889.2</ele>
        <time>2020-07-27T14:20:19Z</time>
      </trkpt>
      <trkpt lat="42.9754710" lon="0.2429100">
        <ele>890.4</ele>
        <time>2020-07-27T14:20:24Z</time>
      </trkpt>
      <trkpt lat="42.9754310" lon="0.2429330">
        <ele>890.6</ele>
        <time>2020-07-27T14:20:25Z</time>
      </trkpt>
      <trkpt lat="42.9751460" lon="0.2431150">
        <ele>890.8</ele>
        <time>2020-07-27T14:20:32Z</time>
      </trkpt>
      <trkpt lat="42.9750140" lon="0.2431720">
        <ele>891.0</ele>
        <time>2020-07-27T14:20:36Z</time>
      </trkpt>
      <trkpt lat="42.9749360" lon="0.2431820">
        <ele>891.2</ele>
        <time>2020-07-27T14:20:38Z</time>
      </trkpt>
      <trkpt lat="42.9746080" lon="0.2431900">
        <ele>891.6</ele>
        <time>2020-07-27T14:20:46Z</time>
      </trkpt>
      <trkpt lat="42.9742830" lon="0.2431880">
        <ele>892.0</ele>
        <time>2020-07-27T14:20:53Z</time>
      </trkpt>
      <trkpt lat="42.9741330" lon="0.2432040">
        <ele>892.0</ele>
        <time>2020-07-27T14:20:56Z</time>
      </trkpt>
      <trkpt lat="42.9736070" lon="0.2433220">
        <ele>892.6</ele>
        <time>2020-07-27T14:21:06Z</time>
      </trkpt>
      <trkpt lat="42.9732010" lon="0.2434690">
        <ele>893.2</ele>
        <time>2020-07-27T14:21:14Z</time>
      </trkpt>
      <trkpt lat="42.9731560" lon="0.2434820">
        <ele>893.6</ele>
        <time>2020-07-27T14:21:15Z</time>
      </trkpt>
      <trkpt lat="42.9728430" lon="0.2435890">
        <ele>894.6</ele>
        <time>2020-07-27T14:21:22Z</time>
      </trkpt>
      <trkpt lat="42.9726670" lon="0.2436450">
        <ele>895.6</ele>
        <time>2020-07-27T14:21:26Z</time>
      </trkpt>
      <trkpt lat="42.9726230" lon="0.2436580">
        <ele>896.0</ele>
        <time>2020-07-27T14:21:27Z</time>
      </trkpt>
      <trkpt lat="42.9723250" lon="0.2437520">
        <ele>897.0</ele>
        <time>2020-07-27T14:21:34Z</time>
      </trkpt>
      <trkpt lat="42.9722470" lon="0.2437820">
        <ele>897.6</ele>
        <time>2020-07-27T14:21:36Z</time>
      </trkpt>
      <trkpt lat="42.9721730" lon="0.2438160">
        <ele>898.6</ele>
        <time>2020-07-27T14:21:38Z</time>
      </trkpt>
      <trkpt lat="42.9720350" lon="0.2438920">
        <ele>899.8</ele>
        <time>2020-07-27T14:21:42Z</time>
      </trkpt>
      <trkpt lat="42.9719630" lon="0.2439340">
        <ele>900.4</ele>
        <time>2020-07-27T14:21:44Z</time>
      </trkpt>
      <trkpt lat="42.9718910" lon="0.2439700">
        <ele>901.2</ele>
        <time>2020-07-27T14:21:46Z</time>
      </trkpt>
      <trkpt lat="42.9717400" lon="0.2440320">
        <ele>902.2</ele>
        <time>2020-07-27T14:21:50Z</time>
      </trkpt>
      <trkpt lat="42.9717000" lon="0.2440420">
        <ele>902.4</ele>
        <time>2020-07-27T14:21:51Z</time>
      </trkpt>
      <trkpt lat="42.9713770" lon="0.2440830">
        <ele>903.4</ele>
        <time>2020-07-27T14:21:59Z</time>
      </trkpt>
      <trkpt lat="42.9712980" lon="0.2440850">
        <ele>904.0</ele>
        <time>2020-07-27T14:22:01Z</time>
      </trkpt>
      <trkpt lat="42.9711190" lon="0.2440940">
        <ele>904.8</ele>
        <time>2020-07-27T14:22:06Z</time>
      </trkpt>
      <trkpt lat="42.9709850" lon="0.2441070">
        <ele>905.2</ele>
        <time>2020-07-27T14:22:10Z</time>
      </trkpt>
      <trkpt lat="42.9708870" lon="0.2441180">
        <ele>905.8</ele>
        <time>2020-07-27T14:22:13Z</time>
      </trkpt>
      <trkpt lat="42.9706910" lon="0.2441380">
        <ele>906.6</ele>
        <time>2020-07-27T14:22:19Z</time>
      </trkpt>
      <trkpt lat="42.9705960" lon="0.2441490">
        <ele>907.0</ele>
        <time>2020-07-27T14:22:22Z</time>
      </trkpt>
      <trkpt lat="42.9704390" lon="0.2441620">
        <ele>908.2</ele>
        <time>2020-07-27T14:22:27Z</time>
      </trkpt>
      <trkpt lat="42.9703540" lon="0.2441620">
        <ele>908.8</ele>
        <time>2020-07-27T14:22:30Z</time>
      </trkpt>
      <trkpt lat="42.9702750" lon="0.2441450">
        <ele>909.8</ele>
        <time>2020-07-27T14:22:33Z</time>
      </trkpt>
      <trkpt lat="42.9702080" lon="0.2441270">
        <ele>910.4</ele>
        <time>2020-07-27T14:22:36Z</time>
      </trkpt>
      <trkpt lat="42.9701590" lon="0.2441400">
        <ele>910.8</ele>
        <time>2020-07-27T14:22:38Z</time>
      </trkpt>
      <trkpt lat="42.9700450" lon="0.2441680">
        <ele>911.8</ele>
        <time>2020-07-27T14:22:42Z</time>
      </trkpt>
      <trkpt lat="42.9700160" lon="0.2441750">
        <ele>912.2</ele>
        <time>2020-07-27T14:22:43Z</time>
      </trkpt>
      <trkpt lat="42.9699590" lon="0.2441870">
        <ele>912.8</ele>
        <time>2020-07-27T14:22:45Z</time>
      </trkpt>
      <trkpt lat="42.9698640" lon="0.2442030">
        <ele>914.2</ele>
        <time>2020-07-27T14:22:48Z</time>
      </trkpt>
      <trkpt lat="42.9697660" lon="0.2442120">
        <ele>915.0</ele>
        <time>2020-07-27T14:22:51Z</time>
      </trkpt>
      <trkpt lat="42.9697330" lon="0.2442130">
        <ele>915.4</ele>
        <time>2020-07-27T14:22:52Z</time>
      </trkpt>
      <trkpt lat="42.9696120" lon="0.2442120">
        <ele>916.4</ele>
        <time>2020-07-27T14:22:56Z</time>
      </trkpt>
      <trkpt lat="42.9694950" lon="0.2442140">
        <ele>917.6</ele>
        <time>2020-07-27T14:23:00Z</time>
      </trkpt>
      <trkpt lat="42.9693220" lon="0.2442100">
        <ele>918.8</ele>
        <time>2020-07-27T14:23:06Z</time>
      </trkpt>
      <trkpt lat="42.9692660" lon="0.2442080">
        <ele>919.2</ele>
        <time>2020-07-27T14:23:08Z</time>
      </trkpt>
      <trkpt lat="42.9691790" lon="0.2442140">
        <ele>919.8</ele>
        <time>2020-07-27T14:23:11Z</time>
      </trkpt>
      <trkpt lat="42.9690400" lon="0.2442440">
        <ele>921.2</ele>
        <time>2020-07-27T14:23:16Z</time>
      </trkpt>
      <trkpt lat="42.9690120" lon="0.2442560">
        <ele>921.4</ele>
        <time>2020-07-27T14:23:17Z</time>
      </trkpt>
      <trkpt lat="42.9688680" lon="0.2443190">
        <ele>922.2</ele>
        <time>2020-07-27T14:23:22Z</time>
      </trkpt>
      <trkpt lat="42.9687420" lon="0.2443780">
        <ele>923.0</ele>
        <time>2020-07-27T14:23:26Z</time>
      </trkpt>
      <trkpt lat="42.9686750" lon="0.2444140">
        <ele>923.4</ele>
        <time>2020-07-27T14:23:28Z</time>
      </trkpt>
      <trkpt lat="42.9683440" lon="0.2445770">
        <ele>923.8</ele>
        <time>2020-07-27T14:23:37Z</time>
      </trkpt>
      <trkpt lat="42.9679860" lon="0.2447420">
        <ele>924.2</ele>
        <time>2020-07-27T14:23:47Z</time>
      </trkpt>
      <trkpt lat="42.9678470" lon="0.2448060">
        <ele>925.0</ele>
        <time>2020-07-27T14:23:51Z</time>
      </trkpt>
      <trkpt lat="42.9676260" lon="0.2448900">
        <ele>926.0</ele>
        <time>2020-07-27T14:23:57Z</time>
      </trkpt>
      <trkpt lat="42.9675880" lon="0.2449010">
        <ele>926.2</ele>
        <time>2020-07-27T14:23:58Z</time>
      </trkpt>
      <trkpt lat="42.9672830" lon="0.2449700">
        <ele>927.4</ele>
        <time>2020-07-27T14:24:06Z</time>
      </trkpt>
      <trkpt lat="42.9672460" lon="0.2449720">
        <ele>927.6</ele>
        <time>2020-07-27T14:24:07Z</time>
      </trkpt>
      <trkpt lat="42.9670140" lon="0.2450050">
        <ele>928.8</ele>
        <time>2020-07-27T14:24:13Z</time>
      </trkpt>
      <trkpt lat="42.9668480" lon="0.2450160">
        <ele>929.0</ele>
        <time>2020-07-27T14:24:17Z</time>
      </trkpt>
      <trkpt lat="42.9666060" lon="0.2450240">
        <ele>930.0</ele>
        <time>2020-07-27T14:24:23Z</time>
      </trkpt>
      <trkpt lat="42.9664870" lon="0.2450310">
        <ele>930.4</ele>
        <time>2020-07-27T14:24:26Z</time>
      </trkpt>
      <trkpt lat="42.9664070" lon="0.2450410">
        <ele>931.2</ele>
        <time>2020-07-27T14:24:28Z</time>
      </trkpt>
      <trkpt lat="42.9661810" lon="0.2451020">
        <ele>932.4</ele>
        <time>2020-07-27T14:24:34Z</time>
      </trkpt>
      <trkpt lat="42.9661440" lon="0.2451190">
        <ele>932.4</ele>
        <time>2020-07-27T14:24:35Z</time>
      </trkpt>
      <trkpt lat="42.9658750" lon="0.2452900">
        <ele>933.6</ele>
        <time>2020-07-27T14:24:43Z</time>
      </trkpt>
      <trkpt lat="42.9658140" lon="0.2453370">
        <ele>934.0</ele>
        <time>2020-07-27T14:24:45Z</time>
      </trkpt>
      <trkpt lat="42.9657260" lon="0.2454080">
        <ele>934.8</ele>
        <time>2020-07-27T14:24:48Z</time>
      </trkpt>
      <trkpt lat="42.9655410" lon="0.2455550">
        <ele>936.0</ele>
        <time>2020-07-27T14:24:54Z</time>
      </trkpt>
      <trkpt lat="42.9653850" lon="0.2456690">
        <ele>937.2</ele>
        <time>2020-07-27T14:24:58Z</time>
      </trkpt>
      <trkpt lat="42.9653040" lon="0.2457300">
        <ele>937.8</ele>
        <time>2020-07-27T14:25:00Z</time>
      </trkpt>
      <trkpt lat="42.9649530" lon="0.2460570">
        <ele>938.0</ele>
        <time>2020-07-27T14:25:08Z</time>
      </trkpt>
      <trkpt lat="42.9645010" lon="0.2465780">
        <ele>937.6</ele>
        <time>2020-07-27T14:25:18Z</time>
      </trkpt>
      <trkpt lat="42.9644580" lon="0.2466310">
        <ele>937.6</ele>
        <time>2020-07-27T14:25:19Z</time>
      </trkpt>
      <trkpt lat="42.9641430" lon="0.2469780">
        <ele>937.6</ele>
        <time>2020-07-27T14:25:26Z</time>
      </trkpt>
      <trkpt lat="42.9639850" lon="0.2472940">
        <ele>938.2</ele>
        <time>2020-07-27T14:25:31Z</time>
      </trkpt>
      <trkpt lat="42.9638120" lon="0.2476680">
        <ele>938.6</ele>
        <time>2020-07-27T14:25:38Z</time>
      </trkpt>
      <trkpt lat="42.9637560" lon="0.2477680">
        <ele>939.0</ele>
        <time>2020-07-27T14:25:40Z</time>
      </trkpt>
      <trkpt lat="42.9636160" lon="0.2480240">
        <ele>939.8</ele>
        <time>2020-07-27T14:25:45Z</time>
      </trkpt>
      <trkpt lat="42.9635610" lon="0.2481380">
        <ele>940.4</ele>
        <time>2020-07-27T14:25:47Z</time>
      </trkpt>
      <trkpt lat="42.9633970" lon="0.2485390">
        <ele>941.0</ele>
        <time>2020-07-27T14:25:54Z</time>
      </trkpt>
      <trkpt lat="42.9632750" lon="0.2487220">
        <ele>941.4</ele>
        <time>2020-07-27T14:25:58Z</time>
      </trkpt>
      <trkpt lat="42.9632450" lon="0.2487690">
        <ele>941.4</ele>
        <time>2020-07-27T14:25:59Z</time>
      </trkpt>
      <trkpt lat="42.9629590" lon="0.2492770">
        <ele>942.6</ele>
        <time>2020-07-27T14:26:09Z</time>
      </trkpt>
      <trkpt lat="42.9629340" lon="0.2493300">
        <ele>942.8</ele>
        <time>2020-07-27T14:26:10Z</time>
      </trkpt>
      <trkpt lat="42.9627460" lon="0.2497850">
        <ele>943.8</ele>
        <time>2020-07-27T14:26:18Z</time>
      </trkpt>
      <trkpt lat="42.9626510" lon="0.2499810">
        <ele>944.0</ele>
        <time>2020-07-27T14:26:22Z</time>
      </trkpt>
      <trkpt lat="42.9625780" lon="0.2501300">
        <ele>944.2</ele>
        <time>2020-07-27T14:26:25Z</time>
      </trkpt>
      <trkpt lat="42.9624590" lon="0.2503630">
        <ele>945.0</ele>
        <time>2020-07-27T14:26:30Z</time>
      </trkpt>
      <trkpt lat="42.9623830" lon="0.2504920">
        <ele>945.6</ele>
        <time>2020-07-27T14:26:33Z</time>
      </trkpt>
      <trkpt lat="42.9623560" lon="0.2505320">
        <ele>945.8</ele>
        <time>2020-07-27T14:26:34Z</time>
      </trkpt>
      <trkpt lat="42.9623340" lon="0.2505730">
        <ele>945.8</ele>
        <time>2020-07-27T14:26:35Z</time>
      </trkpt>
      <trkpt lat="42.9622700" lon="0.2506950">
        <ele>946.0</ele>
        <time>2020-07-27T14:26:38Z</time>
      </trkpt>
      <trkpt lat="42.9622250" lon="0.2507600">
        <ele>946.2</ele>
        <time>2020-07-27T14:26:40Z</time>
      </trkpt>
      <trkpt lat="42.9622040" lon="0.2507920">
        <ele>946.4</ele>
        <time>2020-07-27T14:26:41Z</time>
      </trkpt>
      <trkpt lat="42.9618330" lon="0.2514380">
        <ele>970.2</ele>
        <time>2020-07-28T08:56:43Z</time>
      </trkpt>
      <trkpt lat="42.9616060" lon="0.2517410">
        <ele>971.2</ele>
        <time>2020-07-28T08:56:53Z</time>
      </trkpt>
      <trkpt lat="42.9615390" lon="0.2518230">
        <ele>971.4</ele>
        <time>2020-07-28T08:56:56Z</time>
      </trkpt>
      <trkpt lat="42.9614240" lon="0.2519730">
        <ele>972.6</ele>
        <time>2020-07-28T08:57:01Z</time>
      </trkpt>
      <trkpt lat="42.9613790" lon="0.2520270">
        <ele>973.2</ele>
        <time>2020-07-28T08:57:03Z</time>
      </trkpt>
      <trkpt lat="42.9612890" lon="0.2521400">
        <ele>973.8</ele>
        <time>2020-07-28T08:57:07Z</time>
      </trkpt>
      <trkpt lat="42.9611290" lon="0.2523430">
        <ele>974.8</ele>
        <time>2020-07-28T08:57:14Z</time>
      </trkpt>
      <trkpt lat="42.9611050" lon="0.2523730">
        <ele>975.0</ele>
        <time>2020-07-28T08:57:15Z</time>
      </trkpt>
      <trkpt lat="42.9609510" lon="0.2525710">
        <ele>976.0</ele>
        <time>2020-07-28T08:57:21Z</time>
      </trkpt>
      <trkpt lat="42.9607940" lon="0.2527750">
        <ele>976.6</ele>
        <time>2020-07-28T08:57:27Z</time>
      </trkpt>
      <trkpt lat="42.9607170" lon="0.2528770">
        <ele>976.8</ele>
        <time>2020-07-28T08:57:30Z</time>
      </trkpt>
      <trkpt lat="42.9605210" lon="0.2531410">
        <ele>977.8</ele>
        <time>2020-07-28T08:57:38Z</time>
      </trkpt>
      <trkpt lat="42.9604970" lon="0.2531730">
        <ele>978.0</ele>
        <time>2020-07-28T08:57:39Z</time>
      </trkpt>
      <trkpt lat="42.9603580" lon="0.2533730">
        <ele>979.0</ele>
        <time>2020-07-28T08:57:45Z</time>
      </trkpt>
      <trkpt lat="42.9602070" lon="0.2536090">
        <ele>980.2</ele>
        <time>2020-07-28T08:57:52Z</time>
      </trkpt>
      <trkpt lat="42.9600540" lon="0.2538270">
        <ele>981.4</ele>
        <time>2020-07-28T08:57:59Z</time>
      </trkpt>
      <trkpt lat="42.9599370" lon="0.2539710">
        <ele>982.2</ele>
        <time>2020-07-28T08:58:04Z</time>
      </trkpt>
      <trkpt lat="42.9599120" lon="0.2539990">
        <ele>982.6</ele>
        <time>2020-07-28T08:58:05Z</time>
      </trkpt>
      <trkpt lat="42.9597710" lon="0.2541670">
        <ele>983.6</ele>
        <time>2020-07-28T08:58:11Z</time>
      </trkpt>
      <trkpt lat="42.9596260" lon="0.2543370">
        <ele>984.8</ele>
        <time>2020-07-28T08:58:17Z</time>
      </trkpt>
      <trkpt lat="42.9596020" lon="0.2543690">
        <ele>985.0</ele>
        <time>2020-07-28T08:58:18Z</time>
      </trkpt>
      <trkpt lat="42.9594980" lon="0.2544960">
        <ele>985.8</ele>
        <time>2020-07-28T08:58:22Z</time>
      </trkpt>
      <trkpt lat="42.9593470" lon="0.2546330">
        <ele>986.8</ele>
        <time>2020-07-28T08:58:27Z</time>
      </trkpt>
      <trkpt lat="42.9593120" lon="0.2546590">
        <ele>986.8</ele>
        <time>2020-07-28T08:58:28Z</time>
      </trkpt>
      <trkpt lat="42.9590170" lon="0.2549040">
        <ele>987.8</ele>
        <time>2020-07-28T08:58:36Z</time>
      </trkpt>
      <trkpt lat="42.9588230" lon="0.2550760">
        <ele>988.0</ele>
        <time>2020-07-28T08:58:41Z</time>
      </trkpt>
      <trkpt lat="42.9585930" lon="0.2553060">
        <ele>988.2</ele>
        <time>2020-07-28T08:58:47Z</time>
      </trkpt>
      <trkpt lat="42.9582510" lon="0.2556690">
        <ele>989.0</ele>
        <time>2020-07-28T08:58:56Z</time>
      </trkpt>
      <trkpt lat="42.9581060" lon="0.2558310">
        <ele>989.4</ele>
        <time>2020-07-28T08:59:00Z</time>
      </trkpt>
      <trkpt lat="42.9579040" lon="0.2560710">
        <ele>990.0</ele>
        <time>2020-07-28T08:59:06Z</time>
      </trkpt>
      <trkpt lat="42.9577600" lon="0.2562710">
        <ele>990.8</ele>
        <time>2020-07-28T08:59:11Z</time>
      </trkpt>
      <trkpt lat="42.9577030" lon="0.2563490">
        <ele>991.2</ele>
        <time>2020-07-28T08:59:13Z</time>
      </trkpt>
      <trkpt lat="42.9575280" lon="0.2565700">
        <ele>992.2</ele>
        <time>2020-07-28T08:59:19Z</time>
      </trkpt>
      <trkpt lat="42.9574670" lon="0.2566410">
        <ele>992.8</ele>
        <time>2020-07-28T08:59:21Z</time>
      </trkpt>
      <trkpt lat="42.9574040" lon="0.2567120">
        <ele>993.2</ele>
        <time>2020-07-28T08:59:23Z</time>
      </trkpt>
      <trkpt lat="42.9570610" lon="0.2570690">
        <ele>994.2</ele>
        <time>2020-07-28T08:59:33Z</time>
      </trkpt>
      <trkpt lat="42.9570250" lon="0.2571060">
        <ele>994.2</ele>
        <time>2020-07-28T08:59:34Z</time>
      </trkpt>
      <trkpt lat="42.9566660" lon="0.2574550">
        <ele>995.0</ele>
        <time>2020-07-28T08:59:44Z</time>
      </trkpt>
      <trkpt lat="42.9565660" lon="0.2575500">
        <ele>995.4</ele>
        <time>2020-07-28T08:59:47Z</time>
      </trkpt>
      <trkpt lat="42.9563500" lon="0.2577660">
        <ele>996.4</ele>
        <time>2020-07-28T08:59:54Z</time>
      </trkpt>
      <trkpt lat="42.9563200" lon="0.2577980">
        <ele>996.8</ele>
        <time>2020-07-28T08:59:55Z</time>
      </trkpt>
      <trkpt lat="42.9562060" lon="0.2579290">
        <ele>997.6</ele>
        <time>2020-07-28T08:59:59Z</time>
      </trkpt>
      <trkpt lat="42.9560450" lon="0.2581660">
        <ele>998.8</ele>
        <time>2020-07-28T09:00:05Z</time>
      </trkpt>
      <trkpt lat="42.9558560" lon="0.2585650">
        <ele>999.8</ele>
        <time>2020-07-28T09:00:13Z</time>
      </trkpt>
      <trkpt lat="42.9557620" lon="0.2588610">
        <ele>1000.2</ele>
        <time>2020-07-28T09:00:18Z</time>
      </trkpt>
      <trkpt lat="42.9556610" lon="0.2591590">
        <ele>1000.2</ele>
        <time>2020-07-28T09:00:23Z</time>
      </trkpt>
      <trkpt lat="42.9554700" lon="0.2594820">
        <ele>1000.6</ele>
        <time>2020-07-28T09:00:30Z</time>
      </trkpt>
      <trkpt lat="42.9553670" lon="0.2595720">
        <ele>1000.8</ele>
        <time>2020-07-28T09:00:33Z</time>
      </trkpt>
      <trkpt lat="42.9552190" lon="0.2596680">
        <ele>1001.8</ele>
        <time>2020-07-28T09:00:37Z</time>
      </trkpt>
      <trkpt lat="42.9550240" lon="0.2597600">
        <ele>1003.0</ele>
        <time>2020-07-28T09:00:42Z</time>
      </trkpt>
      <trkpt lat="42.9548310" lon="0.2598370">
        <ele>1004.0</ele>
        <time>2020-07-28T09:00:47Z</time>
      </trkpt>
      <trkpt lat="42.9547940" lon="0.2598510">
        <ele>1004.0</ele>
        <time>2020-07-28T09:00:48Z</time>
      </trkpt>
      <trkpt lat="42.9546050" lon="0.2599200">
        <ele>1005.0</ele>
        <time>2020-07-28T09:00:53Z</time>
      </trkpt>
      <trkpt lat="42.9544550" lon="0.2599800">
        <ele>1005.6</ele>
        <time>2020-07-28T09:00:57Z</time>
      </trkpt>
      <trkpt lat="42.9543440" lon="0.2600260">
        <ele>1006.2</ele>
        <time>2020-07-28T09:01:00Z</time>
      </trkpt>
      <trkpt lat="42.9540590" lon="0.2601650">
        <ele>1007.2</ele>
        <time>2020-07-28T09:01:08Z</time>
      </trkpt>
      <trkpt lat="42.9538210" lon="0.2603160">
        <ele>1008.4</ele>
        <time>2020-07-28T09:01:15Z</time>
      </trkpt>
      <trkpt lat="42.9537260" lon="0.2603930">
        <ele>1009.0</ele>
        <time>2020-07-28T09:01:18Z</time>
      </trkpt>
      <trkpt lat="42.9536420" lon="0.2604870">
        <ele>1009.4</ele>
        <time>2020-07-28T09:01:21Z</time>
      </trkpt>
      <trkpt lat="42.9535290" lon="0.2606770">
        <ele>1010.2</ele>
        <time>2020-07-28T09:01:26Z</time>
      </trkpt>
      <trkpt lat="42.9535080" lon="0.2607170">
        <ele>1010.4</ele>
        <time>2020-07-28T09:01:27Z</time>
      </trkpt>
      <trkpt lat="42.9533540" lon="0.2610090">
        <ele>1011.6</ele>
        <time>2020-07-28T09:01:34Z</time>
      </trkpt>
      <trkpt lat="42.9533330" lon="0.2610500">
        <ele>1011.8</ele>
        <time>2020-07-28T09:01:35Z</time>
      </trkpt>
      <trkpt lat="42.9532030" lon="0.2612900">
        <ele>1012.6</ele>
        <time>2020-07-28T09:01:41Z</time>
      </trkpt>
      <trkpt lat="42.9530970" lon="0.2614880">
        <ele>1013.4</ele>
        <time>2020-07-28T09:01:46Z</time>
      </trkpt>
      <trkpt lat="42.9530550" lon="0.2615650">
        <ele>1013.8</ele>
        <time>2020-07-28T09:01:48Z</time>
      </trkpt>
      <trkpt lat="42.9529270" lon="0.2618240">
        <ele>1014.6</ele>
        <time>2020-07-28T09:01:55Z</time>
      </trkpt>
      <trkpt lat="42.9529110" lon="0.2618600">
        <ele>1014.8</ele>
        <time>2020-07-28T09:01:56Z</time>
      </trkpt>
      <trkpt lat="42.9528150" lon="0.2620710">
        <ele>1016.2</ele>
        <time>2020-07-28T09:02:02Z</time>
      </trkpt>
      <trkpt lat="42.9527800" lon="0.2621450">
        <ele>1016.8</ele>
        <time>2020-07-28T09:02:04Z</time>
      </trkpt>
      <trkpt lat="42.9527470" lon="0.2622200">
        <ele>1017.2</ele>
        <time>2020-07-28T09:02:06Z</time>
      </trkpt>
      <trkpt lat="42.9526540" lon="0.2624450">
        <ele>1018.2</ele>
        <time>2020-07-28T09:02:12Z</time>
      </trkpt>
      <trkpt lat="42.9525990" lon="0.2625890">
        <ele>1019.2</ele>
        <time>2020-07-28T09:02:16Z</time>
      </trkpt>
      <trkpt lat="42.9525830" lon="0.2626240">
        <ele>1019.6</ele>
        <time>2020-07-28T09:02:17Z</time>
      </trkpt>
      <trkpt lat="42.9524800" lon="0.2628490">
        <ele>1020.8</ele>
        <time>2020-07-28T09:02:24Z</time>
      </trkpt>
      <trkpt lat="42.9524460" lon="0.2629350">
        <ele>1021.4</ele>
        <time>2020-07-28T09:02:27Z</time>
      </trkpt>
      <trkpt lat="42.9524160" lon="0.2630290">
        <ele>1022.2</ele>
        <time>2020-07-28T09:02:30Z</time>
      </trkpt>
      <trkpt lat="42.9523730" lon="0.2631620">
        <ele>1023.4</ele>
        <time>2020-07-28T09:02:34Z</time>
      </trkpt>
      <trkpt lat="42.9523450" lon="0.2632610">
        <ele>1024.2</ele>
        <time>2020-07-28T09:02:37Z</time>
      </trkpt>
      <trkpt lat="42.9523380" lon="0.2632920">
        <ele>1024.4</ele>
        <time>2020-07-28T09:02:38Z</time>
      </trkpt>
      <trkpt lat="42.9522890" lon="0.2634590">
        <ele>1025.8</ele>
        <time>2020-07-28T09:02:43Z</time>
      </trkpt>
      <trkpt lat="42.9522720" lon="0.2635180">
        <ele>1026.6</ele>
        <time>2020-07-28T09:02:45Z</time>
      </trkpt>
      <trkpt lat="42.9522650" lon="0.2635450">
        <ele>1026.8</ele>
        <time>2020-07-28T09:02:46Z</time>
      </trkpt>
      <trkpt lat="42.9522310" lon="0.2636700">
        <ele>1027.8</ele>
        <time>2020-07-28T09:02:50Z</time>
      </trkpt>
      <trkpt lat="42.9522220" lon="0.2637020">
        <ele>1028.2</ele>
        <time>2020-07-28T09:02:51Z</time>
      </trkpt>
      <trkpt lat="42.9522070" lon="0.2637580">
        <ele>1028.6</ele>
        <time>2020-07-28T09:02:53Z</time>
      </trkpt>
      <trkpt lat="42.9521880" lon="0.2638170">
        <ele>1029.0</ele>
        <time>2020-07-28T09:02:55Z</time>
      </trkpt>
      <trkpt lat="42.9521570" lon="0.2639130">
        <ele>1029.4</ele>
        <time>2020-07-28T09:02:58Z</time>
      </trkpt>
      <trkpt lat="42.9521280" lon="0.2639870">
        <ele>1030.0</ele>
        <time>2020-07-28T09:03:00Z</time>
      </trkpt>
      <trkpt lat="42.9520330" lon="0.2641670">
        <ele>1031.0</ele>
        <time>2020-07-28T09:03:05Z</time>
      </trkpt>
      <trkpt lat="42.9520100" lon="0.2641980">
        <ele>1031.2</ele>
        <time>2020-07-28T09:03:06Z</time>
      </trkpt>
      <trkpt lat="42.9518760" lon="0.2643470">
        <ele>1032.2</ele>
        <time>2020-07-28T09:03:11Z</time>
      </trkpt>
      <trkpt lat="42.9517680" lon="0.2644590">
        <ele>1033.4</ele>
        <time>2020-07-28T09:03:15Z</time>
      </trkpt>
      <trkpt lat="42.9517410" lon="0.2644910">
        <ele>1033.6</ele>
        <time>2020-07-28T09:03:16Z</time>
      </trkpt>
      <trkpt lat="42.9515930" lon="0.2647350">
        <ele>1034.2</ele>
        <time>2020-07-28T09:03:23Z</time>
      </trkpt>
      <trkpt lat="42.9515570" lon="0.2647950">
        <ele>1034.6</ele>
        <time>2020-07-28T09:03:25Z</time>
      </trkpt>
      <trkpt lat="42.9514870" lon="0.2649340">
        <ele>1035.4</ele>
        <time>2020-07-28T09:03:30Z</time>
      </trkpt>
      <trkpt lat="42.9514540" lon="0.2650540">
        <ele>1036.8</ele>
        <time>2020-07-28T09:03:34Z</time>
      </trkpt>
      <trkpt lat="42.9514390" lon="0.2651370">
        <ele>1037.4</ele>
        <time>2020-07-28T09:03:36Z</time>
      </trkpt>
      <trkpt lat="42.9514330" lon="0.2651750">
        <ele>1038.0</ele>
        <time>2020-07-28T09:03:37Z</time>
      </trkpt>
      <trkpt lat="42.9514260" lon="0.2652990">
        <ele>1039.0</ele>
        <time>2020-07-28T09:03:40Z</time>
      </trkpt>
      <trkpt lat="42.9514230" lon="0.2653610">
        <ele>1039.2</ele>
        <time>2020-07-28T09:03:41Z</time>
      </trkpt>
      <trkpt lat="42.9514240" lon="0.2654640">
        <ele>1040.0</ele>
        <time>2020-07-28T09:03:43Z</time>
      </trkpt>
      <trkpt lat="42.9514240" lon="0.2656520">
        <ele>1041.0</ele>
        <time>2020-07-28T09:03:47Z</time>
      </trkpt>
      <trkpt lat="42.9514230" lon="0.2657000">
        <ele>1041.2</ele>
        <time>2020-07-28T09:03:48Z</time>
      </trkpt>
      <trkpt lat="42.9514080" lon="0.2659250">
        <ele>1041.8</ele>
        <time>2020-07-28T09:03:53Z</time>
      </trkpt>
      <trkpt lat="42.9513960" lon="0.2660580">
        <ele>1042.2</ele>
        <time>2020-07-28T09:03:56Z</time>
      </trkpt>
      <trkpt lat="42.9513330" lon="0.2663210">
        <ele>1043.0</ele>
        <time>2020-07-28T09:04:02Z</time>
      </trkpt>
      <trkpt lat="42.9513200" lon="0.2663670">
        <ele>1043.2</ele>
        <time>2020-07-28T09:04:03Z</time>
      </trkpt>
      <trkpt lat="42.9512390" lon="0.2666450">
        <ele>1044.0</ele>
        <time>2020-07-28T09:04:08Z</time>
      </trkpt>
      <trkpt lat="42.9511690" lon="0.2667370">
        <ele>1044.2</ele>
        <time>2020-07-28T09:04:10Z</time>
      </trkpt>
      <trkpt lat="42.9510450" lon="0.2668330">
        <ele>1044.4</ele>
        <time>2020-07-28T09:04:13Z</time>
      </trkpt>
      <trkpt lat="42.9506090" lon="0.2671940">
        <ele>1044.8</ele>
        <time>2020-07-28T09:04:24Z</time>
      </trkpt>
      <trkpt lat="42.9505170" lon="0.2672950">
        <ele>1045.0</ele>
        <time>2020-07-28T09:04:27Z</time>
      </trkpt>
      <trkpt lat="42.9504160" lon="0.2673840">
        <ele>1046.0</ele>
        <time>2020-07-28T09:04:31Z</time>
      </trkpt>
      <trkpt lat="42.9503910" lon="0.2674010">
        <ele>1046.2</ele>
        <time>2020-07-28T09:04:32Z</time>
      </trkpt>
      <trkpt lat="42.9502920" lon="0.2674670">
        <ele>1047.4</ele>
        <time>2020-07-28T09:04:36Z</time>
      </trkpt>
      <trkpt lat="42.9502110" lon="0.2675200">
        <ele>1048.4</ele>
        <time>2020-07-28T09:04:39Z</time>
      </trkpt>
      <trkpt lat="42.9501870" lon="0.2675360">
        <ele>1048.8</ele>
        <time>2020-07-28T09:04:40Z</time>
      </trkpt>
      <trkpt lat="42.9501480" lon="0.2675680">
        <ele>1049.6</ele>
        <time>2020-07-28T09:04:42Z</time>
      </trkpt>
      <trkpt lat="42.9500760" lon="0.2676180">
        <ele>1050.6</ele>
        <time>2020-07-28T09:04:45Z</time>
      </trkpt>
      <trkpt lat="42.9500510" lon="0.2676330">
        <ele>1051.0</ele>
        <time>2020-07-28T09:04:46Z</time>
      </trkpt>
      <trkpt lat="42.9499530" lon="0.2677010">
        <ele>1052.0</ele>
        <time>2020-07-28T09:04:50Z</time>
      </trkpt>
      <trkpt lat="42.9498980" lon="0.2677670">
        <ele>1053.2</ele>
        <time>2020-07-28T09:04:53Z</time>
      </trkpt>
      <trkpt lat="42.9498620" lon="0.2678440">
        <ele>1054.2</ele>
        <time>2020-07-28T09:04:56Z</time>
      </trkpt>
      <trkpt lat="42.9498370" lon="0.2679650">
        <ele>1055.4</ele>
        <time>2020-07-28T09:05:00Z</time>
      </trkpt>
      <trkpt lat="42.9498050" lon="0.2682410">
        <ele>1056.6</ele>
        <time>2020-07-28T09:05:05Z</time>
      </trkpt>
      <trkpt lat="42.9498240" lon="0.2685070">
        <ele>1057.6</ele>
        <time>2020-07-28T09:05:11Z</time>
      </trkpt>
      <trkpt lat="42.9498470" lon="0.2687350">
        <ele>1058.8</ele>
        <time>2020-07-28T09:05:17Z</time>
      </trkpt>
      <trkpt lat="42.9498340" lon="0.2688800">
        <ele>1060.2</ele>
        <time>2020-07-28T09:05:21Z</time>
      </trkpt>
      <trkpt lat="42.9498180" lon="0.2689580">
        <ele>1060.8</ele>
        <time>2020-07-28T09:05:23Z</time>
      </trkpt>
      <trkpt lat="42.9497990" lon="0.2690300">
        <ele>1061.2</ele>
        <time>2020-07-28T09:05:25Z</time>
      </trkpt>
      <trkpt lat="42.9497210" lon="0.2692350">
        <ele>1062.6</ele>
        <time>2020-07-28T09:05:30Z</time>
      </trkpt>
      <trkpt lat="42.9496610" lon="0.2693730">
        <ele>1063.6</ele>
        <time>2020-07-28T09:05:34Z</time>
      </trkpt>
      <trkpt lat="42.9495820" lon="0.2695310">
        <ele>1064.6</ele>
        <time>2020-07-28T09:05:39Z</time>
      </trkpt>
      <trkpt lat="42.9495510" lon="0.2695910">
        <ele>1065.2</ele>
        <time>2020-07-28T09:05:41Z</time>
      </trkpt>
      <trkpt lat="42.9495180" lon="0.2696560">
        <ele>1065.6</ele>
        <time>2020-07-28T09:05:43Z</time>
      </trkpt>
      <trkpt lat="42.9494330" lon="0.2698110">
        <ele>1066.6</ele>
        <time>2020-07-28T09:05:48Z</time>
      </trkpt>
      <trkpt lat="42.9493470" lon="0.2699700">
        <ele>1067.6</ele>
        <time>2020-07-28T09:05:53Z</time>
      </trkpt>
      <trkpt lat="42.9493310" lon="0.2700010">
        <ele>1067.8</ele>
        <time>2020-07-28T09:05:54Z</time>
      </trkpt>
      <trkpt lat="42.9492180" lon="0.2701810">
        <ele>1068.6</ele>
        <time>2020-07-28T09:06:00Z</time>
      </trkpt>
      <trkpt lat="42.9491800" lon="0.2702370">
        <ele>1069.2</ele>
        <time>2020-07-28T09:06:02Z</time>
      </trkpt>
      <trkpt lat="42.9491170" lon="0.2703140">
        <ele>1069.8</ele>
        <time>2020-07-28T09:06:05Z</time>
      </trkpt>
      <trkpt lat="42.9490210" lon="0.2704080">
        <ele>1071.2</ele>
        <time>2020-07-28T09:06:09Z</time>
      </trkpt>
      <trkpt lat="42.9489670" lon="0.2704460">
        <ele>1071.6</ele>
        <time>2020-07-28T09:06:11Z</time>
      </trkpt>
      <trkpt lat="42.9488760" lon="0.2704900">
        <ele>1072.2</ele>
        <time>2020-07-28T09:06:14Z</time>
      </trkpt>
      <trkpt lat="42.9487340" lon="0.2705230">
        <ele>1073.2</ele>
        <time>2020-07-28T09:06:18Z</time>
      </trkpt>
      <trkpt lat="42.9485480" lon="0.2705300">
        <ele>1074.4</ele>
        <time>2020-07-28T09:06:23Z</time>
      </trkpt>
      <trkpt lat="42.9483590" lon="0.2705400">
        <ele>1075.2</ele>
        <time>2020-07-28T09:06:28Z</time>
      </trkpt>
      <trkpt lat="42.9482790" lon="0.2705470">
        <ele>1075.4</ele>
        <time>2020-07-28T09:06:30Z</time>
      </trkpt>
      <trkpt lat="42.9480160" lon="0.2706040">
        <ele>1076.0</ele>
        <time>2020-07-28T09:06:36Z</time>
      </trkpt>
      <trkpt lat="42.9479280" lon="0.2706320">
        <ele>1076.4</ele>
        <time>2020-07-28T09:06:38Z</time>
      </trkpt>
      <trkpt lat="42.9476440" lon="0.2707330">
        <ele>1077.2</ele>
        <time>2020-07-28T09:06:44Z</time>
      </trkpt>
      <trkpt lat="42.9474960" lon="0.2708080">
        <ele>1077.4</ele>
        <time>2020-07-28T09:06:47Z</time>
      </trkpt>
      <trkpt lat="42.9472230" lon="0.2709660">
        <ele>1077.6</ele>
        <time>2020-07-28T09:06:52Z</time>
      </trkpt>
      <trkpt lat="42.9471110" lon="0.2710360">
        <ele>1077.6</ele>
        <time>2020-07-28T09:06:54Z</time>
      </trkpt>
      <trkpt lat="42.9467920" lon="0.2713140">
        <ele>1077.6</ele>
        <time>2020-07-28T09:07:00Z</time>
      </trkpt>
      <trkpt lat="42.9463050" lon="0.2717850">
        <ele>1076.2</ele>
        <time>2020-07-28T09:07:09Z</time>
      </trkpt>
      <trkpt lat="42.9461350" lon="0.2719250">
        <ele>1075.8</ele>
        <time>2020-07-28T09:07:12Z</time>
      </trkpt>
      <trkpt lat="42.9459500" lon="0.2720430">
        <ele>1075.4</ele>
        <time>2020-07-28T09:07:15Z</time>
      </trkpt>
      <trkpt lat="42.9457810" lon="0.2721860">
        <ele>1075.2</ele>
        <time>2020-07-28T09:07:18Z</time>
      </trkpt>
      <trkpt lat="42.9456950" lon="0.2723130">
        <ele>1075.0</ele>
        <time>2020-07-28T09:07:20Z</time>
      </trkpt>
      <trkpt lat="42.9455010" lon="0.2727680">
        <ele>1075.0</ele>
        <time>2020-07-28T09:07:26Z</time>
      </trkpt>
      <trkpt lat="42.9453410" lon="0.2733710">
        <ele>1075.8</ele>
        <time>2020-07-28T09:07:33Z</time>
      </trkpt>
      <trkpt lat="42.9451280" lon="0.2741130">
        <ele>1076.4</ele>
        <time>2020-07-28T09:07:42Z</time>
      </trkpt>
      <trkpt lat="42.9450970" lon="0.2741910">
        <ele>1076.4</ele>
        <time>2020-07-28T09:07:43Z</time>
      </trkpt>
      <trkpt lat="42.9448200" lon="0.2748460">
        <ele>1076.8</ele>
        <time>2020-07-28T09:07:52Z</time>
      </trkpt>
      <trkpt lat="42.9447100" lon="0.2752690">
        <ele>1077.0</ele>
        <time>2020-07-28T09:07:58Z</time>
      </trkpt>
      <trkpt lat="42.9446540" lon="0.2756320">
        <ele>1078.0</ele>
        <time>2020-07-28T09:08:03Z</time>
      </trkpt>
      <trkpt lat="42.9446010" lon="0.2758620">
        <ele>1078.6</ele>
        <time>2020-07-28T09:08:06Z</time>
      </trkpt>
      <trkpt lat="42.9444490" lon="0.2762210">
        <ele>1078.8</ele>
        <time>2020-07-28T09:08:11Z</time>
      </trkpt>
      <trkpt lat="42.9441410" lon="0.2766330">
        <ele>1079.0</ele>
        <time>2020-07-28T09:08:18Z</time>
      </trkpt>
      <trkpt lat="42.9439210" lon="0.2770420">
        <ele>1079.0</ele>
        <time>2020-07-28T09:08:24Z</time>
      </trkpt>
      <trkpt lat="42.9437250" lon="0.2776020">
        <ele>1079.4</ele>
        <time>2020-07-28T09:08:32Z</time>
      </trkpt>
      <trkpt lat="42.9436640" lon="0.2777970">
        <ele>1080.0</ele>
        <time>2020-07-28T09:08:35Z</time>
      </trkpt>
      <trkpt lat="42.9435910" lon="0.2781310">
        <ele>1080.8</ele>
        <time>2020-07-28T09:08:40Z</time>
      </trkpt>
      <trkpt lat="42.9435810" lon="0.2782740">
        <ele>1081.0</ele>
        <time>2020-07-28T09:08:42Z</time>
      </trkpt>
      <trkpt lat="42.9435900" lon="0.2785710">
        <ele>1081.4</ele>
        <time>2020-07-28T09:08:46Z</time>
      </trkpt>
      <trkpt lat="42.9436280" lon="0.2790870">
        <ele>1082.0</ele>
        <time>2020-07-28T09:08:53Z</time>
      </trkpt>
      <trkpt lat="42.9436470" lon="0.2793600">
        <ele>1082.2</ele>
        <time>2020-07-28T09:08:57Z</time>
      </trkpt>
      <trkpt lat="42.9436440" lon="0.2797480">
        <ele>1082.8</ele>
        <time>2020-07-28T09:09:03Z</time>
      </trkpt>
      <trkpt lat="42.9436350" lon="0.2798160">
        <ele>1083.2</ele>
        <time>2020-07-28T09:09:04Z</time>
      </trkpt>
      <trkpt lat="42.9435090" lon="0.2802730">
        <ele>1083.8</ele>
        <time>2020-07-28T09:09:11Z</time>
      </trkpt>
      <trkpt lat="42.9434870" lon="0.2803360">
        <ele>1084.0</ele>
        <time>2020-07-28T09:09:12Z</time>
      </trkpt>
      <trkpt lat="42.9434180" lon="0.2806810">
        <ele>1084.0</ele>
        <time>2020-07-28T09:09:17Z</time>
      </trkpt>
      <trkpt lat="42.9433040" lon="0.2812740">
        <ele>1084.6</ele>
        <time>2020-07-28T09:09:25Z</time>
      </trkpt>
      <trkpt lat="42.9431420" lon="0.2816020">
        <ele>1084.8</ele>
        <time>2020-07-28T09:09:30Z</time>
      </trkpt>
      <trkpt lat="42.9429430" lon="0.2819720">
        <ele>1084.8</ele>
        <time>2020-07-28T09:09:36Z</time>
      </trkpt>
      <trkpt lat="42.9428870" lon="0.2821050">
        <ele>1084.8</ele>
        <time>2020-07-28T09:09:38Z</time>
      </trkpt>
      <trkpt lat="42.9428410" lon="0.2822460">
        <ele>1085.2</ele>
        <time>2020-07-28T09:09:40Z</time>
      </trkpt>
      <trkpt lat="42.9428040" lon="0.2824750">
        <ele>1085.8</ele>
        <time>2020-07-28T09:09:43Z</time>
      </trkpt>
      <trkpt lat="42.9427860" lon="0.2830870">
        <ele>1086.4</ele>
        <time>2020-07-28T09:09:51Z</time>
      </trkpt>
      <trkpt lat="42.9428030" lon="0.2834570">
        <ele>1086.8</ele>
        <time>2020-07-28T09:09:56Z</time>
      </trkpt>
      <trkpt lat="42.9428110" lon="0.2837340">
        <ele>1086.8</ele>
        <time>2020-07-28T09:10:00Z</time>
      </trkpt>
      <trkpt lat="42.9428200" lon="0.2842070">
        <ele>1087.8</ele>
        <time>2020-07-28T09:10:07Z</time>
      </trkpt>
      <trkpt lat="42.9428220" lon="0.2842710">
        <ele>1088.0</ele>
        <time>2020-07-28T09:10:08Z</time>
      </trkpt>
      <trkpt lat="42.9428310" lon="0.2847130">
        <ele>1088.8</ele>
        <time>2020-07-28T09:10:15Z</time>
      </trkpt>
      <trkpt lat="42.9428480" lon="0.2849520">
        <ele>1089.2</ele>
        <time>2020-07-28T09:10:19Z</time>
      </trkpt>
      <trkpt lat="42.9428680" lon="0.2851290">
        <ele>1089.8</ele>
        <time>2020-07-28T09:10:22Z</time>
      </trkpt>
      <trkpt lat="42.9429160" lon="0.2853610">
        <ele>1090.4</ele>
        <time>2020-07-28T09:10:26Z</time>
      </trkpt>
      <trkpt lat="42.9429350" lon="0.2854150">
        <ele>1090.6</ele>
        <time>2020-07-28T09:10:27Z</time>
      </trkpt>
      <trkpt lat="42.9429570" lon="0.2854650">
        <ele>1090.8</ele>
        <time>2020-07-28T09:10:28Z</time>
      </trkpt>
      <trkpt lat="42.9431040" lon="0.2857420">
        <ele>1091.6</ele>
        <time>2020-07-28T09:10:34Z</time>
      </trkpt>
      <trkpt lat="42.9431490" lon="0.2858270">
        <ele>1091.8</ele>
        <time>2020-07-28T09:10:36Z</time>
      </trkpt>
      <trkpt lat="42.9432450" lon="0.2859670">
        <ele>1092.2</ele>
        <time>2020-07-28T09:10:40Z</time>
      </trkpt>
      <trkpt lat="42.9433390" lon="0.2861560">
        <ele>1092.8</ele>
        <time>2020-07-28T09:10:45Z</time>
      </trkpt>
      <trkpt lat="42.9433590" lon="0.2862050">
        <ele>1092.8</ele>
        <time>2020-07-28T09:10:46Z</time>
      </trkpt>
      <trkpt lat="42.9434880" lon="0.2864440">
        <ele>1093.2</ele>
        <time>2020-07-28T09:10:51Z</time>
      </trkpt>
      <trkpt lat="42.9436970" lon="0.2868120">
        <ele>1093.8</ele>
        <time>2020-07-28T09:10:59Z</time>
      </trkpt>
      <trkpt lat="42.9437230" lon="0.2868590">
        <ele>1093.8</ele>
        <time>2020-07-28T09:11:00Z</time>
      </trkpt>
      <trkpt lat="42.9438510" lon="0.2870790">
        <ele>1094.8</ele>
        <time>2020-07-28T09:11:05Z</time>
      </trkpt>
      <trkpt lat="42.9439730" lon="0.2872960">
        <ele>1095.2</ele>
        <time>2020-07-28T09:11:10Z</time>
      </trkpt>
      <trkpt lat="42.9440710" lon="0.2874580">
        <ele>1095.8</ele>
        <time>2020-07-28T09:11:14Z</time>
      </trkpt>
      <trkpt lat="42.9442040" lon="0.2877160">
        <ele>1097.0</ele>
        <time>2020-07-28T09:11:20Z</time>
      </trkpt>
      <trkpt lat="42.9443130" lon="0.2880360">
        <ele>1098.0</ele>
        <time>2020-07-28T09:11:27Z</time>
      </trkpt>
      <trkpt lat="42.9443350" lon="0.2883520">
        <ele>1099.2</ele>
        <time>2020-07-28T09:11:34Z</time>
      </trkpt>
      <trkpt lat="42.9443240" lon="0.2885610">
        <ele>1100.2</ele>
        <time>2020-07-28T09:11:39Z</time>
      </trkpt>
      <trkpt lat="42.9443010" lon="0.2887130">
        <ele>1101.4</ele>
        <time>2020-07-28T09:11:43Z</time>
      </trkpt>
      <trkpt lat="42.9442930" lon="0.2887500">
        <ele>1101.6</ele>
        <time>2020-07-28T09:11:44Z</time>
      </trkpt>
      <trkpt lat="42.9442490" lon="0.2888820">
        <ele>1102.6</ele>
        <time>2020-07-28T09:11:48Z</time>
      </trkpt>
      <trkpt lat="42.9442030" lon="0.2889660">
        <ele>1102.8</ele>
        <time>2020-07-28T09:11:51Z</time>
      </trkpt>
      <trkpt lat="42.9441450" lon="0.2890310">
        <ele>1103.4</ele>
        <time>2020-07-28T09:11:54Z</time>
      </trkpt>
      <trkpt lat="42.9440670" lon="0.2890580">
        <ele>1104.6</ele>
        <time>2020-07-28T09:11:57Z</time>
      </trkpt>
      <trkpt lat="42.9439410" lon="0.2890080">
        <ele>1105.6</ele>
        <time>2020-07-28T09:12:02Z</time>
      </trkpt>
      <trkpt lat="42.9438150" lon="0.2888930">
        <ele>1106.8</ele>
        <time>2020-07-28T09:12:08Z</time>
      </trkpt>
      <trkpt lat="42.9437320" lon="0.2888120">
        <ele>1107.4</ele>
        <time>2020-07-28T09:12:12Z</time>
      </trkpt>
      <trkpt lat="42.9436880" lon="0.2887760">
        <ele>1107.8</ele>
        <time>2020-07-28T09:12:14Z</time>
      </trkpt>
      <trkpt lat="42.9435470" lon="0.2886700">
        <ele>1108.8</ele>
        <time>2020-07-28T09:12:20Z</time>
      </trkpt>
      <trkpt lat="42.9434960" lon="0.2886500">
        <ele>1109.4</ele>
        <time>2020-07-28T09:12:22Z</time>
      </trkpt>
      <trkpt lat="42.9434490" lon="0.2886110">
        <ele>1109.8</ele>
        <time>2020-07-28T09:12:24Z</time>
      </trkpt>
      <trkpt lat="42.9433530" lon="0.2885490">
        <ele>1111.0</ele>
        <time>2020-07-28T09:12:28Z</time>
      </trkpt>
      <trkpt lat="42.9432030" lon="0.2884960">
        <ele>1112.2</ele>
        <time>2020-07-28T09:12:34Z</time>
      </trkpt>
      <trkpt lat="42.9431050" lon="0.2884750">
        <ele>1113.2</ele>
        <time>2020-07-28T09:12:38Z</time>
      </trkpt>
      <trkpt lat="42.9430550" lon="0.2884640">
        <ele>1113.6</ele>
        <time>2020-07-28T09:12:40Z</time>
      </trkpt>
      <trkpt lat="42.9429520" lon="0.2884460">
        <ele>1114.4</ele>
        <time>2020-07-28T09:12:44Z</time>
      </trkpt>
      <trkpt lat="42.9427970" lon="0.2884170">
        <ele>1115.6</ele>
        <time>2020-07-28T09:12:50Z</time>
      </trkpt>
      <trkpt lat="42.9427720" lon="0.2884130">
        <ele>1115.8</ele>
        <time>2020-07-28T09:12:51Z</time>
      </trkpt>
      <trkpt lat="42.9426700" lon="0.2884050">
        <ele>1116.8</ele>
        <time>2020-07-28T09:12:55Z</time>
      </trkpt>
      <trkpt lat="42.9425700" lon="0.2883900">
        <ele>1117.6</ele>
        <time>2020-07-28T09:12:59Z</time>
      </trkpt>
      <trkpt lat="42.9425440" lon="0.2883860">
        <ele>1117.8</ele>
        <time>2020-07-28T09:13:00Z</time>
      </trkpt>
      <trkpt lat="42.9424170" lon="0.2884080">
        <ele>1119.0</ele>
        <time>2020-07-28T09:13:05Z</time>
      </trkpt>
      <trkpt lat="42.9422620" lon="0.2884390">
        <ele>1120.2</ele>
        <time>2020-07-28T09:13:11Z</time>
      </trkpt>
      <trkpt lat="42.9422360" lon="0.2884500">
        <ele>1120.4</ele>
        <time>2020-07-28T09:13:12Z</time>
      </trkpt>
      <trkpt lat="42.9421610" lon="0.2884800">
        <ele>1121.2</ele>
        <time>2020-07-28T09:13:15Z</time>
      </trkpt>
      <trkpt lat="42.9420870" lon="0.2885140">
        <ele>1122.4</ele>
        <time>2020-07-28T09:13:18Z</time>
      </trkpt>
      <trkpt lat="42.9420120" lon="0.2885440">
        <ele>1123.4</ele>
        <time>2020-07-28T09:13:21Z</time>
      </trkpt>
      <trkpt lat="42.9419870" lon="0.2885520">
        <ele>1123.6</ele>
        <time>2020-07-28T09:13:22Z</time>
      </trkpt>
      <trkpt lat="42.9418860" lon="0.2885900">
        <ele>1124.6</ele>
        <time>2020-07-28T09:13:26Z</time>
      </trkpt>
      <trkpt lat="42.9417660" lon="0.2886520">
        <ele>1125.6</ele>
        <time>2020-07-28T09:13:31Z</time>
      </trkpt>
      <trkpt lat="42.9417420" lon="0.2886660">
        <ele>1125.8</ele>
        <time>2020-07-28T09:13:32Z</time>
      </trkpt>
      <trkpt lat="42.9416260" lon="0.2887270">
        <ele>1126.8</ele>
        <time>2020-07-28T09:13:37Z</time>
      </trkpt>
      <trkpt lat="42.9415390" lon="0.2887880">
        <ele>1127.4</ele>
        <time>2020-07-28T09:13:41Z</time>
      </trkpt>
      <trkpt lat="42.9414960" lon="0.2888220">
        <ele>1127.8</ele>
        <time>2020-07-28T09:13:43Z</time>
      </trkpt>
      <trkpt lat="42.9413900" lon="0.2889030">
        <ele>1128.8</ele>
        <time>2020-07-28T09:13:48Z</time>
      </trkpt>
      <trkpt lat="42.9413290" lon="0.2889570">
        <ele>1129.4</ele>
        <time>2020-07-28T09:13:51Z</time>
      </trkpt>
      <trkpt lat="42.9412690" lon="0.2890160">
        <ele>1130.0</ele>
        <time>2020-07-28T09:13:54Z</time>
      </trkpt>
      <trkpt lat="42.9411890" lon="0.2891000">
        <ele>1131.2</ele>
        <time>2020-07-28T09:13:58Z</time>
      </trkpt>
      <trkpt lat="42.9411140" lon="0.2891890">
        <ele>1131.8</ele>
        <time>2020-07-28T09:14:02Z</time>
      </trkpt>
      <trkpt lat="42.9410700" lon="0.2892650">
        <ele>1132.4</ele>
        <time>2020-07-28T09:14:05Z</time>
      </trkpt>
      <trkpt lat="42.9410070" lon="0.2893730">
        <ele>1133.4</ele>
        <time>2020-07-28T09:14:09Z</time>
      </trkpt>
      <trkpt lat="42.9409390" lon="0.2895100">
        <ele>1134.4</ele>
        <time>2020-07-28T09:14:14Z</time>
      </trkpt>
      <trkpt lat="42.9409200" lon="0.2895740">
        <ele>1134.8</ele>
        <time>2020-07-28T09:14:16Z</time>
      </trkpt>
      <trkpt lat="42.9408850" lon="0.2896690">
        <ele>1135.6</ele>
        <time>2020-07-28T09:14:19Z</time>
      </trkpt>
      <trkpt lat="42.9408280" lon="0.2898260">
        <ele>1136.6</ele>
        <time>2020-07-28T09:14:24Z</time>
      </trkpt>
      <trkpt lat="42.9408070" lon="0.2898890">
        <ele>1137.2</ele>
        <time>2020-07-28T09:14:26Z</time>
      </trkpt>
      <trkpt lat="42.9407850" lon="0.2899520">
        <ele>1137.6</ele>
        <time>2020-07-28T09:14:28Z</time>
      </trkpt>
      <trkpt lat="42.9407270" lon="0.2901120">
        <ele>1138.6</ele>
        <time>2020-07-28T09:14:33Z</time>
      </trkpt>
      <trkpt lat="42.9407170" lon="0.2901450">
        <ele>1138.8</ele>
        <time>2020-07-28T09:14:34Z</time>
      </trkpt>
      <trkpt lat="42.9406830" lon="0.2903170">
        <ele>1139.8</ele>
        <time>2020-07-28T09:14:39Z</time>
      </trkpt>
      <trkpt lat="42.9406840" lon="0.2903900">
        <ele>1140.2</ele>
        <time>2020-07-28T09:14:41Z</time>
      </trkpt>
      <trkpt lat="42.9407090" lon="0.2904860">
        <ele>1140.8</ele>
        <time>2020-07-28T09:14:44Z</time>
      </trkpt>
      <trkpt lat="42.9407470" lon="0.2905250">
        <ele>1141.2</ele>
        <time>2020-07-28T09:14:46Z</time>
      </trkpt>
      <trkpt lat="42.9408240" lon="0.2905390">
        <ele>1142.0</ele>
        <time>2020-07-28T09:14:49Z</time>
      </trkpt>
      <trkpt lat="42.9408710" lon="0.2905190">
        <ele>1142.6</ele>
        <time>2020-07-28T09:14:51Z</time>
      </trkpt>
      <trkpt lat="42.9409110" lon="0.2904790">
        <ele>1142.8</ele>
        <time>2020-07-28T09:14:53Z</time>
      </trkpt>
      <trkpt lat="42.9410080" lon="0.2903830">
        <ele>1144.0</ele>
        <time>2020-07-28T09:14:58Z</time>
      </trkpt>
      <trkpt lat="42.9410910" lon="0.2903040">
        <ele>1145.0</ele>
        <time>2020-07-28T09:15:02Z</time>
      </trkpt>
      <trkpt lat="42.9411550" lon="0.2902570">
        <ele>1146.0</ele>
        <time>2020-07-28T09:15:05Z</time>
      </trkpt>
      <trkpt lat="42.9411790" lon="0.2902470">
        <ele>1146.2</ele>
        <time>2020-07-28T09:15:06Z</time>
      </trkpt>
      <trkpt lat="42.9412980" lon="0.2901970">
        <ele>1147.2</ele>
        <time>2020-07-28T09:15:11Z</time>
      </trkpt>
      <trkpt lat="42.9413190" lon="0.2901840">
        <ele>1147.4</ele>
        <time>2020-07-28T09:15:12Z</time>
      </trkpt>
      <trkpt lat="42.9414320" lon="0.2901410">
        <ele>1148.4</ele>
        <time>2020-07-28T09:15:17Z</time>
      </trkpt>
      <trkpt lat="42.9415360" lon="0.2901340">
        <ele>1149.0</ele>
        <time>2020-07-28T09:15:21Z</time>
      </trkpt>
      <trkpt lat="42.9415890" lon="0.2901330">
        <ele>1149.8</ele>
        <time>2020-07-28T09:15:23Z</time>
      </trkpt>
      <trkpt lat="42.9416860" lon="0.2901500">
        <ele>1150.8</ele>
        <time>2020-07-28T09:15:27Z</time>
      </trkpt>
      <trkpt lat="42.9417120" lon="0.2901540">
        <ele>1151.0</ele>
        <time>2020-07-28T09:15:28Z</time>
      </trkpt>
      <trkpt lat="42.9418210" lon="0.2901770">
        <ele>1151.6</ele>
        <time>2020-07-28T09:15:32Z</time>
      </trkpt>
      <trkpt lat="42.9419240" lon="0.2901860">
        <ele>1152.6</ele>
        <time>2020-07-28T09:15:36Z</time>
      </trkpt>
      <trkpt lat="42.9419490" lon="0.2901910">
        <ele>1153.0</ele>
        <time>2020-07-28T09:15:37Z</time>
      </trkpt>
      <trkpt lat="42.9420750" lon="0.2902080">
        <ele>1154.2</ele>
        <time>2020-07-28T09:15:42Z</time>
      </trkpt>
      <trkpt lat="42.9421270" lon="0.2902120">
        <ele>1154.4</ele>
        <time>2020-07-28T09:15:44Z</time>
      </trkpt>
      <trkpt lat="42.9422250" lon="0.2902130">
        <ele>1155.2</ele>
        <time>2020-07-28T09:15:48Z</time>
      </trkpt>
      <trkpt lat="42.9422500" lon="0.2902120">
        <ele>1155.4</ele>
        <time>2020-07-28T09:15:49Z</time>
      </trkpt>
      <trkpt lat="42.9423500" lon="0.2902200">
        <ele>1156.4</ele>
        <time>2020-07-28T09:15:53Z</time>
      </trkpt>
      <trkpt lat="42.9424260" lon="0.2902330">
        <ele>1157.2</ele>
        <time>2020-07-28T09:15:56Z</time>
      </trkpt>
      <trkpt lat="42.9424780" lon="0.2902360">
        <ele>1157.6</ele>
        <time>2020-07-28T09:15:58Z</time>
      </trkpt>
      <trkpt lat="42.9425820" lon="0.2902570">
        <ele>1158.6</ele>
        <time>2020-07-28T09:16:02Z</time>
      </trkpt>
      <trkpt lat="42.9426080" lon="0.2902470">
        <ele>1158.8</ele>
        <time>2020-07-28T09:16:03Z</time>
      </trkpt>
      <trkpt lat="42.9427150" lon="0.2902730">
        <ele>1159.4</ele>
        <time>2020-07-28T09:16:07Z</time>
      </trkpt>
      <trkpt lat="42.9427530" lon="0.2903630">
        <ele>1159.8</ele>
        <time>2020-07-28T09:16:10Z</time>
      </trkpt>
      <trkpt lat="42.9427510" lon="0.2903940">
        <ele>1160.0</ele>
        <time>2020-07-28T09:16:11Z</time>
      </trkpt>
      <trkpt lat="42.9426980" lon="0.2904840">
        <ele>1160.8</ele>
        <time>2020-07-28T09:16:15Z</time>
      </trkpt>
      <trkpt lat="42.9426760" lon="0.2904920">
        <ele>1161.0</ele>
        <time>2020-07-28T09:16:16Z</time>
      </trkpt>
      <trkpt lat="42.9425840" lon="0.2905140">
        <ele>1162.4</ele>
        <time>2020-07-28T09:16:21Z</time>
      </trkpt>
      <trkpt lat="42.9425300" lon="0.2905120">
        <ele>1163.4</ele>
        <time>2020-07-28T09:16:24Z</time>
      </trkpt>
      <trkpt lat="42.9424300" lon="0.2905250">
        <ele>1164.0</ele>
        <time>2020-07-28T09:16:28Z</time>
      </trkpt>
      <trkpt lat="42.9424030" lon="0.2905290">
        <ele>1164.4</ele>
        <time>2020-07-28T09:16:29Z</time>
      </trkpt>
      <trkpt lat="42.9423770" lon="0.2905360">
        <ele>1164.6</ele>
        <time>2020-07-28T09:16:30Z</time>
      </trkpt>
      <trkpt lat="42.9423290" lon="0.2905340">
        <ele>1165.2</ele>
        <time>2020-07-28T09:16:32Z</time>
      </trkpt>
      <trkpt lat="42.9422920" lon="0.2905210">
        <ele>1165.4</ele>
        <time>2020-07-28T09:16:33Z</time>
      </trkpt>
      <trkpt lat="42.9422330" lon="0.2905160">
        <ele>1165.8</ele>
        <time>2020-07-28T09:16:35Z</time>
      </trkpt>
      <trkpt lat="42.9421590" lon="0.2905400">
        <ele>1166.6</ele>
        <time>2020-07-28T09:16:38Z</time>
      </trkpt>
      <trkpt lat="42.9420050" lon="0.2906500">
        <ele>1167.6</ele>
        <time>2020-07-28T09:16:44Z</time>
      </trkpt>
      <trkpt lat="42.9418940" lon="0.2907540">
        <ele>1168.8</ele>
        <time>2020-07-28T09:16:49Z</time>
      </trkpt>
      <trkpt lat="42.9418340" lon="0.2908230">
        <ele>1169.6</ele>
        <time>2020-07-28T09:16:52Z</time>
      </trkpt>
      <trkpt lat="42.9418150" lon="0.2908470">
        <ele>1169.8</ele>
        <time>2020-07-28T09:16:53Z</time>
      </trkpt>
      <trkpt lat="42.9417150" lon="0.2909640">
        <ele>1171.0</ele>
        <time>2020-07-28T09:16:58Z</time>
      </trkpt>
      <trkpt lat="42.9416950" lon="0.2909870">
        <ele>1171.2</ele>
        <time>2020-07-28T09:16:59Z</time>
      </trkpt>
      <trkpt lat="42.9416000" lon="0.2911150">
        <ele>1172.2</ele>
        <time>2020-07-28T09:17:04Z</time>
      </trkpt>
      <trkpt lat="42.9415540" lon="0.2911980">
        <ele>1173.0</ele>
        <time>2020-07-28T09:17:07Z</time>
      </trkpt>
      <trkpt lat="42.9415370" lon="0.2912240">
        <ele>1173.4</ele>
        <time>2020-07-28T09:17:08Z</time>
      </trkpt>
      <trkpt lat="42.9414560" lon="0.2913450">
        <ele>1174.4</ele>
        <time>2020-07-28T09:17:13Z</time>
      </trkpt>
      <trkpt lat="42.9414400" lon="0.2913720">
        <ele>1174.8</ele>
        <time>2020-07-28T09:17:14Z</time>
      </trkpt>
      <trkpt lat="42.9413770" lon="0.2914840">
        <ele>1175.6</ele>
        <time>2020-07-28T09:17:18Z</time>
      </trkpt>
      <trkpt lat="42.9413100" lon="0.2915950">
        <ele>1176.8</ele>
        <time>2020-07-28T09:17:22Z</time>
      </trkpt>
      <trkpt lat="42.9412960" lon="0.2916260">
        <ele>1176.8</ele>
        <time>2020-07-28T09:17:23Z</time>
      </trkpt>
      <trkpt lat="42.9412270" lon="0.2917960">
        <ele>1177.8</ele>
        <time>2020-07-28T09:17:28Z</time>
      </trkpt>
      <trkpt lat="42.9411780" lon="0.2918740">
        <ele>1178.6</ele>
        <time>2020-07-28T09:17:31Z</time>
      </trkpt>
      <trkpt lat="42.9411440" lon="0.2919190">
        <ele>1178.8</ele>
        <time>2020-07-28T09:17:33Z</time>
      </trkpt>
      <trkpt lat="42.9410570" lon="0.2920490">
        <ele>1180.0</ele>
        <time>2020-07-28T09:17:39Z</time>
      </trkpt>
      <trkpt lat="42.9410440" lon="0.2920800">
        <ele>1180.4</ele>
        <time>2020-07-28T09:17:40Z</time>
      </trkpt>
      <trkpt lat="42.9409790" lon="0.2922060">
        <ele>1181.2</ele>
        <time>2020-07-28T09:17:44Z</time>
      </trkpt>
      <trkpt lat="42.9409560" lon="0.2922600">
        <ele>1181.8</ele>
        <time>2020-07-28T09:17:46Z</time>
      </trkpt>
      <trkpt lat="42.9409240" lon="0.2923510">
        <ele>1182.4</ele>
        <time>2020-07-28T09:17:49Z</time>
      </trkpt>
      <trkpt lat="42.9409070" lon="0.2923830">
        <ele>1182.8</ele>
        <time>2020-07-28T09:17:50Z</time>
      </trkpt>
      <trkpt lat="42.9408910" lon="0.2924180">
        <ele>1183.0</ele>
        <time>2020-07-28T09:17:51Z</time>
      </trkpt>
      <trkpt lat="42.9408760" lon="0.2924490">
        <ele>1183.4</ele>
        <time>2020-07-28T09:17:52Z</time>
      </trkpt>
      <trkpt lat="42.9407810" lon="0.2926030">
        <ele>1184.2</ele>
        <time>2020-07-28T09:17:58Z</time>
      </trkpt>
      <trkpt lat="42.9406900" lon="0.2927320">
        <ele>1185.4</ele>
        <time>2020-07-28T09:18:03Z</time>
      </trkpt>
      <trkpt lat="42.9406060" lon="0.2928260">
        <ele>1186.4</ele>
        <time>2020-07-28T09:18:07Z</time>
      </trkpt>
      <trkpt lat="42.9404940" lon="0.2929430">
        <ele>1187.6</ele>
        <time>2020-07-28T09:18:12Z</time>
      </trkpt>
      <trkpt lat="42.9404340" lon="0.2930230">
        <ele>1188.4</ele>
        <time>2020-07-28T09:18:15Z</time>
      </trkpt>
      <trkpt lat="42.9404160" lon="0.2930930">
        <ele>1189.0</ele>
        <time>2020-07-28T09:18:17Z</time>
      </trkpt>
      <trkpt lat="42.9404230" lon="0.2932030">
        <ele>1190.0</ele>
        <time>2020-07-28T09:18:20Z</time>
      </trkpt>
      <trkpt lat="42.9404610" lon="0.2932770">
        <ele>1190.6</ele>
        <time>2020-07-28T09:18:23Z</time>
      </trkpt>
      <trkpt lat="42.9404820" lon="0.2932820">
        <ele>1190.8</ele>
        <time>2020-07-28T09:18:24Z</time>
      </trkpt>
      <trkpt lat="42.9405060" lon="0.2932800">
        <ele>1191.0</ele>
        <time>2020-07-28T09:18:25Z</time>
      </trkpt>
      <trkpt lat="42.9405810" lon="0.2932550">
        <ele>1191.8</ele>
        <time>2020-07-28T09:18:28Z</time>
      </trkpt>
      <trkpt lat="42.9406040" lon="0.2932430">
        <ele>1191.8</ele>
        <time>2020-07-28T09:18:29Z</time>
      </trkpt>
      <trkpt lat="42.9406850" lon="0.2931660">
        <ele>1193.0</ele>
        <time>2020-07-28T09:18:33Z</time>
      </trkpt>
      <trkpt lat="42.9407260" lon="0.2931380">
        <ele>1193.2</ele>
        <time>2020-07-28T09:18:35Z</time>
      </trkpt>
      <trkpt lat="42.9408170" lon="0.2930970">
        <ele>1194.0</ele>
        <time>2020-07-28T09:18:39Z</time>
      </trkpt>
      <trkpt lat="42.9408330" lon="0.2930770">
        <ele>1194.2</ele>
        <time>2020-07-28T09:18:40Z</time>
      </trkpt>
      <trkpt lat="42.9409550" lon="0.2929670">
        <ele>1195.0</ele>
        <time>2020-07-28T09:18:46Z</time>
      </trkpt>
      <trkpt lat="42.9410290" lon="0.2929200">
        <ele>1196.0</ele>
        <time>2020-07-28T09:18:49Z</time>
      </trkpt>
      <trkpt lat="42.9411280" lon="0.2928720">
        <ele>1196.8</ele>
        <time>2020-07-28T09:18:53Z</time>
      </trkpt>
      <trkpt lat="42.9411560" lon="0.2928630">
        <ele>1197.0</ele>
        <time>2020-07-28T09:18:54Z</time>
      </trkpt>
      <trkpt lat="42.9412510" lon="0.2928270">
        <ele>1198.2</ele>
        <time>2020-07-28T09:18:58Z</time>
      </trkpt>
      <trkpt lat="42.9412740" lon="0.2928140">
        <ele>1198.4</ele>
        <time>2020-07-28T09:18:59Z</time>
      </trkpt>
      <trkpt lat="42.9413700" lon="0.2927520">
        <ele>1199.4</ele>
        <time>2020-07-28T09:19:03Z</time>
      </trkpt>
      <trkpt lat="42.9413920" lon="0.2927390">
        <ele>1199.8</ele>
        <time>2020-07-28T09:19:04Z</time>
      </trkpt>
      <trkpt lat="42.9414660" lon="0.2927140">
        <ele>1200.4</ele>
        <time>2020-07-28T09:19:07Z</time>
      </trkpt>
      <trkpt lat="42.9415950" lon="0.2926710">
        <ele>1201.4</ele>
        <time>2020-07-28T09:19:12Z</time>
      </trkpt>
      <trkpt lat="42.9416450" lon="0.2926580">
        <ele>1201.8</ele>
        <time>2020-07-28T09:19:14Z</time>
      </trkpt>
      <trkpt lat="42.9417300" lon="0.2926460">
        <ele>1202.6</ele>
        <time>2020-07-28T09:19:17Z</time>
      </trkpt>
      <trkpt lat="42.9418070" lon="0.2926170">
        <ele>1203.4</ele>
        <time>2020-07-28T09:19:20Z</time>
      </trkpt>
      <trkpt lat="42.9419310" lon="0.2925800">
        <ele>1204.4</ele>
        <time>2020-07-28T09:19:25Z</time>
      </trkpt>
      <trkpt lat="42.9420280" lon="0.2925340">
        <ele>1205.2</ele>
        <time>2020-07-28T09:19:29Z</time>
      </trkpt>
      <trkpt lat="42.9420550" lon="0.2925250">
        <ele>1205.4</ele>
        <time>2020-07-28T09:19:30Z</time>
      </trkpt>
      <trkpt lat="42.9421850" lon="0.2924920">
        <ele>1206.6</ele>
        <time>2020-07-28T09:19:35Z</time>
      </trkpt>
      <trkpt lat="42.9422120" lon="0.2924830">
        <ele>1207.0</ele>
        <time>2020-07-28T09:19:36Z</time>
      </trkpt>
      <trkpt lat="42.9422900" lon="0.2924590">
        <ele>1207.6</ele>
        <time>2020-07-28T09:19:39Z</time>
      </trkpt>
      <trkpt lat="42.9424000" lon="0.2924710">
        <ele>1208.8</ele>
        <time>2020-07-28T09:19:43Z</time>
      </trkpt>
      <trkpt lat="42.9424940" lon="0.2925950">
        <ele>1209.6</ele>
        <time>2020-07-28T09:19:48Z</time>
      </trkpt>
      <trkpt lat="42.9424690" lon="0.2927720">
        <ele>1210.6</ele>
        <time>2020-07-28T09:19:53Z</time>
      </trkpt>
      <trkpt lat="42.9423710" lon="0.2928880">
        <ele>1211.8</ele>
        <time>2020-07-28T09:19:58Z</time>
      </trkpt>
      <trkpt lat="42.9423260" lon="0.2929130">
        <ele>1212.2</ele>
        <time>2020-07-28T09:20:00Z</time>
      </trkpt>
      <trkpt lat="42.9422550" lon="0.2929420">
        <ele>1213.0</ele>
        <time>2020-07-28T09:20:03Z</time>
      </trkpt>
      <trkpt lat="42.9421410" lon="0.2930030">
        <ele>1214.0</ele>
        <time>2020-07-28T09:20:08Z</time>
      </trkpt>
      <trkpt lat="42.9421190" lon="0.2930160">
        <ele>1214.2</ele>
        <time>2020-07-28T09:20:09Z</time>
      </trkpt>
      <trkpt lat="42.9420520" lon="0.2930620">
        <ele>1215.2</ele>
        <time>2020-07-28T09:20:12Z</time>
      </trkpt>
      <trkpt lat="42.9419750" lon="0.2931370">
        <ele>1216.2</ele>
        <time>2020-07-28T09:20:16Z</time>
      </trkpt>
      <trkpt lat="42.9419100" lon="0.2932010">
        <ele>1217.2</ele>
        <time>2020-07-28T09:20:20Z</time>
      </trkpt>
      <trkpt lat="42.9418910" lon="0.2932210">
        <ele>1217.4</ele>
        <time>2020-07-28T09:20:21Z</time>
      </trkpt>
      <trkpt lat="42.9418530" lon="0.2932680">
        <ele>1217.8</ele>
        <time>2020-07-28T09:20:23Z</time>
      </trkpt>
      <trkpt lat="42.9418000" lon="0.2933340">
        <ele>1218.4</ele>
        <time>2020-07-28T09:20:26Z</time>
      </trkpt>
      <trkpt lat="42.9417830" lon="0.2933560">
        <ele>1218.6</ele>
        <time>2020-07-28T09:20:27Z</time>
      </trkpt>
      <trkpt lat="42.9417010" lon="0.2934940">
        <ele>1219.6</ele>
        <time>2020-07-28T09:20:32Z</time>
      </trkpt>
      <trkpt lat="42.9416420" lon="0.2935520">
        <ele>1220.4</ele>
        <time>2020-07-28T09:20:36Z</time>
      </trkpt>
      <trkpt lat="42.9416200" lon="0.2935770">
        <ele>1221.0</ele>
        <time>2020-07-28T09:20:38Z</time>
      </trkpt>
      <trkpt lat="42.9416000" lon="0.2936220">
        <ele>1221.6</ele>
        <time>2020-07-28T09:20:40Z</time>
      </trkpt>
      <trkpt lat="42.9415820" lon="0.2936710">
        <ele>1222.2</ele>
        <time>2020-07-28T09:20:42Z</time>
      </trkpt>
      <trkpt lat="42.9415550" lon="0.2937210">
        <ele>1223.0</ele>
        <time>2020-07-28T09:20:44Z</time>
      </trkpt>
      <trkpt lat="42.9414990" lon="0.2938120">
        <ele>1223.8</ele>
        <time>2020-07-28T09:20:47Z</time>
      </trkpt>
      <trkpt lat="42.9414650" lon="0.2938870">
        <ele>1224.2</ele>
        <time>2020-07-28T09:20:49Z</time>
      </trkpt>
      <trkpt lat="42.9413980" lon="0.2939830">
        <ele>1224.8</ele>
        <time>2020-07-28T09:20:52Z</time>
      </trkpt>
      <trkpt lat="42.9413450" lon="0.2940330">
        <ele>1225.2</ele>
        <time>2020-07-28T09:20:54Z</time>
      </trkpt>
      <trkpt lat="42.9412400" lon="0.2941680">
        <ele>1226.4</ele>
        <time>2020-07-28T09:20:59Z</time>
      </trkpt>
      <trkpt lat="42.9411540" lon="0.2943170">
        <ele>1227.4</ele>
        <time>2020-07-28T09:21:04Z</time>
      </trkpt>
      <trkpt lat="42.9411270" lon="0.2943720">
        <ele>1227.6</ele>
        <time>2020-07-28T09:21:06Z</time>
      </trkpt>
      <trkpt lat="42.9410910" lon="0.2944550">
        <ele>1228.2</ele>
        <time>2020-07-28T09:21:09Z</time>
      </trkpt>
      <trkpt lat="42.9410480" lon="0.2945770">
        <ele>1229.0</ele>
        <time>2020-07-28T09:21:13Z</time>
      </trkpt>
      <trkpt lat="42.9410370" lon="0.2946060">
        <ele>1229.6</ele>
        <time>2020-07-28T09:21:14Z</time>
      </trkpt>
      <trkpt lat="42.9409820" lon="0.2947520">
        <ele>1230.8</ele>
        <time>2020-07-28T09:21:19Z</time>
      </trkpt>
      <trkpt lat="42.9409690" lon="0.2947860">
        <ele>1231.0</ele>
        <time>2020-07-28T09:21:20Z</time>
      </trkpt>
      <trkpt lat="42.9409260" lon="0.2949320">
        <ele>1232.0</ele>
        <time>2020-07-28T09:21:24Z</time>
      </trkpt>
      <trkpt lat="42.9408830" lon="0.2950850">
        <ele>1233.0</ele>
        <time>2020-07-28T09:21:28Z</time>
      </trkpt>
      <trkpt lat="42.9408700" lon="0.2951180">
        <ele>1233.2</ele>
        <time>2020-07-28T09:21:29Z</time>
      </trkpt>
      <trkpt lat="42.9408040" lon="0.2952660">
        <ele>1234.2</ele>
        <time>2020-07-28T09:21:34Z</time>
      </trkpt>
      <trkpt lat="42.9407830" lon="0.2953300">
        <ele>1234.6</ele>
        <time>2020-07-28T09:21:36Z</time>
      </trkpt>
      <trkpt lat="42.9407640" lon="0.2953990">
        <ele>1235.2</ele>
        <time>2020-07-28T09:21:38Z</time>
      </trkpt>
      <trkpt lat="42.9407060" lon="0.2955460">
        <ele>1236.4</ele>
        <time>2020-07-28T09:21:43Z</time>
      </trkpt>
      <trkpt lat="42.9406420" lon="0.2956640">
        <ele>1237.6</ele>
        <time>2020-07-28T09:21:48Z</time>
      </trkpt>
      <trkpt lat="42.9406310" lon="0.2956900">
        <ele>1237.8</ele>
        <time>2020-07-28T09:21:49Z</time>
      </trkpt>
      <trkpt lat="42.9405630" lon="0.2957970">
        <ele>1238.6</ele>
        <time>2020-07-28T09:21:53Z</time>
      </trkpt>
      <trkpt lat="42.9405400" lon="0.2958510">
        <ele>1239.0</ele>
        <time>2020-07-28T09:21:55Z</time>
      </trkpt>
      <trkpt lat="42.9405010" lon="0.2959280">
        <ele>1239.8</ele>
        <time>2020-07-28T09:21:58Z</time>
      </trkpt>
      <trkpt lat="42.9404620" lon="0.2960480">
        <ele>1240.6</ele>
        <time>2020-07-28T09:22:02Z</time>
      </trkpt>
      <trkpt lat="42.9404580" lon="0.2960830">
        <ele>1240.8</ele>
        <time>2020-07-28T09:22:03Z</time>
      </trkpt>
      <trkpt lat="42.9404260" lon="0.2962410">
        <ele>1242.2</ele>
        <time>2020-07-28T09:22:08Z</time>
      </trkpt>
      <trkpt lat="42.9404190" lon="0.2962990">
        <ele>1242.8</ele>
        <time>2020-07-28T09:22:10Z</time>
      </trkpt>
      <trkpt lat="42.9404090" lon="0.2963500">
        <ele>1243.4</ele>
        <time>2020-07-28T09:22:12Z</time>
      </trkpt>
      <trkpt lat="42.9403560" lon="0.2964740">
        <ele>1244.0</ele>
        <time>2020-07-28T09:22:16Z</time>
      </trkpt>
      <trkpt lat="42.9403360" lon="0.2965160">
        <ele>1244.4</ele>
        <time>2020-07-28T09:22:17Z</time>
      </trkpt>
      <trkpt lat="42.9402340" lon="0.2966400">
        <ele>1245.4</ele>
        <time>2020-07-28T09:22:22Z</time>
      </trkpt>
      <trkpt lat="42.9401600" lon="0.2966730">
        <ele>1246.4</ele>
        <time>2020-07-28T09:22:26Z</time>
      </trkpt>
      <trkpt lat="42.9401230" lon="0.2967000">
        <ele>1247.2</ele>
        <time>2020-07-28T09:22:28Z</time>
      </trkpt>
      <trkpt lat="42.9401000" lon="0.2967110">
        <ele>1247.4</ele>
        <time>2020-07-28T09:22:29Z</time>
      </trkpt>
      <trkpt lat="42.9400010" lon="0.2967550">
        <ele>1248.4</ele>
        <time>2020-07-28T09:22:33Z</time>
      </trkpt>
      <trkpt lat="42.9399720" lon="0.2967620">
        <ele>1248.6</ele>
        <time>2020-07-28T09:22:34Z</time>
      </trkpt>
      <trkpt lat="42.9398620" lon="0.2968120">
        <ele>1249.6</ele>
        <time>2020-07-28T09:22:38Z</time>
      </trkpt>
      <trkpt lat="42.9397870" lon="0.2968610">
        <ele>1250.6</ele>
        <time>2020-07-28T09:22:41Z</time>
      </trkpt>
      <trkpt lat="42.9397630" lon="0.2968790">
        <ele>1250.8</ele>
        <time>2020-07-28T09:22:42Z</time>
      </trkpt>
      <trkpt lat="42.9396450" lon="0.2970210">
        <ele>1252.0</ele>
        <time>2020-07-28T09:22:48Z</time>
      </trkpt>
      <trkpt lat="42.9395630" lon="0.2971590">
        <ele>1253.0</ele>
        <time>2020-07-28T09:22:53Z</time>
      </trkpt>
      <trkpt lat="42.9395180" lon="0.2972440">
        <ele>1253.6</ele>
        <time>2020-07-28T09:22:56Z</time>
      </trkpt>
      <trkpt lat="42.9394900" lon="0.2973020">
        <ele>1254.2</ele>
        <time>2020-07-28T09:22:58Z</time>
      </trkpt>
      <trkpt lat="42.9394410" lon="0.2974200">
        <ele>1255.4</ele>
        <time>2020-07-28T09:23:02Z</time>
      </trkpt>
      <trkpt lat="42.9393920" lon="0.2975400">
        <ele>1256.4</ele>
        <time>2020-07-28T09:23:06Z</time>
      </trkpt>
      <trkpt lat="42.9393790" lon="0.2975680">
        <ele>1256.6</ele>
        <time>2020-07-28T09:23:07Z</time>
      </trkpt>
      <trkpt lat="42.9393270" lon="0.2976860">
        <ele>1257.8</ele>
        <time>2020-07-28T09:23:11Z</time>
      </trkpt>
      <trkpt lat="42.9392940" lon="0.2977770">
        <ele>1258.2</ele>
        <time>2020-07-28T09:23:14Z</time>
      </trkpt>
      <trkpt lat="42.9392650" lon="0.2978730">
        <ele>1259.0</ele>
        <time>2020-07-28T09:23:17Z</time>
      </trkpt>
      <trkpt lat="42.9392070" lon="0.2980290">
        <ele>1259.8</ele>
        <time>2020-07-28T09:23:22Z</time>
      </trkpt>
      <trkpt lat="42.9391860" lon="0.2980930">
        <ele>1260.2</ele>
        <time>2020-07-28T09:23:24Z</time>
      </trkpt>
      <trkpt lat="42.9391570" lon="0.2981900">
        <ele>1260.8</ele>
        <time>2020-07-28T09:23:27Z</time>
      </trkpt>
      <trkpt lat="42.9391190" lon="0.2983580">
        <ele>1261.6</ele>
        <time>2020-07-28T09:23:32Z</time>
      </trkpt>
      <trkpt lat="42.9391120" lon="0.2983930">
        <ele>1261.8</ele>
        <time>2020-07-28T09:23:33Z</time>
      </trkpt>
      <trkpt lat="42.9390850" lon="0.2985640">
        <ele>1263.0</ele>
        <time>2020-07-28T09:23:38Z</time>
      </trkpt>
      <trkpt lat="42.9390760" lon="0.2986350">
        <ele>1263.6</ele>
        <time>2020-07-28T09:23:40Z</time>
      </trkpt>
      <trkpt lat="42.9390730" lon="0.2987090">
        <ele>1264.0</ele>
        <time>2020-07-28T09:23:42Z</time>
      </trkpt>
      <trkpt lat="42.9390850" lon="0.2988850">
        <ele>1265.2</ele>
        <time>2020-07-28T09:23:47Z</time>
      </trkpt>
      <trkpt lat="42.9391210" lon="0.2990150">
        <ele>1266.0</ele>
        <time>2020-07-28T09:23:51Z</time>
      </trkpt>
      <trkpt lat="42.9391560" lon="0.2990700">
        <ele>1266.4</ele>
        <time>2020-07-28T09:23:53Z</time>
      </trkpt>
      <trkpt lat="42.9392420" lon="0.2991600">
        <ele>1267.2</ele>
        <time>2020-07-28T09:23:57Z</time>
      </trkpt>
      <trkpt lat="42.9392920" lon="0.2992010">
        <ele>1267.6</ele>
        <time>2020-07-28T09:23:59Z</time>
      </trkpt>
      <trkpt lat="42.9393580" lon="0.2992730">
        <ele>1268.2</ele>
        <time>2020-07-28T09:24:02Z</time>
      </trkpt>
      <trkpt lat="42.9394530" lon="0.2994180">
        <ele>1269.2</ele>
        <time>2020-07-28T09:24:07Z</time>
      </trkpt>
      <trkpt lat="42.9394670" lon="0.2994470">
        <ele>1269.4</ele>
        <time>2020-07-28T09:24:08Z</time>
      </trkpt>
      <trkpt lat="42.9395000" lon="0.2995780">
        <ele>1270.2</ele>
        <time>2020-07-28T09:24:12Z</time>
      </trkpt>
      <trkpt lat="42.9395030" lon="0.2996440">
        <ele>1270.6</ele>
        <time>2020-07-28T09:24:14Z</time>
      </trkpt>
      <trkpt lat="42.9395040" lon="0.2997810">
        <ele>1271.4</ele>
        <time>2020-07-28T09:24:18Z</time>
      </trkpt>
      <trkpt lat="42.9395120" lon="0.2999210">
        <ele>1272.4</ele>
        <time>2020-07-28T09:24:22Z</time>
      </trkpt>
      <trkpt lat="42.9395210" lon="0.3000580">
        <ele>1273.4</ele>
        <time>2020-07-28T09:24:26Z</time>
      </trkpt>
      <trkpt lat="42.9395530" lon="0.3001910">
        <ele>1274.4</ele>
        <time>2020-07-28T09:24:30Z</time>
      </trkpt>
      <trkpt lat="42.9395650" lon="0.3002200">
        <ele>1274.6</ele>
        <time>2020-07-28T09:24:31Z</time>
      </trkpt>
      <trkpt lat="42.9396530" lon="0.3003400">
        <ele>1275.6</ele>
        <time>2020-07-28T09:24:36Z</time>
      </trkpt>
      <trkpt lat="42.9397490" lon="0.3003860">
        <ele>1276.8</ele>
        <time>2020-07-28T09:24:40Z</time>
      </trkpt>
      <trkpt lat="42.9398010" lon="0.3003930">
        <ele>1277.4</ele>
        <time>2020-07-28T09:24:42Z</time>
      </trkpt>
      <trkpt lat="42.9398560" lon="0.3004000">
        <ele>1278.0</ele>
        <time>2020-07-28T09:24:44Z</time>
      </trkpt>
      <trkpt lat="42.9399370" lon="0.3004240">
        <ele>1279.0</ele>
        <time>2020-07-28T09:24:48Z</time>
      </trkpt>
      <trkpt lat="42.9400140" lon="0.3004900">
        <ele>1280.2</ele>
        <time>2020-07-28T09:24:53Z</time>
      </trkpt>
      <trkpt lat="42.9400290" lon="0.3005070">
        <ele>1280.4</ele>
        <time>2020-07-28T09:24:54Z</time>
      </trkpt>
      <trkpt lat="42.9400930" lon="0.3006040">
        <ele>1281.0</ele>
        <time>2020-07-28T09:24:58Z</time>
      </trkpt>
      <trkpt lat="42.9401290" lon="0.3006890">
        <ele>1281.6</ele>
        <time>2020-07-28T09:25:01Z</time>
      </trkpt>
      <trkpt lat="42.9401700" lon="0.3007590">
        <ele>1282.4</ele>
        <time>2020-07-28T09:25:04Z</time>
      </trkpt>
      <trkpt lat="42.9402140" lon="0.3008330">
        <ele>1283.4</ele>
        <time>2020-07-28T09:25:07Z</time>
      </trkpt>
      <trkpt lat="42.9402800" lon="0.3009420">
        <ele>1284.4</ele>
        <time>2020-07-28T09:25:11Z</time>
      </trkpt>
      <trkpt lat="42.9403330" lon="0.3010320">
        <ele>1285.2</ele>
        <time>2020-07-28T09:25:14Z</time>
      </trkpt>
      <trkpt lat="42.9403630" lon="0.3010950">
        <ele>1285.4</ele>
        <time>2020-07-28T09:25:16Z</time>
      </trkpt>
      <trkpt lat="42.9404160" lon="0.3012440">
        <ele>1286.6</ele>
        <time>2020-07-28T09:25:21Z</time>
      </trkpt>
      <trkpt lat="42.9404750" lon="0.3013590">
        <ele>1287.6</ele>
        <time>2020-07-28T09:25:26Z</time>
      </trkpt>
      <trkpt lat="42.9404860" lon="0.3013870">
        <ele>1287.8</ele>
        <time>2020-07-28T09:25:27Z</time>
      </trkpt>
      <trkpt lat="42.9405150" lon="0.3014790">
        <ele>1288.8</ele>
        <time>2020-07-28T09:25:30Z</time>
      </trkpt>
      <trkpt lat="42.9405660" lon="0.3016100">
        <ele>1289.8</ele>
        <time>2020-07-28T09:25:34Z</time>
      </trkpt>
      <trkpt lat="42.9406280" lon="0.3017040">
        <ele>1290.6</ele>
        <time>2020-07-28T09:25:38Z</time>
      </trkpt>
      <trkpt lat="42.9406990" lon="0.3018460">
        <ele>1291.6</ele>
        <time>2020-07-28T09:25:43Z</time>
      </trkpt>
      <trkpt lat="42.9407130" lon="0.3018800">
        <ele>1292.0</ele>
        <time>2020-07-28T09:25:44Z</time>
      </trkpt>
      <trkpt lat="42.9407780" lon="0.3019930">
        <ele>1292.8</ele>
        <time>2020-07-28T09:25:49Z</time>
      </trkpt>
      <trkpt lat="42.9407980" lon="0.3020120">
        <ele>1293.2</ele>
        <time>2020-07-28T09:25:50Z</time>
      </trkpt>
      <trkpt lat="42.9408670" lon="0.3020510">
        <ele>1294.0</ele>
        <time>2020-07-28T09:25:53Z</time>
      </trkpt>
      <trkpt lat="42.9409410" lon="0.3020750">
        <ele>1294.4</ele>
        <time>2020-07-28T09:25:56Z</time>
      </trkpt>
      <trkpt lat="42.9409890" lon="0.3021000">
        <ele>1295.0</ele>
        <time>2020-07-28T09:25:58Z</time>
      </trkpt>
      <trkpt lat="42.9410770" lon="0.3021500">
        <ele>1295.8</ele>
        <time>2020-07-28T09:26:02Z</time>
      </trkpt>
      <trkpt lat="42.9411010" lon="0.3021650">
        <ele>1296.0</ele>
        <time>2020-07-28T09:26:03Z</time>
      </trkpt>
      <trkpt lat="42.9411600" lon="0.3022280">
        <ele>1297.0</ele>
        <time>2020-07-28T09:26:06Z</time>
      </trkpt>
      <trkpt lat="42.9412000" lon="0.3022740">
        <ele>1297.4</ele>
        <time>2020-07-28T09:26:08Z</time>
      </trkpt>
      <trkpt lat="42.9412550" lon="0.3023570">
        <ele>1298.2</ele>
        <time>2020-07-28T09:26:11Z</time>
      </trkpt>
      <trkpt lat="42.9413260" lon="0.3024510">
        <ele>1299.2</ele>
        <time>2020-07-28T09:26:15Z</time>
      </trkpt>
      <trkpt lat="42.9413440" lon="0.3024760">
        <ele>1299.4</ele>
        <time>2020-07-28T09:26:16Z</time>
      </trkpt>
      <trkpt lat="42.9413920" lon="0.3025540">
        <ele>1300.2</ele>
        <time>2020-07-28T09:26:19Z</time>
      </trkpt>
      <trkpt lat="42.9414490" lon="0.3026600">
        <ele>1301.0</ele>
        <time>2020-07-28T09:26:23Z</time>
      </trkpt>
      <trkpt lat="42.9414770" lon="0.3027690">
        <ele>1302.2</ele>
        <time>2020-07-28T09:26:27Z</time>
      </trkpt>
      <trkpt lat="42.9414840" lon="0.3028350">
        <ele>1302.4</ele>
        <time>2020-07-28T09:26:29Z</time>
      </trkpt>
      <trkpt lat="42.9415060" lon="0.3029320">
        <ele>1303.2</ele>
        <time>2020-07-28T09:26:32Z</time>
      </trkpt>
      <trkpt lat="42.9415220" lon="0.3030150">
        <ele>1304.0</ele>
        <time>2020-07-28T09:26:35Z</time>
      </trkpt>
      <trkpt lat="42.9415630" lon="0.3031600">
        <ele>1305.4</ele>
        <time>2020-07-28T09:26:40Z</time>
      </trkpt>
      <trkpt lat="42.9415780" lon="0.3031920">
        <ele>1305.6</ele>
        <time>2020-07-28T09:26:41Z</time>
      </trkpt>
      <trkpt lat="42.9416310" lon="0.3033000">
        <ele>1306.4</ele>
        <time>2020-07-28T09:26:45Z</time>
      </trkpt>
      <trkpt lat="42.9416950" lon="0.3034080">
        <ele>1307.2</ele>
        <time>2020-07-28T09:26:49Z</time>
      </trkpt>
      <trkpt lat="42.9417130" lon="0.3034340">
        <ele>1307.4</ele>
        <time>2020-07-28T09:26:50Z</time>
      </trkpt>
      <trkpt lat="42.9417910" lon="0.3035800">
        <ele>1308.6</ele>
        <time>2020-07-28T09:26:55Z</time>
      </trkpt>
      <trkpt lat="42.9418010" lon="0.3036150">
        <ele>1309.0</ele>
        <time>2020-07-28T09:26:56Z</time>
      </trkpt>
      <trkpt lat="42.9418260" lon="0.3037470">
        <ele>1309.8</ele>
        <time>2020-07-28T09:27:00Z</time>
      </trkpt>
      <trkpt lat="42.9418620" lon="0.3038460">
        <ele>1310.6</ele>
        <time>2020-07-28T09:27:03Z</time>
      </trkpt>
      <trkpt lat="42.9418730" lon="0.3038770">
        <ele>1311.2</ele>
        <time>2020-07-28T09:27:04Z</time>
      </trkpt>
      <trkpt lat="42.9419150" lon="0.3040170">
        <ele>1312.2</ele>
        <time>2020-07-28T09:27:08Z</time>
      </trkpt>
      <trkpt lat="42.9419400" lon="0.3040790">
        <ele>1312.6</ele>
        <time>2020-07-28T09:27:10Z</time>
      </trkpt>
      <trkpt lat="42.9419710" lon="0.3041850">
        <ele>1313.2</ele>
        <time>2020-07-28T09:27:13Z</time>
      </trkpt>
      <trkpt lat="42.9420190" lon="0.3043280">
        <ele>1314.2</ele>
        <time>2020-07-28T09:27:17Z</time>
      </trkpt>
      <trkpt lat="42.9420860" lon="0.3044660">
        <ele>1315.2</ele>
        <time>2020-07-28T09:27:22Z</time>
      </trkpt>
      <trkpt lat="42.9421510" lon="0.3045640">
        <ele>1316.2</ele>
        <time>2020-07-28T09:27:26Z</time>
      </trkpt>
      <trkpt lat="42.9421660" lon="0.3045920">
        <ele>1316.4</ele>
        <time>2020-07-28T09:27:27Z</time>
      </trkpt>
      <trkpt lat="42.9422360" lon="0.3047410">
        <ele>1317.2</ele>
        <time>2020-07-28T09:27:32Z</time>
      </trkpt>
      <trkpt lat="42.9422560" lon="0.3048040">
        <ele>1317.8</ele>
        <time>2020-07-28T09:27:34Z</time>
      </trkpt>
      <trkpt lat="42.9422700" lon="0.3048660">
        <ele>1318.2</ele>
        <time>2020-07-28T09:27:36Z</time>
      </trkpt>
      <trkpt lat="42.9422790" lon="0.3050160">
        <ele>1319.2</ele>
        <time>2020-07-28T09:27:41Z</time>
      </trkpt>
      <trkpt lat="42.9422810" lon="0.3050530">
        <ele>1319.6</ele>
        <time>2020-07-28T09:27:42Z</time>
      </trkpt>
      <trkpt lat="42.9423130" lon="0.3052260">
        <ele>1320.6</ele>
        <time>2020-07-28T09:27:47Z</time>
      </trkpt>
      <trkpt lat="42.9424230" lon="0.3053550">
        <ele>1321.8</ele>
        <time>2020-07-28T09:27:52Z</time>
      </trkpt>
      <trkpt lat="42.9425780" lon="0.3054200">
        <ele>1322.8</ele>
        <time>2020-07-28T09:27:58Z</time>
      </trkpt>
      <trkpt lat="42.9427130" lon="0.3054480">
        <ele>1323.8</ele>
        <time>2020-07-28T09:28:03Z</time>
      </trkpt>
      <trkpt lat="42.9427510" lon="0.3054780">
        <ele>1324.2</ele>
        <time>2020-07-28T09:28:05Z</time>
      </trkpt>
      <trkpt lat="42.9427890" lon="0.3055390">
        <ele>1324.8</ele>
        <time>2020-07-28T09:28:08Z</time>
      </trkpt>
      <trkpt lat="42.9428130" lon="0.3056150">
        <ele>1325.6</ele>
        <time>2020-07-28T09:28:11Z</time>
      </trkpt>
      <trkpt lat="42.9428140" lon="0.3056960">
        <ele>1326.0</ele>
        <time>2020-07-28T09:28:13Z</time>
      </trkpt>
      <trkpt lat="42.9428280" lon="0.3057920">
        <ele>1327.0</ele>
        <time>2020-07-28T09:28:16Z</time>
      </trkpt>
      <trkpt lat="42.9428300" lon="0.3059820">
        <ele>1328.0</ele>
        <time>2020-07-28T09:28:21Z</time>
      </trkpt>
      <trkpt lat="42.9428320" lon="0.3060700">
        <ele>1328.6</ele>
        <time>2020-07-28T09:28:23Z</time>
      </trkpt>
      <trkpt lat="42.9428320" lon="0.3061780">
        <ele>1329.2</ele>
        <time>2020-07-28T09:28:26Z</time>
      </trkpt>
      <trkpt lat="42.9428270" lon="0.3063610">
        <ele>1330.2</ele>
        <time>2020-07-28T09:28:31Z</time>
      </trkpt>
      <trkpt lat="42.9428280" lon="0.3063970">
        <ele>1330.8</ele>
        <time>2020-07-28T09:28:32Z</time>
      </trkpt>
      <trkpt lat="42.9428340" lon="0.3065030">
        <ele>1331.4</ele>
        <time>2020-07-28T09:28:35Z</time>
      </trkpt>
      <trkpt lat="42.9428300" lon="0.3066540">
        <ele>1332.4</ele>
        <time>2020-07-28T09:28:39Z</time>
      </trkpt>
      <trkpt lat="42.9428730" lon="0.3067940">
        <ele>1333.4</ele>
        <time>2020-07-28T09:28:43Z</time>
      </trkpt>
      <trkpt lat="42.9428900" lon="0.3068210">
        <ele>1333.6</ele>
        <time>2020-07-28T09:28:44Z</time>
      </trkpt>
      <trkpt lat="42.9429430" lon="0.3068830">
        <ele>1334.2</ele>
        <time>2020-07-28T09:28:47Z</time>
      </trkpt>
      <trkpt lat="42.9429600" lon="0.3069040">
        <ele>1334.4</ele>
        <time>2020-07-28T09:28:48Z</time>
      </trkpt>
      <trkpt lat="42.9429800" lon="0.3069260">
        <ele>1334.6</ele>
        <time>2020-07-28T09:28:49Z</time>
      </trkpt>
      <trkpt lat="42.9430500" lon="0.3069950">
        <ele>1335.6</ele>
        <time>2020-07-28T09:28:52Z</time>
      </trkpt>
      <trkpt lat="42.9430860" lon="0.3070490">
        <ele>1336.0</ele>
        <time>2020-07-28T09:28:54Z</time>
      </trkpt>
      <trkpt lat="42.9431080" lon="0.3071490">
        <ele>1336.6</ele>
        <time>2020-07-28T09:28:57Z</time>
      </trkpt>
      <trkpt lat="42.9430990" lon="0.3072190">
        <ele>1337.2</ele>
        <time>2020-07-28T09:28:59Z</time>
      </trkpt>
      <trkpt lat="42.9430830" lon="0.3072890">
        <ele>1337.6</ele>
        <time>2020-07-28T09:29:01Z</time>
      </trkpt>
      <trkpt lat="42.9430400" lon="0.3074480">
        <ele>1338.6</ele>
        <time>2020-07-28T09:29:06Z</time>
      </trkpt>
      <trkpt lat="42.9430030" lon="0.3075830">
        <ele>1339.8</ele>
        <time>2020-07-28T09:29:10Z</time>
      </trkpt>
      <trkpt lat="42.9429570" lon="0.3077100">
        <ele>1340.8</ele>
        <time>2020-07-28T09:29:14Z</time>
      </trkpt>
      <trkpt lat="42.9429450" lon="0.3077420">
        <ele>1341.0</ele>
        <time>2020-07-28T09:29:15Z</time>
      </trkpt>
      <trkpt lat="42.9428800" lon="0.3079320">
        <ele>1342.2</ele>
        <time>2020-07-28T09:29:21Z</time>
      </trkpt>
      <trkpt lat="42.9428410" lon="0.3080910">
        <ele>1343.4</ele>
        <time>2020-07-28T09:29:26Z</time>
      </trkpt>
      <trkpt lat="42.9428320" lon="0.3081260">
        <ele>1343.4</ele>
        <time>2020-07-28T09:29:27Z</time>
      </trkpt>
      <trkpt lat="42.9427870" lon="0.3082620">
        <ele>1344.4</ele>
        <time>2020-07-28T09:29:31Z</time>
      </trkpt>
      <trkpt lat="42.9427480" lon="0.3083910">
        <ele>1345.2</ele>
        <time>2020-07-28T09:29:35Z</time>
      </trkpt>
      <trkpt lat="42.9427410" lon="0.3084220">
        <ele>1345.4</ele>
        <time>2020-07-28T09:29:36Z</time>
      </trkpt>
      <trkpt lat="42.9427090" lon="0.3085750">
        <ele>1346.8</ele>
        <time>2020-07-28T09:29:41Z</time>
      </trkpt>
      <trkpt lat="42.9426850" lon="0.3087290">
        <ele>1347.8</ele>
        <time>2020-07-28T09:29:46Z</time>
      </trkpt>
      <trkpt lat="42.9426850" lon="0.3087610">
        <ele>1348.0</ele>
        <time>2020-07-28T09:29:47Z</time>
      </trkpt>
      <trkpt lat="42.9426790" lon="0.3087960">
        <ele>1348.2</ele>
        <time>2020-07-28T09:29:48Z</time>
      </trkpt>
      <trkpt lat="42.9426540" lon="0.3088980">
        <ele>1348.8</ele>
        <time>2020-07-28T09:29:51Z</time>
      </trkpt>
      <trkpt lat="42.9426530" lon="0.3089710">
        <ele>1349.4</ele>
        <time>2020-07-28T09:29:53Z</time>
      </trkpt>
      <trkpt lat="42.9426300" lon="0.3091040">
        <ele>1350.0</ele>
        <time>2020-07-28T09:29:57Z</time>
      </trkpt>
      <trkpt lat="42.9426220" lon="0.3091380">
        <ele>1350.2</ele>
        <time>2020-07-28T09:29:58Z</time>
      </trkpt>
      <trkpt lat="42.9426040" lon="0.3092440">
        <ele>1351.2</ele>
        <time>2020-07-28T09:30:01Z</time>
      </trkpt>
      <trkpt lat="42.9425770" lon="0.3094520">
        <ele>1352.2</ele>
        <time>2020-07-28T09:30:07Z</time>
      </trkpt>
      <trkpt lat="42.9425500" lon="0.3095910">
        <ele>1353.2</ele>
        <time>2020-07-28T09:30:11Z</time>
      </trkpt>
      <trkpt lat="42.9425430" lon="0.3096630">
        <ele>1353.4</ele>
        <time>2020-07-28T09:30:13Z</time>
      </trkpt>
      <trkpt lat="42.9425330" lon="0.3098060">
        <ele>1354.4</ele>
        <time>2020-07-28T09:30:17Z</time>
      </trkpt>
      <trkpt lat="42.9425260" lon="0.3099330">
        <ele>1355.2</ele>
        <time>2020-07-28T09:30:21Z</time>
      </trkpt>
      <trkpt lat="42.9425240" lon="0.3099680">
        <ele>1355.6</ele>
        <time>2020-07-28T09:30:22Z</time>
      </trkpt>
      <trkpt lat="42.9425180" lon="0.3101470">
        <ele>1356.8</ele>
        <time>2020-07-28T09:30:27Z</time>
      </trkpt>
      <trkpt lat="42.9425190" lon="0.3102510">
        <ele>1357.6</ele>
        <time>2020-07-28T09:30:30Z</time>
      </trkpt>
      <trkpt lat="42.9425180" lon="0.3102850">
        <ele>1357.8</ele>
        <time>2020-07-28T09:30:31Z</time>
      </trkpt>
      <trkpt lat="42.9425060" lon="0.3104450">
        <ele>1358.8</ele>
        <time>2020-07-28T09:30:36Z</time>
      </trkpt>
      <trkpt lat="42.9425060" lon="0.3104750">
        <ele>1359.0</ele>
        <time>2020-07-28T09:30:37Z</time>
      </trkpt>
      <trkpt lat="42.9424980" lon="0.3105980">
        <ele>1360.0</ele>
        <time>2020-07-28T09:30:41Z</time>
      </trkpt>
      <trkpt lat="42.9424860" lon="0.3106940">
        <ele>1360.4</ele>
        <time>2020-07-28T09:30:44Z</time>
      </trkpt>
      <trkpt lat="42.9424760" lon="0.3107590">
        <ele>1361.0</ele>
        <time>2020-07-28T09:30:46Z</time>
      </trkpt>
      <trkpt lat="42.9424600" lon="0.3109340">
        <ele>1361.8</ele>
        <time>2020-07-28T09:30:51Z</time>
      </trkpt>
      <trkpt lat="42.9424590" lon="0.3110040">
        <ele>1362.2</ele>
        <time>2020-07-28T09:30:53Z</time>
      </trkpt>
      <trkpt lat="42.9424620" lon="0.3111390">
        <ele>1363.0</ele>
        <time>2020-07-28T09:30:57Z</time>
      </trkpt>
      <trkpt lat="42.9424760" lon="0.3113320">
        <ele>1364.0</ele>
        <time>2020-07-28T09:31:02Z</time>
      </trkpt>
      <trkpt lat="42.9424860" lon="0.3113680">
        <ele>1364.2</ele>
        <time>2020-07-28T09:31:03Z</time>
      </trkpt>
      <trkpt lat="42.9425800" lon="0.3115040">
        <ele>1365.0</ele>
        <time>2020-07-28T09:31:08Z</time>
      </trkpt>
      <trkpt lat="42.9427110" lon="0.3115620">
        <ele>1366.0</ele>
        <time>2020-07-28T09:31:13Z</time>
      </trkpt>
      <trkpt lat="42.9427340" lon="0.3115660">
        <ele>1366.2</ele>
        <time>2020-07-28T09:31:14Z</time>
      </trkpt>
      <trkpt lat="42.9428200" lon="0.3115830">
        <ele>1367.0</ele>
        <time>2020-07-28T09:31:18Z</time>
      </trkpt>
      <trkpt lat="42.9428640" lon="0.3115990">
        <ele>1367.2</ele>
        <time>2020-07-28T09:31:20Z</time>
      </trkpt>
      <trkpt lat="42.9429750" lon="0.3116830">
        <ele>1368.2</ele>
        <time>2020-07-28T09:31:25Z</time>
      </trkpt>
      <trkpt lat="42.9429980" lon="0.3117050">
        <ele>1368.4</ele>
        <time>2020-07-28T09:31:26Z</time>
      </trkpt>
      <trkpt lat="42.9431000" lon="0.3118130">
        <ele>1369.6</ele>
        <time>2020-07-28T09:31:31Z</time>
      </trkpt>
      <trkpt lat="42.9431980" lon="0.3119290">
        <ele>1370.6</ele>
        <time>2020-07-28T09:31:36Z</time>
      </trkpt>
      <trkpt lat="42.9432930" lon="0.3120600">
        <ele>1371.6</ele>
        <time>2020-07-28T09:31:41Z</time>
      </trkpt>
      <trkpt lat="42.9433950" lon="0.3122180">
        <ele>1372.6</ele>
        <time>2020-07-28T09:31:47Z</time>
      </trkpt>
      <trkpt lat="42.9434120" lon="0.3122460">
        <ele>1372.8</ele>
        <time>2020-07-28T09:31:48Z</time>
      </trkpt>
      <trkpt lat="42.9435470" lon="0.3124230">
        <ele>1374.0</ele>
        <time>2020-07-28T09:31:55Z</time>
      </trkpt>
      <trkpt lat="42.9436130" lon="0.3124870">
        <ele>1374.8</ele>
        <time>2020-07-28T09:31:58Z</time>
      </trkpt>
      <trkpt lat="42.9436360" lon="0.3125070">
        <ele>1375.0</ele>
        <time>2020-07-28T09:31:59Z</time>
      </trkpt>
      <trkpt lat="42.9437570" lon="0.3126010">
        <ele>1376.2</ele>
        <time>2020-07-28T09:32:04Z</time>
      </trkpt>
      <trkpt lat="42.9438510" lon="0.3126840">
        <ele>1377.0</ele>
        <time>2020-07-28T09:32:08Z</time>
      </trkpt>
      <trkpt lat="42.9438750" lon="0.3127070">
        <ele>1377.2</ele>
        <time>2020-07-28T09:32:09Z</time>
      </trkpt>
      <trkpt lat="42.9439770" lon="0.3128360">
        <ele>1378.4</ele>
        <time>2020-07-28T09:32:14Z</time>
      </trkpt>
      <trkpt lat="42.9439970" lon="0.3128650">
        <ele>1378.6</ele>
        <time>2020-07-28T09:32:15Z</time>
      </trkpt>
      <trkpt lat="42.9441240" lon="0.3130860">
        <ele>1379.4</ele>
        <time>2020-07-28T09:32:22Z</time>
      </trkpt>
      <trkpt lat="42.9441580" lon="0.3131510">
        <ele>1379.8</ele>
        <time>2020-07-28T09:32:24Z</time>
      </trkpt>
      <trkpt lat="42.9442070" lon="0.3132510">
        <ele>1380.6</ele>
        <time>2020-07-28T09:32:27Z</time>
      </trkpt>
      <trkpt lat="42.9443160" lon="0.3134840">
        <ele>1381.6</ele>
        <time>2020-07-28T09:32:34Z</time>
      </trkpt>
      <trkpt lat="42.9443960" lon="0.3136770">
        <ele>1382.6</ele>
        <time>2020-07-28T09:32:40Z</time>
      </trkpt>
      <trkpt lat="42.9444640" lon="0.3138330">
        <ele>1383.4</ele>
        <time>2020-07-28T09:32:45Z</time>
      </trkpt>
      <trkpt lat="42.9444760" lon="0.3138650">
        <ele>1383.6</ele>
        <time>2020-07-28T09:32:46Z</time>
      </trkpt>
      <trkpt lat="42.9445480" lon="0.3140150">
        <ele>1384.8</ele>
        <time>2020-07-28T09:32:51Z</time>
      </trkpt>
      <trkpt lat="42.9446020" lon="0.3141400">
        <ele>1385.4</ele>
        <time>2020-07-28T09:32:55Z</time>
      </trkpt>
      <trkpt lat="42.9446170" lon="0.3141690">
        <ele>1386.0</ele>
        <time>2020-07-28T09:32:56Z</time>
      </trkpt>
      <trkpt lat="42.9446860" lon="0.3143280">
        <ele>1387.0</ele>
        <time>2020-07-28T09:33:01Z</time>
      </trkpt>
      <trkpt lat="42.9447310" lon="0.3144620">
        <ele>1387.8</ele>
        <time>2020-07-28T09:33:05Z</time>
      </trkpt>
      <trkpt lat="42.9447510" lon="0.3145310">
        <ele>1388.0</ele>
        <time>2020-07-28T09:33:07Z</time>
      </trkpt>
      <trkpt lat="42.9447980" lon="0.3147040">
        <ele>1389.0</ele>
        <time>2020-07-28T09:33:12Z</time>
      </trkpt>
      <trkpt lat="42.9448460" lon="0.3148390">
        <ele>1389.6</ele>
        <time>2020-07-28T09:33:16Z</time>
      </trkpt>
      <trkpt lat="42.9448770" lon="0.3148990">
        <ele>1390.2</ele>
        <time>2020-07-28T09:33:18Z</time>
      </trkpt>
      <trkpt lat="42.9449710" lon="0.3150770">
        <ele>1391.2</ele>
        <time>2020-07-28T09:33:24Z</time>
      </trkpt>
      <trkpt lat="42.9450260" lon="0.3151590">
        <ele>1392.2</ele>
        <time>2020-07-28T09:33:27Z</time>
      </trkpt>
      <trkpt lat="42.9450440" lon="0.3151880">
        <ele>1392.4</ele>
        <time>2020-07-28T09:33:28Z</time>
      </trkpt>
      <trkpt lat="42.9451530" lon="0.3153460">
        <ele>1393.6</ele>
        <time>2020-07-28T09:33:34Z</time>
      </trkpt>
      <trkpt lat="42.9452070" lon="0.3154260">
        <ele>1394.2</ele>
        <time>2020-07-28T09:33:37Z</time>
      </trkpt>
      <trkpt lat="42.9452440" lon="0.3154790">
        <ele>1394.6</ele>
        <time>2020-07-28T09:33:39Z</time>
      </trkpt>
      <trkpt lat="42.9453540" lon="0.3156300">
        <ele>1395.8</ele>
        <time>2020-07-28T09:33:45Z</time>
      </trkpt>
      <trkpt lat="42.9454050" lon="0.3157120">
        <ele>1396.4</ele>
        <time>2020-07-28T09:33:48Z</time>
      </trkpt>
      <trkpt lat="42.9454580" lon="0.3157880">
        <ele>1397.0</ele>
        <time>2020-07-28T09:33:51Z</time>
      </trkpt>
      <trkpt lat="42.9455300" lon="0.3158930">
        <ele>1398.2</ele>
        <time>2020-07-28T09:33:55Z</time>
      </trkpt>
      <trkpt lat="42.9455870" lon="0.3159650">
        <ele>1399.0</ele>
        <time>2020-07-28T09:33:58Z</time>
      </trkpt>
      <trkpt lat="42.9456280" lon="0.3160100">
        <ele>1399.2</ele>
        <time>2020-07-28T09:34:00Z</time>
      </trkpt>
      <trkpt lat="42.9457330" lon="0.3161240">
        <ele>1400.4</ele>
        <time>2020-07-28T09:34:05Z</time>
      </trkpt>
      <trkpt lat="42.9458030" lon="0.3161970">
        <ele>1401.0</ele>
        <time>2020-07-28T09:34:08Z</time>
      </trkpt>
      <trkpt lat="42.9458530" lon="0.3162400">
        <ele>1401.4</ele>
        <time>2020-07-28T09:34:10Z</time>
      </trkpt>
      <trkpt lat="42.9460050" lon="0.3163490">
        <ele>1402.6</ele>
        <time>2020-07-28T09:34:16Z</time>
      </trkpt>
      <trkpt lat="42.9461340" lon="0.3164410">
        <ele>1403.8</ele>
        <time>2020-07-28T09:34:21Z</time>
      </trkpt>
      <trkpt lat="42.9461960" lon="0.3165160">
        <ele>1404.6</ele>
        <time>2020-07-28T09:34:24Z</time>
      </trkpt>
      <trkpt lat="42.9462130" lon="0.3165450">
        <ele>1404.8</ele>
        <time>2020-07-28T09:34:25Z</time>
      </trkpt>
      <trkpt lat="42.9463000" lon="0.3166930">
        <ele>1406.0</ele>
        <time>2020-07-28T09:34:30Z</time>
      </trkpt>
      <trkpt lat="42.9463310" lon="0.3167480">
        <ele>1406.6</ele>
        <time>2020-07-28T09:34:32Z</time>
      </trkpt>
      <trkpt lat="42.9463870" lon="0.3168300">
        <ele>1407.0</ele>
        <time>2020-07-28T09:34:35Z</time>
      </trkpt>
      <trkpt lat="42.9464640" lon="0.3169470">
        <ele>1408.0</ele>
        <time>2020-07-28T09:34:39Z</time>
      </trkpt>
      <trkpt lat="42.9464820" lon="0.3169850">
        <ele>1408.2</ele>
        <time>2020-07-28T09:34:40Z</time>
      </trkpt>
      <trkpt lat="42.9465230" lon="0.3171560">
        <ele>1409.0</ele>
        <time>2020-07-28T09:34:44Z</time>
      </trkpt>
      <trkpt lat="42.9465190" lon="0.3172020">
        <ele>1409.4</ele>
        <time>2020-07-28T09:34:45Z</time>
      </trkpt>
      <trkpt lat="42.9464560" lon="0.3173400">
        <ele>1410.2</ele>
        <time>2020-07-28T09:34:49Z</time>
      </trkpt>
      <trkpt lat="42.9464090" lon="0.3173800">
        <ele>1410.4</ele>
        <time>2020-07-28T09:34:51Z</time>
      </trkpt>
      <trkpt lat="42.9463150" lon="0.3174640">
        <ele>1411.0</ele>
        <time>2020-07-28T09:34:55Z</time>
      </trkpt>
      <trkpt lat="42.9462930" lon="0.3174920">
        <ele>1411.2</ele>
        <time>2020-07-28T09:34:56Z</time>
      </trkpt>
      <trkpt lat="42.9461270" lon="0.3177010">
        <ele>1412.4</ele>
        <time>2020-07-28T09:35:03Z</time>
      </trkpt>
      <trkpt lat="42.9460040" lon="0.3179380">
        <ele>1413.4</ele>
        <time>2020-07-28T09:35:10Z</time>
      </trkpt>
      <trkpt lat="42.9459560" lon="0.3180380">
        <ele>1414.2</ele>
        <time>2020-07-28T09:35:13Z</time>
      </trkpt>
      <trkpt lat="42.9459300" lon="0.3181080">
        <ele>1414.6</ele>
        <time>2020-07-28T09:35:15Z</time>
      </trkpt>
      <trkpt lat="42.9458670" lon="0.3182740">
        <ele>1415.4</ele>
        <time>2020-07-28T09:35:20Z</time>
      </trkpt>
      <trkpt lat="42.9458570" lon="0.3183100">
        <ele>1415.6</ele>
        <time>2020-07-28T09:35:21Z</time>
      </trkpt>
      <trkpt lat="42.9458110" lon="0.3184440">
        <ele>1416.6</ele>
        <time>2020-07-28T09:35:25Z</time>
      </trkpt>
      <trkpt lat="42.9457700" lon="0.3185870">
        <ele>1417.4</ele>
        <time>2020-07-28T09:35:29Z</time>
      </trkpt>
      <trkpt lat="42.9457590" lon="0.3186240">
        <ele>1417.8</ele>
        <time>2020-07-28T09:35:30Z</time>
      </trkpt>
      <trkpt lat="42.9457010" lon="0.3188070">
        <ele>1418.8</ele>
        <time>2020-07-28T09:35:35Z</time>
      </trkpt>
      <trkpt lat="42.9456670" lon="0.3189550">
        <ele>1419.6</ele>
        <time>2020-07-28T09:35:39Z</time>
      </trkpt>
      <trkpt lat="42.9456380" lon="0.3190350">
        <ele>1420.0</ele>
        <time>2020-07-28T09:35:41Z</time>
      </trkpt>
      <trkpt lat="42.9455920" lon="0.3191450">
        <ele>1420.6</ele>
        <time>2020-07-28T09:35:44Z</time>
      </trkpt>
      <trkpt lat="42.9455430" lon="0.3192530">
        <ele>1421.0</ele>
        <time>2020-07-28T09:35:47Z</time>
      </trkpt>
      <trkpt lat="42.9454700" lon="0.3193840">
        <ele>1422.0</ele>
        <time>2020-07-28T09:35:51Z</time>
      </trkpt>
      <trkpt lat="42.9454540" lon="0.3194190">
        <ele>1422.4</ele>
        <time>2020-07-28T09:35:52Z</time>
      </trkpt>
      <trkpt lat="42.9453750" lon="0.3195780">
        <ele>1423.4</ele>
        <time>2020-07-28T09:35:57Z</time>
      </trkpt>
      <trkpt lat="42.9453630" lon="0.3196080">
        <ele>1423.6</ele>
        <time>2020-07-28T09:35:58Z</time>
      </trkpt>
      <trkpt lat="42.9452990" lon="0.3197340">
        <ele>1424.4</ele>
        <time>2020-07-28T09:36:02Z</time>
      </trkpt>
      <trkpt lat="42.9452190" lon="0.3198500">
        <ele>1425.2</ele>
        <time>2020-07-28T09:36:06Z</time>
      </trkpt>
      <trkpt lat="42.9451850" lon="0.3199090">
        <ele>1425.8</ele>
        <time>2020-07-28T09:36:08Z</time>
      </trkpt>
      <trkpt lat="42.9451370" lon="0.3200060">
        <ele>1426.4</ele>
        <time>2020-07-28T09:36:11Z</time>
      </trkpt>
      <trkpt lat="42.9450970" lon="0.3200590">
        <ele>1426.8</ele>
        <time>2020-07-28T09:36:13Z</time>
      </trkpt>
      <trkpt lat="42.9450080" lon="0.3202060">
        <ele>1427.8</ele>
        <time>2020-07-28T09:36:18Z</time>
      </trkpt>
      <trkpt lat="42.9449360" lon="0.3203200">
        <ele>1428.8</ele>
        <time>2020-07-28T09:36:22Z</time>
      </trkpt>
      <trkpt lat="42.9449140" lon="0.3203950">
        <ele>1429.0</ele>
        <time>2020-07-28T09:36:24Z</time>
      </trkpt>
      <trkpt lat="42.9448570" lon="0.3205460">
        <ele>1430.0</ele>
        <time>2020-07-28T09:36:28Z</time>
      </trkpt>
      <trkpt lat="42.9448110" lon="0.3206510">
        <ele>1430.4</ele>
        <time>2020-07-28T09:36:31Z</time>
      </trkpt>
      <trkpt lat="42.9447770" lon="0.3207210">
        <ele>1430.8</ele>
        <time>2020-07-28T09:36:33Z</time>
      </trkpt>
      <trkpt lat="42.9446990" lon="0.3208950">
        <ele>1431.8</ele>
        <time>2020-07-28T09:36:38Z</time>
      </trkpt>
      <trkpt lat="42.9446720" lon="0.3209650">
        <ele>1432.2</ele>
        <time>2020-07-28T09:36:40Z</time>
      </trkpt>
      <trkpt lat="42.9446590" lon="0.3210010">
        <ele>1432.4</ele>
        <time>2020-07-28T09:36:41Z</time>
      </trkpt>
      <trkpt lat="42.9446340" lon="0.3210750">
        <ele>1433.0</ele>
        <time>2020-07-28T09:36:43Z</time>
      </trkpt>
      <trkpt lat="42.9445760" lon="0.3212170">
        <ele>1434.0</ele>
        <time>2020-07-28T09:36:47Z</time>
      </trkpt>
      <trkpt lat="42.9445630" lon="0.3212580">
        <ele>1434.2</ele>
        <time>2020-07-28T09:36:48Z</time>
      </trkpt>
      <trkpt lat="42.9444960" lon="0.3214270">
        <ele>1435.2</ele>
        <time>2020-07-28T09:36:53Z</time>
      </trkpt>
      <trkpt lat="42.9444320" lon="0.3216080">
        <ele>1436.2</ele>
        <time>2020-07-28T09:36:58Z</time>
      </trkpt>
      <trkpt lat="42.9444190" lon="0.3216430">
        <ele>1436.2</ele>
        <time>2020-07-28T09:36:59Z</time>
      </trkpt>
      <trkpt lat="42.9443420" lon="0.3218470">
        <ele>1437.2</ele>
        <time>2020-07-28T09:37:05Z</time>
      </trkpt>
      <trkpt lat="42.9442730" lon="0.3220170">
        <ele>1438.4</ele>
        <time>2020-07-28T09:37:10Z</time>
      </trkpt>
      <trkpt lat="42.9442150" lon="0.3221540">
        <ele>1439.0</ele>
        <time>2020-07-28T09:37:14Z</time>
      </trkpt>
      <trkpt lat="42.9441830" lon="0.3222210">
        <ele>1439.4</ele>
        <time>2020-07-28T09:37:16Z</time>
      </trkpt>
      <trkpt lat="42.9441430" lon="0.3223270">
        <ele>1440.6</ele>
        <time>2020-07-28T09:37:19Z</time>
      </trkpt>
      <trkpt lat="42.9441150" lon="0.3223950">
        <ele>1441.6</ele>
        <time>2020-07-28T09:37:21Z</time>
      </trkpt>
      <trkpt lat="42.9440140" lon="0.3225810">
        <ele>1442.6</ele>
        <time>2020-07-28T09:37:27Z</time>
      </trkpt>
      <trkpt lat="42.9439660" lon="0.3226760">
        <ele>1443.2</ele>
        <time>2020-07-28T09:37:30Z</time>
      </trkpt>
      <trkpt lat="42.9439310" lon="0.3227350">
        <ele>1443.8</ele>
        <time>2020-07-28T09:37:32Z</time>
      </trkpt>
      <trkpt lat="42.9438250" lon="0.3229210">
        <ele>1445.0</ele>
        <time>2020-07-28T09:37:38Z</time>
      </trkpt>
      <trkpt lat="42.9437460" lon="0.3230880">
        <ele>1446.0</ele>
        <time>2020-07-28T09:37:43Z</time>
      </trkpt>
      <trkpt lat="42.9436900" lon="0.3232740">
        <ele>1447.0</ele>
        <time>2020-07-28T09:37:48Z</time>
      </trkpt>
      <trkpt lat="42.9436820" lon="0.3233120">
        <ele>1447.4</ele>
        <time>2020-07-28T09:37:49Z</time>
      </trkpt>
      <trkpt lat="42.9436390" lon="0.3235400">
        <ele>1448.6</ele>
        <time>2020-07-28T09:37:55Z</time>
      </trkpt>
      <trkpt lat="42.9436290" lon="0.3236220">
        <ele>1449.0</ele>
        <time>2020-07-28T09:37:57Z</time>
      </trkpt>
      <trkpt lat="42.9436120" lon="0.3237800">
        <ele>1449.8</ele>
        <time>2020-07-28T09:38:01Z</time>
      </trkpt>
      <trkpt lat="42.9436010" lon="0.3240170">
        <ele>1450.8</ele>
        <time>2020-07-28T09:38:07Z</time>
      </trkpt>
      <trkpt lat="42.9435720" lon="0.3242500">
        <ele>1452.0</ele>
        <time>2020-07-28T09:38:13Z</time>
      </trkpt>
      <trkpt lat="42.9435450" lon="0.3244050">
        <ele>1453.0</ele>
        <time>2020-07-28T09:38:17Z</time>
      </trkpt>
      <trkpt lat="42.9435150" lon="0.3245540">
        <ele>1454.0</ele>
        <time>2020-07-28T09:38:21Z</time>
      </trkpt>
      <trkpt lat="42.9434760" lon="0.3247350">
        <ele>1455.2</ele>
        <time>2020-07-28T09:38:26Z</time>
      </trkpt>
      <trkpt lat="42.9434710" lon="0.3247730">
        <ele>1455.6</ele>
        <time>2020-07-28T09:38:27Z</time>
      </trkpt>
      <trkpt lat="42.9434520" lon="0.3248850">
        <ele>1456.4</ele>
        <time>2020-07-28T09:38:30Z</time>
      </trkpt>
      <trkpt lat="42.9434130" lon="0.3251080">
        <ele>1457.4</ele>
        <time>2020-07-28T09:38:36Z</time>
      </trkpt>
      <trkpt lat="42.9433960" lon="0.3252200">
        <ele>1458.2</ele>
        <time>2020-07-28T09:38:39Z</time>
      </trkpt>
      <trkpt lat="42.9433830" lon="0.3252940">
        <ele>1458.6</ele>
        <time>2020-07-28T09:38:41Z</time>
      </trkpt>
      <trkpt lat="42.9433520" lon="0.3254920">
        <ele>1459.8</ele>
        <time>2020-07-28T09:38:46Z</time>
      </trkpt>
      <trkpt lat="42.9433280" lon="0.3256460">
        <ele>1460.8</ele>
        <time>2020-07-28T09:38:50Z</time>
      </trkpt>
      <trkpt lat="42.9433210" lon="0.3256850">
        <ele>1460.8</ele>
        <time>2020-07-28T09:38:51Z</time>
      </trkpt>
      <trkpt lat="42.9432910" lon="0.3258400">
        <ele>1461.8</ele>
        <time>2020-07-28T09:38:55Z</time>
      </trkpt>
      <trkpt lat="42.9432530" lon="0.3259880">
        <ele>1462.6</ele>
        <time>2020-07-28T09:38:59Z</time>
      </trkpt>
      <trkpt lat="42.9432430" lon="0.3260270">
        <ele>1462.8</ele>
        <time>2020-07-28T09:39:00Z</time>
      </trkpt>
      <trkpt lat="42.9431860" lon="0.3262160">
        <ele>1464.0</ele>
        <time>2020-07-28T09:39:05Z</time>
      </trkpt>
      <trkpt lat="42.9431100" lon="0.3263850">
        <ele>1464.8</ele>
        <time>2020-07-28T09:39:10Z</time>
      </trkpt>
      <trkpt lat="42.9430930" lon="0.3264160">
        <ele>1465.2</ele>
        <time>2020-07-28T09:39:11Z</time>
      </trkpt>
      <trkpt lat="42.9430210" lon="0.3265400">
        <ele>1466.2</ele>
        <time>2020-07-28T09:39:15Z</time>
      </trkpt>
      <trkpt lat="42.9429420" lon="0.3266600">
        <ele>1466.8</ele>
        <time>2020-07-28T09:39:19Z</time>
      </trkpt>
      <trkpt lat="42.9428790" lon="0.3267430">
        <ele>1467.6</ele>
        <time>2020-07-28T09:39:22Z</time>
      </trkpt>
      <trkpt lat="42.9427940" lon="0.3268470">
        <ele>1468.8</ele>
        <time>2020-07-28T09:39:26Z</time>
      </trkpt>
      <trkpt lat="42.9427500" lon="0.3268970">
        <ele>1469.2</ele>
        <time>2020-07-28T09:39:28Z</time>
      </trkpt>
      <trkpt lat="42.9426840" lon="0.3269710">
        <ele>1469.6</ele>
        <time>2020-07-28T09:39:31Z</time>
      </trkpt>
      <trkpt lat="42.9425940" lon="0.3270710">
        <ele>1470.8</ele>
        <time>2020-07-28T09:39:35Z</time>
      </trkpt>
      <trkpt lat="42.9425250" lon="0.3271480">
        <ele>1471.4</ele>
        <time>2020-07-28T09:39:38Z</time>
      </trkpt>
      <trkpt lat="42.9424810" lon="0.3272050">
        <ele>1471.8</ele>
        <time>2020-07-28T09:39:40Z</time>
      </trkpt>
      <trkpt lat="42.9424180" lon="0.3272880">
        <ele>1472.4</ele>
        <time>2020-07-28T09:39:43Z</time>
      </trkpt>
      <trkpt lat="42.9423080" lon="0.3275980">
        <ele>1474.8</ele>
        <time>2020-07-28T09:42:53Z</time>
      </trkpt>
      <trkpt lat="42.9423060" lon="0.3276320">
        <ele>1474.8</ele>
        <time>2020-07-28T09:42:54Z</time>
      </trkpt>
      <trkpt lat="42.9423220" lon="0.3279780">
        <ele>1474.6</ele>
        <time>2020-07-28T09:42:58Z</time>
      </trkpt>
      <trkpt lat="42.9424430" lon="0.3283950">
        <ele>1474.2</ele>
        <time>2020-07-28T09:43:02Z</time>
      </trkpt>
      <trkpt lat="42.9425180" lon="0.3286340">
        <ele>1473.4</ele>
        <time>2020-07-28T09:43:04Z</time>
      </trkpt>
      <trkpt lat="42.9425440" lon="0.3287590">
        <ele>1472.8</ele>
        <time>2020-07-28T09:43:05Z</time>
      </trkpt>
      <trkpt lat="42.9425690" lon="0.3288900">
        <ele>1471.8</ele>
        <time>2020-07-28T09:43:06Z</time>
      </trkpt>
      <trkpt lat="42.9426580" lon="0.3291350">
        <ele>1470.2</ele>
        <time>2020-07-28T09:43:08Z</time>
      </trkpt>
      <trkpt lat="42.9427140" lon="0.3292490">
        <ele>1469.4</ele>
        <time>2020-07-28T09:43:09Z</time>
      </trkpt>
      <trkpt lat="42.9427660" lon="0.3293660">
        <ele>1468.4</ele>
        <time>2020-07-28T09:43:10Z</time>
      </trkpt>
      <trkpt lat="42.9428370" lon="0.3296310">
        <ele>1466.6</ele>
        <time>2020-07-28T09:43:12Z</time>
      </trkpt>
      <trkpt lat="42.9428740" lon="0.3299260">
        <ele>1465.2</ele>
        <time>2020-07-28T09:43:14Z</time>
      </trkpt>
      <trkpt lat="42.9429000" lon="0.3302420">
        <ele>1463.6</ele>
        <time>2020-07-28T09:43:16Z</time>
      </trkpt>
      <trkpt lat="42.9429170" lon="0.3305590">
        <ele>1461.6</ele>
        <time>2020-07-28T09:43:18Z</time>
      </trkpt>
      <trkpt lat="42.9429190" lon="0.3307010">
        <ele>1460.0</ele>
        <time>2020-07-28T09:43:19Z</time>
      </trkpt>
      <trkpt lat="42.9429230" lon="0.3308250">
        <ele>1458.4</ele>
        <time>2020-07-28T09:43:20Z</time>
      </trkpt>
      <trkpt lat="42.9429390" lon="0.3309360">
        <ele>1457.2</ele>
        <time>2020-07-28T09:43:21Z</time>
      </trkpt>
      <trkpt lat="42.9429800" lon="0.3310300">
        <ele>1456.0</ele>
        <time>2020-07-28T09:43:22Z</time>
      </trkpt>
      <trkpt lat="42.9430470" lon="0.3311000">
        <ele>1455.2</ele>
        <time>2020-07-28T09:43:23Z</time>
      </trkpt>
      <trkpt lat="42.9431210" lon="0.3311660">
        <ele>1454.0</ele>
        <time>2020-07-28T09:43:24Z</time>
      </trkpt>
      <trkpt lat="42.9431890" lon="0.3312560">
        <ele>1452.6</ele>
        <time>2020-07-28T09:43:25Z</time>
      </trkpt>
      <trkpt lat="42.9432440" lon="0.3313710">
        <ele>1451.8</ele>
        <time>2020-07-28T09:43:26Z</time>
      </trkpt>
      <trkpt lat="42.9432850" lon="0.3314940">
        <ele>1451.2</ele>
        <time>2020-07-28T09:43:27Z</time>
      </trkpt>
      <trkpt lat="42.9433220" lon="0.3316110">
        <ele>1451.0</ele>
        <time>2020-07-28T09:43:28Z</time>
      </trkpt>
      <trkpt lat="42.9433640" lon="0.3317170">
        <ele>1450.6</ele>
        <time>2020-07-28T09:43:29Z</time>
      </trkpt>
      <trkpt lat="42.9434240" lon="0.3317990">
        <ele>1450.6</ele>
        <time>2020-07-28T09:43:30Z</time>
      </trkpt>
      <trkpt lat="42.9435850" lon="0.3318910">
        <ele>1449.8</ele>
        <time>2020-07-28T09:43:32Z</time>
      </trkpt>
      <trkpt lat="42.9436650" lon="0.3319310">
        <ele>1448.6</ele>
        <time>2020-07-28T09:43:33Z</time>
      </trkpt>
      <trkpt lat="42.9437390" lon="0.3319950">
        <ele>1445.4</ele>
        <time>2020-07-28T09:43:34Z</time>
      </trkpt>
      <trkpt lat="42.9437930" lon="0.3321010">
        <ele>1444.4</ele>
        <time>2020-07-28T09:43:35Z</time>
      </trkpt>
      <trkpt lat="42.9438630" lon="0.3325020">
        <ele>1443.2</ele>
        <time>2020-07-28T09:43:38Z</time>
      </trkpt>
      <trkpt lat="42.9438840" lon="0.3327990">
        <ele>1442.0</ele>
        <time>2020-07-28T09:43:40Z</time>
      </trkpt>
      <trkpt lat="42.9438970" lon="0.3331100">
        <ele>1440.8</ele>
        <time>2020-07-28T09:43:42Z</time>
      </trkpt>
      <trkpt lat="42.9438950" lon="0.3332660">
        <ele>1439.8</ele>
        <time>2020-07-28T09:43:43Z</time>
      </trkpt>
      <trkpt lat="42.9438870" lon="0.3334200">
        <ele>1438.6</ele>
        <time>2020-07-28T09:43:44Z</time>
      </trkpt>
      <trkpt lat="42.9438690" lon="0.3335760">
        <ele>1437.6</ele>
        <time>2020-07-28T09:43:45Z</time>
      </trkpt>
      <trkpt lat="42.9438440" lon="0.3337350">
        <ele>1436.6</ele>
        <time>2020-07-28T09:43:46Z</time>
      </trkpt>
      <trkpt lat="42.9437960" lon="0.3338860">
        <ele>1435.6</ele>
        <time>2020-07-28T09:43:47Z</time>
      </trkpt>
      <trkpt lat="42.9437450" lon="0.3340430">
        <ele>1434.4</ele>
        <time>2020-07-28T09:43:48Z</time>
      </trkpt>
      <trkpt lat="42.9436940" lon="0.3342050">
        <ele>1432.8</ele>
        <time>2020-07-28T09:43:49Z</time>
      </trkpt>
      <trkpt lat="42.9436440" lon="0.3343710">
        <ele>1431.6</ele>
        <time>2020-07-28T09:43:50Z</time>
      </trkpt>
      <trkpt lat="42.9435940" lon="0.3345410">
        <ele>1430.4</ele>
        <time>2020-07-28T09:43:51Z</time>
      </trkpt>
      <trkpt lat="42.9435450" lon="0.3347060">
        <ele>1429.2</ele>
        <time>2020-07-28T09:43:52Z</time>
      </trkpt>
      <trkpt lat="42.9434450" lon="0.3350290">
        <ele>1427.2</ele>
        <time>2020-07-28T09:43:54Z</time>
      </trkpt>
      <trkpt lat="42.9433600" lon="0.3353490">
        <ele>1425.4</ele>
        <time>2020-07-28T09:43:56Z</time>
      </trkpt>
      <trkpt lat="42.9433200" lon="0.3355020">
        <ele>1424.4</ele>
        <time>2020-07-28T09:43:57Z</time>
      </trkpt>
      <trkpt lat="42.9433030" lon="0.3356550">
        <ele>1423.2</ele>
        <time>2020-07-28T09:43:58Z</time>
      </trkpt>
      <trkpt lat="42.9432920" lon="0.3358060">
        <ele>1422.0</ele>
        <time>2020-07-28T09:43:59Z</time>
      </trkpt>
      <trkpt lat="42.9432860" lon="0.3359520">
        <ele>1420.8</ele>
        <time>2020-07-28T09:44:00Z</time>
      </trkpt>
      <trkpt lat="42.9432830" lon="0.3360950">
        <ele>1418.8</ele>
        <time>2020-07-28T09:44:01Z</time>
      </trkpt>
      <trkpt lat="42.9432790" lon="0.3363770">
        <ele>1417.0</ele>
        <time>2020-07-28T09:44:03Z</time>
      </trkpt>
      <trkpt lat="42.9432770" lon="0.3366500">
        <ele>1415.0</ele>
        <time>2020-07-28T09:44:05Z</time>
      </trkpt>
      <trkpt lat="42.9432160" lon="0.3369010">
        <ele>1413.4</ele>
        <time>2020-07-28T09:44:07Z</time>
      </trkpt>
      <trkpt lat="42.9431540" lon="0.3370160">
        <ele>1412.6</ele>
        <time>2020-07-28T09:44:08Z</time>
      </trkpt>
      <trkpt lat="42.9430810" lon="0.3371170">
        <ele>1412.0</ele>
        <time>2020-07-28T09:44:09Z</time>
      </trkpt>
      <trkpt lat="42.9430020" lon="0.3372170">
        <ele>1411.2</ele>
        <time>2020-07-28T09:44:10Z</time>
      </trkpt>
      <trkpt lat="42.9429180" lon="0.3373100">
        <ele>1410.2</ele>
        <time>2020-07-28T09:44:11Z</time>
      </trkpt>
      <trkpt lat="42.9428290" lon="0.3374070">
        <ele>1409.4</ele>
        <time>2020-07-28T09:44:12Z</time>
      </trkpt>
      <trkpt lat="42.9427370" lon="0.3374940">
        <ele>1408.8</ele>
        <time>2020-07-28T09:44:13Z</time>
      </trkpt>
      <trkpt lat="42.9425500" lon="0.3376290">
        <ele>1407.2</ele>
        <time>2020-07-28T09:44:15Z</time>
      </trkpt>
      <trkpt lat="42.9424640" lon="0.3376810">
        <ele>1406.2</ele>
        <time>2020-07-28T09:44:16Z</time>
      </trkpt>
      <trkpt lat="42.9423810" lon="0.3377430">
        <ele>1405.2</ele>
        <time>2020-07-28T09:44:17Z</time>
      </trkpt>
      <trkpt lat="42.9422450" lon="0.3379470">
        <ele>1403.2</ele>
        <time>2020-07-28T09:44:19Z</time>
      </trkpt>
      <trkpt lat="42.9421770" lon="0.3380730">
        <ele>1402.2</ele>
        <time>2020-07-28T09:44:20Z</time>
      </trkpt>
      <trkpt lat="42.9421140" lon="0.3382120">
        <ele>1401.4</ele>
        <time>2020-07-28T09:44:21Z</time>
      </trkpt>
      <trkpt lat="42.9420520" lon="0.3383600">
        <ele>1400.8</ele>
        <time>2020-07-28T09:44:22Z</time>
      </trkpt>
      <trkpt lat="42.9419950" lon="0.3385010">
        <ele>1400.2</ele>
        <time>2020-07-28T09:44:23Z</time>
      </trkpt>
      <trkpt lat="42.9417760" lon="0.3391470">
        <ele>1398.8</ele>
        <time>2020-07-28T09:44:27Z</time>
      </trkpt>
      <trkpt lat="42.9417210" lon="0.3393190">
        <ele>1396.8</ele>
        <time>2020-07-28T09:44:28Z</time>
      </trkpt>
      <trkpt lat="42.9416620" lon="0.3394940">
        <ele>1395.8</ele>
        <time>2020-07-28T09:44:29Z</time>
      </trkpt>
      <trkpt lat="42.9416070" lon="0.3396750">
        <ele>1394.6</ele>
        <time>2020-07-28T09:44:30Z</time>
      </trkpt>
      <trkpt lat="42.9415540" lon="0.3398580">
        <ele>1393.0</ele>
        <time>2020-07-28T09:44:31Z</time>
      </trkpt>
      <trkpt lat="42.9415050" lon="0.3400430">
        <ele>1391.4</ele>
        <time>2020-07-28T09:44:32Z</time>
      </trkpt>
      <trkpt lat="42.9414590" lon="0.3402370">
        <ele>1390.0</ele>
        <time>2020-07-28T09:44:33Z</time>
      </trkpt>
      <trkpt lat="42.9414160" lon="0.3404320">
        <ele>1388.8</ele>
        <time>2020-07-28T09:44:34Z</time>
      </trkpt>
      <trkpt lat="42.9413830" lon="0.3406270">
        <ele>1387.6</ele>
        <time>2020-07-28T09:44:35Z</time>
      </trkpt>
      <trkpt lat="42.9413580" lon="0.3408230">
        <ele>1386.4</ele>
        <time>2020-07-28T09:44:36Z</time>
      </trkpt>
      <trkpt lat="42.9413360" lon="0.3410260">
        <ele>1385.0</ele>
        <time>2020-07-28T09:44:37Z</time>
      </trkpt>
      <trkpt lat="42.9413150" lon="0.3412300">
        <ele>1383.4</ele>
        <time>2020-07-28T09:44:38Z</time>
      </trkpt>
      <trkpt lat="42.9412880" lon="0.3414330">
        <ele>1382.2</ele>
        <time>2020-07-28T09:44:39Z</time>
      </trkpt>
      <trkpt lat="42.9412530" lon="0.3416370">
        <ele>1381.0</ele>
        <time>2020-07-28T09:44:40Z</time>
      </trkpt>
      <trkpt lat="42.9412120" lon="0.3418410">
        <ele>1379.8</ele>
        <time>2020-07-28T09:44:41Z</time>
      </trkpt>
      <trkpt lat="42.9411660" lon="0.3420440">
        <ele>1378.6</ele>
        <time>2020-07-28T09:44:42Z</time>
      </trkpt>
      <trkpt lat="42.9411160" lon="0.3422470">
        <ele>1377.4</ele>
        <time>2020-07-28T09:44:43Z</time>
      </trkpt>
      <trkpt lat="42.9410640" lon="0.3424470">
        <ele>1376.0</ele>
        <time>2020-07-28T09:44:44Z</time>
      </trkpt>
      <trkpt lat="42.9410100" lon="0.3426450">
        <ele>1374.8</ele>
        <time>2020-07-28T09:44:45Z</time>
      </trkpt>
      <trkpt lat="42.9409560" lon="0.3428410">
        <ele>1373.0</ele>
        <time>2020-07-28T09:44:46Z</time>
      </trkpt>
      <trkpt lat="42.9409040" lon="0.3430340">
        <ele>1371.2</ele>
        <time>2020-07-28T09:44:47Z</time>
      </trkpt>
      <trkpt lat="42.9408530" lon="0.3432260">
        <ele>1369.6</ele>
        <time>2020-07-28T09:44:48Z</time>
      </trkpt>
      <trkpt lat="42.9408050" lon="0.3434170">
        <ele>1368.4</ele>
        <time>2020-07-28T09:44:49Z</time>
      </trkpt>
      <trkpt lat="42.9407640" lon="0.3436070">
        <ele>1367.4</ele>
        <time>2020-07-28T09:44:50Z</time>
      </trkpt>
      <trkpt lat="42.9407370" lon="0.3437900">
        <ele>1366.0</ele>
        <time>2020-07-28T09:44:51Z</time>
      </trkpt>
      <trkpt lat="42.9407200" lon="0.3439530">
        <ele>1364.8</ele>
        <time>2020-07-28T09:44:52Z</time>
      </trkpt>
      <trkpt lat="42.9407160" lon="0.3440930">
        <ele>1363.6</ele>
        <time>2020-07-28T09:44:53Z</time>
      </trkpt>
      <trkpt lat="42.9407280" lon="0.3442120">
        <ele>1362.6</ele>
        <time>2020-07-28T09:44:54Z</time>
      </trkpt>
      <trkpt lat="42.9407600" lon="0.3443110">
        <ele>1361.2</ele>
        <time>2020-07-28T09:44:55Z</time>
      </trkpt>
      <trkpt lat="42.9408040" lon="0.3443920">
        <ele>1358.4</ele>
        <time>2020-07-28T09:44:56Z</time>
      </trkpt>
      <trkpt lat="42.9408850" lon="0.3445490">
        <ele>1356.8</ele>
        <time>2020-07-28T09:44:58Z</time>
      </trkpt>
      <trkpt lat="42.9408770" lon="0.3447110">
        <ele>1356.0</ele>
        <time>2020-07-28T09:45:00Z</time>
      </trkpt>
      <trkpt lat="42.9408350" lon="0.3447720">
        <ele>1355.8</ele>
        <time>2020-07-28T09:45:01Z</time>
      </trkpt>
      <trkpt lat="42.9407800" lon="0.3448070">
        <ele>1355.4</ele>
        <time>2020-07-28T09:45:02Z</time>
      </trkpt>
      <trkpt lat="42.9406600" lon="0.3447360">
        <ele>1355.2</ele>
        <time>2020-07-28T09:45:04Z</time>
      </trkpt>
      <trkpt lat="42.9405840" lon="0.3445310">
        <ele>1355.0</ele>
        <time>2020-07-28T09:45:06Z</time>
      </trkpt>
      <trkpt lat="42.9405470" lon="0.3444120">
        <ele>1354.6</ele>
        <time>2020-07-28T09:45:07Z</time>
      </trkpt>
      <trkpt lat="42.9404390" lon="0.3440460">
        <ele>1353.4</ele>
        <time>2020-07-28T09:45:10Z</time>
      </trkpt>
      <trkpt lat="42.9404170" lon="0.3439240">
        <ele>1352.8</ele>
        <time>2020-07-28T09:45:11Z</time>
      </trkpt>
      <trkpt lat="42.9403990" lon="0.3437920">
        <ele>1352.0</ele>
        <time>2020-07-28T09:45:12Z</time>
      </trkpt>
      <trkpt lat="42.9403920" lon="0.3435260">
        <ele>1350.6</ele>
        <time>2020-07-28T09:45:14Z</time>
      </trkpt>
      <trkpt lat="42.9403940" lon="0.3433820">
        <ele>1349.8</ele>
        <time>2020-07-28T09:45:15Z</time>
      </trkpt>
      <trkpt lat="42.9404030" lon="0.3432360">
        <ele>1349.2</ele>
        <time>2020-07-28T09:45:16Z</time>
      </trkpt>
      <trkpt lat="42.9404340" lon="0.3429420">
        <ele>1347.8</ele>
        <time>2020-07-28T09:45:18Z</time>
      </trkpt>
      <trkpt lat="42.9404660" lon="0.3426310">
        <ele>1345.8</ele>
        <time>2020-07-28T09:45:20Z</time>
      </trkpt>
      <trkpt lat="42.9404830" lon="0.3424720">
        <ele>1344.8</ele>
        <time>2020-07-28T09:45:21Z</time>
      </trkpt>
      <trkpt lat="42.9405030" lon="0.3423110">
        <ele>1343.6</ele>
        <time>2020-07-28T09:45:22Z</time>
      </trkpt>
      <trkpt lat="42.9405260" lon="0.3421510">
        <ele>1342.2</ele>
        <time>2020-07-28T09:45:23Z</time>
      </trkpt>
      <trkpt lat="42.9405480" lon="0.3419900">
        <ele>1340.2</ele>
        <time>2020-07-28T09:45:24Z</time>
      </trkpt>
      <trkpt lat="42.9405730" lon="0.3416770">
        <ele>1338.4</ele>
        <time>2020-07-28T09:45:26Z</time>
      </trkpt>
      <trkpt lat="42.9405720" lon="0.3415270">
        <ele>1337.4</ele>
        <time>2020-07-28T09:45:27Z</time>
      </trkpt>
      <trkpt lat="42.9405580" lon="0.3413830">
        <ele>1336.0</ele>
        <time>2020-07-28T09:45:28Z</time>
      </trkpt>
      <trkpt lat="42.9405180" lon="0.3412520">
        <ele>1334.8</ele>
        <time>2020-07-28T09:45:29Z</time>
      </trkpt>
      <trkpt lat="42.9404500" lon="0.3411390">
        <ele>1333.6</ele>
        <time>2020-07-28T09:45:30Z</time>
      </trkpt>
      <trkpt lat="42.9403670" lon="0.3410480">
        <ele>1332.6</ele>
        <time>2020-07-28T09:45:31Z</time>
      </trkpt>
      <trkpt lat="42.9402890" lon="0.3409580">
        <ele>1331.8</ele>
        <time>2020-07-28T09:45:32Z</time>
      </trkpt>
      <trkpt lat="42.9401920" lon="0.3407250">
        <ele>1330.6</ele>
        <time>2020-07-28T09:45:34Z</time>
      </trkpt>
      <trkpt lat="42.9401420" lon="0.3404520">
        <ele>1329.6</ele>
        <time>2020-07-28T09:45:36Z</time>
      </trkpt>
      <trkpt lat="42.9401140" lon="0.3401670">
        <ele>1327.8</ele>
        <time>2020-07-28T09:45:38Z</time>
      </trkpt>
      <trkpt lat="42.9401050" lon="0.3400220">
        <ele>1326.6</ele>
        <time>2020-07-28T09:45:39Z</time>
      </trkpt>
      <trkpt lat="42.9400930" lon="0.3397280">
        <ele>1325.2</ele>
        <time>2020-07-28T09:45:41Z</time>
      </trkpt>
      <trkpt lat="42.9400930" lon="0.3395730">
        <ele>1324.2</ele>
        <time>2020-07-28T09:45:42Z</time>
      </trkpt>
      <trkpt lat="42.9400960" lon="0.3394160">
        <ele>1323.0</ele>
        <time>2020-07-28T09:45:43Z</time>
      </trkpt>
      <trkpt lat="42.9401030" lon="0.3392570">
        <ele>1321.8</ele>
        <time>2020-07-28T09:45:44Z</time>
      </trkpt>
      <trkpt lat="42.9401240" lon="0.3389290">
        <ele>1320.0</ele>
        <time>2020-07-28T09:45:46Z</time>
      </trkpt>
      <trkpt lat="42.9401580" lon="0.3385930">
        <ele>1318.0</ele>
        <time>2020-07-28T09:45:48Z</time>
      </trkpt>
      <trkpt lat="42.9402010" lon="0.3382500">
        <ele>1316.6</ele>
        <time>2020-07-28T09:45:50Z</time>
      </trkpt>
      <trkpt lat="42.9402250" lon="0.3380760">
        <ele>1314.8</ele>
        <time>2020-07-28T09:45:51Z</time>
      </trkpt>
      <trkpt lat="42.9402750" lon="0.3377480">
        <ele>1312.8</ele>
        <time>2020-07-28T09:45:53Z</time>
      </trkpt>
      <trkpt lat="42.9403080" lon="0.3376020">
        <ele>1311.8</ele>
        <time>2020-07-28T09:45:54Z</time>
      </trkpt>
      <trkpt lat="42.9403560" lon="0.3374640">
        <ele>1310.6</ele>
        <time>2020-07-28T09:45:55Z</time>
      </trkpt>
      <trkpt lat="42.9404160" lon="0.3373340">
        <ele>1309.4</ele>
        <time>2020-07-28T09:45:56Z</time>
      </trkpt>
      <trkpt lat="42.9404890" lon="0.3372130">
        <ele>1307.8</ele>
        <time>2020-07-28T09:45:57Z</time>
      </trkpt>
      <trkpt lat="42.9405660" lon="0.3370960">
        <ele>1306.6</ele>
        <time>2020-07-28T09:45:58Z</time>
      </trkpt>
      <trkpt lat="42.9407170" lon="0.3368560">
        <ele>1304.8</ele>
        <time>2020-07-28T09:46:00Z</time>
      </trkpt>
      <trkpt lat="42.9408500" lon="0.3366130">
        <ele>1302.8</ele>
        <time>2020-07-28T09:46:02Z</time>
      </trkpt>
      <trkpt lat="42.9409070" lon="0.3364820">
        <ele>1301.6</ele>
        <time>2020-07-28T09:46:03Z</time>
      </trkpt>
      <trkpt lat="42.9409580" lon="0.3363570">
        <ele>1300.6</ele>
        <time>2020-07-28T09:46:04Z</time>
      </trkpt>
      <trkpt lat="42.9410710" lon="0.3361580">
        <ele>1298.6</ele>
        <time>2020-07-28T09:46:06Z</time>
      </trkpt>
      <trkpt lat="42.9412260" lon="0.3360310">
        <ele>1296.8</ele>
        <time>2020-07-28T09:46:08Z</time>
      </trkpt>
      <trkpt lat="42.9413020" lon="0.3359700">
        <ele>1296.2</ele>
        <time>2020-07-28T09:46:09Z</time>
      </trkpt>
      <trkpt lat="42.9413710" lon="0.3358990">
        <ele>1295.4</ele>
        <time>2020-07-28T09:46:10Z</time>
      </trkpt>
      <trkpt lat="42.9414330" lon="0.3358170">
        <ele>1294.2</ele>
        <time>2020-07-28T09:46:11Z</time>
      </trkpt>
      <trkpt lat="42.9414840" lon="0.3357320">
        <ele>1293.2</ele>
        <time>2020-07-28T09:46:12Z</time>
      </trkpt>
      <trkpt lat="42.9415110" lon="0.3356460">
        <ele>1292.6</ele>
        <time>2020-07-28T09:46:13Z</time>
      </trkpt>
      <trkpt lat="42.9415150" lon="0.3355780">
        <ele>1292.0</ele>
        <time>2020-07-28T09:46:14Z</time>
      </trkpt>
      <trkpt lat="42.9414890" lon="0.3355230">
        <ele>1291.4</ele>
        <time>2020-07-28T09:46:15Z</time>
      </trkpt>
      <trkpt lat="42.9414630" lon="0.3355260">
        <ele>1291.0</ele>
        <time>2020-07-28T09:46:16Z</time>
      </trkpt>
      <trkpt lat="42.9412850" lon="0.3355500">
        <ele>1290.6</ele>
        <time>2020-07-28T09:46:18Z</time>
      </trkpt>
      <trkpt lat="42.9412050" lon="0.3356170">
        <ele>1290.0</ele>
        <time>2020-07-28T09:46:19Z</time>
      </trkpt>
      <trkpt lat="42.9411500" lon="0.3357230">
        <ele>1289.4</ele>
        <time>2020-07-28T09:46:20Z</time>
      </trkpt>
      <trkpt lat="42.9410980" lon="0.3358390">
        <ele>1289.2</ele>
        <time>2020-07-28T09:46:21Z</time>
      </trkpt>
      <trkpt lat="42.9410440" lon="0.3359600">
        <ele>1288.8</ele>
        <time>2020-07-28T09:46:22Z</time>
      </trkpt>
      <trkpt lat="42.9408340" lon="0.3363160">
        <ele>1287.8</ele>
        <time>2020-07-28T09:46:25Z</time>
      </trkpt>
      <trkpt lat="42.9407510" lon="0.3364330">
        <ele>1287.4</ele>
        <time>2020-07-28T09:46:26Z</time>
      </trkpt>
      <trkpt lat="42.9405610" lon="0.3366560">
        <ele>1286.6</ele>
        <time>2020-07-28T09:46:28Z</time>
      </trkpt>
      <trkpt lat="42.9404540" lon="0.3367580">
        <ele>1286.0</ele>
        <time>2020-07-28T09:46:29Z</time>
      </trkpt>
      <trkpt lat="42.9402300" lon="0.3369470">
        <ele>1284.6</ele>
        <time>2020-07-28T09:46:31Z</time>
      </trkpt>
      <trkpt lat="42.9401140" lon="0.3370320">
        <ele>1283.6</ele>
        <time>2020-07-28T09:46:32Z</time>
      </trkpt>
      <trkpt lat="42.9400020" lon="0.3371040">
        <ele>1282.2</ele>
        <time>2020-07-28T09:46:33Z</time>
      </trkpt>
      <trkpt lat="42.9398950" lon="0.3371650">
        <ele>1281.2</ele>
        <time>2020-07-28T09:46:34Z</time>
      </trkpt>
      <trkpt lat="42.9397990" lon="0.3372380">
        <ele>1280.4</ele>
        <time>2020-07-28T09:46:35Z</time>
      </trkpt>
      <trkpt lat="42.9397140" lon="0.3373350">
        <ele>1279.2</ele>
        <time>2020-07-28T09:46:36Z</time>
      </trkpt>
      <trkpt lat="42.9396410" lon="0.3374570">
        <ele>1277.8</ele>
        <time>2020-07-28T09:46:37Z</time>
      </trkpt>
      <trkpt lat="42.9395740" lon="0.3375990">
        <ele>1276.4</ele>
        <time>2020-07-28T09:46:38Z</time>
      </trkpt>
      <trkpt lat="42.9395120" lon="0.3377510">
        <ele>1274.8</ele>
        <time>2020-07-28T09:46:39Z</time>
      </trkpt>
      <trkpt lat="42.9394480" lon="0.3379050">
        <ele>1273.6</ele>
        <time>2020-07-28T09:46:40Z</time>
      </trkpt>
      <trkpt lat="42.9393770" lon="0.3380540">
        <ele>1272.8</ele>
        <time>2020-07-28T09:46:41Z</time>
      </trkpt>
      <trkpt lat="42.9393010" lon="0.3382000">
        <ele>1272.4</ele>
        <time>2020-07-28T09:46:42Z</time>
      </trkpt>
      <trkpt lat="42.9392260" lon="0.3383470">
        <ele>1271.8</ele>
        <time>2020-07-28T09:46:43Z</time>
      </trkpt>
      <trkpt lat="42.9391460" lon="0.3384960">
        <ele>1271.2</ele>
        <time>2020-07-28T09:46:44Z</time>
      </trkpt>
      <trkpt lat="42.9389840" lon="0.3387890">
        <ele>1269.6</ele>
        <time>2020-07-28T09:46:46Z</time>
      </trkpt>
      <trkpt lat="42.9388970" lon="0.3389340">
        <ele>1266.6</ele>
        <time>2020-07-28T09:46:47Z</time>
      </trkpt>
      <trkpt lat="42.9388060" lon="0.3390780">
        <ele>1264.8</ele>
        <time>2020-07-28T09:46:48Z</time>
      </trkpt>
      <trkpt lat="42.9387120" lon="0.3392180">
        <ele>1263.2</ele>
        <time>2020-07-28T09:46:49Z</time>
      </trkpt>
      <trkpt lat="42.9386130" lon="0.3393580">
        <ele>1262.0</ele>
        <time>2020-07-28T09:46:50Z</time>
      </trkpt>
      <trkpt lat="42.9385120" lon="0.3394910">
        <ele>1260.8</ele>
        <time>2020-07-28T09:46:51Z</time>
      </trkpt>
      <trkpt lat="42.9384120" lon="0.3396190">
        <ele>1259.6</ele>
        <time>2020-07-28T09:46:52Z</time>
      </trkpt>
      <trkpt lat="42.9383200" lon="0.3397470">
        <ele>1258.4</ele>
        <time>2020-07-28T09:46:53Z</time>
      </trkpt>
      <trkpt lat="42.9382360" lon="0.3398750">
        <ele>1257.4</ele>
        <time>2020-07-28T09:46:54Z</time>
      </trkpt>
      <trkpt lat="42.9381600" lon="0.3400020">
        <ele>1256.2</ele>
        <time>2020-07-28T09:46:55Z</time>
      </trkpt>
      <trkpt lat="42.9380920" lon="0.3401310">
        <ele>1255.0</ele>
        <time>2020-07-28T09:46:56Z</time>
      </trkpt>
      <trkpt lat="42.9380350" lon="0.3402660">
        <ele>1253.6</ele>
        <time>2020-07-28T09:46:57Z</time>
      </trkpt>
      <trkpt lat="42.9379940" lon="0.3404080">
        <ele>1252.4</ele>
        <time>2020-07-28T09:46:58Z</time>
      </trkpt>
      <trkpt lat="42.9379660" lon="0.3405510">
        <ele>1251.0</ele>
        <time>2020-07-28T09:46:59Z</time>
      </trkpt>
      <trkpt lat="42.9379530" lon="0.3406830">
        <ele>1249.8</ele>
        <time>2020-07-28T09:47:00Z</time>
      </trkpt>
      <trkpt lat="42.9379830" lon="0.3409070">
        <ele>1248.4</ele>
        <time>2020-07-28T09:47:02Z</time>
      </trkpt>
      <trkpt lat="42.9380240" lon="0.3409970">
        <ele>1247.6</ele>
        <time>2020-07-28T09:47:03Z</time>
      </trkpt>
      <trkpt lat="42.9380860" lon="0.3410640">
        <ele>1247.2</ele>
        <time>2020-07-28T09:47:04Z</time>
      </trkpt>
      <trkpt lat="42.9381650" lon="0.3411060">
        <ele>1246.2</ele>
        <time>2020-07-28T09:47:05Z</time>
      </trkpt>
      <trkpt lat="42.9382510" lon="0.3411460">
        <ele>1245.4</ele>
        <time>2020-07-28T09:47:06Z</time>
      </trkpt>
      <trkpt lat="42.9383870" lon="0.3413050">
        <ele>1244.0</ele>
        <time>2020-07-28T09:47:08Z</time>
      </trkpt>
      <trkpt lat="42.9385350" lon="0.3416490">
        <ele>1243.2</ele>
        <time>2020-07-28T09:47:11Z</time>
      </trkpt>
      <trkpt lat="42.9385830" lon="0.3417650">
        <ele>1242.8</ele>
        <time>2020-07-28T09:47:12Z</time>
      </trkpt>
      <trkpt lat="42.9386090" lon="0.3418990">
        <ele>1242.0</ele>
        <time>2020-07-28T09:47:13Z</time>
      </trkpt>
      <trkpt lat="42.9385940" lon="0.3420280">
        <ele>1240.4</ele>
        <time>2020-07-28T09:47:14Z</time>
      </trkpt>
      <trkpt lat="42.9385550" lon="0.3421480">
        <ele>1239.4</ele>
        <time>2020-07-28T09:47:15Z</time>
      </trkpt>
      <trkpt lat="42.9385010" lon="0.3422670">
        <ele>1238.4</ele>
        <time>2020-07-28T09:47:16Z</time>
      </trkpt>
      <trkpt lat="42.9383610" lon="0.3424820">
        <ele>1236.6</ele>
        <time>2020-07-28T09:47:18Z</time>
      </trkpt>
      <trkpt lat="42.9382030" lon="0.3426900">
        <ele>1235.6</ele>
        <time>2020-07-28T09:47:20Z</time>
      </trkpt>
      <trkpt lat="42.9380180" lon="0.3428870">
        <ele>1234.4</ele>
        <time>2020-07-28T09:47:22Z</time>
      </trkpt>
      <trkpt lat="42.9378110" lon="0.3430710">
        <ele>1233.2</ele>
        <time>2020-07-28T09:47:24Z</time>
      </trkpt>
      <trkpt lat="42.9375970" lon="0.3432580">
        <ele>1231.4</ele>
        <time>2020-07-28T09:47:26Z</time>
      </trkpt>
      <trkpt lat="42.9374910" lon="0.3433570">
        <ele>1230.6</ele>
        <time>2020-07-28T09:47:27Z</time>
      </trkpt>
      <trkpt lat="42.9373850" lon="0.3434610">
        <ele>1229.6</ele>
        <time>2020-07-28T09:47:28Z</time>
      </trkpt>
      <trkpt lat="42.9372810" lon="0.3435700">
        <ele>1228.6</ele>
        <time>2020-07-28T09:47:29Z</time>
      </trkpt>
      <trkpt lat="42.9371780" lon="0.3436860">
        <ele>1227.6</ele>
        <time>2020-07-28T09:47:30Z</time>
      </trkpt>
      <trkpt lat="42.9370740" lon="0.3438030">
        <ele>1226.4</ele>
        <time>2020-07-28T09:47:31Z</time>
      </trkpt>
      <trkpt lat="42.9369690" lon="0.3439220">
        <ele>1225.2</ele>
        <time>2020-07-28T09:47:32Z</time>
      </trkpt>
      <trkpt lat="42.9368630" lon="0.3440410">
        <ele>1224.0</ele>
        <time>2020-07-28T09:47:33Z</time>
      </trkpt>
      <trkpt lat="42.9367560" lon="0.3441640">
        <ele>1222.8</ele>
        <time>2020-07-28T09:47:34Z</time>
      </trkpt>
      <trkpt lat="42.9366500" lon="0.3442900">
        <ele>1221.6</ele>
        <time>2020-07-28T09:47:35Z</time>
      </trkpt>
      <trkpt lat="42.9365430" lon="0.3444180">
        <ele>1220.2</ele>
        <time>2020-07-28T09:47:36Z</time>
      </trkpt>
      <trkpt lat="42.9364370" lon="0.3445490">
        <ele>1219.2</ele>
        <time>2020-07-28T09:47:37Z</time>
      </trkpt>
      <trkpt lat="42.9363290" lon="0.3446790">
        <ele>1218.0</ele>
        <time>2020-07-28T09:47:38Z</time>
      </trkpt>
      <trkpt lat="42.9362150" lon="0.3448010">
        <ele>1216.6</ele>
        <time>2020-07-28T09:47:39Z</time>
      </trkpt>
      <trkpt lat="42.9360960" lon="0.3449130">
        <ele>1215.4</ele>
        <time>2020-07-28T09:47:40Z</time>
      </trkpt>
      <trkpt lat="42.9359750" lon="0.3450200">
        <ele>1214.2</ele>
        <time>2020-07-28T09:47:41Z</time>
      </trkpt>
      <trkpt lat="42.9358550" lon="0.3451200">
        <ele>1211.6</ele>
        <time>2020-07-28T09:47:42Z</time>
      </trkpt>
      <trkpt lat="42.9357390" lon="0.3452170">
        <ele>1210.2</ele>
        <time>2020-07-28T09:47:43Z</time>
      </trkpt>
      <trkpt lat="42.9356260" lon="0.3453120">
        <ele>1208.8</ele>
        <time>2020-07-28T09:47:44Z</time>
      </trkpt>
      <trkpt lat="42.9355170" lon="0.3454040">
        <ele>1207.6</ele>
        <time>2020-07-28T09:47:45Z</time>
      </trkpt>
      <trkpt lat="42.9354130" lon="0.3454930">
        <ele>1206.0</ele>
        <time>2020-07-28T09:47:46Z</time>
      </trkpt>
      <trkpt lat="42.9353120" lon="0.3455790">
        <ele>1204.8</ele>
        <time>2020-07-28T09:47:47Z</time>
      </trkpt>
      <trkpt lat="42.9352130" lon="0.3456620">
        <ele>1203.8</ele>
        <time>2020-07-28T09:47:48Z</time>
      </trkpt>
      <trkpt lat="42.9351120" lon="0.3457420">
        <ele>1202.4</ele>
        <time>2020-07-28T09:47:49Z</time>
      </trkpt>
      <trkpt lat="42.9349050" lon="0.3458900">
        <ele>1200.8</ele>
        <time>2020-07-28T09:47:51Z</time>
      </trkpt>
      <trkpt lat="42.9346980" lon="0.3460220">
        <ele>1199.0</ele>
        <time>2020-07-28T09:47:53Z</time>
      </trkpt>
      <trkpt lat="42.9344880" lon="0.3461540">
        <ele>1197.2</ele>
        <time>2020-07-28T09:47:55Z</time>
      </trkpt>
      <trkpt lat="42.9342680" lon="0.3462820">
        <ele>1195.2</ele>
        <time>2020-07-28T09:47:57Z</time>
      </trkpt>
      <trkpt lat="42.9340340" lon="0.3463970">
        <ele>1193.8</ele>
        <time>2020-07-28T09:47:59Z</time>
      </trkpt>
      <trkpt lat="42.9337950" lon="0.3464960">
        <ele>1192.2</ele>
        <time>2020-07-28T09:48:01Z</time>
      </trkpt>
      <trkpt lat="42.9335770" lon="0.3465890">
        <ele>1191.2</ele>
        <time>2020-07-28T09:48:03Z</time>
      </trkpt>
      <trkpt lat="42.9334730" lon="0.3466350">
        <ele>1190.2</ele>
        <time>2020-07-28T09:48:04Z</time>
      </trkpt>
      <trkpt lat="42.9333670" lon="0.3466870">
        <ele>1188.8</ele>
        <time>2020-07-28T09:48:05Z</time>
      </trkpt>
      <trkpt lat="42.9332590" lon="0.3467450">
        <ele>1187.4</ele>
        <time>2020-07-28T09:48:06Z</time>
      </trkpt>
      <trkpt lat="42.9331510" lon="0.3468060">
        <ele>1186.2</ele>
        <time>2020-07-28T09:48:07Z</time>
      </trkpt>
      <trkpt lat="42.9330450" lon="0.3468730">
        <ele>1185.0</ele>
        <time>2020-07-28T09:48:08Z</time>
      </trkpt>
      <trkpt lat="42.9329410" lon="0.3469350">
        <ele>1183.8</ele>
        <time>2020-07-28T09:48:09Z</time>
      </trkpt>
      <trkpt lat="42.9328400" lon="0.3469950">
        <ele>1182.2</ele>
        <time>2020-07-28T09:48:10Z</time>
      </trkpt>
      <trkpt lat="42.9326370" lon="0.3471050">
        <ele>1180.8</ele>
        <time>2020-07-28T09:48:12Z</time>
      </trkpt>
      <trkpt lat="42.9324350" lon="0.3471960">
        <ele>1178.8</ele>
        <time>2020-07-28T09:48:14Z</time>
      </trkpt>
      <trkpt lat="42.9323360" lon="0.3472470">
        <ele>1177.4</ele>
        <time>2020-07-28T09:48:15Z</time>
      </trkpt>
      <trkpt lat="42.9322390" lon="0.3473070">
        <ele>1176.2</ele>
        <time>2020-07-28T09:48:16Z</time>
      </trkpt>
      <trkpt lat="42.9321430" lon="0.3473760">
        <ele>1175.2</ele>
        <time>2020-07-28T09:48:17Z</time>
      </trkpt>
      <trkpt lat="42.9319420" lon="0.3475280">
        <ele>1173.8</ele>
        <time>2020-07-28T09:48:19Z</time>
      </trkpt>
      <trkpt lat="42.9317370" lon="0.3477000">
        <ele>1172.2</ele>
        <time>2020-07-28T09:48:21Z</time>
      </trkpt>
      <trkpt lat="42.9315360" lon="0.3478940">
        <ele>1170.4</ele>
        <time>2020-07-28T09:48:23Z</time>
      </trkpt>
      <trkpt lat="42.9314400" lon="0.3479990">
        <ele>1169.4</ele>
        <time>2020-07-28T09:48:24Z</time>
      </trkpt>
      <trkpt lat="42.9313420" lon="0.3481060">
        <ele>1168.2</ele>
        <time>2020-07-28T09:48:25Z</time>
      </trkpt>
      <trkpt lat="42.9312460" lon="0.3482150">
        <ele>1166.8</ele>
        <time>2020-07-28T09:48:26Z</time>
      </trkpt>
      <trkpt lat="42.9311490" lon="0.3483240">
        <ele>1165.6</ele>
        <time>2020-07-28T09:48:27Z</time>
      </trkpt>
      <trkpt lat="42.9310550" lon="0.3484250">
        <ele>1164.4</ele>
        <time>2020-07-28T09:48:28Z</time>
      </trkpt>
      <trkpt lat="42.9309620" lon="0.3485270">
        <ele>1163.4</ele>
        <time>2020-07-28T09:48:29Z</time>
      </trkpt>
      <trkpt lat="42.9307680" lon="0.3487450">
        <ele>1161.6</ele>
        <time>2020-07-28T09:48:31Z</time>
      </trkpt>
      <trkpt lat="42.9306670" lon="0.3488510">
        <ele>1160.4</ele>
        <time>2020-07-28T09:48:32Z</time>
      </trkpt>
      <trkpt lat="42.9305630" lon="0.3489630">
        <ele>1159.0</ele>
        <time>2020-07-28T09:48:33Z</time>
      </trkpt>
      <trkpt lat="42.9304550" lon="0.3490730">
        <ele>1157.6</ele>
        <time>2020-07-28T09:48:34Z</time>
      </trkpt>
      <trkpt lat="42.9303480" lon="0.3491780">
        <ele>1156.2</ele>
        <time>2020-07-28T09:48:35Z</time>
      </trkpt>
      <trkpt lat="42.9302700" lon="0.3492770">
        <ele>1154.8</ele>
        <time>2020-07-28T09:48:36Z</time>
      </trkpt>
      <trkpt lat="42.9301770" lon="0.3493750">
        <ele>1153.6</ele>
        <time>2020-07-28T09:48:37Z</time>
      </trkpt>
      <trkpt lat="42.9300710" lon="0.3494800">
        <ele>1151.2</ele>
        <time>2020-07-28T09:48:38Z</time>
      </trkpt>
      <trkpt lat="42.9299580" lon="0.3495820">
        <ele>1149.6</ele>
        <time>2020-07-28T09:48:39Z</time>
      </trkpt>
      <trkpt lat="42.9298400" lon="0.3496900">
        <ele>1148.4</ele>
        <time>2020-07-28T09:48:40Z</time>
      </trkpt>
      <trkpt lat="42.9297200" lon="0.3498000">
        <ele>1147.0</ele>
        <time>2020-07-28T09:48:41Z</time>
      </trkpt>
      <trkpt lat="42.9296040" lon="0.3499030">
        <ele>1146.0</ele>
        <time>2020-07-28T09:48:42Z</time>
      </trkpt>
      <trkpt lat="42.9294900" lon="0.3500090">
        <ele>1144.4</ele>
        <time>2020-07-28T09:48:43Z</time>
      </trkpt>
      <trkpt lat="42.9293780" lon="0.3501110">
        <ele>1143.0</ele>
        <time>2020-07-28T09:48:44Z</time>
      </trkpt>
      <trkpt lat="42.9292650" lon="0.3502180">
        <ele>1141.6</ele>
        <time>2020-07-28T09:48:45Z</time>
      </trkpt>
      <trkpt lat="42.9291530" lon="0.3503260">
        <ele>1140.4</ele>
        <time>2020-07-28T09:48:46Z</time>
      </trkpt>
      <trkpt lat="42.9290420" lon="0.3504280">
        <ele>1138.8</ele>
        <time>2020-07-28T09:48:47Z</time>
      </trkpt>
      <trkpt lat="42.9289260" lon="0.3505260">
        <ele>1137.6</ele>
        <time>2020-07-28T09:48:48Z</time>
      </trkpt>
      <trkpt lat="42.9288060" lon="0.3506240">
        <ele>1136.2</ele>
        <time>2020-07-28T09:48:49Z</time>
      </trkpt>
      <trkpt lat="42.9286820" lon="0.3507200">
        <ele>1135.4</ele>
        <time>2020-07-28T09:48:50Z</time>
      </trkpt>
      <trkpt lat="42.9285550" lon="0.3508120">
        <ele>1134.8</ele>
        <time>2020-07-28T09:48:51Z</time>
      </trkpt>
      <trkpt lat="42.9284240" lon="0.3509100">
        <ele>1133.8</ele>
        <time>2020-07-28T09:48:52Z</time>
      </trkpt>
      <trkpt lat="42.9282940" lon="0.3509990">
        <ele>1132.4</ele>
        <time>2020-07-28T09:48:53Z</time>
      </trkpt>
      <trkpt lat="42.9280340" lon="0.3511500">
        <ele>1130.2</ele>
        <time>2020-07-28T09:48:55Z</time>
      </trkpt>
      <trkpt lat="42.9279050" lon="0.3512030">
        <ele>1128.8</ele>
        <time>2020-07-28T09:48:56Z</time>
      </trkpt>
      <trkpt lat="42.9277770" lon="0.3512450">
        <ele>1127.6</ele>
        <time>2020-07-28T09:48:57Z</time>
      </trkpt>
      <trkpt lat="42.9276500" lon="0.3512770">
        <ele>1126.4</ele>
        <time>2020-07-28T09:48:58Z</time>
      </trkpt>
      <trkpt lat="42.9275260" lon="0.3513000">
        <ele>1124.8</ele>
        <time>2020-07-28T09:48:59Z</time>
      </trkpt>
      <trkpt lat="42.9274070" lon="0.3513100">
        <ele>1123.0</ele>
        <time>2020-07-28T09:49:00Z</time>
      </trkpt>
      <trkpt lat="42.9272900" lon="0.3513140">
        <ele>1121.4</ele>
        <time>2020-07-28T09:49:01Z</time>
      </trkpt>
      <trkpt lat="42.9271790" lon="0.3513180">
        <ele>1120.2</ele>
        <time>2020-07-28T09:49:02Z</time>
      </trkpt>
      <trkpt lat="42.9270760" lon="0.3513360">
        <ele>1119.2</ele>
        <time>2020-07-28T09:49:03Z</time>
      </trkpt>
      <trkpt lat="42.9268900" lon="0.3514390">
        <ele>1116.6</ele>
        <time>2020-07-28T09:49:05Z</time>
      </trkpt>
      <trkpt lat="42.9268070" lon="0.3515320">
        <ele>1115.8</ele>
        <time>2020-07-28T09:49:06Z</time>
      </trkpt>
      <trkpt lat="42.9267290" lon="0.3516420">
        <ele>1115.2</ele>
        <time>2020-07-28T09:49:07Z</time>
      </trkpt>
      <trkpt lat="42.9266530" lon="0.3517640">
        <ele>1114.6</ele>
        <time>2020-07-28T09:49:08Z</time>
      </trkpt>
      <trkpt lat="42.9265770" lon="0.3518870">
        <ele>1114.0</ele>
        <time>2020-07-28T09:49:09Z</time>
      </trkpt>
      <trkpt lat="42.9264960" lon="0.3520100">
        <ele>1113.4</ele>
        <time>2020-07-28T09:49:10Z</time>
      </trkpt>
      <trkpt lat="42.9264130" lon="0.3521350">
        <ele>1112.8</ele>
        <time>2020-07-28T09:49:11Z</time>
      </trkpt>
      <trkpt lat="42.9262420" lon="0.3524000">
        <ele>1111.2</ele>
        <time>2020-07-28T09:49:13Z</time>
      </trkpt>
      <trkpt lat="42.9261510" lon="0.3525260">
        <ele>1109.8</ele>
        <time>2020-07-28T09:49:14Z</time>
      </trkpt>
      <trkpt lat="42.9260560" lon="0.3526420">
        <ele>1108.2</ele>
        <time>2020-07-28T09:49:15Z</time>
      </trkpt>
      <trkpt lat="42.9259600" lon="0.3527610">
        <ele>1106.6</ele>
        <time>2020-07-28T09:49:16Z</time>
      </trkpt>
      <trkpt lat="42.9258620" lon="0.3528740">
        <ele>1105.2</ele>
        <time>2020-07-28T09:49:17Z</time>
      </trkpt>
      <trkpt lat="42.9257640" lon="0.3529890">
        <ele>1103.8</ele>
        <time>2020-07-28T09:49:18Z</time>
      </trkpt>
      <trkpt lat="42.9256700" lon="0.3531120">
        <ele>1102.2</ele>
        <time>2020-07-28T09:49:19Z</time>
      </trkpt>
      <trkpt lat="42.9255820" lon="0.3532410">
        <ele>1100.8</ele>
        <time>2020-07-28T09:49:20Z</time>
      </trkpt>
      <trkpt lat="42.9255000" lon="0.3533690">
        <ele>1099.2</ele>
        <time>2020-07-28T09:49:21Z</time>
      </trkpt>
      <trkpt lat="42.9254250" lon="0.3534920">
        <ele>1097.8</ele>
        <time>2020-07-28T09:49:22Z</time>
      </trkpt>
      <trkpt lat="42.9253630" lon="0.3536140">
        <ele>1096.6</ele>
        <time>2020-07-28T09:49:23Z</time>
      </trkpt>
      <trkpt lat="42.9253170" lon="0.3537370">
        <ele>1095.8</ele>
        <time>2020-07-28T09:49:24Z</time>
      </trkpt>
      <trkpt lat="42.9252900" lon="0.3538560">
        <ele>1095.0</ele>
        <time>2020-07-28T09:49:25Z</time>
      </trkpt>
      <trkpt lat="42.9252740" lon="0.3539590">
        <ele>1094.0</ele>
        <time>2020-07-28T09:49:26Z</time>
      </trkpt>
      <trkpt lat="42.9252600" lon="0.3540460">
        <ele>1092.6</ele>
        <time>2020-07-28T09:49:27Z</time>
      </trkpt>
      <trkpt lat="42.9252400" lon="0.3541250">
        <ele>1091.4</ele>
        <time>2020-07-28T09:49:28Z</time>
      </trkpt>
      <trkpt lat="42.9252100" lon="0.3541850">
        <ele>1090.0</ele>
        <time>2020-07-28T09:49:29Z</time>
      </trkpt>
      <trkpt lat="42.9251750" lon="0.3542180">
        <ele>1089.2</ele>
        <time>2020-07-28T09:49:30Z</time>
      </trkpt>
      <trkpt lat="42.9251430" lon="0.3542300">
        <ele>1088.6</ele>
        <time>2020-07-28T09:49:31Z</time>
      </trkpt>
      <trkpt lat="42.9250340" lon="0.3541840">
        <ele>1087.4</ele>
        <time>2020-07-28T09:51:58Z</time>
      </trkpt>
      <trkpt lat="42.9250180" lon="0.3541480">
        <ele>1087.4</ele>
        <time>2020-07-28T09:51:59Z</time>
      </trkpt>
      <trkpt lat="42.9250220" lon="0.3539350">
        <ele>1087.2</ele>
        <time>2020-07-28T09:52:02Z</time>
      </trkpt>
      <trkpt lat="42.9250920" lon="0.3536480">
        <ele>1087.0</ele>
        <time>2020-07-28T09:52:05Z</time>
      </trkpt>
      <trkpt lat="42.9251240" lon="0.3535420">
        <ele>1086.8</ele>
        <time>2020-07-28T09:52:06Z</time>
      </trkpt>
      <trkpt lat="42.9251970" lon="0.3533110">
        <ele>1086.0</ele>
        <time>2020-07-28T09:52:08Z</time>
      </trkpt>
      <trkpt lat="42.9252740" lon="0.3530580">
        <ele>1085.0</ele>
        <time>2020-07-28T09:52:10Z</time>
      </trkpt>
      <trkpt lat="42.9253050" lon="0.3529210">
        <ele>1084.4</ele>
        <time>2020-07-28T09:52:11Z</time>
      </trkpt>
      <trkpt lat="42.9253340" lon="0.3527820">
        <ele>1083.6</ele>
        <time>2020-07-28T09:52:12Z</time>
      </trkpt>
      <trkpt lat="42.9253960" lon="0.3524950">
        <ele>1082.2</ele>
        <time>2020-07-28T09:52:14Z</time>
      </trkpt>
      <trkpt lat="42.9254610" lon="0.3521860">
        <ele>1080.6</ele>
        <time>2020-07-28T09:52:16Z</time>
      </trkpt>
      <trkpt lat="42.9255510" lon="0.3518800">
        <ele>1078.8</ele>
        <time>2020-07-28T09:52:18Z</time>
      </trkpt>
      <trkpt lat="42.9256670" lon="0.3515730">
        <ele>1077.0</ele>
        <time>2020-07-28T09:52:20Z</time>
      </trkpt>
      <trkpt lat="42.9257890" lon="0.3512600">
        <ele>1075.2</ele>
        <time>2020-07-28T09:52:22Z</time>
      </trkpt>
      <trkpt lat="42.9259130" lon="0.3509450">
        <ele>1072.8</ele>
        <time>2020-07-28T09:52:24Z</time>
      </trkpt>
      <trkpt lat="42.9260410" lon="0.3506250">
        <ele>1071.0</ele>
        <time>2020-07-28T09:52:26Z</time>
      </trkpt>
      <trkpt lat="42.9261080" lon="0.3504640">
        <ele>1070.0</ele>
        <time>2020-07-28T09:52:27Z</time>
      </trkpt>
      <trkpt lat="42.9261790" lon="0.3503060">
        <ele>1068.6</ele>
        <time>2020-07-28T09:52:28Z</time>
      </trkpt>
      <trkpt lat="42.9262500" lon="0.3501460">
        <ele>1067.4</ele>
        <time>2020-07-28T09:52:29Z</time>
      </trkpt>
      <trkpt lat="42.9263230" lon="0.3499870">
        <ele>1066.0</ele>
        <time>2020-07-28T09:52:30Z</time>
      </trkpt>
      <trkpt lat="42.9264000" lon="0.3498280">
        <ele>1064.8</ele>
        <time>2020-07-28T09:52:31Z</time>
      </trkpt>
      <trkpt lat="42.9264780" lon="0.3496710">
        <ele>1063.6</ele>
        <time>2020-07-28T09:52:32Z</time>
      </trkpt>
      <trkpt lat="42.9265590" lon="0.3495190">
        <ele>1062.6</ele>
        <time>2020-07-28T09:52:33Z</time>
      </trkpt>
      <trkpt lat="42.9266450" lon="0.3493690">
        <ele>1061.4</ele>
        <time>2020-07-28T09:52:34Z</time>
      </trkpt>
      <trkpt lat="42.9267340" lon="0.3492200">
        <ele>1060.2</ele>
        <time>2020-07-28T09:52:35Z</time>
      </trkpt>
      <trkpt lat="42.9269320" lon="0.3489410">
        <ele>1058.2</ele>
        <time>2020-07-28T09:52:37Z</time>
      </trkpt>
      <trkpt lat="42.9270380" lon="0.3488160">
        <ele>1057.0</ele>
        <time>2020-07-28T09:52:38Z</time>
      </trkpt>
      <trkpt lat="42.9271410" lon="0.3486920">
        <ele>1055.6</ele>
        <time>2020-07-28T09:52:39Z</time>
      </trkpt>
      <trkpt lat="42.9272410" lon="0.3485670">
        <ele>1054.2</ele>
        <time>2020-07-28T09:52:40Z</time>
      </trkpt>
      <trkpt lat="42.9274350" lon="0.3483050">
        <ele>1052.4</ele>
        <time>2020-07-28T09:52:42Z</time>
      </trkpt>
      <trkpt lat="42.9275290" lon="0.3481710">
        <ele>1051.6</ele>
        <time>2020-07-28T09:52:43Z</time>
      </trkpt>
      <trkpt lat="42.9276210" lon="0.3480370">
        <ele>1050.4</ele>
        <time>2020-07-28T09:52:44Z</time>
      </trkpt>
      <trkpt lat="42.9277110" lon="0.3479040">
        <ele>1049.2</ele>
        <time>2020-07-28T09:52:45Z</time>
      </trkpt>
      <trkpt lat="42.9277970" lon="0.3477680">
        <ele>1048.0</ele>
        <time>2020-07-28T09:52:46Z</time>
      </trkpt>
      <trkpt lat="42.9278800" lon="0.3476240">
        <ele>1047.0</ele>
        <time>2020-07-28T09:52:47Z</time>
      </trkpt>
      <trkpt lat="42.9279450" lon="0.3474680">
        <ele>1046.0</ele>
        <time>2020-07-28T09:52:48Z</time>
      </trkpt>
      <trkpt lat="42.9279890" lon="0.3473010">
        <ele>1045.0</ele>
        <time>2020-07-28T09:52:49Z</time>
      </trkpt>
      <trkpt lat="42.9280200" lon="0.3469450">
        <ele>1043.6</ele>
        <time>2020-07-28T09:52:51Z</time>
      </trkpt>
      <trkpt lat="42.9280160" lon="0.3467620">
        <ele>1042.4</ele>
        <time>2020-07-28T09:52:52Z</time>
      </trkpt>
      <trkpt lat="42.9280090" lon="0.3465830">
        <ele>1041.6</ele>
        <time>2020-07-28T09:52:53Z</time>
      </trkpt>
      <trkpt lat="42.9280040" lon="0.3464150">
        <ele>1040.8</ele>
        <time>2020-07-28T09:52:54Z</time>
      </trkpt>
      <trkpt lat="42.9280050" lon="0.3462570">
        <ele>1039.8</ele>
        <time>2020-07-28T09:52:55Z</time>
      </trkpt>
      <trkpt lat="42.9280360" lon="0.3459510">
        <ele>1038.0</ele>
        <time>2020-07-28T09:52:57Z</time>
      </trkpt>
      <trkpt lat="42.9280710" lon="0.3458030">
        <ele>1037.4</ele>
        <time>2020-07-28T09:52:58Z</time>
      </trkpt>
      <trkpt lat="42.9281520" lon="0.3455460">
        <ele>1036.2</ele>
        <time>2020-07-28T09:53:00Z</time>
      </trkpt>
      <trkpt lat="42.9281810" lon="0.3454370">
        <ele>1035.2</ele>
        <time>2020-07-28T09:53:01Z</time>
      </trkpt>
      <trkpt lat="42.9281950" lon="0.3453300">
        <ele>1034.2</ele>
        <time>2020-07-28T09:53:02Z</time>
      </trkpt>
      <trkpt lat="42.9281850" lon="0.3452190">
        <ele>1033.6</ele>
        <time>2020-07-28T09:53:03Z</time>
      </trkpt>
      <trkpt lat="42.9281470" lon="0.3451240">
        <ele>1033.2</ele>
        <time>2020-07-28T09:53:04Z</time>
      </trkpt>
      <trkpt lat="42.9280810" lon="0.3450320">
        <ele>1032.4</ele>
        <time>2020-07-28T09:53:05Z</time>
      </trkpt>
      <trkpt lat="42.9279060" lon="0.3448460">
        <ele>1031.0</ele>
        <time>2020-07-28T09:53:07Z</time>
      </trkpt>
      <trkpt lat="42.9276230" lon="0.3445660">
        <ele>1029.8</ele>
        <time>2020-07-28T09:53:10Z</time>
      </trkpt>
      <trkpt lat="42.9274530" lon="0.3444200">
        <ele>1029.0</ele>
        <time>2020-07-28T09:53:12Z</time>
      </trkpt>
      <trkpt lat="42.9273670" lon="0.3443870">
        <ele>1028.0</ele>
        <time>2020-07-28T09:53:13Z</time>
      </trkpt>
      <trkpt lat="42.9272760" lon="0.3443780">
        <ele>1026.8</ele>
        <time>2020-07-28T09:53:14Z</time>
      </trkpt>
      <trkpt lat="42.9271770" lon="0.3443860">
        <ele>1025.6</ele>
        <time>2020-07-28T09:53:15Z</time>
      </trkpt>
      <trkpt lat="42.9270760" lon="0.3444140">
        <ele>1024.4</ele>
        <time>2020-07-28T09:53:16Z</time>
      </trkpt>
      <trkpt lat="42.9268850" lon="0.3445410">
        <ele>1022.4</ele>
        <time>2020-07-28T09:53:18Z</time>
      </trkpt>
      <trkpt lat="42.9267910" lon="0.3446260">
        <ele>1021.4</ele>
        <time>2020-07-28T09:53:19Z</time>
      </trkpt>
      <trkpt lat="42.9266990" lon="0.3447140">
        <ele>1020.2</ele>
        <time>2020-07-28T09:53:20Z</time>
      </trkpt>
      <trkpt lat="42.9265360" lon="0.3449380">
        <ele>1019.2</ele>
        <time>2020-07-28T09:53:22Z</time>
      </trkpt>
      <trkpt lat="42.9264680" lon="0.3450670">
        <ele>1018.6</ele>
        <time>2020-07-28T09:53:23Z</time>
      </trkpt>
      <trkpt lat="42.9263750" lon="0.3453410">
        <ele>1017.4</ele>
        <time>2020-07-28T09:53:25Z</time>
      </trkpt>
      <trkpt lat="42.9263450" lon="0.3456220">
        <ele>1015.4</ele>
        <time>2020-07-28T09:53:27Z</time>
      </trkpt>
      <trkpt lat="42.9263570" lon="0.3457630">
        <ele>1014.2</ele>
        <time>2020-07-28T09:53:28Z</time>
      </trkpt>
      <trkpt lat="42.9263860" lon="0.3458930">
        <ele>1013.2</ele>
        <time>2020-07-28T09:53:29Z</time>
      </trkpt>
      <trkpt lat="42.9264910" lon="0.3461120">
        <ele>1011.6</ele>
        <time>2020-07-28T09:53:31Z</time>
      </trkpt>
      <trkpt lat="42.9266570" lon="0.3462640">
        <ele>1010.2</ele>
        <time>2020-07-28T09:53:33Z</time>
      </trkpt>
      <trkpt lat="42.9267470" lon="0.3463360">
        <ele>1010.0</ele>
        <time>2020-07-28T09:53:34Z</time>
      </trkpt>
      <trkpt lat="42.9269230" lon="0.3464950">
        <ele>1009.2</ele>
        <time>2020-07-28T09:53:36Z</time>
      </trkpt>
      <trkpt lat="42.9270400" lon="0.3467090">
        <ele>1008.2</ele>
        <time>2020-07-28T09:53:38Z</time>
      </trkpt>
      <trkpt lat="42.9270620" lon="0.3468320">
        <ele>1007.8</ele>
        <time>2020-07-28T09:53:39Z</time>
      </trkpt>
      <trkpt lat="42.9270410" lon="0.3470380">
        <ele>1006.4</ele>
        <time>2020-07-28T09:53:41Z</time>
      </trkpt>
      <trkpt lat="42.9269230" lon="0.3471650">
        <ele>1004.4</ele>
        <time>2020-07-28T09:53:43Z</time>
      </trkpt>
      <trkpt lat="42.9268400" lon="0.3472060">
        <ele>1003.2</ele>
        <time>2020-07-28T09:53:44Z</time>
      </trkpt>
      <trkpt lat="42.9267540" lon="0.3472430">
        <ele>1002.6</ele>
        <time>2020-07-28T09:53:45Z</time>
      </trkpt>
      <trkpt lat="42.9266660" lon="0.3472770">
        <ele>1002.0</ele>
        <time>2020-07-28T09:53:46Z</time>
      </trkpt>
      <trkpt lat="42.9264840" lon="0.3473490">
        <ele>1000.8</ele>
        <time>2020-07-28T09:53:48Z</time>
      </trkpt>
      <trkpt lat="42.9262900" lon="0.3474420">
        <ele>1000.4</ele>
        <time>2020-07-28T09:53:50Z</time>
      </trkpt>
      <trkpt lat="42.9260830" lon="0.3475700">
        <ele>1000.2</ele>
        <time>2020-07-28T09:53:52Z</time>
      </trkpt>
      <trkpt lat="42.9258700" lon="0.3477000">
        <ele>999.6</ele>
        <time>2020-07-28T09:53:54Z</time>
      </trkpt>
      <trkpt lat="42.9255430" lon="0.3479580">
        <ele>998.2</ele>
        <time>2020-07-28T09:53:57Z</time>
      </trkpt>
      <trkpt lat="42.9253430" lon="0.3481880">
        <ele>997.0</ele>
        <time>2020-07-28T09:53:59Z</time>
      </trkpt>
      <trkpt lat="42.9252500" lon="0.3483100">
        <ele>996.0</ele>
        <time>2020-07-28T09:54:00Z</time>
      </trkpt>
      <trkpt lat="42.9251610" lon="0.3484400">
        <ele>995.0</ele>
        <time>2020-07-28T09:54:01Z</time>
      </trkpt>
      <trkpt lat="42.9250750" lon="0.3485740">
        <ele>994.0</ele>
        <time>2020-07-28T09:54:02Z</time>
      </trkpt>
      <trkpt lat="42.9249930" lon="0.3487140">
        <ele>992.8</ele>
        <time>2020-07-28T09:54:03Z</time>
      </trkpt>
      <trkpt lat="42.9249130" lon="0.3488600">
        <ele>991.8</ele>
        <time>2020-07-28T09:54:04Z</time>
      </trkpt>
      <trkpt lat="42.9248240" lon="0.3489900">
        <ele>990.6</ele>
        <time>2020-07-28T09:54:05Z</time>
      </trkpt>
      <trkpt lat="42.9247320" lon="0.3491480">
        <ele>989.2</ele>
        <time>2020-07-28T09:54:06Z</time>
      </trkpt>
      <trkpt lat="42.9246380" lon="0.3492770">
        <ele>988.0</ele>
        <time>2020-07-28T09:54:07Z</time>
      </trkpt>
      <trkpt lat="42.9244330" lon="0.3494950">
        <ele>986.4</ele>
        <time>2020-07-28T09:54:09Z</time>
      </trkpt>
      <trkpt lat="42.9242130" lon="0.3497170">
        <ele>984.4</ele>
        <time>2020-07-28T09:54:11Z</time>
      </trkpt>
      <trkpt lat="42.9241000" lon="0.3498230">
        <ele>983.6</ele>
        <time>2020-07-28T09:54:12Z</time>
      </trkpt>
      <trkpt lat="42.9239850" lon="0.3499270">
        <ele>982.6</ele>
        <time>2020-07-28T09:54:13Z</time>
      </trkpt>
      <trkpt lat="42.9238700" lon="0.3500290">
        <ele>981.0</ele>
        <time>2020-07-28T09:54:14Z</time>
      </trkpt>
      <trkpt lat="42.9237550" lon="0.3501310">
        <ele>980.2</ele>
        <time>2020-07-28T09:54:15Z</time>
      </trkpt>
      <trkpt lat="42.9236400" lon="0.3502330">
        <ele>979.4</ele>
        <time>2020-07-28T09:54:16Z</time>
      </trkpt>
      <trkpt lat="42.9234120" lon="0.3504510">
        <ele>978.2</ele>
        <time>2020-07-28T09:54:18Z</time>
      </trkpt>
      <trkpt lat="42.9231980" lon="0.3506660">
        <ele>976.6</ele>
        <time>2020-07-28T09:54:20Z</time>
      </trkpt>
      <trkpt lat="42.9230090" lon="0.3508800">
        <ele>975.2</ele>
        <time>2020-07-28T09:54:22Z</time>
      </trkpt>
      <trkpt lat="42.9228510" lon="0.3510920">
        <ele>973.6</ele>
        <time>2020-07-28T09:54:24Z</time>
      </trkpt>
      <trkpt lat="42.9227860" lon="0.3512010">
        <ele>972.2</ele>
        <time>2020-07-28T09:54:25Z</time>
      </trkpt>
      <trkpt lat="42.9227360" lon="0.3513140">
        <ele>970.8</ele>
        <time>2020-07-28T09:54:26Z</time>
      </trkpt>
      <trkpt lat="42.9227050" lon="0.3514350">
        <ele>969.8</ele>
        <time>2020-07-28T09:54:27Z</time>
      </trkpt>
      <trkpt lat="42.9227080" lon="0.3516870">
        <ele>968.6</ele>
        <time>2020-07-28T09:54:29Z</time>
      </trkpt>
      <trkpt lat="42.9227030" lon="0.3518130">
        <ele>968.0</ele>
        <time>2020-07-28T09:54:30Z</time>
      </trkpt>
      <trkpt lat="42.9226680" lon="0.3519360">
        <ele>967.4</ele>
        <time>2020-07-28T09:54:31Z</time>
      </trkpt>
      <trkpt lat="42.9226030" lon="0.3520410">
        <ele>967.0</ele>
        <time>2020-07-28T09:54:32Z</time>
      </trkpt>
      <trkpt lat="42.9224440" lon="0.3522340">
        <ele>966.8</ele>
        <time>2020-07-28T09:54:34Z</time>
      </trkpt>
      <trkpt lat="42.9222770" lon="0.3524410">
        <ele>966.2</ele>
        <time>2020-07-28T09:54:36Z</time>
      </trkpt>
      <trkpt lat="42.9221010" lon="0.3526480">
        <ele>964.2</ele>
        <time>2020-07-28T09:54:38Z</time>
      </trkpt>
      <trkpt lat="42.9219140" lon="0.3528400">
        <ele>963.0</ele>
        <time>2020-07-28T09:54:40Z</time>
      </trkpt>
      <trkpt lat="42.9218180" lon="0.3529330">
        <ele>961.4</ele>
        <time>2020-07-28T09:54:41Z</time>
      </trkpt>
      <trkpt lat="42.9217200" lon="0.3530270">
        <ele>960.2</ele>
        <time>2020-07-28T09:54:42Z</time>
      </trkpt>
      <trkpt lat="42.9216200" lon="0.3531190">
        <ele>959.2</ele>
        <time>2020-07-28T09:54:43Z</time>
      </trkpt>
      <trkpt lat="42.9214130" lon="0.3532890">
        <ele>958.0</ele>
        <time>2020-07-28T09:54:45Z</time>
      </trkpt>
      <trkpt lat="42.9212010" lon="0.3534450">
        <ele>956.2</ele>
        <time>2020-07-28T09:54:47Z</time>
      </trkpt>
      <trkpt lat="42.9210950" lon="0.3535240">
        <ele>955.0</ele>
        <time>2020-07-28T09:54:48Z</time>
      </trkpt>
      <trkpt lat="42.9208910" lon="0.3537030">
        <ele>953.8</ele>
        <time>2020-07-28T09:54:50Z</time>
      </trkpt>
      <trkpt lat="42.9207130" lon="0.3539120">
        <ele>952.6</ele>
        <time>2020-07-28T09:54:52Z</time>
      </trkpt>
      <trkpt lat="42.9205780" lon="0.3541370">
        <ele>951.0</ele>
        <time>2020-07-28T09:54:54Z</time>
      </trkpt>
      <trkpt lat="42.9205290" lon="0.3542460">
        <ele>950.4</ele>
        <time>2020-07-28T09:54:55Z</time>
      </trkpt>
      <trkpt lat="42.9204950" lon="0.3543530">
        <ele>950.0</ele>
        <time>2020-07-28T09:54:56Z</time>
      </trkpt>
      <trkpt lat="42.9204820" lon="0.3545860">
        <ele>948.8</ele>
        <time>2020-07-28T09:54:58Z</time>
      </trkpt>
      <trkpt lat="42.9205560" lon="0.3548100">
        <ele>947.2</ele>
        <time>2020-07-28T09:55:00Z</time>
      </trkpt>
      <trkpt lat="42.9206870" lon="0.3550070">
        <ele>946.0</ele>
        <time>2020-07-28T09:55:02Z</time>
      </trkpt>
      <trkpt lat="42.9208260" lon="0.3552030">
        <ele>945.2</ele>
        <time>2020-07-28T09:55:04Z</time>
      </trkpt>
      <trkpt lat="42.9208790" lon="0.3553080">
        <ele>944.8</ele>
        <time>2020-07-28T09:55:05Z</time>
      </trkpt>
      <trkpt lat="42.9209030" lon="0.3554200">
        <ele>944.4</ele>
        <time>2020-07-28T09:55:06Z</time>
      </trkpt>
      <trkpt lat="42.9208900" lon="0.3555300">
        <ele>943.6</ele>
        <time>2020-07-28T09:55:07Z</time>
      </trkpt>
      <trkpt lat="42.9208430" lon="0.3556260">
        <ele>942.8</ele>
        <time>2020-07-28T09:55:08Z</time>
      </trkpt>
      <trkpt lat="42.9207720" lon="0.3557020">
        <ele>941.2</ele>
        <time>2020-07-28T09:55:09Z</time>
      </trkpt>
      <trkpt lat="42.9206850" lon="0.3557560">
        <ele>940.6</ele>
        <time>2020-07-28T09:55:10Z</time>
      </trkpt>
      <trkpt lat="42.9205900" lon="0.3558070">
        <ele>940.0</ele>
        <time>2020-07-28T09:55:11Z</time>
      </trkpt>
      <trkpt lat="42.9203930" lon="0.3559210">
        <ele>938.8</ele>
        <time>2020-07-28T09:55:13Z</time>
      </trkpt>
      <trkpt lat="42.9201930" lon="0.3560390">
        <ele>938.2</ele>
        <time>2020-07-28T09:55:15Z</time>
      </trkpt>
      <trkpt lat="42.9200120" lon="0.3561650">
        <ele>937.6</ele>
        <time>2020-07-28T09:55:17Z</time>
      </trkpt>
      <trkpt lat="42.9198690" lon="0.3563390">
        <ele>936.4</ele>
        <time>2020-07-28T09:55:19Z</time>
      </trkpt>
      <trkpt lat="42.9197840" lon="0.3565790">
        <ele>934.8</ele>
        <time>2020-07-28T09:55:21Z</time>
      </trkpt>
      <trkpt lat="42.9197690" lon="0.3567110">
        <ele>934.0</ele>
        <time>2020-07-28T09:55:22Z</time>
      </trkpt>
      <trkpt lat="42.9197720" lon="0.3568420">
        <ele>933.2</ele>
        <time>2020-07-28T09:55:23Z</time>
      </trkpt>
      <trkpt lat="42.9198350" lon="0.3570890">
        <ele>932.2</ele>
        <time>2020-07-28T09:55:25Z</time>
      </trkpt>
      <trkpt lat="42.9199510" lon="0.3573150">
        <ele>931.0</ele>
        <time>2020-07-28T09:55:27Z</time>
      </trkpt>
      <trkpt lat="42.9200970" lon="0.3575280">
        <ele>929.8</ele>
        <time>2020-07-28T09:55:29Z</time>
      </trkpt>
      <trkpt lat="42.9201790" lon="0.3576280">
        <ele>928.8</ele>
        <time>2020-07-28T09:55:30Z</time>
      </trkpt>
      <trkpt lat="42.9202640" lon="0.3577250">
        <ele>927.8</ele>
        <time>2020-07-28T09:55:31Z</time>
      </trkpt>
      <trkpt lat="42.9204400" lon="0.3579100">
        <ele>926.4</ele>
        <time>2020-07-28T09:55:33Z</time>
      </trkpt>
      <trkpt lat="42.9205290" lon="0.3579990">
        <ele>925.8</ele>
        <time>2020-07-28T09:55:34Z</time>
      </trkpt>
      <trkpt lat="42.9206210" lon="0.3580830">
        <ele>925.2</ele>
        <time>2020-07-28T09:55:35Z</time>
      </trkpt>
      <trkpt lat="42.9207180" lon="0.3581570">
        <ele>923.6</ele>
        <time>2020-07-28T09:55:36Z</time>
      </trkpt>
      <trkpt lat="42.9209230" lon="0.3582940">
        <ele>922.0</ele>
        <time>2020-07-28T09:55:38Z</time>
      </trkpt>
      <trkpt lat="42.9211320" lon="0.3584330">
        <ele>920.6</ele>
        <time>2020-07-28T09:55:40Z</time>
      </trkpt>
      <trkpt lat="42.9213410" lon="0.3585640">
        <ele>919.0</ele>
        <time>2020-07-28T09:55:42Z</time>
      </trkpt>
      <trkpt lat="42.9214530" lon="0.3586140">
        <ele>918.4</ele>
        <time>2020-07-28T09:55:43Z</time>
      </trkpt>
      <trkpt lat="42.9215680" lon="0.3586540">
        <ele>918.0</ele>
        <time>2020-07-28T09:55:44Z</time>
      </trkpt>
      <trkpt lat="42.9218010" lon="0.3587180">
        <ele>916.4</ele>
        <time>2020-07-28T09:55:46Z</time>
      </trkpt>
      <trkpt lat="42.9220370" lon="0.3587870">
        <ele>915.2</ele>
        <time>2020-07-28T09:55:48Z</time>
      </trkpt>
      <trkpt lat="42.9222650" lon="0.3588680">
        <ele>914.2</ele>
        <time>2020-07-28T09:55:50Z</time>
      </trkpt>
      <trkpt lat="42.9223820" lon="0.3589090">
        <ele>913.2</ele>
        <time>2020-07-28T09:55:51Z</time>
      </trkpt>
      <trkpt lat="42.9226250" lon="0.3589920">
        <ele>911.8</ele>
        <time>2020-07-28T09:55:53Z</time>
      </trkpt>
      <trkpt lat="42.9228610" lon="0.3590630">
        <ele>910.8</ele>
        <time>2020-07-28T09:55:55Z</time>
      </trkpt>
      <trkpt lat="42.9229770" lon="0.3590910">
        <ele>909.8</ele>
        <time>2020-07-28T09:55:56Z</time>
      </trkpt>
      <trkpt lat="42.9230890" lon="0.3591160">
        <ele>908.8</ele>
        <time>2020-07-28T09:55:57Z</time>
      </trkpt>
      <trkpt lat="42.9233210" lon="0.3591720">
        <ele>907.4</ele>
        <time>2020-07-28T09:55:59Z</time>
      </trkpt>
      <trkpt lat="42.9235570" lon="0.3592160">
        <ele>906.2</ele>
        <time>2020-07-28T09:56:01Z</time>
      </trkpt>
      <trkpt lat="42.9236690" lon="0.3592330">
        <ele>905.6</ele>
        <time>2020-07-28T09:56:02Z</time>
      </trkpt>
      <trkpt lat="42.9237680" lon="0.3592430">
        <ele>904.4</ele>
        <time>2020-07-28T09:56:03Z</time>
      </trkpt>
      <trkpt lat="42.9238600" lon="0.3592630">
        <ele>904.0</ele>
        <time>2020-07-28T09:56:04Z</time>
      </trkpt>
      <trkpt lat="42.9239510" lon="0.3593080">
        <ele>903.8</ele>
        <time>2020-07-28T09:56:05Z</time>
      </trkpt>
      <trkpt lat="42.9240620" lon="0.3595050">
        <ele>903.2</ele>
        <time>2020-07-28T09:56:07Z</time>
      </trkpt>
      <trkpt lat="42.9240460" lon="0.3598490">
        <ele>902.6</ele>
        <time>2020-07-28T09:56:10Z</time>
      </trkpt>
      <trkpt lat="42.9240990" lon="0.3600530">
        <ele>902.2</ele>
        <time>2020-07-28T09:56:12Z</time>
      </trkpt>
      <trkpt lat="42.9241400" lon="0.3601470">
        <ele>902.0</ele>
        <time>2020-07-28T09:56:13Z</time>
      </trkpt>
      <trkpt lat="42.9241560" lon="0.3602270">
        <ele>901.8</ele>
        <time>2020-07-28T09:56:14Z</time>
      </trkpt>
      <trkpt lat="42.9241380" lon="0.3602830">
        <ele>901.2</ele>
        <time>2020-07-28T09:56:15Z</time>
      </trkpt>
      <trkpt lat="42.9240980" lon="0.3603240">
        <ele>900.6</ele>
        <time>2020-07-28T09:56:16Z</time>
      </trkpt>
      <trkpt lat="42.9240010" lon="0.3602970">
        <ele>899.6</ele>
        <time>2020-07-28T09:56:18Z</time>
      </trkpt>
      <trkpt lat="42.9239470" lon="0.3601040">
        <ele>899.0</ele>
        <time>2020-07-28T09:56:20Z</time>
      </trkpt>
      <trkpt lat="42.9239590" lon="0.3598850">
        <ele>898.6</ele>
        <time>2020-07-28T09:56:22Z</time>
      </trkpt>
      <trkpt lat="42.9239540" lon="0.3597670">
        <ele>898.6</ele>
        <time>2020-07-28T09:56:23Z</time>
      </trkpt>
      <trkpt lat="42.9239340" lon="0.3596530">
        <ele>898.4</ele>
        <time>2020-07-28T09:56:24Z</time>
      </trkpt>
      <trkpt lat="42.9238220" lon="0.3594890">
        <ele>898.0</ele>
        <time>2020-07-28T09:56:26Z</time>
      </trkpt>
      <trkpt lat="42.9235420" lon="0.3594400">
        <ele>897.4</ele>
        <time>2020-07-28T09:56:29Z</time>
      </trkpt>
      <trkpt lat="42.9234390" lon="0.3594470">
        <ele>896.2</ele>
        <time>2020-07-28T09:56:30Z</time>
      </trkpt>
      <trkpt lat="42.9231060" lon="0.3594590">
        <ele>894.8</ele>
        <time>2020-07-28T09:56:33Z</time>
      </trkpt>
      <trkpt lat="42.9229910" lon="0.3594570">
        <ele>894.0</ele>
        <time>2020-07-28T09:56:34Z</time>
      </trkpt>
      <trkpt lat="42.9228730" lon="0.3594540">
        <ele>893.0</ele>
        <time>2020-07-28T09:56:35Z</time>
      </trkpt>
      <trkpt lat="42.9226330" lon="0.3594360">
        <ele>891.2</ele>
        <time>2020-07-28T09:56:37Z</time>
      </trkpt>
      <trkpt lat="42.9223850" lon="0.3593900">
        <ele>889.8</ele>
        <time>2020-07-28T09:56:39Z</time>
      </trkpt>
      <trkpt lat="42.9221370" lon="0.3593470">
        <ele>888.6</ele>
        <time>2020-07-28T09:56:41Z</time>
      </trkpt>
      <trkpt lat="42.9220180" lon="0.3593670">
        <ele>888.0</ele>
        <time>2020-07-28T09:56:42Z</time>
      </trkpt>
      <trkpt lat="42.9218980" lon="0.3594010">
        <ele>887.2</ele>
        <time>2020-07-28T09:56:43Z</time>
      </trkpt>
      <trkpt lat="42.9216540" lon="0.3594830">
        <ele>885.8</ele>
        <time>2020-07-28T09:56:45Z</time>
      </trkpt>
      <trkpt lat="42.9215290" lon="0.3595130">
        <ele>885.2</ele>
        <time>2020-07-28T09:56:46Z</time>
      </trkpt>
      <trkpt lat="42.9214050" lon="0.3595370">
        <ele>884.6</ele>
        <time>2020-07-28T09:56:47Z</time>
      </trkpt>
      <trkpt lat="42.9211590" lon="0.3595470">
        <ele>883.2</ele>
        <time>2020-07-28T09:56:49Z</time>
      </trkpt>
      <trkpt lat="42.9210380" lon="0.3595140">
        <ele>882.2</ele>
        <time>2020-07-28T09:56:50Z</time>
      </trkpt>
      <trkpt lat="42.9209190" lon="0.3594610">
        <ele>881.8</ele>
        <time>2020-07-28T09:56:51Z</time>
      </trkpt>
      <trkpt lat="42.9206770" lon="0.3593470">
        <ele>880.4</ele>
        <time>2020-07-28T09:56:53Z</time>
      </trkpt>
      <trkpt lat="42.9205490" lon="0.3592920">
        <ele>880.0</ele>
        <time>2020-07-28T09:56:54Z</time>
      </trkpt>
      <trkpt lat="42.9202900" lon="0.3592030">
        <ele>879.2</ele>
        <time>2020-07-28T09:56:56Z</time>
      </trkpt>
      <trkpt lat="42.9200290" lon="0.3591100">
        <ele>877.6</ele>
        <time>2020-07-28T09:56:58Z</time>
      </trkpt>
      <trkpt lat="42.9197700" lon="0.3589820">
        <ele>876.0</ele>
        <time>2020-07-28T09:57:00Z</time>
      </trkpt>
      <trkpt lat="42.9195230" lon="0.3588480">
        <ele>874.6</ele>
        <time>2020-07-28T09:57:02Z</time>
      </trkpt>
      <trkpt lat="42.9192800" lon="0.3587060">
        <ele>873.2</ele>
        <time>2020-07-28T09:57:04Z</time>
      </trkpt>
      <trkpt lat="42.9190410" lon="0.3585450">
        <ele>871.6</ele>
        <time>2020-07-28T09:57:06Z</time>
      </trkpt>
      <trkpt lat="42.9189260" lon="0.3584530">
        <ele>870.8</ele>
        <time>2020-07-28T09:57:07Z</time>
      </trkpt>
      <trkpt lat="42.9188180" lon="0.3583580">
        <ele>869.8</ele>
        <time>2020-07-28T09:57:08Z</time>
      </trkpt>
      <trkpt lat="42.9187170" lon="0.3582670">
        <ele>868.8</ele>
        <time>2020-07-28T09:57:09Z</time>
      </trkpt>
      <trkpt lat="42.9185320" lon="0.3580920">
        <ele>867.8</ele>
        <time>2020-07-28T09:57:11Z</time>
      </trkpt>
      <trkpt lat="42.9184500" lon="0.3579920">
        <ele>867.6</ele>
        <time>2020-07-28T09:57:12Z</time>
      </trkpt>
      <trkpt lat="42.9183290" lon="0.3578120">
        <ele>866.0</ele>
        <time>2020-07-28T09:57:14Z</time>
      </trkpt>
      <trkpt lat="42.9182460" lon="0.3576710">
        <ele>865.0</ele>
        <time>2020-07-28T09:57:16Z</time>
      </trkpt>
      <trkpt lat="42.9181630" lon="0.3575190">
        <ele>864.2</ele>
        <time>2020-07-28T09:57:18Z</time>
      </trkpt>
      <trkpt lat="42.9181280" lon="0.3574270">
        <ele>864.0</ele>
        <time>2020-07-28T09:57:19Z</time>
      </trkpt>
      <trkpt lat="42.9180710" lon="0.3570990">
        <ele>863.6</ele>
        <time>2020-07-28T09:57:22Z</time>
      </trkpt>
      <trkpt lat="42.9181030" lon="0.3568370">
        <ele>863.0</ele>
        <time>2020-07-28T09:57:24Z</time>
      </trkpt>
      <trkpt lat="42.9181370" lon="0.3567000">
        <ele>862.0</ele>
        <time>2020-07-28T09:57:25Z</time>
      </trkpt>
      <trkpt lat="42.9181660" lon="0.3565530">
        <ele>861.4</ele>
        <time>2020-07-28T09:57:26Z</time>
      </trkpt>
      <trkpt lat="42.9182030" lon="0.3562380">
        <ele>860.4</ele>
        <time>2020-07-28T09:57:28Z</time>
      </trkpt>
      <trkpt lat="42.9182270" lon="0.3560760">
        <ele>860.0</ele>
        <time>2020-07-28T09:57:29Z</time>
      </trkpt>
      <trkpt lat="42.9182950" lon="0.3557450">
        <ele>858.6</ele>
        <time>2020-07-28T09:57:31Z</time>
      </trkpt>
      <trkpt lat="42.9183320" lon="0.3555770">
        <ele>857.6</ele>
        <time>2020-07-28T09:57:32Z</time>
      </trkpt>
      <trkpt lat="42.9183720" lon="0.3554090">
        <ele>856.2</ele>
        <time>2020-07-28T09:57:33Z</time>
      </trkpt>
      <trkpt lat="42.9184130" lon="0.3552420">
        <ele>855.0</ele>
        <time>2020-07-28T09:57:34Z</time>
      </trkpt>
      <trkpt lat="42.9184520" lon="0.3550760">
        <ele>853.6</ele>
        <time>2020-07-28T09:57:35Z</time>
      </trkpt>
      <trkpt lat="42.9184820" lon="0.3549050">
        <ele>852.4</ele>
        <time>2020-07-28T09:57:36Z</time>
      </trkpt>
      <trkpt lat="42.9184950" lon="0.3547260">
        <ele>851.0</ele>
        <time>2020-07-28T09:57:37Z</time>
      </trkpt>
      <trkpt lat="42.9184920" lon="0.3545440">
        <ele>849.6</ele>
        <time>2020-07-28T09:57:38Z</time>
      </trkpt>
      <trkpt lat="42.9184820" lon="0.3543640">
        <ele>848.2</ele>
        <time>2020-07-28T09:57:39Z</time>
      </trkpt>
      <trkpt lat="42.9184670" lon="0.3541850">
        <ele>847.0</ele>
        <time>2020-07-28T09:57:40Z</time>
      </trkpt>
      <trkpt lat="42.9184520" lon="0.3540080">
        <ele>846.0</ele>
        <time>2020-07-28T09:57:41Z</time>
      </trkpt>
      <trkpt lat="42.9184340" lon="0.3538300">
        <ele>844.6</ele>
        <time>2020-07-28T09:57:42Z</time>
      </trkpt>
      <trkpt lat="42.9183990" lon="0.3534720">
        <ele>842.8</ele>
        <time>2020-07-28T09:57:44Z</time>
      </trkpt>
      <trkpt lat="42.9183840" lon="0.3532930">
        <ele>840.8</ele>
        <time>2020-07-28T09:57:45Z</time>
      </trkpt>
      <trkpt lat="42.9183710" lon="0.3531170">
        <ele>839.6</ele>
        <time>2020-07-28T09:57:46Z</time>
      </trkpt>
      <trkpt lat="42.9183590" lon="0.3529450">
        <ele>838.4</ele>
        <time>2020-07-28T09:57:47Z</time>
      </trkpt>
      <trkpt lat="42.9183440" lon="0.3526160">
        <ele>837.0</ele>
        <time>2020-07-28T09:57:49Z</time>
      </trkpt>
      <trkpt lat="42.9183410" lon="0.3523070">
        <ele>835.4</ele>
        <time>2020-07-28T09:57:51Z</time>
      </trkpt>
      <trkpt lat="42.9183620" lon="0.3521550">
        <ele>834.0</ele>
        <time>2020-07-28T09:57:52Z</time>
      </trkpt>
      <trkpt lat="42.9184390" lon="0.3518380">
        <ele>832.6</ele>
        <time>2020-07-28T09:57:54Z</time>
      </trkpt>
      <trkpt lat="42.9184890" lon="0.3516770">
        <ele>831.4</ele>
        <time>2020-07-28T09:57:55Z</time>
      </trkpt>
      <trkpt lat="42.9185950" lon="0.3513490">
        <ele>830.0</ele>
        <time>2020-07-28T09:57:57Z</time>
      </trkpt>
      <trkpt lat="42.9186470" lon="0.3511820">
        <ele>829.0</ele>
        <time>2020-07-28T09:57:58Z</time>
      </trkpt>
      <trkpt lat="42.9187410" lon="0.3508340">
        <ele>827.0</ele>
        <time>2020-07-28T09:58:00Z</time>
      </trkpt>
      <trkpt lat="42.9187780" lon="0.3506530">
        <ele>825.8</ele>
        <time>2020-07-28T09:58:01Z</time>
      </trkpt>
      <trkpt lat="42.9188090" lon="0.3504740">
        <ele>824.4</ele>
        <time>2020-07-28T09:58:02Z</time>
      </trkpt>
      <trkpt lat="42.9188390" lon="0.3503070">
        <ele>822.6</ele>
        <time>2020-07-28T09:58:03Z</time>
      </trkpt>
      <trkpt lat="42.9188660" lon="0.3501530">
        <ele>821.2</ele>
        <time>2020-07-28T09:58:04Z</time>
      </trkpt>
      <trkpt lat="42.9189000" lon="0.3500110">
        <ele>820.2</ele>
        <time>2020-07-28T09:58:05Z</time>
      </trkpt>
      <trkpt lat="42.9189450" lon="0.3498810">
        <ele>819.0</ele>
        <time>2020-07-28T09:58:06Z</time>
      </trkpt>
      <trkpt lat="42.9190050" lon="0.3497680">
        <ele>818.2</ele>
        <time>2020-07-28T09:58:07Z</time>
      </trkpt>
      <trkpt lat="42.9190790" lon="0.3496830">
        <ele>817.0</ele>
        <time>2020-07-28T09:58:08Z</time>
      </trkpt>
      <trkpt lat="42.9191630" lon="0.3496280">
        <ele>816.0</ele>
        <time>2020-07-28T09:58:09Z</time>
      </trkpt>
      <trkpt lat="42.9192510" lon="0.3495980">
        <ele>814.6</ele>
        <time>2020-07-28T09:58:10Z</time>
      </trkpt>
      <trkpt lat="42.9193300" lon="0.3495790">
        <ele>813.8</ele>
        <time>2020-07-28T09:58:11Z</time>
      </trkpt>
      <trkpt lat="42.9194010" lon="0.3495450">
        <ele>813.4</ele>
        <time>2020-07-28T09:58:12Z</time>
      </trkpt>
      <trkpt lat="42.9195050" lon="0.3493820">
        <ele>812.6</ele>
        <time>2020-07-28T09:58:14Z</time>
      </trkpt>
      <trkpt lat="42.9195290" lon="0.3492600">
        <ele>811.6</ele>
        <time>2020-07-28T09:58:15Z</time>
      </trkpt>
      <trkpt lat="42.9195410" lon="0.3491330">
        <ele>810.8</ele>
        <time>2020-07-28T09:58:16Z</time>
      </trkpt>
      <trkpt lat="42.9195400" lon="0.3490030">
        <ele>810.2</ele>
        <time>2020-07-28T09:58:17Z</time>
      </trkpt>
      <trkpt lat="42.9194770" lon="0.3487180">
        <ele>809.0</ele>
        <time>2020-07-28T09:58:19Z</time>
      </trkpt>
      <trkpt lat="42.9194300" lon="0.3485750">
        <ele>808.4</ele>
        <time>2020-07-28T09:58:20Z</time>
      </trkpt>
      <trkpt lat="42.9193820" lon="0.3484380">
        <ele>807.4</ele>
        <time>2020-07-28T09:58:21Z</time>
      </trkpt>
      <trkpt lat="42.9193430" lon="0.3483090">
        <ele>806.4</ele>
        <time>2020-07-28T09:58:22Z</time>
      </trkpt>
      <trkpt lat="42.9193200" lon="0.3481820">
        <ele>805.2</ele>
        <time>2020-07-28T09:58:23Z</time>
      </trkpt>
      <trkpt lat="42.9193180" lon="0.3480530">
        <ele>803.8</ele>
        <time>2020-07-28T09:58:24Z</time>
      </trkpt>
      <trkpt lat="42.9193400" lon="0.3479240">
        <ele>802.4</ele>
        <time>2020-07-28T09:58:25Z</time>
      </trkpt>
      <trkpt lat="42.9193840" lon="0.3478050">
        <ele>800.8</ele>
        <time>2020-07-28T09:58:26Z</time>
      </trkpt>
      <trkpt lat="42.9194460" lon="0.3477010">
        <ele>799.4</ele>
        <time>2020-07-28T09:58:27Z</time>
      </trkpt>
      <trkpt lat="42.9195190" lon="0.3476040">
        <ele>798.2</ele>
        <time>2020-07-28T09:58:28Z</time>
      </trkpt>
      <trkpt lat="42.9195970" lon="0.3475120">
        <ele>797.0</ele>
        <time>2020-07-28T09:58:29Z</time>
      </trkpt>
      <trkpt lat="42.9197630" lon="0.3473370">
        <ele>795.8</ele>
        <time>2020-07-28T09:58:31Z</time>
      </trkpt>
      <trkpt lat="42.9200000" lon="0.3471010">
        <ele>794.6</ele>
        <time>2020-07-28T09:58:34Z</time>
      </trkpt>
      <trkpt lat="42.9201270" lon="0.3469620">
        <ele>793.4</ele>
        <time>2020-07-28T09:58:36Z</time>
      </trkpt>
      <trkpt lat="42.9201750" lon="0.3468800">
        <ele>792.4</ele>
        <time>2020-07-28T09:58:37Z</time>
      </trkpt>
      <trkpt lat="42.9201970" lon="0.3467710">
        <ele>791.2</ele>
        <time>2020-07-28T09:58:38Z</time>
      </trkpt>
      <trkpt lat="42.9202210" lon="0.3465380">
        <ele>789.4</ele>
        <time>2020-07-28T09:58:40Z</time>
      </trkpt>
      <trkpt lat="42.9202430" lon="0.3464180">
        <ele>788.8</ele>
        <time>2020-07-28T09:58:41Z</time>
      </trkpt>
      <trkpt lat="42.9202730" lon="0.3463030">
        <ele>788.2</ele>
        <time>2020-07-28T09:58:42Z</time>
      </trkpt>
      <trkpt lat="42.9203230" lon="0.3461090">
        <ele>787.6</ele>
        <time>2020-07-28T09:58:44Z</time>
      </trkpt>
      <trkpt lat="42.9203280" lon="0.3460410">
        <ele>786.8</ele>
        <time>2020-07-28T09:58:45Z</time>
      </trkpt>
      <trkpt lat="42.9203160" lon="0.3459980">
        <ele>785.0</ele>
        <time>2020-07-28T09:58:46Z</time>
      </trkpt>
      <trkpt lat="42.9202200" lon="0.3459820">
        <ele>783.0</ele>
        <time>2020-07-28T09:58:48Z</time>
      </trkpt>
      <trkpt lat="42.9200990" lon="0.3460520">
        <ele>781.8</ele>
        <time>2020-07-28T09:58:50Z</time>
      </trkpt>
      <trkpt lat="42.9200290" lon="0.3460970">
        <ele>781.6</ele>
        <time>2020-07-28T09:58:51Z</time>
      </trkpt>
      <trkpt lat="42.9198770" lon="0.3462040">
        <ele>780.4</ele>
        <time>2020-07-28T09:58:53Z</time>
      </trkpt>
      <trkpt lat="42.9197340" lon="0.3463600">
        <ele>779.0</ele>
        <time>2020-07-28T09:58:55Z</time>
      </trkpt>
      <trkpt lat="42.9195550" lon="0.3466140">
        <ele>778.0</ele>
        <time>2020-07-28T09:58:58Z</time>
      </trkpt>
      <trkpt lat="42.9194740" lon="0.3466830">
        <ele>777.6</ele>
        <time>2020-07-28T09:58:59Z</time>
      </trkpt>
      <trkpt lat="42.9192130" lon="0.3468350">
        <ele>776.2</ele>
        <time>2020-07-28T09:59:02Z</time>
      </trkpt>
      <trkpt lat="42.9191240" lon="0.3468820">
        <ele>775.6</ele>
        <time>2020-07-28T09:59:03Z</time>
      </trkpt>
      <trkpt lat="42.9189520" lon="0.3469950">
        <ele>775.0</ele>
        <time>2020-07-28T09:59:05Z</time>
      </trkpt>
      <trkpt lat="42.9188700" lon="0.3470640">
        <ele>774.8</ele>
        <time>2020-07-28T09:59:06Z</time>
      </trkpt>
      <trkpt lat="42.9187920" lon="0.3471280">
        <ele>774.6</ele>
        <time>2020-07-28T09:59:07Z</time>
      </trkpt>
      <trkpt lat="42.9184970" lon="0.3474950">
        <ele>774.0</ele>
        <time>2020-07-28T09:59:11Z</time>
      </trkpt>
      <trkpt lat="42.9183440" lon="0.3478410">
        <ele>773.2</ele>
        <time>2020-07-28T09:59:14Z</time>
      </trkpt>
      <trkpt lat="42.9183040" lon="0.3479700">
        <ele>773.2</ele>
        <time>2020-07-28T09:59:15Z</time>
      </trkpt>
      <trkpt lat="42.9181960" lon="0.3483470">
        <ele>772.8</ele>
        <time>2020-07-28T09:59:18Z</time>
      </trkpt>
      <trkpt lat="42.9181610" lon="0.3484730">
        <ele>772.6</ele>
        <time>2020-07-28T09:59:19Z</time>
      </trkpt>
      <trkpt lat="42.9181190" lon="0.3485880">
        <ele>772.2</ele>
        <time>2020-07-28T09:59:20Z</time>
      </trkpt>
      <trkpt lat="42.9180570" lon="0.3486830">
        <ele>771.6</ele>
        <time>2020-07-28T09:59:21Z</time>
      </trkpt>
      <trkpt lat="42.9179780" lon="0.3487650">
        <ele>771.2</ele>
        <time>2020-07-28T09:59:22Z</time>
      </trkpt>
      <trkpt lat="42.9176280" lon="0.3491080">
        <ele>770.4</ele>
        <time>2020-07-28T09:59:26Z</time>
      </trkpt>
      <trkpt lat="42.9175500" lon="0.3491960">
        <ele>770.2</ele>
        <time>2020-07-28T09:59:27Z</time>
      </trkpt>
      <trkpt lat="42.9173870" lon="0.3495560">
        <ele>769.6</ele>
        <time>2020-07-28T09:59:30Z</time>
      </trkpt>
      <trkpt lat="42.9173550" lon="0.3496920">
        <ele>769.2</ele>
        <time>2020-07-28T09:59:31Z</time>
      </trkpt>
      <trkpt lat="42.9173540" lon="0.3499560">
        <ele>768.0</ele>
        <time>2020-07-28T09:59:33Z</time>
      </trkpt>
      <trkpt lat="42.9173700" lon="0.3502230">
        <ele>766.6</ele>
        <time>2020-07-28T09:59:35Z</time>
      </trkpt>
      <trkpt lat="42.9173410" lon="0.3504810">
        <ele>765.8</ele>
        <time>2020-07-28T09:59:37Z</time>
      </trkpt>
      <trkpt lat="42.9172700" lon="0.3507340">
        <ele>765.4</ele>
        <time>2020-07-28T09:59:39Z</time>
      </trkpt>
      <trkpt lat="42.9172170" lon="0.3508470">
        <ele>765.2</ele>
        <time>2020-07-28T09:59:40Z</time>
      </trkpt>
      <trkpt lat="42.9170110" lon="0.3511330">
        <ele>764.0</ele>
        <time>2020-07-28T09:59:43Z</time>
      </trkpt>
      <trkpt lat="42.9169350" lon="0.3512180">
        <ele>763.6</ele>
        <time>2020-07-28T09:59:44Z</time>
      </trkpt>
      <trkpt lat="42.9167940" lon="0.3514180">
        <ele>762.6</ele>
        <time>2020-07-28T09:59:46Z</time>
      </trkpt>
      <trkpt lat="42.9166920" lon="0.3516510">
        <ele>761.6</ele>
        <time>2020-07-28T09:59:48Z</time>
      </trkpt>
      <trkpt lat="42.9166250" lon="0.3519030">
        <ele>761.0</ele>
        <time>2020-07-28T09:59:50Z</time>
      </trkpt>
      <trkpt lat="42.9165650" lon="0.3521550">
        <ele>760.4</ele>
        <time>2020-07-28T09:59:52Z</time>
      </trkpt>
      <trkpt lat="42.9165350" lon="0.3522850">
        <ele>760.4</ele>
        <time>2020-07-28T09:59:53Z</time>
      </trkpt>
      <trkpt lat="42.9164860" lon="0.3525580">
        <ele>760.0</ele>
        <time>2020-07-28T09:59:55Z</time>
      </trkpt>
      <trkpt lat="42.9164730" lon="0.3528240">
        <ele>759.6</ele>
        <time>2020-07-28T09:59:57Z</time>
      </trkpt>
      <trkpt lat="42.9164670" lon="0.3529480">
        <ele>759.2</ele>
        <time>2020-07-28T09:59:58Z</time>
      </trkpt>
      <trkpt lat="42.9164490" lon="0.3531830">
        <ele>758.2</ele>
        <time>2020-07-28T10:00:00Z</time>
      </trkpt>
      <trkpt lat="42.9164250" lon="0.3532960">
        <ele>757.6</ele>
        <time>2020-07-28T10:00:01Z</time>
      </trkpt>
      <trkpt lat="42.9163980" lon="0.3534110">
        <ele>757.2</ele>
        <time>2020-07-28T10:00:02Z</time>
      </trkpt>
      <trkpt lat="42.9163610" lon="0.3535180">
        <ele>757.0</ele>
        <time>2020-07-28T10:00:03Z</time>
      </trkpt>
      <trkpt lat="42.9162510" lon="0.3538650">
        <ele>756.4</ele>
        <time>2020-07-28T10:00:06Z</time>
      </trkpt>
      <trkpt lat="42.9161860" lon="0.3541240">
        <ele>755.6</ele>
        <time>2020-07-28T10:00:08Z</time>
      </trkpt>
      <trkpt lat="42.9161660" lon="0.3542540">
        <ele>755.2</ele>
        <time>2020-07-28T10:00:09Z</time>
      </trkpt>
      <trkpt lat="42.9161570" lon="0.3543870">
        <ele>755.0</ele>
        <time>2020-07-28T10:00:10Z</time>
      </trkpt>
      <trkpt lat="42.9161470" lon="0.3546500">
        <ele>754.6</ele>
        <time>2020-07-28T10:00:12Z</time>
      </trkpt>
      <trkpt lat="42.9161310" lon="0.3550150">
        <ele>754.0</ele>
        <time>2020-07-28T10:00:15Z</time>
      </trkpt>
      <trkpt lat="42.9161310" lon="0.3552260">
        <ele>753.8</ele>
        <time>2020-07-28T10:00:17Z</time>
      </trkpt>
      <trkpt lat="42.9160950" lon="0.3553070">
        <ele>753.6</ele>
        <time>2020-07-28T10:00:18Z</time>
      </trkpt>
      <trkpt lat="42.9160420" lon="0.3553770">
        <ele>753.2</ele>
        <time>2020-07-28T10:00:19Z</time>
      </trkpt>
      <trkpt lat="42.9159060" lon="0.3554760">
        <ele>752.2</ele>
        <time>2020-07-28T10:00:21Z</time>
      </trkpt>
      <trkpt lat="42.9158350" lon="0.3555390">
        <ele>752.0</ele>
        <time>2020-07-28T10:00:22Z</time>
      </trkpt>
      <trkpt lat="42.9156460" lon="0.3558020">
        <ele>751.4</ele>
        <time>2020-07-28T10:00:25Z</time>
      </trkpt>
      <trkpt lat="42.9154990" lon="0.3561340">
        <ele>750.4</ele>
        <time>2020-07-28T10:00:28Z</time>
      </trkpt>
      <trkpt lat="42.9154490" lon="0.3562490">
        <ele>749.8</ele>
        <time>2020-07-28T10:00:29Z</time>
      </trkpt>
      <trkpt lat="42.9153970" lon="0.3563580">
        <ele>749.2</ele>
        <time>2020-07-28T10:00:30Z</time>
      </trkpt>
      <trkpt lat="42.9152070" lon="0.3568010">
        <ele>748.2</ele>
        <time>2020-07-28T10:00:34Z</time>
      </trkpt>
      <trkpt lat="42.9150370" lon="0.3573930">
        <ele>747.4</ele>
        <time>2020-07-28T10:00:39Z</time>
      </trkpt>
      <trkpt lat="42.9150190" lon="0.3575100">
        <ele>747.0</ele>
        <time>2020-07-28T10:00:40Z</time>
      </trkpt>
      <trkpt lat="42.9149670" lon="0.3580220">
        <ele>745.8</ele>
        <time>2020-07-28T10:00:44Z</time>
      </trkpt>
      <trkpt lat="42.9149510" lon="0.3581530">
        <ele>745.6</ele>
        <time>2020-07-28T10:00:45Z</time>
      </trkpt>
      <trkpt lat="42.9148870" lon="0.3584980">
        <ele>744.6</ele>
        <time>2020-07-28T10:00:48Z</time>
      </trkpt>
      <trkpt lat="42.9148550" lon="0.3585910">
        <ele>744.0</ele>
        <time>2020-07-28T10:00:49Z</time>
      </trkpt>
      <trkpt lat="42.9148070" lon="0.3586770">
        <ele>743.6</ele>
        <time>2020-07-28T10:00:50Z</time>
      </trkpt>
      <trkpt lat="42.9147400" lon="0.3587390">
        <ele>743.2</ele>
        <time>2020-07-28T10:00:51Z</time>
      </trkpt>
      <trkpt lat="42.9145690" lon="0.3587780">
        <ele>742.6</ele>
        <time>2020-07-28T10:00:53Z</time>
      </trkpt>
      <trkpt lat="42.9142860" lon="0.3586910">
        <ele>741.8</ele>
        <time>2020-07-28T10:00:56Z</time>
      </trkpt>
      <trkpt lat="42.9140940" lon="0.3585700">
        <ele>741.6</ele>
        <time>2020-07-28T10:00:58Z</time>
      </trkpt>
      <trkpt lat="42.9139990" lon="0.3585020">
        <ele>741.0</ele>
        <time>2020-07-28T10:00:59Z</time>
      </trkpt>
      <trkpt lat="42.9139040" lon="0.3584240">
        <ele>740.2</ele>
        <time>2020-07-28T10:01:00Z</time>
      </trkpt>
      <trkpt lat="42.9137000" lon="0.3582980">
        <ele>738.8</ele>
        <time>2020-07-28T10:01:02Z</time>
      </trkpt>
      <trkpt lat="42.9135970" lon="0.3582490">
        <ele>738.0</ele>
        <time>2020-07-28T10:01:03Z</time>
      </trkpt>
      <trkpt lat="42.9134850" lon="0.3582210">
        <ele>736.2</ele>
        <time>2020-07-28T10:01:04Z</time>
      </trkpt>
      <trkpt lat="42.9133640" lon="0.3582170">
        <ele>735.0</ele>
        <time>2020-07-28T10:01:05Z</time>
      </trkpt>
      <trkpt lat="42.9132430" lon="0.3582240">
        <ele>734.0</ele>
        <time>2020-07-28T10:01:06Z</time>
      </trkpt>
      <trkpt lat="42.9131180" lon="0.3582360">
        <ele>733.0</ele>
        <time>2020-07-28T10:01:07Z</time>
      </trkpt>
      <trkpt lat="42.9129950" lon="0.3582450">
        <ele>732.2</ele>
        <time>2020-07-28T10:01:08Z</time>
      </trkpt>
      <trkpt lat="42.9127470" lon="0.3583000">
        <ele>730.6</ele>
        <time>2020-07-28T10:01:10Z</time>
      </trkpt>
      <trkpt lat="42.9126230" lon="0.3583450">
        <ele>729.6</ele>
        <time>2020-07-28T10:01:11Z</time>
      </trkpt>
      <trkpt lat="42.9125010" lon="0.3584010">
        <ele>728.4</ele>
        <time>2020-07-28T10:01:12Z</time>
      </trkpt>
      <trkpt lat="42.9122540" lon="0.3585320">
        <ele>726.6</ele>
        <time>2020-07-28T10:01:14Z</time>
      </trkpt>
      <trkpt lat="42.9121330" lon="0.3586090">
        <ele>725.4</ele>
        <time>2020-07-28T10:01:15Z</time>
      </trkpt>
      <trkpt lat="42.9120150" lon="0.3586950">
        <ele>724.2</ele>
        <time>2020-07-28T10:01:16Z</time>
      </trkpt>
      <trkpt lat="42.9117880" lon="0.3588650">
        <ele>722.6</ele>
        <time>2020-07-28T10:01:18Z</time>
      </trkpt>
      <trkpt lat="42.9115660" lon="0.3590350">
        <ele>721.6</ele>
        <time>2020-07-28T10:01:20Z</time>
      </trkpt>
      <trkpt lat="42.9114580" lon="0.3591210">
        <ele>721.0</ele>
        <time>2020-07-28T10:01:21Z</time>
      </trkpt>
      <trkpt lat="42.9113510" lon="0.3592080">
        <ele>720.0</ele>
        <time>2020-07-28T10:01:22Z</time>
      </trkpt>
      <trkpt lat="42.9112470" lon="0.3593000">
        <ele>718.6</ele>
        <time>2020-07-28T10:01:23Z</time>
      </trkpt>
      <trkpt lat="42.9111490" lon="0.3593890">
        <ele>717.4</ele>
        <time>2020-07-28T10:01:24Z</time>
      </trkpt>
      <trkpt lat="42.9110540" lon="0.3594840">
        <ele>716.2</ele>
        <time>2020-07-28T10:01:25Z</time>
      </trkpt>
      <trkpt lat="42.9109560" lon="0.3595770">
        <ele>715.4</ele>
        <time>2020-07-28T10:01:26Z</time>
      </trkpt>
      <trkpt lat="42.9108550" lon="0.3596570">
        <ele>714.6</ele>
        <time>2020-07-28T10:01:27Z</time>
      </trkpt>
      <trkpt lat="42.9106530" lon="0.3597820">
        <ele>712.8</ele>
        <time>2020-07-28T10:01:29Z</time>
      </trkpt>
      <trkpt lat="42.9105520" lon="0.3598250">
        <ele>712.0</ele>
        <time>2020-07-28T10:01:30Z</time>
      </trkpt>
      <trkpt lat="42.9104510" lon="0.3598640">
        <ele>711.0</ele>
        <time>2020-07-28T10:01:31Z</time>
      </trkpt>
      <trkpt lat="42.9100390" lon="0.3599820">
        <ele>709.6</ele>
        <time>2020-07-28T10:01:35Z</time>
      </trkpt>
      <trkpt lat="42.9098510" lon="0.3600030">
        <ele>709.0</ele>
        <time>2020-07-28T10:01:37Z</time>
      </trkpt>
      <trkpt lat="42.9097690" lon="0.3599890">
        <ele>708.8</ele>
        <time>2020-07-28T10:01:38Z</time>
      </trkpt>
      <trkpt lat="42.9096300" lon="0.3599380">
        <ele>708.6</ele>
        <time>2020-07-28T10:01:40Z</time>
      </trkpt>
      <trkpt lat="42.9095190" lon="0.3599010">
        <ele>708.0</ele>
        <time>2020-07-28T10:01:42Z</time>
      </trkpt>
      <trkpt lat="42.9094210" lon="0.3599110">
        <ele>707.8</ele>
        <time>2020-07-28T10:01:44Z</time>
      </trkpt>
      <trkpt lat="42.9093730" lon="0.3599110">
        <ele>707.6</ele>
        <time>2020-07-28T10:01:45Z</time>
      </trkpt>
      <trkpt lat="42.9093230" lon="0.3598950">
        <ele>707.4</ele>
        <time>2020-07-28T10:01:46Z</time>
      </trkpt>
      <trkpt lat="42.9091910" lon="0.3597400">
        <ele>707.0</ele>
        <time>2020-07-28T10:01:49Z</time>
      </trkpt>
      <trkpt lat="42.9089380" lon="0.3594360">
        <ele>706.6</ele>
        <time>2020-07-28T10:01:54Z</time>
      </trkpt>
      <trkpt lat="42.9088860" lon="0.3593750">
        <ele>706.6</ele>
        <time>2020-07-28T10:01:55Z</time>
      </trkpt>
      <trkpt lat="42.9086120" lon="0.3590970">
        <ele>706.2</ele>
        <time>2020-07-28T10:02:00Z</time>
      </trkpt>
      <trkpt lat="42.9083150" lon="0.3587370">
        <ele>705.4</ele>
        <time>2020-07-28T10:02:05Z</time>
      </trkpt>
      <trkpt lat="42.9080770" lon="0.3584580">
        <ele>704.0</ele>
        <time>2020-07-28T10:02:09Z</time>
      </trkpt>
      <trkpt lat="42.9079000" lon="0.3582760">
        <ele>703.2</ele>
        <time>2020-07-28T10:02:12Z</time>
      </trkpt>
      <trkpt lat="42.9075480" lon="0.3579360">
        <ele>703.0</ele>
        <time>2020-07-28T10:02:19Z</time>
      </trkpt>
      <trkpt lat="42.9071790" lon="0.3576310">
        <ele>705.4</ele>
        <time>2020-07-28T10:02:27Z</time>
      </trkpt>
      <trkpt lat="42.9071320" lon="0.3575930">
        <ele>705.6</ele>
        <time>2020-07-28T10:02:28Z</time>
      </trkpt>
      <trkpt lat="42.9069930" lon="0.3574850">
        <ele>706.2</ele>
        <time>2020-07-28T10:02:31Z</time>
      </trkpt>
      <trkpt lat="42.9069440" lon="0.3574610">
        <ele>706.4</ele>
        <time>2020-07-28T10:02:32Z</time>
      </trkpt>
      <trkpt lat="42.9068400" lon="0.3574310">
        <ele>706.6</ele>
        <time>2020-07-28T10:02:34Z</time>
      </trkpt>
      <trkpt lat="42.9067340" lon="0.3574300">
        <ele>706.8</ele>
        <time>2020-07-28T10:02:36Z</time>
      </trkpt>
      <trkpt lat="42.9065720" lon="0.3574530">
        <ele>706.8</ele>
        <time>2020-07-28T10:02:39Z</time>
      </trkpt>
      <trkpt lat="42.9061000" lon="0.3575230">
        <ele>707.4</ele>
        <time>2020-07-28T10:02:48Z</time>
      </trkpt>
      <trkpt lat="42.9060470" lon="0.3575280">
        <ele>707.8</ele>
        <time>2020-07-28T10:02:49Z</time>
      </trkpt>
      <trkpt lat="42.9058880" lon="0.3575100">
        <ele>708.4</ele>
        <time>2020-07-28T10:02:52Z</time>
      </trkpt>
      <trkpt lat="42.9058370" lon="0.3574910">
        <ele>708.6</ele>
        <time>2020-07-28T10:02:53Z</time>
      </trkpt>
      <trkpt lat="42.9056990" lon="0.3574030">
        <ele>708.8</ele>
        <time>2020-07-28T10:02:56Z</time>
      </trkpt>
      <trkpt lat="42.9056160" lon="0.3573280">
        <ele>709.4</ele>
        <time>2020-07-28T10:02:58Z</time>
      </trkpt>
      <trkpt lat="42.9054980" lon="0.3571890">
        <ele>709.8</ele>
        <time>2020-07-28T10:03:01Z</time>
      </trkpt>
      <trkpt lat="42.9054170" lon="0.3570990">
        <ele>710.0</ele>
        <time>2020-07-28T10:03:03Z</time>
      </trkpt>
      <trkpt lat="42.9052330" lon="0.3568940">
        <ele>711.0</ele>
        <time>2020-07-28T10:03:08Z</time>
      </trkpt>
      <trkpt lat="42.9051660" lon="0.3568120">
        <ele>711.2</ele>
        <time>2020-07-28T10:03:10Z</time>
      </trkpt>
      <trkpt lat="42.9050160" lon="0.3566300">
        <ele>712.2</ele>
        <time>2020-07-28T10:03:14Z</time>
      </trkpt>
      <trkpt lat="42.9048670" lon="0.3564520">
        <ele>713.0</ele>
        <time>2020-07-28T10:03:18Z</time>
      </trkpt>
      <trkpt lat="42.9048310" lon="0.3564110">
        <ele>713.2</ele>
        <time>2020-07-28T10:03:19Z</time>
      </trkpt>
      <trkpt lat="42.9046000" lon="0.3560910">
        <ele>713.8</ele>
        <time>2020-07-28T10:03:26Z</time>
      </trkpt>
      <trkpt lat="42.9044680" lon="0.3559000">
        <ele>714.4</ele>
        <time>2020-07-28T10:03:30Z</time>
      </trkpt>
      <trkpt lat="42.9043950" lon="0.3558480">
        <ele>715.2</ele>
        <time>2020-07-28T10:03:32Z</time>
      </trkpt>
      <trkpt lat="42.9043560" lon="0.3558320">
        <ele>715.6</ele>
        <time>2020-07-28T10:03:33Z</time>
      </trkpt>
      <trkpt lat="42.9043180" lon="0.3558280">
        <ele>715.8</ele>
        <time>2020-07-28T10:03:34Z</time>
      </trkpt>
      <trkpt lat="42.9039910" lon="0.3557850">
        <ele>716.0</ele>
        <time>2020-07-28T10:04:40Z</time>
      </trkpt>
      <trkpt lat="42.9039610" lon="0.3557460">
        <ele>716.4</ele>
        <time>2020-07-28T10:04:56Z</time>
      </trkpt>
      <trkpt lat="42.9039860" lon="0.3557480">
        <ele>716.4</ele>
        <time>2020-07-28T10:05:10Z</time>
      </trkpt>
      <trkpt lat="42.9043030" lon="0.3556880">
        <ele>715.6</ele>
        <time>2020-07-28T10:19:14Z</time>
      </trkpt>
      <trkpt lat="42.9042400" lon="0.3554560">
        <ele>716.2</ele>
        <time>2020-07-28T10:19:19Z</time>
      </trkpt>
      <trkpt lat="42.9041230" lon="0.3552630">
        <ele>717.0</ele>
        <time>2020-07-28T10:19:23Z</time>
      </trkpt>
      <trkpt lat="42.9040480" lon="0.3551700">
        <ele>717.2</ele>
        <time>2020-07-28T10:19:25Z</time>
      </trkpt>
      <trkpt lat="42.9040090" lon="0.3551340">
        <ele>717.2</ele>
        <time>2020-07-28T10:19:26Z</time>
      </trkpt>
      <trkpt lat="42.9037080" lon="0.3549310">
        <ele>717.8</ele>
        <time>2020-07-28T10:19:33Z</time>
      </trkpt>
      <trkpt lat="42.9036680" lon="0.3549100">
        <ele>718.0</ele>
        <time>2020-07-28T10:19:34Z</time>
      </trkpt>
      <trkpt lat="42.9036320" lon="0.3548750">
        <ele>718.2</ele>
        <time>2020-07-28T10:19:35Z</time>
      </trkpt>
      <trkpt lat="42.9035220" lon="0.3547720">
        <ele>718.8</ele>
        <time>2020-07-28T10:19:38Z</time>
      </trkpt>
      <trkpt lat="42.9034170" lon="0.3546720">
        <ele>719.4</ele>
        <time>2020-07-28T10:19:41Z</time>
      </trkpt>
      <trkpt lat="42.9033490" lon="0.3546060">
        <ele>719.6</ele>
        <time>2020-07-28T10:19:43Z</time>
      </trkpt>
      <trkpt lat="42.9031910" lon="0.3544380">
        <ele>720.6</ele>
        <time>2020-07-28T10:19:48Z</time>
      </trkpt>
      <trkpt lat="42.9030220" lon="0.3542770">
        <ele>721.6</ele>
        <time>2020-07-28T10:19:53Z</time>
      </trkpt>
      <trkpt lat="42.9028450" lon="0.3541190">
        <ele>722.4</ele>
        <time>2020-07-28T10:19:58Z</time>
      </trkpt>
      <trkpt lat="42.9026650" lon="0.3539550">
        <ele>722.8</ele>
        <time>2020-07-28T10:20:03Z</time>
      </trkpt>
      <trkpt lat="42.9025110" lon="0.3538360">
        <ele>723.4</ele>
        <time>2020-07-28T10:20:07Z</time>
      </trkpt>
      <trkpt lat="42.9023910" lon="0.3537480">
        <ele>724.0</ele>
        <time>2020-07-28T10:20:10Z</time>
      </trkpt>
      <trkpt lat="42.9020630" lon="0.3535130">
        <ele>724.8</ele>
        <time>2020-07-28T10:20:18Z</time>
      </trkpt>
      <trkpt lat="42.9019810" lon="0.3534540">
        <ele>725.0</ele>
        <time>2020-07-28T10:20:20Z</time>
      </trkpt>
      <trkpt lat="42.9018220" lon="0.3533320">
        <ele>726.2</ele>
        <time>2020-07-28T10:20:24Z</time>
      </trkpt>
      <trkpt lat="42.9016590" lon="0.3532180">
        <ele>726.6</ele>
        <time>2020-07-28T10:20:28Z</time>
      </trkpt>
      <trkpt lat="42.9014950" lon="0.3531050">
        <ele>727.2</ele>
        <time>2020-07-28T10:20:32Z</time>
      </trkpt>
      <trkpt lat="42.9013670" lon="0.3530260">
        <ele>728.0</ele>
        <time>2020-07-28T10:20:35Z</time>
      </trkpt>
      <trkpt lat="42.9010420" lon="0.3528580">
        <ele>728.6</ele>
        <time>2020-07-28T10:20:42Z</time>
      </trkpt>
      <trkpt lat="42.9009940" lon="0.3528370">
        <ele>728.6</ele>
        <time>2020-07-28T10:20:43Z</time>
      </trkpt>
      <trkpt lat="42.9006830" lon="0.3527190">
        <ele>729.0</ele>
        <time>2020-07-28T10:20:49Z</time>
      </trkpt>
      <trkpt lat="42.9005100" lon="0.3527070">
        <ele>729.0</ele>
        <time>2020-07-28T10:20:52Z</time>
      </trkpt>
      <trkpt lat="42.9003900" lon="0.3527230">
        <ele>729.0</ele>
        <time>2020-07-28T10:20:54Z</time>
      </trkpt>
      <trkpt lat="42.9003300" lon="0.3527380">
        <ele>729.0</ele>
        <time>2020-07-28T10:20:55Z</time>
      </trkpt>
      <trkpt lat="42.8998080" lon="0.3529340">
        <ele>729.0</ele>
        <time>2020-07-28T10:21:04Z</time>
      </trkpt>
      <trkpt lat="42.8994020" lon="0.3530260">
        <ele>729.2</ele>
        <time>2020-07-28T10:21:11Z</time>
      </trkpt>
      <trkpt lat="42.8991140" lon="0.3529900">
        <ele>729.8</ele>
        <time>2020-07-28T10:21:16Z</time>
      </trkpt>
      <trkpt lat="42.8988890" lon="0.3529400">
        <ele>730.0</ele>
        <time>2020-07-28T10:21:20Z</time>
      </trkpt>
      <trkpt lat="42.8983740" lon="0.3529050">
        <ele>730.6</ele>
        <time>2020-07-28T10:21:29Z</time>
      </trkpt>
      <trkpt lat="42.8983130" lon="0.3529170">
        <ele>730.8</ele>
        <time>2020-07-28T10:21:30Z</time>
      </trkpt>
      <trkpt lat="42.8980010" lon="0.3530450">
        <ele>731.0</ele>
        <time>2020-07-28T10:21:35Z</time>
      </trkpt>
      <trkpt lat="42.8978720" lon="0.3531200">
        <ele>731.0</ele>
        <time>2020-07-28T10:21:37Z</time>
      </trkpt>
      <trkpt lat="42.8975330" lon="0.3533190">
        <ele>731.0</ele>
        <time>2020-07-28T10:21:42Z</time>
      </trkpt>
      <trkpt lat="42.8971800" lon="0.3535550">
        <ele>730.0</ele>
        <time>2020-07-28T10:21:47Z</time>
      </trkpt>
      <trkpt lat="42.8971120" lon="0.3536140">
        <ele>729.6</ele>
        <time>2020-07-28T10:21:48Z</time>
      </trkpt>
      <trkpt lat="42.8966290" lon="0.3539750">
        <ele>729.0</ele>
        <time>2020-07-28T10:21:55Z</time>
      </trkpt>
      <trkpt lat="42.8961170" lon="0.3543180">
        <ele>729.0</ele>
        <time>2020-07-28T10:22:03Z</time>
      </trkpt>
      <trkpt lat="42.8959960" lon="0.3544000">
        <ele>729.0</ele>
        <time>2020-07-28T10:22:05Z</time>
      </trkpt>
      <trkpt lat="42.8956690" lon="0.3546010">
        <ele>729.2</ele>
        <time>2020-07-28T10:22:11Z</time>
      </trkpt>
      <trkpt lat="42.8954780" lon="0.3546700">
        <ele>729.4</ele>
        <time>2020-07-28T10:22:15Z</time>
      </trkpt>
      <trkpt lat="42.8953810" lon="0.3546740">
        <ele>729.6</ele>
        <time>2020-07-28T10:22:17Z</time>
      </trkpt>
      <trkpt lat="42.8952160" lon="0.3547990">
        <ele>730.8</ele>
        <time>2020-07-28T10:22:21Z</time>
      </trkpt>
      <trkpt lat="42.8951980" lon="0.3548600">
        <ele>731.2</ele>
        <time>2020-07-28T10:22:22Z</time>
      </trkpt>
      <trkpt lat="42.8951980" lon="0.3549900">
        <ele>731.4</ele>
        <time>2020-07-28T10:22:24Z</time>
      </trkpt>
      <trkpt lat="42.8952050" lon="0.3550560">
        <ele>731.6</ele>
        <time>2020-07-28T10:22:25Z</time>
      </trkpt>
      <trkpt lat="42.8952090" lon="0.3551210">
        <ele>731.6</ele>
        <time>2020-07-28T10:22:26Z</time>
      </trkpt>
      <trkpt lat="42.8952080" lon="0.3551890">
        <ele>731.8</ele>
        <time>2020-07-28T10:22:27Z</time>
      </trkpt>
      <trkpt lat="42.8952000" lon="0.3553320">
        <ele>732.0</ele>
        <time>2020-07-28T10:22:29Z</time>
      </trkpt>
      <trkpt lat="42.8952210" lon="0.3556130">
        <ele>732.4</ele>
        <time>2020-07-28T10:22:33Z</time>
      </trkpt>
      <trkpt lat="42.8952370" lon="0.3556740">
        <ele>732.4</ele>
        <time>2020-07-28T10:22:34Z</time>
      </trkpt>
      <trkpt lat="42.8953880" lon="0.3560450">
        <ele>732.8</ele>
        <time>2020-07-28T10:22:41Z</time>
      </trkpt>
      <trkpt lat="42.8955650" lon="0.3563940">
        <ele>733.4</ele>
        <time>2020-07-28T10:22:49Z</time>
      </trkpt>
      <trkpt lat="42.8956990" lon="0.3566280">
        <ele>734.6</ele>
        <time>2020-07-28T10:22:55Z</time>
      </trkpt>
      <trkpt lat="42.8957480" lon="0.3567010">
        <ele>735.2</ele>
        <time>2020-07-28T10:22:57Z</time>
      </trkpt>
      <trkpt lat="42.8958210" lon="0.3568030">
        <ele>736.0</ele>
        <time>2020-07-28T10:23:00Z</time>
      </trkpt>
      <trkpt lat="42.8959470" lon="0.3569760">
        <ele>737.4</ele>
        <time>2020-07-28T10:23:05Z</time>
      </trkpt>
      <trkpt lat="42.8959990" lon="0.3570390">
        <ele>738.2</ele>
        <time>2020-07-28T10:23:07Z</time>
      </trkpt>
      <trkpt lat="42.8960500" lon="0.3571000">
        <ele>738.6</ele>
        <time>2020-07-28T10:23:09Z</time>
      </trkpt>
      <trkpt lat="42.8961860" lon="0.3572350">
        <ele>739.4</ele>
        <time>2020-07-28T10:23:14Z</time>
      </trkpt>
      <trkpt lat="42.8962410" lon="0.3572920">
        <ele>739.6</ele>
        <time>2020-07-28T10:23:16Z</time>
      </trkpt>
      <trkpt lat="42.8964630" lon="0.3574810">
        <ele>740.8</ele>
        <time>2020-07-28T10:23:23Z</time>
      </trkpt>
      <trkpt lat="42.8965870" lon="0.3575900">
        <ele>742.0</ele>
        <time>2020-07-28T10:23:27Z</time>
      </trkpt>
      <trkpt lat="42.8967110" lon="0.3577020">
        <ele>743.2</ele>
        <time>2020-07-28T10:23:31Z</time>
      </trkpt>
      <trkpt lat="42.8967640" lon="0.3577540">
        <ele>743.6</ele>
        <time>2020-07-28T10:23:33Z</time>
      </trkpt>
      <trkpt lat="42.8968200" lon="0.3578090">
        <ele>744.2</ele>
        <time>2020-07-28T10:23:35Z</time>
      </trkpt>
      <trkpt lat="42.8969020" lon="0.3578970">
        <ele>744.8</ele>
        <time>2020-07-28T10:23:38Z</time>
      </trkpt>
      <trkpt lat="42.8970600" lon="0.3580850">
        <ele>745.4</ele>
        <time>2020-07-28T10:23:44Z</time>
      </trkpt>
      <trkpt lat="42.8971560" lon="0.3582170">
        <ele>746.0</ele>
        <time>2020-07-28T10:23:48Z</time>
      </trkpt>
      <trkpt lat="42.8972000" lon="0.3582860">
        <ele>746.4</ele>
        <time>2020-07-28T10:23:50Z</time>
      </trkpt>
      <trkpt lat="42.8972860" lon="0.3584280">
        <ele>747.6</ele>
        <time>2020-07-28T10:23:54Z</time>
      </trkpt>
      <trkpt lat="42.8973420" lon="0.3585400">
        <ele>748.0</ele>
        <time>2020-07-28T10:23:57Z</time>
      </trkpt>
      <trkpt lat="42.8973970" lon="0.3586590">
        <ele>748.8</ele>
        <time>2020-07-28T10:24:00Z</time>
      </trkpt>
      <trkpt lat="42.8974780" lon="0.3588470">
        <ele>750.0</ele>
        <time>2020-07-28T10:24:05Z</time>
      </trkpt>
      <trkpt lat="42.8974920" lon="0.3588840">
        <ele>750.4</ele>
        <time>2020-07-28T10:24:06Z</time>
      </trkpt>
      <trkpt lat="42.8975300" lon="0.3590150">
        <ele>751.0</ele>
        <time>2020-07-28T10:24:09Z</time>
      </trkpt>
      <trkpt lat="42.8975540" lon="0.3590900">
        <ele>751.8</ele>
        <time>2020-07-28T10:24:11Z</time>
      </trkpt>
      <trkpt lat="42.8975720" lon="0.3591680">
        <ele>752.4</ele>
        <time>2020-07-28T10:24:13Z</time>
      </trkpt>
      <trkpt lat="42.8976170" lon="0.3592780">
        <ele>753.2</ele>
        <time>2020-07-28T10:24:16Z</time>
      </trkpt>
      <trkpt lat="42.8976470" lon="0.3593590">
        <ele>753.6</ele>
        <time>2020-07-28T10:24:18Z</time>
      </trkpt>
      <trkpt lat="42.8977490" lon="0.3596650">
        <ele>754.8</ele>
        <time>2020-07-28T10:24:25Z</time>
      </trkpt>
      <trkpt lat="42.8978530" lon="0.3599230">
        <ele>756.2</ele>
        <time>2020-07-28T10:24:31Z</time>
      </trkpt>
      <trkpt lat="42.8978990" lon="0.3600460">
        <ele>757.0</ele>
        <time>2020-07-28T10:24:34Z</time>
      </trkpt>
      <trkpt lat="42.8979580" lon="0.3601730">
        <ele>757.2</ele>
        <time>2020-07-28T10:24:37Z</time>
      </trkpt>
      <trkpt lat="42.8980500" lon="0.3603980">
        <ele>758.0</ele>
        <time>2020-07-28T10:24:42Z</time>
      </trkpt>
      <trkpt lat="42.8980930" lon="0.3604940">
        <ele>758.4</ele>
        <time>2020-07-28T10:24:44Z</time>
      </trkpt>
      <trkpt lat="42.8982070" lon="0.3607640">
        <ele>759.2</ele>
        <time>2020-07-28T10:24:49Z</time>
      </trkpt>
      <trkpt lat="42.8982290" lon="0.3608200">
        <ele>759.6</ele>
        <time>2020-07-28T10:24:50Z</time>
      </trkpt>
      <trkpt lat="42.8983960" lon="0.3612370">
        <ele>760.4</ele>
        <time>2020-07-28T10:24:57Z</time>
      </trkpt>
      <trkpt lat="42.8985150" lon="0.3617280">
        <ele>760.4</ele>
        <time>2020-07-28T10:25:03Z</time>
      </trkpt>
      <trkpt lat="42.8986020" lon="0.3622520">
        <ele>760.0</ele>
        <time>2020-07-28T10:25:08Z</time>
      </trkpt>
      <trkpt lat="42.8986930" lon="0.3629010">
        <ele>758.4</ele>
        <time>2020-07-28T10:25:13Z</time>
      </trkpt>
      <trkpt lat="42.8987130" lon="0.3630420">
        <ele>758.2</ele>
        <time>2020-07-28T10:25:14Z</time>
      </trkpt>
      <trkpt lat="42.8987560" lon="0.3633320">
        <ele>757.0</ele>
        <time>2020-07-28T10:25:16Z</time>
      </trkpt>
      <trkpt lat="42.8988270" lon="0.3637850">
        <ele>755.2</ele>
        <time>2020-07-28T10:25:19Z</time>
      </trkpt>
      <trkpt lat="42.8988600" lon="0.3641020">
        <ele>753.6</ele>
        <time>2020-07-28T10:25:21Z</time>
      </trkpt>
      <trkpt lat="42.8988640" lon="0.3644350">
        <ele>752.4</ele>
        <time>2020-07-28T10:25:23Z</time>
      </trkpt>
      <trkpt lat="42.8987980" lon="0.3647550">
        <ele>751.4</ele>
        <time>2020-07-28T10:25:25Z</time>
      </trkpt>
      <trkpt lat="42.8987450" lon="0.3649090">
        <ele>750.6</ele>
        <time>2020-07-28T10:25:26Z</time>
      </trkpt>
      <trkpt lat="42.8986830" lon="0.3650570">
        <ele>749.8</ele>
        <time>2020-07-28T10:25:27Z</time>
      </trkpt>
      <trkpt lat="42.8986170" lon="0.3652000">
        <ele>748.4</ele>
        <time>2020-07-28T10:25:28Z</time>
      </trkpt>
      <trkpt lat="42.8984780" lon="0.3654770">
        <ele>747.0</ele>
        <time>2020-07-28T10:25:30Z</time>
      </trkpt>
      <trkpt lat="42.8983570" lon="0.3657370">
        <ele>745.2</ele>
        <time>2020-07-28T10:25:32Z</time>
      </trkpt>
      <trkpt lat="42.8982540" lon="0.3659830">
        <ele>744.0</ele>
        <time>2020-07-28T10:25:34Z</time>
      </trkpt>
      <trkpt lat="42.8982060" lon="0.3661010">
        <ele>743.8</ele>
        <time>2020-07-28T10:25:35Z</time>
      </trkpt>
      <trkpt lat="42.8979600" lon="0.3665940">
        <ele>743.4</ele>
        <time>2020-07-28T10:25:40Z</time>
      </trkpt>
      <trkpt lat="42.8977120" lon="0.3669410">
        <ele>745.2</ele>
        <time>2020-07-28T10:25:45Z</time>
      </trkpt>
      <trkpt lat="42.8976270" lon="0.3670600">
        <ele>746.6</ele>
        <time>2020-07-28T10:25:47Z</time>
      </trkpt>
      <trkpt lat="42.8975470" lon="0.3671690">
        <ele>748.2</ele>
        <time>2020-07-28T10:25:49Z</time>
      </trkpt>
      <trkpt lat="42.8975140" lon="0.3672250">
        <ele>748.6</ele>
        <time>2020-07-28T10:25:50Z</time>
      </trkpt>
      <trkpt lat="42.8974490" lon="0.3673320">
        <ele>749.2</ele>
        <time>2020-07-28T10:25:52Z</time>
      </trkpt>
      <trkpt lat="42.8973290" lon="0.3675380">
        <ele>750.8</ele>
        <time>2020-07-28T10:25:56Z</time>
      </trkpt>
      <trkpt lat="42.8972740" lon="0.3676380">
        <ele>752.0</ele>
        <time>2020-07-28T10:25:58Z</time>
      </trkpt>
      <trkpt lat="42.8971790" lon="0.3678350">
        <ele>753.0</ele>
        <time>2020-07-28T10:26:02Z</time>
      </trkpt>
      <trkpt lat="42.8970920" lon="0.3680240">
        <ele>754.2</ele>
        <time>2020-07-28T10:26:06Z</time>
      </trkpt>
      <trkpt lat="42.8970000" lon="0.3682520">
        <ele>755.2</ele>
        <time>2020-07-28T10:26:11Z</time>
      </trkpt>
      <trkpt lat="42.8969700" lon="0.3683940">
        <ele>756.0</ele>
        <time>2020-07-28T10:26:14Z</time>
      </trkpt>
      <trkpt lat="42.8969490" lon="0.3684800">
        <ele>756.2</ele>
        <time>2020-07-28T10:26:16Z</time>
      </trkpt>
      <trkpt lat="42.8969040" lon="0.3687120">
        <ele>757.4</ele>
        <time>2020-07-28T10:26:21Z</time>
      </trkpt>
      <trkpt lat="42.8968810" lon="0.3689200">
        <ele>758.4</ele>
        <time>2020-07-28T10:26:25Z</time>
      </trkpt>
      <trkpt lat="42.8968790" lon="0.3691390">
        <ele>759.6</ele>
        <time>2020-07-28T10:26:29Z</time>
      </trkpt>
      <trkpt lat="42.8968740" lon="0.3694180">
        <ele>760.6</ele>
        <time>2020-07-28T10:26:35Z</time>
      </trkpt>
      <trkpt lat="42.8968690" lon="0.3694550">
        <ele>760.8</ele>
        <time>2020-07-28T10:26:36Z</time>
      </trkpt>
      <trkpt lat="42.8968360" lon="0.3696210">
        <ele>761.6</ele>
        <time>2020-07-28T10:26:40Z</time>
      </trkpt>
      <trkpt lat="42.8968120" lon="0.3697120">
        <ele>762.2</ele>
        <time>2020-07-28T10:26:42Z</time>
      </trkpt>
      <trkpt lat="42.8967580" lon="0.3698330">
        <ele>762.8</ele>
        <time>2020-07-28T10:26:45Z</time>
      </trkpt>
      <trkpt lat="42.8967140" lon="0.3699050">
        <ele>763.4</ele>
        <time>2020-07-28T10:26:47Z</time>
      </trkpt>
      <trkpt lat="42.8966610" lon="0.3699670">
        <ele>763.8</ele>
        <time>2020-07-28T10:26:49Z</time>
      </trkpt>
      <trkpt lat="42.8965200" lon="0.3700200">
        <ele>764.8</ele>
        <time>2020-07-28T10:26:53Z</time>
      </trkpt>
      <trkpt lat="42.8964850" lon="0.3700320">
        <ele>765.2</ele>
        <time>2020-07-28T10:26:54Z</time>
      </trkpt>
      <trkpt lat="42.8961450" lon="0.3701760">
        <ele>766.2</ele>
        <time>2020-07-28T10:27:03Z</time>
      </trkpt>
      <trkpt lat="42.8958220" lon="0.3703810">
        <ele>767.0</ele>
        <time>2020-07-28T10:27:11Z</time>
      </trkpt>
      <trkpt lat="42.8957340" lon="0.3704270">
        <ele>767.2</ele>
        <time>2020-07-28T10:27:13Z</time>
      </trkpt>
      <trkpt lat="42.8954080" lon="0.3705600">
        <ele>767.8</ele>
        <time>2020-07-28T10:27:20Z</time>
      </trkpt>
      <trkpt lat="42.8951000" lon="0.3707590">
        <ele>768.0</ele>
        <time>2020-07-28T10:27:27Z</time>
      </trkpt>
      <trkpt lat="42.8948700" lon="0.3709240">
        <ele>768.2</ele>
        <time>2020-07-28T10:27:33Z</time>
      </trkpt>
      <trkpt lat="42.8947870" lon="0.3709600">
        <ele>768.8</ele>
        <time>2020-07-28T10:27:35Z</time>
      </trkpt>
      <trkpt lat="42.8947030" lon="0.3709900">
        <ele>769.6</ele>
        <time>2020-07-28T10:27:37Z</time>
      </trkpt>
      <trkpt lat="42.8945260" lon="0.3710470">
        <ele>770.8</ele>
        <time>2020-07-28T10:27:41Z</time>
      </trkpt>
      <trkpt lat="42.8943790" lon="0.3710870">
        <ele>771.0</ele>
        <time>2020-07-28T10:27:44Z</time>
      </trkpt>
      <trkpt lat="42.8940980" lon="0.3712230">
        <ele>771.2</ele>
        <time>2020-07-28T10:27:49Z</time>
      </trkpt>
      <trkpt lat="42.8938320" lon="0.3714090">
        <ele>771.0</ele>
        <time>2020-07-28T10:27:53Z</time>
      </trkpt>
      <trkpt lat="42.8937580" lon="0.3714500">
        <ele>770.8</ele>
        <time>2020-07-28T10:27:54Z</time>
      </trkpt>
      <trkpt lat="42.8936870" lon="0.3715040">
        <ele>770.6</ele>
        <time>2020-07-28T10:27:55Z</time>
      </trkpt>
      <trkpt lat="42.8935400" lon="0.3715930">
        <ele>769.6</ele>
        <time>2020-07-28T10:27:57Z</time>
      </trkpt>
      <trkpt lat="42.8933990" lon="0.3716880">
        <ele>768.4</ele>
        <time>2020-07-28T10:27:59Z</time>
      </trkpt>
      <trkpt lat="42.8931560" lon="0.3718650">
        <ele>767.8</ele>
        <time>2020-07-28T10:28:03Z</time>
      </trkpt>
      <trkpt lat="42.8929270" lon="0.3720610">
        <ele>767.6</ele>
        <time>2020-07-28T10:28:08Z</time>
      </trkpt>
      <trkpt lat="42.8926740" lon="0.3722700">
        <ele>769.8</ele>
        <time>2020-07-28T10:28:14Z</time>
      </trkpt>
      <trkpt lat="42.8926310" lon="0.3723010">
        <ele>770.4</ele>
        <time>2020-07-28T10:28:15Z</time>
      </trkpt>
      <trkpt lat="42.8925410" lon="0.3723740">
        <ele>771.2</ele>
        <time>2020-07-28T10:28:17Z</time>
      </trkpt>
      <trkpt lat="42.8924500" lon="0.3724490">
        <ele>772.4</ele>
        <time>2020-07-28T10:28:19Z</time>
      </trkpt>
      <trkpt lat="42.8923630" lon="0.3725320">
        <ele>772.8</ele>
        <time>2020-07-28T10:28:21Z</time>
      </trkpt>
      <trkpt lat="42.8921740" lon="0.3727350">
        <ele>773.0</ele>
        <time>2020-07-28T10:28:25Z</time>
      </trkpt>
      <trkpt lat="42.8920720" lon="0.3728540">
        <ele>773.0</ele>
        <time>2020-07-28T10:28:27Z</time>
      </trkpt>
      <trkpt lat="42.8918000" lon="0.3732120">
        <ele>773.0</ele>
        <time>2020-07-28T10:28:32Z</time>
      </trkpt>
      <trkpt lat="42.8914080" lon="0.3736390">
        <ele>772.4</ele>
        <time>2020-07-28T10:28:38Z</time>
      </trkpt>
      <trkpt lat="42.8911740" lon="0.3739200">
        <ele>771.4</ele>
        <time>2020-07-28T10:28:42Z</time>
      </trkpt>
      <trkpt lat="42.8910770" lon="0.3740750">
        <ele>771.0</ele>
        <time>2020-07-28T10:28:44Z</time>
      </trkpt>
      <trkpt lat="42.8907060" lon="0.3747230">
        <ele>771.4</ele>
        <time>2020-07-28T10:28:53Z</time>
      </trkpt>
      <trkpt lat="42.8905150" lon="0.3751650">
        <ele>771.8</ele>
        <time>2020-07-28T10:28:59Z</time>
      </trkpt>
      <trkpt lat="42.8902920" lon="0.3757870">
        <ele>772.2</ele>
        <time>2020-07-28T10:29:07Z</time>
      </trkpt>
      <trkpt lat="42.8900390" lon="0.3762430">
        <ele>772.2</ele>
        <time>2020-07-28T10:29:14Z</time>
      </trkpt>
      <trkpt lat="42.8899010" lon="0.3764500">
        <ele>772.4</ele>
        <time>2020-07-28T10:29:18Z</time>
      </trkpt>
      <trkpt lat="42.8898650" lon="0.3764950">
        <ele>772.4</ele>
        <time>2020-07-28T10:29:19Z</time>
      </trkpt>
      <trkpt lat="42.8898270" lon="0.3765380">
        <ele>772.6</ele>
        <time>2020-07-28T10:29:20Z</time>
      </trkpt>
      <trkpt lat="42.8897220" lon="0.3766550">
        <ele>773.6</ele>
        <time>2020-07-28T10:29:23Z</time>
      </trkpt>
      <trkpt lat="42.8896210" lon="0.3767490">
        <ele>774.2</ele>
        <time>2020-07-28T10:29:26Z</time>
      </trkpt>
      <trkpt lat="42.8895670" lon="0.3768110">
        <ele>774.6</ele>
        <time>2020-07-28T10:29:28Z</time>
      </trkpt>
      <trkpt lat="42.8894970" lon="0.3769330">
        <ele>776.0</ele>
        <time>2020-07-28T10:29:31Z</time>
      </trkpt>
      <trkpt lat="42.8894580" lon="0.3770270">
        <ele>776.6</ele>
        <time>2020-07-28T10:29:33Z</time>
      </trkpt>
      <trkpt lat="42.8894510" lon="0.3770840">
        <ele>777.0</ele>
        <time>2020-07-28T10:29:34Z</time>
      </trkpt>
      <trkpt lat="42.8894530" lon="0.3771160">
        <ele>777.4</ele>
        <time>2020-07-28T10:29:35Z</time>
      </trkpt>
      <trkpt lat="42.8894700" lon="0.3772050">
        <ele>778.2</ele>
        <time>2020-07-28T10:29:37Z</time>
      </trkpt>
      <trkpt lat="42.8895000" lon="0.3773280">
        <ele>778.8</ele>
        <time>2020-07-28T10:29:39Z</time>
      </trkpt>
      <trkpt lat="42.8895620" lon="0.3775160">
        <ele>779.2</ele>
        <time>2020-07-28T10:29:42Z</time>
      </trkpt>
      <trkpt lat="42.8895830" lon="0.3775750">
        <ele>779.2</ele>
        <time>2020-07-28T10:29:43Z</time>
      </trkpt>
      <trkpt lat="42.8895990" lon="0.3776310">
        <ele>779.2</ele>
        <time>2020-07-28T10:29:44Z</time>
      </trkpt>
      <trkpt lat="42.8896660" lon="0.3777940">
        <ele>779.4</ele>
        <time>2020-07-28T10:29:48Z</time>
      </trkpt>
      <trkpt lat="42.8897870" lon="0.3779560">
        <ele>779.8</ele>
        <time>2020-07-28T10:29:52Z</time>
      </trkpt>
      <trkpt lat="42.8898160" lon="0.3780120">
        <ele>780.0</ele>
        <time>2020-07-28T10:29:53Z</time>
      </trkpt>
      <trkpt lat="42.8899640" lon="0.3783290">
        <ele>780.6</ele>
        <time>2020-07-28T10:29:58Z</time>
      </trkpt>
      <trkpt lat="42.8899760" lon="0.3783960">
        <ele>781.0</ele>
        <time>2020-07-28T10:29:59Z</time>
      </trkpt>
      <trkpt lat="42.8899930" lon="0.3784630">
        <ele>781.4</ele>
        <time>2020-07-28T10:30:00Z</time>
      </trkpt>
      <trkpt lat="42.8900170" lon="0.3786680">
        <ele>782.2</ele>
        <time>2020-07-28T10:30:03Z</time>
      </trkpt>
      <trkpt lat="42.8900100" lon="0.3787960">
        <ele>782.6</ele>
        <time>2020-07-28T10:30:05Z</time>
      </trkpt>
      <trkpt lat="42.8899970" lon="0.3788560">
        <ele>782.8</ele>
        <time>2020-07-28T10:30:06Z</time>
      </trkpt>
      <trkpt lat="42.8899180" lon="0.3789890">
        <ele>783.2</ele>
        <time>2020-07-28T10:30:09Z</time>
      </trkpt>
      <trkpt lat="42.8898180" lon="0.3790940">
        <ele>783.6</ele>
        <time>2020-07-28T10:30:12Z</time>
      </trkpt>
      <trkpt lat="42.8897040" lon="0.3791970">
        <ele>784.0</ele>
        <time>2020-07-28T10:30:15Z</time>
      </trkpt>
      <trkpt lat="42.8896650" lon="0.3792300">
        <ele>784.2</ele>
        <time>2020-07-28T10:30:16Z</time>
      </trkpt>
      <trkpt lat="42.8895890" lon="0.3792900">
        <ele>784.6</ele>
        <time>2020-07-28T10:30:18Z</time>
      </trkpt>
      <trkpt lat="42.8894250" lon="0.3794100">
        <ele>785.0</ele>
        <time>2020-07-28T10:30:22Z</time>
      </trkpt>
      <trkpt lat="42.8890760" lon="0.3796230">
        <ele>785.4</ele>
        <time>2020-07-28T10:30:30Z</time>
      </trkpt>
      <trkpt lat="42.8889910" lon="0.3796730">
        <ele>785.8</ele>
        <time>2020-07-28T10:30:32Z</time>
      </trkpt>
      <trkpt lat="42.8886970" lon="0.3798420">
        <ele>786.6</ele>
        <time>2020-07-28T10:30:39Z</time>
      </trkpt>
      <trkpt lat="42.8886090" lon="0.3798860">
        <ele>787.0</ele>
        <time>2020-07-28T10:30:41Z</time>
      </trkpt>
      <trkpt lat="42.8882140" lon="0.3800560">
        <ele>788.0</ele>
        <time>2020-07-28T10:30:50Z</time>
      </trkpt>
      <trkpt lat="42.8881690" lon="0.3800720">
        <ele>788.2</ele>
        <time>2020-07-28T10:30:51Z</time>
      </trkpt>
      <trkpt lat="42.8879920" lon="0.3801490">
        <ele>788.8</ele>
        <time>2020-07-28T10:30:55Z</time>
      </trkpt>
      <trkpt lat="42.8878770" lon="0.3802590">
        <ele>789.4</ele>
        <time>2020-07-28T10:30:58Z</time>
      </trkpt>
      <trkpt lat="42.8877480" lon="0.3805410">
        <ele>790.0</ele>
        <time>2020-07-28T10:31:03Z</time>
      </trkpt>
      <trkpt lat="42.8876890" lon="0.3808170">
        <ele>790.4</ele>
        <time>2020-07-28T10:31:07Z</time>
      </trkpt>
      <trkpt lat="42.8876670" lon="0.3810290">
        <ele>790.6</ele>
        <time>2020-07-28T10:31:10Z</time>
      </trkpt>
      <trkpt lat="42.8876070" lon="0.3815690">
        <ele>791.2</ele>
        <time>2020-07-28T10:31:18Z</time>
      </trkpt>
      <trkpt lat="42.8875750" lon="0.3817630">
        <ele>791.4</ele>
        <time>2020-07-28T10:31:21Z</time>
      </trkpt>
      <trkpt lat="42.8875370" lon="0.3819490">
        <ele>791.8</ele>
        <time>2020-07-28T10:31:24Z</time>
      </trkpt>
      <trkpt lat="42.8874950" lon="0.3820610">
        <ele>792.2</ele>
        <time>2020-07-28T10:31:26Z</time>
      </trkpt>
      <trkpt lat="42.8874410" lon="0.3821620">
        <ele>792.6</ele>
        <time>2020-07-28T10:31:28Z</time>
      </trkpt>
      <trkpt lat="42.8873780" lon="0.3822450">
        <ele>793.0</ele>
        <time>2020-07-28T10:31:30Z</time>
      </trkpt>
      <trkpt lat="42.8873110" lon="0.3823220">
        <ele>793.2</ele>
        <time>2020-07-28T10:31:32Z</time>
      </trkpt>
      <trkpt lat="42.8870990" lon="0.3825830">
        <ele>794.0</ele>
        <time>2020-07-28T10:31:39Z</time>
      </trkpt>
      <trkpt lat="42.8870450" lon="0.3826630">
        <ele>794.4</ele>
        <time>2020-07-28T10:31:41Z</time>
      </trkpt>
      <trkpt lat="42.8869680" lon="0.3827940">
        <ele>794.8</ele>
        <time>2020-07-28T10:31:44Z</time>
      </trkpt>
      <trkpt lat="42.8869420" lon="0.3828350">
        <ele>795.2</ele>
        <time>2020-07-28T10:31:45Z</time>
      </trkpt>
      <trkpt lat="42.8868930" lon="0.3829230">
        <ele>795.8</ele>
        <time>2020-07-28T10:31:47Z</time>
      </trkpt>
      <trkpt lat="42.8868670" lon="0.3829650">
        <ele>795.8</ele>
        <time>2020-07-28T10:31:48Z</time>
      </trkpt>
      <trkpt lat="42.8867990" lon="0.3831010">
        <ele>796.4</ele>
        <time>2020-07-28T10:31:51Z</time>
      </trkpt>
      <trkpt lat="42.8867070" lon="0.3832750">
        <ele>796.8</ele>
        <time>2020-07-28T10:31:55Z</time>
      </trkpt>
      <trkpt lat="42.8866240" lon="0.3834400">
        <ele>797.4</ele>
        <time>2020-07-28T10:31:59Z</time>
      </trkpt>
      <trkpt lat="42.8865310" lon="0.3836470">
        <ele>798.0</ele>
        <time>2020-07-28T10:32:04Z</time>
      </trkpt>
      <trkpt lat="42.8865010" lon="0.3837380">
        <ele>798.8</ele>
        <time>2020-07-28T10:32:06Z</time>
      </trkpt>
      <trkpt lat="42.8864190" lon="0.3839700">
        <ele>800.0</ele>
        <time>2020-07-28T10:32:11Z</time>
      </trkpt>
      <trkpt lat="42.8863860" lon="0.3840620">
        <ele>800.6</ele>
        <time>2020-07-28T10:32:13Z</time>
      </trkpt>
      <trkpt lat="42.8863340" lon="0.3842110">
        <ele>801.2</ele>
        <time>2020-07-28T10:32:16Z</time>
      </trkpt>
      <trkpt lat="42.8862520" lon="0.3844400">
        <ele>801.8</ele>
        <time>2020-07-28T10:32:20Z</time>
      </trkpt>
      <trkpt lat="42.8861060" lon="0.3847960">
        <ele>802.2</ele>
        <time>2020-07-28T10:32:26Z</time>
      </trkpt>
      <trkpt lat="42.8860080" lon="0.3849480">
        <ele>802.2</ele>
        <time>2020-07-28T10:32:29Z</time>
      </trkpt>
      <trkpt lat="42.8859710" lon="0.3849950">
        <ele>802.2</ele>
        <time>2020-07-28T10:32:30Z</time>
      </trkpt>
      <trkpt lat="42.8857320" lon="0.3852310">
        <ele>802.2</ele>
        <time>2020-07-28T10:32:36Z</time>
      </trkpt>
      <trkpt lat="42.8853970" lon="0.3854460">
        <ele>803.0</ele>
        <time>2020-07-28T10:32:44Z</time>
      </trkpt>
      <trkpt lat="42.8853170" lon="0.3854880">
        <ele>803.2</ele>
        <time>2020-07-28T10:32:46Z</time>
      </trkpt>
      <trkpt lat="42.8851340" lon="0.3855890">
        <ele>804.2</ele>
        <time>2020-07-28T10:32:51Z</time>
      </trkpt>
      <trkpt lat="42.8850980" lon="0.3856090">
        <ele>804.4</ele>
        <time>2020-07-28T10:32:52Z</time>
      </trkpt>
      <trkpt lat="42.8849100" lon="0.3857160">
        <ele>805.6</ele>
        <time>2020-07-28T10:32:57Z</time>
      </trkpt>
      <trkpt lat="42.8847570" lon="0.3858020">
        <ele>806.8</ele>
        <time>2020-07-28T10:33:01Z</time>
      </trkpt>
      <trkpt lat="42.8847210" lon="0.3858190">
        <ele>807.2</ele>
        <time>2020-07-28T10:33:02Z</time>
      </trkpt>
      <trkpt lat="42.8846840" lon="0.3858360">
        <ele>807.8</ele>
        <time>2020-07-28T10:33:03Z</time>
      </trkpt>
      <trkpt lat="42.8845020" lon="0.3859240">
        <ele>808.8</ele>
        <time>2020-07-28T10:33:08Z</time>
      </trkpt>
      <trkpt lat="42.8843580" lon="0.3859980">
        <ele>810.0</ele>
        <time>2020-07-28T10:33:12Z</time>
      </trkpt>
      <trkpt lat="42.8843220" lon="0.3860190">
        <ele>810.2</ele>
        <time>2020-07-28T10:33:13Z</time>
      </trkpt>
      <trkpt lat="42.8841520" lon="0.3861530">
        <ele>811.2</ele>
        <time>2020-07-28T10:33:18Z</time>
      </trkpt>
      <trkpt lat="42.8840920" lon="0.3862140">
        <ele>811.6</ele>
        <time>2020-07-28T10:33:20Z</time>
      </trkpt>
      <trkpt lat="42.8839800" lon="0.3863610">
        <ele>812.4</ele>
        <time>2020-07-28T10:33:24Z</time>
      </trkpt>
      <trkpt lat="42.8838670" lon="0.3865160">
        <ele>813.0</ele>
        <time>2020-07-28T10:33:28Z</time>
      </trkpt>
      <trkpt lat="42.8838090" lon="0.3865890">
        <ele>813.6</ele>
        <time>2020-07-28T10:33:30Z</time>
      </trkpt>
      <trkpt lat="42.8836660" lon="0.3867630">
        <ele>814.6</ele>
        <time>2020-07-28T10:33:35Z</time>
      </trkpt>
      <trkpt lat="42.8835780" lon="0.3868650">
        <ele>815.2</ele>
        <time>2020-07-28T10:33:38Z</time>
      </trkpt>
      <trkpt lat="42.8834970" lon="0.3869740">
        <ele>815.8</ele>
        <time>2020-07-28T10:33:41Z</time>
      </trkpt>
      <trkpt lat="42.8833120" lon="0.3872380">
        <ele>816.8</ele>
        <time>2020-07-28T10:33:48Z</time>
      </trkpt>
      <trkpt lat="42.8832860" lon="0.3872760">
        <ele>817.0</ele>
        <time>2020-07-28T10:33:49Z</time>
      </trkpt>
      <trkpt lat="42.8831040" lon="0.3875070">
        <ele>818.2</ele>
        <time>2020-07-28T10:33:56Z</time>
      </trkpt>
      <trkpt lat="42.8830260" lon="0.3875970">
        <ele>819.0</ele>
        <time>2020-07-28T10:33:59Z</time>
      </trkpt>
      <trkpt lat="42.8829980" lon="0.3876260">
        <ele>819.2</ele>
        <time>2020-07-28T10:34:00Z</time>
      </trkpt>
      <trkpt lat="42.8828500" lon="0.3877520">
        <ele>820.2</ele>
        <time>2020-07-28T10:34:05Z</time>
      </trkpt>
      <trkpt lat="42.8828180" lon="0.3877710">
        <ele>820.6</ele>
        <time>2020-07-28T10:34:06Z</time>
      </trkpt>
      <trkpt lat="42.8826830" lon="0.3878290">
        <ele>821.4</ele>
        <time>2020-07-28T10:34:10Z</time>
      </trkpt>
      <trkpt lat="42.8825250" lon="0.3879060">
        <ele>822.4</ele>
        <time>2020-07-28T10:34:15Z</time>
      </trkpt>
      <trkpt lat="42.8823380" lon="0.3880410">
        <ele>823.4</ele>
        <time>2020-07-28T10:34:21Z</time>
      </trkpt>
      <trkpt lat="42.8822400" lon="0.3881090">
        <ele>824.2</ele>
        <time>2020-07-28T10:34:24Z</time>
      </trkpt>
      <trkpt lat="42.8821690" lon="0.3881540">
        <ele>824.6</ele>
        <time>2020-07-28T10:34:26Z</time>
      </trkpt>
      <trkpt lat="42.8819530" lon="0.3882980">
        <ele>825.0</ele>
        <time>2020-07-28T10:34:32Z</time>
      </trkpt>
      <trkpt lat="42.8817710" lon="0.3884150">
        <ele>825.8</ele>
        <time>2020-07-28T10:34:37Z</time>
      </trkpt>
      <trkpt lat="42.8816240" lon="0.3885100">
        <ele>826.6</ele>
        <time>2020-07-28T10:34:41Z</time>
      </trkpt>
      <trkpt lat="42.8815480" lon="0.3885480">
        <ele>827.0</ele>
        <time>2020-07-28T10:34:43Z</time>
      </trkpt>
      <trkpt lat="42.8812650" lon="0.3886650">
        <ele>827.8</ele>
        <time>2020-07-28T10:34:50Z</time>
      </trkpt>
      <trkpt lat="42.8812250" lon="0.3886820">
        <ele>828.0</ele>
        <time>2020-07-28T10:34:51Z</time>
      </trkpt>
      <trkpt lat="42.8810280" lon="0.3887510">
        <ele>829.0</ele>
        <time>2020-07-28T10:34:56Z</time>
      </trkpt>
      <trkpt lat="42.8808690" lon="0.3887860">
        <ele>829.8</ele>
        <time>2020-07-28T10:35:00Z</time>
      </trkpt>
      <trkpt lat="42.8807900" lon="0.3887980">
        <ele>830.2</ele>
        <time>2020-07-28T10:35:02Z</time>
      </trkpt>
      <trkpt lat="42.8805870" lon="0.3888220">
        <ele>831.2</ele>
        <time>2020-07-28T10:35:07Z</time>
      </trkpt>
      <trkpt lat="42.8805050" lon="0.3888360">
        <ele>831.4</ele>
        <time>2020-07-28T10:35:09Z</time>
      </trkpt>
      <trkpt lat="42.8803030" lon="0.3888650">
        <ele>832.2</ele>
        <time>2020-07-28T10:35:14Z</time>
      </trkpt>
      <trkpt lat="42.8800650" lon="0.3889030">
        <ele>832.8</ele>
        <time>2020-07-28T10:35:20Z</time>
      </trkpt>
      <trkpt lat="42.8799130" lon="0.3889460">
        <ele>833.4</ele>
        <time>2020-07-28T10:35:24Z</time>
      </trkpt>
      <trkpt lat="42.8798010" lon="0.3889970">
        <ele>833.6</ele>
        <time>2020-07-28T10:35:27Z</time>
      </trkpt>
      <trkpt lat="42.8796160" lon="0.3891030">
        <ele>834.2</ele>
        <time>2020-07-28T10:35:32Z</time>
      </trkpt>
      <trkpt lat="42.8795010" lon="0.3891630">
        <ele>834.6</ele>
        <time>2020-07-28T10:35:35Z</time>
      </trkpt>
      <trkpt lat="42.8793470" lon="0.3892450">
        <ele>835.4</ele>
        <time>2020-07-28T10:35:39Z</time>
      </trkpt>
      <trkpt lat="42.8790760" lon="0.3893880">
        <ele>836.4</ele>
        <time>2020-07-28T10:35:46Z</time>
      </trkpt>
      <trkpt lat="42.8788330" lon="0.3894990">
        <ele>837.6</ele>
        <time>2020-07-28T10:35:52Z</time>
      </trkpt>
      <trkpt lat="42.8786950" lon="0.3895400">
        <ele>838.2</ele>
        <time>2020-07-28T10:35:55Z</time>
      </trkpt>
      <trkpt lat="42.8786470" lon="0.3895470">
        <ele>838.4</ele>
        <time>2020-07-28T10:35:56Z</time>
      </trkpt>
      <trkpt lat="42.8785490" lon="0.3895540">
        <ele>838.6</ele>
        <time>2020-07-28T10:35:58Z</time>
      </trkpt>
      <trkpt lat="42.8782930" lon="0.3895220">
        <ele>839.0</ele>
        <time>2020-07-28T10:36:03Z</time>
      </trkpt>
      <trkpt lat="42.8780940" lon="0.3894680">
        <ele>839.2</ele>
        <time>2020-07-28T10:36:07Z</time>
      </trkpt>
      <trkpt lat="42.8780000" lon="0.3894770">
        <ele>839.2</ele>
        <time>2020-07-28T10:36:09Z</time>
      </trkpt>
      <trkpt lat="42.8778300" lon="0.3896320">
        <ele>839.4</ele>
        <time>2020-07-28T10:36:13Z</time>
      </trkpt>
      <trkpt lat="42.8777620" lon="0.3897680">
        <ele>839.4</ele>
        <time>2020-07-28T10:36:15Z</time>
      </trkpt>
      <trkpt lat="42.8776320" lon="0.3900580">
        <ele>839.4</ele>
        <time>2020-07-28T10:36:19Z</time>
      </trkpt>
      <trkpt lat="42.8773400" lon="0.3906670">
        <ele>839.4</ele>
        <time>2020-07-28T10:36:28Z</time>
      </trkpt>
      <trkpt lat="42.8772990" lon="0.3907240">
        <ele>839.4</ele>
        <time>2020-07-28T10:36:29Z</time>
      </trkpt>
      <trkpt lat="42.8771090" lon="0.3908820">
        <ele>839.6</ele>
        <time>2020-07-28T10:36:33Z</time>
      </trkpt>
      <trkpt lat="42.8770060" lon="0.3909090">
        <ele>839.6</ele>
        <time>2020-07-28T10:36:35Z</time>
      </trkpt>
      <trkpt lat="42.8769560" lon="0.3909170">
        <ele>839.8</ele>
        <time>2020-07-28T10:36:36Z</time>
      </trkpt>
      <trkpt lat="42.8768600" lon="0.3909290">
        <ele>840.2</ele>
        <time>2020-07-28T10:36:38Z</time>
      </trkpt>
      <trkpt lat="42.8766360" lon="0.3909610">
        <ele>840.6</ele>
        <time>2020-07-28T10:36:43Z</time>
      </trkpt>
      <trkpt lat="42.8765940" lon="0.3909790">
        <ele>840.8</ele>
        <time>2020-07-28T10:36:44Z</time>
      </trkpt>
      <trkpt lat="42.8765540" lon="0.3910030">
        <ele>841.2</ele>
        <time>2020-07-28T10:36:45Z</time>
      </trkpt>
      <trkpt lat="42.8764430" lon="0.3911030">
        <ele>842.0</ele>
        <time>2020-07-28T10:36:48Z</time>
      </trkpt>
      <trkpt lat="42.8763380" lon="0.3912210">
        <ele>842.6</ele>
        <time>2020-07-28T10:36:51Z</time>
      </trkpt>
      <trkpt lat="42.8762740" lon="0.3913120">
        <ele>843.0</ele>
        <time>2020-07-28T10:36:53Z</time>
      </trkpt>
      <trkpt lat="42.8760800" lon="0.3915850">
        <ele>843.8</ele>
        <time>2020-07-28T10:36:59Z</time>
      </trkpt>
      <trkpt lat="42.8760070" lon="0.3916630">
        <ele>844.2</ele>
        <time>2020-07-28T10:37:01Z</time>
      </trkpt>
      <trkpt lat="42.8757460" lon="0.3919020">
        <ele>844.8</ele>
        <time>2020-07-28T10:37:08Z</time>
      </trkpt>
      <trkpt lat="42.8756360" lon="0.3920000">
        <ele>845.2</ele>
        <time>2020-07-28T10:37:11Z</time>
      </trkpt>
      <trkpt lat="42.8753930" lon="0.3922180">
        <ele>846.6</ele>
        <time>2020-07-28T10:37:18Z</time>
      </trkpt>
      <trkpt lat="42.8753260" lon="0.3922750">
        <ele>847.0</ele>
        <time>2020-07-28T10:37:20Z</time>
      </trkpt>
      <trkpt lat="42.8752280" lon="0.3923540">
        <ele>847.6</ele>
        <time>2020-07-28T10:37:23Z</time>
      </trkpt>
      <trkpt lat="42.8750530" lon="0.3924610">
        <ele>848.4</ele>
        <time>2020-07-28T10:37:28Z</time>
      </trkpt>
      <trkpt lat="42.8749820" lon="0.3924970">
        <ele>848.8</ele>
        <time>2020-07-28T10:37:30Z</time>
      </trkpt>
      <trkpt lat="42.8747500" lon="0.3926110">
        <ele>850.0</ele>
        <time>2020-07-28T10:37:36Z</time>
      </trkpt>
      <trkpt lat="42.8746680" lon="0.3926500">
        <ele>850.6</ele>
        <time>2020-07-28T10:37:38Z</time>
      </trkpt>
      <trkpt lat="42.8746300" lon="0.3926750">
        <ele>851.0</ele>
        <time>2020-07-28T10:37:39Z</time>
      </trkpt>
      <trkpt lat="42.8745930" lon="0.3927010">
        <ele>851.2</ele>
        <time>2020-07-28T10:37:40Z</time>
      </trkpt>
      <trkpt lat="42.8744290" lon="0.3928030">
        <ele>852.2</ele>
        <time>2020-07-28T10:37:44Z</time>
      </trkpt>
      <trkpt lat="42.8742520" lon="0.3928970">
        <ele>852.6</ele>
        <time>2020-07-28T10:37:48Z</time>
      </trkpt>
      <trkpt lat="42.8741200" lon="0.3929710">
        <ele>852.8</ele>
        <time>2020-07-28T10:37:51Z</time>
      </trkpt>
      <trkpt lat="42.8738770" lon="0.3930830">
        <ele>853.6</ele>
        <time>2020-07-28T10:37:56Z</time>
      </trkpt>
      <trkpt lat="42.8737700" lon="0.3931170">
        <ele>853.6</ele>
        <time>2020-07-28T10:37:58Z</time>
      </trkpt>
      <trkpt lat="42.8734340" lon="0.3931750">
        <ele>853.8</ele>
        <time>2020-07-28T10:38:04Z</time>
      </trkpt>
      <trkpt lat="42.8729580" lon="0.3933110">
        <ele>853.8</ele>
        <time>2020-07-28T10:38:12Z</time>
      </trkpt>
      <trkpt lat="42.8724050" lon="0.3934800">
        <ele>853.8</ele>
        <time>2020-07-28T10:38:21Z</time>
      </trkpt>
      <trkpt lat="42.8723430" lon="0.3935010">
        <ele>853.8</ele>
        <time>2020-07-28T10:38:22Z</time>
      </trkpt>
      <trkpt lat="42.8718050" lon="0.3936740">
        <ele>854.0</ele>
        <time>2020-07-28T10:38:31Z</time>
      </trkpt>
      <trkpt lat="42.8716940" lon="0.3937320">
        <ele>854.0</ele>
        <time>2020-07-28T10:38:33Z</time>
      </trkpt>
      <trkpt lat="42.8715950" lon="0.3938280">
        <ele>854.4</ele>
        <time>2020-07-28T10:38:35Z</time>
      </trkpt>
      <trkpt lat="42.8714740" lon="0.3940230">
        <ele>854.8</ele>
        <time>2020-07-28T10:38:38Z</time>
      </trkpt>
      <trkpt lat="42.8714100" lon="0.3941680">
        <ele>855.0</ele>
        <time>2020-07-28T10:38:40Z</time>
      </trkpt>
      <trkpt lat="42.8711710" lon="0.3948310">
        <ele>855.0</ele>
        <time>2020-07-28T10:38:49Z</time>
      </trkpt>
      <trkpt lat="42.8709880" lon="0.3953270">
        <ele>855.2</ele>
        <time>2020-07-28T10:38:56Z</time>
      </trkpt>
      <trkpt lat="42.8708640" lon="0.3956840">
        <ele>856.0</ele>
        <time>2020-07-28T10:39:01Z</time>
      </trkpt>
      <trkpt lat="42.8708110" lon="0.3958200">
        <ele>856.2</ele>
        <time>2020-07-28T10:39:03Z</time>
      </trkpt>
      <trkpt lat="42.8706110" lon="0.3962050">
        <ele>856.4</ele>
        <time>2020-07-28T10:39:09Z</time>
      </trkpt>
      <trkpt lat="42.8705670" lon="0.3962690">
        <ele>856.6</ele>
        <time>2020-07-28T10:39:10Z</time>
      </trkpt>
      <trkpt lat="42.8704220" lon="0.3964040">
        <ele>856.6</ele>
        <time>2020-07-28T10:39:13Z</time>
      </trkpt>
      <trkpt lat="42.8703110" lon="0.3964560">
        <ele>857.0</ele>
        <time>2020-07-28T10:39:15Z</time>
      </trkpt>
      <trkpt lat="42.8701930" lon="0.3964790">
        <ele>857.0</ele>
        <time>2020-07-28T10:39:17Z</time>
      </trkpt>
      <trkpt lat="42.8699540" lon="0.3965000">
        <ele>857.4</ele>
        <time>2020-07-28T10:39:21Z</time>
      </trkpt>
      <trkpt lat="42.8693690" lon="0.3965000">
        <ele>857.6</ele>
        <time>2020-07-28T10:39:31Z</time>
      </trkpt>
      <trkpt lat="42.8692510" lon="0.3964930">
        <ele>857.6</ele>
        <time>2020-07-28T10:39:33Z</time>
      </trkpt>
      <trkpt lat="42.8687290" lon="0.3964400">
        <ele>858.2</ele>
        <time>2020-07-28T10:39:42Z</time>
      </trkpt>
      <trkpt lat="42.8686700" lon="0.3964420">
        <ele>858.4</ele>
        <time>2020-07-28T10:39:43Z</time>
      </trkpt>
      <trkpt lat="42.8683300" lon="0.3965180">
        <ele>859.2</ele>
        <time>2020-07-28T10:39:49Z</time>
      </trkpt>
      <trkpt lat="42.8681700" lon="0.3966040">
        <ele>859.4</ele>
        <time>2020-07-28T10:39:52Z</time>
      </trkpt>
      <trkpt lat="42.8679670" lon="0.3967550">
        <ele>859.6</ele>
        <time>2020-07-28T10:39:56Z</time>
      </trkpt>
      <trkpt lat="42.8676900" lon="0.3970760">
        <ele>859.8</ele>
        <time>2020-07-28T10:40:02Z</time>
      </trkpt>
      <trkpt lat="42.8675640" lon="0.3973820">
        <ele>860.0</ele>
        <time>2020-07-28T10:40:06Z</time>
      </trkpt>
      <trkpt lat="42.8675450" lon="0.3974680">
        <ele>860.0</ele>
        <time>2020-07-28T10:40:07Z</time>
      </trkpt>
      <trkpt lat="42.8674430" lon="0.3981880">
        <ele>860.2</ele>
        <time>2020-07-28T10:40:15Z</time>
      </trkpt>
      <trkpt lat="42.8674070" lon="0.3986320">
        <ele>860.2</ele>
        <time>2020-07-28T10:40:20Z</time>
      </trkpt>
      <trkpt lat="42.8673620" lon="0.3987990">
        <ele>860.2</ele>
        <time>2020-07-28T10:40:22Z</time>
      </trkpt>
      <trkpt lat="42.8672150" lon="0.3990730">
        <ele>860.4</ele>
        <time>2020-07-28T10:40:26Z</time>
      </trkpt>
      <trkpt lat="42.8671230" lon="0.3991730">
        <ele>860.6</ele>
        <time>2020-07-28T10:40:28Z</time>
      </trkpt>
      <trkpt lat="42.8670330" lon="0.3992660">
        <ele>860.6</ele>
        <time>2020-07-28T10:40:30Z</time>
      </trkpt>
      <trkpt lat="42.8668990" lon="0.3994010">
        <ele>860.8</ele>
        <time>2020-07-28T10:40:33Z</time>
      </trkpt>
      <trkpt lat="42.8666270" lon="0.3996360">
        <ele>862.0</ele>
        <time>2020-07-28T10:40:39Z</time>
      </trkpt>
      <trkpt lat="42.8664910" lon="0.3997290">
        <ele>862.6</ele>
        <time>2020-07-28T10:40:42Z</time>
      </trkpt>
      <trkpt lat="42.8662310" lon="0.3999520">
        <ele>863.4</ele>
        <time>2020-07-28T10:40:48Z</time>
      </trkpt>
      <trkpt lat="42.8661520" lon="0.4000400">
        <ele>863.8</ele>
        <time>2020-07-28T10:40:50Z</time>
      </trkpt>
      <trkpt lat="42.8660040" lon="0.4002340">
        <ele>864.4</ele>
        <time>2020-07-28T10:40:54Z</time>
      </trkpt>
      <trkpt lat="42.8658200" lon="0.4005010">
        <ele>865.0</ele>
        <time>2020-07-28T10:40:59Z</time>
      </trkpt>
      <trkpt lat="42.8656670" lon="0.4007180">
        <ele>865.4</ele>
        <time>2020-07-28T10:41:03Z</time>
      </trkpt>
      <trkpt lat="42.8654610" lon="0.4009960">
        <ele>866.0</ele>
        <time>2020-07-28T10:41:08Z</time>
      </trkpt>
      <trkpt lat="42.8653650" lon="0.4010930">
        <ele>866.2</ele>
        <time>2020-07-28T10:41:10Z</time>
      </trkpt>
      <trkpt lat="42.8652010" lon="0.4011920">
        <ele>866.2</ele>
        <time>2020-07-28T10:41:13Z</time>
      </trkpt>
      <trkpt lat="42.8650850" lon="0.4012280">
        <ele>866.4</ele>
        <time>2020-07-28T10:41:15Z</time>
      </trkpt>
      <trkpt lat="42.8649070" lon="0.4012250">
        <ele>866.6</ele>
        <time>2020-07-28T10:41:18Z</time>
      </trkpt>
      <trkpt lat="42.8643840" lon="0.4011980">
        <ele>866.8</ele>
        <time>2020-07-28T10:41:27Z</time>
      </trkpt>
      <trkpt lat="42.8638420" lon="0.4012730">
        <ele>868.0</ele>
        <time>2020-07-28T10:41:36Z</time>
      </trkpt>
      <trkpt lat="42.8637810" lon="0.4012790">
        <ele>868.2</ele>
        <time>2020-07-28T10:41:37Z</time>
      </trkpt>
      <trkpt lat="42.8634140" lon="0.4012520">
        <ele>868.4</ele>
        <time>2020-07-28T10:41:43Z</time>
      </trkpt>
      <trkpt lat="42.8628650" lon="0.4011450">
        <ele>868.8</ele>
        <time>2020-07-28T10:41:52Z</time>
      </trkpt>
      <trkpt lat="42.8626810" lon="0.4011360">
        <ele>869.0</ele>
        <time>2020-07-28T10:41:55Z</time>
      </trkpt>
      <trkpt lat="42.8623730" lon="0.4011420">
        <ele>869.4</ele>
        <time>2020-07-28T10:42:00Z</time>
      </trkpt>
      <trkpt lat="42.8619720" lon="0.4012540">
        <ele>869.8</ele>
        <time>2020-07-28T10:42:07Z</time>
      </trkpt>
      <trkpt lat="42.8617340" lon="0.4014300">
        <ele>870.0</ele>
        <time>2020-07-28T10:42:12Z</time>
      </trkpt>
      <trkpt lat="42.8616910" lon="0.4014740">
        <ele>870.0</ele>
        <time>2020-07-28T10:42:13Z</time>
      </trkpt>
      <trkpt lat="42.8615340" lon="0.4016810">
        <ele>870.8</ele>
        <time>2020-07-28T10:42:17Z</time>
      </trkpt>
      <trkpt lat="42.8614990" lon="0.4017360">
        <ele>871.2</ele>
        <time>2020-07-28T10:42:18Z</time>
      </trkpt>
      <trkpt lat="42.8612850" lon="0.4020780">
        <ele>872.2</ele>
        <time>2020-07-28T10:42:24Z</time>
      </trkpt>
      <trkpt lat="42.8612570" lon="0.4021300">
        <ele>872.2</ele>
        <time>2020-07-28T10:42:25Z</time>
      </trkpt>
      <trkpt lat="42.8611340" lon="0.4023620">
        <ele>872.4</ele>
        <time>2020-07-28T10:42:29Z</time>
      </trkpt>
      <trkpt lat="42.8609910" lon="0.4025770">
        <ele>873.0</ele>
        <time>2020-07-28T10:42:33Z</time>
      </trkpt>
      <trkpt lat="42.8609020" lon="0.4026480">
        <ele>873.2</ele>
        <time>2020-07-28T10:42:35Z</time>
      </trkpt>
      <trkpt lat="42.8608530" lon="0.4026780">
        <ele>873.4</ele>
        <time>2020-07-28T10:42:36Z</time>
      </trkpt>
      <trkpt lat="42.8607010" lon="0.4027380">
        <ele>874.0</ele>
        <time>2020-07-28T10:42:39Z</time>
      </trkpt>
      <trkpt lat="42.8606000" lon="0.4027610">
        <ele>874.2</ele>
        <time>2020-07-28T10:42:41Z</time>
      </trkpt>
      <trkpt lat="42.8605500" lon="0.4027700">
        <ele>874.4</ele>
        <time>2020-07-28T10:42:42Z</time>
      </trkpt>
      <trkpt lat="42.8601850" lon="0.4028270">
        <ele>875.6</ele>
        <time>2020-07-28T10:42:49Z</time>
      </trkpt>
      <trkpt lat="42.8598330" lon="0.4029820">
        <ele>876.2</ele>
        <time>2020-07-28T10:42:56Z</time>
      </trkpt>
      <trkpt lat="42.8597880" lon="0.4030210">
        <ele>876.2</ele>
        <time>2020-07-28T10:42:57Z</time>
      </trkpt>
      <trkpt lat="42.8596690" lon="0.4031580">
        <ele>876.8</ele>
        <time>2020-07-28T10:43:00Z</time>
      </trkpt>
      <trkpt lat="42.8596350" lon="0.4031980">
        <ele>877.0</ele>
        <time>2020-07-28T10:43:01Z</time>
      </trkpt>
      <trkpt lat="42.8594480" lon="0.4034550">
        <ele>877.8</ele>
        <time>2020-07-28T10:43:06Z</time>
      </trkpt>
      <trkpt lat="42.8593210" lon="0.4035930">
        <ele>878.2</ele>
        <time>2020-07-28T10:43:09Z</time>
      </trkpt>
      <trkpt lat="42.8590470" lon="0.4037570">
        <ele>878.8</ele>
        <time>2020-07-28T10:43:15Z</time>
      </trkpt>
      <trkpt lat="42.8590000" lon="0.4037790">
        <ele>879.0</ele>
        <time>2020-07-28T10:43:16Z</time>
      </trkpt>
      <trkpt lat="42.8586190" lon="0.4039250">
        <ele>880.0</ele>
        <time>2020-07-28T10:43:24Z</time>
      </trkpt>
      <trkpt lat="42.8585680" lon="0.4039430">
        <ele>880.2</ele>
        <time>2020-07-28T10:43:25Z</time>
      </trkpt>
      <trkpt lat="42.8582010" lon="0.4040140">
        <ele>881.2</ele>
        <time>2020-07-28T10:43:32Z</time>
      </trkpt>
      <trkpt lat="42.8581490" lon="0.4040200">
        <ele>881.2</ele>
        <time>2020-07-28T10:43:33Z</time>
      </trkpt>
      <trkpt lat="42.8576920" lon="0.4041360">
        <ele>882.2</ele>
        <time>2020-07-28T10:43:42Z</time>
      </trkpt>
      <trkpt lat="42.8573550" lon="0.4042540">
        <ele>883.4</ele>
        <time>2020-07-28T10:43:49Z</time>
      </trkpt>
      <trkpt lat="42.8570160" lon="0.4043220">
        <ele>885.0</ele>
        <time>2020-07-28T10:43:56Z</time>
      </trkpt>
      <trkpt lat="42.8569180" lon="0.4043350">
        <ele>885.6</ele>
        <time>2020-07-28T10:43:58Z</time>
      </trkpt>
      <trkpt lat="42.8567570" lon="0.4043510">
        <ele>886.0</ele>
        <time>2020-07-28T10:44:01Z</time>
      </trkpt>
      <trkpt lat="42.8565840" lon="0.4043560">
        <ele>886.4</ele>
        <time>2020-07-28T10:44:04Z</time>
      </trkpt>
      <trkpt lat="42.8562980" lon="0.4043740">
        <ele>887.2</ele>
        <time>2020-07-28T10:44:09Z</time>
      </trkpt>
      <trkpt lat="42.8560160" lon="0.4044300">
        <ele>887.4</ele>
        <time>2020-07-28T10:44:14Z</time>
      </trkpt>
      <trkpt lat="42.8556280" lon="0.4045910">
        <ele>888.2</ele>
        <time>2020-07-28T10:44:21Z</time>
      </trkpt>
      <trkpt lat="42.8555220" lon="0.4046450">
        <ele>888.4</ele>
        <time>2020-07-28T10:44:23Z</time>
      </trkpt>
      <trkpt lat="42.8551430" lon="0.4048520">
        <ele>889.2</ele>
        <time>2020-07-28T10:44:31Z</time>
      </trkpt>
      <trkpt lat="42.8548820" lon="0.4050100">
        <ele>890.2</ele>
        <time>2020-07-28T10:44:38Z</time>
      </trkpt>
      <trkpt lat="42.8548130" lon="0.4050480">
        <ele>890.8</ele>
        <time>2020-07-28T10:44:40Z</time>
      </trkpt>
      <trkpt lat="42.8547450" lon="0.4050870">
        <ele>891.4</ele>
        <time>2020-07-28T10:44:42Z</time>
      </trkpt>
      <trkpt lat="42.8546040" lon="0.4051760">
        <ele>892.2</ele>
        <time>2020-07-28T10:44:46Z</time>
      </trkpt>
      <trkpt lat="42.8545690" lon="0.4051960">
        <ele>892.6</ele>
        <time>2020-07-28T10:44:47Z</time>
      </trkpt>
      <trkpt lat="42.8544700" lon="0.4052570">
        <ele>893.4</ele>
        <time>2020-07-28T10:44:50Z</time>
      </trkpt>
      <trkpt lat="42.8543720" lon="0.4053410">
        <ele>894.6</ele>
        <time>2020-07-28T10:44:53Z</time>
      </trkpt>
      <trkpt lat="42.8543390" lon="0.4053700">
        <ele>894.8</ele>
        <time>2020-07-28T10:44:54Z</time>
      </trkpt>
      <trkpt lat="42.8542280" lon="0.4055300">
        <ele>895.8</ele>
        <time>2020-07-28T10:44:58Z</time>
      </trkpt>
      <trkpt lat="42.8542020" lon="0.4055790">
        <ele>896.0</ele>
        <time>2020-07-28T10:44:59Z</time>
      </trkpt>
      <trkpt lat="42.8540770" lon="0.4058250">
        <ele>896.8</ele>
        <time>2020-07-28T10:45:04Z</time>
      </trkpt>
      <trkpt lat="42.8540280" lon="0.4059190">
        <ele>897.4</ele>
        <time>2020-07-28T10:45:06Z</time>
      </trkpt>
      <trkpt lat="42.8539370" lon="0.4061140">
        <ele>898.0</ele>
        <time>2020-07-28T10:45:10Z</time>
      </trkpt>
      <trkpt lat="42.8538490" lon="0.4062980">
        <ele>899.0</ele>
        <time>2020-07-28T10:45:14Z</time>
      </trkpt>
      <trkpt lat="42.8538070" lon="0.4063880">
        <ele>899.2</ele>
        <time>2020-07-28T10:45:16Z</time>
      </trkpt>
      <trkpt lat="42.8536870" lon="0.4065900">
        <ele>900.2</ele>
        <time>2020-07-28T10:45:21Z</time>
      </trkpt>
      <trkpt lat="42.8536600" lon="0.4066270">
        <ele>900.4</ele>
        <time>2020-07-28T10:45:22Z</time>
      </trkpt>
      <trkpt lat="42.8534920" lon="0.4068140">
        <ele>901.4</ele>
        <time>2020-07-28T10:45:28Z</time>
      </trkpt>
      <trkpt lat="42.8534290" lon="0.4068640">
        <ele>901.8</ele>
        <time>2020-07-28T10:45:30Z</time>
      </trkpt>
      <trkpt lat="42.8533380" lon="0.4069310">
        <ele>902.4</ele>
        <time>2020-07-28T10:45:33Z</time>
      </trkpt>
      <trkpt lat="42.8532360" lon="0.4069830">
        <ele>902.8</ele>
        <time>2020-07-28T10:45:36Z</time>
      </trkpt>
      <trkpt lat="42.8530930" lon="0.4070350">
        <ele>903.6</ele>
        <time>2020-07-28T10:45:40Z</time>
      </trkpt>
      <trkpt lat="42.8530160" lon="0.4070550">
        <ele>904.2</ele>
        <time>2020-07-28T10:45:42Z</time>
      </trkpt>
      <trkpt lat="42.8529310" lon="0.4070780">
        <ele>904.8</ele>
        <time>2020-07-28T10:45:44Z</time>
      </trkpt>
      <trkpt lat="42.8528860" lon="0.4070850">
        <ele>905.0</ele>
        <time>2020-07-28T10:45:45Z</time>
      </trkpt>
      <trkpt lat="42.8527260" lon="0.4070960">
        <ele>905.2</ele>
        <time>2020-07-28T10:45:48Z</time>
      </trkpt>
      <trkpt lat="42.8526670" lon="0.4070900">
        <ele>905.2</ele>
        <time>2020-07-28T10:45:49Z</time>
      </trkpt>
      <trkpt lat="42.8523390" lon="0.4070500">
        <ele>905.2</ele>
        <time>2020-07-28T10:45:54Z</time>
      </trkpt>
      <trkpt lat="42.8518550" lon="0.4070700">
        <ele>904.4</ele>
        <time>2020-07-28T10:46:01Z</time>
      </trkpt>
      <trkpt lat="42.8516380" lon="0.4071190">
        <ele>903.8</ele>
        <time>2020-07-28T10:46:04Z</time>
      </trkpt>
      <trkpt lat="42.8512720" lon="0.4072340">
        <ele>902.8</ele>
        <time>2020-07-28T10:46:09Z</time>
      </trkpt>
      <trkpt lat="42.8511330" lon="0.4073140">
        <ele>902.8</ele>
        <time>2020-07-28T10:46:11Z</time>
      </trkpt>
      <trkpt lat="42.8509220" lon="0.4074530">
        <ele>902.4</ele>
        <time>2020-07-28T10:46:14Z</time>
      </trkpt>
      <trkpt lat="42.8505190" lon="0.4076570">
        <ele>901.8</ele>
        <time>2020-07-28T10:46:19Z</time>
      </trkpt>
      <trkpt lat="42.8504310" lon="0.4076840">
        <ele>901.8</ele>
        <time>2020-07-28T10:46:20Z</time>
      </trkpt>
      <trkpt lat="42.8500740" lon="0.4078030">
        <ele>901.2</ele>
        <time>2020-07-28T10:46:24Z</time>
      </trkpt>
      <trkpt lat="42.8499910" lon="0.4078570">
        <ele>901.0</ele>
        <time>2020-07-28T10:46:25Z</time>
      </trkpt>
      <trkpt lat="42.8498370" lon="0.4079890">
        <ele>900.6</ele>
        <time>2020-07-28T10:46:27Z</time>
      </trkpt>
      <trkpt lat="42.8497630" lon="0.4080630">
        <ele>900.0</ele>
        <time>2020-07-28T10:46:28Z</time>
      </trkpt>
      <trkpt lat="42.8496200" lon="0.4082080">
        <ele>899.4</ele>
        <time>2020-07-28T10:46:30Z</time>
      </trkpt>
      <trkpt lat="42.8495430" lon="0.4082680">
        <ele>899.2</ele>
        <time>2020-07-28T10:46:31Z</time>
      </trkpt>
      <trkpt lat="42.8493790" lon="0.4083370">
        <ele>899.0</ele>
        <time>2020-07-28T10:46:33Z</time>
      </trkpt>
      <trkpt lat="42.8492150" lon="0.4083610">
        <ele>899.0</ele>
        <time>2020-07-28T10:46:35Z</time>
      </trkpt>
      <trkpt lat="42.8489830" lon="0.4083810">
        <ele>899.0</ele>
        <time>2020-07-28T10:46:38Z</time>
      </trkpt>
      <trkpt lat="42.8486290" lon="0.4084830">
        <ele>899.8</ele>
        <time>2020-07-28T10:46:43Z</time>
      </trkpt>
      <trkpt lat="42.8484920" lon="0.4085300">
        <ele>900.4</ele>
        <time>2020-07-28T10:46:45Z</time>
      </trkpt>
      <trkpt lat="42.8481850" lon="0.4086770">
        <ele>901.2</ele>
        <time>2020-07-28T10:46:50Z</time>
      </trkpt>
      <trkpt lat="42.8481330" lon="0.4087120">
        <ele>901.2</ele>
        <time>2020-07-28T10:46:51Z</time>
      </trkpt>
      <trkpt lat="42.8479060" lon="0.4088790">
        <ele>902.0</ele>
        <time>2020-07-28T10:46:56Z</time>
      </trkpt>
      <trkpt lat="42.8478650" lon="0.4089090">
        <ele>902.4</ele>
        <time>2020-07-28T10:46:57Z</time>
      </trkpt>
      <trkpt lat="42.8477050" lon="0.4090140">
        <ele>903.4</ele>
        <time>2020-07-28T10:47:01Z</time>
      </trkpt>
      <trkpt lat="42.8476230" lon="0.4090690">
        <ele>904.0</ele>
        <time>2020-07-28T10:47:03Z</time>
      </trkpt>
      <trkpt lat="42.8475430" lon="0.4091140">
        <ele>904.4</ele>
        <time>2020-07-28T10:47:05Z</time>
      </trkpt>
      <trkpt lat="42.8473910" lon="0.4092060">
        <ele>905.6</ele>
        <time>2020-07-28T10:47:09Z</time>
      </trkpt>
      <trkpt lat="42.8473520" lon="0.4092320">
        <ele>906.0</ele>
        <time>2020-07-28T10:47:10Z</time>
      </trkpt>
      <trkpt lat="42.8472750" lon="0.4092870">
        <ele>906.8</ele>
        <time>2020-07-28T10:47:12Z</time>
      </trkpt>
      <trkpt lat="42.8471970" lon="0.4093340">
        <ele>907.6</ele>
        <time>2020-07-28T10:47:14Z</time>
      </trkpt>
      <trkpt lat="42.8471580" lon="0.4093470">
        <ele>908.0</ele>
        <time>2020-07-28T10:47:15Z</time>
      </trkpt>
      <trkpt lat="42.8471200" lon="0.4093570">
        <ele>908.2</ele>
        <time>2020-07-28T10:47:16Z</time>
      </trkpt>
      <trkpt lat="42.8469680" lon="0.4093800">
        <ele>909.2</ele>
        <time>2020-07-28T10:47:20Z</time>
      </trkpt>
      <trkpt lat="42.8468490" lon="0.4093720">
        <ele>909.8</ele>
        <time>2020-07-28T10:47:23Z</time>
      </trkpt>
      <trkpt lat="42.8468090" lon="0.4093630">
        <ele>910.2</ele>
        <time>2020-07-28T10:47:24Z</time>
      </trkpt>
      <trkpt lat="42.8467220" lon="0.4093660">
        <ele>910.8</ele>
        <time>2020-07-28T10:47:26Z</time>
      </trkpt>
      <trkpt lat="42.8466050" lon="0.4093570">
        <ele>911.4</ele>
        <time>2020-07-28T10:47:29Z</time>
      </trkpt>
      <trkpt lat="42.8465670" lon="0.4093520">
        <ele>911.6</ele>
        <time>2020-07-28T10:47:30Z</time>
      </trkpt>
      <trkpt lat="42.8463830" lon="0.4093290">
        <ele>912.4</ele>
        <time>2020-07-28T10:47:35Z</time>
      </trkpt>
      <trkpt lat="42.8463460" lon="0.4093290">
        <ele>912.6</ele>
        <time>2020-07-28T10:47:36Z</time>
      </trkpt>
      <trkpt lat="42.8463890" lon="0.4091880">
        <ele>912.6</ele>
        <time>2020-07-28T10:47:37Z</time>
      </trkpt>
      <trkpt lat="42.8463600" lon="0.4091480">
        <ele>913.0</ele>
        <time>2020-07-28T10:47:38Z</time>
      </trkpt>
      <trkpt lat="42.8462850" lon="0.4091370">
        <ele>913.4</ele>
        <time>2020-07-28T10:47:40Z</time>
      </trkpt>
      <trkpt lat="42.8459200" lon="0.4094660">
        <ele>915.6</ele>
        <time>2020-07-28T10:48:59Z</time>
      </trkpt>
      <trkpt lat="42.8459030" lon="0.4094940">
        <ele>915.6</ele>
        <time>2020-07-28T10:49:00Z</time>
      </trkpt>
      <trkpt lat="42.8458640" lon="0.4095440">
        <ele>915.6</ele>
        <time>2020-07-28T10:49:01Z</time>
      </trkpt>
      <trkpt lat="42.8457610" lon="0.4096060">
        <ele>915.6</ele>
        <time>2020-07-28T10:49:03Z</time>
      </trkpt>
      <trkpt lat="42.8455760" lon="0.4095890">
        <ele>915.6</ele>
        <time>2020-07-28T10:49:06Z</time>
      </trkpt>
      <trkpt lat="42.8453660" lon="0.4094490">
        <ele>915.4</ele>
        <time>2020-07-28T10:49:09Z</time>
      </trkpt>
      <trkpt lat="42.8452350" lon="0.4093050">
        <ele>915.2</ele>
        <time>2020-07-28T10:49:11Z</time>
      </trkpt>
      <trkpt lat="42.8451710" lon="0.4092300">
        <ele>914.8</ele>
        <time>2020-07-28T10:49:12Z</time>
      </trkpt>
      <trkpt lat="42.8450280" lon="0.4090790">
        <ele>914.2</ele>
        <time>2020-07-28T10:49:14Z</time>
      </trkpt>
      <trkpt lat="42.8449460" lon="0.4090240">
        <ele>913.8</ele>
        <time>2020-07-28T10:49:15Z</time>
      </trkpt>
      <trkpt lat="42.8448520" lon="0.4090110">
        <ele>913.2</ele>
        <time>2020-07-28T10:49:16Z</time>
      </trkpt>
      <trkpt lat="42.8447510" lon="0.4090340">
        <ele>912.4</ele>
        <time>2020-07-28T10:49:17Z</time>
      </trkpt>
      <trkpt lat="42.8446470" lon="0.4090900">
        <ele>912.0</ele>
        <time>2020-07-28T10:49:18Z</time>
      </trkpt>
      <trkpt lat="42.8443980" lon="0.4093710">
        <ele>911.2</ele>
        <time>2020-07-28T10:49:21Z</time>
      </trkpt>
      <trkpt lat="42.8442730" lon="0.4096000">
        <ele>910.2</ele>
        <time>2020-07-28T10:49:23Z</time>
      </trkpt>
      <trkpt lat="42.8441440" lon="0.4098220">
        <ele>908.4</ele>
        <time>2020-07-28T10:49:25Z</time>
      </trkpt>
      <trkpt lat="42.8440760" lon="0.4099200">
        <ele>907.6</ele>
        <time>2020-07-28T10:49:26Z</time>
      </trkpt>
      <trkpt lat="42.8440080" lon="0.4100120">
        <ele>907.2</ele>
        <time>2020-07-28T10:49:27Z</time>
      </trkpt>
      <trkpt lat="42.8437550" lon="0.4103090">
        <ele>906.4</ele>
        <time>2020-07-28T10:49:31Z</time>
      </trkpt>
      <trkpt lat="42.8434530" lon="0.4106680">
        <ele>906.4</ele>
        <time>2020-07-28T10:49:37Z</time>
      </trkpt>
      <trkpt lat="42.8432300" lon="0.4109450">
        <ele>908.4</ele>
        <time>2020-07-28T10:49:43Z</time>
      </trkpt>
      <trkpt lat="42.8431010" lon="0.4110600">
        <ele>909.6</ele>
        <time>2020-07-28T10:49:47Z</time>
      </trkpt>
      <trkpt lat="42.8430130" lon="0.4111160">
        <ele>911.0</ele>
        <time>2020-07-28T10:49:50Z</time>
      </trkpt>
      <trkpt lat="42.8429470" lon="0.4111640">
        <ele>911.6</ele>
        <time>2020-07-28T10:49:52Z</time>
      </trkpt>
      <trkpt lat="42.8429130" lon="0.4111740">
        <ele>912.0</ele>
        <time>2020-07-28T10:49:53Z</time>
      </trkpt>
      <trkpt lat="42.8428080" lon="0.4112040">
        <ele>913.0</ele>
        <time>2020-07-28T10:49:56Z</time>
      </trkpt>
      <trkpt lat="42.8427700" lon="0.4112120">
        <ele>913.4</ele>
        <time>2020-07-28T10:49:57Z</time>
      </trkpt>
      <trkpt lat="42.8426850" lon="0.4112400">
        <ele>914.2</ele>
        <time>2020-07-28T10:49:59Z</time>
      </trkpt>
      <trkpt lat="42.8425570" lon="0.4112730">
        <ele>915.0</ele>
        <time>2020-07-28T10:50:02Z</time>
      </trkpt>
      <trkpt lat="42.8425140" lon="0.4112850">
        <ele>915.4</ele>
        <time>2020-07-28T10:50:03Z</time>
      </trkpt>
      <trkpt lat="42.8421840" lon="0.4113740">
        <ele>916.2</ele>
        <time>2020-07-28T10:50:11Z</time>
      </trkpt>
      <trkpt lat="42.8420400" lon="0.4114260">
        <ele>916.4</ele>
        <time>2020-07-28T10:50:15Z</time>
      </trkpt>
      <trkpt lat="42.8419370" lon="0.4114620">
        <ele>917.0</ele>
        <time>2020-07-28T10:50:18Z</time>
      </trkpt>
      <trkpt lat="42.8418690" lon="0.4114850">
        <ele>917.6</ele>
        <time>2020-07-28T10:50:20Z</time>
      </trkpt>
      <trkpt lat="42.8417060" lon="0.4114980">
        <ele>918.6</ele>
        <time>2020-07-28T10:50:25Z</time>
      </trkpt>
      <trkpt lat="42.8416740" lon="0.4115010">
        <ele>918.8</ele>
        <time>2020-07-28T10:50:26Z</time>
      </trkpt>
      <trkpt lat="42.8414900" lon="0.4115070">
        <ele>919.8</ele>
        <time>2020-07-28T10:50:32Z</time>
      </trkpt>
      <trkpt lat="42.8413700" lon="0.4115110">
        <ele>920.6</ele>
        <time>2020-07-28T10:50:36Z</time>
      </trkpt>
      <trkpt lat="42.8413390" lon="0.4115180">
        <ele>920.8</ele>
        <time>2020-07-28T10:50:37Z</time>
      </trkpt>
      <trkpt lat="42.8412210" lon="0.4115250">
        <ele>921.4</ele>
        <time>2020-07-28T10:50:41Z</time>
      </trkpt>
      <trkpt lat="42.8411130" lon="0.4115080">
        <ele>922.0</ele>
        <time>2020-07-28T10:50:45Z</time>
      </trkpt>
      <trkpt lat="42.8410480" lon="0.4114960">
        <ele>922.2</ele>
        <time>2020-07-28T10:50:47Z</time>
      </trkpt>
      <trkpt lat="42.8409820" lon="0.4114890">
        <ele>922.6</ele>
        <time>2020-07-28T10:50:49Z</time>
      </trkpt>
      <trkpt lat="42.8409510" lon="0.4114770">
        <ele>923.2</ele>
        <time>2020-07-28T10:50:50Z</time>
      </trkpt>
      <trkpt lat="42.8409200" lon="0.4114700">
        <ele>923.6</ele>
        <time>2020-07-28T10:50:51Z</time>
      </trkpt>
      <trkpt lat="42.8408260" lon="0.4114590">
        <ele>924.0</ele>
        <time>2020-07-28T10:50:54Z</time>
      </trkpt>
      <trkpt lat="42.8407680" lon="0.4114320">
        <ele>924.4</ele>
        <time>2020-07-28T10:50:56Z</time>
      </trkpt>
      <trkpt lat="42.8406300" lon="0.4113550">
        <ele>925.4</ele>
        <time>2020-07-28T10:51:01Z</time>
      </trkpt>
      <trkpt lat="42.8404950" lon="0.4112950">
        <ele>926.4</ele>
        <time>2020-07-28T10:51:06Z</time>
      </trkpt>
      <trkpt lat="42.8404710" lon="0.4112800">
        <ele>926.6</ele>
        <time>2020-07-28T10:51:07Z</time>
      </trkpt>
      <trkpt lat="42.8403910" lon="0.4112480">
        <ele>927.6</ele>
        <time>2020-07-28T10:51:10Z</time>
      </trkpt>
      <trkpt lat="42.8403620" lon="0.4112360">
        <ele>928.0</ele>
        <time>2020-07-28T10:51:11Z</time>
      </trkpt>
      <trkpt lat="42.8402720" lon="0.4112210">
        <ele>929.0</ele>
        <time>2020-07-28T10:51:14Z</time>
      </trkpt>
      <trkpt lat="42.8402400" lon="0.4112190">
        <ele>929.2</ele>
        <time>2020-07-28T10:51:15Z</time>
      </trkpt>
      <trkpt lat="42.8401770" lon="0.4112060">
        <ele>930.0</ele>
        <time>2020-07-28T10:51:17Z</time>
      </trkpt>
      <trkpt lat="42.8400530" lon="0.4111840">
        <ele>931.0</ele>
        <time>2020-07-28T10:51:21Z</time>
      </trkpt>
      <trkpt lat="42.8400220" lon="0.4111800">
        <ele>931.2</ele>
        <time>2020-07-28T10:51:22Z</time>
      </trkpt>
      <trkpt lat="42.8398830" lon="0.4112040">
        <ele>932.4</ele>
        <time>2020-07-28T10:51:27Z</time>
      </trkpt>
      <trkpt lat="42.8397980" lon="0.4112230">
        <ele>933.8</ele>
        <time>2020-07-28T10:51:30Z</time>
      </trkpt>
      <trkpt lat="42.8397270" lon="0.4112400">
        <ele>934.4</ele>
        <time>2020-07-28T10:51:33Z</time>
      </trkpt>
      <trkpt lat="42.8397050" lon="0.4112490">
        <ele>934.8</ele>
        <time>2020-07-28T10:51:34Z</time>
      </trkpt>
      <trkpt lat="42.8396330" lon="0.4112920">
        <ele>936.0</ele>
        <time>2020-07-28T10:51:37Z</time>
      </trkpt>
      <trkpt lat="42.8395460" lon="0.4113470">
        <ele>936.4</ele>
        <time>2020-07-28T10:51:40Z</time>
      </trkpt>
      <trkpt lat="42.8395170" lon="0.4113650">
        <ele>936.8</ele>
        <time>2020-07-28T10:51:41Z</time>
      </trkpt>
      <trkpt lat="42.8394060" lon="0.4114370">
        <ele>937.8</ele>
        <time>2020-07-28T10:51:45Z</time>
      </trkpt>
      <trkpt lat="42.8393810" lon="0.4114540">
        <ele>938.2</ele>
        <time>2020-07-28T10:51:46Z</time>
      </trkpt>
      <trkpt lat="42.8392360" lon="0.4115420">
        <ele>939.0</ele>
        <time>2020-07-28T10:51:51Z</time>
      </trkpt>
      <trkpt lat="42.8392040" lon="0.4115530">
        <ele>939.2</ele>
        <time>2020-07-28T10:51:52Z</time>
      </trkpt>
      <trkpt lat="42.8391700" lon="0.4115780">
        <ele>939.6</ele>
        <time>2020-07-28T10:51:53Z</time>
      </trkpt>
      <trkpt lat="42.8391080" lon="0.4116040">
        <ele>940.0</ele>
        <time>2020-07-28T10:51:55Z</time>
      </trkpt>
      <trkpt lat="42.8390340" lon="0.4116290">
        <ele>940.4</ele>
        <time>2020-07-28T10:51:57Z</time>
      </trkpt>
      <trkpt lat="42.8388650" lon="0.4116940">
        <ele>941.4</ele>
        <time>2020-07-28T10:52:01Z</time>
      </trkpt>
      <trkpt lat="42.8388240" lon="0.4117060">
        <ele>941.6</ele>
        <time>2020-07-28T10:52:02Z</time>
      </trkpt>
      <trkpt lat="42.8385890" lon="0.4117470">
        <ele>942.0</ele>
        <time>2020-07-28T10:52:08Z</time>
      </trkpt>
      <trkpt lat="42.8383550" lon="0.4117780">
        <ele>942.6</ele>
        <time>2020-07-28T10:52:14Z</time>
      </trkpt>
      <trkpt lat="42.8382350" lon="0.4117850">
        <ele>943.0</ele>
        <time>2020-07-28T10:52:17Z</time>
      </trkpt>
      <trkpt lat="42.8380180" lon="0.4117150">
        <ele>943.6</ele>
        <time>2020-07-28T10:52:22Z</time>
      </trkpt>
      <trkpt lat="42.8379770" lon="0.4116960">
        <ele>943.6</ele>
        <time>2020-07-28T10:52:23Z</time>
      </trkpt>
      <trkpt lat="42.8377760" lon="0.4116050">
        <ele>944.0</ele>
        <time>2020-07-28T10:52:28Z</time>
      </trkpt>
      <trkpt lat="42.8377350" lon="0.4115940">
        <ele>944.0</ele>
        <time>2020-07-28T10:52:29Z</time>
      </trkpt>
      <trkpt lat="42.8375740" lon="0.4115890">
        <ele>944.6</ele>
        <time>2020-07-28T10:52:33Z</time>
      </trkpt>
      <trkpt lat="42.8374890" lon="0.4116140">
        <ele>945.0</ele>
        <time>2020-07-28T10:52:35Z</time>
      </trkpt>
      <trkpt lat="42.8372820" lon="0.4117180">
        <ele>945.4</ele>
        <time>2020-07-28T10:52:40Z</time>
      </trkpt>
      <trkpt lat="42.8371590" lon="0.4117980">
        <ele>945.8</ele>
        <time>2020-07-28T10:52:43Z</time>
      </trkpt>
      <trkpt lat="42.8368380" lon="0.4119680">
        <ele>947.0</ele>
        <time>2020-07-28T10:52:51Z</time>
      </trkpt>
      <trkpt lat="42.8368010" lon="0.4119840">
        <ele>947.0</ele>
        <time>2020-07-28T10:52:52Z</time>
      </trkpt>
      <trkpt lat="42.8364080" lon="0.4121460">
        <ele>948.0</ele>
        <time>2020-07-28T10:53:02Z</time>
      </trkpt>
      <trkpt lat="42.8363280" lon="0.4121780">
        <ele>948.0</ele>
        <time>2020-07-28T10:53:04Z</time>
      </trkpt>
      <trkpt lat="42.8359530" lon="0.4123500">
        <ele>948.8</ele>
        <time>2020-07-28T10:53:13Z</time>
      </trkpt>
      <trkpt lat="42.8358610" lon="0.4123940">
        <ele>949.4</ele>
        <time>2020-07-28T10:53:15Z</time>
      </trkpt>
      <trkpt lat="42.8355020" lon="0.4125820">
        <ele>949.8</ele>
        <time>2020-07-28T10:53:23Z</time>
      </trkpt>
      <trkpt lat="42.8352440" lon="0.4127640">
        <ele>950.6</ele>
        <time>2020-07-28T10:53:30Z</time>
      </trkpt>
      <trkpt lat="42.8352090" lon="0.4127880">
        <ele>950.8</ele>
        <time>2020-07-28T10:53:31Z</time>
      </trkpt>
      <trkpt lat="42.8350970" lon="0.4128660">
        <ele>951.6</ele>
        <time>2020-07-28T10:53:34Z</time>
      </trkpt>
      <trkpt lat="42.8349930" lon="0.4129410">
        <ele>952.8</ele>
        <time>2020-07-28T10:53:37Z</time>
      </trkpt>
      <trkpt lat="42.8349580" lon="0.4129600">
        <ele>953.2</ele>
        <time>2020-07-28T10:53:38Z</time>
      </trkpt>
      <trkpt lat="42.8348230" lon="0.4130270">
        <ele>954.0</ele>
        <time>2020-07-28T10:53:42Z</time>
      </trkpt>
      <trkpt lat="42.8347330" lon="0.4130700">
        <ele>954.6</ele>
        <time>2020-07-28T10:53:45Z</time>
      </trkpt>
      <trkpt lat="42.8346710" lon="0.4131040">
        <ele>955.2</ele>
        <time>2020-07-28T10:53:47Z</time>
      </trkpt>
      <trkpt lat="42.8345410" lon="0.4131620">
        <ele>956.8</ele>
        <time>2020-07-28T10:53:51Z</time>
      </trkpt>
      <trkpt lat="42.8344680" lon="0.4131900">
        <ele>957.2</ele>
        <time>2020-07-28T10:53:53Z</time>
      </trkpt>
      <trkpt lat="42.8343150" lon="0.4132460">
        <ele>957.8</ele>
        <time>2020-07-28T10:53:57Z</time>
      </trkpt>
      <trkpt lat="42.8340920" lon="0.4133240">
        <ele>958.2</ele>
        <time>2020-07-28T10:54:03Z</time>
      </trkpt>
      <trkpt lat="42.8339490" lon="0.4133720">
        <ele>958.8</ele>
        <time>2020-07-28T10:54:07Z</time>
      </trkpt>
      <trkpt lat="42.8337370" lon="0.4134450">
        <ele>960.0</ele>
        <time>2020-07-28T10:54:13Z</time>
      </trkpt>
      <trkpt lat="42.8337020" lon="0.4134620">
        <ele>960.2</ele>
        <time>2020-07-28T10:54:14Z</time>
      </trkpt>
      <trkpt lat="42.8334750" lon="0.4135440">
        <ele>961.2</ele>
        <time>2020-07-28T10:54:20Z</time>
      </trkpt>
      <trkpt lat="42.8334370" lon="0.4135590">
        <ele>961.4</ele>
        <time>2020-07-28T10:54:21Z</time>
      </trkpt>
      <trkpt lat="42.8331510" lon="0.4136780">
        <ele>962.4</ele>
        <time>2020-07-28T10:54:28Z</time>
      </trkpt>
      <trkpt lat="42.8331020" lon="0.4136920">
        <ele>962.4</ele>
        <time>2020-07-28T10:54:29Z</time>
      </trkpt>
      <trkpt lat="42.8328220" lon="0.4136830">
        <ele>962.8</ele>
        <time>2020-07-28T10:54:34Z</time>
      </trkpt>
      <trkpt lat="42.8324440" lon="0.4136160">
        <ele>962.8</ele>
        <time>2020-07-28T10:54:39Z</time>
      </trkpt>
      <trkpt lat="42.8318180" lon="0.4134870">
        <ele>961.0</ele>
        <time>2020-07-28T10:54:46Z</time>
      </trkpt>
      <trkpt lat="42.8317240" lon="0.4134650">
        <ele>960.4</ele>
        <time>2020-07-28T10:54:47Z</time>
      </trkpt>
      <trkpt lat="42.8316290" lon="0.4134440">
        <ele>959.6</ele>
        <time>2020-07-28T10:54:48Z</time>
      </trkpt>
      <trkpt lat="42.8313310" lon="0.4133840">
        <ele>958.4</ele>
        <time>2020-07-28T10:54:51Z</time>
      </trkpt>
      <trkpt lat="42.8310270" lon="0.4133170">
        <ele>957.2</ele>
        <time>2020-07-28T10:54:54Z</time>
      </trkpt>
      <trkpt lat="42.8307240" lon="0.4132530">
        <ele>956.2</ele>
        <time>2020-07-28T10:54:57Z</time>
      </trkpt>
      <trkpt lat="42.8303280" lon="0.4131680">
        <ele>955.0</ele>
        <time>2020-07-28T10:55:01Z</time>
      </trkpt>
      <trkpt lat="42.8301360" lon="0.4131230">
        <ele>954.2</ele>
        <time>2020-07-28T10:55:03Z</time>
      </trkpt>
      <trkpt lat="42.8299480" lon="0.4130830">
        <ele>953.6</ele>
        <time>2020-07-28T10:55:05Z</time>
      </trkpt>
      <trkpt lat="42.8295910" lon="0.4130620">
        <ele>953.2</ele>
        <time>2020-07-28T10:55:09Z</time>
      </trkpt>
      <trkpt lat="42.8292120" lon="0.4131490">
        <ele>953.2</ele>
        <time>2020-07-28T10:55:14Z</time>
      </trkpt>
      <trkpt lat="42.8289070" lon="0.4132220">
        <ele>953.8</ele>
        <time>2020-07-28T10:55:19Z</time>
      </trkpt>
      <trkpt lat="42.8287520" lon="0.4132520">
        <ele>955.0</ele>
        <time>2020-07-28T10:55:22Z</time>
      </trkpt>
      <trkpt lat="42.8286150" lon="0.4132820">
        <ele>956.6</ele>
        <time>2020-07-28T10:55:25Z</time>
      </trkpt>
      <trkpt lat="42.8285750" lon="0.4132930">
        <ele>957.2</ele>
        <time>2020-07-28T10:55:26Z</time>
      </trkpt>
      <trkpt lat="42.8285380" lon="0.4133060">
        <ele>957.6</ele>
        <time>2020-07-28T10:55:27Z</time>
      </trkpt>
      <trkpt lat="42.8283970" lon="0.4133460">
        <ele>958.8</ele>
        <time>2020-07-28T10:55:31Z</time>
      </trkpt>
      <trkpt lat="42.8283640" lon="0.4133570">
        <ele>959.0</ele>
        <time>2020-07-28T10:55:32Z</time>
      </trkpt>
      <trkpt lat="42.8283000" lon="0.4133740">
        <ele>959.6</ele>
        <time>2020-07-28T10:55:34Z</time>
      </trkpt>
      <trkpt lat="42.8282650" lon="0.4133810">
        <ele>959.8</ele>
        <time>2020-07-28T10:55:35Z</time>
      </trkpt>
      <trkpt lat="42.8281300" lon="0.4134140">
        <ele>961.0</ele>
        <time>2020-07-28T10:55:39Z</time>
      </trkpt>
      <trkpt lat="42.8279720" lon="0.4134700">
        <ele>962.2</ele>
        <time>2020-07-28T10:55:44Z</time>
      </trkpt>
      <trkpt lat="42.8279240" lon="0.4134760">
        <ele>962.8</ele>
        <time>2020-07-28T10:55:46Z</time>
      </trkpt>
      <trkpt lat="42.8278230" lon="0.4135090">
        <ele>963.4</ele>
        <time>2020-07-28T10:55:50Z</time>
      </trkpt>
      <trkpt lat="42.8277960" lon="0.4135150">
        <ele>963.6</ele>
        <time>2020-07-28T10:55:51Z</time>
      </trkpt>
      <trkpt lat="42.8276950" lon="0.4135520">
        <ele>964.6</ele>
        <time>2020-07-28T10:55:55Z</time>
      </trkpt>
      <trkpt lat="42.8276150" lon="0.4135820">
        <ele>965.4</ele>
        <time>2020-07-28T10:55:58Z</time>
      </trkpt>
      <trkpt lat="42.8275850" lon="0.4135930">
        <ele>965.6</ele>
        <time>2020-07-28T10:55:59Z</time>
      </trkpt>
      <trkpt lat="42.8273810" lon="0.4136930">
        <ele>967.0</ele>
        <time>2020-07-28T10:56:06Z</time>
      </trkpt>
      <trkpt lat="42.8273240" lon="0.4137160">
        <ele>967.4</ele>
        <time>2020-07-28T10:56:08Z</time>
      </trkpt>
      <trkpt lat="42.8272390" lon="0.4137580">
        <ele>968.0</ele>
        <time>2020-07-28T10:56:11Z</time>
      </trkpt>
      <trkpt lat="42.8270960" lon="0.4138190">
        <ele>969.2</ele>
        <time>2020-07-28T10:56:16Z</time>
      </trkpt>
      <trkpt lat="42.8270690" lon="0.4138290">
        <ele>969.4</ele>
        <time>2020-07-28T10:56:17Z</time>
      </trkpt>
      <trkpt lat="42.8269270" lon="0.4138870">
        <ele>970.4</ele>
        <time>2020-07-28T10:56:22Z</time>
      </trkpt>
      <trkpt lat="42.8267880" lon="0.4139280">
        <ele>971.6</ele>
        <time>2020-07-28T10:56:27Z</time>
      </trkpt>
      <trkpt lat="42.8267610" lon="0.4139330">
        <ele>971.8</ele>
        <time>2020-07-28T10:56:28Z</time>
      </trkpt>
      <trkpt lat="42.8266470" lon="0.4139590">
        <ele>972.6</ele>
        <time>2020-07-28T10:56:32Z</time>
      </trkpt>
      <trkpt lat="42.8265420" lon="0.4139840">
        <ele>973.8</ele>
        <time>2020-07-28T10:56:36Z</time>
      </trkpt>
      <trkpt lat="42.8265170" lon="0.4139890">
        <ele>974.0</ele>
        <time>2020-07-28T10:56:37Z</time>
      </trkpt>
      <trkpt lat="42.8264680" lon="0.4139970">
        <ele>974.8</ele>
        <time>2020-07-28T10:56:39Z</time>
      </trkpt>
      <trkpt lat="42.8263610" lon="0.4140010">
        <ele>975.8</ele>
        <time>2020-07-28T10:56:43Z</time>
      </trkpt>
      <trkpt lat="42.8263320" lon="0.4139990">
        <ele>976.0</ele>
        <time>2020-07-28T10:56:44Z</time>
      </trkpt>
      <trkpt lat="42.8261810" lon="0.4139910">
        <ele>977.0</ele>
        <time>2020-07-28T10:56:49Z</time>
      </trkpt>
      <trkpt lat="42.8260770" lon="0.4139950">
        <ele>978.0</ele>
        <time>2020-07-28T10:56:53Z</time>
      </trkpt>
      <trkpt lat="42.8259800" lon="0.4140110">
        <ele>979.0</ele>
        <time>2020-07-28T10:56:57Z</time>
      </trkpt>
      <trkpt lat="42.8258930" lon="0.4140580">
        <ele>980.2</ele>
        <time>2020-07-28T10:57:01Z</time>
      </trkpt>
      <trkpt lat="42.8258190" lon="0.4141830">
        <ele>981.4</ele>
        <time>2020-07-28T10:57:06Z</time>
      </trkpt>
      <trkpt lat="42.8258110" lon="0.4142150">
        <ele>981.8</ele>
        <time>2020-07-28T10:57:07Z</time>
      </trkpt>
      <trkpt lat="42.8257910" lon="0.4143140">
        <ele>982.6</ele>
        <time>2020-07-28T10:57:10Z</time>
      </trkpt>
      <trkpt lat="42.8257510" lon="0.4144850">
        <ele>983.8</ele>
        <time>2020-07-28T10:57:15Z</time>
      </trkpt>
      <trkpt lat="42.8257300" lon="0.4145500">
        <ele>984.4</ele>
        <time>2020-07-28T10:57:17Z</time>
      </trkpt>
      <trkpt lat="42.8256670" lon="0.4146620">
        <ele>984.8</ele>
        <time>2020-07-28T10:57:21Z</time>
      </trkpt>
      <trkpt lat="42.8256050" lon="0.4147270">
        <ele>985.2</ele>
        <time>2020-07-28T10:57:24Z</time>
      </trkpt>
      <trkpt lat="42.8255370" lon="0.4147800">
        <ele>986.0</ele>
        <time>2020-07-28T10:57:27Z</time>
      </trkpt>
      <trkpt lat="42.8254500" lon="0.4148490">
        <ele>987.0</ele>
        <time>2020-07-28T10:57:31Z</time>
      </trkpt>
      <trkpt lat="42.8253890" lon="0.4149040">
        <ele>987.6</ele>
        <time>2020-07-28T10:57:34Z</time>
      </trkpt>
      <trkpt lat="42.8253480" lon="0.4149400">
        <ele>988.0</ele>
        <time>2020-07-28T10:57:36Z</time>
      </trkpt>
      <trkpt lat="42.8252790" lon="0.4149860">
        <ele>989.2</ele>
        <time>2020-07-28T10:57:39Z</time>
      </trkpt>
      <trkpt lat="42.8252310" lon="0.4150170">
        <ele>989.6</ele>
        <time>2020-07-28T10:57:41Z</time>
      </trkpt>
      <trkpt lat="42.8251620" lon="0.4150340">
        <ele>990.4</ele>
        <time>2020-07-28T10:57:44Z</time>
      </trkpt>
      <trkpt lat="42.8251130" lon="0.4150170">
        <ele>990.8</ele>
        <time>2020-07-28T10:57:46Z</time>
      </trkpt>
      <trkpt lat="42.8250490" lon="0.4149640">
        <ele>991.4</ele>
        <time>2020-07-28T10:57:49Z</time>
      </trkpt>
      <trkpt lat="42.8249710" lon="0.4148730">
        <ele>992.6</ele>
        <time>2020-07-28T10:57:53Z</time>
      </trkpt>
      <trkpt lat="42.8248710" lon="0.4147630">
        <ele>993.6</ele>
        <time>2020-07-28T10:57:58Z</time>
      </trkpt>
      <trkpt lat="42.8248020" lon="0.4147010">
        <ele>994.2</ele>
        <time>2020-07-28T10:58:01Z</time>
      </trkpt>
      <trkpt lat="42.8247540" lon="0.4146830">
        <ele>994.8</ele>
        <time>2020-07-28T10:58:03Z</time>
      </trkpt>
      <trkpt lat="42.8246770" lon="0.4146740">
        <ele>995.8</ele>
        <time>2020-07-28T10:58:06Z</time>
      </trkpt>
      <trkpt lat="42.8245760" lon="0.4146720">
        <ele>997.2</ele>
        <time>2020-07-28T10:58:10Z</time>
      </trkpt>
      <trkpt lat="42.8244750" lon="0.4146860">
        <ele>998.0</ele>
        <time>2020-07-28T10:58:14Z</time>
      </trkpt>
      <trkpt lat="42.8244250" lon="0.4146920">
        <ele>998.2</ele>
        <time>2020-07-28T10:58:16Z</time>
      </trkpt>
      <trkpt lat="42.8242740" lon="0.4147000">
        <ele>999.4</ele>
        <time>2020-07-28T10:58:22Z</time>
      </trkpt>
      <trkpt lat="42.8242230" lon="0.4147000">
        <ele>999.8</ele>
        <time>2020-07-28T10:58:24Z</time>
      </trkpt>
      <trkpt lat="42.8241450" lon="0.4147090">
        <ele>1000.6</ele>
        <time>2020-07-28T10:58:27Z</time>
      </trkpt>
      <trkpt lat="42.8240190" lon="0.4147450">
        <ele>1001.6</ele>
        <time>2020-07-28T10:58:32Z</time>
      </trkpt>
      <trkpt lat="42.8239950" lon="0.4147610">
        <ele>1002.2</ele>
        <time>2020-07-28T10:58:33Z</time>
      </trkpt>
      <trkpt lat="42.8239250" lon="0.4148090">
        <ele>1002.8</ele>
        <time>2020-07-28T10:58:36Z</time>
      </trkpt>
      <trkpt lat="42.8238570" lon="0.4148540">
        <ele>1003.8</ele>
        <time>2020-07-28T10:58:39Z</time>
      </trkpt>
      <trkpt lat="42.8237680" lon="0.4149270">
        <ele>1004.6</ele>
        <time>2020-07-28T10:58:43Z</time>
      </trkpt>
      <trkpt lat="42.8237480" lon="0.4149510">
        <ele>1005.2</ele>
        <time>2020-07-28T10:58:44Z</time>
      </trkpt>
      <trkpt lat="42.8236510" lon="0.4150790">
        <ele>1006.2</ele>
        <time>2020-07-28T10:58:49Z</time>
      </trkpt>
      <trkpt lat="42.8235970" lon="0.4151600">
        <ele>1007.0</ele>
        <time>2020-07-28T10:58:52Z</time>
      </trkpt>
      <trkpt lat="42.8235810" lon="0.4151890">
        <ele>1007.4</ele>
        <time>2020-07-28T10:58:53Z</time>
      </trkpt>
      <trkpt lat="42.8235130" lon="0.4152970">
        <ele>1008.4</ele>
        <time>2020-07-28T10:58:57Z</time>
      </trkpt>
      <trkpt lat="42.8234460" lon="0.4154060">
        <ele>1008.8</ele>
        <time>2020-07-28T10:59:01Z</time>
      </trkpt>
      <trkpt lat="42.8234150" lon="0.4154620">
        <ele>1009.4</ele>
        <time>2020-07-28T10:59:03Z</time>
      </trkpt>
      <trkpt lat="42.8233280" lon="0.4155980">
        <ele>1010.4</ele>
        <time>2020-07-28T10:59:08Z</time>
      </trkpt>
      <trkpt lat="42.8233100" lon="0.4156250">
        <ele>1010.6</ele>
        <time>2020-07-28T10:59:09Z</time>
      </trkpt>
      <trkpt lat="42.8232320" lon="0.4157250">
        <ele>1011.8</ele>
        <time>2020-07-28T10:59:13Z</time>
      </trkpt>
      <trkpt lat="42.8231500" lon="0.4158070">
        <ele>1012.4</ele>
        <time>2020-07-28T10:59:17Z</time>
      </trkpt>
      <trkpt lat="42.8231030" lon="0.4158390">
        <ele>1012.8</ele>
        <time>2020-07-28T10:59:19Z</time>
      </trkpt>
      <trkpt lat="42.8230170" lon="0.4158790">
        <ele>1014.0</ele>
        <time>2020-07-28T10:59:23Z</time>
      </trkpt>
      <trkpt lat="42.8229960" lon="0.4158930">
        <ele>1014.4</ele>
        <time>2020-07-28T10:59:24Z</time>
      </trkpt>
      <trkpt lat="42.8229320" lon="0.4159440">
        <ele>1015.2</ele>
        <time>2020-07-28T10:59:27Z</time>
      </trkpt>
      <trkpt lat="42.8228740" lon="0.4159890">
        <ele>1016.2</ele>
        <time>2020-07-28T10:59:30Z</time>
      </trkpt>
      <trkpt lat="42.8227670" lon="0.4160460">
        <ele>1017.4</ele>
        <time>2020-07-28T10:59:35Z</time>
      </trkpt>
      <trkpt lat="42.8226850" lon="0.4161050">
        <ele>1018.4</ele>
        <time>2020-07-28T10:59:39Z</time>
      </trkpt>
      <trkpt lat="42.8226640" lon="0.4161210">
        <ele>1018.6</ele>
        <time>2020-07-28T10:59:40Z</time>
      </trkpt>
      <trkpt lat="42.8224970" lon="0.4162560">
        <ele>1019.8</ele>
        <time>2020-07-28T10:59:47Z</time>
      </trkpt>
      <trkpt lat="42.8223820" lon="0.4163310">
        <ele>1021.0</ele>
        <time>2020-07-28T10:59:52Z</time>
      </trkpt>
      <trkpt lat="42.8223140" lon="0.4163830">
        <ele>1021.6</ele>
        <time>2020-07-28T10:59:55Z</time>
      </trkpt>
      <trkpt lat="42.8222660" lon="0.4164190">
        <ele>1022.2</ele>
        <time>2020-07-28T10:59:57Z</time>
      </trkpt>
      <trkpt lat="42.8221980" lon="0.4164740">
        <ele>1023.2</ele>
        <time>2020-07-28T11:00:00Z</time>
      </trkpt>
      <trkpt lat="42.8221010" lon="0.4165370">
        <ele>1024.2</ele>
        <time>2020-07-28T11:00:04Z</time>
      </trkpt>
      <trkpt lat="42.8220760" lon="0.4165490">
        <ele>1024.4</ele>
        <time>2020-07-28T11:00:05Z</time>
      </trkpt>
      <trkpt lat="42.8219540" lon="0.4166200">
        <ele>1025.4</ele>
        <time>2020-07-28T11:00:10Z</time>
      </trkpt>
      <trkpt lat="42.8219090" lon="0.4166580">
        <ele>1025.8</ele>
        <time>2020-07-28T11:00:12Z</time>
      </trkpt>
      <trkpt lat="42.8218150" lon="0.4167150">
        <ele>1026.6</ele>
        <time>2020-07-28T11:00:16Z</time>
      </trkpt>
      <trkpt lat="42.8217230" lon="0.4167800">
        <ele>1027.4</ele>
        <time>2020-07-28T11:00:20Z</time>
      </trkpt>
      <trkpt lat="42.8217010" lon="0.4167970">
        <ele>1027.6</ele>
        <time>2020-07-28T11:00:21Z</time>
      </trkpt>
      <trkpt lat="42.8215690" lon="0.4168810">
        <ele>1029.0</ele>
        <time>2020-07-28T11:00:27Z</time>
      </trkpt>
      <trkpt lat="42.8215220" lon="0.4169100">
        <ele>1029.4</ele>
        <time>2020-07-28T11:00:29Z</time>
      </trkpt>
      <trkpt lat="42.8214530" lon="0.4169530">
        <ele>1030.0</ele>
        <time>2020-07-28T11:00:32Z</time>
      </trkpt>
      <trkpt lat="42.8213260" lon="0.4170520">
        <ele>1031.4</ele>
        <time>2020-07-28T11:00:38Z</time>
      </trkpt>
      <trkpt lat="42.8213040" lon="0.4170680">
        <ele>1031.6</ele>
        <time>2020-07-28T11:00:39Z</time>
      </trkpt>
      <trkpt lat="42.8212200" lon="0.4171250">
        <ele>1032.6</ele>
        <time>2020-07-28T11:00:43Z</time>
      </trkpt>
      <trkpt lat="42.8211260" lon="0.4171770">
        <ele>1033.6</ele>
        <time>2020-07-28T11:00:47Z</time>
      </trkpt>
      <trkpt lat="42.8211020" lon="0.4171880">
        <ele>1033.8</ele>
        <time>2020-07-28T11:00:48Z</time>
      </trkpt>
      <trkpt lat="42.8210090" lon="0.4172420">
        <ele>1034.6</ele>
        <time>2020-07-28T11:00:52Z</time>
      </trkpt>
      <trkpt lat="42.8208830" lon="0.4173190">
        <ele>1035.8</ele>
        <time>2020-07-28T11:00:57Z</time>
      </trkpt>
      <trkpt lat="42.8208590" lon="0.4173320">
        <ele>1036.2</ele>
        <time>2020-07-28T11:00:58Z</time>
      </trkpt>
      <trkpt lat="42.8207620" lon="0.4173810">
        <ele>1037.0</ele>
        <time>2020-07-28T11:01:02Z</time>
      </trkpt>
      <trkpt lat="42.8206410" lon="0.4174410">
        <ele>1038.2</ele>
        <time>2020-07-28T11:01:07Z</time>
      </trkpt>
      <trkpt lat="42.8204970" lon="0.4175210">
        <ele>1039.4</ele>
        <time>2020-07-28T11:01:13Z</time>
      </trkpt>
      <trkpt lat="42.8204280" lon="0.4175730">
        <ele>1040.0</ele>
        <time>2020-07-28T11:01:16Z</time>
      </trkpt>
      <trkpt lat="42.8203630" lon="0.4176310">
        <ele>1040.6</ele>
        <time>2020-07-28T11:01:19Z</time>
      </trkpt>
      <trkpt lat="42.8202760" lon="0.4177180">
        <ele>1042.0</ele>
        <time>2020-07-28T11:01:23Z</time>
      </trkpt>
      <trkpt lat="42.8202060" lon="0.4177740">
        <ele>1042.6</ele>
        <time>2020-07-28T11:01:26Z</time>
      </trkpt>
      <trkpt lat="42.8201590" lon="0.4178100">
        <ele>1043.0</ele>
        <time>2020-07-28T11:01:28Z</time>
      </trkpt>
      <trkpt lat="42.8200420" lon="0.4179100">
        <ele>1044.0</ele>
        <time>2020-07-28T11:01:33Z</time>
      </trkpt>
      <trkpt lat="42.8200170" lon="0.4179310">
        <ele>1044.2</ele>
        <time>2020-07-28T11:01:34Z</time>
      </trkpt>
      <trkpt lat="42.8199000" lon="0.4180100">
        <ele>1045.4</ele>
        <time>2020-07-28T11:01:39Z</time>
      </trkpt>
      <trkpt lat="42.8198530" lon="0.4180400">
        <ele>1046.0</ele>
        <time>2020-07-28T11:01:41Z</time>
      </trkpt>
      <trkpt lat="42.8197830" lon="0.4180850">
        <ele>1046.4</ele>
        <time>2020-07-28T11:01:44Z</time>
      </trkpt>
      <trkpt lat="42.8196660" lon="0.4181600">
        <ele>1047.6</ele>
        <time>2020-07-28T11:01:49Z</time>
      </trkpt>
      <trkpt lat="42.8195670" lon="0.4182300">
        <ele>1048.6</ele>
        <time>2020-07-28T11:01:53Z</time>
      </trkpt>
      <trkpt lat="42.8194880" lon="0.4182940">
        <ele>1049.4</ele>
        <time>2020-07-28T11:01:56Z</time>
      </trkpt>
      <trkpt lat="42.8194610" lon="0.4183150">
        <ele>1049.8</ele>
        <time>2020-07-28T11:01:57Z</time>
      </trkpt>
      <trkpt lat="42.8193360" lon="0.4184380">
        <ele>1050.8</ele>
        <time>2020-07-28T11:02:02Z</time>
      </trkpt>
      <trkpt lat="42.8193150" lon="0.4184670">
        <ele>1051.0</ele>
        <time>2020-07-28T11:02:03Z</time>
      </trkpt>
      <trkpt lat="42.8192320" lon="0.4185750">
        <ele>1052.2</ele>
        <time>2020-07-28T11:02:07Z</time>
      </trkpt>
      <trkpt lat="42.8191230" lon="0.4186980">
        <ele>1053.2</ele>
        <time>2020-07-28T11:02:12Z</time>
      </trkpt>
      <trkpt lat="42.8190320" lon="0.4187810">
        <ele>1054.2</ele>
        <time>2020-07-28T11:02:16Z</time>
      </trkpt>
      <trkpt lat="42.8189330" lon="0.4188430">
        <ele>1055.0</ele>
        <time>2020-07-28T11:02:20Z</time>
      </trkpt>
      <trkpt lat="42.8189080" lon="0.4188550">
        <ele>1055.2</ele>
        <time>2020-07-28T11:02:21Z</time>
      </trkpt>
      <trkpt lat="42.8187860" lon="0.4189270">
        <ele>1056.4</ele>
        <time>2020-07-28T11:02:26Z</time>
      </trkpt>
      <trkpt lat="42.8187380" lon="0.4189530">
        <ele>1056.8</ele>
        <time>2020-07-28T11:02:28Z</time>
      </trkpt>
      <trkpt lat="42.8186620" lon="0.4189920">
        <ele>1057.4</ele>
        <time>2020-07-28T11:02:31Z</time>
      </trkpt>
      <trkpt lat="42.8185390" lon="0.4190490">
        <ele>1058.6</ele>
        <time>2020-07-28T11:02:36Z</time>
      </trkpt>
      <trkpt lat="42.8184430" lon="0.4190870">
        <ele>1059.6</ele>
        <time>2020-07-28T11:02:40Z</time>
      </trkpt>
      <trkpt lat="42.8183550" lon="0.4191230">
        <ele>1060.8</ele>
        <time>2020-07-28T11:02:44Z</time>
      </trkpt>
      <trkpt lat="42.8182610" lon="0.4191560">
        <ele>1061.8</ele>
        <time>2020-07-28T11:02:48Z</time>
      </trkpt>
      <trkpt lat="42.8182130" lon="0.4191770">
        <ele>1062.2</ele>
        <time>2020-07-28T11:02:50Z</time>
      </trkpt>
      <trkpt lat="42.8181360" lon="0.4192070">
        <ele>1062.8</ele>
        <time>2020-07-28T11:02:53Z</time>
      </trkpt>
      <trkpt lat="42.8180340" lon="0.4192520">
        <ele>1063.8</ele>
        <time>2020-07-28T11:02:57Z</time>
      </trkpt>
      <trkpt lat="42.8180080" lon="0.4192650">
        <ele>1064.2</ele>
        <time>2020-07-28T11:02:58Z</time>
      </trkpt>
      <trkpt lat="42.8178890" lon="0.4193110">
        <ele>1065.2</ele>
        <time>2020-07-28T11:03:03Z</time>
      </trkpt>
      <trkpt lat="42.8178420" lon="0.4193280">
        <ele>1065.8</ele>
        <time>2020-07-28T11:03:05Z</time>
      </trkpt>
      <trkpt lat="42.8177710" lon="0.4193650">
        <ele>1066.4</ele>
        <time>2020-07-28T11:03:08Z</time>
      </trkpt>
      <trkpt lat="42.8176790" lon="0.4194140">
        <ele>1067.4</ele>
        <time>2020-07-28T11:03:12Z</time>
      </trkpt>
      <trkpt lat="42.8176540" lon="0.4194260">
        <ele>1067.8</ele>
        <time>2020-07-28T11:03:13Z</time>
      </trkpt>
      <trkpt lat="42.8175750" lon="0.4194600">
        <ele>1068.6</ele>
        <time>2020-07-28T11:03:16Z</time>
      </trkpt>
      <trkpt lat="42.8174720" lon="0.4195010">
        <ele>1069.6</ele>
        <time>2020-07-28T11:03:20Z</time>
      </trkpt>
      <trkpt lat="42.8174440" lon="0.4195120">
        <ele>1069.8</ele>
        <time>2020-07-28T11:03:21Z</time>
      </trkpt>
      <trkpt lat="42.8173070" lon="0.4195880">
        <ele>1070.8</ele>
        <time>2020-07-28T11:03:26Z</time>
      </trkpt>
      <trkpt lat="42.8172510" lon="0.4196190">
        <ele>1071.4</ele>
        <time>2020-07-28T11:03:28Z</time>
      </trkpt>
      <trkpt lat="42.8171940" lon="0.4196470">
        <ele>1072.0</ele>
        <time>2020-07-28T11:03:30Z</time>
      </trkpt>
      <trkpt lat="42.8170240" lon="0.4197260">
        <ele>1073.0</ele>
        <time>2020-07-28T11:03:36Z</time>
      </trkpt>
      <trkpt lat="42.8169020" lon="0.4198040">
        <ele>1074.4</ele>
        <time>2020-07-28T11:03:41Z</time>
      </trkpt>
      <trkpt lat="42.8168560" lon="0.4198380">
        <ele>1074.6</ele>
        <time>2020-07-28T11:03:43Z</time>
      </trkpt>
      <trkpt lat="42.8167850" lon="0.4198930">
        <ele>1075.4</ele>
        <time>2020-07-28T11:03:46Z</time>
      </trkpt>
      <trkpt lat="42.8167000" lon="0.4199690">
        <ele>1076.6</ele>
        <time>2020-07-28T11:03:50Z</time>
      </trkpt>
      <trkpt lat="42.8166820" lon="0.4199870">
        <ele>1076.8</ele>
        <time>2020-07-28T11:03:51Z</time>
      </trkpt>
      <trkpt lat="42.8166050" lon="0.4200500">
        <ele>1077.8</ele>
        <time>2020-07-28T11:03:55Z</time>
      </trkpt>
      <trkpt lat="42.8165640" lon="0.4201010">
        <ele>1078.2</ele>
        <time>2020-07-28T11:03:57Z</time>
      </trkpt>
      <trkpt lat="42.8165050" lon="0.4201580">
        <ele>1078.8</ele>
        <time>2020-07-28T11:04:00Z</time>
      </trkpt>
      <trkpt lat="42.8164460" lon="0.4202070">
        <ele>1079.4</ele>
        <time>2020-07-28T11:04:03Z</time>
      </trkpt>
      <trkpt lat="42.8164050" lon="0.4202500">
        <ele>1079.8</ele>
        <time>2020-07-28T11:04:05Z</time>
      </trkpt>
      <trkpt lat="42.8162810" lon="0.4203910">
        <ele>1081.0</ele>
        <time>2020-07-28T11:04:11Z</time>
      </trkpt>
      <trkpt lat="42.8162040" lon="0.4204900">
        <ele>1082.2</ele>
        <time>2020-07-28T11:04:15Z</time>
      </trkpt>
      <trkpt lat="42.8161040" lon="0.4206090">
        <ele>1083.4</ele>
        <time>2020-07-28T11:04:20Z</time>
      </trkpt>
      <trkpt lat="42.8160070" lon="0.4207250">
        <ele>1084.6</ele>
        <time>2020-07-28T11:04:25Z</time>
      </trkpt>
      <trkpt lat="42.8159140" lon="0.4207880">
        <ele>1085.0</ele>
        <time>2020-07-28T11:04:29Z</time>
      </trkpt>
      <trkpt lat="42.8158510" lon="0.4208160">
        <ele>1085.6</ele>
        <time>2020-07-28T11:04:32Z</time>
      </trkpt>
      <trkpt lat="42.8157640" lon="0.4208450">
        <ele>1086.6</ele>
        <time>2020-07-28T11:04:36Z</time>
      </trkpt>
      <trkpt lat="42.8157400" lon="0.4208550">
        <ele>1086.8</ele>
        <time>2020-07-28T11:04:37Z</time>
      </trkpt>
      <trkpt lat="42.8156490" lon="0.4208880">
        <ele>1088.0</ele>
        <time>2020-07-28T11:04:41Z</time>
      </trkpt>
      <trkpt lat="42.8155790" lon="0.4209070">
        <ele>1088.6</ele>
        <time>2020-07-28T11:04:44Z</time>
      </trkpt>
      <trkpt lat="42.8155270" lon="0.4209300">
        <ele>1089.2</ele>
        <time>2020-07-28T11:04:46Z</time>
      </trkpt>
      <trkpt lat="42.8154080" lon="0.4209850">
        <ele>1090.2</ele>
        <time>2020-07-28T11:04:51Z</time>
      </trkpt>
      <trkpt lat="42.8152770" lon="0.4210470">
        <ele>1091.4</ele>
        <time>2020-07-28T11:04:56Z</time>
      </trkpt>
      <trkpt lat="42.8151530" lon="0.4211150">
        <ele>1092.2</ele>
        <time>2020-07-28T11:05:01Z</time>
      </trkpt>
      <trkpt lat="42.8151290" lon="0.4211290">
        <ele>1092.4</ele>
        <time>2020-07-28T11:05:02Z</time>
      </trkpt>
      <trkpt lat="42.8150040" lon="0.4211990">
        <ele>1093.6</ele>
        <time>2020-07-28T11:05:07Z</time>
      </trkpt>
      <trkpt lat="42.8149530" lon="0.4212220">
        <ele>1094.4</ele>
        <time>2020-07-28T11:05:09Z</time>
      </trkpt>
      <trkpt lat="42.8149290" lon="0.4212320">
        <ele>1094.6</ele>
        <time>2020-07-28T11:05:10Z</time>
      </trkpt>
      <trkpt lat="42.8149060" lon="0.4212420">
        <ele>1094.8</ele>
        <time>2020-07-28T11:05:11Z</time>
      </trkpt>
      <trkpt lat="42.8147920" lon="0.4213070">
        <ele>1095.8</ele>
        <time>2020-07-28T11:05:16Z</time>
      </trkpt>
      <trkpt lat="42.8147460" lon="0.4213370">
        <ele>1096.4</ele>
        <time>2020-07-28T11:05:18Z</time>
      </trkpt>
      <trkpt lat="42.8146760" lon="0.4213870">
        <ele>1097.0</ele>
        <time>2020-07-28T11:05:21Z</time>
      </trkpt>
      <trkpt lat="42.8145580" lon="0.4214840">
        <ele>1098.2</ele>
        <time>2020-07-28T11:05:26Z</time>
      </trkpt>
      <trkpt lat="42.8144920" lon="0.4215470">
        <ele>1098.8</ele>
        <time>2020-07-28T11:05:29Z</time>
      </trkpt>
      <trkpt lat="42.8144500" lon="0.4215880">
        <ele>1099.2</ele>
        <time>2020-07-28T11:05:31Z</time>
      </trkpt>
      <trkpt lat="42.8143340" lon="0.4217340">
        <ele>1100.6</ele>
        <time>2020-07-28T11:05:37Z</time>
      </trkpt>
      <trkpt lat="42.8143140" lon="0.4217560">
        <ele>1100.8</ele>
        <time>2020-07-28T11:05:38Z</time>
      </trkpt>
      <trkpt lat="42.8142470" lon="0.4218590">
        <ele>1101.6</ele>
        <time>2020-07-28T11:05:42Z</time>
      </trkpt>
      <trkpt lat="42.8142020" lon="0.4219290">
        <ele>1102.4</ele>
        <time>2020-07-28T11:05:45Z</time>
      </trkpt>
      <trkpt lat="42.8141670" lon="0.4219760">
        <ele>1102.8</ele>
        <time>2020-07-28T11:05:47Z</time>
      </trkpt>
      <trkpt lat="42.8140830" lon="0.4221310">
        <ele>1104.0</ele>
        <time>2020-07-28T11:05:53Z</time>
      </trkpt>
      <trkpt lat="42.8140550" lon="0.4221880">
        <ele>1104.4</ele>
        <time>2020-07-28T11:05:55Z</time>
      </trkpt>
      <trkpt lat="42.8140140" lon="0.4222780">
        <ele>1105.0</ele>
        <time>2020-07-28T11:05:58Z</time>
      </trkpt>
      <trkpt lat="42.8139590" lon="0.4223900">
        <ele>1105.8</ele>
        <time>2020-07-28T11:06:02Z</time>
      </trkpt>
      <trkpt lat="42.8139310" lon="0.4224470">
        <ele>1106.2</ele>
        <time>2020-07-28T11:06:04Z</time>
      </trkpt>
      <trkpt lat="42.8138790" lon="0.4225630">
        <ele>1107.4</ele>
        <time>2020-07-28T11:06:08Z</time>
      </trkpt>
      <trkpt lat="42.8138520" lon="0.4226220">
        <ele>1108.0</ele>
        <time>2020-07-28T11:06:10Z</time>
      </trkpt>
      <trkpt lat="42.8138210" lon="0.4226820">
        <ele>1108.4</ele>
        <time>2020-07-28T11:06:12Z</time>
      </trkpt>
      <trkpt lat="42.8137650" lon="0.4228080">
        <ele>1109.4</ele>
        <time>2020-07-28T11:06:16Z</time>
      </trkpt>
      <trkpt lat="42.8137120" lon="0.4229290">
        <ele>1110.4</ele>
        <time>2020-07-28T11:06:20Z</time>
      </trkpt>
      <trkpt lat="42.8136400" lon="0.4230720">
        <ele>1111.4</ele>
        <time>2020-07-28T11:06:25Z</time>
      </trkpt>
      <trkpt lat="42.8135660" lon="0.4232130">
        <ele>1112.4</ele>
        <time>2020-07-28T11:06:30Z</time>
      </trkpt>
      <trkpt lat="42.8134930" lon="0.4233480">
        <ele>1113.6</ele>
        <time>2020-07-28T11:06:35Z</time>
      </trkpt>
      <trkpt lat="42.8134400" lon="0.4234220">
        <ele>1114.4</ele>
        <time>2020-07-28T11:06:38Z</time>
      </trkpt>
      <trkpt lat="42.8133990" lon="0.4234620">
        <ele>1115.0</ele>
        <time>2020-07-28T11:06:40Z</time>
      </trkpt>
      <trkpt lat="42.8132850" lon="0.4235380">
        <ele>1116.0</ele>
        <time>2020-07-28T11:06:45Z</time>
      </trkpt>
      <trkpt lat="42.8132620" lon="0.4235480">
        <ele>1116.2</ele>
        <time>2020-07-28T11:06:46Z</time>
      </trkpt>
      <trkpt lat="42.8131410" lon="0.4235580">
        <ele>1117.4</ele>
        <time>2020-07-28T11:06:51Z</time>
      </trkpt>
      <trkpt lat="42.8131180" lon="0.4235560">
        <ele>1117.8</ele>
        <time>2020-07-28T11:06:52Z</time>
      </trkpt>
      <trkpt lat="42.8130470" lon="0.4235340">
        <ele>1118.6</ele>
        <time>2020-07-28T11:06:55Z</time>
      </trkpt>
      <trkpt lat="42.8129550" lon="0.4234880">
        <ele>1119.4</ele>
        <time>2020-07-28T11:06:59Z</time>
      </trkpt>
      <trkpt lat="42.8129340" lon="0.4234760">
        <ele>1119.6</ele>
        <time>2020-07-28T11:07:00Z</time>
      </trkpt>
      <trkpt lat="42.8128700" lon="0.4234340">
        <ele>1120.6</ele>
        <time>2020-07-28T11:07:03Z</time>
      </trkpt>
      <trkpt lat="42.8127850" lon="0.4233920">
        <ele>1121.6</ele>
        <time>2020-07-28T11:07:07Z</time>
      </trkpt>
      <trkpt lat="42.8126770" lon="0.4233450">
        <ele>1122.8</ele>
        <time>2020-07-28T11:07:12Z</time>
      </trkpt>
      <trkpt lat="42.8126340" lon="0.4233230">
        <ele>1123.2</ele>
        <time>2020-07-28T11:07:14Z</time>
      </trkpt>
      <trkpt lat="42.8125680" lon="0.4232870">
        <ele>1123.8</ele>
        <time>2020-07-28T11:07:17Z</time>
      </trkpt>
      <trkpt lat="42.8124300" lon="0.4232210">
        <ele>1125.0</ele>
        <time>2020-07-28T11:07:23Z</time>
      </trkpt>
      <trkpt lat="42.8123090" lon="0.4231730">
        <ele>1126.2</ele>
        <time>2020-07-28T11:07:28Z</time>
      </trkpt>
      <trkpt lat="42.8121860" lon="0.4231240">
        <ele>1127.2</ele>
        <time>2020-07-28T11:07:33Z</time>
      </trkpt>
      <trkpt lat="42.8120670" lon="0.4230610">
        <ele>1128.4</ele>
        <time>2020-07-28T11:07:38Z</time>
      </trkpt>
      <trkpt lat="42.8119700" lon="0.4230180">
        <ele>1129.0</ele>
        <time>2020-07-28T11:07:42Z</time>
      </trkpt>
      <trkpt lat="42.8118980" lon="0.4229820">
        <ele>1129.6</ele>
        <time>2020-07-28T11:07:45Z</time>
      </trkpt>
      <trkpt lat="42.8117770" lon="0.4229280">
        <ele>1130.8</ele>
        <time>2020-07-28T11:07:50Z</time>
      </trkpt>
      <trkpt lat="42.8117540" lon="0.4229200">
        <ele>1130.8</ele>
        <time>2020-07-28T11:07:51Z</time>
      </trkpt>
      <trkpt lat="42.8116810" lon="0.4228880">
        <ele>1131.8</ele>
        <time>2020-07-28T11:07:54Z</time>
      </trkpt>
      <trkpt lat="42.8115600" lon="0.4228250">
        <ele>1132.8</ele>
        <time>2020-07-28T11:07:59Z</time>
      </trkpt>
      <trkpt lat="42.8115360" lon="0.4228110">
        <ele>1133.4</ele>
        <time>2020-07-28T11:08:00Z</time>
      </trkpt>
      <trkpt lat="42.8114620" lon="0.4227720">
        <ele>1134.0</ele>
        <time>2020-07-28T11:08:03Z</time>
      </trkpt>
      <trkpt lat="42.8113350" lon="0.4227120">
        <ele>1135.0</ele>
        <time>2020-07-28T11:08:08Z</time>
      </trkpt>
      <trkpt lat="42.8112900" lon="0.4226860">
        <ele>1135.6</ele>
        <time>2020-07-28T11:08:10Z</time>
      </trkpt>
      <trkpt lat="42.8112420" lon="0.4226570">
        <ele>1136.2</ele>
        <time>2020-07-28T11:08:12Z</time>
      </trkpt>
      <trkpt lat="42.8110990" lon="0.4225560">
        <ele>1137.4</ele>
        <time>2020-07-28T11:08:18Z</time>
      </trkpt>
      <trkpt lat="42.8110760" lon="0.4225370">
        <ele>1137.6</ele>
        <time>2020-07-28T11:08:19Z</time>
      </trkpt>
      <trkpt lat="42.8109870" lon="0.4224740">
        <ele>1138.6</ele>
        <time>2020-07-28T11:08:23Z</time>
      </trkpt>
      <trkpt lat="42.8108950" lon="0.4224070">
        <ele>1139.4</ele>
        <time>2020-07-28T11:08:27Z</time>
      </trkpt>
      <trkpt lat="42.8108730" lon="0.4223930">
        <ele>1139.8</ele>
        <time>2020-07-28T11:08:28Z</time>
      </trkpt>
      <trkpt lat="42.8107760" lon="0.4223310">
        <ele>1140.4</ele>
        <time>2020-07-28T11:08:33Z</time>
      </trkpt>
      <trkpt lat="42.8107300" lon="0.4223050">
        <ele>1140.8</ele>
        <time>2020-07-28T11:08:35Z</time>
      </trkpt>
      <trkpt lat="42.8106240" lon="0.4222490">
        <ele>1142.0</ele>
        <time>2020-07-28T11:08:40Z</time>
      </trkpt>
      <trkpt lat="42.8106030" lon="0.4222380">
        <ele>1142.2</ele>
        <time>2020-07-28T11:08:41Z</time>
      </trkpt>
      <trkpt lat="42.8104930" lon="0.4221470">
        <ele>1143.2</ele>
        <time>2020-07-28T11:08:46Z</time>
      </trkpt>
      <trkpt lat="42.8104250" lon="0.4220850">
        <ele>1143.8</ele>
        <time>2020-07-28T11:08:49Z</time>
      </trkpt>
      <trkpt lat="42.8103820" lon="0.4220520">
        <ele>1144.2</ele>
        <time>2020-07-28T11:08:51Z</time>
      </trkpt>
      <trkpt lat="42.8102750" lon="0.4219780">
        <ele>1145.8</ele>
        <time>2020-07-28T11:08:56Z</time>
      </trkpt>
      <trkpt lat="42.8102250" lon="0.4219460">
        <ele>1146.2</ele>
        <time>2020-07-28T11:08:58Z</time>
      </trkpt>
      <trkpt lat="42.8101510" lon="0.4218980">
        <ele>1146.8</ele>
        <time>2020-07-28T11:09:01Z</time>
      </trkpt>
      <trkpt lat="42.8100260" lon="0.4218250">
        <ele>1147.8</ele>
        <time>2020-07-28T11:09:06Z</time>
      </trkpt>
      <trkpt lat="42.8100000" lon="0.4218140">
        <ele>1148.2</ele>
        <time>2020-07-28T11:09:07Z</time>
      </trkpt>
      <trkpt lat="42.8098900" lon="0.4217800">
        <ele>1149.0</ele>
        <time>2020-07-28T11:09:11Z</time>
      </trkpt>
      <trkpt lat="42.8098630" lon="0.4217700">
        <ele>1149.2</ele>
        <time>2020-07-28T11:09:12Z</time>
      </trkpt>
      <trkpt lat="42.8098360" lon="0.4217620">
        <ele>1149.2</ele>
        <time>2020-07-28T11:09:13Z</time>
      </trkpt>
      <trkpt lat="42.8097130" lon="0.4217320">
        <ele>1150.4</ele>
        <time>2020-07-28T11:09:18Z</time>
      </trkpt>
      <trkpt lat="42.8096900" lon="0.4217250">
        <ele>1150.6</ele>
        <time>2020-07-28T11:09:19Z</time>
      </trkpt>
      <trkpt lat="42.8095900" lon="0.4217080">
        <ele>1151.4</ele>
        <time>2020-07-28T11:09:23Z</time>
      </trkpt>
      <trkpt lat="42.8094780" lon="0.4217070">
        <ele>1152.6</ele>
        <time>2020-07-28T11:09:27Z</time>
      </trkpt>
      <trkpt lat="42.8093180" lon="0.4217000">
        <ele>1153.6</ele>
        <time>2020-07-28T11:09:33Z</time>
      </trkpt>
      <trkpt lat="42.8092170" lon="0.4216630">
        <ele>1154.4</ele>
        <time>2020-07-28T11:09:37Z</time>
      </trkpt>
      <trkpt lat="42.8091940" lon="0.4216460">
        <ele>1154.6</ele>
        <time>2020-07-28T11:09:38Z</time>
      </trkpt>
      <trkpt lat="42.8090900" lon="0.4215360">
        <ele>1155.8</ele>
        <time>2020-07-28T11:09:43Z</time>
      </trkpt>
      <trkpt lat="42.8090740" lon="0.4215100">
        <ele>1156.0</ele>
        <time>2020-07-28T11:09:44Z</time>
      </trkpt>
      <trkpt lat="42.8090080" lon="0.4213750">
        <ele>1156.8</ele>
        <time>2020-07-28T11:09:49Z</time>
      </trkpt>
      <trkpt lat="42.8089930" lon="0.4213480">
        <ele>1157.0</ele>
        <time>2020-07-28T11:09:50Z</time>
      </trkpt>
      <trkpt lat="42.8088990" lon="0.4212950">
        <ele>1157.8</ele>
        <time>2020-07-28T11:09:54Z</time>
      </trkpt>
      <trkpt lat="42.8088030" lon="0.4213680">
        <ele>1159.2</ele>
        <time>2020-07-28T11:09:58Z</time>
      </trkpt>
      <trkpt lat="42.8087790" lon="0.4215080">
        <ele>1160.4</ele>
        <time>2020-07-28T11:10:02Z</time>
      </trkpt>
      <trkpt lat="42.8087850" lon="0.4215410">
        <ele>1160.6</ele>
        <time>2020-07-28T11:10:03Z</time>
      </trkpt>
      <trkpt lat="42.8088220" lon="0.4216360">
        <ele>1161.6</ele>
        <time>2020-07-28T11:10:06Z</time>
      </trkpt>
      <trkpt lat="42.8088680" lon="0.4217220">
        <ele>1162.0</ele>
        <time>2020-07-28T11:10:09Z</time>
      </trkpt>
      <trkpt lat="42.8089240" lon="0.4217970">
        <ele>1162.6</ele>
        <time>2020-07-28T11:10:12Z</time>
      </trkpt>
      <trkpt lat="42.8090230" lon="0.4219100">
        <ele>1163.8</ele>
        <time>2020-07-28T11:10:17Z</time>
      </trkpt>
      <trkpt lat="42.8091110" lon="0.4219920">
        <ele>1164.8</ele>
        <time>2020-07-28T11:10:21Z</time>
      </trkpt>
      <trkpt lat="42.8092380" lon="0.4221150">
        <ele>1166.0</ele>
        <time>2020-07-28T11:10:27Z</time>
      </trkpt>
      <trkpt lat="42.8092570" lon="0.4221350">
        <ele>1166.0</ele>
        <time>2020-07-28T11:10:28Z</time>
      </trkpt>
      <trkpt lat="42.8093720" lon="0.4222440">
        <ele>1167.2</ele>
        <time>2020-07-28T11:10:34Z</time>
      </trkpt>
      <trkpt lat="42.8094790" lon="0.4223330">
        <ele>1168.2</ele>
        <time>2020-07-28T11:10:39Z</time>
      </trkpt>
      <trkpt lat="42.8095690" lon="0.4224020">
        <ele>1169.2</ele>
        <time>2020-07-28T11:10:43Z</time>
      </trkpt>
      <trkpt lat="42.8095920" lon="0.4224210">
        <ele>1169.4</ele>
        <time>2020-07-28T11:10:44Z</time>
      </trkpt>
      <trkpt lat="42.8096880" lon="0.4225180">
        <ele>1170.4</ele>
        <time>2020-07-28T11:10:49Z</time>
      </trkpt>
      <trkpt lat="42.8097040" lon="0.4225390">
        <ele>1170.6</ele>
        <time>2020-07-28T11:10:50Z</time>
      </trkpt>
      <trkpt lat="42.8097710" lon="0.4226430">
        <ele>1171.4</ele>
        <time>2020-07-28T11:10:54Z</time>
      </trkpt>
      <trkpt lat="42.8098330" lon="0.4227610">
        <ele>1172.2</ele>
        <time>2020-07-28T11:10:58Z</time>
      </trkpt>
      <trkpt lat="42.8098450" lon="0.4227920">
        <ele>1172.6</ele>
        <time>2020-07-28T11:10:59Z</time>
      </trkpt>
      <trkpt lat="42.8099000" lon="0.4229130">
        <ele>1173.6</ele>
        <time>2020-07-28T11:11:03Z</time>
      </trkpt>
      <trkpt lat="42.8099510" lon="0.4229980">
        <ele>1174.4</ele>
        <time>2020-07-28T11:11:06Z</time>
      </trkpt>
      <trkpt lat="42.8099800" lon="0.4230590">
        <ele>1174.8</ele>
        <time>2020-07-28T11:11:08Z</time>
      </trkpt>
      <trkpt lat="42.8100520" lon="0.4232110">
        <ele>1175.8</ele>
        <time>2020-07-28T11:11:13Z</time>
      </trkpt>
      <trkpt lat="42.8101120" lon="0.4233290">
        <ele>1176.8</ele>
        <time>2020-07-28T11:11:17Z</time>
      </trkpt>
      <trkpt lat="42.8101890" lon="0.4234730">
        <ele>1178.0</ele>
        <time>2020-07-28T11:11:22Z</time>
      </trkpt>
      <trkpt lat="42.8102450" lon="0.4235890">
        <ele>1179.0</ele>
        <time>2020-07-28T11:11:26Z</time>
      </trkpt>
      <trkpt lat="42.8102600" lon="0.4236180">
        <ele>1179.0</ele>
        <time>2020-07-28T11:11:27Z</time>
      </trkpt>
      <trkpt lat="42.8103310" lon="0.4237590">
        <ele>1180.0</ele>
        <time>2020-07-28T11:11:32Z</time>
      </trkpt>
      <trkpt lat="42.8103850" lon="0.4238710">
        <ele>1180.8</ele>
        <time>2020-07-28T11:11:36Z</time>
      </trkpt>
      <trkpt lat="42.8104000" lon="0.4238980">
        <ele>1181.0</ele>
        <time>2020-07-28T11:11:37Z</time>
      </trkpt>
      <trkpt lat="42.8104700" lon="0.4240310">
        <ele>1182.2</ele>
        <time>2020-07-28T11:11:42Z</time>
      </trkpt>
      <trkpt lat="42.8105150" lon="0.4241110">
        <ele>1183.0</ele>
        <time>2020-07-28T11:11:45Z</time>
      </trkpt>
      <trkpt lat="42.8105300" lon="0.4241390">
        <ele>1183.4</ele>
        <time>2020-07-28T11:11:46Z</time>
      </trkpt>
      <trkpt lat="42.8105950" lon="0.4242810">
        <ele>1184.4</ele>
        <time>2020-07-28T11:11:51Z</time>
      </trkpt>
      <trkpt lat="42.8106100" lon="0.4243460">
        <ele>1184.8</ele>
        <time>2020-07-28T11:11:53Z</time>
      </trkpt>
      <trkpt lat="42.8106260" lon="0.4244470">
        <ele>1185.8</ele>
        <time>2020-07-28T11:11:56Z</time>
      </trkpt>
      <trkpt lat="42.8106390" lon="0.4246220">
        <ele>1186.8</ele>
        <time>2020-07-28T11:12:01Z</time>
      </trkpt>
      <trkpt lat="42.8106450" lon="0.4246940">
        <ele>1187.2</ele>
        <time>2020-07-28T11:12:03Z</time>
      </trkpt>
      <trkpt lat="42.8106500" lon="0.4248080">
        <ele>1188.0</ele>
        <time>2020-07-28T11:12:06Z</time>
      </trkpt>
      <trkpt lat="42.8106660" lon="0.4249180">
        <ele>1188.8</ele>
        <time>2020-07-28T11:12:09Z</time>
      </trkpt>
      <trkpt lat="42.8106780" lon="0.4249500">
        <ele>1189.0</ele>
        <time>2020-07-28T11:12:10Z</time>
      </trkpt>
      <trkpt lat="42.8107380" lon="0.4250690">
        <ele>1190.2</ele>
        <time>2020-07-28T11:12:14Z</time>
      </trkpt>
      <trkpt lat="42.8107490" lon="0.4250960">
        <ele>1190.4</ele>
        <time>2020-07-28T11:12:15Z</time>
      </trkpt>
      <trkpt lat="42.8108420" lon="0.4251750">
        <ele>1191.0</ele>
        <time>2020-07-28T11:12:20Z</time>
      </trkpt>
      <trkpt lat="42.8109550" lon="0.4252030">
        <ele>1192.0</ele>
        <time>2020-07-28T11:12:25Z</time>
      </trkpt>
      <trkpt lat="42.8110030" lon="0.4252100">
        <ele>1192.4</ele>
        <time>2020-07-28T11:12:27Z</time>
      </trkpt>
      <trkpt lat="42.8110740" lon="0.4252240">
        <ele>1193.2</ele>
        <time>2020-07-28T11:12:30Z</time>
      </trkpt>
      <trkpt lat="42.8111970" lon="0.4252620">
        <ele>1194.4</ele>
        <time>2020-07-28T11:12:35Z</time>
      </trkpt>
      <trkpt lat="42.8112640" lon="0.4253240">
        <ele>1195.4</ele>
        <time>2020-07-28T11:12:39Z</time>
      </trkpt>
      <trkpt lat="42.8113060" lon="0.4253640">
        <ele>1196.0</ele>
        <time>2020-07-28T11:12:41Z</time>
      </trkpt>
      <trkpt lat="42.8113530" lon="0.4254130">
        <ele>1196.4</ele>
        <time>2020-07-28T11:12:43Z</time>
      </trkpt>
      <trkpt lat="42.8114550" lon="0.4255610">
        <ele>1197.6</ele>
        <time>2020-07-28T11:12:48Z</time>
      </trkpt>
      <trkpt lat="42.8114700" lon="0.4255950">
        <ele>1197.8</ele>
        <time>2020-07-28T11:12:49Z</time>
      </trkpt>
      <trkpt lat="42.8115300" lon="0.4257320">
        <ele>1198.6</ele>
        <time>2020-07-28T11:12:53Z</time>
      </trkpt>
      <trkpt lat="42.8115450" lon="0.4257970">
        <ele>1199.2</ele>
        <time>2020-07-28T11:12:55Z</time>
      </trkpt>
      <trkpt lat="42.8115740" lon="0.4258600">
        <ele>1199.6</ele>
        <time>2020-07-28T11:12:57Z</time>
      </trkpt>
      <trkpt lat="42.8116380" lon="0.4260220">
        <ele>1200.8</ele>
        <time>2020-07-28T11:13:02Z</time>
      </trkpt>
      <trkpt lat="42.8116510" lon="0.4260550">
        <ele>1201.0</ele>
        <time>2020-07-28T11:13:03Z</time>
      </trkpt>
      <trkpt lat="42.8116940" lon="0.4261890">
        <ele>1201.8</ele>
        <time>2020-07-28T11:13:07Z</time>
      </trkpt>
      <trkpt lat="42.8117280" lon="0.4263320">
        <ele>1203.0</ele>
        <time>2020-07-28T11:13:11Z</time>
      </trkpt>
      <trkpt lat="42.8117430" lon="0.4264070">
        <ele>1203.4</ele>
        <time>2020-07-28T11:13:13Z</time>
      </trkpt>
      <trkpt lat="42.8117630" lon="0.4265130">
        <ele>1204.0</ele>
        <time>2020-07-28T11:13:16Z</time>
      </trkpt>
      <trkpt lat="42.8117950" lon="0.4266500">
        <ele>1204.8</ele>
        <time>2020-07-28T11:13:20Z</time>
      </trkpt>
      <trkpt lat="42.8118050" lon="0.4266820">
        <ele>1205.2</ele>
        <time>2020-07-28T11:13:21Z</time>
      </trkpt>
      <trkpt lat="42.8118610" lon="0.4268500">
        <ele>1206.4</ele>
        <time>2020-07-28T11:13:26Z</time>
      </trkpt>
      <trkpt lat="42.8118840" lon="0.4269140">
        <ele>1207.0</ele>
        <time>2020-07-28T11:13:28Z</time>
      </trkpt>
      <trkpt lat="42.8119250" lon="0.4270040">
        <ele>1207.6</ele>
        <time>2020-07-28T11:13:31Z</time>
      </trkpt>
      <trkpt lat="42.8119820" lon="0.4271170">
        <ele>1209.0</ele>
        <time>2020-07-28T11:13:35Z</time>
      </trkpt>
      <trkpt lat="42.8119970" lon="0.4271440">
        <ele>1209.2</ele>
        <time>2020-07-28T11:13:36Z</time>
      </trkpt>
      <trkpt lat="42.8120420" lon="0.4272300">
        <ele>1210.0</ele>
        <time>2020-07-28T11:13:39Z</time>
      </trkpt>
      <trkpt lat="42.8121180" lon="0.4273590">
        <ele>1210.8</ele>
        <time>2020-07-28T11:13:44Z</time>
      </trkpt>
      <trkpt lat="42.8121960" lon="0.4274820">
        <ele>1212.0</ele>
        <time>2020-07-28T11:13:49Z</time>
      </trkpt>
      <trkpt lat="42.8122310" lon="0.4275340">
        <ele>1212.4</ele>
        <time>2020-07-28T11:13:51Z</time>
      </trkpt>
      <trkpt lat="42.8122790" lon="0.4276360">
        <ele>1213.2</ele>
        <time>2020-07-28T11:13:55Z</time>
      </trkpt>
      <trkpt lat="42.8123010" lon="0.4276880">
        <ele>1213.8</ele>
        <time>2020-07-28T11:13:57Z</time>
      </trkpt>
      <trkpt lat="42.8123100" lon="0.4277400">
        <ele>1214.2</ele>
        <time>2020-07-28T11:13:59Z</time>
      </trkpt>
      <trkpt lat="42.8123570" lon="0.4278090">
        <ele>1214.8</ele>
        <time>2020-07-28T11:14:02Z</time>
      </trkpt>
      <trkpt lat="42.8124310" lon="0.4278720">
        <ele>1215.4</ele>
        <time>2020-07-28T11:14:05Z</time>
      </trkpt>
      <trkpt lat="42.8125110" lon="0.4279130">
        <ele>1216.0</ele>
        <time>2020-07-28T11:14:08Z</time>
      </trkpt>
      <trkpt lat="42.8125940" lon="0.4279360">
        <ele>1216.2</ele>
        <time>2020-07-28T11:14:11Z</time>
      </trkpt>
      <trkpt lat="42.8127400" lon="0.4279410">
        <ele>1217.2</ele>
        <time>2020-07-28T11:14:15Z</time>
      </trkpt>
      <trkpt lat="42.8127750" lon="0.4279430">
        <ele>1217.4</ele>
        <time>2020-07-28T11:14:16Z</time>
      </trkpt>
      <trkpt lat="42.8129070" lon="0.4279830">
        <ele>1218.6</ele>
        <time>2020-07-28T11:14:20Z</time>
      </trkpt>
      <trkpt lat="42.8129320" lon="0.4280060">
        <ele>1218.8</ele>
        <time>2020-07-28T11:14:21Z</time>
      </trkpt>
      <trkpt lat="42.8129970" lon="0.4281000">
        <ele>1219.8</ele>
        <time>2020-07-28T11:14:24Z</time>
      </trkpt>
      <trkpt lat="42.8130150" lon="0.4281750">
        <ele>1220.2</ele>
        <time>2020-07-28T11:14:26Z</time>
      </trkpt>
      <trkpt lat="42.8129910" lon="0.4283130">
        <ele>1220.8</ele>
        <time>2020-07-28T11:14:30Z</time>
      </trkpt>
      <trkpt lat="42.8129730" lon="0.4283380">
        <ele>1221.0</ele>
        <time>2020-07-28T11:14:31Z</time>
      </trkpt>
      <trkpt lat="42.8129030" lon="0.4283910">
        <ele>1222.0</ele>
        <time>2020-07-28T11:14:34Z</time>
      </trkpt>
      <trkpt lat="42.8128520" lon="0.4283990">
        <ele>1222.8</ele>
        <time>2020-07-28T11:14:36Z</time>
      </trkpt>
      <trkpt lat="42.8128270" lon="0.4284000">
        <ele>1223.2</ele>
        <time>2020-07-28T11:14:37Z</time>
      </trkpt>
      <trkpt lat="42.8127350" lon="0.4283890">
        <ele>1224.4</ele>
        <time>2020-07-28T11:14:41Z</time>
      </trkpt>
      <trkpt lat="42.8126650" lon="0.4283610">
        <ele>1225.2</ele>
        <time>2020-07-28T11:14:44Z</time>
      </trkpt>
      <trkpt lat="42.8126390" lon="0.4283510">
        <ele>1225.4</ele>
        <time>2020-07-28T11:14:45Z</time>
      </trkpt>
      <trkpt lat="42.8125370" lon="0.4283240">
        <ele>1226.4</ele>
        <time>2020-07-28T11:14:49Z</time>
      </trkpt>
      <trkpt lat="42.8125150" lon="0.4283150">
        <ele>1226.6</ele>
        <time>2020-07-28T11:14:50Z</time>
      </trkpt>
      <trkpt lat="42.8124220" lon="0.4282810">
        <ele>1227.4</ele>
        <time>2020-07-28T11:14:55Z</time>
      </trkpt>
      <trkpt lat="42.8123260" lon="0.4282250">
        <ele>1228.8</ele>
        <time>2020-07-28T11:15:00Z</time>
      </trkpt>
      <trkpt lat="42.8123010" lon="0.4282100">
        <ele>1229.0</ele>
        <time>2020-07-28T11:15:01Z</time>
      </trkpt>
      <trkpt lat="42.8122350" lon="0.4281690">
        <ele>1229.8</ele>
        <time>2020-07-28T11:15:04Z</time>
      </trkpt>
      <trkpt lat="42.8121570" lon="0.4281300">
        <ele>1230.6</ele>
        <time>2020-07-28T11:15:07Z</time>
      </trkpt>
      <trkpt lat="42.8121020" lon="0.4280990">
        <ele>1231.0</ele>
        <time>2020-07-28T11:15:09Z</time>
      </trkpt>
      <trkpt lat="42.8119860" lon="0.4280710">
        <ele>1231.8</ele>
        <time>2020-07-28T11:15:13Z</time>
      </trkpt>
      <trkpt lat="42.8119580" lon="0.4280660">
        <ele>1232.0</ele>
        <time>2020-07-28T11:15:14Z</time>
      </trkpt>
      <trkpt lat="42.8118610" lon="0.4280210">
        <ele>1233.0</ele>
        <time>2020-07-28T11:15:18Z</time>
      </trkpt>
      <trkpt lat="42.8118140" lon="0.4280000">
        <ele>1233.6</ele>
        <time>2020-07-28T11:15:20Z</time>
      </trkpt>
      <trkpt lat="42.8117680" lon="0.4279690">
        <ele>1234.2</ele>
        <time>2020-07-28T11:15:22Z</time>
      </trkpt>
      <trkpt lat="42.8116540" lon="0.4279040">
        <ele>1235.2</ele>
        <time>2020-07-28T11:15:27Z</time>
      </trkpt>
      <trkpt lat="42.8115690" lon="0.4278520">
        <ele>1236.4</ele>
        <time>2020-07-28T11:15:31Z</time>
      </trkpt>
      <trkpt lat="42.8115290" lon="0.4278190">
        <ele>1236.8</ele>
        <time>2020-07-28T11:15:33Z</time>
      </trkpt>
      <trkpt lat="42.8114390" lon="0.4277530">
        <ele>1237.6</ele>
        <time>2020-07-28T11:15:37Z</time>
      </trkpt>
      <trkpt lat="42.8113890" lon="0.4277160">
        <ele>1238.2</ele>
        <time>2020-07-28T11:15:39Z</time>
      </trkpt>
      <trkpt lat="42.8113040" lon="0.4276460">
        <ele>1238.8</ele>
        <time>2020-07-28T11:15:42Z</time>
      </trkpt>
      <trkpt lat="42.8112260" lon="0.4275830">
        <ele>1239.4</ele>
        <time>2020-07-28T11:15:45Z</time>
      </trkpt>
      <trkpt lat="42.8111740" lon="0.4275430">
        <ele>1239.6</ele>
        <time>2020-07-28T11:15:47Z</time>
      </trkpt>
      <trkpt lat="42.8110730" lon="0.4274770">
        <ele>1240.8</ele>
        <time>2020-07-28T11:15:51Z</time>
      </trkpt>
      <trkpt lat="42.8110220" lon="0.4274450">
        <ele>1241.2</ele>
        <time>2020-07-28T11:15:53Z</time>
      </trkpt>
      <trkpt lat="42.8109450" lon="0.4273980">
        <ele>1242.0</ele>
        <time>2020-07-28T11:15:56Z</time>
      </trkpt>
      <trkpt lat="42.8108440" lon="0.4273390">
        <ele>1243.2</ele>
        <time>2020-07-28T11:16:00Z</time>
      </trkpt>
      <trkpt lat="42.8107670" lon="0.4273060">
        <ele>1243.8</ele>
        <time>2020-07-28T11:16:03Z</time>
      </trkpt>
      <trkpt lat="42.8107160" lon="0.4272850">
        <ele>1244.2</ele>
        <time>2020-07-28T11:16:05Z</time>
      </trkpt>
      <trkpt lat="42.8105900" lon="0.4272360">
        <ele>1245.4</ele>
        <time>2020-07-28T11:16:10Z</time>
      </trkpt>
      <trkpt lat="42.8105420" lon="0.4272120">
        <ele>1245.8</ele>
        <time>2020-07-28T11:16:12Z</time>
      </trkpt>
      <trkpt lat="42.8104530" lon="0.4271690">
        <ele>1246.4</ele>
        <time>2020-07-28T11:16:16Z</time>
      </trkpt>
      <trkpt lat="42.8103660" lon="0.4271280">
        <ele>1247.4</ele>
        <time>2020-07-28T11:16:20Z</time>
      </trkpt>
      <trkpt lat="42.8103460" lon="0.4271130">
        <ele>1247.6</ele>
        <time>2020-07-28T11:16:21Z</time>
      </trkpt>
      <trkpt lat="42.8102400" lon="0.4270700">
        <ele>1249.0</ele>
        <time>2020-07-28T11:16:26Z</time>
      </trkpt>
      <trkpt lat="42.8101480" lon="0.4270410">
        <ele>1250.0</ele>
        <time>2020-07-28T11:16:31Z</time>
      </trkpt>
      <trkpt lat="42.8101000" lon="0.4270160">
        <ele>1250.4</ele>
        <time>2020-07-28T11:16:33Z</time>
      </trkpt>
      <trkpt lat="42.8100590" lon="0.4269880">
        <ele>1251.0</ele>
        <time>2020-07-28T11:16:35Z</time>
      </trkpt>
      <trkpt lat="42.8099580" lon="0.4268950">
        <ele>1252.2</ele>
        <time>2020-07-28T11:16:40Z</time>
      </trkpt>
      <trkpt lat="42.8098420" lon="0.4267690">
        <ele>1253.2</ele>
        <time>2020-07-28T11:16:45Z</time>
      </trkpt>
      <trkpt lat="42.8097900" lon="0.4267180">
        <ele>1253.6</ele>
        <time>2020-07-28T11:16:47Z</time>
      </trkpt>
      <trkpt lat="42.8097110" lon="0.4266550">
        <ele>1254.4</ele>
        <time>2020-07-28T11:16:50Z</time>
      </trkpt>
      <trkpt lat="42.8095950" lon="0.4265810">
        <ele>1255.6</ele>
        <time>2020-07-28T11:16:54Z</time>
      </trkpt>
      <trkpt lat="42.8095390" lon="0.4265500">
        <ele>1256.2</ele>
        <time>2020-07-28T11:16:56Z</time>
      </trkpt>
      <trkpt lat="42.8094560" lon="0.4264960">
        <ele>1256.8</ele>
        <time>2020-07-28T11:16:59Z</time>
      </trkpt>
      <trkpt lat="42.8093500" lon="0.4263970">
        <ele>1257.8</ele>
        <time>2020-07-28T11:17:04Z</time>
      </trkpt>
      <trkpt lat="42.8093300" lon="0.4263780">
        <ele>1258.0</ele>
        <time>2020-07-28T11:17:05Z</time>
      </trkpt>
      <trkpt lat="42.8092540" lon="0.4263010">
        <ele>1259.2</ele>
        <time>2020-07-28T11:17:09Z</time>
      </trkpt>
      <trkpt lat="42.8091920" lon="0.4262390">
        <ele>1259.8</ele>
        <time>2020-07-28T11:17:12Z</time>
      </trkpt>
      <trkpt lat="42.8091530" lon="0.4261930">
        <ele>1260.4</ele>
        <time>2020-07-28T11:17:14Z</time>
      </trkpt>
      <trkpt lat="42.8090500" lon="0.4260690">
        <ele>1261.4</ele>
        <time>2020-07-28T11:17:19Z</time>
      </trkpt>
      <trkpt lat="42.8089520" lon="0.4259200">
        <ele>1262.4</ele>
        <time>2020-07-28T11:17:24Z</time>
      </trkpt>
      <trkpt lat="42.8088830" lon="0.4258160">
        <ele>1263.4</ele>
        <time>2020-07-28T11:17:28Z</time>
      </trkpt>
      <trkpt lat="42.8088660" lon="0.4257900">
        <ele>1263.6</ele>
        <time>2020-07-28T11:17:29Z</time>
      </trkpt>
      <trkpt lat="42.8087730" lon="0.4256710">
        <ele>1264.8</ele>
        <time>2020-07-28T11:17:34Z</time>
      </trkpt>
      <trkpt lat="42.8087050" lon="0.4256110">
        <ele>1265.4</ele>
        <time>2020-07-28T11:17:37Z</time>
      </trkpt>
      <trkpt lat="42.8086620" lon="0.4255700">
        <ele>1266.0</ele>
        <time>2020-07-28T11:17:39Z</time>
      </trkpt>
      <trkpt lat="42.8085490" lon="0.4254870">
        <ele>1267.2</ele>
        <time>2020-07-28T11:17:44Z</time>
      </trkpt>
      <trkpt lat="42.8085260" lon="0.4254730">
        <ele>1267.4</ele>
        <time>2020-07-28T11:17:45Z</time>
      </trkpt>
      <trkpt lat="42.8084340" lon="0.4254210">
        <ele>1268.2</ele>
        <time>2020-07-28T11:17:49Z</time>
      </trkpt>
      <trkpt lat="42.8083410" lon="0.4253750">
        <ele>1269.4</ele>
        <time>2020-07-28T11:17:53Z</time>
      </trkpt>
      <trkpt lat="42.8082690" lon="0.4253410">
        <ele>1270.0</ele>
        <time>2020-07-28T11:17:56Z</time>
      </trkpt>
      <trkpt lat="42.8081930" lon="0.4253100">
        <ele>1270.4</ele>
        <time>2020-07-28T11:17:59Z</time>
      </trkpt>
      <trkpt lat="42.8080450" lon="0.4252490">
        <ele>1271.6</ele>
        <time>2020-07-28T11:18:05Z</time>
      </trkpt>
      <trkpt lat="42.8079950" lon="0.4252330">
        <ele>1272.2</ele>
        <time>2020-07-28T11:18:07Z</time>
      </trkpt>
      <trkpt lat="42.8079240" lon="0.4252060">
        <ele>1272.6</ele>
        <time>2020-07-28T11:18:10Z</time>
      </trkpt>
      <trkpt lat="42.8078090" lon="0.4251520">
        <ele>1273.6</ele>
        <time>2020-07-28T11:18:15Z</time>
      </trkpt>
      <trkpt lat="42.8077860" lon="0.4251430">
        <ele>1274.0</ele>
        <time>2020-07-28T11:18:16Z</time>
      </trkpt>
      <trkpt lat="42.8076910" lon="0.4251040">
        <ele>1275.0</ele>
        <time>2020-07-28T11:18:20Z</time>
      </trkpt>
      <trkpt lat="42.8075700" lon="0.4250670">
        <ele>1275.8</ele>
        <time>2020-07-28T11:18:25Z</time>
      </trkpt>
      <trkpt lat="42.8075230" lon="0.4250510">
        <ele>1276.0</ele>
        <time>2020-07-28T11:18:27Z</time>
      </trkpt>
      <trkpt lat="42.8074050" lon="0.4250000">
        <ele>1277.4</ele>
        <time>2020-07-28T11:18:32Z</time>
      </trkpt>
      <trkpt lat="42.8073110" lon="0.4249590">
        <ele>1278.2</ele>
        <time>2020-07-28T11:18:36Z</time>
      </trkpt>
      <trkpt lat="42.8071880" lon="0.4249160">
        <ele>1279.2</ele>
        <time>2020-07-28T11:18:41Z</time>
      </trkpt>
      <trkpt lat="42.8070940" lon="0.4248850">
        <ele>1280.2</ele>
        <time>2020-07-28T11:18:45Z</time>
      </trkpt>
      <trkpt lat="42.8070240" lon="0.4248660">
        <ele>1281.2</ele>
        <time>2020-07-28T11:18:48Z</time>
      </trkpt>
      <trkpt lat="42.8070000" lon="0.4248600">
        <ele>1281.4</ele>
        <time>2020-07-28T11:18:49Z</time>
      </trkpt>
      <trkpt lat="42.8068260" lon="0.4248290">
        <ele>1282.4</ele>
        <time>2020-07-28T11:18:56Z</time>
      </trkpt>
      <trkpt lat="42.8066980" lon="0.4248060">
        <ele>1283.4</ele>
        <time>2020-07-28T11:19:01Z</time>
      </trkpt>
      <trkpt lat="42.8065690" lon="0.4247840">
        <ele>1284.4</ele>
        <time>2020-07-28T11:19:06Z</time>
      </trkpt>
      <trkpt lat="42.8064170" lon="0.4247730">
        <ele>1285.6</ele>
        <time>2020-07-28T11:19:12Z</time>
      </trkpt>
      <trkpt lat="42.8063430" lon="0.4247640">
        <ele>1286.2</ele>
        <time>2020-07-28T11:19:15Z</time>
      </trkpt>
      <trkpt lat="42.8063180" lon="0.4247600">
        <ele>1286.8</ele>
        <time>2020-07-28T11:19:16Z</time>
      </trkpt>
      <trkpt lat="42.8061930" lon="0.4247430">
        <ele>1287.8</ele>
        <time>2020-07-28T11:19:21Z</time>
      </trkpt>
      <trkpt lat="42.8060910" lon="0.4247330">
        <ele>1288.6</ele>
        <time>2020-07-28T11:19:25Z</time>
      </trkpt>
      <trkpt lat="42.8060640" lon="0.4247300">
        <ele>1289.0</ele>
        <time>2020-07-28T11:19:26Z</time>
      </trkpt>
      <trkpt lat="42.8059360" lon="0.4247070">
        <ele>1290.2</ele>
        <time>2020-07-28T11:19:31Z</time>
      </trkpt>
      <trkpt lat="42.8058340" lon="0.4246910">
        <ele>1291.2</ele>
        <time>2020-07-28T11:19:35Z</time>
      </trkpt>
      <trkpt lat="42.8058080" lon="0.4246910">
        <ele>1291.4</ele>
        <time>2020-07-28T11:19:36Z</time>
      </trkpt>
      <trkpt lat="42.8057040" lon="0.4246860">
        <ele>1292.2</ele>
        <time>2020-07-28T11:19:40Z</time>
      </trkpt>
      <trkpt lat="42.8055740" lon="0.4246770">
        <ele>1293.4</ele>
        <time>2020-07-28T11:19:45Z</time>
      </trkpt>
      <trkpt lat="42.8055490" lon="0.4246780">
        <ele>1293.6</ele>
        <time>2020-07-28T11:19:46Z</time>
      </trkpt>
      <trkpt lat="42.8054470" lon="0.4246740">
        <ele>1294.4</ele>
        <time>2020-07-28T11:19:50Z</time>
      </trkpt>
      <trkpt lat="42.8052950" lon="0.4246670">
        <ele>1295.6</ele>
        <time>2020-07-28T11:19:56Z</time>
      </trkpt>
      <trkpt lat="42.8051680" lon="0.4246530">
        <ele>1297.0</ele>
        <time>2020-07-28T11:20:01Z</time>
      </trkpt>
      <trkpt lat="42.8050940" lon="0.4246440">
        <ele>1297.6</ele>
        <time>2020-07-28T11:20:04Z</time>
      </trkpt>
      <trkpt lat="42.8050180" lon="0.4246340">
        <ele>1298.2</ele>
        <time>2020-07-28T11:20:07Z</time>
      </trkpt>
      <trkpt lat="42.8049170" lon="0.4246290">
        <ele>1299.4</ele>
        <time>2020-07-28T11:20:11Z</time>
      </trkpt>
      <trkpt lat="42.8047920" lon="0.4246090">
        <ele>1300.6</ele>
        <time>2020-07-28T11:20:16Z</time>
      </trkpt>
      <trkpt lat="42.8046680" lon="0.4245900">
        <ele>1301.8</ele>
        <time>2020-07-28T11:20:21Z</time>
      </trkpt>
      <trkpt lat="42.8045910" lon="0.4245750">
        <ele>1302.4</ele>
        <time>2020-07-28T11:20:24Z</time>
      </trkpt>
      <trkpt lat="42.8045400" lon="0.4245660">
        <ele>1303.0</ele>
        <time>2020-07-28T11:20:26Z</time>
      </trkpt>
      <trkpt lat="42.8044140" lon="0.4245490">
        <ele>1304.0</ele>
        <time>2020-07-28T11:20:31Z</time>
      </trkpt>
      <trkpt lat="42.8043120" lon="0.4245480">
        <ele>1305.0</ele>
        <time>2020-07-28T11:20:35Z</time>
      </trkpt>
      <trkpt lat="42.8042860" lon="0.4245480">
        <ele>1305.4</ele>
        <time>2020-07-28T11:20:36Z</time>
      </trkpt>
      <trkpt lat="42.8041810" lon="0.4245460">
        <ele>1306.6</ele>
        <time>2020-07-28T11:20:40Z</time>
      </trkpt>
      <trkpt lat="42.8040480" lon="0.4245550">
        <ele>1307.8</ele>
        <time>2020-07-28T11:20:45Z</time>
      </trkpt>
      <trkpt lat="42.8040220" lon="0.4245650">
        <ele>1308.0</ele>
        <time>2020-07-28T11:20:46Z</time>
      </trkpt>
      <trkpt lat="42.8038900" lon="0.4246090">
        <ele>1309.0</ele>
        <time>2020-07-28T11:20:51Z</time>
      </trkpt>
      <trkpt lat="42.8038380" lon="0.4246360">
        <ele>1309.4</ele>
        <time>2020-07-28T11:20:53Z</time>
      </trkpt>
      <trkpt lat="42.8037600" lon="0.4246770">
        <ele>1310.2</ele>
        <time>2020-07-28T11:20:56Z</time>
      </trkpt>
      <trkpt lat="42.8036530" lon="0.4247250">
        <ele>1311.4</ele>
        <time>2020-07-28T11:21:00Z</time>
      </trkpt>
      <trkpt lat="42.8035750" lon="0.4247710">
        <ele>1312.2</ele>
        <time>2020-07-28T11:21:03Z</time>
      </trkpt>
      <trkpt lat="42.8035500" lon="0.4247880">
        <ele>1312.4</ele>
        <time>2020-07-28T11:21:04Z</time>
      </trkpt>
      <trkpt lat="42.8034310" lon="0.4248600">
        <ele>1313.8</ele>
        <time>2020-07-28T11:21:09Z</time>
      </trkpt>
      <trkpt lat="42.8033620" lon="0.4249070">
        <ele>1314.6</ele>
        <time>2020-07-28T11:21:12Z</time>
      </trkpt>
      <trkpt lat="42.8033380" lon="0.4249200">
        <ele>1314.8</ele>
        <time>2020-07-28T11:21:13Z</time>
      </trkpt>
      <trkpt lat="42.8032220" lon="0.4250120">
        <ele>1316.0</ele>
        <time>2020-07-28T11:21:18Z</time>
      </trkpt>
      <trkpt lat="42.8031760" lon="0.4250500">
        <ele>1316.4</ele>
        <time>2020-07-28T11:21:20Z</time>
      </trkpt>
      <trkpt lat="42.8031070" lon="0.4251070">
        <ele>1317.0</ele>
        <time>2020-07-28T11:21:23Z</time>
      </trkpt>
      <trkpt lat="42.8029660" lon="0.4252190">
        <ele>1318.2</ele>
        <time>2020-07-28T11:21:29Z</time>
      </trkpt>
      <trkpt lat="42.8029210" lon="0.4252620">
        <ele>1318.8</ele>
        <time>2020-07-28T11:21:31Z</time>
      </trkpt>
      <trkpt lat="42.8028750" lon="0.4253010">
        <ele>1319.2</ele>
        <time>2020-07-28T11:21:33Z</time>
      </trkpt>
      <trkpt lat="42.8027870" lon="0.4253700">
        <ele>1320.2</ele>
        <time>2020-07-28T11:21:37Z</time>
      </trkpt>
      <trkpt lat="42.8027210" lon="0.4254190">
        <ele>1321.2</ele>
        <time>2020-07-28T11:21:40Z</time>
      </trkpt>
      <trkpt lat="42.8027000" lon="0.4254380">
        <ele>1321.4</ele>
        <time>2020-07-28T11:21:41Z</time>
      </trkpt>
      <trkpt lat="42.8026040" lon="0.4255420">
        <ele>1322.4</ele>
        <time>2020-07-28T11:21:46Z</time>
      </trkpt>
      <trkpt lat="42.8025710" lon="0.4255970">
        <ele>1322.8</ele>
        <time>2020-07-28T11:21:48Z</time>
      </trkpt>
      <trkpt lat="42.8025230" lon="0.4257240">
        <ele>1323.6</ele>
        <time>2020-07-28T11:21:52Z</time>
      </trkpt>
      <trkpt lat="42.8024960" lon="0.4258260">
        <ele>1324.2</ele>
        <time>2020-07-28T11:21:55Z</time>
      </trkpt>
      <trkpt lat="42.8024790" lon="0.4258950">
        <ele>1324.8</ele>
        <time>2020-07-28T11:21:57Z</time>
      </trkpt>
      <trkpt lat="42.8024390" lon="0.4260540">
        <ele>1325.8</ele>
        <time>2020-07-28T11:22:02Z</time>
      </trkpt>
      <trkpt lat="42.8024330" lon="0.4260850">
        <ele>1326.0</ele>
        <time>2020-07-28T11:22:03Z</time>
      </trkpt>
      <trkpt lat="42.8024100" lon="0.4261800">
        <ele>1326.8</ele>
        <time>2020-07-28T11:22:06Z</time>
      </trkpt>
      <trkpt lat="42.8023750" lon="0.4263130">
        <ele>1327.8</ele>
        <time>2020-07-28T11:22:10Z</time>
      </trkpt>
      <trkpt lat="42.8023660" lon="0.4263450">
        <ele>1328.2</ele>
        <time>2020-07-28T11:22:11Z</time>
      </trkpt>
      <trkpt lat="42.8023330" lon="0.4264430">
        <ele>1329.0</ele>
        <time>2020-07-28T11:22:14Z</time>
      </trkpt>
      <trkpt lat="42.8022740" lon="0.4266080">
        <ele>1330.0</ele>
        <time>2020-07-28T11:22:19Z</time>
      </trkpt>
      <trkpt lat="42.8022120" lon="0.4268030">
        <ele>1331.2</ele>
        <time>2020-07-28T11:22:25Z</time>
      </trkpt>
      <trkpt lat="42.8021720" lon="0.4269360">
        <ele>1332.4</ele>
        <time>2020-07-28T11:22:29Z</time>
      </trkpt>
      <trkpt lat="42.8021630" lon="0.4269690">
        <ele>1332.4</ele>
        <time>2020-07-28T11:22:30Z</time>
      </trkpt>
      <trkpt lat="42.8021450" lon="0.4270710">
        <ele>1333.2</ele>
        <time>2020-07-28T11:22:33Z</time>
      </trkpt>
      <trkpt lat="42.8021250" lon="0.4272060">
        <ele>1334.4</ele>
        <time>2020-07-28T11:22:37Z</time>
      </trkpt>
      <trkpt lat="42.8021070" lon="0.4273420">
        <ele>1335.4</ele>
        <time>2020-07-28T11:22:41Z</time>
      </trkpt>
      <trkpt lat="42.8020980" lon="0.4274400">
        <ele>1336.4</ele>
        <time>2020-07-28T11:22:44Z</time>
      </trkpt>
      <trkpt lat="42.8020910" lon="0.4274740">
        <ele>1336.6</ele>
        <time>2020-07-28T11:22:45Z</time>
      </trkpt>
      <trkpt lat="42.8020700" lon="0.4276870">
        <ele>1337.8</ele>
        <time>2020-07-28T11:22:51Z</time>
      </trkpt>
      <trkpt lat="42.8020570" lon="0.4277610">
        <ele>1338.4</ele>
        <time>2020-07-28T11:22:53Z</time>
      </trkpt>
      <trkpt lat="42.8020430" lon="0.4278340">
        <ele>1339.0</ele>
        <time>2020-07-28T11:22:55Z</time>
      </trkpt>
      <trkpt lat="42.8020150" lon="0.4279800">
        <ele>1340.2</ele>
        <time>2020-07-28T11:22:59Z</time>
      </trkpt>
      <trkpt lat="42.8020070" lon="0.4280140">
        <ele>1340.4</ele>
        <time>2020-07-28T11:23:00Z</time>
      </trkpt>
      <trkpt lat="42.8019840" lon="0.4281170">
        <ele>1341.2</ele>
        <time>2020-07-28T11:23:03Z</time>
      </trkpt>
      <trkpt lat="42.8019390" lon="0.4282820">
        <ele>1342.4</ele>
        <time>2020-07-28T11:23:08Z</time>
      </trkpt>
      <trkpt lat="42.8019090" lon="0.4283850">
        <ele>1343.0</ele>
        <time>2020-07-28T11:23:11Z</time>
      </trkpt>
      <trkpt lat="42.8018940" lon="0.4284540">
        <ele>1343.6</ele>
        <time>2020-07-28T11:23:13Z</time>
      </trkpt>
      <trkpt lat="42.8018570" lon="0.4286850">
        <ele>1344.8</ele>
        <time>2020-07-28T11:23:19Z</time>
      </trkpt>
      <trkpt lat="42.8018520" lon="0.4287240">
        <ele>1345.0</ele>
        <time>2020-07-28T11:23:20Z</time>
      </trkpt>
      <trkpt lat="42.8018250" lon="0.4289280">
        <ele>1345.8</ele>
        <time>2020-07-28T11:23:25Z</time>
      </trkpt>
      <trkpt lat="42.8018200" lon="0.4289690">
        <ele>1346.0</ele>
        <time>2020-07-28T11:23:26Z</time>
      </trkpt>
      <trkpt lat="42.8017900" lon="0.4292460">
        <ele>1346.8</ele>
        <time>2020-07-28T11:23:33Z</time>
      </trkpt>
      <trkpt lat="42.8017850" lon="0.4294380">
        <ele>1347.8</ele>
        <time>2020-07-28T11:23:38Z</time>
      </trkpt>
      <trkpt lat="42.8017850" lon="0.4294780">
        <ele>1348.0</ele>
        <time>2020-07-28T11:23:39Z</time>
      </trkpt>
      <trkpt lat="42.8017890" lon="0.4296790">
        <ele>1348.8</ele>
        <time>2020-07-28T11:23:44Z</time>
      </trkpt>
      <trkpt lat="42.8017900" lon="0.4297240">
        <ele>1349.0</ele>
        <time>2020-07-28T11:23:45Z</time>
      </trkpt>
      <trkpt lat="42.8018000" lon="0.4300700">
        <ele>1350.0</ele>
        <time>2020-07-28T11:23:52Z</time>
      </trkpt>
      <trkpt lat="42.8017610" lon="0.4304140">
        <ele>1350.8</ele>
        <time>2020-07-28T11:23:59Z</time>
      </trkpt>
      <trkpt lat="42.8017380" lon="0.4305000">
        <ele>1351.0</ele>
        <time>2020-07-28T11:24:01Z</time>
      </trkpt>
      <trkpt lat="42.8016670" lon="0.4307260">
        <ele>1351.8</ele>
        <time>2020-07-28T11:24:07Z</time>
      </trkpt>
      <trkpt lat="42.8016550" lon="0.4307590">
        <ele>1352.0</ele>
        <time>2020-07-28T11:24:08Z</time>
      </trkpt>
      <trkpt lat="42.8015620" lon="0.4309740">
        <ele>1353.0</ele>
        <time>2020-07-28T11:24:15Z</time>
      </trkpt>
      <trkpt lat="42.8014930" lon="0.4311830">
        <ele>1354.0</ele>
        <time>2020-07-28T11:24:21Z</time>
      </trkpt>
      <trkpt lat="42.8014630" lon="0.4312940">
        <ele>1354.6</ele>
        <time>2020-07-28T11:24:24Z</time>
      </trkpt>
      <trkpt lat="42.8014350" lon="0.4314460">
        <ele>1355.4</ele>
        <time>2020-07-28T11:24:28Z</time>
      </trkpt>
      <trkpt lat="42.8014080" lon="0.4316030">
        <ele>1356.0</ele>
        <time>2020-07-28T11:24:32Z</time>
      </trkpt>
      <trkpt lat="42.8013970" lon="0.4317280">
        <ele>1356.2</ele>
        <time>2020-07-28T11:24:35Z</time>
      </trkpt>
      <trkpt lat="42.8013720" lon="0.4320280">
        <ele>1357.4</ele>
        <time>2020-07-28T11:24:42Z</time>
      </trkpt>
      <trkpt lat="42.8013590" lon="0.4322280">
        <ele>1358.6</ele>
        <time>2020-07-28T11:24:47Z</time>
      </trkpt>
      <trkpt lat="42.8013590" lon="0.4323430">
        <ele>1359.2</ele>
        <time>2020-07-28T11:24:50Z</time>
      </trkpt>
      <trkpt lat="42.8013650" lon="0.4324580">
        <ele>1359.8</ele>
        <time>2020-07-28T11:24:53Z</time>
      </trkpt>
      <trkpt lat="42.8013580" lon="0.4326090">
        <ele>1361.0</ele>
        <time>2020-07-28T11:24:57Z</time>
      </trkpt>
      <trkpt lat="42.8013570" lon="0.4326480">
        <ele>1361.2</ele>
        <time>2020-07-28T11:24:58Z</time>
      </trkpt>
      <trkpt lat="42.8013650" lon="0.4328410">
        <ele>1362.0</ele>
        <time>2020-07-28T11:25:03Z</time>
      </trkpt>
      <trkpt lat="42.8013650" lon="0.4329540">
        <ele>1362.6</ele>
        <time>2020-07-28T11:25:06Z</time>
      </trkpt>
      <trkpt lat="42.8013600" lon="0.4330270">
        <ele>1363.0</ele>
        <time>2020-07-28T11:25:08Z</time>
      </trkpt>
      <trkpt lat="42.8013440" lon="0.4332120">
        <ele>1364.2</ele>
        <time>2020-07-28T11:25:13Z</time>
      </trkpt>
      <trkpt lat="42.8013240" lon="0.4333990">
        <ele>1365.0</ele>
        <time>2020-07-28T11:25:18Z</time>
      </trkpt>
      <trkpt lat="42.8013200" lon="0.4334370">
        <ele>1365.2</ele>
        <time>2020-07-28T11:25:19Z</time>
      </trkpt>
      <trkpt lat="42.8012890" lon="0.4336650">
        <ele>1366.4</ele>
        <time>2020-07-28T11:25:25Z</time>
      </trkpt>
      <trkpt lat="42.8012570" lon="0.4338490">
        <ele>1367.2</ele>
        <time>2020-07-28T11:25:30Z</time>
      </trkpt>
      <trkpt lat="42.8012500" lon="0.4338840">
        <ele>1367.4</ele>
        <time>2020-07-28T11:25:31Z</time>
      </trkpt>
      <trkpt lat="42.8012140" lon="0.4340940">
        <ele>1368.4</ele>
        <time>2020-07-28T11:25:37Z</time>
      </trkpt>
      <trkpt lat="42.8011930" lon="0.4341950">
        <ele>1369.0</ele>
        <time>2020-07-28T11:25:40Z</time>
      </trkpt>
      <trkpt lat="42.8011810" lon="0.4342620">
        <ele>1369.6</ele>
        <time>2020-07-28T11:25:42Z</time>
      </trkpt>
      <trkpt lat="42.8011610" lon="0.4343960">
        <ele>1370.6</ele>
        <time>2020-07-28T11:25:46Z</time>
      </trkpt>
      <trkpt lat="42.8011510" lon="0.4345020">
        <ele>1371.2</ele>
        <time>2020-07-28T11:25:49Z</time>
      </trkpt>
      <trkpt lat="42.8011460" lon="0.4345740">
        <ele>1371.6</ele>
        <time>2020-07-28T11:25:51Z</time>
      </trkpt>
      <trkpt lat="42.8011270" lon="0.4347470">
        <ele>1372.6</ele>
        <time>2020-07-28T11:25:56Z</time>
      </trkpt>
      <trkpt lat="42.8011180" lon="0.4348140">
        <ele>1373.0</ele>
        <time>2020-07-28T11:25:58Z</time>
      </trkpt>
      <trkpt lat="42.8011100" lon="0.4349500">
        <ele>1373.8</ele>
        <time>2020-07-28T11:26:02Z</time>
      </trkpt>
      <trkpt lat="42.8011010" lon="0.4350120">
        <ele>1374.2</ele>
        <time>2020-07-28T11:26:04Z</time>
      </trkpt>
      <trkpt lat="42.8010740" lon="0.4351870">
        <ele>1374.6</ele>
        <time>2020-07-28T11:26:09Z</time>
      </trkpt>
      <trkpt lat="42.8010580" lon="0.4352580">
        <ele>1375.0</ele>
        <time>2020-07-28T11:26:11Z</time>
      </trkpt>
      <trkpt lat="42.8010340" lon="0.4353640">
        <ele>1375.6</ele>
        <time>2020-07-28T11:26:14Z</time>
      </trkpt>
      <trkpt lat="42.8010050" lon="0.4355490">
        <ele>1376.6</ele>
        <time>2020-07-28T11:26:19Z</time>
      </trkpt>
      <trkpt lat="42.8009970" lon="0.4355870">
        <ele>1377.0</ele>
        <time>2020-07-28T11:26:20Z</time>
      </trkpt>
      <trkpt lat="42.8009520" lon="0.4357680">
        <ele>1377.8</ele>
        <time>2020-07-28T11:26:25Z</time>
      </trkpt>
      <trkpt lat="42.8009260" lon="0.4358800">
        <ele>1378.4</ele>
        <time>2020-07-28T11:26:28Z</time>
      </trkpt>
      <trkpt lat="42.8009030" lon="0.4359940">
        <ele>1379.2</ele>
        <time>2020-07-28T11:26:31Z</time>
      </trkpt>
      <trkpt lat="42.8008680" lon="0.4362290">
        <ele>1380.4</ele>
        <time>2020-07-28T11:26:37Z</time>
      </trkpt>
      <trkpt lat="42.8008620" lon="0.4362670">
        <ele>1380.6</ele>
        <time>2020-07-28T11:26:38Z</time>
      </trkpt>
      <trkpt lat="42.8008420" lon="0.4364640">
        <ele>1381.6</ele>
        <time>2020-07-28T11:26:43Z</time>
      </trkpt>
      <trkpt lat="42.8008340" lon="0.4365860">
        <ele>1382.0</ele>
        <time>2020-07-28T11:26:46Z</time>
      </trkpt>
      <trkpt lat="42.8008330" lon="0.4366690">
        <ele>1382.6</ele>
        <time>2020-07-28T11:26:48Z</time>
      </trkpt>
      <trkpt lat="42.8008480" lon="0.4369230">
        <ele>1383.6</ele>
        <time>2020-07-28T11:26:54Z</time>
      </trkpt>
      <trkpt lat="42.8008520" lon="0.4369630">
        <ele>1383.8</ele>
        <time>2020-07-28T11:26:55Z</time>
      </trkpt>
      <trkpt lat="42.8008680" lon="0.4371590">
        <ele>1384.8</ele>
        <time>2020-07-28T11:27:00Z</time>
      </trkpt>
      <trkpt lat="42.8008740" lon="0.4373110">
        <ele>1385.6</ele>
        <time>2020-07-28T11:27:04Z</time>
      </trkpt>
      <trkpt lat="42.8008810" lon="0.4373840">
        <ele>1385.8</ele>
        <time>2020-07-28T11:27:06Z</time>
      </trkpt>
      <trkpt lat="42.8008870" lon="0.4375720">
        <ele>1386.8</ele>
        <time>2020-07-28T11:27:11Z</time>
      </trkpt>
      <trkpt lat="42.8008900" lon="0.4376850">
        <ele>1387.4</ele>
        <time>2020-07-28T11:27:14Z</time>
      </trkpt>
      <trkpt lat="42.8008910" lon="0.4378010">
        <ele>1388.2</ele>
        <time>2020-07-28T11:27:17Z</time>
      </trkpt>
      <trkpt lat="42.8008880" lon="0.4380000">
        <ele>1389.2</ele>
        <time>2020-07-28T11:27:22Z</time>
      </trkpt>
      <trkpt lat="42.8008870" lon="0.4380790">
        <ele>1389.6</ele>
        <time>2020-07-28T11:27:24Z</time>
      </trkpt>
      <trkpt lat="42.8008870" lon="0.4382340">
        <ele>1390.2</ele>
        <time>2020-07-28T11:27:28Z</time>
      </trkpt>
      <trkpt lat="42.8008820" lon="0.4384220">
        <ele>1391.4</ele>
        <time>2020-07-28T11:27:33Z</time>
      </trkpt>
      <trkpt lat="42.8008880" lon="0.4386510">
        <ele>1392.4</ele>
        <time>2020-07-28T11:27:39Z</time>
      </trkpt>
      <trkpt lat="42.8009030" lon="0.4388430">
        <ele>1393.6</ele>
        <time>2020-07-28T11:27:44Z</time>
      </trkpt>
      <trkpt lat="42.8009050" lon="0.4388830">
        <ele>1394.0</ele>
        <time>2020-07-28T11:27:45Z</time>
      </trkpt>
      <trkpt lat="42.8009130" lon="0.4389990">
        <ele>1394.6</ele>
        <time>2020-07-28T11:27:48Z</time>
      </trkpt>
      <trkpt lat="42.8009300" lon="0.4392670">
        <ele>1395.6</ele>
        <time>2020-07-28T11:27:55Z</time>
      </trkpt>
      <trkpt lat="42.8009330" lon="0.4393050">
        <ele>1396.0</ele>
        <time>2020-07-28T11:27:56Z</time>
      </trkpt>
      <trkpt lat="42.8009440" lon="0.4394530">
        <ele>1397.0</ele>
        <time>2020-07-28T11:28:00Z</time>
      </trkpt>
      <trkpt lat="42.8009650" lon="0.4395970">
        <ele>1398.2</ele>
        <time>2020-07-28T11:28:04Z</time>
      </trkpt>
      <trkpt lat="42.8009980" lon="0.4398180">
        <ele>1399.2</ele>
        <time>2020-07-28T11:28:10Z</time>
      </trkpt>
      <trkpt lat="42.8010280" lon="0.4400060">
        <ele>1400.2</ele>
        <time>2020-07-28T11:28:15Z</time>
      </trkpt>
      <trkpt lat="42.8010570" lon="0.4402340">
        <ele>1401.4</ele>
        <time>2020-07-28T11:28:21Z</time>
      </trkpt>
      <trkpt lat="42.8010710" lon="0.4404240">
        <ele>1402.4</ele>
        <time>2020-07-28T11:28:26Z</time>
      </trkpt>
      <trkpt lat="42.8010720" lon="0.4404640">
        <ele>1402.2</ele>
        <time>2020-07-28T11:28:27Z</time>
      </trkpt>
      <trkpt lat="42.8010760" lon="0.4407210">
        <ele>1403.4</ele>
        <time>2020-07-28T11:28:33Z</time>
      </trkpt>
      <trkpt lat="42.8010770" lon="0.4408120">
        <ele>1403.8</ele>
        <time>2020-07-28T11:28:35Z</time>
      </trkpt>
      <trkpt lat="42.8010800" lon="0.4409480">
        <ele>1404.6</ele>
        <time>2020-07-28T11:28:38Z</time>
      </trkpt>
      <trkpt lat="42.8010960" lon="0.4411260">
        <ele>1405.6</ele>
        <time>2020-07-28T11:28:42Z</time>
      </trkpt>
      <trkpt lat="42.8011100" lon="0.4412110">
        <ele>1406.0</ele>
        <time>2020-07-28T11:28:44Z</time>
      </trkpt>
      <trkpt lat="42.8011430" lon="0.4413330">
        <ele>1406.6</ele>
        <time>2020-07-28T11:28:47Z</time>
      </trkpt>
      <trkpt lat="42.8012110" lon="0.4414810">
        <ele>1407.8</ele>
        <time>2020-07-28T11:28:51Z</time>
      </trkpt>
      <trkpt lat="42.8012930" lon="0.4416210">
        <ele>1409.0</ele>
        <time>2020-07-28T11:28:55Z</time>
      </trkpt>
      <trkpt lat="42.8013800" lon="0.4418010">
        <ele>1409.8</ele>
        <time>2020-07-28T11:29:00Z</time>
      </trkpt>
      <trkpt lat="42.8013930" lon="0.4418400">
        <ele>1410.0</ele>
        <time>2020-07-28T11:29:01Z</time>
      </trkpt>
      <trkpt lat="42.8014360" lon="0.4420020">
        <ele>1411.0</ele>
        <time>2020-07-28T11:29:05Z</time>
      </trkpt>
      <trkpt lat="42.8014640" lon="0.4421790">
        <ele>1411.8</ele>
        <time>2020-07-28T11:29:09Z</time>
      </trkpt>
      <trkpt lat="42.8014710" lon="0.4422180">
        <ele>1412.0</ele>
        <time>2020-07-28T11:29:10Z</time>
      </trkpt>
      <trkpt lat="42.8014980" lon="0.4424140">
        <ele>1413.2</ele>
        <time>2020-07-28T11:29:15Z</time>
      </trkpt>
      <trkpt lat="42.8015220" lon="0.4425730">
        <ele>1414.4</ele>
        <time>2020-07-28T11:29:19Z</time>
      </trkpt>
      <trkpt lat="42.8015460" lon="0.4427330">
        <ele>1415.4</ele>
        <time>2020-07-28T11:29:23Z</time>
      </trkpt>
      <trkpt lat="42.8015690" lon="0.4428460">
        <ele>1416.2</ele>
        <time>2020-07-28T11:29:26Z</time>
      </trkpt>
      <trkpt lat="42.8015840" lon="0.4429200">
        <ele>1416.8</ele>
        <time>2020-07-28T11:29:28Z</time>
      </trkpt>
      <trkpt lat="42.8015910" lon="0.4429570">
        <ele>1417.0</ele>
        <time>2020-07-28T11:29:29Z</time>
      </trkpt>
      <trkpt lat="42.8016280" lon="0.4431000">
        <ele>1417.6</ele>
        <time>2020-07-28T11:29:33Z</time>
      </trkpt>
      <trkpt lat="42.8016770" lon="0.4432280">
        <ele>1418.8</ele>
        <time>2020-07-28T11:29:37Z</time>
      </trkpt>
      <trkpt lat="42.8016920" lon="0.4432590">
        <ele>1419.0</ele>
        <time>2020-07-28T11:29:38Z</time>
      </trkpt>
      <trkpt lat="42.8017210" lon="0.4433190">
        <ele>1420.0</ele>
        <time>2020-07-28T11:29:40Z</time>
      </trkpt>
      <trkpt lat="42.8017810" lon="0.4434350">
        <ele>1421.0</ele>
        <time>2020-07-28T11:29:44Z</time>
      </trkpt>
      <trkpt lat="42.8018330" lon="0.4435170">
        <ele>1421.8</ele>
        <time>2020-07-28T11:29:47Z</time>
      </trkpt>
      <trkpt lat="42.8018670" lon="0.4435840">
        <ele>1422.2</ele>
        <time>2020-07-28T11:29:49Z</time>
      </trkpt>
      <trkpt lat="42.8019530" lon="0.4437410">
        <ele>1423.2</ele>
        <time>2020-07-28T11:29:54Z</time>
      </trkpt>
      <trkpt lat="42.8019690" lon="0.4437710">
        <ele>1423.6</ele>
        <time>2020-07-28T11:29:55Z</time>
      </trkpt>
      <trkpt lat="42.8020150" lon="0.4438610">
        <ele>1424.2</ele>
        <time>2020-07-28T11:29:58Z</time>
      </trkpt>
      <trkpt lat="42.8020770" lon="0.4439910">
        <ele>1425.0</ele>
        <time>2020-07-28T11:30:02Z</time>
      </trkpt>
      <trkpt lat="42.8020990" lon="0.4440620">
        <ele>1425.6</ele>
        <time>2020-07-28T11:30:04Z</time>
      </trkpt>
      <trkpt lat="42.8021100" lon="0.4441770">
        <ele>1426.6</ele>
        <time>2020-07-28T11:30:07Z</time>
      </trkpt>
      <trkpt lat="42.8020910" lon="0.4442870">
        <ele>1427.0</ele>
        <time>2020-07-28T11:30:10Z</time>
      </trkpt>
      <trkpt lat="42.8020820" lon="0.4443230">
        <ele>1427.2</ele>
        <time>2020-07-28T11:30:11Z</time>
      </trkpt>
      <trkpt lat="42.8020710" lon="0.4443980">
        <ele>1427.8</ele>
        <time>2020-07-28T11:30:13Z</time>
      </trkpt>
      <trkpt lat="42.8020500" lon="0.4445140">
        <ele>1428.6</ele>
        <time>2020-07-28T11:30:16Z</time>
      </trkpt>
      <trkpt lat="42.8020420" lon="0.4445540">
        <ele>1429.2</ele>
        <time>2020-07-28T11:30:17Z</time>
      </trkpt>
      <trkpt lat="42.8020230" lon="0.4446680">
        <ele>1429.8</ele>
        <time>2020-07-28T11:30:20Z</time>
      </trkpt>
      <trkpt lat="42.8020140" lon="0.4448240">
        <ele>1431.2</ele>
        <time>2020-07-28T11:30:24Z</time>
      </trkpt>
      <trkpt lat="42.8020130" lon="0.4448630">
        <ele>1431.4</ele>
        <time>2020-07-28T11:30:25Z</time>
      </trkpt>
      <trkpt lat="42.8020110" lon="0.4449760">
        <ele>1432.4</ele>
        <time>2020-07-28T11:30:28Z</time>
      </trkpt>
      <trkpt lat="42.8020140" lon="0.4451210">
        <ele>1433.4</ele>
        <time>2020-07-28T11:30:32Z</time>
      </trkpt>
      <trkpt lat="42.8020100" lon="0.4452000">
        <ele>1434.0</ele>
        <time>2020-07-28T11:30:34Z</time>
      </trkpt>
      <trkpt lat="42.8020090" lon="0.4452390">
        <ele>1434.6</ele>
        <time>2020-07-28T11:30:35Z</time>
      </trkpt>
      <trkpt lat="42.8019990" lon="0.4454360">
        <ele>1435.8</ele>
        <time>2020-07-28T11:30:40Z</time>
      </trkpt>
      <trkpt lat="42.8019890" lon="0.4455520">
        <ele>1436.4</ele>
        <time>2020-07-28T11:30:43Z</time>
      </trkpt>
      <trkpt lat="42.8019860" lon="0.4455910">
        <ele>1436.8</ele>
        <time>2020-07-28T11:30:44Z</time>
      </trkpt>
      <trkpt lat="42.8019800" lon="0.4457670">
        <ele>1437.8</ele>
        <time>2020-07-28T11:30:49Z</time>
      </trkpt>
      <trkpt lat="42.8019770" lon="0.4458720">
        <ele>1438.6</ele>
        <time>2020-07-28T11:30:52Z</time>
      </trkpt>
      <trkpt lat="42.8019740" lon="0.4459070">
        <ele>1438.8</ele>
        <time>2020-07-28T11:30:53Z</time>
      </trkpt>
      <trkpt lat="42.8019710" lon="0.4460500">
        <ele>1440.0</ele>
        <time>2020-07-28T11:30:57Z</time>
      </trkpt>
      <trkpt lat="42.8019680" lon="0.4461870">
        <ele>1441.0</ele>
        <time>2020-07-28T11:31:01Z</time>
      </trkpt>
      <trkpt lat="42.8019690" lon="0.4462910">
        <ele>1442.2</ele>
        <time>2020-07-28T11:31:04Z</time>
      </trkpt>
      <trkpt lat="42.8019750" lon="0.4464570">
        <ele>1443.0</ele>
        <time>2020-07-28T11:31:09Z</time>
      </trkpt>
      <trkpt lat="42.8019730" lon="0.4464900">
        <ele>1443.4</ele>
        <time>2020-07-28T11:31:10Z</time>
      </trkpt>
      <trkpt lat="42.8019630" lon="0.4466680">
        <ele>1444.4</ele>
        <time>2020-07-28T11:31:15Z</time>
      </trkpt>
      <trkpt lat="42.8019620" lon="0.4467780">
        <ele>1445.4</ele>
        <time>2020-07-28T11:31:18Z</time>
      </trkpt>
      <trkpt lat="42.8019460" lon="0.4470150">
        <ele>1446.4</ele>
        <time>2020-07-28T11:31:24Z</time>
      </trkpt>
      <trkpt lat="42.8019410" lon="0.4470880">
        <ele>1447.0</ele>
        <time>2020-07-28T11:31:26Z</time>
      </trkpt>
      <trkpt lat="42.8019280" lon="0.4471940">
        <ele>1447.6</ele>
        <time>2020-07-28T11:31:29Z</time>
      </trkpt>
      <trkpt lat="42.8019160" lon="0.4473360">
        <ele>1448.8</ele>
        <time>2020-07-28T11:31:33Z</time>
      </trkpt>
      <trkpt lat="42.8019090" lon="0.4474030">
        <ele>1449.4</ele>
        <time>2020-07-28T11:31:35Z</time>
      </trkpt>
      <trkpt lat="42.8019010" lon="0.4475030">
        <ele>1449.8</ele>
        <time>2020-07-28T11:31:38Z</time>
      </trkpt>
      <trkpt lat="42.8018920" lon="0.4476670">
        <ele>1450.8</ele>
        <time>2020-07-28T11:31:43Z</time>
      </trkpt>
      <trkpt lat="42.8018810" lon="0.4477720">
        <ele>1451.4</ele>
        <time>2020-07-28T11:31:46Z</time>
      </trkpt>
      <trkpt lat="42.8018730" lon="0.4478430">
        <ele>1451.8</ele>
        <time>2020-07-28T11:31:48Z</time>
      </trkpt>
      <trkpt lat="42.8018640" lon="0.4480110">
        <ele>1452.6</ele>
        <time>2020-07-28T11:31:53Z</time>
      </trkpt>
      <trkpt lat="42.8018580" lon="0.4480770">
        <ele>1453.0</ele>
        <time>2020-07-28T11:31:55Z</time>
      </trkpt>
      <trkpt lat="42.8018460" lon="0.4482450">
        <ele>1454.2</ele>
        <time>2020-07-28T11:32:00Z</time>
      </trkpt>
      <trkpt lat="42.8018470" lon="0.4482780">
        <ele>1454.8</ele>
        <time>2020-07-28T11:32:01Z</time>
      </trkpt>
      <trkpt lat="42.8018450" lon="0.4483430">
        <ele>1455.4</ele>
        <time>2020-07-28T11:32:03Z</time>
      </trkpt>
      <trkpt lat="42.8018390" lon="0.4485080">
        <ele>1456.4</ele>
        <time>2020-07-28T11:32:08Z</time>
      </trkpt>
      <trkpt lat="42.8018380" lon="0.4485420">
        <ele>1456.8</ele>
        <time>2020-07-28T11:32:09Z</time>
      </trkpt>
      <trkpt lat="42.8018310" lon="0.4486070">
        <ele>1457.8</ele>
        <time>2020-07-28T11:32:11Z</time>
      </trkpt>
      <trkpt lat="42.8018140" lon="0.4488090">
        <ele>1458.6</ele>
        <time>2020-07-28T11:32:17Z</time>
      </trkpt>
      <trkpt lat="42.8018120" lon="0.4488420">
        <ele>1458.8</ele>
        <time>2020-07-28T11:32:18Z</time>
      </trkpt>
      <trkpt lat="42.8017970" lon="0.4490080">
        <ele>1460.0</ele>
        <time>2020-07-28T11:32:23Z</time>
      </trkpt>
      <trkpt lat="42.8017980" lon="0.4490800">
        <ele>1460.4</ele>
        <time>2020-07-28T11:32:25Z</time>
      </trkpt>
      <trkpt lat="42.8018000" lon="0.4491840">
        <ele>1461.2</ele>
        <time>2020-07-28T11:32:28Z</time>
      </trkpt>
      <trkpt lat="42.8018080" lon="0.4492940">
        <ele>1462.6</ele>
        <time>2020-07-28T11:32:31Z</time>
      </trkpt>
      <trkpt lat="42.8018220" lon="0.4493670">
        <ele>1463.0</ele>
        <time>2020-07-28T11:32:33Z</time>
      </trkpt>
      <trkpt lat="42.8018460" lon="0.4494700">
        <ele>1463.6</ele>
        <time>2020-07-28T11:32:36Z</time>
      </trkpt>
      <trkpt lat="42.8018860" lon="0.4496450">
        <ele>1464.8</ele>
        <time>2020-07-28T11:32:41Z</time>
      </trkpt>
      <trkpt lat="42.8019350" lon="0.4498670">
        <ele>1465.8</ele>
        <time>2020-07-28T11:32:47Z</time>
      </trkpt>
      <trkpt lat="42.8019480" lon="0.4498970">
        <ele>1465.8</ele>
        <time>2020-07-28T11:32:48Z</time>
      </trkpt>
      <trkpt lat="42.8019990" lon="0.4500470">
        <ele>1466.8</ele>
        <time>2020-07-28T11:32:53Z</time>
      </trkpt>
      <trkpt lat="42.8020080" lon="0.4500820">
        <ele>1467.0</ele>
        <time>2020-07-28T11:32:54Z</time>
      </trkpt>
      <trkpt lat="42.8020430" lon="0.4502020">
        <ele>1468.0</ele>
        <time>2020-07-28T11:32:58Z</time>
      </trkpt>
      <trkpt lat="42.8020560" lon="0.4502350">
        <ele>1468.4</ele>
        <time>2020-07-28T11:32:59Z</time>
      </trkpt>
      <trkpt lat="42.8020790" lon="0.4503000">
        <ele>1469.2</ele>
        <time>2020-07-28T11:33:01Z</time>
      </trkpt>
      <trkpt lat="42.8021090" lon="0.4503970">
        <ele>1470.4</ele>
        <time>2020-07-28T11:33:04Z</time>
      </trkpt>
      <trkpt lat="42.8021600" lon="0.4505780">
        <ele>1471.4</ele>
        <time>2020-07-28T11:33:10Z</time>
      </trkpt>
      <trkpt lat="42.8021960" lon="0.4507610">
        <ele>1472.6</ele>
        <time>2020-07-28T11:33:16Z</time>
      </trkpt>
      <trkpt lat="42.8022100" lon="0.4508560">
        <ele>1473.0</ele>
        <time>2020-07-28T11:33:19Z</time>
      </trkpt>
      <trkpt lat="42.8022360" lon="0.4509730">
        <ele>1473.8</ele>
        <time>2020-07-28T11:33:23Z</time>
      </trkpt>
      <trkpt lat="42.8022400" lon="0.4510350">
        <ele>1474.4</ele>
        <time>2020-07-28T11:33:25Z</time>
      </trkpt>
      <trkpt lat="42.8022520" lon="0.4510940">
        <ele>1475.0</ele>
        <time>2020-07-28T11:33:27Z</time>
      </trkpt>
      <trkpt lat="42.8022670" lon="0.4512260">
        <ele>1476.6</ele>
        <time>2020-07-28T11:33:31Z</time>
      </trkpt>
      <trkpt lat="42.8022880" lon="0.4513640">
        <ele>1477.8</ele>
        <time>2020-07-28T11:33:35Z</time>
      </trkpt>
      <trkpt lat="42.8023000" lon="0.4514610">
        <ele>1478.0</ele>
        <time>2020-07-28T11:33:38Z</time>
      </trkpt>
      <trkpt lat="42.8023030" lon="0.4516600">
        <ele>1478.8</ele>
        <time>2020-07-28T11:33:44Z</time>
      </trkpt>
      <trkpt lat="42.8023070" lon="0.4517960">
        <ele>1479.2</ele>
        <time>2020-07-28T11:33:48Z</time>
      </trkpt>
      <trkpt lat="42.8023020" lon="0.4518660">
        <ele>1479.6</ele>
        <time>2020-07-28T11:33:50Z</time>
      </trkpt>
      <trkpt lat="42.8022980" lon="0.4520030">
        <ele>1480.8</ele>
        <time>2020-07-28T11:33:54Z</time>
      </trkpt>
      <trkpt lat="42.8022980" lon="0.4520390">
        <ele>1481.0</ele>
        <time>2020-07-28T11:33:55Z</time>
      </trkpt>
      <trkpt lat="42.8023010" lon="0.4521470">
        <ele>1481.8</ele>
        <time>2020-07-28T11:33:58Z</time>
      </trkpt>
      <trkpt lat="42.8023090" lon="0.4522930">
        <ele>1482.8</ele>
        <time>2020-07-28T11:34:02Z</time>
      </trkpt>
      <trkpt lat="42.8023140" lon="0.4523300">
        <ele>1483.0</ele>
        <time>2020-07-28T11:34:03Z</time>
      </trkpt>
      <trkpt lat="42.8023340" lon="0.4524750">
        <ele>1484.2</ele>
        <time>2020-07-28T11:34:07Z</time>
      </trkpt>
      <trkpt lat="42.8023270" lon="0.4526240">
        <ele>1484.8</ele>
        <time>2020-07-28T11:34:11Z</time>
      </trkpt>
      <trkpt lat="42.8023210" lon="0.4526610">
        <ele>1485.2</ele>
        <time>2020-07-28T11:34:12Z</time>
      </trkpt>
      <trkpt lat="42.8022710" lon="0.4528300">
        <ele>1486.2</ele>
        <time>2020-07-28T11:34:17Z</time>
      </trkpt>
      <trkpt lat="42.8022590" lon="0.4528590">
        <ele>1486.6</ele>
        <time>2020-07-28T11:34:18Z</time>
      </trkpt>
      <trkpt lat="42.8022040" lon="0.4529740">
        <ele>1487.8</ele>
        <time>2020-07-28T11:34:22Z</time>
      </trkpt>
      <trkpt lat="42.8021480" lon="0.4530870">
        <ele>1488.8</ele>
        <time>2020-07-28T11:34:26Z</time>
      </trkpt>
      <trkpt lat="42.8021320" lon="0.4531160">
        <ele>1489.0</ele>
        <time>2020-07-28T11:34:27Z</time>
      </trkpt>
      <trkpt lat="42.8020850" lon="0.4532400">
        <ele>1490.0</ele>
        <time>2020-07-28T11:34:31Z</time>
      </trkpt>
      <trkpt lat="42.8020560" lon="0.4533340">
        <ele>1490.8</ele>
        <time>2020-07-28T11:34:34Z</time>
      </trkpt>
      <trkpt lat="42.8020480" lon="0.4533650">
        <ele>1491.2</ele>
        <time>2020-07-28T11:34:35Z</time>
      </trkpt>
      <trkpt lat="42.8020310" lon="0.4535190">
        <ele>1492.4</ele>
        <time>2020-07-28T11:34:40Z</time>
      </trkpt>
      <trkpt lat="42.8020290" lon="0.4535500">
        <ele>1492.6</ele>
        <time>2020-07-28T11:34:41Z</time>
      </trkpt>
      <trkpt lat="42.8020280" lon="0.4536740">
        <ele>1493.4</ele>
        <time>2020-07-28T11:34:45Z</time>
      </trkpt>
      <trkpt lat="42.8020210" lon="0.4538350">
        <ele>1494.6</ele>
        <time>2020-07-28T11:34:50Z</time>
      </trkpt>
      <trkpt lat="42.8020200" lon="0.4540210">
        <ele>1495.8</ele>
        <time>2020-07-28T11:34:56Z</time>
      </trkpt>
      <trkpt lat="42.8020200" lon="0.4541140">
        <ele>1496.4</ele>
        <time>2020-07-28T11:34:59Z</time>
      </trkpt>
      <trkpt lat="42.8020240" lon="0.4541710">
        <ele>1496.8</ele>
        <time>2020-07-28T11:35:01Z</time>
      </trkpt>
      <trkpt lat="42.8020270" lon="0.4542350">
        <ele>1497.2</ele>
        <time>2020-07-28T11:35:03Z</time>
      </trkpt>
      <trkpt lat="42.8020200" lon="0.4543980">
        <ele>1498.0</ele>
        <time>2020-07-28T11:35:08Z</time>
      </trkpt>
      <trkpt lat="42.8019990" lon="0.4545930">
        <ele>1499.0</ele>
        <time>2020-07-28T11:35:14Z</time>
      </trkpt>
      <trkpt lat="42.8019900" lon="0.4546590">
        <ele>1499.6</ele>
        <time>2020-07-28T11:35:16Z</time>
      </trkpt>
      <trkpt lat="42.8019800" lon="0.4547240">
        <ele>1500.0</ele>
        <time>2020-07-28T11:35:18Z</time>
      </trkpt>
      <trkpt lat="42.8019560" lon="0.4548470">
        <ele>1501.2</ele>
        <time>2020-07-28T11:35:22Z</time>
      </trkpt>
      <trkpt lat="42.8019360" lon="0.4549420">
        <ele>1501.8</ele>
        <time>2020-07-28T11:35:25Z</time>
      </trkpt>
      <trkpt lat="42.8019210" lon="0.4550380">
        <ele>1502.4</ele>
        <time>2020-07-28T11:35:28Z</time>
      </trkpt>
      <trkpt lat="42.8018910" lon="0.4551990">
        <ele>1503.2</ele>
        <time>2020-07-28T11:35:33Z</time>
      </trkpt>
      <trkpt lat="42.8018870" lon="0.4552320">
        <ele>1503.6</ele>
        <time>2020-07-28T11:35:34Z</time>
      </trkpt>
      <trkpt lat="42.8018810" lon="0.4553350">
        <ele>1504.2</ele>
        <time>2020-07-28T11:35:37Z</time>
      </trkpt>
      <trkpt lat="42.8018640" lon="0.4555050">
        <ele>1505.4</ele>
        <time>2020-07-28T11:35:42Z</time>
      </trkpt>
      <trkpt lat="42.8018620" lon="0.4555380">
        <ele>1505.6</ele>
        <time>2020-07-28T11:35:43Z</time>
      </trkpt>
      <trkpt lat="42.8018580" lon="0.4556690">
        <ele>1506.6</ele>
        <time>2020-07-28T11:35:47Z</time>
      </trkpt>
      <trkpt lat="42.8018500" lon="0.4558000">
        <ele>1507.6</ele>
        <time>2020-07-28T11:35:51Z</time>
      </trkpt>
      <trkpt lat="42.8018440" lon="0.4558670">
        <ele>1508.4</ele>
        <time>2020-07-28T11:35:53Z</time>
      </trkpt>
      <trkpt lat="42.8018390" lon="0.4559000">
        <ele>1508.6</ele>
        <time>2020-07-28T11:35:54Z</time>
      </trkpt>
      <trkpt lat="42.8018260" lon="0.4560640">
        <ele>1509.8</ele>
        <time>2020-07-28T11:35:59Z</time>
      </trkpt>
      <trkpt lat="42.8018190" lon="0.4561300">
        <ele>1510.0</ele>
        <time>2020-07-28T11:36:01Z</time>
      </trkpt>
      <trkpt lat="42.8018030" lon="0.4562630">
        <ele>1510.8</ele>
        <time>2020-07-28T11:36:05Z</time>
      </trkpt>
      <trkpt lat="42.8017870" lon="0.4563950">
        <ele>1511.4</ele>
        <time>2020-07-28T11:36:09Z</time>
      </trkpt>
      <trkpt lat="42.8017780" lon="0.4564630">
        <ele>1511.8</ele>
        <time>2020-07-28T11:36:11Z</time>
      </trkpt>
      <trkpt lat="42.8017610" lon="0.4565940">
        <ele>1512.8</ele>
        <time>2020-07-28T11:36:15Z</time>
      </trkpt>
      <trkpt lat="42.8017420" lon="0.4567550">
        <ele>1514.0</ele>
        <time>2020-07-28T11:36:20Z</time>
      </trkpt>
      <trkpt lat="42.8017330" lon="0.4567860">
        <ele>1514.4</ele>
        <time>2020-07-28T11:36:21Z</time>
      </trkpt>
      <trkpt lat="42.8017180" lon="0.4568850">
        <ele>1515.0</ele>
        <time>2020-07-28T11:36:24Z</time>
      </trkpt>
      <trkpt lat="42.8017020" lon="0.4570600">
        <ele>1516.2</ele>
        <time>2020-07-28T11:36:29Z</time>
      </trkpt>
      <trkpt lat="42.8017030" lon="0.4572530">
        <ele>1517.2</ele>
        <time>2020-07-28T11:36:34Z</time>
      </trkpt>
      <trkpt lat="42.8017060" lon="0.4573690">
        <ele>1517.8</ele>
        <time>2020-07-28T11:36:37Z</time>
      </trkpt>
      <trkpt lat="42.8017180" lon="0.4574420">
        <ele>1518.4</ele>
        <time>2020-07-28T11:36:39Z</time>
      </trkpt>
      <trkpt lat="42.8017400" lon="0.4575830">
        <ele>1519.4</ele>
        <time>2020-07-28T11:36:43Z</time>
      </trkpt>
      <trkpt lat="42.8017540" lon="0.4576520">
        <ele>1520.4</ele>
        <time>2020-07-28T11:36:45Z</time>
      </trkpt>
      <trkpt lat="42.8017600" lon="0.4576840">
        <ele>1520.6</ele>
        <time>2020-07-28T11:36:46Z</time>
      </trkpt>
      <trkpt lat="42.8017720" lon="0.4578180">
        <ele>1521.2</ele>
        <time>2020-07-28T11:36:50Z</time>
      </trkpt>
      <trkpt lat="42.8017740" lon="0.4578510">
        <ele>1521.6</ele>
        <time>2020-07-28T11:36:51Z</time>
      </trkpt>
      <trkpt lat="42.8017830" lon="0.4579460">
        <ele>1522.4</ele>
        <time>2020-07-28T11:36:54Z</time>
      </trkpt>
      <trkpt lat="42.8017860" lon="0.4579770">
        <ele>1522.6</ele>
        <time>2020-07-28T11:36:55Z</time>
      </trkpt>
      <trkpt lat="42.8017960" lon="0.4581010">
        <ele>1523.8</ele>
        <time>2020-07-28T11:36:59Z</time>
      </trkpt>
      <trkpt lat="42.8018070" lon="0.4581970">
        <ele>1524.2</ele>
        <time>2020-07-28T11:37:02Z</time>
      </trkpt>
      <trkpt lat="42.8018080" lon="0.4582280">
        <ele>1524.6</ele>
        <time>2020-07-28T11:37:03Z</time>
      </trkpt>
      <trkpt lat="42.8017970" lon="0.4583980">
        <ele>1525.6</ele>
        <time>2020-07-28T11:37:08Z</time>
      </trkpt>
      <trkpt lat="42.8018200" lon="0.4585690">
        <ele>1526.6</ele>
        <time>2020-07-28T11:37:13Z</time>
      </trkpt>
      <trkpt lat="42.8018300" lon="0.4586800">
        <ele>1527.4</ele>
        <time>2020-07-28T11:37:16Z</time>
      </trkpt>
      <trkpt lat="42.8018330" lon="0.4587110">
        <ele>1527.8</ele>
        <time>2020-07-28T11:37:17Z</time>
      </trkpt>
      <trkpt lat="42.8018470" lon="0.4588430">
        <ele>1528.8</ele>
        <time>2020-07-28T11:37:21Z</time>
      </trkpt>
      <trkpt lat="42.8018480" lon="0.4588770">
        <ele>1529.0</ele>
        <time>2020-07-28T11:37:22Z</time>
      </trkpt>
      <trkpt lat="42.8018530" lon="0.4589810">
        <ele>1530.0</ele>
        <time>2020-07-28T11:37:25Z</time>
      </trkpt>
      <trkpt lat="42.8018630" lon="0.4591160">
        <ele>1531.2</ele>
        <time>2020-07-28T11:37:29Z</time>
      </trkpt>
      <trkpt lat="42.8018710" lon="0.4591840">
        <ele>1531.4</ele>
        <time>2020-07-28T11:37:31Z</time>
      </trkpt>
      <trkpt lat="42.8018800" lon="0.4592900">
        <ele>1532.4</ele>
        <time>2020-07-28T11:37:34Z</time>
      </trkpt>
      <trkpt lat="42.8018870" lon="0.4594440">
        <ele>1533.2</ele>
        <time>2020-07-28T11:37:38Z</time>
      </trkpt>
      <trkpt lat="42.8018900" lon="0.4594860">
        <ele>1533.4</ele>
        <time>2020-07-28T11:37:39Z</time>
      </trkpt>
      <trkpt lat="42.8018950" lon="0.4596150">
        <ele>1534.4</ele>
        <time>2020-07-28T11:37:42Z</time>
      </trkpt>
      <trkpt lat="42.8019240" lon="0.4598050">
        <ele>1535.2</ele>
        <time>2020-07-28T11:37:47Z</time>
      </trkpt>
      <trkpt lat="42.8019310" lon="0.4598400">
        <ele>1535.4</ele>
        <time>2020-07-28T11:37:48Z</time>
      </trkpt>
      <trkpt lat="42.8019580" lon="0.4600190">
        <ele>1536.4</ele>
        <time>2020-07-28T11:37:53Z</time>
      </trkpt>
      <trkpt lat="42.8019720" lon="0.4601670">
        <ele>1537.2</ele>
        <time>2020-07-28T11:37:57Z</time>
      </trkpt>
      <trkpt lat="42.8019780" lon="0.4602040">
        <ele>1537.4</ele>
        <time>2020-07-28T11:37:58Z</time>
      </trkpt>
      <trkpt lat="42.8020040" lon="0.4604380">
        <ele>1538.6</ele>
        <time>2020-07-28T11:38:04Z</time>
      </trkpt>
      <trkpt lat="42.8020220" lon="0.4605620">
        <ele>1539.0</ele>
        <time>2020-07-28T11:38:07Z</time>
      </trkpt>
      <trkpt lat="42.8020360" lon="0.4606880">
        <ele>1539.6</ele>
        <time>2020-07-28T11:38:10Z</time>
      </trkpt>
      <trkpt lat="42.8020600" lon="0.4608960">
        <ele>1540.4</ele>
        <time>2020-07-28T11:38:15Z</time>
      </trkpt>
      <trkpt lat="42.8020650" lon="0.4609360">
        <ele>1540.6</ele>
        <time>2020-07-28T11:38:16Z</time>
      </trkpt>
      <trkpt lat="42.8020870" lon="0.4611380">
        <ele>1541.6</ele>
        <time>2020-07-28T11:38:21Z</time>
      </trkpt>
      <trkpt lat="42.8021050" lon="0.4613020">
        <ele>1542.2</ele>
        <time>2020-07-28T11:38:25Z</time>
      </trkpt>
      <trkpt lat="42.8021300" lon="0.4614760">
        <ele>1542.6</ele>
        <time>2020-07-28T11:38:29Z</time>
      </trkpt>
      <trkpt lat="42.8021400" lon="0.4616100">
        <ele>1542.6</ele>
        <time>2020-07-28T11:38:32Z</time>
      </trkpt>
      <trkpt lat="42.8021480" lon="0.4617040">
        <ele>1542.8</ele>
        <time>2020-07-28T11:38:34Z</time>
      </trkpt>
      <trkpt lat="42.8021740" lon="0.4618950">
        <ele>1543.4</ele>
        <time>2020-07-28T11:38:38Z</time>
      </trkpt>
      <trkpt lat="42.8022000" lon="0.4622450">
        <ele>1544.2</ele>
        <time>2020-07-28T11:38:45Z</time>
      </trkpt>
      <trkpt lat="42.8022060" lon="0.4622930">
        <ele>1544.4</ele>
        <time>2020-07-28T11:38:46Z</time>
      </trkpt>
      <trkpt lat="42.8022440" lon="0.4626260">
        <ele>1545.2</ele>
        <time>2020-07-28T11:38:53Z</time>
      </trkpt>
      <trkpt lat="42.8022550" lon="0.4627230">
        <ele>1545.6</ele>
        <time>2020-07-28T11:38:55Z</time>
      </trkpt>
      <trkpt lat="42.8023010" lon="0.4631770">
        <ele>1545.6</ele>
        <time>2020-07-28T11:46:48Z</time>
      </trkpt>
      <trkpt lat="42.8022960" lon="0.4632120">
        <ele>1545.8</ele>
        <time>2020-07-28T11:46:49Z</time>
      </trkpt>
      <trkpt lat="42.8022990" lon="0.4633960">
        <ele>1545.8</ele>
        <time>2020-07-28T11:46:52Z</time>
      </trkpt>
      <trkpt lat="42.8023280" lon="0.4637400">
        <ele>1545.4</ele>
        <time>2020-07-28T11:46:56Z</time>
      </trkpt>
      <trkpt lat="42.8023460" lon="0.4638410">
        <ele>1545.4</ele>
        <time>2020-07-28T11:46:57Z</time>
      </trkpt>
      <trkpt lat="42.8024770" lon="0.4643020">
        <ele>1544.2</ele>
        <time>2020-07-28T11:47:01Z</time>
      </trkpt>
      <trkpt lat="42.8025480" lon="0.4645790">
        <ele>1543.0</ele>
        <time>2020-07-28T11:47:03Z</time>
      </trkpt>
      <trkpt lat="42.8026190" lon="0.4648810">
        <ele>1541.8</ele>
        <time>2020-07-28T11:47:05Z</time>
      </trkpt>
      <trkpt lat="42.8026570" lon="0.4650380">
        <ele>1540.4</ele>
        <time>2020-07-28T11:47:06Z</time>
      </trkpt>
      <trkpt lat="42.8027410" lon="0.4653660">
        <ele>1539.4</ele>
        <time>2020-07-28T11:47:08Z</time>
      </trkpt>
      <trkpt lat="42.8028340" lon="0.4657120">
        <ele>1537.6</ele>
        <time>2020-07-28T11:47:10Z</time>
      </trkpt>
      <trkpt lat="42.8028800" lon="0.4658880">
        <ele>1536.4</ele>
        <time>2020-07-28T11:47:11Z</time>
      </trkpt>
      <trkpt lat="42.8029280" lon="0.4660600">
        <ele>1535.0</ele>
        <time>2020-07-28T11:47:12Z</time>
      </trkpt>
      <trkpt lat="42.8029820" lon="0.4662290">
        <ele>1533.4</ele>
        <time>2020-07-28T11:47:13Z</time>
      </trkpt>
      <trkpt lat="42.8030460" lon="0.4663920">
        <ele>1532.0</ele>
        <time>2020-07-28T11:47:14Z</time>
      </trkpt>
      <trkpt lat="42.8031200" lon="0.4665460">
        <ele>1530.8</ele>
        <time>2020-07-28T11:47:15Z</time>
      </trkpt>
      <trkpt lat="42.8032020" lon="0.4666920">
        <ele>1529.6</ele>
        <time>2020-07-28T11:47:16Z</time>
      </trkpt>
      <trkpt lat="42.8032900" lon="0.4668330">
        <ele>1528.4</ele>
        <time>2020-07-28T11:47:17Z</time>
      </trkpt>
      <trkpt lat="42.8033830" lon="0.4669690">
        <ele>1527.0</ele>
        <time>2020-07-28T11:47:18Z</time>
      </trkpt>
      <trkpt lat="42.8034770" lon="0.4671030">
        <ele>1524.8</ele>
        <time>2020-07-28T11:47:19Z</time>
      </trkpt>
      <trkpt lat="42.8035700" lon="0.4672360">
        <ele>1522.6</ele>
        <time>2020-07-28T11:47:20Z</time>
      </trkpt>
      <trkpt lat="42.8036630" lon="0.4673690">
        <ele>1520.6</ele>
        <time>2020-07-28T11:47:21Z</time>
      </trkpt>
      <trkpt lat="42.8037580" lon="0.4675010">
        <ele>1519.2</ele>
        <time>2020-07-28T11:47:22Z</time>
      </trkpt>
      <trkpt lat="42.8038560" lon="0.4676320">
        <ele>1517.8</ele>
        <time>2020-07-28T11:47:23Z</time>
      </trkpt>
      <trkpt lat="42.8039560" lon="0.4677600">
        <ele>1516.6</ele>
        <time>2020-07-28T11:47:24Z</time>
      </trkpt>
      <trkpt lat="42.8040560" lon="0.4678870">
        <ele>1515.4</ele>
        <time>2020-07-28T11:47:25Z</time>
      </trkpt>
      <trkpt lat="42.8041510" lon="0.4680090">
        <ele>1514.6</ele>
        <time>2020-07-28T11:47:26Z</time>
      </trkpt>
      <trkpt lat="42.8042400" lon="0.4681240">
        <ele>1513.4</ele>
        <time>2020-07-28T11:47:27Z</time>
      </trkpt>
      <trkpt lat="42.8044100" lon="0.4683270">
        <ele>1511.4</ele>
        <time>2020-07-28T11:47:29Z</time>
      </trkpt>
      <trkpt lat="42.8044930" lon="0.4684100">
        <ele>1510.2</ele>
        <time>2020-07-28T11:47:30Z</time>
      </trkpt>
      <trkpt lat="42.8045760" lon="0.4684810">
        <ele>1509.2</ele>
        <time>2020-07-28T11:47:31Z</time>
      </trkpt>
      <trkpt lat="42.8046550" lon="0.4685390">
        <ele>1507.8</ele>
        <time>2020-07-28T11:47:32Z</time>
      </trkpt>
      <trkpt lat="42.8047210" lon="0.4685940">
        <ele>1505.4</ele>
        <time>2020-07-28T11:47:33Z</time>
      </trkpt>
      <trkpt lat="42.8047830" lon="0.4687230">
        <ele>1504.0</ele>
        <time>2020-07-28T11:47:35Z</time>
      </trkpt>
      <trkpt lat="42.8047200" lon="0.4688070">
        <ele>1503.2</ele>
        <time>2020-07-28T11:47:37Z</time>
      </trkpt>
      <trkpt lat="42.8046610" lon="0.4687990">
        <ele>1503.0</ele>
        <time>2020-07-28T11:47:38Z</time>
      </trkpt>
      <trkpt lat="42.8046010" lon="0.4687550">
        <ele>1502.8</ele>
        <time>2020-07-28T11:47:39Z</time>
      </trkpt>
      <trkpt lat="42.8044000" lon="0.4685510">
        <ele>1502.4</ele>
        <time>2020-07-28T11:47:42Z</time>
      </trkpt>
      <trkpt lat="42.8043180" lon="0.4684820">
        <ele>1502.2</ele>
        <time>2020-07-28T11:47:43Z</time>
      </trkpt>
      <trkpt lat="42.8042310" lon="0.4684080">
        <ele>1502.0</ele>
        <time>2020-07-28T11:47:44Z</time>
      </trkpt>
      <trkpt lat="42.8040400" lon="0.4682530">
        <ele>1501.6</ele>
        <time>2020-07-28T11:47:46Z</time>
      </trkpt>
      <trkpt lat="42.8038320" lon="0.4680960">
        <ele>1500.6</ele>
        <time>2020-07-28T11:47:48Z</time>
      </trkpt>
      <trkpt lat="42.8036100" lon="0.4679390">
        <ele>1498.8</ele>
        <time>2020-07-28T11:47:50Z</time>
      </trkpt>
      <trkpt lat="42.8034930" lon="0.4678590">
        <ele>1497.8</ele>
        <time>2020-07-28T11:47:51Z</time>
      </trkpt>
      <trkpt lat="42.8033750" lon="0.4677760">
        <ele>1496.6</ele>
        <time>2020-07-28T11:47:52Z</time>
      </trkpt>
      <trkpt lat="42.8032550" lon="0.4676900">
        <ele>1495.6</ele>
        <time>2020-07-28T11:47:53Z</time>
      </trkpt>
      <trkpt lat="42.8031330" lon="0.4676020">
        <ele>1494.4</ele>
        <time>2020-07-28T11:47:54Z</time>
      </trkpt>
      <trkpt lat="42.8030090" lon="0.4675130">
        <ele>1493.0</ele>
        <time>2020-07-28T11:47:55Z</time>
      </trkpt>
      <trkpt lat="42.8028830" lon="0.4674240">
        <ele>1491.8</ele>
        <time>2020-07-28T11:47:56Z</time>
      </trkpt>
      <trkpt lat="42.8027530" lon="0.4673390">
        <ele>1490.8</ele>
        <time>2020-07-28T11:47:57Z</time>
      </trkpt>
      <trkpt lat="42.8026230" lon="0.4672580">
        <ele>1489.6</ele>
        <time>2020-07-28T11:47:58Z</time>
      </trkpt>
      <trkpt lat="42.8024960" lon="0.4671820">
        <ele>1488.2</ele>
        <time>2020-07-28T11:47:59Z</time>
      </trkpt>
      <trkpt lat="42.8023730" lon="0.4671140">
        <ele>1485.6</ele>
        <time>2020-07-28T11:48:00Z</time>
      </trkpt>
      <trkpt lat="42.8022510" lon="0.4670550">
        <ele>1484.0</ele>
        <time>2020-07-28T11:48:01Z</time>
      </trkpt>
      <trkpt lat="42.8021320" lon="0.4670070">
        <ele>1482.6</ele>
        <time>2020-07-28T11:48:02Z</time>
      </trkpt>
      <trkpt lat="42.8020180" lon="0.4669670">
        <ele>1481.2</ele>
        <time>2020-07-28T11:48:03Z</time>
      </trkpt>
      <trkpt lat="42.8019120" lon="0.4669330">
        <ele>1480.0</ele>
        <time>2020-07-28T11:48:04Z</time>
      </trkpt>
      <trkpt lat="42.8018100" lon="0.4669160">
        <ele>1478.6</ele>
        <time>2020-07-28T11:48:05Z</time>
      </trkpt>
      <trkpt lat="42.8017190" lon="0.4669290">
        <ele>1477.4</ele>
        <time>2020-07-28T11:48:06Z</time>
      </trkpt>
      <trkpt lat="42.8015960" lon="0.4670630">
        <ele>1475.6</ele>
        <time>2020-07-28T11:48:08Z</time>
      </trkpt>
      <trkpt lat="42.8016350" lon="0.4672500">
        <ele>1474.0</ele>
        <time>2020-07-28T11:48:10Z</time>
      </trkpt>
      <trkpt lat="42.8017840" lon="0.4673220">
        <ele>1473.4</ele>
        <time>2020-07-28T11:48:12Z</time>
      </trkpt>
      <trkpt lat="42.8018730" lon="0.4673260">
        <ele>1473.2</ele>
        <time>2020-07-28T11:48:13Z</time>
      </trkpt>
      <trkpt lat="42.8019680" lon="0.4673350">
        <ele>1473.2</ele>
        <time>2020-07-28T11:48:14Z</time>
      </trkpt>
      <trkpt lat="42.8020680" lon="0.4673640">
        <ele>1473.0</ele>
        <time>2020-07-28T11:48:15Z</time>
      </trkpt>
      <trkpt lat="42.8021700" lon="0.4674200">
        <ele>1472.8</ele>
        <time>2020-07-28T11:48:16Z</time>
      </trkpt>
      <trkpt lat="42.8023720" lon="0.4675830">
        <ele>1472.0</ele>
        <time>2020-07-28T11:48:18Z</time>
      </trkpt>
      <trkpt lat="42.8024750" lon="0.4676800">
        <ele>1471.8</ele>
        <time>2020-07-28T11:48:19Z</time>
      </trkpt>
      <trkpt lat="42.8025740" lon="0.4677880">
        <ele>1471.4</ele>
        <time>2020-07-28T11:48:20Z</time>
      </trkpt>
      <trkpt lat="42.8026680" lon="0.4679100">
        <ele>1470.6</ele>
        <time>2020-07-28T11:48:21Z</time>
      </trkpt>
      <trkpt lat="42.8028600" lon="0.4681700">
        <ele>1468.6</ele>
        <time>2020-07-28T11:48:23Z</time>
      </trkpt>
      <trkpt lat="42.8029590" lon="0.4682990">
        <ele>1467.4</ele>
        <time>2020-07-28T11:48:24Z</time>
      </trkpt>
      <trkpt lat="42.8030630" lon="0.4684230">
        <ele>1466.0</ele>
        <time>2020-07-28T11:48:25Z</time>
      </trkpt>
      <trkpt lat="42.8031690" lon="0.4685460">
        <ele>1464.4</ele>
        <time>2020-07-28T11:48:26Z</time>
      </trkpt>
      <trkpt lat="42.8032750" lon="0.4686700">
        <ele>1463.2</ele>
        <time>2020-07-28T11:48:27Z</time>
      </trkpt>
      <trkpt lat="42.8033830" lon="0.4687930">
        <ele>1460.6</ele>
        <time>2020-07-28T11:48:28Z</time>
      </trkpt>
      <trkpt lat="42.8034880" lon="0.4689080">
        <ele>1459.2</ele>
        <time>2020-07-28T11:48:29Z</time>
      </trkpt>
      <trkpt lat="42.8035860" lon="0.4690160">
        <ele>1457.4</ele>
        <time>2020-07-28T11:48:30Z</time>
      </trkpt>
      <trkpt lat="42.8036780" lon="0.4691150">
        <ele>1455.6</ele>
        <time>2020-07-28T11:48:31Z</time>
      </trkpt>
      <trkpt lat="42.8037620" lon="0.4692040">
        <ele>1454.0</ele>
        <time>2020-07-28T11:48:32Z</time>
      </trkpt>
      <trkpt lat="42.8038350" lon="0.4692820">
        <ele>1452.8</ele>
        <time>2020-07-28T11:48:33Z</time>
      </trkpt>
      <trkpt lat="42.8038880" lon="0.4693570">
        <ele>1451.4</ele>
        <time>2020-07-28T11:48:34Z</time>
      </trkpt>
      <trkpt lat="42.8039080" lon="0.4694360">
        <ele>1450.0</ele>
        <time>2020-07-28T11:48:35Z</time>
      </trkpt>
      <trkpt lat="42.8038420" lon="0.4695410">
        <ele>1448.8</ele>
        <time>2020-07-28T11:48:37Z</time>
      </trkpt>
      <trkpt lat="42.8037170" lon="0.4694780">
        <ele>1448.2</ele>
        <time>2020-07-28T11:48:39Z</time>
      </trkpt>
      <trkpt lat="42.8036050" lon="0.4693100">
        <ele>1447.8</ele>
        <time>2020-07-28T11:48:41Z</time>
      </trkpt>
      <trkpt lat="42.8035330" lon="0.4692270">
        <ele>1447.6</ele>
        <time>2020-07-28T11:48:42Z</time>
      </trkpt>
      <trkpt lat="42.8032560" lon="0.4690350">
        <ele>1447.0</ele>
        <time>2020-07-28T11:48:45Z</time>
      </trkpt>
      <trkpt lat="42.8029010" lon="0.4689070">
        <ele>1446.6</ele>
        <time>2020-07-28T11:48:48Z</time>
      </trkpt>
      <trkpt lat="42.8027710" lon="0.4688890">
        <ele>1446.0</ele>
        <time>2020-07-28T11:48:49Z</time>
      </trkpt>
      <trkpt lat="42.8026370" lon="0.4688840">
        <ele>1445.2</ele>
        <time>2020-07-28T11:48:50Z</time>
      </trkpt>
      <trkpt lat="42.8025020" lon="0.4688890">
        <ele>1444.2</ele>
        <time>2020-07-28T11:48:51Z</time>
      </trkpt>
      <trkpt lat="42.8022400" lon="0.4689440">
        <ele>1442.0</ele>
        <time>2020-07-28T11:48:53Z</time>
      </trkpt>
      <trkpt lat="42.8021230" lon="0.4689840">
        <ele>1440.8</ele>
        <time>2020-07-28T11:48:54Z</time>
      </trkpt>
      <trkpt lat="42.8020130" lon="0.4690310">
        <ele>1438.2</ele>
        <time>2020-07-28T11:48:55Z</time>
      </trkpt>
      <trkpt lat="42.8019130" lon="0.4690970">
        <ele>1436.6</ele>
        <time>2020-07-28T11:48:56Z</time>
      </trkpt>
      <trkpt lat="42.8018280" lon="0.4692040">
        <ele>1435.2</ele>
        <time>2020-07-28T11:48:57Z</time>
      </trkpt>
      <trkpt lat="42.8017620" lon="0.4693430">
        <ele>1433.8</ele>
        <time>2020-07-28T11:48:58Z</time>
      </trkpt>
      <trkpt lat="42.8017210" lon="0.4695010">
        <ele>1432.4</ele>
        <time>2020-07-28T11:48:59Z</time>
      </trkpt>
      <trkpt lat="42.8016970" lon="0.4696720">
        <ele>1430.8</ele>
        <time>2020-07-28T11:49:00Z</time>
      </trkpt>
      <trkpt lat="42.8016810" lon="0.4698500">
        <ele>1430.0</ele>
        <time>2020-07-28T11:49:01Z</time>
      </trkpt>
      <trkpt lat="42.8016640" lon="0.4700300">
        <ele>1429.4</ele>
        <time>2020-07-28T11:49:02Z</time>
      </trkpt>
      <trkpt lat="42.8016410" lon="0.4702120">
        <ele>1428.8</ele>
        <time>2020-07-28T11:49:03Z</time>
      </trkpt>
      <trkpt lat="42.8016100" lon="0.4703940">
        <ele>1428.4</ele>
        <time>2020-07-28T11:49:04Z</time>
      </trkpt>
      <trkpt lat="42.8015730" lon="0.4705770">
        <ele>1427.2</ele>
        <time>2020-07-28T11:49:05Z</time>
      </trkpt>
      <trkpt lat="42.8015320" lon="0.4707590">
        <ele>1425.8</ele>
        <time>2020-07-28T11:49:06Z</time>
      </trkpt>
      <trkpt lat="42.8014880" lon="0.4709440">
        <ele>1424.2</ele>
        <time>2020-07-28T11:49:07Z</time>
      </trkpt>
      <trkpt lat="42.8014480" lon="0.4711320">
        <ele>1422.8</ele>
        <time>2020-07-28T11:49:08Z</time>
      </trkpt>
      <trkpt lat="42.8014210" lon="0.4713260">
        <ele>1421.4</ele>
        <time>2020-07-28T11:49:09Z</time>
      </trkpt>
      <trkpt lat="42.8014170" lon="0.4715250">
        <ele>1420.0</ele>
        <time>2020-07-28T11:49:10Z</time>
      </trkpt>
      <trkpt lat="42.8014320" lon="0.4717250">
        <ele>1418.6</ele>
        <time>2020-07-28T11:49:11Z</time>
      </trkpt>
      <trkpt lat="42.8014600" lon="0.4719220">
        <ele>1417.4</ele>
        <time>2020-07-28T11:49:12Z</time>
      </trkpt>
      <trkpt lat="42.8015030" lon="0.4721150">
        <ele>1416.0</ele>
        <time>2020-07-28T11:49:13Z</time>
      </trkpt>
      <trkpt lat="42.8015590" lon="0.4723010">
        <ele>1414.8</ele>
        <time>2020-07-28T11:49:14Z</time>
      </trkpt>
      <trkpt lat="42.8016290" lon="0.4724780">
        <ele>1413.6</ele>
        <time>2020-07-28T11:49:15Z</time>
      </trkpt>
      <trkpt lat="42.8017180" lon="0.4726350">
        <ele>1412.4</ele>
        <time>2020-07-28T11:49:16Z</time>
      </trkpt>
      <trkpt lat="42.8018180" lon="0.4727780">
        <ele>1411.2</ele>
        <time>2020-07-28T11:49:17Z</time>
      </trkpt>
      <trkpt lat="42.8019250" lon="0.4729080">
        <ele>1409.8</ele>
        <time>2020-07-28T11:49:18Z</time>
      </trkpt>
      <trkpt lat="42.8020280" lon="0.4730380">
        <ele>1408.2</ele>
        <time>2020-07-28T11:49:19Z</time>
      </trkpt>
      <trkpt lat="42.8021170" lon="0.4731850">
        <ele>1406.8</ele>
        <time>2020-07-28T11:49:20Z</time>
      </trkpt>
      <trkpt lat="42.8021890" lon="0.4733460">
        <ele>1405.4</ele>
        <time>2020-07-28T11:49:21Z</time>
      </trkpt>
      <trkpt lat="42.8022470" lon="0.4735170">
        <ele>1402.4</ele>
        <time>2020-07-28T11:49:22Z</time>
      </trkpt>
      <trkpt lat="42.8022990" lon="0.4736920">
        <ele>1401.4</ele>
        <time>2020-07-28T11:49:23Z</time>
      </trkpt>
      <trkpt lat="42.8023600" lon="0.4738640">
        <ele>1400.2</ele>
        <time>2020-07-28T11:49:24Z</time>
      </trkpt>
      <trkpt lat="42.8025120" lon="0.4741920">
        <ele>1398.8</ele>
        <time>2020-07-28T11:49:26Z</time>
      </trkpt>
      <trkpt lat="42.8026890" lon="0.4744930">
        <ele>1397.0</ele>
        <time>2020-07-28T11:49:28Z</time>
      </trkpt>
      <trkpt lat="42.8027840" lon="0.4746380">
        <ele>1396.0</ele>
        <time>2020-07-28T11:49:29Z</time>
      </trkpt>
      <trkpt lat="42.8028880" lon="0.4747690">
        <ele>1395.0</ele>
        <time>2020-07-28T11:49:30Z</time>
      </trkpt>
      <trkpt lat="42.8029960" lon="0.4748920">
        <ele>1393.8</ele>
        <time>2020-07-28T11:49:31Z</time>
      </trkpt>
      <trkpt lat="42.8031050" lon="0.4750130">
        <ele>1392.8</ele>
        <time>2020-07-28T11:49:32Z</time>
      </trkpt>
      <trkpt lat="42.8033270" lon="0.4752460">
        <ele>1390.8</ele>
        <time>2020-07-28T11:49:34Z</time>
      </trkpt>
      <trkpt lat="42.8034400" lon="0.4753610">
        <ele>1389.6</ele>
        <time>2020-07-28T11:49:35Z</time>
      </trkpt>
      <trkpt lat="42.8035510" lon="0.4754800">
        <ele>1388.4</ele>
        <time>2020-07-28T11:49:36Z</time>
      </trkpt>
      <trkpt lat="42.8036560" lon="0.4756090">
        <ele>1387.2</ele>
        <time>2020-07-28T11:49:37Z</time>
      </trkpt>
      <trkpt lat="42.8037560" lon="0.4757450">
        <ele>1385.8</ele>
        <time>2020-07-28T11:49:38Z</time>
      </trkpt>
      <trkpt lat="42.8038490" lon="0.4758930">
        <ele>1384.2</ele>
        <time>2020-07-28T11:49:39Z</time>
      </trkpt>
      <trkpt lat="42.8039330" lon="0.4760530">
        <ele>1383.0</ele>
        <time>2020-07-28T11:49:40Z</time>
      </trkpt>
      <trkpt lat="42.8040100" lon="0.4762230">
        <ele>1381.8</ele>
        <time>2020-07-28T11:49:41Z</time>
      </trkpt>
      <trkpt lat="42.8041590" lon="0.4765720">
        <ele>1379.8</ele>
        <time>2020-07-28T11:49:43Z</time>
      </trkpt>
      <trkpt lat="42.8042310" lon="0.4767520">
        <ele>1378.6</ele>
        <time>2020-07-28T11:49:44Z</time>
      </trkpt>
      <trkpt lat="42.8043050" lon="0.4769340">
        <ele>1377.4</ele>
        <time>2020-07-28T11:49:45Z</time>
      </trkpt>
      <trkpt lat="42.8043790" lon="0.4771160">
        <ele>1376.4</ele>
        <time>2020-07-28T11:49:46Z</time>
      </trkpt>
      <trkpt lat="42.8044520" lon="0.4773010">
        <ele>1375.4</ele>
        <time>2020-07-28T11:49:47Z</time>
      </trkpt>
      <trkpt lat="42.8045860" lon="0.4776800">
        <ele>1372.0</ele>
        <time>2020-07-28T11:49:49Z</time>
      </trkpt>
      <trkpt lat="42.8046390" lon="0.4778770">
        <ele>1370.8</ele>
        <time>2020-07-28T11:49:50Z</time>
      </trkpt>
      <trkpt lat="42.8046830" lon="0.4780780">
        <ele>1369.6</ele>
        <time>2020-07-28T11:49:51Z</time>
      </trkpt>
      <trkpt lat="42.8047200" lon="0.4782800">
        <ele>1368.2</ele>
        <time>2020-07-28T11:49:52Z</time>
      </trkpt>
      <trkpt lat="42.8047580" lon="0.4784810">
        <ele>1367.0</ele>
        <time>2020-07-28T11:49:53Z</time>
      </trkpt>
      <trkpt lat="42.8048000" lon="0.4786770">
        <ele>1365.4</ele>
        <time>2020-07-28T11:49:54Z</time>
      </trkpt>
      <trkpt lat="42.8048440" lon="0.4788690">
        <ele>1364.0</ele>
        <time>2020-07-28T11:49:55Z</time>
      </trkpt>
      <trkpt lat="42.8048950" lon="0.4790550">
        <ele>1362.4</ele>
        <time>2020-07-28T11:49:56Z</time>
      </trkpt>
      <trkpt lat="42.8049510" lon="0.4792350">
        <ele>1360.8</ele>
        <time>2020-07-28T11:49:57Z</time>
      </trkpt>
      <trkpt lat="42.8050120" lon="0.4794120">
        <ele>1359.0</ele>
        <time>2020-07-28T11:49:58Z</time>
      </trkpt>
      <trkpt lat="42.8050680" lon="0.4795900">
        <ele>1356.6</ele>
        <time>2020-07-28T11:49:59Z</time>
      </trkpt>
      <trkpt lat="42.8051190" lon="0.4797690">
        <ele>1354.6</ele>
        <time>2020-07-28T11:50:00Z</time>
      </trkpt>
      <trkpt lat="42.8051710" lon="0.4799470">
        <ele>1353.4</ele>
        <time>2020-07-28T11:50:01Z</time>
      </trkpt>
      <trkpt lat="42.8052280" lon="0.4801190">
        <ele>1352.4</ele>
        <time>2020-07-28T11:50:02Z</time>
      </trkpt>
      <trkpt lat="42.8053000" lon="0.4802800">
        <ele>1351.4</ele>
        <time>2020-07-28T11:50:03Z</time>
      </trkpt>
      <trkpt lat="42.8053870" lon="0.4804280">
        <ele>1351.0</ele>
        <time>2020-07-28T11:50:04Z</time>
      </trkpt>
      <trkpt lat="42.8055840" lon="0.4807000">
        <ele>1350.0</ele>
        <time>2020-07-28T11:50:06Z</time>
      </trkpt>
      <trkpt lat="42.8056810" lon="0.4808400">
        <ele>1348.6</ele>
        <time>2020-07-28T11:50:07Z</time>
      </trkpt>
      <trkpt lat="42.8057790" lon="0.4809780">
        <ele>1347.4</ele>
        <time>2020-07-28T11:50:08Z</time>
      </trkpt>
      <trkpt lat="42.8058730" lon="0.4811230">
        <ele>1346.8</ele>
        <time>2020-07-28T11:50:09Z</time>
      </trkpt>
      <trkpt lat="42.8059690" lon="0.4812670">
        <ele>1345.8</ele>
        <time>2020-07-28T11:50:10Z</time>
      </trkpt>
      <trkpt lat="42.8061640" lon="0.4815530">
        <ele>1344.4</ele>
        <time>2020-07-28T11:50:12Z</time>
      </trkpt>
      <trkpt lat="42.8063680" lon="0.4818290">
        <ele>1342.8</ele>
        <time>2020-07-28T11:50:14Z</time>
      </trkpt>
      <trkpt lat="42.8064750" lon="0.4819620">
        <ele>1341.6</ele>
        <time>2020-07-28T11:50:15Z</time>
      </trkpt>
      <trkpt lat="42.8065830" lon="0.4820920">
        <ele>1338.0</ele>
        <time>2020-07-28T11:50:16Z</time>
      </trkpt>
      <trkpt lat="42.8066920" lon="0.4822210">
        <ele>1336.6</ele>
        <time>2020-07-28T11:50:17Z</time>
      </trkpt>
      <trkpt lat="42.8067970" lon="0.4823570">
        <ele>1335.6</ele>
        <time>2020-07-28T11:50:18Z</time>
      </trkpt>
      <trkpt lat="42.8069000" lon="0.4824970">
        <ele>1334.4</ele>
        <time>2020-07-28T11:50:19Z</time>
      </trkpt>
      <trkpt lat="42.8069980" lon="0.4826420">
        <ele>1333.4</ele>
        <time>2020-07-28T11:50:20Z</time>
      </trkpt>
      <trkpt lat="42.8070920" lon="0.4827930">
        <ele>1332.4</ele>
        <time>2020-07-28T11:50:21Z</time>
      </trkpt>
      <trkpt lat="42.8072700" lon="0.4831010">
        <ele>1330.4</ele>
        <time>2020-07-28T11:50:23Z</time>
      </trkpt>
      <trkpt lat="42.8073520" lon="0.4832610">
        <ele>1329.2</ele>
        <time>2020-07-28T11:50:24Z</time>
      </trkpt>
      <trkpt lat="42.8074260" lon="0.4834300">
        <ele>1328.0</ele>
        <time>2020-07-28T11:50:25Z</time>
      </trkpt>
      <trkpt lat="42.8074880" lon="0.4836070">
        <ele>1327.0</ele>
        <time>2020-07-28T11:50:26Z</time>
      </trkpt>
      <trkpt lat="42.8075400" lon="0.4837890">
        <ele>1325.8</ele>
        <time>2020-07-28T11:50:27Z</time>
      </trkpt>
      <trkpt lat="42.8075820" lon="0.4839750">
        <ele>1324.6</ele>
        <time>2020-07-28T11:50:28Z</time>
      </trkpt>
      <trkpt lat="42.8076170" lon="0.4841630">
        <ele>1323.4</ele>
        <time>2020-07-28T11:50:29Z</time>
      </trkpt>
      <trkpt lat="42.8076430" lon="0.4843540">
        <ele>1322.2</ele>
        <time>2020-07-28T11:50:30Z</time>
      </trkpt>
      <trkpt lat="42.8076680" lon="0.4847410">
        <ele>1320.6</ele>
        <time>2020-07-28T11:50:32Z</time>
      </trkpt>
      <trkpt lat="42.8076690" lon="0.4851310">
        <ele>1318.8</ele>
        <time>2020-07-28T11:50:34Z</time>
      </trkpt>
      <trkpt lat="42.8076660" lon="0.4853260">
        <ele>1317.8</ele>
        <time>2020-07-28T11:50:35Z</time>
      </trkpt>
      <trkpt lat="42.8076600" lon="0.4855230">
        <ele>1316.8</ele>
        <time>2020-07-28T11:50:36Z</time>
      </trkpt>
      <trkpt lat="42.8076550" lon="0.4857210">
        <ele>1315.6</ele>
        <time>2020-07-28T11:50:37Z</time>
      </trkpt>
      <trkpt lat="42.8076470" lon="0.4859170">
        <ele>1314.4</ele>
        <time>2020-07-28T11:50:38Z</time>
      </trkpt>
      <trkpt lat="42.8076360" lon="0.4861120">
        <ele>1313.0</ele>
        <time>2020-07-28T11:50:39Z</time>
      </trkpt>
      <trkpt lat="42.8076250" lon="0.4863060">
        <ele>1311.8</ele>
        <time>2020-07-28T11:50:40Z</time>
      </trkpt>
      <trkpt lat="42.8076170" lon="0.4865020">
        <ele>1310.6</ele>
        <time>2020-07-28T11:50:41Z</time>
      </trkpt>
      <trkpt lat="42.8076170" lon="0.4868940">
        <ele>1308.6</ele>
        <time>2020-07-28T11:50:43Z</time>
      </trkpt>
      <trkpt lat="42.8076210" lon="0.4870890">
        <ele>1306.4</ele>
        <time>2020-07-28T11:50:44Z</time>
      </trkpt>
      <trkpt lat="42.8076240" lon="0.4872850">
        <ele>1305.4</ele>
        <time>2020-07-28T11:50:45Z</time>
      </trkpt>
      <trkpt lat="42.8076240" lon="0.4876750">
        <ele>1303.6</ele>
        <time>2020-07-28T11:50:47Z</time>
      </trkpt>
      <trkpt lat="42.8076110" lon="0.4880670">
        <ele>1301.4</ele>
        <time>2020-07-28T11:50:49Z</time>
      </trkpt>
      <trkpt lat="42.8075940" lon="0.4882610">
        <ele>1300.0</ele>
        <time>2020-07-28T11:50:50Z</time>
      </trkpt>
      <trkpt lat="42.8075690" lon="0.4884540">
        <ele>1298.6</ele>
        <time>2020-07-28T11:50:51Z</time>
      </trkpt>
      <trkpt lat="42.8075390" lon="0.4886460">
        <ele>1297.6</ele>
        <time>2020-07-28T11:50:52Z</time>
      </trkpt>
      <trkpt lat="42.8074780" lon="0.4890280">
        <ele>1295.6</ele>
        <time>2020-07-28T11:50:54Z</time>
      </trkpt>
      <trkpt lat="42.8074490" lon="0.4892200">
        <ele>1294.6</ele>
        <time>2020-07-28T11:50:55Z</time>
      </trkpt>
      <trkpt lat="42.8074200" lon="0.4894130">
        <ele>1293.2</ele>
        <time>2020-07-28T11:50:56Z</time>
      </trkpt>
      <trkpt lat="42.8073910" lon="0.4896050">
        <ele>1292.2</ele>
        <time>2020-07-28T11:50:57Z</time>
      </trkpt>
      <trkpt lat="42.8073590" lon="0.4897970">
        <ele>1291.2</ele>
        <time>2020-07-28T11:50:58Z</time>
      </trkpt>
      <trkpt lat="42.8073200" lon="0.4899900">
        <ele>1290.2</ele>
        <time>2020-07-28T11:50:59Z</time>
      </trkpt>
      <trkpt lat="42.8072760" lon="0.4901850">
        <ele>1289.0</ele>
        <time>2020-07-28T11:51:00Z</time>
      </trkpt>
      <trkpt lat="42.8072300" lon="0.4903800">
        <ele>1287.8</ele>
        <time>2020-07-28T11:51:01Z</time>
      </trkpt>
      <trkpt lat="42.8071860" lon="0.4905780">
        <ele>1286.8</ele>
        <time>2020-07-28T11:51:02Z</time>
      </trkpt>
      <trkpt lat="42.8071450" lon="0.4907800">
        <ele>1285.8</ele>
        <time>2020-07-28T11:51:03Z</time>
      </trkpt>
      <trkpt lat="42.8070740" lon="0.4911870">
        <ele>1284.0</ele>
        <time>2020-07-28T11:51:05Z</time>
      </trkpt>
      <trkpt lat="42.8070390" lon="0.4913940">
        <ele>1283.0</ele>
        <time>2020-07-28T11:51:06Z</time>
      </trkpt>
      <trkpt lat="42.8070040" lon="0.4916040">
        <ele>1281.8</ele>
        <time>2020-07-28T11:51:07Z</time>
      </trkpt>
      <trkpt lat="42.8069720" lon="0.4918150">
        <ele>1280.4</ele>
        <time>2020-07-28T11:51:08Z</time>
      </trkpt>
      <trkpt lat="42.8069410" lon="0.4920260">
        <ele>1279.2</ele>
        <time>2020-07-28T11:51:09Z</time>
      </trkpt>
      <trkpt lat="42.8069090" lon="0.4922380">
        <ele>1277.8</ele>
        <time>2020-07-28T11:51:10Z</time>
      </trkpt>
      <trkpt lat="42.8068760" lon="0.4924470">
        <ele>1274.8</ele>
        <time>2020-07-28T11:51:11Z</time>
      </trkpt>
      <trkpt lat="42.8068440" lon="0.4926590">
        <ele>1273.2</ele>
        <time>2020-07-28T11:51:12Z</time>
      </trkpt>
      <trkpt lat="42.8068110" lon="0.4928710">
        <ele>1272.0</ele>
        <time>2020-07-28T11:51:13Z</time>
      </trkpt>
      <trkpt lat="42.8067740" lon="0.4930780">
        <ele>1270.8</ele>
        <time>2020-07-28T11:51:14Z</time>
      </trkpt>
      <trkpt lat="42.8067430" lon="0.4932870">
        <ele>1269.4</ele>
        <time>2020-07-28T11:51:15Z</time>
      </trkpt>
      <trkpt lat="42.8067080" lon="0.4934960">
        <ele>1268.0</ele>
        <time>2020-07-28T11:51:16Z</time>
      </trkpt>
      <trkpt lat="42.8066730" lon="0.4937110">
        <ele>1266.6</ele>
        <time>2020-07-28T11:51:17Z</time>
      </trkpt>
      <trkpt lat="42.8066360" lon="0.4939240">
        <ele>1265.2</ele>
        <time>2020-07-28T11:51:18Z</time>
      </trkpt>
      <trkpt lat="42.8066020" lon="0.4941390">
        <ele>1263.6</ele>
        <time>2020-07-28T11:51:19Z</time>
      </trkpt>
      <trkpt lat="42.8065650" lon="0.4943540">
        <ele>1261.8</ele>
        <time>2020-07-28T11:51:20Z</time>
      </trkpt>
      <trkpt lat="42.8065230" lon="0.4945700">
        <ele>1260.2</ele>
        <time>2020-07-28T11:51:21Z</time>
      </trkpt>
      <trkpt lat="42.8064800" lon="0.4947850">
        <ele>1258.6</ele>
        <time>2020-07-28T11:51:22Z</time>
      </trkpt>
      <trkpt lat="42.8064390" lon="0.4949960">
        <ele>1256.8</ele>
        <time>2020-07-28T11:51:23Z</time>
      </trkpt>
      <trkpt lat="42.8064020" lon="0.4952070">
        <ele>1255.2</ele>
        <time>2020-07-28T11:51:24Z</time>
      </trkpt>
      <trkpt lat="42.8063720" lon="0.4954190">
        <ele>1253.4</ele>
        <time>2020-07-28T11:51:25Z</time>
      </trkpt>
      <trkpt lat="42.8063510" lon="0.4956310">
        <ele>1251.8</ele>
        <time>2020-07-28T11:51:26Z</time>
      </trkpt>
      <trkpt lat="42.8063360" lon="0.4958380">
        <ele>1250.2</ele>
        <time>2020-07-28T11:51:27Z</time>
      </trkpt>
      <trkpt lat="42.8063230" lon="0.4960420">
        <ele>1248.6</ele>
        <time>2020-07-28T11:51:28Z</time>
      </trkpt>
      <trkpt lat="42.8063100" lon="0.4962400">
        <ele>1247.0</ele>
        <time>2020-07-28T11:51:29Z</time>
      </trkpt>
      <trkpt lat="42.8062970" lon="0.4964310">
        <ele>1245.4</ele>
        <time>2020-07-28T11:51:30Z</time>
      </trkpt>
      <trkpt lat="42.8062830" lon="0.4966150">
        <ele>1244.0</ele>
        <time>2020-07-28T11:51:31Z</time>
      </trkpt>
      <trkpt lat="42.8062770" lon="0.4967970">
        <ele>1242.4</ele>
        <time>2020-07-28T11:51:32Z</time>
      </trkpt>
      <trkpt lat="42.8062950" lon="0.4969830">
        <ele>1241.0</ele>
        <time>2020-07-28T11:51:33Z</time>
      </trkpt>
      <trkpt lat="42.8063370" lon="0.4971620">
        <ele>1239.6</ele>
        <time>2020-07-28T11:51:34Z</time>
      </trkpt>
      <trkpt lat="42.8063940" lon="0.4973300">
        <ele>1238.4</ele>
        <time>2020-07-28T11:51:35Z</time>
      </trkpt>
      <trkpt lat="42.8064610" lon="0.4974910">
        <ele>1237.4</ele>
        <time>2020-07-28T11:51:36Z</time>
      </trkpt>
      <trkpt lat="42.8065270" lon="0.4976560">
        <ele>1236.6</ele>
        <time>2020-07-28T11:51:37Z</time>
      </trkpt>
      <trkpt lat="42.8065800" lon="0.4978270">
        <ele>1234.8</ele>
        <time>2020-07-28T11:51:38Z</time>
      </trkpt>
      <trkpt lat="42.8066250" lon="0.4981940">
        <ele>1233.2</ele>
        <time>2020-07-28T11:51:40Z</time>
      </trkpt>
      <trkpt lat="42.8066280" lon="0.4983830">
        <ele>1232.0</ele>
        <time>2020-07-28T11:51:41Z</time>
      </trkpt>
      <trkpt lat="42.8066270" lon="0.4985710">
        <ele>1230.8</ele>
        <time>2020-07-28T11:51:42Z</time>
      </trkpt>
      <trkpt lat="42.8066250" lon="0.4987590">
        <ele>1229.6</ele>
        <time>2020-07-28T11:51:43Z</time>
      </trkpt>
      <trkpt lat="42.8066180" lon="0.4989450">
        <ele>1228.4</ele>
        <time>2020-07-28T11:51:44Z</time>
      </trkpt>
      <trkpt lat="42.8065980" lon="0.4991270">
        <ele>1227.2</ele>
        <time>2020-07-28T11:51:45Z</time>
      </trkpt>
      <trkpt lat="42.8065560" lon="0.4992990">
        <ele>1226.0</ele>
        <time>2020-07-28T11:51:46Z</time>
      </trkpt>
      <trkpt lat="42.8064940" lon="0.4994630">
        <ele>1224.8</ele>
        <time>2020-07-28T11:51:47Z</time>
      </trkpt>
      <trkpt lat="42.8064240" lon="0.4996230">
        <ele>1223.8</ele>
        <time>2020-07-28T11:51:48Z</time>
      </trkpt>
      <trkpt lat="42.8063510" lon="0.4997830">
        <ele>1222.8</ele>
        <time>2020-07-28T11:51:49Z</time>
      </trkpt>
      <trkpt lat="42.8062780" lon="0.4999450">
        <ele>1221.6</ele>
        <time>2020-07-28T11:51:50Z</time>
      </trkpt>
      <trkpt lat="42.8062040" lon="0.5001090">
        <ele>1220.4</ele>
        <time>2020-07-28T11:51:51Z</time>
      </trkpt>
      <trkpt lat="42.8061300" lon="0.5002760">
        <ele>1219.4</ele>
        <time>2020-07-28T11:51:52Z</time>
      </trkpt>
      <trkpt lat="42.8059820" lon="0.5006080">
        <ele>1218.0</ele>
        <time>2020-07-28T11:51:54Z</time>
      </trkpt>
      <trkpt lat="42.8059060" lon="0.5007760">
        <ele>1217.2</ele>
        <time>2020-07-28T11:51:55Z</time>
      </trkpt>
      <trkpt lat="42.8058300" lon="0.5009450">
        <ele>1216.2</ele>
        <time>2020-07-28T11:51:56Z</time>
      </trkpt>
      <trkpt lat="42.8057520" lon="0.5011160">
        <ele>1215.2</ele>
        <time>2020-07-28T11:51:57Z</time>
      </trkpt>
      <trkpt lat="42.8056760" lon="0.5012900">
        <ele>1214.0</ele>
        <time>2020-07-28T11:51:58Z</time>
      </trkpt>
      <trkpt lat="42.8056020" lon="0.5014630">
        <ele>1212.8</ele>
        <time>2020-07-28T11:51:59Z</time>
      </trkpt>
      <trkpt lat="42.8055370" lon="0.5016330">
        <ele>1211.6</ele>
        <time>2020-07-28T11:52:00Z</time>
      </trkpt>
      <trkpt lat="42.8054870" lon="0.5017980">
        <ele>1210.2</ele>
        <time>2020-07-28T11:52:01Z</time>
      </trkpt>
      <trkpt lat="42.8054590" lon="0.5019600">
        <ele>1208.8</ele>
        <time>2020-07-28T11:52:02Z</time>
      </trkpt>
      <trkpt lat="42.8054540" lon="0.5021240">
        <ele>1207.2</ele>
        <time>2020-07-28T11:52:03Z</time>
      </trkpt>
      <trkpt lat="42.8054670" lon="0.5022910">
        <ele>1205.8</ele>
        <time>2020-07-28T11:52:04Z</time>
      </trkpt>
      <trkpt lat="42.8055050" lon="0.5024520">
        <ele>1203.2</ele>
        <time>2020-07-28T11:52:05Z</time>
      </trkpt>
      <trkpt lat="42.8055680" lon="0.5025990">
        <ele>1202.2</ele>
        <time>2020-07-28T11:52:06Z</time>
      </trkpt>
      <trkpt lat="42.8057530" lon="0.5028490">
        <ele>1200.8</ele>
        <time>2020-07-28T11:52:08Z</time>
      </trkpt>
      <trkpt lat="42.8058640" lon="0.5029560">
        <ele>1200.2</ele>
        <time>2020-07-28T11:52:09Z</time>
      </trkpt>
      <trkpt lat="42.8060840" lon="0.5031760">
        <ele>1199.4</ele>
        <time>2020-07-28T11:52:11Z</time>
      </trkpt>
      <trkpt lat="42.8063080" lon="0.5034120">
        <ele>1197.0</ele>
        <time>2020-07-28T11:52:13Z</time>
      </trkpt>
      <trkpt lat="42.8064110" lon="0.5035410">
        <ele>1195.6</ele>
        <time>2020-07-28T11:52:14Z</time>
      </trkpt>
      <trkpt lat="42.8064980" lon="0.5036840">
        <ele>1194.2</ele>
        <time>2020-07-28T11:52:15Z</time>
      </trkpt>
      <trkpt lat="42.8065720" lon="0.5038380">
        <ele>1192.8</ele>
        <time>2020-07-28T11:52:16Z</time>
      </trkpt>
      <trkpt lat="42.8066230" lon="0.5040050">
        <ele>1191.4</ele>
        <time>2020-07-28T11:52:17Z</time>
      </trkpt>
      <trkpt lat="42.8066580" lon="0.5041760">
        <ele>1190.2</ele>
        <time>2020-07-28T11:52:18Z</time>
      </trkpt>
      <trkpt lat="42.8066810" lon="0.5043370">
        <ele>1188.8</ele>
        <time>2020-07-28T11:52:19Z</time>
      </trkpt>
      <trkpt lat="42.8066920" lon="0.5044840">
        <ele>1187.4</ele>
        <time>2020-07-28T11:52:20Z</time>
      </trkpt>
      <trkpt lat="42.8066940" lon="0.5046120">
        <ele>1185.8</ele>
        <time>2020-07-28T11:52:21Z</time>
      </trkpt>
      <trkpt lat="42.8066910" lon="0.5047280">
        <ele>1184.8</ele>
        <time>2020-07-28T11:52:22Z</time>
      </trkpt>
      <trkpt lat="42.8067000" lon="0.5048390">
        <ele>1183.8</ele>
        <time>2020-07-28T11:52:23Z</time>
      </trkpt>
      <trkpt lat="42.8067290" lon="0.5049490">
        <ele>1182.8</ele>
        <time>2020-07-28T11:52:24Z</time>
      </trkpt>
      <trkpt lat="42.8068130" lon="0.5051850">
        <ele>1180.6</ele>
        <time>2020-07-28T11:52:26Z</time>
      </trkpt>
      <trkpt lat="42.8068530" lon="0.5053170">
        <ele>1179.6</ele>
        <time>2020-07-28T11:52:27Z</time>
      </trkpt>
      <trkpt lat="42.8068840" lon="0.5054630">
        <ele>1179.0</ele>
        <time>2020-07-28T11:52:28Z</time>
      </trkpt>
      <trkpt lat="42.8069090" lon="0.5056180">
        <ele>1178.8</ele>
        <time>2020-07-28T11:52:29Z</time>
      </trkpt>
      <trkpt lat="42.8069770" lon="0.5061260">
        <ele>1177.6</ele>
        <time>2020-07-28T11:52:32Z</time>
      </trkpt>
      <trkpt lat="42.8069990" lon="0.5063060">
        <ele>1176.0</ele>
        <time>2020-07-28T11:52:33Z</time>
      </trkpt>
      <trkpt lat="42.8070180" lon="0.5064900">
        <ele>1175.0</ele>
        <time>2020-07-28T11:52:34Z</time>
      </trkpt>
      <trkpt lat="42.8070380" lon="0.5066760">
        <ele>1173.8</ele>
        <time>2020-07-28T11:52:35Z</time>
      </trkpt>
      <trkpt lat="42.8070610" lon="0.5068650">
        <ele>1172.4</ele>
        <time>2020-07-28T11:52:36Z</time>
      </trkpt>
      <trkpt lat="42.8070860" lon="0.5070550">
        <ele>1171.0</ele>
        <time>2020-07-28T11:52:37Z</time>
      </trkpt>
      <trkpt lat="42.8071140" lon="0.5072460">
        <ele>1169.6</ele>
        <time>2020-07-28T11:52:38Z</time>
      </trkpt>
      <trkpt lat="42.8071470" lon="0.5074380">
        <ele>1168.4</ele>
        <time>2020-07-28T11:52:39Z</time>
      </trkpt>
      <trkpt lat="42.8071840" lon="0.5076330">
        <ele>1167.0</ele>
        <time>2020-07-28T11:52:40Z</time>
      </trkpt>
      <trkpt lat="42.8072250" lon="0.5078280">
        <ele>1165.2</ele>
        <time>2020-07-28T11:52:41Z</time>
      </trkpt>
      <trkpt lat="42.8072690" lon="0.5080230">
        <ele>1163.8</ele>
        <time>2020-07-28T11:52:42Z</time>
      </trkpt>
      <trkpt lat="42.8073150" lon="0.5082160">
        <ele>1162.6</ele>
        <time>2020-07-28T11:52:43Z</time>
      </trkpt>
      <trkpt lat="42.8073650" lon="0.5084070">
        <ele>1161.6</ele>
        <time>2020-07-28T11:52:44Z</time>
      </trkpt>
      <trkpt lat="42.8074170" lon="0.5085990">
        <ele>1160.0</ele>
        <time>2020-07-28T11:52:45Z</time>
      </trkpt>
      <trkpt lat="42.8074690" lon="0.5087860">
        <ele>1158.4</ele>
        <time>2020-07-28T11:52:46Z</time>
      </trkpt>
      <trkpt lat="42.8075190" lon="0.5089710">
        <ele>1157.2</ele>
        <time>2020-07-28T11:52:47Z</time>
      </trkpt>
      <trkpt lat="42.8075700" lon="0.5091530">
        <ele>1156.0</ele>
        <time>2020-07-28T11:52:48Z</time>
      </trkpt>
      <trkpt lat="42.8076210" lon="0.5093340">
        <ele>1154.8</ele>
        <time>2020-07-28T11:52:49Z</time>
      </trkpt>
      <trkpt lat="42.8076700" lon="0.5095100">
        <ele>1153.2</ele>
        <time>2020-07-28T11:52:50Z</time>
      </trkpt>
      <trkpt lat="42.8077170" lon="0.5096830">
        <ele>1152.0</ele>
        <time>2020-07-28T11:52:51Z</time>
      </trkpt>
      <trkpt lat="42.8077630" lon="0.5098540">
        <ele>1150.8</ele>
        <time>2020-07-28T11:52:52Z</time>
      </trkpt>
      <trkpt lat="42.8078080" lon="0.5100220">
        <ele>1149.8</ele>
        <time>2020-07-28T11:52:53Z</time>
      </trkpt>
      <trkpt lat="42.8078540" lon="0.5101900">
        <ele>1148.4</ele>
        <time>2020-07-28T11:52:54Z</time>
      </trkpt>
      <trkpt lat="42.8079010" lon="0.5103580">
        <ele>1147.4</ele>
        <time>2020-07-28T11:52:55Z</time>
      </trkpt>
      <trkpt lat="42.8079840" lon="0.5107070">
        <ele>1146.0</ele>
        <time>2020-07-28T11:52:57Z</time>
      </trkpt>
      <trkpt lat="42.8080170" lon="0.5108880">
        <ele>1145.4</ele>
        <time>2020-07-28T11:52:58Z</time>
      </trkpt>
      <trkpt lat="42.8080680" lon="0.5112620">
        <ele>1144.6</ele>
        <time>2020-07-28T11:53:00Z</time>
      </trkpt>
      <trkpt lat="42.8080920" lon="0.5114520">
        <ele>1143.4</ele>
        <time>2020-07-28T11:53:01Z</time>
      </trkpt>
      <trkpt lat="42.8081230" lon="0.5116420">
        <ele>1142.8</ele>
        <time>2020-07-28T11:53:02Z</time>
      </trkpt>
      <trkpt lat="42.8081630" lon="0.5118300">
        <ele>1142.0</ele>
        <time>2020-07-28T11:53:03Z</time>
      </trkpt>
      <trkpt lat="42.8082000" lon="0.5120210">
        <ele>1141.4</ele>
        <time>2020-07-28T11:53:04Z</time>
      </trkpt>
      <trkpt lat="42.8082210" lon="0.5122150">
        <ele>1140.6</ele>
        <time>2020-07-28T11:53:05Z</time>
      </trkpt>
      <trkpt lat="42.8082220" lon="0.5124130">
        <ele>1139.6</ele>
        <time>2020-07-28T11:53:06Z</time>
      </trkpt>
      <trkpt lat="42.8082090" lon="0.5126120">
        <ele>1138.2</ele>
        <time>2020-07-28T11:53:07Z</time>
      </trkpt>
      <trkpt lat="42.8081890" lon="0.5128130">
        <ele>1136.8</ele>
        <time>2020-07-28T11:53:08Z</time>
      </trkpt>
      <trkpt lat="42.8081660" lon="0.5130090">
        <ele>1135.4</ele>
        <time>2020-07-28T11:53:09Z</time>
      </trkpt>
      <trkpt lat="42.8081420" lon="0.5132030">
        <ele>1134.0</ele>
        <time>2020-07-28T11:53:10Z</time>
      </trkpt>
      <trkpt lat="42.8081210" lon="0.5133990">
        <ele>1132.8</ele>
        <time>2020-07-28T11:53:11Z</time>
      </trkpt>
      <trkpt lat="42.8081000" lon="0.5135920">
        <ele>1131.4</ele>
        <time>2020-07-28T11:53:12Z</time>
      </trkpt>
      <trkpt lat="42.8080770" lon="0.5137790">
        <ele>1130.2</ele>
        <time>2020-07-28T11:53:13Z</time>
      </trkpt>
      <trkpt lat="42.8080620" lon="0.5139620">
        <ele>1128.8</ele>
        <time>2020-07-28T11:53:14Z</time>
      </trkpt>
      <trkpt lat="42.8080550" lon="0.5141410">
        <ele>1127.2</ele>
        <time>2020-07-28T11:53:15Z</time>
      </trkpt>
      <trkpt lat="42.8080530" lon="0.5143150">
        <ele>1125.8</ele>
        <time>2020-07-28T11:53:16Z</time>
      </trkpt>
      <trkpt lat="42.8080650" lon="0.5144830">
        <ele>1124.4</ele>
        <time>2020-07-28T11:53:17Z</time>
      </trkpt>
      <trkpt lat="42.8080920" lon="0.5146410">
        <ele>1122.8</ele>
        <time>2020-07-28T11:53:18Z</time>
      </trkpt>
      <trkpt lat="42.8081450" lon="0.5147890">
        <ele>1121.2</ele>
        <time>2020-07-28T11:53:19Z</time>
      </trkpt>
      <trkpt lat="42.8082190" lon="0.5149160">
        <ele>1119.6</ele>
        <time>2020-07-28T11:53:20Z</time>
      </trkpt>
      <trkpt lat="42.8083180" lon="0.5150210">
        <ele>1118.2</ele>
        <time>2020-07-28T11:53:21Z</time>
      </trkpt>
      <trkpt lat="42.8085210" lon="0.5151720">
        <ele>1116.4</ele>
        <time>2020-07-28T11:53:23Z</time>
      </trkpt>
      <trkpt lat="42.8086040" lon="0.5152610">
        <ele>1115.4</ele>
        <time>2020-07-28T11:53:24Z</time>
      </trkpt>
      <trkpt lat="42.8086870" lon="0.5154990">
        <ele>1114.0</ele>
        <time>2020-07-28T11:53:26Z</time>
      </trkpt>
      <trkpt lat="42.8087000" lon="0.5156260">
        <ele>1113.2</ele>
        <time>2020-07-28T11:53:27Z</time>
      </trkpt>
      <trkpt lat="42.8087110" lon="0.5157520">
        <ele>1111.2</ele>
        <time>2020-07-28T11:53:28Z</time>
      </trkpt>
      <trkpt lat="42.8087330" lon="0.5160060">
        <ele>1110.2</ele>
        <time>2020-07-28T11:53:30Z</time>
      </trkpt>
      <trkpt lat="42.8087650" lon="0.5163790">
        <ele>1109.6</ele>
        <time>2020-07-28T11:53:33Z</time>
      </trkpt>
      <trkpt lat="42.8088200" lon="0.5170220">
        <ele>1109.2</ele>
        <time>2020-07-28T11:53:38Z</time>
      </trkpt>
      <trkpt lat="42.8088330" lon="0.5171550">
        <ele>1109.0</ele>
        <time>2020-07-28T11:53:39Z</time>
      </trkpt>
      <trkpt lat="42.8088620" lon="0.5177090">
        <ele>1108.0</ele>
        <time>2020-07-28T11:53:43Z</time>
      </trkpt>
      <trkpt lat="42.8088420" lon="0.5179850">
        <ele>1106.6</ele>
        <time>2020-07-28T11:53:45Z</time>
      </trkpt>
      <trkpt lat="42.8087940" lon="0.5183750">
        <ele>1105.6</ele>
        <time>2020-07-28T11:53:48Z</time>
      </trkpt>
      <trkpt lat="42.8087270" lon="0.5187530">
        <ele>1105.2</ele>
        <time>2020-07-28T11:53:51Z</time>
      </trkpt>
      <trkpt lat="42.8086850" lon="0.5188670">
        <ele>1105.0</ele>
        <time>2020-07-28T11:53:52Z</time>
      </trkpt>
      <trkpt lat="42.8085680" lon="0.5190820">
        <ele>1104.6</ele>
        <time>2020-07-28T11:53:54Z</time>
      </trkpt>
      <trkpt lat="42.8085000" lon="0.5191840">
        <ele>1104.2</ele>
        <time>2020-07-28T11:53:55Z</time>
      </trkpt>
      <trkpt lat="42.8084290" lon="0.5192810">
        <ele>1103.6</ele>
        <time>2020-07-28T11:53:56Z</time>
      </trkpt>
      <trkpt lat="42.8083520" lon="0.5193660">
        <ele>1103.2</ele>
        <time>2020-07-28T11:53:57Z</time>
      </trkpt>
      <trkpt lat="42.8081650" lon="0.5194810">
        <ele>1102.6</ele>
        <time>2020-07-28T11:53:59Z</time>
      </trkpt>
      <trkpt lat="42.8080530" lon="0.5195060">
        <ele>1102.2</ele>
        <time>2020-07-28T11:54:00Z</time>
      </trkpt>
      <trkpt lat="42.8078170" lon="0.5195170">
        <ele>1100.8</ele>
        <time>2020-07-28T11:54:02Z</time>
      </trkpt>
      <trkpt lat="42.8076940" lon="0.5195130">
        <ele>1099.8</ele>
        <time>2020-07-28T11:54:03Z</time>
      </trkpt>
      <trkpt lat="42.8075700" lon="0.5195080">
        <ele>1098.4</ele>
        <time>2020-07-28T11:54:04Z</time>
      </trkpt>
      <trkpt lat="42.8074450" lon="0.5195060">
        <ele>1097.2</ele>
        <time>2020-07-28T11:54:05Z</time>
      </trkpt>
      <trkpt lat="42.8071980" lon="0.5195240">
        <ele>1095.8</ele>
        <time>2020-07-28T11:54:07Z</time>
      </trkpt>
      <trkpt lat="42.8070760" lon="0.5195570">
        <ele>1095.2</ele>
        <time>2020-07-28T11:54:08Z</time>
      </trkpt>
      <trkpt lat="42.8069590" lon="0.5196120">
        <ele>1094.0</ele>
        <time>2020-07-28T11:54:09Z</time>
      </trkpt>
      <trkpt lat="42.8068490" lon="0.5196890">
        <ele>1092.2</ele>
        <time>2020-07-28T11:54:10Z</time>
      </trkpt>
      <trkpt lat="42.8067510" lon="0.5197830">
        <ele>1090.4</ele>
        <time>2020-07-28T11:54:11Z</time>
      </trkpt>
      <trkpt lat="42.8066640" lon="0.5198920">
        <ele>1088.8</ele>
        <time>2020-07-28T11:54:12Z</time>
      </trkpt>
      <trkpt lat="42.8065870" lon="0.5200230">
        <ele>1087.4</ele>
        <time>2020-07-28T11:54:13Z</time>
      </trkpt>
      <trkpt lat="42.8065200" lon="0.5201700">
        <ele>1086.4</ele>
        <time>2020-07-28T11:54:14Z</time>
      </trkpt>
      <trkpt lat="42.8064610" lon="0.5203300">
        <ele>1085.6</ele>
        <time>2020-07-28T11:54:15Z</time>
      </trkpt>
      <trkpt lat="42.8064100" lon="0.5204930">
        <ele>1084.2</ele>
        <time>2020-07-28T11:54:16Z</time>
      </trkpt>
      <trkpt lat="42.8063600" lon="0.5206660">
        <ele>1083.0</ele>
        <time>2020-07-28T11:54:17Z</time>
      </trkpt>
      <trkpt lat="42.8063060" lon="0.5208410">
        <ele>1082.2</ele>
        <time>2020-07-28T11:54:18Z</time>
      </trkpt>
      <trkpt lat="42.8062460" lon="0.5210180">
        <ele>1081.0</ele>
        <time>2020-07-28T11:54:19Z</time>
      </trkpt>
      <trkpt lat="42.8061800" lon="0.5211940">
        <ele>1079.8</ele>
        <time>2020-07-28T11:54:20Z</time>
      </trkpt>
      <trkpt lat="42.8061100" lon="0.5213700">
        <ele>1078.6</ele>
        <time>2020-07-28T11:54:21Z</time>
      </trkpt>
      <trkpt lat="42.8060450" lon="0.5215460">
        <ele>1076.0</ele>
        <time>2020-07-28T11:54:22Z</time>
      </trkpt>
      <trkpt lat="42.8059920" lon="0.5217250">
        <ele>1074.6</ele>
        <time>2020-07-28T11:54:23Z</time>
      </trkpt>
      <trkpt lat="42.8059590" lon="0.5219130">
        <ele>1072.8</ele>
        <time>2020-07-28T11:54:24Z</time>
      </trkpt>
      <trkpt lat="42.8059460" lon="0.5221080">
        <ele>1071.2</ele>
        <time>2020-07-28T11:54:25Z</time>
      </trkpt>
      <trkpt lat="42.8059500" lon="0.5223060">
        <ele>1069.4</ele>
        <time>2020-07-28T11:54:26Z</time>
      </trkpt>
      <trkpt lat="42.8059610" lon="0.5225030">
        <ele>1067.6</ele>
        <time>2020-07-28T11:54:27Z</time>
      </trkpt>
      <trkpt lat="42.8059780" lon="0.5227010">
        <ele>1066.0</ele>
        <time>2020-07-28T11:54:28Z</time>
      </trkpt>
      <trkpt lat="42.8059960" lon="0.5228960">
        <ele>1063.6</ele>
        <time>2020-07-28T11:54:29Z</time>
      </trkpt>
      <trkpt lat="42.8060130" lon="0.5230920">
        <ele>1061.6</ele>
        <time>2020-07-28T11:54:30Z</time>
      </trkpt>
      <trkpt lat="42.8060290" lon="0.5232880">
        <ele>1059.8</ele>
        <time>2020-07-28T11:54:31Z</time>
      </trkpt>
      <trkpt lat="42.8060390" lon="0.5234880">
        <ele>1058.0</ele>
        <time>2020-07-28T11:54:32Z</time>
      </trkpt>
      <trkpt lat="42.8060430" lon="0.5236880">
        <ele>1056.6</ele>
        <time>2020-07-28T11:54:33Z</time>
      </trkpt>
      <trkpt lat="42.8060410" lon="0.5238910">
        <ele>1055.2</ele>
        <time>2020-07-28T11:54:34Z</time>
      </trkpt>
      <trkpt lat="42.8060350" lon="0.5240940">
        <ele>1053.6</ele>
        <time>2020-07-28T11:54:35Z</time>
      </trkpt>
      <trkpt lat="42.8060250" lon="0.5242970">
        <ele>1051.8</ele>
        <time>2020-07-28T11:54:36Z</time>
      </trkpt>
      <trkpt lat="42.8060160" lon="0.5244990">
        <ele>1050.0</ele>
        <time>2020-07-28T11:54:37Z</time>
      </trkpt>
      <trkpt lat="42.8060150" lon="0.5247030">
        <ele>1048.8</ele>
        <time>2020-07-28T11:54:38Z</time>
      </trkpt>
      <trkpt lat="42.8060230" lon="0.5249040">
        <ele>1047.8</ele>
        <time>2020-07-28T11:54:39Z</time>
      </trkpt>
      <trkpt lat="42.8060420" lon="0.5251020">
        <ele>1046.8</ele>
        <time>2020-07-28T11:54:40Z</time>
      </trkpt>
      <trkpt lat="42.8060690" lon="0.5252970">
        <ele>1045.8</ele>
        <time>2020-07-28T11:54:41Z</time>
      </trkpt>
      <trkpt lat="42.8061020" lon="0.5254880">
        <ele>1044.0</ele>
        <time>2020-07-28T11:54:42Z</time>
      </trkpt>
      <trkpt lat="42.8061410" lon="0.5256760">
        <ele>1041.8</ele>
        <time>2020-07-28T11:54:43Z</time>
      </trkpt>
      <trkpt lat="42.8061820" lon="0.5258640">
        <ele>1040.0</ele>
        <time>2020-07-28T11:54:44Z</time>
      </trkpt>
      <trkpt lat="42.8062250" lon="0.5260520">
        <ele>1038.6</ele>
        <time>2020-07-28T11:54:45Z</time>
      </trkpt>
      <trkpt lat="42.8062710" lon="0.5262390">
        <ele>1037.4</ele>
        <time>2020-07-28T11:54:46Z</time>
      </trkpt>
      <trkpt lat="42.8063200" lon="0.5264270">
        <ele>1036.2</ele>
        <time>2020-07-28T11:54:47Z</time>
      </trkpt>
      <trkpt lat="42.8063670" lon="0.5266160">
        <ele>1033.8</ele>
        <time>2020-07-28T11:54:48Z</time>
      </trkpt>
      <trkpt lat="42.8064090" lon="0.5268060">
        <ele>1032.2</ele>
        <time>2020-07-28T11:54:49Z</time>
      </trkpt>
      <trkpt lat="42.8064530" lon="0.5269950">
        <ele>1029.8</ele>
        <time>2020-07-28T11:54:50Z</time>
      </trkpt>
      <trkpt lat="42.8065000" lon="0.5271830">
        <ele>1028.6</ele>
        <time>2020-07-28T11:54:51Z</time>
      </trkpt>
      <trkpt lat="42.8066040" lon="0.5275540">
        <ele>1027.0</ele>
        <time>2020-07-28T11:54:53Z</time>
      </trkpt>
      <trkpt lat="42.8066620" lon="0.5277340">
        <ele>1026.0</ele>
        <time>2020-07-28T11:54:54Z</time>
      </trkpt>
      <trkpt lat="42.8067230" lon="0.5279100">
        <ele>1024.8</ele>
        <time>2020-07-28T11:54:55Z</time>
      </trkpt>
      <trkpt lat="42.8067870" lon="0.5280800">
        <ele>1022.8</ele>
        <time>2020-07-28T11:54:56Z</time>
      </trkpt>
      <trkpt lat="42.8068540" lon="0.5282480">
        <ele>1021.0</ele>
        <time>2020-07-28T11:54:57Z</time>
      </trkpt>
      <trkpt lat="42.8069210" lon="0.5284140">
        <ele>1019.0</ele>
        <time>2020-07-28T11:54:58Z</time>
      </trkpt>
      <trkpt lat="42.8069870" lon="0.5285810">
        <ele>1017.4</ele>
        <time>2020-07-28T11:54:59Z</time>
      </trkpt>
      <trkpt lat="42.8070540" lon="0.5287490">
        <ele>1016.0</ele>
        <time>2020-07-28T11:55:00Z</time>
      </trkpt>
      <trkpt lat="42.8071200" lon="0.5289200">
        <ele>1014.6</ele>
        <time>2020-07-28T11:55:01Z</time>
      </trkpt>
      <trkpt lat="42.8071820" lon="0.5290940">
        <ele>1013.2</ele>
        <time>2020-07-28T11:55:02Z</time>
      </trkpt>
      <trkpt lat="42.8072360" lon="0.5292740">
        <ele>1011.8</ele>
        <time>2020-07-28T11:55:03Z</time>
      </trkpt>
      <trkpt lat="42.8072770" lon="0.5294590">
        <ele>1010.6</ele>
        <time>2020-07-28T11:55:04Z</time>
      </trkpt>
      <trkpt lat="42.8073080" lon="0.5296480">
        <ele>1009.2</ele>
        <time>2020-07-28T11:55:05Z</time>
      </trkpt>
      <trkpt lat="42.8073350" lon="0.5298380">
        <ele>1007.8</ele>
        <time>2020-07-28T11:55:06Z</time>
      </trkpt>
      <trkpt lat="42.8073560" lon="0.5300290">
        <ele>1006.6</ele>
        <time>2020-07-28T11:55:07Z</time>
      </trkpt>
      <trkpt lat="42.8073700" lon="0.5302200">
        <ele>1005.8</ele>
        <time>2020-07-28T11:55:08Z</time>
      </trkpt>
      <trkpt lat="42.8073750" lon="0.5304070">
        <ele>1004.6</ele>
        <time>2020-07-28T11:55:09Z</time>
      </trkpt>
      <trkpt lat="42.8073680" lon="0.5305930">
        <ele>1003.6</ele>
        <time>2020-07-28T11:55:10Z</time>
      </trkpt>
      <trkpt lat="42.8073480" lon="0.5307780">
        <ele>1002.0</ele>
        <time>2020-07-28T11:55:11Z</time>
      </trkpt>
      <trkpt lat="42.8073160" lon="0.5309610">
        <ele>1000.4</ele>
        <time>2020-07-28T11:55:12Z</time>
      </trkpt>
      <trkpt lat="42.8072800" lon="0.5311450">
        <ele>998.8</ele>
        <time>2020-07-28T11:55:13Z</time>
      </trkpt>
      <trkpt lat="42.8072420" lon="0.5313280">
        <ele>997.6</ele>
        <time>2020-07-28T11:55:14Z</time>
      </trkpt>
      <trkpt lat="42.8072040" lon="0.5315120">
        <ele>996.0</ele>
        <time>2020-07-28T11:55:15Z</time>
      </trkpt>
      <trkpt lat="42.8071670" lon="0.5316940">
        <ele>994.6</ele>
        <time>2020-07-28T11:55:16Z</time>
      </trkpt>
      <trkpt lat="42.8071300" lon="0.5318770">
        <ele>992.8</ele>
        <time>2020-07-28T11:55:17Z</time>
      </trkpt>
      <trkpt lat="42.8070540" lon="0.5322430">
        <ele>991.0</ele>
        <time>2020-07-28T11:55:19Z</time>
      </trkpt>
      <trkpt lat="42.8070110" lon="0.5324280">
        <ele>989.6</ele>
        <time>2020-07-28T11:55:20Z</time>
      </trkpt>
      <trkpt lat="42.8069660" lon="0.5326110">
        <ele>988.6</ele>
        <time>2020-07-28T11:55:21Z</time>
      </trkpt>
      <trkpt lat="42.8069210" lon="0.5327900">
        <ele>987.0</ele>
        <time>2020-07-28T11:55:22Z</time>
      </trkpt>
      <trkpt lat="42.8068780" lon="0.5329650">
        <ele>985.4</ele>
        <time>2020-07-28T11:55:23Z</time>
      </trkpt>
      <trkpt lat="42.8068460" lon="0.5331390">
        <ele>984.0</ele>
        <time>2020-07-28T11:55:24Z</time>
      </trkpt>
      <trkpt lat="42.8068280" lon="0.5333140">
        <ele>982.6</ele>
        <time>2020-07-28T11:55:25Z</time>
      </trkpt>
      <trkpt lat="42.8068240" lon="0.5334880">
        <ele>981.6</ele>
        <time>2020-07-28T11:55:26Z</time>
      </trkpt>
      <trkpt lat="42.8068300" lon="0.5336600">
        <ele>980.8</ele>
        <time>2020-07-28T11:55:27Z</time>
      </trkpt>
      <trkpt lat="42.8068380" lon="0.5338300">
        <ele>979.6</ele>
        <time>2020-07-28T11:55:28Z</time>
      </trkpt>
      <trkpt lat="42.8068490" lon="0.5339990">
        <ele>978.0</ele>
        <time>2020-07-28T11:55:29Z</time>
      </trkpt>
      <trkpt lat="42.8068600" lon="0.5341650">
        <ele>976.4</ele>
        <time>2020-07-28T11:55:30Z</time>
      </trkpt>
      <trkpt lat="42.8068680" lon="0.5343310">
        <ele>975.6</ele>
        <time>2020-07-28T11:55:31Z</time>
      </trkpt>
      <trkpt lat="42.8068670" lon="0.5344990">
        <ele>975.0</ele>
        <time>2020-07-28T11:55:32Z</time>
      </trkpt>
      <trkpt lat="42.8068550" lon="0.5346640">
        <ele>974.6</ele>
        <time>2020-07-28T11:55:33Z</time>
      </trkpt>
      <trkpt lat="42.8068090" lon="0.5349830">
        <ele>974.4</ele>
        <time>2020-07-28T11:55:35Z</time>
      </trkpt>
      <trkpt lat="42.8067490" lon="0.5352920">
        <ele>973.4</ele>
        <time>2020-07-28T11:55:37Z</time>
      </trkpt>
      <trkpt lat="42.8066930" lon="0.5355960">
        <ele>972.4</ele>
        <time>2020-07-28T11:55:39Z</time>
      </trkpt>
      <trkpt lat="42.8066510" lon="0.5358910">
        <ele>971.0</ele>
        <time>2020-07-28T11:55:41Z</time>
      </trkpt>
      <trkpt lat="42.8066360" lon="0.5360340">
        <ele>970.2</ele>
        <time>2020-07-28T11:55:42Z</time>
      </trkpt>
      <trkpt lat="42.8066230" lon="0.5361730">
        <ele>969.6</ele>
        <time>2020-07-28T11:55:43Z</time>
      </trkpt>
      <trkpt lat="42.8066080" lon="0.5364470">
        <ele>968.6</ele>
        <time>2020-07-28T11:55:45Z</time>
      </trkpt>
      <trkpt lat="42.8066090" lon="0.5367120">
        <ele>968.0</ele>
        <time>2020-07-28T11:55:47Z</time>
      </trkpt>
      <trkpt lat="42.8066170" lon="0.5370960">
        <ele>967.4</ele>
        <time>2020-07-28T11:55:50Z</time>
      </trkpt>
      <trkpt lat="42.8066140" lon="0.5374660">
        <ele>967.0</ele>
        <time>2020-07-28T11:55:53Z</time>
      </trkpt>
      <trkpt lat="42.8065690" lon="0.5382090">
        <ele>966.4</ele>
        <time>2020-07-28T11:55:59Z</time>
      </trkpt>
      <trkpt lat="42.8065550" lon="0.5383310">
        <ele>966.2</ele>
        <time>2020-07-28T11:56:00Z</time>
      </trkpt>
      <trkpt lat="42.8064570" lon="0.5390730">
        <ele>964.8</ele>
        <time>2020-07-28T11:56:06Z</time>
      </trkpt>
      <trkpt lat="42.8064150" lon="0.5393250">
        <ele>964.2</ele>
        <time>2020-07-28T11:56:08Z</time>
      </trkpt>
      <trkpt lat="42.8063940" lon="0.5394530">
        <ele>963.6</ele>
        <time>2020-07-28T11:56:09Z</time>
      </trkpt>
      <trkpt lat="42.8063360" lon="0.5398490">
        <ele>962.2</ele>
        <time>2020-07-28T11:56:12Z</time>
      </trkpt>
      <trkpt lat="42.8062970" lon="0.5401230">
        <ele>960.6</ele>
        <time>2020-07-28T11:56:14Z</time>
      </trkpt>
      <trkpt lat="42.8062620" lon="0.5404050">
        <ele>959.4</ele>
        <time>2020-07-28T11:56:16Z</time>
      </trkpt>
      <trkpt lat="42.8062320" lon="0.5406950">
        <ele>958.4</ele>
        <time>2020-07-28T11:56:18Z</time>
      </trkpt>
      <trkpt lat="42.8062060" lon="0.5409880">
        <ele>957.0</ele>
        <time>2020-07-28T11:56:20Z</time>
      </trkpt>
      <trkpt lat="42.8061960" lon="0.5411360">
        <ele>956.2</ele>
        <time>2020-07-28T11:56:21Z</time>
      </trkpt>
      <trkpt lat="42.8061860" lon="0.5412840">
        <ele>955.6</ele>
        <time>2020-07-28T11:56:22Z</time>
      </trkpt>
      <trkpt lat="42.8061760" lon="0.5415830">
        <ele>954.4</ele>
        <time>2020-07-28T11:56:24Z</time>
      </trkpt>
      <trkpt lat="42.8061740" lon="0.5418800">
        <ele>952.4</ele>
        <time>2020-07-28T11:56:26Z</time>
      </trkpt>
      <trkpt lat="42.8061750" lon="0.5420290">
        <ele>951.4</ele>
        <time>2020-07-28T11:56:27Z</time>
      </trkpt>
      <trkpt lat="42.8061740" lon="0.5421780">
        <ele>951.0</ele>
        <time>2020-07-28T11:56:28Z</time>
      </trkpt>
      <trkpt lat="42.8061740" lon="0.5424780">
        <ele>950.0</ele>
        <time>2020-07-28T11:56:30Z</time>
      </trkpt>
      <trkpt lat="42.8061820" lon="0.5427790">
        <ele>948.6</ele>
        <time>2020-07-28T11:56:32Z</time>
      </trkpt>
      <trkpt lat="42.8061990" lon="0.5430830">
        <ele>947.4</ele>
        <time>2020-07-28T11:56:34Z</time>
      </trkpt>
      <trkpt lat="42.8062140" lon="0.5432350">
        <ele>947.0</ele>
        <time>2020-07-28T11:56:35Z</time>
      </trkpt>
      <trkpt lat="42.8062610" lon="0.5435350">
        <ele>945.2</ele>
        <time>2020-07-28T11:56:37Z</time>
      </trkpt>
      <trkpt lat="42.8063220" lon="0.5438310">
        <ele>943.8</ele>
        <time>2020-07-28T11:56:39Z</time>
      </trkpt>
      <trkpt lat="42.8063560" lon="0.5439770">
        <ele>943.2</ele>
        <time>2020-07-28T11:56:40Z</time>
      </trkpt>
      <trkpt lat="42.8063900" lon="0.5441220">
        <ele>942.8</ele>
        <time>2020-07-28T11:56:41Z</time>
      </trkpt>
      <trkpt lat="42.8064510" lon="0.5445730">
        <ele>941.0</ele>
        <time>2020-07-28T11:56:44Z</time>
      </trkpt>
      <trkpt lat="42.8064560" lon="0.5447280">
        <ele>940.0</ele>
        <time>2020-07-28T11:56:45Z</time>
      </trkpt>
      <trkpt lat="42.8064570" lon="0.5450400">
        <ele>938.4</ele>
        <time>2020-07-28T11:56:47Z</time>
      </trkpt>
      <trkpt lat="42.8064460" lon="0.5453430">
        <ele>936.8</ele>
        <time>2020-07-28T11:56:49Z</time>
      </trkpt>
      <trkpt lat="42.8064440" lon="0.5454870">
        <ele>936.2</ele>
        <time>2020-07-28T11:56:50Z</time>
      </trkpt>
      <trkpt lat="42.8064500" lon="0.5456280">
        <ele>935.6</ele>
        <time>2020-07-28T11:56:51Z</time>
      </trkpt>
      <trkpt lat="42.8064800" lon="0.5458990">
        <ele>934.4</ele>
        <time>2020-07-28T11:56:53Z</time>
      </trkpt>
      <trkpt lat="42.8065050" lon="0.5460300">
        <ele>933.4</ele>
        <time>2020-07-28T11:56:54Z</time>
      </trkpt>
      <trkpt lat="42.8065290" lon="0.5461590">
        <ele>932.8</ele>
        <time>2020-07-28T11:56:55Z</time>
      </trkpt>
      <trkpt lat="42.8065930" lon="0.5468240">
        <ele>931.6</ele>
        <time>2020-07-28T11:57:00Z</time>
      </trkpt>
      <trkpt lat="42.8065630" lon="0.5473740">
        <ele>930.0</ele>
        <time>2020-07-28T11:57:04Z</time>
      </trkpt>
      <trkpt lat="42.8065380" lon="0.5476460">
        <ele>929.4</ele>
        <time>2020-07-28T11:57:06Z</time>
      </trkpt>
      <trkpt lat="42.8064960" lon="0.5479160">
        <ele>929.0</ele>
        <time>2020-07-28T11:57:08Z</time>
      </trkpt>
      <trkpt lat="42.8064590" lon="0.5480460">
        <ele>928.8</ele>
        <time>2020-07-28T11:57:09Z</time>
      </trkpt>
      <trkpt lat="42.8064130" lon="0.5481740">
        <ele>928.4</ele>
        <time>2020-07-28T11:57:10Z</time>
      </trkpt>
      <trkpt lat="42.8063640" lon="0.5482990">
        <ele>927.4</ele>
        <time>2020-07-28T11:57:11Z</time>
      </trkpt>
      <trkpt lat="42.8063200" lon="0.5484250">
        <ele>926.8</ele>
        <time>2020-07-28T11:57:12Z</time>
      </trkpt>
      <trkpt lat="42.8062930" lon="0.5485610">
        <ele>926.2</ele>
        <time>2020-07-28T11:57:13Z</time>
      </trkpt>
      <trkpt lat="42.8062800" lon="0.5487060">
        <ele>925.4</ele>
        <time>2020-07-28T11:57:14Z</time>
      </trkpt>
      <trkpt lat="42.8062780" lon="0.5488540">
        <ele>924.8</ele>
        <time>2020-07-28T11:57:15Z</time>
      </trkpt>
      <trkpt lat="42.8062830" lon="0.5490040">
        <ele>924.0</ele>
        <time>2020-07-28T11:57:16Z</time>
      </trkpt>
      <trkpt lat="42.8062890" lon="0.5491540">
        <ele>923.0</ele>
        <time>2020-07-28T11:57:17Z</time>
      </trkpt>
      <trkpt lat="42.8062970" lon="0.5493000">
        <ele>921.8</ele>
        <time>2020-07-28T11:57:18Z</time>
      </trkpt>
      <trkpt lat="42.8063090" lon="0.5494440">
        <ele>920.6</ele>
        <time>2020-07-28T11:57:19Z</time>
      </trkpt>
      <trkpt lat="42.8063200" lon="0.5497310">
        <ele>919.0</ele>
        <time>2020-07-28T11:57:21Z</time>
      </trkpt>
      <trkpt lat="42.8063180" lon="0.5498700">
        <ele>917.8</ele>
        <time>2020-07-28T11:57:22Z</time>
      </trkpt>
      <trkpt lat="42.8063110" lon="0.5500110">
        <ele>916.4</ele>
        <time>2020-07-28T11:57:23Z</time>
      </trkpt>
      <trkpt lat="42.8062980" lon="0.5501520">
        <ele>915.2</ele>
        <time>2020-07-28T11:57:24Z</time>
      </trkpt>
      <trkpt lat="42.8062580" lon="0.5504390">
        <ele>914.0</ele>
        <time>2020-07-28T11:57:26Z</time>
      </trkpt>
      <trkpt lat="42.8061840" lon="0.5508870">
        <ele>913.0</ele>
        <time>2020-07-28T11:57:29Z</time>
      </trkpt>
      <trkpt lat="42.8061610" lon="0.5510410">
        <ele>913.0</ele>
        <time>2020-07-28T11:57:30Z</time>
      </trkpt>
      <trkpt lat="42.8061120" lon="0.5513580">
        <ele>911.6</ele>
        <time>2020-07-28T11:57:32Z</time>
      </trkpt>
      <trkpt lat="42.8060630" lon="0.5516890">
        <ele>909.4</ele>
        <time>2020-07-28T11:57:34Z</time>
      </trkpt>
      <trkpt lat="42.8060360" lon="0.5518580">
        <ele>908.2</ele>
        <time>2020-07-28T11:57:35Z</time>
      </trkpt>
      <trkpt lat="42.8060100" lon="0.5520300">
        <ele>907.2</ele>
        <time>2020-07-28T11:57:36Z</time>
      </trkpt>
      <trkpt lat="42.8059880" lon="0.5522050">
        <ele>906.2</ele>
        <time>2020-07-28T11:57:37Z</time>
      </trkpt>
      <trkpt lat="42.8059710" lon="0.5523850">
        <ele>904.6</ele>
        <time>2020-07-28T11:57:38Z</time>
      </trkpt>
      <trkpt lat="42.8059590" lon="0.5525700">
        <ele>903.4</ele>
        <time>2020-07-28T11:57:39Z</time>
      </trkpt>
      <trkpt lat="42.8059530" lon="0.5527540">
        <ele>902.2</ele>
        <time>2020-07-28T11:57:40Z</time>
      </trkpt>
      <trkpt lat="42.8059510" lon="0.5529460">
        <ele>900.8</ele>
        <time>2020-07-28T11:57:41Z</time>
      </trkpt>
      <trkpt lat="42.8059520" lon="0.5531390">
        <ele>899.4</ele>
        <time>2020-07-28T11:57:42Z</time>
      </trkpt>
      <trkpt lat="42.8059740" lon="0.5535260">
        <ele>897.6</ele>
        <time>2020-07-28T11:57:44Z</time>
      </trkpt>
      <trkpt lat="42.8059920" lon="0.5537220">
        <ele>896.2</ele>
        <time>2020-07-28T11:57:45Z</time>
      </trkpt>
      <trkpt lat="42.8060130" lon="0.5539180">
        <ele>894.6</ele>
        <time>2020-07-28T11:57:46Z</time>
      </trkpt>
      <trkpt lat="42.8060350" lon="0.5541170">
        <ele>892.8</ele>
        <time>2020-07-28T11:57:47Z</time>
      </trkpt>
      <trkpt lat="42.8060550" lon="0.5543150">
        <ele>891.2</ele>
        <time>2020-07-28T11:57:48Z</time>
      </trkpt>
      <trkpt lat="42.8060730" lon="0.5545130">
        <ele>889.2</ele>
        <time>2020-07-28T11:57:49Z</time>
      </trkpt>
      <trkpt lat="42.8060880" lon="0.5547140">
        <ele>887.8</ele>
        <time>2020-07-28T11:57:50Z</time>
      </trkpt>
      <trkpt lat="42.8061000" lon="0.5549150">
        <ele>886.6</ele>
        <time>2020-07-28T11:57:51Z</time>
      </trkpt>
      <trkpt lat="42.8061100" lon="0.5551120">
        <ele>885.4</ele>
        <time>2020-07-28T11:57:52Z</time>
      </trkpt>
      <trkpt lat="42.8061140" lon="0.5553130">
        <ele>883.8</ele>
        <time>2020-07-28T11:57:53Z</time>
      </trkpt>
      <trkpt lat="42.8061120" lon="0.5555120">
        <ele>882.4</ele>
        <time>2020-07-28T11:57:54Z</time>
      </trkpt>
      <trkpt lat="42.8061020" lon="0.5557070">
        <ele>881.4</ele>
        <time>2020-07-28T11:57:55Z</time>
      </trkpt>
      <trkpt lat="42.8060820" lon="0.5558970">
        <ele>879.8</ele>
        <time>2020-07-28T11:57:56Z</time>
      </trkpt>
      <trkpt lat="42.8060560" lon="0.5560780">
        <ele>878.2</ele>
        <time>2020-07-28T11:57:57Z</time>
      </trkpt>
      <trkpt lat="42.8060280" lon="0.5562690">
        <ele>876.8</ele>
        <time>2020-07-28T11:57:58Z</time>
      </trkpt>
      <trkpt lat="42.8060020" lon="0.5564560">
        <ele>874.6</ele>
        <time>2020-07-28T11:57:59Z</time>
      </trkpt>
      <trkpt lat="42.8059760" lon="0.5566410">
        <ele>873.4</ele>
        <time>2020-07-28T11:58:00Z</time>
      </trkpt>
      <trkpt lat="42.8059440" lon="0.5568210">
        <ele>872.4</ele>
        <time>2020-07-28T11:58:01Z</time>
      </trkpt>
      <trkpt lat="42.8059050" lon="0.5569990">
        <ele>871.2</ele>
        <time>2020-07-28T11:58:02Z</time>
      </trkpt>
      <trkpt lat="42.8058590" lon="0.5571760">
        <ele>870.0</ele>
        <time>2020-07-28T11:58:03Z</time>
      </trkpt>
      <trkpt lat="42.8058100" lon="0.5573530">
        <ele>868.8</ele>
        <time>2020-07-28T11:58:04Z</time>
      </trkpt>
      <trkpt lat="42.8057590" lon="0.5575280">
        <ele>867.4</ele>
        <time>2020-07-28T11:58:05Z</time>
      </trkpt>
      <trkpt lat="42.8056580" lon="0.5578690">
        <ele>865.8</ele>
        <time>2020-07-28T11:58:07Z</time>
      </trkpt>
      <trkpt lat="42.8055680" lon="0.5581870">
        <ele>863.4</ele>
        <time>2020-07-28T11:58:09Z</time>
      </trkpt>
      <trkpt lat="42.8055280" lon="0.5583360">
        <ele>861.8</ele>
        <time>2020-07-28T11:58:10Z</time>
      </trkpt>
      <trkpt lat="42.8054970" lon="0.5584750">
        <ele>860.6</ele>
        <time>2020-07-28T11:58:11Z</time>
      </trkpt>
      <trkpt lat="42.8054820" lon="0.5586140">
        <ele>859.2</ele>
        <time>2020-07-28T11:58:12Z</time>
      </trkpt>
      <trkpt lat="42.8054860" lon="0.5587550">
        <ele>858.2</ele>
        <time>2020-07-28T11:58:13Z</time>
      </trkpt>
      <trkpt lat="42.8055240" lon="0.5588900">
        <ele>856.8</ele>
        <time>2020-07-28T11:58:14Z</time>
      </trkpt>
      <trkpt lat="42.8055880" lon="0.5590160">
        <ele>855.6</ele>
        <time>2020-07-28T11:58:15Z</time>
      </trkpt>
      <trkpt lat="42.8057710" lon="0.5592140">
        <ele>854.0</ele>
        <time>2020-07-28T11:58:17Z</time>
      </trkpt>
      <trkpt lat="42.8058760" lon="0.5592890">
        <ele>853.0</ele>
        <time>2020-07-28T11:58:18Z</time>
      </trkpt>
      <trkpt lat="42.8060900" lon="0.5594020">
        <ele>851.4</ele>
        <time>2020-07-28T11:58:20Z</time>
      </trkpt>
      <trkpt lat="42.8061930" lon="0.5594380">
        <ele>850.8</ele>
        <time>2020-07-28T11:58:21Z</time>
      </trkpt>
      <trkpt lat="42.8062910" lon="0.5594640">
        <ele>849.6</ele>
        <time>2020-07-28T11:58:22Z</time>
      </trkpt>
      <trkpt lat="42.8063870" lon="0.5594840">
        <ele>848.0</ele>
        <time>2020-07-28T11:58:23Z</time>
      </trkpt>
      <trkpt lat="42.8064710" lon="0.5595100">
        <ele>846.2</ele>
        <time>2020-07-28T11:58:24Z</time>
      </trkpt>
      <trkpt lat="42.8065400" lon="0.5595540">
        <ele>844.8</ele>
        <time>2020-07-28T11:58:25Z</time>
      </trkpt>
      <trkpt lat="42.8065890" lon="0.5596220">
        <ele>842.6</ele>
        <time>2020-07-28T11:58:26Z</time>
      </trkpt>
      <trkpt lat="42.8066110" lon="0.5597120">
        <ele>841.8</ele>
        <time>2020-07-28T11:58:27Z</time>
      </trkpt>
      <trkpt lat="42.8065930" lon="0.5597940">
        <ele>841.4</ele>
        <time>2020-07-28T11:58:28Z</time>
      </trkpt>
      <trkpt lat="42.8065370" lon="0.5598400">
        <ele>841.0</ele>
        <time>2020-07-28T11:58:29Z</time>
      </trkpt>
      <trkpt lat="42.8063850" lon="0.5598120">
        <ele>840.0</ele>
        <time>2020-07-28T11:58:31Z</time>
      </trkpt>
      <trkpt lat="42.8062180" lon="0.5597130">
        <ele>839.4</ele>
        <time>2020-07-28T11:58:33Z</time>
      </trkpt>
      <trkpt lat="42.8061250" lon="0.5596720">
        <ele>839.4</ele>
        <time>2020-07-28T11:58:34Z</time>
      </trkpt>
      <trkpt lat="42.8060210" lon="0.5596460">
        <ele>839.2</ele>
        <time>2020-07-28T11:58:35Z</time>
      </trkpt>
      <trkpt lat="42.8058000" lon="0.5596190">
        <ele>839.0</ele>
        <time>2020-07-28T11:58:37Z</time>
      </trkpt>
      <trkpt lat="42.8055720" lon="0.5596110">
        <ele>837.4</ele>
        <time>2020-07-28T11:58:39Z</time>
      </trkpt>
      <trkpt lat="42.8054590" lon="0.5596280">
        <ele>836.2</ele>
        <time>2020-07-28T11:58:40Z</time>
      </trkpt>
      <trkpt lat="42.8053450" lon="0.5596690">
        <ele>835.0</ele>
        <time>2020-07-28T11:58:41Z</time>
      </trkpt>
      <trkpt lat="42.8052380" lon="0.5597180">
        <ele>833.8</ele>
        <time>2020-07-28T11:58:42Z</time>
      </trkpt>
      <trkpt lat="42.8051360" lon="0.5597690">
        <ele>832.4</ele>
        <time>2020-07-28T11:58:43Z</time>
      </trkpt>
      <trkpt lat="42.8050370" lon="0.5598110">
        <ele>831.0</ele>
        <time>2020-07-28T11:58:44Z</time>
      </trkpt>
      <trkpt lat="42.8049380" lon="0.5598410">
        <ele>829.4</ele>
        <time>2020-07-28T11:58:45Z</time>
      </trkpt>
      <trkpt lat="42.8048500" lon="0.5598430">
        <ele>828.0</ele>
        <time>2020-07-28T11:58:46Z</time>
      </trkpt>
      <trkpt lat="42.8047670" lon="0.5598620">
        <ele>827.0</ele>
        <time>2020-07-28T11:58:47Z</time>
      </trkpt>
      <trkpt lat="42.8047010" lon="0.5599000">
        <ele>825.8</ele>
        <time>2020-07-28T11:58:48Z</time>
      </trkpt>
      <trkpt lat="42.8046590" lon="0.5599710">
        <ele>825.0</ele>
        <time>2020-07-28T11:58:49Z</time>
      </trkpt>
      <trkpt lat="42.8046500" lon="0.5600550">
        <ele>824.2</ele>
        <time>2020-07-28T11:58:50Z</time>
      </trkpt>
      <trkpt lat="42.8046740" lon="0.5601450">
        <ele>823.6</ele>
        <time>2020-07-28T11:58:51Z</time>
      </trkpt>
      <trkpt lat="42.8047670" lon="0.5602460">
        <ele>823.0</ele>
        <time>2020-07-28T11:58:53Z</time>
      </trkpt>
      <trkpt lat="42.8049380" lon="0.5601830">
        <ele>822.6</ele>
        <time>2020-07-28T11:58:55Z</time>
      </trkpt>
      <trkpt lat="42.8050390" lon="0.5601280">
        <ele>822.6</ele>
        <time>2020-07-28T11:58:56Z</time>
      </trkpt>
      <trkpt lat="42.8052450" lon="0.5600570">
        <ele>822.0</ele>
        <time>2020-07-28T11:58:58Z</time>
      </trkpt>
      <trkpt lat="42.8053530" lon="0.5600560">
        <ele>822.0</ele>
        <time>2020-07-28T11:58:59Z</time>
      </trkpt>
      <trkpt lat="42.8055790" lon="0.5600890">
        <ele>821.2</ele>
        <time>2020-07-28T11:59:01Z</time>
      </trkpt>
      <trkpt lat="42.8056920" lon="0.5601120">
        <ele>820.8</ele>
        <time>2020-07-28T11:59:02Z</time>
      </trkpt>
      <trkpt lat="42.8058050" lon="0.5601470">
        <ele>820.4</ele>
        <time>2020-07-28T11:59:03Z</time>
      </trkpt>
      <trkpt lat="42.8060210" lon="0.5602420">
        <ele>818.8</ele>
        <time>2020-07-28T11:59:05Z</time>
      </trkpt>
      <trkpt lat="42.8061280" lon="0.5603070">
        <ele>817.8</ele>
        <time>2020-07-28T11:59:06Z</time>
      </trkpt>
      <trkpt lat="42.8062160" lon="0.5603910">
        <ele>816.8</ele>
        <time>2020-07-28T11:59:07Z</time>
      </trkpt>
      <trkpt lat="42.8062830" lon="0.5604920">
        <ele>815.8</ele>
        <time>2020-07-28T11:59:08Z</time>
      </trkpt>
      <trkpt lat="42.8063200" lon="0.5606090">
        <ele>815.0</ele>
        <time>2020-07-28T11:59:09Z</time>
      </trkpt>
      <trkpt lat="42.8063220" lon="0.5607270">
        <ele>814.2</ele>
        <time>2020-07-28T11:59:10Z</time>
      </trkpt>
      <trkpt lat="42.8062890" lon="0.5608360">
        <ele>813.4</ele>
        <time>2020-07-28T11:59:11Z</time>
      </trkpt>
      <trkpt lat="42.8062250" lon="0.5609320">
        <ele>812.8</ele>
        <time>2020-07-28T11:59:12Z</time>
      </trkpt>
      <trkpt lat="42.8061390" lon="0.5609860">
        <ele>812.2</ele>
        <time>2020-07-28T11:59:13Z</time>
      </trkpt>
      <trkpt lat="42.8060380" lon="0.5610130">
        <ele>811.4</ele>
        <time>2020-07-28T11:59:14Z</time>
      </trkpt>
      <trkpt lat="42.8059290" lon="0.5610260">
        <ele>811.0</ele>
        <time>2020-07-28T11:59:15Z</time>
      </trkpt>
      <trkpt lat="42.8058150" lon="0.5610340">
        <ele>810.8</ele>
        <time>2020-07-28T11:59:16Z</time>
      </trkpt>
      <trkpt lat="42.8055810" lon="0.5610670">
        <ele>810.4</ele>
        <time>2020-07-28T11:59:18Z</time>
      </trkpt>
      <trkpt lat="42.8054610" lon="0.5611070">
        <ele>810.2</ele>
        <time>2020-07-28T11:59:19Z</time>
      </trkpt>
      <trkpt lat="42.8053440" lon="0.5611600">
        <ele>809.8</ele>
        <time>2020-07-28T11:59:20Z</time>
      </trkpt>
      <trkpt lat="42.8052250" lon="0.5612350">
        <ele>808.0</ele>
        <time>2020-07-28T11:59:21Z</time>
      </trkpt>
      <trkpt lat="42.8051070" lon="0.5613200">
        <ele>806.2</ele>
        <time>2020-07-28T11:59:22Z</time>
      </trkpt>
      <trkpt lat="42.8049850" lon="0.5614140">
        <ele>804.4</ele>
        <time>2020-07-28T11:59:23Z</time>
      </trkpt>
      <trkpt lat="42.8048640" lon="0.5615060">
        <ele>802.8</ele>
        <time>2020-07-28T11:59:24Z</time>
      </trkpt>
      <trkpt lat="42.8047410" lon="0.5615970">
        <ele>801.6</ele>
        <time>2020-07-28T11:59:25Z</time>
      </trkpt>
      <trkpt lat="42.8046150" lon="0.5616840">
        <ele>800.4</ele>
        <time>2020-07-28T11:59:26Z</time>
      </trkpt>
      <trkpt lat="42.8044830" lon="0.5617630">
        <ele>798.8</ele>
        <time>2020-07-28T11:59:27Z</time>
      </trkpt>
      <trkpt lat="42.8043510" lon="0.5618340">
        <ele>797.6</ele>
        <time>2020-07-28T11:59:28Z</time>
      </trkpt>
      <trkpt lat="42.8042100" lon="0.5618930">
        <ele>796.2</ele>
        <time>2020-07-28T11:59:29Z</time>
      </trkpt>
      <trkpt lat="42.8040690" lon="0.5619390">
        <ele>795.2</ele>
        <time>2020-07-28T11:59:30Z</time>
      </trkpt>
      <trkpt lat="42.8039280" lon="0.5619690">
        <ele>794.4</ele>
        <time>2020-07-28T11:59:31Z</time>
      </trkpt>
      <trkpt lat="42.8037830" lon="0.5619820">
        <ele>793.2</ele>
        <time>2020-07-28T11:59:32Z</time>
      </trkpt>
      <trkpt lat="42.8035100" lon="0.5619990">
        <ele>791.4</ele>
        <time>2020-07-28T11:59:34Z</time>
      </trkpt>
      <trkpt lat="42.8033800" lon="0.5620290">
        <ele>790.2</ele>
        <time>2020-07-28T11:59:35Z</time>
      </trkpt>
      <trkpt lat="42.8032570" lon="0.5620890">
        <ele>789.0</ele>
        <time>2020-07-28T11:59:36Z</time>
      </trkpt>
      <trkpt lat="42.8031510" lon="0.5621820">
        <ele>787.2</ele>
        <time>2020-07-28T11:59:37Z</time>
      </trkpt>
      <trkpt lat="42.8030590" lon="0.5622990">
        <ele>785.8</ele>
        <time>2020-07-28T11:59:38Z</time>
      </trkpt>
      <trkpt lat="42.8029810" lon="0.5624320">
        <ele>784.6</ele>
        <time>2020-07-28T11:59:39Z</time>
      </trkpt>
      <trkpt lat="42.8029070" lon="0.5625710">
        <ele>783.4</ele>
        <time>2020-07-28T11:59:40Z</time>
      </trkpt>
      <trkpt lat="42.8028390" lon="0.5627170">
        <ele>782.2</ele>
        <time>2020-07-28T11:59:41Z</time>
      </trkpt>
      <trkpt lat="42.8027630" lon="0.5628610">
        <ele>781.0</ele>
        <time>2020-07-28T11:59:42Z</time>
      </trkpt>
      <trkpt lat="42.8025850" lon="0.5631230">
        <ele>779.4</ele>
        <time>2020-07-28T11:59:44Z</time>
      </trkpt>
      <trkpt lat="42.8024010" lon="0.5633740">
        <ele>778.0</ele>
        <time>2020-07-28T11:59:46Z</time>
      </trkpt>
      <trkpt lat="42.8022150" lon="0.5636150">
        <ele>776.4</ele>
        <time>2020-07-28T11:59:48Z</time>
      </trkpt>
      <trkpt lat="42.8020320" lon="0.5638560">
        <ele>774.4</ele>
        <time>2020-07-28T11:59:50Z</time>
      </trkpt>
      <trkpt lat="42.8018430" lon="0.5640930">
        <ele>772.8</ele>
        <time>2020-07-28T11:59:52Z</time>
      </trkpt>
      <trkpt lat="42.8016590" lon="0.5643280">
        <ele>771.4</ele>
        <time>2020-07-28T11:59:54Z</time>
      </trkpt>
      <trkpt lat="42.8014790" lon="0.5645610">
        <ele>770.6</ele>
        <time>2020-07-28T11:59:56Z</time>
      </trkpt>
      <trkpt lat="42.8013890" lon="0.5646730">
        <ele>770.2</ele>
        <time>2020-07-28T11:59:57Z</time>
      </trkpt>
      <trkpt lat="42.8011950" lon="0.5648770">
        <ele>767.8</ele>
        <time>2020-07-28T11:59:59Z</time>
      </trkpt>
      <trkpt lat="42.8009900" lon="0.5650740">
        <ele>766.4</ele>
        <time>2020-07-28T12:00:01Z</time>
      </trkpt>
      <trkpt lat="42.8007680" lon="0.5652330">
        <ele>765.2</ele>
        <time>2020-07-28T12:00:03Z</time>
      </trkpt>
      <trkpt lat="42.8005450" lon="0.5653620">
        <ele>763.4</ele>
        <time>2020-07-28T12:00:05Z</time>
      </trkpt>
      <trkpt lat="42.8003340" lon="0.5654750">
        <ele>761.8</ele>
        <time>2020-07-28T12:00:07Z</time>
      </trkpt>
      <trkpt lat="42.8000660" lon="0.5656530">
        <ele>760.8</ele>
        <time>2020-07-28T12:00:10Z</time>
      </trkpt>
      <trkpt lat="42.7996940" lon="0.5659630">
        <ele>760.6</ele>
        <time>2020-07-28T12:00:15Z</time>
      </trkpt>
      <trkpt lat="42.7994250" lon="0.5662890">
        <ele>762.0</ele>
        <time>2020-07-28T12:00:20Z</time>
      </trkpt>
      <trkpt lat="42.7992570" lon="0.5664920">
        <ele>763.2</ele>
        <time>2020-07-28T12:00:24Z</time>
      </trkpt>
      <trkpt lat="42.7991860" lon="0.5665720">
        <ele>764.0</ele>
        <time>2020-07-28T12:00:26Z</time>
      </trkpt>
      <trkpt lat="42.7991460" lon="0.5666040">
        <ele>764.4</ele>
        <time>2020-07-28T12:00:27Z</time>
      </trkpt>
      <trkpt lat="42.7990250" lon="0.5666550">
        <ele>765.0</ele>
        <time>2020-07-28T12:00:30Z</time>
      </trkpt>
      <trkpt lat="42.7989820" lon="0.5666750">
        <ele>765.2</ele>
        <time>2020-07-28T12:00:31Z</time>
      </trkpt>
      <trkpt lat="42.7989370" lon="0.5667020">
        <ele>765.8</ele>
        <time>2020-07-28T12:00:32Z</time>
      </trkpt>
      <trkpt lat="42.7988970" lon="0.5667230">
        <ele>766.2</ele>
        <time>2020-07-28T12:00:33Z</time>
      </trkpt>
      <trkpt lat="42.7988140" lon="0.5667790">
        <ele>766.6</ele>
        <time>2020-07-28T12:00:35Z</time>
      </trkpt>
      <trkpt lat="42.7987700" lon="0.5668030">
        <ele>767.0</ele>
        <time>2020-07-28T12:00:36Z</time>
      </trkpt>
      <trkpt lat="42.7985760" lon="0.5668070">
        <ele>767.4</ele>
        <time>2020-07-28T12:00:41Z</time>
      </trkpt>
      <trkpt lat="42.7984280" lon="0.5667890">
        <ele>767.6</ele>
        <time>2020-07-28T12:00:44Z</time>
      </trkpt>
      <trkpt lat="42.7982300" lon="0.5667480">
        <ele>767.6</ele>
        <time>2020-07-28T12:00:46Z</time>
      </trkpt>
      <trkpt lat="42.7977270" lon="0.5666740">
        <ele>767.4</ele>
        <time>2020-07-28T12:00:50Z</time>
      </trkpt>
      <trkpt lat="42.7975460" lon="0.5669720">
        <ele>767.6</ele>
        <time>2020-07-28T12:00:53Z</time>
      </trkpt>
      <trkpt lat="42.7975060" lon="0.5670900">
        <ele>767.4</ele>
        <time>2020-07-28T12:00:54Z</time>
      </trkpt>
      <trkpt lat="42.7972780" lon="0.5677010">
        <ele>766.0</ele>
        <time>2020-07-28T12:00:59Z</time>
      </trkpt>
      <trkpt lat="42.7972150" lon="0.5678010">
        <ele>765.6</ele>
        <time>2020-07-28T12:01:00Z</time>
      </trkpt>
      <trkpt lat="42.7970280" lon="0.5681000">
        <ele>764.8</ele>
        <time>2020-07-28T12:01:03Z</time>
      </trkpt>
      <trkpt lat="42.7968500" lon="0.5684360">
        <ele>763.6</ele>
        <time>2020-07-28T12:01:06Z</time>
      </trkpt>
      <trkpt lat="42.7967390" lon="0.5686850">
        <ele>762.6</ele>
        <time>2020-07-28T12:01:08Z</time>
      </trkpt>
      <trkpt lat="42.7966890" lon="0.5688080">
        <ele>762.4</ele>
        <time>2020-07-28T12:01:09Z</time>
      </trkpt>
      <trkpt lat="42.7965960" lon="0.5690660">
        <ele>761.4</ele>
        <time>2020-07-28T12:01:11Z</time>
      </trkpt>
      <trkpt lat="42.7965060" lon="0.5693190">
        <ele>760.2</ele>
        <time>2020-07-28T12:01:13Z</time>
      </trkpt>
      <trkpt lat="42.7964630" lon="0.5694450">
        <ele>759.8</ele>
        <time>2020-07-28T12:01:14Z</time>
      </trkpt>
      <trkpt lat="42.7963110" lon="0.5699450">
        <ele>759.2</ele>
        <time>2020-07-28T12:01:18Z</time>
      </trkpt>
      <trkpt lat="42.7962210" lon="0.5703120">
        <ele>758.4</ele>
        <time>2020-07-28T12:01:21Z</time>
      </trkpt>
      <trkpt lat="42.7962100" lon="0.5704360">
        <ele>758.2</ele>
        <time>2020-07-28T12:01:22Z</time>
      </trkpt>
      <trkpt lat="42.7962340" lon="0.5706810">
        <ele>757.8</ele>
        <time>2020-07-28T12:01:24Z</time>
      </trkpt>
      <trkpt lat="42.7963000" lon="0.5709200">
        <ele>757.6</ele>
        <time>2020-07-28T12:01:26Z</time>
      </trkpt>
      <trkpt lat="42.7964070" lon="0.5712860">
        <ele>756.8</ele>
        <time>2020-07-28T12:01:29Z</time>
      </trkpt>
      <trkpt lat="42.7964770" lon="0.5715500">
        <ele>755.6</ele>
        <time>2020-07-28T12:01:31Z</time>
      </trkpt>
      <trkpt lat="42.7965440" lon="0.5719820">
        <ele>754.4</ele>
        <time>2020-07-28T12:01:34Z</time>
      </trkpt>
      <trkpt lat="42.7965420" lon="0.5722920">
        <ele>753.2</ele>
        <time>2020-07-28T12:01:36Z</time>
      </trkpt>
      <trkpt lat="42.7965070" lon="0.5726120">
        <ele>750.4</ele>
        <time>2020-07-28T12:01:38Z</time>
      </trkpt>
      <trkpt lat="42.7964540" lon="0.5729230">
        <ele>748.8</ele>
        <time>2020-07-28T12:01:40Z</time>
      </trkpt>
      <trkpt lat="42.7964040" lon="0.5732390">
        <ele>747.2</ele>
        <time>2020-07-28T12:01:42Z</time>
      </trkpt>
      <trkpt lat="42.7963510" lon="0.5735640">
        <ele>745.8</ele>
        <time>2020-07-28T12:01:44Z</time>
      </trkpt>
      <trkpt lat="42.7962720" lon="0.5738910">
        <ele>743.8</ele>
        <time>2020-07-28T12:01:46Z</time>
      </trkpt>
      <trkpt lat="42.7962270" lon="0.5740540">
        <ele>742.4</ele>
        <time>2020-07-28T12:01:47Z</time>
      </trkpt>
      <trkpt lat="42.7961790" lon="0.5742180">
        <ele>741.2</ele>
        <time>2020-07-28T12:01:48Z</time>
      </trkpt>
      <trkpt lat="42.7961300" lon="0.5743870">
        <ele>740.2</ele>
        <time>2020-07-28T12:01:49Z</time>
      </trkpt>
      <trkpt lat="42.7960820" lon="0.5745560">
        <ele>739.0</ele>
        <time>2020-07-28T12:01:50Z</time>
      </trkpt>
      <trkpt lat="42.7960400" lon="0.5747280">
        <ele>737.6</ele>
        <time>2020-07-28T12:01:51Z</time>
      </trkpt>
      <trkpt lat="42.7959620" lon="0.5750820">
        <ele>735.8</ele>
        <time>2020-07-28T12:01:53Z</time>
      </trkpt>
      <trkpt lat="42.7959250" lon="0.5752520">
        <ele>734.6</ele>
        <time>2020-07-28T12:01:54Z</time>
      </trkpt>
      <trkpt lat="42.7958490" lon="0.5755770">
        <ele>732.6</ele>
        <time>2020-07-28T12:01:56Z</time>
      </trkpt>
      <trkpt lat="42.7958230" lon="0.5757470">
        <ele>731.2</ele>
        <time>2020-07-28T12:01:57Z</time>
      </trkpt>
      <trkpt lat="42.7958190" lon="0.5759240">
        <ele>730.0</ele>
        <time>2020-07-28T12:01:58Z</time>
      </trkpt>
      <trkpt lat="42.7958270" lon="0.5761010">
        <ele>728.6</ele>
        <time>2020-07-28T12:01:59Z</time>
      </trkpt>
      <trkpt lat="42.7958290" lon="0.5762830">
        <ele>727.2</ele>
        <time>2020-07-28T12:02:00Z</time>
      </trkpt>
      <trkpt lat="42.7958250" lon="0.5764720">
        <ele>726.2</ele>
        <time>2020-07-28T12:02:01Z</time>
      </trkpt>
      <trkpt lat="42.7958160" lon="0.5766670">
        <ele>725.4</ele>
        <time>2020-07-28T12:02:02Z</time>
      </trkpt>
      <trkpt lat="42.7958040" lon="0.5768570">
        <ele>725.0</ele>
        <time>2020-07-28T12:02:03Z</time>
      </trkpt>
      <trkpt lat="42.7957510" lon="0.5772240">
        <ele>723.6</ele>
        <time>2020-07-28T12:02:05Z</time>
      </trkpt>
      <trkpt lat="42.7957030" lon="0.5774010">
        <ele>722.6</ele>
        <time>2020-07-28T12:02:06Z</time>
      </trkpt>
      <trkpt lat="42.7956410" lon="0.5775690">
        <ele>721.6</ele>
        <time>2020-07-28T12:02:07Z</time>
      </trkpt>
      <trkpt lat="42.7955630" lon="0.5777270">
        <ele>720.6</ele>
        <time>2020-07-28T12:02:08Z</time>
      </trkpt>
      <trkpt lat="42.7954760" lon="0.5778790">
        <ele>719.6</ele>
        <time>2020-07-28T12:02:09Z</time>
      </trkpt>
      <trkpt lat="42.7953870" lon="0.5780370">
        <ele>718.2</ele>
        <time>2020-07-28T12:02:10Z</time>
      </trkpt>
      <trkpt lat="42.7953000" lon="0.5781980">
        <ele>716.8</ele>
        <time>2020-07-28T12:02:11Z</time>
      </trkpt>
      <trkpt lat="42.7952150" lon="0.5783560">
        <ele>715.4</ele>
        <time>2020-07-28T12:02:12Z</time>
      </trkpt>
      <trkpt lat="42.7951280" lon="0.5785120">
        <ele>713.8</ele>
        <time>2020-07-28T12:02:13Z</time>
      </trkpt>
      <trkpt lat="42.7950370" lon="0.5786630">
        <ele>712.4</ele>
        <time>2020-07-28T12:02:14Z</time>
      </trkpt>
      <trkpt lat="42.7949430" lon="0.5788050">
        <ele>710.8</ele>
        <time>2020-07-28T12:02:15Z</time>
      </trkpt>
      <trkpt lat="42.7948450" lon="0.5789380">
        <ele>709.6</ele>
        <time>2020-07-28T12:02:16Z</time>
      </trkpt>
      <trkpt lat="42.7947420" lon="0.5790650">
        <ele>708.4</ele>
        <time>2020-07-28T12:02:17Z</time>
      </trkpt>
      <trkpt lat="42.7946460" lon="0.5791960">
        <ele>707.4</ele>
        <time>2020-07-28T12:02:18Z</time>
      </trkpt>
      <trkpt lat="42.7945620" lon="0.5793400">
        <ele>706.0</ele>
        <time>2020-07-28T12:02:19Z</time>
      </trkpt>
      <trkpt lat="42.7944930" lon="0.5794940">
        <ele>704.4</ele>
        <time>2020-07-28T12:02:20Z</time>
      </trkpt>
      <trkpt lat="42.7944390" lon="0.5796550">
        <ele>703.2</ele>
        <time>2020-07-28T12:02:21Z</time>
      </trkpt>
      <trkpt lat="42.7943970" lon="0.5798180">
        <ele>702.0</ele>
        <time>2020-07-28T12:02:22Z</time>
      </trkpt>
      <trkpt lat="42.7943620" lon="0.5799850">
        <ele>700.6</ele>
        <time>2020-07-28T12:02:23Z</time>
      </trkpt>
      <trkpt lat="42.7943300" lon="0.5801540">
        <ele>699.4</ele>
        <time>2020-07-28T12:02:24Z</time>
      </trkpt>
      <trkpt lat="42.7943010" lon="0.5803240">
        <ele>698.2</ele>
        <time>2020-07-28T12:02:25Z</time>
      </trkpt>
      <trkpt lat="42.7942510" lon="0.5806750">
        <ele>696.4</ele>
        <time>2020-07-28T12:02:27Z</time>
      </trkpt>
      <trkpt lat="42.7942340" lon="0.5808540">
        <ele>695.4</ele>
        <time>2020-07-28T12:02:28Z</time>
      </trkpt>
      <trkpt lat="42.7942220" lon="0.5810350">
        <ele>694.4</ele>
        <time>2020-07-28T12:02:29Z</time>
      </trkpt>
      <trkpt lat="42.7942170" lon="0.5812200">
        <ele>693.4</ele>
        <time>2020-07-28T12:02:30Z</time>
      </trkpt>
      <trkpt lat="42.7942150" lon="0.5815910">
        <ele>691.2</ele>
        <time>2020-07-28T12:02:32Z</time>
      </trkpt>
      <trkpt lat="42.7942190" lon="0.5817780">
        <ele>688.2</ele>
        <time>2020-07-28T12:02:33Z</time>
      </trkpt>
      <trkpt lat="42.7942300" lon="0.5821570">
        <ele>686.2</ele>
        <time>2020-07-28T12:02:35Z</time>
      </trkpt>
      <trkpt lat="42.7942330" lon="0.5823490">
        <ele>684.8</ele>
        <time>2020-07-28T12:02:36Z</time>
      </trkpt>
      <trkpt lat="42.7942300" lon="0.5825420">
        <ele>683.4</ele>
        <time>2020-07-28T12:02:37Z</time>
      </trkpt>
      <trkpt lat="42.7942150" lon="0.5827360">
        <ele>682.2</ele>
        <time>2020-07-28T12:02:38Z</time>
      </trkpt>
      <trkpt lat="42.7941870" lon="0.5829280">
        <ele>681.0</ele>
        <time>2020-07-28T12:02:39Z</time>
      </trkpt>
      <trkpt lat="42.7941040" lon="0.5833040">
        <ele>679.4</ele>
        <time>2020-07-28T12:02:41Z</time>
      </trkpt>
      <trkpt lat="42.7940670" lon="0.5834960">
        <ele>678.2</ele>
        <time>2020-07-28T12:02:42Z</time>
      </trkpt>
      <trkpt lat="42.7940390" lon="0.5836910">
        <ele>677.2</ele>
        <time>2020-07-28T12:02:43Z</time>
      </trkpt>
      <trkpt lat="42.7940160" lon="0.5838850">
        <ele>676.0</ele>
        <time>2020-07-28T12:02:44Z</time>
      </trkpt>
      <trkpt lat="42.7939950" lon="0.5840790">
        <ele>674.6</ele>
        <time>2020-07-28T12:02:45Z</time>
      </trkpt>
      <trkpt lat="42.7939730" lon="0.5842730">
        <ele>673.2</ele>
        <time>2020-07-28T12:02:46Z</time>
      </trkpt>
      <trkpt lat="42.7939440" lon="0.5844660">
        <ele>671.4</ele>
        <time>2020-07-28T12:02:47Z</time>
      </trkpt>
      <trkpt lat="42.7939070" lon="0.5846580">
        <ele>670.2</ele>
        <time>2020-07-28T12:02:48Z</time>
      </trkpt>
      <trkpt lat="42.7938630" lon="0.5848500">
        <ele>669.2</ele>
        <time>2020-07-28T12:02:49Z</time>
      </trkpt>
      <trkpt lat="42.7938140" lon="0.5850380">
        <ele>668.2</ele>
        <time>2020-07-28T12:02:50Z</time>
      </trkpt>
      <trkpt lat="42.7937600" lon="0.5852260">
        <ele>666.6</ele>
        <time>2020-07-28T12:02:51Z</time>
      </trkpt>
      <trkpt lat="42.7936990" lon="0.5854090">
        <ele>664.8</ele>
        <time>2020-07-28T12:02:52Z</time>
      </trkpt>
      <trkpt lat="42.7936340" lon="0.5855890">
        <ele>663.6</ele>
        <time>2020-07-28T12:02:53Z</time>
      </trkpt>
      <trkpt lat="42.7935690" lon="0.5857660">
        <ele>662.4</ele>
        <time>2020-07-28T12:02:54Z</time>
      </trkpt>
      <trkpt lat="42.7935070" lon="0.5859410">
        <ele>661.4</ele>
        <time>2020-07-28T12:02:55Z</time>
      </trkpt>
      <trkpt lat="42.7934040" lon="0.5862930">
        <ele>659.4</ele>
        <time>2020-07-28T12:02:57Z</time>
      </trkpt>
      <trkpt lat="42.7933750" lon="0.5864730">
        <ele>658.0</ele>
        <time>2020-07-28T12:02:58Z</time>
      </trkpt>
      <trkpt lat="42.7933660" lon="0.5866500">
        <ele>655.6</ele>
        <time>2020-07-28T12:02:59Z</time>
      </trkpt>
      <trkpt lat="42.7933710" lon="0.5868250">
        <ele>654.2</ele>
        <time>2020-07-28T12:03:00Z</time>
      </trkpt>
      <trkpt lat="42.7933840" lon="0.5869920">
        <ele>652.6</ele>
        <time>2020-07-28T12:03:01Z</time>
      </trkpt>
      <trkpt lat="42.7934000" lon="0.5871550">
        <ele>651.2</ele>
        <time>2020-07-28T12:03:02Z</time>
      </trkpt>
      <trkpt lat="42.7934210" lon="0.5874640">
        <ele>649.6</ele>
        <time>2020-07-28T12:03:04Z</time>
      </trkpt>
      <trkpt lat="42.7934380" lon="0.5877580">
        <ele>649.0</ele>
        <time>2020-07-28T12:03:06Z</time>
      </trkpt>
      <trkpt lat="42.7934860" lon="0.5881960">
        <ele>648.4</ele>
        <time>2020-07-28T12:03:09Z</time>
      </trkpt>
      <trkpt lat="42.7935410" lon="0.5886110">
        <ele>648.2</ele>
        <time>2020-07-28T12:03:12Z</time>
      </trkpt>
      <trkpt lat="42.7936520" lon="0.5894040">
        <ele>648.0</ele>
        <time>2020-07-28T12:03:18Z</time>
      </trkpt>
      <trkpt lat="42.7936720" lon="0.5895330">
        <ele>648.0</ele>
        <time>2020-07-28T12:03:19Z</time>
      </trkpt>
      <trkpt lat="42.7937590" lon="0.5901570">
        <ele>647.6</ele>
        <time>2020-07-28T12:03:24Z</time>
      </trkpt>
      <trkpt lat="42.7937650" lon="0.5902790">
        <ele>647.6</ele>
        <time>2020-07-28T12:03:25Z</time>
      </trkpt>
      <trkpt lat="42.7937660" lon="0.5906270">
        <ele>646.6</ele>
        <time>2020-07-28T12:03:28Z</time>
      </trkpt>
      <trkpt lat="42.7937520" lon="0.5908410">
        <ele>645.8</ele>
        <time>2020-07-28T12:03:30Z</time>
      </trkpt>
      <trkpt lat="42.7937410" lon="0.5909400">
        <ele>645.6</ele>
        <time>2020-07-28T12:03:31Z</time>
      </trkpt>
      <trkpt lat="42.7937010" lon="0.5911000">
        <ele>645.4</ele>
        <time>2020-07-28T12:03:33Z</time>
      </trkpt>
      <trkpt lat="42.7936660" lon="0.5911490">
        <ele>645.4</ele>
        <time>2020-07-28T12:03:34Z</time>
      </trkpt>
      <trkpt lat="42.7936420" lon="0.5912330">
        <ele>645.4</ele>
        <time>2020-07-28T12:03:37Z</time>
      </trkpt>
      <trkpt lat="42.7937090" lon="0.5913340">
        <ele>646.2</ele>
        <time>2020-07-28T12:03:41Z</time>
      </trkpt>
      <trkpt lat="42.7937290" lon="0.5914590">
        <ele>646.8</ele>
        <time>2020-07-28T12:03:43Z</time>
      </trkpt>
      <trkpt lat="42.7937660" lon="0.5916060">
        <ele>647.0</ele>
        <time>2020-07-28T12:03:45Z</time>
      </trkpt>
      <trkpt lat="42.7938230" lon="0.5917620">
        <ele>647.2</ele>
        <time>2020-07-28T12:03:47Z</time>
      </trkpt>
      <trkpt lat="42.7939430" lon="0.5919940">
        <ele>647.2</ele>
        <time>2020-07-28T12:03:50Z</time>
      </trkpt>
      <trkpt lat="42.7941650" lon="0.5924080">
        <ele>646.0</ele>
        <time>2020-07-28T12:03:55Z</time>
      </trkpt>
      <trkpt lat="42.7944880" lon="0.5929630">
        <ele>645.2</ele>
        <time>2020-07-28T12:04:02Z</time>
      </trkpt>
      <trkpt lat="42.7945400" lon="0.5930450">
        <ele>645.0</ele>
        <time>2020-07-28T12:04:03Z</time>
      </trkpt>
      <trkpt lat="42.7947830" lon="0.5934940">
        <ele>644.8</ele>
        <time>2020-07-28T12:04:08Z</time>
      </trkpt>
      <trkpt lat="42.7948900" lon="0.5937510">
        <ele>644.6</ele>
        <time>2020-07-28T12:04:11Z</time>
      </trkpt>
      <trkpt lat="42.7949000" lon="0.5938360">
        <ele>644.4</ele>
        <time>2020-07-28T12:04:12Z</time>
      </trkpt>
      <trkpt lat="42.7948350" lon="0.5939570">
        <ele>644.0</ele>
        <time>2020-07-28T12:04:14Z</time>
      </trkpt>
      <trkpt lat="42.7947800" lon="0.5939760">
        <ele>643.8</ele>
        <time>2020-07-28T12:04:15Z</time>
      </trkpt>
      <trkpt lat="42.7946210" lon="0.5939420">
        <ele>644.2</ele>
        <time>2020-07-28T13:14:13Z</time>
      </trkpt>
      <trkpt lat="42.7946420" lon="0.5939630">
        <ele>644.2</ele>
        <time>2020-07-28T13:14:14Z</time>
      </trkpt>
      <trkpt lat="42.7948340" lon="0.5941380">
        <ele>644.2</ele>
        <time>2020-07-28T13:14:18Z</time>
      </trkpt>
      <trkpt lat="42.7948780" lon="0.5941920">
        <ele>644.0</ele>
        <time>2020-07-28T13:14:19Z</time>
      </trkpt>
      <trkpt lat="42.7949530" lon="0.5943750">
        <ele>644.0</ele>
        <time>2020-07-28T13:14:22Z</time>
      </trkpt>
      <trkpt lat="42.7949620" lon="0.5944290">
        <ele>644.0</ele>
        <time>2020-07-28T13:14:23Z</time>
      </trkpt>
      <trkpt lat="42.7950810" lon="0.5945330">
        <ele>644.0</ele>
        <time>2020-07-28T13:14:26Z</time>
      </trkpt>
      <trkpt lat="42.7952340" lon="0.5945080">
        <ele>644.2</ele>
        <time>2020-07-28T13:14:29Z</time>
      </trkpt>
      <trkpt lat="42.7953780" lon="0.5946170">
        <ele>643.6</ele>
        <time>2020-07-28T13:14:32Z</time>
      </trkpt>
      <trkpt lat="42.7954250" lon="0.5946620">
        <ele>643.6</ele>
        <time>2020-07-28T13:14:33Z</time>
      </trkpt>
      <trkpt lat="42.7955220" lon="0.5947550">
        <ele>643.4</ele>
        <time>2020-07-28T13:14:35Z</time>
      </trkpt>
      <trkpt lat="42.7955670" lon="0.5948100">
        <ele>643.4</ele>
        <time>2020-07-28T13:14:36Z</time>
      </trkpt>
      <trkpt lat="42.7956620" lon="0.5949190">
        <ele>643.4</ele>
        <time>2020-07-28T13:14:38Z</time>
      </trkpt>
      <trkpt lat="42.7959510" lon="0.5951770">
        <ele>642.4</ele>
        <time>2020-07-28T13:14:43Z</time>
      </trkpt>
      <trkpt lat="42.7960090" lon="0.5952320">
        <ele>642.4</ele>
        <time>2020-07-28T13:14:44Z</time>
      </trkpt>
      <trkpt lat="42.7962310" lon="0.5954560">
        <ele>641.4</ele>
        <time>2020-07-28T13:14:48Z</time>
      </trkpt>
      <trkpt lat="42.7963860" lon="0.5956190">
        <ele>640.2</ele>
        <time>2020-07-28T13:14:51Z</time>
      </trkpt>
      <trkpt lat="42.7964390" lon="0.5956660">
        <ele>640.0</ele>
        <time>2020-07-28T13:14:52Z</time>
      </trkpt>
      <trkpt lat="42.7966130" lon="0.5957990">
        <ele>639.4</ele>
        <time>2020-07-28T13:14:55Z</time>
      </trkpt>
      <trkpt lat="42.7967430" lon="0.5958570">
        <ele>639.2</ele>
        <time>2020-07-28T13:14:57Z</time>
      </trkpt>
      <trkpt lat="42.7968810" lon="0.5958880">
        <ele>639.2</ele>
        <time>2020-07-28T13:14:59Z</time>
      </trkpt>
      <trkpt lat="42.7972310" lon="0.5959510">
        <ele>638.0</ele>
        <time>2020-07-28T13:15:04Z</time>
      </trkpt>
      <trkpt lat="42.7975500" lon="0.5959950">
        <ele>637.0</ele>
        <time>2020-07-28T13:15:09Z</time>
      </trkpt>
      <trkpt lat="42.7980330" lon="0.5960750">
        <ele>636.4</ele>
        <time>2020-07-28T13:15:16Z</time>
      </trkpt>
      <trkpt lat="42.7986060" lon="0.5961700">
        <ele>636.4</ele>
        <time>2020-07-28T13:15:24Z</time>
      </trkpt>
      <trkpt lat="42.7989600" lon="0.5962240">
        <ele>636.2</ele>
        <time>2020-07-28T13:15:29Z</time>
      </trkpt>
      <trkpt lat="42.7991010" lon="0.5962530">
        <ele>636.0</ele>
        <time>2020-07-28T13:15:31Z</time>
      </trkpt>
      <trkpt lat="42.7995310" lon="0.5963140">
        <ele>635.0</ele>
        <time>2020-07-28T13:15:37Z</time>
      </trkpt>
      <trkpt lat="42.7996040" lon="0.5963250">
        <ele>634.8</ele>
        <time>2020-07-28T13:15:38Z</time>
      </trkpt>
      <trkpt lat="42.8001770" lon="0.5964140">
        <ele>634.4</ele>
        <time>2020-07-28T13:15:46Z</time>
      </trkpt>
      <trkpt lat="42.8002480" lon="0.5964260">
        <ele>634.4</ele>
        <time>2020-07-28T13:15:47Z</time>
      </trkpt>
      <trkpt lat="42.8003940" lon="0.5964500">
        <ele>634.2</ele>
        <time>2020-07-28T13:15:49Z</time>
      </trkpt>
      <trkpt lat="42.8005970" lon="0.5964790">
        <ele>634.0</ele>
        <time>2020-07-28T13:15:52Z</time>
      </trkpt>
      <trkpt lat="42.8006610" lon="0.5964890">
        <ele>633.8</ele>
        <time>2020-07-28T13:15:53Z</time>
      </trkpt>
      <trkpt lat="42.8011890" lon="0.5965660">
        <ele>633.6</ele>
        <time>2020-07-28T13:16:01Z</time>
      </trkpt>
      <trkpt lat="42.8015850" lon="0.5966080">
        <ele>633.4</ele>
        <time>2020-07-28T13:16:07Z</time>
      </trkpt>
      <trkpt lat="42.8016480" lon="0.5966160">
        <ele>633.4</ele>
        <time>2020-07-28T13:16:08Z</time>
      </trkpt>
      <trkpt lat="42.8022230" lon="0.5966800">
        <ele>633.2</ele>
        <time>2020-07-28T13:16:17Z</time>
      </trkpt>
      <trkpt lat="42.8022850" lon="0.5966890">
        <ele>633.2</ele>
        <time>2020-07-28T13:16:18Z</time>
      </trkpt>
      <trkpt lat="42.8028300" lon="0.5968190">
        <ele>633.6</ele>
        <time>2020-07-28T13:16:27Z</time>
      </trkpt>
      <trkpt lat="42.8032030" lon="0.5970670">
        <ele>633.4</ele>
        <time>2020-07-28T13:16:34Z</time>
      </trkpt>
      <trkpt lat="42.8036270" lon="0.5974160">
        <ele>633.6</ele>
        <time>2020-07-28T13:16:42Z</time>
      </trkpt>
      <trkpt lat="42.8041290" lon="0.5978590">
        <ele>633.8</ele>
        <time>2020-07-28T13:16:51Z</time>
      </trkpt>
      <trkpt lat="42.8045390" lon="0.5981750">
        <ele>632.6</ele>
        <time>2020-07-28T13:16:58Z</time>
      </trkpt>
      <trkpt lat="42.8046630" lon="0.5982470">
        <ele>632.4</ele>
        <time>2020-07-28T13:17:00Z</time>
      </trkpt>
      <trkpt lat="42.8047260" lon="0.5982750">
        <ele>632.2</ele>
        <time>2020-07-28T13:17:01Z</time>
      </trkpt>
      <trkpt lat="42.8047920" lon="0.5982940">
        <ele>631.6</ele>
        <time>2020-07-28T13:17:02Z</time>
      </trkpt>
      <trkpt lat="42.8049230" lon="0.5983120">
        <ele>631.2</ele>
        <time>2020-07-28T13:17:04Z</time>
      </trkpt>
      <trkpt lat="42.8050480" lon="0.5983030">
        <ele>631.2</ele>
        <time>2020-07-28T13:17:06Z</time>
      </trkpt>
      <trkpt lat="42.8052310" lon="0.5982470">
        <ele>631.0</ele>
        <time>2020-07-28T13:17:09Z</time>
      </trkpt>
      <trkpt lat="42.8055850" lon="0.5980220">
        <ele>631.4</ele>
        <time>2020-07-28T13:17:15Z</time>
      </trkpt>
      <trkpt lat="42.8060360" lon="0.5976170">
        <ele>631.4</ele>
        <time>2020-07-28T13:17:23Z</time>
      </trkpt>
      <trkpt lat="42.8062010" lon="0.5974950">
        <ele>631.2</ele>
        <time>2020-07-28T13:17:26Z</time>
      </trkpt>
      <trkpt lat="42.8063180" lon="0.5973940">
        <ele>630.8</ele>
        <time>2020-07-28T13:17:28Z</time>
      </trkpt>
      <trkpt lat="42.8063770" lon="0.5973360">
        <ele>630.8</ele>
        <time>2020-07-28T13:17:29Z</time>
      </trkpt>
      <trkpt lat="42.8067470" lon="0.5970330">
        <ele>630.2</ele>
        <time>2020-07-28T13:17:35Z</time>
      </trkpt>
      <trkpt lat="42.8068130" lon="0.5970000">
        <ele>630.0</ele>
        <time>2020-07-28T13:17:36Z</time>
      </trkpt>
      <trkpt lat="42.8071540" lon="0.5968350">
        <ele>629.2</ele>
        <time>2020-07-28T13:17:41Z</time>
      </trkpt>
      <trkpt lat="42.8075410" lon="0.5966900">
        <ele>629.2</ele>
        <time>2020-07-28T13:17:47Z</time>
      </trkpt>
      <trkpt lat="42.8078820" lon="0.5965500">
        <ele>629.4</ele>
        <time>2020-07-28T13:17:53Z</time>
      </trkpt>
      <trkpt lat="42.8079250" lon="0.5965490">
        <ele>629.6</ele>
        <time>2020-07-28T13:17:54Z</time>
      </trkpt>
      <trkpt lat="42.8079950" lon="0.5965860">
        <ele>630.0</ele>
        <time>2020-07-28T13:17:57Z</time>
      </trkpt>
      <trkpt lat="42.8080290" lon="0.5967440">
        <ele>630.2</ele>
        <time>2020-07-28T13:18:00Z</time>
      </trkpt>
      <trkpt lat="42.8080420" lon="0.5968290">
        <ele>630.2</ele>
        <time>2020-07-28T13:18:01Z</time>
      </trkpt>
      <trkpt lat="42.8080630" lon="0.5971850">
        <ele>630.2</ele>
        <time>2020-07-28T13:18:05Z</time>
      </trkpt>
      <trkpt lat="42.8081240" lon="0.5976240">
        <ele>628.8</ele>
        <time>2020-07-28T13:18:10Z</time>
      </trkpt>
      <trkpt lat="42.8081550" lon="0.5977760">
        <ele>628.4</ele>
        <time>2020-07-28T13:18:12Z</time>
      </trkpt>
      <trkpt lat="42.8082630" lon="0.5981490">
        <ele>628.4</ele>
        <time>2020-07-28T13:18:17Z</time>
      </trkpt>
      <trkpt lat="42.8082910" lon="0.5983040">
        <ele>628.2</ele>
        <time>2020-07-28T13:18:19Z</time>
      </trkpt>
      <trkpt lat="42.8083260" lon="0.5985880">
        <ele>628.4</ele>
        <time>2020-07-28T13:18:23Z</time>
      </trkpt>
      <trkpt lat="42.8083470" lon="0.5987210">
        <ele>628.4</ele>
        <time>2020-07-28T13:18:25Z</time>
      </trkpt>
      <trkpt lat="42.8083720" lon="0.5988650">
        <ele>628.2</ele>
        <time>2020-07-28T13:18:27Z</time>
      </trkpt>
      <trkpt lat="42.8084070" lon="0.5990710">
        <ele>628.4</ele>
        <time>2020-07-28T13:18:30Z</time>
      </trkpt>
      <trkpt lat="42.8084300" lon="0.5991920">
        <ele>628.4</ele>
        <time>2020-07-28T13:18:32Z</time>
      </trkpt>
      <trkpt lat="42.8084520" lon="0.5992990">
        <ele>628.2</ele>
        <time>2020-07-28T13:18:34Z</time>
      </trkpt>
      <trkpt lat="42.8084590" lon="0.5993480">
        <ele>628.2</ele>
        <time>2020-07-28T13:18:35Z</time>
      </trkpt>
      <trkpt lat="42.8083830" lon="0.5987120">
        <ele>628.6</ele>
        <time>2020-07-28T13:18:52Z</time>
      </trkpt>
      <trkpt lat="42.8083750" lon="0.5986770">
        <ele>628.8</ele>
        <time>2020-07-28T13:18:53Z</time>
      </trkpt>
      <trkpt lat="42.8083470" lon="0.5984760">
        <ele>628.8</ele>
        <time>2020-07-28T13:18:56Z</time>
      </trkpt>
      <trkpt lat="42.8083400" lon="0.5984030">
        <ele>628.8</ele>
        <time>2020-07-28T13:18:57Z</time>
      </trkpt>
      <trkpt lat="42.8082410" lon="0.5979500">
        <ele>628.8</ele>
        <time>2020-07-28T13:19:03Z</time>
      </trkpt>
      <trkpt lat="42.8081380" lon="0.5974100">
        <ele>628.6</ele>
        <time>2020-07-28T13:19:10Z</time>
      </trkpt>
      <trkpt lat="42.8080620" lon="0.5967130">
        <ele>628.2</ele>
        <time>2020-07-28T13:19:19Z</time>
      </trkpt>
      <trkpt lat="42.8080610" lon="0.5966500">
        <ele>628.2</ele>
        <time>2020-07-28T13:19:20Z</time>
      </trkpt>
      <trkpt lat="42.8080950" lon="0.5965020">
        <ele>628.2</ele>
        <time>2020-07-28T13:19:23Z</time>
      </trkpt>
      <trkpt lat="42.8082220" lon="0.5963970">
        <ele>628.6</ele>
        <time>2020-07-28T13:19:27Z</time>
      </trkpt>
      <trkpt lat="42.8083210" lon="0.5963820">
        <ele>630.2</ele>
        <time>2020-07-28T13:19:29Z</time>
      </trkpt>
      <trkpt lat="42.8084770" lon="0.5963710">
        <ele>630.8</ele>
        <time>2020-07-28T13:19:32Z</time>
      </trkpt>
      <trkpt lat="42.8085870" lon="0.5963610">
        <ele>631.2</ele>
        <time>2020-07-28T13:19:34Z</time>
      </trkpt>
      <trkpt lat="42.8087390" lon="0.5963300">
        <ele>631.2</ele>
        <time>2020-07-28T13:19:37Z</time>
      </trkpt>
      <trkpt lat="42.8090430" lon="0.5962830">
        <ele>631.2</ele>
        <time>2020-07-28T13:19:43Z</time>
      </trkpt>
      <trkpt lat="42.8091430" lon="0.5962820">
        <ele>631.2</ele>
        <time>2020-07-28T13:19:45Z</time>
      </trkpt>
      <trkpt lat="42.8094240" lon="0.5962450">
        <ele>631.4</ele>
        <time>2020-07-28T13:19:51Z</time>
      </trkpt>
      <trkpt lat="42.8098860" lon="0.5961860">
        <ele>631.6</ele>
        <time>2020-07-28T13:19:59Z</time>
      </trkpt>
      <trkpt lat="42.8103390" lon="0.5961640">
        <ele>630.8</ele>
        <time>2020-07-28T13:20:06Z</time>
      </trkpt>
      <trkpt lat="42.8106940" lon="0.5961800">
        <ele>630.4</ele>
        <time>2020-07-28T13:20:11Z</time>
      </trkpt>
      <trkpt lat="42.8107610" lon="0.5962060">
        <ele>630.2</ele>
        <time>2020-07-28T13:20:12Z</time>
      </trkpt>
      <trkpt lat="42.8111160" lon="0.5963980">
        <ele>629.4</ele>
        <time>2020-07-28T13:20:17Z</time>
      </trkpt>
      <trkpt lat="42.8113080" lon="0.5965290">
        <ele>628.2</ele>
        <time>2020-07-28T13:20:20Z</time>
      </trkpt>
      <trkpt lat="42.8115510" lon="0.5966890">
        <ele>628.2</ele>
        <time>2020-07-28T13:20:24Z</time>
      </trkpt>
      <trkpt lat="42.8119410" lon="0.5969240">
        <ele>628.4</ele>
        <time>2020-07-28T13:20:31Z</time>
      </trkpt>
      <trkpt lat="42.8121980" lon="0.5970740">
        <ele>629.6</ele>
        <time>2020-07-28T13:20:37Z</time>
      </trkpt>
      <trkpt lat="42.8122820" lon="0.5971160">
        <ele>630.0</ele>
        <time>2020-07-28T13:20:39Z</time>
      </trkpt>
      <trkpt lat="42.8123680" lon="0.5971550">
        <ele>630.8</ele>
        <time>2020-07-28T13:20:41Z</time>
      </trkpt>
      <trkpt lat="42.8125490" lon="0.5972200">
        <ele>631.8</ele>
        <time>2020-07-28T13:20:45Z</time>
      </trkpt>
      <trkpt lat="42.8126410" lon="0.5972530">
        <ele>632.4</ele>
        <time>2020-07-28T13:20:47Z</time>
      </trkpt>
      <trkpt lat="42.8129860" lon="0.5973620">
        <ele>632.8</ele>
        <time>2020-07-28T13:20:53Z</time>
      </trkpt>
      <trkpt lat="42.8134460" lon="0.5975220">
        <ele>632.6</ele>
        <time>2020-07-28T13:21:00Z</time>
      </trkpt>
      <trkpt lat="42.8139720" lon="0.5976870">
        <ele>631.2</ele>
        <time>2020-07-28T13:21:07Z</time>
      </trkpt>
      <trkpt lat="42.8142870" lon="0.5977900">
        <ele>630.0</ele>
        <time>2020-07-28T13:21:11Z</time>
      </trkpt>
      <trkpt lat="42.8145280" lon="0.5978510">
        <ele>628.6</ele>
        <time>2020-07-28T13:21:14Z</time>
      </trkpt>
      <trkpt lat="42.8147590" lon="0.5978010">
        <ele>627.4</ele>
        <time>2020-07-28T13:21:17Z</time>
      </trkpt>
      <trkpt lat="42.8149020" lon="0.5977070">
        <ele>626.8</ele>
        <time>2020-07-28T13:21:19Z</time>
      </trkpt>
      <trkpt lat="42.8149680" lon="0.5976520">
        <ele>626.6</ele>
        <time>2020-07-28T13:21:20Z</time>
      </trkpt>
      <trkpt lat="42.8150300" lon="0.5975940">
        <ele>626.2</ele>
        <time>2020-07-28T13:21:21Z</time>
      </trkpt>
      <trkpt lat="42.8152150" lon="0.5974320">
        <ele>625.4</ele>
        <time>2020-07-28T13:21:24Z</time>
      </trkpt>
      <trkpt lat="42.8153530" lon="0.5974020">
        <ele>625.4</ele>
        <time>2020-07-28T13:21:26Z</time>
      </trkpt>
      <trkpt lat="42.8154920" lon="0.5974250">
        <ele>625.2</ele>
        <time>2020-07-28T13:21:28Z</time>
      </trkpt>
      <trkpt lat="42.8156280" lon="0.5974730">
        <ele>625.2</ele>
        <time>2020-07-28T13:21:30Z</time>
      </trkpt>
      <trkpt lat="42.8160000" lon="0.5977270">
        <ele>625.0</ele>
        <time>2020-07-28T13:21:36Z</time>
      </trkpt>
      <trkpt lat="42.8163970" lon="0.5979480">
        <ele>625.0</ele>
        <time>2020-07-28T13:21:42Z</time>
      </trkpt>
      <trkpt lat="42.8167360" lon="0.5980270">
        <ele>624.4</ele>
        <time>2020-07-28T13:21:47Z</time>
      </trkpt>
      <trkpt lat="42.8172750" lon="0.5981250">
        <ele>623.6</ele>
        <time>2020-07-28T13:21:55Z</time>
      </trkpt>
      <trkpt lat="42.8174110" lon="0.5981670">
        <ele>623.6</ele>
        <time>2020-07-28T13:21:57Z</time>
      </trkpt>
      <trkpt lat="42.8175940" lon="0.5982840">
        <ele>623.8</ele>
        <time>2020-07-28T13:22:00Z</time>
      </trkpt>
      <trkpt lat="42.8179910" lon="0.5985810">
        <ele>623.8</ele>
        <time>2020-07-28T13:22:07Z</time>
      </trkpt>
      <trkpt lat="42.8182500" lon="0.5986450">
        <ele>623.8</ele>
        <time>2020-07-28T13:22:11Z</time>
      </trkpt>
      <trkpt lat="42.8185150" lon="0.5986930">
        <ele>623.4</ele>
        <time>2020-07-28T13:22:15Z</time>
      </trkpt>
      <trkpt lat="42.8186490" lon="0.5987050">
        <ele>623.0</ele>
        <time>2020-07-28T13:22:17Z</time>
      </trkpt>
      <trkpt lat="42.8190000" lon="0.5987790">
        <ele>622.6</ele>
        <time>2020-07-28T13:22:23Z</time>
      </trkpt>
      <trkpt lat="42.8193390" lon="0.5988750">
        <ele>622.8</ele>
        <time>2020-07-28T13:22:29Z</time>
      </trkpt>
      <trkpt lat="42.8198030" lon="0.5990740">
        <ele>623.0</ele>
        <time>2020-07-28T13:22:38Z</time>
      </trkpt>
      <trkpt lat="42.8202060" lon="0.5992040">
        <ele>623.2</ele>
        <time>2020-07-28T13:22:46Z</time>
      </trkpt>
      <trkpt lat="42.8206530" lon="0.5992600">
        <ele>623.0</ele>
        <time>2020-07-28T13:22:54Z</time>
      </trkpt>
      <trkpt lat="42.8211550" lon="0.5993540">
        <ele>623.0</ele>
        <time>2020-07-28T13:23:03Z</time>
      </trkpt>
      <trkpt lat="42.8215290" lon="0.5994680">
        <ele>623.2</ele>
        <time>2020-07-28T13:23:11Z</time>
      </trkpt>
      <trkpt lat="42.8218130" lon="0.5995610">
        <ele>624.2</ele>
        <time>2020-07-28T13:23:18Z</time>
      </trkpt>
      <trkpt lat="42.8220050" lon="0.5996190">
        <ele>625.0</ele>
        <time>2020-07-28T13:23:23Z</time>
      </trkpt>
      <trkpt lat="42.8220810" lon="0.5996370">
        <ele>625.0</ele>
        <time>2020-07-28T13:23:25Z</time>
      </trkpt>
      <trkpt lat="42.8222770" lon="0.5996900">
        <ele>626.0</ele>
        <time>2020-07-28T13:23:30Z</time>
      </trkpt>
      <trkpt lat="42.8223940" lon="0.5997230">
        <ele>626.8</ele>
        <time>2020-07-28T13:23:33Z</time>
      </trkpt>
      <trkpt lat="42.8224750" lon="0.5997460">
        <ele>627.4</ele>
        <time>2020-07-28T13:23:35Z</time>
      </trkpt>
      <trkpt lat="42.8227380" lon="0.5998210">
        <ele>628.6</ele>
        <time>2020-07-28T13:23:41Z</time>
      </trkpt>
      <trkpt lat="42.8227830" lon="0.5998320">
        <ele>628.8</ele>
        <time>2020-07-28T13:23:42Z</time>
      </trkpt>
      <trkpt lat="42.8230700" lon="0.5999090">
        <ele>629.2</ele>
        <time>2020-07-28T13:23:48Z</time>
      </trkpt>
      <trkpt lat="42.8234460" lon="0.6000290">
        <ele>629.4</ele>
        <time>2020-07-28T13:23:55Z</time>
      </trkpt>
      <trkpt lat="42.8238320" lon="0.6001470">
        <ele>629.0</ele>
        <time>2020-07-28T13:24:01Z</time>
      </trkpt>
      <trkpt lat="42.8241220" lon="0.6002050">
        <ele>628.0</ele>
        <time>2020-07-28T13:24:05Z</time>
      </trkpt>
      <trkpt lat="42.8242730" lon="0.6002510">
        <ele>627.4</ele>
        <time>2020-07-28T13:24:07Z</time>
      </trkpt>
      <trkpt lat="42.8245110" lon="0.6003210">
        <ele>626.8</ele>
        <time>2020-07-28T13:24:10Z</time>
      </trkpt>
      <trkpt lat="42.8247580" lon="0.6003810">
        <ele>625.4</ele>
        <time>2020-07-28T13:24:13Z</time>
      </trkpt>
      <trkpt lat="42.8248440" lon="0.6004000">
        <ele>624.8</ele>
        <time>2020-07-28T13:24:14Z</time>
      </trkpt>
      <trkpt lat="42.8249320" lon="0.6004150">
        <ele>624.6</ele>
        <time>2020-07-28T13:24:15Z</time>
      </trkpt>
      <trkpt lat="42.8251140" lon="0.6004400">
        <ele>623.0</ele>
        <time>2020-07-28T13:24:17Z</time>
      </trkpt>
      <trkpt lat="42.8252080" lon="0.6004500">
        <ele>622.0</ele>
        <time>2020-07-28T13:24:18Z</time>
      </trkpt>
      <trkpt lat="42.8253020" lon="0.6004500">
        <ele>621.4</ele>
        <time>2020-07-28T13:24:19Z</time>
      </trkpt>
      <trkpt lat="42.8253930" lon="0.6004300">
        <ele>621.0</ele>
        <time>2020-07-28T13:24:20Z</time>
      </trkpt>
      <trkpt lat="42.8255580" lon="0.6003480">
        <ele>620.2</ele>
        <time>2020-07-28T13:24:22Z</time>
      </trkpt>
      <trkpt lat="42.8256320" lon="0.6002900">
        <ele>619.6</ele>
        <time>2020-07-28T13:24:23Z</time>
      </trkpt>
      <trkpt lat="42.8257030" lon="0.6002300">
        <ele>619.2</ele>
        <time>2020-07-28T13:24:24Z</time>
      </trkpt>
      <trkpt lat="42.8257740" lon="0.6001780">
        <ele>619.0</ele>
        <time>2020-07-28T13:24:25Z</time>
      </trkpt>
      <trkpt lat="42.8258460" lon="0.6001360">
        <ele>618.8</ele>
        <time>2020-07-28T13:24:26Z</time>
      </trkpt>
      <trkpt lat="42.8259890" lon="0.6001200">
        <ele>618.4</ele>
        <time>2020-07-28T13:24:28Z</time>
      </trkpt>
      <trkpt lat="42.8260540" lon="0.6001460">
        <ele>618.4</ele>
        <time>2020-07-28T13:24:29Z</time>
      </trkpt>
      <trkpt lat="42.8261800" lon="0.6002260">
        <ele>618.2</ele>
        <time>2020-07-28T13:24:31Z</time>
      </trkpt>
      <trkpt lat="42.8264370" lon="0.6003740">
        <ele>618.0</ele>
        <time>2020-07-28T13:24:35Z</time>
      </trkpt>
      <trkpt lat="42.8268980" lon="0.6006110">
        <ele>617.8</ele>
        <time>2020-07-28T13:24:42Z</time>
      </trkpt>
      <trkpt lat="42.8270280" lon="0.6006760">
        <ele>617.6</ele>
        <time>2020-07-28T13:24:44Z</time>
      </trkpt>
      <trkpt lat="42.8273330" lon="0.6008280">
        <ele>617.4</ele>
        <time>2020-07-28T13:24:49Z</time>
      </trkpt>
      <trkpt lat="42.8277700" lon="0.6010120">
        <ele>617.6</ele>
        <time>2020-07-28T13:24:57Z</time>
      </trkpt>
      <trkpt lat="42.8282520" lon="0.6011560">
        <ele>618.6</ele>
        <time>2020-07-28T13:25:05Z</time>
      </trkpt>
      <trkpt lat="42.8287230" lon="0.6012830">
        <ele>618.2</ele>
        <time>2020-07-28T13:25:13Z</time>
      </trkpt>
      <trkpt lat="42.8288190" lon="0.6013260">
        <ele>618.2</ele>
        <time>2020-07-28T13:25:15Z</time>
      </trkpt>
      <trkpt lat="42.8289260" lon="0.6014560">
        <ele>618.0</ele>
        <time>2020-07-28T13:25:18Z</time>
      </trkpt>
      <trkpt lat="42.8289360" lon="0.6016270">
        <ele>618.2</ele>
        <time>2020-07-28T13:25:21Z</time>
      </trkpt>
      <trkpt lat="42.8289370" lon="0.6016870">
        <ele>618.2</ele>
        <time>2020-07-28T13:25:22Z</time>
      </trkpt>
      <trkpt lat="42.8290030" lon="0.6018550">
        <ele>618.6</ele>
        <time>2020-07-28T13:25:25Z</time>
      </trkpt>
      <trkpt lat="42.8290560" lon="0.6018830">
        <ele>619.2</ele>
        <time>2020-07-28T13:25:26Z</time>
      </trkpt>
      <trkpt lat="42.8291700" lon="0.6018690">
        <ele>619.4</ele>
        <time>2020-07-28T13:25:28Z</time>
      </trkpt>
      <trkpt lat="42.8292730" lon="0.6018060">
        <ele>619.6</ele>
        <time>2020-07-28T13:25:30Z</time>
      </trkpt>
      <trkpt lat="42.8293280" lon="0.6017770">
        <ele>619.8</ele>
        <time>2020-07-28T13:25:31Z</time>
      </trkpt>
      <trkpt lat="42.8294490" lon="0.6017390">
        <ele>619.8</ele>
        <time>2020-07-28T13:25:33Z</time>
      </trkpt>
      <trkpt lat="42.8298420" lon="0.6017160">
        <ele>619.2</ele>
        <time>2020-07-28T13:25:39Z</time>
      </trkpt>
      <trkpt lat="42.8301190" lon="0.6017460">
        <ele>618.2</ele>
        <time>2020-07-28T13:25:43Z</time>
      </trkpt>
      <trkpt lat="42.8303870" lon="0.6018060">
        <ele>617.8</ele>
        <time>2020-07-28T13:25:47Z</time>
      </trkpt>
      <trkpt lat="42.8308660" lon="0.6019390">
        <ele>617.2</ele>
        <time>2020-07-28T13:25:55Z</time>
      </trkpt>
      <trkpt lat="42.8313450" lon="0.6020800">
        <ele>617.8</ele>
        <time>2020-07-28T13:26:04Z</time>
      </trkpt>
      <trkpt lat="42.8317320" lon="0.6021760">
        <ele>618.4</ele>
        <time>2020-07-28T13:26:11Z</time>
      </trkpt>
      <trkpt lat="42.8318430" lon="0.6022080">
        <ele>618.8</ele>
        <time>2020-07-28T13:26:13Z</time>
      </trkpt>
      <trkpt lat="42.8321930" lon="0.6023240">
        <ele>619.6</ele>
        <time>2020-07-28T13:26:19Z</time>
      </trkpt>
      <trkpt lat="42.8327310" lon="0.6024790">
        <ele>619.4</ele>
        <time>2020-07-28T13:26:27Z</time>
      </trkpt>
      <trkpt lat="42.8328030" lon="0.6024980">
        <ele>619.4</ele>
        <time>2020-07-28T13:26:28Z</time>
      </trkpt>
      <trkpt lat="42.8333480" lon="0.6026470">
        <ele>619.2</ele>
        <time>2020-07-28T13:26:35Z</time>
      </trkpt>
      <trkpt lat="42.8334300" lon="0.6026690">
        <ele>619.2</ele>
        <time>2020-07-28T13:26:36Z</time>
      </trkpt>
      <trkpt lat="42.8340250" lon="0.6028520">
        <ele>617.8</ele>
        <time>2020-07-28T13:26:43Z</time>
      </trkpt>
      <trkpt lat="42.8341090" lon="0.6028790">
        <ele>617.6</ele>
        <time>2020-07-28T13:26:44Z</time>
      </trkpt>
      <trkpt lat="42.8346070" lon="0.6030390">
        <ele>616.6</ele>
        <time>2020-07-28T13:26:50Z</time>
      </trkpt>
      <trkpt lat="42.8348430" lon="0.6030930">
        <ele>615.8</ele>
        <time>2020-07-28T13:26:53Z</time>
      </trkpt>
      <trkpt lat="42.8351440" lon="0.6031730">
        <ele>615.2</ele>
        <time>2020-07-28T13:26:57Z</time>
      </trkpt>
      <trkpt lat="42.8355720" lon="0.6032980">
        <ele>615.2</ele>
        <time>2020-07-28T13:27:03Z</time>
      </trkpt>
      <trkpt lat="42.8361060" lon="0.6034370">
        <ele>615.6</ele>
        <time>2020-07-28T13:27:11Z</time>
      </trkpt>
      <trkpt lat="42.8362360" lon="0.6034730">
        <ele>615.6</ele>
        <time>2020-07-28T13:27:13Z</time>
      </trkpt>
      <trkpt lat="42.8367810" lon="0.6036190">
        <ele>615.6</ele>
        <time>2020-07-28T13:27:22Z</time>
      </trkpt>
      <trkpt lat="42.8371880" lon="0.6037330">
        <ele>616.2</ele>
        <time>2020-07-28T13:27:30Z</time>
      </trkpt>
      <trkpt lat="42.8373750" lon="0.6037870">
        <ele>617.2</ele>
        <time>2020-07-28T13:27:34Z</time>
      </trkpt>
      <trkpt lat="42.8375930" lon="0.6038540">
        <ele>618.4</ele>
        <time>2020-07-28T13:27:39Z</time>
      </trkpt>
      <trkpt lat="42.8378810" lon="0.6039410">
        <ele>619.6</ele>
        <time>2020-07-28T13:27:46Z</time>
      </trkpt>
      <trkpt lat="42.8380000" lon="0.6039740">
        <ele>620.0</ele>
        <time>2020-07-28T13:27:49Z</time>
      </trkpt>
      <trkpt lat="42.8382530" lon="0.6040430">
        <ele>620.8</ele>
        <time>2020-07-28T13:27:55Z</time>
      </trkpt>
      <trkpt lat="42.8383850" lon="0.6040740">
        <ele>621.2</ele>
        <time>2020-07-28T13:27:58Z</time>
      </trkpt>
      <trkpt lat="42.8388240" lon="0.6041910">
        <ele>621.4</ele>
        <time>2020-07-28T13:28:07Z</time>
      </trkpt>
      <trkpt lat="42.8393580" lon="0.6043450">
        <ele>621.8</ele>
        <time>2020-07-28T13:28:16Z</time>
      </trkpt>
      <trkpt lat="42.8399120" lon="0.6045060">
        <ele>620.4</ele>
        <time>2020-07-28T13:28:24Z</time>
      </trkpt>
      <trkpt lat="42.8399900" lon="0.6045290">
        <ele>620.0</ele>
        <time>2020-07-28T13:28:25Z</time>
      </trkpt>
      <trkpt lat="42.8404820" lon="0.6046650">
        <ele>618.8</ele>
        <time>2020-07-28T13:28:31Z</time>
      </trkpt>
      <trkpt lat="42.8405690" lon="0.6046830">
        <ele>618.6</ele>
        <time>2020-07-28T13:28:32Z</time>
      </trkpt>
      <trkpt lat="42.8406560" lon="0.6046980">
        <ele>618.0</ele>
        <time>2020-07-28T13:28:33Z</time>
      </trkpt>
      <trkpt lat="42.8408340" lon="0.6047180">
        <ele>616.8</ele>
        <time>2020-07-28T13:28:35Z</time>
      </trkpt>
      <trkpt lat="42.8411080" lon="0.6047270">
        <ele>615.6</ele>
        <time>2020-07-28T13:28:38Z</time>
      </trkpt>
      <trkpt lat="42.8411990" lon="0.6047220">
        <ele>615.2</ele>
        <time>2020-07-28T13:28:39Z</time>
      </trkpt>
      <trkpt lat="42.8414690" lon="0.6046770">
        <ele>614.0</ele>
        <time>2020-07-28T13:28:42Z</time>
      </trkpt>
      <trkpt lat="42.8417260" lon="0.6046050">
        <ele>612.6</ele>
        <time>2020-07-28T13:28:45Z</time>
      </trkpt>
      <trkpt lat="42.8422530" lon="0.6043940">
        <ele>611.6</ele>
        <time>2020-07-28T13:28:52Z</time>
      </trkpt>
      <trkpt lat="42.8423230" lon="0.6043670">
        <ele>611.6</ele>
        <time>2020-07-28T13:28:53Z</time>
      </trkpt>
      <trkpt lat="42.8427820" lon="0.6042250">
        <ele>611.6</ele>
        <time>2020-07-28T13:29:00Z</time>
      </trkpt>
      <trkpt lat="42.8432470" lon="0.6041270">
        <ele>611.8</ele>
        <time>2020-07-28T13:29:08Z</time>
      </trkpt>
      <trkpt lat="42.8435660" lon="0.6040690">
        <ele>613.0</ele>
        <time>2020-07-28T13:29:14Z</time>
      </trkpt>
      <trkpt lat="42.8436700" lon="0.6040550">
        <ele>614.0</ele>
        <time>2020-07-28T13:29:16Z</time>
      </trkpt>
      <trkpt lat="42.8437210" lon="0.6040470">
        <ele>614.4</ele>
        <time>2020-07-28T13:29:17Z</time>
      </trkpt>
      <trkpt lat="42.8441210" lon="0.6039960">
        <ele>615.0</ele>
        <time>2020-07-28T13:29:25Z</time>
      </trkpt>
      <trkpt lat="42.8446020" lon="0.6038880">
        <ele>615.0</ele>
        <time>2020-07-28T13:29:34Z</time>
      </trkpt>
      <trkpt lat="42.8450080" lon="0.6037890">
        <ele>615.2</ele>
        <time>2020-07-28T13:29:41Z</time>
      </trkpt>
      <trkpt lat="42.8455690" lon="0.6036600">
        <ele>614.8</ele>
        <time>2020-07-28T13:29:50Z</time>
      </trkpt>
      <trkpt lat="42.8456340" lon="0.6036450">
        <ele>614.6</ele>
        <time>2020-07-28T13:29:51Z</time>
      </trkpt>
      <trkpt lat="42.8461820" lon="0.6035130">
        <ele>614.4</ele>
        <time>2020-07-28T13:29:59Z</time>
      </trkpt>
      <trkpt lat="42.8463290" lon="0.6034770">
        <ele>614.4</ele>
        <time>2020-07-28T13:30:01Z</time>
      </trkpt>
      <trkpt lat="42.8468630" lon="0.6033480">
        <ele>614.2</ele>
        <time>2020-07-28T13:30:08Z</time>
      </trkpt>
      <trkpt lat="42.8470960" lon="0.6032940">
        <ele>613.6</ele>
        <time>2020-07-28T13:30:11Z</time>
      </trkpt>
      <trkpt lat="42.8472540" lon="0.6032570">
        <ele>612.8</ele>
        <time>2020-07-28T13:30:13Z</time>
      </trkpt>
      <trkpt lat="42.8473350" lon="0.6032380">
        <ele>612.4</ele>
        <time>2020-07-28T13:30:14Z</time>
      </trkpt>
      <trkpt lat="42.8478880" lon="0.6031130">
        <ele>611.6</ele>
        <time>2020-07-28T13:30:21Z</time>
      </trkpt>
      <trkpt lat="42.8480390" lon="0.6030760">
        <ele>611.4</ele>
        <time>2020-07-28T13:30:23Z</time>
      </trkpt>
      <trkpt lat="42.8481880" lon="0.6030410">
        <ele>610.4</ele>
        <time>2020-07-28T13:30:25Z</time>
      </trkpt>
      <trkpt lat="42.8486990" lon="0.6029120">
        <ele>609.2</ele>
        <time>2020-07-28T13:30:32Z</time>
      </trkpt>
      <trkpt lat="42.8489150" lon="0.6028600">
        <ele>609.2</ele>
        <time>2020-07-28T13:30:35Z</time>
      </trkpt>
      <trkpt lat="42.8494830" lon="0.6027190">
        <ele>609.0</ele>
        <time>2020-07-28T13:30:43Z</time>
      </trkpt>
      <trkpt lat="42.8497560" lon="0.6026660">
        <ele>609.0</ele>
        <time>2020-07-28T13:30:47Z</time>
      </trkpt>
      <trkpt lat="42.8502710" lon="0.6026220">
        <ele>609.0</ele>
        <time>2020-07-28T13:30:55Z</time>
      </trkpt>
      <trkpt lat="42.8508260" lon="0.6026240">
        <ele>609.6</ele>
        <time>2020-07-28T13:31:04Z</time>
      </trkpt>
      <trkpt lat="42.8508870" lon="0.6026230">
        <ele>609.6</ele>
        <time>2020-07-28T13:31:05Z</time>
      </trkpt>
      <trkpt lat="42.8514730" lon="0.6026340">
        <ele>610.6</ele>
        <time>2020-07-28T13:31:15Z</time>
      </trkpt>
      <trkpt lat="42.8515310" lon="0.6026360">
        <ele>610.8</ele>
        <time>2020-07-28T13:31:16Z</time>
      </trkpt>
      <trkpt lat="42.8519420" lon="0.6026900">
        <ele>610.8</ele>
        <time>2020-07-28T13:31:23Z</time>
      </trkpt>
      <trkpt lat="42.8524020" lon="0.6028800">
        <ele>610.8</ele>
        <time>2020-07-28T13:31:31Z</time>
      </trkpt>
      <trkpt lat="42.8527790" lon="0.6031280">
        <ele>610.2</ele>
        <time>2020-07-28T13:31:38Z</time>
      </trkpt>
      <trkpt lat="42.8530410" lon="0.6033880">
        <ele>610.0</ele>
        <time>2020-07-28T13:31:43Z</time>
      </trkpt>
      <trkpt lat="42.8530850" lon="0.6034480">
        <ele>609.8</ele>
        <time>2020-07-28T13:31:44Z</time>
      </trkpt>
      <trkpt lat="42.8531280" lon="0.6035090">
        <ele>609.6</ele>
        <time>2020-07-28T13:31:45Z</time>
      </trkpt>
      <trkpt lat="42.8534770" lon="0.6039770">
        <ele>609.2</ele>
        <time>2020-07-28T13:31:52Z</time>
      </trkpt>
      <trkpt lat="42.8535860" lon="0.6041120">
        <ele>608.8</ele>
        <time>2020-07-28T13:31:54Z</time>
      </trkpt>
      <trkpt lat="42.8539590" lon="0.6045700">
        <ele>608.2</ele>
        <time>2020-07-28T13:32:01Z</time>
      </trkpt>
      <trkpt lat="42.8542550" lon="0.6048890">
        <ele>608.2</ele>
        <time>2020-07-28T13:32:07Z</time>
      </trkpt>
      <trkpt lat="42.8545750" lon="0.6051060">
        <ele>608.2</ele>
        <time>2020-07-28T13:32:13Z</time>
      </trkpt>
      <trkpt lat="42.8549720" lon="0.6053110">
        <ele>608.2</ele>
        <time>2020-07-28T13:32:20Z</time>
      </trkpt>
      <trkpt lat="42.8553720" lon="0.6055430">
        <ele>608.2</ele>
        <time>2020-07-28T13:32:27Z</time>
      </trkpt>
      <trkpt lat="42.8557770" lon="0.6057940">
        <ele>608.2</ele>
        <time>2020-07-28T13:32:34Z</time>
      </trkpt>
      <trkpt lat="42.8562000" lon="0.6060240">
        <ele>608.4</ele>
        <time>2020-07-28T13:32:41Z</time>
      </trkpt>
      <trkpt lat="42.8565510" lon="0.6061250">
        <ele>608.6</ele>
        <time>2020-07-28T13:32:46Z</time>
      </trkpt>
      <trkpt lat="42.8569810" lon="0.6061460">
        <ele>608.8</ele>
        <time>2020-07-28T13:32:52Z</time>
      </trkpt>
      <trkpt lat="42.8573270" lon="0.6060970">
        <ele>608.8</ele>
        <time>2020-07-28T13:32:57Z</time>
      </trkpt>
      <trkpt lat="42.8574570" lon="0.6060570">
        <ele>608.8</ele>
        <time>2020-07-28T13:32:59Z</time>
      </trkpt>
      <trkpt lat="42.8579480" lon="0.6058690">
        <ele>608.2</ele>
        <time>2020-07-28T13:33:07Z</time>
      </trkpt>
      <trkpt lat="42.8584340" lon="0.6057220">
        <ele>607.8</ele>
        <time>2020-07-28T13:33:15Z</time>
      </trkpt>
      <trkpt lat="42.8589040" lon="0.6057050">
        <ele>607.8</ele>
        <time>2020-07-28T13:33:23Z</time>
      </trkpt>
      <trkpt lat="42.8592970" lon="0.6057630">
        <ele>607.8</ele>
        <time>2020-07-28T13:33:30Z</time>
      </trkpt>
      <trkpt lat="42.8593530" lon="0.6057800">
        <ele>607.8</ele>
        <time>2020-07-28T13:33:31Z</time>
      </trkpt>
      <trkpt lat="42.8597530" lon="0.6059080">
        <ele>607.8</ele>
        <time>2020-07-28T13:33:38Z</time>
      </trkpt>
      <trkpt lat="42.8601900" lon="0.6059660">
        <ele>608.0</ele>
        <time>2020-07-28T13:33:45Z</time>
      </trkpt>
      <trkpt lat="42.8606590" lon="0.6059180">
        <ele>608.2</ele>
        <time>2020-07-28T13:33:52Z</time>
      </trkpt>
      <trkpt lat="42.8612210" lon="0.6057170">
        <ele>607.6</ele>
        <time>2020-07-28T13:34:00Z</time>
      </trkpt>
      <trkpt lat="42.8617880" lon="0.6055710">
        <ele>607.2</ele>
        <time>2020-07-28T13:34:08Z</time>
      </trkpt>
      <trkpt lat="42.8618570" lon="0.6055520">
        <ele>607.2</ele>
        <time>2020-07-28T13:34:09Z</time>
      </trkpt>
      <trkpt lat="42.8624240" lon="0.6053730">
        <ele>607.2</ele>
        <time>2020-07-28T13:34:17Z</time>
      </trkpt>
      <trkpt lat="42.8628730" lon="0.6052510">
        <ele>606.6</ele>
        <time>2020-07-28T13:34:24Z</time>
      </trkpt>
      <trkpt lat="42.8632960" lon="0.6052440">
        <ele>606.6</ele>
        <time>2020-07-28T13:34:32Z</time>
      </trkpt>
      <trkpt lat="42.8636250" lon="0.6052700">
        <ele>607.6</ele>
        <time>2020-07-28T13:34:39Z</time>
      </trkpt>
      <trkpt lat="42.8637600" lon="0.6052930">
        <ele>608.4</ele>
        <time>2020-07-28T13:34:42Z</time>
      </trkpt>
      <trkpt lat="42.8638480" lon="0.6053250">
        <ele>609.0</ele>
        <time>2020-07-28T13:34:44Z</time>
      </trkpt>
      <trkpt lat="42.8639740" lon="0.6053940">
        <ele>609.6</ele>
        <time>2020-07-28T13:34:47Z</time>
      </trkpt>
      <trkpt lat="42.8640920" lon="0.6054580">
        <ele>610.2</ele>
        <time>2020-07-28T13:34:50Z</time>
      </trkpt>
      <trkpt lat="42.8642460" lon="0.6055470">
        <ele>610.6</ele>
        <time>2020-07-28T13:34:54Z</time>
      </trkpt>
      <trkpt lat="42.8643460" lon="0.6056260">
        <ele>611.4</ele>
        <time>2020-07-28T13:34:57Z</time>
      </trkpt>
      <trkpt lat="42.8644120" lon="0.6056870">
        <ele>612.0</ele>
        <time>2020-07-28T13:34:59Z</time>
      </trkpt>
      <trkpt lat="42.8645240" lon="0.6057990">
        <ele>612.6</ele>
        <time>2020-07-28T13:35:03Z</time>
      </trkpt>
      <trkpt lat="42.8647110" lon="0.6059760">
        <ele>613.0</ele>
        <time>2020-07-28T13:35:08Z</time>
      </trkpt>
      <trkpt lat="42.8647550" lon="0.6060140">
        <ele>613.2</ele>
        <time>2020-07-28T13:35:09Z</time>
      </trkpt>
      <trkpt lat="42.8650210" lon="0.6062320">
        <ele>614.2</ele>
        <time>2020-07-28T13:35:15Z</time>
      </trkpt>
      <trkpt lat="42.8651490" lon="0.6063540">
        <ele>614.2</ele>
        <time>2020-07-28T13:35:18Z</time>
      </trkpt>
      <trkpt lat="42.8654760" lon="0.6066560">
        <ele>614.4</ele>
        <time>2020-07-28T13:35:25Z</time>
      </trkpt>
      <trkpt lat="42.8658520" lon="0.6069700">
        <ele>614.4</ele>
        <time>2020-07-28T13:35:32Z</time>
      </trkpt>
      <trkpt lat="42.8662900" lon="0.6073550">
        <ele>613.2</ele>
        <time>2020-07-28T13:35:40Z</time>
      </trkpt>
      <trkpt lat="42.8663460" lon="0.6074020">
        <ele>613.0</ele>
        <time>2020-07-28T13:35:41Z</time>
      </trkpt>
      <trkpt lat="42.8666710" lon="0.6077030">
        <ele>612.4</ele>
        <time>2020-07-28T13:35:47Z</time>
      </trkpt>
      <trkpt lat="42.8668250" lon="0.6078820">
        <ele>611.8</ele>
        <time>2020-07-28T13:35:50Z</time>
      </trkpt>
      <trkpt lat="42.8670780" lon="0.6081960">
        <ele>611.2</ele>
        <time>2020-07-28T13:35:55Z</time>
      </trkpt>
      <trkpt lat="42.8675210" lon="0.6087280">
        <ele>611.4</ele>
        <time>2020-07-28T13:36:04Z</time>
      </trkpt>
      <trkpt lat="42.8676110" lon="0.6088380">
        <ele>611.6</ele>
        <time>2020-07-28T13:36:06Z</time>
      </trkpt>
      <trkpt lat="42.8679700" lon="0.6092600">
        <ele>612.2</ele>
        <time>2020-07-28T13:36:14Z</time>
      </trkpt>
      <trkpt lat="42.8682890" lon="0.6095220">
        <ele>613.0</ele>
        <time>2020-07-28T13:36:20Z</time>
      </trkpt>
      <trkpt lat="42.8686680" lon="0.6097130">
        <ele>613.0</ele>
        <time>2020-07-28T13:36:26Z</time>
      </trkpt>
      <trkpt lat="42.8691070" lon="0.6098300">
        <ele>611.6</ele>
        <time>2020-07-28T13:36:32Z</time>
      </trkpt>
      <trkpt lat="42.8695250" lon="0.6099570">
        <ele>611.0</ele>
        <time>2020-07-28T13:36:37Z</time>
      </trkpt>
      <trkpt lat="42.8697050" lon="0.6100140">
        <ele>610.6</ele>
        <time>2020-07-28T13:36:39Z</time>
      </trkpt>
      <trkpt lat="42.8698890" lon="0.6100930">
        <ele>609.4</ele>
        <time>2020-07-28T13:36:41Z</time>
      </trkpt>
      <trkpt lat="42.8700750" lon="0.6102020">
        <ele>608.2</ele>
        <time>2020-07-28T13:36:43Z</time>
      </trkpt>
      <trkpt lat="42.8701680" lon="0.6102660">
        <ele>607.2</ele>
        <time>2020-07-28T13:36:44Z</time>
      </trkpt>
      <trkpt lat="42.8703590" lon="0.6104080">
        <ele>606.0</ele>
        <time>2020-07-28T13:36:46Z</time>
      </trkpt>
      <trkpt lat="42.8705530" lon="0.6105620">
        <ele>605.4</ele>
        <time>2020-07-28T13:36:48Z</time>
      </trkpt>
      <trkpt lat="42.8706520" lon="0.6106390">
        <ele>604.8</ele>
        <time>2020-07-28T13:36:49Z</time>
      </trkpt>
      <trkpt lat="42.8707520" lon="0.6107150">
        <ele>603.6</ele>
        <time>2020-07-28T13:36:50Z</time>
      </trkpt>
      <trkpt lat="42.8708540" lon="0.6107870">
        <ele>602.2</ele>
        <time>2020-07-28T13:36:51Z</time>
      </trkpt>
      <trkpt lat="42.8709600" lon="0.6108540">
        <ele>601.2</ele>
        <time>2020-07-28T13:36:52Z</time>
      </trkpt>
      <trkpt lat="42.8711810" lon="0.6109790">
        <ele>600.0</ele>
        <time>2020-07-28T13:36:54Z</time>
      </trkpt>
      <trkpt lat="42.8712910" lon="0.6110360">
        <ele>599.0</ele>
        <time>2020-07-28T13:36:55Z</time>
      </trkpt>
      <trkpt lat="42.8714000" lon="0.6110840">
        <ele>597.6</ele>
        <time>2020-07-28T13:36:56Z</time>
      </trkpt>
      <trkpt lat="42.8715080" lon="0.6111290">
        <ele>596.6</ele>
        <time>2020-07-28T13:36:57Z</time>
      </trkpt>
      <trkpt lat="42.8717170" lon="0.6112030">
        <ele>594.8</ele>
        <time>2020-07-28T13:36:59Z</time>
      </trkpt>
      <trkpt lat="42.8719170" lon="0.6112800">
        <ele>593.6</ele>
        <time>2020-07-28T13:37:01Z</time>
      </trkpt>
      <trkpt lat="42.8721910" lon="0.6113940">
        <ele>592.6</ele>
        <time>2020-07-28T13:37:04Z</time>
      </trkpt>
      <trkpt lat="42.8723620" lon="0.6114780">
        <ele>592.6</ele>
        <time>2020-07-28T13:37:06Z</time>
      </trkpt>
      <trkpt lat="42.8726600" lon="0.6116690">
        <ele>592.6</ele>
        <time>2020-07-28T13:37:10Z</time>
      </trkpt>
      <trkpt lat="42.8730490" lon="0.6119550">
        <ele>593.8</ele>
        <time>2020-07-28T13:37:16Z</time>
      </trkpt>
      <trkpt lat="42.8731050" lon="0.6119980">
        <ele>594.0</ele>
        <time>2020-07-28T13:37:17Z</time>
      </trkpt>
      <trkpt lat="42.8733870" lon="0.6122160">
        <ele>595.0</ele>
        <time>2020-07-28T13:37:22Z</time>
      </trkpt>
      <trkpt lat="42.8734420" lon="0.6122570">
        <ele>595.2</ele>
        <time>2020-07-28T13:37:23Z</time>
      </trkpt>
      <trkpt lat="42.8738590" lon="0.6125190">
        <ele>595.6</ele>
        <time>2020-07-28T13:37:30Z</time>
      </trkpt>
      <trkpt lat="42.8743950" lon="0.6127830">
        <ele>595.6</ele>
        <time>2020-07-28T13:37:38Z</time>
      </trkpt>
      <trkpt lat="42.8748900" lon="0.6129920">
        <ele>594.6</ele>
        <time>2020-07-28T13:37:45Z</time>
      </trkpt>
      <trkpt lat="42.8753130" lon="0.6131650">
        <ele>594.0</ele>
        <time>2020-07-28T13:37:51Z</time>
      </trkpt>
      <trkpt lat="42.8754540" lon="0.6132290">
        <ele>593.8</ele>
        <time>2020-07-28T13:37:53Z</time>
      </trkpt>
      <trkpt lat="42.8758030" lon="0.6133960">
        <ele>592.8</ele>
        <time>2020-07-28T13:37:58Z</time>
      </trkpt>
      <trkpt lat="42.8760050" lon="0.6134870">
        <ele>592.6</ele>
        <time>2020-07-28T13:38:01Z</time>
      </trkpt>
      <trkpt lat="42.8761970" lon="0.6135780">
        <ele>592.6</ele>
        <time>2020-07-28T13:38:04Z</time>
      </trkpt>
      <trkpt lat="42.8766450" lon="0.6137610">
        <ele>591.6</ele>
        <time>2020-07-28T13:38:11Z</time>
      </trkpt>
      <trkpt lat="42.8767720" lon="0.6138090">
        <ele>591.6</ele>
        <time>2020-07-28T13:38:13Z</time>
      </trkpt>
      <trkpt lat="42.8772210" lon="0.6140030">
        <ele>591.4</ele>
        <time>2020-07-28T13:38:20Z</time>
      </trkpt>
      <trkpt lat="42.8777500" lon="0.6141760">
        <ele>591.2</ele>
        <time>2020-07-28T13:38:28Z</time>
      </trkpt>
      <trkpt lat="42.8781670" lon="0.6141750">
        <ele>591.2</ele>
        <time>2020-07-28T13:38:34Z</time>
      </trkpt>
      <trkpt lat="42.8786500" lon="0.6140230">
        <ele>591.0</ele>
        <time>2020-07-28T13:38:41Z</time>
      </trkpt>
      <trkpt lat="42.8789930" lon="0.6138990">
        <ele>590.4</ele>
        <time>2020-07-28T13:38:46Z</time>
      </trkpt>
      <trkpt lat="42.8792650" lon="0.6138000">
        <ele>590.0</ele>
        <time>2020-07-28T13:38:50Z</time>
      </trkpt>
      <trkpt lat="42.8795370" lon="0.6136900">
        <ele>589.4</ele>
        <time>2020-07-28T13:38:54Z</time>
      </trkpt>
      <trkpt lat="42.8798700" lon="0.6135820">
        <ele>588.6</ele>
        <time>2020-07-28T13:38:59Z</time>
      </trkpt>
      <trkpt lat="42.8803430" lon="0.6135760">
        <ele>587.4</ele>
        <time>2020-07-28T13:39:06Z</time>
      </trkpt>
      <trkpt lat="42.8808940" lon="0.6136680">
        <ele>587.2</ele>
        <time>2020-07-28T13:39:14Z</time>
      </trkpt>
      <trkpt lat="42.8809660" lon="0.6136800">
        <ele>587.2</ele>
        <time>2020-07-28T13:39:15Z</time>
      </trkpt>
      <trkpt lat="42.8815630" lon="0.6137750">
        <ele>586.6</ele>
        <time>2020-07-28T13:39:23Z</time>
      </trkpt>
      <trkpt lat="42.8816410" lon="0.6137870">
        <ele>586.4</ele>
        <time>2020-07-28T13:39:24Z</time>
      </trkpt>
      <trkpt lat="42.8821930" lon="0.6138800">
        <ele>586.2</ele>
        <time>2020-07-28T13:39:31Z</time>
      </trkpt>
      <trkpt lat="42.8823510" lon="0.6139080">
        <ele>585.8</ele>
        <time>2020-07-28T13:39:33Z</time>
      </trkpt>
      <trkpt lat="42.8824310" lon="0.6139270">
        <ele>585.4</ele>
        <time>2020-07-28T13:39:34Z</time>
      </trkpt>
      <trkpt lat="42.8827390" lon="0.6140450">
        <ele>584.6</ele>
        <time>2020-07-28T13:39:38Z</time>
      </trkpt>
      <trkpt lat="42.8828070" lon="0.6140860">
        <ele>584.6</ele>
        <time>2020-07-28T13:39:39Z</time>
      </trkpt>
      <trkpt lat="42.8828710" lon="0.6141340">
        <ele>584.4</ele>
        <time>2020-07-28T13:39:40Z</time>
      </trkpt>
      <trkpt lat="42.8831000" lon="0.6143760">
        <ele>583.2</ele>
        <time>2020-07-28T13:39:44Z</time>
      </trkpt>
      <trkpt lat="42.8831950" lon="0.6145180">
        <ele>582.6</ele>
        <time>2020-07-28T13:39:46Z</time>
      </trkpt>
      <trkpt lat="42.8833050" lon="0.6147490">
        <ele>582.4</ele>
        <time>2020-07-28T13:39:49Z</time>
      </trkpt>
      <trkpt lat="42.8834010" lon="0.6149940">
        <ele>582.4</ele>
        <time>2020-07-28T13:39:52Z</time>
      </trkpt>
      <trkpt lat="42.8835570" lon="0.6154080">
        <ele>582.2</ele>
        <time>2020-07-28T13:39:57Z</time>
      </trkpt>
      <trkpt lat="42.8837680" lon="0.6158190">
        <ele>582.2</ele>
        <time>2020-07-28T13:40:02Z</time>
      </trkpt>
      <trkpt lat="42.8840100" lon="0.6162220">
        <ele>581.8</ele>
        <time>2020-07-28T13:40:07Z</time>
      </trkpt>
      <trkpt lat="42.8840630" lon="0.6162990">
        <ele>581.6</ele>
        <time>2020-07-28T13:40:08Z</time>
      </trkpt>
      <trkpt lat="42.8842550" lon="0.6164990">
        <ele>580.6</ele>
        <time>2020-07-28T13:40:11Z</time>
      </trkpt>
      <trkpt lat="42.8843320" lon="0.6165630">
        <ele>580.6</ele>
        <time>2020-07-28T13:40:12Z</time>
      </trkpt>
      <trkpt lat="42.8844220" lon="0.6166160">
        <ele>580.4</ele>
        <time>2020-07-28T13:40:13Z</time>
      </trkpt>
      <trkpt lat="42.8846950" lon="0.6167800">
        <ele>580.0</ele>
        <time>2020-07-28T13:40:16Z</time>
      </trkpt>
      <trkpt lat="42.8849600" lon="0.6169590">
        <ele>579.8</ele>
        <time>2020-07-28T13:40:19Z</time>
      </trkpt>
      <trkpt lat="42.8850400" lon="0.6170400">
        <ele>579.4</ele>
        <time>2020-07-28T13:40:20Z</time>
      </trkpt>
      <trkpt lat="42.8851150" lon="0.6171320">
        <ele>578.8</ele>
        <time>2020-07-28T13:40:21Z</time>
      </trkpt>
      <trkpt lat="42.8851890" lon="0.6172280">
        <ele>578.4</ele>
        <time>2020-07-28T13:40:22Z</time>
      </trkpt>
      <trkpt lat="42.8853280" lon="0.6174230">
        <ele>577.0</ele>
        <time>2020-07-28T13:40:24Z</time>
      </trkpt>
      <trkpt lat="42.8853900" lon="0.6175290">
        <ele>575.8</ele>
        <time>2020-07-28T13:40:25Z</time>
      </trkpt>
      <trkpt lat="42.8854520" lon="0.6176350">
        <ele>575.2</ele>
        <time>2020-07-28T13:40:26Z</time>
      </trkpt>
      <trkpt lat="42.8855120" lon="0.6177400">
        <ele>574.6</ele>
        <time>2020-07-28T13:40:27Z</time>
      </trkpt>
      <trkpt lat="42.8857850" lon="0.6181520">
        <ele>573.4</ele>
        <time>2020-07-28T13:40:31Z</time>
      </trkpt>
      <trkpt lat="42.8858620" lon="0.6182440">
        <ele>573.2</ele>
        <time>2020-07-28T13:40:32Z</time>
      </trkpt>
      <trkpt lat="42.8860330" lon="0.6183950">
        <ele>573.0</ele>
        <time>2020-07-28T13:40:34Z</time>
      </trkpt>
      <trkpt lat="42.8862210" lon="0.6185290">
        <ele>572.6</ele>
        <time>2020-07-28T13:40:36Z</time>
      </trkpt>
      <trkpt lat="42.8863160" lon="0.6185950">
        <ele>572.4</ele>
        <time>2020-07-28T13:40:37Z</time>
      </trkpt>
      <trkpt lat="42.8865940" lon="0.6188050">
        <ele>571.2</ele>
        <time>2020-07-28T13:40:40Z</time>
      </trkpt>
      <trkpt lat="42.8867690" lon="0.6189620">
        <ele>570.8</ele>
        <time>2020-07-28T13:40:42Z</time>
      </trkpt>
      <trkpt lat="42.8869350" lon="0.6191300">
        <ele>569.8</ele>
        <time>2020-07-28T13:40:44Z</time>
      </trkpt>
      <trkpt lat="42.8870880" lon="0.6193020">
        <ele>568.8</ele>
        <time>2020-07-28T13:40:46Z</time>
      </trkpt>
      <trkpt lat="42.8872380" lon="0.6194680">
        <ele>568.4</ele>
        <time>2020-07-28T13:40:48Z</time>
      </trkpt>
      <trkpt lat="42.8874780" lon="0.6196650">
        <ele>568.0</ele>
        <time>2020-07-28T13:40:51Z</time>
      </trkpt>
      <trkpt lat="42.8875650" lon="0.6197020">
        <ele>568.0</ele>
        <time>2020-07-28T13:40:52Z</time>
      </trkpt>
      <trkpt lat="42.8878470" lon="0.6197730">
        <ele>567.8</ele>
        <time>2020-07-28T13:40:55Z</time>
      </trkpt>
      <trkpt lat="42.8880420" lon="0.6198290">
        <ele>567.6</ele>
        <time>2020-07-28T13:40:57Z</time>
      </trkpt>
      <trkpt lat="42.8884300" lon="0.6199360">
        <ele>566.6</ele>
        <time>2020-07-28T13:41:01Z</time>
      </trkpt>
      <trkpt lat="42.8888370" lon="0.6200390">
        <ele>565.2</ele>
        <time>2020-07-28T13:41:05Z</time>
      </trkpt>
      <trkpt lat="42.8891310" lon="0.6201060">
        <ele>564.0</ele>
        <time>2020-07-28T13:41:08Z</time>
      </trkpt>
      <trkpt lat="42.8894160" lon="0.6201920">
        <ele>563.6</ele>
        <time>2020-07-28T13:41:11Z</time>
      </trkpt>
      <trkpt lat="42.8899600" lon="0.6202580">
        <ele>563.0</ele>
        <time>2020-07-28T13:41:17Z</time>
      </trkpt>
      <trkpt lat="42.8901990" lon="0.6202430">
        <ele>562.8</ele>
        <time>2020-07-28T13:41:20Z</time>
      </trkpt>
      <trkpt lat="42.8902700" lon="0.6202170">
        <ele>562.6</ele>
        <time>2020-07-28T13:41:21Z</time>
      </trkpt>
      <trkpt lat="42.8905510" lon="0.6200580">
        <ele>562.6</ele>
        <time>2020-07-28T13:41:25Z</time>
      </trkpt>
      <trkpt lat="42.8906760" lon="0.6201320">
        <ele>562.4</ele>
        <time>2020-07-28T13:41:27Z</time>
      </trkpt>
      <trkpt lat="42.8907770" lon="0.6202840">
        <ele>562.4</ele>
        <time>2020-07-28T13:41:29Z</time>
      </trkpt>
      <trkpt lat="42.8908700" lon="0.6204590">
        <ele>562.4</ele>
        <time>2020-07-28T13:41:31Z</time>
      </trkpt>
      <trkpt lat="42.8911220" lon="0.6210670">
        <ele>562.2</ele>
        <time>2020-07-28T13:41:37Z</time>
      </trkpt>
      <trkpt lat="42.8912040" lon="0.6212810">
        <ele>561.8</ele>
        <time>2020-07-28T13:41:39Z</time>
      </trkpt>
      <trkpt lat="42.8912500" lon="0.6213810">
        <ele>561.6</ele>
        <time>2020-07-28T13:41:40Z</time>
      </trkpt>
      <trkpt lat="42.8913590" lon="0.6215460">
        <ele>561.0</ele>
        <time>2020-07-28T13:41:42Z</time>
      </trkpt>
      <trkpt lat="42.8914260" lon="0.6216020">
        <ele>560.8</ele>
        <time>2020-07-28T13:41:43Z</time>
      </trkpt>
      <trkpt lat="42.8915700" lon="0.6216600">
        <ele>560.2</ele>
        <time>2020-07-28T13:41:45Z</time>
      </trkpt>
      <trkpt lat="42.8917850" lon="0.6216070">
        <ele>559.8</ele>
        <time>2020-07-28T13:41:48Z</time>
      </trkpt>
      <trkpt lat="42.8919210" lon="0.6215320">
        <ele>559.6</ele>
        <time>2020-07-28T13:41:50Z</time>
      </trkpt>
      <trkpt lat="42.8920610" lon="0.6214610">
        <ele>559.4</ele>
        <time>2020-07-28T13:41:52Z</time>
      </trkpt>
      <trkpt lat="42.8924210" lon="0.6213060">
        <ele>559.4</ele>
        <time>2020-07-28T13:41:58Z</time>
      </trkpt>
      <trkpt lat="42.8926380" lon="0.6211880">
        <ele>559.4</ele>
        <time>2020-07-28T13:42:02Z</time>
      </trkpt>
      <trkpt lat="42.8926880" lon="0.6211470">
        <ele>559.4</ele>
        <time>2020-07-28T13:42:03Z</time>
      </trkpt>
      <trkpt lat="42.8929470" lon="0.6209610">
        <ele>560.4</ele>
        <time>2020-07-28T13:42:08Z</time>
      </trkpt>
      <trkpt lat="42.8930040" lon="0.6209390">
        <ele>560.8</ele>
        <time>2020-07-28T13:42:09Z</time>
      </trkpt>
      <trkpt lat="42.8931870" lon="0.6209930">
        <ele>561.2</ele>
        <time>2020-07-28T13:42:12Z</time>
      </trkpt>
      <trkpt lat="42.8933120" lon="0.6210770">
        <ele>561.2</ele>
        <time>2020-07-28T13:42:14Z</time>
      </trkpt>
      <trkpt lat="42.8935910" lon="0.6212510">
        <ele>561.2</ele>
        <time>2020-07-28T13:42:18Z</time>
      </trkpt>
      <trkpt lat="42.8941170" lon="0.6215930">
        <ele>560.2</ele>
        <time>2020-07-28T13:42:26Z</time>
      </trkpt>
      <trkpt lat="42.8946160" lon="0.6219560">
        <ele>560.2</ele>
        <time>2020-07-28T13:42:34Z</time>
      </trkpt>
      <trkpt lat="42.8946780" lon="0.6220010">
        <ele>560.2</ele>
        <time>2020-07-28T13:42:35Z</time>
      </trkpt>
      <trkpt lat="42.8949540" lon="0.6222490">
        <ele>560.6</ele>
        <time>2020-07-28T13:42:40Z</time>
      </trkpt>
      <trkpt lat="42.8950680" lon="0.6223650">
        <ele>560.6</ele>
        <time>2020-07-28T13:42:42Z</time>
      </trkpt>
      <trkpt lat="42.8952210" lon="0.6225900">
        <ele>560.6</ele>
        <time>2020-07-28T13:42:45Z</time>
      </trkpt>
      <trkpt lat="42.8954890" lon="0.6229510">
        <ele>560.6</ele>
        <time>2020-07-28T13:42:50Z</time>
      </trkpt>
      <trkpt lat="42.8956710" lon="0.6231400">
        <ele>560.0</ele>
        <time>2020-07-28T13:42:53Z</time>
      </trkpt>
      <trkpt lat="42.8958000" lon="0.6232720">
        <ele>559.0</ele>
        <time>2020-07-28T13:42:55Z</time>
      </trkpt>
      <trkpt lat="42.8958660" lon="0.6233340">
        <ele>558.8</ele>
        <time>2020-07-28T13:42:56Z</time>
      </trkpt>
      <trkpt lat="42.8962920" lon="0.6237440">
        <ele>557.6</ele>
        <time>2020-07-28T13:43:02Z</time>
      </trkpt>
      <trkpt lat="42.8963660" lon="0.6238110">
        <ele>557.2</ele>
        <time>2020-07-28T13:43:03Z</time>
      </trkpt>
      <trkpt lat="42.8965130" lon="0.6239460">
        <ele>556.4</ele>
        <time>2020-07-28T13:43:05Z</time>
      </trkpt>
      <trkpt lat="42.8968030" lon="0.6242090">
        <ele>555.4</ele>
        <time>2020-07-28T13:43:09Z</time>
      </trkpt>
      <trkpt lat="42.8970340" lon="0.6244080">
        <ele>554.6</ele>
        <time>2020-07-28T13:43:12Z</time>
      </trkpt>
      <trkpt lat="42.8971060" lon="0.6244730">
        <ele>554.0</ele>
        <time>2020-07-28T13:43:13Z</time>
      </trkpt>
      <trkpt lat="42.8974750" lon="0.6248230">
        <ele>552.8</ele>
        <time>2020-07-28T13:43:18Z</time>
      </trkpt>
      <trkpt lat="42.8978140" lon="0.6252360">
        <ele>552.4</ele>
        <time>2020-07-28T13:43:23Z</time>
      </trkpt>
      <trkpt lat="42.8978610" lon="0.6253410">
        <ele>552.2</ele>
        <time>2020-07-28T13:43:24Z</time>
      </trkpt>
      <trkpt lat="42.8978860" lon="0.6254580">
        <ele>552.0</ele>
        <time>2020-07-28T13:43:25Z</time>
      </trkpt>
      <trkpt lat="42.8979120" lon="0.6256900">
        <ele>551.6</ele>
        <time>2020-07-28T13:43:27Z</time>
      </trkpt>
      <trkpt lat="42.8979860" lon="0.6259020">
        <ele>550.6</ele>
        <time>2020-07-28T13:43:29Z</time>
      </trkpt>
      <trkpt lat="42.8980420" lon="0.6259930">
        <ele>550.2</ele>
        <time>2020-07-28T13:43:30Z</time>
      </trkpt>
      <trkpt lat="42.8981630" lon="0.6261700">
        <ele>549.4</ele>
        <time>2020-07-28T13:43:32Z</time>
      </trkpt>
      <trkpt lat="42.8982240" lon="0.6262650">
        <ele>549.2</ele>
        <time>2020-07-28T13:43:33Z</time>
      </trkpt>
      <trkpt lat="42.8983370" lon="0.6264620">
        <ele>548.8</ele>
        <time>2020-07-28T13:43:35Z</time>
      </trkpt>
      <trkpt lat="42.8983900" lon="0.6265700">
        <ele>548.8</ele>
        <time>2020-07-28T13:43:36Z</time>
      </trkpt>
      <trkpt lat="42.8985410" lon="0.6268910">
        <ele>548.0</ele>
        <time>2020-07-28T13:43:39Z</time>
      </trkpt>
      <trkpt lat="42.8985860" lon="0.6270060">
        <ele>547.2</ele>
        <time>2020-07-28T13:43:40Z</time>
      </trkpt>
      <trkpt lat="42.8986300" lon="0.6271220">
        <ele>546.6</ele>
        <time>2020-07-28T13:43:41Z</time>
      </trkpt>
      <trkpt lat="42.8987070" lon="0.6273530">
        <ele>545.6</ele>
        <time>2020-07-28T13:43:43Z</time>
      </trkpt>
      <trkpt lat="42.8988230" lon="0.6277110">
        <ele>544.6</ele>
        <time>2020-07-28T13:43:46Z</time>
      </trkpt>
      <trkpt lat="42.8988580" lon="0.6278310">
        <ele>544.4</ele>
        <time>2020-07-28T13:43:47Z</time>
      </trkpt>
      <trkpt lat="42.8990150" lon="0.6284650">
        <ele>543.6</ele>
        <time>2020-07-28T13:43:52Z</time>
      </trkpt>
      <trkpt lat="42.8990780" lon="0.6287330">
        <ele>543.2</ele>
        <time>2020-07-28T13:43:54Z</time>
      </trkpt>
      <trkpt lat="42.8991480" lon="0.6290010">
        <ele>542.0</ele>
        <time>2020-07-28T13:43:56Z</time>
      </trkpt>
      <trkpt lat="42.8992580" lon="0.6293940">
        <ele>540.6</ele>
        <time>2020-07-28T13:43:59Z</time>
      </trkpt>
      <trkpt lat="42.8993850" lon="0.6297580">
        <ele>539.2</ele>
        <time>2020-07-28T13:44:02Z</time>
      </trkpt>
      <trkpt lat="42.8994600" lon="0.6299930">
        <ele>538.0</ele>
        <time>2020-07-28T13:44:04Z</time>
      </trkpt>
      <trkpt lat="42.8994370" lon="0.6303510">
        <ele>537.2</ele>
        <time>2020-07-28T13:44:07Z</time>
      </trkpt>
      <trkpt lat="42.8993300" lon="0.6305440">
        <ele>537.0</ele>
        <time>2020-07-28T13:44:09Z</time>
      </trkpt>
      <trkpt lat="42.8992740" lon="0.6306340">
        <ele>537.0</ele>
        <time>2020-07-28T13:44:10Z</time>
      </trkpt>
      <trkpt lat="42.8992250" lon="0.6307250">
        <ele>537.0</ele>
        <time>2020-07-28T13:44:11Z</time>
      </trkpt>
      <trkpt lat="42.8991660" lon="0.6309150">
        <ele>537.0</ele>
        <time>2020-07-28T13:44:13Z</time>
      </trkpt>
      <trkpt lat="42.8991490" lon="0.6312830">
        <ele>537.2</ele>
        <time>2020-07-28T13:44:17Z</time>
      </trkpt>
      <trkpt lat="42.8991510" lon="0.6313670">
        <ele>537.4</ele>
        <time>2020-07-28T13:44:18Z</time>
      </trkpt>
      <trkpt lat="42.8991490" lon="0.6314490">
        <ele>537.6</ele>
        <time>2020-07-28T13:44:19Z</time>
      </trkpt>
      <trkpt lat="42.8991370" lon="0.6316110">
        <ele>538.4</ele>
        <time>2020-07-28T13:44:21Z</time>
      </trkpt>
      <trkpt lat="42.8991370" lon="0.6317680">
        <ele>539.0</ele>
        <time>2020-07-28T13:44:23Z</time>
      </trkpt>
      <trkpt lat="42.8991460" lon="0.6319130">
        <ele>539.6</ele>
        <time>2020-07-28T13:44:25Z</time>
      </trkpt>
      <trkpt lat="42.8991610" lon="0.6321210">
        <ele>540.8</ele>
        <time>2020-07-28T13:44:28Z</time>
      </trkpt>
      <trkpt lat="42.8991700" lon="0.6321870">
        <ele>541.2</ele>
        <time>2020-07-28T13:44:29Z</time>
      </trkpt>
      <trkpt lat="42.8991970" lon="0.6323250">
        <ele>541.4</ele>
        <time>2020-07-28T13:44:31Z</time>
      </trkpt>
      <trkpt lat="42.8992480" lon="0.6325100">
        <ele>542.0</ele>
        <time>2020-07-28T13:44:34Z</time>
      </trkpt>
      <trkpt lat="42.8992680" lon="0.6325700">
        <ele>542.4</ele>
        <time>2020-07-28T13:44:35Z</time>
      </trkpt>
      <trkpt lat="42.8993200" lon="0.6326860">
        <ele>542.8</ele>
        <time>2020-07-28T13:44:37Z</time>
      </trkpt>
      <trkpt lat="42.8993820" lon="0.6328000">
        <ele>543.0</ele>
        <time>2020-07-28T13:44:39Z</time>
      </trkpt>
      <trkpt lat="42.8994100" lon="0.6328540">
        <ele>543.2</ele>
        <time>2020-07-28T13:44:40Z</time>
      </trkpt>
      <trkpt lat="42.8994700" lon="0.6329540">
        <ele>543.8</ele>
        <time>2020-07-28T13:44:42Z</time>
      </trkpt>
      <trkpt lat="42.8995520" lon="0.6330390">
        <ele>544.4</ele>
        <time>2020-07-28T13:44:44Z</time>
      </trkpt>
      <trkpt lat="42.8995930" lon="0.6330750">
        <ele>544.8</ele>
        <time>2020-07-28T13:44:45Z</time>
      </trkpt>
      <trkpt lat="42.8997100" lon="0.6331870">
        <ele>545.0</ele>
        <time>2020-07-28T13:44:48Z</time>
      </trkpt>
      <trkpt lat="42.8998320" lon="0.6332460">
        <ele>545.0</ele>
        <time>2020-07-28T13:44:50Z</time>
      </trkpt>
      <trkpt lat="42.9001050" lon="0.6333370">
        <ele>545.0</ele>
        <time>2020-07-28T13:44:54Z</time>
      </trkpt>
      <trkpt lat="42.9001830" lon="0.6333640">
        <ele>545.0</ele>
        <time>2020-07-28T13:44:55Z</time>
      </trkpt>
      <trkpt lat="42.9006160" lon="0.6335240">
        <ele>544.4</ele>
        <time>2020-07-28T13:45:00Z</time>
      </trkpt>
      <trkpt lat="42.9010140" lon="0.6336920">
        <ele>543.0</ele>
        <time>2020-07-28T13:45:04Z</time>
      </trkpt>
      <trkpt lat="42.9012120" lon="0.6338000">
        <ele>542.2</ele>
        <time>2020-07-28T13:45:06Z</time>
      </trkpt>
      <trkpt lat="42.9013090" lon="0.6338570">
        <ele>541.8</ele>
        <time>2020-07-28T13:45:07Z</time>
      </trkpt>
      <trkpt lat="42.9016930" lon="0.6340670">
        <ele>540.4</ele>
        <time>2020-07-28T13:45:11Z</time>
      </trkpt>
      <trkpt lat="42.9017930" lon="0.6340980">
        <ele>539.8</ele>
        <time>2020-07-28T13:45:12Z</time>
      </trkpt>
      <trkpt lat="42.9018950" lon="0.6341180">
        <ele>539.2</ele>
        <time>2020-07-28T13:45:13Z</time>
      </trkpt>
      <trkpt lat="42.9021000" lon="0.6341050">
        <ele>538.2</ele>
        <time>2020-07-28T13:45:15Z</time>
      </trkpt>
      <trkpt lat="42.9021990" lon="0.6340730">
        <ele>538.0</ele>
        <time>2020-07-28T13:45:16Z</time>
      </trkpt>
      <trkpt lat="42.9023780" lon="0.6339510">
        <ele>536.8</ele>
        <time>2020-07-28T13:45:18Z</time>
      </trkpt>
      <trkpt lat="42.9025430" lon="0.6337760">
        <ele>536.4</ele>
        <time>2020-07-28T13:45:20Z</time>
      </trkpt>
      <trkpt lat="42.9026240" lon="0.6336810">
        <ele>535.8</ele>
        <time>2020-07-28T13:45:21Z</time>
      </trkpt>
      <trkpt lat="42.9027680" lon="0.6335130">
        <ele>534.4</ele>
        <time>2020-07-28T13:45:23Z</time>
      </trkpt>
      <trkpt lat="42.9028490" lon="0.6334260">
        <ele>532.4</ele>
        <time>2020-07-28T13:45:24Z</time>
      </trkpt>
      <trkpt lat="42.9030310" lon="0.6331870">
        <ele>531.4</ele>
        <time>2020-07-28T13:45:26Z</time>
      </trkpt>
      <trkpt lat="42.9031340" lon="0.6330760">
        <ele>531.0</ele>
        <time>2020-07-28T13:45:27Z</time>
      </trkpt>
      <trkpt lat="42.9033590" lon="0.6329220">
        <ele>530.4</ele>
        <time>2020-07-28T13:45:29Z</time>
      </trkpt>
      <trkpt lat="42.9034750" lon="0.6328790">
        <ele>530.0</ele>
        <time>2020-07-28T13:45:30Z</time>
      </trkpt>
      <trkpt lat="42.9037100" lon="0.6328690">
        <ele>529.0</ele>
        <time>2020-07-28T13:45:32Z</time>
      </trkpt>
      <trkpt lat="42.9039280" lon="0.6329210">
        <ele>527.6</ele>
        <time>2020-07-28T13:45:34Z</time>
      </trkpt>
      <trkpt lat="42.9040280" lon="0.6329620">
        <ele>527.2</ele>
        <time>2020-07-28T13:45:35Z</time>
      </trkpt>
      <trkpt lat="42.9042070" lon="0.6330750">
        <ele>526.6</ele>
        <time>2020-07-28T13:45:37Z</time>
      </trkpt>
      <trkpt lat="42.9042890" lon="0.6331500">
        <ele>526.2</ele>
        <time>2020-07-28T13:45:38Z</time>
      </trkpt>
      <trkpt lat="42.9044420" lon="0.6333290">
        <ele>525.4</ele>
        <time>2020-07-28T13:45:40Z</time>
      </trkpt>
      <trkpt lat="42.9045670" lon="0.6335400">
        <ele>525.0</ele>
        <time>2020-07-28T13:45:42Z</time>
      </trkpt>
      <trkpt lat="42.9046220" lon="0.6336530">
        <ele>525.0</ele>
        <time>2020-07-28T13:45:43Z</time>
      </trkpt>
      <trkpt lat="42.9048910" lon="0.6342260">
        <ele>524.6</ele>
        <time>2020-07-28T13:45:48Z</time>
      </trkpt>
      <trkpt lat="42.9050190" lon="0.6344510">
        <ele>524.2</ele>
        <time>2020-07-28T13:45:50Z</time>
      </trkpt>
      <trkpt lat="42.9051640" lon="0.6346580">
        <ele>523.0</ele>
        <time>2020-07-28T13:45:52Z</time>
      </trkpt>
      <trkpt lat="42.9052390" lon="0.6347590">
        <ele>522.6</ele>
        <time>2020-07-28T13:45:53Z</time>
      </trkpt>
      <trkpt lat="42.9053950" lon="0.6349660">
        <ele>521.8</ele>
        <time>2020-07-28T13:45:55Z</time>
      </trkpt>
      <trkpt lat="42.9056490" lon="0.6352440">
        <ele>520.8</ele>
        <time>2020-07-28T13:45:58Z</time>
      </trkpt>
      <trkpt lat="42.9058250" lon="0.6353850">
        <ele>519.8</ele>
        <time>2020-07-28T13:46:00Z</time>
      </trkpt>
      <trkpt lat="42.9060800" lon="0.6355840">
        <ele>518.6</ele>
        <time>2020-07-28T13:46:03Z</time>
      </trkpt>
      <trkpt lat="42.9062450" lon="0.6357140">
        <ele>517.4</ele>
        <time>2020-07-28T13:46:05Z</time>
      </trkpt>
      <trkpt lat="42.9065780" lon="0.6359580">
        <ele>516.8</ele>
        <time>2020-07-28T13:46:09Z</time>
      </trkpt>
      <trkpt lat="42.9068320" lon="0.6361330">
        <ele>516.4</ele>
        <time>2020-07-28T13:46:12Z</time>
      </trkpt>
      <trkpt lat="42.9070930" lon="0.6362840">
        <ele>515.8</ele>
        <time>2020-07-28T13:46:15Z</time>
      </trkpt>
      <trkpt lat="42.9073490" lon="0.6364240">
        <ele>515.2</ele>
        <time>2020-07-28T13:46:18Z</time>
      </trkpt>
      <trkpt lat="42.9077650" lon="0.6366450">
        <ele>514.2</ele>
        <time>2020-07-28T13:46:23Z</time>
      </trkpt>
      <trkpt lat="42.9082230" lon="0.6369140">
        <ele>513.6</ele>
        <time>2020-07-28T13:46:29Z</time>
      </trkpt>
      <trkpt lat="42.9086390" lon="0.6371550">
        <ele>513.8</ele>
        <time>2020-07-28T13:46:35Z</time>
      </trkpt>
      <trkpt lat="42.9089920" lon="0.6374310">
        <ele>514.0</ele>
        <time>2020-07-28T13:46:41Z</time>
      </trkpt>
      <trkpt lat="42.9094040" lon="0.6378030">
        <ele>514.0</ele>
        <time>2020-07-28T13:46:48Z</time>
      </trkpt>
      <trkpt lat="42.9098080" lon="0.6382160">
        <ele>514.2</ele>
        <time>2020-07-28T13:46:55Z</time>
      </trkpt>
      <trkpt lat="42.9102520" lon="0.6387730">
        <ele>514.6</ele>
        <time>2020-07-28T13:47:03Z</time>
      </trkpt>
      <trkpt lat="42.9105160" lon="0.6391880">
        <ele>514.2</ele>
        <time>2020-07-28T13:47:08Z</time>
      </trkpt>
      <trkpt lat="42.9108750" lon="0.6398080">
        <ele>513.6</ele>
        <time>2020-07-28T13:47:15Z</time>
      </trkpt>
      <trkpt lat="42.9109800" lon="0.6399930">
        <ele>512.8</ele>
        <time>2020-07-28T13:47:17Z</time>
      </trkpt>
      <trkpt lat="42.9110760" lon="0.6401850">
        <ele>511.8</ele>
        <time>2020-07-28T13:47:19Z</time>
      </trkpt>
      <trkpt lat="42.9112140" lon="0.6404900">
        <ele>511.0</ele>
        <time>2020-07-28T13:47:22Z</time>
      </trkpt>
      <trkpt lat="42.9112980" lon="0.6406990">
        <ele>510.6</ele>
        <time>2020-07-28T13:47:24Z</time>
      </trkpt>
      <trkpt lat="42.9114920" lon="0.6412260">
        <ele>509.6</ele>
        <time>2020-07-28T13:47:29Z</time>
      </trkpt>
      <trkpt lat="42.9115290" lon="0.6413310">
        <ele>509.2</ele>
        <time>2020-07-28T13:47:30Z</time>
      </trkpt>
      <trkpt lat="42.9116720" lon="0.6417760">
        <ele>508.0</ele>
        <time>2020-07-28T13:47:34Z</time>
      </trkpt>
      <trkpt lat="42.9117780" lon="0.6421130">
        <ele>506.6</ele>
        <time>2020-07-28T13:47:37Z</time>
      </trkpt>
      <trkpt lat="42.9119080" lon="0.6425510">
        <ele>505.6</ele>
        <time>2020-07-28T13:47:41Z</time>
      </trkpt>
      <trkpt lat="42.9120300" lon="0.6429650">
        <ele>505.6</ele>
        <time>2020-07-28T13:47:45Z</time>
      </trkpt>
      <trkpt lat="42.9122580" lon="0.6437230">
        <ele>506.0</ele>
        <time>2020-07-28T13:47:53Z</time>
      </trkpt>
      <trkpt lat="42.9123520" lon="0.6441000">
        <ele>506.8</ele>
        <time>2020-07-28T13:47:57Z</time>
      </trkpt>
      <trkpt lat="42.9124040" lon="0.6443870">
        <ele>506.8</ele>
        <time>2020-07-28T13:48:00Z</time>
      </trkpt>
      <trkpt lat="42.9124860" lon="0.6449780">
        <ele>506.8</ele>
        <time>2020-07-28T13:48:06Z</time>
      </trkpt>
      <trkpt lat="42.9126350" lon="0.6456980">
        <ele>506.8</ele>
        <time>2020-07-28T13:48:13Z</time>
      </trkpt>
      <trkpt lat="42.9126650" lon="0.6458010">
        <ele>506.8</ele>
        <time>2020-07-28T13:48:14Z</time>
      </trkpt>
      <trkpt lat="42.9129150" lon="0.6463900">
        <ele>506.0</ele>
        <time>2020-07-28T13:48:20Z</time>
      </trkpt>
      <trkpt lat="42.9129700" lon="0.6464780">
        <ele>505.8</ele>
        <time>2020-07-28T13:48:21Z</time>
      </trkpt>
      <trkpt lat="42.9131980" lon="0.6467890">
        <ele>505.0</ele>
        <time>2020-07-28T13:48:25Z</time>
      </trkpt>
      <trkpt lat="42.9132590" lon="0.6468580">
        <ele>504.6</ele>
        <time>2020-07-28T13:48:26Z</time>
      </trkpt>
      <trkpt lat="42.9135760" lon="0.6471560">
        <ele>503.6</ele>
        <time>2020-07-28T13:48:31Z</time>
      </trkpt>
      <trkpt lat="42.9136420" lon="0.6472020">
        <ele>503.4</ele>
        <time>2020-07-28T13:48:32Z</time>
      </trkpt>
      <trkpt lat="42.9141250" lon="0.6474490">
        <ele>503.2</ele>
        <time>2020-07-28T13:48:39Z</time>
      </trkpt>
      <trkpt lat="42.9141910" lon="0.6474960">
        <ele>503.2</ele>
        <time>2020-07-28T13:48:40Z</time>
      </trkpt>
      <trkpt lat="42.9143080" lon="0.6476100">
        <ele>503.2</ele>
        <time>2020-07-28T13:48:42Z</time>
      </trkpt>
      <trkpt lat="42.9144470" lon="0.6476280">
        <ele>503.2</ele>
        <time>2020-07-28T13:48:44Z</time>
      </trkpt>
      <trkpt lat="42.9146600" lon="0.6475480">
        <ele>503.2</ele>
        <time>2020-07-28T13:48:47Z</time>
      </trkpt>
      <trkpt lat="42.9147340" lon="0.6475430">
        <ele>503.2</ele>
        <time>2020-07-28T13:48:48Z</time>
      </trkpt>
      <trkpt lat="42.9153080" lon="0.6474810">
        <ele>503.0</ele>
        <time>2020-07-28T13:48:56Z</time>
      </trkpt>
      <trkpt lat="42.9154490" lon="0.6474670">
        <ele>502.8</ele>
        <time>2020-07-28T13:48:58Z</time>
      </trkpt>
      <trkpt lat="42.9159990" lon="0.6474310">
        <ele>503.0</ele>
        <time>2020-07-28T13:49:06Z</time>
      </trkpt>
      <trkpt lat="42.9161350" lon="0.6474200">
        <ele>503.0</ele>
        <time>2020-07-28T13:49:08Z</time>
      </trkpt>
      <trkpt lat="42.9164700" lon="0.6474010">
        <ele>504.0</ele>
        <time>2020-07-28T13:49:13Z</time>
      </trkpt>
      <trkpt lat="42.9166010" lon="0.6473910">
        <ele>504.0</ele>
        <time>2020-07-28T13:49:15Z</time>
      </trkpt>
      <trkpt lat="42.9170330" lon="0.6473660">
        <ele>504.6</ele>
        <time>2020-07-28T13:49:22Z</time>
      </trkpt>
      <trkpt lat="42.9174140" lon="0.6473420">
        <ele>505.2</ele>
        <time>2020-07-28T13:49:28Z</time>
      </trkpt>
      <trkpt lat="42.9176850" lon="0.6473350">
        <ele>506.2</ele>
        <time>2020-07-28T13:49:32Z</time>
      </trkpt>
      <trkpt lat="42.9178240" lon="0.6473230">
        <ele>506.4</ele>
        <time>2020-07-28T13:49:34Z</time>
      </trkpt>
      <trkpt lat="42.9182650" lon="0.6472960">
        <ele>506.4</ele>
        <time>2020-07-28T13:49:40Z</time>
      </trkpt>
      <trkpt lat="42.9186510" lon="0.6472710">
        <ele>505.2</ele>
        <time>2020-07-28T13:49:45Z</time>
      </trkpt>
      <trkpt lat="42.9187270" lon="0.6472650">
        <ele>505.0</ele>
        <time>2020-07-28T13:49:46Z</time>
      </trkpt>
      <trkpt lat="42.9190350" lon="0.6472600">
        <ele>504.4</ele>
        <time>2020-07-28T13:49:50Z</time>
      </trkpt>
      <trkpt lat="42.9192670" lon="0.6472510">
        <ele>504.0</ele>
        <time>2020-07-28T13:49:53Z</time>
      </trkpt>
      <trkpt lat="42.9194180" lon="0.6472350">
        <ele>503.2</ele>
        <time>2020-07-28T13:49:55Z</time>
      </trkpt>
      <trkpt lat="42.9197320" lon="0.6472060">
        <ele>502.6</ele>
        <time>2020-07-28T13:49:59Z</time>
      </trkpt>
      <trkpt lat="42.9199680" lon="0.6471910">
        <ele>502.0</ele>
        <time>2020-07-28T13:50:02Z</time>
      </trkpt>
      <trkpt lat="42.9202760" lon="0.6471910">
        <ele>501.4</ele>
        <time>2020-07-28T13:50:06Z</time>
      </trkpt>
      <trkpt lat="42.9204280" lon="0.6472120">
        <ele>501.0</ele>
        <time>2020-07-28T13:50:08Z</time>
      </trkpt>
      <trkpt lat="42.9207280" lon="0.6472750">
        <ele>500.4</ele>
        <time>2020-07-28T13:50:12Z</time>
      </trkpt>
      <trkpt lat="42.9208720" lon="0.6473070">
        <ele>499.8</ele>
        <time>2020-07-28T13:50:14Z</time>
      </trkpt>
      <trkpt lat="42.9211600" lon="0.6474020">
        <ele>498.8</ele>
        <time>2020-07-28T13:50:18Z</time>
      </trkpt>
      <trkpt lat="42.9213880" lon="0.6474930">
        <ele>498.8</ele>
        <time>2020-07-28T13:50:21Z</time>
      </trkpt>
      <trkpt lat="42.9219070" lon="0.6477480">
        <ele>498.8</ele>
        <time>2020-07-28T13:50:28Z</time>
      </trkpt>
      <trkpt lat="42.9219850" lon="0.6477890">
        <ele>498.8</ele>
        <time>2020-07-28T13:50:29Z</time>
      </trkpt>
      <trkpt lat="42.9224790" lon="0.6480890">
        <ele>498.6</ele>
        <time>2020-07-28T13:50:36Z</time>
      </trkpt>
      <trkpt lat="42.9225440" lon="0.6481320">
        <ele>498.6</ele>
        <time>2020-07-28T13:50:37Z</time>
      </trkpt>
      <trkpt lat="42.9230660" lon="0.6484720">
        <ele>498.2</ele>
        <time>2020-07-28T13:50:45Z</time>
      </trkpt>
      <trkpt lat="42.9232600" lon="0.6485970">
        <ele>498.0</ele>
        <time>2020-07-28T13:50:48Z</time>
      </trkpt>
      <trkpt lat="42.9234520" lon="0.6487260">
        <ele>496.8</ele>
        <time>2020-07-28T13:50:51Z</time>
      </trkpt>
      <trkpt lat="42.9237250" lon="0.6489060">
        <ele>496.8</ele>
        <time>2020-07-28T13:50:55Z</time>
      </trkpt>
      <trkpt lat="42.9242470" lon="0.6492440">
        <ele>496.6</ele>
        <time>2020-07-28T13:51:03Z</time>
      </trkpt>
      <trkpt lat="42.9243130" lon="0.6492840">
        <ele>496.6</ele>
        <time>2020-07-28T13:51:04Z</time>
      </trkpt>
      <trkpt lat="42.9248520" lon="0.6495790">
        <ele>496.2</ele>
        <time>2020-07-28T13:51:12Z</time>
      </trkpt>
      <trkpt lat="42.9251900" lon="0.6497500">
        <ele>495.8</ele>
        <time>2020-07-28T13:51:17Z</time>
      </trkpt>
      <trkpt lat="42.9254670" lon="0.6498890">
        <ele>495.6</ele>
        <time>2020-07-28T13:51:21Z</time>
      </trkpt>
      <trkpt lat="42.9260240" lon="0.6501520">
        <ele>495.4</ele>
        <time>2020-07-28T13:51:29Z</time>
      </trkpt>
      <trkpt lat="42.9260930" lon="0.6501820">
        <ele>495.4</ele>
        <time>2020-07-28T13:51:30Z</time>
      </trkpt>
      <trkpt lat="42.9264900" lon="0.6503640">
        <ele>495.6</ele>
        <time>2020-07-28T13:51:36Z</time>
      </trkpt>
      <trkpt lat="42.9269570" lon="0.6505870">
        <ele>496.2</ele>
        <time>2020-07-28T13:51:43Z</time>
      </trkpt>
      <trkpt lat="42.9274740" lon="0.6508300">
        <ele>496.4</ele>
        <time>2020-07-28T13:51:51Z</time>
      </trkpt>
      <trkpt lat="42.9275410" lon="0.6508590">
        <ele>496.4</ele>
        <time>2020-07-28T13:51:52Z</time>
      </trkpt>
      <trkpt lat="42.9281050" lon="0.6510390">
        <ele>496.0</ele>
        <time>2020-07-28T13:52:00Z</time>
      </trkpt>
      <trkpt lat="42.9286380" lon="0.6510940">
        <ele>495.2</ele>
        <time>2020-07-28T13:52:07Z</time>
      </trkpt>
      <trkpt lat="42.9287900" lon="0.6510870">
        <ele>494.8</ele>
        <time>2020-07-28T13:52:09Z</time>
      </trkpt>
      <trkpt lat="42.9290140" lon="0.6510670">
        <ele>494.0</ele>
        <time>2020-07-28T13:52:12Z</time>
      </trkpt>
      <trkpt lat="42.9293020" lon="0.6510120">
        <ele>493.4</ele>
        <time>2020-07-28T13:52:16Z</time>
      </trkpt>
      <trkpt lat="42.9298540" lon="0.6508130">
        <ele>493.0</ele>
        <time>2020-07-28T13:52:24Z</time>
      </trkpt>
      <trkpt lat="42.9304000" lon="0.6506050">
        <ele>493.0</ele>
        <time>2020-07-28T13:52:32Z</time>
      </trkpt>
      <trkpt lat="42.9308810" lon="0.6504080">
        <ele>493.2</ele>
        <time>2020-07-28T13:52:39Z</time>
      </trkpt>
      <trkpt lat="42.9314320" lon="0.6501860">
        <ele>493.2</ele>
        <time>2020-07-28T13:52:47Z</time>
      </trkpt>
      <trkpt lat="42.9319960" lon="0.6499560">
        <ele>493.2</ele>
        <time>2020-07-28T13:52:55Z</time>
      </trkpt>
      <trkpt lat="42.9325630" lon="0.6497250">
        <ele>493.0</ele>
        <time>2020-07-28T13:53:03Z</time>
      </trkpt>
      <trkpt lat="42.9331010" lon="0.6494970">
        <ele>492.4</ele>
        <time>2020-07-28T13:53:11Z</time>
      </trkpt>
      <trkpt lat="42.9334740" lon="0.6493320">
        <ele>492.4</ele>
        <time>2020-07-28T13:53:17Z</time>
      </trkpt>
      <trkpt lat="42.9336570" lon="0.6492440">
        <ele>492.6</ele>
        <time>2020-07-28T13:53:20Z</time>
      </trkpt>
      <trkpt lat="42.9337820" lon="0.6491720">
        <ele>492.8</ele>
        <time>2020-07-28T13:53:22Z</time>
      </trkpt>
      <trkpt lat="42.9341620" lon="0.6489340">
        <ele>493.0</ele>
        <time>2020-07-28T13:53:28Z</time>
      </trkpt>
      <trkpt lat="42.9345940" lon="0.6486140">
        <ele>492.2</ele>
        <time>2020-07-28T13:53:35Z</time>
      </trkpt>
      <trkpt lat="42.9346560" lon="0.6485610">
        <ele>492.0</ele>
        <time>2020-07-28T13:53:36Z</time>
      </trkpt>
      <trkpt lat="42.9350530" lon="0.6482290">
        <ele>491.6</ele>
        <time>2020-07-28T13:53:43Z</time>
      </trkpt>
      <trkpt lat="42.9355240" lon="0.6478000">
        <ele>492.0</ele>
        <time>2020-07-28T13:53:52Z</time>
      </trkpt>
      <trkpt lat="42.9358320" lon="0.6474810">
        <ele>492.0</ele>
        <time>2020-07-28T13:53:58Z</time>
      </trkpt>
      <trkpt lat="42.9362530" lon="0.6470660">
        <ele>492.2</ele>
        <time>2020-07-28T13:54:06Z</time>
      </trkpt>
      <trkpt lat="42.9366290" lon="0.6466620">
        <ele>492.2</ele>
        <time>2020-07-28T13:54:13Z</time>
      </trkpt>
      <trkpt lat="42.9370670" lon="0.6462110">
        <ele>491.4</ele>
        <time>2020-07-28T13:54:21Z</time>
      </trkpt>
      <trkpt lat="42.9374240" lon="0.6459080">
        <ele>491.2</ele>
        <time>2020-07-28T13:54:27Z</time>
      </trkpt>
      <trkpt lat="42.9377840" lon="0.6456280">
        <ele>491.0</ele>
        <time>2020-07-28T13:54:33Z</time>
      </trkpt>
      <trkpt lat="42.9380260" lon="0.6455130">
        <ele>490.6</ele>
        <time>2020-07-28T13:54:37Z</time>
      </trkpt>
      <trkpt lat="42.9381350" lon="0.6454930">
        <ele>490.6</ele>
        <time>2020-07-28T13:54:39Z</time>
      </trkpt>
      <trkpt lat="42.9382410" lon="0.6454830">
        <ele>490.4</ele>
        <time>2020-07-28T13:54:41Z</time>
      </trkpt>
      <trkpt lat="42.9385350" lon="0.6454290">
        <ele>492.2</ele>
        <time>2020-07-28T13:59:33Z</time>
      </trkpt>
      <trkpt lat="42.9385540" lon="0.6454190">
        <ele>492.2</ele>
        <time>2020-07-28T13:59:34Z</time>
      </trkpt>
      <trkpt lat="42.9385970" lon="0.6454040">
        <ele>492.0</ele>
        <time>2020-07-28T13:59:35Z</time>
      </trkpt>
      <trkpt lat="42.9387310" lon="0.6453560">
        <ele>491.8</ele>
        <time>2020-07-28T13:59:38Z</time>
      </trkpt>
      <trkpt lat="42.9391510" lon="0.6452350">
        <ele>491.4</ele>
        <time>2020-07-28T13:59:47Z</time>
      </trkpt>
      <trkpt lat="42.9392490" lon="0.6451580">
        <ele>491.4</ele>
        <time>2020-07-28T13:59:50Z</time>
      </trkpt>
      <trkpt lat="42.9393200" lon="0.6451380">
        <ele>491.4</ele>
        <time>2020-07-28T13:59:52Z</time>
      </trkpt>
      <trkpt lat="42.9394110" lon="0.6451210">
        <ele>491.4</ele>
        <time>2020-07-28T13:59:54Z</time>
      </trkpt>
      <trkpt lat="42.9397380" lon="0.6450450">
        <ele>491.4</ele>
        <time>2020-07-28T14:00:00Z</time>
      </trkpt>
      <trkpt lat="42.9401770" lon="0.6449290">
        <ele>491.4</ele>
        <time>2020-07-28T14:00:08Z</time>
      </trkpt>
      <trkpt lat="42.9402860" lon="0.6449000">
        <ele>491.2</ele>
        <time>2020-07-28T14:00:10Z</time>
      </trkpt>
      <trkpt lat="42.9406330" lon="0.6448100">
        <ele>491.0</ele>
        <time>2020-07-28T14:00:16Z</time>
      </trkpt>
      <trkpt lat="42.9411920" lon="0.6447020">
        <ele>490.6</ele>
        <time>2020-07-28T14:00:25Z</time>
      </trkpt>
      <trkpt lat="42.9412570" lon="0.6446890">
        <ele>490.6</ele>
        <time>2020-07-28T14:00:26Z</time>
      </trkpt>
      <trkpt lat="42.9417130" lon="0.6445800">
        <ele>490.2</ele>
        <time>2020-07-28T14:00:33Z</time>
      </trkpt>
      <trkpt lat="42.9419180" lon="0.6445210">
        <ele>490.2</ele>
        <time>2020-07-28T14:00:36Z</time>
      </trkpt>
      <trkpt lat="42.9423170" lon="0.6443780">
        <ele>490.0</ele>
        <time>2020-07-28T14:00:42Z</time>
      </trkpt>
      <trkpt lat="42.9428310" lon="0.6440960">
        <ele>489.6</ele>
        <time>2020-07-28T14:00:50Z</time>
      </trkpt>
      <trkpt lat="42.9433590" lon="0.6437600">
        <ele>489.4</ele>
        <time>2020-07-28T14:00:58Z</time>
      </trkpt>
      <trkpt lat="42.9438260" lon="0.6434530">
        <ele>488.2</ele>
        <time>2020-07-28T14:01:05Z</time>
      </trkpt>
      <trkpt lat="42.9439610" lon="0.6433890">
        <ele>487.8</ele>
        <time>2020-07-28T14:01:07Z</time>
      </trkpt>
      <trkpt lat="42.9441720" lon="0.6433180">
        <ele>487.6</ele>
        <time>2020-07-28T14:01:10Z</time>
      </trkpt>
      <trkpt lat="42.9442400" lon="0.6432820">
        <ele>487.6</ele>
        <time>2020-07-28T14:01:11Z</time>
      </trkpt>
      <trkpt lat="42.9444910" lon="0.6430880">
        <ele>487.4</ele>
        <time>2020-07-28T14:01:15Z</time>
      </trkpt>
      <trkpt lat="42.9447320" lon="0.6428480">
        <ele>487.0</ele>
        <time>2020-07-28T14:01:19Z</time>
      </trkpt>
      <trkpt lat="42.9452550" lon="0.6425080">
        <ele>486.4</ele>
        <time>2020-07-28T14:01:27Z</time>
      </trkpt>
      <trkpt lat="42.9453180" lon="0.6424720">
        <ele>486.0</ele>
        <time>2020-07-28T14:01:28Z</time>
      </trkpt>
      <trkpt lat="42.9457670" lon="0.6422030">
        <ele>485.6</ele>
        <time>2020-07-28T14:01:35Z</time>
      </trkpt>
      <trkpt lat="42.9460840" lon="0.6420070">
        <ele>485.6</ele>
        <time>2020-07-28T14:01:40Z</time>
      </trkpt>
      <trkpt lat="42.9462140" lon="0.6419220">
        <ele>485.6</ele>
        <time>2020-07-28T14:01:42Z</time>
      </trkpt>
      <trkpt lat="42.9466550" lon="0.6416240">
        <ele>485.2</ele>
        <time>2020-07-28T14:01:49Z</time>
      </trkpt>
      <trkpt lat="42.9468390" lon="0.6415070">
        <ele>485.2</ele>
        <time>2020-07-28T14:01:52Z</time>
      </trkpt>
      <trkpt lat="42.9473340" lon="0.6411670">
        <ele>485.0</ele>
        <time>2020-07-28T14:02:00Z</time>
      </trkpt>
      <trkpt lat="42.9478310" lon="0.6408330">
        <ele>484.8</ele>
        <time>2020-07-28T14:02:08Z</time>
      </trkpt>
      <trkpt lat="42.9483450" lon="0.6405200">
        <ele>484.6</ele>
        <time>2020-07-28T14:02:17Z</time>
      </trkpt>
      <trkpt lat="42.9486130" lon="0.6404010">
        <ele>484.6</ele>
        <time>2020-07-28T14:02:22Z</time>
      </trkpt>
      <trkpt lat="42.9489420" lon="0.6402150">
        <ele>485.8</ele>
        <time>2020-07-28T14:02:28Z</time>
      </trkpt>
      <trkpt lat="42.9493210" lon="0.6399070">
        <ele>486.2</ele>
        <time>2020-07-28T14:02:35Z</time>
      </trkpt>
      <trkpt lat="42.9497560" lon="0.6395550">
        <ele>486.2</ele>
        <time>2020-07-28T14:02:43Z</time>
      </trkpt>
      <trkpt lat="42.9502540" lon="0.6391160">
        <ele>486.2</ele>
        <time>2020-07-28T14:02:52Z</time>
      </trkpt>
      <trkpt lat="42.9504240" lon="0.6389640">
        <ele>486.2</ele>
        <time>2020-07-28T14:02:55Z</time>
      </trkpt>
      <trkpt lat="42.9508690" lon="0.6385560">
        <ele>486.0</ele>
        <time>2020-07-28T14:03:03Z</time>
      </trkpt>
      <trkpt lat="42.9512950" lon="0.6380850">
        <ele>486.0</ele>
        <time>2020-07-28T14:03:11Z</time>
      </trkpt>
      <trkpt lat="42.9514550" lon="0.6379130">
        <ele>485.8</ele>
        <time>2020-07-28T14:03:14Z</time>
      </trkpt>
      <trkpt lat="42.9519110" lon="0.6375300">
        <ele>486.0</ele>
        <time>2020-07-28T14:03:22Z</time>
      </trkpt>
      <trkpt lat="42.9524460" lon="0.6371670">
        <ele>486.0</ele>
        <time>2020-07-28T14:03:31Z</time>
      </trkpt>
      <trkpt lat="42.9529500" lon="0.6368290">
        <ele>486.0</ele>
        <time>2020-07-28T14:03:39Z</time>
      </trkpt>
      <trkpt lat="42.9531450" lon="0.6367000">
        <ele>486.0</ele>
        <time>2020-07-28T14:03:42Z</time>
      </trkpt>
      <trkpt lat="42.9536620" lon="0.6363580">
        <ele>485.0</ele>
        <time>2020-07-28T14:03:50Z</time>
      </trkpt>
      <trkpt lat="42.9537910" lon="0.6362740">
        <ele>484.6</ele>
        <time>2020-07-28T14:03:52Z</time>
      </trkpt>
      <trkpt lat="42.9538550" lon="0.6362320">
        <ele>484.6</ele>
        <time>2020-07-28T14:03:53Z</time>
      </trkpt>
      <trkpt lat="42.9543680" lon="0.6358880">
        <ele>484.2</ele>
        <time>2020-07-28T14:04:01Z</time>
      </trkpt>
      <trkpt lat="42.9546270" lon="0.6357220">
        <ele>484.0</ele>
        <time>2020-07-28T14:04:05Z</time>
      </trkpt>
      <trkpt lat="42.9547530" lon="0.6356400">
        <ele>483.8</ele>
        <time>2020-07-28T14:04:07Z</time>
      </trkpt>
      <trkpt lat="42.9552520" lon="0.6353170">
        <ele>483.4</ele>
        <time>2020-07-28T14:04:15Z</time>
      </trkpt>
      <trkpt lat="42.9553140" lon="0.6352780">
        <ele>483.4</ele>
        <time>2020-07-28T14:04:16Z</time>
      </trkpt>
      <trkpt lat="42.9558500" lon="0.6349240">
        <ele>483.2</ele>
        <time>2020-07-28T14:04:25Z</time>
      </trkpt>
      <trkpt lat="42.9559670" lon="0.6348450">
        <ele>483.2</ele>
        <time>2020-07-28T14:04:27Z</time>
      </trkpt>
      <trkpt lat="42.9564790" lon="0.6345180">
        <ele>483.2</ele>
        <time>2020-07-28T14:04:36Z</time>
      </trkpt>
      <trkpt lat="42.9570030" lon="0.6341830">
        <ele>483.4</ele>
        <time>2020-07-28T14:04:45Z</time>
      </trkpt>
      <trkpt lat="42.9570640" lon="0.6341440">
        <ele>483.4</ele>
        <time>2020-07-28T14:04:46Z</time>
      </trkpt>
      <trkpt lat="42.9575620" lon="0.6338270">
        <ele>483.0</ele>
        <time>2020-07-28T14:04:54Z</time>
      </trkpt>
      <trkpt lat="42.9578130" lon="0.6336600">
        <ele>482.8</ele>
        <time>2020-07-28T14:04:58Z</time>
      </trkpt>
      <trkpt lat="42.9579360" lon="0.6335800">
        <ele>482.6</ele>
        <time>2020-07-28T14:05:00Z</time>
      </trkpt>
      <trkpt lat="42.9581210" lon="0.6334640">
        <ele>482.4</ele>
        <time>2020-07-28T14:05:03Z</time>
      </trkpt>
      <trkpt lat="42.9584860" lon="0.6332330">
        <ele>482.2</ele>
        <time>2020-07-28T14:05:09Z</time>
      </trkpt>
      <trkpt lat="42.9588940" lon="0.6329720">
        <ele>481.8</ele>
        <time>2020-07-28T14:05:16Z</time>
      </trkpt>
      <trkpt lat="42.9591310" lon="0.6328190">
        <ele>481.6</ele>
        <time>2020-07-28T14:05:20Z</time>
      </trkpt>
      <trkpt lat="42.9596250" lon="0.6325050">
        <ele>481.4</ele>
        <time>2020-07-28T14:05:28Z</time>
      </trkpt>
      <trkpt lat="42.9598740" lon="0.6323430">
        <ele>481.4</ele>
        <time>2020-07-28T14:05:32Z</time>
      </trkpt>
      <trkpt lat="42.9603900" lon="0.6320150">
        <ele>480.8</ele>
        <time>2020-07-28T14:05:40Z</time>
      </trkpt>
      <trkpt lat="42.9604530" lon="0.6319730">
        <ele>480.8</ele>
        <time>2020-07-28T14:05:41Z</time>
      </trkpt>
      <trkpt lat="42.9605770" lon="0.6318910">
        <ele>480.6</ele>
        <time>2020-07-28T14:05:43Z</time>
      </trkpt>
      <trkpt lat="42.9610690" lon="0.6315800">
        <ele>480.4</ele>
        <time>2020-07-28T14:05:51Z</time>
      </trkpt>
      <trkpt lat="42.9611920" lon="0.6315020">
        <ele>480.4</ele>
        <time>2020-07-28T14:05:53Z</time>
      </trkpt>
      <trkpt lat="42.9616990" lon="0.6312030">
        <ele>480.6</ele>
        <time>2020-07-28T14:06:01Z</time>
      </trkpt>
      <trkpt lat="42.9618310" lon="0.6311490">
        <ele>480.6</ele>
        <time>2020-07-28T14:06:03Z</time>
      </trkpt>
      <trkpt lat="42.9623730" lon="0.6309900">
        <ele>480.4</ele>
        <time>2020-07-28T14:06:11Z</time>
      </trkpt>
      <trkpt lat="42.9624400" lon="0.6309700">
        <ele>480.4</ele>
        <time>2020-07-28T14:06:12Z</time>
      </trkpt>
      <trkpt lat="42.9630230" lon="0.6307880">
        <ele>480.0</ele>
        <time>2020-07-28T14:06:21Z</time>
      </trkpt>
      <trkpt lat="42.9630870" lon="0.6307700">
        <ele>480.0</ele>
        <time>2020-07-28T14:06:22Z</time>
      </trkpt>
      <trkpt lat="42.9634150" lon="0.6306800">
        <ele>479.8</ele>
        <time>2020-07-28T14:06:27Z</time>
      </trkpt>
      <trkpt lat="42.9639480" lon="0.6305460">
        <ele>479.8</ele>
        <time>2020-07-28T14:06:35Z</time>
      </trkpt>
      <trkpt lat="42.9644920" lon="0.6304360">
        <ele>479.4</ele>
        <time>2020-07-28T14:06:43Z</time>
      </trkpt>
      <trkpt lat="42.9646980" lon="0.6303900">
        <ele>479.4</ele>
        <time>2020-07-28T14:06:46Z</time>
      </trkpt>
      <trkpt lat="42.9651150" lon="0.6302500">
        <ele>478.8</ele>
        <time>2020-07-28T14:06:52Z</time>
      </trkpt>
      <trkpt lat="42.9653240" lon="0.6301720">
        <ele>478.8</ele>
        <time>2020-07-28T14:06:55Z</time>
      </trkpt>
      <trkpt lat="42.9658720" lon="0.6299180">
        <ele>478.4</ele>
        <time>2020-07-28T14:07:03Z</time>
      </trkpt>
      <trkpt lat="42.9662930" lon="0.6297240">
        <ele>478.0</ele>
        <time>2020-07-28T14:07:10Z</time>
      </trkpt>
      <trkpt lat="42.9666290" lon="0.6295670">
        <ele>478.0</ele>
        <time>2020-07-28T14:07:16Z</time>
      </trkpt>
      <trkpt lat="42.9664860" lon="0.6295120">
        <ele>462.5</ele>
        <time>2020-07-29T06:52:00Z</time>
      </trkpt>
      <trkpt lat="42.9661230" lon="0.6296580">
        <ele>462.9</ele>
        <time>2020-07-29T06:52:08Z</time>
      </trkpt>
      <trkpt lat="42.9660320" lon="0.6297080">
        <ele>462.9</ele>
        <time>2020-07-29T06:52:10Z</time>
      </trkpt>
      <trkpt lat="42.9659820" lon="0.6297960">
        <ele>462.9</ele>
        <time>2020-07-29T06:52:12Z</time>
      </trkpt>
      <trkpt lat="42.9659990" lon="0.6300320">
        <ele>463.0</ele>
        <time>2020-07-29T06:52:16Z</time>
      </trkpt>
      <trkpt lat="42.9660450" lon="0.6305220">
        <ele>463.1</ele>
        <time>2020-07-29T06:52:24Z</time>
      </trkpt>
      <trkpt lat="42.9660600" lon="0.6310470">
        <ele>463.0</ele>
        <time>2020-07-29T06:52:31Z</time>
      </trkpt>
      <trkpt lat="42.9660840" lon="0.6316790">
        <ele>462.9</ele>
        <time>2020-07-29T06:52:39Z</time>
      </trkpt>
      <trkpt lat="42.9661140" lon="0.6324010">
        <ele>462.7</ele>
        <time>2020-07-29T06:52:48Z</time>
      </trkpt>
      <trkpt lat="42.9661040" lon="0.6330880">
        <ele>461.8</ele>
        <time>2020-07-29T06:52:56Z</time>
      </trkpt>
      <trkpt lat="42.9660060" lon="0.6337200">
        <ele>461.5</ele>
        <time>2020-07-29T06:53:03Z</time>
      </trkpt>
      <trkpt lat="42.9659520" lon="0.6339730">
        <ele>461.5</ele>
        <time>2020-07-29T06:53:06Z</time>
      </trkpt>
      <trkpt lat="42.9658800" lon="0.6343890">
        <ele>461.4</ele>
        <time>2020-07-29T06:53:11Z</time>
      </trkpt>
      <trkpt lat="42.9657460" lon="0.6351370">
        <ele>461.3</ele>
        <time>2020-07-29T06:53:20Z</time>
      </trkpt>
      <trkpt lat="42.9657320" lon="0.6352200">
        <ele>461.3</ele>
        <time>2020-07-29T06:53:21Z</time>
      </trkpt>
      <trkpt lat="42.9656190" lon="0.6358700">
        <ele>461.3</ele>
        <time>2020-07-29T06:53:29Z</time>
      </trkpt>
      <trkpt lat="42.9655190" lon="0.6364260">
        <ele>461.1</ele>
        <time>2020-07-29T06:53:36Z</time>
      </trkpt>
      <trkpt lat="42.9654910" lon="0.6365840">
        <ele>461.1</ele>
        <time>2020-07-29T06:53:38Z</time>
      </trkpt>
      <trkpt lat="42.9654300" lon="0.6369000">
        <ele>461.0</ele>
        <time>2020-07-29T06:53:42Z</time>
      </trkpt>
      <trkpt lat="42.9654190" lon="0.6369820">
        <ele>461.0</ele>
        <time>2020-07-29T06:53:43Z</time>
      </trkpt>
      <trkpt lat="42.9653190" lon="0.6375210">
        <ele>461.0</ele>
        <time>2020-07-29T06:53:50Z</time>
      </trkpt>
      <trkpt lat="42.9652230" lon="0.6381660">
        <ele>461.1</ele>
        <time>2020-07-29T06:53:58Z</time>
      </trkpt>
      <trkpt lat="42.9652360" lon="0.6384130">
        <ele>461.2</ele>
        <time>2020-07-29T06:54:01Z</time>
      </trkpt>
      <trkpt lat="42.9652740" lon="0.6385620">
        <ele>461.3</ele>
        <time>2020-07-29T06:54:03Z</time>
      </trkpt>
      <trkpt lat="42.9654240" lon="0.6388860">
        <ele>461.8</ele>
        <time>2020-07-29T06:54:08Z</time>
      </trkpt>
      <trkpt lat="42.9654590" lon="0.6389360">
        <ele>461.9</ele>
        <time>2020-07-29T06:54:09Z</time>
      </trkpt>
      <trkpt lat="42.9656920" lon="0.6392410">
        <ele>462.5</ele>
        <time>2020-07-29T06:54:15Z</time>
      </trkpt>
      <trkpt lat="42.9657300" lon="0.6392980">
        <ele>462.5</ele>
        <time>2020-07-29T06:54:16Z</time>
      </trkpt>
      <trkpt lat="42.9659910" lon="0.6396710">
        <ele>462.1</ele>
        <time>2020-07-29T06:54:22Z</time>
      </trkpt>
      <trkpt lat="42.9662570" lon="0.6401000">
        <ele>461.8</ele>
        <time>2020-07-29T06:54:28Z</time>
      </trkpt>
      <trkpt lat="42.9664700" lon="0.6404140">
        <ele>461.8</ele>
        <time>2020-07-29T06:54:33Z</time>
      </trkpt>
      <trkpt lat="42.9665090" lon="0.6404850">
        <ele>461.8</ele>
        <time>2020-07-29T06:54:34Z</time>
      </trkpt>
      <trkpt lat="42.9666990" lon="0.6409490">
        <ele>461.5</ele>
        <time>2020-07-29T06:54:40Z</time>
      </trkpt>
      <trkpt lat="42.9669180" lon="0.6416010">
        <ele>461.5</ele>
        <time>2020-07-29T06:54:48Z</time>
      </trkpt>
      <trkpt lat="42.9670850" lon="0.6422450">
        <ele>461.5</ele>
        <time>2020-07-29T06:54:56Z</time>
      </trkpt>
      <trkpt lat="42.9671240" lon="0.6428330">
        <ele>461.3</ele>
        <time>2020-07-29T06:55:03Z</time>
      </trkpt>
      <trkpt lat="42.9671400" lon="0.6434250">
        <ele>461.3</ele>
        <time>2020-07-29T06:55:10Z</time>
      </trkpt>
      <trkpt lat="42.9671520" lon="0.6437650">
        <ele>461.4</ele>
        <time>2020-07-29T06:55:14Z</time>
      </trkpt>
      <trkpt lat="42.9671880" lon="0.6445320">
        <ele>461.4</ele>
        <time>2020-07-29T06:55:23Z</time>
      </trkpt>
      <trkpt lat="42.9671920" lon="0.6446180">
        <ele>461.4</ele>
        <time>2020-07-29T06:55:24Z</time>
      </trkpt>
      <trkpt lat="42.9672190" lon="0.6454050">
        <ele>461.3</ele>
        <time>2020-07-29T06:55:34Z</time>
      </trkpt>
      <trkpt lat="42.9672260" lon="0.6455780">
        <ele>461.3</ele>
        <time>2020-07-29T06:55:36Z</time>
      </trkpt>
      <trkpt lat="42.9672440" lon="0.6463510">
        <ele>461.4</ele>
        <time>2020-07-29T06:55:45Z</time>
      </trkpt>
      <trkpt lat="42.9672500" lon="0.6465140">
        <ele>461.5</ele>
        <time>2020-07-29T06:55:47Z</time>
      </trkpt>
      <trkpt lat="42.9673010" lon="0.6466320">
        <ele>461.4</ele>
        <time>2020-07-29T06:55:49Z</time>
      </trkpt>
      <trkpt lat="42.9675040" lon="0.6467100">
        <ele>461.0</ele>
        <time>2020-07-29T06:55:53Z</time>
      </trkpt>
      <trkpt lat="42.9679550" lon="0.6468450">
        <ele>460.5</ele>
        <time>2020-07-29T06:56:01Z</time>
      </trkpt>
      <trkpt lat="42.9681230" lon="0.6468780">
        <ele>460.4</ele>
        <time>2020-07-29T06:56:04Z</time>
      </trkpt>
      <trkpt lat="42.9684050" lon="0.6468970">
        <ele>460.3</ele>
        <time>2020-07-29T06:56:09Z</time>
      </trkpt>
      <trkpt lat="42.9688500" lon="0.6468950">
        <ele>460.7</ele>
        <time>2020-07-29T06:56:17Z</time>
      </trkpt>
      <trkpt lat="42.9689030" lon="0.6468620">
        <ele>460.8</ele>
        <time>2020-07-29T06:56:18Z</time>
      </trkpt>
      <trkpt lat="42.9689750" lon="0.6466710">
        <ele>460.8</ele>
        <time>2020-07-29T06:56:21Z</time>
      </trkpt>
      <trkpt lat="42.9690890" lon="0.6465540">
        <ele>460.7</ele>
        <time>2020-07-29T06:56:24Z</time>
      </trkpt>
      <trkpt lat="42.9691960" lon="0.6465440">
        <ele>460.6</ele>
        <time>2020-07-29T06:56:26Z</time>
      </trkpt>
      <trkpt lat="42.9694240" lon="0.6465410">
        <ele>460.5</ele>
        <time>2020-07-29T06:56:30Z</time>
      </trkpt>
      <trkpt lat="42.9698210" lon="0.6465360">
        <ele>460.3</ele>
        <time>2020-07-29T06:56:37Z</time>
      </trkpt>
      <trkpt lat="42.9699180" lon="0.6465860">
        <ele>460.4</ele>
        <time>2020-07-29T06:56:39Z</time>
      </trkpt>
      <trkpt lat="42.9699630" lon="0.6467730">
        <ele>460.4</ele>
        <time>2020-07-29T06:56:42Z</time>
      </trkpt>
      <trkpt lat="42.9700640" lon="0.6469000">
        <ele>460.3</ele>
        <time>2020-07-29T06:56:45Z</time>
      </trkpt>
      <trkpt lat="42.9701720" lon="0.6469090">
        <ele>460.2</ele>
        <time>2020-07-29T06:56:47Z</time>
      </trkpt>
      <trkpt lat="42.9704020" lon="0.6469120">
        <ele>459.8</ele>
        <time>2020-07-29T06:56:51Z</time>
      </trkpt>
      <trkpt lat="42.9707570" lon="0.6469210">
        <ele>459.5</ele>
        <time>2020-07-29T06:56:57Z</time>
      </trkpt>
      <trkpt lat="42.9713480" lon="0.6469250">
        <ele>459.0</ele>
        <time>2020-07-29T06:57:07Z</time>
      </trkpt>
      <trkpt lat="42.9716340" lon="0.6469340">
        <ele>458.9</ele>
        <time>2020-07-29T06:57:12Z</time>
      </trkpt>
      <trkpt lat="42.9718530" lon="0.6469420">
        <ele>458.9</ele>
        <time>2020-07-29T06:57:16Z</time>
      </trkpt>
      <trkpt lat="42.9722390" lon="0.6469520">
        <ele>459.0</ele>
        <time>2020-07-29T06:57:23Z</time>
      </trkpt>
      <trkpt lat="42.9724640" lon="0.6469550">
        <ele>459.3</ele>
        <time>2020-07-29T06:57:27Z</time>
      </trkpt>
      <trkpt lat="42.9725430" lon="0.6469300">
        <ele>459.5</ele>
        <time>2020-07-29T06:57:29Z</time>
      </trkpt>
      <trkpt lat="42.9725720" lon="0.6469250">
        <ele>459.5</ele>
        <time>2020-07-29T06:57:30Z</time>
      </trkpt>
      <trkpt lat="42.9726310" lon="0.6469250">
        <ele>459.2</ele>
        <time>2020-07-29T06:57:32Z</time>
      </trkpt>
      <trkpt lat="42.9727110" lon="0.6469280">
        <ele>458.7</ele>
        <time>2020-07-29T06:57:34Z</time>
      </trkpt>
      <trkpt lat="42.9727540" lon="0.6469350">
        <ele>458.5</ele>
        <time>2020-07-29T06:57:35Z</time>
      </trkpt>
      <trkpt lat="42.9728360" lon="0.6469840">
        <ele>458.1</ele>
        <time>2020-07-29T06:57:38Z</time>
      </trkpt>
      <trkpt lat="42.9728600" lon="0.6470470">
        <ele>458.5</ele>
        <time>2020-07-29T06:57:40Z</time>
      </trkpt>
      <trkpt lat="42.9728670" lon="0.6471470">
        <ele>459.2</ele>
        <time>2020-07-29T06:57:43Z</time>
      </trkpt>
      <trkpt lat="42.9728520" lon="0.6471630">
        <ele>459.4</ele>
        <time>2020-07-29T06:57:44Z</time>
      </trkpt>
      <trkpt lat="42.9727900" lon="0.6471910">
        <ele>460.2</ele>
        <time>2020-07-29T06:57:47Z</time>
      </trkpt>
      <trkpt lat="42.9726210" lon="0.6472550">
        <ele>461.9</ele>
        <time>2020-07-29T06:57:53Z</time>
      </trkpt>
      <trkpt lat="42.9726070" lon="0.6472870">
        <ele>461.9</ele>
        <time>2020-07-29T06:57:54Z</time>
      </trkpt>
      <trkpt lat="42.9726180" lon="0.6473750">
        <ele>461.9</ele>
        <time>2020-07-29T06:57:56Z</time>
      </trkpt>
      <trkpt lat="42.9726380" lon="0.6475350">
        <ele>461.9</ele>
        <time>2020-07-29T06:57:59Z</time>
      </trkpt>
      <trkpt lat="42.9726470" lon="0.6475960">
        <ele>461.8</ele>
        <time>2020-07-29T06:58:00Z</time>
      </trkpt>
      <trkpt lat="42.9726550" lon="0.6476530">
        <ele>461.8</ele>
        <time>2020-07-29T06:58:01Z</time>
      </trkpt>
      <trkpt lat="42.9726890" lon="0.6479170">
        <ele>461.7</ele>
        <time>2020-07-29T06:58:05Z</time>
      </trkpt>
      <trkpt lat="42.9726960" lon="0.6479870">
        <ele>461.7</ele>
        <time>2020-07-29T06:58:06Z</time>
      </trkpt>
      <trkpt lat="42.9727080" lon="0.6480570">
        <ele>461.7</ele>
        <time>2020-07-29T06:58:07Z</time>
      </trkpt>
      <trkpt lat="42.9727540" lon="0.6482680">
        <ele>461.7</ele>
        <time>2020-07-29T06:58:10Z</time>
      </trkpt>
      <trkpt lat="42.9728010" lon="0.6484000">
        <ele>461.7</ele>
        <time>2020-07-29T06:58:12Z</time>
      </trkpt>
      <trkpt lat="42.9729840" lon="0.6488220">
        <ele>462.0</ele>
        <time>2020-07-29T06:58:19Z</time>
      </trkpt>
      <trkpt lat="42.9731830" lon="0.6492130">
        <ele>462.4</ele>
        <time>2020-07-29T06:58:26Z</time>
      </trkpt>
      <trkpt lat="42.9733880" lon="0.6495950">
        <ele>463.1</ele>
        <time>2020-07-29T06:58:33Z</time>
      </trkpt>
      <trkpt lat="42.9734210" lon="0.6496470">
        <ele>463.2</ele>
        <time>2020-07-29T06:58:34Z</time>
      </trkpt>
      <trkpt lat="42.9736630" lon="0.6499830">
        <ele>464.0</ele>
        <time>2020-07-29T06:58:41Z</time>
      </trkpt>
      <trkpt lat="42.9737430" lon="0.6500640">
        <ele>464.3</ele>
        <time>2020-07-29T06:58:43Z</time>
      </trkpt>
      <trkpt lat="42.9738260" lon="0.6501230">
        <ele>464.6</ele>
        <time>2020-07-29T06:58:45Z</time>
      </trkpt>
      <trkpt lat="42.9738710" lon="0.6501410">
        <ele>464.8</ele>
        <time>2020-07-29T06:58:46Z</time>
      </trkpt>
      <trkpt lat="42.9740410" lon="0.6502700">
        <ele>465.6</ele>
        <time>2020-07-29T06:58:51Z</time>
      </trkpt>
      <trkpt lat="42.9740460" lon="0.6504200">
        <ele>465.7</ele>
        <time>2020-07-29T06:58:54Z</time>
      </trkpt>
      <trkpt lat="42.9740410" lon="0.6504730">
        <ele>465.8</ele>
        <time>2020-07-29T06:58:55Z</time>
      </trkpt>
      <trkpt lat="42.9740010" lon="0.6507530">
        <ele>466.3</ele>
        <time>2020-07-29T06:59:00Z</time>
      </trkpt>
      <trkpt lat="42.9739810" lon="0.6510670">
        <ele>467.1</ele>
        <time>2020-07-29T06:59:05Z</time>
      </trkpt>
      <trkpt lat="42.9739880" lon="0.6511260">
        <ele>467.3</ele>
        <time>2020-07-29T06:59:06Z</time>
      </trkpt>
      <trkpt lat="42.9740090" lon="0.6512410">
        <ele>467.7</ele>
        <time>2020-07-29T06:59:08Z</time>
      </trkpt>
      <trkpt lat="42.9740690" lon="0.6513850">
        <ele>468.1</ele>
        <time>2020-07-29T06:59:11Z</time>
      </trkpt>
      <trkpt lat="42.9740880" lon="0.6514420">
        <ele>468.2</ele>
        <time>2020-07-29T06:59:12Z</time>
      </trkpt>
      <trkpt lat="42.9740960" lon="0.6516380">
        <ele>467.4</ele>
        <time>2020-07-29T06:59:15Z</time>
      </trkpt>
      <trkpt lat="42.9740050" lon="0.6518330">
        <ele>466.0</ele>
        <time>2020-07-29T06:59:18Z</time>
      </trkpt>
      <trkpt lat="42.9739700" lon="0.6519020">
        <ele>465.6</ele>
        <time>2020-07-29T06:59:19Z</time>
      </trkpt>
      <trkpt lat="42.9739390" lon="0.6519790">
        <ele>465.3</ele>
        <time>2020-07-29T06:59:20Z</time>
      </trkpt>
      <trkpt lat="42.9738550" lon="0.6523400">
        <ele>464.1</ele>
        <time>2020-07-29T06:59:23Z</time>
      </trkpt>
      <trkpt lat="42.9736930" lon="0.6529860">
        <ele>463.1</ele>
        <time>2020-07-29T06:59:30Z</time>
      </trkpt>
      <trkpt lat="42.9736590" lon="0.6530710">
        <ele>463.1</ele>
        <time>2020-07-29T06:59:31Z</time>
      </trkpt>
      <trkpt lat="42.9735840" lon="0.6532370">
        <ele>463.3</ele>
        <time>2020-07-29T06:59:33Z</time>
      </trkpt>
      <trkpt lat="42.9733930" lon="0.6536100">
        <ele>464.0</ele>
        <time>2020-07-29T06:59:38Z</time>
      </trkpt>
      <trkpt lat="42.9731940" lon="0.6539790">
        <ele>465.5</ele>
        <time>2020-07-29T06:59:44Z</time>
      </trkpt>
      <trkpt lat="42.9731060" lon="0.6541360">
        <ele>466.3</ele>
        <time>2020-07-29T06:59:47Z</time>
      </trkpt>
      <trkpt lat="42.9730260" lon="0.6542830">
        <ele>467.2</ele>
        <time>2020-07-29T06:59:50Z</time>
      </trkpt>
      <trkpt lat="42.9729750" lon="0.6543820">
        <ele>467.9</ele>
        <time>2020-07-29T06:59:52Z</time>
      </trkpt>
      <trkpt lat="42.9729210" lon="0.6544990">
        <ele>468.7</ele>
        <time>2020-07-29T06:59:55Z</time>
      </trkpt>
      <trkpt lat="42.9728460" lon="0.6546650">
        <ele>469.6</ele>
        <time>2020-07-29T06:59:59Z</time>
      </trkpt>
      <trkpt lat="42.9728080" lon="0.6547470">
        <ele>470.0</ele>
        <time>2020-07-29T07:00:01Z</time>
      </trkpt>
      <trkpt lat="42.9726810" lon="0.6549180">
        <ele>470.9</ele>
        <time>2020-07-29T07:00:06Z</time>
      </trkpt>
      <trkpt lat="42.9726120" lon="0.6549650">
        <ele>471.3</ele>
        <time>2020-07-29T07:00:08Z</time>
      </trkpt>
      <trkpt lat="42.9725170" lon="0.6550060">
        <ele>471.8</ele>
        <time>2020-07-29T07:00:11Z</time>
      </trkpt>
      <trkpt lat="42.9724200" lon="0.6550750">
        <ele>472.1</ele>
        <time>2020-07-29T07:00:14Z</time>
      </trkpt>
      <trkpt lat="42.9723190" lon="0.6551670">
        <ele>472.3</ele>
        <time>2020-07-29T07:00:17Z</time>
      </trkpt>
      <trkpt lat="42.9721820" lon="0.6553170">
        <ele>472.5</ele>
        <time>2020-07-29T07:00:21Z</time>
      </trkpt>
      <trkpt lat="42.9718660" lon="0.6556560">
        <ele>472.2</ele>
        <time>2020-07-29T07:00:29Z</time>
      </trkpt>
      <trkpt lat="42.9715970" lon="0.6560170">
        <ele>472.2</ele>
        <time>2020-07-29T07:00:36Z</time>
      </trkpt>
      <trkpt lat="42.9712690" lon="0.6565700">
        <ele>472.3</ele>
        <time>2020-07-29T07:00:44Z</time>
      </trkpt>
      <trkpt lat="42.9709670" lon="0.6570260">
        <ele>473.4</ele>
        <time>2020-07-29T07:00:51Z</time>
      </trkpt>
      <trkpt lat="42.9708000" lon="0.6572770">
        <ele>475.4</ele>
        <time>2020-07-29T07:00:56Z</time>
      </trkpt>
      <trkpt lat="42.9707100" lon="0.6575110">
        <ele>477.3</ele>
        <time>2020-07-29T07:01:02Z</time>
      </trkpt>
      <trkpt lat="42.9707000" lon="0.6576310">
        <ele>478.4</ele>
        <time>2020-07-29T07:01:05Z</time>
      </trkpt>
      <trkpt lat="42.9706950" lon="0.6577120">
        <ele>479.1</ele>
        <time>2020-07-29T07:01:07Z</time>
      </trkpt>
      <trkpt lat="42.9706890" lon="0.6577920">
        <ele>479.9</ele>
        <time>2020-07-29T07:01:09Z</time>
      </trkpt>
      <trkpt lat="42.9706820" lon="0.6579030">
        <ele>480.9</ele>
        <time>2020-07-29T07:01:12Z</time>
      </trkpt>
      <trkpt lat="42.9706880" lon="0.6580420">
        <ele>482.0</ele>
        <time>2020-07-29T07:01:16Z</time>
      </trkpt>
      <trkpt lat="42.9706880" lon="0.6581630">
        <ele>482.9</ele>
        <time>2020-07-29T07:01:19Z</time>
      </trkpt>
      <trkpt lat="42.9706870" lon="0.6582390">
        <ele>483.4</ele>
        <time>2020-07-29T07:01:21Z</time>
      </trkpt>
      <trkpt lat="42.9706900" lon="0.6582800">
        <ele>483.6</ele>
        <time>2020-07-29T07:01:22Z</time>
      </trkpt>
      <trkpt lat="42.9706900" lon="0.6584010">
        <ele>484.2</ele>
        <time>2020-07-29T07:01:25Z</time>
      </trkpt>
      <trkpt lat="42.9706710" lon="0.6585490">
        <ele>484.7</ele>
        <time>2020-07-29T07:01:29Z</time>
      </trkpt>
      <trkpt lat="42.9706610" lon="0.6585840">
        <ele>484.8</ele>
        <time>2020-07-29T07:01:30Z</time>
      </trkpt>
      <trkpt lat="42.9705760" lon="0.6587730">
        <ele>485.7</ele>
        <time>2020-07-29T07:01:35Z</time>
      </trkpt>
      <trkpt lat="42.9705500" lon="0.6588200">
        <ele>485.9</ele>
        <time>2020-07-29T07:01:36Z</time>
      </trkpt>
      <trkpt lat="42.9704370" lon="0.6589900">
        <ele>486.7</ele>
        <time>2020-07-29T07:01:40Z</time>
      </trkpt>
      <trkpt lat="42.9704120" lon="0.6590380">
        <ele>486.9</ele>
        <time>2020-07-29T07:01:41Z</time>
      </trkpt>
      <trkpt lat="42.9703800" lon="0.6591390">
        <ele>487.4</ele>
        <time>2020-07-29T07:01:43Z</time>
      </trkpt>
      <trkpt lat="42.9703690" lon="0.6591920">
        <ele>487.6</ele>
        <time>2020-07-29T07:01:44Z</time>
      </trkpt>
      <trkpt lat="42.9703610" lon="0.6592400">
        <ele>487.8</ele>
        <time>2020-07-29T07:01:45Z</time>
      </trkpt>
      <trkpt lat="42.9702960" lon="0.6594130">
        <ele>488.5</ele>
        <time>2020-07-29T07:01:49Z</time>
      </trkpt>
      <trkpt lat="42.9701550" lon="0.6594960">
        <ele>489.1</ele>
        <time>2020-07-29T07:01:54Z</time>
      </trkpt>
      <trkpt lat="42.9700290" lon="0.6595570">
        <ele>489.5</ele>
        <time>2020-07-29T07:01:58Z</time>
      </trkpt>
      <trkpt lat="42.9699280" lon="0.6596130">
        <ele>489.7</ele>
        <time>2020-07-29T07:02:01Z</time>
      </trkpt>
      <trkpt lat="42.9697470" lon="0.6597340">
        <ele>489.8</ele>
        <time>2020-07-29T07:02:06Z</time>
      </trkpt>
      <trkpt lat="42.9696680" lon="0.6597790">
        <ele>489.7</ele>
        <time>2020-07-29T07:02:08Z</time>
      </trkpt>
      <trkpt lat="42.9693230" lon="0.6599150">
        <ele>489.2</ele>
        <time>2020-07-29T07:02:15Z</time>
      </trkpt>
      <trkpt lat="42.9689030" lon="0.6599840">
        <ele>488.9</ele>
        <time>2020-07-29T07:02:22Z</time>
      </trkpt>
      <trkpt lat="42.9684490" lon="0.6601380">
        <ele>489.4</ele>
        <time>2020-07-29T07:02:30Z</time>
      </trkpt>
      <trkpt lat="42.9678590" lon="0.6603000">
        <ele>488.5</ele>
        <time>2020-07-29T07:02:40Z</time>
      </trkpt>
      <trkpt lat="42.9675670" lon="0.6603690">
        <ele>487.5</ele>
        <time>2020-07-29T07:02:44Z</time>
      </trkpt>
      <trkpt lat="42.9674910" lon="0.6603760">
        <ele>487.3</ele>
        <time>2020-07-29T07:02:46Z</time>
      </trkpt>
      <trkpt lat="42.9670260" lon="0.6603300">
        <ele>485.9</ele>
        <time>2020-07-29T07:02:52Z</time>
      </trkpt>
      <trkpt lat="42.9669480" lon="0.6603140">
        <ele>485.7</ele>
        <time>2020-07-29T07:02:53Z</time>
      </trkpt>
      <trkpt lat="42.9667960" lon="0.6602860">
        <ele>485.4</ele>
        <time>2020-07-29T07:02:55Z</time>
      </trkpt>
      <trkpt lat="42.9665600" lon="0.6602640">
        <ele>485.1</ele>
        <time>2020-07-29T07:02:58Z</time>
      </trkpt>
      <trkpt lat="42.9664830" lon="0.6602600">
        <ele>484.9</ele>
        <time>2020-07-29T07:02:59Z</time>
      </trkpt>
      <trkpt lat="42.9660110" lon="0.6602080">
        <ele>484.6</ele>
        <time>2020-07-29T07:03:04Z</time>
      </trkpt>
      <trkpt lat="42.9659420" lon="0.6601850">
        <ele>484.6</ele>
        <time>2020-07-29T07:03:05Z</time>
      </trkpt>
      <trkpt lat="42.9655590" lon="0.6600920">
        <ele>485.0</ele>
        <time>2020-07-29T07:03:11Z</time>
      </trkpt>
      <trkpt lat="42.9654980" lon="0.6600980">
        <ele>485.1</ele>
        <time>2020-07-29T07:03:12Z</time>
      </trkpt>
      <trkpt lat="42.9653350" lon="0.6601440">
        <ele>485.5</ele>
        <time>2020-07-29T07:03:15Z</time>
      </trkpt>
      <trkpt lat="42.9652250" lon="0.6602700">
        <ele>486.1</ele>
        <time>2020-07-29T07:03:19Z</time>
      </trkpt>
      <trkpt lat="42.9652130" lon="0.6603160">
        <ele>486.3</ele>
        <time>2020-07-29T07:03:20Z</time>
      </trkpt>
      <trkpt lat="42.9652220" lon="0.6604050">
        <ele>486.6</ele>
        <time>2020-07-29T07:03:22Z</time>
      </trkpt>
      <trkpt lat="42.9652840" lon="0.6605450">
        <ele>487.9</ele>
        <time>2020-07-29T07:03:25Z</time>
      </trkpt>
      <trkpt lat="42.9653150" lon="0.6605800">
        <ele>488.1</ele>
        <time>2020-07-29T07:03:26Z</time>
      </trkpt>
      <trkpt lat="42.9653740" lon="0.6606430">
        <ele>488.5</ele>
        <time>2020-07-29T07:03:28Z</time>
      </trkpt>
      <trkpt lat="42.9654360" lon="0.6607080">
        <ele>488.9</ele>
        <time>2020-07-29T07:03:30Z</time>
      </trkpt>
      <trkpt lat="42.9655260" lon="0.6607950">
        <ele>489.5</ele>
        <time>2020-07-29T07:03:33Z</time>
      </trkpt>
      <trkpt lat="42.9656000" lon="0.6608490">
        <ele>489.9</ele>
        <time>2020-07-29T07:03:35Z</time>
      </trkpt>
      <trkpt lat="42.9657380" lon="0.6609250">
        <ele>490.7</ele>
        <time>2020-07-29T07:03:39Z</time>
      </trkpt>
      <trkpt lat="42.9658460" lon="0.6609820">
        <ele>491.4</ele>
        <time>2020-07-29T07:03:43Z</time>
      </trkpt>
      <trkpt lat="42.9658770" lon="0.6609930">
        <ele>491.6</ele>
        <time>2020-07-29T07:03:44Z</time>
      </trkpt>
      <trkpt lat="42.9660950" lon="0.6610350">
        <ele>492.8</ele>
        <time>2020-07-29T07:03:49Z</time>
      </trkpt>
      <trkpt lat="42.9662980" lon="0.6610110">
        <ele>493.9</ele>
        <time>2020-07-29T07:03:54Z</time>
      </trkpt>
      <trkpt lat="42.9664600" lon="0.6610060">
        <ele>494.8</ele>
        <time>2020-07-29T07:03:59Z</time>
      </trkpt>
      <trkpt lat="42.9664960" lon="0.6610100">
        <ele>495.0</ele>
        <time>2020-07-29T07:04:00Z</time>
      </trkpt>
      <trkpt lat="42.9667450" lon="0.6609300">
        <ele>496.4</ele>
        <time>2020-07-29T07:04:07Z</time>
      </trkpt>
      <trkpt lat="42.9669580" lon="0.6609340">
        <ele>497.6</ele>
        <time>2020-07-29T07:04:13Z</time>
      </trkpt>
      <trkpt lat="42.9669940" lon="0.6609320">
        <ele>497.8</ele>
        <time>2020-07-29T07:04:14Z</time>
      </trkpt>
      <trkpt lat="42.9671210" lon="0.6609500">
        <ele>498.5</ele>
        <time>2020-07-29T07:04:18Z</time>
      </trkpt>
      <trkpt lat="42.9671560" lon="0.6609470">
        <ele>498.7</ele>
        <time>2020-07-29T07:04:19Z</time>
      </trkpt>
      <trkpt lat="42.9673150" lon="0.6609700">
        <ele>499.6</ele>
        <time>2020-07-29T07:04:24Z</time>
      </trkpt>
      <trkpt lat="42.9673450" lon="0.6609660">
        <ele>499.8</ele>
        <time>2020-07-29T07:04:25Z</time>
      </trkpt>
      <trkpt lat="42.9675230" lon="0.6609640">
        <ele>500.7</ele>
        <time>2020-07-29T07:04:30Z</time>
      </trkpt>
      <trkpt lat="42.9675990" lon="0.6609530">
        <ele>501.1</ele>
        <time>2020-07-29T07:04:32Z</time>
      </trkpt>
      <trkpt lat="42.9677090" lon="0.6609390">
        <ele>501.5</ele>
        <time>2020-07-29T07:04:35Z</time>
      </trkpt>
      <trkpt lat="42.9679520" lon="0.6608860">
        <ele>502.5</ele>
        <time>2020-07-29T07:04:41Z</time>
      </trkpt>
      <trkpt lat="42.9682700" lon="0.6608540">
        <ele>503.7</ele>
        <time>2020-07-29T07:04:49Z</time>
      </trkpt>
      <trkpt lat="42.9685270" lon="0.6609760">
        <ele>504.7</ele>
        <time>2020-07-29T07:04:56Z</time>
      </trkpt>
      <trkpt lat="42.9685610" lon="0.6609950">
        <ele>504.8</ele>
        <time>2020-07-29T07:04:57Z</time>
      </trkpt>
      <trkpt lat="42.9687680" lon="0.6610870">
        <ele>505.9</ele>
        <time>2020-07-29T07:05:03Z</time>
      </trkpt>
      <trkpt lat="42.9688000" lon="0.6610980">
        <ele>506.1</ele>
        <time>2020-07-29T07:05:04Z</time>
      </trkpt>
      <trkpt lat="42.9689660" lon="0.6611130">
        <ele>507.0</ele>
        <time>2020-07-29T07:05:09Z</time>
      </trkpt>
      <trkpt lat="42.9690350" lon="0.6611110">
        <ele>507.4</ele>
        <time>2020-07-29T07:05:11Z</time>
      </trkpt>
      <trkpt lat="42.9691470" lon="0.6611100">
        <ele>508.1</ele>
        <time>2020-07-29T07:05:14Z</time>
      </trkpt>
      <trkpt lat="42.9692810" lon="0.6610930">
        <ele>508.8</ele>
        <time>2020-07-29T07:05:17Z</time>
      </trkpt>
      <trkpt lat="42.9693170" lon="0.6610830">
        <ele>509.1</ele>
        <time>2020-07-29T07:05:19Z</time>
      </trkpt>
      <trkpt lat="42.9695150" lon="0.6610570">
        <ele>510.2</ele>
        <time>2020-07-29T07:05:25Z</time>
      </trkpt>
      <trkpt lat="42.9695800" lon="0.6610510">
        <ele>510.5</ele>
        <time>2020-07-29T07:05:27Z</time>
      </trkpt>
      <trkpt lat="42.9697410" lon="0.6610400">
        <ele>511.3</ele>
        <time>2020-07-29T07:05:32Z</time>
      </trkpt>
      <trkpt lat="42.9697730" lon="0.6610320">
        <ele>511.5</ele>
        <time>2020-07-29T07:05:33Z</time>
      </trkpt>
      <trkpt lat="42.9699460" lon="0.6610250">
        <ele>512.5</ele>
        <time>2020-07-29T07:05:38Z</time>
      </trkpt>
      <trkpt lat="42.9701490" lon="0.6610570">
        <ele>513.8</ele>
        <time>2020-07-29T07:05:44Z</time>
      </trkpt>
      <trkpt lat="42.9701850" lon="0.6610670">
        <ele>514.0</ele>
        <time>2020-07-29T07:05:45Z</time>
      </trkpt>
      <trkpt lat="42.9703730" lon="0.6611190">
        <ele>515.3</ele>
        <time>2020-07-29T07:05:51Z</time>
      </trkpt>
      <trkpt lat="42.9704010" lon="0.6611280">
        <ele>515.5</ele>
        <time>2020-07-29T07:05:52Z</time>
      </trkpt>
      <trkpt lat="42.9704800" lon="0.6611630">
        <ele>516.0</ele>
        <time>2020-07-29T07:05:55Z</time>
      </trkpt>
      <trkpt lat="42.9705080" lon="0.6611700">
        <ele>516.2</ele>
        <time>2020-07-29T07:05:56Z</time>
      </trkpt>
      <trkpt lat="42.9706730" lon="0.6612110">
        <ele>517.1</ele>
        <time>2020-07-29T07:06:01Z</time>
      </trkpt>
      <trkpt lat="42.9707090" lon="0.6612150">
        <ele>517.2</ele>
        <time>2020-07-29T07:06:02Z</time>
      </trkpt>
      <trkpt lat="42.9708870" lon="0.6612340">
        <ele>518.1</ele>
        <time>2020-07-29T07:06:07Z</time>
      </trkpt>
      <trkpt lat="42.9710060" lon="0.6612340">
        <ele>518.7</ele>
        <time>2020-07-29T07:06:10Z</time>
      </trkpt>
      <trkpt lat="42.9711970" lon="0.6611900">
        <ele>519.8</ele>
        <time>2020-07-29T07:06:15Z</time>
      </trkpt>
      <trkpt lat="42.9712700" lon="0.6611560">
        <ele>520.2</ele>
        <time>2020-07-29T07:06:17Z</time>
      </trkpt>
      <trkpt lat="42.9714120" lon="0.6610920">
        <ele>521.0</ele>
        <time>2020-07-29T07:06:21Z</time>
      </trkpt>
      <trkpt lat="42.9715090" lon="0.6610320">
        <ele>521.6</ele>
        <time>2020-07-29T07:06:24Z</time>
      </trkpt>
      <trkpt lat="42.9716370" lon="0.6609400">
        <ele>522.4</ele>
        <time>2020-07-29T07:06:28Z</time>
      </trkpt>
      <trkpt lat="42.9717750" lon="0.6609010">
        <ele>523.1</ele>
        <time>2020-07-29T07:06:32Z</time>
      </trkpt>
      <trkpt lat="42.9718420" lon="0.6608960">
        <ele>523.4</ele>
        <time>2020-07-29T07:06:34Z</time>
      </trkpt>
      <trkpt lat="42.9720050" lon="0.6609020">
        <ele>524.4</ele>
        <time>2020-07-29T07:06:39Z</time>
      </trkpt>
      <trkpt lat="42.9720720" lon="0.6609020">
        <ele>524.8</ele>
        <time>2020-07-29T07:06:41Z</time>
      </trkpt>
      <trkpt lat="42.9722130" lon="0.6608960">
        <ele>525.6</ele>
        <time>2020-07-29T07:06:45Z</time>
      </trkpt>
      <trkpt lat="42.9722950" lon="0.6608770">
        <ele>526.1</ele>
        <time>2020-07-29T07:06:47Z</time>
      </trkpt>
      <trkpt lat="42.9724010" lon="0.6608560">
        <ele>526.7</ele>
        <time>2020-07-29T07:06:50Z</time>
      </trkpt>
      <trkpt lat="42.9725470" lon="0.6608080">
        <ele>527.5</ele>
        <time>2020-07-29T07:06:54Z</time>
      </trkpt>
      <trkpt lat="42.9726150" lon="0.6607780">
        <ele>527.9</ele>
        <time>2020-07-29T07:06:56Z</time>
      </trkpt>
      <trkpt lat="42.9727730" lon="0.6606920">
        <ele>528.8</ele>
        <time>2020-07-29T07:07:01Z</time>
      </trkpt>
      <trkpt lat="42.9727950" lon="0.6606680">
        <ele>528.9</ele>
        <time>2020-07-29T07:07:02Z</time>
      </trkpt>
      <trkpt lat="42.9728620" lon="0.6605120">
        <ele>529.6</ele>
        <time>2020-07-29T07:07:06Z</time>
      </trkpt>
      <trkpt lat="42.9728840" lon="0.6604210">
        <ele>530.0</ele>
        <time>2020-07-29T07:07:08Z</time>
      </trkpt>
      <trkpt lat="42.9729060" lon="0.6602320">
        <ele>530.7</ele>
        <time>2020-07-29T07:07:12Z</time>
      </trkpt>
      <trkpt lat="42.9729190" lon="0.6600630">
        <ele>531.3</ele>
        <time>2020-07-29T07:07:15Z</time>
      </trkpt>
      <trkpt lat="42.9729220" lon="0.6599520">
        <ele>531.7</ele>
        <time>2020-07-29T07:07:17Z</time>
      </trkpt>
      <trkpt lat="42.9729790" lon="0.6598040">
        <ele>532.3</ele>
        <time>2020-07-29T07:07:21Z</time>
      </trkpt>
      <trkpt lat="42.9729990" lon="0.6597720">
        <ele>532.5</ele>
        <time>2020-07-29T07:07:22Z</time>
      </trkpt>
      <trkpt lat="42.9731080" lon="0.6596570">
        <ele>533.2</ele>
        <time>2020-07-29T07:07:26Z</time>
      </trkpt>
      <trkpt lat="42.9731760" lon="0.6596290">
        <ele>533.6</ele>
        <time>2020-07-29T07:07:28Z</time>
      </trkpt>
      <trkpt lat="42.9733280" lon="0.6596110">
        <ele>534.5</ele>
        <time>2020-07-29T07:07:32Z</time>
      </trkpt>
      <trkpt lat="42.9733670" lon="0.6596070">
        <ele>534.7</ele>
        <time>2020-07-29T07:07:33Z</time>
      </trkpt>
      <trkpt lat="42.9735080" lon="0.6596060">
        <ele>535.5</ele>
        <time>2020-07-29T07:07:37Z</time>
      </trkpt>
      <trkpt lat="42.9735410" lon="0.6596070">
        <ele>535.7</ele>
        <time>2020-07-29T07:07:38Z</time>
      </trkpt>
      <trkpt lat="42.9736980" lon="0.6596140">
        <ele>536.6</ele>
        <time>2020-07-29T07:07:43Z</time>
      </trkpt>
      <trkpt lat="42.9738420" lon="0.6596010">
        <ele>537.5</ele>
        <time>2020-07-29T07:07:48Z</time>
      </trkpt>
      <trkpt lat="42.9739140" lon="0.6595970">
        <ele>537.9</ele>
        <time>2020-07-29T07:07:50Z</time>
      </trkpt>
      <trkpt lat="42.9740320" lon="0.6595850">
        <ele>538.7</ele>
        <time>2020-07-29T07:07:53Z</time>
      </trkpt>
      <trkpt lat="42.9741040" lon="0.6595780">
        <ele>539.2</ele>
        <time>2020-07-29T07:07:55Z</time>
      </trkpt>
      <trkpt lat="42.9743070" lon="0.6595600">
        <ele>540.4</ele>
        <time>2020-07-29T07:08:01Z</time>
      </trkpt>
      <trkpt lat="42.9744500" lon="0.6595290">
        <ele>541.2</ele>
        <time>2020-07-29T07:08:05Z</time>
      </trkpt>
      <trkpt lat="42.9745620" lon="0.6594930">
        <ele>541.8</ele>
        <time>2020-07-29T07:08:08Z</time>
      </trkpt>
      <trkpt lat="42.9746860" lon="0.6594400">
        <ele>542.5</ele>
        <time>2020-07-29T07:08:12Z</time>
      </trkpt>
      <trkpt lat="42.9747360" lon="0.6594090">
        <ele>542.7</ele>
        <time>2020-07-29T07:08:14Z</time>
      </trkpt>
      <trkpt lat="42.9749020" lon="0.6593550">
        <ele>543.6</ele>
        <time>2020-07-29T07:08:19Z</time>
      </trkpt>
      <trkpt lat="42.9749290" lon="0.6593200">
        <ele>543.8</ele>
        <time>2020-07-29T07:08:20Z</time>
      </trkpt>
      <trkpt lat="42.9750200" lon="0.6592510">
        <ele>544.4</ele>
        <time>2020-07-29T07:08:23Z</time>
      </trkpt>
      <trkpt lat="42.9751070" lon="0.6591510">
        <ele>545.0</ele>
        <time>2020-07-29T07:08:26Z</time>
      </trkpt>
      <trkpt lat="42.9752470" lon="0.6590070">
        <ele>545.9</ele>
        <time>2020-07-29T07:08:31Z</time>
      </trkpt>
      <trkpt lat="42.9754160" lon="0.6588380">
        <ele>547.1</ele>
        <time>2020-07-29T07:08:37Z</time>
      </trkpt>
      <trkpt lat="42.9755030" lon="0.6587550">
        <ele>547.6</ele>
        <time>2020-07-29T07:08:40Z</time>
      </trkpt>
      <trkpt lat="42.9755900" lon="0.6586740">
        <ele>548.1</ele>
        <time>2020-07-29T07:08:43Z</time>
      </trkpt>
      <trkpt lat="42.9757470" lon="0.6585690">
        <ele>548.7</ele>
        <time>2020-07-29T07:08:48Z</time>
      </trkpt>
      <trkpt lat="42.9758220" lon="0.6585660">
        <ele>549.0</ele>
        <time>2020-07-29T07:08:50Z</time>
      </trkpt>
      <trkpt lat="42.9758920" lon="0.6585990">
        <ele>549.2</ele>
        <time>2020-07-29T07:08:52Z</time>
      </trkpt>
      <trkpt lat="42.9760390" lon="0.6587740">
        <ele>549.9</ele>
        <time>2020-07-29T07:08:57Z</time>
      </trkpt>
      <trkpt lat="42.9760500" lon="0.6588220">
        <ele>550.2</ele>
        <time>2020-07-29T07:08:58Z</time>
      </trkpt>
      <trkpt lat="42.9760480" lon="0.6589580">
        <ele>550.5</ele>
        <time>2020-07-29T07:09:01Z</time>
      </trkpt>
      <trkpt lat="42.9759920" lon="0.6590730">
        <ele>550.9</ele>
        <time>2020-07-29T07:09:04Z</time>
      </trkpt>
      <trkpt lat="42.9759420" lon="0.6591300">
        <ele>551.2</ele>
        <time>2020-07-29T07:09:06Z</time>
      </trkpt>
      <trkpt lat="42.9758130" lon="0.6593670">
        <ele>552.3</ele>
        <time>2020-07-29T07:09:12Z</time>
      </trkpt>
      <trkpt lat="42.9758150" lon="0.6594460">
        <ele>552.6</ele>
        <time>2020-07-29T07:09:15Z</time>
      </trkpt>
      <trkpt lat="42.9758330" lon="0.6595180">
        <ele>552.9</ele>
        <time>2020-07-29T07:09:17Z</time>
      </trkpt>
      <trkpt lat="42.9758520" lon="0.6596340">
        <ele>553.4</ele>
        <time>2020-07-29T07:09:20Z</time>
      </trkpt>
      <trkpt lat="42.9758560" lon="0.6597410">
        <ele>553.8</ele>
        <time>2020-07-29T07:09:23Z</time>
      </trkpt>
      <trkpt lat="42.9758530" lon="0.6598410">
        <ele>554.2</ele>
        <time>2020-07-29T07:09:26Z</time>
      </trkpt>
      <trkpt lat="42.9758200" lon="0.6599410">
        <ele>554.7</ele>
        <time>2020-07-29T07:09:29Z</time>
      </trkpt>
      <trkpt lat="42.9757980" lon="0.6599730">
        <ele>554.9</ele>
        <time>2020-07-29T07:09:30Z</time>
      </trkpt>
      <trkpt lat="42.9756940" lon="0.6600700">
        <ele>555.6</ele>
        <time>2020-07-29T07:09:34Z</time>
      </trkpt>
      <trkpt lat="42.9756290" lon="0.6600760">
        <ele>556.0</ele>
        <time>2020-07-29T07:09:36Z</time>
      </trkpt>
      <trkpt lat="42.9755310" lon="0.6601030">
        <ele>556.6</ele>
        <time>2020-07-29T07:09:39Z</time>
      </trkpt>
      <trkpt lat="42.9754230" lon="0.6601680">
        <ele>557.2</ele>
        <time>2020-07-29T07:09:42Z</time>
      </trkpt>
      <trkpt lat="42.9753640" lon="0.6602020">
        <ele>557.6</ele>
        <time>2020-07-29T07:09:44Z</time>
      </trkpt>
      <trkpt lat="42.9752400" lon="0.6602770">
        <ele>558.4</ele>
        <time>2020-07-29T07:09:48Z</time>
      </trkpt>
      <trkpt lat="42.9751160" lon="0.6603480">
        <ele>559.0</ele>
        <time>2020-07-29T07:09:52Z</time>
      </trkpt>
      <trkpt lat="42.9750180" lon="0.6603920">
        <ele>559.6</ele>
        <time>2020-07-29T07:09:55Z</time>
      </trkpt>
      <trkpt lat="42.9749130" lon="0.6604130">
        <ele>560.1</ele>
        <time>2020-07-29T07:09:58Z</time>
      </trkpt>
      <trkpt lat="42.9748070" lon="0.6604470">
        <ele>560.6</ele>
        <time>2020-07-29T07:10:01Z</time>
      </trkpt>
      <trkpt lat="42.9746340" lon="0.6605370">
        <ele>561.5</ele>
        <time>2020-07-29T07:10:06Z</time>
      </trkpt>
      <trkpt lat="42.9745670" lon="0.6605890">
        <ele>561.8</ele>
        <time>2020-07-29T07:10:08Z</time>
      </trkpt>
      <trkpt lat="42.9744580" lon="0.6607250">
        <ele>562.4</ele>
        <time>2020-07-29T07:10:12Z</time>
      </trkpt>
      <trkpt lat="42.9743920" lon="0.6609580">
        <ele>563.2</ele>
        <time>2020-07-29T07:10:16Z</time>
      </trkpt>
      <trkpt lat="42.9743850" lon="0.6610290">
        <ele>563.4</ele>
        <time>2020-07-29T07:10:17Z</time>
      </trkpt>
      <trkpt lat="42.9744070" lon="0.6611950">
        <ele>563.9</ele>
        <time>2020-07-29T07:10:20Z</time>
      </trkpt>
      <trkpt lat="42.9745160" lon="0.6613120">
        <ele>564.5</ele>
        <time>2020-07-29T07:10:24Z</time>
      </trkpt>
      <trkpt lat="42.9745490" lon="0.6613330">
        <ele>564.7</ele>
        <time>2020-07-29T07:10:25Z</time>
      </trkpt>
      <trkpt lat="42.9746870" lon="0.6613700">
        <ele>565.1</ele>
        <time>2020-07-29T07:10:29Z</time>
      </trkpt>
      <trkpt lat="42.9747300" lon="0.6613720">
        <ele>565.3</ele>
        <time>2020-07-29T07:10:30Z</time>
      </trkpt>
      <trkpt lat="42.9748870" lon="0.6613480">
        <ele>565.8</ele>
        <time>2020-07-29T07:10:34Z</time>
      </trkpt>
      <trkpt lat="42.9750390" lon="0.6613200">
        <ele>566.3</ele>
        <time>2020-07-29T07:10:38Z</time>
      </trkpt>
      <trkpt lat="42.9752170" lon="0.6613020">
        <ele>567.0</ele>
        <time>2020-07-29T07:10:43Z</time>
      </trkpt>
      <trkpt lat="42.9752900" lon="0.6613170">
        <ele>567.4</ele>
        <time>2020-07-29T07:10:45Z</time>
      </trkpt>
      <trkpt lat="42.9754880" lon="0.6613250">
        <ele>568.3</ele>
        <time>2020-07-29T07:10:51Z</time>
      </trkpt>
      <trkpt lat="42.9755170" lon="0.6613300">
        <ele>568.5</ele>
        <time>2020-07-29T07:10:52Z</time>
      </trkpt>
      <trkpt lat="42.9756390" lon="0.6613560">
        <ele>569.2</ele>
        <time>2020-07-29T07:10:56Z</time>
      </trkpt>
      <trkpt lat="42.9757040" lon="0.6613780">
        <ele>569.6</ele>
        <time>2020-07-29T07:10:59Z</time>
      </trkpt>
      <trkpt lat="42.9758360" lon="0.6614040">
        <ele>570.3</ele>
        <time>2020-07-29T07:11:04Z</time>
      </trkpt>
      <trkpt lat="42.9760650" lon="0.6613670">
        <ele>571.6</ele>
        <time>2020-07-29T07:11:10Z</time>
      </trkpt>
      <trkpt lat="42.9760990" lon="0.6613490">
        <ele>571.8</ele>
        <time>2020-07-29T07:11:11Z</time>
      </trkpt>
      <trkpt lat="42.9761890" lon="0.6612590">
        <ele>572.4</ele>
        <time>2020-07-29T07:11:14Z</time>
      </trkpt>
      <trkpt lat="42.9762610" lon="0.6611450">
        <ele>572.9</ele>
        <time>2020-07-29T07:11:17Z</time>
      </trkpt>
      <trkpt lat="42.9763880" lon="0.6609660">
        <ele>573.9</ele>
        <time>2020-07-29T07:11:22Z</time>
      </trkpt>
      <trkpt lat="42.9765980" lon="0.6608330">
        <ele>575.1</ele>
        <time>2020-07-29T07:11:28Z</time>
      </trkpt>
      <trkpt lat="42.9766700" lon="0.6608070">
        <ele>575.5</ele>
        <time>2020-07-29T07:11:30Z</time>
      </trkpt>
      <trkpt lat="42.9768780" lon="0.6607500">
        <ele>576.7</ele>
        <time>2020-07-29T07:11:36Z</time>
      </trkpt>
      <trkpt lat="42.9769130" lon="0.6607450">
        <ele>576.9</ele>
        <time>2020-07-29T07:11:37Z</time>
      </trkpt>
      <trkpt lat="42.9770620" lon="0.6607330">
        <ele>577.8</ele>
        <time>2020-07-29T07:11:41Z</time>
      </trkpt>
      <trkpt lat="42.9772060" lon="0.6607620">
        <ele>578.7</ele>
        <time>2020-07-29T07:11:45Z</time>
      </trkpt>
      <trkpt lat="42.9772770" lon="0.6607920">
        <ele>579.1</ele>
        <time>2020-07-29T07:11:47Z</time>
      </trkpt>
      <trkpt lat="42.9774320" lon="0.6609260">
        <ele>580.1</ele>
        <time>2020-07-29T07:11:52Z</time>
      </trkpt>
      <trkpt lat="42.9774830" lon="0.6610000">
        <ele>580.4</ele>
        <time>2020-07-29T07:11:54Z</time>
      </trkpt>
      <trkpt lat="42.9775770" lon="0.6612060">
        <ele>581.1</ele>
        <time>2020-07-29T07:11:59Z</time>
      </trkpt>
      <trkpt lat="42.9775920" lon="0.6612990">
        <ele>581.6</ele>
        <time>2020-07-29T07:12:01Z</time>
      </trkpt>
      <trkpt lat="42.9775850" lon="0.6614890">
        <ele>582.1</ele>
        <time>2020-07-29T07:12:05Z</time>
      </trkpt>
      <trkpt lat="42.9775640" lon="0.6616280">
        <ele>582.5</ele>
        <time>2020-07-29T07:12:08Z</time>
      </trkpt>
      <trkpt lat="42.9775070" lon="0.6618540">
        <ele>583.4</ele>
        <time>2020-07-29T07:12:13Z</time>
      </trkpt>
      <trkpt lat="42.9774780" lon="0.6619360">
        <ele>583.7</ele>
        <time>2020-07-29T07:12:15Z</time>
      </trkpt>
      <trkpt lat="42.9773940" lon="0.6621800">
        <ele>584.8</ele>
        <time>2020-07-29T07:12:21Z</time>
      </trkpt>
      <trkpt lat="42.9773410" lon="0.6623330">
        <ele>585.4</ele>
        <time>2020-07-29T07:12:25Z</time>
      </trkpt>
      <trkpt lat="42.9772980" lon="0.6624510">
        <ele>585.9</ele>
        <time>2020-07-29T07:12:28Z</time>
      </trkpt>
      <trkpt lat="42.9772200" lon="0.6626840">
        <ele>586.9</ele>
        <time>2020-07-29T07:12:34Z</time>
      </trkpt>
      <trkpt lat="42.9771480" lon="0.6628590">
        <ele>587.7</ele>
        <time>2020-07-29T07:12:39Z</time>
      </trkpt>
      <trkpt lat="42.9771010" lon="0.6629490">
        <ele>588.1</ele>
        <time>2020-07-29T07:12:42Z</time>
      </trkpt>
      <trkpt lat="42.9770250" lon="0.6631030">
        <ele>588.9</ele>
        <time>2020-07-29T07:12:47Z</time>
      </trkpt>
      <trkpt lat="42.9769920" lon="0.6631610">
        <ele>589.2</ele>
        <time>2020-07-29T07:12:49Z</time>
      </trkpt>
      <trkpt lat="42.9769500" lon="0.6632800">
        <ele>589.9</ele>
        <time>2020-07-29T07:12:52Z</time>
      </trkpt>
      <trkpt lat="42.9769020" lon="0.6634180">
        <ele>590.7</ele>
        <time>2020-07-29T07:12:55Z</time>
      </trkpt>
      <trkpt lat="42.9768320" lon="0.6636060">
        <ele>591.6</ele>
        <time>2020-07-29T07:12:59Z</time>
      </trkpt>
      <trkpt lat="42.9767790" lon="0.6637330">
        <ele>592.2</ele>
        <time>2020-07-29T07:13:02Z</time>
      </trkpt>
      <trkpt lat="42.9767070" lon="0.6639000">
        <ele>593.1</ele>
        <time>2020-07-29T07:13:06Z</time>
      </trkpt>
      <trkpt lat="42.9766520" lon="0.6640180">
        <ele>593.7</ele>
        <time>2020-07-29T07:13:09Z</time>
      </trkpt>
      <trkpt lat="42.9766120" lon="0.6640850">
        <ele>594.1</ele>
        <time>2020-07-29T07:13:11Z</time>
      </trkpt>
      <trkpt lat="42.9765290" lon="0.6642810">
        <ele>595.1</ele>
        <time>2020-07-29T07:13:16Z</time>
      </trkpt>
      <trkpt lat="42.9764900" lon="0.6643620">
        <ele>595.5</ele>
        <time>2020-07-29T07:13:18Z</time>
      </trkpt>
      <trkpt lat="42.9764530" lon="0.6644370">
        <ele>595.9</ele>
        <time>2020-07-29T07:13:20Z</time>
      </trkpt>
      <trkpt lat="42.9763420" lon="0.6647100">
        <ele>597.1</ele>
        <time>2020-07-29T07:13:26Z</time>
      </trkpt>
      <trkpt lat="42.9763220" lon="0.6647600">
        <ele>597.3</ele>
        <time>2020-07-29T07:13:27Z</time>
      </trkpt>
      <trkpt lat="42.9762120" lon="0.6650370">
        <ele>598.0</ele>
        <time>2020-07-29T07:13:31Z</time>
      </trkpt>
      <trkpt lat="42.9761850" lon="0.6650900">
        <ele>598.0</ele>
        <time>2020-07-29T07:13:33Z</time>
      </trkpt>
      <trkpt lat="42.9761570" lon="0.6651420">
        <ele>598.1</ele>
        <time>2020-07-29T07:13:34Z</time>
      </trkpt>
      <trkpt lat="42.9760200" lon="0.6653160">
        <ele>598.2</ele>
        <time>2020-07-29T07:13:38Z</time>
      </trkpt>
      <trkpt lat="42.9758980" lon="0.6654330">
        <ele>598.2</ele>
        <time>2020-07-29T07:13:41Z</time>
      </trkpt>
      <trkpt lat="42.9755030" lon="0.6657950">
        <ele>597.7</ele>
        <time>2020-07-29T07:13:49Z</time>
      </trkpt>
      <trkpt lat="42.9750530" lon="0.6662030">
        <ele>597.5</ele>
        <time>2020-07-29T07:13:56Z</time>
      </trkpt>
      <trkpt lat="42.9750530" lon="0.6662030">
        <ele>597.5</ele>
        <time>2020-07-29T07:13:57Z</time>
      </trkpt>
      <trkpt lat="42.9745570" lon="0.6666360">
        <ele>597.4</ele>
        <time>2020-07-29T07:14:06Z</time>
      </trkpt>
      <trkpt lat="42.9744080" lon="0.6667700">
        <ele>597.3</ele>
        <time>2020-07-29T07:14:09Z</time>
      </trkpt>
      <trkpt lat="42.9742740" lon="0.6669020">
        <ele>597.3</ele>
        <time>2020-07-29T07:14:12Z</time>
      </trkpt>
      <trkpt lat="42.9738820" lon="0.6672180">
        <ele>597.8</ele>
        <time>2020-07-29T07:14:20Z</time>
      </trkpt>
      <trkpt lat="42.9736460" lon="0.6673760">
        <ele>598.8</ele>
        <time>2020-07-29T07:14:25Z</time>
      </trkpt>
      <trkpt lat="42.9735290" lon="0.6674720">
        <ele>599.5</ele>
        <time>2020-07-29T07:14:28Z</time>
      </trkpt>
      <trkpt lat="42.9734930" lon="0.6675030">
        <ele>599.8</ele>
        <time>2020-07-29T07:14:29Z</time>
      </trkpt>
      <trkpt lat="42.9733310" lon="0.6676510">
        <ele>600.9</ele>
        <time>2020-07-29T07:14:34Z</time>
      </trkpt>
      <trkpt lat="42.9733040" lon="0.6676800">
        <ele>601.1</ele>
        <time>2020-07-29T07:14:35Z</time>
      </trkpt>
      <trkpt lat="42.9732140" lon="0.6677640">
        <ele>601.7</ele>
        <time>2020-07-29T07:14:38Z</time>
      </trkpt>
      <trkpt lat="42.9730790" lon="0.6678420">
        <ele>602.5</ele>
        <time>2020-07-29T07:14:42Z</time>
      </trkpt>
      <trkpt lat="42.9729580" lon="0.6679400">
        <ele>603.3</ele>
        <time>2020-07-29T07:14:46Z</time>
      </trkpt>
      <trkpt lat="42.9728380" lon="0.6680380">
        <ele>604.0</ele>
        <time>2020-07-29T07:14:50Z</time>
      </trkpt>
      <trkpt lat="42.9728060" lon="0.6680620">
        <ele>604.1</ele>
        <time>2020-07-29T07:14:51Z</time>
      </trkpt>
      <trkpt lat="42.9725600" lon="0.6682130">
        <ele>605.4</ele>
        <time>2020-07-29T07:14:58Z</time>
      </trkpt>
      <trkpt lat="42.9725220" lon="0.6682230">
        <ele>605.6</ele>
        <time>2020-07-29T07:14:59Z</time>
      </trkpt>
      <trkpt lat="42.9723380" lon="0.6682130">
        <ele>606.5</ele>
        <time>2020-07-29T07:15:04Z</time>
      </trkpt>
      <trkpt lat="42.9722310" lon="0.6681780">
        <ele>607.1</ele>
        <time>2020-07-29T07:15:07Z</time>
      </trkpt>
      <trkpt lat="42.9721040" lon="0.6680910">
        <ele>607.9</ele>
        <time>2020-07-29T07:15:11Z</time>
      </trkpt>
      <trkpt lat="42.9720340" lon="0.6679990">
        <ele>608.6</ele>
        <time>2020-07-29T07:15:14Z</time>
      </trkpt>
      <trkpt lat="42.9719880" lon="0.6679170">
        <ele>609.1</ele>
        <time>2020-07-29T07:15:17Z</time>
      </trkpt>
      <trkpt lat="42.9719680" lon="0.6678360">
        <ele>609.5</ele>
        <time>2020-07-29T07:15:20Z</time>
      </trkpt>
      <trkpt lat="42.9719450" lon="0.6677960">
        <ele>609.8</ele>
        <time>2020-07-29T07:15:22Z</time>
      </trkpt>
      <trkpt lat="42.9718830" lon="0.6677030">
        <ele>610.4</ele>
        <time>2020-07-29T07:15:25Z</time>
      </trkpt>
      <trkpt lat="42.9718590" lon="0.6676690">
        <ele>610.6</ele>
        <time>2020-07-29T07:15:26Z</time>
      </trkpt>
      <trkpt lat="42.9717750" lon="0.6675450">
        <ele>611.4</ele>
        <time>2020-07-29T07:15:30Z</time>
      </trkpt>
      <trkpt lat="42.9717090" lon="0.6674910">
        <ele>611.8</ele>
        <time>2020-07-29T07:15:32Z</time>
      </trkpt>
      <trkpt lat="42.9715820" lon="0.6673470">
        <ele>612.6</ele>
        <time>2020-07-29T07:15:36Z</time>
      </trkpt>
      <trkpt lat="42.9715590" lon="0.6673060">
        <ele>612.8</ele>
        <time>2020-07-29T07:15:37Z</time>
      </trkpt>
      <trkpt lat="42.9714600" lon="0.6670390">
        <ele>613.9</ele>
        <time>2020-07-29T07:15:42Z</time>
      </trkpt>
      <trkpt lat="42.9714380" lon="0.6669840">
        <ele>614.1</ele>
        <time>2020-07-29T07:15:43Z</time>
      </trkpt>
      <trkpt lat="42.9713170" lon="0.6667710">
        <ele>614.8</ele>
        <time>2020-07-29T07:15:48Z</time>
      </trkpt>
      <trkpt lat="42.9711990" lon="0.6666230">
        <ele>615.6</ele>
        <time>2020-07-29T07:15:52Z</time>
      </trkpt>
      <trkpt lat="42.9711700" lon="0.6665870">
        <ele>615.8</ele>
        <time>2020-07-29T07:15:53Z</time>
      </trkpt>
      <trkpt lat="42.9709720" lon="0.6662790">
        <ele>617.3</ele>
        <time>2020-07-29T07:16:01Z</time>
      </trkpt>
      <trkpt lat="42.9709260" lon="0.6662140">
        <ele>617.7</ele>
        <time>2020-07-29T07:16:03Z</time>
      </trkpt>
      <trkpt lat="42.9707530" lon="0.6660820">
        <ele>618.6</ele>
        <time>2020-07-29T07:16:09Z</time>
      </trkpt>
      <trkpt lat="42.9705870" lon="0.6661310">
        <ele>619.4</ele>
        <time>2020-07-29T07:16:14Z</time>
      </trkpt>
      <trkpt lat="42.9705610" lon="0.6661590">
        <ele>619.6</ele>
        <time>2020-07-29T07:16:15Z</time>
      </trkpt>
      <trkpt lat="42.9704860" lon="0.6663210">
        <ele>620.3</ele>
        <time>2020-07-29T07:16:19Z</time>
      </trkpt>
      <trkpt lat="42.9704830" lon="0.6665500">
        <ele>621.1</ele>
        <time>2020-07-29T07:16:24Z</time>
      </trkpt>
      <trkpt lat="42.9705640" lon="0.6667210">
        <ele>621.8</ele>
        <time>2020-07-29T07:16:28Z</time>
      </trkpt>
      <trkpt lat="42.9705900" lon="0.6667570">
        <ele>622.0</ele>
        <time>2020-07-29T07:16:29Z</time>
      </trkpt>
      <trkpt lat="42.9707590" lon="0.6669880">
        <ele>623.2</ele>
        <time>2020-07-29T07:16:36Z</time>
      </trkpt>
      <trkpt lat="42.9707780" lon="0.6670210">
        <ele>623.4</ele>
        <time>2020-07-29T07:16:37Z</time>
      </trkpt>
      <trkpt lat="42.9708660" lon="0.6671450">
        <ele>624.0</ele>
        <time>2020-07-29T07:16:41Z</time>
      </trkpt>
      <trkpt lat="42.9709380" lon="0.6672300">
        <ele>624.5</ele>
        <time>2020-07-29T07:16:44Z</time>
      </trkpt>
      <trkpt lat="42.9710030" lon="0.6673200">
        <ele>625.0</ele>
        <time>2020-07-29T07:16:47Z</time>
      </trkpt>
      <trkpt lat="42.9711830" lon="0.6674720">
        <ele>626.1</ele>
        <time>2020-07-29T07:16:53Z</time>
      </trkpt>
      <trkpt lat="42.9713950" lon="0.6676240">
        <ele>627.4</ele>
        <time>2020-07-29T07:17:00Z</time>
      </trkpt>
      <trkpt lat="42.9714390" lon="0.6676810">
        <ele>627.8</ele>
        <time>2020-07-29T07:17:02Z</time>
      </trkpt>
      <trkpt lat="42.9714980" lon="0.6678540">
        <ele>628.8</ele>
        <time>2020-07-29T07:17:07Z</time>
      </trkpt>
      <trkpt lat="42.9715150" lon="0.6678910">
        <ele>629.0</ele>
        <time>2020-07-29T07:17:08Z</time>
      </trkpt>
      <trkpt lat="42.9715900" lon="0.6680880">
        <ele>629.9</ele>
        <time>2020-07-29T07:17:13Z</time>
      </trkpt>
      <trkpt lat="42.9716570" lon="0.6682330">
        <ele>630.6</ele>
        <time>2020-07-29T07:17:17Z</time>
      </trkpt>
      <trkpt lat="42.9716980" lon="0.6683710">
        <ele>631.2</ele>
        <time>2020-07-29T07:17:21Z</time>
      </trkpt>
      <trkpt lat="42.9717040" lon="0.6683940">
        <ele>631.3</ele>
        <time>2020-07-29T07:17:22Z</time>
      </trkpt>
      <trkpt lat="42.9717190" lon="0.6684970">
        <ele>631.7</ele>
        <time>2020-07-29T07:17:26Z</time>
      </trkpt>
      <trkpt lat="42.9717220" lon="0.6685630">
        <ele>632.0</ele>
        <time>2020-07-29T07:17:28Z</time>
      </trkpt>
      <trkpt lat="42.9717320" lon="0.6687720">
        <ele>632.9</ele>
        <time>2020-07-29T07:17:33Z</time>
      </trkpt>
      <trkpt lat="42.9717560" lon="0.6688740">
        <ele>633.3</ele>
        <time>2020-07-29T07:17:35Z</time>
      </trkpt>
      <trkpt lat="42.9717830" lon="0.6690970">
        <ele>634.3</ele>
        <time>2020-07-29T07:17:39Z</time>
      </trkpt>
      <trkpt lat="42.9718000" lon="0.6691450">
        <ele>634.5</ele>
        <time>2020-07-29T07:17:40Z</time>
      </trkpt>
      <trkpt lat="42.9719480" lon="0.6693390">
        <ele>635.6</ele>
        <time>2020-07-29T07:17:45Z</time>
      </trkpt>
      <trkpt lat="42.9720980" lon="0.6694770">
        <ele>636.4</ele>
        <time>2020-07-29T07:17:50Z</time>
      </trkpt>
      <trkpt lat="42.9721260" lon="0.6695130">
        <ele>636.6</ele>
        <time>2020-07-29T07:17:51Z</time>
      </trkpt>
      <trkpt lat="42.9722690" lon="0.6697450">
        <ele>637.7</ele>
        <time>2020-07-29T07:17:57Z</time>
      </trkpt>
      <trkpt lat="42.9723550" lon="0.6700110">
        <ele>639.0</ele>
        <time>2020-07-29T07:18:03Z</time>
      </trkpt>
      <trkpt lat="42.9723630" lon="0.6700550">
        <ele>639.1</ele>
        <time>2020-07-29T07:18:04Z</time>
      </trkpt>
      <trkpt lat="42.9723980" lon="0.6702270">
        <ele>639.9</ele>
        <time>2020-07-29T07:18:08Z</time>
      </trkpt>
      <trkpt lat="42.9724240" lon="0.6703120">
        <ele>640.3</ele>
        <time>2020-07-29T07:18:10Z</time>
      </trkpt>
      <trkpt lat="42.9725180" lon="0.6704340">
        <ele>641.0</ele>
        <time>2020-07-29T07:18:14Z</time>
      </trkpt>
      <trkpt lat="42.9725470" lon="0.6704520">
        <ele>641.1</ele>
        <time>2020-07-29T07:18:15Z</time>
      </trkpt>
      <trkpt lat="42.9726950" lon="0.6705140">
        <ele>641.9</ele>
        <time>2020-07-29T07:18:20Z</time>
      </trkpt>
      <trkpt lat="42.9727900" lon="0.6705450">
        <ele>642.4</ele>
        <time>2020-07-29T07:18:23Z</time>
      </trkpt>
      <trkpt lat="42.9729350" lon="0.6705910">
        <ele>643.1</ele>
        <time>2020-07-29T07:18:27Z</time>
      </trkpt>
      <trkpt lat="42.9730830" lon="0.6706520">
        <ele>643.9</ele>
        <time>2020-07-29T07:18:31Z</time>
      </trkpt>
      <trkpt lat="42.9731580" lon="0.6706820">
        <ele>644.4</ele>
        <time>2020-07-29T07:18:33Z</time>
      </trkpt>
      <trkpt lat="42.9732510" lon="0.6707300">
        <ele>644.9</ele>
        <time>2020-07-29T07:18:37Z</time>
      </trkpt>
      <trkpt lat="42.9732750" lon="0.6707440">
        <ele>645.1</ele>
        <time>2020-07-29T07:18:38Z</time>
      </trkpt>
      <trkpt lat="42.9733860" lon="0.6707860">
        <ele>645.7</ele>
        <time>2020-07-29T07:18:42Z</time>
      </trkpt>
      <trkpt lat="42.9734530" lon="0.6708000">
        <ele>646.0</ele>
        <time>2020-07-29T07:18:44Z</time>
      </trkpt>
      <trkpt lat="42.9735880" lon="0.6708190">
        <ele>646.8</ele>
        <time>2020-07-29T07:18:48Z</time>
      </trkpt>
      <trkpt lat="42.9736350" lon="0.6708140">
        <ele>647.1</ele>
        <time>2020-07-29T07:18:50Z</time>
      </trkpt>
      <trkpt lat="42.9737250" lon="0.6708120">
        <ele>647.6</ele>
        <time>2020-07-29T07:18:53Z</time>
      </trkpt>
      <trkpt lat="42.9738530" lon="0.6708090">
        <ele>648.3</ele>
        <time>2020-07-29T07:18:58Z</time>
      </trkpt>
      <trkpt lat="42.9738760" lon="0.6708080">
        <ele>648.4</ele>
        <time>2020-07-29T07:18:59Z</time>
      </trkpt>
      <trkpt lat="42.9740050" lon="0.6708550">
        <ele>649.2</ele>
        <time>2020-07-29T07:19:04Z</time>
      </trkpt>
      <trkpt lat="42.9741210" lon="0.6708900">
        <ele>649.9</ele>
        <time>2020-07-29T07:19:09Z</time>
      </trkpt>
      <trkpt lat="42.9741480" lon="0.6708930">
        <ele>650.1</ele>
        <time>2020-07-29T07:19:10Z</time>
      </trkpt>
      <trkpt lat="42.9743010" lon="0.6709900">
        <ele>651.1</ele>
        <time>2020-07-29T07:19:16Z</time>
      </trkpt>
      <trkpt lat="42.9745210" lon="0.6711240">
        <ele>652.5</ele>
        <time>2020-07-29T07:19:22Z</time>
      </trkpt>
      <trkpt lat="42.9747780" lon="0.6712270">
        <ele>654.1</ele>
        <time>2020-07-29T07:19:28Z</time>
      </trkpt>
      <trkpt lat="42.9749180" lon="0.6712730">
        <ele>655.0</ele>
        <time>2020-07-29T07:19:33Z</time>
      </trkpt>
      <trkpt lat="42.9749320" lon="0.6712780">
        <ele>655.1</ele>
        <time>2020-07-29T07:19:34Z</time>
      </trkpt>
      <trkpt lat="42.9750710" lon="0.6713510">
        <ele>656.0</ele>
        <time>2020-07-29T07:19:39Z</time>
      </trkpt>
      <trkpt lat="42.9751070" lon="0.6713710">
        <ele>656.2</ele>
        <time>2020-07-29T07:19:40Z</time>
      </trkpt>
      <trkpt lat="42.9753060" lon="0.6714860">
        <ele>657.5</ele>
        <time>2020-07-29T07:19:45Z</time>
      </trkpt>
      <trkpt lat="42.9753330" lon="0.6715050">
        <ele>657.7</ele>
        <time>2020-07-29T07:19:46Z</time>
      </trkpt>
      <trkpt lat="42.9754470" lon="0.6715930">
        <ele>658.4</ele>
        <time>2020-07-29T07:19:50Z</time>
      </trkpt>
      <trkpt lat="42.9755150" lon="0.6716470">
        <ele>658.8</ele>
        <time>2020-07-29T07:19:52Z</time>
      </trkpt>
      <trkpt lat="42.9756470" lon="0.6717550">
        <ele>659.6</ele>
        <time>2020-07-29T07:19:56Z</time>
      </trkpt>
      <trkpt lat="42.9756830" lon="0.6717770">
        <ele>659.9</ele>
        <time>2020-07-29T07:19:57Z</time>
      </trkpt>
      <trkpt lat="42.9758140" lon="0.6718520">
        <ele>660.6</ele>
        <time>2020-07-29T07:20:01Z</time>
      </trkpt>
      <trkpt lat="42.9758840" lon="0.6718960">
        <ele>661.0</ele>
        <time>2020-07-29T07:20:03Z</time>
      </trkpt>
      <trkpt lat="42.9759680" lon="0.6719730">
        <ele>661.5</ele>
        <time>2020-07-29T07:20:06Z</time>
      </trkpt>
      <trkpt lat="42.9760560" lon="0.6720840">
        <ele>662.2</ele>
        <time>2020-07-29T07:20:10Z</time>
      </trkpt>
      <trkpt lat="42.9760880" lon="0.6721160">
        <ele>662.5</ele>
        <time>2020-07-29T07:20:11Z</time>
      </trkpt>
      <trkpt lat="42.9762270" lon="0.6722560">
        <ele>663.4</ele>
        <time>2020-07-29T07:20:16Z</time>
      </trkpt>
      <trkpt lat="42.9764050" lon="0.6722940">
        <ele>664.3</ele>
        <time>2020-07-29T07:20:20Z</time>
      </trkpt>
      <trkpt lat="42.9764980" lon="0.6722910">
        <ele>664.9</ele>
        <time>2020-07-29T07:20:22Z</time>
      </trkpt>
      <trkpt lat="42.9767280" lon="0.6722640">
        <ele>666.2</ele>
        <time>2020-07-29T07:20:28Z</time>
      </trkpt>
      <trkpt lat="42.9769270" lon="0.6722160">
        <ele>667.4</ele>
        <time>2020-07-29T07:20:35Z</time>
      </trkpt>
      <trkpt lat="42.9770350" lon="0.6722300">
        <ele>668.0</ele>
        <time>2020-07-29T07:20:40Z</time>
      </trkpt>
      <trkpt lat="42.9770660" lon="0.6722410">
        <ele>668.2</ele>
        <time>2020-07-29T07:20:41Z</time>
      </trkpt>
      <trkpt lat="42.9771990" lon="0.6722990">
        <ele>669.0</ele>
        <time>2020-07-29T07:20:46Z</time>
      </trkpt>
      <trkpt lat="42.9773360" lon="0.6723890">
        <ele>669.9</ele>
        <time>2020-07-29T07:20:51Z</time>
      </trkpt>
      <trkpt lat="42.9774690" lon="0.6725170">
        <ele>670.8</ele>
        <time>2020-07-29T07:20:56Z</time>
      </trkpt>
      <trkpt lat="42.9775120" lon="0.6725380">
        <ele>671.1</ele>
        <time>2020-07-29T07:20:57Z</time>
      </trkpt>
      <trkpt lat="42.9776530" lon="0.6726610">
        <ele>672.0</ele>
        <time>2020-07-29T07:21:02Z</time>
      </trkpt>
      <trkpt lat="42.9776800" lon="0.6726810">
        <ele>672.1</ele>
        <time>2020-07-29T07:21:03Z</time>
      </trkpt>
      <trkpt lat="42.9776980" lon="0.6727040">
        <ele>672.3</ele>
        <time>2020-07-29T07:21:04Z</time>
      </trkpt>
      <trkpt lat="42.9777780" lon="0.6727850">
        <ele>672.8</ele>
        <time>2020-07-29T07:21:07Z</time>
      </trkpt>
      <trkpt lat="42.9778260" lon="0.6728540">
        <ele>673.2</ele>
        <time>2020-07-29T07:21:09Z</time>
      </trkpt>
      <trkpt lat="42.9778820" lon="0.6729120">
        <ele>673.5</ele>
        <time>2020-07-29T07:21:11Z</time>
      </trkpt>
      <trkpt lat="42.9779290" lon="0.6729730">
        <ele>673.9</ele>
        <time>2020-07-29T07:21:13Z</time>
      </trkpt>
      <trkpt lat="42.9779890" lon="0.6730730">
        <ele>674.4</ele>
        <time>2020-07-29T07:21:16Z</time>
      </trkpt>
      <trkpt lat="42.9780440" lon="0.6731430">
        <ele>674.8</ele>
        <time>2020-07-29T07:21:18Z</time>
      </trkpt>
      <trkpt lat="42.9780590" lon="0.6731780">
        <ele>675.0</ele>
        <time>2020-07-29T07:21:19Z</time>
      </trkpt>
      <trkpt lat="42.9781320" lon="0.6733080">
        <ele>675.7</ele>
        <time>2020-07-29T07:21:23Z</time>
      </trkpt>
      <trkpt lat="42.9782060" lon="0.6734260">
        <ele>676.3</ele>
        <time>2020-07-29T07:21:26Z</time>
      </trkpt>
      <trkpt lat="42.9782700" lon="0.6735380">
        <ele>677.0</ele>
        <time>2020-07-29T07:21:29Z</time>
      </trkpt>
      <trkpt lat="42.9783080" lon="0.6736090">
        <ele>677.3</ele>
        <time>2020-07-29T07:21:31Z</time>
      </trkpt>
      <trkpt lat="42.9784290" lon="0.6737910">
        <ele>678.4</ele>
        <time>2020-07-29T07:21:36Z</time>
      </trkpt>
      <trkpt lat="42.9784460" lon="0.6738270">
        <ele>678.6</ele>
        <time>2020-07-29T07:21:37Z</time>
      </trkpt>
      <trkpt lat="42.9785540" lon="0.6739610">
        <ele>679.4</ele>
        <time>2020-07-29T07:21:41Z</time>
      </trkpt>
      <trkpt lat="42.9785960" lon="0.6740170">
        <ele>679.7</ele>
        <time>2020-07-29T07:21:43Z</time>
      </trkpt>
      <trkpt lat="42.9786850" lon="0.6741570">
        <ele>680.5</ele>
        <time>2020-07-29T07:21:47Z</time>
      </trkpt>
      <trkpt lat="42.9787340" lon="0.6742280">
        <ele>680.8</ele>
        <time>2020-07-29T07:21:49Z</time>
      </trkpt>
      <trkpt lat="42.9787890" lon="0.6743390">
        <ele>681.3</ele>
        <time>2020-07-29T07:21:52Z</time>
      </trkpt>
      <trkpt lat="42.9788690" lon="0.6744490">
        <ele>681.9</ele>
        <time>2020-07-29T07:21:55Z</time>
      </trkpt>
      <trkpt lat="42.9789220" lon="0.6745170">
        <ele>682.3</ele>
        <time>2020-07-29T07:21:57Z</time>
      </trkpt>
      <trkpt lat="42.9790330" lon="0.6746800">
        <ele>683.2</ele>
        <time>2020-07-29T07:22:02Z</time>
      </trkpt>
      <trkpt lat="42.9790600" lon="0.6747150">
        <ele>683.4</ele>
        <time>2020-07-29T07:22:03Z</time>
      </trkpt>
      <trkpt lat="42.9791850" lon="0.6749010">
        <ele>684.3</ele>
        <time>2020-07-29T07:22:08Z</time>
      </trkpt>
      <trkpt lat="42.9792960" lon="0.6750770">
        <ele>685.1</ele>
        <time>2020-07-29T07:22:13Z</time>
      </trkpt>
      <trkpt lat="42.9793170" lon="0.6751140">
        <ele>685.3</ele>
        <time>2020-07-29T07:22:14Z</time>
      </trkpt>
      <trkpt lat="42.9794260" lon="0.6752890">
        <ele>686.1</ele>
        <time>2020-07-29T07:22:19Z</time>
      </trkpt>
      <trkpt lat="42.9794520" lon="0.6753220">
        <ele>686.3</ele>
        <time>2020-07-29T07:22:20Z</time>
      </trkpt>
      <trkpt lat="42.9795700" lon="0.6754930">
        <ele>687.2</ele>
        <time>2020-07-29T07:22:25Z</time>
      </trkpt>
      <trkpt lat="42.9796250" lon="0.6755830">
        <ele>687.8</ele>
        <time>2020-07-29T07:22:28Z</time>
      </trkpt>
      <trkpt lat="42.9796430" lon="0.6756080">
        <ele>687.9</ele>
        <time>2020-07-29T07:22:29Z</time>
      </trkpt>
      <trkpt lat="42.9797500" lon="0.6757230">
        <ele>688.8</ele>
        <time>2020-07-29T07:22:33Z</time>
      </trkpt>
      <trkpt lat="42.9798170" lon="0.6757800">
        <ele>689.3</ele>
        <time>2020-07-29T07:22:35Z</time>
      </trkpt>
      <trkpt lat="42.9799370" lon="0.6759050">
        <ele>690.2</ele>
        <time>2020-07-29T07:22:39Z</time>
      </trkpt>
      <trkpt lat="42.9799670" lon="0.6759350">
        <ele>690.5</ele>
        <time>2020-07-29T07:22:40Z</time>
      </trkpt>
      <trkpt lat="42.9801020" lon="0.6760790">
        <ele>691.5</ele>
        <time>2020-07-29T07:22:45Z</time>
      </trkpt>
      <trkpt lat="42.9802060" lon="0.6762250">
        <ele>692.4</ele>
        <time>2020-07-29T07:22:50Z</time>
      </trkpt>
      <trkpt lat="42.9802250" lon="0.6762530">
        <ele>692.5</ele>
        <time>2020-07-29T07:22:51Z</time>
      </trkpt>
      <trkpt lat="42.9803410" lon="0.6763660">
        <ele>693.4</ele>
        <time>2020-07-29T07:22:55Z</time>
      </trkpt>
      <trkpt lat="42.9803620" lon="0.6763980">
        <ele>693.5</ele>
        <time>2020-07-29T07:22:56Z</time>
      </trkpt>
      <trkpt lat="42.9805070" lon="0.6765320">
        <ele>694.5</ele>
        <time>2020-07-29T07:23:01Z</time>
      </trkpt>
      <trkpt lat="42.9806650" lon="0.6766490">
        <ele>695.4</ele>
        <time>2020-07-29T07:23:06Z</time>
      </trkpt>
      <trkpt lat="42.9807240" lon="0.6766950">
        <ele>695.7</ele>
        <time>2020-07-29T07:23:08Z</time>
      </trkpt>
      <trkpt lat="42.9808440" lon="0.6767610">
        <ele>696.3</ele>
        <time>2020-07-29T07:23:12Z</time>
      </trkpt>
      <trkpt lat="42.9809960" lon="0.6768600">
        <ele>697.2</ele>
        <time>2020-07-29T07:23:17Z</time>
      </trkpt>
      <trkpt lat="42.9810620" lon="0.6769010">
        <ele>697.6</ele>
        <time>2020-07-29T07:23:19Z</time>
      </trkpt>
      <trkpt lat="42.9811820" lon="0.6769970">
        <ele>698.3</ele>
        <time>2020-07-29T07:23:23Z</time>
      </trkpt>
      <trkpt lat="42.9812050" lon="0.6770180">
        <ele>698.5</ele>
        <time>2020-07-29T07:23:24Z</time>
      </trkpt>
      <trkpt lat="42.9813820" lon="0.6771450">
        <ele>699.6</ele>
        <time>2020-07-29T07:23:30Z</time>
      </trkpt>
      <trkpt lat="42.9814620" lon="0.6772200">
        <ele>700.2</ele>
        <time>2020-07-29T07:23:33Z</time>
      </trkpt>
      <trkpt lat="42.9815400" lon="0.6773250">
        <ele>700.9</ele>
        <time>2020-07-29T07:23:37Z</time>
      </trkpt>
      <trkpt lat="42.9815890" lon="0.6773720">
        <ele>701.3</ele>
        <time>2020-07-29T07:23:39Z</time>
      </trkpt>
      <trkpt lat="42.9816760" lon="0.6774880">
        <ele>702.0</ele>
        <time>2020-07-29T07:23:43Z</time>
      </trkpt>
      <trkpt lat="42.9817270" lon="0.6775480">
        <ele>702.4</ele>
        <time>2020-07-29T07:23:45Z</time>
      </trkpt>
      <trkpt lat="42.9818100" lon="0.6776860">
        <ele>703.2</ele>
        <time>2020-07-29T07:23:49Z</time>
      </trkpt>
      <trkpt lat="42.9818540" lon="0.6777600">
        <ele>703.6</ele>
        <time>2020-07-29T07:23:51Z</time>
      </trkpt>
      <trkpt lat="42.9819460" lon="0.6779590">
        <ele>704.6</ele>
        <time>2020-07-29T07:23:56Z</time>
      </trkpt>
      <trkpt lat="42.9819650" lon="0.6780020">
        <ele>704.8</ele>
        <time>2020-07-29T07:23:57Z</time>
      </trkpt>
      <trkpt lat="42.9820060" lon="0.6781910">
        <ele>705.7</ele>
        <time>2020-07-29T07:24:02Z</time>
      </trkpt>
      <trkpt lat="42.9820070" lon="0.6782240">
        <ele>705.9</ele>
        <time>2020-07-29T07:24:03Z</time>
      </trkpt>
      <trkpt lat="42.9819970" lon="0.6784410">
        <ele>706.9</ele>
        <time>2020-07-29T07:24:08Z</time>
      </trkpt>
      <trkpt lat="42.9819970" lon="0.6784930">
        <ele>707.1</ele>
        <time>2020-07-29T07:24:09Z</time>
      </trkpt>
      <trkpt lat="42.9820090" lon="0.6786650">
        <ele>707.8</ele>
        <time>2020-07-29T07:24:13Z</time>
      </trkpt>
      <trkpt lat="42.9820200" lon="0.6787430">
        <ele>708.1</ele>
        <time>2020-07-29T07:24:15Z</time>
      </trkpt>
      <trkpt lat="42.9820250" lon="0.6789590">
        <ele>709.0</ele>
        <time>2020-07-29T07:24:19Z</time>
      </trkpt>
      <trkpt lat="42.9820290" lon="0.6790680">
        <ele>709.5</ele>
        <time>2020-07-29T07:24:21Z</time>
      </trkpt>
      <trkpt lat="42.9820710" lon="0.6793010">
        <ele>710.5</ele>
        <time>2020-07-29T07:24:25Z</time>
      </trkpt>
      <trkpt lat="42.9820730" lon="0.6793510">
        <ele>710.6</ele>
        <time>2020-07-29T07:24:26Z</time>
      </trkpt>
      <trkpt lat="42.9821010" lon="0.6795060">
        <ele>711.2</ele>
        <time>2020-07-29T07:24:30Z</time>
      </trkpt>
      <trkpt lat="42.9821610" lon="0.6796000">
        <ele>711.7</ele>
        <time>2020-07-29T07:24:32Z</time>
      </trkpt>
      <trkpt lat="42.9823100" lon="0.6797210">
        <ele>712.6</ele>
        <time>2020-07-29T07:24:36Z</time>
      </trkpt>
      <trkpt lat="42.9823440" lon="0.6797530">
        <ele>712.8</ele>
        <time>2020-07-29T07:24:37Z</time>
      </trkpt>
      <trkpt lat="42.9825320" lon="0.6799040">
        <ele>713.9</ele>
        <time>2020-07-29T07:24:43Z</time>
      </trkpt>
      <trkpt lat="42.9826460" lon="0.6799350">
        <ele>714.5</ele>
        <time>2020-07-29T07:24:46Z</time>
      </trkpt>
      <trkpt lat="42.9827610" lon="0.6799430">
        <ele>715.1</ele>
        <time>2020-07-29T07:24:48Z</time>
      </trkpt>
      <trkpt lat="42.9829700" lon="0.6799230">
        <ele>716.4</ele>
        <time>2020-07-29T07:24:53Z</time>
      </trkpt>
      <trkpt lat="42.9830420" lon="0.6799090">
        <ele>716.8</ele>
        <time>2020-07-29T07:24:55Z</time>
      </trkpt>
      <trkpt lat="42.9831070" lon="0.6799240">
        <ele>717.2</ele>
        <time>2020-07-29T07:24:58Z</time>
      </trkpt>
      <trkpt lat="42.9831690" lon="0.6799530">
        <ele>717.6</ele>
        <time>2020-07-29T07:25:00Z</time>
      </trkpt>
      <trkpt lat="42.9832410" lon="0.6799960">
        <ele>718.1</ele>
        <time>2020-07-29T07:25:02Z</time>
      </trkpt>
      <trkpt lat="42.9833560" lon="0.6800920">
        <ele>718.9</ele>
        <time>2020-07-29T07:25:07Z</time>
      </trkpt>
      <trkpt lat="42.9834580" lon="0.6801630">
        <ele>719.5</ele>
        <time>2020-07-29T07:25:11Z</time>
      </trkpt>
      <trkpt lat="42.9834880" lon="0.6801830">
        <ele>719.7</ele>
        <time>2020-07-29T07:25:12Z</time>
      </trkpt>
      <trkpt lat="42.9835530" lon="0.6802150">
        <ele>720.1</ele>
        <time>2020-07-29T07:25:15Z</time>
      </trkpt>
      <trkpt lat="42.9836090" lon="0.6802390">
        <ele>720.4</ele>
        <time>2020-07-29T07:25:17Z</time>
      </trkpt>
      <trkpt lat="42.9836630" lon="0.6802680">
        <ele>720.7</ele>
        <time>2020-07-29T07:25:19Z</time>
      </trkpt>
      <trkpt lat="42.9837330" lon="0.6803510">
        <ele>721.1</ele>
        <time>2020-07-29T07:25:23Z</time>
      </trkpt>
      <trkpt lat="42.9837750" lon="0.6803980">
        <ele>721.4</ele>
        <time>2020-07-29T07:25:25Z</time>
      </trkpt>
      <trkpt lat="42.9838900" lon="0.6805010">
        <ele>722.2</ele>
        <time>2020-07-29T07:25:29Z</time>
      </trkpt>
      <trkpt lat="42.9839480" lon="0.6805570">
        <ele>722.6</ele>
        <time>2020-07-29T07:25:31Z</time>
      </trkpt>
      <trkpt lat="42.9840670" lon="0.6806940">
        <ele>723.5</ele>
        <time>2020-07-29T07:25:36Z</time>
      </trkpt>
      <trkpt lat="42.9840930" lon="0.6807230">
        <ele>723.7</ele>
        <time>2020-07-29T07:25:37Z</time>
      </trkpt>
      <trkpt lat="42.9842350" lon="0.6808580">
        <ele>724.7</ele>
        <time>2020-07-29T07:25:42Z</time>
      </trkpt>
      <trkpt lat="42.9842600" lon="0.6808900">
        <ele>724.9</ele>
        <time>2020-07-29T07:25:43Z</time>
      </trkpt>
      <trkpt lat="42.9843840" lon="0.6810220">
        <ele>725.9</ele>
        <time>2020-07-29T07:25:47Z</time>
      </trkpt>
      <trkpt lat="42.9844330" lon="0.6810860">
        <ele>726.2</ele>
        <time>2020-07-29T07:25:49Z</time>
      </trkpt>
      <trkpt lat="42.9844940" lon="0.6811960">
        <ele>726.8</ele>
        <time>2020-07-29T07:25:52Z</time>
      </trkpt>
      <trkpt lat="42.9845840" lon="0.6813390">
        <ele>727.5</ele>
        <time>2020-07-29T07:25:56Z</time>
      </trkpt>
      <trkpt lat="42.9845980" lon="0.6813730">
        <ele>727.7</ele>
        <time>2020-07-29T07:25:57Z</time>
      </trkpt>
      <trkpt lat="42.9847170" lon="0.6815520">
        <ele>728.7</ele>
        <time>2020-07-29T07:26:02Z</time>
      </trkpt>
      <trkpt lat="42.9847630" lon="0.6816320">
        <ele>729.1</ele>
        <time>2020-07-29T07:26:04Z</time>
      </trkpt>
      <trkpt lat="42.9848690" lon="0.6817730">
        <ele>729.8</ele>
        <time>2020-07-29T07:26:08Z</time>
      </trkpt>
      <trkpt lat="42.9849350" lon="0.6818950">
        <ele>730.4</ele>
        <time>2020-07-29T07:26:11Z</time>
      </trkpt>
      <trkpt lat="42.9849780" lon="0.6820250">
        <ele>731.0</ele>
        <time>2020-07-29T07:26:14Z</time>
      </trkpt>
      <trkpt lat="42.9850550" lon="0.6821990">
        <ele>731.7</ele>
        <time>2020-07-29T07:26:18Z</time>
      </trkpt>
      <trkpt lat="42.9851020" lon="0.6823370">
        <ele>732.3</ele>
        <time>2020-07-29T07:26:21Z</time>
      </trkpt>
      <trkpt lat="42.9851510" lon="0.6825190">
        <ele>733.1</ele>
        <time>2020-07-29T07:26:25Z</time>
      </trkpt>
      <trkpt lat="42.9851780" lon="0.6826570">
        <ele>733.7</ele>
        <time>2020-07-29T07:26:28Z</time>
      </trkpt>
      <trkpt lat="42.9851870" lon="0.6827440">
        <ele>734.1</ele>
        <time>2020-07-29T07:26:30Z</time>
      </trkpt>
      <trkpt lat="42.9852420" lon="0.6829620">
        <ele>735.1</ele>
        <time>2020-07-29T07:26:35Z</time>
      </trkpt>
      <trkpt lat="42.9853180" lon="0.6831940">
        <ele>736.5</ele>
        <time>2020-07-29T07:26:40Z</time>
      </trkpt>
      <trkpt lat="42.9853260" lon="0.6832410">
        <ele>736.8</ele>
        <time>2020-07-29T07:26:41Z</time>
      </trkpt>
      <trkpt lat="42.9853280" lon="0.6835130">
        <ele>738.0</ele>
        <time>2020-07-29T07:26:47Z</time>
      </trkpt>
      <trkpt lat="42.9852930" lon="0.6837030">
        <ele>738.8</ele>
        <time>2020-07-29T07:26:52Z</time>
      </trkpt>
      <trkpt lat="42.9852920" lon="0.6837450">
        <ele>739.0</ele>
        <time>2020-07-29T07:26:53Z</time>
      </trkpt>
      <trkpt lat="42.9853310" lon="0.6839680">
        <ele>739.9</ele>
        <time>2020-07-29T07:26:58Z</time>
      </trkpt>
      <trkpt lat="42.9853820" lon="0.6841060">
        <ele>740.6</ele>
        <time>2020-07-29T07:27:02Z</time>
      </trkpt>
      <trkpt lat="42.9854320" lon="0.6841980">
        <ele>741.1</ele>
        <time>2020-07-29T07:27:05Z</time>
      </trkpt>
      <trkpt lat="42.9854890" lon="0.6842610">
        <ele>741.5</ele>
        <time>2020-07-29T07:27:07Z</time>
      </trkpt>
      <trkpt lat="42.9856020" lon="0.6843850">
        <ele>742.2</ele>
        <time>2020-07-29T07:27:11Z</time>
      </trkpt>
      <trkpt lat="42.9856600" lon="0.6844420">
        <ele>742.6</ele>
        <time>2020-07-29T07:27:13Z</time>
      </trkpt>
      <trkpt lat="42.9857910" lon="0.6845500">
        <ele>743.4</ele>
        <time>2020-07-29T07:27:17Z</time>
      </trkpt>
      <trkpt lat="42.9858180" lon="0.6845800">
        <ele>743.6</ele>
        <time>2020-07-29T07:27:18Z</time>
      </trkpt>
      <trkpt lat="42.9859780" lon="0.6847480">
        <ele>744.7</ele>
        <time>2020-07-29T07:27:24Z</time>
      </trkpt>
      <trkpt lat="42.9860110" lon="0.6847750">
        <ele>744.9</ele>
        <time>2020-07-29T07:27:25Z</time>
      </trkpt>
      <trkpt lat="42.9860820" lon="0.6848570">
        <ele>745.4</ele>
        <time>2020-07-29T07:27:28Z</time>
      </trkpt>
      <trkpt lat="42.9861600" lon="0.6849320">
        <ele>745.9</ele>
        <time>2020-07-29T07:27:31Z</time>
      </trkpt>
      <trkpt lat="42.9862560" lon="0.6850420">
        <ele>746.6</ele>
        <time>2020-07-29T07:27:35Z</time>
      </trkpt>
      <trkpt lat="42.9863370" lon="0.6851660">
        <ele>747.3</ele>
        <time>2020-07-29T07:27:39Z</time>
      </trkpt>
      <trkpt lat="42.9863990" lon="0.6852300">
        <ele>747.7</ele>
        <time>2020-07-29T07:27:41Z</time>
      </trkpt>
      <trkpt lat="42.9865330" lon="0.6854450">
        <ele>748.8</ele>
        <time>2020-07-29T07:27:47Z</time>
      </trkpt>
      <trkpt lat="42.9866640" lon="0.6857050">
        <ele>750.2</ele>
        <time>2020-07-29T07:27:54Z</time>
      </trkpt>
      <trkpt lat="42.9866820" lon="0.6857430">
        <ele>750.4</ele>
        <time>2020-07-29T07:27:55Z</time>
      </trkpt>
      <trkpt lat="42.9867720" lon="0.6859370">
        <ele>751.3</ele>
        <time>2020-07-29T07:28:00Z</time>
      </trkpt>
      <trkpt lat="42.9868330" lon="0.6860590">
        <ele>751.9</ele>
        <time>2020-07-29T07:28:03Z</time>
      </trkpt>
      <trkpt lat="42.9868770" lon="0.6861420">
        <ele>752.3</ele>
        <time>2020-07-29T07:28:05Z</time>
      </trkpt>
      <trkpt lat="42.9869660" lon="0.6864480">
        <ele>753.6</ele>
        <time>2020-07-29T07:28:12Z</time>
      </trkpt>
      <trkpt lat="42.9870260" lon="0.6868010">
        <ele>755.0</ele>
        <time>2020-07-29T07:28:20Z</time>
      </trkpt>
      <trkpt lat="42.9870570" lon="0.6870160">
        <ele>756.0</ele>
        <time>2020-07-29T07:28:25Z</time>
      </trkpt>
      <trkpt lat="42.9870920" lon="0.6870990">
        <ele>756.4</ele>
        <time>2020-07-29T07:28:27Z</time>
      </trkpt>
      <trkpt lat="42.9871350" lon="0.6873130">
        <ele>757.2</ele>
        <time>2020-07-29T07:28:32Z</time>
      </trkpt>
      <trkpt lat="42.9871700" lon="0.6874430">
        <ele>757.8</ele>
        <time>2020-07-29T07:28:35Z</time>
      </trkpt>
      <trkpt lat="42.9871690" lon="0.6874840">
        <ele>757.9</ele>
        <time>2020-07-29T07:28:36Z</time>
      </trkpt>
      <trkpt lat="42.9871700" lon="0.6876600">
        <ele>758.7</ele>
        <time>2020-07-29T07:28:40Z</time>
      </trkpt>
      <trkpt lat="42.9871680" lon="0.6877500">
        <ele>759.0</ele>
        <time>2020-07-29T07:28:42Z</time>
      </trkpt>
      <trkpt lat="42.9871680" lon="0.6879810">
        <ele>760.0</ele>
        <time>2020-07-29T07:28:47Z</time>
      </trkpt>
      <trkpt lat="42.9872300" lon="0.6882400">
        <ele>761.2</ele>
        <time>2020-07-29T07:28:53Z</time>
      </trkpt>
      <trkpt lat="42.9872030" lon="0.6883720">
        <ele>761.8</ele>
        <time>2020-07-29T07:28:56Z</time>
      </trkpt>
      <trkpt lat="42.9871750" lon="0.6884790">
        <ele>762.3</ele>
        <time>2020-07-29T07:28:59Z</time>
      </trkpt>
      <trkpt lat="42.9871620" lon="0.6885300">
        <ele>762.5</ele>
        <time>2020-07-29T07:29:01Z</time>
      </trkpt>
      <trkpt lat="42.9871580" lon="0.6886650">
        <ele>763.1</ele>
        <time>2020-07-29T07:29:05Z</time>
      </trkpt>
      <trkpt lat="42.9871570" lon="0.6887120">
        <ele>763.3</ele>
        <time>2020-07-29T07:29:06Z</time>
      </trkpt>
      <trkpt lat="42.9871620" lon="0.6888770">
        <ele>764.0</ele>
        <time>2020-07-29T07:29:09Z</time>
      </trkpt>
      <trkpt lat="42.9871720" lon="0.6889310">
        <ele>764.2</ele>
        <time>2020-07-29T07:29:10Z</time>
      </trkpt>
      <trkpt lat="42.9872920" lon="0.6891460">
        <ele>765.1</ele>
        <time>2020-07-29T07:29:15Z</time>
      </trkpt>
      <trkpt lat="42.9874300" lon="0.6892890">
        <ele>766.0</ele>
        <time>2020-07-29T07:29:20Z</time>
      </trkpt>
      <trkpt lat="42.9874780" lon="0.6893120">
        <ele>766.3</ele>
        <time>2020-07-29T07:29:21Z</time>
      </trkpt>
      <trkpt lat="42.9875510" lon="0.6893380">
        <ele>766.7</ele>
        <time>2020-07-29T07:29:23Z</time>
      </trkpt>
      <trkpt lat="42.9876970" lon="0.6893790">
        <ele>767.5</ele>
        <time>2020-07-29T07:29:28Z</time>
      </trkpt>
      <trkpt lat="42.9878170" lon="0.6894090">
        <ele>768.2</ele>
        <time>2020-07-29T07:29:34Z</time>
      </trkpt>
      <trkpt lat="42.9879510" lon="0.6894710">
        <ele>768.9</ele>
        <time>2020-07-29T07:29:39Z</time>
      </trkpt>
      <trkpt lat="42.9879840" lon="0.6894980">
        <ele>769.1</ele>
        <time>2020-07-29T07:29:40Z</time>
      </trkpt>
      <trkpt lat="42.9880360" lon="0.6895530">
        <ele>769.5</ele>
        <time>2020-07-29T07:29:42Z</time>
      </trkpt>
      <trkpt lat="42.9880640" lon="0.6896170">
        <ele>769.8</ele>
        <time>2020-07-29T07:29:44Z</time>
      </trkpt>
      <trkpt lat="42.9881100" lon="0.6897300">
        <ele>770.3</ele>
        <time>2020-07-29T07:29:47Z</time>
      </trkpt>
      <trkpt lat="42.9881420" lon="0.6898470">
        <ele>770.8</ele>
        <time>2020-07-29T07:29:50Z</time>
      </trkpt>
      <trkpt lat="42.9881860" lon="0.6900050">
        <ele>771.6</ele>
        <time>2020-07-29T07:29:54Z</time>
      </trkpt>
      <trkpt lat="42.9882550" lon="0.6901600">
        <ele>772.4</ele>
        <time>2020-07-29T07:29:58Z</time>
      </trkpt>
      <trkpt lat="42.9882800" lon="0.6902020">
        <ele>772.6</ele>
        <time>2020-07-29T07:29:59Z</time>
      </trkpt>
      <trkpt lat="42.9884010" lon="0.6904110">
        <ele>773.8</ele>
        <time>2020-07-29T07:30:04Z</time>
      </trkpt>
      <trkpt lat="42.9884720" lon="0.6905380">
        <ele>774.4</ele>
        <time>2020-07-29T07:30:07Z</time>
      </trkpt>
      <trkpt lat="42.9885470" lon="0.6907120">
        <ele>775.3</ele>
        <time>2020-07-29T07:30:11Z</time>
      </trkpt>
      <trkpt lat="42.9886460" lon="0.6910190">
        <ele>776.6</ele>
        <time>2020-07-29T07:30:18Z</time>
      </trkpt>
      <trkpt lat="42.9886570" lon="0.6910640">
        <ele>776.8</ele>
        <time>2020-07-29T07:30:19Z</time>
      </trkpt>
      <trkpt lat="42.9886950" lon="0.6912880">
        <ele>777.9</ele>
        <time>2020-07-29T07:30:24Z</time>
      </trkpt>
      <trkpt lat="42.9887060" lon="0.6913330">
        <ele>778.1</ele>
        <time>2020-07-29T07:30:25Z</time>
      </trkpt>
      <trkpt lat="42.9887860" lon="0.6915630">
        <ele>779.2</ele>
        <time>2020-07-29T07:30:30Z</time>
      </trkpt>
      <trkpt lat="42.9888140" lon="0.6916490">
        <ele>779.6</ele>
        <time>2020-07-29T07:30:32Z</time>
      </trkpt>
      <trkpt lat="42.9887820" lon="0.6918050">
        <ele>780.3</ele>
        <time>2020-07-29T07:30:36Z</time>
      </trkpt>
      <trkpt lat="42.9887520" lon="0.6918800">
        <ele>780.7</ele>
        <time>2020-07-29T07:30:38Z</time>
      </trkpt>
      <trkpt lat="42.9887030" lon="0.6920340">
        <ele>781.4</ele>
        <time>2020-07-29T07:30:42Z</time>
      </trkpt>
      <trkpt lat="42.9886920" lon="0.6921590">
        <ele>781.9</ele>
        <time>2020-07-29T07:30:45Z</time>
      </trkpt>
      <trkpt lat="42.9886920" lon="0.6922080">
        <ele>782.1</ele>
        <time>2020-07-29T07:30:46Z</time>
      </trkpt>
      <trkpt lat="42.9887070" lon="0.6924950">
        <ele>783.3</ele>
        <time>2020-07-29T07:30:52Z</time>
      </trkpt>
      <trkpt lat="42.9886980" lon="0.6926240">
        <ele>783.7</ele>
        <time>2020-07-29T07:30:55Z</time>
      </trkpt>
      <trkpt lat="42.9887070" lon="0.6926900">
        <ele>784.0</ele>
        <time>2020-07-29T07:30:57Z</time>
      </trkpt>
      <trkpt lat="42.9887050" lon="0.6927200">
        <ele>784.1</ele>
        <time>2020-07-29T07:30:58Z</time>
      </trkpt>
      <trkpt lat="42.9887380" lon="0.6928200">
        <ele>784.6</ele>
        <time>2020-07-29T07:31:01Z</time>
      </trkpt>
      <trkpt lat="42.9887580" lon="0.6928550">
        <ele>784.7</ele>
        <time>2020-07-29T07:31:02Z</time>
      </trkpt>
      <trkpt lat="42.9888510" lon="0.6929910">
        <ele>785.5</ele>
        <time>2020-07-29T07:31:06Z</time>
      </trkpt>
      <trkpt lat="42.9889160" lon="0.6931120">
        <ele>786.0</ele>
        <time>2020-07-29T07:31:09Z</time>
      </trkpt>
      <trkpt lat="42.9890100" lon="0.6932630">
        <ele>786.7</ele>
        <time>2020-07-29T07:31:13Z</time>
      </trkpt>
      <trkpt lat="42.9890720" lon="0.6933280">
        <ele>787.1</ele>
        <time>2020-07-29T07:31:15Z</time>
      </trkpt>
      <trkpt lat="42.9891660" lon="0.6934210">
        <ele>787.7</ele>
        <time>2020-07-29T07:31:18Z</time>
      </trkpt>
      <trkpt lat="42.9892740" lon="0.6935010">
        <ele>788.2</ele>
        <time>2020-07-29T07:31:21Z</time>
      </trkpt>
      <trkpt lat="42.9893840" lon="0.6935590">
        <ele>788.8</ele>
        <time>2020-07-29T07:31:24Z</time>
      </trkpt>
      <trkpt lat="42.9894330" lon="0.6935720">
        <ele>789.0</ele>
        <time>2020-07-29T07:31:26Z</time>
      </trkpt>
      <trkpt lat="42.9896480" lon="0.6936020">
        <ele>790.2</ele>
        <time>2020-07-29T07:31:31Z</time>
      </trkpt>
      <trkpt lat="42.9897920" lon="0.6935510">
        <ele>791.0</ele>
        <time>2020-07-29T07:31:34Z</time>
      </trkpt>
      <trkpt lat="42.9899580" lon="0.6934690">
        <ele>792.1</ele>
        <time>2020-07-29T07:31:38Z</time>
      </trkpt>
      <trkpt lat="42.9901620" lon="0.6934040">
        <ele>793.4</ele>
        <time>2020-07-29T07:31:44Z</time>
      </trkpt>
      <trkpt lat="42.9902890" lon="0.6934250">
        <ele>794.2</ele>
        <time>2020-07-29T07:31:49Z</time>
      </trkpt>
      <trkpt lat="42.9904120" lon="0.6935070">
        <ele>795.0</ele>
        <time>2020-07-29T07:31:53Z</time>
      </trkpt>
      <trkpt lat="42.9905350" lon="0.6936120">
        <ele>795.9</ele>
        <time>2020-07-29T07:31:58Z</time>
      </trkpt>
      <trkpt lat="42.9905640" lon="0.6936400">
        <ele>796.0</ele>
        <time>2020-07-29T07:31:59Z</time>
      </trkpt>
      <trkpt lat="42.9906340" lon="0.6937390">
        <ele>796.4</ele>
        <time>2020-07-29T07:32:02Z</time>
      </trkpt>
      <trkpt lat="42.9909980" lon="0.6940950">
        <ele>796.3</ele>
        <time>2020-07-29T07:34:14Z</time>
      </trkpt>
      <trkpt lat="42.9910080" lon="0.6941310">
        <ele>796.2</ele>
        <time>2020-07-29T07:34:15Z</time>
      </trkpt>
      <trkpt lat="42.9910500" lon="0.6943640">
        <ele>795.7</ele>
        <time>2020-07-29T07:34:19Z</time>
      </trkpt>
      <trkpt lat="42.9910530" lon="0.6948010">
        <ele>794.0</ele>
        <time>2020-07-29T07:34:24Z</time>
      </trkpt>
      <trkpt lat="42.9910720" lon="0.6950010">
        <ele>793.2</ele>
        <time>2020-07-29T07:34:26Z</time>
      </trkpt>
      <trkpt lat="42.9911210" lon="0.6952000">
        <ele>792.4</ele>
        <time>2020-07-29T07:34:28Z</time>
      </trkpt>
      <trkpt lat="42.9911510" lon="0.6952990">
        <ele>792.0</ele>
        <time>2020-07-29T07:34:29Z</time>
      </trkpt>
      <trkpt lat="42.9912280" lon="0.6956160">
        <ele>790.6</ele>
        <time>2020-07-29T07:34:32Z</time>
      </trkpt>
      <trkpt lat="42.9912460" lon="0.6957280">
        <ele>790.1</ele>
        <time>2020-07-29T07:34:33Z</time>
      </trkpt>
      <trkpt lat="42.9912700" lon="0.6958450">
        <ele>789.5</ele>
        <time>2020-07-29T07:34:34Z</time>
      </trkpt>
      <trkpt lat="42.9913110" lon="0.6961000">
        <ele>788.3</ele>
        <time>2020-07-29T07:34:36Z</time>
      </trkpt>
      <trkpt lat="42.9913450" lon="0.6963840">
        <ele>787.1</ele>
        <time>2020-07-29T07:34:38Z</time>
      </trkpt>
      <trkpt lat="42.9913590" lon="0.6965300">
        <ele>786.5</ele>
        <time>2020-07-29T07:34:39Z</time>
      </trkpt>
      <trkpt lat="42.9913780" lon="0.6968300">
        <ele>785.4</ele>
        <time>2020-07-29T07:34:41Z</time>
      </trkpt>
      <trkpt lat="42.9913910" lon="0.6971350">
        <ele>784.2</ele>
        <time>2020-07-29T07:34:43Z</time>
      </trkpt>
      <trkpt lat="42.9914050" lon="0.6974370">
        <ele>783.0</ele>
        <time>2020-07-29T07:34:45Z</time>
      </trkpt>
      <trkpt lat="42.9914210" lon="0.6977270">
        <ele>782.0</ele>
        <time>2020-07-29T07:34:47Z</time>
      </trkpt>
      <trkpt lat="42.9914390" lon="0.6981540">
        <ele>780.4</ele>
        <time>2020-07-29T07:34:50Z</time>
      </trkpt>
      <trkpt lat="42.9914730" lon="0.6984320">
        <ele>779.3</ele>
        <time>2020-07-29T07:34:52Z</time>
      </trkpt>
      <trkpt lat="42.9914930" lon="0.6985670">
        <ele>778.8</ele>
        <time>2020-07-29T07:34:53Z</time>
      </trkpt>
      <trkpt lat="42.9915300" lon="0.6989750">
        <ele>777.1</ele>
        <time>2020-07-29T07:34:56Z</time>
      </trkpt>
      <trkpt lat="42.9915190" lon="0.6991030">
        <ele>776.5</ele>
        <time>2020-07-29T07:34:57Z</time>
      </trkpt>
      <trkpt lat="42.9914660" lon="0.6993620">
        <ele>775.4</ele>
        <time>2020-07-29T07:34:59Z</time>
      </trkpt>
      <trkpt lat="42.9914460" lon="0.6994990">
        <ele>774.8</ele>
        <time>2020-07-29T07:35:00Z</time>
      </trkpt>
      <trkpt lat="42.9914360" lon="0.6996440">
        <ele>774.3</ele>
        <time>2020-07-29T07:35:01Z</time>
      </trkpt>
      <trkpt lat="42.9914390" lon="0.6999470">
        <ele>773.2</ele>
        <time>2020-07-29T07:35:03Z</time>
      </trkpt>
      <trkpt lat="42.9914550" lon="0.7002560">
        <ele>772.1</ele>
        <time>2020-07-29T07:35:05Z</time>
      </trkpt>
      <trkpt lat="42.9915010" lon="0.7007120">
        <ele>770.3</ele>
        <time>2020-07-29T07:35:08Z</time>
      </trkpt>
      <trkpt lat="42.9915470" lon="0.7010230">
        <ele>768.9</ele>
        <time>2020-07-29T07:35:10Z</time>
      </trkpt>
      <trkpt lat="42.9915820" lon="0.7013430">
        <ele>767.7</ele>
        <time>2020-07-29T07:35:12Z</time>
      </trkpt>
      <trkpt lat="42.9916200" lon="0.7018370">
        <ele>765.5</ele>
        <time>2020-07-29T07:35:14Z</time>
      </trkpt>
      <trkpt lat="42.9916420" lon="0.7021580">
        <ele>764.0</ele>
        <time>2020-07-29T07:35:16Z</time>
      </trkpt>
      <trkpt lat="42.9916370" lon="0.7023070">
        <ele>763.3</ele>
        <time>2020-07-29T07:35:17Z</time>
      </trkpt>
      <trkpt lat="42.9916120" lon="0.7024460">
        <ele>762.7</ele>
        <time>2020-07-29T07:35:18Z</time>
      </trkpt>
      <trkpt lat="42.9915840" lon="0.7025060">
        <ele>762.3</ele>
        <time>2020-07-29T07:35:19Z</time>
      </trkpt>
      <trkpt lat="42.9915560" lon="0.7025650">
        <ele>762.0</ele>
        <time>2020-07-29T07:35:20Z</time>
      </trkpt>
      <trkpt lat="42.9914990" lon="0.7026830">
        <ele>761.5</ele>
        <time>2020-07-29T07:35:21Z</time>
      </trkpt>
      <trkpt lat="42.9914230" lon="0.7027780">
        <ele>760.9</ele>
        <time>2020-07-29T07:35:22Z</time>
      </trkpt>
      <trkpt lat="42.9913340" lon="0.7028660">
        <ele>760.2</ele>
        <time>2020-07-29T07:35:23Z</time>
      </trkpt>
      <trkpt lat="42.9911430" lon="0.7029990">
        <ele>759.0</ele>
        <time>2020-07-29T07:35:25Z</time>
      </trkpt>
      <trkpt lat="42.9909750" lon="0.7031400">
        <ele>757.9</ele>
        <time>2020-07-29T07:35:27Z</time>
      </trkpt>
      <trkpt lat="42.9908630" lon="0.7033560">
        <ele>756.7</ele>
        <time>2020-07-29T07:35:28Z</time>
      </trkpt>
      <trkpt lat="42.9908380" lon="0.7034760">
        <ele>756.1</ele>
        <time>2020-07-29T07:35:29Z</time>
      </trkpt>
      <trkpt lat="42.9908320" lon="0.7035910">
        <ele>755.5</ele>
        <time>2020-07-29T07:35:31Z</time>
      </trkpt>
      <trkpt lat="42.9908310" lon="0.7039330">
        <ele>753.8</ele>
        <time>2020-07-29T07:35:34Z</time>
      </trkpt>
      <trkpt lat="42.9907870" lon="0.7040530">
        <ele>753.3</ele>
        <time>2020-07-29T07:35:35Z</time>
      </trkpt>
      <trkpt lat="42.9907430" lon="0.7041720">
        <ele>752.8</ele>
        <time>2020-07-29T07:35:36Z</time>
      </trkpt>
      <trkpt lat="42.9906840" lon="0.7042680">
        <ele>752.4</ele>
        <time>2020-07-29T07:35:37Z</time>
      </trkpt>
      <trkpt lat="42.9905870" lon="0.7044060">
        <ele>751.6</ele>
        <time>2020-07-29T07:35:39Z</time>
      </trkpt>
      <trkpt lat="42.9905480" lon="0.7044960">
        <ele>751.1</ele>
        <time>2020-07-29T07:35:40Z</time>
      </trkpt>
      <trkpt lat="42.9905200" lon="0.7045980">
        <ele>750.6</ele>
        <time>2020-07-29T07:35:41Z</time>
      </trkpt>
      <trkpt lat="42.9905000" lon="0.7048500">
        <ele>749.3</ele>
        <time>2020-07-29T07:35:43Z</time>
      </trkpt>
      <trkpt lat="42.9904870" lon="0.7053830">
        <ele>746.3</ele>
        <time>2020-07-29T07:35:46Z</time>
      </trkpt>
      <trkpt lat="42.9904770" lon="0.7056990">
        <ele>744.7</ele>
        <time>2020-07-29T07:35:48Z</time>
      </trkpt>
      <trkpt lat="42.9904690" lon="0.7058660">
        <ele>744.0</ele>
        <time>2020-07-29T07:35:49Z</time>
      </trkpt>
      <trkpt lat="42.9904330" lon="0.7062470">
        <ele>742.6</ele>
        <time>2020-07-29T07:35:51Z</time>
      </trkpt>
      <trkpt lat="42.9903770" lon="0.7066100">
        <ele>741.1</ele>
        <time>2020-07-29T07:35:53Z</time>
      </trkpt>
      <trkpt lat="42.9903340" lon="0.7067940">
        <ele>740.3</ele>
        <time>2020-07-29T07:35:54Z</time>
      </trkpt>
      <trkpt lat="42.9902790" lon="0.7069590">
        <ele>739.6</ele>
        <time>2020-07-29T07:35:55Z</time>
      </trkpt>
      <trkpt lat="42.9901510" lon="0.7073170">
        <ele>738.1</ele>
        <time>2020-07-29T07:35:57Z</time>
      </trkpt>
      <trkpt lat="42.9900930" lon="0.7074790">
        <ele>737.4</ele>
        <time>2020-07-29T07:35:58Z</time>
      </trkpt>
      <trkpt lat="42.9899510" lon="0.7077720">
        <ele>736.3</ele>
        <time>2020-07-29T07:36:00Z</time>
      </trkpt>
      <trkpt lat="42.9898650" lon="0.7078940">
        <ele>735.6</ele>
        <time>2020-07-29T07:36:01Z</time>
      </trkpt>
      <trkpt lat="42.9897760" lon="0.7079990">
        <ele>734.9</ele>
        <time>2020-07-29T07:36:02Z</time>
      </trkpt>
      <trkpt lat="42.9895200" lon="0.7083150">
        <ele>732.9</ele>
        <time>2020-07-29T07:36:04Z</time>
      </trkpt>
      <trkpt lat="42.9894830" lon="0.7084030">
        <ele>732.5</ele>
        <time>2020-07-29T07:36:05Z</time>
      </trkpt>
      <trkpt lat="42.9894450" lon="0.7084900">
        <ele>732.1</ele>
        <time>2020-07-29T07:36:06Z</time>
      </trkpt>
      <trkpt lat="42.9893690" lon="0.7086640">
        <ele>731.3</ele>
        <time>2020-07-29T07:36:07Z</time>
      </trkpt>
      <trkpt lat="42.9893410" lon="0.7087850">
        <ele>730.8</ele>
        <time>2020-07-29T07:36:08Z</time>
      </trkpt>
      <trkpt lat="42.9893220" lon="0.7089260">
        <ele>730.3</ele>
        <time>2020-07-29T07:36:09Z</time>
      </trkpt>
      <trkpt lat="42.9893120" lon="0.7090510">
        <ele>729.8</ele>
        <time>2020-07-29T07:36:10Z</time>
      </trkpt>
      <trkpt lat="42.9893020" lon="0.7091760">
        <ele>729.3</ele>
        <time>2020-07-29T07:36:12Z</time>
      </trkpt>
      <trkpt lat="42.9893540" lon="0.7096980">
        <ele>727.3</ele>
        <time>2020-07-29T07:36:15Z</time>
      </trkpt>
      <trkpt lat="42.9893780" lon="0.7100520">
        <ele>725.9</ele>
        <time>2020-07-29T07:36:17Z</time>
      </trkpt>
      <trkpt lat="42.9893920" lon="0.7104220">
        <ele>724.7</ele>
        <time>2020-07-29T07:36:19Z</time>
      </trkpt>
      <trkpt lat="42.9894030" lon="0.7105900">
        <ele>724.1</ele>
        <time>2020-07-29T07:36:20Z</time>
      </trkpt>
      <trkpt lat="42.9894100" lon="0.7107630">
        <ele>723.5</ele>
        <time>2020-07-29T07:36:21Z</time>
      </trkpt>
      <trkpt lat="42.9893930" lon="0.7111020">
        <ele>722.1</ele>
        <time>2020-07-29T07:36:23Z</time>
      </trkpt>
      <trkpt lat="42.9893770" lon="0.7112710">
        <ele>721.4</ele>
        <time>2020-07-29T07:36:24Z</time>
      </trkpt>
      <trkpt lat="42.9893540" lon="0.7114300">
        <ele>720.9</ele>
        <time>2020-07-29T07:36:25Z</time>
      </trkpt>
      <trkpt lat="42.9892720" lon="0.7117510">
        <ele>719.7</ele>
        <time>2020-07-29T07:36:27Z</time>
      </trkpt>
      <trkpt lat="42.9892150" lon="0.7118960">
        <ele>719.1</ele>
        <time>2020-07-29T07:36:28Z</time>
      </trkpt>
      <trkpt lat="42.9891550" lon="0.7120380">
        <ele>718.6</ele>
        <time>2020-07-29T07:36:29Z</time>
      </trkpt>
      <trkpt lat="42.9890320" lon="0.7123140">
        <ele>717.4</ele>
        <time>2020-07-29T07:36:31Z</time>
      </trkpt>
      <trkpt lat="42.9889160" lon="0.7125540">
        <ele>716.2</ele>
        <time>2020-07-29T07:36:33Z</time>
      </trkpt>
      <trkpt lat="42.9888430" lon="0.7126400">
        <ele>715.7</ele>
        <time>2020-07-29T07:36:34Z</time>
      </trkpt>
      <trkpt lat="42.9887600" lon="0.7127010">
        <ele>715.2</ele>
        <time>2020-07-29T07:36:35Z</time>
      </trkpt>
      <trkpt lat="42.9886730" lon="0.7127560">
        <ele>714.7</ele>
        <time>2020-07-29T07:36:36Z</time>
      </trkpt>
      <trkpt lat="42.9884780" lon="0.7128250">
        <ele>713.8</ele>
        <time>2020-07-29T07:36:38Z</time>
      </trkpt>
      <trkpt lat="42.9883770" lon="0.7128340">
        <ele>713.3</ele>
        <time>2020-07-29T07:36:39Z</time>
      </trkpt>
      <trkpt lat="42.9881650" lon="0.7128340">
        <ele>712.2</ele>
        <time>2020-07-29T07:36:41Z</time>
      </trkpt>
      <trkpt lat="42.9880600" lon="0.7128180">
        <ele>711.6</ele>
        <time>2020-07-29T07:36:42Z</time>
      </trkpt>
      <trkpt lat="42.9878380" lon="0.7128020">
        <ele>710.4</ele>
        <time>2020-07-29T07:36:44Z</time>
      </trkpt>
      <trkpt lat="42.9876110" lon="0.7128240">
        <ele>709.2</ele>
        <time>2020-07-29T07:36:46Z</time>
      </trkpt>
      <trkpt lat="42.9873880" lon="0.7128660">
        <ele>707.9</ele>
        <time>2020-07-29T07:36:48Z</time>
      </trkpt>
      <trkpt lat="42.9871670" lon="0.7129000">
        <ele>706.7</ele>
        <time>2020-07-29T07:36:50Z</time>
      </trkpt>
      <trkpt lat="42.9869400" lon="0.7129050">
        <ele>705.5</ele>
        <time>2020-07-29T07:36:52Z</time>
      </trkpt>
      <trkpt lat="42.9868280" lon="0.7128990">
        <ele>705.0</ele>
        <time>2020-07-29T07:36:53Z</time>
      </trkpt>
      <trkpt lat="42.9867170" lon="0.7128990">
        <ele>704.5</ele>
        <time>2020-07-29T07:36:54Z</time>
      </trkpt>
      <trkpt lat="42.9865220" lon="0.7128930">
        <ele>703.3</ele>
        <time>2020-07-29T07:36:56Z</time>
      </trkpt>
      <trkpt lat="42.9863370" lon="0.7128620">
        <ele>702.1</ele>
        <time>2020-07-29T07:36:58Z</time>
      </trkpt>
      <trkpt lat="42.9862380" lon="0.7128300">
        <ele>701.5</ele>
        <time>2020-07-29T07:36:59Z</time>
      </trkpt>
      <trkpt lat="42.9860450" lon="0.7127210">
        <ele>700.4</ele>
        <time>2020-07-29T07:37:01Z</time>
      </trkpt>
      <trkpt lat="42.9858590" lon="0.7125820">
        <ele>699.2</ele>
        <time>2020-07-29T07:37:03Z</time>
      </trkpt>
      <trkpt lat="42.9855660" lon="0.7123690">
        <ele>697.4</ele>
        <time>2020-07-29T07:37:06Z</time>
      </trkpt>
      <trkpt lat="42.9854650" lon="0.7122980">
        <ele>696.7</ele>
        <time>2020-07-29T07:37:07Z</time>
      </trkpt>
      <trkpt lat="42.9852540" lon="0.7121650">
        <ele>695.4</ele>
        <time>2020-07-29T07:37:09Z</time>
      </trkpt>
      <trkpt lat="42.9850460" lon="0.7120180">
        <ele>694.2</ele>
        <time>2020-07-29T07:37:11Z</time>
      </trkpt>
      <trkpt lat="42.9849500" lon="0.7119290">
        <ele>693.6</ele>
        <time>2020-07-29T07:37:12Z</time>
      </trkpt>
      <trkpt lat="42.9848570" lon="0.7118340">
        <ele>692.9</ele>
        <time>2020-07-29T07:37:13Z</time>
      </trkpt>
      <trkpt lat="42.9846920" lon="0.7116120">
        <ele>691.6</ele>
        <time>2020-07-29T07:37:15Z</time>
      </trkpt>
      <trkpt lat="42.9846080" lon="0.7114980">
        <ele>691.0</ele>
        <time>2020-07-29T07:37:16Z</time>
      </trkpt>
      <trkpt lat="42.9845250" lon="0.7113810">
        <ele>690.3</ele>
        <time>2020-07-29T07:37:17Z</time>
      </trkpt>
      <trkpt lat="42.9843440" lon="0.7111670">
        <ele>688.6</ele>
        <time>2020-07-29T07:37:19Z</time>
      </trkpt>
      <trkpt lat="42.9841580" lon="0.7109630">
        <ele>686.7</ele>
        <time>2020-07-29T07:37:21Z</time>
      </trkpt>
      <trkpt lat="42.9840700" lon="0.7108640">
        <ele>686.1</ele>
        <time>2020-07-29T07:37:22Z</time>
      </trkpt>
      <trkpt lat="42.9838980" lon="0.7106650">
        <ele>685.3</ele>
        <time>2020-07-29T07:37:24Z</time>
      </trkpt>
      <trkpt lat="42.9838050" lon="0.7105880">
        <ele>684.9</ele>
        <time>2020-07-29T07:37:25Z</time>
      </trkpt>
      <trkpt lat="42.9837060" lon="0.7105570">
        <ele>684.5</ele>
        <time>2020-07-29T07:37:26Z</time>
      </trkpt>
      <trkpt lat="42.9834180" lon="0.7104420">
        <ele>682.6</ele>
        <time>2020-07-29T07:37:28Z</time>
      </trkpt>
      <trkpt lat="42.9833800" lon="0.7104020">
        <ele>682.2</ele>
        <time>2020-07-29T07:37:29Z</time>
      </trkpt>
      <trkpt lat="42.9833420" lon="0.7103620">
        <ele>681.9</ele>
        <time>2020-07-29T07:37:30Z</time>
      </trkpt>
      <trkpt lat="42.9832480" lon="0.7101280">
        <ele>680.6</ele>
        <time>2020-07-29T07:37:32Z</time>
      </trkpt>
      <trkpt lat="42.9832200" lon="0.7100000">
        <ele>679.9</ele>
        <time>2020-07-29T07:37:33Z</time>
      </trkpt>
      <trkpt lat="42.9831810" lon="0.7097440">
        <ele>678.7</ele>
        <time>2020-07-29T07:37:35Z</time>
      </trkpt>
      <trkpt lat="42.9831640" lon="0.7096170">
        <ele>678.1</ele>
        <time>2020-07-29T07:37:36Z</time>
      </trkpt>
      <trkpt lat="42.9831370" lon="0.7094840">
        <ele>677.4</ele>
        <time>2020-07-29T07:37:37Z</time>
      </trkpt>
      <trkpt lat="42.9830440" lon="0.7092220">
        <ele>676.2</ele>
        <time>2020-07-29T07:37:39Z</time>
      </trkpt>
      <trkpt lat="42.9829160" lon="0.7089870">
        <ele>675.0</ele>
        <time>2020-07-29T07:37:41Z</time>
      </trkpt>
      <trkpt lat="42.9827650" lon="0.7087720">
        <ele>673.7</ele>
        <time>2020-07-29T07:37:43Z</time>
      </trkpt>
      <trkpt lat="42.9825190" lon="0.7085160">
        <ele>672.1</ele>
        <time>2020-07-29T07:37:45Z</time>
      </trkpt>
      <trkpt lat="42.9824380" lon="0.7084110">
        <ele>671.6</ele>
        <time>2020-07-29T07:37:47Z</time>
      </trkpt>
      <trkpt lat="42.9823450" lon="0.7082270">
        <ele>670.6</ele>
        <time>2020-07-29T07:37:48Z</time>
      </trkpt>
      <trkpt lat="42.9822520" lon="0.7080440">
        <ele>669.4</ele>
        <time>2020-07-29T07:37:49Z</time>
      </trkpt>
      <trkpt lat="42.9821950" lon="0.7077630">
        <ele>667.9</ele>
        <time>2020-07-29T07:37:51Z</time>
      </trkpt>
      <trkpt lat="42.9821770" lon="0.7076180">
        <ele>667.2</ele>
        <time>2020-07-29T07:37:52Z</time>
      </trkpt>
      <trkpt lat="42.9821590" lon="0.7074800">
        <ele>666.6</ele>
        <time>2020-07-29T07:37:53Z</time>
      </trkpt>
      <trkpt lat="42.9821280" lon="0.7070460">
        <ele>665.1</ele>
        <time>2020-07-29T07:37:56Z</time>
      </trkpt>
      <trkpt lat="42.9821070" lon="0.7069190">
        <ele>664.8</ele>
        <time>2020-07-29T07:37:57Z</time>
      </trkpt>
      <trkpt lat="42.9820780" lon="0.7067890">
        <ele>664.3</ele>
        <time>2020-07-29T07:37:58Z</time>
      </trkpt>
      <trkpt lat="42.9819990" lon="0.7065900">
        <ele>663.4</ele>
        <time>2020-07-29T07:38:00Z</time>
      </trkpt>
      <trkpt lat="42.9819190" lon="0.7064060">
        <ele>662.5</ele>
        <time>2020-07-29T07:38:02Z</time>
      </trkpt>
      <trkpt lat="42.9818630" lon="0.7063630">
        <ele>662.1</ele>
        <time>2020-07-29T07:38:03Z</time>
      </trkpt>
      <trkpt lat="42.9818080" lon="0.7063480">
        <ele>661.7</ele>
        <time>2020-07-29T07:38:04Z</time>
      </trkpt>
      <trkpt lat="42.9816380" lon="0.7062590">
        <ele>660.8</ele>
        <time>2020-07-29T07:38:06Z</time>
      </trkpt>
      <trkpt lat="42.9814920" lon="0.7060930">
        <ele>659.7</ele>
        <time>2020-07-29T07:38:08Z</time>
      </trkpt>
      <trkpt lat="42.9814320" lon="0.7059940">
        <ele>659.2</ele>
        <time>2020-07-29T07:38:09Z</time>
      </trkpt>
      <trkpt lat="42.9813540" lon="0.7059040">
        <ele>658.5</ele>
        <time>2020-07-29T07:38:10Z</time>
      </trkpt>
      <trkpt lat="42.9812840" lon="0.7057990">
        <ele>657.8</ele>
        <time>2020-07-29T07:38:11Z</time>
      </trkpt>
      <trkpt lat="42.9811660" lon="0.7055800">
        <ele>656.4</ele>
        <time>2020-07-29T07:38:13Z</time>
      </trkpt>
      <trkpt lat="42.9811180" lon="0.7054490">
        <ele>655.6</ele>
        <time>2020-07-29T07:38:14Z</time>
      </trkpt>
      <trkpt lat="42.9810910" lon="0.7053370">
        <ele>654.9</ele>
        <time>2020-07-29T07:38:15Z</time>
      </trkpt>
      <trkpt lat="42.9810640" lon="0.7052260">
        <ele>654.2</ele>
        <time>2020-07-29T07:38:16Z</time>
      </trkpt>
      <trkpt lat="42.9810100" lon="0.7050030">
        <ele>652.9</ele>
        <time>2020-07-29T07:38:17Z</time>
      </trkpt>
      <trkpt lat="42.9809540" lon="0.7047830">
        <ele>651.7</ele>
        <time>2020-07-29T07:38:18Z</time>
      </trkpt>
      <trkpt lat="42.9808980" lon="0.7045640">
        <ele>650.6</ele>
        <time>2020-07-29T07:38:20Z</time>
      </trkpt>
      <trkpt lat="42.9808580" lon="0.7044070">
        <ele>649.8</ele>
        <time>2020-07-29T07:38:21Z</time>
      </trkpt>
      <trkpt lat="42.9808380" lon="0.7043360">
        <ele>649.5</ele>
        <time>2020-07-29T07:38:22Z</time>
      </trkpt>
      <trkpt lat="42.9808170" lon="0.7042660">
        <ele>649.1</ele>
        <time>2020-07-29T07:38:23Z</time>
      </trkpt>
      <trkpt lat="42.9807360" lon="0.7039850">
        <ele>647.8</ele>
        <time>2020-07-29T07:38:25Z</time>
      </trkpt>
      <trkpt lat="42.9806490" lon="0.7036930">
        <ele>646.7</ele>
        <time>2020-07-29T07:38:27Z</time>
      </trkpt>
      <trkpt lat="42.9805620" lon="0.7034120">
        <ele>645.7</ele>
        <time>2020-07-29T07:38:29Z</time>
      </trkpt>
      <trkpt lat="42.9804640" lon="0.7031350">
        <ele>644.6</ele>
        <time>2020-07-29T07:38:31Z</time>
      </trkpt>
      <trkpt lat="42.9803520" lon="0.7028380">
        <ele>643.6</ele>
        <time>2020-07-29T07:38:33Z</time>
      </trkpt>
      <trkpt lat="42.9802330" lon="0.7025520">
        <ele>643.2</ele>
        <time>2020-07-29T07:38:35Z</time>
      </trkpt>
      <trkpt lat="42.9801430" lon="0.7023130">
        <ele>643.2</ele>
        <time>2020-07-29T07:38:37Z</time>
      </trkpt>
      <trkpt lat="42.9801020" lon="0.7022170">
        <ele>643.2</ele>
        <time>2020-07-29T07:38:38Z</time>
      </trkpt>
      <trkpt lat="42.9800560" lon="0.7021400">
        <ele>643.0</ele>
        <time>2020-07-29T07:38:39Z</time>
      </trkpt>
      <trkpt lat="42.9799650" lon="0.7020830">
        <ele>642.6</ele>
        <time>2020-07-29T07:38:41Z</time>
      </trkpt>
      <trkpt lat="42.9798780" lon="0.7021980">
        <ele>641.6</ele>
        <time>2020-07-29T07:38:43Z</time>
      </trkpt>
      <trkpt lat="42.9798600" lon="0.7022970">
        <ele>641.0</ele>
        <time>2020-07-29T07:38:44Z</time>
      </trkpt>
      <trkpt lat="42.9798940" lon="0.7024180">
        <ele>640.4</ele>
        <time>2020-07-29T07:38:45Z</time>
      </trkpt>
      <trkpt lat="42.9801670" lon="0.7027250">
        <ele>638.8</ele>
        <time>2020-07-29T07:38:48Z</time>
      </trkpt>
      <trkpt lat="42.9802750" lon="0.7030630">
        <ele>637.3</ele>
        <time>2020-07-29T07:38:51Z</time>
      </trkpt>
      <trkpt lat="42.9802950" lon="0.7033180">
        <ele>636.3</ele>
        <time>2020-07-29T07:38:53Z</time>
      </trkpt>
      <trkpt lat="42.9802990" lon="0.7035890">
        <ele>635.2</ele>
        <time>2020-07-29T07:38:55Z</time>
      </trkpt>
      <trkpt lat="42.9803080" lon="0.7037240">
        <ele>634.7</ele>
        <time>2020-07-29T07:38:56Z</time>
      </trkpt>
      <trkpt lat="42.9803340" lon="0.7041290">
        <ele>633.0</ele>
        <time>2020-07-29T07:38:59Z</time>
      </trkpt>
      <trkpt lat="42.9803690" lon="0.7042580">
        <ele>632.4</ele>
        <time>2020-07-29T07:39:00Z</time>
      </trkpt>
      <trkpt lat="42.9804120" lon="0.7044520">
        <ele>631.5</ele>
        <time>2020-07-29T07:39:01Z</time>
      </trkpt>
      <trkpt lat="42.9804970" lon="0.7048390">
        <ele>629.8</ele>
        <time>2020-07-29T07:39:03Z</time>
      </trkpt>
      <trkpt lat="42.9804870" lon="0.7051510">
        <ele>628.7</ele>
        <time>2020-07-29T07:39:05Z</time>
      </trkpt>
      <trkpt lat="42.9804850" lon="0.7053020">
        <ele>628.1</ele>
        <time>2020-07-29T07:39:06Z</time>
      </trkpt>
      <trkpt lat="42.9804950" lon="0.7053780">
        <ele>627.8</ele>
        <time>2020-07-29T07:39:07Z</time>
      </trkpt>
      <trkpt lat="42.9805040" lon="0.7054540">
        <ele>627.5</ele>
        <time>2020-07-29T07:39:08Z</time>
      </trkpt>
      <trkpt lat="42.9805240" lon="0.7056050">
        <ele>626.8</ele>
        <time>2020-07-29T07:39:09Z</time>
      </trkpt>
      <trkpt lat="42.9805430" lon="0.7057570">
        <ele>626.1</ele>
        <time>2020-07-29T07:39:10Z</time>
      </trkpt>
      <trkpt lat="42.9806550" lon="0.7061860">
        <ele>624.0</ele>
        <time>2020-07-29T07:39:12Z</time>
      </trkpt>
      <trkpt lat="42.9806690" lon="0.7063410">
        <ele>623.4</ele>
        <time>2020-07-29T07:39:13Z</time>
      </trkpt>
      <trkpt lat="42.9806680" lon="0.7064140">
        <ele>623.1</ele>
        <time>2020-07-29T07:39:14Z</time>
      </trkpt>
      <trkpt lat="42.9806660" lon="0.7064870">
        <ele>622.8</ele>
        <time>2020-07-29T07:39:15Z</time>
      </trkpt>
      <trkpt lat="42.9806620" lon="0.7066330">
        <ele>622.3</ele>
        <time>2020-07-29T07:39:16Z</time>
      </trkpt>
      <trkpt lat="42.9806540" lon="0.7069430">
        <ele>621.2</ele>
        <time>2020-07-29T07:39:18Z</time>
      </trkpt>
      <trkpt lat="42.9806680" lon="0.7071000">
        <ele>620.7</ele>
        <time>2020-07-29T07:39:19Z</time>
      </trkpt>
      <trkpt lat="42.9806970" lon="0.7072500">
        <ele>620.3</ele>
        <time>2020-07-29T07:39:20Z</time>
      </trkpt>
      <trkpt lat="42.9807480" lon="0.7073630">
        <ele>619.9</ele>
        <time>2020-07-29T07:39:21Z</time>
      </trkpt>
      <trkpt lat="42.9808170" lon="0.7074520">
        <ele>619.6</ele>
        <time>2020-07-29T07:39:22Z</time>
      </trkpt>
      <trkpt lat="42.9809870" lon="0.7075540">
        <ele>618.9</ele>
        <time>2020-07-29T07:39:23Z</time>
      </trkpt>
      <trkpt lat="42.9810650" lon="0.7076110">
        <ele>618.4</ele>
        <time>2020-07-29T07:39:24Z</time>
      </trkpt>
      <trkpt lat="42.9811630" lon="0.7077820">
        <ele>617.5</ele>
        <time>2020-07-29T07:39:26Z</time>
      </trkpt>
      <trkpt lat="42.9811790" lon="0.7079020">
        <ele>616.9</ele>
        <time>2020-07-29T07:39:27Z</time>
      </trkpt>
      <trkpt lat="42.9811540" lon="0.7081380">
        <ele>615.7</ele>
        <time>2020-07-29T07:39:29Z</time>
      </trkpt>
      <trkpt lat="42.9811200" lon="0.7082420">
        <ele>615.1</ele>
        <time>2020-07-29T07:39:30Z</time>
      </trkpt>
      <trkpt lat="42.9810800" lon="0.7084780">
        <ele>614.0</ele>
        <time>2020-07-29T07:39:32Z</time>
      </trkpt>
      <trkpt lat="42.9810810" lon="0.7086170">
        <ele>613.4</ele>
        <time>2020-07-29T07:39:33Z</time>
      </trkpt>
      <trkpt lat="42.9810970" lon="0.7087590">
        <ele>612.8</ele>
        <time>2020-07-29T07:39:35Z</time>
      </trkpt>
      <trkpt lat="42.9811270" lon="0.7088910">
        <ele>612.3</ele>
        <time>2020-07-29T07:39:36Z</time>
      </trkpt>
      <trkpt lat="42.9811680" lon="0.7090110">
        <ele>611.7</ele>
        <time>2020-07-29T07:39:37Z</time>
      </trkpt>
      <trkpt lat="42.9813480" lon="0.7093430">
        <ele>610.1</ele>
        <time>2020-07-29T07:39:39Z</time>
      </trkpt>
      <trkpt lat="42.9813790" lon="0.7094010">
        <ele>609.8</ele>
        <time>2020-07-29T07:39:40Z</time>
      </trkpt>
      <trkpt lat="42.9814090" lon="0.7094590">
        <ele>609.5</ele>
        <time>2020-07-29T07:39:41Z</time>
      </trkpt>
      <trkpt lat="42.9814700" lon="0.7095750">
        <ele>609.0</ele>
        <time>2020-07-29T07:39:42Z</time>
      </trkpt>
      <trkpt lat="42.9815090" lon="0.7097090">
        <ele>608.3</ele>
        <time>2020-07-29T07:39:43Z</time>
      </trkpt>
      <trkpt lat="42.9815220" lon="0.7098390">
        <ele>607.7</ele>
        <time>2020-07-29T07:39:44Z</time>
      </trkpt>
      <trkpt lat="42.9815000" lon="0.7101090">
        <ele>606.4</ele>
        <time>2020-07-29T07:39:46Z</time>
      </trkpt>
      <trkpt lat="42.9814870" lon="0.7102490">
        <ele>605.8</ele>
        <time>2020-07-29T07:39:47Z</time>
      </trkpt>
      <trkpt lat="42.9814820" lon="0.7103860">
        <ele>605.2</ele>
        <time>2020-07-29T07:39:48Z</time>
      </trkpt>
      <trkpt lat="42.9814920" lon="0.7106350">
        <ele>604.3</ele>
        <time>2020-07-29T07:39:50Z</time>
      </trkpt>
      <trkpt lat="42.9815080" lon="0.7107480">
        <ele>603.8</ele>
        <time>2020-07-29T07:39:51Z</time>
      </trkpt>
      <trkpt lat="42.9815300" lon="0.7108610">
        <ele>603.4</ele>
        <time>2020-07-29T07:39:52Z</time>
      </trkpt>
      <trkpt lat="42.9815900" lon="0.7111050">
        <ele>602.4</ele>
        <time>2020-07-29T07:39:54Z</time>
      </trkpt>
      <trkpt lat="42.9816270" lon="0.7112250">
        <ele>601.7</ele>
        <time>2020-07-29T07:39:55Z</time>
      </trkpt>
      <trkpt lat="42.9816690" lon="0.7113480">
        <ele>600.9</ele>
        <time>2020-07-29T07:39:56Z</time>
      </trkpt>
      <trkpt lat="42.9818250" lon="0.7117000">
        <ele>599.0</ele>
        <time>2020-07-29T07:39:59Z</time>
      </trkpt>
      <trkpt lat="42.9818930" lon="0.7118030">
        <ele>598.5</ele>
        <time>2020-07-29T07:40:00Z</time>
      </trkpt>
      <trkpt lat="42.9819690" lon="0.7119000">
        <ele>598.0</ele>
        <time>2020-07-29T07:40:01Z</time>
      </trkpt>
      <trkpt lat="42.9821300" lon="0.7120930">
        <ele>596.7</ele>
        <time>2020-07-29T07:40:03Z</time>
      </trkpt>
      <trkpt lat="42.9822060" lon="0.7122030">
        <ele>596.1</ele>
        <time>2020-07-29T07:40:04Z</time>
      </trkpt>
      <trkpt lat="42.9822740" lon="0.7123240">
        <ele>595.4</ele>
        <time>2020-07-29T07:40:05Z</time>
      </trkpt>
      <trkpt lat="42.9823680" lon="0.7126090">
        <ele>593.9</ele>
        <time>2020-07-29T07:40:07Z</time>
      </trkpt>
      <trkpt lat="42.9823180" lon="0.7129900">
        <ele>591.9</ele>
        <time>2020-07-29T07:40:10Z</time>
      </trkpt>
      <trkpt lat="42.9821870" lon="0.7132270">
        <ele>590.5</ele>
        <time>2020-07-29T07:40:12Z</time>
      </trkpt>
      <trkpt lat="42.9821070" lon="0.7133370">
        <ele>589.8</ele>
        <time>2020-07-29T07:40:13Z</time>
      </trkpt>
      <trkpt lat="42.9820180" lon="0.7134430">
        <ele>589.1</ele>
        <time>2020-07-29T07:40:14Z</time>
      </trkpt>
      <trkpt lat="42.9819260" lon="0.7135400">
        <ele>588.4</ele>
        <time>2020-07-29T07:40:15Z</time>
      </trkpt>
      <trkpt lat="42.9818360" lon="0.7136390">
        <ele>587.9</ele>
        <time>2020-07-29T07:40:16Z</time>
      </trkpt>
      <trkpt lat="42.9817490" lon="0.7137480">
        <ele>587.3</ele>
        <time>2020-07-29T07:40:17Z</time>
      </trkpt>
      <trkpt lat="42.9816680" lon="0.7138720">
        <ele>586.8</ele>
        <time>2020-07-29T07:40:18Z</time>
      </trkpt>
      <trkpt lat="42.9815580" lon="0.7141560">
        <ele>585.8</ele>
        <time>2020-07-29T07:40:20Z</time>
      </trkpt>
      <trkpt lat="42.9815210" lon="0.7144690">
        <ele>584.6</ele>
        <time>2020-07-29T07:40:22Z</time>
      </trkpt>
      <trkpt lat="42.9815320" lon="0.7146250">
        <ele>583.9</ele>
        <time>2020-07-29T07:40:23Z</time>
      </trkpt>
      <trkpt lat="42.9815640" lon="0.7147700">
        <ele>583.4</ele>
        <time>2020-07-29T07:40:24Z</time>
      </trkpt>
      <trkpt lat="42.9816430" lon="0.7150500">
        <ele>582.4</ele>
        <time>2020-07-29T07:40:26Z</time>
      </trkpt>
      <trkpt lat="42.9817610" lon="0.7152810">
        <ele>581.5</ele>
        <time>2020-07-29T07:40:28Z</time>
      </trkpt>
      <trkpt lat="42.9818470" lon="0.7153490">
        <ele>580.9</ele>
        <time>2020-07-29T07:40:29Z</time>
      </trkpt>
      <trkpt lat="42.9820410" lon="0.7153790">
        <ele>579.6</ele>
        <time>2020-07-29T07:40:31Z</time>
      </trkpt>
      <trkpt lat="42.9821420" lon="0.7153720">
        <ele>579.0</ele>
        <time>2020-07-29T07:40:32Z</time>
      </trkpt>
      <trkpt lat="42.9822470" lon="0.7153840">
        <ele>578.4</ele>
        <time>2020-07-29T07:40:33Z</time>
      </trkpt>
      <trkpt lat="42.9824180" lon="0.7155280">
        <ele>577.2</ele>
        <time>2020-07-29T07:40:34Z</time>
      </trkpt>
      <trkpt lat="42.9825320" lon="0.7159090">
        <ele>575.1</ele>
        <time>2020-07-29T07:40:37Z</time>
      </trkpt>
      <trkpt lat="42.9825540" lon="0.7160510">
        <ele>574.4</ele>
        <time>2020-07-29T07:40:38Z</time>
      </trkpt>
      <trkpt lat="42.9825820" lon="0.7163480">
        <ele>572.9</ele>
        <time>2020-07-29T07:40:40Z</time>
      </trkpt>
      <trkpt lat="42.9825820" lon="0.7164960">
        <ele>572.3</ele>
        <time>2020-07-29T07:40:41Z</time>
      </trkpt>
      <trkpt lat="42.9825630" lon="0.7166370">
        <ele>571.6</ele>
        <time>2020-07-29T07:40:43Z</time>
      </trkpt>
      <trkpt lat="42.9824810" lon="0.7169240">
        <ele>570.2</ele>
        <time>2020-07-29T07:40:45Z</time>
      </trkpt>
      <trkpt lat="42.9824190" lon="0.7170440">
        <ele>569.6</ele>
        <time>2020-07-29T07:40:46Z</time>
      </trkpt>
      <trkpt lat="42.9823500" lon="0.7171390">
        <ele>569.2</ele>
        <time>2020-07-29T07:40:47Z</time>
      </trkpt>
      <trkpt lat="42.9822860" lon="0.7172340">
        <ele>568.9</ele>
        <time>2020-07-29T07:40:48Z</time>
      </trkpt>
      <trkpt lat="42.9822330" lon="0.7173440">
        <ele>568.7</ele>
        <time>2020-07-29T07:40:49Z</time>
      </trkpt>
      <trkpt lat="42.9821950" lon="0.7174710">
        <ele>568.5</ele>
        <time>2020-07-29T07:40:50Z</time>
      </trkpt>
      <trkpt lat="42.9821980" lon="0.7177190">
        <ele>568.0</ele>
        <time>2020-07-29T07:40:52Z</time>
      </trkpt>
      <trkpt lat="42.9823070" lon="0.7178820">
        <ele>567.1</ele>
        <time>2020-07-29T07:40:54Z</time>
      </trkpt>
      <trkpt lat="42.9824890" lon="0.7178630">
        <ele>565.8</ele>
        <time>2020-07-29T07:40:56Z</time>
      </trkpt>
      <trkpt lat="42.9827400" lon="0.7176760">
        <ele>564.1</ele>
        <time>2020-07-29T07:40:59Z</time>
      </trkpt>
      <trkpt lat="42.9829290" lon="0.7176110">
        <ele>563.2</ele>
        <time>2020-07-29T07:41:01Z</time>
      </trkpt>
      <trkpt lat="42.9831970" lon="0.7177060">
        <ele>561.9</ele>
        <time>2020-07-29T07:41:04Z</time>
      </trkpt>
      <trkpt lat="42.9833050" lon="0.7178890">
        <ele>561.0</ele>
        <time>2020-07-29T07:41:06Z</time>
      </trkpt>
      <trkpt lat="42.9833230" lon="0.7180080">
        <ele>560.5</ele>
        <time>2020-07-29T07:41:07Z</time>
      </trkpt>
      <trkpt lat="42.9833070" lon="0.7182580">
        <ele>559.3</ele>
        <time>2020-07-29T07:41:09Z</time>
      </trkpt>
      <trkpt lat="42.9832920" lon="0.7183860">
        <ele>558.8</ele>
        <time>2020-07-29T07:41:10Z</time>
      </trkpt>
      <trkpt lat="42.9832610" lon="0.7184920">
        <ele>558.4</ele>
        <time>2020-07-29T07:41:11Z</time>
      </trkpt>
      <trkpt lat="42.9831920" lon="0.7187160">
        <ele>556.9</ele>
        <time>2020-07-29T07:41:13Z</time>
      </trkpt>
      <trkpt lat="42.9831480" lon="0.7188350">
        <ele>556.1</ele>
        <time>2020-07-29T07:41:14Z</time>
      </trkpt>
      <trkpt lat="42.9831020" lon="0.7189550">
        <ele>555.4</ele>
        <time>2020-07-29T07:41:15Z</time>
      </trkpt>
      <trkpt lat="42.9830210" lon="0.7192240">
        <ele>554.1</ele>
        <time>2020-07-29T07:41:17Z</time>
      </trkpt>
      <trkpt lat="42.9829980" lon="0.7193610">
        <ele>553.6</ele>
        <time>2020-07-29T07:41:18Z</time>
      </trkpt>
      <trkpt lat="42.9829760" lon="0.7195040">
        <ele>553.1</ele>
        <time>2020-07-29T07:41:19Z</time>
      </trkpt>
      <trkpt lat="42.9829400" lon="0.7196350">
        <ele>552.6</ele>
        <time>2020-07-29T07:41:20Z</time>
      </trkpt>
      <trkpt lat="42.9828260" lon="0.7198660">
        <ele>551.8</ele>
        <time>2020-07-29T07:41:22Z</time>
      </trkpt>
      <trkpt lat="42.9827030" lon="0.7200920">
        <ele>550.8</ele>
        <time>2020-07-29T07:41:24Z</time>
      </trkpt>
      <trkpt lat="42.9826700" lon="0.7202150">
        <ele>550.2</ele>
        <time>2020-07-29T07:41:25Z</time>
      </trkpt>
      <trkpt lat="42.9826750" lon="0.7204840">
        <ele>548.9</ele>
        <time>2020-07-29T07:41:27Z</time>
      </trkpt>
      <trkpt lat="42.9826960" lon="0.7206130">
        <ele>548.2</ele>
        <time>2020-07-29T07:41:28Z</time>
      </trkpt>
      <trkpt lat="42.9827240" lon="0.7207420">
        <ele>547.5</ele>
        <time>2020-07-29T07:41:29Z</time>
      </trkpt>
      <trkpt lat="42.9827540" lon="0.7208690">
        <ele>546.9</ele>
        <time>2020-07-29T07:41:30Z</time>
      </trkpt>
      <trkpt lat="42.9827910" lon="0.7209960">
        <ele>546.2</ele>
        <time>2020-07-29T07:41:31Z</time>
      </trkpt>
      <trkpt lat="42.9829040" lon="0.7213940">
        <ele>544.2</ele>
        <time>2020-07-29T07:41:33Z</time>
      </trkpt>
      <trkpt lat="42.9829800" lon="0.7216480">
        <ele>543.0</ele>
        <time>2020-07-29T07:41:35Z</time>
      </trkpt>
      <trkpt lat="42.9830100" lon="0.7217980">
        <ele>542.3</ele>
        <time>2020-07-29T07:41:36Z</time>
      </trkpt>
      <trkpt lat="42.9830380" lon="0.7219430">
        <ele>541.7</ele>
        <time>2020-07-29T07:41:37Z</time>
      </trkpt>
      <trkpt lat="42.9830690" lon="0.7222660">
        <ele>540.2</ele>
        <time>2020-07-29T07:41:39Z</time>
      </trkpt>
      <trkpt lat="42.9830770" lon="0.7224150">
        <ele>539.5</ele>
        <time>2020-07-29T07:41:40Z</time>
      </trkpt>
      <trkpt lat="42.9830840" lon="0.7225730">
        <ele>538.7</ele>
        <time>2020-07-29T07:41:41Z</time>
      </trkpt>
      <trkpt lat="42.9830820" lon="0.7228920">
        <ele>537.4</ele>
        <time>2020-07-29T07:41:43Z</time>
      </trkpt>
      <trkpt lat="42.9830820" lon="0.7232390">
        <ele>536.0</ele>
        <time>2020-07-29T07:41:45Z</time>
      </trkpt>
      <trkpt lat="42.9830840" lon="0.7234100">
        <ele>535.5</ele>
        <time>2020-07-29T07:41:46Z</time>
      </trkpt>
      <trkpt lat="42.9830760" lon="0.7235860">
        <ele>535.0</ele>
        <time>2020-07-29T07:41:47Z</time>
      </trkpt>
      <trkpt lat="42.9830470" lon="0.7239230">
        <ele>534.5</ele>
        <time>2020-07-29T07:41:49Z</time>
      </trkpt>
      <trkpt lat="42.9830260" lon="0.7240770">
        <ele>534.2</ele>
        <time>2020-07-29T07:41:51Z</time>
      </trkpt>
      <trkpt lat="42.9830200" lon="0.7242250">
        <ele>533.9</ele>
        <time>2020-07-29T07:41:52Z</time>
      </trkpt>
      <trkpt lat="42.9830800" lon="0.7245020">
        <ele>532.7</ele>
        <time>2020-07-29T07:41:54Z</time>
      </trkpt>
      <trkpt lat="42.9831650" lon="0.7247640">
        <ele>531.3</ele>
        <time>2020-07-29T07:41:56Z</time>
      </trkpt>
      <trkpt lat="42.9831830" lon="0.7249060">
        <ele>530.6</ele>
        <time>2020-07-29T07:41:57Z</time>
      </trkpt>
      <trkpt lat="42.9831480" lon="0.7251740">
        <ele>529.1</ele>
        <time>2020-07-29T07:41:59Z</time>
      </trkpt>
      <trkpt lat="42.9830850" lon="0.7254680">
        <ele>527.7</ele>
        <time>2020-07-29T07:42:01Z</time>
      </trkpt>
      <trkpt lat="42.9830740" lon="0.7256020">
        <ele>527.1</ele>
        <time>2020-07-29T07:42:02Z</time>
      </trkpt>
      <trkpt lat="42.9830780" lon="0.7257360">
        <ele>526.4</ele>
        <time>2020-07-29T07:42:03Z</time>
      </trkpt>
      <trkpt lat="42.9830930" lon="0.7258740">
        <ele>525.6</ele>
        <time>2020-07-29T07:42:04Z</time>
      </trkpt>
      <trkpt lat="42.9831100" lon="0.7260150">
        <ele>524.9</ele>
        <time>2020-07-29T07:42:05Z</time>
      </trkpt>
      <trkpt lat="42.9831400" lon="0.7263020">
        <ele>523.5</ele>
        <time>2020-07-29T07:42:07Z</time>
      </trkpt>
      <trkpt lat="42.9832040" lon="0.7267280">
        <ele>521.9</ele>
        <time>2020-07-29T07:42:10Z</time>
      </trkpt>
      <trkpt lat="42.9832380" lon="0.7268750">
        <ele>521.4</ele>
        <time>2020-07-29T07:42:11Z</time>
      </trkpt>
      <trkpt lat="42.9832840" lon="0.7270190">
        <ele>520.8</ele>
        <time>2020-07-29T07:42:12Z</time>
      </trkpt>
      <trkpt lat="42.9834080" lon="0.7272970">
        <ele>519.3</ele>
        <time>2020-07-29T07:42:14Z</time>
      </trkpt>
      <trkpt lat="42.9835730" lon="0.7275310">
        <ele>517.8</ele>
        <time>2020-07-29T07:42:16Z</time>
      </trkpt>
      <trkpt lat="42.9836620" lon="0.7276460">
        <ele>517.0</ele>
        <time>2020-07-29T07:42:17Z</time>
      </trkpt>
      <trkpt lat="42.9837500" lon="0.7277630">
        <ele>516.3</ele>
        <time>2020-07-29T07:42:18Z</time>
      </trkpt>
      <trkpt lat="42.9839070" lon="0.7280270">
        <ele>514.9</ele>
        <time>2020-07-29T07:42:20Z</time>
      </trkpt>
      <trkpt lat="42.9839680" lon="0.7281740">
        <ele>514.2</ele>
        <time>2020-07-29T07:42:21Z</time>
      </trkpt>
      <trkpt lat="42.9840190" lon="0.7283280">
        <ele>513.5</ele>
        <time>2020-07-29T07:42:22Z</time>
      </trkpt>
      <trkpt lat="42.9841050" lon="0.7286410">
        <ele>512.2</ele>
        <time>2020-07-29T07:42:24Z</time>
      </trkpt>
      <trkpt lat="42.9841480" lon="0.7287890">
        <ele>511.6</ele>
        <time>2020-07-29T07:42:25Z</time>
      </trkpt>
      <trkpt lat="42.9841880" lon="0.7289370">
        <ele>511.0</ele>
        <time>2020-07-29T07:42:26Z</time>
      </trkpt>
      <trkpt lat="42.9842440" lon="0.7292410">
        <ele>510.0</ele>
        <time>2020-07-29T07:42:28Z</time>
      </trkpt>
      <trkpt lat="42.9842740" lon="0.7295650">
        <ele>509.1</ele>
        <time>2020-07-29T07:42:30Z</time>
      </trkpt>
      <trkpt lat="42.9842850" lon="0.7297300">
        <ele>508.6</ele>
        <time>2020-07-29T07:42:31Z</time>
      </trkpt>
      <trkpt lat="42.9843070" lon="0.7300560">
        <ele>507.3</ele>
        <time>2020-07-29T07:42:33Z</time>
      </trkpt>
      <trkpt lat="42.9843410" lon="0.7303750">
        <ele>506.0</ele>
        <time>2020-07-29T07:42:35Z</time>
      </trkpt>
      <trkpt lat="42.9844080" lon="0.7306800">
        <ele>504.7</ele>
        <time>2020-07-29T07:42:37Z</time>
      </trkpt>
      <trkpt lat="42.9844710" lon="0.7308590">
        <ele>504.1</ele>
        <time>2020-07-29T07:42:38Z</time>
      </trkpt>
      <trkpt lat="42.9846610" lon="0.7313950">
        <ele>502.7</ele>
        <time>2020-07-29T07:42:41Z</time>
      </trkpt>
      <trkpt lat="42.9847550" lon="0.7316880">
        <ele>502.2</ele>
        <time>2020-07-29T07:42:43Z</time>
      </trkpt>
      <trkpt lat="42.9847930" lon="0.7318310">
        <ele>502.1</ele>
        <time>2020-07-29T07:42:45Z</time>
      </trkpt>
      <trkpt lat="42.9848340" lon="0.7321070">
        <ele>502.1</ele>
        <time>2020-07-29T07:42:47Z</time>
      </trkpt>
      <trkpt lat="42.9848290" lon="0.7325010">
        <ele>501.8</ele>
        <time>2020-07-29T07:42:50Z</time>
      </trkpt>
      <trkpt lat="42.9848210" lon="0.7326410">
        <ele>501.5</ele>
        <time>2020-07-29T07:42:51Z</time>
      </trkpt>
      <trkpt lat="42.9847550" lon="0.7334470">
        <ele>499.8</ele>
        <time>2020-07-29T07:42:57Z</time>
      </trkpt>
      <trkpt lat="42.9847430" lon="0.7335860">
        <ele>499.6</ele>
        <time>2020-07-29T07:42:58Z</time>
      </trkpt>
      <trkpt lat="42.9847250" lon="0.7338610">
        <ele>499.0</ele>
        <time>2020-07-29T07:43:00Z</time>
      </trkpt>
      <trkpt lat="42.9847250" lon="0.7343980">
        <ele>497.7</ele>
        <time>2020-07-29T07:43:04Z</time>
      </trkpt>
      <trkpt lat="42.9847470" lon="0.7346300">
        <ele>497.1</ele>
        <time>2020-07-29T07:43:06Z</time>
      </trkpt>
      <trkpt lat="42.9848220" lon="0.7350060">
        <ele>496.0</ele>
        <time>2020-07-29T07:43:09Z</time>
      </trkpt>
      <trkpt lat="42.9848600" lon="0.7351280">
        <ele>495.6</ele>
        <time>2020-07-29T07:43:10Z</time>
      </trkpt>
      <trkpt lat="42.9849730" lon="0.7354930">
        <ele>494.4</ele>
        <time>2020-07-29T07:43:13Z</time>
      </trkpt>
      <trkpt lat="42.9850140" lon="0.7356220">
        <ele>494.0</ele>
        <time>2020-07-29T07:43:14Z</time>
      </trkpt>
      <trkpt lat="42.9850570" lon="0.7357480">
        <ele>493.5</ele>
        <time>2020-07-29T07:43:15Z</time>
      </trkpt>
      <trkpt lat="42.9852120" lon="0.7360780">
        <ele>492.3</ele>
        <time>2020-07-29T07:43:18Z</time>
      </trkpt>
      <trkpt lat="42.9852600" lon="0.7362150">
        <ele>491.9</ele>
        <time>2020-07-29T07:43:19Z</time>
      </trkpt>
      <trkpt lat="42.9853450" lon="0.7365010">
        <ele>491.3</ele>
        <time>2020-07-29T07:43:21Z</time>
      </trkpt>
      <trkpt lat="42.9854390" lon="0.7367710">
        <ele>491.1</ele>
        <time>2020-07-29T07:43:23Z</time>
      </trkpt>
      <trkpt lat="42.9854890" lon="0.7368830">
        <ele>490.7</ele>
        <time>2020-07-29T07:43:24Z</time>
      </trkpt>
      <trkpt lat="42.9856680" lon="0.7371670">
        <ele>489.8</ele>
        <time>2020-07-29T07:43:27Z</time>
      </trkpt>
      <trkpt lat="42.9857350" lon="0.7372340">
        <ele>489.6</ele>
        <time>2020-07-29T07:43:28Z</time>
      </trkpt>
      <trkpt lat="42.9858210" lon="0.7372860">
        <ele>489.2</ele>
        <time>2020-07-29T07:43:29Z</time>
      </trkpt>
      <trkpt lat="42.9859920" lon="0.7373700">
        <ele>488.9</ele>
        <time>2020-07-29T07:43:31Z</time>
      </trkpt>
      <trkpt lat="42.9861620" lon="0.7374590">
        <ele>488.7</ele>
        <time>2020-07-29T07:43:33Z</time>
      </trkpt>
      <trkpt lat="42.9863420" lon="0.7375790">
        <ele>488.7</ele>
        <time>2020-07-29T07:43:35Z</time>
      </trkpt>
      <trkpt lat="42.9864180" lon="0.7376510">
        <ele>488.7</ele>
        <time>2020-07-29T07:43:36Z</time>
      </trkpt>
      <trkpt lat="42.9865340" lon="0.7378200">
        <ele>488.9</ele>
        <time>2020-07-29T07:43:38Z</time>
      </trkpt>
      <trkpt lat="42.9866350" lon="0.7381300">
        <ele>489.1</ele>
        <time>2020-07-29T07:43:41Z</time>
      </trkpt>
      <trkpt lat="42.9866610" lon="0.7382300">
        <ele>489.1</ele>
        <time>2020-07-29T07:43:42Z</time>
      </trkpt>
      <trkpt lat="42.9868130" lon="0.7388540">
        <ele>490.0</ele>
        <time>2020-07-29T07:43:49Z</time>
      </trkpt>
      <trkpt lat="42.9868560" lon="0.7391900">
        <ele>491.1</ele>
        <time>2020-07-29T07:43:54Z</time>
      </trkpt>
      <trkpt lat="42.9868770" lon="0.7393160">
        <ele>491.7</ele>
        <time>2020-07-29T07:43:56Z</time>
      </trkpt>
      <trkpt lat="42.9869360" lon="0.7395580">
        <ele>492.8</ele>
        <time>2020-07-29T07:44:00Z</time>
      </trkpt>
      <trkpt lat="42.9869530" lon="0.7396150">
        <ele>493.1</ele>
        <time>2020-07-29T07:44:01Z</time>
      </trkpt>
      <trkpt lat="42.9869970" lon="0.7397230">
        <ele>493.7</ele>
        <time>2020-07-29T07:44:03Z</time>
      </trkpt>
      <trkpt lat="42.9871190" lon="0.7399070">
        <ele>494.6</ele>
        <time>2020-07-29T07:44:07Z</time>
      </trkpt>
      <trkpt lat="42.9872550" lon="0.7400480">
        <ele>495.5</ele>
        <time>2020-07-29T07:44:11Z</time>
      </trkpt>
      <trkpt lat="42.9873470" lon="0.7401540">
        <ele>496.2</ele>
        <time>2020-07-29T07:44:14Z</time>
      </trkpt>
      <trkpt lat="42.9873730" lon="0.7401900">
        <ele>496.4</ele>
        <time>2020-07-29T07:44:15Z</time>
      </trkpt>
      <trkpt lat="42.9874890" lon="0.7404430">
        <ele>497.6</ele>
        <time>2020-07-29T07:44:21Z</time>
      </trkpt>
      <trkpt lat="42.9874830" lon="0.7406030">
        <ele>498.2</ele>
        <time>2020-07-29T07:44:25Z</time>
      </trkpt>
      <trkpt lat="42.9874720" lon="0.7406840">
        <ele>498.6</ele>
        <time>2020-07-29T07:44:27Z</time>
      </trkpt>
      <trkpt lat="42.9874610" lon="0.7408150">
        <ele>499.1</ele>
        <time>2020-07-29T07:44:31Z</time>
      </trkpt>
      <trkpt lat="42.9874480" lon="0.7409010">
        <ele>499.4</ele>
        <time>2020-07-29T07:44:33Z</time>
      </trkpt>
      <trkpt lat="42.9874300" lon="0.7410470">
        <ele>500.0</ele>
        <time>2020-07-29T07:44:36Z</time>
      </trkpt>
      <trkpt lat="42.9874190" lon="0.7411280">
        <ele>500.3</ele>
        <time>2020-07-29T07:44:38Z</time>
      </trkpt>
      <trkpt lat="42.9873990" lon="0.7412900">
        <ele>500.8</ele>
        <time>2020-07-29T07:44:42Z</time>
      </trkpt>
      <trkpt lat="42.9873910" lon="0.7413870">
        <ele>501.1</ele>
        <time>2020-07-29T07:44:44Z</time>
      </trkpt>
      <trkpt lat="42.9873780" lon="0.7416300">
        <ele>501.8</ele>
        <time>2020-07-29T07:44:48Z</time>
      </trkpt>
      <trkpt lat="42.9873760" lon="0.7417450">
        <ele>502.3</ele>
        <time>2020-07-29T07:44:50Z</time>
      </trkpt>
      <trkpt lat="42.9873650" lon="0.7419070">
        <ele>503.0</ele>
        <time>2020-07-29T07:44:53Z</time>
      </trkpt>
      <trkpt lat="42.9873120" lon="0.7421130">
        <ele>504.0</ele>
        <time>2020-07-29T07:44:59Z</time>
      </trkpt>
      <trkpt lat="42.9873060" lon="0.7421420">
        <ele>504.2</ele>
        <time>2020-07-29T07:45:00Z</time>
      </trkpt>
      <trkpt lat="42.9872890" lon="0.7422040">
        <ele>504.5</ele>
        <time>2020-07-29T07:45:02Z</time>
      </trkpt>
      <trkpt lat="42.9872660" lon="0.7422440">
        <ele>504.8</ele>
        <time>2020-07-29T07:45:04Z</time>
      </trkpt>
      <trkpt lat="42.9872550" lon="0.7422590">
        <ele>504.9</ele>
        <time>2020-07-29T07:45:05Z</time>
      </trkpt>
      <trkpt lat="42.9872000" lon="0.7423350">
        <ele>505.4</ele>
        <time>2020-07-29T07:45:08Z</time>
      </trkpt>
      <trkpt lat="42.9871420" lon="0.7424030">
        <ele>505.9</ele>
        <time>2020-07-29T07:45:11Z</time>
      </trkpt>
      <trkpt lat="42.9870590" lon="0.7425200">
        <ele>506.7</ele>
        <time>2020-07-29T07:45:15Z</time>
      </trkpt>
      <trkpt lat="42.9869510" lon="0.7426360">
        <ele>507.6</ele>
        <time>2020-07-29T07:45:19Z</time>
      </trkpt>
      <trkpt lat="42.9868950" lon="0.7427070">
        <ele>508.0</ele>
        <time>2020-07-29T07:45:21Z</time>
      </trkpt>
      <trkpt lat="42.9867900" lon="0.7428560">
        <ele>508.9</ele>
        <time>2020-07-29T07:45:25Z</time>
      </trkpt>
      <trkpt lat="42.9867480" lon="0.7429260">
        <ele>509.3</ele>
        <time>2020-07-29T07:45:27Z</time>
      </trkpt>
      <trkpt lat="42.9866640" lon="0.7430460">
        <ele>510.0</ele>
        <time>2020-07-29T07:45:30Z</time>
      </trkpt>
      <trkpt lat="42.9866170" lon="0.7431260">
        <ele>510.5</ele>
        <time>2020-07-29T07:45:32Z</time>
      </trkpt>
      <trkpt lat="42.9865560" lon="0.7433200">
        <ele>511.5</ele>
        <time>2020-07-29T07:45:36Z</time>
      </trkpt>
      <trkpt lat="42.9865530" lon="0.7436880">
        <ele>513.1</ele>
        <time>2020-07-29T07:45:42Z</time>
      </trkpt>
      <trkpt lat="42.9865930" lon="0.7439040">
        <ele>514.1</ele>
        <time>2020-07-29T07:45:48Z</time>
      </trkpt>
      <trkpt lat="42.9866110" lon="0.7439260">
        <ele>514.3</ele>
        <time>2020-07-29T07:45:49Z</time>
      </trkpt>
      <trkpt lat="42.9866350" lon="0.7439470">
        <ele>514.5</ele>
        <time>2020-07-29T07:45:50Z</time>
      </trkpt>
      <trkpt lat="42.9867010" lon="0.7440160">
        <ele>515.0</ele>
        <time>2020-07-29T07:45:53Z</time>
      </trkpt>
      <trkpt lat="42.9867260" lon="0.7440450">
        <ele>515.1</ele>
        <time>2020-07-29T07:45:54Z</time>
      </trkpt>
      <trkpt lat="42.9868230" lon="0.7442360">
        <ele>516.1</ele>
        <time>2020-07-29T07:45:59Z</time>
      </trkpt>
      <trkpt lat="42.9868420" lon="0.7443100">
        <ele>516.4</ele>
        <time>2020-07-29T07:46:01Z</time>
      </trkpt>
      <trkpt lat="42.9869010" lon="0.7444160">
        <ele>516.9</ele>
        <time>2020-07-29T07:46:04Z</time>
      </trkpt>
      <trkpt lat="42.9869430" lon="0.7445770">
        <ele>517.7</ele>
        <time>2020-07-29T07:46:08Z</time>
      </trkpt>
      <trkpt lat="42.9869630" lon="0.7446150">
        <ele>517.9</ele>
        <time>2020-07-29T07:46:09Z</time>
      </trkpt>
      <trkpt lat="42.9869820" lon="0.7447690">
        <ele>518.8</ele>
        <time>2020-07-29T07:46:13Z</time>
      </trkpt>
      <trkpt lat="42.9869880" lon="0.7448550">
        <ele>519.2</ele>
        <time>2020-07-29T07:46:15Z</time>
      </trkpt>
      <trkpt lat="42.9869810" lon="0.7449660">
        <ele>519.9</ele>
        <time>2020-07-29T07:46:18Z</time>
      </trkpt>
      <trkpt lat="42.9869700" lon="0.7450860">
        <ele>520.6</ele>
        <time>2020-07-29T07:46:21Z</time>
      </trkpt>
      <trkpt lat="42.9869510" lon="0.7451800">
        <ele>521.1</ele>
        <time>2020-07-29T07:46:23Z</time>
      </trkpt>
      <trkpt lat="42.9868810" lon="0.7453910">
        <ele>522.3</ele>
        <time>2020-07-29T07:46:28Z</time>
      </trkpt>
      <trkpt lat="42.9868650" lon="0.7454240">
        <ele>522.5</ele>
        <time>2020-07-29T07:46:29Z</time>
      </trkpt>
      <trkpt lat="42.9867680" lon="0.7455840">
        <ele>523.4</ele>
        <time>2020-07-29T07:46:34Z</time>
      </trkpt>
      <trkpt lat="42.9867420" lon="0.7456160">
        <ele>523.6</ele>
        <time>2020-07-29T07:46:35Z</time>
      </trkpt>
      <trkpt lat="42.9866650" lon="0.7457090">
        <ele>524.2</ele>
        <time>2020-07-29T07:46:38Z</time>
      </trkpt>
      <trkpt lat="42.9864500" lon="0.7459400">
        <ele>525.6</ele>
        <time>2020-07-29T07:46:46Z</time>
      </trkpt>
      <trkpt lat="42.9864000" lon="0.7459950">
        <ele>525.9</ele>
        <time>2020-07-29T07:46:48Z</time>
      </trkpt>
      <trkpt lat="42.9862150" lon="0.7461860">
        <ele>527.3</ele>
        <time>2020-07-29T07:46:55Z</time>
      </trkpt>
      <trkpt lat="42.9860530" lon="0.7463370">
        <ele>528.5</ele>
        <time>2020-07-29T07:47:01Z</time>
      </trkpt>
      <trkpt lat="42.9859730" lon="0.7464180">
        <ele>529.1</ele>
        <time>2020-07-29T07:47:04Z</time>
      </trkpt>
      <trkpt lat="42.9859240" lon="0.7464600">
        <ele>529.5</ele>
        <time>2020-07-29T07:47:06Z</time>
      </trkpt>
      <trkpt lat="42.9858310" lon="0.7465380">
        <ele>530.1</ele>
        <time>2020-07-29T07:47:10Z</time>
      </trkpt>
      <trkpt lat="42.9857210" lon="0.7466310">
        <ele>530.8</ele>
        <time>2020-07-29T07:47:14Z</time>
      </trkpt>
      <trkpt lat="42.9856410" lon="0.7466920">
        <ele>531.3</ele>
        <time>2020-07-29T07:47:17Z</time>
      </trkpt>
      <trkpt lat="42.9855170" lon="0.7467620">
        <ele>531.9</ele>
        <time>2020-07-29T07:47:21Z</time>
      </trkpt>
      <trkpt lat="42.9854590" lon="0.7467840">
        <ele>532.2</ele>
        <time>2020-07-29T07:47:23Z</time>
      </trkpt>
      <trkpt lat="42.9853620" lon="0.7467960">
        <ele>532.8</ele>
        <time>2020-07-29T07:47:27Z</time>
      </trkpt>
      <trkpt lat="42.9853090" lon="0.7468040">
        <ele>533.1</ele>
        <time>2020-07-29T07:47:29Z</time>
      </trkpt>
      <trkpt lat="42.9852060" lon="0.7468330">
        <ele>533.8</ele>
        <time>2020-07-29T07:47:33Z</time>
      </trkpt>
      <trkpt lat="42.9851440" lon="0.7468550">
        <ele>534.2</ele>
        <time>2020-07-29T07:47:35Z</time>
      </trkpt>
      <trkpt lat="42.9850530" lon="0.7468830">
        <ele>534.8</ele>
        <time>2020-07-29T07:47:38Z</time>
      </trkpt>
      <trkpt lat="42.9849670" lon="0.7469170">
        <ele>535.4</ele>
        <time>2020-07-29T07:47:41Z</time>
      </trkpt>
      <trkpt lat="42.9849340" lon="0.7469280">
        <ele>535.6</ele>
        <time>2020-07-29T07:47:42Z</time>
      </trkpt>
      <trkpt lat="42.9847610" lon="0.7469860">
        <ele>536.7</ele>
        <time>2020-07-29T07:47:47Z</time>
      </trkpt>
      <trkpt lat="42.9845220" lon="0.7470470">
        <ele>538.0</ele>
        <time>2020-07-29T07:47:53Z</time>
      </trkpt>
      <trkpt lat="42.9844580" lon="0.7470580">
        <ele>538.4</ele>
        <time>2020-07-29T07:47:55Z</time>
      </trkpt>
      <trkpt lat="42.9843660" lon="0.7470730">
        <ele>538.9</ele>
        <time>2020-07-29T07:47:58Z</time>
      </trkpt>
      <trkpt lat="42.9842520" lon="0.7471080">
        <ele>539.6</ele>
        <time>2020-07-29T07:48:02Z</time>
      </trkpt>
      <trkpt lat="42.9841590" lon="0.7471330">
        <ele>540.2</ele>
        <time>2020-07-29T07:48:05Z</time>
      </trkpt>
      <trkpt lat="42.9840480" lon="0.7471870">
        <ele>541.0</ele>
        <time>2020-07-29T07:48:09Z</time>
      </trkpt>
      <trkpt lat="42.9839640" lon="0.7472380">
        <ele>541.5</ele>
        <time>2020-07-29T07:48:12Z</time>
      </trkpt>
      <trkpt lat="42.9838610" lon="0.7473060">
        <ele>542.2</ele>
        <time>2020-07-29T07:48:15Z</time>
      </trkpt>
      <trkpt lat="42.9837060" lon="0.7474390">
        <ele>543.2</ele>
        <time>2020-07-29T07:48:20Z</time>
      </trkpt>
      <trkpt lat="42.9834810" lon="0.7476670">
        <ele>544.7</ele>
        <time>2020-07-29T07:48:28Z</time>
      </trkpt>
      <trkpt lat="42.9834520" lon="0.7477000">
        <ele>544.9</ele>
        <time>2020-07-29T07:48:29Z</time>
      </trkpt>
      <trkpt lat="42.9832670" lon="0.7479260">
        <ele>546.2</ele>
        <time>2020-07-29T07:48:36Z</time>
      </trkpt>
      <trkpt lat="42.9831630" lon="0.7480400">
        <ele>547.0</ele>
        <time>2020-07-29T07:48:40Z</time>
      </trkpt>
      <trkpt lat="42.9831110" lon="0.7480920">
        <ele>547.3</ele>
        <time>2020-07-29T07:48:42Z</time>
      </trkpt>
      <trkpt lat="42.9829770" lon="0.7482520">
        <ele>548.4</ele>
        <time>2020-07-29T07:48:47Z</time>
      </trkpt>
      <trkpt lat="42.9827980" lon="0.7484540">
        <ele>549.7</ele>
        <time>2020-07-29T07:48:54Z</time>
      </trkpt>
      <trkpt lat="42.9827730" lon="0.7484830">
        <ele>549.9</ele>
        <time>2020-07-29T07:48:55Z</time>
      </trkpt>
      <trkpt lat="42.9826790" lon="0.7485930">
        <ele>550.5</ele>
        <time>2020-07-29T07:48:59Z</time>
      </trkpt>
      <trkpt lat="42.9826510" lon="0.7486250">
        <ele>550.8</ele>
        <time>2020-07-29T07:49:00Z</time>
      </trkpt>
      <trkpt lat="42.9824990" lon="0.7488000">
        <ele>552.0</ele>
        <time>2020-07-29T07:49:05Z</time>
      </trkpt>
      <trkpt lat="42.9824050" lon="0.7489050">
        <ele>552.7</ele>
        <time>2020-07-29T07:49:08Z</time>
      </trkpt>
      <trkpt lat="42.9823410" lon="0.7489670">
        <ele>553.2</ele>
        <time>2020-07-29T07:49:10Z</time>
      </trkpt>
      <trkpt lat="42.9821540" lon="0.7491310">
        <ele>554.4</ele>
        <time>2020-07-29T07:49:16Z</time>
      </trkpt>
      <trkpt lat="42.9819740" lon="0.7492560">
        <ele>555.4</ele>
        <time>2020-07-29T07:49:22Z</time>
      </trkpt>
      <trkpt lat="42.9818470" lon="0.7493340">
        <ele>556.2</ele>
        <time>2020-07-29T07:49:26Z</time>
      </trkpt>
      <trkpt lat="42.9818150" lon="0.7493500">
        <ele>556.4</ele>
        <time>2020-07-29T07:49:27Z</time>
      </trkpt>
      <trkpt lat="42.9816170" lon="0.7494440">
        <ele>557.5</ele>
        <time>2020-07-29T07:49:33Z</time>
      </trkpt>
      <trkpt lat="42.9815530" lon="0.7494640">
        <ele>557.8</ele>
        <time>2020-07-29T07:49:35Z</time>
      </trkpt>
      <trkpt lat="42.9814580" lon="0.7494910">
        <ele>558.4</ele>
        <time>2020-07-29T07:49:38Z</time>
      </trkpt>
      <trkpt lat="42.9812850" lon="0.7495380">
        <ele>559.3</ele>
        <time>2020-07-29T07:49:43Z</time>
      </trkpt>
      <trkpt lat="42.9812510" lon="0.7495450">
        <ele>559.5</ele>
        <time>2020-07-29T07:49:44Z</time>
      </trkpt>
      <trkpt lat="42.9810630" lon="0.7495750">
        <ele>560.5</ele>
        <time>2020-07-29T07:49:50Z</time>
      </trkpt>
      <trkpt lat="42.9810310" lon="0.7495810">
        <ele>560.6</ele>
        <time>2020-07-29T07:49:51Z</time>
      </trkpt>
      <trkpt lat="42.9808570" lon="0.7496200">
        <ele>561.4</ele>
        <time>2020-07-29T07:49:56Z</time>
      </trkpt>
      <trkpt lat="42.9807400" lon="0.7496500">
        <ele>561.9</ele>
        <time>2020-07-29T07:49:59Z</time>
      </trkpt>
      <trkpt lat="42.9805760" lon="0.7497130">
        <ele>562.3</ele>
        <time>2020-07-29T07:50:03Z</time>
      </trkpt>
      <trkpt lat="42.9805350" lon="0.7497360">
        <ele>562.4</ele>
        <time>2020-07-29T07:50:04Z</time>
      </trkpt>
      <trkpt lat="42.9804930" lon="0.7497650">
        <ele>562.5</ele>
        <time>2020-07-29T07:50:05Z</time>
      </trkpt>
      <trkpt lat="42.9803710" lon="0.7498750">
        <ele>562.8</ele>
        <time>2020-07-29T07:50:08Z</time>
      </trkpt>
      <trkpt lat="42.9803360" lon="0.7499220">
        <ele>562.9</ele>
        <time>2020-07-29T07:50:09Z</time>
      </trkpt>
      <trkpt lat="42.9801910" lon="0.7501930">
        <ele>563.4</ele>
        <time>2020-07-29T07:50:14Z</time>
      </trkpt>
      <trkpt lat="42.9801510" lon="0.7503140">
        <ele>563.6</ele>
        <time>2020-07-29T07:50:16Z</time>
      </trkpt>
      <trkpt lat="42.9801260" lon="0.7504390">
        <ele>563.8</ele>
        <time>2020-07-29T07:50:18Z</time>
      </trkpt>
      <trkpt lat="42.9801210" lon="0.7505610">
        <ele>564.0</ele>
        <time>2020-07-29T07:50:20Z</time>
      </trkpt>
      <trkpt lat="42.9801230" lon="0.7506230">
        <ele>564.1</ele>
        <time>2020-07-29T07:50:21Z</time>
      </trkpt>
      <trkpt lat="42.9801400" lon="0.7508150">
        <ele>564.3</ele>
        <time>2020-07-29T07:50:24Z</time>
      </trkpt>
      <trkpt lat="42.9801800" lon="0.7510070">
        <ele>564.6</ele>
        <time>2020-07-29T07:50:27Z</time>
      </trkpt>
      <trkpt lat="42.9802940" lon="0.7515950">
        <ele>565.5</ele>
        <time>2020-07-29T07:50:36Z</time>
      </trkpt>
      <trkpt lat="42.9803110" lon="0.7518490">
        <ele>566.0</ele>
        <time>2020-07-29T07:50:40Z</time>
      </trkpt>
      <trkpt lat="42.9802960" lon="0.7519770">
        <ele>566.3</ele>
        <time>2020-07-29T07:50:42Z</time>
      </trkpt>
      <trkpt lat="42.9802100" lon="0.7521940">
        <ele>566.7</ele>
        <time>2020-07-29T07:50:46Z</time>
      </trkpt>
      <trkpt lat="42.9800190" lon="0.7524020">
        <ele>567.1</ele>
        <time>2020-07-29T07:50:51Z</time>
      </trkpt>
      <trkpt lat="42.9799240" lon="0.7524500">
        <ele>567.4</ele>
        <time>2020-07-29T07:50:53Z</time>
      </trkpt>
      <trkpt lat="42.9797740" lon="0.7524910">
        <ele>567.8</ele>
        <time>2020-07-29T07:50:56Z</time>
      </trkpt>
      <trkpt lat="42.9797220" lon="0.7524990">
        <ele>567.9</ele>
        <time>2020-07-29T07:50:57Z</time>
      </trkpt>
      <trkpt lat="42.9795190" lon="0.7525110">
        <ele>568.4</ele>
        <time>2020-07-29T07:51:01Z</time>
      </trkpt>
      <trkpt lat="42.9794200" lon="0.7525090">
        <ele>568.6</ele>
        <time>2020-07-29T07:51:03Z</time>
      </trkpt>
      <trkpt lat="42.9793690" lon="0.7525090">
        <ele>568.7</ele>
        <time>2020-07-29T07:51:04Z</time>
      </trkpt>
      <trkpt lat="42.9791060" lon="0.7525680">
        <ele>569.2</ele>
        <time>2020-07-29T07:51:09Z</time>
      </trkpt>
      <trkpt lat="42.9788950" lon="0.7527780">
        <ele>569.8</ele>
        <time>2020-07-29T07:51:14Z</time>
      </trkpt>
      <trkpt lat="42.9787620" lon="0.7531100">
        <ele>570.3</ele>
        <time>2020-07-29T07:51:19Z</time>
      </trkpt>
      <trkpt lat="42.9787510" lon="0.7531820">
        <ele>570.4</ele>
        <time>2020-07-29T07:51:20Z</time>
      </trkpt>
      <trkpt lat="42.9787880" lon="0.7534350">
        <ele>570.9</ele>
        <time>2020-07-29T07:51:24Z</time>
      </trkpt>
      <trkpt lat="42.9788050" lon="0.7535590">
        <ele>571.1</ele>
        <time>2020-07-29T07:51:26Z</time>
      </trkpt>
      <trkpt lat="42.9788390" lon="0.7537630">
        <ele>571.5</ele>
        <time>2020-07-29T07:51:29Z</time>
      </trkpt>
      <trkpt lat="42.9788580" lon="0.7539700">
        <ele>571.9</ele>
        <time>2020-07-29T07:51:32Z</time>
      </trkpt>
      <trkpt lat="42.9788570" lon="0.7540430">
        <ele>572.0</ele>
        <time>2020-07-29T07:51:33Z</time>
      </trkpt>
      <trkpt lat="42.9788470" lon="0.7541820">
        <ele>572.2</ele>
        <time>2020-07-29T07:51:35Z</time>
      </trkpt>
      <trkpt lat="42.9787510" lon="0.7545050">
        <ele>572.8</ele>
        <time>2020-07-29T07:51:40Z</time>
      </trkpt>
      <trkpt lat="42.9786820" lon="0.7546170">
        <ele>573.1</ele>
        <time>2020-07-29T07:51:42Z</time>
      </trkpt>
      <trkpt lat="42.9786070" lon="0.7547120">
        <ele>573.3</ele>
        <time>2020-07-29T07:51:44Z</time>
      </trkpt>
      <trkpt lat="42.9785300" lon="0.7547930">
        <ele>573.5</ele>
        <time>2020-07-29T07:51:46Z</time>
      </trkpt>
      <trkpt lat="42.9782860" lon="0.7550300">
        <ele>574.2</ele>
        <time>2020-07-29T07:51:52Z</time>
      </trkpt>
      <trkpt lat="42.9782030" lon="0.7551210">
        <ele>574.5</ele>
        <time>2020-07-29T07:51:54Z</time>
      </trkpt>
      <trkpt lat="42.9779640" lon="0.7554010">
        <ele>575.1</ele>
        <time>2020-07-29T07:52:00Z</time>
      </trkpt>
      <trkpt lat="42.9778950" lon="0.7555050">
        <ele>575.3</ele>
        <time>2020-07-29T07:52:02Z</time>
      </trkpt>
      <trkpt lat="42.9778650" lon="0.7555640">
        <ele>575.4</ele>
        <time>2020-07-29T07:52:03Z</time>
      </trkpt>
      <trkpt lat="42.9777540" lon="0.7559490">
        <ele>576.2</ele>
        <time>2020-07-29T07:52:09Z</time>
      </trkpt>
      <trkpt lat="42.9777450" lon="0.7563740">
        <ele>577.2</ele>
        <time>2020-07-29T07:52:15Z</time>
      </trkpt>
      <trkpt lat="42.9777950" lon="0.7569030">
        <ele>578.5</ele>
        <time>2020-07-29T07:52:23Z</time>
      </trkpt>
      <trkpt lat="42.9778250" lon="0.7571420">
        <ele>579.3</ele>
        <time>2020-07-29T07:52:27Z</time>
      </trkpt>
      <trkpt lat="42.9778420" lon="0.7573720">
        <ele>580.0</ele>
        <time>2020-07-29T07:52:31Z</time>
      </trkpt>
      <trkpt lat="42.9778560" lon="0.7574320">
        <ele>580.1</ele>
        <time>2020-07-29T07:52:32Z</time>
      </trkpt>
      <trkpt lat="42.9779110" lon="0.7577530">
        <ele>580.7</ele>
        <time>2020-07-29T07:52:37Z</time>
      </trkpt>
      <trkpt lat="42.9779550" lon="0.7579400">
        <ele>581.1</ele>
        <time>2020-07-29T07:52:40Z</time>
      </trkpt>
      <trkpt lat="42.9780200" lon="0.7583020">
        <ele>581.6</ele>
        <time>2020-07-29T07:52:46Z</time>
      </trkpt>
      <trkpt lat="42.9780470" lon="0.7584870">
        <ele>581.9</ele>
        <time>2020-07-29T07:52:49Z</time>
      </trkpt>
      <trkpt lat="42.9781050" lon="0.7588690">
        <ele>582.2</ele>
        <time>2020-07-29T07:52:55Z</time>
      </trkpt>
      <trkpt lat="42.9781370" lon="0.7591440">
        <ele>582.1</ele>
        <time>2020-07-29T07:52:59Z</time>
      </trkpt>
      <trkpt lat="42.9781810" lon="0.7594270">
        <ele>582.0</ele>
        <time>2020-07-29T07:53:03Z</time>
      </trkpt>
      <trkpt lat="42.9782300" lon="0.7597890">
        <ele>582.2</ele>
        <time>2020-07-29T07:53:08Z</time>
      </trkpt>
      <trkpt lat="42.9783130" lon="0.7604070">
        <ele>582.9</ele>
        <time>2020-07-29T07:53:17Z</time>
      </trkpt>
      <trkpt lat="42.9783860" lon="0.7609040">
        <ele>584.4</ele>
        <time>2020-07-29T07:53:24Z</time>
      </trkpt>
      <trkpt lat="42.9784200" lon="0.7612190">
        <ele>585.5</ele>
        <time>2020-07-29T07:53:29Z</time>
      </trkpt>
      <trkpt lat="42.9784320" lon="0.7614030">
        <ele>586.1</ele>
        <time>2020-07-29T07:53:32Z</time>
      </trkpt>
      <trkpt lat="42.9784470" lon="0.7616480">
        <ele>586.9</ele>
        <time>2020-07-29T07:53:36Z</time>
      </trkpt>
      <trkpt lat="42.9784680" lon="0.7618240">
        <ele>587.5</ele>
        <time>2020-07-29T07:53:40Z</time>
      </trkpt>
      <trkpt lat="42.9784920" lon="0.7621790">
        <ele>588.7</ele>
        <time>2020-07-29T07:53:46Z</time>
      </trkpt>
      <trkpt lat="42.9784730" lon="0.7624120">
        <ele>589.5</ele>
        <time>2020-07-29T07:53:50Z</time>
      </trkpt>
      <trkpt lat="42.9784500" lon="0.7626490">
        <ele>590.3</ele>
        <time>2020-07-29T07:53:54Z</time>
      </trkpt>
      <trkpt lat="42.9784420" lon="0.7627660">
        <ele>590.6</ele>
        <time>2020-07-29T07:53:56Z</time>
      </trkpt>
      <trkpt lat="42.9783720" lon="0.7632740">
        <ele>591.8</ele>
        <time>2020-07-29T07:54:03Z</time>
      </trkpt>
      <trkpt lat="42.9783520" lon="0.7637730">
        <ele>592.4</ele>
        <time>2020-07-29T07:54:11Z</time>
      </trkpt>
      <trkpt lat="42.9783400" lon="0.7641530">
        <ele>592.7</ele>
        <time>2020-07-29T07:54:15Z</time>
      </trkpt>
      <trkpt lat="42.9783330" lon="0.7642960">
        <ele>592.8</ele>
        <time>2020-07-29T07:54:18Z</time>
      </trkpt>
      <trkpt lat="42.9783210" lon="0.7643660">
        <ele>592.8</ele>
        <time>2020-07-29T07:54:19Z</time>
      </trkpt>
      <trkpt lat="42.9782690" lon="0.7651630">
        <ele>592.8</ele>
        <time>2020-07-29T07:54:29Z</time>
      </trkpt>
      <trkpt lat="42.9782660" lon="0.7653370">
        <ele>592.8</ele>
        <time>2020-07-29T07:54:31Z</time>
      </trkpt>
      <trkpt lat="42.9782750" lon="0.7656790">
        <ele>592.9</ele>
        <time>2020-07-29T07:54:35Z</time>
      </trkpt>
      <trkpt lat="42.9782570" lon="0.7662190">
        <ele>593.3</ele>
        <time>2020-07-29T07:54:41Z</time>
      </trkpt>
      <trkpt lat="42.9782210" lon="0.7670030">
        <ele>594.2</ele>
        <time>2020-07-29T07:54:50Z</time>
      </trkpt>
      <trkpt lat="42.9782160" lon="0.7670880">
        <ele>594.4</ele>
        <time>2020-07-29T07:54:51Z</time>
      </trkpt>
      <trkpt lat="42.9781840" lon="0.7676550">
        <ele>595.3</ele>
        <time>2020-07-29T07:54:58Z</time>
      </trkpt>
      <trkpt lat="42.9781500" lon="0.7681110">
        <ele>596.4</ele>
        <time>2020-07-29T07:55:04Z</time>
      </trkpt>
      <trkpt lat="42.9781260" lon="0.7684050">
        <ele>597.1</ele>
        <time>2020-07-29T07:55:08Z</time>
      </trkpt>
      <trkpt lat="42.9781010" lon="0.7686890">
        <ele>597.8</ele>
        <time>2020-07-29T07:55:12Z</time>
      </trkpt>
      <trkpt lat="42.9780820" lon="0.7689600">
        <ele>598.5</ele>
        <time>2020-07-29T07:55:16Z</time>
      </trkpt>
      <trkpt lat="42.9780670" lon="0.7690890">
        <ele>598.8</ele>
        <time>2020-07-29T07:55:18Z</time>
      </trkpt>
      <trkpt lat="42.9780510" lon="0.7694200">
        <ele>599.6</ele>
        <time>2020-07-29T07:55:23Z</time>
      </trkpt>
      <trkpt lat="42.9780460" lon="0.7695510">
        <ele>599.9</ele>
        <time>2020-07-29T07:55:25Z</time>
      </trkpt>
      <trkpt lat="42.9780400" lon="0.7696140">
        <ele>600.0</ele>
        <time>2020-07-29T07:55:26Z</time>
      </trkpt>
      <trkpt lat="42.9780230" lon="0.7698070">
        <ele>600.5</ele>
        <time>2020-07-29T07:55:29Z</time>
      </trkpt>
      <trkpt lat="42.9780130" lon="0.7699930">
        <ele>601.0</ele>
        <time>2020-07-29T07:55:32Z</time>
      </trkpt>
      <trkpt lat="42.9780040" lon="0.7701790">
        <ele>601.4</ele>
        <time>2020-07-29T07:55:35Z</time>
      </trkpt>
      <trkpt lat="42.9780010" lon="0.7702390">
        <ele>601.6</ele>
        <time>2020-07-29T07:55:36Z</time>
      </trkpt>
      <trkpt lat="42.9780160" lon="0.7704890">
        <ele>602.0</ele>
        <time>2020-07-29T07:55:40Z</time>
      </trkpt>
      <trkpt lat="42.9780210" lon="0.7706140">
        <ele>602.2</ele>
        <time>2020-07-29T07:55:42Z</time>
      </trkpt>
      <trkpt lat="42.9780280" lon="0.7706790">
        <ele>602.2</ele>
        <time>2020-07-29T07:55:43Z</time>
      </trkpt>
      <trkpt lat="42.9780450" lon="0.7708180">
        <ele>602.3</ele>
        <time>2020-07-29T07:55:45Z</time>
      </trkpt>
      <trkpt lat="42.9780920" lon="0.7710570">
        <ele>602.3</ele>
        <time>2020-07-29T07:55:47Z</time>
      </trkpt>
      <trkpt lat="42.9782000" lon="0.7715310">
        <ele>602.2</ele>
        <time>2020-07-29T07:55:54Z</time>
      </trkpt>
      <trkpt lat="42.9783070" lon="0.7719580">
        <ele>601.0</ele>
        <time>2020-07-29T07:55:59Z</time>
      </trkpt>
      <trkpt lat="42.9783350" lon="0.7720550">
        <ele>600.7</ele>
        <time>2020-07-29T07:56:00Z</time>
      </trkpt>
      <trkpt lat="42.9784410" lon="0.7725990">
        <ele>598.6</ele>
        <time>2020-07-29T07:56:05Z</time>
      </trkpt>
      <trkpt lat="42.9785020" lon="0.7730950">
        <ele>596.5</ele>
        <time>2020-07-29T07:56:09Z</time>
      </trkpt>
      <trkpt lat="42.9784750" lon="0.7733550">
        <ele>595.3</ele>
        <time>2020-07-29T07:56:11Z</time>
      </trkpt>
      <trkpt lat="42.9784360" lon="0.7734760">
        <ele>594.7</ele>
        <time>2020-07-29T07:56:12Z</time>
      </trkpt>
      <trkpt lat="42.9783810" lon="0.7735960">
        <ele>593.9</ele>
        <time>2020-07-29T07:56:13Z</time>
      </trkpt>
      <trkpt lat="42.9782560" lon="0.7738230">
        <ele>592.4</ele>
        <time>2020-07-29T07:56:15Z</time>
      </trkpt>
      <trkpt lat="42.9782080" lon="0.7739470">
        <ele>591.8</ele>
        <time>2020-07-29T07:56:16Z</time>
      </trkpt>
      <trkpt lat="42.9781680" lon="0.7743620">
        <ele>589.9</ele>
        <time>2020-07-29T07:56:18Z</time>
      </trkpt>
      <trkpt lat="42.9781850" lon="0.7744570">
        <ele>589.5</ele>
        <time>2020-07-29T07:56:19Z</time>
      </trkpt>
      <trkpt lat="42.9782010" lon="0.7745520">
        <ele>589.1</ele>
        <time>2020-07-29T07:56:20Z</time>
      </trkpt>
      <trkpt lat="42.9782660" lon="0.7749320">
        <ele>587.4</ele>
        <time>2020-07-29T07:56:22Z</time>
      </trkpt>
      <trkpt lat="42.9782780" lon="0.7750760">
        <ele>586.8</ele>
        <time>2020-07-29T07:56:23Z</time>
      </trkpt>
      <trkpt lat="42.9782350" lon="0.7754040">
        <ele>585.1</ele>
        <time>2020-07-29T07:56:25Z</time>
      </trkpt>
      <trkpt lat="42.9782110" lon="0.7755620">
        <ele>584.3</ele>
        <time>2020-07-29T07:56:26Z</time>
      </trkpt>
      <trkpt lat="42.9781930" lon="0.7757320">
        <ele>583.5</ele>
        <time>2020-07-29T07:56:27Z</time>
      </trkpt>
      <trkpt lat="42.9782010" lon="0.7759180">
        <ele>582.7</ele>
        <time>2020-07-29T07:56:28Z</time>
      </trkpt>
      <trkpt lat="42.9782090" lon="0.7760050">
        <ele>582.3</ele>
        <time>2020-07-29T07:56:29Z</time>
      </trkpt>
      <trkpt lat="42.9782170" lon="0.7760930">
        <ele>581.9</ele>
        <time>2020-07-29T07:56:30Z</time>
      </trkpt>
      <trkpt lat="42.9782330" lon="0.7762680">
        <ele>581.1</ele>
        <time>2020-07-29T07:56:31Z</time>
      </trkpt>
      <trkpt lat="42.9782740" lon="0.7764290">
        <ele>580.5</ele>
        <time>2020-07-29T07:56:32Z</time>
      </trkpt>
      <trkpt lat="42.9783160" lon="0.7766530">
        <ele>579.5</ele>
        <time>2020-07-29T07:56:33Z</time>
      </trkpt>
      <trkpt lat="42.9784000" lon="0.7771000">
        <ele>577.3</ele>
        <time>2020-07-29T07:56:35Z</time>
      </trkpt>
      <trkpt lat="42.9784170" lon="0.7774310">
        <ele>575.7</ele>
        <time>2020-07-29T07:56:37Z</time>
      </trkpt>
      <trkpt lat="42.9784250" lon="0.7775980">
        <ele>575.0</ele>
        <time>2020-07-29T07:56:39Z</time>
      </trkpt>
      <trkpt lat="42.9784370" lon="0.7777690">
        <ele>574.3</ele>
        <time>2020-07-29T07:56:40Z</time>
      </trkpt>
      <trkpt lat="42.9784580" lon="0.7779360">
        <ele>573.6</ele>
        <time>2020-07-29T07:56:41Z</time>
      </trkpt>
      <trkpt lat="42.9786000" lon="0.7784190">
        <ele>571.4</ele>
        <time>2020-07-29T07:56:44Z</time>
      </trkpt>
      <trkpt lat="42.9787880" lon="0.7790500">
        <ele>568.6</ele>
        <time>2020-07-29T07:56:47Z</time>
      </trkpt>
      <trkpt lat="42.9788880" lon="0.7793900">
        <ele>567.1</ele>
        <time>2020-07-29T07:56:50Z</time>
      </trkpt>
      <trkpt lat="42.9789470" lon="0.7797420">
        <ele>565.9</ele>
        <time>2020-07-29T07:56:52Z</time>
      </trkpt>
      <trkpt lat="42.9789900" lon="0.7800960">
        <ele>564.7</ele>
        <time>2020-07-29T07:56:54Z</time>
      </trkpt>
      <trkpt lat="42.9790050" lon="0.7804500">
        <ele>563.6</ele>
        <time>2020-07-29T07:56:56Z</time>
      </trkpt>
      <trkpt lat="42.9790250" lon="0.7808020">
        <ele>562.6</ele>
        <time>2020-07-29T07:56:58Z</time>
      </trkpt>
      <trkpt lat="42.9790420" lon="0.7809740">
        <ele>562.1</ele>
        <time>2020-07-29T07:56:59Z</time>
      </trkpt>
      <trkpt lat="42.9790560" lon="0.7811480">
        <ele>561.7</ele>
        <time>2020-07-29T07:57:00Z</time>
      </trkpt>
      <trkpt lat="42.9790890" lon="0.7816390">
        <ele>560.8</ele>
        <time>2020-07-29T07:57:03Z</time>
      </trkpt>
      <trkpt lat="42.9791110" lon="0.7818010">
        <ele>560.4</ele>
        <time>2020-07-29T07:57:04Z</time>
      </trkpt>
      <trkpt lat="42.9791260" lon="0.7819610">
        <ele>560.1</ele>
        <time>2020-07-29T07:57:05Z</time>
      </trkpt>
      <trkpt lat="42.9791600" lon="0.7822740">
        <ele>559.5</ele>
        <time>2020-07-29T07:57:07Z</time>
      </trkpt>
      <trkpt lat="42.9792160" lon="0.7828880">
        <ele>558.7</ele>
        <time>2020-07-29T07:57:11Z</time>
      </trkpt>
      <trkpt lat="42.9792360" lon="0.7831830">
        <ele>558.2</ele>
        <time>2020-07-29T07:57:13Z</time>
      </trkpt>
      <trkpt lat="42.9792460" lon="0.7836250">
        <ele>556.8</ele>
        <time>2020-07-29T07:57:16Z</time>
      </trkpt>
      <trkpt lat="42.9792550" lon="0.7837790">
        <ele>556.2</ele>
        <time>2020-07-29T07:57:17Z</time>
      </trkpt>
      <trkpt lat="42.9792470" lon="0.7839440">
        <ele>555.6</ele>
        <time>2020-07-29T07:57:18Z</time>
      </trkpt>
      <trkpt lat="42.9792180" lon="0.7840980">
        <ele>555.0</ele>
        <time>2020-07-29T07:57:19Z</time>
      </trkpt>
      <trkpt lat="42.9791030" lon="0.7845180">
        <ele>553.5</ele>
        <time>2020-07-29T07:57:22Z</time>
      </trkpt>
      <trkpt lat="42.9790710" lon="0.7846440">
        <ele>553.0</ele>
        <time>2020-07-29T07:57:23Z</time>
      </trkpt>
      <trkpt lat="42.9790340" lon="0.7849390">
        <ele>551.8</ele>
        <time>2020-07-29T07:57:25Z</time>
      </trkpt>
      <trkpt lat="42.9790350" lon="0.7852440">
        <ele>550.5</ele>
        <time>2020-07-29T07:57:27Z</time>
      </trkpt>
      <trkpt lat="42.9790690" lon="0.7855540">
        <ele>549.0</ele>
        <time>2020-07-29T07:57:29Z</time>
      </trkpt>
      <trkpt lat="42.9790940" lon="0.7857070">
        <ele>548.4</ele>
        <time>2020-07-29T07:57:30Z</time>
      </trkpt>
      <trkpt lat="42.9791220" lon="0.7858610">
        <ele>547.8</ele>
        <time>2020-07-29T07:57:31Z</time>
      </trkpt>
      <trkpt lat="42.9791540" lon="0.7860120">
        <ele>547.2</ele>
        <time>2020-07-29T07:57:32Z</time>
      </trkpt>
      <trkpt lat="42.9791910" lon="0.7861580">
        <ele>546.6</ele>
        <time>2020-07-29T07:57:33Z</time>
      </trkpt>
      <trkpt lat="42.9792880" lon="0.7864400">
        <ele>545.5</ele>
        <time>2020-07-29T07:57:35Z</time>
      </trkpt>
      <trkpt lat="42.9793510" lon="0.7865580">
        <ele>545.0</ele>
        <time>2020-07-29T07:57:36Z</time>
      </trkpt>
      <trkpt lat="42.9794310" lon="0.7866710">
        <ele>544.6</ele>
        <time>2020-07-29T07:57:37Z</time>
      </trkpt>
      <trkpt lat="42.9795140" lon="0.7867700">
        <ele>544.1</ele>
        <time>2020-07-29T07:57:38Z</time>
      </trkpt>
      <trkpt lat="42.9796030" lon="0.7868500">
        <ele>543.6</ele>
        <time>2020-07-29T07:57:39Z</time>
      </trkpt>
      <trkpt lat="42.9797900" lon="0.7869620">
        <ele>542.6</ele>
        <time>2020-07-29T07:57:41Z</time>
      </trkpt>
      <trkpt lat="42.9798900" lon="0.7870090">
        <ele>542.1</ele>
        <time>2020-07-29T07:57:42Z</time>
      </trkpt>
      <trkpt lat="42.9799990" lon="0.7870610">
        <ele>541.5</ele>
        <time>2020-07-29T07:57:43Z</time>
      </trkpt>
      <trkpt lat="42.9802000" lon="0.7871580">
        <ele>540.5</ele>
        <time>2020-07-29T07:57:45Z</time>
      </trkpt>
      <trkpt lat="42.9805030" lon="0.7872880">
        <ele>538.9</ele>
        <time>2020-07-29T07:57:48Z</time>
      </trkpt>
      <trkpt lat="42.9806940" lon="0.7873860">
        <ele>537.8</ele>
        <time>2020-07-29T07:57:50Z</time>
      </trkpt>
      <trkpt lat="42.9808870" lon="0.7874830">
        <ele>536.8</ele>
        <time>2020-07-29T07:57:52Z</time>
      </trkpt>
      <trkpt lat="42.9810890" lon="0.7875800">
        <ele>535.7</ele>
        <time>2020-07-29T07:57:54Z</time>
      </trkpt>
      <trkpt lat="42.9813030" lon="0.7876710">
        <ele>534.6</ele>
        <time>2020-07-29T07:57:56Z</time>
      </trkpt>
      <trkpt lat="42.9813980" lon="0.7877120">
        <ele>534.1</ele>
        <time>2020-07-29T07:57:57Z</time>
      </trkpt>
      <trkpt lat="42.9815810" lon="0.7878370">
        <ele>533.2</ele>
        <time>2020-07-29T07:58:00Z</time>
      </trkpt>
      <trkpt lat="42.9816230" lon="0.7879040">
        <ele>532.9</ele>
        <time>2020-07-29T07:58:01Z</time>
      </trkpt>
      <trkpt lat="42.9816640" lon="0.7879900">
        <ele>531.5</ele>
        <time>2020-07-29T07:58:02Z</time>
      </trkpt>
      <trkpt lat="42.9816540" lon="0.7880680">
        <ele>531.2</ele>
        <time>2020-07-29T07:58:03Z</time>
      </trkpt>
      <trkpt lat="42.9816210" lon="0.7881330">
        <ele>530.8</ele>
        <time>2020-07-29T07:58:04Z</time>
      </trkpt>
      <trkpt lat="42.9815050" lon="0.7882070">
        <ele>530.1</ele>
        <time>2020-07-29T07:58:06Z</time>
      </trkpt>
      <trkpt lat="42.9813520" lon="0.7882220">
        <ele>529.3</ele>
        <time>2020-07-29T07:58:08Z</time>
      </trkpt>
      <trkpt lat="42.9811900" lon="0.7882260">
        <ele>528.3</ele>
        <time>2020-07-29T07:58:10Z</time>
      </trkpt>
      <trkpt lat="42.9811050" lon="0.7882460">
        <ele>527.7</ele>
        <time>2020-07-29T07:58:11Z</time>
      </trkpt>
      <trkpt lat="42.9808350" lon="0.7883430">
        <ele>525.8</ele>
        <time>2020-07-29T07:58:14Z</time>
      </trkpt>
      <trkpt lat="42.9807410" lon="0.7883800">
        <ele>525.1</ele>
        <time>2020-07-29T07:58:15Z</time>
      </trkpt>
      <trkpt lat="42.9804370" lon="0.7884690">
        <ele>522.7</ele>
        <time>2020-07-29T07:58:18Z</time>
      </trkpt>
      <trkpt lat="42.9803290" lon="0.7884880">
        <ele>521.8</ele>
        <time>2020-07-29T07:58:19Z</time>
      </trkpt>
      <trkpt lat="42.9802180" lon="0.7885020">
        <ele>520.9</ele>
        <time>2020-07-29T07:58:20Z</time>
      </trkpt>
      <trkpt lat="42.9799730" lon="0.7885100">
        <ele>518.9</ele>
        <time>2020-07-29T07:58:22Z</time>
      </trkpt>
      <trkpt lat="42.9798420" lon="0.7885010">
        <ele>517.7</ele>
        <time>2020-07-29T07:58:23Z</time>
      </trkpt>
      <trkpt lat="42.9797100" lon="0.7884850">
        <ele>516.5</ele>
        <time>2020-07-29T07:58:24Z</time>
      </trkpt>
      <trkpt lat="42.9794370" lon="0.7884480">
        <ele>514.0</ele>
        <time>2020-07-29T07:58:26Z</time>
      </trkpt>
      <trkpt lat="42.9791630" lon="0.7884020">
        <ele>511.9</ele>
        <time>2020-07-29T07:58:28Z</time>
      </trkpt>
      <trkpt lat="42.9790270" lon="0.7883760">
        <ele>511.0</ele>
        <time>2020-07-29T07:58:29Z</time>
      </trkpt>
      <trkpt lat="42.9788970" lon="0.7883490">
        <ele>510.2</ele>
        <time>2020-07-29T07:58:30Z</time>
      </trkpt>
      <trkpt lat="42.9786300" lon="0.7883340">
        <ele>508.5</ele>
        <time>2020-07-29T07:58:32Z</time>
      </trkpt>
      <trkpt lat="42.9784960" lon="0.7883610">
        <ele>507.5</ele>
        <time>2020-07-29T07:58:33Z</time>
      </trkpt>
      <trkpt lat="42.9783690" lon="0.7884000">
        <ele>506.7</ele>
        <time>2020-07-29T07:58:34Z</time>
      </trkpt>
      <trkpt lat="42.9782430" lon="0.7884500">
        <ele>505.9</ele>
        <time>2020-07-29T07:58:35Z</time>
      </trkpt>
      <trkpt lat="42.9779970" lon="0.7885680">
        <ele>504.5</ele>
        <time>2020-07-29T07:58:37Z</time>
      </trkpt>
      <trkpt lat="42.9778720" lon="0.7886370">
        <ele>503.7</ele>
        <time>2020-07-29T07:58:38Z</time>
      </trkpt>
      <trkpt lat="42.9777470" lon="0.7886950">
        <ele>502.9</ele>
        <time>2020-07-29T07:58:39Z</time>
      </trkpt>
      <trkpt lat="42.9776210" lon="0.7887320">
        <ele>502.1</ele>
        <time>2020-07-29T07:58:40Z</time>
      </trkpt>
      <trkpt lat="42.9774930" lon="0.7887540">
        <ele>501.4</ele>
        <time>2020-07-29T07:58:41Z</time>
      </trkpt>
      <trkpt lat="42.9771150" lon="0.7888220">
        <ele>499.7</ele>
        <time>2020-07-29T07:58:44Z</time>
      </trkpt>
      <trkpt lat="42.9769930" lon="0.7888770">
        <ele>499.4</ele>
        <time>2020-07-29T07:58:45Z</time>
      </trkpt>
      <trkpt lat="42.9768780" lon="0.7889440">
        <ele>499.1</ele>
        <time>2020-07-29T07:58:46Z</time>
      </trkpt>
      <trkpt lat="42.9766500" lon="0.7890710">
        <ele>498.3</ele>
        <time>2020-07-29T07:58:48Z</time>
      </trkpt>
      <trkpt lat="42.9765320" lon="0.7891080">
        <ele>498.0</ele>
        <time>2020-07-29T07:58:49Z</time>
      </trkpt>
      <trkpt lat="42.9764090" lon="0.7891440">
        <ele>497.7</ele>
        <time>2020-07-29T07:58:50Z</time>
      </trkpt>
      <trkpt lat="42.9761760" lon="0.7891830">
        <ele>497.6</ele>
        <time>2020-07-29T07:58:52Z</time>
      </trkpt>
      <trkpt lat="42.9760680" lon="0.7891800">
        <ele>497.7</ele>
        <time>2020-07-29T07:58:53Z</time>
      </trkpt>
      <trkpt lat="42.9758540" lon="0.7891200">
        <ele>498.1</ele>
        <time>2020-07-29T07:58:55Z</time>
      </trkpt>
      <trkpt lat="42.9757520" lon="0.7890740">
        <ele>498.4</ele>
        <time>2020-07-29T07:58:56Z</time>
      </trkpt>
      <trkpt lat="42.9753970" lon="0.7888500">
        <ele>499.0</ele>
        <time>2020-07-29T07:59:00Z</time>
      </trkpt>
      <trkpt lat="42.9749330" lon="0.7885960">
        <ele>500.3</ele>
        <time>2020-07-29T07:59:06Z</time>
      </trkpt>
      <trkpt lat="42.9747230" lon="0.7885610">
        <ele>501.2</ele>
        <time>2020-07-29T07:59:09Z</time>
      </trkpt>
      <trkpt lat="42.9746620" lon="0.7885580">
        <ele>501.4</ele>
        <time>2020-07-29T07:59:10Z</time>
      </trkpt>
      <trkpt lat="42.9745970" lon="0.7885730">
        <ele>501.7</ele>
        <time>2020-07-29T07:59:11Z</time>
      </trkpt>
      <trkpt lat="42.9744660" lon="0.7886290">
        <ele>502.3</ele>
        <time>2020-07-29T07:59:13Z</time>
      </trkpt>
      <trkpt lat="42.9744010" lon="0.7886650">
        <ele>502.6</ele>
        <time>2020-07-29T07:59:14Z</time>
      </trkpt>
      <trkpt lat="42.9742910" lon="0.7887410">
        <ele>503.1</ele>
        <time>2020-07-29T07:59:16Z</time>
      </trkpt>
      <trkpt lat="42.9741410" lon="0.7888450">
        <ele>503.8</ele>
        <time>2020-07-29T07:59:19Z</time>
      </trkpt>
      <trkpt lat="42.9740890" lon="0.7888730">
        <ele>504.0</ele>
        <time>2020-07-29T07:59:20Z</time>
      </trkpt>
      <trkpt lat="42.9738360" lon="0.7889860">
        <ele>505.1</ele>
        <time>2020-07-29T07:59:25Z</time>
      </trkpt>
      <trkpt lat="42.9737840" lon="0.7890100">
        <ele>505.4</ele>
        <time>2020-07-29T07:59:26Z</time>
      </trkpt>
      <trkpt lat="42.9736540" lon="0.7890710">
        <ele>506.3</ele>
        <time>2020-07-29T07:59:29Z</time>
      </trkpt>
      <trkpt lat="42.9735640" lon="0.7891110">
        <ele>507.0</ele>
        <time>2020-07-29T07:59:31Z</time>
      </trkpt>
      <trkpt lat="42.9733720" lon="0.7891910">
        <ele>508.3</ele>
        <time>2020-07-29T07:59:36Z</time>
      </trkpt>
      <trkpt lat="42.9733010" lon="0.7892210">
        <ele>508.8</ele>
        <time>2020-07-29T07:59:38Z</time>
      </trkpt>
      <trkpt lat="42.9732630" lon="0.7892400">
        <ele>509.1</ele>
        <time>2020-07-29T07:59:39Z</time>
      </trkpt>
      <trkpt lat="42.9731500" lon="0.7892920">
        <ele>509.9</ele>
        <time>2020-07-29T07:59:42Z</time>
      </trkpt>
      <trkpt lat="42.9730310" lon="0.7893520">
        <ele>510.6</ele>
        <time>2020-07-29T07:59:45Z</time>
      </trkpt>
      <trkpt lat="42.9729430" lon="0.7893950">
        <ele>511.1</ele>
        <time>2020-07-29T07:59:47Z</time>
      </trkpt>
      <trkpt lat="42.9727990" lon="0.7894660">
        <ele>511.5</ele>
        <time>2020-07-29T07:59:50Z</time>
      </trkpt>
      <trkpt lat="42.9727500" lon="0.7894950">
        <ele>511.7</ele>
        <time>2020-07-29T07:59:51Z</time>
      </trkpt>
      <trkpt lat="42.9724590" lon="0.7897440">
        <ele>511.9</ele>
        <time>2020-07-29T07:59:57Z</time>
      </trkpt>
      <trkpt lat="42.9724160" lon="0.7897970">
        <ele>512.0</ele>
        <time>2020-07-29T07:59:58Z</time>
      </trkpt>
      <trkpt lat="42.9721620" lon="0.7901330">
        <ele>512.3</ele>
        <time>2020-07-29T08:00:04Z</time>
      </trkpt>
      <trkpt lat="42.9720680" lon="0.7902300">
        <ele>512.3</ele>
        <time>2020-07-29T08:00:06Z</time>
      </trkpt>
      <trkpt lat="42.9719140" lon="0.7903330">
        <ele>512.4</ele>
        <time>2020-07-29T08:00:09Z</time>
      </trkpt>
      <trkpt lat="42.9718590" lon="0.7903640">
        <ele>512.4</ele>
        <time>2020-07-29T08:00:10Z</time>
      </trkpt>
      <trkpt lat="42.9715850" lon="0.7904890">
        <ele>512.6</ele>
        <time>2020-07-29T08:00:15Z</time>
      </trkpt>
      <trkpt lat="42.9711670" lon="0.7906430">
        <ele>513.0</ele>
        <time>2020-07-29T08:00:22Z</time>
      </trkpt>
      <trkpt lat="42.9709920" lon="0.7907050">
        <ele>513.2</ele>
        <time>2020-07-29T08:00:25Z</time>
      </trkpt>
      <trkpt lat="42.9705900" lon="0.7908860">
        <ele>514.0</ele>
        <time>2020-07-29T08:00:32Z</time>
      </trkpt>
      <trkpt lat="42.9705370" lon="0.7908990">
        <ele>514.1</ele>
        <time>2020-07-29T08:00:33Z</time>
      </trkpt>
      <trkpt lat="42.9703260" lon="0.7909940">
        <ele>514.5</ele>
        <time>2020-07-29T08:00:37Z</time>
      </trkpt>
      <trkpt lat="42.9701670" lon="0.7910760">
        <ele>514.9</ele>
        <time>2020-07-29T08:00:40Z</time>
      </trkpt>
      <trkpt lat="42.9698120" lon="0.7912620">
        <ele>516.0</ele>
        <time>2020-07-29T08:00:47Z</time>
      </trkpt>
      <trkpt lat="42.9696070" lon="0.7913350">
        <ele>516.5</ele>
        <time>2020-07-29T08:00:51Z</time>
      </trkpt>
      <trkpt lat="42.9694990" lon="0.7913470">
        <ele>516.7</ele>
        <time>2020-07-29T08:00:53Z</time>
      </trkpt>
      <trkpt lat="42.9694430" lon="0.7913540">
        <ele>516.8</ele>
        <time>2020-07-29T08:00:54Z</time>
      </trkpt>
      <trkpt lat="42.9693880" lon="0.7913560">
        <ele>516.9</ele>
        <time>2020-07-29T08:00:55Z</time>
      </trkpt>
      <trkpt lat="42.9692210" lon="0.7913320">
        <ele>517.1</ele>
        <time>2020-07-29T08:00:58Z</time>
      </trkpt>
      <trkpt lat="42.9691700" lon="0.7913130">
        <ele>517.1</ele>
        <time>2020-07-29T08:00:59Z</time>
      </trkpt>
      <trkpt lat="42.9690170" lon="0.7912680">
        <ele>517.3</ele>
        <time>2020-07-29T08:01:02Z</time>
      </trkpt>
      <trkpt lat="42.9689650" lon="0.7912610">
        <ele>517.4</ele>
        <time>2020-07-29T08:01:03Z</time>
      </trkpt>
      <trkpt lat="42.9688640" lon="0.7912290">
        <ele>517.5</ele>
        <time>2020-07-29T08:01:05Z</time>
      </trkpt>
      <trkpt lat="42.9687520" lon="0.7912270">
        <ele>517.8</ele>
        <time>2020-07-29T08:01:07Z</time>
      </trkpt>
      <trkpt lat="42.9686360" lon="0.7912680">
        <ele>518.1</ele>
        <time>2020-07-29T08:01:09Z</time>
      </trkpt>
      <trkpt lat="42.9683760" lon="0.7914150">
        <ele>519.3</ele>
        <time>2020-07-29T08:01:14Z</time>
      </trkpt>
      <trkpt lat="42.9681490" lon="0.7916070">
        <ele>520.3</ele>
        <time>2020-07-29T08:01:19Z</time>
      </trkpt>
      <trkpt lat="42.9681020" lon="0.7916420">
        <ele>520.6</ele>
        <time>2020-07-29T08:01:20Z</time>
      </trkpt>
      <trkpt lat="42.9679780" lon="0.7917400">
        <ele>521.4</ele>
        <time>2020-07-29T08:01:23Z</time>
      </trkpt>
      <trkpt lat="42.9678690" lon="0.7918540">
        <ele>522.0</ele>
        <time>2020-07-29T08:01:25Z</time>
      </trkpt>
      <trkpt lat="42.9677330" lon="0.7920250">
        <ele>523.2</ele>
        <time>2020-07-29T08:01:30Z</time>
      </trkpt>
      <trkpt lat="42.9677040" lon="0.7920580">
        <ele>523.5</ele>
        <time>2020-07-29T08:01:32Z</time>
      </trkpt>
      <trkpt lat="42.9677040" lon="0.7920580">
        <ele>523.5</ele>
        <time>2020-07-29T08:01:35Z</time>
      </trkpt>
      <trkpt lat="42.9675170" lon="0.7922900">
        <ele>525.4</ele>
        <time>2020-07-29T08:01:39Z</time>
      </trkpt>
      <trkpt lat="42.9673770" lon="0.7924420">
        <ele>526.9</ele>
        <time>2020-07-29T08:01:44Z</time>
      </trkpt>
      <trkpt lat="42.9673310" lon="0.7924980">
        <ele>527.3</ele>
        <time>2020-07-29T08:01:46Z</time>
      </trkpt>
      <trkpt lat="42.9672860" lon="0.7925490">
        <ele>527.8</ele>
        <time>2020-07-29T08:01:48Z</time>
      </trkpt>
      <trkpt lat="42.9672000" lon="0.7926620">
        <ele>528.7</ele>
        <time>2020-07-29T08:01:52Z</time>
      </trkpt>
      <trkpt lat="42.9671330" lon="0.7927420">
        <ele>529.4</ele>
        <time>2020-07-29T08:01:56Z</time>
      </trkpt>
      <trkpt lat="42.9670660" lon="0.7928210">
        <ele>530.1</ele>
        <time>2020-07-29T08:01:58Z</time>
      </trkpt>
      <trkpt lat="42.9670210" lon="0.7928610">
        <ele>530.5</ele>
        <time>2020-07-29T08:02:00Z</time>
      </trkpt>
      <trkpt lat="42.9669340" lon="0.7929710">
        <ele>531.4</ele>
        <time>2020-07-29T08:02:04Z</time>
      </trkpt>
      <trkpt lat="42.9669340" lon="0.7929710">
        <ele>531.4</ele>
        <time>2020-07-29T08:02:06Z</time>
      </trkpt>
      <trkpt lat="42.9668100" lon="0.7931430">
        <ele>532.7</ele>
        <time>2020-07-29T08:02:10Z</time>
      </trkpt>
      <trkpt lat="42.9667160" lon="0.7931960">
        <ele>533.4</ele>
        <time>2020-07-29T08:02:13Z</time>
      </trkpt>
      <trkpt lat="42.9666580" lon="0.7932430">
        <ele>533.8</ele>
        <time>2020-07-29T08:02:15Z</time>
      </trkpt>
      <trkpt lat="42.9665110" lon="0.7932890">
        <ele>534.7</ele>
        <time>2020-07-29T08:02:19Z</time>
      </trkpt>
      <trkpt lat="42.9663680" lon="0.7932590">
        <ele>535.7</ele>
        <time>2020-07-29T08:02:21Z</time>
      </trkpt>
      <trkpt lat="42.9663140" lon="0.7934090">
        <ele>536.4</ele>
        <time>2020-07-29T08:02:25Z</time>
      </trkpt>
      <trkpt lat="42.9663000" lon="0.7934450">
        <ele>536.6</ele>
        <time>2020-07-29T08:02:27Z</time>
      </trkpt>
      <trkpt lat="42.9662700" lon="0.7935130">
        <ele>537.0</ele>
        <time>2020-07-29T08:02:29Z</time>
      </trkpt>
      <trkpt lat="42.9663270" lon="0.7937500">
        <ele>538.3</ele>
        <time>2020-07-29T08:02:34Z</time>
      </trkpt>
      <trkpt lat="42.9663600" lon="0.7938380">
        <ele>538.9</ele>
        <time>2020-07-29T08:02:36Z</time>
      </trkpt>
      <trkpt lat="42.9664960" lon="0.7940480">
        <ele>540.6</ele>
        <time>2020-07-29T08:02:40Z</time>
      </trkpt>
      <trkpt lat="42.9665170" lon="0.7940960">
        <ele>540.9</ele>
        <time>2020-07-29T08:02:41Z</time>
      </trkpt>
      <trkpt lat="42.9665960" lon="0.7943050">
        <ele>542.4</ele>
        <time>2020-07-29T08:02:46Z</time>
      </trkpt>
      <trkpt lat="42.9665760" lon="0.7943290">
        <ele>542.6</ele>
        <time>2020-07-29T08:02:47Z</time>
      </trkpt>
      <trkpt lat="42.9665030" lon="0.7943860">
        <ele>543.3</ele>
        <time>2020-07-29T08:02:50Z</time>
      </trkpt>
      <trkpt lat="42.9664290" lon="0.7944220">
        <ele>544.0</ele>
        <time>2020-07-29T08:02:53Z</time>
      </trkpt>
      <trkpt lat="42.9663760" lon="0.7944340">
        <ele>544.5</ele>
        <time>2020-07-29T08:02:55Z</time>
      </trkpt>
      <trkpt lat="42.9662680" lon="0.7944320">
        <ele>545.4</ele>
        <time>2020-07-29T08:02:59Z</time>
      </trkpt>
      <trkpt lat="42.9661400" lon="0.7944380">
        <ele>546.4</ele>
        <time>2020-07-29T08:03:04Z</time>
      </trkpt>
      <trkpt lat="42.9660900" lon="0.7944500">
        <ele>546.8</ele>
        <time>2020-07-29T08:03:06Z</time>
      </trkpt>
      <trkpt lat="42.9660390" lon="0.7944530">
        <ele>547.2</ele>
        <time>2020-07-29T08:03:08Z</time>
      </trkpt>
      <trkpt lat="42.9659270" lon="0.7944450">
        <ele>548.1</ele>
        <time>2020-07-29T08:03:12Z</time>
      </trkpt>
      <trkpt lat="42.9658740" lon="0.7944260">
        <ele>548.5</ele>
        <time>2020-07-29T08:03:14Z</time>
      </trkpt>
      <trkpt lat="42.9657650" lon="0.7944160">
        <ele>549.3</ele>
        <time>2020-07-29T08:03:18Z</time>
      </trkpt>
      <trkpt lat="42.9656550" lon="0.7943870">
        <ele>550.1</ele>
        <time>2020-07-29T08:03:23Z</time>
      </trkpt>
      <trkpt lat="42.9656330" lon="0.7943800">
        <ele>550.2</ele>
        <time>2020-07-29T08:03:24Z</time>
      </trkpt>
      <trkpt lat="42.9655350" lon="0.7943940">
        <ele>551.0</ele>
        <time>2020-07-29T08:03:28Z</time>
      </trkpt>
      <trkpt lat="42.9654820" lon="0.7944200">
        <ele>551.3</ele>
        <time>2020-07-29T08:03:30Z</time>
      </trkpt>
      <trkpt lat="42.9653670" lon="0.7944420">
        <ele>552.2</ele>
        <time>2020-07-29T08:03:34Z</time>
      </trkpt>
      <trkpt lat="42.9652530" lon="0.7944510">
        <ele>553.0</ele>
        <time>2020-07-29T08:03:38Z</time>
      </trkpt>
      <trkpt lat="42.9652230" lon="0.7944490">
        <ele>553.2</ele>
        <time>2020-07-29T08:03:39Z</time>
      </trkpt>
      <trkpt lat="42.9651170" lon="0.7944480">
        <ele>554.0</ele>
        <time>2020-07-29T08:03:43Z</time>
      </trkpt>
      <trkpt lat="42.9650820" lon="0.7944500">
        <ele>554.2</ele>
        <time>2020-07-29T08:03:44Z</time>
      </trkpt>
      <trkpt lat="42.9650110" lon="0.7944430">
        <ele>554.7</ele>
        <time>2020-07-29T08:03:47Z</time>
      </trkpt>
      <trkpt lat="42.9649660" lon="0.7944210">
        <ele>555.1</ele>
        <time>2020-07-29T08:03:49Z</time>
      </trkpt>
      <trkpt lat="42.9648700" lon="0.7944280">
        <ele>555.7</ele>
        <time>2020-07-29T08:03:53Z</time>
      </trkpt>
      <trkpt lat="42.9648160" lon="0.7944400">
        <ele>556.0</ele>
        <time>2020-07-29T08:03:55Z</time>
      </trkpt>
      <trkpt lat="42.9647150" lon="0.7944490">
        <ele>556.7</ele>
        <time>2020-07-29T08:03:59Z</time>
      </trkpt>
      <trkpt lat="42.9646750" lon="0.7944640">
        <ele>556.9</ele>
        <time>2020-07-29T08:04:01Z</time>
      </trkpt>
      <trkpt lat="42.9645440" lon="0.7944810">
        <ele>557.8</ele>
        <time>2020-07-29T08:04:05Z</time>
      </trkpt>
      <trkpt lat="42.9644620" lon="0.7944870">
        <ele>558.3</ele>
        <time>2020-07-29T08:04:07Z</time>
      </trkpt>
      <trkpt lat="42.9642640" lon="0.7945420">
        <ele>559.7</ele>
        <time>2020-07-29T08:04:12Z</time>
      </trkpt>
      <trkpt lat="42.9642270" lon="0.7945600">
        <ele>559.9</ele>
        <time>2020-07-29T08:04:13Z</time>
      </trkpt>
      <trkpt lat="42.9641260" lon="0.7946470">
        <ele>560.8</ele>
        <time>2020-07-29T08:04:16Z</time>
      </trkpt>
      <trkpt lat="42.9640640" lon="0.7947040">
        <ele>561.4</ele>
        <time>2020-07-29T08:04:18Z</time>
      </trkpt>
      <trkpt lat="42.9640080" lon="0.7947320">
        <ele>561.8</ele>
        <time>2020-07-29T08:04:20Z</time>
      </trkpt>
      <trkpt lat="42.9639110" lon="0.7947310">
        <ele>562.5</ele>
        <time>2020-07-29T08:04:24Z</time>
      </trkpt>
      <trkpt lat="42.9637970" lon="0.7948180">
        <ele>563.3</ele>
        <time>2020-07-29T08:04:28Z</time>
      </trkpt>
      <trkpt lat="42.9637180" lon="0.7948670">
        <ele>563.7</ele>
        <time>2020-07-29T08:04:31Z</time>
      </trkpt>
      <trkpt lat="42.9636280" lon="0.7949720">
        <ele>564.3</ele>
        <time>2020-07-29T08:04:34Z</time>
      </trkpt>
      <trkpt lat="42.9634830" lon="0.7951640">
        <ele>565.1</ele>
        <time>2020-07-29T08:04:38Z</time>
      </trkpt>
      <trkpt lat="42.9634560" lon="0.7952080">
        <ele>565.3</ele>
        <time>2020-07-29T08:04:40Z</time>
      </trkpt>
      <trkpt lat="42.9632790" lon="0.7954600">
        <ele>566.3</ele>
        <time>2020-07-29T08:04:46Z</time>
      </trkpt>
      <trkpt lat="42.9632450" lon="0.7954920">
        <ele>566.5</ele>
        <time>2020-07-29T08:04:47Z</time>
      </trkpt>
      <trkpt lat="42.9630530" lon="0.7957040">
        <ele>567.5</ele>
        <time>2020-07-29T08:04:53Z</time>
      </trkpt>
      <trkpt lat="42.9629620" lon="0.7958330">
        <ele>568.0</ele>
        <time>2020-07-29T08:04:56Z</time>
      </trkpt>
      <trkpt lat="42.9628520" lon="0.7960180">
        <ele>568.5</ele>
        <time>2020-07-29T08:05:00Z</time>
      </trkpt>
      <trkpt lat="42.9628040" lon="0.7961120">
        <ele>568.6</ele>
        <time>2020-07-29T08:05:02Z</time>
      </trkpt>
      <trkpt lat="42.9627170" lon="0.7962340">
        <ele>568.5</ele>
        <time>2020-07-29T08:05:05Z</time>
      </trkpt>
      <trkpt lat="42.9626160" lon="0.7963300">
        <ele>568.1</ele>
        <time>2020-07-29T08:05:08Z</time>
      </trkpt>
      <trkpt lat="42.9624070" lon="0.7964740">
        <ele>566.5</ele>
        <time>2020-07-29T08:05:50Z</time>
      </trkpt>
      <trkpt lat="42.9623410" lon="0.7965080">
        <ele>566.1</ele>
        <time>2020-07-29T08:05:52Z</time>
      </trkpt>
      <trkpt lat="42.9621040" lon="0.7966040">
        <ele>564.9</ele>
        <time>2020-07-29T08:05:56Z</time>
      </trkpt>
      <trkpt lat="42.9618830" lon="0.7966540">
        <ele>564.0</ele>
        <time>2020-07-29T08:05:59Z</time>
      </trkpt>
      <trkpt lat="42.9618110" lon="0.7967010">
        <ele>563.6</ele>
        <time>2020-07-29T08:06:00Z</time>
      </trkpt>
      <trkpt lat="42.9616820" lon="0.7968050">
        <ele>563.1</ele>
        <time>2020-07-29T08:06:02Z</time>
      </trkpt>
      <trkpt lat="42.9614940" lon="0.7969950">
        <ele>562.6</ele>
        <time>2020-07-29T08:06:05Z</time>
      </trkpt>
      <trkpt lat="42.9613590" lon="0.7971500">
        <ele>562.5</ele>
        <time>2020-07-29T08:06:07Z</time>
      </trkpt>
      <trkpt lat="42.9611520" lon="0.7973380">
        <ele>563.0</ele>
        <time>2020-07-29T08:06:10Z</time>
      </trkpt>
      <trkpt lat="42.9610790" lon="0.7973800">
        <ele>563.2</ele>
        <time>2020-07-29T08:06:11Z</time>
      </trkpt>
      <trkpt lat="42.9608970" lon="0.7974970">
        <ele>564.0</ele>
        <time>2020-07-29T08:06:14Z</time>
      </trkpt>
      <trkpt lat="42.9607940" lon="0.7975390">
        <ele>564.6</ele>
        <time>2020-07-29T08:06:16Z</time>
      </trkpt>
      <trkpt lat="42.9606920" lon="0.7975510">
        <ele>565.4</ele>
        <time>2020-07-29T08:06:18Z</time>
      </trkpt>
      <trkpt lat="42.9605990" lon="0.7975220">
        <ele>566.1</ele>
        <time>2020-07-29T08:06:22Z</time>
      </trkpt>
      <trkpt lat="42.9605170" lon="0.7974870">
        <ele>566.9</ele>
        <time>2020-07-29T08:06:24Z</time>
      </trkpt>
      <trkpt lat="42.9604450" lon="0.7974120">
        <ele>567.7</ele>
        <time>2020-07-29T08:06:26Z</time>
      </trkpt>
      <trkpt lat="42.9604010" lon="0.7973830">
        <ele>568.1</ele>
        <time>2020-07-29T08:06:27Z</time>
      </trkpt>
      <trkpt lat="42.9603450" lon="0.7973030">
        <ele>568.9</ele>
        <time>2020-07-29T08:06:29Z</time>
      </trkpt>
      <trkpt lat="42.9602920" lon="0.7972440">
        <ele>569.5</ele>
        <time>2020-07-29T08:06:31Z</time>
      </trkpt>
      <trkpt lat="42.9601940" lon="0.7972550">
        <ele>570.3</ele>
        <time>2020-07-29T08:06:33Z</time>
      </trkpt>
      <trkpt lat="42.9601090" lon="0.7972180">
        <ele>571.0</ele>
        <time>2020-07-29T08:06:35Z</time>
      </trkpt>
      <trkpt lat="42.9600640" lon="0.7971830">
        <ele>571.4</ele>
        <time>2020-07-29T08:06:36Z</time>
      </trkpt>
      <trkpt lat="42.9598470" lon="0.7971480">
        <ele>573.1</ele>
        <time>2020-07-29T08:06:40Z</time>
      </trkpt>
      <trkpt lat="42.9595990" lon="0.7970920">
        <ele>575.0</ele>
        <time>2020-07-29T08:06:46Z</time>
      </trkpt>
      <trkpt lat="42.9595310" lon="0.7969830">
        <ele>575.7</ele>
        <time>2020-07-29T08:06:49Z</time>
      </trkpt>
      <trkpt lat="42.9594690" lon="0.7968720">
        <ele>576.2</ele>
        <time>2020-07-29T08:06:52Z</time>
      </trkpt>
      <trkpt lat="42.9594170" lon="0.7968610">
        <ele>576.5</ele>
        <time>2020-07-29T08:06:54Z</time>
      </trkpt>
      <trkpt lat="42.9593770" lon="0.7968920">
        <ele>576.7</ele>
        <time>2020-07-29T08:06:55Z</time>
      </trkpt>
      <trkpt lat="42.9593090" lon="0.7969800">
        <ele>577.2</ele>
        <time>2020-07-29T08:06:56Z</time>
      </trkpt>
      <trkpt lat="42.9592330" lon="0.7971140">
        <ele>577.8</ele>
        <time>2020-07-29T08:06:58Z</time>
      </trkpt>
      <trkpt lat="42.9592090" lon="0.7972110">
        <ele>578.1</ele>
        <time>2020-07-29T08:07:00Z</time>
      </trkpt>
      <trkpt lat="42.9591790" lon="0.7973910">
        <ele>578.9</ele>
        <time>2020-07-29T08:07:04Z</time>
      </trkpt>
      <trkpt lat="42.9591540" lon="0.7975200">
        <ele>579.4</ele>
        <time>2020-07-29T08:07:08Z</time>
      </trkpt>
      <trkpt lat="42.9591460" lon="0.7975490">
        <ele>579.6</ele>
        <time>2020-07-29T08:07:09Z</time>
      </trkpt>
      <trkpt lat="42.9590990" lon="0.7977650">
        <ele>580.7</ele>
        <time>2020-07-29T08:07:15Z</time>
      </trkpt>
      <trkpt lat="42.9590920" lon="0.7979230">
        <ele>581.6</ele>
        <time>2020-07-29T08:07:21Z</time>
      </trkpt>
      <trkpt lat="42.9591030" lon="0.7980140">
        <ele>582.1</ele>
        <time>2020-07-29T08:07:24Z</time>
      </trkpt>
      <trkpt lat="42.9591960" lon="0.7982180">
        <ele>583.6</ele>
        <time>2020-07-29T08:07:30Z</time>
      </trkpt>
      <trkpt lat="42.9592420" lon="0.7983230">
        <ele>584.3</ele>
        <time>2020-07-29T08:07:33Z</time>
      </trkpt>
      <trkpt lat="42.9592590" lon="0.7984550">
        <ele>585.0</ele>
        <time>2020-07-29T08:07:37Z</time>
      </trkpt>
      <trkpt lat="42.9592620" lon="0.7984940">
        <ele>585.2</ele>
        <time>2020-07-29T08:07:38Z</time>
      </trkpt>
      <trkpt lat="42.9592420" lon="0.7986370">
        <ele>585.8</ele>
        <time>2020-07-29T08:07:41Z</time>
      </trkpt>
      <trkpt lat="42.9592170" lon="0.7987210">
        <ele>586.1</ele>
        <time>2020-07-29T08:07:43Z</time>
      </trkpt>
      <trkpt lat="42.9591670" lon="0.7988970">
        <ele>586.7</ele>
        <time>2020-07-29T08:07:47Z</time>
      </trkpt>
      <trkpt lat="42.9590280" lon="0.7991240">
        <ele>587.4</ele>
        <time>2020-07-29T08:07:53Z</time>
      </trkpt>
      <trkpt lat="42.9589710" lon="0.7993670">
        <ele>588.0</ele>
        <time>2020-07-29T08:07:59Z</time>
      </trkpt>
      <trkpt lat="42.9589690" lon="0.7994140">
        <ele>588.1</ele>
        <time>2020-07-29T08:08:00Z</time>
      </trkpt>
      <trkpt lat="42.9590420" lon="0.7997450">
        <ele>589.0</ele>
        <time>2020-07-29T08:08:06Z</time>
      </trkpt>
      <trkpt lat="42.9590520" lon="0.7998020">
        <ele>589.2</ele>
        <time>2020-07-29T08:08:07Z</time>
      </trkpt>
      <trkpt lat="42.9590270" lon="0.8001150">
        <ele>590.2</ele>
        <time>2020-07-29T08:08:13Z</time>
      </trkpt>
      <trkpt lat="42.9590300" lon="0.8001700">
        <ele>590.4</ele>
        <time>2020-07-29T08:08:14Z</time>
      </trkpt>
      <trkpt lat="42.9589650" lon="0.8004470">
        <ele>591.3</ele>
        <time>2020-07-29T08:08:20Z</time>
      </trkpt>
      <trkpt lat="42.9589560" lon="0.8004870">
        <ele>591.4</ele>
        <time>2020-07-29T08:08:21Z</time>
      </trkpt>
      <trkpt lat="42.9589010" lon="0.8007060">
        <ele>592.0</ele>
        <time>2020-07-29T08:08:26Z</time>
      </trkpt>
      <trkpt lat="42.9588190" lon="0.8009110">
        <ele>592.5</ele>
        <time>2020-07-29T08:08:31Z</time>
      </trkpt>
      <trkpt lat="42.9587630" lon="0.8010170">
        <ele>592.8</ele>
        <time>2020-07-29T08:08:33Z</time>
      </trkpt>
      <trkpt lat="42.9587040" lon="0.8011240">
        <ele>593.0</ele>
        <time>2020-07-29T08:08:35Z</time>
      </trkpt>
      <trkpt lat="42.9586440" lon="0.8012350">
        <ele>593.3</ele>
        <time>2020-07-29T08:08:37Z</time>
      </trkpt>
      <trkpt lat="42.9585050" lon="0.8015110">
        <ele>593.9</ele>
        <time>2020-07-29T08:08:42Z</time>
      </trkpt>
      <trkpt lat="42.9584510" lon="0.8016210">
        <ele>594.2</ele>
        <time>2020-07-29T08:08:44Z</time>
      </trkpt>
      <trkpt lat="42.9583630" lon="0.8017880">
        <ele>594.7</ele>
        <time>2020-07-29T08:08:47Z</time>
      </trkpt>
      <trkpt lat="42.9582470" lon="0.8019220">
        <ele>595.1</ele>
        <time>2020-07-29T08:08:50Z</time>
      </trkpt>
      <trkpt lat="42.9580780" lon="0.8020840">
        <ele>595.5</ele>
        <time>2020-07-29T08:08:54Z</time>
      </trkpt>
      <trkpt lat="42.9579810" lon="0.8021410">
        <ele>595.7</ele>
        <time>2020-07-29T08:08:56Z</time>
      </trkpt>
      <trkpt lat="42.9579280" lon="0.8021640">
        <ele>595.9</ele>
        <time>2020-07-29T08:08:57Z</time>
      </trkpt>
      <trkpt lat="42.9576910" lon="0.8023110">
        <ele>596.7</ele>
        <time>2020-07-29T08:09:02Z</time>
      </trkpt>
      <trkpt lat="42.9575720" lon="0.8023980">
        <ele>597.2</ele>
        <time>2020-07-29T08:09:05Z</time>
      </trkpt>
      <trkpt lat="42.9574650" lon="0.8025190">
        <ele>597.9</ele>
        <time>2020-07-29T08:09:08Z</time>
      </trkpt>
      <trkpt lat="42.9574300" lon="0.8025590">
        <ele>598.2</ele>
        <time>2020-07-29T08:09:09Z</time>
      </trkpt>
      <trkpt lat="42.9572180" lon="0.8027910">
        <ele>599.7</ele>
        <time>2020-07-29T08:09:15Z</time>
      </trkpt>
      <trkpt lat="42.9570580" lon="0.8029440">
        <ele>601.0</ele>
        <time>2020-07-29T08:09:20Z</time>
      </trkpt>
      <trkpt lat="42.9569710" lon="0.8030280">
        <ele>601.7</ele>
        <time>2020-07-29T08:09:23Z</time>
      </trkpt>
      <trkpt lat="42.9569130" lon="0.8030790">
        <ele>602.0</ele>
        <time>2020-07-29T08:09:25Z</time>
      </trkpt>
      <trkpt lat="42.9567850" lon="0.8031410">
        <ele>602.7</ele>
        <time>2020-07-29T08:09:29Z</time>
      </trkpt>
      <trkpt lat="42.9566380" lon="0.8031250">
        <ele>603.3</ele>
        <time>2020-07-29T08:09:33Z</time>
      </trkpt>
      <trkpt lat="42.9565960" lon="0.8031110">
        <ele>603.4</ele>
        <time>2020-07-29T08:09:34Z</time>
      </trkpt>
      <trkpt lat="42.9564740" lon="0.8030550">
        <ele>603.7</ele>
        <time>2020-07-29T08:09:37Z</time>
      </trkpt>
      <trkpt lat="42.9563380" lon="0.8030320">
        <ele>604.0</ele>
        <time>2020-07-29T08:09:40Z</time>
      </trkpt>
      <trkpt lat="42.9562920" lon="0.8030340">
        <ele>604.1</ele>
        <time>2020-07-29T08:09:41Z</time>
      </trkpt>
      <trkpt lat="42.9561500" lon="0.8030440">
        <ele>604.6</ele>
        <time>2020-07-29T08:09:44Z</time>
      </trkpt>
      <trkpt lat="42.9560660" lon="0.8030250">
        <ele>604.9</ele>
        <time>2020-07-29T08:09:46Z</time>
      </trkpt>
      <trkpt lat="42.9560300" lon="0.8030140">
        <ele>605.1</ele>
        <time>2020-07-29T08:09:47Z</time>
      </trkpt>
      <trkpt lat="42.9559020" lon="0.8030540">
        <ele>605.7</ele>
        <time>2020-07-29T08:09:50Z</time>
      </trkpt>
      <trkpt lat="42.9558670" lon="0.8030600">
        <ele>605.9</ele>
        <time>2020-07-29T08:09:51Z</time>
      </trkpt>
      <trkpt lat="42.9557050" lon="0.8031330">
        <ele>607.0</ele>
        <time>2020-07-29T08:09:56Z</time>
      </trkpt>
      <trkpt lat="42.9555360" lon="0.8032930">
        <ele>608.6</ele>
        <time>2020-07-29T08:10:02Z</time>
      </trkpt>
      <trkpt lat="42.9554290" lon="0.8033880">
        <ele>609.7</ele>
        <time>2020-07-29T08:10:06Z</time>
      </trkpt>
      <trkpt lat="42.9554020" lon="0.8034070">
        <ele>610.0</ele>
        <time>2020-07-29T08:10:07Z</time>
      </trkpt>
      <trkpt lat="42.9553250" lon="0.8034820">
        <ele>610.8</ele>
        <time>2020-07-29T08:10:10Z</time>
      </trkpt>
      <trkpt lat="42.9552410" lon="0.8035970">
        <ele>611.9</ele>
        <time>2020-07-29T08:10:14Z</time>
      </trkpt>
      <trkpt lat="42.9551400" lon="0.8037230">
        <ele>612.9</ele>
        <time>2020-07-29T08:10:18Z</time>
      </trkpt>
      <trkpt lat="42.9550840" lon="0.8037740">
        <ele>613.3</ele>
        <time>2020-07-29T08:10:20Z</time>
      </trkpt>
      <trkpt lat="42.9550550" lon="0.8038020">
        <ele>613.5</ele>
        <time>2020-07-29T08:10:21Z</time>
      </trkpt>
      <trkpt lat="42.9549480" lon="0.8038650">
        <ele>614.1</ele>
        <time>2020-07-29T08:10:24Z</time>
      </trkpt>
      <trkpt lat="42.9548640" lon="0.8038780">
        <ele>614.4</ele>
        <time>2020-07-29T08:10:25Z</time>
      </trkpt>
      <trkpt lat="42.9547600" lon="0.8038370">
        <ele>614.6</ele>
        <time>2020-07-29T08:10:28Z</time>
      </trkpt>
      <trkpt lat="42.9546560" lon="0.8037700">
        <ele>614.8</ele>
        <time>2020-07-29T08:10:30Z</time>
      </trkpt>
      <trkpt lat="42.9546090" lon="0.8037260">
        <ele>614.8</ele>
        <time>2020-07-29T08:10:31Z</time>
      </trkpt>
      <trkpt lat="42.9543800" lon="0.8035060">
        <ele>615.0</ele>
        <time>2020-07-29T08:10:36Z</time>
      </trkpt>
      <trkpt lat="42.9543520" lon="0.8034400">
        <ele>615.0</ele>
        <time>2020-07-29T08:10:37Z</time>
      </trkpt>
      <trkpt lat="42.9541850" lon="0.8033950">
        <ele>615.0</ele>
        <time>2020-07-29T08:10:40Z</time>
      </trkpt>
      <trkpt lat="42.9541600" lon="0.8034490">
        <ele>615.0</ele>
        <time>2020-07-29T08:10:41Z</time>
      </trkpt>
      <trkpt lat="42.9541340" lon="0.8035020">
        <ele>615.0</ele>
        <time>2020-07-29T08:10:42Z</time>
      </trkpt>
      <trkpt lat="42.9540830" lon="0.8036080">
        <ele>614.9</ele>
        <time>2020-07-29T08:10:43Z</time>
      </trkpt>
      <trkpt lat="42.9539640" lon="0.8038460">
        <ele>614.7</ele>
        <time>2020-07-29T08:10:45Z</time>
      </trkpt>
      <trkpt lat="42.9539070" lon="0.8041290">
        <ele>614.0</ele>
        <time>2020-07-29T08:10:47Z</time>
      </trkpt>
      <trkpt lat="42.9539370" lon="0.8043030">
        <ele>613.4</ele>
        <time>2020-07-29T08:10:50Z</time>
      </trkpt>
      <trkpt lat="42.9540100" lon="0.8044770">
        <ele>612.5</ele>
        <time>2020-07-29T08:10:52Z</time>
      </trkpt>
      <trkpt lat="42.9540760" lon="0.8046760">
        <ele>606.9</ele>
        <time>2020-07-29T08:10:54Z</time>
      </trkpt>
      <trkpt lat="42.9540780" lon="0.8047940">
        <ele>605.1</ele>
        <time>2020-07-29T08:10:55Z</time>
      </trkpt>
      <trkpt lat="42.9540550" lon="0.8049160">
        <ele>605.1</ele>
        <time>2020-07-29T08:10:56Z</time>
      </trkpt>
      <trkpt lat="42.9540210" lon="0.8050400">
        <ele>605.4</ele>
        <time>2020-07-29T08:10:57Z</time>
      </trkpt>
      <trkpt lat="42.9538990" lon="0.8054330">
        <ele>612.4</ele>
        <time>2020-07-29T08:10:59Z</time>
      </trkpt>
      <trkpt lat="42.9537950" lon="0.8057090">
        <ele>621.5</ele>
        <time>2020-07-29T08:11:01Z</time>
      </trkpt>
      <trkpt lat="42.9536420" lon="0.8059450">
        <ele>635.4</ele>
        <time>2020-07-29T08:11:03Z</time>
      </trkpt>
      <trkpt lat="42.9534860" lon="0.8061840">
        <ele>649.1</ele>
        <time>2020-07-29T08:11:05Z</time>
      </trkpt>
      <trkpt lat="42.9533540" lon="0.8064520">
        <ele>655.2</ele>
        <time>2020-07-29T08:11:07Z</time>
      </trkpt>
      <trkpt lat="42.9532450" lon="0.8067540">
        <ele>656.5</ele>
        <time>2020-07-29T08:11:09Z</time>
      </trkpt>
      <trkpt lat="42.9532160" lon="0.8069150">
        <ele>653.7</ele>
        <time>2020-07-29T08:11:10Z</time>
      </trkpt>
      <trkpt lat="42.9532190" lon="0.8071500">
        <ele>646.0</ele>
        <time>2020-07-29T08:11:11Z</time>
      </trkpt>
      <trkpt lat="42.9532210" lon="0.8073850">
        <ele>639.3</ele>
        <time>2020-07-29T08:11:13Z</time>
      </trkpt>
      <trkpt lat="42.9532360" lon="0.8075320">
        <ele>636.2</ele>
        <time>2020-07-29T08:11:14Z</time>
      </trkpt>
      <trkpt lat="42.9532450" lon="0.8076790">
        <ele>633.0</ele>
        <time>2020-07-29T08:11:15Z</time>
      </trkpt>
      <trkpt lat="42.9532370" lon="0.8079680">
        <ele>629.7</ele>
        <time>2020-07-29T08:11:17Z</time>
      </trkpt>
      <trkpt lat="42.9532190" lon="0.8081080">
        <ele>628.7</ele>
        <time>2020-07-29T08:11:18Z</time>
      </trkpt>
      <trkpt lat="42.9532010" lon="0.8082470">
        <ele>629.8</ele>
        <time>2020-07-29T08:11:20Z</time>
      </trkpt>
      <trkpt lat="42.9531790" lon="0.8083870">
        <ele>631.1</ele>
        <time>2020-07-29T08:11:21Z</time>
      </trkpt>
      <trkpt lat="42.9531480" lon="0.8085170">
        <ele>632.6</ele>
        <time>2020-07-29T08:11:22Z</time>
      </trkpt>
      <trkpt lat="42.9530600" lon="0.8087340">
        <ele>639.0</ele>
        <time>2020-07-29T08:11:24Z</time>
      </trkpt>
      <trkpt lat="42.9530150" lon="0.8089330">
        <ele>640.1</ele>
        <time>2020-07-29T08:11:26Z</time>
      </trkpt>
      <trkpt lat="42.9528250" lon="0.8093090">
        <ele>650.1</ele>
        <time>2020-07-29T08:11:29Z</time>
      </trkpt>
      <trkpt lat="42.9527860" lon="0.8093810">
        <ele>651.8</ele>
        <time>2020-07-29T08:11:30Z</time>
      </trkpt>
      <trkpt lat="42.9527460" lon="0.8094530">
        <ele>655.5</ele>
        <time>2020-07-29T08:11:31Z</time>
      </trkpt>
      <trkpt lat="42.9526670" lon="0.8095960">
        <ele>658.3</ele>
        <time>2020-07-29T08:11:32Z</time>
      </trkpt>
      <trkpt lat="42.9525820" lon="0.8097880">
        <ele>662.4</ele>
        <time>2020-07-29T08:11:35Z</time>
      </trkpt>
      <trkpt lat="42.9524740" lon="0.8098780">
        <ele>668.1</ele>
        <time>2020-07-29T08:11:37Z</time>
      </trkpt>
      <trkpt lat="42.9524730" lon="0.8098540">
        <ele>667.9</ele>
        <time>2020-07-29T08:11:38Z</time>
      </trkpt>
      <trkpt lat="42.9524520" lon="0.8099050">
        <ele>669.1</ele>
        <time>2020-07-29T08:11:39Z</time>
      </trkpt>
      <trkpt lat="42.9524290" lon="0.8099670">
        <ele>670.4</ele>
        <time>2020-07-29T08:11:40Z</time>
      </trkpt>
      <trkpt lat="42.9533520" lon="0.8105070">
        <ele>608.1</ele>
        <time>2020-07-29T08:11:44Z</time>
      </trkpt>
      <trkpt lat="42.9533800" lon="0.8105720">
        <ele>606.1</ele>
        <time>2020-07-29T08:11:45Z</time>
      </trkpt>
      <trkpt lat="42.9536360" lon="0.8107750">
        <ele>600.4</ele>
        <time>2020-07-29T08:11:47Z</time>
      </trkpt>
      <trkpt lat="42.9537160" lon="0.8109090">
        <ele>601.5</ele>
        <time>2020-07-29T08:11:49Z</time>
      </trkpt>
      <trkpt lat="42.9537120" lon="0.8109430">
        <ele>601.7</ele>
        <time>2020-07-29T08:11:50Z</time>
      </trkpt>
      <trkpt lat="42.9537110" lon="0.8110380">
        <ele>602.3</ele>
        <time>2020-07-29T08:11:52Z</time>
      </trkpt>
      <trkpt lat="42.9536690" lon="0.8111910">
        <ele>603.3</ele>
        <time>2020-07-29T08:11:55Z</time>
      </trkpt>
      <trkpt lat="42.9536560" lon="0.8112900">
        <ele>603.8</ele>
        <time>2020-07-29T08:11:57Z</time>
      </trkpt>
      <trkpt lat="42.9536440" lon="0.8113400">
        <ele>604.0</ele>
        <time>2020-07-29T08:11:58Z</time>
      </trkpt>
      <trkpt lat="42.9538730" lon="0.8115760">
        <ele>604.9</ele>
        <time>2020-07-29T08:12:02Z</time>
      </trkpt>
      <trkpt lat="42.9538380" lon="0.8116120">
        <ele>604.9</ele>
        <time>2020-07-29T08:12:03Z</time>
      </trkpt>
      <trkpt lat="42.9537920" lon="0.8116380">
        <ele>604.9</ele>
        <time>2020-07-29T08:12:04Z</time>
      </trkpt>
      <trkpt lat="42.9536330" lon="0.8117050">
        <ele>604.5</ele>
        <time>2020-07-29T08:12:07Z</time>
      </trkpt>
      <trkpt lat="42.9532560" lon="0.8118910">
        <ele>604.2</ele>
        <time>2020-07-29T08:12:13Z</time>
      </trkpt>
      <trkpt lat="42.9530860" lon="0.8120810">
        <ele>604.9</ele>
        <time>2020-07-29T08:12:16Z</time>
      </trkpt>
      <trkpt lat="42.9530500" lon="0.8121500">
        <ele>605.3</ele>
        <time>2020-07-29T08:12:17Z</time>
      </trkpt>
      <trkpt lat="42.9529710" lon="0.8122940">
        <ele>606.1</ele>
        <time>2020-07-29T08:12:20Z</time>
      </trkpt>
      <trkpt lat="42.9529710" lon="0.8122940">
        <ele>606.1</ele>
        <time>2020-07-29T08:12:21Z</time>
      </trkpt>
      <trkpt lat="42.9528390" lon="0.8125850">
        <ele>607.6</ele>
        <time>2020-07-29T08:12:25Z</time>
      </trkpt>
      <trkpt lat="42.9528180" lon="0.8126340">
        <ele>607.9</ele>
        <time>2020-07-29T08:12:27Z</time>
      </trkpt>
      <trkpt lat="42.9527310" lon="0.8128520">
        <ele>609.1</ele>
        <time>2020-07-29T08:12:30Z</time>
      </trkpt>
      <trkpt lat="42.9527100" lon="0.8128990">
        <ele>609.4</ele>
        <time>2020-07-29T08:12:31Z</time>
      </trkpt>
      <trkpt lat="42.9526950" lon="0.8129510">
        <ele>609.7</ele>
        <time>2020-07-29T08:12:32Z</time>
      </trkpt>
      <trkpt lat="42.9526720" lon="0.8130500">
        <ele>610.1</ele>
        <time>2020-07-29T08:12:34Z</time>
      </trkpt>
      <trkpt lat="42.9526730" lon="0.8131840">
        <ele>610.7</ele>
        <time>2020-07-29T08:12:37Z</time>
      </trkpt>
      <trkpt lat="42.9526800" lon="0.8133330">
        <ele>611.3</ele>
        <time>2020-07-29T08:12:40Z</time>
      </trkpt>
      <trkpt lat="42.9527360" lon="0.8135320">
        <ele>612.3</ele>
        <time>2020-07-29T08:12:44Z</time>
      </trkpt>
      <trkpt lat="42.9527570" lon="0.8135800">
        <ele>612.5</ele>
        <time>2020-07-29T08:12:45Z</time>
      </trkpt>
      <trkpt lat="42.9527510" lon="0.8137050">
        <ele>613.1</ele>
        <time>2020-07-29T08:12:49Z</time>
      </trkpt>
      <trkpt lat="42.9526960" lon="0.8137850">
        <ele>613.7</ele>
        <time>2020-07-29T08:12:51Z</time>
      </trkpt>
      <trkpt lat="42.9526450" lon="0.8138710">
        <ele>614.2</ele>
        <time>2020-07-29T08:12:53Z</time>
      </trkpt>
      <trkpt lat="42.9525610" lon="0.8140330">
        <ele>615.3</ele>
        <time>2020-07-29T08:12:57Z</time>
      </trkpt>
      <trkpt lat="42.9525520" lon="0.8140770">
        <ele>615.6</ele>
        <time>2020-07-29T08:12:58Z</time>
      </trkpt>
      <trkpt lat="42.9525120" lon="0.8142500">
        <ele>616.7</ele>
        <time>2020-07-29T08:13:02Z</time>
      </trkpt>
      <trkpt lat="42.9524660" lon="0.8143870">
        <ele>617.7</ele>
        <time>2020-07-29T08:13:05Z</time>
      </trkpt>
      <trkpt lat="42.9524540" lon="0.8144380">
        <ele>618.1</ele>
        <time>2020-07-29T08:13:06Z</time>
      </trkpt>
      <trkpt lat="42.9523650" lon="0.8146030">
        <ele>619.3</ele>
        <time>2020-07-29T08:13:10Z</time>
      </trkpt>
      <trkpt lat="42.9523480" lon="0.8146350">
        <ele>619.5</ele>
        <time>2020-07-29T08:13:11Z</time>
      </trkpt>
      <trkpt lat="42.9522530" lon="0.8147510">
        <ele>620.4</ele>
        <time>2020-07-29T08:13:15Z</time>
      </trkpt>
      <trkpt lat="42.9522150" lon="0.8148190">
        <ele>620.7</ele>
        <time>2020-07-29T08:13:17Z</time>
      </trkpt>
      <trkpt lat="42.9521930" lon="0.8148470">
        <ele>620.9</ele>
        <time>2020-07-29T08:13:18Z</time>
      </trkpt>
      <trkpt lat="42.9520370" lon="0.8149390">
        <ele>621.8</ele>
        <time>2020-07-29T08:13:23Z</time>
      </trkpt>
      <trkpt lat="42.9518300" lon="0.8150200">
        <ele>623.0</ele>
        <time>2020-07-29T08:13:29Z</time>
      </trkpt>
      <trkpt lat="42.9517970" lon="0.8150270">
        <ele>623.2</ele>
        <time>2020-07-29T08:13:30Z</time>
      </trkpt>
      <trkpt lat="42.9515540" lon="0.8150810">
        <ele>624.8</ele>
        <time>2020-07-29T08:13:37Z</time>
      </trkpt>
      <trkpt lat="42.9514840" lon="0.8150940">
        <ele>625.3</ele>
        <time>2020-07-29T08:13:39Z</time>
      </trkpt>
      <trkpt lat="42.9513100" lon="0.8150840">
        <ele>626.4</ele>
        <time>2020-07-29T08:13:44Z</time>
      </trkpt>
      <trkpt lat="42.9512800" lon="0.8150750">
        <ele>626.6</ele>
        <time>2020-07-29T08:13:45Z</time>
      </trkpt>
      <trkpt lat="42.9511640" lon="0.8150510">
        <ele>627.5</ele>
        <time>2020-07-29T08:13:48Z</time>
      </trkpt>
      <trkpt lat="42.9511080" lon="0.8150210">
        <ele>627.9</ele>
        <time>2020-07-29T08:13:50Z</time>
      </trkpt>
      <trkpt lat="42.9510550" lon="0.8149880">
        <ele>628.4</ele>
        <time>2020-07-29T08:13:53Z</time>
      </trkpt>
      <trkpt lat="42.9509180" lon="0.8149070">
        <ele>629.5</ele>
        <time>2020-07-29T08:13:57Z</time>
      </trkpt>
      <trkpt lat="42.9508630" lon="0.8148580">
        <ele>630.0</ele>
        <time>2020-07-29T08:13:59Z</time>
      </trkpt>
      <trkpt lat="42.9508370" lon="0.8148340">
        <ele>630.2</ele>
        <time>2020-07-29T08:14:01Z</time>
      </trkpt>
      <trkpt lat="42.9507170" lon="0.8147730">
        <ele>631.1</ele>
        <time>2020-07-29T08:14:05Z</time>
      </trkpt>
      <trkpt lat="42.9506780" lon="0.8147730">
        <ele>631.4</ele>
        <time>2020-07-29T08:14:06Z</time>
      </trkpt>
      <trkpt lat="42.9504360" lon="0.8147260">
        <ele>632.9</ele>
        <time>2020-07-29T08:14:09Z</time>
      </trkpt>
      <trkpt lat="42.9504160" lon="0.8147300">
        <ele>633.0</ele>
        <time>2020-07-29T08:14:10Z</time>
      </trkpt>
      <trkpt lat="42.9503950" lon="0.8147340">
        <ele>633.1</ele>
        <time>2020-07-29T08:14:11Z</time>
      </trkpt>
      <trkpt lat="42.9502590" lon="0.8148240">
        <ele>633.8</ele>
        <time>2020-07-29T08:14:15Z</time>
      </trkpt>
      <trkpt lat="42.9502020" lon="0.8148820">
        <ele>634.0</ele>
        <time>2020-07-29T08:14:16Z</time>
      </trkpt>
      <trkpt lat="42.9500360" lon="0.8150270">
        <ele>634.5</ele>
        <time>2020-07-29T08:14:21Z</time>
      </trkpt>
      <trkpt lat="42.9499370" lon="0.8152380">
        <ele>634.7</ele>
        <time>2020-07-29T08:14:25Z</time>
      </trkpt>
      <trkpt lat="42.9499240" lon="0.8152650">
        <ele>634.7</ele>
        <time>2020-07-29T08:14:26Z</time>
      </trkpt>
      <trkpt lat="42.9499110" lon="0.8152910">
        <ele>634.7</ele>
        <time>2020-07-29T08:14:27Z</time>
      </trkpt>
      <trkpt lat="42.9498030" lon="0.8153580">
        <ele>634.7</ele>
        <time>2020-07-29T08:14:30Z</time>
      </trkpt>
      <trkpt lat="42.9497770" lon="0.8153780">
        <ele>634.7</ele>
        <time>2020-07-29T08:14:31Z</time>
      </trkpt>
      <trkpt lat="42.9497510" lon="0.8153980">
        <ele>634.7</ele>
        <time>2020-07-29T08:14:32Z</time>
      </trkpt>
      <trkpt lat="42.9495940" lon="0.8155190">
        <ele>634.8</ele>
        <time>2020-07-29T08:14:35Z</time>
      </trkpt>
      <trkpt lat="42.9492660" lon="0.8157120">
        <ele>635.1</ele>
        <time>2020-07-29T08:14:41Z</time>
      </trkpt>
      <trkpt lat="42.9491520" lon="0.8157860">
        <ele>635.3</ele>
        <time>2020-07-29T08:14:43Z</time>
      </trkpt>
      <trkpt lat="42.9489660" lon="0.8159080">
        <ele>635.8</ele>
        <time>2020-07-29T08:14:45Z</time>
      </trkpt>
      <trkpt lat="42.9489450" lon="0.8159250">
        <ele>636.1</ele>
        <time>2020-07-29T08:14:46Z</time>
      </trkpt>
      <trkpt lat="42.9489240" lon="0.8159410">
        <ele>636.1</ele>
        <time>2020-07-29T08:14:47Z</time>
      </trkpt>
      <trkpt lat="42.9488190" lon="0.8160690">
        <ele>637.1</ele>
        <time>2020-07-29T08:14:49Z</time>
      </trkpt>
      <trkpt lat="42.9487990" lon="0.8161890">
        <ele>637.5</ele>
        <time>2020-07-29T08:14:52Z</time>
      </trkpt>
      <trkpt lat="42.9487890" lon="0.8162540">
        <ele>639.7</ele>
        <time>2020-07-29T08:14:53Z</time>
      </trkpt>
      <trkpt lat="42.9487870" lon="0.8163230">
        <ele>639.7</ele>
        <time>2020-07-29T08:14:54Z</time>
      </trkpt>
      <trkpt lat="42.9488470" lon="0.8164940">
        <ele>640.6</ele>
        <time>2020-07-29T08:14:56Z</time>
      </trkpt>
      <trkpt lat="42.9488750" lon="0.8165300">
        <ele>640.9</ele>
        <time>2020-07-29T08:14:57Z</time>
      </trkpt>
      <trkpt lat="42.9488750" lon="0.8165300">
        <ele>640.9</ele>
        <time>2020-07-29T08:14:58Z</time>
      </trkpt>
      <trkpt lat="42.9489380" lon="0.8165560">
        <ele>641.4</ele>
        <time>2020-07-29T08:15:00Z</time>
      </trkpt>
      <trkpt lat="42.9489650" lon="0.8165540">
        <ele>641.7</ele>
        <time>2020-07-29T08:15:01Z</time>
      </trkpt>
      <trkpt lat="42.9490340" lon="0.8165140">
        <ele>642.4</ele>
        <time>2020-07-29T08:15:04Z</time>
      </trkpt>
      <trkpt lat="42.9490900" lon="0.8164930">
        <ele>643.1</ele>
        <time>2020-07-29T08:15:06Z</time>
      </trkpt>
      <trkpt lat="42.9491250" lon="0.8164910">
        <ele>643.5</ele>
        <time>2020-07-29T08:15:07Z</time>
      </trkpt>
      <trkpt lat="42.9492320" lon="0.8164940">
        <ele>645.0</ele>
        <time>2020-07-29T08:15:10Z</time>
      </trkpt>
      <trkpt lat="42.9492690" lon="0.8164990">
        <ele>645.5</ele>
        <time>2020-07-29T08:15:11Z</time>
      </trkpt>
      <trkpt lat="42.9493430" lon="0.8165110">
        <ele>646.6</ele>
        <time>2020-07-29T08:15:13Z</time>
      </trkpt>
      <trkpt lat="42.9494230" lon="0.8165160">
        <ele>647.7</ele>
        <time>2020-07-29T08:15:16Z</time>
      </trkpt>
      <trkpt lat="42.9494310" lon="0.8165020">
        <ele>647.9</ele>
        <time>2020-07-29T08:15:17Z</time>
      </trkpt>
      <trkpt lat="42.9494500" lon="0.8164660">
        <ele>648.4</ele>
        <time>2020-07-29T08:15:19Z</time>
      </trkpt>
      <trkpt lat="42.9494680" lon="0.8164700">
        <ele>648.7</ele>
        <time>2020-07-29T08:15:20Z</time>
      </trkpt>
      <trkpt lat="42.9494820" lon="0.8164750">
        <ele>648.9</ele>
        <time>2020-07-29T08:15:21Z</time>
      </trkpt>
      <trkpt lat="42.9495180" lon="0.8164870">
        <ele>649.5</ele>
        <time>2020-07-29T08:15:23Z</time>
      </trkpt>
      <trkpt lat="42.9495860" lon="0.8164830">
        <ele>650.5</ele>
        <time>2020-07-29T08:15:26Z</time>
      </trkpt>
      <trkpt lat="42.9496720" lon="0.8165020">
        <ele>651.9</ele>
        <time>2020-07-29T08:15:29Z</time>
      </trkpt>
      <trkpt lat="42.9497200" lon="0.8165000">
        <ele>652.6</ele>
        <time>2020-07-29T08:15:31Z</time>
      </trkpt>
      <trkpt lat="42.9497560" lon="0.8165000">
        <ele>653.1</ele>
        <time>2020-07-29T08:15:32Z</time>
      </trkpt>
      <trkpt lat="42.9498760" lon="0.8165340">
        <ele>654.9</ele>
        <time>2020-07-29T08:15:36Z</time>
      </trkpt>
      <trkpt lat="42.9499760" lon="0.8165530">
        <ele>656.3</ele>
        <time>2020-07-29T08:15:40Z</time>
      </trkpt>
      <trkpt lat="42.9500180" lon="0.8165800">
        <ele>656.9</ele>
        <time>2020-07-29T08:15:42Z</time>
      </trkpt>
      <trkpt lat="42.9500180" lon="0.8165800">
        <ele>656.9</ele>
        <time>2020-07-29T08:15:43Z</time>
      </trkpt>
      <trkpt lat="42.9500570" lon="0.8166330">
        <ele>657.7</ele>
        <time>2020-07-29T08:15:46Z</time>
      </trkpt>
      <trkpt lat="42.9500680" lon="0.8166760">
        <ele>658.1</ele>
        <time>2020-07-29T08:15:48Z</time>
      </trkpt>
      <trkpt lat="42.9500710" lon="0.8167140">
        <ele>658.5</ele>
        <time>2020-07-29T08:15:50Z</time>
      </trkpt>
      <trkpt lat="42.9500750" lon="0.8167540">
        <ele>658.9</ele>
        <time>2020-07-29T08:15:51Z</time>
      </trkpt>
      <trkpt lat="42.9500810" lon="0.8167740">
        <ele>659.1</ele>
        <time>2020-07-29T08:15:53Z</time>
      </trkpt>
      <trkpt lat="42.9500810" lon="0.8168470">
        <ele>659.9</ele>
        <time>2020-07-29T08:15:56Z</time>
      </trkpt>
      <trkpt lat="42.9500810" lon="0.8169460">
        <ele>660.9</ele>
        <time>2020-07-29T08:15:59Z</time>
      </trkpt>
      <trkpt lat="42.9500850" lon="0.8169730">
        <ele>661.2</ele>
        <time>2020-07-29T08:16:00Z</time>
      </trkpt>
      <trkpt lat="42.9501000" lon="0.8170600">
        <ele>662.0</ele>
        <time>2020-07-29T08:16:04Z</time>
      </trkpt>
      <trkpt lat="42.9501130" lon="0.8171140">
        <ele>662.6</ele>
        <time>2020-07-29T08:16:06Z</time>
      </trkpt>
      <trkpt lat="42.9501240" lon="0.8171640">
        <ele>663.1</ele>
        <time>2020-07-29T08:16:08Z</time>
      </trkpt>
      <trkpt lat="42.9501390" lon="0.8172730">
        <ele>664.2</ele>
        <time>2020-07-29T08:16:12Z</time>
      </trkpt>
      <trkpt lat="42.9501450" lon="0.8173220">
        <ele>664.6</ele>
        <time>2020-07-29T08:16:14Z</time>
      </trkpt>
      <trkpt lat="42.9501590" lon="0.8173730">
        <ele>665.2</ele>
        <time>2020-07-29T08:16:16Z</time>
      </trkpt>
      <trkpt lat="42.9501860" lon="0.8174810">
        <ele>666.3</ele>
        <time>2020-07-29T08:16:20Z</time>
      </trkpt>
      <trkpt lat="42.9501930" lon="0.8175310">
        <ele>666.8</ele>
        <time>2020-07-29T08:16:22Z</time>
      </trkpt>
      <trkpt lat="42.9501980" lon="0.8175860">
        <ele>667.4</ele>
        <time>2020-07-29T08:16:24Z</time>
      </trkpt>
      <trkpt lat="42.9502440" lon="0.8176900">
        <ele>668.6</ele>
        <time>2020-07-29T08:16:27Z</time>
      </trkpt>
      <trkpt lat="42.9502440" lon="0.8176900">
        <ele>668.6</ele>
        <time>2020-07-29T08:16:28Z</time>
      </trkpt>
      <trkpt lat="42.9503360" lon="0.8177660">
        <ele>670.2</ele>
        <time>2020-07-29T08:16:31Z</time>
      </trkpt>
      <trkpt lat="42.9504180" lon="0.8179100">
        <ele>672.3</ele>
        <time>2020-07-29T08:16:35Z</time>
      </trkpt>
      <trkpt lat="42.9504340" lon="0.8179390">
        <ele>672.7</ele>
        <time>2020-07-29T08:16:37Z</time>
      </trkpt>
      <trkpt lat="42.9504480" lon="0.8179960">
        <ele>673.4</ele>
        <time>2020-07-29T08:16:39Z</time>
      </trkpt>
      <trkpt lat="42.9504910" lon="0.8181050">
        <ele>674.9</ele>
        <time>2020-07-29T08:16:42Z</time>
      </trkpt>
      <trkpt lat="42.9505990" lon="0.8181560">
        <ele>676.9</ele>
        <time>2020-07-29T08:16:45Z</time>
      </trkpt>
      <trkpt lat="42.9506150" lon="0.8181820">
        <ele>677.3</ele>
        <time>2020-07-29T08:16:46Z</time>
      </trkpt>
      <trkpt lat="42.9506200" lon="0.8182560">
        <ele>678.2</ele>
        <time>2020-07-29T08:16:49Z</time>
      </trkpt>
      <trkpt lat="42.9505860" lon="0.8182950">
        <ele>678.9</ele>
        <time>2020-07-29T08:16:51Z</time>
      </trkpt>
      <trkpt lat="42.9505590" lon="0.8183110">
        <ele>679.4</ele>
        <time>2020-07-29T08:16:52Z</time>
      </trkpt>
      <trkpt lat="42.9504990" lon="0.8183590">
        <ele>680.5</ele>
        <time>2020-07-29T08:16:55Z</time>
      </trkpt>
      <trkpt lat="42.9504440" lon="0.8184060">
        <ele>681.4</ele>
        <time>2020-07-29T08:16:58Z</time>
      </trkpt>
      <trkpt lat="42.9503610" lon="0.8184980">
        <ele>682.9</ele>
        <time>2020-07-29T08:17:02Z</time>
      </trkpt>
      <trkpt lat="42.9503130" lon="0.8185570">
        <ele>683.8</ele>
        <time>2020-07-29T08:17:06Z</time>
      </trkpt>
      <trkpt lat="42.9502820" lon="0.8185910">
        <ele>684.3</ele>
        <time>2020-07-29T08:17:07Z</time>
      </trkpt>
      <trkpt lat="42.9502240" lon="0.8186370">
        <ele>685.2</ele>
        <time>2020-07-29T08:17:11Z</time>
      </trkpt>
      <trkpt lat="42.9501830" lon="0.8186830">
        <ele>685.9</ele>
        <time>2020-07-29T08:17:15Z</time>
      </trkpt>
      <trkpt lat="42.9501520" lon="0.8187100">
        <ele>686.3</ele>
        <time>2020-07-29T08:17:16Z</time>
      </trkpt>
      <trkpt lat="42.9501030" lon="0.8187460">
        <ele>687.0</ele>
        <time>2020-07-29T08:17:20Z</time>
      </trkpt>
      <trkpt lat="42.9500700" lon="0.8187560">
        <ele>687.4</ele>
        <time>2020-07-29T08:17:22Z</time>
      </trkpt>
      <trkpt lat="42.9500320" lon="0.8187590">
        <ele>687.9</ele>
        <time>2020-07-29T08:17:24Z</time>
      </trkpt>
      <trkpt lat="42.9499590" lon="0.8187440">
        <ele>688.8</ele>
        <time>2020-07-29T08:17:27Z</time>
      </trkpt>
      <trkpt lat="42.9499040" lon="0.8187200">
        <ele>689.4</ele>
        <time>2020-07-29T08:17:29Z</time>
      </trkpt>
      <trkpt lat="42.9497280" lon="0.8187300">
        <ele>691.4</ele>
        <time>2020-07-29T08:17:34Z</time>
      </trkpt>
      <trkpt lat="42.9496620" lon="0.8187420">
        <ele>692.1</ele>
        <time>2020-07-29T08:17:36Z</time>
      </trkpt>
      <trkpt lat="42.9496250" lon="0.8187740">
        <ele>692.7</ele>
        <time>2020-07-29T08:17:38Z</time>
      </trkpt>
      <trkpt lat="42.9496110" lon="0.8187870">
        <ele>692.9</ele>
        <time>2020-07-29T08:17:39Z</time>
      </trkpt>
      <trkpt lat="42.9495670" lon="0.8188250">
        <ele>693.5</ele>
        <time>2020-07-29T08:17:42Z</time>
      </trkpt>
      <trkpt lat="42.9495050" lon="0.8188530">
        <ele>694.3</ele>
        <time>2020-07-29T08:17:45Z</time>
      </trkpt>
      <trkpt lat="42.9494750" lon="0.8188770">
        <ele>694.8</ele>
        <time>2020-07-29T08:17:47Z</time>
      </trkpt>
      <trkpt lat="42.9494340" lon="0.8189040">
        <ele>695.4</ele>
        <time>2020-07-29T08:17:49Z</time>
      </trkpt>
      <trkpt lat="42.9494000" lon="0.8189320">
        <ele>695.9</ele>
        <time>2020-07-29T08:17:51Z</time>
      </trkpt>
      <trkpt lat="42.9493250" lon="0.8189920">
        <ele>697.1</ele>
        <time>2020-07-29T08:17:55Z</time>
      </trkpt>
      <trkpt lat="42.9492170" lon="0.8190180">
        <ele>698.6</ele>
        <time>2020-07-29T08:17:59Z</time>
      </trkpt>
      <trkpt lat="42.9491810" lon="0.8190230">
        <ele>699.1</ele>
        <time>2020-07-29T08:18:00Z</time>
      </trkpt>
      <trkpt lat="42.9491100" lon="0.8190590">
        <ele>700.0</ele>
        <time>2020-07-29T08:18:04Z</time>
      </trkpt>
      <trkpt lat="42.9491100" lon="0.8190690">
        <ele>700.1</ele>
        <time>2020-07-29T08:18:05Z</time>
      </trkpt>
      <trkpt lat="42.9491100" lon="0.8190840">
        <ele>700.2</ele>
        <time>2020-07-29T08:18:08Z</time>
      </trkpt>
      <trkpt lat="42.9491120" lon="0.8191080">
        <ele>700.4</ele>
        <time>2020-07-29T08:18:09Z</time>
      </trkpt>
      <trkpt lat="42.9490880" lon="0.8191990">
        <ele>701.2</ele>
        <time>2020-07-29T08:18:12Z</time>
      </trkpt>
      <trkpt lat="42.9490770" lon="0.8192280">
        <ele>701.5</ele>
        <time>2020-07-29T08:18:14Z</time>
      </trkpt>
      <trkpt lat="42.9490550" lon="0.8192880">
        <ele>702.1</ele>
        <time>2020-07-29T08:18:16Z</time>
      </trkpt>
      <trkpt lat="42.9489710" lon="0.8194960">
        <ele>703.9</ele>
        <time>2020-07-29T08:18:22Z</time>
      </trkpt>
      <trkpt lat="42.9489740" lon="0.8196510">
        <ele>705.1</ele>
        <time>2020-07-29T08:18:27Z</time>
      </trkpt>
      <trkpt lat="42.9489910" lon="0.8196880">
        <ele>704.9</ele>
        <time>2020-07-29T08:18:28Z</time>
      </trkpt>
      <trkpt lat="42.9489810" lon="0.8197230">
        <ele>705.1</ele>
        <time>2020-07-29T08:18:29Z</time>
      </trkpt>
      <trkpt lat="42.9489640" lon="0.8198340">
        <ele>706.3</ele>
        <time>2020-07-29T08:18:32Z</time>
      </trkpt>
      <trkpt lat="42.9489960" lon="0.8199460">
        <ele>706.7</ele>
        <time>2020-07-29T08:18:35Z</time>
      </trkpt>
      <trkpt lat="42.9490080" lon="0.8199840">
        <ele>707.1</ele>
        <time>2020-07-29T08:18:36Z</time>
      </trkpt>
      <trkpt lat="42.9490870" lon="0.8201290">
        <ele>707.3</ele>
        <time>2020-07-29T08:18:40Z</time>
      </trkpt>
      <trkpt lat="42.9491010" lon="0.8201670">
        <ele>707.8</ele>
        <time>2020-07-29T08:18:41Z</time>
      </trkpt>
      <trkpt lat="42.9491070" lon="0.8202740">
        <ele>708.6</ele>
        <time>2020-07-29T08:18:44Z</time>
      </trkpt>
      <trkpt lat="42.9491520" lon="0.8204180">
        <ele>710.3</ele>
        <time>2020-07-29T08:18:48Z</time>
      </trkpt>
      <trkpt lat="42.9492700" lon="0.8205610">
        <ele>713.2</ele>
        <time>2020-07-29T08:18:52Z</time>
      </trkpt>
      <trkpt lat="42.9492850" lon="0.8205930">
        <ele>714.1</ele>
        <time>2020-07-29T08:18:53Z</time>
      </trkpt>
      <trkpt lat="42.9493910" lon="0.8207320">
        <ele>719.1</ele>
        <time>2020-07-29T08:18:57Z</time>
      </trkpt>
      <trkpt lat="42.9494140" lon="0.8207620">
        <ele>720.0</ele>
        <time>2020-07-29T08:18:58Z</time>
      </trkpt>
      <trkpt lat="42.9494880" lon="0.8208290">
        <ele>723.7</ele>
        <time>2020-07-29T08:19:00Z</time>
      </trkpt>
      <trkpt lat="42.9495110" lon="0.8208640">
        <ele>724.7</ele>
        <time>2020-07-29T08:19:01Z</time>
      </trkpt>
      <trkpt lat="42.9495570" lon="0.8209400">
        <ele>728.5</ele>
        <time>2020-07-29T08:19:03Z</time>
      </trkpt>
      <trkpt lat="42.9495620" lon="0.8209720">
        <ele>729.4</ele>
        <time>2020-07-29T08:19:04Z</time>
      </trkpt>
      <trkpt lat="42.9496570" lon="0.8211440">
        <ele>735.5</ele>
        <time>2020-07-29T08:19:09Z</time>
      </trkpt>
      <trkpt lat="42.9493010" lon="0.8212070">
        <ele>724.5</ele>
        <time>2020-07-29T08:19:14Z</time>
      </trkpt>
      <trkpt lat="42.9492780" lon="0.8212320">
        <ele>724.4</ele>
        <time>2020-07-29T08:19:15Z</time>
      </trkpt>
      <trkpt lat="42.9490340" lon="0.8212460">
        <ele>719.4</ele>
        <time>2020-07-29T08:19:18Z</time>
      </trkpt>
      <trkpt lat="42.9489180" lon="0.8212770">
        <ele>719.0</ele>
        <time>2020-07-29T08:19:20Z</time>
      </trkpt>
      <trkpt lat="42.9489600" lon="0.8213770">
        <ele>720.4</ele>
        <time>2020-07-29T08:19:24Z</time>
      </trkpt>
      <trkpt lat="42.9489950" lon="0.8214530">
        <ele>721.9</ele>
        <time>2020-07-29T08:19:26Z</time>
      </trkpt>
      <trkpt lat="42.9489820" lon="0.8215240">
        <ele>722.4</ele>
        <time>2020-07-29T08:19:29Z</time>
      </trkpt>
      <trkpt lat="42.9489250" lon="0.8215500">
        <ele>722.9</ele>
        <time>2020-07-29T08:19:30Z</time>
      </trkpt>
      <trkpt lat="42.9487530" lon="0.8216270">
        <ele>724.5</ele>
        <time>2020-07-29T08:19:33Z</time>
      </trkpt>
      <trkpt lat="42.9487710" lon="0.8216900">
        <ele>724.9</ele>
        <time>2020-07-29T08:19:35Z</time>
      </trkpt>
      <trkpt lat="42.9487670" lon="0.8217780">
        <ele>725.4</ele>
        <time>2020-07-29T08:19:38Z</time>
      </trkpt>
      <trkpt lat="42.9487680" lon="0.8218320">
        <ele>725.7</ele>
        <time>2020-07-29T08:19:40Z</time>
      </trkpt>
      <trkpt lat="42.9487730" lon="0.8218950">
        <ele>726.1</ele>
        <time>2020-07-29T08:19:42Z</time>
      </trkpt>
      <trkpt lat="42.9487690" lon="0.8219310">
        <ele>726.3</ele>
        <time>2020-07-29T08:19:43Z</time>
      </trkpt>
      <trkpt lat="42.9487350" lon="0.8220400">
        <ele>726.9</ele>
        <time>2020-07-29T08:19:46Z</time>
      </trkpt>
      <trkpt lat="42.9487290" lon="0.8220740">
        <ele>727.1</ele>
        <time>2020-07-29T08:19:47Z</time>
      </trkpt>
      <trkpt lat="42.9486970" lon="0.8222790">
        <ele>728.2</ele>
        <time>2020-07-29T08:19:53Z</time>
      </trkpt>
      <trkpt lat="42.9487120" lon="0.8224990">
        <ele>729.4</ele>
        <time>2020-07-29T08:19:59Z</time>
      </trkpt>
      <trkpt lat="42.9487100" lon="0.8225360">
        <ele>729.6</ele>
        <time>2020-07-29T08:20:00Z</time>
      </trkpt>
      <trkpt lat="42.9487160" lon="0.8226200">
        <ele>730.1</ele>
        <time>2020-07-29T08:20:03Z</time>
      </trkpt>
      <trkpt lat="42.9487030" lon="0.8226660">
        <ele>730.3</ele>
        <time>2020-07-29T08:20:05Z</time>
      </trkpt>
      <trkpt lat="42.9487060" lon="0.8226970">
        <ele>730.5</ele>
        <time>2020-07-29T08:20:06Z</time>
      </trkpt>
      <trkpt lat="42.9487330" lon="0.8227550">
        <ele>730.9</ele>
        <time>2020-07-29T08:20:08Z</time>
      </trkpt>
      <trkpt lat="42.9487390" lon="0.8227830">
        <ele>731.1</ele>
        <time>2020-07-29T08:20:09Z</time>
      </trkpt>
      <trkpt lat="42.9487380" lon="0.8228250">
        <ele>731.4</ele>
        <time>2020-07-29T08:20:11Z</time>
      </trkpt>
      <trkpt lat="42.9487350" lon="0.8228570">
        <ele>731.6</ele>
        <time>2020-07-29T08:20:13Z</time>
      </trkpt>
      <trkpt lat="42.9487360" lon="0.8229180">
        <ele>731.9</ele>
        <time>2020-07-29T08:20:16Z</time>
      </trkpt>
      <trkpt lat="42.9487330" lon="0.8229350">
        <ele>732.0</ele>
        <time>2020-07-29T08:20:17Z</time>
      </trkpt>
      <trkpt lat="42.9487340" lon="0.8229510">
        <ele>732.1</ele>
        <time>2020-07-29T08:20:18Z</time>
      </trkpt>
      <trkpt lat="42.9487070" lon="0.8230340">
        <ele>732.6</ele>
        <time>2020-07-29T08:20:22Z</time>
      </trkpt>
      <trkpt lat="42.9485950" lon="0.8231560">
        <ele>733.6</ele>
        <time>2020-07-29T08:20:25Z</time>
      </trkpt>
      <trkpt lat="42.9485560" lon="0.8231930">
        <ele>734.1</ele>
        <time>2020-07-29T08:20:26Z</time>
      </trkpt>
      <trkpt lat="42.9484600" lon="0.8233410">
        <ele>735.6</ele>
        <time>2020-07-29T08:20:30Z</time>
      </trkpt>
      <trkpt lat="42.9484510" lon="0.8233750">
        <ele>735.8</ele>
        <time>2020-07-29T08:20:31Z</time>
      </trkpt>
      <trkpt lat="42.9484520" lon="0.8234070">
        <ele>736.1</ele>
        <time>2020-07-29T08:20:32Z</time>
      </trkpt>
      <trkpt lat="42.9484520" lon="0.8234980">
        <ele>736.8</ele>
        <time>2020-07-29T08:20:35Z</time>
      </trkpt>
      <trkpt lat="42.9484370" lon="0.8235340">
        <ele>737.1</ele>
        <time>2020-07-29T08:20:36Z</time>
      </trkpt>
      <trkpt lat="42.9483840" lon="0.8236640">
        <ele>738.2</ele>
        <time>2020-07-29T08:20:40Z</time>
      </trkpt>
      <trkpt lat="42.9483650" lon="0.8237270">
        <ele>738.7</ele>
        <time>2020-07-29T08:20:42Z</time>
      </trkpt>
      <trkpt lat="42.9483360" lon="0.8238150">
        <ele>739.5</ele>
        <time>2020-07-29T08:20:45Z</time>
      </trkpt>
      <trkpt lat="42.9482830" lon="0.8239290">
        <ele>740.6</ele>
        <time>2020-07-29T08:20:49Z</time>
      </trkpt>
      <trkpt lat="42.9482730" lon="0.8239540">
        <ele>740.8</ele>
        <time>2020-07-29T08:20:50Z</time>
      </trkpt>
      <trkpt lat="42.9482070" lon="0.8240670">
        <ele>742.0</ele>
        <time>2020-07-29T08:20:54Z</time>
      </trkpt>
      <trkpt lat="42.9481220" lon="0.8242050">
        <ele>743.6</ele>
        <time>2020-07-29T08:20:59Z</time>
      </trkpt>
      <trkpt lat="42.9480870" lon="0.8242480">
        <ele>744.2</ele>
        <time>2020-07-29T08:21:01Z</time>
      </trkpt>
      <trkpt lat="42.9480490" lon="0.8242690">
        <ele>744.7</ele>
        <time>2020-07-29T08:21:03Z</time>
      </trkpt>
      <trkpt lat="42.9479800" lon="0.8243240">
        <ele>745.7</ele>
        <time>2020-07-29T08:21:07Z</time>
      </trkpt>
      <trkpt lat="42.9479590" lon="0.8243400">
        <ele>746.0</ele>
        <time>2020-07-29T08:21:08Z</time>
      </trkpt>
      <trkpt lat="42.9478680" lon="0.8244170">
        <ele>747.3</ele>
        <time>2020-07-29T08:21:12Z</time>
      </trkpt>
      <trkpt lat="42.9478100" lon="0.8244680">
        <ele>748.2</ele>
        <time>2020-07-29T08:21:14Z</time>
      </trkpt>
      <trkpt lat="42.9477930" lon="0.8244870">
        <ele>748.5</ele>
        <time>2020-07-29T08:21:15Z</time>
      </trkpt>
      <trkpt lat="42.9477180" lon="0.8245760">
        <ele>749.8</ele>
        <time>2020-07-29T08:21:18Z</time>
      </trkpt>
      <trkpt lat="42.9476730" lon="0.8246190">
        <ele>750.6</ele>
        <time>2020-07-29T08:21:20Z</time>
      </trkpt>
      <trkpt lat="42.9476200" lon="0.8246360">
        <ele>751.3</ele>
        <time>2020-07-29T08:21:22Z</time>
      </trkpt>
      <trkpt lat="42.9475720" lon="0.8246940">
        <ele>752.1</ele>
        <time>2020-07-29T08:21:25Z</time>
      </trkpt>
      <trkpt lat="42.9475460" lon="0.8247280">
        <ele>752.6</ele>
        <time>2020-07-29T08:21:26Z</time>
      </trkpt>
      <trkpt lat="42.9475050" lon="0.8248040">
        <ele>753.5</ele>
        <time>2020-07-29T08:21:29Z</time>
      </trkpt>
      <trkpt lat="42.9474850" lon="0.8248300">
        <ele>753.8</ele>
        <time>2020-07-29T08:21:30Z</time>
      </trkpt>
      <trkpt lat="42.9474500" lon="0.8248920">
        <ele>754.6</ele>
        <time>2020-07-29T08:21:33Z</time>
      </trkpt>
      <trkpt lat="42.9474200" lon="0.8249650">
        <ele>755.3</ele>
        <time>2020-07-29T08:21:36Z</time>
      </trkpt>
      <trkpt lat="42.9474110" lon="0.8249870">
        <ele>755.5</ele>
        <time>2020-07-29T08:21:37Z</time>
      </trkpt>
      <trkpt lat="42.9473660" lon="0.8251020">
        <ele>756.6</ele>
        <time>2020-07-29T08:21:41Z</time>
      </trkpt>
      <trkpt lat="42.9473560" lon="0.8251590">
        <ele>757.0</ele>
        <time>2020-07-29T08:21:43Z</time>
      </trkpt>
      <trkpt lat="42.9473440" lon="0.8252220">
        <ele>757.5</ele>
        <time>2020-07-29T08:21:45Z</time>
      </trkpt>
      <trkpt lat="42.9472890" lon="0.8253410">
        <ele>758.4</ele>
        <time>2020-07-29T08:21:49Z</time>
      </trkpt>
      <trkpt lat="42.9472830" lon="0.8253730">
        <ele>758.6</ele>
        <time>2020-07-29T08:21:50Z</time>
      </trkpt>
      <trkpt lat="42.9472490" lon="0.8255150">
        <ele>759.5</ele>
        <time>2020-07-29T08:21:54Z</time>
      </trkpt>
      <trkpt lat="42.9472130" lon="0.8255920">
        <ele>760.0</ele>
        <time>2020-07-29T08:21:56Z</time>
      </trkpt>
      <trkpt lat="42.9471510" lon="0.8257240">
        <ele>760.9</ele>
        <time>2020-07-29T08:22:00Z</time>
      </trkpt>
      <trkpt lat="42.9471110" lon="0.8257820">
        <ele>761.5</ele>
        <time>2020-07-29T08:22:02Z</time>
      </trkpt>
      <trkpt lat="42.9470680" lon="0.8258370">
        <ele>762.1</ele>
        <time>2020-07-29T08:22:04Z</time>
      </trkpt>
      <trkpt lat="42.9470160" lon="0.8258990">
        <ele>762.8</ele>
        <time>2020-07-29T08:22:07Z</time>
      </trkpt>
      <trkpt lat="42.9469710" lon="0.8259610">
        <ele>763.6</ele>
        <time>2020-07-29T08:22:10Z</time>
      </trkpt>
      <trkpt lat="42.9469410" lon="0.8259910">
        <ele>764.0</ele>
        <time>2020-07-29T08:22:12Z</time>
      </trkpt>
      <trkpt lat="42.9469340" lon="0.8260200">
        <ele>764.3</ele>
        <time>2020-07-29T08:22:13Z</time>
      </trkpt>
      <trkpt lat="42.9468890" lon="0.8261160">
        <ele>764.5</ele>
        <time>2020-07-29T08:22:16Z</time>
      </trkpt>
      <trkpt lat="42.9468520" lon="0.8261660">
        <ele>764.7</ele>
        <time>2020-07-29T08:22:18Z</time>
      </trkpt>
      <trkpt lat="42.9467930" lon="0.8262420">
        <ele>765.6</ele>
        <time>2020-07-29T08:22:21Z</time>
      </trkpt>
      <trkpt lat="42.9467830" lon="0.8263030">
        <ele>766.1</ele>
        <time>2020-07-29T08:22:23Z</time>
      </trkpt>
      <trkpt lat="42.9467900" lon="0.8263990">
        <ele>766.9</ele>
        <time>2020-07-29T08:22:26Z</time>
      </trkpt>
      <trkpt lat="42.9467790" lon="0.8264310">
        <ele>767.2</ele>
        <time>2020-07-29T08:22:27Z</time>
      </trkpt>
      <trkpt lat="42.9467490" lon="0.8265260">
        <ele>768.0</ele>
        <time>2020-07-29T08:22:30Z</time>
      </trkpt>
      <trkpt lat="42.9467410" lon="0.8265560">
        <ele>768.2</ele>
        <time>2020-07-29T08:22:31Z</time>
      </trkpt>
      <trkpt lat="42.9466960" lon="0.8267090">
        <ele>769.6</ele>
        <time>2020-07-29T08:22:36Z</time>
      </trkpt>
      <trkpt lat="42.9466820" lon="0.8267380">
        <ele>769.9</ele>
        <time>2020-07-29T08:22:37Z</time>
      </trkpt>
      <trkpt lat="42.9466760" lon="0.8268370">
        <ele>770.7</ele>
        <time>2020-07-29T08:22:40Z</time>
      </trkpt>
      <trkpt lat="42.9466780" lon="0.8268630">
        <ele>770.9</ele>
        <time>2020-07-29T08:22:41Z</time>
      </trkpt>
      <trkpt lat="42.9466280" lon="0.8269590">
        <ele>771.8</ele>
        <time>2020-07-29T08:22:44Z</time>
      </trkpt>
      <trkpt lat="42.9466170" lon="0.8269850">
        <ele>772.1</ele>
        <time>2020-07-29T08:22:45Z</time>
      </trkpt>
      <trkpt lat="42.9466030" lon="0.8270370">
        <ele>772.6</ele>
        <time>2020-07-29T08:22:48Z</time>
      </trkpt>
      <trkpt lat="42.9465940" lon="0.8270410">
        <ele>772.7</ele>
        <time>2020-07-29T08:22:49Z</time>
      </trkpt>
      <trkpt lat="42.9465920" lon="0.8270820">
        <ele>773.1</ele>
        <time>2020-07-29T08:22:53Z</time>
      </trkpt>
      <trkpt lat="42.9465930" lon="0.8270940">
        <ele>773.2</ele>
        <time>2020-07-29T08:22:54Z</time>
      </trkpt>
      <trkpt lat="42.9465500" lon="0.8271540">
        <ele>773.9</ele>
        <time>2020-07-29T08:22:58Z</time>
      </trkpt>
      <trkpt lat="42.9465510" lon="0.8271720">
        <ele>774.1</ele>
        <time>2020-07-29T08:22:59Z</time>
      </trkpt>
      <trkpt lat="42.9464870" lon="0.8272830">
        <ele>775.3</ele>
        <time>2020-07-29T08:23:03Z</time>
      </trkpt>
      <trkpt lat="42.9463890" lon="0.8273570">
        <ele>776.7</ele>
        <time>2020-07-29T08:23:07Z</time>
      </trkpt>
      <trkpt lat="42.9463610" lon="0.8273790">
        <ele>777.1</ele>
        <time>2020-07-29T08:23:08Z</time>
      </trkpt>
      <trkpt lat="42.9463170" lon="0.8274450">
        <ele>777.9</ele>
        <time>2020-07-29T08:23:11Z</time>
      </trkpt>
      <trkpt lat="42.9462490" lon="0.8275490">
        <ele>779.2</ele>
        <time>2020-07-29T08:23:14Z</time>
      </trkpt>
      <trkpt lat="42.9462240" lon="0.8276210">
        <ele>779.9</ele>
        <time>2020-07-29T08:23:16Z</time>
      </trkpt>
      <trkpt lat="42.9462250" lon="0.8276910">
        <ele>780.5</ele>
        <time>2020-07-29T08:23:18Z</time>
      </trkpt>
      <trkpt lat="42.9461410" lon="0.8278280">
        <ele>782.0</ele>
        <time>2020-07-29T08:23:22Z</time>
      </trkpt>
      <trkpt lat="42.9461140" lon="0.8278660">
        <ele>782.5</ele>
        <time>2020-07-29T08:23:23Z</time>
      </trkpt>
      <trkpt lat="42.9461200" lon="0.8278960">
        <ele>782.7</ele>
        <time>2020-07-29T08:23:24Z</time>
      </trkpt>
      <trkpt lat="42.9461280" lon="0.8279510">
        <ele>783.2</ele>
        <time>2020-07-29T08:23:26Z</time>
      </trkpt>
      <trkpt lat="42.9460850" lon="0.8280630">
        <ele>784.2</ele>
        <time>2020-07-29T08:23:29Z</time>
      </trkpt>
      <trkpt lat="42.9460480" lon="0.8281040">
        <ele>784.7</ele>
        <time>2020-07-29T08:23:30Z</time>
      </trkpt>
      <trkpt lat="42.9460240" lon="0.8281500">
        <ele>785.1</ele>
        <time>2020-07-29T08:23:31Z</time>
      </trkpt>
      <trkpt lat="42.9459830" lon="0.8282230">
        <ele>785.9</ele>
        <time>2020-07-29T08:23:33Z</time>
      </trkpt>
      <trkpt lat="42.9459450" lon="0.8283160">
        <ele>786.7</ele>
        <time>2020-07-29T08:23:36Z</time>
      </trkpt>
      <trkpt lat="42.9459350" lon="0.8283370">
        <ele>786.9</ele>
        <time>2020-07-29T08:23:37Z</time>
      </trkpt>
      <trkpt lat="42.9458880" lon="0.8284540">
        <ele>785.2</ele>
        <time>2020-07-29T08:23:41Z</time>
      </trkpt>
      <trkpt lat="42.9458660" lon="0.8285670">
        <ele>784.9</ele>
        <time>2020-07-29T08:23:44Z</time>
      </trkpt>
      <trkpt lat="42.9458570" lon="0.8286060">
        <ele>785.1</ele>
        <time>2020-07-29T08:23:45Z</time>
      </trkpt>
      <trkpt lat="42.9458580" lon="0.8286890">
        <ele>785.6</ele>
        <time>2020-07-29T08:23:47Z</time>
      </trkpt>
      <trkpt lat="42.9458740" lon="0.8287680">
        <ele>786.1</ele>
        <time>2020-07-29T08:23:49Z</time>
      </trkpt>
      <trkpt lat="42.9458920" lon="0.8288000">
        <ele>786.4</ele>
        <time>2020-07-29T08:23:50Z</time>
      </trkpt>
      <trkpt lat="42.9459650" lon="0.8288940">
        <ele>787.3</ele>
        <time>2020-07-29T08:23:53Z</time>
      </trkpt>
      <trkpt lat="42.9459810" lon="0.8289320">
        <ele>787.6</ele>
        <time>2020-07-29T08:23:54Z</time>
      </trkpt>
      <trkpt lat="42.9459880" lon="0.8290780">
        <ele>788.5</ele>
        <time>2020-07-29T08:23:58Z</time>
      </trkpt>
      <trkpt lat="42.9459750" lon="0.8291130">
        <ele>788.8</ele>
        <time>2020-07-29T08:23:59Z</time>
      </trkpt>
      <trkpt lat="42.9459290" lon="0.8291960">
        <ele>789.5</ele>
        <time>2020-07-29T08:24:02Z</time>
      </trkpt>
      <trkpt lat="42.9459140" lon="0.8292660">
        <ele>790.0</ele>
        <time>2020-07-29T08:24:04Z</time>
      </trkpt>
      <trkpt lat="42.9458450" lon="0.8293740">
        <ele>791.0</ele>
        <time>2020-07-29T08:24:08Z</time>
      </trkpt>
      <trkpt lat="42.9458370" lon="0.8294030">
        <ele>791.2</ele>
        <time>2020-07-29T08:24:09Z</time>
      </trkpt>
      <trkpt lat="42.9458380" lon="0.8294310">
        <ele>791.4</ele>
        <time>2020-07-29T08:24:10Z</time>
      </trkpt>
      <trkpt lat="42.9458280" lon="0.8294730">
        <ele>791.6</ele>
        <time>2020-07-29T08:24:12Z</time>
      </trkpt>
      <trkpt lat="42.9458160" lon="0.8295010">
        <ele>791.9</ele>
        <time>2020-07-29T08:24:13Z</time>
      </trkpt>
      <trkpt lat="42.9457810" lon="0.8297030">
        <ele>793.3</ele>
        <time>2020-07-29T08:24:17Z</time>
      </trkpt>
      <trkpt lat="42.9457470" lon="0.8298930">
        <ele>794.6</ele>
        <time>2020-07-29T08:24:22Z</time>
      </trkpt>
      <trkpt lat="42.9457450" lon="0.8299260">
        <ele>794.9</ele>
        <time>2020-07-29T08:24:23Z</time>
      </trkpt>
      <trkpt lat="42.9457320" lon="0.8300250">
        <ele>795.6</ele>
        <time>2020-07-29T08:24:26Z</time>
      </trkpt>
      <trkpt lat="42.9457130" lon="0.8301500">
        <ele>796.6</ele>
        <time>2020-07-29T08:24:30Z</time>
      </trkpt>
      <trkpt lat="42.9456980" lon="0.8301830">
        <ele>796.9</ele>
        <time>2020-07-29T08:24:31Z</time>
      </trkpt>
      <trkpt lat="42.9456710" lon="0.8302700">
        <ele>797.7</ele>
        <time>2020-07-29T08:24:34Z</time>
      </trkpt>
      <trkpt lat="42.9456430" lon="0.8303240">
        <ele>798.2</ele>
        <time>2020-07-29T08:24:36Z</time>
      </trkpt>
      <trkpt lat="42.9456230" lon="0.8303960">
        <ele>798.9</ele>
        <time>2020-07-29T08:24:39Z</time>
      </trkpt>
      <trkpt lat="42.9456210" lon="0.8304230">
        <ele>799.2</ele>
        <time>2020-07-29T08:24:40Z</time>
      </trkpt>
      <trkpt lat="42.9455880" lon="0.8305460">
        <ele>800.5</ele>
        <time>2020-07-29T08:24:45Z</time>
      </trkpt>
      <trkpt lat="42.9455920" lon="0.8305560">
        <ele>800.6</ele>
        <time>2020-07-29T08:24:46Z</time>
      </trkpt>
      <trkpt lat="42.9455510" lon="0.8306640">
        <ele>801.8</ele>
        <time>2020-07-29T08:24:50Z</time>
      </trkpt>
      <trkpt lat="42.9455200" lon="0.8307610">
        <ele>802.9</ele>
        <time>2020-07-29T08:24:54Z</time>
      </trkpt>
      <trkpt lat="42.9455160" lon="0.8307840">
        <ele>803.2</ele>
        <time>2020-07-29T08:24:55Z</time>
      </trkpt>
      <trkpt lat="42.9455140" lon="0.8308700">
        <ele>804.1</ele>
        <time>2020-07-29T08:24:58Z</time>
      </trkpt>
      <trkpt lat="42.9454970" lon="0.8309620">
        <ele>805.1</ele>
        <time>2020-07-29T08:25:01Z</time>
      </trkpt>
      <trkpt lat="42.9454820" lon="0.8309940">
        <ele>805.5</ele>
        <time>2020-07-29T08:25:02Z</time>
      </trkpt>
      <trkpt lat="42.9454320" lon="0.8311030">
        <ele>806.8</ele>
        <time>2020-07-29T08:25:06Z</time>
      </trkpt>
      <trkpt lat="42.9453900" lon="0.8311720">
        <ele>807.8</ele>
        <time>2020-07-29T08:25:09Z</time>
      </trkpt>
      <trkpt lat="42.9453710" lon="0.8311990">
        <ele>808.2</ele>
        <time>2020-07-29T08:25:10Z</time>
      </trkpt>
      <trkpt lat="42.9452910" lon="0.8312830">
        <ele>809.6</ele>
        <time>2020-07-29T08:25:14Z</time>
      </trkpt>
      <trkpt lat="42.9452660" lon="0.8313160">
        <ele>810.1</ele>
        <time>2020-07-29T08:25:16Z</time>
      </trkpt>
      <trkpt lat="42.9452450" lon="0.8313400">
        <ele>810.5</ele>
        <time>2020-07-29T08:25:17Z</time>
      </trkpt>
      <trkpt lat="42.9452100" lon="0.8313920">
        <ele>811.3</ele>
        <time>2020-07-29T08:25:19Z</time>
      </trkpt>
      <trkpt lat="42.9451350" lon="0.8314770">
        <ele>812.7</ele>
        <time>2020-07-29T08:25:23Z</time>
      </trkpt>
      <trkpt lat="42.9450820" lon="0.8315630">
        <ele>813.9</ele>
        <time>2020-07-29T08:25:27Z</time>
      </trkpt>
      <trkpt lat="42.9450690" lon="0.8316070">
        <ele>814.5</ele>
        <time>2020-07-29T08:25:29Z</time>
      </trkpt>
      <trkpt lat="42.9450630" lon="0.8316260">
        <ele>814.7</ele>
        <time>2020-07-29T08:25:30Z</time>
      </trkpt>
      <trkpt lat="42.9450350" lon="0.8316900">
        <ele>815.5</ele>
        <time>2020-07-29T08:25:33Z</time>
      </trkpt>
      <trkpt lat="42.9449960" lon="0.8317560">
        <ele>816.6</ele>
        <time>2020-07-29T08:25:36Z</time>
      </trkpt>
      <trkpt lat="42.9449480" lon="0.8318240">
        <ele>817.7</ele>
        <time>2020-07-29T08:25:40Z</time>
      </trkpt>
      <trkpt lat="42.9448940" lon="0.8318820">
        <ele>818.9</ele>
        <time>2020-07-29T08:25:43Z</time>
      </trkpt>
      <trkpt lat="42.9448410" lon="0.8319460">
        <ele>820.1</ele>
        <time>2020-07-29T08:25:47Z</time>
      </trkpt>
      <trkpt lat="42.9447790" lon="0.8319940">
        <ele>821.3</ele>
        <time>2020-07-29T08:25:50Z</time>
      </trkpt>
      <trkpt lat="42.9447610" lon="0.8320130">
        <ele>821.7</ele>
        <time>2020-07-29T08:25:51Z</time>
      </trkpt>
      <trkpt lat="42.9446780" lon="0.8320670">
        <ele>823.1</ele>
        <time>2020-07-29T08:25:55Z</time>
      </trkpt>
      <trkpt lat="42.9446590" lon="0.8320930">
        <ele>823.6</ele>
        <time>2020-07-29T08:25:57Z</time>
      </trkpt>
      <trkpt lat="42.9446320" lon="0.8321170">
        <ele>823.7</ele>
        <time>2020-07-29T08:25:59Z</time>
      </trkpt>
      <trkpt lat="42.9445940" lon="0.8321660">
        <ele>824.0</ele>
        <time>2020-07-29T08:26:02Z</time>
      </trkpt>
      <trkpt lat="42.9445680" lon="0.8321870">
        <ele>824.1</ele>
        <time>2020-07-29T08:26:04Z</time>
      </trkpt>
      <trkpt lat="42.9445610" lon="0.8322000">
        <ele>824.2</ele>
        <time>2020-07-29T08:26:05Z</time>
      </trkpt>
      <trkpt lat="42.9445420" lon="0.8322310">
        <ele>824.3</ele>
        <time>2020-07-29T08:26:07Z</time>
      </trkpt>
      <trkpt lat="42.9445250" lon="0.8322520">
        <ele>824.5</ele>
        <time>2020-07-29T08:26:08Z</time>
      </trkpt>
      <trkpt lat="42.9444600" lon="0.8323380">
        <ele>825.7</ele>
        <time>2020-07-29T08:26:12Z</time>
      </trkpt>
      <trkpt lat="42.9444350" lon="0.8323740">
        <ele>826.2</ele>
        <time>2020-07-29T08:26:13Z</time>
      </trkpt>
      <trkpt lat="42.9443910" lon="0.8324440">
        <ele>827.0</ele>
        <time>2020-07-29T08:26:16Z</time>
      </trkpt>
      <trkpt lat="42.9443300" lon="0.8325640">
        <ele>828.3</ele>
        <time>2020-07-29T08:26:20Z</time>
      </trkpt>
      <trkpt lat="42.9442460" lon="0.8326880">
        <ele>829.8</ele>
        <time>2020-07-29T08:26:24Z</time>
      </trkpt>
      <trkpt lat="42.9442370" lon="0.8327160">
        <ele>830.1</ele>
        <time>2020-07-29T08:26:25Z</time>
      </trkpt>
      <trkpt lat="42.9441900" lon="0.8328330">
        <ele>831.1</ele>
        <time>2020-07-29T08:26:29Z</time>
      </trkpt>
      <trkpt lat="42.9441530" lon="0.8329130">
        <ele>831.9</ele>
        <time>2020-07-29T08:26:32Z</time>
      </trkpt>
      <trkpt lat="42.9441240" lon="0.8329660">
        <ele>832.4</ele>
        <time>2020-07-29T08:26:34Z</time>
      </trkpt>
      <trkpt lat="42.9440470" lon="0.8330860">
        <ele>833.6</ele>
        <time>2020-07-29T08:26:39Z</time>
      </trkpt>
      <trkpt lat="42.9440320" lon="0.8331110">
        <ele>833.9</ele>
        <time>2020-07-29T08:26:40Z</time>
      </trkpt>
      <trkpt lat="42.9439760" lon="0.8332190">
        <ele>834.9</ele>
        <time>2020-07-29T08:26:44Z</time>
      </trkpt>
      <trkpt lat="42.9439430" lon="0.8333030">
        <ele>835.7</ele>
        <time>2020-07-29T08:26:47Z</time>
      </trkpt>
      <trkpt lat="42.9439190" lon="0.8333540">
        <ele>836.2</ele>
        <time>2020-07-29T08:26:49Z</time>
      </trkpt>
      <trkpt lat="42.9438890" lon="0.8334580">
        <ele>837.2</ele>
        <time>2020-07-29T08:26:53Z</time>
      </trkpt>
      <trkpt lat="42.9438710" lon="0.8335100">
        <ele>837.6</ele>
        <time>2020-07-29T08:26:55Z</time>
      </trkpt>
      <trkpt lat="42.9438400" lon="0.8336070">
        <ele>838.5</ele>
        <time>2020-07-29T08:26:59Z</time>
      </trkpt>
      <trkpt lat="42.9438340" lon="0.8336290">
        <ele>838.7</ele>
        <time>2020-07-29T08:27:00Z</time>
      </trkpt>
      <trkpt lat="42.9437700" lon="0.8337580">
        <ele>840.0</ele>
        <time>2020-07-29T08:27:05Z</time>
      </trkpt>
      <trkpt lat="42.9437580" lon="0.8337840">
        <ele>840.2</ele>
        <time>2020-07-29T08:27:06Z</time>
      </trkpt>
      <trkpt lat="42.9437140" lon="0.8338900">
        <ele>841.2</ele>
        <time>2020-07-29T08:27:10Z</time>
      </trkpt>
      <trkpt lat="42.9436890" lon="0.8339530">
        <ele>841.8</ele>
        <time>2020-07-29T08:27:12Z</time>
      </trkpt>
      <trkpt lat="42.9436710" lon="0.8340140">
        <ele>842.3</ele>
        <time>2020-07-29T08:27:14Z</time>
      </trkpt>
      <trkpt lat="42.9436430" lon="0.8341570">
        <ele>843.5</ele>
        <time>2020-07-29T08:27:19Z</time>
      </trkpt>
      <trkpt lat="42.9436080" lon="0.8342610">
        <ele>844.5</ele>
        <time>2020-07-29T08:27:23Z</time>
      </trkpt>
      <trkpt lat="42.9435940" lon="0.8342870">
        <ele>844.8</ele>
        <time>2020-07-29T08:27:24Z</time>
      </trkpt>
      <trkpt lat="42.9435320" lon="0.8343820">
        <ele>845.9</ele>
        <time>2020-07-29T08:27:28Z</time>
      </trkpt>
      <trkpt lat="42.9434940" lon="0.8344330">
        <ele>846.4</ele>
        <time>2020-07-29T08:27:30Z</time>
      </trkpt>
      <trkpt lat="42.9434580" lon="0.8344710">
        <ele>847.0</ele>
        <time>2020-07-29T08:27:32Z</time>
      </trkpt>
      <trkpt lat="42.9434070" lon="0.8345470">
        <ele>848.0</ele>
        <time>2020-07-29T08:27:36Z</time>
      </trkpt>
      <trkpt lat="42.9434000" lon="0.8345650">
        <ele>848.1</ele>
        <time>2020-07-29T08:27:37Z</time>
      </trkpt>
      <trkpt lat="42.9433840" lon="0.8345970">
        <ele>848.5</ele>
        <time>2020-07-29T08:27:40Z</time>
      </trkpt>
      <trkpt lat="42.9433730" lon="0.8346150">
        <ele>848.7</ele>
        <time>2020-07-29T08:27:42Z</time>
      </trkpt>
      <trkpt lat="42.9433690" lon="0.8346250">
        <ele>848.8</ele>
        <time>2020-07-29T08:27:43Z</time>
      </trkpt>
      <trkpt lat="42.9433500" lon="0.8346720">
        <ele>849.3</ele>
        <time>2020-07-29T08:27:47Z</time>
      </trkpt>
      <trkpt lat="42.9433300" lon="0.8346950">
        <ele>849.7</ele>
        <time>2020-07-29T08:27:49Z</time>
      </trkpt>
      <trkpt lat="42.9433130" lon="0.8346990">
        <ele>849.9</ele>
        <time>2020-07-29T08:27:51Z</time>
      </trkpt>
      <trkpt lat="42.9432570" lon="0.8347520">
        <ele>850.8</ele>
        <time>2020-07-29T08:27:55Z</time>
      </trkpt>
      <trkpt lat="42.9432460" lon="0.8347800">
        <ele>851.1</ele>
        <time>2020-07-29T08:27:59Z</time>
      </trkpt>
      <trkpt lat="42.9432240" lon="0.8348060">
        <ele>851.5</ele>
        <time>2020-07-29T08:28:01Z</time>
      </trkpt>
      <trkpt lat="42.9431940" lon="0.8348210">
        <ele>851.9</ele>
        <time>2020-07-29T08:28:03Z</time>
      </trkpt>
      <trkpt lat="42.9431330" lon="0.8348570">
        <ele>852.8</ele>
        <time>2020-07-29T08:28:06Z</time>
      </trkpt>
      <trkpt lat="42.9431010" lon="0.8348760">
        <ele>853.3</ele>
        <time>2020-07-29T08:28:07Z</time>
      </trkpt>
      <trkpt lat="42.9430660" lon="0.8348940">
        <ele>853.8</ele>
        <time>2020-07-29T08:28:10Z</time>
      </trkpt>
      <trkpt lat="42.9429920" lon="0.8349440">
        <ele>854.9</ele>
        <time>2020-07-29T08:28:13Z</time>
      </trkpt>
      <trkpt lat="42.9429360" lon="0.8349620">
        <ele>855.6</ele>
        <time>2020-07-29T08:28:17Z</time>
      </trkpt>
      <trkpt lat="42.9428620" lon="0.8349850">
        <ele>856.6</ele>
        <time>2020-07-29T08:28:21Z</time>
      </trkpt>
      <trkpt lat="42.9428010" lon="0.8349990">
        <ele>857.4</ele>
        <time>2020-07-29T08:28:25Z</time>
      </trkpt>
      <trkpt lat="42.9427920" lon="0.8349950">
        <ele>857.5</ele>
        <time>2020-07-29T08:28:27Z</time>
      </trkpt>
      <trkpt lat="42.9427860" lon="0.8349830">
        <ele>857.6</ele>
        <time>2020-07-29T08:28:29Z</time>
      </trkpt>
      <trkpt lat="42.9427570" lon="0.8349610">
        <ele>858.0</ele>
        <time>2020-07-29T08:28:33Z</time>
      </trkpt>
      <trkpt lat="42.9426040" lon="0.8350180">
        <ele>860.0</ele>
        <time>2020-07-29T08:28:37Z</time>
      </trkpt>
      <trkpt lat="42.9425680" lon="0.8349990">
        <ele>860.4</ele>
        <time>2020-07-29T08:28:39Z</time>
      </trkpt>
      <trkpt lat="42.9425390" lon="0.8350000">
        <ele>860.7</ele>
        <time>2020-07-29T08:28:40Z</time>
      </trkpt>
      <trkpt lat="42.9425140" lon="0.8349810">
        <ele>861.1</ele>
        <time>2020-07-29T08:28:42Z</time>
      </trkpt>
      <trkpt lat="42.9424870" lon="0.8349590">
        <ele>861.4</ele>
        <time>2020-07-29T08:28:44Z</time>
      </trkpt>
      <trkpt lat="42.9424720" lon="0.8349550">
        <ele>861.6</ele>
        <time>2020-07-29T08:28:45Z</time>
      </trkpt>
      <trkpt lat="42.9424350" lon="0.8349190">
        <ele>862.1</ele>
        <time>2020-07-29T08:28:48Z</time>
      </trkpt>
      <trkpt lat="42.9423350" lon="0.8348890">
        <ele>863.2</ele>
        <time>2020-07-29T08:28:52Z</time>
      </trkpt>
      <trkpt lat="42.9423350" lon="0.8348890">
        <ele>863.2</ele>
        <time>2020-07-29T08:28:53Z</time>
      </trkpt>
      <trkpt lat="42.9422840" lon="0.8348320">
        <ele>864.0</ele>
        <time>2020-07-29T08:28:57Z</time>
      </trkpt>
      <trkpt lat="42.9422690" lon="0.8348070">
        <ele>864.2</ele>
        <time>2020-07-29T08:28:58Z</time>
      </trkpt>
      <trkpt lat="42.9422440" lon="0.8347840">
        <ele>864.5</ele>
        <time>2020-07-29T08:29:00Z</time>
      </trkpt>
      <trkpt lat="42.9422290" lon="0.8347730">
        <ele>864.7</ele>
        <time>2020-07-29T08:29:01Z</time>
      </trkpt>
      <trkpt lat="42.9422020" lon="0.8347270">
        <ele>865.2</ele>
        <time>2020-07-29T08:29:04Z</time>
      </trkpt>
      <trkpt lat="42.9421910" lon="0.8346650">
        <ele>865.7</ele>
        <time>2020-07-29T08:29:06Z</time>
      </trkpt>
      <trkpt lat="42.9421730" lon="0.8345550">
        <ele>866.6</ele>
        <time>2020-07-29T08:29:09Z</time>
      </trkpt>
      <trkpt lat="42.9419790" lon="0.8347200">
        <ele>868.8</ele>
        <time>2020-07-29T08:29:14Z</time>
      </trkpt>
      <trkpt lat="42.9416510" lon="0.8351030">
        <ele>872.6</ele>
        <time>2020-07-29T08:29:18Z</time>
      </trkpt>
      <trkpt lat="42.9415850" lon="0.8352090">
        <ele>872.6</ele>
        <time>2020-07-29T08:29:20Z</time>
      </trkpt>
      <trkpt lat="42.9415820" lon="0.8352790">
        <ele>873.5</ele>
        <time>2020-07-29T08:29:22Z</time>
      </trkpt>
      <trkpt lat="42.9415880" lon="0.8353660">
        <ele>874.2</ele>
        <time>2020-07-29T08:29:26Z</time>
      </trkpt>
      <trkpt lat="42.9415940" lon="0.8353840">
        <ele>874.4</ele>
        <time>2020-07-29T08:29:27Z</time>
      </trkpt>
      <trkpt lat="42.9416010" lon="0.8354020">
        <ele>874.6</ele>
        <time>2020-07-29T08:29:28Z</time>
      </trkpt>
      <trkpt lat="42.9416430" lon="0.8355080">
        <ele>875.5</ele>
        <time>2020-07-29T08:29:31Z</time>
      </trkpt>
      <trkpt lat="42.9416430" lon="0.8355080">
        <ele>875.5</ele>
        <time>2020-07-29T08:29:32Z</time>
      </trkpt>
      <trkpt lat="42.9416680" lon="0.8355290">
        <ele>875.8</ele>
        <time>2020-07-29T08:29:33Z</time>
      </trkpt>
      <trkpt lat="42.9417380" lon="0.8355660">
        <ele>876.6</ele>
        <time>2020-07-29T08:29:35Z</time>
      </trkpt>
      <trkpt lat="42.9417720" lon="0.8355780">
        <ele>877.0</ele>
        <time>2020-07-29T08:29:37Z</time>
      </trkpt>
      <trkpt lat="42.9418000" lon="0.8355700">
        <ele>877.3</ele>
        <time>2020-07-29T08:29:39Z</time>
      </trkpt>
      <trkpt lat="42.9418310" lon="0.8355620">
        <ele>877.7</ele>
        <time>2020-07-29T08:29:41Z</time>
      </trkpt>
      <trkpt lat="42.9418510" lon="0.8355650">
        <ele>877.9</ele>
        <time>2020-07-29T08:29:42Z</time>
      </trkpt>
      <trkpt lat="42.9418720" lon="0.8355640">
        <ele>878.1</ele>
        <time>2020-07-29T08:29:43Z</time>
      </trkpt>
      <trkpt lat="42.9419550" lon="0.8355740">
        <ele>879.0</ele>
        <time>2020-07-29T08:29:47Z</time>
      </trkpt>
      <trkpt lat="42.9419790" lon="0.8355850">
        <ele>879.3</ele>
        <time>2020-07-29T08:29:48Z</time>
      </trkpt>
      <trkpt lat="42.9420260" lon="0.8355950">
        <ele>879.8</ele>
        <time>2020-07-29T08:29:51Z</time>
      </trkpt>
      <trkpt lat="42.9421060" lon="0.8356490">
        <ele>880.8</ele>
        <time>2020-07-29T08:29:54Z</time>
      </trkpt>
      <trkpt lat="42.9421410" lon="0.8356690">
        <ele>881.2</ele>
        <time>2020-07-29T08:29:55Z</time>
      </trkpt>
      <trkpt lat="42.9421410" lon="0.8356690">
        <ele>881.2</ele>
        <time>2020-07-29T08:29:56Z</time>
      </trkpt>
      <trkpt lat="42.9421660" lon="0.8356720">
        <ele>881.4</ele>
        <time>2020-07-29T08:29:57Z</time>
      </trkpt>
      <trkpt lat="42.9422180" lon="0.8356770">
        <ele>882.0</ele>
        <time>2020-07-29T08:29:59Z</time>
      </trkpt>
      <trkpt lat="42.9422450" lon="0.8356760">
        <ele>882.3</ele>
        <time>2020-07-29T08:30:00Z</time>
      </trkpt>
      <trkpt lat="42.9423260" lon="0.8356810">
        <ele>883.2</ele>
        <time>2020-07-29T08:30:03Z</time>
      </trkpt>
      <trkpt lat="42.9423780" lon="0.8356920">
        <ele>883.7</ele>
        <time>2020-07-29T08:30:05Z</time>
      </trkpt>
      <trkpt lat="42.9424010" lon="0.8357000">
        <ele>884.0</ele>
        <time>2020-07-29T08:30:06Z</time>
      </trkpt>
      <trkpt lat="42.9424570" lon="0.8357070">
        <ele>884.6</ele>
        <time>2020-07-29T08:30:08Z</time>
      </trkpt>
      <trkpt lat="42.9424990" lon="0.8357110">
        <ele>885.1</ele>
        <time>2020-07-29T08:30:10Z</time>
      </trkpt>
      <trkpt lat="42.9425490" lon="0.8357190">
        <ele>885.6</ele>
        <time>2020-07-29T08:30:12Z</time>
      </trkpt>
      <trkpt lat="42.9425890" lon="0.8357400">
        <ele>886.1</ele>
        <time>2020-07-29T08:30:14Z</time>
      </trkpt>
      <trkpt lat="42.9426250" lon="0.8357610">
        <ele>886.5</ele>
        <time>2020-07-29T08:30:16Z</time>
      </trkpt>
      <trkpt lat="42.9426500" lon="0.8357720">
        <ele>886.8</ele>
        <time>2020-07-29T08:30:17Z</time>
      </trkpt>
      <trkpt lat="42.9426970" lon="0.8358110">
        <ele>887.4</ele>
        <time>2020-07-29T08:30:19Z</time>
      </trkpt>
      <trkpt lat="42.9427370" lon="0.8358340">
        <ele>887.8</ele>
        <time>2020-07-29T08:30:21Z</time>
      </trkpt>
      <trkpt lat="42.9427560" lon="0.8358760">
        <ele>888.2</ele>
        <time>2020-07-29T08:30:23Z</time>
      </trkpt>
      <trkpt lat="42.9427570" lon="0.8358990">
        <ele>888.4</ele>
        <time>2020-07-29T08:30:24Z</time>
      </trkpt>
      <trkpt lat="42.9427550" lon="0.8359510">
        <ele>888.8</ele>
        <time>2020-07-29T08:30:26Z</time>
      </trkpt>
      <trkpt lat="42.9427600" lon="0.8360180">
        <ele>889.4</ele>
        <time>2020-07-29T08:30:29Z</time>
      </trkpt>
      <trkpt lat="42.9427700" lon="0.8361370">
        <ele>890.3</ele>
        <time>2020-07-29T08:30:32Z</time>
      </trkpt>
      <trkpt lat="42.9427670" lon="0.8362270">
        <ele>891.0</ele>
        <time>2020-07-29T08:30:34Z</time>
      </trkpt>
      <trkpt lat="42.9427750" lon="0.8363840">
        <ele>892.3</ele>
        <time>2020-07-29T08:30:38Z</time>
      </trkpt>
      <trkpt lat="42.9427740" lon="0.8364260">
        <ele>892.6</ele>
        <time>2020-07-29T08:30:39Z</time>
      </trkpt>
      <trkpt lat="42.9427830" lon="0.8364920">
        <ele>893.1</ele>
        <time>2020-07-29T08:30:41Z</time>
      </trkpt>
      <trkpt lat="42.9428080" lon="0.8365140">
        <ele>893.5</ele>
        <time>2020-07-29T08:30:42Z</time>
      </trkpt>
      <trkpt lat="42.9428200" lon="0.8365460">
        <ele>893.7</ele>
        <time>2020-07-29T08:30:43Z</time>
      </trkpt>
      <trkpt lat="42.9428680" lon="0.8366040">
        <ele>894.4</ele>
        <time>2020-07-29T08:30:45Z</time>
      </trkpt>
      <trkpt lat="42.9428790" lon="0.8366410">
        <ele>894.8</ele>
        <time>2020-07-29T08:30:46Z</time>
      </trkpt>
      <trkpt lat="42.9428940" lon="0.8366730">
        <ele>895.1</ele>
        <time>2020-07-29T08:30:47Z</time>
      </trkpt>
      <trkpt lat="42.9428990" lon="0.8368090">
        <ele>896.1</ele>
        <time>2020-07-29T08:30:51Z</time>
      </trkpt>
      <trkpt lat="42.9428940" lon="0.8368460">
        <ele>896.4</ele>
        <time>2020-07-29T08:30:52Z</time>
      </trkpt>
      <trkpt lat="42.9428960" lon="0.8368820">
        <ele>896.7</ele>
        <time>2020-07-29T08:30:53Z</time>
      </trkpt>
      <trkpt lat="42.9428930" lon="0.8370040">
        <ele>897.7</ele>
        <time>2020-07-29T08:30:57Z</time>
      </trkpt>
      <trkpt lat="42.9428980" lon="0.8371370">
        <ele>898.7</ele>
        <time>2020-07-29T08:31:02Z</time>
      </trkpt>
      <trkpt lat="42.9429020" lon="0.8371650">
        <ele>899.0</ele>
        <time>2020-07-29T08:31:03Z</time>
      </trkpt>
      <trkpt lat="42.9429440" lon="0.8372720">
        <ele>899.9</ele>
        <time>2020-07-29T08:31:07Z</time>
      </trkpt>
      <trkpt lat="42.9429740" lon="0.8373260">
        <ele>900.5</ele>
        <time>2020-07-29T08:31:09Z</time>
      </trkpt>
      <trkpt lat="42.9430030" lon="0.8373980">
        <ele>901.1</ele>
        <time>2020-07-29T08:31:12Z</time>
      </trkpt>
      <trkpt lat="42.9430180" lon="0.8374410">
        <ele>901.5</ele>
        <time>2020-07-29T08:31:14Z</time>
      </trkpt>
      <trkpt lat="42.9430370" lon="0.8375230">
        <ele>902.2</ele>
        <time>2020-07-29T08:31:17Z</time>
      </trkpt>
      <trkpt lat="42.9430550" lon="0.8375740">
        <ele>902.6</ele>
        <time>2020-07-29T08:31:19Z</time>
      </trkpt>
      <trkpt lat="42.9430690" lon="0.8376250">
        <ele>903.0</ele>
        <time>2020-07-29T08:31:21Z</time>
      </trkpt>
      <trkpt lat="42.9431090" lon="0.8377400">
        <ele>904.1</ele>
        <time>2020-07-29T08:31:25Z</time>
      </trkpt>
      <trkpt lat="42.9431260" lon="0.8377650">
        <ele>904.3</ele>
        <time>2020-07-29T08:31:26Z</time>
      </trkpt>
      <trkpt lat="42.9431630" lon="0.8378710">
        <ele>905.3</ele>
        <time>2020-07-29T08:31:30Z</time>
      </trkpt>
      <trkpt lat="42.9431690" lon="0.8378970">
        <ele>905.5</ele>
        <time>2020-07-29T08:31:31Z</time>
      </trkpt>
      <trkpt lat="42.9431960" lon="0.8380190">
        <ele>906.5</ele>
        <time>2020-07-29T08:31:35Z</time>
      </trkpt>
      <trkpt lat="42.9432010" lon="0.8380480">
        <ele>906.7</ele>
        <time>2020-07-29T08:31:36Z</time>
      </trkpt>
      <trkpt lat="42.9432560" lon="0.8381920">
        <ele>908.0</ele>
        <time>2020-07-29T08:31:41Z</time>
      </trkpt>
      <trkpt lat="42.9432720" lon="0.8382190">
        <ele>908.3</ele>
        <time>2020-07-29T08:31:42Z</time>
      </trkpt>
      <trkpt lat="42.9432800" lon="0.8383010">
        <ele>908.9</ele>
        <time>2020-07-29T08:31:45Z</time>
      </trkpt>
      <trkpt lat="42.9432620" lon="0.8383560">
        <ele>909.4</ele>
        <time>2020-07-29T08:31:47Z</time>
      </trkpt>
      <trkpt lat="42.9432340" lon="0.8384080">
        <ele>909.9</ele>
        <time>2020-07-29T08:31:49Z</time>
      </trkpt>
      <trkpt lat="42.9431680" lon="0.8384620">
        <ele>910.7</ele>
        <time>2020-07-29T08:31:53Z</time>
      </trkpt>
      <trkpt lat="42.9431510" lon="0.8384720">
        <ele>910.9</ele>
        <time>2020-07-29T08:31:54Z</time>
      </trkpt>
      <trkpt lat="42.9430160" lon="0.8385650">
        <ele>912.6</ele>
        <time>2020-07-29T08:32:01Z</time>
      </trkpt>
      <trkpt lat="42.9429600" lon="0.8385940">
        <ele>913.2</ele>
        <time>2020-07-29T08:32:05Z</time>
      </trkpt>
      <trkpt lat="42.9429510" lon="0.8385960">
        <ele>913.3</ele>
        <time>2020-07-29T08:32:06Z</time>
      </trkpt>
      <trkpt lat="42.9429380" lon="0.8385940">
        <ele>913.5</ele>
        <time>2020-07-29T08:32:07Z</time>
      </trkpt>
      <trkpt lat="42.9428770" lon="0.8386300">
        <ele>914.2</ele>
        <time>2020-07-29T08:32:12Z</time>
      </trkpt>
      <trkpt lat="42.9428640" lon="0.8386390">
        <ele>914.3</ele>
        <time>2020-07-29T08:32:13Z</time>
      </trkpt>
      <trkpt lat="42.9428010" lon="0.8386790">
        <ele>915.1</ele>
        <time>2020-07-29T08:32:17Z</time>
      </trkpt>
      <trkpt lat="42.9427280" lon="0.8387380">
        <ele>916.0</ele>
        <time>2020-07-29T08:32:21Z</time>
      </trkpt>
      <trkpt lat="42.9427120" lon="0.8387570">
        <ele>916.2</ele>
        <time>2020-07-29T08:32:22Z</time>
      </trkpt>
      <trkpt lat="42.9425880" lon="0.8389610">
        <ele>918.3</ele>
        <time>2020-07-29T08:32:28Z</time>
      </trkpt>
      <trkpt lat="42.9425480" lon="0.8391230">
        <ele>919.7</ele>
        <time>2020-07-29T08:32:32Z</time>
      </trkpt>
      <trkpt lat="42.9425670" lon="0.8391670">
        <ele>920.1</ele>
        <time>2020-07-29T08:32:34Z</time>
      </trkpt>
      <trkpt lat="42.9426080" lon="0.8392170">
        <ele>920.7</ele>
        <time>2020-07-29T08:32:37Z</time>
      </trkpt>
      <trkpt lat="42.9426390" lon="0.8392550">
        <ele>921.1</ele>
        <time>2020-07-29T08:32:39Z</time>
      </trkpt>
      <trkpt lat="42.9426770" lon="0.8392940">
        <ele>921.7</ele>
        <time>2020-07-29T08:32:42Z</time>
      </trkpt>
      <trkpt lat="42.9427540" lon="0.8393600">
        <ele>922.6</ele>
        <time>2020-07-29T08:32:46Z</time>
      </trkpt>
      <trkpt lat="42.9427790" lon="0.8393740">
        <ele>922.9</ele>
        <time>2020-07-29T08:32:47Z</time>
      </trkpt>
      <trkpt lat="42.9427990" lon="0.8393920">
        <ele>923.2</ele>
        <time>2020-07-29T08:32:48Z</time>
      </trkpt>
      <trkpt lat="42.9428340" lon="0.8394130">
        <ele>923.6</ele>
        <time>2020-07-29T08:32:50Z</time>
      </trkpt>
      <trkpt lat="42.9428630" lon="0.8394390">
        <ele>924.0</ele>
        <time>2020-07-29T08:32:52Z</time>
      </trkpt>
      <trkpt lat="42.9429410" lon="0.8394980">
        <ele>924.9</ele>
        <time>2020-07-29T08:32:57Z</time>
      </trkpt>
      <trkpt lat="42.9429500" lon="0.8395160">
        <ele>925.1</ele>
        <time>2020-07-29T08:32:58Z</time>
      </trkpt>
      <trkpt lat="42.9429800" lon="0.8395490">
        <ele>925.5</ele>
        <time>2020-07-29T08:33:01Z</time>
      </trkpt>
      <trkpt lat="42.9429990" lon="0.8396130">
        <ele>926.1</ele>
        <time>2020-07-29T08:33:04Z</time>
      </trkpt>
      <trkpt lat="42.9430060" lon="0.8396750">
        <ele>926.6</ele>
        <time>2020-07-29T08:33:07Z</time>
      </trkpt>
      <trkpt lat="42.9430140" lon="0.8397190">
        <ele>926.9</ele>
        <time>2020-07-29T08:33:09Z</time>
      </trkpt>
      <trkpt lat="42.9430200" lon="0.8397380">
        <ele>927.1</ele>
        <time>2020-07-29T08:33:10Z</time>
      </trkpt>
      <trkpt lat="42.9430230" lon="0.8397580">
        <ele>927.3</ele>
        <time>2020-07-29T08:33:11Z</time>
      </trkpt>
      <trkpt lat="42.9430610" lon="0.8398430">
        <ele>928.0</ele>
        <time>2020-07-29T08:33:15Z</time>
      </trkpt>
      <trkpt lat="42.9430750" lon="0.8398770">
        <ele>928.4</ele>
        <time>2020-07-29T08:33:16Z</time>
      </trkpt>
      <trkpt lat="42.9430980" lon="0.8399690">
        <ele>929.1</ele>
        <time>2020-07-29T08:33:19Z</time>
      </trkpt>
      <trkpt lat="42.9431190" lon="0.8400540">
        <ele>929.8</ele>
        <time>2020-07-29T08:33:22Z</time>
      </trkpt>
      <trkpt lat="42.9431380" lon="0.8401130">
        <ele>930.3</ele>
        <time>2020-07-29T08:33:24Z</time>
      </trkpt>
      <trkpt lat="42.9431850" lon="0.8402300">
        <ele>931.4</ele>
        <time>2020-07-29T08:33:28Z</time>
      </trkpt>
      <trkpt lat="42.9432390" lon="0.8403640">
        <ele>932.6</ele>
        <time>2020-07-29T08:33:33Z</time>
      </trkpt>
      <trkpt lat="42.9432510" lon="0.8403890">
        <ele>932.8</ele>
        <time>2020-07-29T08:33:34Z</time>
      </trkpt>
      <trkpt lat="42.9433080" lon="0.8404840">
        <ele>933.8</ele>
        <time>2020-07-29T08:33:38Z</time>
      </trkpt>
      <trkpt lat="42.9433330" lon="0.8405190">
        <ele>934.2</ele>
        <time>2020-07-29T08:33:40Z</time>
      </trkpt>
      <trkpt lat="42.9433830" lon="0.8406230">
        <ele>935.2</ele>
        <time>2020-07-29T08:33:44Z</time>
      </trkpt>
      <trkpt lat="42.9433940" lon="0.8406490">
        <ele>935.4</ele>
        <time>2020-07-29T08:33:45Z</time>
      </trkpt>
      <trkpt lat="42.9434370" lon="0.8407850">
        <ele>936.6</ele>
        <time>2020-07-29T08:33:50Z</time>
      </trkpt>
      <trkpt lat="42.9434600" lon="0.8408080">
        <ele>936.9</ele>
        <time>2020-07-29T08:33:51Z</time>
      </trkpt>
      <trkpt lat="42.9434760" lon="0.8408260">
        <ele>937.1</ele>
        <time>2020-07-29T08:33:52Z</time>
      </trkpt>
      <trkpt lat="42.9435400" lon="0.8408900">
        <ele>938.0</ele>
        <time>2020-07-29T08:33:55Z</time>
      </trkpt>
      <trkpt lat="42.9435570" lon="0.8409080">
        <ele>938.2</ele>
        <time>2020-07-29T08:33:56Z</time>
      </trkpt>
      <trkpt lat="42.9435940" lon="0.8409450">
        <ele>938.7</ele>
        <time>2020-07-29T08:33:58Z</time>
      </trkpt>
      <trkpt lat="42.9436040" lon="0.8409650">
        <ele>938.9</ele>
        <time>2020-07-29T08:33:59Z</time>
      </trkpt>
      <trkpt lat="42.9436150" lon="0.8409870">
        <ele>939.1</ele>
        <time>2020-07-29T08:34:00Z</time>
      </trkpt>
      <trkpt lat="42.9436500" lon="0.8410410">
        <ele>939.7</ele>
        <time>2020-07-29T08:34:02Z</time>
      </trkpt>
      <trkpt lat="42.9436690" lon="0.8410890">
        <ele>940.1</ele>
        <time>2020-07-29T08:34:04Z</time>
      </trkpt>
      <trkpt lat="42.9437220" lon="0.8411800">
        <ele>941.0</ele>
        <time>2020-07-29T08:34:09Z</time>
      </trkpt>
      <trkpt lat="42.9437370" lon="0.8411950">
        <ele>941.2</ele>
        <time>2020-07-29T08:34:10Z</time>
      </trkpt>
      <trkpt lat="42.9438310" lon="0.8413590">
        <ele>942.9</ele>
        <time>2020-07-29T08:34:16Z</time>
      </trkpt>
      <trkpt lat="42.9438590" lon="0.8414960">
        <ele>944.0</ele>
        <time>2020-07-29T08:34:21Z</time>
      </trkpt>
      <trkpt lat="42.9438710" lon="0.8416000">
        <ele>944.9</ele>
        <time>2020-07-29T08:34:25Z</time>
      </trkpt>
      <trkpt lat="42.9438830" lon="0.8416350">
        <ele>945.2</ele>
        <time>2020-07-29T08:34:26Z</time>
      </trkpt>
      <trkpt lat="42.9439020" lon="0.8417300">
        <ele>945.9</ele>
        <time>2020-07-29T08:34:29Z</time>
      </trkpt>
      <trkpt lat="42.9439280" lon="0.8417960">
        <ele>946.5</ele>
        <time>2020-07-29T08:34:31Z</time>
      </trkpt>
      <trkpt lat="42.9439420" lon="0.8418160">
        <ele>946.8</ele>
        <time>2020-07-29T08:34:32Z</time>
      </trkpt>
      <trkpt lat="42.9439580" lon="0.8418410">
        <ele>947.0</ele>
        <time>2020-07-29T08:34:33Z</time>
      </trkpt>
      <trkpt lat="42.9439720" lon="0.8419010">
        <ele>947.5</ele>
        <time>2020-07-29T08:34:35Z</time>
      </trkpt>
      <trkpt lat="42.9440110" lon="0.8420180">
        <ele>948.5</ele>
        <time>2020-07-29T08:34:39Z</time>
      </trkpt>
      <trkpt lat="42.9440240" lon="0.8420670">
        <ele>948.9</ele>
        <time>2020-07-29T08:34:41Z</time>
      </trkpt>
      <trkpt lat="42.9440230" lon="0.8421350">
        <ele>949.5</ele>
        <time>2020-07-29T08:34:44Z</time>
      </trkpt>
      <trkpt lat="42.9440060" lon="0.8421750">
        <ele>949.8</ele>
        <time>2020-07-29T08:34:46Z</time>
      </trkpt>
      <trkpt lat="42.9439840" lon="0.8422150">
        <ele>950.2</ele>
        <time>2020-07-29T08:34:47Z</time>
      </trkpt>
      <trkpt lat="42.9439660" lon="0.8422420">
        <ele>950.5</ele>
        <time>2020-07-29T08:34:49Z</time>
      </trkpt>
      <trkpt lat="42.9439260" lon="0.8423650">
        <ele>951.6</ele>
        <time>2020-07-29T08:34:53Z</time>
      </trkpt>
      <trkpt lat="42.9439210" lon="0.8423960">
        <ele>951.8</ele>
        <time>2020-07-29T08:34:54Z</time>
      </trkpt>
      <trkpt lat="42.9439230" lon="0.8425800">
        <ele>953.3</ele>
        <time>2020-07-29T08:34:59Z</time>
      </trkpt>
      <trkpt lat="42.9439300" lon="0.8426070">
        <ele>953.5</ele>
        <time>2020-07-29T08:35:00Z</time>
      </trkpt>
      <trkpt lat="42.9439820" lon="0.8427030">
        <ele>954.5</ele>
        <time>2020-07-29T08:35:04Z</time>
      </trkpt>
      <trkpt lat="42.9440420" lon="0.8427830">
        <ele>955.4</ele>
        <time>2020-07-29T08:35:08Z</time>
      </trkpt>
      <trkpt lat="42.9440600" lon="0.8427980">
        <ele>955.6</ele>
        <time>2020-07-29T08:35:09Z</time>
      </trkpt>
      <trkpt lat="42.9441570" lon="0.8428770">
        <ele>956.8</ele>
        <time>2020-07-29T08:35:14Z</time>
      </trkpt>
      <trkpt lat="42.9441800" lon="0.8428910">
        <ele>957.1</ele>
        <time>2020-07-29T08:35:15Z</time>
      </trkpt>
      <trkpt lat="42.9442640" lon="0.8429790">
        <ele>958.2</ele>
        <time>2020-07-29T08:35:20Z</time>
      </trkpt>
      <trkpt lat="42.9442760" lon="0.8430030">
        <ele>958.5</ele>
        <time>2020-07-29T08:35:21Z</time>
      </trkpt>
      <trkpt lat="42.9442970" lon="0.8430470">
        <ele>958.9</ele>
        <time>2020-07-29T08:35:23Z</time>
      </trkpt>
      <trkpt lat="42.9443380" lon="0.8431340">
        <ele>959.7</ele>
        <time>2020-07-29T08:35:27Z</time>
      </trkpt>
      <trkpt lat="42.9443500" lon="0.8431530">
        <ele>959.9</ele>
        <time>2020-07-29T08:35:28Z</time>
      </trkpt>
      <trkpt lat="42.9444050" lon="0.8432270">
        <ele>960.7</ele>
        <time>2020-07-29T08:35:32Z</time>
      </trkpt>
      <trkpt lat="42.9444390" lon="0.8432840">
        <ele>961.3</ele>
        <time>2020-07-29T08:35:35Z</time>
      </trkpt>
      <trkpt lat="42.9444520" lon="0.8433160">
        <ele>961.6</ele>
        <time>2020-07-29T08:35:37Z</time>
      </trkpt>
      <trkpt lat="42.9444590" lon="0.8433320">
        <ele>961.8</ele>
        <time>2020-07-29T08:35:38Z</time>
      </trkpt>
      <trkpt lat="42.9444670" lon="0.8434050">
        <ele>962.4</ele>
        <time>2020-07-29T08:35:41Z</time>
      </trkpt>
      <trkpt lat="42.9444710" lon="0.8434720">
        <ele>963.3</ele>
        <time>2020-07-29T08:35:44Z</time>
      </trkpt>
      <trkpt lat="42.9444600" lon="0.8436060">
        <ele>964.3</ele>
        <time>2020-07-29T08:35:48Z</time>
      </trkpt>
      <trkpt lat="42.9444600" lon="0.8436060">
        <ele>964.3</ele>
        <time>2020-07-29T08:35:49Z</time>
      </trkpt>
      <trkpt lat="42.9444650" lon="0.8436380">
        <ele>964.6</ele>
        <time>2020-07-29T08:35:50Z</time>
      </trkpt>
      <trkpt lat="42.9444760" lon="0.8436660">
        <ele>964.8</ele>
        <time>2020-07-29T08:35:51Z</time>
      </trkpt>
      <trkpt lat="42.9444900" lon="0.8436940">
        <ele>965.1</ele>
        <time>2020-07-29T08:35:52Z</time>
      </trkpt>
      <trkpt lat="42.9445210" lon="0.8437690">
        <ele>965.7</ele>
        <time>2020-07-29T08:35:55Z</time>
      </trkpt>
      <trkpt lat="42.9445340" lon="0.8437950">
        <ele>966.0</ele>
        <time>2020-07-29T08:35:56Z</time>
      </trkpt>
      <trkpt lat="42.9445510" lon="0.8438300">
        <ele>966.3</ele>
        <time>2020-07-29T08:35:57Z</time>
      </trkpt>
      <trkpt lat="42.9445710" lon="0.8439260">
        <ele>967.0</ele>
        <time>2020-07-29T08:36:00Z</time>
      </trkpt>
      <trkpt lat="42.9445780" lon="0.8439860">
        <ele>967.5</ele>
        <time>2020-07-29T08:36:02Z</time>
      </trkpt>
      <trkpt lat="42.9446120" lon="0.8440480">
        <ele>968.1</ele>
        <time>2020-07-29T08:36:05Z</time>
      </trkpt>
      <trkpt lat="42.9446290" lon="0.8440800">
        <ele>968.4</ele>
        <time>2020-07-29T08:36:06Z</time>
      </trkpt>
      <trkpt lat="42.9446840" lon="0.8442180">
        <ele>969.6</ele>
        <time>2020-07-29T08:36:10Z</time>
      </trkpt>
      <trkpt lat="42.9446990" lon="0.8442550">
        <ele>969.9</ele>
        <time>2020-07-29T08:36:11Z</time>
      </trkpt>
      <trkpt lat="42.9447190" lon="0.8443200">
        <ele>970.4</ele>
        <time>2020-07-29T08:36:13Z</time>
      </trkpt>
      <trkpt lat="42.9447230" lon="0.8443430">
        <ele>970.6</ele>
        <time>2020-07-29T08:36:14Z</time>
      </trkpt>
      <trkpt lat="42.9447230" lon="0.8443970">
        <ele>971.0</ele>
        <time>2020-07-29T08:36:16Z</time>
      </trkpt>
      <trkpt lat="42.9447660" lon="0.8444530">
        <ele>971.6</ele>
        <time>2020-07-29T08:36:18Z</time>
      </trkpt>
      <trkpt lat="42.9447950" lon="0.8444840">
        <ele>972.0</ele>
        <time>2020-07-29T08:36:19Z</time>
      </trkpt>
      <trkpt lat="42.9448530" lon="0.8445820">
        <ele>973.0</ele>
        <time>2020-07-29T08:36:22Z</time>
      </trkpt>
      <trkpt lat="42.9448820" lon="0.8446630">
        <ele>973.6</ele>
        <time>2020-07-29T08:36:25Z</time>
      </trkpt>
      <trkpt lat="42.9449050" lon="0.8447090">
        <ele>974.1</ele>
        <time>2020-07-29T08:36:27Z</time>
      </trkpt>
      <trkpt lat="42.9449310" lon="0.8447750">
        <ele>974.6</ele>
        <time>2020-07-29T08:36:29Z</time>
      </trkpt>
      <trkpt lat="42.9449550" lon="0.8448300">
        <ele>975.1</ele>
        <time>2020-07-29T08:36:31Z</time>
      </trkpt>
      <trkpt lat="42.9449490" lon="0.8448920">
        <ele>975.6</ele>
        <time>2020-07-29T08:36:33Z</time>
      </trkpt>
      <trkpt lat="42.9449470" lon="0.8449380">
        <ele>975.9</ele>
        <time>2020-07-29T08:36:34Z</time>
      </trkpt>
      <trkpt lat="42.9449330" lon="0.8450640">
        <ele>976.9</ele>
        <time>2020-07-29T08:36:37Z</time>
      </trkpt>
      <trkpt lat="42.9449250" lon="0.8451430">
        <ele>977.5</ele>
        <time>2020-07-29T08:36:40Z</time>
      </trkpt>
      <trkpt lat="42.9449140" lon="0.8451710">
        <ele>977.7</ele>
        <time>2020-07-29T08:36:41Z</time>
      </trkpt>
      <trkpt lat="42.9448990" lon="0.8452320">
        <ele>978.2</ele>
        <time>2020-07-29T08:36:43Z</time>
      </trkpt>
      <trkpt lat="42.9448780" lon="0.8453230">
        <ele>978.9</ele>
        <time>2020-07-29T08:36:46Z</time>
      </trkpt>
      <trkpt lat="42.9448510" lon="0.8454100">
        <ele>979.7</ele>
        <time>2020-07-29T08:36:50Z</time>
      </trkpt>
      <trkpt lat="42.9448540" lon="0.8454360">
        <ele>979.9</ele>
        <time>2020-07-29T08:36:51Z</time>
      </trkpt>
      <trkpt lat="42.9448430" lon="0.8455420">
        <ele>980.7</ele>
        <time>2020-07-29T08:36:55Z</time>
      </trkpt>
      <trkpt lat="42.9448170" lon="0.8456020">
        <ele>981.2</ele>
        <time>2020-07-29T08:36:57Z</time>
      </trkpt>
      <trkpt lat="42.9448060" lon="0.8456370">
        <ele>981.5</ele>
        <time>2020-07-29T08:36:58Z</time>
      </trkpt>
      <trkpt lat="42.9447930" lon="0.8456990">
        <ele>982.0</ele>
        <time>2020-07-29T08:37:00Z</time>
      </trkpt>
      <trkpt lat="42.9447720" lon="0.8457550">
        <ele>982.4</ele>
        <time>2020-07-29T08:37:02Z</time>
      </trkpt>
      <trkpt lat="42.9447440" lon="0.8458330">
        <ele>983.1</ele>
        <time>2020-07-29T08:37:05Z</time>
      </trkpt>
      <trkpt lat="42.9447130" lon="0.8459080">
        <ele>983.7</ele>
        <time>2020-07-29T08:37:08Z</time>
      </trkpt>
      <trkpt lat="42.9447030" lon="0.8459560">
        <ele>984.1</ele>
        <time>2020-07-29T08:37:10Z</time>
      </trkpt>
      <trkpt lat="42.9446750" lon="0.8460300">
        <ele>984.8</ele>
        <time>2020-07-29T08:37:13Z</time>
      </trkpt>
      <trkpt lat="42.9446580" lon="0.8460880">
        <ele>985.2</ele>
        <time>2020-07-29T08:37:15Z</time>
      </trkpt>
      <trkpt lat="42.9446160" lon="0.8461860">
        <ele>986.1</ele>
        <time>2020-07-29T08:37:18Z</time>
      </trkpt>
      <trkpt lat="42.9446030" lon="0.8462170">
        <ele>986.4</ele>
        <time>2020-07-29T08:37:19Z</time>
      </trkpt>
      <trkpt lat="42.9445710" lon="0.8463660">
        <ele>987.5</ele>
        <time>2020-07-29T08:37:24Z</time>
      </trkpt>
      <trkpt lat="42.9445670" lon="0.8463970">
        <ele>987.8</ele>
        <time>2020-07-29T08:37:25Z</time>
      </trkpt>
      <trkpt lat="42.9445480" lon="0.8465260">
        <ele>988.8</ele>
        <time>2020-07-29T08:37:29Z</time>
      </trkpt>
      <trkpt lat="42.9445490" lon="0.8466190">
        <ele>989.5</ele>
        <time>2020-07-29T08:37:32Z</time>
      </trkpt>
      <trkpt lat="42.9445480" lon="0.8466540">
        <ele>989.7</ele>
        <time>2020-07-29T08:37:33Z</time>
      </trkpt>
      <trkpt lat="42.9445420" lon="0.8468270">
        <ele>991.0</ele>
        <time>2020-07-29T08:37:38Z</time>
      </trkpt>
      <trkpt lat="42.9445500" lon="0.8468880">
        <ele>991.5</ele>
        <time>2020-07-29T08:37:40Z</time>
      </trkpt>
      <trkpt lat="42.9445570" lon="0.8469570">
        <ele>992.0</ele>
        <time>2020-07-29T08:37:42Z</time>
      </trkpt>
      <trkpt lat="42.9445770" lon="0.8470720">
        <ele>992.9</ele>
        <time>2020-07-29T08:37:46Z</time>
      </trkpt>
      <trkpt lat="42.9445860" lon="0.8472170">
        <ele>994.0</ele>
        <time>2020-07-29T08:37:51Z</time>
      </trkpt>
      <trkpt lat="42.9445890" lon="0.8472680">
        <ele>994.4</ele>
        <time>2020-07-29T08:37:53Z</time>
      </trkpt>
      <trkpt lat="42.9445930" lon="0.8473500">
        <ele>995.0</ele>
        <time>2020-07-29T08:37:56Z</time>
      </trkpt>
      <trkpt lat="42.9446010" lon="0.8474060">
        <ele>995.5</ele>
        <time>2020-07-29T08:37:58Z</time>
      </trkpt>
      <trkpt lat="42.9446020" lon="0.8474920">
        <ele>996.1</ele>
        <time>2020-07-29T08:38:01Z</time>
      </trkpt>
      <trkpt lat="42.9445990" lon="0.8476080">
        <ele>997.0</ele>
        <time>2020-07-29T08:38:05Z</time>
      </trkpt>
      <trkpt lat="42.9445990" lon="0.8476340">
        <ele>997.2</ele>
        <time>2020-07-29T08:38:06Z</time>
      </trkpt>
      <trkpt lat="42.9446000" lon="0.8477470">
        <ele>998.0</ele>
        <time>2020-07-29T08:38:10Z</time>
      </trkpt>
      <trkpt lat="42.9446010" lon="0.8477740">
        <ele>998.2</ele>
        <time>2020-07-29T08:38:11Z</time>
      </trkpt>
      <trkpt lat="42.9445930" lon="0.8478660">
        <ele>998.9</ele>
        <time>2020-07-29T08:38:14Z</time>
      </trkpt>
      <trkpt lat="42.9445780" lon="0.8479970">
        <ele>999.9</ele>
        <time>2020-07-29T08:38:18Z</time>
      </trkpt>
      <trkpt lat="42.9445750" lon="0.8480300">
        <ele>1000.2</ele>
        <time>2020-07-29T08:38:19Z</time>
      </trkpt>
      <trkpt lat="42.9445510" lon="0.8481910">
        <ele>1001.4</ele>
        <time>2020-07-29T08:38:24Z</time>
      </trkpt>
      <trkpt lat="42.9445420" lon="0.8482620">
        <ele>1002.0</ele>
        <time>2020-07-29T08:38:26Z</time>
      </trkpt>
      <trkpt lat="42.9445360" lon="0.8483690">
        <ele>1002.8</ele>
        <time>2020-07-29T08:38:29Z</time>
      </trkpt>
      <trkpt lat="42.9445370" lon="0.8484510">
        <ele>1003.4</ele>
        <time>2020-07-29T08:38:32Z</time>
      </trkpt>
      <trkpt lat="42.9445390" lon="0.8485380">
        <ele>1004.1</ele>
        <time>2020-07-29T08:38:35Z</time>
      </trkpt>
      <trkpt lat="42.9445320" lon="0.8486420">
        <ele>1004.9</ele>
        <time>2020-07-29T08:38:38Z</time>
      </trkpt>
      <trkpt lat="42.9445260" lon="0.8488030">
        <ele>1006.1</ele>
        <time>2020-07-29T08:38:43Z</time>
      </trkpt>
      <trkpt lat="42.9445300" lon="0.8488560">
        <ele>1006.5</ele>
        <time>2020-07-29T08:38:45Z</time>
      </trkpt>
      <trkpt lat="42.9445260" lon="0.8489110">
        <ele>1006.9</ele>
        <time>2020-07-29T08:38:47Z</time>
      </trkpt>
      <trkpt lat="42.9445150" lon="0.8490250">
        <ele>1007.8</ele>
        <time>2020-07-29T08:38:51Z</time>
      </trkpt>
      <trkpt lat="42.9445080" lon="0.8490870">
        <ele>1008.2</ele>
        <time>2020-07-29T08:38:53Z</time>
      </trkpt>
      <trkpt lat="42.9444990" lon="0.8491730">
        <ele>1008.9</ele>
        <time>2020-07-29T08:38:56Z</time>
      </trkpt>
      <trkpt lat="42.9444740" lon="0.8493200">
        <ele>1010.0</ele>
        <time>2020-07-29T08:39:01Z</time>
      </trkpt>
      <trkpt lat="42.9444440" lon="0.8494270">
        <ele>1010.9</ele>
        <time>2020-07-29T08:39:05Z</time>
      </trkpt>
      <trkpt lat="42.9444220" lon="0.8494910">
        <ele>1011.4</ele>
        <time>2020-07-29T08:39:07Z</time>
      </trkpt>
      <trkpt lat="42.9443840" lon="0.8495910">
        <ele>1012.3</ele>
        <time>2020-07-29T08:39:10Z</time>
      </trkpt>
      <trkpt lat="42.9443580" lon="0.8496520">
        <ele>1012.8</ele>
        <time>2020-07-29T08:39:12Z</time>
      </trkpt>
      <trkpt lat="42.9443230" lon="0.8497080">
        <ele>1013.4</ele>
        <time>2020-07-29T08:39:14Z</time>
      </trkpt>
      <trkpt lat="42.9442340" lon="0.8498090">
        <ele>1014.6</ele>
        <time>2020-07-29T08:39:19Z</time>
      </trkpt>
      <trkpt lat="42.9442190" lon="0.8498250">
        <ele>1014.8</ele>
        <time>2020-07-29T08:39:20Z</time>
      </trkpt>
      <trkpt lat="42.9441490" lon="0.8498790">
        <ele>1015.6</ele>
        <time>2020-07-29T08:39:24Z</time>
      </trkpt>
      <trkpt lat="42.9441090" lon="0.8499050">
        <ele>1016.1</ele>
        <time>2020-07-29T08:39:26Z</time>
      </trkpt>
      <trkpt lat="42.9440670" lon="0.8499320">
        <ele>1016.5</ele>
        <time>2020-07-29T08:39:28Z</time>
      </trkpt>
      <trkpt lat="42.9439600" lon="0.8499840">
        <ele>1017.7</ele>
        <time>2020-07-29T08:39:33Z</time>
      </trkpt>
      <trkpt lat="42.9439230" lon="0.8499850">
        <ele>1018.1</ele>
        <time>2020-07-29T08:39:35Z</time>
      </trkpt>
      <trkpt lat="42.9438620" lon="0.8499590">
        <ele>1018.7</ele>
        <time>2020-07-29T08:39:39Z</time>
      </trkpt>
      <trkpt lat="42.9438390" lon="0.8499550">
        <ele>1019.0</ele>
        <time>2020-07-29T08:39:40Z</time>
      </trkpt>
      <trkpt lat="42.9438280" lon="0.8499410">
        <ele>1019.1</ele>
        <time>2020-07-29T08:39:41Z</time>
      </trkpt>
      <trkpt lat="42.9438100" lon="0.8499330">
        <ele>1019.3</ele>
        <time>2020-07-29T08:39:42Z</time>
      </trkpt>
      <trkpt lat="42.9437620" lon="0.8499250">
        <ele>1019.8</ele>
        <time>2020-07-29T08:39:44Z</time>
      </trkpt>
      <trkpt lat="42.9437140" lon="0.8499270">
        <ele>1020.3</ele>
        <time>2020-07-29T08:39:46Z</time>
      </trkpt>
      <trkpt lat="42.9436910" lon="0.8499290">
        <ele>1020.6</ele>
        <time>2020-07-29T08:39:47Z</time>
      </trkpt>
      <trkpt lat="42.9435810" lon="0.8499140">
        <ele>1021.7</ele>
        <time>2020-07-29T08:39:52Z</time>
      </trkpt>
      <trkpt lat="42.9434310" lon="0.8499120">
        <ele>1023.3</ele>
        <time>2020-07-29T08:39:58Z</time>
      </trkpt>
      <trkpt lat="42.9433200" lon="0.8499070">
        <ele>1024.4</ele>
        <time>2020-07-29T08:40:02Z</time>
      </trkpt>
      <trkpt lat="42.9432690" lon="0.8499030">
        <ele>1024.9</ele>
        <time>2020-07-29T08:40:04Z</time>
      </trkpt>
      <trkpt lat="42.9431300" lon="0.8498850">
        <ele>1026.4</ele>
        <time>2020-07-29T08:40:10Z</time>
      </trkpt>
      <trkpt lat="42.9431070" lon="0.8498860">
        <ele>1026.6</ele>
        <time>2020-07-29T08:40:11Z</time>
      </trkpt>
      <trkpt lat="42.9430370" lon="0.8498820">
        <ele>1027.3</ele>
        <time>2020-07-29T08:40:14Z</time>
      </trkpt>
      <trkpt lat="42.9429420" lon="0.8498660">
        <ele>1028.3</ele>
        <time>2020-07-29T08:40:18Z</time>
      </trkpt>
      <trkpt lat="42.9428360" lon="0.8498510">
        <ele>1029.4</ele>
        <time>2020-07-29T08:40:23Z</time>
      </trkpt>
      <trkpt lat="42.9427710" lon="0.8498520">
        <ele>1030.1</ele>
        <time>2020-07-29T08:40:26Z</time>
      </trkpt>
      <trkpt lat="42.9427510" lon="0.8498500">
        <ele>1030.3</ele>
        <time>2020-07-29T08:40:27Z</time>
      </trkpt>
      <trkpt lat="42.9426610" lon="0.8498920">
        <ele>1031.3</ele>
        <time>2020-07-29T08:40:31Z</time>
      </trkpt>
      <trkpt lat="42.9426260" lon="0.8499530">
        <ele>1031.9</ele>
        <time>2020-07-29T08:40:33Z</time>
      </trkpt>
      <trkpt lat="42.9426020" lon="0.8500710">
        <ele>1032.8</ele>
        <time>2020-07-29T08:40:36Z</time>
      </trkpt>
      <trkpt lat="42.9425930" lon="0.8501800">
        <ele>1033.6</ele>
        <time>2020-07-29T08:40:39Z</time>
      </trkpt>
      <trkpt lat="42.9425970" lon="0.8502460">
        <ele>1034.1</ele>
        <time>2020-07-29T08:40:41Z</time>
      </trkpt>
      <trkpt lat="42.9426350" lon="0.8503730">
        <ele>1035.2</ele>
        <time>2020-07-29T08:40:45Z</time>
      </trkpt>
      <trkpt lat="42.9426890" lon="0.8505140">
        <ele>1036.4</ele>
        <time>2020-07-29T08:40:50Z</time>
      </trkpt>
      <trkpt lat="42.9427270" lon="0.8505990">
        <ele>1037.1</ele>
        <time>2020-07-29T08:40:53Z</time>
      </trkpt>
      <trkpt lat="42.9427520" lon="0.8506550">
        <ele>1037.6</ele>
        <time>2020-07-29T08:40:55Z</time>
      </trkpt>
      <trkpt lat="42.9428200" lon="0.8508090">
        <ele>1039.0</ele>
        <time>2020-07-29T08:41:00Z</time>
      </trkpt>
      <trkpt lat="42.9428450" lon="0.8508700">
        <ele>1039.5</ele>
        <time>2020-07-29T08:41:02Z</time>
      </trkpt>
      <trkpt lat="42.9428880" lon="0.8509590">
        <ele>1040.3</ele>
        <time>2020-07-29T08:41:05Z</time>
      </trkpt>
      <trkpt lat="42.9429250" lon="0.8510470">
        <ele>1041.1</ele>
        <time>2020-07-29T08:41:08Z</time>
      </trkpt>
      <trkpt lat="42.9429600" lon="0.8511310">
        <ele>1041.8</ele>
        <time>2020-07-29T08:41:11Z</time>
      </trkpt>
      <trkpt lat="42.9429880" lon="0.8511790">
        <ele>1042.3</ele>
        <time>2020-07-29T08:41:13Z</time>
      </trkpt>
      <trkpt lat="42.9430490" lon="0.8513100">
        <ele>1043.4</ele>
        <time>2020-07-29T08:41:18Z</time>
      </trkpt>
      <trkpt lat="42.9431330" lon="0.8514770">
        <ele>1045.0</ele>
        <time>2020-07-29T08:41:24Z</time>
      </trkpt>
      <trkpt lat="42.9431460" lon="0.8515050">
        <ele>1045.2</ele>
        <time>2020-07-29T08:41:25Z</time>
      </trkpt>
      <trkpt lat="42.9431970" lon="0.8516200">
        <ele>1046.2</ele>
        <time>2020-07-29T08:41:29Z</time>
      </trkpt>
      <trkpt lat="42.9432540" lon="0.8517240">
        <ele>1047.2</ele>
        <time>2020-07-29T08:41:33Z</time>
      </trkpt>
      <trkpt lat="42.9432680" lon="0.8517490">
        <ele>1047.4</ele>
        <time>2020-07-29T08:41:34Z</time>
      </trkpt>
      <trkpt lat="42.9433120" lon="0.8518250">
        <ele>1048.2</ele>
        <time>2020-07-29T08:41:37Z</time>
      </trkpt>
      <trkpt lat="42.9433560" lon="0.8519000">
        <ele>1048.9</ele>
        <time>2020-07-29T08:41:40Z</time>
      </trkpt>
      <trkpt lat="42.9433730" lon="0.8519220">
        <ele>1049.1</ele>
        <time>2020-07-29T08:41:41Z</time>
      </trkpt>
      <trkpt lat="42.9434140" lon="0.8519890">
        <ele>1049.8</ele>
        <time>2020-07-29T08:41:44Z</time>
      </trkpt>
      <trkpt lat="42.9434610" lon="0.8520510">
        <ele>1050.5</ele>
        <time>2020-07-29T08:41:47Z</time>
      </trkpt>
      <trkpt lat="42.9434870" lon="0.8520950">
        <ele>1050.9</ele>
        <time>2020-07-29T08:41:49Z</time>
      </trkpt>
      <trkpt lat="42.9435520" lon="0.8521570">
        <ele>1051.7</ele>
        <time>2020-07-29T08:41:53Z</time>
      </trkpt>
      <trkpt lat="42.9435690" lon="0.8521660">
        <ele>1051.9</ele>
        <time>2020-07-29T08:41:54Z</time>
      </trkpt>
      <trkpt lat="42.9436560" lon="0.8522200">
        <ele>1052.9</ele>
        <time>2020-07-29T08:41:59Z</time>
      </trkpt>
      <trkpt lat="42.9436710" lon="0.8522300">
        <ele>1053.1</ele>
        <time>2020-07-29T08:42:00Z</time>
      </trkpt>
      <trkpt lat="42.9437480" lon="0.8522820">
        <ele>1054.0</ele>
        <time>2020-07-29T08:42:04Z</time>
      </trkpt>
      <trkpt lat="42.9438110" lon="0.8523340">
        <ele>1054.7</ele>
        <time>2020-07-29T08:42:07Z</time>
      </trkpt>
      <trkpt lat="42.9438250" lon="0.8523540">
        <ele>1054.9</ele>
        <time>2020-07-29T08:42:08Z</time>
      </trkpt>
      <trkpt lat="42.9438890" lon="0.8524420">
        <ele>1056.2</ele>
        <time>2020-07-29T08:42:12Z</time>
      </trkpt>
      <trkpt lat="42.9439090" lon="0.8524850">
        <ele>1056.6</ele>
        <time>2020-07-29T08:42:14Z</time>
      </trkpt>
      <trkpt lat="42.9439460" lon="0.8525530">
        <ele>1057.4</ele>
        <time>2020-07-29T08:42:17Z</time>
      </trkpt>
      <trkpt lat="42.9439660" lon="0.8525720">
        <ele>1057.6</ele>
        <time>2020-07-29T08:42:18Z</time>
      </trkpt>
      <trkpt lat="42.9440220" lon="0.8526470">
        <ele>1058.5</ele>
        <time>2020-07-29T08:42:21Z</time>
      </trkpt>
      <trkpt lat="42.9440630" lon="0.8526930">
        <ele>1059.0</ele>
        <time>2020-07-29T08:42:23Z</time>
      </trkpt>
      <trkpt lat="42.9441130" lon="0.8527630">
        <ele>1059.8</ele>
        <time>2020-07-29T08:42:26Z</time>
      </trkpt>
      <trkpt lat="42.9441850" lon="0.8528940">
        <ele>1061.0</ele>
        <time>2020-07-29T08:42:31Z</time>
      </trkpt>
      <trkpt lat="42.9442220" lon="0.8529430">
        <ele>1061.6</ele>
        <time>2020-07-29T08:42:33Z</time>
      </trkpt>
      <trkpt lat="42.9443170" lon="0.8530710">
        <ele>1063.0</ele>
        <time>2020-07-29T08:42:38Z</time>
      </trkpt>
      <trkpt lat="42.9443340" lon="0.8530970">
        <ele>1063.3</ele>
        <time>2020-07-29T08:42:39Z</time>
      </trkpt>
      <trkpt lat="42.9444030" lon="0.8531900">
        <ele>1064.4</ele>
        <time>2020-07-29T08:42:43Z</time>
      </trkpt>
      <trkpt lat="42.9444730" lon="0.8532860">
        <ele>1065.6</ele>
        <time>2020-07-29T08:42:47Z</time>
      </trkpt>
      <trkpt lat="42.9445360" lon="0.8533810">
        <ele>1066.7</ele>
        <time>2020-07-29T08:42:51Z</time>
      </trkpt>
      <trkpt lat="42.9445840" lon="0.8534420">
        <ele>1067.4</ele>
        <time>2020-07-29T08:42:54Z</time>
      </trkpt>
      <trkpt lat="42.9445990" lon="0.8534650">
        <ele>1067.7</ele>
        <time>2020-07-29T08:42:55Z</time>
      </trkpt>
      <trkpt lat="42.9446890" lon="0.8536170">
        <ele>1069.2</ele>
        <time>2020-07-29T08:43:01Z</time>
      </trkpt>
      <trkpt lat="42.9447190" lon="0.8536730">
        <ele>1069.7</ele>
        <time>2020-07-29T08:43:03Z</time>
      </trkpt>
      <trkpt lat="42.9447340" lon="0.8537020">
        <ele>1070.0</ele>
        <time>2020-07-29T08:43:04Z</time>
      </trkpt>
      <trkpt lat="42.9447650" lon="0.8537750">
        <ele>1070.5</ele>
        <time>2020-07-29T08:43:07Z</time>
      </trkpt>
      <trkpt lat="42.9448390" lon="0.8539150">
        <ele>1071.0</ele>
        <time>2020-07-29T08:46:18Z</time>
      </trkpt>
      <trkpt lat="42.9448490" lon="0.8539430">
        <ele>1071.0</ele>
        <time>2020-07-29T08:46:22Z</time>
      </trkpt>
      <trkpt lat="42.9448670" lon="0.8539910">
        <ele>1071.0</ele>
        <time>2020-07-29T08:46:24Z</time>
      </trkpt>
      <trkpt lat="42.9448970" lon="0.8540660">
        <ele>1070.9</ele>
        <time>2020-07-29T08:46:26Z</time>
      </trkpt>
      <trkpt lat="42.9449190" lon="0.8541120">
        <ele>1070.8</ele>
        <time>2020-07-29T08:46:27Z</time>
      </trkpt>
      <trkpt lat="42.9449490" lon="0.8541640">
        <ele>1070.4</ele>
        <time>2020-07-29T08:46:28Z</time>
      </trkpt>
      <trkpt lat="42.9451320" lon="0.8544020">
        <ele>1068.2</ele>
        <time>2020-07-29T08:46:32Z</time>
      </trkpt>
      <trkpt lat="42.9451950" lon="0.8544650">
        <ele>1067.5</ele>
        <time>2020-07-29T08:46:33Z</time>
      </trkpt>
      <trkpt lat="42.9454240" lon="0.8546290">
        <ele>1065.1</ele>
        <time>2020-07-29T08:46:36Z</time>
      </trkpt>
      <trkpt lat="42.9455940" lon="0.8547280">
        <ele>1063.5</ele>
        <time>2020-07-29T08:46:38Z</time>
      </trkpt>
      <trkpt lat="42.9457600" lon="0.8548060">
        <ele>1061.9</ele>
        <time>2020-07-29T08:46:40Z</time>
      </trkpt>
      <trkpt lat="42.9458340" lon="0.8548470">
        <ele>1061.1</ele>
        <time>2020-07-29T08:46:41Z</time>
      </trkpt>
      <trkpt lat="42.9458960" lon="0.8549070">
        <ele>1060.4</ele>
        <time>2020-07-29T08:46:42Z</time>
      </trkpt>
      <trkpt lat="42.9459690" lon="0.8550920">
        <ele>1058.7</ele>
        <time>2020-07-29T08:46:44Z</time>
      </trkpt>
      <trkpt lat="42.9459820" lon="0.8552060">
        <ele>1057.8</ele>
        <time>2020-07-29T08:46:45Z</time>
      </trkpt>
      <trkpt lat="42.9459900" lon="0.8553260">
        <ele>1056.8</ele>
        <time>2020-07-29T08:46:46Z</time>
      </trkpt>
      <trkpt lat="42.9460100" lon="0.8555970">
        <ele>1054.7</ele>
        <time>2020-07-29T08:46:48Z</time>
      </trkpt>
      <trkpt lat="42.9460990" lon="0.8560310">
        <ele>1051.5</ele>
        <time>2020-07-29T08:46:51Z</time>
      </trkpt>
      <trkpt lat="42.9461520" lon="0.8561780">
        <ele>1050.4</ele>
        <time>2020-07-29T08:46:52Z</time>
      </trkpt>
      <trkpt lat="42.9462650" lon="0.8564600">
        <ele>1048.1</ele>
        <time>2020-07-29T08:46:54Z</time>
      </trkpt>
      <trkpt lat="42.9463040" lon="0.8566050">
        <ele>1047.1</ele>
        <time>2020-07-29T08:46:55Z</time>
      </trkpt>
      <trkpt lat="42.9463250" lon="0.8567530">
        <ele>1046.0</ele>
        <time>2020-07-29T08:46:56Z</time>
      </trkpt>
      <trkpt lat="42.9463300" lon="0.8569050">
        <ele>1044.9</ele>
        <time>2020-07-29T08:46:57Z</time>
      </trkpt>
      <trkpt lat="42.9463190" lon="0.8570650">
        <ele>1043.8</ele>
        <time>2020-07-29T08:46:58Z</time>
      </trkpt>
      <trkpt lat="42.9463080" lon="0.8572270">
        <ele>1042.6</ele>
        <time>2020-07-29T08:46:59Z</time>
      </trkpt>
      <trkpt lat="42.9463010" lon="0.8573950">
        <ele>1041.4</ele>
        <time>2020-07-29T08:47:00Z</time>
      </trkpt>
      <trkpt lat="42.9462780" lon="0.8577480">
        <ele>1038.8</ele>
        <time>2020-07-29T08:47:02Z</time>
      </trkpt>
      <trkpt lat="42.9462270" lon="0.8581080">
        <ele>1036.1</ele>
        <time>2020-07-29T08:47:04Z</time>
      </trkpt>
      <trkpt lat="42.9461910" lon="0.8582880">
        <ele>1034.8</ele>
        <time>2020-07-29T08:47:05Z</time>
      </trkpt>
      <trkpt lat="42.9461580" lon="0.8584640">
        <ele>1033.4</ele>
        <time>2020-07-29T08:47:06Z</time>
      </trkpt>
      <trkpt lat="42.9461160" lon="0.8588210">
        <ele>1030.7</ele>
        <time>2020-07-29T08:47:08Z</time>
      </trkpt>
      <trkpt lat="42.9461030" lon="0.8589910">
        <ele>1029.3</ele>
        <time>2020-07-29T08:47:09Z</time>
      </trkpt>
      <trkpt lat="42.9460950" lon="0.8591570">
        <ele>1028.1</ele>
        <time>2020-07-29T08:47:10Z</time>
      </trkpt>
      <trkpt lat="42.9461020" lon="0.8593160">
        <ele>1026.9</ele>
        <time>2020-07-29T08:47:11Z</time>
      </trkpt>
      <trkpt lat="42.9461250" lon="0.8594680">
        <ele>1026.0</ele>
        <time>2020-07-29T08:47:12Z</time>
      </trkpt>
      <trkpt lat="42.9461600" lon="0.8596100">
        <ele>1025.2</ele>
        <time>2020-07-29T08:47:13Z</time>
      </trkpt>
      <trkpt lat="42.9462010" lon="0.8597360">
        <ele>1024.6</ele>
        <time>2020-07-29T08:47:14Z</time>
      </trkpt>
      <trkpt lat="42.9462360" lon="0.8598450">
        <ele>1024.1</ele>
        <time>2020-07-29T08:47:15Z</time>
      </trkpt>
      <trkpt lat="42.9462470" lon="0.8599410">
        <ele>1023.7</ele>
        <time>2020-07-29T08:47:16Z</time>
      </trkpt>
      <trkpt lat="42.9462260" lon="0.8600190">
        <ele>1023.4</ele>
        <time>2020-07-29T08:47:17Z</time>
      </trkpt>
      <trkpt lat="42.9461230" lon="0.8600770">
        <ele>1022.8</ele>
        <time>2020-07-29T08:47:19Z</time>
      </trkpt>
      <trkpt lat="42.9460380" lon="0.8599760">
        <ele>1021.7</ele>
        <time>2020-07-29T08:47:21Z</time>
      </trkpt>
      <trkpt lat="42.9459820" lon="0.8597830">
        <ele>1019.7</ele>
        <time>2020-07-29T08:47:23Z</time>
      </trkpt>
      <trkpt lat="42.9459500" lon="0.8596700">
        <ele>1018.6</ele>
        <time>2020-07-29T08:47:24Z</time>
      </trkpt>
      <trkpt lat="42.9458290" lon="0.8592810">
        <ele>1014.4</ele>
        <time>2020-07-29T08:47:26Z</time>
      </trkpt>
      <trkpt lat="42.9457780" lon="0.8591400">
        <ele>1012.9</ele>
        <time>2020-07-29T08:47:28Z</time>
      </trkpt>
      <trkpt lat="42.9456500" lon="0.8588620">
        <ele>1010.0</ele>
        <time>2020-07-29T08:47:30Z</time>
      </trkpt>
      <trkpt lat="42.9455020" lon="0.8585750">
        <ele>1006.7</ele>
        <time>2020-07-29T08:47:32Z</time>
      </trkpt>
      <trkpt lat="42.9454220" lon="0.8584260">
        <ele>1004.9</ele>
        <time>2020-07-29T08:47:33Z</time>
      </trkpt>
      <trkpt lat="42.9453400" lon="0.8582770">
        <ele>1003.4</ele>
        <time>2020-07-29T08:47:34Z</time>
      </trkpt>
      <trkpt lat="42.9452550" lon="0.8581300">
        <ele>1001.9</ele>
        <time>2020-07-29T08:47:35Z</time>
      </trkpt>
      <trkpt lat="42.9451680" lon="0.8579840">
        <ele>1000.5</ele>
        <time>2020-07-29T08:47:36Z</time>
      </trkpt>
      <trkpt lat="42.9450850" lon="0.8578440">
        <ele>999.1</ele>
        <time>2020-07-29T08:47:37Z</time>
      </trkpt>
      <trkpt lat="42.9450060" lon="0.8577080">
        <ele>997.8</ele>
        <time>2020-07-29T08:47:38Z</time>
      </trkpt>
      <trkpt lat="42.9449370" lon="0.8575780">
        <ele>996.6</ele>
        <time>2020-07-29T08:47:39Z</time>
      </trkpt>
      <trkpt lat="42.9448820" lon="0.8574500">
        <ele>995.6</ele>
        <time>2020-07-29T08:47:40Z</time>
      </trkpt>
      <trkpt lat="42.9448420" lon="0.8573220">
        <ele>994.7</ele>
        <time>2020-07-29T08:47:41Z</time>
      </trkpt>
      <trkpt lat="42.9448100" lon="0.8572000">
        <ele>993.9</ele>
        <time>2020-07-29T08:47:42Z</time>
      </trkpt>
      <trkpt lat="42.9447750" lon="0.8570960">
        <ele>993.2</ele>
        <time>2020-07-29T08:47:43Z</time>
      </trkpt>
      <trkpt lat="42.9447250" lon="0.8570220">
        <ele>992.6</ele>
        <time>2020-07-29T08:47:44Z</time>
      </trkpt>
      <trkpt lat="42.9446030" lon="0.8569980">
        <ele>991.4</ele>
        <time>2020-07-29T08:47:46Z</time>
      </trkpt>
      <trkpt lat="42.9445220" lon="0.8571390">
        <ele>990.1</ele>
        <time>2020-07-29T08:47:48Z</time>
      </trkpt>
      <trkpt lat="42.9445060" lon="0.8573730">
        <ele>988.1</ele>
        <time>2020-07-29T08:47:50Z</time>
      </trkpt>
      <trkpt lat="42.9445050" lon="0.8575110">
        <ele>987.0</ele>
        <time>2020-07-29T08:47:51Z</time>
      </trkpt>
      <trkpt lat="42.9445150" lon="0.8579780">
        <ele>983.3</ele>
        <time>2020-07-29T08:47:54Z</time>
      </trkpt>
      <trkpt lat="42.9445190" lon="0.8581490">
        <ele>982.0</ele>
        <time>2020-07-29T08:47:55Z</time>
      </trkpt>
      <trkpt lat="42.9445180" lon="0.8583230">
        <ele>980.6</ele>
        <time>2020-07-29T08:47:56Z</time>
      </trkpt>
      <trkpt lat="42.9445170" lon="0.8584920">
        <ele>979.3</ele>
        <time>2020-07-29T08:47:57Z</time>
      </trkpt>
      <trkpt lat="42.9445390" lon="0.8588060">
        <ele>976.7</ele>
        <time>2020-07-29T08:47:59Z</time>
      </trkpt>
      <trkpt lat="42.9445810" lon="0.8589480">
        <ele>975.4</ele>
        <time>2020-07-29T08:48:00Z</time>
      </trkpt>
      <trkpt lat="42.9446390" lon="0.8590850">
        <ele>974.1</ele>
        <time>2020-07-29T08:48:01Z</time>
      </trkpt>
      <trkpt lat="42.9447070" lon="0.8592080">
        <ele>972.8</ele>
        <time>2020-07-29T08:48:02Z</time>
      </trkpt>
      <trkpt lat="42.9447780" lon="0.8593330">
        <ele>971.6</ele>
        <time>2020-07-29T08:48:03Z</time>
      </trkpt>
      <trkpt lat="42.9448300" lon="0.8594780">
        <ele>970.4</ele>
        <time>2020-07-29T08:48:04Z</time>
      </trkpt>
      <trkpt lat="42.9448630" lon="0.8596300">
        <ele>969.1</ele>
        <time>2020-07-29T08:48:05Z</time>
      </trkpt>
      <trkpt lat="42.9448800" lon="0.8597980">
        <ele>967.7</ele>
        <time>2020-07-29T08:48:06Z</time>
      </trkpt>
      <trkpt lat="42.9448910" lon="0.8599700">
        <ele>966.3</ele>
        <time>2020-07-29T08:48:07Z</time>
      </trkpt>
      <trkpt lat="42.9449050" lon="0.8601450">
        <ele>964.8</ele>
        <time>2020-07-29T08:48:08Z</time>
      </trkpt>
      <trkpt lat="42.9449250" lon="0.8603270">
        <ele>963.2</ele>
        <time>2020-07-29T08:48:09Z</time>
      </trkpt>
      <trkpt lat="42.9449490" lon="0.8605120">
        <ele>961.5</ele>
        <time>2020-07-29T08:48:10Z</time>
      </trkpt>
      <trkpt lat="42.9449890" lon="0.8606840">
        <ele>959.9</ele>
        <time>2020-07-29T08:48:11Z</time>
      </trkpt>
      <trkpt lat="42.9450320" lon="0.8608550">
        <ele>958.3</ele>
        <time>2020-07-29T08:48:12Z</time>
      </trkpt>
      <trkpt lat="42.9450610" lon="0.8610230">
        <ele>956.8</ele>
        <time>2020-07-29T08:48:13Z</time>
      </trkpt>
      <trkpt lat="42.9450660" lon="0.8611960">
        <ele>955.4</ele>
        <time>2020-07-29T08:48:14Z</time>
      </trkpt>
      <trkpt lat="42.9450430" lon="0.8613650">
        <ele>954.0</ele>
        <time>2020-07-29T08:48:15Z</time>
      </trkpt>
      <trkpt lat="42.9449970" lon="0.8615230">
        <ele>952.6</ele>
        <time>2020-07-29T08:48:16Z</time>
      </trkpt>
      <trkpt lat="42.9449320" lon="0.8616800">
        <ele>951.1</ele>
        <time>2020-07-29T08:48:17Z</time>
      </trkpt>
      <trkpt lat="42.9448590" lon="0.8618360">
        <ele>949.9</ele>
        <time>2020-07-29T08:48:18Z</time>
      </trkpt>
      <trkpt lat="42.9447840" lon="0.8619950">
        <ele>948.5</ele>
        <time>2020-07-29T08:48:19Z</time>
      </trkpt>
      <trkpt lat="42.9447110" lon="0.8621630">
        <ele>946.9</ele>
        <time>2020-07-29T08:48:20Z</time>
      </trkpt>
      <trkpt lat="42.9445820" lon="0.8625200">
        <ele>943.7</ele>
        <time>2020-07-29T08:48:22Z</time>
      </trkpt>
      <trkpt lat="42.9445260" lon="0.8627080">
        <ele>942.0</ele>
        <time>2020-07-29T08:48:23Z</time>
      </trkpt>
      <trkpt lat="42.9444770" lon="0.8629040">
        <ele>940.4</ele>
        <time>2020-07-29T08:48:24Z</time>
      </trkpt>
      <trkpt lat="42.9444370" lon="0.8631010">
        <ele>938.8</ele>
        <time>2020-07-29T08:48:25Z</time>
      </trkpt>
      <trkpt lat="42.9444000" lon="0.8633020">
        <ele>937.1</ele>
        <time>2020-07-29T08:48:26Z</time>
      </trkpt>
      <trkpt lat="42.9443640" lon="0.8635070">
        <ele>935.4</ele>
        <time>2020-07-29T08:48:27Z</time>
      </trkpt>
      <trkpt lat="42.9443300" lon="0.8637130">
        <ele>933.7</ele>
        <time>2020-07-29T08:48:28Z</time>
      </trkpt>
      <trkpt lat="42.9442990" lon="0.8639180">
        <ele>932.1</ele>
        <time>2020-07-29T08:48:29Z</time>
      </trkpt>
      <trkpt lat="42.9442680" lon="0.8641210">
        <ele>930.3</ele>
        <time>2020-07-29T08:48:30Z</time>
      </trkpt>
      <trkpt lat="42.9442380" lon="0.8643190">
        <ele>928.6</ele>
        <time>2020-07-29T08:48:31Z</time>
      </trkpt>
      <trkpt lat="42.9442080" lon="0.8645110">
        <ele>926.9</ele>
        <time>2020-07-29T08:48:32Z</time>
      </trkpt>
      <trkpt lat="42.9441790" lon="0.8646910">
        <ele>925.2</ele>
        <time>2020-07-29T08:48:33Z</time>
      </trkpt>
      <trkpt lat="42.9441550" lon="0.8648610">
        <ele>923.6</ele>
        <time>2020-07-29T08:48:34Z</time>
      </trkpt>
      <trkpt lat="42.9441460" lon="0.8650250">
        <ele>922.4</ele>
        <time>2020-07-29T08:48:35Z</time>
      </trkpt>
      <trkpt lat="42.9441540" lon="0.8651840">
        <ele>921.5</ele>
        <time>2020-07-29T08:48:36Z</time>
      </trkpt>
      <trkpt lat="42.9441840" lon="0.8653310">
        <ele>920.7</ele>
        <time>2020-07-29T08:48:37Z</time>
      </trkpt>
      <trkpt lat="42.9442300" lon="0.8654630">
        <ele>920.1</ele>
        <time>2020-07-29T08:48:38Z</time>
      </trkpt>
      <trkpt lat="42.9442730" lon="0.8655770">
        <ele>919.6</ele>
        <time>2020-07-29T08:48:39Z</time>
      </trkpt>
      <trkpt lat="42.9442950" lon="0.8656720">
        <ele>919.2</ele>
        <time>2020-07-29T08:48:40Z</time>
      </trkpt>
      <trkpt lat="42.9442880" lon="0.8657520">
        <ele>918.8</ele>
        <time>2020-07-29T08:48:41Z</time>
      </trkpt>
      <trkpt lat="42.9441980" lon="0.8658170">
        <ele>918.2</ele>
        <time>2020-07-29T08:48:43Z</time>
      </trkpt>
      <trkpt lat="42.9440850" lon="0.8657240">
        <ele>917.3</ele>
        <time>2020-07-29T08:48:45Z</time>
      </trkpt>
      <trkpt lat="42.9439720" lon="0.8655490">
        <ele>915.7</ele>
        <time>2020-07-29T08:48:47Z</time>
      </trkpt>
      <trkpt lat="42.9439070" lon="0.8654520">
        <ele>914.7</ele>
        <time>2020-07-29T08:48:48Z</time>
      </trkpt>
      <trkpt lat="42.9436960" lon="0.8651200">
        <ele>911.3</ele>
        <time>2020-07-29T08:48:51Z</time>
      </trkpt>
      <trkpt lat="42.9436200" lon="0.8649950">
        <ele>910.0</ele>
        <time>2020-07-29T08:48:52Z</time>
      </trkpt>
      <trkpt lat="42.9434750" lon="0.8647240">
        <ele>907.3</ele>
        <time>2020-07-29T08:48:54Z</time>
      </trkpt>
      <trkpt lat="42.9433990" lon="0.8645800">
        <ele>905.7</ele>
        <time>2020-07-29T08:48:55Z</time>
      </trkpt>
      <trkpt lat="42.9433280" lon="0.8644290">
        <ele>904.2</ele>
        <time>2020-07-29T08:48:56Z</time>
      </trkpt>
      <trkpt lat="42.9432590" lon="0.8642800">
        <ele>902.8</ele>
        <time>2020-07-29T08:48:57Z</time>
      </trkpt>
      <trkpt lat="42.9431460" lon="0.8639790">
        <ele>900.8</ele>
        <time>2020-07-29T08:48:59Z</time>
      </trkpt>
      <trkpt lat="42.9431150" lon="0.8638340">
        <ele>900.0</ele>
        <time>2020-07-29T08:49:00Z</time>
      </trkpt>
      <trkpt lat="42.9430970" lon="0.8637040">
        <ele>899.4</ele>
        <time>2020-07-29T08:49:01Z</time>
      </trkpt>
      <trkpt lat="42.9430730" lon="0.8635920">
        <ele>898.8</ele>
        <time>2020-07-29T08:49:02Z</time>
      </trkpt>
      <trkpt lat="42.9430340" lon="0.8635050">
        <ele>898.3</ele>
        <time>2020-07-29T08:49:03Z</time>
      </trkpt>
      <trkpt lat="42.9429800" lon="0.8634570">
        <ele>897.8</ele>
        <time>2020-07-29T08:49:04Z</time>
      </trkpt>
      <trkpt lat="42.9429210" lon="0.8634620">
        <ele>897.4</ele>
        <time>2020-07-29T08:49:05Z</time>
      </trkpt>
      <trkpt lat="42.9428450" lon="0.8636020">
        <ele>896.4</ele>
        <time>2020-07-29T08:49:07Z</time>
      </trkpt>
      <trkpt lat="42.9428240" lon="0.8639580">
        <ele>894.1</ele>
        <time>2020-07-29T08:49:10Z</time>
      </trkpt>
      <trkpt lat="42.9427810" lon="0.8642400">
        <ele>892.0</ele>
        <time>2020-07-29T08:49:12Z</time>
      </trkpt>
      <trkpt lat="42.9427470" lon="0.8643870">
        <ele>890.9</ele>
        <time>2020-07-29T08:49:13Z</time>
      </trkpt>
      <trkpt lat="42.9426650" lon="0.8646880">
        <ele>888.7</ele>
        <time>2020-07-29T08:49:15Z</time>
      </trkpt>
      <trkpt lat="42.9425850" lon="0.8649830">
        <ele>887.0</ele>
        <time>2020-07-29T08:49:17Z</time>
      </trkpt>
      <trkpt lat="42.9425490" lon="0.8651110">
        <ele>886.2</ele>
        <time>2020-07-29T08:49:18Z</time>
      </trkpt>
      <trkpt lat="42.9425140" lon="0.8652240">
        <ele>885.5</ele>
        <time>2020-07-29T08:49:19Z</time>
      </trkpt>
      <trkpt lat="42.9424670" lon="0.8653170">
        <ele>884.7</ele>
        <time>2020-07-29T08:49:20Z</time>
      </trkpt>
      <trkpt lat="42.9424030" lon="0.8653790">
        <ele>884.0</ele>
        <time>2020-07-29T08:49:21Z</time>
      </trkpt>
      <trkpt lat="42.9423260" lon="0.8654170">
        <ele>883.2</ele>
        <time>2020-07-29T08:49:22Z</time>
      </trkpt>
      <trkpt lat="42.9421800" lon="0.8654040">
        <ele>881.8</ele>
        <time>2020-07-29T08:49:24Z</time>
      </trkpt>
      <trkpt lat="42.9420850" lon="0.8652720">
        <ele>880.5</ele>
        <time>2020-07-29T08:49:26Z</time>
      </trkpt>
      <trkpt lat="42.9420320" lon="0.8650890">
        <ele>878.8</ele>
        <time>2020-07-29T08:49:28Z</time>
      </trkpt>
      <trkpt lat="42.9419970" lon="0.8650020">
        <ele>878.4</ele>
        <time>2020-07-29T08:49:29Z</time>
      </trkpt>
      <trkpt lat="42.9419390" lon="0.8649360">
        <ele>877.4</ele>
        <time>2020-07-29T08:49:30Z</time>
      </trkpt>
      <trkpt lat="42.9418680" lon="0.8649050">
        <ele>876.0</ele>
        <time>2020-07-29T08:49:31Z</time>
      </trkpt>
      <trkpt lat="42.9417840" lon="0.8648970">
        <ele>875.1</ele>
        <time>2020-07-29T08:49:32Z</time>
      </trkpt>
      <trkpt lat="42.9416930" lon="0.8648920">
        <ele>875.0</ele>
        <time>2020-07-29T08:49:33Z</time>
      </trkpt>
      <trkpt lat="42.9415970" lon="0.8648830">
        <ele>873.9</ele>
        <time>2020-07-29T08:49:34Z</time>
      </trkpt>
      <trkpt lat="42.9414120" lon="0.8648580">
        <ele>871.6</ele>
        <time>2020-07-29T08:49:36Z</time>
      </trkpt>
      <trkpt lat="42.9413240" lon="0.8648570">
        <ele>870.6</ele>
        <time>2020-07-29T08:49:37Z</time>
      </trkpt>
      <trkpt lat="42.9412520" lon="0.8648810">
        <ele>869.9</ele>
        <time>2020-07-29T08:49:38Z</time>
      </trkpt>
      <trkpt lat="42.9411460" lon="0.8650330">
        <ele>869.2</ele>
        <time>2020-07-29T08:49:40Z</time>
      </trkpt>
      <trkpt lat="42.9411170" lon="0.8651380">
        <ele>869.5</ele>
        <time>2020-07-29T08:49:41Z</time>
      </trkpt>
      <trkpt lat="42.9410850" lon="0.8652530">
        <ele>868.1</ele>
        <time>2020-07-29T08:49:42Z</time>
      </trkpt>
      <trkpt lat="42.9410420" lon="0.8653710">
        <ele>865.9</ele>
        <time>2020-07-29T08:49:43Z</time>
      </trkpt>
      <trkpt lat="42.9409140" lon="0.8655740">
        <ele>864.6</ele>
        <time>2020-07-29T08:49:45Z</time>
      </trkpt>
      <trkpt lat="42.9408360" lon="0.8656570">
        <ele>863.6</ele>
        <time>2020-07-29T08:49:46Z</time>
      </trkpt>
      <trkpt lat="42.9406600" lon="0.8657810">
        <ele>862.3</ele>
        <time>2020-07-29T08:49:48Z</time>
      </trkpt>
      <trkpt lat="42.9405760" lon="0.8658280">
        <ele>861.6</ele>
        <time>2020-07-29T08:49:49Z</time>
      </trkpt>
      <trkpt lat="42.9405040" lon="0.8658680">
        <ele>861.1</ele>
        <time>2020-07-29T08:49:50Z</time>
      </trkpt>
      <trkpt lat="42.9404380" lon="0.8659180">
        <ele>860.4</ele>
        <time>2020-07-29T08:49:51Z</time>
      </trkpt>
      <trkpt lat="42.9403280" lon="0.8660600">
        <ele>858.8</ele>
        <time>2020-07-29T08:49:53Z</time>
      </trkpt>
      <trkpt lat="42.9402830" lon="0.8661580">
        <ele>857.9</ele>
        <time>2020-07-29T08:49:54Z</time>
      </trkpt>
      <trkpt lat="42.9401940" lon="0.8663820">
        <ele>856.1</ele>
        <time>2020-07-29T08:49:56Z</time>
      </trkpt>
      <trkpt lat="42.9401470" lon="0.8664950">
        <ele>855.4</ele>
        <time>2020-07-29T08:49:57Z</time>
      </trkpt>
      <trkpt lat="42.9400360" lon="0.8667180">
        <ele>854.1</ele>
        <time>2020-07-29T08:49:59Z</time>
      </trkpt>
      <trkpt lat="42.9398960" lon="0.8669270">
        <ele>852.7</ele>
        <time>2020-07-29T08:50:01Z</time>
      </trkpt>
      <trkpt lat="42.9398230" lon="0.8670330">
        <ele>851.9</ele>
        <time>2020-07-29T08:50:02Z</time>
      </trkpt>
      <trkpt lat="42.9396750" lon="0.8672460">
        <ele>850.5</ele>
        <time>2020-07-29T08:50:04Z</time>
      </trkpt>
      <trkpt lat="42.9394430" lon="0.8675650">
        <ele>849.1</ele>
        <time>2020-07-29T08:50:07Z</time>
      </trkpt>
      <trkpt lat="42.9392850" lon="0.8677760">
        <ele>848.1</ele>
        <time>2020-07-29T08:50:09Z</time>
      </trkpt>
      <trkpt lat="42.9392050" lon="0.8678860">
        <ele>847.6</ele>
        <time>2020-07-29T08:50:10Z</time>
      </trkpt>
      <trkpt lat="42.9390460" lon="0.8681110">
        <ele>846.7</ele>
        <time>2020-07-29T08:50:12Z</time>
      </trkpt>
      <trkpt lat="42.9388140" lon="0.8684430">
        <ele>845.5</ele>
        <time>2020-07-29T08:50:15Z</time>
      </trkpt>
      <trkpt lat="42.9387390" lon="0.8685570">
        <ele>845.2</ele>
        <time>2020-07-29T08:50:16Z</time>
      </trkpt>
      <trkpt lat="42.9386060" lon="0.8687960">
        <ele>844.6</ele>
        <time>2020-07-29T08:50:18Z</time>
      </trkpt>
      <trkpt lat="42.9385500" lon="0.8689280">
        <ele>844.3</ele>
        <time>2020-07-29T08:50:19Z</time>
      </trkpt>
      <trkpt lat="42.9385080" lon="0.8690590">
        <ele>843.9</ele>
        <time>2020-07-29T08:50:20Z</time>
      </trkpt>
      <trkpt lat="42.9383840" lon="0.8694750">
        <ele>842.3</ele>
        <time>2020-07-29T08:50:23Z</time>
      </trkpt>
      <trkpt lat="42.9382870" lon="0.8699240">
        <ele>839.9</ele>
        <time>2020-07-29T08:50:26Z</time>
      </trkpt>
      <trkpt lat="42.9382520" lon="0.8700760">
        <ele>839.0</ele>
        <time>2020-07-29T08:50:27Z</time>
      </trkpt>
      <trkpt lat="42.9381880" lon="0.8703950">
        <ele>837.1</ele>
        <time>2020-07-29T08:50:29Z</time>
      </trkpt>
      <trkpt lat="42.9381400" lon="0.8707330">
        <ele>835.1</ele>
        <time>2020-07-29T08:50:31Z</time>
      </trkpt>
      <trkpt lat="42.9381220" lon="0.8709070">
        <ele>833.9</ele>
        <time>2020-07-29T08:50:32Z</time>
      </trkpt>
      <trkpt lat="42.9381030" lon="0.8710810">
        <ele>832.9</ele>
        <time>2020-07-29T08:50:33Z</time>
      </trkpt>
      <trkpt lat="42.9380830" lon="0.8712570">
        <ele>832.0</ele>
        <time>2020-07-29T08:50:34Z</time>
      </trkpt>
      <trkpt lat="42.9380610" lon="0.8714350">
        <ele>831.3</ele>
        <time>2020-07-29T08:50:35Z</time>
      </trkpt>
      <trkpt lat="42.9380170" lon="0.8717830">
        <ele>829.8</ele>
        <time>2020-07-29T08:50:37Z</time>
      </trkpt>
      <trkpt lat="42.9379960" lon="0.8719550">
        <ele>829.0</ele>
        <time>2020-07-29T08:50:38Z</time>
      </trkpt>
      <trkpt lat="42.9379790" lon="0.8721260">
        <ele>828.2</ele>
        <time>2020-07-29T08:50:39Z</time>
      </trkpt>
      <trkpt lat="42.9379600" lon="0.8722960">
        <ele>827.5</ele>
        <time>2020-07-29T08:50:40Z</time>
      </trkpt>
      <trkpt lat="42.9379380" lon="0.8724680">
        <ele>826.9</ele>
        <time>2020-07-29T08:50:41Z</time>
      </trkpt>
      <trkpt lat="42.9378850" lon="0.8727940">
        <ele>825.7</ele>
        <time>2020-07-29T08:50:43Z</time>
      </trkpt>
      <trkpt lat="42.9378580" lon="0.8729460">
        <ele>825.3</ele>
        <time>2020-07-29T08:50:44Z</time>
      </trkpt>
      <trkpt lat="42.9378410" lon="0.8730920">
        <ele>824.9</ele>
        <time>2020-07-29T08:50:45Z</time>
      </trkpt>
      <trkpt lat="42.9378240" lon="0.8733620">
        <ele>824.4</ele>
        <time>2020-07-29T08:50:47Z</time>
      </trkpt>
      <trkpt lat="42.9378960" lon="0.8737370">
        <ele>823.8</ele>
        <time>2020-07-29T08:50:49Z</time>
      </trkpt>
      <trkpt lat="42.9379440" lon="0.8738640">
        <ele>823.7</ele>
        <time>2020-07-29T08:50:50Z</time>
      </trkpt>
      <trkpt lat="42.9379440" lon="0.8738640">
        <ele>823.7</ele>
        <time>2020-07-29T08:50:51Z</time>
      </trkpt>
      <trkpt lat="42.9381660" lon="0.8743800">
        <ele>823.6</ele>
        <time>2020-07-29T08:50:55Z</time>
      </trkpt>
      <trkpt lat="42.9382350" lon="0.8744900">
        <ele>823.7</ele>
        <time>2020-07-29T08:50:56Z</time>
      </trkpt>
      <trkpt lat="42.9384670" lon="0.8747500">
        <ele>824.1</ele>
        <time>2020-07-29T08:50:59Z</time>
      </trkpt>
      <trkpt lat="42.9385510" lon="0.8748160">
        <ele>824.2</ele>
        <time>2020-07-29T08:51:00Z</time>
      </trkpt>
      <trkpt lat="42.9387660" lon="0.8750010">
        <ele>824.7</ele>
        <time>2020-07-29T08:51:03Z</time>
      </trkpt>
      <trkpt lat="42.9391230" lon="0.8753550">
        <ele>824.5</ele>
        <time>2020-07-29T08:51:08Z</time>
      </trkpt>
      <trkpt lat="42.9394920" lon="0.8756890">
        <ele>823.2</ele>
        <time>2020-07-29T08:51:13Z</time>
      </trkpt>
      <trkpt lat="42.9398800" lon="0.8760280">
        <ele>821.9</ele>
        <time>2020-07-29T08:51:18Z</time>
      </trkpt>
      <trkpt lat="42.9399510" lon="0.8761170">
        <ele>821.6</ele>
        <time>2020-07-29T08:51:19Z</time>
      </trkpt>
      <trkpt lat="42.9401000" lon="0.8764530">
        <ele>820.9</ele>
        <time>2020-07-29T08:51:22Z</time>
      </trkpt>
      <trkpt lat="42.9401620" lon="0.8768240">
        <ele>820.3</ele>
        <time>2020-07-29T08:51:25Z</time>
      </trkpt>
      <trkpt lat="42.9402130" lon="0.8770770">
        <ele>819.6</ele>
        <time>2020-07-29T08:51:27Z</time>
      </trkpt>
      <trkpt lat="42.9402620" lon="0.8774500">
        <ele>818.1</ele>
        <time>2020-07-29T08:51:30Z</time>
      </trkpt>
      <trkpt lat="42.9402730" lon="0.8775780">
        <ele>817.5</ele>
        <time>2020-07-29T08:51:31Z</time>
      </trkpt>
      <trkpt lat="42.9403080" lon="0.8780020">
        <ele>815.5</ele>
        <time>2020-07-29T08:51:34Z</time>
      </trkpt>
      <trkpt lat="42.9403180" lon="0.8781600">
        <ele>814.7</ele>
        <time>2020-07-29T08:51:35Z</time>
      </trkpt>
      <trkpt lat="42.9403470" lon="0.8784640">
        <ele>813.0</ele>
        <time>2020-07-29T08:51:37Z</time>
      </trkpt>
      <trkpt lat="42.9403740" lon="0.8787800">
        <ele>811.1</ele>
        <time>2020-07-29T08:51:39Z</time>
      </trkpt>
      <trkpt lat="42.9403870" lon="0.8789480">
        <ele>810.1</ele>
        <time>2020-07-29T08:51:40Z</time>
      </trkpt>
      <trkpt lat="42.9404040" lon="0.8791180">
        <ele>809.0</ele>
        <time>2020-07-29T08:51:41Z</time>
      </trkpt>
      <trkpt lat="42.9404140" lon="0.8792890">
        <ele>807.9</ele>
        <time>2020-07-29T08:51:42Z</time>
      </trkpt>
      <trkpt lat="42.9404190" lon="0.8796300">
        <ele>805.9</ele>
        <time>2020-07-29T08:51:44Z</time>
      </trkpt>
      <trkpt lat="42.9404070" lon="0.8797990">
        <ele>804.9</ele>
        <time>2020-07-29T08:51:45Z</time>
      </trkpt>
      <trkpt lat="42.9403860" lon="0.8800850">
        <ele>803.2</ele>
        <time>2020-07-29T08:51:46Z</time>
      </trkpt>
      <trkpt lat="42.9403650" lon="0.8803700">
        <ele>801.5</ele>
        <time>2020-07-29T08:51:47Z</time>
      </trkpt>
      <trkpt lat="42.9403220" lon="0.8805340">
        <ele>800.2</ele>
        <time>2020-07-29T08:51:48Z</time>
      </trkpt>
      <trkpt lat="42.9402780" lon="0.8806720">
        <ele>799.0</ele>
        <time>2020-07-29T08:51:49Z</time>
      </trkpt>
      <trkpt lat="42.9402290" lon="0.8808030">
        <ele>797.8</ele>
        <time>2020-07-29T08:51:50Z</time>
      </trkpt>
      <trkpt lat="42.9401150" lon="0.8810940">
        <ele>795.3</ele>
        <time>2020-07-29T08:51:52Z</time>
      </trkpt>
      <trkpt lat="42.9399900" lon="0.8813920">
        <ele>792.8</ele>
        <time>2020-07-29T08:51:54Z</time>
      </trkpt>
      <trkpt lat="42.9398740" lon="0.8816740">
        <ele>790.4</ele>
        <time>2020-07-29T08:51:56Z</time>
      </trkpt>
      <trkpt lat="42.9398160" lon="0.8818170">
        <ele>789.2</ele>
        <time>2020-07-29T08:51:58Z</time>
      </trkpt>
      <trkpt lat="42.9397610" lon="0.8819720">
        <ele>787.9</ele>
        <time>2020-07-29T08:51:59Z</time>
      </trkpt>
      <trkpt lat="42.9396790" lon="0.8821910">
        <ele>786.2</ele>
        <time>2020-07-29T08:52:00Z</time>
      </trkpt>
      <trkpt lat="42.9395960" lon="0.8824090">
        <ele>784.4</ele>
        <time>2020-07-29T08:52:01Z</time>
      </trkpt>
      <trkpt lat="42.9395200" lon="0.8825300">
        <ele>783.2</ele>
        <time>2020-07-29T08:52:02Z</time>
      </trkpt>
      <trkpt lat="42.9394160" lon="0.8825930">
        <ele>781.9</ele>
        <time>2020-07-29T08:52:03Z</time>
      </trkpt>
      <trkpt lat="42.9393270" lon="0.8827020">
        <ele>780.6</ele>
        <time>2020-07-29T08:52:04Z</time>
      </trkpt>
      <trkpt lat="42.9392230" lon="0.8827770">
        <ele>779.3</ele>
        <time>2020-07-29T08:52:05Z</time>
      </trkpt>
      <trkpt lat="42.9391150" lon="0.8828500">
        <ele>777.7</ele>
        <time>2020-07-29T08:52:06Z</time>
      </trkpt>
      <trkpt lat="42.9390220" lon="0.8828710">
        <ele>776.6</ele>
        <time>2020-07-29T08:52:07Z</time>
      </trkpt>
      <trkpt lat="42.9389280" lon="0.8828920">
        <ele>775.5</ele>
        <time>2020-07-29T08:52:08Z</time>
      </trkpt>
      <trkpt lat="42.9387410" lon="0.8829330">
        <ele>773.5</ele>
        <time>2020-07-29T08:52:09Z</time>
      </trkpt>
      <trkpt lat="42.9386140" lon="0.8829820">
        <ele>772.1</ele>
        <time>2020-07-29T08:52:10Z</time>
      </trkpt>
      <trkpt lat="42.9384910" lon="0.8830360">
        <ele>770.7</ele>
        <time>2020-07-29T08:52:11Z</time>
      </trkpt>
      <trkpt lat="42.9383780" lon="0.8831020">
        <ele>769.3</ele>
        <time>2020-07-29T08:52:12Z</time>
      </trkpt>
      <trkpt lat="42.9382720" lon="0.8831870">
        <ele>767.8</ele>
        <time>2020-07-29T08:52:13Z</time>
      </trkpt>
      <trkpt lat="42.9381780" lon="0.8832960">
        <ele>766.3</ele>
        <time>2020-07-29T08:52:14Z</time>
      </trkpt>
      <trkpt lat="42.9381030" lon="0.8834340">
        <ele>764.8</ele>
        <time>2020-07-29T08:52:15Z</time>
      </trkpt>
      <trkpt lat="42.9380320" lon="0.8835900">
        <ele>763.3</ele>
        <time>2020-07-29T08:52:16Z</time>
      </trkpt>
      <trkpt lat="42.9379600" lon="0.8837500">
        <ele>762.0</ele>
        <time>2020-07-29T08:52:17Z</time>
      </trkpt>
      <trkpt lat="42.9379220" lon="0.8838170">
        <ele>761.4</ele>
        <time>2020-07-29T08:52:18Z</time>
      </trkpt>
      <trkpt lat="42.9378840" lon="0.8838830">
        <ele>760.9</ele>
        <time>2020-07-29T08:52:19Z</time>
      </trkpt>
      <trkpt lat="42.9378080" lon="0.8840160">
        <ele>759.8</ele>
        <time>2020-07-29T08:52:20Z</time>
      </trkpt>
      <trkpt lat="42.9376620" lon="0.8841450">
        <ele>758.4</ele>
        <time>2020-07-29T08:52:21Z</time>
      </trkpt>
      <trkpt lat="42.9375160" lon="0.8842740">
        <ele>756.9</ele>
        <time>2020-07-29T08:52:22Z</time>
      </trkpt>
      <trkpt lat="42.9374600" lon="0.8843040">
        <ele>756.4</ele>
        <time>2020-07-29T08:52:23Z</time>
      </trkpt>
      <trkpt lat="42.9374030" lon="0.8843330">
        <ele>755.9</ele>
        <time>2020-07-29T08:52:24Z</time>
      </trkpt>
      <trkpt lat="42.9372890" lon="0.8843910">
        <ele>754.9</ele>
        <time>2020-07-29T08:52:25Z</time>
      </trkpt>
      <trkpt lat="42.9371770" lon="0.8844470">
        <ele>753.9</ele>
        <time>2020-07-29T08:52:26Z</time>
      </trkpt>
      <trkpt lat="42.9369580" lon="0.8845740">
        <ele>752.0</ele>
        <time>2020-07-29T08:52:28Z</time>
      </trkpt>
      <trkpt lat="42.9367430" lon="0.8847540">
        <ele>749.9</ele>
        <time>2020-07-29T08:52:30Z</time>
      </trkpt>
      <trkpt lat="42.9366330" lon="0.8848580">
        <ele>748.9</ele>
        <time>2020-07-29T08:52:31Z</time>
      </trkpt>
      <trkpt lat="42.9365140" lon="0.8849450">
        <ele>747.8</ele>
        <time>2020-07-29T08:52:32Z</time>
      </trkpt>
      <trkpt lat="42.9363910" lon="0.8850380">
        <ele>746.7</ele>
        <time>2020-07-29T08:52:33Z</time>
      </trkpt>
      <trkpt lat="42.9362610" lon="0.8851420">
        <ele>745.5</ele>
        <time>2020-07-29T08:52:34Z</time>
      </trkpt>
      <trkpt lat="42.9361390" lon="0.8852050">
        <ele>744.5</ele>
        <time>2020-07-29T08:52:35Z</time>
      </trkpt>
      <trkpt lat="42.9360190" lon="0.8852450">
        <ele>743.6</ele>
        <time>2020-07-29T08:52:36Z</time>
      </trkpt>
      <trkpt lat="42.9357870" lon="0.8853290">
        <ele>741.9</ele>
        <time>2020-07-29T08:52:38Z</time>
      </trkpt>
      <trkpt lat="42.9356870" lon="0.8853820">
        <ele>741.2</ele>
        <time>2020-07-29T08:52:39Z</time>
      </trkpt>
      <trkpt lat="42.9355980" lon="0.8854510">
        <ele>740.5</ele>
        <time>2020-07-29T08:52:40Z</time>
      </trkpt>
      <trkpt lat="42.9354520" lon="0.8856570">
        <ele>739.1</ele>
        <time>2020-07-29T08:52:42Z</time>
      </trkpt>
      <trkpt lat="42.9353790" lon="0.8859300">
        <ele>737.9</ele>
        <time>2020-07-29T08:52:44Z</time>
      </trkpt>
      <trkpt lat="42.9353710" lon="0.8860730">
        <ele>737.3</ele>
        <time>2020-07-29T08:52:45Z</time>
      </trkpt>
      <trkpt lat="42.9353720" lon="0.8862170">
        <ele>736.7</ele>
        <time>2020-07-29T08:52:46Z</time>
      </trkpt>
      <trkpt lat="42.9353770" lon="0.8863650">
        <ele>736.1</ele>
        <time>2020-07-29T08:52:47Z</time>
      </trkpt>
      <trkpt lat="42.9353600" lon="0.8868380">
        <ele>734.1</ele>
        <time>2020-07-29T08:52:50Z</time>
      </trkpt>
      <trkpt lat="42.9353370" lon="0.8869860">
        <ele>733.4</ele>
        <time>2020-07-29T08:52:51Z</time>
      </trkpt>
      <trkpt lat="42.9352900" lon="0.8871190">
        <ele>732.8</ele>
        <time>2020-07-29T08:52:52Z</time>
      </trkpt>
      <trkpt lat="42.9352430" lon="0.8872510">
        <ele>732.1</ele>
        <time>2020-07-29T08:52:53Z</time>
      </trkpt>
      <trkpt lat="42.9351610" lon="0.8873420">
        <ele>731.4</ele>
        <time>2020-07-29T08:52:54Z</time>
      </trkpt>
      <trkpt lat="42.9349970" lon="0.8875240">
        <ele>730.1</ele>
        <time>2020-07-29T08:52:56Z</time>
      </trkpt>
      <trkpt lat="42.9348040" lon="0.8876400">
        <ele>728.9</ele>
        <time>2020-07-29T08:52:58Z</time>
      </trkpt>
      <trkpt lat="42.9345090" lon="0.8878210">
        <ele>727.0</ele>
        <time>2020-07-29T08:53:00Z</time>
      </trkpt>
      <trkpt lat="42.9344170" lon="0.8878870">
        <ele>726.3</ele>
        <time>2020-07-29T08:53:01Z</time>
      </trkpt>
      <trkpt lat="42.9342450" lon="0.8880140">
        <ele>725.2</ele>
        <time>2020-07-29T08:53:03Z</time>
      </trkpt>
      <trkpt lat="42.9341700" lon="0.8880820">
        <ele>724.7</ele>
        <time>2020-07-29T08:53:04Z</time>
      </trkpt>
      <trkpt lat="42.9341090" lon="0.8881660">
        <ele>724.2</ele>
        <time>2020-07-29T08:53:05Z</time>
      </trkpt>
      <trkpt lat="42.9340680" lon="0.8882680">
        <ele>723.8</ele>
        <time>2020-07-29T08:53:07Z</time>
      </trkpt>
      <trkpt lat="42.9340500" lon="0.8883770">
        <ele>723.4</ele>
        <time>2020-07-29T08:53:08Z</time>
      </trkpt>
      <trkpt lat="42.9340420" lon="0.8884910">
        <ele>723.1</ele>
        <time>2020-07-29T08:53:09Z</time>
      </trkpt>
      <trkpt lat="42.9340260" lon="0.8887270">
        <ele>722.4</ele>
        <time>2020-07-29T08:53:11Z</time>
      </trkpt>
      <trkpt lat="42.9339980" lon="0.8888290">
        <ele>722.0</ele>
        <time>2020-07-29T08:53:12Z</time>
      </trkpt>
      <trkpt lat="42.9338850" lon="0.8889840">
        <ele>721.4</ele>
        <time>2020-07-29T08:53:14Z</time>
      </trkpt>
      <trkpt lat="42.9338090" lon="0.8890360">
        <ele>721.0</ele>
        <time>2020-07-29T08:53:15Z</time>
      </trkpt>
      <trkpt lat="42.9335560" lon="0.8891360">
        <ele>719.5</ele>
        <time>2020-07-29T08:53:18Z</time>
      </trkpt>
      <trkpt lat="42.9334570" lon="0.8891620">
        <ele>718.8</ele>
        <time>2020-07-29T08:53:19Z</time>
      </trkpt>
      <trkpt lat="42.9333580" lon="0.8891690">
        <ele>718.2</ele>
        <time>2020-07-29T08:53:20Z</time>
      </trkpt>
      <trkpt lat="42.9331460" lon="0.8891930">
        <ele>716.8</ele>
        <time>2020-07-29T08:53:22Z</time>
      </trkpt>
      <trkpt lat="42.9329320" lon="0.8892120">
        <ele>715.6</ele>
        <time>2020-07-29T08:53:24Z</time>
      </trkpt>
      <trkpt lat="42.9327340" lon="0.8892500">
        <ele>714.5</ele>
        <time>2020-07-29T08:53:25Z</time>
      </trkpt>
      <trkpt lat="42.9326700" lon="0.8892990">
        <ele>714.2</ele>
        <time>2020-07-29T08:53:26Z</time>
      </trkpt>
      <trkpt lat="42.9326060" lon="0.8893480">
        <ele>713.8</ele>
        <time>2020-07-29T08:53:27Z</time>
      </trkpt>
      <trkpt lat="42.9324780" lon="0.8894460">
        <ele>713.1</ele>
        <time>2020-07-29T08:53:28Z</time>
      </trkpt>
      <trkpt lat="42.9323310" lon="0.8896310">
        <ele>712.1</ele>
        <time>2020-07-29T08:53:30Z</time>
      </trkpt>
      <trkpt lat="42.9321860" lon="0.8898200">
        <ele>710.9</ele>
        <time>2020-07-29T08:53:32Z</time>
      </trkpt>
      <trkpt lat="42.9321500" lon="0.8898650">
        <ele>710.6</ele>
        <time>2020-07-29T08:53:33Z</time>
      </trkpt>
      <trkpt lat="42.9321130" lon="0.8899090">
        <ele>710.2</ele>
        <time>2020-07-29T08:53:34Z</time>
      </trkpt>
      <trkpt lat="42.9318210" lon="0.8903240">
        <ele>707.8</ele>
        <time>2020-07-29T08:53:37Z</time>
      </trkpt>
      <trkpt lat="42.9316720" lon="0.8905490">
        <ele>706.7</ele>
        <time>2020-07-29T08:53:39Z</time>
      </trkpt>
      <trkpt lat="42.9315970" lon="0.8906610">
        <ele>706.1</ele>
        <time>2020-07-29T08:53:40Z</time>
      </trkpt>
      <trkpt lat="42.9315190" lon="0.8907590">
        <ele>705.5</ele>
        <time>2020-07-29T08:53:41Z</time>
      </trkpt>
      <trkpt lat="42.9313470" lon="0.8909050">
        <ele>704.2</ele>
        <time>2020-07-29T08:53:43Z</time>
      </trkpt>
      <trkpt lat="42.9311670" lon="0.8910010">
        <ele>703.0</ele>
        <time>2020-07-29T08:53:45Z</time>
      </trkpt>
      <trkpt lat="42.9311210" lon="0.8910300">
        <ele>702.7</ele>
        <time>2020-07-29T08:53:46Z</time>
      </trkpt>
      <trkpt lat="42.9310750" lon="0.8910580">
        <ele>702.4</ele>
        <time>2020-07-29T08:53:47Z</time>
      </trkpt>
      <trkpt lat="42.9309830" lon="0.8911140">
        <ele>701.8</ele>
        <time>2020-07-29T08:53:48Z</time>
      </trkpt>
      <trkpt lat="42.9309050" lon="0.8911950">
        <ele>701.3</ele>
        <time>2020-07-29T08:53:49Z</time>
      </trkpt>
      <trkpt lat="42.9308350" lon="0.8913000">
        <ele>700.9</ele>
        <time>2020-07-29T08:53:50Z</time>
      </trkpt>
      <trkpt lat="42.9307800" lon="0.8914340">
        <ele>700.4</ele>
        <time>2020-07-29T08:53:51Z</time>
      </trkpt>
      <trkpt lat="42.9307200" lon="0.8918280">
        <ele>699.3</ele>
        <time>2020-07-29T08:53:53Z</time>
      </trkpt>
      <trkpt lat="42.9307260" lon="0.8919520">
        <ele>698.9</ele>
        <time>2020-07-29T08:53:54Z</time>
      </trkpt>
      <trkpt lat="42.9307590" lon="0.8922140">
        <ele>698.1</ele>
        <time>2020-07-29T08:53:56Z</time>
      </trkpt>
      <trkpt lat="42.9307660" lon="0.8922840">
        <ele>697.9</ele>
        <time>2020-07-29T08:53:57Z</time>
      </trkpt>
      <trkpt lat="42.9307730" lon="0.8923550">
        <ele>697.6</ele>
        <time>2020-07-29T08:53:58Z</time>
      </trkpt>
      <trkpt lat="42.9308010" lon="0.8926370">
        <ele>696.6</ele>
        <time>2020-07-29T08:54:00Z</time>
      </trkpt>
      <trkpt lat="42.9308050" lon="0.8928830">
        <ele>695.5</ele>
        <time>2020-07-29T08:54:01Z</time>
      </trkpt>
      <trkpt lat="42.9307850" lon="0.8929980">
        <ele>695.0</ele>
        <time>2020-07-29T08:54:02Z</time>
      </trkpt>
      <trkpt lat="42.9307000" lon="0.8932130">
        <ele>693.9</ele>
        <time>2020-07-29T08:54:04Z</time>
      </trkpt>
      <trkpt lat="42.9306490" lon="0.8933210">
        <ele>693.3</ele>
        <time>2020-07-29T08:54:05Z</time>
      </trkpt>
      <trkpt lat="42.9304880" lon="0.8936710">
        <ele>691.9</ele>
        <time>2020-07-29T08:54:09Z</time>
      </trkpt>
      <trkpt lat="42.9303650" lon="0.8939160">
        <ele>690.9</ele>
        <time>2020-07-29T08:54:11Z</time>
      </trkpt>
      <trkpt lat="42.9302980" lon="0.8940300">
        <ele>690.5</ele>
        <time>2020-07-29T08:54:12Z</time>
      </trkpt>
      <trkpt lat="42.9302230" lon="0.8941360">
        <ele>690.0</ele>
        <time>2020-07-29T08:54:13Z</time>
      </trkpt>
      <trkpt lat="42.9300580" lon="0.8943100">
        <ele>688.9</ele>
        <time>2020-07-29T08:54:15Z</time>
      </trkpt>
      <trkpt lat="42.9299670" lon="0.8943820">
        <ele>688.4</ele>
        <time>2020-07-29T08:54:16Z</time>
      </trkpt>
      <trkpt lat="42.9298720" lon="0.8944440">
        <ele>687.9</ele>
        <time>2020-07-29T08:54:17Z</time>
      </trkpt>
      <trkpt lat="42.9297800" lon="0.8945100">
        <ele>687.5</ele>
        <time>2020-07-29T08:54:18Z</time>
      </trkpt>
      <trkpt lat="42.9294960" lon="0.8946740">
        <ele>686.1</ele>
        <time>2020-07-29T08:54:21Z</time>
      </trkpt>
      <trkpt lat="42.9294070" lon="0.8947050">
        <ele>685.7</ele>
        <time>2020-07-29T08:54:22Z</time>
      </trkpt>
      <trkpt lat="42.9292290" lon="0.8947860">
        <ele>684.9</ele>
        <time>2020-07-29T08:54:24Z</time>
      </trkpt>
      <trkpt lat="42.9290970" lon="0.8948840">
        <ele>684.2</ele>
        <time>2020-07-29T08:54:26Z</time>
      </trkpt>
      <trkpt lat="42.9289620" lon="0.8951150">
        <ele>682.9</ele>
        <time>2020-07-29T08:54:29Z</time>
      </trkpt>
      <trkpt lat="42.9288550" lon="0.8952950">
        <ele>681.7</ele>
        <time>2020-07-29T08:54:31Z</time>
      </trkpt>
      <trkpt lat="42.9287830" lon="0.8955090">
        <ele>681.0</ele>
        <time>2020-07-29T08:54:33Z</time>
      </trkpt>
      <trkpt lat="42.9287100" lon="0.8958420">
        <ele>680.0</ele>
        <time>2020-07-29T08:54:36Z</time>
      </trkpt>
      <trkpt lat="42.9286480" lon="0.8960580">
        <ele>679.4</ele>
        <time>2020-07-29T08:54:38Z</time>
      </trkpt>
      <trkpt lat="42.9285670" lon="0.8963960">
        <ele>678.2</ele>
        <time>2020-07-29T08:54:41Z</time>
      </trkpt>
      <trkpt lat="42.9285580" lon="0.8965180">
        <ele>678.0</ele>
        <time>2020-07-29T08:54:42Z</time>
      </trkpt>
      <trkpt lat="42.9285640" lon="0.8966380">
        <ele>677.8</ele>
        <time>2020-07-29T08:54:43Z</time>
      </trkpt>
      <trkpt lat="42.9286390" lon="0.8969800">
        <ele>677.3</ele>
        <time>2020-07-29T08:54:46Z</time>
      </trkpt>
      <trkpt lat="42.9286710" lon="0.8970910">
        <ele>677.1</ele>
        <time>2020-07-29T08:54:47Z</time>
      </trkpt>
      <trkpt lat="42.9287440" lon="0.8973060">
        <ele>676.9</ele>
        <time>2020-07-29T08:54:49Z</time>
      </trkpt>
      <trkpt lat="42.9289040" lon="0.8975850">
        <ele>676.5</ele>
        <time>2020-07-29T08:54:52Z</time>
      </trkpt>
      <trkpt lat="42.9290220" lon="0.8977460">
        <ele>676.5</ele>
        <time>2020-07-29T08:54:54Z</time>
      </trkpt>
      <trkpt lat="42.9290860" lon="0.8978240">
        <ele>676.5</ele>
        <time>2020-07-29T08:54:55Z</time>
      </trkpt>
      <trkpt lat="42.9291980" lon="0.8979970">
        <ele>676.7</ele>
        <time>2020-07-29T08:54:57Z</time>
      </trkpt>
      <trkpt lat="42.9292420" lon="0.8980900">
        <ele>676.7</ele>
        <time>2020-07-29T08:54:58Z</time>
      </trkpt>
      <trkpt lat="42.9293350" lon="0.8983800">
        <ele>677.2</ele>
        <time>2020-07-29T08:55:01Z</time>
      </trkpt>
      <trkpt lat="42.9293570" lon="0.8984770">
        <ele>677.4</ele>
        <time>2020-07-29T08:55:02Z</time>
      </trkpt>
      <trkpt lat="42.9294210" lon="0.8989370">
        <ele>678.8</ele>
        <time>2020-07-29T08:55:07Z</time>
      </trkpt>
      <trkpt lat="42.9294810" lon="0.8994590">
        <ele>681.1</ele>
        <time>2020-07-29T08:55:14Z</time>
      </trkpt>
      <trkpt lat="42.9294840" lon="0.8996650">
        <ele>682.0</ele>
        <time>2020-07-29T08:55:17Z</time>
      </trkpt>
      <trkpt lat="42.9294720" lon="0.8999110">
        <ele>683.0</ele>
        <time>2020-07-29T08:55:20Z</time>
      </trkpt>
      <trkpt lat="42.9294720" lon="0.8999110">
        <ele>683.0</ele>
        <time>2020-07-29T08:55:21Z</time>
      </trkpt>
      <trkpt lat="42.9294670" lon="0.9000300">
        <ele>683.6</ele>
        <time>2020-07-29T08:55:23Z</time>
      </trkpt>
      <trkpt lat="42.9294550" lon="0.9002440">
        <ele>684.7</ele>
        <time>2020-07-29T08:55:27Z</time>
      </trkpt>
      <trkpt lat="42.9294530" lon="0.9002960">
        <ele>684.9</ele>
        <time>2020-07-29T08:55:28Z</time>
      </trkpt>
      <trkpt lat="42.9294420" lon="0.9004740">
        <ele>685.7</ele>
        <time>2020-07-29T08:55:32Z</time>
      </trkpt>
      <trkpt lat="42.9294460" lon="0.9006070">
        <ele>686.0</ele>
        <time>2020-07-29T08:55:35Z</time>
      </trkpt>
      <trkpt lat="42.9294450" lon="0.9007120">
        <ele>686.2</ele>
        <time>2020-07-29T08:55:37Z</time>
      </trkpt>
      <trkpt lat="42.9294410" lon="0.9009460">
        <ele>686.5</ele>
        <time>2020-07-29T08:55:41Z</time>
      </trkpt>
      <trkpt lat="42.9294400" lon="0.9010100">
        <ele>686.5</ele>
        <time>2020-07-29T08:55:42Z</time>
      </trkpt>
      <trkpt lat="42.9293980" lon="0.9014450">
        <ele>685.4</ele>
        <time>2020-07-29T08:55:48Z</time>
      </trkpt>
      <trkpt lat="42.9293140" lon="0.9017110">
        <ele>684.2</ele>
        <time>2020-07-29T08:55:50Z</time>
      </trkpt>
      <trkpt lat="42.9292730" lon="0.9017980">
        <ele>683.8</ele>
        <time>2020-07-29T08:55:52Z</time>
      </trkpt>
      <trkpt lat="42.9290340" lon="0.9022840">
        <ele>680.4</ele>
        <time>2020-07-29T08:55:57Z</time>
      </trkpt>
      <trkpt lat="42.9289450" lon="0.9025260">
        <ele>678.8</ele>
        <time>2020-07-29T08:55:59Z</time>
      </trkpt>
      <trkpt lat="42.9289070" lon="0.9026540">
        <ele>678.1</ele>
        <time>2020-07-29T08:56:00Z</time>
      </trkpt>
      <trkpt lat="42.9288590" lon="0.9029200">
        <ele>676.7</ele>
        <time>2020-07-29T08:56:02Z</time>
      </trkpt>
      <trkpt lat="42.9288470" lon="0.9031980">
        <ele>675.4</ele>
        <time>2020-07-29T08:56:04Z</time>
      </trkpt>
      <trkpt lat="42.9288730" lon="0.9034620">
        <ele>674.4</ele>
        <time>2020-07-29T08:56:06Z</time>
      </trkpt>
      <trkpt lat="42.9289560" lon="0.9036860">
        <ele>673.4</ele>
        <time>2020-07-29T08:56:08Z</time>
      </trkpt>
      <trkpt lat="42.9290150" lon="0.9038030">
        <ele>672.9</ele>
        <time>2020-07-29T08:56:09Z</time>
      </trkpt>
      <trkpt lat="42.9290800" lon="0.9039140">
        <ele>672.4</ele>
        <time>2020-07-29T08:56:10Z</time>
      </trkpt>
      <trkpt lat="42.9292270" lon="0.9041130">
        <ele>671.4</ele>
        <time>2020-07-29T08:56:12Z</time>
      </trkpt>
      <trkpt lat="42.9293050" lon="0.9042060">
        <ele>670.9</ele>
        <time>2020-07-29T08:56:13Z</time>
      </trkpt>
      <trkpt lat="42.9293900" lon="0.9042880">
        <ele>670.4</ele>
        <time>2020-07-29T08:56:14Z</time>
      </trkpt>
      <trkpt lat="42.9296460" lon="0.9045210">
        <ele>669.1</ele>
        <time>2020-07-29T08:56:16Z</time>
      </trkpt>
      <trkpt lat="42.9297290" lon="0.9046010">
        <ele>668.8</ele>
        <time>2020-07-29T08:56:18Z</time>
      </trkpt>
      <trkpt lat="42.9300270" lon="0.9049390">
        <ele>667.9</ele>
        <time>2020-07-29T08:56:22Z</time>
      </trkpt>
      <trkpt lat="42.9300780" lon="0.9050440">
        <ele>667.8</ele>
        <time>2020-07-29T08:56:23Z</time>
      </trkpt>
      <trkpt lat="42.9301080" lon="0.9052680">
        <ele>667.9</ele>
        <time>2020-07-29T08:56:25Z</time>
      </trkpt>
      <trkpt lat="42.9300900" lon="0.9053720">
        <ele>667.9</ele>
        <time>2020-07-29T08:56:26Z</time>
      </trkpt>
      <trkpt lat="42.9300060" lon="0.9055510">
        <ele>668.1</ele>
        <time>2020-07-29T08:56:28Z</time>
      </trkpt>
      <trkpt lat="42.9296360" lon="0.9061660">
        <ele>669.7</ele>
        <time>2020-07-29T08:56:35Z</time>
      </trkpt>
      <trkpt lat="42.9294600" lon="0.9065020">
        <ele>671.4</ele>
        <time>2020-07-29T08:56:41Z</time>
      </trkpt>
      <trkpt lat="42.9294380" lon="0.9065670">
        <ele>671.7</ele>
        <time>2020-07-29T08:56:42Z</time>
      </trkpt>
      <trkpt lat="42.9294020" lon="0.9067020">
        <ele>672.6</ele>
        <time>2020-07-29T08:56:44Z</time>
      </trkpt>
      <trkpt lat="42.9293910" lon="0.9067670">
        <ele>672.9</ele>
        <time>2020-07-29T08:56:45Z</time>
      </trkpt>
      <trkpt lat="42.9293710" lon="0.9068850">
        <ele>673.5</ele>
        <time>2020-07-29T08:56:47Z</time>
      </trkpt>
      <trkpt lat="42.9293650" lon="0.9070210">
        <ele>674.2</ele>
        <time>2020-07-29T08:56:50Z</time>
      </trkpt>
      <trkpt lat="42.9293720" lon="0.9070590">
        <ele>674.4</ele>
        <time>2020-07-29T08:56:51Z</time>
      </trkpt>
      <trkpt lat="42.9293940" lon="0.9071440">
        <ele>674.7</ele>
        <time>2020-07-29T08:56:53Z</time>
      </trkpt>
      <trkpt lat="42.9294310" lon="0.9072310">
        <ele>675.0</ele>
        <time>2020-07-29T08:56:55Z</time>
      </trkpt>
      <trkpt lat="42.9294560" lon="0.9072780">
        <ele>675.1</ele>
        <time>2020-07-29T08:56:56Z</time>
      </trkpt>
      <trkpt lat="42.9294820" lon="0.9073310">
        <ele>675.2</ele>
        <time>2020-07-29T08:56:57Z</time>
      </trkpt>
      <trkpt lat="42.9296000" lon="0.9075940">
        <ele>675.2</ele>
        <time>2020-07-29T08:57:01Z</time>
      </trkpt>
      <trkpt lat="42.9296390" lon="0.9076760">
        <ele>675.1</ele>
        <time>2020-07-29T08:57:02Z</time>
      </trkpt>
      <trkpt lat="42.9296830" lon="0.9078670">
        <ele>674.7</ele>
        <time>2020-07-29T08:57:04Z</time>
      </trkpt>
      <trkpt lat="42.9296690" lon="0.9081680">
        <ele>674.5</ele>
        <time>2020-07-29T08:57:07Z</time>
      </trkpt>
      <trkpt lat="42.9296310" lon="0.9083730">
        <ele>674.4</ele>
        <time>2020-07-29T08:57:09Z</time>
      </trkpt>
      <trkpt lat="42.9295600" lon="0.9086350">
        <ele>674.3</ele>
        <time>2020-07-29T08:57:12Z</time>
      </trkpt>
      <trkpt lat="42.9294020" lon="0.9090680">
        <ele>674.3</ele>
        <time>2020-07-29T08:57:17Z</time>
      </trkpt>
      <trkpt lat="42.9293410" lon="0.9092470">
        <ele>674.4</ele>
        <time>2020-07-29T08:57:19Z</time>
      </trkpt>
      <trkpt lat="42.9290980" lon="0.9097930">
        <ele>675.2</ele>
        <time>2020-07-29T08:57:25Z</time>
      </trkpt>
      <trkpt lat="42.9289060" lon="0.9101320">
        <ele>675.6</ele>
        <time>2020-07-29T08:57:30Z</time>
      </trkpt>
      <trkpt lat="42.9288760" lon="0.9102060">
        <ele>675.6</ele>
        <time>2020-07-29T08:57:32Z</time>
      </trkpt>
      <trkpt lat="42.9288530" lon="0.9102860">
        <ele>675.5</ele>
        <time>2020-07-29T08:57:33Z</time>
      </trkpt>
      <trkpt lat="42.9288300" lon="0.9106530">
        <ele>674.3</ele>
        <time>2020-07-29T08:57:37Z</time>
      </trkpt>
      <trkpt lat="42.9288420" lon="0.9107590">
        <ele>673.8</ele>
        <time>2020-07-29T08:57:38Z</time>
      </trkpt>
      <trkpt lat="42.9289200" lon="0.9112280">
        <ele>671.6</ele>
        <time>2020-07-29T08:57:42Z</time>
      </trkpt>
      <trkpt lat="42.9289750" lon="0.9118960">
        <ele>669.1</ele>
        <time>2020-07-29T08:57:47Z</time>
      </trkpt>
      <trkpt lat="42.9289940" lon="0.9121610">
        <ele>668.2</ele>
        <time>2020-07-29T08:57:49Z</time>
      </trkpt>
      <trkpt lat="42.9290320" lon="0.9124230">
        <ele>667.0</ele>
        <time>2020-07-29T08:57:51Z</time>
      </trkpt>
      <trkpt lat="42.9290700" lon="0.9125500">
        <ele>666.3</ele>
        <time>2020-07-29T08:57:52Z</time>
      </trkpt>
      <trkpt lat="42.9291140" lon="0.9126740">
        <ele>665.4</ele>
        <time>2020-07-29T08:57:53Z</time>
      </trkpt>
      <trkpt lat="42.9292010" lon="0.9129310">
        <ele>663.6</ele>
        <time>2020-07-29T08:57:55Z</time>
      </trkpt>
      <trkpt lat="42.9292330" lon="0.9130800">
        <ele>662.7</ele>
        <time>2020-07-29T08:57:56Z</time>
      </trkpt>
      <trkpt lat="42.9292570" lon="0.9132290">
        <ele>661.8</ele>
        <time>2020-07-29T08:57:57Z</time>
      </trkpt>
      <trkpt lat="42.9292690" lon="0.9138680">
        <ele>658.3</ele>
        <time>2020-07-29T08:58:00Z</time>
      </trkpt>
      <trkpt lat="42.9292690" lon="0.9140290">
        <ele>657.3</ele>
        <time>2020-07-29T08:58:01Z</time>
      </trkpt>
      <trkpt lat="42.9292690" lon="0.9141890">
        <ele>656.3</ele>
        <time>2020-07-29T08:58:03Z</time>
      </trkpt>
      <trkpt lat="42.9292820" lon="0.9143330">
        <ele>655.3</ele>
        <time>2020-07-29T08:58:04Z</time>
      </trkpt>
      <trkpt lat="42.9293090" lon="0.9144730">
        <ele>654.2</ele>
        <time>2020-07-29T08:58:05Z</time>
      </trkpt>
      <trkpt lat="42.9293530" lon="0.9146100">
        <ele>652.9</ele>
        <time>2020-07-29T08:58:06Z</time>
      </trkpt>
      <trkpt lat="42.9295700" lon="0.9149790">
        <ele>648.8</ele>
        <time>2020-07-29T08:58:08Z</time>
      </trkpt>
      <trkpt lat="42.9296590" lon="0.9150990">
        <ele>647.6</ele>
        <time>2020-07-29T08:58:09Z</time>
      </trkpt>
      <trkpt lat="42.9297470" lon="0.9152190">
        <ele>646.6</ele>
        <time>2020-07-29T08:58:11Z</time>
      </trkpt>
      <trkpt lat="42.9299430" lon="0.9154590">
        <ele>644.8</ele>
        <time>2020-07-29T08:58:13Z</time>
      </trkpt>
      <trkpt lat="42.9300520" lon="0.9155520">
        <ele>644.1</ele>
        <time>2020-07-29T08:58:14Z</time>
      </trkpt>
      <trkpt lat="42.9301640" lon="0.9156250">
        <ele>643.5</ele>
        <time>2020-07-29T08:58:15Z</time>
      </trkpt>
      <trkpt lat="42.9302780" lon="0.9156860">
        <ele>643.0</ele>
        <time>2020-07-29T08:58:16Z</time>
      </trkpt>
      <trkpt lat="42.9303940" lon="0.9157330">
        <ele>642.5</ele>
        <time>2020-07-29T08:58:17Z</time>
      </trkpt>
      <trkpt lat="42.9305110" lon="0.9157650">
        <ele>642.2</ele>
        <time>2020-07-29T08:58:18Z</time>
      </trkpt>
      <trkpt lat="42.9306280" lon="0.9157890">
        <ele>641.9</ele>
        <time>2020-07-29T08:58:19Z</time>
      </trkpt>
      <trkpt lat="42.9307430" lon="0.9158120">
        <ele>641.6</ele>
        <time>2020-07-29T08:58:20Z</time>
      </trkpt>
      <trkpt lat="42.9309720" lon="0.9158620">
        <ele>641.1</ele>
        <time>2020-07-29T08:58:22Z</time>
      </trkpt>
      <trkpt lat="42.9313010" lon="0.9159650">
        <ele>640.2</ele>
        <time>2020-07-29T08:58:25Z</time>
      </trkpt>
      <trkpt lat="42.9316160" lon="0.9160830">
        <ele>639.5</ele>
        <time>2020-07-29T08:58:28Z</time>
      </trkpt>
      <trkpt lat="42.9317140" lon="0.9161350">
        <ele>639.2</ele>
        <time>2020-07-29T08:58:29Z</time>
      </trkpt>
      <trkpt lat="42.9319740" lon="0.9163580">
        <ele>638.9</ele>
        <time>2020-07-29T08:58:32Z</time>
      </trkpt>
      <trkpt lat="42.9321480" lon="0.9166810">
        <ele>638.7</ele>
        <time>2020-07-29T08:58:35Z</time>
      </trkpt>
      <trkpt lat="42.9321980" lon="0.9170540">
        <ele>638.2</ele>
        <time>2020-07-29T08:58:38Z</time>
      </trkpt>
      <trkpt lat="42.9321610" lon="0.9174160">
        <ele>638.0</ele>
        <time>2020-07-29T08:58:41Z</time>
      </trkpt>
      <trkpt lat="42.9321500" lon="0.9175370">
        <ele>638.0</ele>
        <time>2020-07-29T08:58:42Z</time>
      </trkpt>
      <trkpt lat="42.9321670" lon="0.9181230">
        <ele>638.0</ele>
        <time>2020-07-29T08:58:47Z</time>
      </trkpt>
      <trkpt lat="42.9322610" lon="0.9187830">
        <ele>637.7</ele>
        <time>2020-07-29T08:58:53Z</time>
      </trkpt>
      <trkpt lat="42.9324210" lon="0.9194910">
        <ele>637.6</ele>
        <time>2020-07-29T08:59:00Z</time>
      </trkpt>
      <trkpt lat="42.9324500" lon="0.9195870">
        <ele>637.6</ele>
        <time>2020-07-29T08:59:01Z</time>
      </trkpt>
      <trkpt lat="42.9325970" lon="0.9201190">
        <ele>638.4</ele>
        <time>2020-07-29T08:59:07Z</time>
      </trkpt>
      <trkpt lat="42.9326670" lon="0.9206450">
        <ele>637.8</ele>
        <time>2020-07-29T08:59:13Z</time>
      </trkpt>
      <trkpt lat="42.9326540" lon="0.9212830">
        <ele>636.5</ele>
        <time>2020-07-29T08:59:19Z</time>
      </trkpt>
      <trkpt lat="42.9326000" lon="0.9219620">
        <ele>635.5</ele>
        <time>2020-07-29T08:59:25Z</time>
      </trkpt>
      <trkpt lat="42.9325480" lon="0.9222930">
        <ele>634.8</ele>
        <time>2020-07-29T08:59:28Z</time>
      </trkpt>
      <trkpt lat="42.9324720" lon="0.9227070">
        <ele>634.1</ele>
        <time>2020-07-29T08:59:32Z</time>
      </trkpt>
      <trkpt lat="42.9324340" lon="0.9229040">
        <ele>633.9</ele>
        <time>2020-07-29T08:59:34Z</time>
      </trkpt>
      <trkpt lat="42.9323710" lon="0.9232050">
        <ele>633.6</ele>
        <time>2020-07-29T08:59:37Z</time>
      </trkpt>
      <trkpt lat="42.9323210" lon="0.9233990">
        <ele>633.5</ele>
        <time>2020-07-29T08:59:39Z</time>
      </trkpt>
      <trkpt lat="42.9321770" lon="0.9240870">
        <ele>633.1</ele>
        <time>2020-07-29T08:59:46Z</time>
      </trkpt>
      <trkpt lat="42.9320620" lon="0.9248430">
        <ele>632.8</ele>
        <time>2020-07-29T08:59:54Z</time>
      </trkpt>
      <trkpt lat="42.9320360" lon="0.9250320">
        <ele>632.9</ele>
        <time>2020-07-29T08:59:56Z</time>
      </trkpt>
      <trkpt lat="42.9319820" lon="0.9256570">
        <ele>633.1</ele>
        <time>2020-07-29T09:00:03Z</time>
      </trkpt>
      <trkpt lat="42.9319220" lon="0.9261750">
        <ele>634.5</ele>
        <time>2020-07-29T09:00:10Z</time>
      </trkpt>
      <trkpt lat="42.9318530" lon="0.9265010">
        <ele>635.7</ele>
        <time>2020-07-29T09:00:15Z</time>
      </trkpt>
      <trkpt lat="42.9318480" lon="0.9266970">
        <ele>636.3</ele>
        <time>2020-07-29T09:00:18Z</time>
      </trkpt>
      <trkpt lat="42.9318730" lon="0.9268260">
        <ele>636.7</ele>
        <time>2020-07-29T09:00:20Z</time>
      </trkpt>
      <trkpt lat="42.9319400" lon="0.9270180">
        <ele>637.2</ele>
        <time>2020-07-29T09:00:23Z</time>
      </trkpt>
      <trkpt lat="42.9320090" lon="0.9272480">
        <ele>637.9</ele>
        <time>2020-07-29T09:00:26Z</time>
      </trkpt>
      <trkpt lat="42.9320340" lon="0.9274710">
        <ele>638.5</ele>
        <time>2020-07-29T09:00:29Z</time>
      </trkpt>
      <trkpt lat="42.9319650" lon="0.9276560">
        <ele>639.0</ele>
        <time>2020-07-29T09:00:32Z</time>
      </trkpt>
      <trkpt lat="42.9318970" lon="0.9277480">
        <ele>639.4</ele>
        <time>2020-07-29T09:00:34Z</time>
      </trkpt>
      <trkpt lat="42.9318020" lon="0.9278690">
        <ele>640.0</ele>
        <time>2020-07-29T09:00:37Z</time>
      </trkpt>
      <trkpt lat="42.9317740" lon="0.9279100">
        <ele>640.1</ele>
        <time>2020-07-29T09:00:38Z</time>
      </trkpt>
      <trkpt lat="42.9315610" lon="0.9281480">
        <ele>641.4</ele>
        <time>2020-07-29T09:00:45Z</time>
      </trkpt>
      <trkpt lat="42.9314410" lon="0.9282680">
        <ele>642.0</ele>
        <time>2020-07-29T09:00:49Z</time>
      </trkpt>
      <trkpt lat="42.9313420" lon="0.9283550">
        <ele>642.5</ele>
        <time>2020-07-29T09:00:52Z</time>
      </trkpt>
      <trkpt lat="42.9312270" lon="0.9284420">
        <ele>643.0</ele>
        <time>2020-07-29T09:00:55Z</time>
      </trkpt>
      <trkpt lat="42.9311140" lon="0.9285000">
        <ele>643.6</ele>
        <time>2020-07-29T09:00:58Z</time>
      </trkpt>
      <trkpt lat="42.9310770" lon="0.9285130">
        <ele>643.8</ele>
        <time>2020-07-29T09:00:59Z</time>
      </trkpt>
      <trkpt lat="42.9308830" lon="0.9285450">
        <ele>645.0</ele>
        <time>2020-07-29T09:01:05Z</time>
      </trkpt>
      <trkpt lat="42.9308140" lon="0.9285590">
        <ele>645.4</ele>
        <time>2020-07-29T09:01:07Z</time>
      </trkpt>
      <trkpt lat="42.9306180" lon="0.9286120">
        <ele>646.5</ele>
        <time>2020-07-29T09:01:12Z</time>
      </trkpt>
      <trkpt lat="42.9304250" lon="0.9287010">
        <ele>647.4</ele>
        <time>2020-07-29T09:01:16Z</time>
      </trkpt>
      <trkpt lat="42.9302860" lon="0.9287710">
        <ele>648.1</ele>
        <time>2020-07-29T09:01:19Z</time>
      </trkpt>
      <trkpt lat="42.9301020" lon="0.9288830">
        <ele>649.0</ele>
        <time>2020-07-29T09:01:23Z</time>
      </trkpt>
      <trkpt lat="42.9299830" lon="0.9289880">
        <ele>649.6</ele>
        <time>2020-07-29T09:01:26Z</time>
      </trkpt>
      <trkpt lat="42.9299120" lon="0.9290740">
        <ele>650.0</ele>
        <time>2020-07-29T09:01:28Z</time>
      </trkpt>
      <trkpt lat="42.9298830" lon="0.9291230">
        <ele>650.1</ele>
        <time>2020-07-29T09:01:29Z</time>
      </trkpt>
      <trkpt lat="42.9298330" lon="0.9292270">
        <ele>650.5</ele>
        <time>2020-07-29T09:01:31Z</time>
      </trkpt>
      <trkpt lat="42.9297870" lon="0.9293970">
        <ele>651.0</ele>
        <time>2020-07-29T09:01:34Z</time>
      </trkpt>
      <trkpt lat="42.9297760" lon="0.9295110">
        <ele>651.4</ele>
        <time>2020-07-29T09:01:36Z</time>
      </trkpt>
      <trkpt lat="42.9297740" lon="0.9296230">
        <ele>651.7</ele>
        <time>2020-07-29T09:01:38Z</time>
      </trkpt>
      <trkpt lat="42.9298080" lon="0.9298960">
        <ele>652.6</ele>
        <time>2020-07-29T09:01:43Z</time>
      </trkpt>
      <trkpt lat="42.9298910" lon="0.9301550">
        <ele>653.4</ele>
        <time>2020-07-29T09:01:48Z</time>
      </trkpt>
      <trkpt lat="42.9299330" lon="0.9302520">
        <ele>653.8</ele>
        <time>2020-07-29T09:01:50Z</time>
      </trkpt>
      <trkpt lat="42.9300190" lon="0.9304370">
        <ele>654.4</ele>
        <time>2020-07-29T09:01:54Z</time>
      </trkpt>
      <trkpt lat="42.9300660" lon="0.9305310">
        <ele>654.6</ele>
        <time>2020-07-29T09:01:56Z</time>
      </trkpt>
      <trkpt lat="42.9301200" lon="0.9306260">
        <ele>654.8</ele>
        <time>2020-07-29T09:01:58Z</time>
      </trkpt>
      <trkpt lat="42.9302260" lon="0.9308090">
        <ele>655.0</ele>
        <time>2020-07-29T09:02:02Z</time>
      </trkpt>
      <trkpt lat="42.9302590" lon="0.9308540">
        <ele>655.1</ele>
        <time>2020-07-29T09:02:03Z</time>
      </trkpt>
      <trkpt lat="42.9303270" lon="0.9309490">
        <ele>655.2</ele>
        <time>2020-07-29T09:02:05Z</time>
      </trkpt>
      <trkpt lat="42.9303600" lon="0.9310040">
        <ele>655.2</ele>
        <time>2020-07-29T09:02:06Z</time>
      </trkpt>
      <trkpt lat="42.9304520" lon="0.9311820">
        <ele>655.3</ele>
        <time>2020-07-29T09:02:09Z</time>
      </trkpt>
      <trkpt lat="42.9307000" lon="0.9316050">
        <ele>655.6</ele>
        <time>2020-07-29T09:02:16Z</time>
      </trkpt>
      <trkpt lat="42.9309240" lon="0.9319700">
        <ele>655.5</ele>
        <time>2020-07-29T09:02:22Z</time>
      </trkpt>
      <trkpt lat="42.9310520" lon="0.9321500">
        <ele>655.3</ele>
        <time>2020-07-29T09:02:25Z</time>
      </trkpt>
      <trkpt lat="42.9313620" lon="0.9325100">
        <ele>654.5</ele>
        <time>2020-07-29T09:02:31Z</time>
      </trkpt>
      <trkpt lat="42.9318320" lon="0.9329920">
        <ele>653.2</ele>
        <time>2020-07-29T09:02:39Z</time>
      </trkpt>
      <trkpt lat="42.9318940" lon="0.9330500">
        <ele>653.1</ele>
        <time>2020-07-29T09:02:40Z</time>
      </trkpt>
      <trkpt lat="42.9320800" lon="0.9332360">
        <ele>652.7</ele>
        <time>2020-07-29T09:02:43Z</time>
      </trkpt>
      <trkpt lat="42.9322520" lon="0.9334610">
        <ele>652.5</ele>
        <time>2020-07-29T09:02:46Z</time>
      </trkpt>
      <trkpt lat="42.9324760" lon="0.9338750">
        <ele>652.8</ele>
        <time>2020-07-29T09:02:51Z</time>
      </trkpt>
      <trkpt lat="42.9325170" lon="0.9339560">
        <ele>652.9</ele>
        <time>2020-07-29T09:02:52Z</time>
      </trkpt>
      <trkpt lat="42.9327100" lon="0.9343290">
        <ele>653.4</ele>
        <time>2020-07-29T09:02:57Z</time>
      </trkpt>
      <trkpt lat="42.9329570" lon="0.9348020">
        <ele>653.7</ele>
        <time>2020-07-29T09:03:04Z</time>
      </trkpt>
      <trkpt lat="42.9330250" lon="0.9349370">
        <ele>653.8</ele>
        <time>2020-07-29T09:03:06Z</time>
      </trkpt>
      <trkpt lat="42.9332190" lon="0.9353250">
        <ele>654.3</ele>
        <time>2020-07-29T09:03:12Z</time>
      </trkpt>
      <trkpt lat="42.9333930" lon="0.9356460">
        <ele>654.8</ele>
        <time>2020-07-29T09:03:17Z</time>
      </trkpt>
      <trkpt lat="42.9334890" lon="0.9358430">
        <ele>655.3</ele>
        <time>2020-07-29T09:03:20Z</time>
      </trkpt>
      <trkpt lat="42.9337560" lon="0.9363550">
        <ele>656.6</ele>
        <time>2020-07-29T09:03:28Z</time>
      </trkpt>
      <trkpt lat="42.9337880" lon="0.9364150">
        <ele>656.8</ele>
        <time>2020-07-29T09:03:29Z</time>
      </trkpt>
      <trkpt lat="42.9339980" lon="0.9368700">
        <ele>657.5</ele>
        <time>2020-07-29T09:03:36Z</time>
      </trkpt>
      <trkpt lat="42.9340440" lon="0.9370090">
        <ele>657.4</ele>
        <time>2020-07-29T09:03:38Z</time>
      </trkpt>
      <trkpt lat="42.9340980" lon="0.9372390">
        <ele>656.7</ele>
        <time>2020-07-29T09:03:41Z</time>
      </trkpt>
      <trkpt lat="42.9341620" lon="0.9377840">
        <ele>654.4</ele>
        <time>2020-07-29T09:03:47Z</time>
      </trkpt>
      <trkpt lat="42.9342170" lon="0.9384430">
        <ele>651.8</ele>
        <time>2020-07-29T09:03:53Z</time>
      </trkpt>
      <trkpt lat="42.9342520" lon="0.9388120">
        <ele>650.2</ele>
        <time>2020-07-29T09:03:56Z</time>
      </trkpt>
      <trkpt lat="42.9342630" lon="0.9390630">
        <ele>649.2</ele>
        <time>2020-07-29T09:03:58Z</time>
      </trkpt>
      <trkpt lat="42.9342700" lon="0.9391930">
        <ele>648.6</ele>
        <time>2020-07-29T09:03:59Z</time>
      </trkpt>
      <trkpt lat="42.9342960" lon="0.9395940">
        <ele>646.8</ele>
        <time>2020-07-29T09:04:02Z</time>
      </trkpt>
      <trkpt lat="42.9343320" lon="0.9398660">
        <ele>645.3</ele>
        <time>2020-07-29T09:04:04Z</time>
      </trkpt>
      <trkpt lat="42.9343610" lon="0.9400000">
        <ele>644.6</ele>
        <time>2020-07-29T09:04:05Z</time>
      </trkpt>
      <trkpt lat="42.9343970" lon="0.9401330">
        <ele>643.8</ele>
        <time>2020-07-29T09:04:06Z</time>
      </trkpt>
      <trkpt lat="42.9344810" lon="0.9403990">
        <ele>642.4</ele>
        <time>2020-07-29T09:04:08Z</time>
      </trkpt>
      <trkpt lat="42.9345800" lon="0.9406650">
        <ele>640.8</ele>
        <time>2020-07-29T09:04:10Z</time>
      </trkpt>
      <trkpt lat="42.9346340" lon="0.9407960">
        <ele>640.2</ele>
        <time>2020-07-29T09:04:11Z</time>
      </trkpt>
      <trkpt lat="42.9347490" lon="0.9410440">
        <ele>639.7</ele>
        <time>2020-07-29T09:04:13Z</time>
      </trkpt>
      <trkpt lat="42.9348680" lon="0.9412460">
        <ele>638.8</ele>
        <time>2020-07-29T09:04:15Z</time>
      </trkpt>
      <trkpt lat="42.9350180" lon="0.9413860">
        <ele>637.7</ele>
        <time>2020-07-29T09:04:17Z</time>
      </trkpt>
      <trkpt lat="42.9351150" lon="0.9414140">
        <ele>637.1</ele>
        <time>2020-07-29T09:04:18Z</time>
      </trkpt>
      <trkpt lat="42.9352180" lon="0.9414290">
        <ele>636.5</ele>
        <time>2020-07-29T09:04:19Z</time>
      </trkpt>
      <trkpt lat="42.9354310" lon="0.9414400">
        <ele>635.3</ele>
        <time>2020-07-29T09:04:21Z</time>
      </trkpt>
      <trkpt lat="42.9355420" lon="0.9414360">
        <ele>634.8</ele>
        <time>2020-07-29T09:04:22Z</time>
      </trkpt>
      <trkpt lat="42.9358680" lon="0.9413860">
        <ele>633.6</ele>
        <time>2020-07-29T09:04:25Z</time>
      </trkpt>
      <trkpt lat="42.9359650" lon="0.9413890">
        <ele>633.4</ele>
        <time>2020-07-29T09:04:26Z</time>
      </trkpt>
      <trkpt lat="42.9361160" lon="0.9415080">
        <ele>633.1</ele>
        <time>2020-07-29T09:04:28Z</time>
      </trkpt>
      <trkpt lat="42.9361700" lon="0.9417250">
        <ele>633.3</ele>
        <time>2020-07-29T09:04:30Z</time>
      </trkpt>
      <trkpt lat="42.9361300" lon="0.9419550">
        <ele>632.3</ele>
        <time>2020-07-29T09:04:32Z</time>
      </trkpt>
      <trkpt lat="42.9360880" lon="0.9420630">
        <ele>631.8</ele>
        <time>2020-07-29T09:04:33Z</time>
      </trkpt>
      <trkpt lat="42.9360430" lon="0.9421650">
        <ele>631.3</ele>
        <time>2020-07-29T09:04:34Z</time>
      </trkpt>
      <trkpt lat="42.9359440" lon="0.9423760">
        <ele>630.3</ele>
        <time>2020-07-29T09:04:36Z</time>
      </trkpt>
      <trkpt lat="42.9357960" lon="0.9427110">
        <ele>628.9</ele>
        <time>2020-07-29T09:04:39Z</time>
      </trkpt>
      <trkpt lat="42.9354900" lon="0.9433830">
        <ele>626.5</ele>
        <time>2020-07-29T09:04:45Z</time>
      </trkpt>
      <trkpt lat="42.9354370" lon="0.9434850">
        <ele>626.1</ele>
        <time>2020-07-29T09:04:46Z</time>
      </trkpt>
      <trkpt lat="42.9353470" lon="0.9436990">
        <ele>625.3</ele>
        <time>2020-07-29T09:04:48Z</time>
      </trkpt>
      <trkpt lat="42.9353120" lon="0.9438130">
        <ele>624.8</ele>
        <time>2020-07-29T09:04:49Z</time>
      </trkpt>
      <trkpt lat="42.9352810" lon="0.9439260">
        <ele>624.4</ele>
        <time>2020-07-29T09:04:50Z</time>
      </trkpt>
      <trkpt lat="42.9352550" lon="0.9440460">
        <ele>623.9</ele>
        <time>2020-07-29T09:04:51Z</time>
      </trkpt>
      <trkpt lat="42.9352280" lon="0.9444360">
        <ele>623.0</ele>
        <time>2020-07-29T09:04:54Z</time>
      </trkpt>
      <trkpt lat="42.9352620" lon="0.9446930">
        <ele>622.7</ele>
        <time>2020-07-29T09:04:56Z</time>
      </trkpt>
      <trkpt lat="42.9353180" lon="0.9451110">
        <ele>623.0</ele>
        <time>2020-07-29T09:04:59Z</time>
      </trkpt>
      <trkpt lat="42.9353280" lon="0.9452560">
        <ele>622.4</ele>
        <time>2020-07-29T09:05:00Z</time>
      </trkpt>
      <trkpt lat="42.9353620" lon="0.9456780">
        <ele>620.7</ele>
        <time>2020-07-29T09:05:03Z</time>
      </trkpt>
      <trkpt lat="42.9353840" lon="0.9458210">
        <ele>620.2</ele>
        <time>2020-07-29T09:05:04Z</time>
      </trkpt>
      <trkpt lat="42.9354130" lon="0.9459610">
        <ele>619.6</ele>
        <time>2020-07-29T09:05:05Z</time>
      </trkpt>
      <trkpt lat="42.9355440" lon="0.9463640">
        <ele>617.9</ele>
        <time>2020-07-29T09:05:08Z</time>
      </trkpt>
      <trkpt lat="42.9356020" lon="0.9464880">
        <ele>617.4</ele>
        <time>2020-07-29T09:05:09Z</time>
      </trkpt>
      <trkpt lat="42.9356670" lon="0.9466050">
        <ele>616.9</ele>
        <time>2020-07-29T09:05:10Z</time>
      </trkpt>
      <trkpt lat="42.9358100" lon="0.9468230">
        <ele>615.9</ele>
        <time>2020-07-29T09:05:12Z</time>
      </trkpt>
      <trkpt lat="42.9358860" lon="0.9469230">
        <ele>615.4</ele>
        <time>2020-07-29T09:05:13Z</time>
      </trkpt>
      <trkpt lat="42.9360590" lon="0.9470990">
        <ele>614.2</ele>
        <time>2020-07-29T09:05:15Z</time>
      </trkpt>
      <trkpt lat="42.9362580" lon="0.9472500">
        <ele>612.9</ele>
        <time>2020-07-29T09:05:17Z</time>
      </trkpt>
      <trkpt lat="42.9364550" lon="0.9474080">
        <ele>611.6</ele>
        <time>2020-07-29T09:05:19Z</time>
      </trkpt>
      <trkpt lat="42.9367650" lon="0.9476350">
        <ele>609.5</ele>
        <time>2020-07-29T09:05:22Z</time>
      </trkpt>
      <trkpt lat="42.9369620" lon="0.9478070">
        <ele>608.1</ele>
        <time>2020-07-29T09:05:24Z</time>
      </trkpt>
      <trkpt lat="42.9370440" lon="0.9479150">
        <ele>607.3</ele>
        <time>2020-07-29T09:05:25Z</time>
      </trkpt>
      <trkpt lat="42.9371150" lon="0.9480380">
        <ele>606.6</ele>
        <time>2020-07-29T09:05:26Z</time>
      </trkpt>
      <trkpt lat="42.9372170" lon="0.9483290">
        <ele>605.0</ele>
        <time>2020-07-29T09:05:28Z</time>
      </trkpt>
      <trkpt lat="42.9372490" lon="0.9484890">
        <ele>604.1</ele>
        <time>2020-07-29T09:05:29Z</time>
      </trkpt>
      <trkpt lat="42.9372760" lon="0.9486490">
        <ele>603.2</ele>
        <time>2020-07-29T09:05:30Z</time>
      </trkpt>
      <trkpt lat="42.9373310" lon="0.9489820">
        <ele>601.4</ele>
        <time>2020-07-29T09:05:32Z</time>
      </trkpt>
      <trkpt lat="42.9373910" lon="0.9493240">
        <ele>599.6</ele>
        <time>2020-07-29T09:05:34Z</time>
      </trkpt>
      <trkpt lat="42.9374200" lon="0.9495000">
        <ele>598.6</ele>
        <time>2020-07-29T09:05:35Z</time>
      </trkpt>
      <trkpt lat="42.9374460" lon="0.9496700">
        <ele>597.7</ele>
        <time>2020-07-29T09:05:36Z</time>
      </trkpt>
      <trkpt lat="42.9374840" lon="0.9500100">
        <ele>595.9</ele>
        <time>2020-07-29T09:05:38Z</time>
      </trkpt>
      <trkpt lat="42.9374950" lon="0.9501820">
        <ele>595.0</ele>
        <time>2020-07-29T09:05:39Z</time>
      </trkpt>
      <trkpt lat="42.9374980" lon="0.9503530">
        <ele>594.1</ele>
        <time>2020-07-29T09:05:40Z</time>
      </trkpt>
      <trkpt lat="42.9374930" lon="0.9506830">
        <ele>592.4</ele>
        <time>2020-07-29T09:05:42Z</time>
      </trkpt>
      <trkpt lat="42.9374950" lon="0.9508460">
        <ele>591.6</ele>
        <time>2020-07-29T09:05:43Z</time>
      </trkpt>
      <trkpt lat="42.9375120" lon="0.9510110">
        <ele>590.9</ele>
        <time>2020-07-29T09:05:44Z</time>
      </trkpt>
      <trkpt lat="42.9375460" lon="0.9511750">
        <ele>590.1</ele>
        <time>2020-07-29T09:05:45Z</time>
      </trkpt>
      <trkpt lat="42.9376680" lon="0.9514680">
        <ele>588.8</ele>
        <time>2020-07-29T09:05:47Z</time>
      </trkpt>
      <trkpt lat="42.9377420" lon="0.9516090">
        <ele>588.2</ele>
        <time>2020-07-29T09:05:48Z</time>
      </trkpt>
      <trkpt lat="42.9378140" lon="0.9517380">
        <ele>587.6</ele>
        <time>2020-07-29T09:05:49Z</time>
      </trkpt>
      <trkpt lat="42.9378730" lon="0.9518820">
        <ele>587.0</ele>
        <time>2020-07-29T09:05:50Z</time>
      </trkpt>
      <trkpt lat="42.9379220" lon="0.9520360">
        <ele>586.4</ele>
        <time>2020-07-29T09:05:51Z</time>
      </trkpt>
      <trkpt lat="42.9379580" lon="0.9521970">
        <ele>585.9</ele>
        <time>2020-07-29T09:05:52Z</time>
      </trkpt>
      <trkpt lat="42.9379980" lon="0.9525160">
        <ele>584.9</ele>
        <time>2020-07-29T09:05:54Z</time>
      </trkpt>
      <trkpt lat="42.9379870" lon="0.9528250">
        <ele>584.1</ele>
        <time>2020-07-29T09:05:56Z</time>
      </trkpt>
      <trkpt lat="42.9379620" lon="0.9529780">
        <ele>583.8</ele>
        <time>2020-07-29T09:05:57Z</time>
      </trkpt>
      <trkpt lat="42.9379240" lon="0.9531260">
        <ele>583.5</ele>
        <time>2020-07-29T09:05:58Z</time>
      </trkpt>
      <trkpt lat="42.9377930" lon="0.9533860">
        <ele>583.2</ele>
        <time>2020-07-29T09:06:00Z</time>
      </trkpt>
      <trkpt lat="42.9377190" lon="0.9534970">
        <ele>583.2</ele>
        <time>2020-07-29T09:06:01Z</time>
      </trkpt>
      <trkpt lat="42.9375730" lon="0.9537150">
        <ele>583.4</ele>
        <time>2020-07-29T09:06:03Z</time>
      </trkpt>
      <trkpt lat="42.9374290" lon="0.9539220">
        <ele>583.2</ele>
        <time>2020-07-29T09:06:05Z</time>
      </trkpt>
      <trkpt lat="42.9371440" lon="0.9544280">
        <ele>583.3</ele>
        <time>2020-07-29T09:06:10Z</time>
      </trkpt>
      <trkpt lat="42.9368060" lon="0.9550670">
        <ele>583.8</ele>
        <time>2020-07-29T09:06:17Z</time>
      </trkpt>
      <trkpt lat="42.9366610" lon="0.9554370">
        <ele>583.9</ele>
        <time>2020-07-29T09:06:21Z</time>
      </trkpt>
      <trkpt lat="42.9366410" lon="0.9555380">
        <ele>583.9</ele>
        <time>2020-07-29T09:06:22Z</time>
      </trkpt>
      <trkpt lat="42.9366330" lon="0.9556390">
        <ele>583.8</ele>
        <time>2020-07-29T09:06:23Z</time>
      </trkpt>
      <trkpt lat="42.9366440" lon="0.9559470">
        <ele>583.7</ele>
        <time>2020-07-29T09:06:26Z</time>
      </trkpt>
      <trkpt lat="42.9367520" lon="0.9563280">
        <ele>583.4</ele>
        <time>2020-07-29T09:06:30Z</time>
      </trkpt>
      <trkpt lat="42.9367920" lon="0.9564130">
        <ele>583.4</ele>
        <time>2020-07-29T09:06:31Z</time>
      </trkpt>
      <trkpt lat="42.9370610" lon="0.9569010">
        <ele>582.6</ele>
        <time>2020-07-29T09:06:37Z</time>
      </trkpt>
      <trkpt lat="42.9371060" lon="0.9569850">
        <ele>582.5</ele>
        <time>2020-07-29T09:06:38Z</time>
      </trkpt>
      <trkpt lat="42.9371440" lon="0.9570750">
        <ele>582.4</ele>
        <time>2020-07-29T09:06:39Z</time>
      </trkpt>
      <trkpt lat="42.9372010" lon="0.9572770">
        <ele>581.9</ele>
        <time>2020-07-29T09:06:41Z</time>
      </trkpt>
      <trkpt lat="42.9372380" lon="0.9575010">
        <ele>581.4</ele>
        <time>2020-07-29T09:06:43Z</time>
      </trkpt>
      <trkpt lat="42.9372500" lon="0.9576150">
        <ele>581.1</ele>
        <time>2020-07-29T09:06:44Z</time>
      </trkpt>
      <trkpt lat="42.9372660" lon="0.9578510">
        <ele>580.4</ele>
        <time>2020-07-29T09:06:46Z</time>
      </trkpt>
      <trkpt lat="42.9372530" lon="0.9583460">
        <ele>578.6</ele>
        <time>2020-07-29T09:06:50Z</time>
      </trkpt>
      <trkpt lat="42.9372450" lon="0.9584770">
        <ele>578.1</ele>
        <time>2020-07-29T09:06:51Z</time>
      </trkpt>
      <trkpt lat="42.9372160" lon="0.9590130">
        <ele>576.5</ele>
        <time>2020-07-29T09:06:55Z</time>
      </trkpt>
      <trkpt lat="42.9372090" lon="0.9592900">
        <ele>575.7</ele>
        <time>2020-07-29T09:06:57Z</time>
      </trkpt>
      <trkpt lat="42.9372060" lon="0.9594320">
        <ele>575.3</ele>
        <time>2020-07-29T09:06:58Z</time>
      </trkpt>
      <trkpt lat="42.9372060" lon="0.9595760">
        <ele>575.0</ele>
        <time>2020-07-29T09:06:59Z</time>
      </trkpt>
      <trkpt lat="42.9371960" lon="0.9601440">
        <ele>573.5</ele>
        <time>2020-07-29T09:07:03Z</time>
      </trkpt>
      <trkpt lat="42.9371940" lon="0.9602810">
        <ele>573.2</ele>
        <time>2020-07-29T09:07:04Z</time>
      </trkpt>
      <trkpt lat="42.9371900" lon="0.9606950">
        <ele>572.3</ele>
        <time>2020-07-29T09:07:07Z</time>
      </trkpt>
      <trkpt lat="42.9371890" lon="0.9608290">
        <ele>572.0</ele>
        <time>2020-07-29T09:07:08Z</time>
      </trkpt>
      <trkpt lat="42.9371870" lon="0.9612270">
        <ele>571.2</ele>
        <time>2020-07-29T09:07:11Z</time>
      </trkpt>
      <trkpt lat="42.9371790" lon="0.9614930">
        <ele>570.7</ele>
        <time>2020-07-29T09:07:13Z</time>
      </trkpt>
      <trkpt lat="42.9371510" lon="0.9617610">
        <ele>570.2</ele>
        <time>2020-07-29T09:07:15Z</time>
      </trkpt>
      <trkpt lat="42.9370810" lon="0.9620120">
        <ele>569.8</ele>
        <time>2020-07-29T09:07:17Z</time>
      </trkpt>
      <trkpt lat="42.9368470" lon="0.9624160">
        <ele>569.1</ele>
        <time>2020-07-29T09:07:21Z</time>
      </trkpt>
      <trkpt lat="42.9366970" lon="0.9625510">
        <ele>568.9</ele>
        <time>2020-07-29T09:07:23Z</time>
      </trkpt>
      <trkpt lat="42.9366210" lon="0.9626090">
        <ele>568.9</ele>
        <time>2020-07-29T09:07:24Z</time>
      </trkpt>
      <trkpt lat="42.9365440" lon="0.9626610">
        <ele>568.9</ele>
        <time>2020-07-29T09:07:25Z</time>
      </trkpt>
      <trkpt lat="42.9362580" lon="0.9628560">
        <ele>570.5</ele>
        <time>2020-07-29T09:07:29Z</time>
      </trkpt>
      <trkpt lat="42.9362170" lon="0.9629330">
        <ele>570.5</ele>
        <time>2020-07-29T09:07:30Z</time>
      </trkpt>
      <trkpt lat="42.9362450" lon="0.9631690">
        <ele>570.0</ele>
        <time>2020-07-29T09:07:33Z</time>
      </trkpt>
      <trkpt lat="42.9363540" lon="0.9632900">
        <ele>569.5</ele>
        <time>2020-07-29T09:07:35Z</time>
      </trkpt>
      <trkpt lat="42.9364080" lon="0.9633570">
        <ele>569.2</ele>
        <time>2020-07-29T09:07:36Z</time>
      </trkpt>
      <trkpt lat="42.9365750" lon="0.9636980">
        <ele>568.5</ele>
        <time>2020-07-29T09:07:40Z</time>
      </trkpt>
      <trkpt lat="42.9367080" lon="0.9642060">
        <ele>567.8</ele>
        <time>2020-07-29T09:07:45Z</time>
      </trkpt>
      <trkpt lat="42.9368160" lon="0.9646170">
        <ele>567.5</ele>
        <time>2020-07-29T09:07:49Z</time>
      </trkpt>
      <trkpt lat="42.9368530" lon="0.9648270">
        <ele>567.3</ele>
        <time>2020-07-29T09:07:51Z</time>
      </trkpt>
      <trkpt lat="42.9369070" lon="0.9651420">
        <ele>567.0</ele>
        <time>2020-07-29T09:07:54Z</time>
      </trkpt>
      <trkpt lat="42.9369200" lon="0.9652450">
        <ele>566.9</ele>
        <time>2020-07-29T09:07:55Z</time>
      </trkpt>
      <trkpt lat="42.9369490" lon="0.9655670">
        <ele>566.8</ele>
        <time>2020-07-29T09:07:58Z</time>
      </trkpt>
      <trkpt lat="42.9369620" lon="0.9661910">
        <ele>566.6</ele>
        <time>2020-07-29T09:08:04Z</time>
      </trkpt>
      <trkpt lat="42.9370070" lon="0.9668310">
        <ele>565.0</ele>
        <time>2020-07-29T09:08:10Z</time>
      </trkpt>
      <trkpt lat="42.9370360" lon="0.9673050">
        <ele>563.5</ele>
        <time>2020-07-29T09:08:14Z</time>
      </trkpt>
      <trkpt lat="42.9370300" lon="0.9675480">
        <ele>562.7</ele>
        <time>2020-07-29T09:08:16Z</time>
      </trkpt>
      <trkpt lat="42.9370170" lon="0.9676720">
        <ele>562.3</ele>
        <time>2020-07-29T09:08:17Z</time>
      </trkpt>
      <trkpt lat="42.9369480" lon="0.9680460">
        <ele>561.2</ele>
        <time>2020-07-29T09:08:20Z</time>
      </trkpt>
      <trkpt lat="42.9369240" lon="0.9681710">
        <ele>560.9</ele>
        <time>2020-07-29T09:08:21Z</time>
      </trkpt>
      <trkpt lat="42.9368810" lon="0.9684210">
        <ele>560.1</ele>
        <time>2020-07-29T09:08:23Z</time>
      </trkpt>
      <trkpt lat="42.9368090" lon="0.9687920">
        <ele>559.2</ele>
        <time>2020-07-29T09:08:26Z</time>
      </trkpt>
      <trkpt lat="42.9367810" lon="0.9689130">
        <ele>558.9</ele>
        <time>2020-07-29T09:08:27Z</time>
      </trkpt>
      <trkpt lat="42.9367550" lon="0.9690340">
        <ele>558.7</ele>
        <time>2020-07-29T09:08:28Z</time>
      </trkpt>
      <trkpt lat="42.9367050" lon="0.9692790">
        <ele>558.3</ele>
        <time>2020-07-29T09:08:30Z</time>
      </trkpt>
      <trkpt lat="42.9365800" lon="0.9698660">
        <ele>557.5</ele>
        <time>2020-07-29T09:08:35Z</time>
      </trkpt>
      <trkpt lat="42.9364240" lon="0.9706630">
        <ele>556.3</ele>
        <time>2020-07-29T09:08:42Z</time>
      </trkpt>
      <trkpt lat="42.9364020" lon="0.9707760">
        <ele>556.2</ele>
        <time>2020-07-29T09:08:43Z</time>
      </trkpt>
      <trkpt lat="42.9362450" lon="0.9715490">
        <ele>555.2</ele>
        <time>2020-07-29T09:08:50Z</time>
      </trkpt>
      <trkpt lat="42.9362030" lon="0.9717690">
        <ele>554.9</ele>
        <time>2020-07-29T09:08:52Z</time>
      </trkpt>
      <trkpt lat="42.9361810" lon="0.9718770">
        <ele>554.8</ele>
        <time>2020-07-29T09:08:53Z</time>
      </trkpt>
      <trkpt lat="42.9360270" lon="0.9726490">
        <ele>554.1</ele>
        <time>2020-07-29T09:09:00Z</time>
      </trkpt>
      <trkpt lat="42.9359830" lon="0.9728700">
        <ele>554.1</ele>
        <time>2020-07-29T09:09:02Z</time>
      </trkpt>
      <trkpt lat="42.9358970" lon="0.9733030">
        <ele>554.0</ele>
        <time>2020-07-29T09:09:06Z</time>
      </trkpt>
      <trkpt lat="42.9357930" lon="0.9738200">
        <ele>554.3</ele>
        <time>2020-07-29T09:09:11Z</time>
      </trkpt>
      <trkpt lat="42.9356580" lon="0.9745320">
        <ele>554.4</ele>
        <time>2020-07-29T09:09:18Z</time>
      </trkpt>
      <trkpt lat="42.9354880" lon="0.9751220">
        <ele>554.4</ele>
        <time>2020-07-29T09:09:24Z</time>
      </trkpt>
      <trkpt lat="42.9354580" lon="0.9752160">
        <ele>554.5</ele>
        <time>2020-07-29T09:09:25Z</time>
      </trkpt>
      <trkpt lat="42.9352690" lon="0.9758640">
        <ele>555.3</ele>
        <time>2020-07-29T09:09:32Z</time>
      </trkpt>
      <trkpt lat="42.9351590" lon="0.9762120">
        <ele>556.0</ele>
        <time>2020-07-29T09:09:36Z</time>
      </trkpt>
      <trkpt lat="42.9350800" lon="0.9763500">
        <ele>556.2</ele>
        <time>2020-07-29T09:09:38Z</time>
      </trkpt>
      <trkpt lat="42.9348130" lon="0.9766250">
        <ele>555.9</ele>
        <time>2020-07-29T09:09:43Z</time>
      </trkpt>
      <trkpt lat="42.9344040" lon="0.9770630">
        <ele>555.8</ele>
        <time>2020-07-29T09:09:51Z</time>
      </trkpt>
      <trkpt lat="42.9341840" lon="0.9773930">
        <ele>555.8</ele>
        <time>2020-07-29T09:09:56Z</time>
      </trkpt>
      <trkpt lat="42.9341430" lon="0.9774600">
        <ele>555.8</ele>
        <time>2020-07-29T09:09:57Z</time>
      </trkpt>
      <trkpt lat="42.9337870" lon="0.9780590">
        <ele>555.7</ele>
        <time>2020-07-29T09:10:06Z</time>
      </trkpt>
      <trkpt lat="42.9334690" lon="0.9786550">
        <ele>555.6</ele>
        <time>2020-07-29T09:10:15Z</time>
      </trkpt>
      <trkpt lat="42.9333310" lon="0.9791230">
        <ele>555.5</ele>
        <time>2020-07-29T09:10:21Z</time>
      </trkpt>
      <trkpt lat="42.9331920" lon="0.9798660">
        <ele>555.8</ele>
        <time>2020-07-29T09:10:30Z</time>
      </trkpt>
      <trkpt lat="42.9331760" lon="0.9799530">
        <ele>555.9</ele>
        <time>2020-07-29T09:10:31Z</time>
      </trkpt>
      <trkpt lat="42.9330850" lon="0.9805500">
        <ele>556.3</ele>
        <time>2020-07-29T09:10:38Z</time>
      </trkpt>
      <trkpt lat="42.9329720" lon="0.9812480">
        <ele>556.4</ele>
        <time>2020-07-29T09:10:46Z</time>
      </trkpt>
      <trkpt lat="42.9328220" lon="0.9819900">
        <ele>555.2</ele>
        <time>2020-07-29T09:10:54Z</time>
      </trkpt>
      <trkpt lat="42.9327960" lon="0.9820890">
        <ele>554.9</ele>
        <time>2020-07-29T09:10:55Z</time>
      </trkpt>
      <trkpt lat="42.9325460" lon="0.9827830">
        <ele>552.7</ele>
        <time>2020-07-29T09:11:02Z</time>
      </trkpt>
      <trkpt lat="42.9325060" lon="0.9828840">
        <ele>552.4</ele>
        <time>2020-07-29T09:11:03Z</time>
      </trkpt>
      <trkpt lat="42.9324280" lon="0.9830900">
        <ele>551.9</ele>
        <time>2020-07-29T09:11:05Z</time>
      </trkpt>
      <trkpt lat="42.9323040" lon="0.9835180">
        <ele>551.3</ele>
        <time>2020-07-29T09:11:09Z</time>
      </trkpt>
      <trkpt lat="42.9322820" lon="0.9836260">
        <ele>551.2</ele>
        <time>2020-07-29T09:11:10Z</time>
      </trkpt>
      <trkpt lat="42.9322440" lon="0.9838410">
        <ele>551.0</ele>
        <time>2020-07-29T09:11:12Z</time>
      </trkpt>
      <trkpt lat="42.9321670" lon="0.9843630">
        <ele>550.7</ele>
        <time>2020-07-29T09:11:17Z</time>
      </trkpt>
      <trkpt lat="42.9320640" lon="0.9851880">
        <ele>550.1</ele>
        <time>2020-07-29T09:11:25Z</time>
      </trkpt>
      <trkpt lat="42.9320570" lon="0.9852930">
        <ele>550.1</ele>
        <time>2020-07-29T09:11:26Z</time>
      </trkpt>
      <trkpt lat="42.9320740" lon="0.9859220">
        <ele>549.6</ele>
        <time>2020-07-29T09:11:32Z</time>
      </trkpt>
      <trkpt lat="42.9321540" lon="0.9866850">
        <ele>549.0</ele>
        <time>2020-07-29T09:11:39Z</time>
      </trkpt>
      <trkpt lat="42.9321670" lon="0.9873570">
        <ele>548.6</ele>
        <time>2020-07-29T09:11:45Z</time>
      </trkpt>
      <trkpt lat="42.9321530" lon="0.9875820">
        <ele>548.5</ele>
        <time>2020-07-29T09:11:47Z</time>
      </trkpt>
      <trkpt lat="42.9321030" lon="0.9881990">
        <ele>549.0</ele>
        <time>2020-07-29T09:11:53Z</time>
      </trkpt>
      <trkpt lat="42.9320980" lon="0.9884930">
        <ele>549.2</ele>
        <time>2020-07-29T09:11:56Z</time>
      </trkpt>
      <trkpt lat="42.9321280" lon="0.9888690">
        <ele>549.0</ele>
        <time>2020-07-29T09:12:00Z</time>
      </trkpt>
      <trkpt lat="42.9322290" lon="0.9896690">
        <ele>548.1</ele>
        <time>2020-07-29T09:12:08Z</time>
      </trkpt>
      <trkpt lat="42.9322610" lon="0.9898790">
        <ele>547.7</ele>
        <time>2020-07-29T09:12:10Z</time>
      </trkpt>
      <trkpt lat="42.9323090" lon="0.9901980">
        <ele>547.1</ele>
        <time>2020-07-29T09:12:13Z</time>
      </trkpt>
      <trkpt lat="42.9323200" lon="0.9904230">
        <ele>546.6</ele>
        <time>2020-07-29T09:12:15Z</time>
      </trkpt>
      <trkpt lat="42.9323160" lon="0.9905320">
        <ele>546.3</ele>
        <time>2020-07-29T09:12:16Z</time>
      </trkpt>
      <trkpt lat="42.9322590" lon="0.9908800">
        <ele>545.1</ele>
        <time>2020-07-29T09:12:19Z</time>
      </trkpt>
      <trkpt lat="42.9322260" lon="0.9911210">
        <ele>544.3</ele>
        <time>2020-07-29T09:12:21Z</time>
      </trkpt>
      <trkpt lat="42.9321770" lon="0.9916240">
        <ele>542.8</ele>
        <time>2020-07-29T09:12:25Z</time>
      </trkpt>
      <trkpt lat="42.9321570" lon="0.9917500">
        <ele>542.6</ele>
        <time>2020-07-29T09:12:26Z</time>
      </trkpt>
      <trkpt lat="42.9321260" lon="0.9918740">
        <ele>542.3</ele>
        <time>2020-07-29T09:12:27Z</time>
      </trkpt>
      <trkpt lat="42.9320830" lon="0.9919910">
        <ele>542.2</ele>
        <time>2020-07-29T09:12:28Z</time>
      </trkpt>
      <trkpt lat="42.9319530" lon="0.9921820">
        <ele>542.2</ele>
        <time>2020-07-29T09:12:30Z</time>
      </trkpt>
      <trkpt lat="42.9316770" lon="0.9923410">
        <ele>539.7</ele>
        <time>2020-07-29T09:12:33Z</time>
      </trkpt>
      <trkpt lat="42.9315800" lon="0.9923750">
        <ele>539.0</ele>
        <time>2020-07-29T09:12:34Z</time>
      </trkpt>
      <trkpt lat="42.9313890" lon="0.9924380">
        <ele>538.1</ele>
        <time>2020-07-29T09:12:36Z</time>
      </trkpt>
      <trkpt lat="42.9312980" lon="0.9924830">
        <ele>538.0</ele>
        <time>2020-07-29T09:12:37Z</time>
      </trkpt>
      <trkpt lat="42.9312140" lon="0.9925430">
        <ele>537.6</ele>
        <time>2020-07-29T09:12:38Z</time>
      </trkpt>
      <trkpt lat="42.9311390" lon="0.9926220">
        <ele>537.2</ele>
        <time>2020-07-29T09:12:39Z</time>
      </trkpt>
      <trkpt lat="42.9310090" lon="0.9927990">
        <ele>536.4</ele>
        <time>2020-07-29T09:12:41Z</time>
      </trkpt>
      <trkpt lat="42.9308100" lon="0.9930550">
        <ele>535.7</ele>
        <time>2020-07-29T09:12:44Z</time>
      </trkpt>
      <trkpt lat="42.9306610" lon="0.9932070">
        <ele>535.3</ele>
        <time>2020-07-29T09:12:46Z</time>
      </trkpt>
      <trkpt lat="42.9304480" lon="0.9934330">
        <ele>534.9</ele>
        <time>2020-07-29T09:12:49Z</time>
      </trkpt>
      <trkpt lat="42.9303590" lon="0.9936290">
        <ele>534.7</ele>
        <time>2020-07-29T09:12:51Z</time>
      </trkpt>
      <trkpt lat="42.9303170" lon="0.9938410">
        <ele>534.7</ele>
        <time>2020-07-29T09:12:53Z</time>
      </trkpt>
      <trkpt lat="42.9302610" lon="0.9941510">
        <ele>534.8</ele>
        <time>2020-07-29T09:12:56Z</time>
      </trkpt>
      <trkpt lat="42.9302440" lon="0.9942540">
        <ele>534.8</ele>
        <time>2020-07-29T09:12:57Z</time>
      </trkpt>
      <trkpt lat="42.9301670" lon="0.9947660">
        <ele>534.8</ele>
        <time>2020-07-29T09:13:02Z</time>
      </trkpt>
      <trkpt lat="42.9300460" lon="0.9951480">
        <ele>534.9</ele>
        <time>2020-07-29T09:13:06Z</time>
      </trkpt>
      <trkpt lat="42.9300050" lon="0.9952340">
        <ele>534.9</ele>
        <time>2020-07-29T09:13:07Z</time>
      </trkpt>
      <trkpt lat="42.9297260" lon="0.9956810">
        <ele>535.0</ele>
        <time>2020-07-29T09:13:13Z</time>
      </trkpt>
      <trkpt lat="42.9293130" lon="0.9962190">
        <ele>535.1</ele>
        <time>2020-07-29T09:13:21Z</time>
      </trkpt>
      <trkpt lat="42.9292610" lon="0.9962870">
        <ele>535.0</ele>
        <time>2020-07-29T09:13:22Z</time>
      </trkpt>
      <trkpt lat="42.9288470" lon="0.9968330">
        <ele>534.7</ele>
        <time>2020-07-29T09:13:30Z</time>
      </trkpt>
      <trkpt lat="42.9286500" lon="0.9971170">
        <ele>534.6</ele>
        <time>2020-07-29T09:13:34Z</time>
      </trkpt>
      <trkpt lat="42.9285540" lon="0.9972620">
        <ele>534.6</ele>
        <time>2020-07-29T09:13:36Z</time>
      </trkpt>
      <trkpt lat="42.9282420" lon="0.9977770">
        <ele>534.6</ele>
        <time>2020-07-29T09:13:43Z</time>
      </trkpt>
      <trkpt lat="42.9279310" lon="0.9983840">
        <ele>534.4</ele>
        <time>2020-07-29T09:13:51Z</time>
      </trkpt>
      <trkpt lat="42.9276310" lon="0.9990080">
        <ele>534.2</ele>
        <time>2020-07-29T09:13:59Z</time>
      </trkpt>
      <trkpt lat="42.9275900" lon="0.9990840">
        <ele>534.2</ele>
        <time>2020-07-29T09:14:00Z</time>
      </trkpt>
      <trkpt lat="42.9272480" lon="0.9996540">
        <ele>533.9</ele>
        <time>2020-07-29T09:14:08Z</time>
      </trkpt>
      <trkpt lat="42.9268880" lon="1.0002150">
        <ele>533.4</ele>
        <time>2020-07-29T09:14:16Z</time>
      </trkpt>
      <trkpt lat="42.9268410" lon="1.0002860">
        <ele>533.3</ele>
        <time>2020-07-29T09:14:17Z</time>
      </trkpt>
      <trkpt lat="42.9266070" lon="1.0006500">
        <ele>532.9</ele>
        <time>2020-07-29T09:14:22Z</time>
      </trkpt>
      <trkpt lat="42.9264670" lon="1.0008760">
        <ele>532.7</ele>
        <time>2020-07-29T09:14:25Z</time>
      </trkpt>
      <trkpt lat="42.9261560" lon="1.0014130">
        <ele>532.1</ele>
        <time>2020-07-29T09:14:32Z</time>
      </trkpt>
      <trkpt lat="42.9261200" lon="1.0014950">
        <ele>532.1</ele>
        <time>2020-07-29T09:14:33Z</time>
      </trkpt>
      <trkpt lat="42.9259740" lon="1.0019160">
        <ele>532.1</ele>
        <time>2020-07-29T09:14:38Z</time>
      </trkpt>
      <trkpt lat="42.9258320" lon="1.0025240">
        <ele>532.2</ele>
        <time>2020-07-29T09:14:45Z</time>
      </trkpt>
      <trkpt lat="42.9256850" lon="1.0032380">
        <ele>531.8</ele>
        <time>2020-07-29T09:14:53Z</time>
      </trkpt>
      <trkpt lat="42.9255680" lon="1.0039260">
        <ele>531.0</ele>
        <time>2020-07-29T09:15:00Z</time>
      </trkpt>
      <trkpt lat="42.9255200" lon="1.0042370">
        <ele>530.6</ele>
        <time>2020-07-29T09:15:03Z</time>
      </trkpt>
      <trkpt lat="42.9254750" lon="1.0047650">
        <ele>530.2</ele>
        <time>2020-07-29T09:15:08Z</time>
      </trkpt>
      <trkpt lat="42.9254500" lon="1.0050840">
        <ele>529.7</ele>
        <time>2020-07-29T09:15:11Z</time>
      </trkpt>
      <trkpt lat="42.9254230" lon="1.0056190">
        <ele>528.9</ele>
        <time>2020-07-29T09:15:16Z</time>
      </trkpt>
      <trkpt lat="42.9254190" lon="1.0057260">
        <ele>528.7</ele>
        <time>2020-07-29T09:15:17Z</time>
      </trkpt>
      <trkpt lat="42.9254160" lon="1.0061550">
        <ele>527.9</ele>
        <time>2020-07-29T09:15:21Z</time>
      </trkpt>
      <trkpt lat="42.9254290" lon="1.0065870">
        <ele>527.5</ele>
        <time>2020-07-29T09:15:25Z</time>
      </trkpt>
      <trkpt lat="42.9254410" lon="1.0068000">
        <ele>527.4</ele>
        <time>2020-07-29T09:15:27Z</time>
      </trkpt>
      <trkpt lat="42.9255000" lon="1.0076220">
        <ele>527.0</ele>
        <time>2020-07-29T09:15:35Z</time>
      </trkpt>
      <trkpt lat="42.9255080" lon="1.0077210">
        <ele>526.9</ele>
        <time>2020-07-29T09:15:36Z</time>
      </trkpt>
      <trkpt lat="42.9255670" lon="1.0084880">
        <ele>526.6</ele>
        <time>2020-07-29T09:15:44Z</time>
      </trkpt>
      <trkpt lat="42.9255740" lon="1.0085830">
        <ele>526.5</ele>
        <time>2020-07-29T09:15:45Z</time>
      </trkpt>
      <trkpt lat="42.9256300" lon="1.0093600">
        <ele>525.9</ele>
        <time>2020-07-29T09:15:53Z</time>
      </trkpt>
      <trkpt lat="42.9256550" lon="1.0096660">
        <ele>525.6</ele>
        <time>2020-07-29T09:15:56Z</time>
      </trkpt>
      <trkpt lat="42.9257160" lon="1.0105000">
        <ele>524.7</ele>
        <time>2020-07-29T09:16:04Z</time>
      </trkpt>
      <trkpt lat="42.9257290" lon="1.0106020">
        <ele>524.6</ele>
        <time>2020-07-29T09:16:05Z</time>
      </trkpt>
      <trkpt lat="42.9257590" lon="1.0108060">
        <ele>524.4</ele>
        <time>2020-07-29T09:16:07Z</time>
      </trkpt>
      <trkpt lat="42.9258330" lon="1.0112120">
        <ele>523.8</ele>
        <time>2020-07-29T09:16:11Z</time>
      </trkpt>
      <trkpt lat="42.9259310" lon="1.0117230">
        <ele>523.2</ele>
        <time>2020-07-29T09:16:16Z</time>
      </trkpt>
      <trkpt lat="42.9260130" lon="1.0121290">
        <ele>522.8</ele>
        <time>2020-07-29T09:16:20Z</time>
      </trkpt>
      <trkpt lat="42.9260920" lon="1.0124190">
        <ele>522.7</ele>
        <time>2020-07-29T09:16:23Z</time>
      </trkpt>
      <trkpt lat="42.9263010" lon="1.0130670">
        <ele>522.6</ele>
        <time>2020-07-29T09:16:30Z</time>
      </trkpt>
      <trkpt lat="42.9264290" lon="1.0134260">
        <ele>522.3</ele>
        <time>2020-07-29T09:16:34Z</time>
      </trkpt>
      <trkpt lat="42.9265780" lon="1.0138790">
        <ele>522.2</ele>
        <time>2020-07-29T09:16:39Z</time>
      </trkpt>
      <trkpt lat="42.9267820" lon="1.0143980">
        <ele>521.9</ele>
        <time>2020-07-29T09:16:45Z</time>
      </trkpt>
      <trkpt lat="42.9270610" lon="1.0148880">
        <ele>521.5</ele>
        <time>2020-07-29T09:16:51Z</time>
      </trkpt>
      <trkpt lat="42.9273390" lon="1.0153840">
        <ele>521.0</ele>
        <time>2020-07-29T09:16:57Z</time>
      </trkpt>
      <trkpt lat="42.9274360" lon="1.0156620">
        <ele>520.9</ele>
        <time>2020-07-29T09:17:00Z</time>
      </trkpt>
      <trkpt lat="42.9274700" lon="1.0158580">
        <ele>520.7</ele>
        <time>2020-07-29T09:17:02Z</time>
      </trkpt>
      <trkpt lat="42.9274440" lon="1.0162370">
        <ele>520.9</ele>
        <time>2020-07-29T09:17:06Z</time>
      </trkpt>
      <trkpt lat="42.9272930" lon="1.0166260">
        <ele>521.1</ele>
        <time>2020-07-29T09:17:11Z</time>
      </trkpt>
      <trkpt lat="42.9271030" lon="1.0169470">
        <ele>521.1</ele>
        <time>2020-07-29T09:17:16Z</time>
      </trkpt>
      <trkpt lat="42.9270680" lon="1.0170160">
        <ele>521.1</ele>
        <time>2020-07-29T09:17:17Z</time>
      </trkpt>
      <trkpt lat="42.9268880" lon="1.0175020">
        <ele>521.0</ele>
        <time>2020-07-29T09:17:23Z</time>
      </trkpt>
      <trkpt lat="42.9266750" lon="1.0182260">
        <ele>520.3</ele>
        <time>2020-07-29T09:17:31Z</time>
      </trkpt>
      <trkpt lat="42.9266220" lon="1.0187430">
        <ele>519.4</ele>
        <time>2020-07-29T09:17:36Z</time>
      </trkpt>
      <trkpt lat="42.9266350" lon="1.0190660">
        <ele>519.2</ele>
        <time>2020-07-29T09:17:39Z</time>
      </trkpt>
      <trkpt lat="42.9266720" lon="1.0195910">
        <ele>519.1</ele>
        <time>2020-07-29T09:17:44Z</time>
      </trkpt>
      <trkpt lat="42.9267240" lon="1.0202940">
        <ele>518.9</ele>
        <time>2020-07-29T09:17:51Z</time>
      </trkpt>
      <trkpt lat="42.9267560" lon="1.0204870">
        <ele>519.0</ele>
        <time>2020-07-29T09:17:53Z</time>
      </trkpt>
      <trkpt lat="42.9268330" lon="1.0207440">
        <ele>519.1</ele>
        <time>2020-07-29T09:17:56Z</time>
      </trkpt>
      <trkpt lat="42.9270330" lon="1.0212200">
        <ele>518.7</ele>
        <time>2020-07-29T09:18:02Z</time>
      </trkpt>
      <trkpt lat="42.9272710" lon="1.0216570">
        <ele>519.0</ele>
        <time>2020-07-29T09:18:08Z</time>
      </trkpt>
      <trkpt lat="42.9273860" lon="1.0218630">
        <ele>519.1</ele>
        <time>2020-07-29T09:18:11Z</time>
      </trkpt>
      <trkpt lat="42.9275120" lon="1.0220630">
        <ele>519.1</ele>
        <time>2020-07-29T09:18:14Z</time>
      </trkpt>
      <trkpt lat="42.9277720" lon="1.0225230">
        <ele>519.2</ele>
        <time>2020-07-29T09:18:21Z</time>
      </trkpt>
      <trkpt lat="42.9278480" lon="1.0226580">
        <ele>519.1</ele>
        <time>2020-07-29T09:18:23Z</time>
      </trkpt>
      <trkpt lat="42.9278810" lon="1.0227290">
        <ele>519.0</ele>
        <time>2020-07-29T09:18:24Z</time>
      </trkpt>
      <trkpt lat="42.9279780" lon="1.0229520">
        <ele>518.7</ele>
        <time>2020-07-29T09:18:27Z</time>
      </trkpt>
      <trkpt lat="42.9280040" lon="1.0230320">
        <ele>518.3</ele>
        <time>2020-07-29T09:18:28Z</time>
      </trkpt>
      <trkpt lat="42.9280620" lon="1.0233860">
        <ele>517.3</ele>
        <time>2020-07-29T09:18:32Z</time>
      </trkpt>
      <trkpt lat="42.9280650" lon="1.0234780">
        <ele>517.1</ele>
        <time>2020-07-29T09:18:33Z</time>
      </trkpt>
      <trkpt lat="42.9280370" lon="1.0237600">
        <ele>516.7</ele>
        <time>2020-07-29T09:18:36Z</time>
      </trkpt>
      <trkpt lat="42.9279950" lon="1.0239440">
        <ele>516.3</ele>
        <time>2020-07-29T09:18:38Z</time>
      </trkpt>
      <trkpt lat="42.9279640" lon="1.0240360">
        <ele>516.1</ele>
        <time>2020-07-29T09:18:39Z</time>
      </trkpt>
      <trkpt lat="42.9278990" lon="1.0242230">
        <ele>515.5</ele>
        <time>2020-07-29T09:18:41Z</time>
      </trkpt>
      <trkpt lat="42.9278690" lon="1.0243170">
        <ele>515.3</ele>
        <time>2020-07-29T09:18:42Z</time>
      </trkpt>
      <trkpt lat="42.9278210" lon="1.0245180">
        <ele>514.8</ele>
        <time>2020-07-29T09:18:44Z</time>
      </trkpt>
      <trkpt lat="42.9278060" lon="1.0247220">
        <ele>514.4</ele>
        <time>2020-07-29T09:18:46Z</time>
      </trkpt>
      <trkpt lat="42.9278380" lon="1.0254110">
        <ele>513.7</ele>
        <time>2020-07-29T09:18:53Z</time>
      </trkpt>
      <trkpt lat="42.9278540" lon="1.0255970">
        <ele>513.8</ele>
        <time>2020-07-29T09:18:55Z</time>
      </trkpt>
      <trkpt lat="42.9279050" lon="1.0259530">
        <ele>514.0</ele>
        <time>2020-07-29T09:18:59Z</time>
      </trkpt>
      <trkpt lat="42.9279260" lon="1.0260370">
        <ele>514.0</ele>
        <time>2020-07-29T09:19:00Z</time>
      </trkpt>
      <trkpt lat="42.9280500" lon="1.0265090">
        <ele>514.5</ele>
        <time>2020-07-29T09:19:06Z</time>
      </trkpt>
      <trkpt lat="42.9281650" lon="1.0269780">
        <ele>515.8</ele>
        <time>2020-07-29T09:19:13Z</time>
      </trkpt>
      <trkpt lat="42.9282240" lon="1.0272020">
        <ele>516.7</ele>
        <time>2020-07-29T09:19:17Z</time>
      </trkpt>
      <trkpt lat="42.9282820" lon="1.0274180">
        <ele>517.5</ele>
        <time>2020-07-29T09:19:21Z</time>
      </trkpt>
      <trkpt lat="42.9282960" lon="1.0274730">
        <ele>517.7</ele>
        <time>2020-07-29T09:19:22Z</time>
      </trkpt>
      <trkpt lat="42.9283640" lon="1.0277830">
        <ele>519.0</ele>
        <time>2020-07-29T09:19:28Z</time>
      </trkpt>
      <trkpt lat="42.9283740" lon="1.0278300">
        <ele>519.3</ele>
        <time>2020-07-29T09:19:29Z</time>
      </trkpt>
      <trkpt lat="42.9284200" lon="1.0280120">
        <ele>520.2</ele>
        <time>2020-07-29T09:19:33Z</time>
      </trkpt>
      <trkpt lat="42.9284770" lon="1.0282390">
        <ele>521.4</ele>
        <time>2020-07-29T09:19:38Z</time>
      </trkpt>
      <trkpt lat="42.9285240" lon="1.0284540">
        <ele>522.6</ele>
        <time>2020-07-29T09:19:43Z</time>
      </trkpt>
      <trkpt lat="42.9285560" lon="1.0285810">
        <ele>523.3</ele>
        <time>2020-07-29T09:19:46Z</time>
      </trkpt>
      <trkpt lat="42.9285640" lon="1.0286240">
        <ele>523.5</ele>
        <time>2020-07-29T09:19:47Z</time>
      </trkpt>
      <trkpt lat="42.9286260" lon="1.0288790">
        <ele>524.9</ele>
        <time>2020-07-29T09:19:53Z</time>
      </trkpt>
      <trkpt lat="42.9286740" lon="1.0290920">
        <ele>526.1</ele>
        <time>2020-07-29T09:19:58Z</time>
      </trkpt>
      <trkpt lat="42.9287280" lon="1.0293020">
        <ele>527.3</ele>
        <time>2020-07-29T09:20:03Z</time>
      </trkpt>
      <trkpt lat="42.9287620" lon="1.0295100">
        <ele>528.4</ele>
        <time>2020-07-29T09:20:08Z</time>
      </trkpt>
      <trkpt lat="42.9287620" lon="1.0295500">
        <ele>528.6</ele>
        <time>2020-07-29T09:20:09Z</time>
      </trkpt>
      <trkpt lat="42.9287290" lon="1.0296940">
        <ele>529.4</ele>
        <time>2020-07-29T09:20:13Z</time>
      </trkpt>
      <trkpt lat="42.9287130" lon="1.0297150">
        <ele>529.6</ele>
        <time>2020-07-29T09:20:14Z</time>
      </trkpt>
      <trkpt lat="42.9288480" lon="1.0297910">
        <ele>530.3</ele>
        <time>2020-07-29T09:24:05Z</time>
      </trkpt>
      <trkpt lat="42.9288690" lon="1.0297860">
        <ele>530.2</ele>
        <time>2020-07-29T09:24:06Z</time>
      </trkpt>
      <trkpt lat="42.9291830" lon="1.0296760">
        <ele>529.3</ele>
        <time>2020-07-29T09:24:12Z</time>
      </trkpt>
      <trkpt lat="42.9296390" lon="1.0294610">
        <ele>527.6</ele>
        <time>2020-07-29T09:24:19Z</time>
      </trkpt>
      <trkpt lat="42.9298650" lon="1.0293590">
        <ele>526.8</ele>
        <time>2020-07-29T09:24:22Z</time>
      </trkpt>
      <trkpt lat="42.9301790" lon="1.0292240">
        <ele>525.6</ele>
        <time>2020-07-29T09:24:26Z</time>
      </trkpt>
      <trkpt lat="42.9302590" lon="1.0291890">
        <ele>525.3</ele>
        <time>2020-07-29T09:24:27Z</time>
      </trkpt>
      <trkpt lat="42.9305020" lon="1.0290860">
        <ele>524.6</ele>
        <time>2020-07-29T09:24:30Z</time>
      </trkpt>
      <trkpt lat="42.9307520" lon="1.0289780">
        <ele>523.8</ele>
        <time>2020-07-29T09:24:33Z</time>
      </trkpt>
      <trkpt lat="42.9310930" lon="1.0288310">
        <ele>522.8</ele>
        <time>2020-07-29T09:24:37Z</time>
      </trkpt>
      <trkpt lat="42.9316220" lon="1.0286110">
        <ele>521.5</ele>
        <time>2020-07-29T09:24:43Z</time>
      </trkpt>
      <trkpt lat="42.9317970" lon="1.0285390">
        <ele>521.1</ele>
        <time>2020-07-29T09:24:45Z</time>
      </trkpt>
      <trkpt lat="42.9318830" lon="1.0285020">
        <ele>521.0</ele>
        <time>2020-07-29T09:24:46Z</time>
      </trkpt>
      <trkpt lat="42.9321390" lon="1.0283970">
        <ele>520.6</ele>
        <time>2020-07-29T09:24:49Z</time>
      </trkpt>
      <trkpt lat="42.9324720" lon="1.0282600">
        <ele>519.5</ele>
        <time>2020-07-29T09:24:53Z</time>
      </trkpt>
      <trkpt lat="42.9325550" lon="1.0282250">
        <ele>519.4</ele>
        <time>2020-07-29T09:24:54Z</time>
      </trkpt>
      <trkpt lat="42.9328020" lon="1.0281210">
        <ele>519.1</ele>
        <time>2020-07-29T09:24:57Z</time>
      </trkpt>
      <trkpt lat="42.9333010" lon="1.0279310">
        <ele>518.5</ele>
        <time>2020-07-29T09:25:03Z</time>
      </trkpt>
      <trkpt lat="42.9336450" lon="1.0279020">
        <ele>517.9</ele>
        <time>2020-07-29T09:25:07Z</time>
      </trkpt>
      <trkpt lat="42.9339010" lon="1.0279580">
        <ele>517.4</ele>
        <time>2020-07-29T09:25:10Z</time>
      </trkpt>
      <trkpt lat="42.9340640" lon="1.0280300">
        <ele>517.2</ele>
        <time>2020-07-29T09:25:11Z</time>
      </trkpt>
      <trkpt lat="42.9340640" lon="1.0280300">
        <ele>517.2</ele>
        <time>2020-07-29T09:25:12Z</time>
      </trkpt>
      <trkpt lat="42.9343770" lon="1.0282120">
        <ele>516.8</ele>
        <time>2020-07-29T09:25:16Z</time>
      </trkpt>
      <trkpt lat="42.9346150" lon="1.0283460">
        <ele>516.4</ele>
        <time>2020-07-29T09:25:19Z</time>
      </trkpt>
      <trkpt lat="42.9348880" lon="1.0285370">
        <ele>515.8</ele>
        <time>2020-07-29T09:25:23Z</time>
      </trkpt>
      <trkpt lat="42.9353670" lon="1.0288410">
        <ele>514.9</ele>
        <time>2020-07-29T09:25:29Z</time>
      </trkpt>
      <trkpt lat="42.9357100" lon="1.0290390">
        <ele>514.4</ele>
        <time>2020-07-29T09:25:33Z</time>
      </trkpt>
      <trkpt lat="42.9357860" lon="1.0290990">
        <ele>514.3</ele>
        <time>2020-07-29T09:25:34Z</time>
      </trkpt>
      <trkpt lat="42.9358630" lon="1.0291630">
        <ele>514.1</ele>
        <time>2020-07-29T09:25:35Z</time>
      </trkpt>
      <trkpt lat="42.9362310" lon="1.0295550">
        <ele>513.1</ele>
        <time>2020-07-29T09:25:40Z</time>
      </trkpt>
      <trkpt lat="42.9364350" lon="1.0298160">
        <ele>512.4</ele>
        <time>2020-07-29T09:25:43Z</time>
      </trkpt>
      <trkpt lat="42.9366840" lon="1.0301680">
        <ele>511.9</ele>
        <time>2020-07-29T09:25:47Z</time>
      </trkpt>
      <trkpt lat="42.9367500" lon="1.0302540">
        <ele>511.7</ele>
        <time>2020-07-29T09:25:48Z</time>
      </trkpt>
      <trkpt lat="42.9370030" lon="1.0306140">
        <ele>511.0</ele>
        <time>2020-07-29T09:25:52Z</time>
      </trkpt>
      <trkpt lat="42.9371020" lon="1.0308220">
        <ele>510.5</ele>
        <time>2020-07-29T09:25:54Z</time>
      </trkpt>
      <trkpt lat="42.9371840" lon="1.0310380">
        <ele>510.2</ele>
        <time>2020-07-29T09:25:56Z</time>
      </trkpt>
      <trkpt lat="42.9372850" lon="1.0313710">
        <ele>509.8</ele>
        <time>2020-07-29T09:25:59Z</time>
      </trkpt>
      <trkpt lat="42.9373480" lon="1.0315890">
        <ele>509.6</ele>
        <time>2020-07-29T09:26:01Z</time>
      </trkpt>
      <trkpt lat="42.9375010" lon="1.0319810">
        <ele>509.2</ele>
        <time>2020-07-29T09:26:05Z</time>
      </trkpt>
      <trkpt lat="42.9377770" lon="1.0323720">
        <ele>509.2</ele>
        <time>2020-07-29T09:26:10Z</time>
      </trkpt>
      <trkpt lat="42.9381710" lon="1.0327210">
        <ele>508.8</ele>
        <time>2020-07-29T09:26:16Z</time>
      </trkpt>
      <trkpt lat="42.9386350" lon="1.0331290">
        <ele>508.0</ele>
        <time>2020-07-29T09:26:23Z</time>
      </trkpt>
      <trkpt lat="42.9389470" lon="1.0336130">
        <ele>507.3</ele>
        <time>2020-07-29T09:26:29Z</time>
      </trkpt>
      <trkpt lat="42.9389930" lon="1.0336970">
        <ele>507.1</ele>
        <time>2020-07-29T09:26:30Z</time>
      </trkpt>
      <trkpt lat="42.9392900" lon="1.0343200">
        <ele>506.3</ele>
        <time>2020-07-29T09:26:37Z</time>
      </trkpt>
      <trkpt lat="42.9393700" lon="1.0345070">
        <ele>506.0</ele>
        <time>2020-07-29T09:26:39Z</time>
      </trkpt>
      <trkpt lat="42.9396550" lon="1.0351650">
        <ele>505.2</ele>
        <time>2020-07-29T09:26:46Z</time>
      </trkpt>
      <trkpt lat="42.9396960" lon="1.0352570">
        <ele>505.1</ele>
        <time>2020-07-29T09:26:47Z</time>
      </trkpt>
      <trkpt lat="42.9398350" lon="1.0355180">
        <ele>504.6</ele>
        <time>2020-07-29T09:26:50Z</time>
      </trkpt>
      <trkpt lat="42.9399530" lon="1.0356660">
        <ele>504.3</ele>
        <time>2020-07-29T09:26:52Z</time>
      </trkpt>
      <trkpt lat="42.9402930" lon="1.0359680">
        <ele>503.6</ele>
        <time>2020-07-29T09:26:57Z</time>
      </trkpt>
      <trkpt lat="42.9404910" lon="1.0361660">
        <ele>503.0</ele>
        <time>2020-07-29T09:26:59Z</time>
      </trkpt>
      <trkpt lat="42.9406710" lon="1.0363900">
        <ele>502.6</ele>
        <time>2020-07-29T09:27:03Z</time>
      </trkpt>
      <trkpt lat="42.9408320" lon="1.0366330">
        <ele>502.1</ele>
        <time>2020-07-29T09:27:06Z</time>
      </trkpt>
      <trkpt lat="42.9409830" lon="1.0368910">
        <ele>501.5</ele>
        <time>2020-07-29T09:27:09Z</time>
      </trkpt>
      <trkpt lat="42.9410400" lon="1.0369740">
        <ele>501.2</ele>
        <time>2020-07-29T09:27:10Z</time>
      </trkpt>
      <trkpt lat="42.9413020" lon="1.0372590">
        <ele>500.7</ele>
        <time>2020-07-29T09:27:14Z</time>
      </trkpt>
      <trkpt lat="42.9416820" lon="1.0375180">
        <ele>499.9</ele>
        <time>2020-07-29T09:27:19Z</time>
      </trkpt>
      <trkpt lat="42.9419160" lon="1.0376600">
        <ele>499.5</ele>
        <time>2020-07-29T09:27:22Z</time>
      </trkpt>
      <trkpt lat="42.9421500" lon="1.0378080">
        <ele>499.1</ele>
        <time>2020-07-29T09:27:25Z</time>
      </trkpt>
      <trkpt lat="42.9423870" lon="1.0379530">
        <ele>498.6</ele>
        <time>2020-07-29T09:27:28Z</time>
      </trkpt>
      <trkpt lat="42.9429470" lon="1.0382980">
        <ele>497.8</ele>
        <time>2020-07-29T09:27:35Z</time>
      </trkpt>
      <trkpt lat="42.9431080" lon="1.0384020">
        <ele>497.7</ele>
        <time>2020-07-29T09:27:37Z</time>
      </trkpt>
      <trkpt lat="42.9434740" lon="1.0387510">
        <ele>496.7</ele>
        <time>2020-07-29T09:27:42Z</time>
      </trkpt>
      <trkpt lat="42.9435970" lon="1.0389280">
        <ele>496.1</ele>
        <time>2020-07-29T09:27:44Z</time>
      </trkpt>
      <trkpt lat="42.9438480" lon="1.0392970">
        <ele>495.3</ele>
        <time>2020-07-29T09:27:48Z</time>
      </trkpt>
      <trkpt lat="42.9439110" lon="1.0393880">
        <ele>495.1</ele>
        <time>2020-07-29T09:27:49Z</time>
      </trkpt>
      <trkpt lat="42.9440980" lon="1.0396560">
        <ele>494.7</ele>
        <time>2020-07-29T09:27:52Z</time>
      </trkpt>
      <trkpt lat="42.9443430" lon="1.0400160">
        <ele>494.0</ele>
        <time>2020-07-29T09:27:56Z</time>
      </trkpt>
      <trkpt lat="42.9444050" lon="1.0401060">
        <ele>493.8</ele>
        <time>2020-07-29T09:27:57Z</time>
      </trkpt>
      <trkpt lat="42.9447020" lon="1.0405300">
        <ele>493.1</ele>
        <time>2020-07-29T09:28:02Z</time>
      </trkpt>
      <trkpt lat="42.9447600" lon="1.0406070">
        <ele>493.0</ele>
        <time>2020-07-29T09:28:03Z</time>
      </trkpt>
      <trkpt lat="42.9448150" lon="1.0406890">
        <ele>492.8</ele>
        <time>2020-07-29T09:28:04Z</time>
      </trkpt>
      <trkpt lat="42.9450180" lon="1.0410450">
        <ele>492.2</ele>
        <time>2020-07-29T09:28:08Z</time>
      </trkpt>
      <trkpt lat="42.9451000" lon="1.0412470">
        <ele>491.8</ele>
        <time>2020-07-29T09:28:10Z</time>
      </trkpt>
      <trkpt lat="42.9452230" lon="1.0415560">
        <ele>491.2</ele>
        <time>2020-07-29T09:28:13Z</time>
      </trkpt>
      <trkpt lat="42.9453930" lon="1.0419740">
        <ele>490.6</ele>
        <time>2020-07-29T09:28:17Z</time>
      </trkpt>
      <trkpt lat="42.9455420" lon="1.0422690">
        <ele>490.1</ele>
        <time>2020-07-29T09:28:20Z</time>
      </trkpt>
      <trkpt lat="42.9457450" lon="1.0426600">
        <ele>489.7</ele>
        <time>2020-07-29T09:28:24Z</time>
      </trkpt>
      <trkpt lat="42.9459300" lon="1.0430880">
        <ele>489.3</ele>
        <time>2020-07-29T09:28:28Z</time>
      </trkpt>
      <trkpt lat="42.9460630" lon="1.0436770">
        <ele>488.6</ele>
        <time>2020-07-29T09:28:33Z</time>
      </trkpt>
      <trkpt lat="42.9460920" lon="1.0440470">
        <ele>488.0</ele>
        <time>2020-07-29T09:28:36Z</time>
      </trkpt>
      <trkpt lat="42.9461160" lon="1.0445460">
        <ele>487.4</ele>
        <time>2020-07-29T09:28:40Z</time>
      </trkpt>
      <trkpt lat="42.9461570" lon="1.0452830">
        <ele>486.6</ele>
        <time>2020-07-29T09:28:46Z</time>
      </trkpt>
      <trkpt lat="42.9461670" lon="1.0454080">
        <ele>486.4</ele>
        <time>2020-07-29T09:28:47Z</time>
      </trkpt>
      <trkpt lat="42.9462260" lon="1.0461420">
        <ele>485.3</ele>
        <time>2020-07-29T09:28:53Z</time>
      </trkpt>
      <trkpt lat="42.9462370" lon="1.0462620">
        <ele>485.2</ele>
        <time>2020-07-29T09:28:54Z</time>
      </trkpt>
      <trkpt lat="42.9463390" lon="1.0470910">
        <ele>484.0</ele>
        <time>2020-07-29T09:29:01Z</time>
      </trkpt>
      <trkpt lat="42.9463990" lon="1.0473260">
        <ele>483.5</ele>
        <time>2020-07-29T09:29:03Z</time>
      </trkpt>
      <trkpt lat="42.9465000" lon="1.0476730">
        <ele>482.9</ele>
        <time>2020-07-29T09:29:06Z</time>
      </trkpt>
      <trkpt lat="42.9466020" lon="1.0480150">
        <ele>482.4</ele>
        <time>2020-07-29T09:29:09Z</time>
      </trkpt>
      <trkpt lat="42.9467340" lon="1.0484840">
        <ele>481.8</ele>
        <time>2020-07-29T09:29:13Z</time>
      </trkpt>
      <trkpt lat="42.9468280" lon="1.0488350">
        <ele>481.3</ele>
        <time>2020-07-29T09:29:16Z</time>
      </trkpt>
      <trkpt lat="42.9469910" lon="1.0495430">
        <ele>480.1</ele>
        <time>2020-07-29T09:29:22Z</time>
      </trkpt>
      <trkpt lat="42.9470080" lon="1.0500190">
        <ele>479.3</ele>
        <time>2020-07-29T09:29:26Z</time>
      </trkpt>
      <trkpt lat="42.9469970" lon="1.0501400">
        <ele>479.1</ele>
        <time>2020-07-29T09:29:27Z</time>
      </trkpt>
      <trkpt lat="42.9468750" lon="1.0507160">
        <ele>478.0</ele>
        <time>2020-07-29T09:29:32Z</time>
      </trkpt>
      <trkpt lat="42.9466910" lon="1.0515220">
        <ele>476.6</ele>
        <time>2020-07-29T09:29:39Z</time>
      </trkpt>
      <trkpt lat="42.9467130" lon="1.0520070">
        <ele>476.0</ele>
        <time>2020-07-29T09:29:43Z</time>
      </trkpt>
      <trkpt lat="42.9467270" lon="1.0521290">
        <ele>475.9</ele>
        <time>2020-07-29T09:29:44Z</time>
      </trkpt>
      <trkpt lat="42.9467980" lon="1.0527250">
        <ele>474.9</ele>
        <time>2020-07-29T09:29:49Z</time>
      </trkpt>
      <trkpt lat="42.9468080" lon="1.0528440">
        <ele>474.7</ele>
        <time>2020-07-29T09:29:50Z</time>
      </trkpt>
      <trkpt lat="42.9468250" lon="1.0530790">
        <ele>474.3</ele>
        <time>2020-07-29T09:29:52Z</time>
      </trkpt>
      <trkpt lat="42.9468890" lon="1.0535350">
        <ele>473.6</ele>
        <time>2020-07-29T09:29:56Z</time>
      </trkpt>
      <trkpt lat="42.9469700" lon="1.0538590">
        <ele>473.2</ele>
        <time>2020-07-29T09:29:59Z</time>
      </trkpt>
      <trkpt lat="42.9470600" lon="1.0541850">
        <ele>472.7</ele>
        <time>2020-07-29T09:30:02Z</time>
      </trkpt>
      <trkpt lat="42.9472670" lon="1.0549380">
        <ele>471.2</ele>
        <time>2020-07-29T09:30:09Z</time>
      </trkpt>
      <trkpt lat="42.9473560" lon="1.0553980">
        <ele>470.5</ele>
        <time>2020-07-29T09:30:13Z</time>
      </trkpt>
      <trkpt lat="42.9473790" lon="1.0556340">
        <ele>470.1</ele>
        <time>2020-07-29T09:30:15Z</time>
      </trkpt>
      <trkpt lat="42.9474350" lon="1.0564590">
        <ele>469.0</ele>
        <time>2020-07-29T09:30:22Z</time>
      </trkpt>
      <trkpt lat="42.9474470" lon="1.0565730">
        <ele>468.9</ele>
        <time>2020-07-29T09:30:23Z</time>
      </trkpt>
      <trkpt lat="42.9474600" lon="1.0566830">
        <ele>468.7</ele>
        <time>2020-07-29T09:30:24Z</time>
      </trkpt>
      <trkpt lat="42.9475330" lon="1.0571420">
        <ele>467.7</ele>
        <time>2020-07-29T09:30:28Z</time>
      </trkpt>
      <trkpt lat="42.9475650" lon="1.0572540">
        <ele>467.5</ele>
        <time>2020-07-29T09:30:29Z</time>
      </trkpt>
      <trkpt lat="42.9476510" lon="1.0574660">
        <ele>467.3</ele>
        <time>2020-07-29T09:30:31Z</time>
      </trkpt>
      <trkpt lat="42.9477580" lon="1.0576570">
        <ele>467.3</ele>
        <time>2020-07-29T09:30:33Z</time>
      </trkpt>
      <trkpt lat="42.9480060" lon="1.0581230">
        <ele>467.2</ele>
        <time>2020-07-29T09:30:38Z</time>
      </trkpt>
      <trkpt lat="42.9480530" lon="1.0582090">
        <ele>467.3</ele>
        <time>2020-07-29T09:30:39Z</time>
      </trkpt>
      <trkpt lat="42.9481480" lon="1.0583740">
        <ele>467.3</ele>
        <time>2020-07-29T09:30:41Z</time>
      </trkpt>
      <trkpt lat="42.9481940" lon="1.0584620">
        <ele>467.4</ele>
        <time>2020-07-29T09:30:42Z</time>
      </trkpt>
      <trkpt lat="42.9483040" lon="1.0587560">
        <ele>466.8</ele>
        <time>2020-07-29T09:30:45Z</time>
      </trkpt>
      <trkpt lat="42.9483270" lon="1.0588550">
        <ele>466.6</ele>
        <time>2020-07-29T09:30:46Z</time>
      </trkpt>
      <trkpt lat="42.9483730" lon="1.0590610">
        <ele>466.0</ele>
        <time>2020-07-29T09:30:48Z</time>
      </trkpt>
      <trkpt lat="42.9483860" lon="1.0591700">
        <ele>465.9</ele>
        <time>2020-07-29T09:30:49Z</time>
      </trkpt>
      <trkpt lat="42.9483820" lon="1.0592750">
        <ele>465.7</ele>
        <time>2020-07-29T09:30:50Z</time>
      </trkpt>
      <trkpt lat="42.9483180" lon="1.0595970">
        <ele>465.3</ele>
        <time>2020-07-29T09:30:53Z</time>
      </trkpt>
      <trkpt lat="42.9482960" lon="1.0597070">
        <ele>465.2</ele>
        <time>2020-07-29T09:30:54Z</time>
      </trkpt>
      <trkpt lat="42.9481340" lon="1.0603260">
        <ele>464.8</ele>
        <time>2020-07-29T09:31:00Z</time>
      </trkpt>
      <trkpt lat="42.9480810" lon="1.0605260">
        <ele>464.5</ele>
        <time>2020-07-29T09:31:02Z</time>
      </trkpt>
      <trkpt lat="42.9479220" lon="1.0612240">
        <ele>463.9</ele>
        <time>2020-07-29T09:31:09Z</time>
      </trkpt>
      <trkpt lat="42.9477670" lon="1.0618180">
        <ele>463.5</ele>
        <time>2020-07-29T09:31:15Z</time>
      </trkpt>
      <trkpt lat="42.9477470" lon="1.0619170">
        <ele>463.5</ele>
        <time>2020-07-29T09:31:16Z</time>
      </trkpt>
      <trkpt lat="42.9477680" lon="1.0623040">
        <ele>463.5</ele>
        <time>2020-07-29T09:31:20Z</time>
      </trkpt>
      <trkpt lat="42.9477920" lon="1.0623970">
        <ele>463.5</ele>
        <time>2020-07-29T09:31:21Z</time>
      </trkpt>
      <trkpt lat="42.9479530" lon="1.0631750">
        <ele>463.0</ele>
        <time>2020-07-29T09:31:29Z</time>
      </trkpt>
      <trkpt lat="42.9480460" lon="1.0639930">
        <ele>462.5</ele>
        <time>2020-07-29T09:31:37Z</time>
      </trkpt>
      <trkpt lat="42.9480560" lon="1.0640970">
        <ele>462.5</ele>
        <time>2020-07-29T09:31:38Z</time>
      </trkpt>
      <trkpt lat="42.9481460" lon="1.0649160">
        <ele>462.7</ele>
        <time>2020-07-29T09:31:46Z</time>
      </trkpt>
      <trkpt lat="42.9481670" lon="1.0651160">
        <ele>462.8</ele>
        <time>2020-07-29T09:31:48Z</time>
      </trkpt>
      <trkpt lat="42.9481870" lon="1.0653170">
        <ele>462.6</ele>
        <time>2020-07-29T09:31:50Z</time>
      </trkpt>
      <trkpt lat="42.9482570" lon="1.0661300">
        <ele>462.5</ele>
        <time>2020-07-29T09:31:58Z</time>
      </trkpt>
      <trkpt lat="42.9482660" lon="1.0664330">
        <ele>462.4</ele>
        <time>2020-07-29T09:32:01Z</time>
      </trkpt>
      <trkpt lat="42.9482720" lon="1.0672260">
        <ele>461.0</ele>
        <time>2020-07-29T09:32:09Z</time>
      </trkpt>
      <trkpt lat="42.9482990" lon="1.0680330">
        <ele>459.3</ele>
        <time>2020-07-29T09:32:16Z</time>
      </trkpt>
      <trkpt lat="42.9482980" lon="1.0681520">
        <ele>459.0</ele>
        <time>2020-07-29T09:32:17Z</time>
      </trkpt>
      <trkpt lat="42.9482930" lon="1.0685020">
        <ele>458.5</ele>
        <time>2020-07-29T09:32:20Z</time>
      </trkpt>
      <trkpt lat="42.9482990" lon="1.0686180">
        <ele>458.3</ele>
        <time>2020-07-29T09:32:21Z</time>
      </trkpt>
      <trkpt lat="42.9483290" lon="1.0688460">
        <ele>458.0</ele>
        <time>2020-07-29T09:32:23Z</time>
      </trkpt>
      <trkpt lat="42.9484690" lon="1.0696170">
        <ele>457.4</ele>
        <time>2020-07-29T09:32:30Z</time>
      </trkpt>
      <trkpt lat="42.9484860" lon="1.0697250">
        <ele>457.4</ele>
        <time>2020-07-29T09:32:31Z</time>
      </trkpt>
      <trkpt lat="42.9485810" lon="1.0704700">
        <ele>457.0</ele>
        <time>2020-07-29T09:32:38Z</time>
      </trkpt>
      <trkpt lat="42.9487160" lon="1.0709840">
        <ele>456.5</ele>
        <time>2020-07-29T09:32:43Z</time>
      </trkpt>
      <trkpt lat="42.9489480" lon="1.0714480">
        <ele>456.3</ele>
        <time>2020-07-29T09:32:48Z</time>
      </trkpt>
      <trkpt lat="42.9492610" lon="1.0718290">
        <ele>455.9</ele>
        <time>2020-07-29T09:32:53Z</time>
      </trkpt>
      <trkpt lat="42.9493300" lon="1.0718960">
        <ele>455.9</ele>
        <time>2020-07-29T09:32:54Z</time>
      </trkpt>
      <trkpt lat="42.9498070" lon="1.0723880">
        <ele>454.9</ele>
        <time>2020-07-29T09:33:01Z</time>
      </trkpt>
      <trkpt lat="42.9498680" lon="1.0724680">
        <ele>454.7</ele>
        <time>2020-07-29T09:33:02Z</time>
      </trkpt>
      <trkpt lat="42.9500770" lon="1.0728210">
        <ele>454.0</ele>
        <time>2020-07-29T09:33:06Z</time>
      </trkpt>
      <trkpt lat="42.9501230" lon="1.0729140">
        <ele>453.9</ele>
        <time>2020-07-29T09:33:07Z</time>
      </trkpt>
      <trkpt lat="42.9503840" lon="1.0734770">
        <ele>453.3</ele>
        <time>2020-07-29T09:33:13Z</time>
      </trkpt>
      <trkpt lat="42.9505960" lon="1.0739510">
        <ele>453.1</ele>
        <time>2020-07-29T09:33:18Z</time>
      </trkpt>
      <trkpt lat="42.9507270" lon="1.0742390">
        <ele>452.7</ele>
        <time>2020-07-29T09:33:21Z</time>
      </trkpt>
      <trkpt lat="42.9510800" lon="1.0748930">
        <ele>451.9</ele>
        <time>2020-07-29T09:33:28Z</time>
      </trkpt>
      <trkpt lat="42.9515210" lon="1.0754500">
        <ele>451.5</ele>
        <time>2020-07-29T09:33:35Z</time>
      </trkpt>
      <trkpt lat="42.9519040" lon="1.0759180">
        <ele>451.1</ele>
        <time>2020-07-29T09:33:41Z</time>
      </trkpt>
      <trkpt lat="42.9521430" lon="1.0762510">
        <ele>450.8</ele>
        <time>2020-07-29T09:33:45Z</time>
      </trkpt>
      <trkpt lat="42.9522010" lon="1.0763360">
        <ele>450.7</ele>
        <time>2020-07-29T09:33:46Z</time>
      </trkpt>
      <trkpt lat="42.9525470" lon="1.0768510">
        <ele>450.1</ele>
        <time>2020-07-29T09:33:52Z</time>
      </trkpt>
      <trkpt lat="42.9527340" lon="1.0770930">
        <ele>449.6</ele>
        <time>2020-07-29T09:33:55Z</time>
      </trkpt>
      <trkpt lat="42.9532070" lon="1.0776440">
        <ele>448.4</ele>
        <time>2020-07-29T09:34:02Z</time>
      </trkpt>
      <trkpt lat="42.9532730" lon="1.0777330">
        <ele>448.3</ele>
        <time>2020-07-29T09:34:03Z</time>
      </trkpt>
      <trkpt lat="42.9535680" lon="1.0782140">
        <ele>447.8</ele>
        <time>2020-07-29T09:34:08Z</time>
      </trkpt>
      <trkpt lat="42.9536230" lon="1.0783110">
        <ele>447.7</ele>
        <time>2020-07-29T09:34:09Z</time>
      </trkpt>
      <trkpt lat="42.9538350" lon="1.0786870">
        <ele>447.4</ele>
        <time>2020-07-29T09:34:13Z</time>
      </trkpt>
      <trkpt lat="42.9542000" lon="1.0793340">
        <ele>446.7</ele>
        <time>2020-07-29T09:34:20Z</time>
      </trkpt>
      <trkpt lat="42.9543670" lon="1.0798850">
        <ele>446.0</ele>
        <time>2020-07-29T09:34:25Z</time>
      </trkpt>
      <trkpt lat="42.9544350" lon="1.0801020">
        <ele>445.9</ele>
        <time>2020-07-29T09:34:27Z</time>
      </trkpt>
      <trkpt lat="42.9545640" lon="1.0804030">
        <ele>445.9</ele>
        <time>2020-07-29T09:34:30Z</time>
      </trkpt>
      <trkpt lat="42.9547100" lon="1.0806820">
        <ele>445.6</ele>
        <time>2020-07-29T09:34:33Z</time>
      </trkpt>
      <trkpt lat="42.9549680" lon="1.0811240">
        <ele>445.2</ele>
        <time>2020-07-29T09:34:38Z</time>
      </trkpt>
      <trkpt lat="42.9552430" lon="1.0816870">
        <ele>444.4</ele>
        <time>2020-07-29T09:34:44Z</time>
      </trkpt>
      <trkpt lat="42.9552870" lon="1.0817820">
        <ele>444.3</ele>
        <time>2020-07-29T09:34:45Z</time>
      </trkpt>
      <trkpt lat="42.9555600" lon="1.0824360">
        <ele>443.4</ele>
        <time>2020-07-29T09:34:52Z</time>
      </trkpt>
      <trkpt lat="42.9556000" lon="1.0825280">
        <ele>443.3</ele>
        <time>2020-07-29T09:34:53Z</time>
      </trkpt>
      <trkpt lat="42.9558970" lon="1.0831420">
        <ele>442.7</ele>
        <time>2020-07-29T09:35:00Z</time>
      </trkpt>
      <trkpt lat="42.9559470" lon="1.0832240">
        <ele>442.6</ele>
        <time>2020-07-29T09:35:01Z</time>
      </trkpt>
      <trkpt lat="42.9563270" lon="1.0837900">
        <ele>441.9</ele>
        <time>2020-07-29T09:35:08Z</time>
      </trkpt>
      <trkpt lat="42.9564360" lon="1.0839540">
        <ele>441.6</ele>
        <time>2020-07-29T09:35:10Z</time>
      </trkpt>
      <trkpt lat="42.9564910" lon="1.0840360">
        <ele>441.5</ele>
        <time>2020-07-29T09:35:11Z</time>
      </trkpt>
      <trkpt lat="42.9568530" lon="1.0844690">
        <ele>440.9</ele>
        <time>2020-07-29T09:35:17Z</time>
      </trkpt>
      <trkpt lat="42.9569250" lon="1.0845210">
        <ele>440.8</ele>
        <time>2020-07-29T09:35:18Z</time>
      </trkpt>
      <trkpt lat="42.9571570" lon="1.0846290">
        <ele>440.5</ele>
        <time>2020-07-29T09:35:21Z</time>
      </trkpt>
      <trkpt lat="42.9576550" lon="1.0847680">
        <ele>440.0</ele>
        <time>2020-07-29T09:35:27Z</time>
      </trkpt>
      <trkpt lat="42.9577370" lon="1.0847940">
        <ele>440.0</ele>
        <time>2020-07-29T09:35:28Z</time>
      </trkpt>
      <trkpt lat="42.9581270" lon="1.0849990">
        <ele>439.6</ele>
        <time>2020-07-29T09:35:33Z</time>
      </trkpt>
      <trkpt lat="42.9581970" lon="1.0850580">
        <ele>439.5</ele>
        <time>2020-07-29T09:35:34Z</time>
      </trkpt>
      <trkpt lat="42.9583270" lon="1.0851980">
        <ele>439.2</ele>
        <time>2020-07-29T09:35:36Z</time>
      </trkpt>
      <trkpt lat="42.9583890" lon="1.0852710">
        <ele>439.1</ele>
        <time>2020-07-29T09:35:37Z</time>
      </trkpt>
      <trkpt lat="42.9585030" lon="1.0854340">
        <ele>438.8</ele>
        <time>2020-07-29T09:35:39Z</time>
      </trkpt>
      <trkpt lat="42.9585910" lon="1.0856250">
        <ele>438.5</ele>
        <time>2020-07-29T09:35:41Z</time>
      </trkpt>
      <trkpt lat="42.9586610" lon="1.0858290">
        <ele>438.3</ele>
        <time>2020-07-29T09:35:43Z</time>
      </trkpt>
      <trkpt lat="42.9588120" lon="1.0862170">
        <ele>438.1</ele>
        <time>2020-07-29T09:35:47Z</time>
      </trkpt>
      <trkpt lat="42.9590500" lon="1.0865100">
        <ele>437.8</ele>
        <time>2020-07-29T09:35:51Z</time>
      </trkpt>
      <trkpt lat="42.9593480" lon="1.0866940">
        <ele>437.5</ele>
        <time>2020-07-29T09:35:55Z</time>
      </trkpt>
      <trkpt lat="42.9594250" lon="1.0867330">
        <ele>437.4</ele>
        <time>2020-07-29T09:35:56Z</time>
      </trkpt>
      <trkpt lat="42.9597370" lon="1.0868720">
        <ele>437.2</ele>
        <time>2020-07-29T09:36:00Z</time>
      </trkpt>
      <trkpt lat="42.9601270" lon="1.0869920">
        <ele>437.6</ele>
        <time>2020-07-29T09:36:05Z</time>
      </trkpt>
      <trkpt lat="42.9602760" lon="1.0870430">
        <ele>438.0</ele>
        <time>2020-07-29T09:36:07Z</time>
      </trkpt>
      <trkpt lat="42.9604230" lon="1.0871050">
        <ele>438.4</ele>
        <time>2020-07-29T09:36:09Z</time>
      </trkpt>
      <trkpt lat="42.9604890" lon="1.0871510">
        <ele>438.7</ele>
        <time>2020-07-29T09:36:10Z</time>
      </trkpt>
      <trkpt lat="42.9607020" lon="1.0873810">
        <ele>439.6</ele>
        <time>2020-07-29T09:36:14Z</time>
      </trkpt>
      <trkpt lat="42.9607770" lon="1.0875180">
        <ele>440.0</ele>
        <time>2020-07-29T09:36:16Z</time>
      </trkpt>
      <trkpt lat="42.9609440" lon="1.0877860">
        <ele>441.1</ele>
        <time>2020-07-29T09:36:20Z</time>
      </trkpt>
      <trkpt lat="42.9610660" lon="1.0879750">
        <ele>441.9</ele>
        <time>2020-07-29T09:36:23Z</time>
      </trkpt>
      <trkpt lat="42.9612200" lon="1.0882260">
        <ele>442.4</ele>
        <time>2020-07-29T09:36:27Z</time>
      </trkpt>
      <trkpt lat="42.9612990" lon="1.0883680">
        <ele>442.7</ele>
        <time>2020-07-29T09:36:29Z</time>
      </trkpt>
      <trkpt lat="42.9614170" lon="1.0886610">
        <ele>443.4</ele>
        <time>2020-07-29T09:36:33Z</time>
      </trkpt>
      <trkpt lat="42.9614380" lon="1.0887390">
        <ele>443.6</ele>
        <time>2020-07-29T09:36:34Z</time>
      </trkpt>
      <trkpt lat="42.9615100" lon="1.0891310">
        <ele>444.3</ele>
        <time>2020-07-29T09:36:39Z</time>
      </trkpt>
      <trkpt lat="42.9615210" lon="1.0892080">
        <ele>444.3</ele>
        <time>2020-07-29T09:36:40Z</time>
      </trkpt>
      <trkpt lat="42.9615690" lon="1.0896790">
        <ele>444.8</ele>
        <time>2020-07-29T09:36:46Z</time>
      </trkpt>
      <trkpt lat="42.9616170" lon="1.0899980">
        <ele>445.1</ele>
        <time>2020-07-29T09:36:50Z</time>
      </trkpt>
      <trkpt lat="42.9616770" lon="1.0903170">
        <ele>445.3</ele>
        <time>2020-07-29T09:36:54Z</time>
      </trkpt>
      <trkpt lat="42.9617870" lon="1.0909020">
        <ele>445.1</ele>
        <time>2020-07-29T09:37:01Z</time>
      </trkpt>
      <trkpt lat="42.9618420" lon="1.0911790">
        <ele>444.2</ele>
        <time>2020-07-29T09:37:04Z</time>
      </trkpt>
      <trkpt lat="42.9620000" lon="1.0916860">
        <ele>441.7</ele>
        <time>2020-07-29T09:37:09Z</time>
      </trkpt>
      <trkpt lat="42.9622490" lon="1.0922430">
        <ele>438.7</ele>
        <time>2020-07-29T09:37:14Z</time>
      </trkpt>
      <trkpt lat="42.9622970" lon="1.0923630">
        <ele>438.5</ele>
        <time>2020-07-29T09:37:15Z</time>
      </trkpt>
      <trkpt lat="42.9623360" lon="1.0924850">
        <ele>438.5</ele>
        <time>2020-07-29T09:37:16Z</time>
      </trkpt>
      <trkpt lat="42.9623600" lon="1.0926030">
        <ele>439.3</ele>
        <time>2020-07-29T09:37:17Z</time>
      </trkpt>
      <trkpt lat="42.9623900" lon="1.0927110">
        <ele>438.2</ele>
        <time>2020-07-29T09:37:18Z</time>
      </trkpt>
      <trkpt lat="42.9624420" lon="1.0927990">
        <ele>437.5</ele>
        <time>2020-07-29T09:37:19Z</time>
      </trkpt>
      <trkpt lat="42.9625080" lon="1.0928660">
        <ele>437.1</ele>
        <time>2020-07-29T09:37:20Z</time>
      </trkpt>
      <trkpt lat="42.9625790" lon="1.0929240">
        <ele>436.9</ele>
        <time>2020-07-29T09:37:21Z</time>
      </trkpt>
      <trkpt lat="42.9627170" lon="1.0930430">
        <ele>436.8</ele>
        <time>2020-07-29T09:37:23Z</time>
      </trkpt>
      <trkpt lat="42.9630600" lon="1.0933630">
        <ele>436.6</ele>
        <time>2020-07-29T09:37:28Z</time>
      </trkpt>
      <trkpt lat="42.9633960" lon="1.0938690">
        <ele>435.3</ele>
        <time>2020-07-29T09:37:34Z</time>
      </trkpt>
      <trkpt lat="42.9637510" lon="1.0944970">
        <ele>434.3</ele>
        <time>2020-07-29T09:37:41Z</time>
      </trkpt>
      <trkpt lat="42.9638980" lon="1.0947540">
        <ele>434.1</ele>
        <time>2020-07-29T09:37:44Z</time>
      </trkpt>
      <trkpt lat="42.9642570" lon="1.0953110">
        <ele>433.2</ele>
        <time>2020-07-29T09:37:51Z</time>
      </trkpt>
      <trkpt lat="42.9643130" lon="1.0953870">
        <ele>433.1</ele>
        <time>2020-07-29T09:37:52Z</time>
      </trkpt>
      <trkpt lat="42.9644860" lon="1.0956180">
        <ele>432.7</ele>
        <time>2020-07-29T09:37:55Z</time>
      </trkpt>
      <trkpt lat="42.9648370" lon="1.0961190">
        <ele>431.8</ele>
        <time>2020-07-29T09:38:01Z</time>
      </trkpt>
      <trkpt lat="42.9651840" lon="1.0966460">
        <ele>431.4</ele>
        <time>2020-07-29T09:38:07Z</time>
      </trkpt>
      <trkpt lat="42.9654120" lon="1.0969860">
        <ele>430.7</ele>
        <time>2020-07-29T09:38:11Z</time>
      </trkpt>
      <trkpt lat="42.9656860" lon="1.0973950">
        <ele>430.6</ele>
        <time>2020-07-29T09:38:16Z</time>
      </trkpt>
      <trkpt lat="42.9658970" lon="1.0977130">
        <ele>430.5</ele>
        <time>2020-07-29T09:38:20Z</time>
      </trkpt>
      <trkpt lat="42.9662760" lon="1.0983410">
        <ele>430.8</ele>
        <time>2020-07-29T09:38:28Z</time>
      </trkpt>
      <trkpt lat="42.9663200" lon="1.0984180">
        <ele>430.9</ele>
        <time>2020-07-29T09:38:29Z</time>
      </trkpt>
      <trkpt lat="42.9665400" lon="1.0989160">
        <ele>430.9</ele>
        <time>2020-07-29T09:38:35Z</time>
      </trkpt>
      <trkpt lat="42.9666610" lon="1.0995110">
        <ele>430.1</ele>
        <time>2020-07-29T09:38:41Z</time>
      </trkpt>
      <trkpt lat="42.9667710" lon="1.1002700">
        <ele>428.8</ele>
        <time>2020-07-29T09:38:48Z</time>
      </trkpt>
      <trkpt lat="42.9667880" lon="1.1003830">
        <ele>428.6</ele>
        <time>2020-07-29T09:38:49Z</time>
      </trkpt>
      <trkpt lat="42.9668840" lon="1.1011710">
        <ele>427.7</ele>
        <time>2020-07-29T09:38:56Z</time>
      </trkpt>
      <trkpt lat="42.9668950" lon="1.1012780">
        <ele>427.6</ele>
        <time>2020-07-29T09:38:57Z</time>
      </trkpt>
      <trkpt lat="42.9669060" lon="1.1013860">
        <ele>427.4</ele>
        <time>2020-07-29T09:38:58Z</time>
      </trkpt>
      <trkpt lat="42.9669340" lon="1.1018290">
        <ele>427.0</ele>
        <time>2020-07-29T09:39:02Z</time>
      </trkpt>
      <trkpt lat="42.9669260" lon="1.1020550">
        <ele>427.1</ele>
        <time>2020-07-29T09:39:04Z</time>
      </trkpt>
      <trkpt lat="42.9669430" lon="1.1021640">
        <ele>427.0</ele>
        <time>2020-07-29T09:39:05Z</time>
      </trkpt>
      <trkpt lat="42.9670250" lon="1.1023660">
        <ele>426.7</ele>
        <time>2020-07-29T09:39:07Z</time>
      </trkpt>
      <trkpt lat="42.9672330" lon="1.1028750">
        <ele>426.0</ele>
        <time>2020-07-29T09:39:12Z</time>
      </trkpt>
      <trkpt lat="42.9674450" lon="1.1032500">
        <ele>425.6</ele>
        <time>2020-07-29T09:39:16Z</time>
      </trkpt>
      <trkpt lat="42.9675550" lon="1.1034330">
        <ele>425.5</ele>
        <time>2020-07-29T09:39:18Z</time>
      </trkpt>
      <trkpt lat="42.9678360" lon="1.1040250">
        <ele>424.7</ele>
        <time>2020-07-29T09:39:24Z</time>
      </trkpt>
      <trkpt lat="42.9679040" lon="1.1042380">
        <ele>424.5</ele>
        <time>2020-07-29T09:39:26Z</time>
      </trkpt>
      <trkpt lat="42.9680210" lon="1.1046670">
        <ele>424.2</ele>
        <time>2020-07-29T09:39:30Z</time>
      </trkpt>
      <trkpt lat="42.9682730" lon="1.1053690">
        <ele>423.9</ele>
        <time>2020-07-29T09:39:37Z</time>
      </trkpt>
      <trkpt lat="42.9685490" lon="1.1060530">
        <ele>423.3</ele>
        <time>2020-07-29T09:39:44Z</time>
      </trkpt>
      <trkpt lat="42.9687080" lon="1.1064520">
        <ele>423.1</ele>
        <time>2020-07-29T09:39:48Z</time>
      </trkpt>
      <trkpt lat="42.9688310" lon="1.1067460">
        <ele>422.7</ele>
        <time>2020-07-29T09:39:51Z</time>
      </trkpt>
      <trkpt lat="42.9691110" lon="1.1074400">
        <ele>422.2</ele>
        <time>2020-07-29T09:39:58Z</time>
      </trkpt>
      <trkpt lat="42.9691890" lon="1.1076420">
        <ele>422.0</ele>
        <time>2020-07-29T09:40:00Z</time>
      </trkpt>
      <trkpt lat="42.9694320" lon="1.1082310">
        <ele>421.3</ele>
        <time>2020-07-29T09:40:06Z</time>
      </trkpt>
      <trkpt lat="42.9696320" lon="1.1087320">
        <ele>420.5</ele>
        <time>2020-07-29T09:40:11Z</time>
      </trkpt>
      <trkpt lat="42.9699130" lon="1.1094340">
        <ele>420.1</ele>
        <time>2020-07-29T09:40:18Z</time>
      </trkpt>
      <trkpt lat="42.9699970" lon="1.1096320">
        <ele>419.9</ele>
        <time>2020-07-29T09:40:20Z</time>
      </trkpt>
      <trkpt lat="42.9702480" lon="1.1102130">
        <ele>419.2</ele>
        <time>2020-07-29T09:40:26Z</time>
      </trkpt>
      <trkpt lat="42.9704050" lon="1.1103750">
        <ele>419.2</ele>
        <time>2020-07-29T09:40:28Z</time>
      </trkpt>
      <trkpt lat="42.9704750" lon="1.1104600">
        <ele>419.3</ele>
        <time>2020-07-29T09:40:29Z</time>
      </trkpt>
      <trkpt lat="42.9705100" lon="1.1105570">
        <ele>419.3</ele>
        <time>2020-07-29T09:40:30Z</time>
      </trkpt>
      <trkpt lat="42.9707620" lon="1.1112280">
        <ele>419.6</ele>
        <time>2020-07-29T09:40:37Z</time>
      </trkpt>
      <trkpt lat="42.9707970" lon="1.1113230">
        <ele>419.6</ele>
        <time>2020-07-29T09:40:38Z</time>
      </trkpt>
      <trkpt lat="42.9710480" lon="1.1119770">
        <ele>419.6</ele>
        <time>2020-07-29T09:40:45Z</time>
      </trkpt>
      <trkpt lat="42.9711140" lon="1.1121630">
        <ele>419.7</ele>
        <time>2020-07-29T09:40:47Z</time>
      </trkpt>
      <trkpt lat="42.9711800" lon="1.1123460">
        <ele>419.8</ele>
        <time>2020-07-29T09:40:49Z</time>
      </trkpt>
      <trkpt lat="42.9714330" lon="1.1130790">
        <ele>419.8</ele>
        <time>2020-07-29T09:40:57Z</time>
      </trkpt>
      <trkpt lat="42.9714590" lon="1.1131770">
        <ele>419.8</ele>
        <time>2020-07-29T09:40:58Z</time>
      </trkpt>
      <trkpt lat="42.9715410" lon="1.1137910">
        <ele>419.3</ele>
        <time>2020-07-29T09:41:03Z</time>
      </trkpt>
      <trkpt lat="42.9715500" lon="1.1139080">
        <ele>419.2</ele>
        <time>2020-07-29T09:41:04Z</time>
      </trkpt>
      <trkpt lat="42.9715850" lon="1.1143740">
        <ele>418.7</ele>
        <time>2020-07-29T09:41:08Z</time>
      </trkpt>
      <trkpt lat="42.9716300" lon="1.1149190">
        <ele>418.2</ele>
        <time>2020-07-29T09:41:13Z</time>
      </trkpt>
      <trkpt lat="42.9716970" lon="1.1156990">
        <ele>417.9</ele>
        <time>2020-07-29T09:41:20Z</time>
      </trkpt>
      <trkpt lat="42.9717300" lon="1.1158590">
        <ele>417.8</ele>
        <time>2020-07-29T09:41:21Z</time>
      </trkpt>
      <trkpt lat="42.9717710" lon="1.1160140">
        <ele>417.8</ele>
        <time>2020-07-29T09:41:22Z</time>
      </trkpt>
      <trkpt lat="42.9717830" lon="1.1162150">
        <ele>417.8</ele>
        <time>2020-07-29T09:41:24Z</time>
      </trkpt>
      <trkpt lat="42.9718030" lon="1.1162800">
        <ele>417.8</ele>
        <time>2020-07-29T09:41:25Z</time>
      </trkpt>
      <trkpt lat="42.9718100" lon="1.1163680">
        <ele>417.8</ele>
        <time>2020-07-29T09:41:26Z</time>
      </trkpt>
      <trkpt lat="42.9719000" lon="1.1169970">
        <ele>417.6</ele>
        <time>2020-07-29T09:41:32Z</time>
      </trkpt>
      <trkpt lat="42.9719500" lon="1.1174750">
        <ele>417.5</ele>
        <time>2020-07-29T09:41:37Z</time>
      </trkpt>
      <trkpt lat="42.9720150" lon="1.1182020">
        <ele>417.3</ele>
        <time>2020-07-29T09:41:44Z</time>
      </trkpt>
      <trkpt lat="42.9721140" lon="1.1189760">
        <ele>416.6</ele>
        <time>2020-07-29T09:41:51Z</time>
      </trkpt>
      <trkpt lat="42.9721290" lon="1.1190910">
        <ele>416.5</ele>
        <time>2020-07-29T09:41:52Z</time>
      </trkpt>
      <trkpt lat="42.9722240" lon="1.1198280">
        <ele>416.0</ele>
        <time>2020-07-29T09:41:58Z</time>
      </trkpt>
      <trkpt lat="42.9722530" lon="1.1199480">
        <ele>415.9</ele>
        <time>2020-07-29T09:41:59Z</time>
      </trkpt>
      <trkpt lat="42.9723670" lon="1.1202650">
        <ele>415.5</ele>
        <time>2020-07-29T09:42:02Z</time>
      </trkpt>
      <trkpt lat="42.9724700" lon="1.1204640">
        <ele>415.3</ele>
        <time>2020-07-29T09:42:04Z</time>
      </trkpt>
      <trkpt lat="42.9725850" lon="1.1206410">
        <ele>415.0</ele>
        <time>2020-07-29T09:42:06Z</time>
      </trkpt>
      <trkpt lat="42.9726500" lon="1.1207160">
        <ele>414.7</ele>
        <time>2020-07-29T09:42:07Z</time>
      </trkpt>
      <trkpt lat="42.9727190" lon="1.1207850">
        <ele>414.4</ele>
        <time>2020-07-29T09:42:08Z</time>
      </trkpt>
      <trkpt lat="42.9731120" lon="1.1210300">
        <ele>413.3</ele>
        <time>2020-07-29T09:42:12Z</time>
      </trkpt>
      <trkpt lat="42.9734630" lon="1.1210740">
        <ele>412.3</ele>
        <time>2020-07-29T09:42:17Z</time>
      </trkpt>
      <trkpt lat="42.9736410" lon="1.1210470">
        <ele>412.0</ele>
        <time>2020-07-29T09:42:19Z</time>
      </trkpt>
      <trkpt lat="42.9739030" lon="1.1209550">
        <ele>411.7</ele>
        <time>2020-07-29T09:42:22Z</time>
      </trkpt>
      <trkpt lat="42.9740740" lon="1.1208760">
        <ele>411.6</ele>
        <time>2020-07-29T09:42:24Z</time>
      </trkpt>
      <trkpt lat="42.9745830" lon="1.1206340">
        <ele>411.3</ele>
        <time>2020-07-29T09:42:30Z</time>
      </trkpt>
      <trkpt lat="42.9748440" lon="1.1205770">
        <ele>411.1</ele>
        <time>2020-07-29T09:42:33Z</time>
      </trkpt>
      <trkpt lat="42.9749330" lon="1.1205770">
        <ele>411.0</ele>
        <time>2020-07-29T09:42:34Z</time>
      </trkpt>
      <trkpt lat="42.9752750" lon="1.1206760">
        <ele>410.5</ele>
        <time>2020-07-29T09:42:38Z</time>
      </trkpt>
      <trkpt lat="42.9758730" lon="1.1209020">
        <ele>409.8</ele>
        <time>2020-07-29T09:42:45Z</time>
      </trkpt>
      <trkpt lat="42.9759610" lon="1.1209230">
        <ele>409.7</ele>
        <time>2020-07-29T09:42:46Z</time>
      </trkpt>
      <trkpt lat="42.9763890" lon="1.1210420">
        <ele>409.2</ele>
        <time>2020-07-29T09:42:51Z</time>
      </trkpt>
      <trkpt lat="42.9765500" lon="1.1211340">
        <ele>409.0</ele>
        <time>2020-07-29T09:42:53Z</time>
      </trkpt>
      <trkpt lat="42.9768090" lon="1.1214400">
        <ele>408.8</ele>
        <time>2020-07-29T09:42:57Z</time>
      </trkpt>
      <trkpt lat="42.9771230" lon="1.1220170">
        <ele>408.2</ele>
        <time>2020-07-29T09:43:03Z</time>
      </trkpt>
      <trkpt lat="42.9774660" lon="1.1225570">
        <ele>408.2</ele>
        <time>2020-07-29T09:43:09Z</time>
      </trkpt>
      <trkpt lat="42.9777130" lon="1.1230700">
        <ele>408.0</ele>
        <time>2020-07-29T09:43:14Z</time>
      </trkpt>
      <trkpt lat="42.9779400" lon="1.1238170">
        <ele>408.1</ele>
        <time>2020-07-29T09:43:21Z</time>
      </trkpt>
      <trkpt lat="42.9781600" lon="1.1245240">
        <ele>408.6</ele>
        <time>2020-07-29T09:43:28Z</time>
      </trkpt>
      <trkpt lat="42.9781950" lon="1.1246200">
        <ele>408.6</ele>
        <time>2020-07-29T09:43:29Z</time>
      </trkpt>
      <trkpt lat="42.9784470" lon="1.1252730">
        <ele>408.0</ele>
        <time>2020-07-29T09:43:36Z</time>
      </trkpt>
      <trkpt lat="42.9785270" lon="1.1254580">
        <ele>408.0</ele>
        <time>2020-07-29T09:43:38Z</time>
      </trkpt>
      <trkpt lat="42.9788020" lon="1.1261190">
        <ele>407.7</ele>
        <time>2020-07-29T09:43:45Z</time>
      </trkpt>
      <trkpt lat="42.9788430" lon="1.1262150">
        <ele>407.6</ele>
        <time>2020-07-29T09:43:46Z</time>
      </trkpt>
      <trkpt lat="42.9791430" lon="1.1268830">
        <ele>407.3</ele>
        <time>2020-07-29T09:43:53Z</time>
      </trkpt>
      <trkpt lat="42.9791890" lon="1.1269780">
        <ele>407.2</ele>
        <time>2020-07-29T09:43:54Z</time>
      </trkpt>
      <trkpt lat="42.9793310" lon="1.1272570">
        <ele>407.1</ele>
        <time>2020-07-29T09:43:57Z</time>
      </trkpt>
      <trkpt lat="42.9796610" lon="1.1279220">
        <ele>406.5</ele>
        <time>2020-07-29T09:44:04Z</time>
      </trkpt>
      <trkpt lat="42.9797430" lon="1.1281200">
        <ele>406.3</ele>
        <time>2020-07-29T09:44:06Z</time>
      </trkpt>
      <trkpt lat="42.9798250" lon="1.1283150">
        <ele>406.2</ele>
        <time>2020-07-29T09:44:08Z</time>
      </trkpt>
      <trkpt lat="42.9800600" lon="1.1288530">
        <ele>405.4</ele>
        <time>2020-07-29T09:44:14Z</time>
      </trkpt>
      <trkpt lat="42.9802950" lon="1.1292960">
        <ele>404.5</ele>
        <time>2020-07-29T09:44:19Z</time>
      </trkpt>
      <trkpt lat="42.9803930" lon="1.1295110">
        <ele>404.1</ele>
        <time>2020-07-29T09:44:21Z</time>
      </trkpt>
      <trkpt lat="42.9806030" lon="1.1300710">
        <ele>403.1</ele>
        <time>2020-07-29T09:44:26Z</time>
      </trkpt>
      <trkpt lat="42.9807040" lon="1.1302900">
        <ele>402.8</ele>
        <time>2020-07-29T09:44:28Z</time>
      </trkpt>
      <trkpt lat="42.9810320" lon="1.1307800">
        <ele>402.1</ele>
        <time>2020-07-29T09:44:33Z</time>
      </trkpt>
      <trkpt lat="42.9810940" lon="1.1308720">
        <ele>402.1</ele>
        <time>2020-07-29T09:44:34Z</time>
      </trkpt>
      <trkpt lat="42.9812350" lon="1.1310350">
        <ele>402.2</ele>
        <time>2020-07-29T09:44:36Z</time>
      </trkpt>
      <trkpt lat="42.9813930" lon="1.1311730">
        <ele>402.1</ele>
        <time>2020-07-29T09:44:38Z</time>
      </trkpt>
      <trkpt lat="42.9817800" lon="1.1314910">
        <ele>401.5</ele>
        <time>2020-07-29T09:44:43Z</time>
      </trkpt>
      <trkpt lat="42.9818460" lon="1.1315670">
        <ele>401.5</ele>
        <time>2020-07-29T09:44:44Z</time>
      </trkpt>
      <trkpt lat="42.9821990" lon="1.1320210">
        <ele>401.4</ele>
        <time>2020-07-29T09:44:50Z</time>
      </trkpt>
      <trkpt lat="42.9825750" lon="1.1325200">
        <ele>401.2</ele>
        <time>2020-07-29T09:44:57Z</time>
      </trkpt>
      <trkpt lat="42.9829240" lon="1.1329490">
        <ele>400.8</ele>
        <time>2020-07-29T09:45:03Z</time>
      </trkpt>
      <trkpt lat="42.9832420" lon="1.1334320">
        <ele>399.9</ele>
        <time>2020-07-29T09:45:09Z</time>
      </trkpt>
      <trkpt lat="42.9833990" lon="1.1338390">
        <ele>399.5</ele>
        <time>2020-07-29T09:45:13Z</time>
      </trkpt>
      <trkpt lat="42.9834660" lon="1.1340370">
        <ele>399.3</ele>
        <time>2020-07-29T09:45:15Z</time>
      </trkpt>
      <trkpt lat="42.9835600" lon="1.1343350">
        <ele>399.2</ele>
        <time>2020-07-29T09:45:18Z</time>
      </trkpt>
      <trkpt lat="42.9837100" lon="1.1347220">
        <ele>399.1</ele>
        <time>2020-07-29T09:45:22Z</time>
      </trkpt>
      <trkpt lat="42.9839380" lon="1.1353010">
        <ele>399.0</ele>
        <time>2020-07-29T09:45:28Z</time>
      </trkpt>
      <trkpt lat="42.9840080" lon="1.1354820">
        <ele>399.0</ele>
        <time>2020-07-29T09:45:30Z</time>
      </trkpt>
      <trkpt lat="42.9842220" lon="1.1360060">
        <ele>399.2</ele>
        <time>2020-07-29T09:45:36Z</time>
      </trkpt>
      <trkpt lat="42.9844260" lon="1.1365670">
        <ele>399.2</ele>
        <time>2020-07-29T09:45:43Z</time>
      </trkpt>
      <trkpt lat="42.9844640" lon="1.1366450">
        <ele>399.2</ele>
        <time>2020-07-29T09:45:44Z</time>
      </trkpt>
      <trkpt lat="42.9846190" lon="1.1371370">
        <ele>399.0</ele>
        <time>2020-07-29T09:45:50Z</time>
      </trkpt>
      <trkpt lat="42.9847580" lon="1.1375090">
        <ele>398.9</ele>
        <time>2020-07-29T09:45:54Z</time>
      </trkpt>
      <trkpt lat="42.9847880" lon="1.1375990">
        <ele>398.8</ele>
        <time>2020-07-29T09:45:55Z</time>
      </trkpt>
      <trkpt lat="42.9850800" lon="1.1382930">
        <ele>398.5</ele>
        <time>2020-07-29T09:46:03Z</time>
      </trkpt>
      <trkpt lat="42.9853220" lon="1.1388900">
        <ele>397.4</ele>
        <time>2020-07-29T09:46:10Z</time>
      </trkpt>
      <trkpt lat="42.9856010" lon="1.1395500">
        <ele>395.6</ele>
        <time>2020-07-29T09:46:18Z</time>
      </trkpt>
      <trkpt lat="42.9856360" lon="1.1396280">
        <ele>395.5</ele>
        <time>2020-07-29T09:46:19Z</time>
      </trkpt>
      <trkpt lat="42.9857780" lon="1.1399360">
        <ele>395.2</ele>
        <time>2020-07-29T09:46:24Z</time>
      </trkpt>
      <trkpt lat="42.9857870" lon="1.1400770">
        <ele>395.1</ele>
        <time>2020-07-29T09:46:27Z</time>
      </trkpt>
      <trkpt lat="42.9857650" lon="1.1401240">
        <ele>395.1</ele>
        <time>2020-07-29T09:46:28Z</time>
      </trkpt>
      <trkpt lat="42.9856850" lon="1.1401950">
        <ele>395.0</ele>
        <time>2020-07-29T09:46:30Z</time>
      </trkpt>
      <trkpt lat="42.9853610" lon="1.1404360">
        <ele>395.0</ele>
        <time>2020-07-29T09:46:36Z</time>
      </trkpt>
      <trkpt lat="42.9848610" lon="1.1407300">
        <ele>395.2</ele>
        <time>2020-07-29T09:46:44Z</time>
      </trkpt>
      <trkpt lat="42.9847970" lon="1.1407720">
        <ele>395.2</ele>
        <time>2020-07-29T09:46:45Z</time>
      </trkpt>
      <trkpt lat="42.9845460" lon="1.1409390">
        <ele>395.1</ele>
        <time>2020-07-29T09:46:49Z</time>
      </trkpt>
      <trkpt lat="42.9844240" lon="1.1410340">
        <ele>395.2</ele>
        <time>2020-07-29T09:46:51Z</time>
      </trkpt>
      <trkpt lat="42.9839880" lon="1.1413480">
        <ele>395.6</ele>
        <time>2020-07-29T09:46:58Z</time>
      </trkpt>
      <trkpt lat="42.9834740" lon="1.1416730">
        <ele>396.5</ele>
        <time>2020-07-29T09:47:06Z</time>
      </trkpt>
      <trkpt lat="42.9834100" lon="1.1417170">
        <ele>396.5</ele>
        <time>2020-07-29T09:47:07Z</time>
      </trkpt>
      <trkpt lat="42.9830070" lon="1.1419180">
        <ele>396.6</ele>
        <time>2020-07-29T09:47:13Z</time>
      </trkpt>
      <trkpt lat="42.9824640" lon="1.1421430">
        <ele>396.7</ele>
        <time>2020-07-29T09:47:21Z</time>
      </trkpt>
      <trkpt lat="42.9823980" lon="1.1421700">
        <ele>396.7</ele>
        <time>2020-07-29T09:47:22Z</time>
      </trkpt>
      <trkpt lat="42.9818640" lon="1.1423940">
        <ele>397.1</ele>
        <time>2020-07-29T09:47:30Z</time>
      </trkpt>
      <trkpt lat="42.9814810" lon="1.1425810">
        <ele>397.1</ele>
        <time>2020-07-29T09:47:36Z</time>
      </trkpt>
      <trkpt lat="42.9813010" lon="1.1427110">
        <ele>397.0</ele>
        <time>2020-07-29T09:47:39Z</time>
      </trkpt>
      <trkpt lat="42.9811800" lon="1.1428150">
        <ele>397.0</ele>
        <time>2020-07-29T09:47:41Z</time>
      </trkpt>
      <trkpt lat="42.9808350" lon="1.1431750">
        <ele>397.0</ele>
        <time>2020-07-29T09:47:47Z</time>
      </trkpt>
      <trkpt lat="42.9804950" lon="1.1436820">
        <ele>397.2</ele>
        <time>2020-07-29T09:47:54Z</time>
      </trkpt>
      <trkpt lat="42.9803960" lon="1.1438040">
        <ele>397.4</ele>
        <time>2020-07-29T09:47:56Z</time>
      </trkpt>
      <trkpt lat="42.9802320" lon="1.1439640">
        <ele>397.6</ele>
        <time>2020-07-29T09:47:59Z</time>
      </trkpt>
      <trkpt lat="42.9801210" lon="1.1440620">
        <ele>397.6</ele>
        <time>2020-07-29T09:48:01Z</time>
      </trkpt>
      <trkpt lat="42.9799970" lon="1.1441040">
        <ele>397.6</ele>
        <time>2020-07-29T09:48:03Z</time>
      </trkpt>
      <trkpt lat="42.9797030" lon="1.1442000">
        <ele>398.5</ele>
        <time>2020-07-29T09:48:08Z</time>
      </trkpt>
      <trkpt lat="42.9796490" lon="1.1442330">
        <ele>398.9</ele>
        <time>2020-07-29T09:48:09Z</time>
      </trkpt>
      <trkpt lat="42.9794350" lon="1.1443800">
        <ele>400.4</ele>
        <time>2020-07-29T09:48:13Z</time>
      </trkpt>
      <trkpt lat="42.9792870" lon="1.1445120">
        <ele>401.1</ele>
        <time>2020-07-29T09:48:16Z</time>
      </trkpt>
      <trkpt lat="42.9791930" lon="1.1446180">
        <ele>401.2</ele>
        <time>2020-07-29T09:48:18Z</time>
      </trkpt>
      <trkpt lat="42.9791480" lon="1.1446790">
        <ele>401.3</ele>
        <time>2020-07-29T09:48:19Z</time>
      </trkpt>
      <trkpt lat="42.9790270" lon="1.1448670">
        <ele>401.5</ele>
        <time>2020-07-29T09:48:22Z</time>
      </trkpt>
      <trkpt lat="42.9789890" lon="1.1449290">
        <ele>401.6</ele>
        <time>2020-07-29T09:48:23Z</time>
      </trkpt>
      <trkpt lat="42.9787780" lon="1.1452900">
        <ele>402.0</ele>
        <time>2020-07-29T09:48:28Z</time>
      </trkpt>
      <trkpt lat="42.9784410" lon="1.1459080">
        <ele>402.4</ele>
        <time>2020-07-29T09:48:36Z</time>
      </trkpt>
      <trkpt lat="42.9781060" lon="1.1465200">
        <ele>402.6</ele>
        <time>2020-07-29T09:48:44Z</time>
      </trkpt>
      <trkpt lat="42.9780640" lon="1.1466000">
        <ele>402.6</ele>
        <time>2020-07-29T09:48:45Z</time>
      </trkpt>
      <trkpt lat="42.9779760" lon="1.1467550">
        <ele>402.6</ele>
        <time>2020-07-29T09:48:47Z</time>
      </trkpt>
      <trkpt lat="42.9776690" lon="1.1474190">
        <ele>402.5</ele>
        <time>2020-07-29T09:48:55Z</time>
      </trkpt>
      <trkpt lat="42.9776340" lon="1.1475060">
        <ele>402.4</ele>
        <time>2020-07-29T09:48:56Z</time>
      </trkpt>
      <trkpt lat="42.9775230" lon="1.1477580">
        <ele>402.2</ele>
        <time>2020-07-29T09:48:59Z</time>
      </trkpt>
      <trkpt lat="42.9773780" lon="1.1479820">
        <ele>401.6</ele>
        <time>2020-07-29T09:49:02Z</time>
      </trkpt>
      <trkpt lat="42.9773190" lon="1.1480450">
        <ele>401.4</ele>
        <time>2020-07-29T09:49:03Z</time>
      </trkpt>
      <trkpt lat="42.9771150" lon="1.1481820">
        <ele>400.6</ele>
        <time>2020-07-29T09:49:06Z</time>
      </trkpt>
      <trkpt lat="42.9766270" lon="1.1484110">
        <ele>399.5</ele>
        <time>2020-07-29T09:49:12Z</time>
      </trkpt>
      <trkpt lat="42.9763730" lon="1.1485490">
        <ele>399.2</ele>
        <time>2020-07-29T09:49:15Z</time>
      </trkpt>
      <trkpt lat="42.9760520" lon="1.1487700">
        <ele>399.4</ele>
        <time>2020-07-29T09:49:19Z</time>
      </trkpt>
      <trkpt lat="42.9755600" lon="1.1492120">
        <ele>399.2</ele>
        <time>2020-07-29T09:49:26Z</time>
      </trkpt>
      <trkpt lat="42.9754880" lon="1.1492830">
        <ele>399.0</ele>
        <time>2020-07-29T09:49:27Z</time>
      </trkpt>
      <trkpt lat="42.9752250" lon="1.1496270">
        <ele>398.2</ele>
        <time>2020-07-29T09:49:31Z</time>
      </trkpt>
      <trkpt lat="42.9749720" lon="1.1501480">
        <ele>398.1</ele>
        <time>2020-07-29T09:49:36Z</time>
      </trkpt>
      <trkpt lat="42.9749250" lon="1.1502510">
        <ele>398.1</ele>
        <time>2020-07-29T09:49:37Z</time>
      </trkpt>
      <trkpt lat="42.9747380" lon="1.1506490">
        <ele>398.4</ele>
        <time>2020-07-29T09:49:41Z</time>
      </trkpt>
      <trkpt lat="42.9745660" lon="1.1510230">
        <ele>398.8</ele>
        <time>2020-07-29T09:49:45Z</time>
      </trkpt>
      <trkpt lat="42.9742440" lon="1.1517110">
        <ele>399.7</ele>
        <time>2020-07-29T09:49:53Z</time>
      </trkpt>
      <trkpt lat="42.9741670" lon="1.1518760">
        <ele>400.0</ele>
        <time>2020-07-29T09:49:55Z</time>
      </trkpt>
      <trkpt lat="42.9738760" lon="1.1524980">
        <ele>401.0</ele>
        <time>2020-07-29T09:50:03Z</time>
      </trkpt>
      <trkpt lat="42.9738410" lon="1.1525700">
        <ele>401.2</ele>
        <time>2020-07-29T09:50:04Z</time>
      </trkpt>
      <trkpt lat="42.9737330" lon="1.1527640">
        <ele>401.6</ele>
        <time>2020-07-29T09:50:07Z</time>
      </trkpt>
      <trkpt lat="42.9736870" lon="1.1528030">
        <ele>401.7</ele>
        <time>2020-07-29T09:50:08Z</time>
      </trkpt>
      <trkpt lat="42.9736360" lon="1.1528260">
        <ele>401.8</ele>
        <time>2020-07-29T09:50:09Z</time>
      </trkpt>
      <trkpt lat="42.9734810" lon="1.1534300">
        <ele>402.3</ele>
        <time>2020-07-29T10:04:11Z</time>
      </trkpt>
      <trkpt lat="42.9734570" lon="1.1534630">
        <ele>402.3</ele>
        <time>2020-07-29T10:04:12Z</time>
      </trkpt>
      <trkpt lat="42.9733870" lon="1.1535990">
        <ele>402.5</ele>
        <time>2020-07-29T10:04:16Z</time>
      </trkpt>
      <trkpt lat="42.9733400" lon="1.1536890">
        <ele>402.6</ele>
        <time>2020-07-29T10:04:20Z</time>
      </trkpt>
      <trkpt lat="42.9733140" lon="1.1537380">
        <ele>402.6</ele>
        <time>2020-07-29T10:04:21Z</time>
      </trkpt>
      <trkpt lat="42.9730340" lon="1.1542960">
        <ele>403.5</ele>
        <time>2020-07-29T10:04:31Z</time>
      </trkpt>
      <trkpt lat="42.9727710" lon="1.1548170">
        <ele>404.0</ele>
        <time>2020-07-29T10:04:40Z</time>
      </trkpt>
      <trkpt lat="42.9727100" lon="1.1549380">
        <ele>404.1</ele>
        <time>2020-07-29T10:04:42Z</time>
      </trkpt>
      <trkpt lat="42.9724290" lon="1.1555180">
        <ele>404.5</ele>
        <time>2020-07-29T10:04:51Z</time>
      </trkpt>
      <trkpt lat="42.9721780" lon="1.1560440">
        <ele>404.7</ele>
        <time>2020-07-29T10:04:59Z</time>
      </trkpt>
      <trkpt lat="42.9721130" lon="1.1561730">
        <ele>404.8</ele>
        <time>2020-07-29T10:05:01Z</time>
      </trkpt>
      <trkpt lat="42.9718210" lon="1.1567740">
        <ele>405.1</ele>
        <time>2020-07-29T10:05:10Z</time>
      </trkpt>
      <trkpt lat="42.9715290" lon="1.1573920">
        <ele>405.5</ele>
        <time>2020-07-29T10:05:19Z</time>
      </trkpt>
      <trkpt lat="42.9712290" lon="1.1580190">
        <ele>405.7</ele>
        <time>2020-07-29T10:05:28Z</time>
      </trkpt>
      <trkpt lat="42.9709220" lon="1.1586580">
        <ele>406.1</ele>
        <time>2020-07-29T10:05:37Z</time>
      </trkpt>
      <trkpt lat="42.9708180" lon="1.1588730">
        <ele>406.2</ele>
        <time>2020-07-29T10:05:40Z</time>
      </trkpt>
      <trkpt lat="42.9707480" lon="1.1590180">
        <ele>406.3</ele>
        <time>2020-07-29T10:05:42Z</time>
      </trkpt>
      <trkpt lat="42.9705170" lon="1.1595160">
        <ele>406.6</ele>
        <time>2020-07-29T10:05:49Z</time>
      </trkpt>
      <trkpt lat="42.9702720" lon="1.1600100">
        <ele>406.9</ele>
        <time>2020-07-29T10:05:56Z</time>
      </trkpt>
      <trkpt lat="42.9701330" lon="1.1602980">
        <ele>407.1</ele>
        <time>2020-07-29T10:06:00Z</time>
      </trkpt>
      <trkpt lat="42.9698260" lon="1.1609520">
        <ele>407.5</ele>
        <time>2020-07-29T10:06:09Z</time>
      </trkpt>
      <trkpt lat="42.9695530" lon="1.1615340">
        <ele>407.9</ele>
        <time>2020-07-29T10:06:17Z</time>
      </trkpt>
      <trkpt lat="42.9694920" lon="1.1616810">
        <ele>408.1</ele>
        <time>2020-07-29T10:06:19Z</time>
      </trkpt>
      <trkpt lat="42.9692270" lon="1.1622370">
        <ele>408.2</ele>
        <time>2020-07-29T10:06:27Z</time>
      </trkpt>
      <trkpt lat="42.9689200" lon="1.1628740">
        <ele>408.2</ele>
        <time>2020-07-29T10:06:36Z</time>
      </trkpt>
      <trkpt lat="42.9687790" lon="1.1631580">
        <ele>408.6</ele>
        <time>2020-07-29T10:06:40Z</time>
      </trkpt>
      <trkpt lat="42.9686370" lon="1.1634330">
        <ele>408.9</ele>
        <time>2020-07-29T10:06:44Z</time>
      </trkpt>
      <trkpt lat="42.9684090" lon="1.1639300">
        <ele>409.4</ele>
        <time>2020-07-29T10:06:51Z</time>
      </trkpt>
      <trkpt lat="42.9681080" lon="1.1645520">
        <ele>410.1</ele>
        <time>2020-07-29T10:07:00Z</time>
      </trkpt>
      <trkpt lat="42.9680760" lon="1.1646230">
        <ele>410.1</ele>
        <time>2020-07-29T10:07:01Z</time>
      </trkpt>
      <trkpt lat="42.9677810" lon="1.1652490">
        <ele>410.6</ele>
        <time>2020-07-29T10:07:10Z</time>
      </trkpt>
      <trkpt lat="42.9677490" lon="1.1653200">
        <ele>410.7</ele>
        <time>2020-07-29T10:07:11Z</time>
      </trkpt>
      <trkpt lat="42.9674520" lon="1.1659680">
        <ele>410.9</ele>
        <time>2020-07-29T10:07:20Z</time>
      </trkpt>
      <trkpt lat="42.9674170" lon="1.1660410">
        <ele>410.9</ele>
        <time>2020-07-29T10:07:21Z</time>
      </trkpt>
      <trkpt lat="42.9671000" lon="1.1667240">
        <ele>411.0</ele>
        <time>2020-07-29T10:07:30Z</time>
      </trkpt>
      <trkpt lat="42.9670280" lon="1.1668780">
        <ele>411.0</ele>
        <time>2020-07-29T10:07:32Z</time>
      </trkpt>
      <trkpt lat="42.9667280" lon="1.1675090">
        <ele>410.7</ele>
        <time>2020-07-29T10:07:40Z</time>
      </trkpt>
      <trkpt lat="42.9666530" lon="1.1676720">
        <ele>410.6</ele>
        <time>2020-07-29T10:07:42Z</time>
      </trkpt>
      <trkpt lat="42.9663510" lon="1.1683160">
        <ele>410.6</ele>
        <time>2020-07-29T10:07:50Z</time>
      </trkpt>
      <trkpt lat="42.9662710" lon="1.1684840">
        <ele>410.4</ele>
        <time>2020-07-29T10:07:52Z</time>
      </trkpt>
      <trkpt lat="42.9659230" lon="1.1690350">
        <ele>410.2</ele>
        <time>2020-07-29T10:07:59Z</time>
      </trkpt>
      <trkpt lat="42.9655040" lon="1.1694840">
        <ele>410.3</ele>
        <time>2020-07-29T10:08:06Z</time>
      </trkpt>
      <trkpt lat="42.9650360" lon="1.1698140">
        <ele>410.6</ele>
        <time>2020-07-29T10:08:13Z</time>
      </trkpt>
      <trkpt lat="42.9645890" lon="1.1701530">
        <ele>410.7</ele>
        <time>2020-07-29T10:08:20Z</time>
      </trkpt>
      <trkpt lat="42.9642730" lon="1.1704400">
        <ele>410.8</ele>
        <time>2020-07-29T10:08:26Z</time>
      </trkpt>
      <trkpt lat="42.9638680" lon="1.1708370">
        <ele>411.2</ele>
        <time>2020-07-29T10:08:34Z</time>
      </trkpt>
      <trkpt lat="42.9635730" lon="1.1711510">
        <ele>411.4</ele>
        <time>2020-07-29T10:08:40Z</time>
      </trkpt>
      <trkpt lat="42.9632800" lon="1.1714640">
        <ele>411.8</ele>
        <time>2020-07-29T10:08:46Z</time>
      </trkpt>
      <trkpt lat="42.9631880" lon="1.1715570">
        <ele>412.0</ele>
        <time>2020-07-29T10:08:48Z</time>
      </trkpt>
      <trkpt lat="42.9627870" lon="1.1719530">
        <ele>412.9</ele>
        <time>2020-07-29T10:08:56Z</time>
      </trkpt>
      <trkpt lat="42.9625860" lon="1.1721470">
        <ele>413.5</ele>
        <time>2020-07-29T10:09:00Z</time>
      </trkpt>
      <trkpt lat="42.9622890" lon="1.1724280">
        <ele>414.1</ele>
        <time>2020-07-29T10:09:06Z</time>
      </trkpt>
      <trkpt lat="42.9622420" lon="1.1724750">
        <ele>414.1</ele>
        <time>2020-07-29T10:09:07Z</time>
      </trkpt>
      <trkpt lat="42.9621030" lon="1.1725980">
        <ele>414.1</ele>
        <time>2020-07-29T10:09:10Z</time>
      </trkpt>
      <trkpt lat="42.9620010" lon="1.1726980">
        <ele>414.1</ele>
        <time>2020-07-29T10:09:12Z</time>
      </trkpt>
      <trkpt lat="42.9615290" lon="1.1731820">
        <ele>414.5</ele>
        <time>2020-07-29T10:09:21Z</time>
      </trkpt>
      <trkpt lat="42.9614780" lon="1.1732330">
        <ele>414.6</ele>
        <time>2020-07-29T10:09:22Z</time>
      </trkpt>
      <trkpt lat="42.9611320" lon="1.1735470">
        <ele>415.1</ele>
        <time>2020-07-29T10:09:29Z</time>
      </trkpt>
      <trkpt lat="42.9610840" lon="1.1735950">
        <ele>415.1</ele>
        <time>2020-07-29T10:09:30Z</time>
      </trkpt>
      <trkpt lat="42.9607950" lon="1.1738830">
        <ele>415.3</ele>
        <time>2020-07-29T10:09:36Z</time>
      </trkpt>
      <trkpt lat="42.9604360" lon="1.1743040">
        <ele>415.1</ele>
        <time>2020-07-29T10:09:43Z</time>
      </trkpt>
      <trkpt lat="42.9603710" lon="1.1743570">
        <ele>414.9</ele>
        <time>2020-07-29T10:09:44Z</time>
      </trkpt>
      <trkpt lat="42.9601430" lon="1.1744740">
        <ele>414.2</ele>
        <time>2020-07-29T10:09:47Z</time>
      </trkpt>
      <trkpt lat="42.9595570" lon="1.1747230">
        <ele>413.1</ele>
        <time>2020-07-29T10:09:54Z</time>
      </trkpt>
      <trkpt lat="42.9594740" lon="1.1747600">
        <ele>413.0</ele>
        <time>2020-07-29T10:09:55Z</time>
      </trkpt>
      <trkpt lat="42.9593930" lon="1.1747960">
        <ele>413.0</ele>
        <time>2020-07-29T10:09:56Z</time>
      </trkpt>
      <trkpt lat="42.9591590" lon="1.1748920">
        <ele>413.0</ele>
        <time>2020-07-29T10:09:59Z</time>
      </trkpt>
      <trkpt lat="42.9589400" lon="1.1749830">
        <ele>413.4</ele>
        <time>2020-07-29T10:10:02Z</time>
      </trkpt>
      <trkpt lat="42.9584490" lon="1.1751940">
        <ele>413.7</ele>
        <time>2020-07-29T10:10:09Z</time>
      </trkpt>
      <trkpt lat="42.9579440" lon="1.1754430">
        <ele>414.1</ele>
        <time>2020-07-29T10:10:16Z</time>
      </trkpt>
      <trkpt lat="42.9574610" lon="1.1756160">
        <ele>414.6</ele>
        <time>2020-07-29T10:10:23Z</time>
      </trkpt>
      <trkpt lat="42.9569820" lon="1.1756870">
        <ele>415.4</ele>
        <time>2020-07-29T10:10:30Z</time>
      </trkpt>
      <trkpt lat="42.9564920" lon="1.1758380">
        <ele>416.3</ele>
        <time>2020-07-29T10:10:38Z</time>
      </trkpt>
      <trkpt lat="42.9564290" lon="1.1758600">
        <ele>416.3</ele>
        <time>2020-07-29T10:10:39Z</time>
      </trkpt>
      <trkpt lat="42.9559240" lon="1.1760390">
        <ele>417.3</ele>
        <time>2020-07-29T10:10:47Z</time>
      </trkpt>
      <trkpt lat="42.9556850" lon="1.1761180">
        <ele>417.8</ele>
        <time>2020-07-29T10:10:51Z</time>
      </trkpt>
      <trkpt lat="42.9553370" lon="1.1762310">
        <ele>418.3</ele>
        <time>2020-07-29T10:10:57Z</time>
      </trkpt>
      <trkpt lat="42.9552160" lon="1.1762750">
        <ele>418.1</ele>
        <time>2020-07-29T10:10:59Z</time>
      </trkpt>
      <trkpt lat="42.9548750" lon="1.1763950">
        <ele>417.8</ele>
        <time>2020-07-29T10:11:04Z</time>
      </trkpt>
      <trkpt lat="42.9542700" lon="1.1765510">
        <ele>417.4</ele>
        <time>2020-07-29T10:11:12Z</time>
      </trkpt>
      <trkpt lat="42.9541120" lon="1.1765490">
        <ele>417.6</ele>
        <time>2020-07-29T10:11:14Z</time>
      </trkpt>
      <trkpt lat="42.9539630" lon="1.1765070">
        <ele>417.8</ele>
        <time>2020-07-29T10:11:16Z</time>
      </trkpt>
      <trkpt lat="42.9537700" lon="1.1763920">
        <ele>418.1</ele>
        <time>2020-07-29T10:11:19Z</time>
      </trkpt>
      <trkpt lat="42.9537150" lon="1.1763480">
        <ele>418.2</ele>
        <time>2020-07-29T10:11:20Z</time>
      </trkpt>
      <trkpt lat="42.9533990" lon="1.1760390">
        <ele>418.8</ele>
        <time>2020-07-29T10:11:26Z</time>
      </trkpt>
      <trkpt lat="42.9529160" lon="1.1755730">
        <ele>420.1</ele>
        <time>2020-07-29T10:11:35Z</time>
      </trkpt>
      <trkpt lat="42.9528640" lon="1.1755260">
        <ele>420.2</ele>
        <time>2020-07-29T10:11:36Z</time>
      </trkpt>
      <trkpt lat="42.9528110" lon="1.1754790">
        <ele>420.3</ele>
        <time>2020-07-29T10:11:37Z</time>
      </trkpt>
      <trkpt lat="42.9523550" lon="1.1750640">
        <ele>421.0</ele>
        <time>2020-07-29T10:11:46Z</time>
      </trkpt>
      <trkpt lat="42.9522560" lon="1.1749750">
        <ele>421.2</ele>
        <time>2020-07-29T10:11:48Z</time>
      </trkpt>
      <trkpt lat="42.9522060" lon="1.1749330">
        <ele>421.3</ele>
        <time>2020-07-29T10:11:49Z</time>
      </trkpt>
      <trkpt lat="42.9517670" lon="1.1745240">
        <ele>422.0</ele>
        <time>2020-07-29T10:11:58Z</time>
      </trkpt>
      <trkpt lat="42.9516620" lon="1.1744280">
        <ele>422.1</ele>
        <time>2020-07-29T10:12:00Z</time>
      </trkpt>
      <trkpt lat="42.9513380" lon="1.1741270">
        <ele>422.3</ele>
        <time>2020-07-29T10:12:06Z</time>
      </trkpt>
      <trkpt lat="42.9508580" lon="1.1737020">
        <ele>423.7</ele>
        <time>2020-07-29T10:12:15Z</time>
      </trkpt>
      <trkpt lat="42.9508070" lon="1.1736590">
        <ele>423.8</ele>
        <time>2020-07-29T10:12:16Z</time>
      </trkpt>
      <trkpt lat="42.9505920" lon="1.1734290">
        <ele>424.3</ele>
        <time>2020-07-29T10:12:21Z</time>
      </trkpt>
      <trkpt lat="42.9505640" lon="1.1733690">
        <ele>424.2</ele>
        <time>2020-07-29T10:12:22Z</time>
      </trkpt>
      <trkpt lat="42.9505100" lon="1.1732100">
        <ele>423.9</ele>
        <time>2020-07-29T10:12:24Z</time>
      </trkpt>
      <trkpt lat="42.9504600" lon="1.1730160">
        <ele>423.4</ele>
        <time>2020-07-29T10:12:26Z</time>
      </trkpt>
      <trkpt lat="42.9502900" lon="1.1725050">
        <ele>422.3</ele>
        <time>2020-07-29T10:12:31Z</time>
      </trkpt>
      <trkpt lat="42.9500880" lon="1.1720070">
        <ele>421.8</ele>
        <time>2020-07-29T10:12:36Z</time>
      </trkpt>
      <trkpt lat="42.9500050" lon="1.1718040">
        <ele>421.8</ele>
        <time>2020-07-29T10:12:38Z</time>
      </trkpt>
      <trkpt lat="42.9497490" lon="1.1713700">
        <ele>421.7</ele>
        <time>2020-07-29T10:12:43Z</time>
      </trkpt>
      <trkpt lat="42.9494050" lon="1.1709460">
        <ele>422.2</ele>
        <time>2020-07-29T10:12:49Z</time>
      </trkpt>
      <trkpt lat="42.9489850" lon="1.1705570">
        <ele>422.8</ele>
        <time>2020-07-29T10:12:56Z</time>
      </trkpt>
      <trkpt lat="42.9484800" lon="1.1702160">
        <ele>423.5</ele>
        <time>2020-07-29T10:13:04Z</time>
      </trkpt>
      <trkpt lat="42.9484170" lon="1.1701820">
        <ele>423.6</ele>
        <time>2020-07-29T10:13:05Z</time>
      </trkpt>
      <trkpt lat="42.9479830" lon="1.1699540">
        <ele>424.4</ele>
        <time>2020-07-29T10:13:12Z</time>
      </trkpt>
      <trkpt lat="42.9478670" lon="1.1699070">
        <ele>424.6</ele>
        <time>2020-07-29T10:13:14Z</time>
      </trkpt>
      <trkpt lat="42.9476910" lon="1.1698320">
        <ele>425.0</ele>
        <time>2020-07-29T10:13:17Z</time>
      </trkpt>
      <trkpt lat="42.9472860" lon="1.1696820">
        <ele>426.0</ele>
        <time>2020-07-29T10:13:24Z</time>
      </trkpt>
      <trkpt lat="42.9471690" lon="1.1696480">
        <ele>426.3</ele>
        <time>2020-07-29T10:13:26Z</time>
      </trkpt>
      <trkpt lat="42.9469340" lon="1.1695910">
        <ele>426.5</ele>
        <time>2020-07-29T10:13:30Z</time>
      </trkpt>
      <trkpt lat="42.9466190" lon="1.1695240">
        <ele>426.4</ele>
        <time>2020-07-29T10:13:35Z</time>
      </trkpt>
      <trkpt lat="42.9464830" lon="1.1695050">
        <ele>426.4</ele>
        <time>2020-07-29T10:13:37Z</time>
      </trkpt>
      <trkpt lat="42.9464140" lon="1.1695030">
        <ele>426.4</ele>
        <time>2020-07-29T10:13:38Z</time>
      </trkpt>
      <trkpt lat="42.9462170" lon="1.1695230">
        <ele>426.4</ele>
        <time>2020-07-29T10:13:41Z</time>
      </trkpt>
      <trkpt lat="42.9460280" lon="1.1696020">
        <ele>426.1</ele>
        <time>2020-07-29T10:13:44Z</time>
      </trkpt>
      <trkpt lat="42.9459050" lon="1.1696880">
        <ele>425.9</ele>
        <time>2020-07-29T10:13:46Z</time>
      </trkpt>
      <trkpt lat="42.9455270" lon="1.1699760">
        <ele>425.5</ele>
        <time>2020-07-29T10:13:52Z</time>
      </trkpt>
      <trkpt lat="42.9454680" lon="1.1700400">
        <ele>425.4</ele>
        <time>2020-07-29T10:13:53Z</time>
      </trkpt>
      <trkpt lat="42.9452470" lon="1.1703220">
        <ele>425.2</ele>
        <time>2020-07-29T10:13:57Z</time>
      </trkpt>
      <trkpt lat="42.9449570" lon="1.1708000">
        <ele>425.2</ele>
        <time>2020-07-29T10:14:03Z</time>
      </trkpt>
      <trkpt lat="42.9445730" lon="1.1714510">
        <ele>425.8</ele>
        <time>2020-07-29T10:14:11Z</time>
      </trkpt>
      <trkpt lat="42.9442630" lon="1.1719890">
        <ele>427.4</ele>
        <time>2020-07-29T10:14:18Z</time>
      </trkpt>
      <trkpt lat="42.9441610" lon="1.1721980">
        <ele>427.9</ele>
        <time>2020-07-29T10:14:21Z</time>
      </trkpt>
      <trkpt lat="42.9440360" lon="1.1724820">
        <ele>428.0</ele>
        <time>2020-07-29T10:14:25Z</time>
      </trkpt>
      <trkpt lat="42.9440050" lon="1.1725450">
        <ele>428.0</ele>
        <time>2020-07-29T10:14:26Z</time>
      </trkpt>
      <trkpt lat="42.9439770" lon="1.1725910">
        <ele>428.0</ele>
        <time>2020-07-29T10:14:27Z</time>
      </trkpt>
      <trkpt lat="42.9436850" lon="1.1730020">
        <ele>427.8</ele>
        <time>2020-07-29T10:14:42Z</time>
      </trkpt>
      <trkpt lat="42.9436390" lon="1.1730500">
        <ele>427.9</ele>
        <time>2020-07-29T10:14:43Z</time>
      </trkpt>
      <trkpt lat="42.9434080" lon="1.1733080">
        <ele>428.4</ele>
        <time>2020-07-29T10:14:48Z</time>
      </trkpt>
      <trkpt lat="42.9433590" lon="1.1733540">
        <ele>428.5</ele>
        <time>2020-07-29T10:14:49Z</time>
      </trkpt>
      <trkpt lat="42.9432240" lon="1.1734930">
        <ele>428.8</ele>
        <time>2020-07-29T10:14:52Z</time>
      </trkpt>
      <trkpt lat="42.9431510" lon="1.1736100">
        <ele>428.9</ele>
        <time>2020-07-29T10:14:54Z</time>
      </trkpt>
      <trkpt lat="42.9430800" lon="1.1738320">
        <ele>429.3</ele>
        <time>2020-07-29T10:14:57Z</time>
      </trkpt>
      <trkpt lat="42.9430580" lon="1.1739100">
        <ele>429.4</ele>
        <time>2020-07-29T10:14:58Z</time>
      </trkpt>
      <trkpt lat="42.9430330" lon="1.1739860">
        <ele>429.5</ele>
        <time>2020-07-29T10:14:59Z</time>
      </trkpt>
      <trkpt lat="42.9429180" lon="1.1743670">
        <ele>430.4</ele>
        <time>2020-07-29T10:15:04Z</time>
      </trkpt>
      <trkpt lat="42.9427250" lon="1.1748510">
        <ele>431.3</ele>
        <time>2020-07-29T10:15:11Z</time>
      </trkpt>
      <trkpt lat="42.9424970" lon="1.1750790">
        <ele>431.5</ele>
        <time>2020-07-29T10:15:16Z</time>
      </trkpt>
      <trkpt lat="42.9421620" lon="1.1753670">
        <ele>432.3</ele>
        <time>2020-07-29T10:15:23Z</time>
      </trkpt>
      <trkpt lat="42.9421170" lon="1.1754100">
        <ele>432.4</ele>
        <time>2020-07-29T10:15:24Z</time>
      </trkpt>
      <trkpt lat="42.9419070" lon="1.1756540">
        <ele>433.2</ele>
        <time>2020-07-29T10:15:29Z</time>
      </trkpt>
      <trkpt lat="42.9417820" lon="1.1758060">
        <ele>433.6</ele>
        <time>2020-07-29T10:15:32Z</time>
      </trkpt>
      <trkpt lat="42.9416510" lon="1.1759600">
        <ele>434.1</ele>
        <time>2020-07-29T10:15:35Z</time>
      </trkpt>
      <trkpt lat="42.9414300" lon="1.1762100">
        <ele>434.8</ele>
        <time>2020-07-29T10:15:40Z</time>
      </trkpt>
      <trkpt lat="42.9413850" lon="1.1762600">
        <ele>434.9</ele>
        <time>2020-07-29T10:15:41Z</time>
      </trkpt>
      <trkpt lat="42.9410160" lon="1.1767200">
        <ele>435.2</ele>
        <time>2020-07-29T10:15:49Z</time>
      </trkpt>
      <trkpt lat="42.9407630" lon="1.1768690">
        <ele>435.0</ele>
        <time>2020-07-29T10:15:53Z</time>
      </trkpt>
      <trkpt lat="42.9406920" lon="1.1768880">
        <ele>434.9</ele>
        <time>2020-07-29T10:15:54Z</time>
      </trkpt>
      <trkpt lat="42.9404030" lon="1.1768420">
        <ele>434.7</ele>
        <time>2020-07-29T10:15:58Z</time>
      </trkpt>
      <trkpt lat="42.9403300" lon="1.1768110">
        <ele>434.6</ele>
        <time>2020-07-29T10:15:59Z</time>
      </trkpt>
      <trkpt lat="42.9402560" lon="1.1767730">
        <ele>434.6</ele>
        <time>2020-07-29T10:16:00Z</time>
      </trkpt>
      <trkpt lat="42.9400520" lon="1.1766180">
        <ele>434.4</ele>
        <time>2020-07-29T10:16:03Z</time>
      </trkpt>
      <trkpt lat="42.9396040" lon="1.1762000">
        <ele>434.0</ele>
        <time>2020-07-29T10:16:10Z</time>
      </trkpt>
      <trkpt lat="42.9395410" lon="1.1761440">
        <ele>434.0</ele>
        <time>2020-07-29T10:16:11Z</time>
      </trkpt>
      <trkpt lat="42.9390330" lon="1.1757250">
        <ele>434.8</ele>
        <time>2020-07-29T10:16:19Z</time>
      </trkpt>
      <trkpt lat="42.9387180" lon="1.1755440">
        <ele>435.5</ele>
        <time>2020-07-29T10:16:24Z</time>
      </trkpt>
      <trkpt lat="42.9383820" lon="1.1755500">
        <ele>436.1</ele>
        <time>2020-07-29T10:16:29Z</time>
      </trkpt>
      <trkpt lat="42.9380830" lon="1.1757360">
        <ele>436.7</ele>
        <time>2020-07-29T10:16:34Z</time>
      </trkpt>
      <trkpt lat="42.9380310" lon="1.1757890">
        <ele>436.8</ele>
        <time>2020-07-29T10:16:35Z</time>
      </trkpt>
      <trkpt lat="42.9378290" lon="1.1760180">
        <ele>437.1</ele>
        <time>2020-07-29T10:16:39Z</time>
      </trkpt>
      <trkpt lat="42.9376780" lon="1.1761840">
        <ele>437.5</ele>
        <time>2020-07-29T10:16:42Z</time>
      </trkpt>
      <trkpt lat="42.9374750" lon="1.1763750">
        <ele>438.2</ele>
        <time>2020-07-29T10:16:46Z</time>
      </trkpt>
      <trkpt lat="42.9373190" lon="1.1764890">
        <ele>438.7</ele>
        <time>2020-07-29T10:16:49Z</time>
      </trkpt>
      <trkpt lat="42.9372220" lon="1.1765550">
        <ele>439.1</ele>
        <time>2020-07-29T10:16:51Z</time>
      </trkpt>
      <trkpt lat="42.9369780" lon="1.1767210">
        <ele>439.6</ele>
        <time>2020-07-29T10:16:56Z</time>
      </trkpt>
      <trkpt lat="42.9368710" lon="1.1767930">
        <ele>439.6</ele>
        <time>2020-07-29T10:16:58Z</time>
      </trkpt>
      <trkpt lat="42.9366340" lon="1.1769480">
        <ele>439.5</ele>
        <time>2020-07-29T10:17:02Z</time>
      </trkpt>
      <trkpt lat="42.9364390" lon="1.1770510">
        <ele>439.3</ele>
        <time>2020-07-29T10:17:05Z</time>
      </trkpt>
      <trkpt lat="42.9360100" lon="1.1771560">
        <ele>438.7</ele>
        <time>2020-07-29T10:17:11Z</time>
      </trkpt>
      <trkpt lat="42.9355190" lon="1.1771280">
        <ele>438.3</ele>
        <time>2020-07-29T10:17:17Z</time>
      </trkpt>
      <trkpt lat="42.9350450" lon="1.1770490">
        <ele>437.8</ele>
        <time>2020-07-29T10:17:23Z</time>
      </trkpt>
      <trkpt lat="42.9345420" lon="1.1769790">
        <ele>437.6</ele>
        <time>2020-07-29T10:17:29Z</time>
      </trkpt>
      <trkpt lat="42.9339710" lon="1.1769460">
        <ele>437.6</ele>
        <time>2020-07-29T10:17:36Z</time>
      </trkpt>
      <trkpt lat="42.9335170" lon="1.1770470">
        <ele>437.9</ele>
        <time>2020-07-29T10:17:42Z</time>
      </trkpt>
      <trkpt lat="42.9330090" lon="1.1771670">
        <ele>438.8</ele>
        <time>2020-07-29T10:17:49Z</time>
      </trkpt>
      <trkpt lat="42.9328210" lon="1.1772050">
        <ele>439.3</ele>
        <time>2020-07-29T10:17:52Z</time>
      </trkpt>
      <trkpt lat="42.9326490" lon="1.1772670">
        <ele>440.0</ele>
        <time>2020-07-29T10:17:55Z</time>
      </trkpt>
      <trkpt lat="42.9325370" lon="1.1773300">
        <ele>440.4</ele>
        <time>2020-07-29T10:17:57Z</time>
      </trkpt>
      <trkpt lat="42.9324840" lon="1.1773810">
        <ele>440.7</ele>
        <time>2020-07-29T10:17:58Z</time>
      </trkpt>
      <trkpt lat="42.9323830" lon="1.1774850">
        <ele>441.2</ele>
        <time>2020-07-29T10:18:00Z</time>
      </trkpt>
      <trkpt lat="42.9323330" lon="1.1775490">
        <ele>441.4</ele>
        <time>2020-07-29T10:18:01Z</time>
      </trkpt>
      <trkpt lat="42.9321590" lon="1.1777790">
        <ele>442.0</ele>
        <time>2020-07-29T10:18:05Z</time>
      </trkpt>
      <trkpt lat="42.9319920" lon="1.1780220">
        <ele>442.5</ele>
        <time>2020-07-29T10:18:09Z</time>
      </trkpt>
      <trkpt lat="42.9319180" lon="1.1781450">
        <ele>442.8</ele>
        <time>2020-07-29T10:18:11Z</time>
      </trkpt>
      <trkpt lat="42.9316840" lon="1.1785330">
        <ele>443.3</ele>
        <time>2020-07-29T10:18:17Z</time>
      </trkpt>
      <trkpt lat="42.9316440" lon="1.1786010">
        <ele>443.4</ele>
        <time>2020-07-29T10:18:18Z</time>
      </trkpt>
      <trkpt lat="42.9313490" lon="1.1791190">
        <ele>443.6</ele>
        <time>2020-07-29T10:18:25Z</time>
      </trkpt>
      <trkpt lat="42.9310800" lon="1.1795510">
        <ele>443.3</ele>
        <time>2020-07-29T10:18:31Z</time>
      </trkpt>
      <trkpt lat="42.9310270" lon="1.1796200">
        <ele>443.2</ele>
        <time>2020-07-29T10:18:32Z</time>
      </trkpt>
      <trkpt lat="42.9308560" lon="1.1798000">
        <ele>443.0</ele>
        <time>2020-07-29T10:18:35Z</time>
      </trkpt>
      <trkpt lat="42.9307950" lon="1.1798560">
        <ele>442.9</ele>
        <time>2020-07-29T10:18:36Z</time>
      </trkpt>
      <trkpt lat="42.9304030" lon="1.1802000">
        <ele>442.6</ele>
        <time>2020-07-29T10:18:42Z</time>
      </trkpt>
      <trkpt lat="42.9302850" lon="1.1803580">
        <ele>442.9</ele>
        <time>2020-07-29T10:18:44Z</time>
      </trkpt>
      <trkpt lat="42.9301970" lon="1.1805440">
        <ele>443.2</ele>
        <time>2020-07-29T10:18:46Z</time>
      </trkpt>
      <trkpt lat="42.9301560" lon="1.1806410">
        <ele>443.3</ele>
        <time>2020-07-29T10:18:47Z</time>
      </trkpt>
      <trkpt lat="42.9300090" lon="1.1810090">
        <ele>443.6</ele>
        <time>2020-07-29T10:18:51Z</time>
      </trkpt>
      <trkpt lat="42.9299490" lon="1.1812020">
        <ele>443.7</ele>
        <time>2020-07-29T10:18:53Z</time>
      </trkpt>
      <trkpt lat="42.9298290" lon="1.1815880">
        <ele>443.8</ele>
        <time>2020-07-29T10:18:57Z</time>
      </trkpt>
      <trkpt lat="42.9296360" lon="1.1822380">
        <ele>443.7</ele>
        <time>2020-07-29T10:19:04Z</time>
      </trkpt>
      <trkpt lat="42.9295120" lon="1.1826180">
        <ele>443.6</ele>
        <time>2020-07-29T10:19:08Z</time>
      </trkpt>
      <trkpt lat="42.9292910" lon="1.1830440">
        <ele>443.9</ele>
        <time>2020-07-29T10:19:13Z</time>
      </trkpt>
      <trkpt lat="42.9289920" lon="1.1833250">
        <ele>444.1</ele>
        <time>2020-07-29T10:19:18Z</time>
      </trkpt>
      <trkpt lat="42.9287940" lon="1.1834570">
        <ele>444.2</ele>
        <time>2020-07-29T10:19:21Z</time>
      </trkpt>
      <trkpt lat="42.9285940" lon="1.1835640">
        <ele>444.4</ele>
        <time>2020-07-29T10:19:24Z</time>
      </trkpt>
      <trkpt lat="42.9280520" lon="1.1837950">
        <ele>444.4</ele>
        <time>2020-07-29T10:19:32Z</time>
      </trkpt>
      <trkpt lat="42.9274960" lon="1.1839290">
        <ele>444.7</ele>
        <time>2020-07-29T10:19:40Z</time>
      </trkpt>
      <trkpt lat="42.9270780" lon="1.1839790">
        <ele>444.7</ele>
        <time>2020-07-29T10:19:46Z</time>
      </trkpt>
      <trkpt lat="42.9269370" lon="1.1839790">
        <ele>444.7</ele>
        <time>2020-07-29T10:19:48Z</time>
      </trkpt>
      <trkpt lat="42.9266530" lon="1.1839400">
        <ele>444.8</ele>
        <time>2020-07-29T10:19:52Z</time>
      </trkpt>
      <trkpt lat="42.9264490" lon="1.1838540">
        <ele>445.0</ele>
        <time>2020-07-29T10:19:55Z</time>
      </trkpt>
      <trkpt lat="42.9263200" lon="1.1837740">
        <ele>445.0</ele>
        <time>2020-07-29T10:19:57Z</time>
      </trkpt>
      <trkpt lat="42.9261960" lon="1.1837120">
        <ele>445.0</ele>
        <time>2020-07-29T10:19:59Z</time>
      </trkpt>
      <trkpt lat="42.9261350" lon="1.1836850">
        <ele>445.0</ele>
        <time>2020-07-29T10:20:00Z</time>
      </trkpt>
      <trkpt lat="42.9260740" lon="1.1836540">
        <ele>445.0</ele>
        <time>2020-07-29T10:20:01Z</time>
      </trkpt>
      <trkpt lat="42.9260080" lon="1.1836170">
        <ele>445.0</ele>
        <time>2020-07-29T10:20:02Z</time>
      </trkpt>
      <trkpt lat="42.9257430" lon="1.1834570">
        <ele>445.2</ele>
        <time>2020-07-29T10:20:06Z</time>
      </trkpt>
      <trkpt lat="42.9254140" lon="1.1832610">
        <ele>445.2</ele>
        <time>2020-07-29T10:20:11Z</time>
      </trkpt>
      <trkpt lat="42.9249020" lon="1.1830500">
        <ele>445.4</ele>
        <time>2020-07-29T10:20:18Z</time>
      </trkpt>
      <trkpt lat="42.9244510" lon="1.1830370">
        <ele>445.7</ele>
        <time>2020-07-29T10:20:24Z</time>
      </trkpt>
      <trkpt lat="42.9243030" lon="1.1830830">
        <ele>445.8</ele>
        <time>2020-07-29T10:20:26Z</time>
      </trkpt>
      <trkpt lat="42.9241620" lon="1.1831560">
        <ele>445.8</ele>
        <time>2020-07-29T10:20:28Z</time>
      </trkpt>
      <trkpt lat="42.9240940" lon="1.1832030">
        <ele>445.7</ele>
        <time>2020-07-29T10:20:29Z</time>
      </trkpt>
      <trkpt lat="42.9240280" lon="1.1832580">
        <ele>445.7</ele>
        <time>2020-07-29T10:20:30Z</time>
      </trkpt>
      <trkpt lat="42.9239100" lon="1.1833850">
        <ele>445.7</ele>
        <time>2020-07-29T10:20:32Z</time>
      </trkpt>
      <trkpt lat="42.9236880" lon="1.1838060">
        <ele>445.7</ele>
        <time>2020-07-29T10:20:37Z</time>
      </trkpt>
      <trkpt lat="42.9236580" lon="1.1839020">
        <ele>445.8</ele>
        <time>2020-07-29T10:20:38Z</time>
      </trkpt>
      <trkpt lat="42.9236110" lon="1.1840990">
        <ele>445.9</ele>
        <time>2020-07-29T10:20:40Z</time>
      </trkpt>
      <trkpt lat="42.9235810" lon="1.1842950">
        <ele>446.0</ele>
        <time>2020-07-29T10:20:42Z</time>
      </trkpt>
      <trkpt lat="42.9235190" lon="1.1848810">
        <ele>446.3</ele>
        <time>2020-07-29T10:20:48Z</time>
      </trkpt>
      <trkpt lat="42.9234370" lon="1.1856570">
        <ele>446.9</ele>
        <time>2020-07-29T10:20:56Z</time>
      </trkpt>
      <trkpt lat="42.9233990" lon="1.1858410">
        <ele>447.0</ele>
        <time>2020-07-29T10:20:58Z</time>
      </trkpt>
      <trkpt lat="42.9233430" lon="1.1860000">
        <ele>447.1</ele>
        <time>2020-07-29T10:21:00Z</time>
      </trkpt>
      <trkpt lat="42.9232570" lon="1.1862520">
        <ele>447.2</ele>
        <time>2020-07-29T10:21:03Z</time>
      </trkpt>
      <trkpt lat="42.9231890" lon="1.1864160">
        <ele>447.2</ele>
        <time>2020-07-29T10:21:05Z</time>
      </trkpt>
      <trkpt lat="42.9229160" lon="1.1868620">
        <ele>447.2</ele>
        <time>2020-07-29T10:21:11Z</time>
      </trkpt>
      <trkpt lat="42.9225060" lon="1.1872490">
        <ele>447.4</ele>
        <time>2020-07-29T10:21:18Z</time>
      </trkpt>
      <trkpt lat="42.9220860" lon="1.1876030">
        <ele>447.7</ele>
        <time>2020-07-29T10:21:25Z</time>
      </trkpt>
      <trkpt lat="42.9220260" lon="1.1876540">
        <ele>447.8</ele>
        <time>2020-07-29T10:21:26Z</time>
      </trkpt>
      <trkpt lat="42.9216690" lon="1.1879600">
        <ele>448.4</ele>
        <time>2020-07-29T10:21:32Z</time>
      </trkpt>
      <trkpt lat="42.9212520" lon="1.1882600">
        <ele>448.9</ele>
        <time>2020-07-29T10:21:39Z</time>
      </trkpt>
      <trkpt lat="42.9209600" lon="1.1884770">
        <ele>449.1</ele>
        <time>2020-07-29T10:21:44Z</time>
      </trkpt>
      <trkpt lat="42.9208350" lon="1.1885530">
        <ele>449.1</ele>
        <time>2020-07-29T10:21:46Z</time>
      </trkpt>
      <trkpt lat="42.9207090" lon="1.1886240">
        <ele>449.2</ele>
        <time>2020-07-29T10:21:48Z</time>
      </trkpt>
      <trkpt lat="42.9205110" lon="1.1887060">
        <ele>449.3</ele>
        <time>2020-07-29T10:21:51Z</time>
      </trkpt>
      <trkpt lat="42.9201040" lon="1.1887760">
        <ele>449.5</ele>
        <time>2020-07-29T10:21:57Z</time>
      </trkpt>
      <trkpt lat="42.9198960" lon="1.1888080">
        <ele>449.5</ele>
        <time>2020-07-29T10:22:00Z</time>
      </trkpt>
      <trkpt lat="42.9195470" lon="1.1888610">
        <ele>449.7</ele>
        <time>2020-07-29T10:22:05Z</time>
      </trkpt>
      <trkpt lat="42.9191340" lon="1.1889900">
        <ele>450.0</ele>
        <time>2020-07-29T10:22:11Z</time>
      </trkpt>
      <trkpt lat="42.9188850" lon="1.1891880">
        <ele>450.2</ele>
        <time>2020-07-29T10:22:15Z</time>
      </trkpt>
      <trkpt lat="42.9188270" lon="1.1892450">
        <ele>450.3</ele>
        <time>2020-07-29T10:22:16Z</time>
      </trkpt>
      <trkpt lat="42.9185170" lon="1.1896170">
        <ele>450.4</ele>
        <time>2020-07-29T10:22:22Z</time>
      </trkpt>
      <trkpt lat="42.9183500" lon="1.1900130">
        <ele>450.4</ele>
        <time>2020-07-29T10:22:27Z</time>
      </trkpt>
      <trkpt lat="42.9181820" lon="1.1907270">
        <ele>450.7</ele>
        <time>2020-07-29T10:22:35Z</time>
      </trkpt>
      <trkpt lat="42.9181230" lon="1.1909930">
        <ele>450.8</ele>
        <time>2020-07-29T10:22:38Z</time>
      </trkpt>
      <trkpt lat="42.9179870" lon="1.1915310">
        <ele>451.1</ele>
        <time>2020-07-29T10:22:44Z</time>
      </trkpt>
      <trkpt lat="42.9178990" lon="1.1918010">
        <ele>451.3</ele>
        <time>2020-07-29T10:22:47Z</time>
      </trkpt>
      <trkpt lat="42.9178230" lon="1.1919610">
        <ele>451.5</ele>
        <time>2020-07-29T10:22:49Z</time>
      </trkpt>
      <trkpt lat="42.9177330" lon="1.1920970">
        <ele>451.6</ele>
        <time>2020-07-29T10:22:51Z</time>
      </trkpt>
      <trkpt lat="42.9176850" lon="1.1921590">
        <ele>451.7</ele>
        <time>2020-07-29T10:22:52Z</time>
      </trkpt>
      <trkpt lat="42.9175760" lon="1.1922610">
        <ele>451.8</ele>
        <time>2020-07-29T10:22:54Z</time>
      </trkpt>
      <trkpt lat="42.9174470" lon="1.1923140">
        <ele>452.0</ele>
        <time>2020-07-29T10:22:56Z</time>
      </trkpt>
      <trkpt lat="42.9172490" lon="1.1923200">
        <ele>452.5</ele>
        <time>2020-07-29T10:22:59Z</time>
      </trkpt>
      <trkpt lat="42.9171820" lon="1.1923050">
        <ele>452.6</ele>
        <time>2020-07-29T10:23:00Z</time>
      </trkpt>
      <trkpt lat="42.9170500" lon="1.1922350">
        <ele>453.0</ele>
        <time>2020-07-29T10:23:02Z</time>
      </trkpt>
      <trkpt lat="42.9168010" lon="1.1920440">
        <ele>453.4</ele>
        <time>2020-07-29T10:23:06Z</time>
      </trkpt>
      <trkpt lat="42.9166780" lon="1.1919370">
        <ele>453.4</ele>
        <time>2020-07-29T10:23:08Z</time>
      </trkpt>
      <trkpt lat="42.9162570" lon="1.1915950">
        <ele>453.9</ele>
        <time>2020-07-29T10:23:15Z</time>
      </trkpt>
      <trkpt lat="42.9159520" lon="1.1914000">
        <ele>454.4</ele>
        <time>2020-07-29T10:23:20Z</time>
      </trkpt>
      <trkpt lat="42.9155630" lon="1.1912570">
        <ele>454.9</ele>
        <time>2020-07-29T10:23:26Z</time>
      </trkpt>
      <trkpt lat="42.9151990" lon="1.1911810">
        <ele>455.4</ele>
        <time>2020-07-29T10:23:32Z</time>
      </trkpt>
      <trkpt lat="42.9150740" lon="1.1911800">
        <ele>455.6</ele>
        <time>2020-07-29T10:23:34Z</time>
      </trkpt>
      <trkpt lat="42.9148870" lon="1.1911970">
        <ele>455.8</ele>
        <time>2020-07-29T10:23:37Z</time>
      </trkpt>
      <trkpt lat="42.9147580" lon="1.1912450">
        <ele>455.8</ele>
        <time>2020-07-29T10:23:39Z</time>
      </trkpt>
      <trkpt lat="42.9146980" lon="1.1912720">
        <ele>455.9</ele>
        <time>2020-07-29T10:23:40Z</time>
      </trkpt>
      <trkpt lat="42.9144100" lon="1.1914670">
        <ele>456.2</ele>
        <time>2020-07-29T10:23:45Z</time>
      </trkpt>
      <trkpt lat="42.9143590" lon="1.1915210">
        <ele>456.2</ele>
        <time>2020-07-29T10:23:46Z</time>
      </trkpt>
      <trkpt lat="42.9140210" lon="1.1919670">
        <ele>456.0</ele>
        <time>2020-07-29T10:23:53Z</time>
      </trkpt>
      <trkpt lat="42.9137060" lon="1.1924880">
        <ele>456.0</ele>
        <time>2020-07-29T10:24:00Z</time>
      </trkpt>
      <trkpt lat="42.9135070" lon="1.1929690">
        <ele>456.1</ele>
        <time>2020-07-29T10:24:06Z</time>
      </trkpt>
      <trkpt lat="42.9133640" lon="1.1934870">
        <ele>456.1</ele>
        <time>2020-07-29T10:24:12Z</time>
      </trkpt>
      <trkpt lat="42.9132570" lon="1.1942750">
        <ele>456.2</ele>
        <time>2020-07-29T10:24:20Z</time>
      </trkpt>
      <trkpt lat="42.9132240" lon="1.1948640">
        <ele>456.5</ele>
        <time>2020-07-29T10:24:26Z</time>
      </trkpt>
      <trkpt lat="42.9131920" lon="1.1956360">
        <ele>457.7</ele>
        <time>2020-07-29T10:24:35Z</time>
      </trkpt>
      <trkpt lat="42.9131960" lon="1.1958930">
        <ele>458.2</ele>
        <time>2020-07-29T10:24:38Z</time>
      </trkpt>
      <trkpt lat="42.9132100" lon="1.1962390">
        <ele>458.7</ele>
        <time>2020-07-29T10:24:42Z</time>
      </trkpt>
      <trkpt lat="42.9132150" lon="1.1964150">
        <ele>458.9</ele>
        <time>2020-07-29T10:24:44Z</time>
      </trkpt>
      <trkpt lat="42.9132400" lon="1.1967670">
        <ele>459.0</ele>
        <time>2020-07-29T10:24:48Z</time>
      </trkpt>
      <trkpt lat="42.9132720" lon="1.1970340">
        <ele>459.2</ele>
        <time>2020-07-29T10:24:51Z</time>
      </trkpt>
      <trkpt lat="42.9133070" lon="1.1973110">
        <ele>459.2</ele>
        <time>2020-07-29T10:24:54Z</time>
      </trkpt>
      <trkpt lat="42.9133600" lon="1.1975930">
        <ele>459.2</ele>
        <time>2020-07-29T10:24:57Z</time>
      </trkpt>
      <trkpt lat="42.9135620" lon="1.1983240">
        <ele>459.3</ele>
        <time>2020-07-29T10:25:05Z</time>
      </trkpt>
      <trkpt lat="42.9138100" lon="1.1990150">
        <ele>460.1</ele>
        <time>2020-07-29T10:25:13Z</time>
      </trkpt>
      <trkpt lat="42.9138420" lon="1.1990960">
        <ele>460.2</ele>
        <time>2020-07-29T10:25:14Z</time>
      </trkpt>
      <trkpt lat="42.9140250" lon="1.1995420">
        <ele>460.5</ele>
        <time>2020-07-29T10:25:20Z</time>
      </trkpt>
      <trkpt lat="42.9141760" lon="1.1998180">
        <ele>460.9</ele>
        <time>2020-07-29T10:25:24Z</time>
      </trkpt>
      <trkpt lat="42.9142080" lon="1.1998830">
        <ele>461.0</ele>
        <time>2020-07-29T10:25:25Z</time>
      </trkpt>
      <trkpt lat="42.9143530" lon="1.2002070">
        <ele>461.5</ele>
        <time>2020-07-29T10:25:30Z</time>
      </trkpt>
      <trkpt lat="42.9144390" lon="1.2004010">
        <ele>461.7</ele>
        <time>2020-07-29T10:25:33Z</time>
      </trkpt>
      <trkpt lat="42.9145420" lon="1.2005820">
        <ele>461.8</ele>
        <time>2020-07-29T10:25:36Z</time>
      </trkpt>
      <trkpt lat="42.9146700" lon="1.2007640">
        <ele>462.0</ele>
        <time>2020-07-29T10:25:39Z</time>
      </trkpt>
      <trkpt lat="42.9147580" lon="1.2008840">
        <ele>462.1</ele>
        <time>2020-07-29T10:25:41Z</time>
      </trkpt>
      <trkpt lat="42.9150600" lon="1.2012840">
        <ele>462.3</ele>
        <time>2020-07-29T10:25:47Z</time>
      </trkpt>
      <trkpt lat="42.9151000" lon="1.2013680">
        <ele>462.3</ele>
        <time>2020-07-29T10:25:48Z</time>
      </trkpt>
      <trkpt lat="42.9151750" lon="1.2017440">
        <ele>462.6</ele>
        <time>2020-07-29T10:25:52Z</time>
      </trkpt>
      <trkpt lat="42.9151890" lon="1.2018380">
        <ele>462.7</ele>
        <time>2020-07-29T10:25:53Z</time>
      </trkpt>
      <trkpt lat="42.9152690" lon="1.2022100">
        <ele>463.1</ele>
        <time>2020-07-29T10:25:57Z</time>
      </trkpt>
      <trkpt lat="42.9152920" lon="1.2023000">
        <ele>463.2</ele>
        <time>2020-07-29T10:25:58Z</time>
      </trkpt>
      <trkpt lat="42.9153200" lon="1.2024760">
        <ele>463.5</ele>
        <time>2020-07-29T10:26:00Z</time>
      </trkpt>
      <trkpt lat="42.9153350" lon="1.2026400">
        <ele>463.7</ele>
        <time>2020-07-29T10:26:02Z</time>
      </trkpt>
      <trkpt lat="42.9153140" lon="1.2028010">
        <ele>464.0</ele>
        <time>2020-07-29T10:26:04Z</time>
      </trkpt>
      <trkpt lat="42.9152750" lon="1.2031070">
        <ele>464.6</ele>
        <time>2020-07-29T10:26:08Z</time>
      </trkpt>
      <trkpt lat="42.9152560" lon="1.2031770">
        <ele>464.7</ele>
        <time>2020-07-29T10:26:09Z</time>
      </trkpt>
      <trkpt lat="42.9152350" lon="1.2032420">
        <ele>464.8</ele>
        <time>2020-07-29T10:26:10Z</time>
      </trkpt>
      <trkpt lat="42.9150970" lon="1.2034650">
        <ele>465.1</ele>
        <time>2020-07-29T10:26:14Z</time>
      </trkpt>
      <trkpt lat="42.9150170" lon="1.2035810">
        <ele>465.2</ele>
        <time>2020-07-29T10:26:16Z</time>
      </trkpt>
      <trkpt lat="42.9148430" lon="1.2038330">
        <ele>465.3</ele>
        <time>2020-07-29T10:26:20Z</time>
      </trkpt>
      <trkpt lat="42.9144470" lon="1.2042000">
        <ele>465.5</ele>
        <time>2020-07-29T10:26:27Z</time>
      </trkpt>
      <trkpt lat="42.9139770" lon="1.2044950">
        <ele>465.2</ele>
        <time>2020-07-29T10:26:34Z</time>
      </trkpt>
      <trkpt lat="42.9135600" lon="1.2046940">
        <ele>465.2</ele>
        <time>2020-07-29T10:26:40Z</time>
      </trkpt>
      <trkpt lat="42.9134910" lon="1.2047350">
        <ele>465.2</ele>
        <time>2020-07-29T10:26:41Z</time>
      </trkpt>
      <trkpt lat="42.9131560" lon="1.2049890">
        <ele>465.0</ele>
        <time>2020-07-29T10:26:46Z</time>
      </trkpt>
      <trkpt lat="42.9128400" lon="1.2053360">
        <ele>464.6</ele>
        <time>2020-07-29T10:26:51Z</time>
      </trkpt>
      <trkpt lat="42.9127820" lon="1.2054190">
        <ele>464.5</ele>
        <time>2020-07-29T10:26:52Z</time>
      </trkpt>
      <trkpt lat="42.9125360" lon="1.2058320">
        <ele>464.7</ele>
        <time>2020-07-29T10:26:57Z</time>
      </trkpt>
      <trkpt lat="42.9122740" lon="1.2063080">
        <ele>464.8</ele>
        <time>2020-07-29T10:27:03Z</time>
      </trkpt>
      <trkpt lat="42.9121160" lon="1.2067290">
        <ele>464.7</ele>
        <time>2020-07-29T10:27:08Z</time>
      </trkpt>
      <trkpt lat="42.9119560" lon="1.2072880">
        <ele>464.9</ele>
        <time>2020-07-29T10:27:14Z</time>
      </trkpt>
      <trkpt lat="42.9117920" lon="1.2076740">
        <ele>465.5</ele>
        <time>2020-07-29T10:27:19Z</time>
      </trkpt>
      <trkpt lat="42.9115230" lon="1.2082200">
        <ele>465.8</ele>
        <time>2020-07-29T10:27:26Z</time>
      </trkpt>
      <trkpt lat="42.9111860" lon="1.2088140">
        <ele>466.6</ele>
        <time>2020-07-29T10:27:34Z</time>
      </trkpt>
      <trkpt lat="42.9110070" lon="1.2091110">
        <ele>467.1</ele>
        <time>2020-07-29T10:27:38Z</time>
      </trkpt>
      <trkpt lat="42.9109300" lon="1.2092540">
        <ele>467.4</ele>
        <time>2020-07-29T10:27:40Z</time>
      </trkpt>
      <trkpt lat="42.9108940" lon="1.2093170">
        <ele>467.6</ele>
        <time>2020-07-29T10:27:41Z</time>
      </trkpt>
      <trkpt lat="42.9108080" lon="1.2095150">
        <ele>467.8</ele>
        <time>2020-07-29T10:27:44Z</time>
      </trkpt>
      <trkpt lat="42.9107820" lon="1.2095800">
        <ele>467.8</ele>
        <time>2020-07-29T10:27:45Z</time>
      </trkpt>
      <trkpt lat="42.9107330" lon="1.2097200">
        <ele>467.9</ele>
        <time>2020-07-29T10:27:47Z</time>
      </trkpt>
      <trkpt lat="42.9106470" lon="1.2100480">
        <ele>467.6</ele>
        <time>2020-07-29T10:27:51Z</time>
      </trkpt>
      <trkpt lat="42.9105150" lon="1.2106460">
        <ele>467.5</ele>
        <time>2020-07-29T10:27:57Z</time>
      </trkpt>
      <trkpt lat="42.9103810" lon="1.2114530">
        <ele>467.7</ele>
        <time>2020-07-29T10:28:04Z</time>
      </trkpt>
      <trkpt lat="42.9103170" lon="1.2119740">
        <ele>468.1</ele>
        <time>2020-07-29T10:28:09Z</time>
      </trkpt>
      <trkpt lat="42.9102670" lon="1.2122740">
        <ele>468.7</ele>
        <time>2020-07-29T10:28:12Z</time>
      </trkpt>
      <trkpt lat="42.9102410" lon="1.2123680">
        <ele>468.9</ele>
        <time>2020-07-29T10:28:13Z</time>
      </trkpt>
      <trkpt lat="42.9101060" lon="1.2128120">
        <ele>470.1</ele>
        <time>2020-07-29T10:28:18Z</time>
      </trkpt>
      <trkpt lat="42.9099880" lon="1.2130800">
        <ele>471.1</ele>
        <time>2020-07-29T10:28:22Z</time>
      </trkpt>
      <trkpt lat="42.9099240" lon="1.2132000">
        <ele>471.6</ele>
        <time>2020-07-29T10:28:24Z</time>
      </trkpt>
      <trkpt lat="42.9098880" lon="1.2132590">
        <ele>471.9</ele>
        <time>2020-07-29T10:28:25Z</time>
      </trkpt>
      <trkpt lat="42.9097940" lon="1.2135090">
        <ele>472.5</ele>
        <time>2020-07-29T10:28:28Z</time>
      </trkpt>
      <trkpt lat="42.9097140" lon="1.2136330">
        <ele>472.8</ele>
        <time>2020-07-29T10:28:30Z</time>
      </trkpt>
      <trkpt lat="42.9095310" lon="1.2138240">
        <ele>473.3</ele>
        <time>2020-07-29T10:28:34Z</time>
      </trkpt>
      <trkpt lat="42.9094950" lon="1.2138830">
        <ele>473.2</ele>
        <time>2020-07-29T10:28:35Z</time>
      </trkpt>
      <trkpt lat="42.9094620" lon="1.2139450">
        <ele>473.1</ele>
        <time>2020-07-29T10:28:36Z</time>
      </trkpt>
      <trkpt lat="42.9093140" lon="1.2142100">
        <ele>472.9</ele>
        <time>2020-07-29T10:28:40Z</time>
      </trkpt>
      <trkpt lat="42.9092700" lon="1.2142770">
        <ele>472.8</ele>
        <time>2020-07-29T10:28:41Z</time>
      </trkpt>
      <trkpt lat="42.9092210" lon="1.2143280">
        <ele>473.0</ele>
        <time>2020-07-29T10:28:42Z</time>
      </trkpt>
      <trkpt lat="42.9090260" lon="1.2144440">
        <ele>474.9</ele>
        <time>2020-07-29T10:28:45Z</time>
      </trkpt>
      <trkpt lat="42.9089170" lon="1.2146870">
        <ele>473.6</ele>
        <time>2020-07-29T10:28:48Z</time>
      </trkpt>
      <trkpt lat="42.9089240" lon="1.2149780">
        <ele>472.6</ele>
        <time>2020-07-29T10:28:51Z</time>
      </trkpt>
      <trkpt lat="42.9088930" lon="1.2152800">
        <ele>472.1</ele>
        <time>2020-07-29T10:28:54Z</time>
      </trkpt>
      <trkpt lat="42.9088610" lon="1.2153840">
        <ele>471.9</ele>
        <time>2020-07-29T10:28:55Z</time>
      </trkpt>
      <trkpt lat="42.9087120" lon="1.2157940">
        <ele>471.3</ele>
        <time>2020-07-29T10:28:59Z</time>
      </trkpt>
      <trkpt lat="42.9086660" lon="1.2158920">
        <ele>471.1</ele>
        <time>2020-07-29T10:29:00Z</time>
      </trkpt>
      <trkpt lat="42.9083790" lon="1.2164240">
        <ele>470.9</ele>
        <time>2020-07-29T10:29:06Z</time>
      </trkpt>
      <trkpt lat="42.9083300" lon="1.2165010">
        <ele>470.9</ele>
        <time>2020-07-29T10:29:07Z</time>
      </trkpt>
      <trkpt lat="42.9082770" lon="1.2165760">
        <ele>471.0</ele>
        <time>2020-07-29T10:29:08Z</time>
      </trkpt>
      <trkpt lat="42.9081800" lon="1.2167310">
        <ele>471.0</ele>
        <time>2020-07-29T10:29:10Z</time>
      </trkpt>
      <trkpt lat="42.9078030" lon="1.2173920">
        <ele>471.7</ele>
        <time>2020-07-29T10:29:18Z</time>
      </trkpt>
      <trkpt lat="42.9074520" lon="1.2180710">
        <ele>472.1</ele>
        <time>2020-07-29T10:29:26Z</time>
      </trkpt>
      <trkpt lat="42.9070990" lon="1.2184050">
        <ele>472.5</ele>
        <time>2020-07-29T10:29:32Z</time>
      </trkpt>
      <trkpt lat="42.9066550" lon="1.2186730">
        <ele>472.9</ele>
        <time>2020-07-29T10:29:39Z</time>
      </trkpt>
      <trkpt lat="42.9061470" lon="1.2190250">
        <ele>473.5</ele>
        <time>2020-07-29T10:29:47Z</time>
      </trkpt>
      <trkpt lat="42.9058500" lon="1.2192830">
        <ele>473.8</ele>
        <time>2020-07-29T10:29:52Z</time>
      </trkpt>
      <trkpt lat="42.9057320" lon="1.2193920">
        <ele>473.9</ele>
        <time>2020-07-29T10:29:54Z</time>
      </trkpt>
      <trkpt lat="42.9052630" lon="1.2198520">
        <ele>474.7</ele>
        <time>2020-07-29T10:30:02Z</time>
      </trkpt>
      <trkpt lat="42.9049690" lon="1.2201480">
        <ele>475.2</ele>
        <time>2020-07-29T10:30:07Z</time>
      </trkpt>
      <trkpt lat="42.9049090" lon="1.2201990">
        <ele>475.3</ele>
        <time>2020-07-29T10:30:08Z</time>
      </trkpt>
      <trkpt lat="42.9044490" lon="1.2206190">
        <ele>476.0</ele>
        <time>2020-07-29T10:30:16Z</time>
      </trkpt>
      <trkpt lat="42.9040490" lon="1.2209940">
        <ele>476.3</ele>
        <time>2020-07-29T10:30:23Z</time>
      </trkpt>
      <trkpt lat="42.9038430" lon="1.2212330">
        <ele>476.6</ele>
        <time>2020-07-29T10:30:27Z</time>
      </trkpt>
      <trkpt lat="42.9037460" lon="1.2213620">
        <ele>476.8</ele>
        <time>2020-07-29T10:30:29Z</time>
      </trkpt>
      <trkpt lat="42.9034360" lon="1.2217160">
        <ele>477.1</ele>
        <time>2020-07-29T10:30:35Z</time>
      </trkpt>
      <trkpt lat="42.9033310" lon="1.2218300">
        <ele>477.2</ele>
        <time>2020-07-29T10:30:37Z</time>
      </trkpt>
      <trkpt lat="42.9029610" lon="1.2222060">
        <ele>477.7</ele>
        <time>2020-07-29T10:30:44Z</time>
      </trkpt>
      <trkpt lat="42.9026750" lon="1.2225620">
        <ele>478.1</ele>
        <time>2020-07-29T10:30:50Z</time>
      </trkpt>
      <trkpt lat="42.9025900" lon="1.2226960">
        <ele>478.2</ele>
        <time>2020-07-29T10:30:52Z</time>
      </trkpt>
      <trkpt lat="42.9023800" lon="1.2230410">
        <ele>479.0</ele>
        <time>2020-07-29T10:30:57Z</time>
      </trkpt>
      <trkpt lat="42.9021680" lon="1.2233500">
        <ele>479.5</ele>
        <time>2020-07-29T10:31:02Z</time>
      </trkpt>
      <trkpt lat="42.9021230" lon="1.2234090">
        <ele>479.5</ele>
        <time>2020-07-29T10:31:03Z</time>
      </trkpt>
      <trkpt lat="42.9018710" lon="1.2238200">
        <ele>479.7</ele>
        <time>2020-07-29T10:31:09Z</time>
      </trkpt>
      <trkpt lat="42.9016220" lon="1.2242410">
        <ele>480.0</ele>
        <time>2020-07-29T10:31:15Z</time>
      </trkpt>
      <trkpt lat="42.9015440" lon="1.2243760">
        <ele>480.2</ele>
        <time>2020-07-29T10:31:17Z</time>
      </trkpt>
      <trkpt lat="42.9015080" lon="1.2244450">
        <ele>480.2</ele>
        <time>2020-07-29T10:31:18Z</time>
      </trkpt>
      <trkpt lat="42.9013550" lon="1.2247120">
        <ele>480.5</ele>
        <time>2020-07-29T10:31:22Z</time>
      </trkpt>
      <trkpt lat="42.9011300" lon="1.2249860">
        <ele>480.9</ele>
        <time>2020-07-29T10:31:27Z</time>
      </trkpt>
      <trkpt lat="42.9010390" lon="1.2250840">
        <ele>481.1</ele>
        <time>2020-07-29T10:31:29Z</time>
      </trkpt>
      <trkpt lat="42.9009110" lon="1.2252530">
        <ele>481.3</ele>
        <time>2020-07-29T10:31:32Z</time>
      </trkpt>
      <trkpt lat="42.9008570" lon="1.2253930">
        <ele>481.5</ele>
        <time>2020-07-29T10:31:34Z</time>
      </trkpt>
      <trkpt lat="42.9008310" lon="1.2255520">
        <ele>481.6</ele>
        <time>2020-07-29T10:31:36Z</time>
      </trkpt>
      <trkpt lat="42.9008150" lon="1.2257130">
        <ele>481.8</ele>
        <time>2020-07-29T10:31:38Z</time>
      </trkpt>
      <trkpt lat="42.9008000" lon="1.2259440">
        <ele>482.1</ele>
        <time>2020-07-29T10:31:41Z</time>
      </trkpt>
      <trkpt lat="42.9007930" lon="1.2260250">
        <ele>482.2</ele>
        <time>2020-07-29T10:31:42Z</time>
      </trkpt>
      <trkpt lat="42.9007900" lon="1.2261120">
        <ele>482.2</ele>
        <time>2020-07-29T10:31:43Z</time>
      </trkpt>
      <trkpt lat="42.9008360" lon="1.2264730">
        <ele>482.5</ele>
        <time>2020-07-29T10:31:47Z</time>
      </trkpt>
      <trkpt lat="42.9008490" lon="1.2266430">
        <ele>482.7</ele>
        <time>2020-07-29T10:31:49Z</time>
      </trkpt>
      <trkpt lat="42.9009550" lon="1.2272250">
        <ele>483.3</ele>
        <time>2020-07-29T10:31:56Z</time>
      </trkpt>
      <trkpt lat="42.9009710" lon="1.2273060">
        <ele>483.3</ele>
        <time>2020-07-29T10:31:57Z</time>
      </trkpt>
      <trkpt lat="42.9010100" lon="1.2274640">
        <ele>483.5</ele>
        <time>2020-07-29T10:31:59Z</time>
      </trkpt>
      <trkpt lat="42.9010690" lon="1.2276920">
        <ele>483.7</ele>
        <time>2020-07-29T10:32:02Z</time>
      </trkpt>
      <trkpt lat="42.9011070" lon="1.2278390">
        <ele>483.9</ele>
        <time>2020-07-29T10:32:04Z</time>
      </trkpt>
      <trkpt lat="42.9012220" lon="1.2281040">
        <ele>484.3</ele>
        <time>2020-07-29T10:32:08Z</time>
      </trkpt>
      <trkpt lat="42.9013320" lon="1.2283030">
        <ele>484.6</ele>
        <time>2020-07-29T10:32:11Z</time>
      </trkpt>
      <trkpt lat="42.9014880" lon="1.2285910">
        <ele>485.0</ele>
        <time>2020-07-29T10:32:15Z</time>
      </trkpt>
      <trkpt lat="42.9015590" lon="1.2288540">
        <ele>485.3</ele>
        <time>2020-07-29T10:32:18Z</time>
      </trkpt>
      <trkpt lat="42.9015080" lon="1.2292140">
        <ele>485.7</ele>
        <time>2020-07-29T10:32:22Z</time>
      </trkpt>
      <trkpt lat="42.9014390" lon="1.2293520">
        <ele>486.0</ele>
        <time>2020-07-29T10:32:24Z</time>
      </trkpt>
      <trkpt lat="42.9013910" lon="1.2294010">
        <ele>486.1</ele>
        <time>2020-07-29T10:32:25Z</time>
      </trkpt>
      <trkpt lat="42.9012230" lon="1.2294740">
        <ele>486.5</ele>
        <time>2020-07-29T10:32:28Z</time>
      </trkpt>
      <trkpt lat="42.9011610" lon="1.2294780">
        <ele>486.5</ele>
        <time>2020-07-29T10:32:29Z</time>
      </trkpt>
      <trkpt lat="42.9007290" lon="1.2294970">
        <ele>486.9</ele>
        <time>2020-07-29T10:32:36Z</time>
      </trkpt>
      <trkpt lat="42.9003690" lon="1.2296010">
        <ele>487.4</ele>
        <time>2020-07-29T10:32:42Z</time>
      </trkpt>
      <trkpt lat="42.9003120" lon="1.2296330">
        <ele>487.5</ele>
        <time>2020-07-29T10:32:43Z</time>
      </trkpt>
      <trkpt lat="42.9000620" lon="1.2298620">
        <ele>488.1</ele>
        <time>2020-07-29T10:32:48Z</time>
      </trkpt>
      <trkpt lat="42.8996900" lon="1.2302520">
        <ele>488.6</ele>
        <time>2020-07-29T10:32:56Z</time>
      </trkpt>
      <trkpt lat="42.8993610" lon="1.2305930">
        <ele>489.3</ele>
        <time>2020-07-29T10:33:03Z</time>
      </trkpt>
      <trkpt lat="42.8991920" lon="1.2309050">
        <ele>489.5</ele>
        <time>2020-07-29T10:33:08Z</time>
      </trkpt>
      <trkpt lat="42.8990950" lon="1.2312150">
        <ele>489.5</ele>
        <time>2020-07-29T10:33:12Z</time>
      </trkpt>
      <trkpt lat="42.8990770" lon="1.2313820">
        <ele>489.6</ele>
        <time>2020-07-29T10:33:14Z</time>
      </trkpt>
      <trkpt lat="42.8990690" lon="1.2314760">
        <ele>489.7</ele>
        <time>2020-07-29T10:33:15Z</time>
      </trkpt>
      <trkpt lat="42.8990580" lon="1.2317410">
        <ele>489.8</ele>
        <time>2020-07-29T10:33:18Z</time>
      </trkpt>
      <trkpt lat="42.8990630" lon="1.2318310">
        <ele>489.8</ele>
        <time>2020-07-29T10:33:19Z</time>
      </trkpt>
      <trkpt lat="42.8991000" lon="1.2320060">
        <ele>490.0</ele>
        <time>2020-07-29T10:33:21Z</time>
      </trkpt>
      <trkpt lat="42.8991410" lon="1.2321670">
        <ele>490.1</ele>
        <time>2020-07-29T10:33:23Z</time>
      </trkpt>
      <trkpt lat="42.8993170" lon="1.2327360">
        <ele>489.9</ele>
        <time>2020-07-29T10:33:30Z</time>
      </trkpt>
      <trkpt lat="42.8995010" lon="1.2333060">
        <ele>490.0</ele>
        <time>2020-07-29T10:33:37Z</time>
      </trkpt>
      <trkpt lat="42.8996770" lon="1.2336920">
        <ele>490.4</ele>
        <time>2020-07-29T10:33:42Z</time>
      </trkpt>
      <trkpt lat="42.8997720" lon="1.2339130">
        <ele>490.6</ele>
        <time>2020-07-29T10:33:45Z</time>
      </trkpt>
      <trkpt lat="42.8998440" lon="1.2340710">
        <ele>490.7</ele>
        <time>2020-07-29T10:33:47Z</time>
      </trkpt>
      <trkpt lat="42.8998620" lon="1.2341520">
        <ele>490.7</ele>
        <time>2020-07-29T10:33:48Z</time>
      </trkpt>
      <trkpt lat="42.9000300" lon="1.2346840">
        <ele>490.7</ele>
        <time>2020-07-29T10:33:55Z</time>
      </trkpt>
      <trkpt lat="42.9002300" lon="1.2349560">
        <ele>490.9</ele>
        <time>2020-07-29T10:33:59Z</time>
      </trkpt>
      <trkpt lat="42.9002720" lon="1.2350230">
        <ele>490.9</ele>
        <time>2020-07-29T10:34:00Z</time>
      </trkpt>
      <trkpt lat="42.9003870" lon="1.2352860">
        <ele>491.2</ele>
        <time>2020-07-29T10:34:04Z</time>
      </trkpt>
      <trkpt lat="42.9004250" lon="1.2353570">
        <ele>491.3</ele>
        <time>2020-07-29T10:34:05Z</time>
      </trkpt>
      <trkpt lat="42.9004720" lon="1.2354880">
        <ele>491.4</ele>
        <time>2020-07-29T10:34:07Z</time>
      </trkpt>
      <trkpt lat="42.9005980" lon="1.2356790">
        <ele>491.7</ele>
        <time>2020-07-29T10:34:10Z</time>
      </trkpt>
      <trkpt lat="42.9006740" lon="1.2357420">
        <ele>491.9</ele>
        <time>2020-07-29T10:34:11Z</time>
      </trkpt>
      <trkpt lat="42.9007690" lon="1.2358570">
        <ele>492.2</ele>
        <time>2020-07-29T10:34:13Z</time>
      </trkpt>
      <trkpt lat="42.9008980" lon="1.2359720">
        <ele>492.7</ele>
        <time>2020-07-29T10:34:15Z</time>
      </trkpt>
      <trkpt lat="42.9010550" lon="1.2361620">
        <ele>493.3</ele>
        <time>2020-07-29T10:34:19Z</time>
      </trkpt>
      <trkpt lat="42.9010710" lon="1.2362050">
        <ele>493.4</ele>
        <time>2020-07-29T10:34:20Z</time>
      </trkpt>
      <trkpt lat="42.9010880" lon="1.2362480">
        <ele>493.5</ele>
        <time>2020-07-29T10:34:21Z</time>
      </trkpt>
      <trkpt lat="42.9011460" lon="1.2363260">
        <ele>493.7</ele>
        <time>2020-07-29T10:34:23Z</time>
      </trkpt>
      <trkpt lat="42.9012050" lon="1.2363740">
        <ele>493.9</ele>
        <time>2020-07-29T10:34:24Z</time>
      </trkpt>
      <trkpt lat="42.9013220" lon="1.2364650">
        <ele>494.4</ele>
        <time>2020-07-29T10:34:26Z</time>
      </trkpt>
      <trkpt lat="42.9013950" lon="1.2365550">
        <ele>494.7</ele>
        <time>2020-07-29T10:34:28Z</time>
      </trkpt>
      <trkpt lat="42.9015440" lon="1.2367060">
        <ele>495.2</ele>
        <time>2020-07-29T10:34:31Z</time>
      </trkpt>
      <trkpt lat="42.9015990" lon="1.2367560">
        <ele>495.4</ele>
        <time>2020-07-29T10:34:32Z</time>
      </trkpt>
      <trkpt lat="42.9018410" lon="1.2369690">
        <ele>496.4</ele>
        <time>2020-07-29T10:34:36Z</time>
      </trkpt>
      <trkpt lat="42.9018990" lon="1.2370250">
        <ele>496.6</ele>
        <time>2020-07-29T10:34:37Z</time>
      </trkpt>
      <trkpt lat="42.9019870" lon="1.2371360">
        <ele>497.0</ele>
        <time>2020-07-29T10:34:39Z</time>
      </trkpt>
      <trkpt lat="42.9020520" lon="1.2372610">
        <ele>497.3</ele>
        <time>2020-07-29T10:34:41Z</time>
      </trkpt>
      <trkpt lat="42.9021200" lon="1.2373970">
        <ele>497.7</ele>
        <time>2020-07-29T10:34:43Z</time>
      </trkpt>
      <trkpt lat="42.9021540" lon="1.2374680">
        <ele>497.8</ele>
        <time>2020-07-29T10:34:44Z</time>
      </trkpt>
      <trkpt lat="42.9021870" lon="1.2375360">
        <ele>498.1</ele>
        <time>2020-07-29T10:34:45Z</time>
      </trkpt>
      <trkpt lat="42.9021990" lon="1.2376060">
        <ele>498.3</ele>
        <time>2020-07-29T10:34:46Z</time>
      </trkpt>
      <trkpt lat="42.9022270" lon="1.2377260">
        <ele>498.6</ele>
        <time>2020-07-29T10:34:48Z</time>
      </trkpt>
      <trkpt lat="42.9022460" lon="1.2377880">
        <ele>498.9</ele>
        <time>2020-07-29T10:34:49Z</time>
      </trkpt>
      <trkpt lat="42.9022660" lon="1.2379130">
        <ele>499.3</ele>
        <time>2020-07-29T10:34:51Z</time>
      </trkpt>
      <trkpt lat="42.9022580" lon="1.2381050">
        <ele>500.0</ele>
        <time>2020-07-29T10:34:54Z</time>
      </trkpt>
      <trkpt lat="42.9022390" lon="1.2382950">
        <ele>500.6</ele>
        <time>2020-07-29T10:34:57Z</time>
      </trkpt>
      <trkpt lat="42.9022330" lon="1.2383570">
        <ele>500.8</ele>
        <time>2020-07-29T10:34:58Z</time>
      </trkpt>
      <trkpt lat="42.9021830" lon="1.2385900">
        <ele>501.5</ele>
        <time>2020-07-29T10:35:02Z</time>
      </trkpt>
      <trkpt lat="42.9021670" lon="1.2386420">
        <ele>501.6</ele>
        <time>2020-07-29T10:35:03Z</time>
      </trkpt>
      <trkpt lat="42.9021500" lon="1.2386920">
        <ele>501.7</ele>
        <time>2020-07-29T10:35:04Z</time>
      </trkpt>
      <trkpt lat="42.9021030" lon="1.2388610">
        <ele>502.2</ele>
        <time>2020-07-29T10:35:07Z</time>
      </trkpt>
      <trkpt lat="42.9020750" lon="1.2388960">
        <ele>502.4</ele>
        <time>2020-07-29T10:35:08Z</time>
      </trkpt>
      <trkpt lat="42.9020450" lon="1.2389310">
        <ele>502.5</ele>
        <time>2020-07-29T10:35:09Z</time>
      </trkpt>
      <trkpt lat="42.9019650" lon="1.2389870">
        <ele>502.8</ele>
        <time>2020-07-29T10:35:11Z</time>
      </trkpt>
      <trkpt lat="42.9019200" lon="1.2390050">
        <ele>502.9</ele>
        <time>2020-07-29T10:35:12Z</time>
      </trkpt>
      <trkpt lat="42.9018290" lon="1.2390410">
        <ele>503.1</ele>
        <time>2020-07-29T10:35:14Z</time>
      </trkpt>
      <trkpt lat="42.9017780" lon="1.2390670">
        <ele>503.2</ele>
        <time>2020-07-29T10:35:15Z</time>
      </trkpt>
      <trkpt lat="42.9016280" lon="1.2391870">
        <ele>503.3</ele>
        <time>2020-07-29T10:35:18Z</time>
      </trkpt>
      <trkpt lat="42.9014650" lon="1.2394470">
        <ele>503.2</ele>
        <time>2020-07-29T10:35:22Z</time>
      </trkpt>
      <trkpt lat="42.9014160" lon="1.2397860">
        <ele>503.0</ele>
        <time>2020-07-29T10:35:26Z</time>
      </trkpt>
      <trkpt lat="42.9014120" lon="1.2400450">
        <ele>502.8</ele>
        <time>2020-07-29T10:35:29Z</time>
      </trkpt>
      <trkpt lat="42.9014020" lon="1.2402320">
        <ele>502.8</ele>
        <time>2020-07-29T10:35:31Z</time>
      </trkpt>
      <trkpt lat="42.9013990" lon="1.2404870">
        <ele>503.1</ele>
        <time>2020-07-29T10:35:34Z</time>
      </trkpt>
      <trkpt lat="42.9014290" lon="1.2406630">
        <ele>502.8</ele>
        <time>2020-07-29T10:35:36Z</time>
      </trkpt>
      <trkpt lat="42.9015250" lon="1.2411770">
        <ele>502.5</ele>
        <time>2020-07-29T10:35:42Z</time>
      </trkpt>
      <trkpt lat="42.9016100" lon="1.2414120">
        <ele>502.5</ele>
        <time>2020-07-29T10:35:45Z</time>
      </trkpt>
      <trkpt lat="42.9016890" lon="1.2415430">
        <ele>502.5</ele>
        <time>2020-07-29T10:35:47Z</time>
      </trkpt>
      <trkpt lat="42.9017430" lon="1.2416050">
        <ele>502.6</ele>
        <time>2020-07-29T10:35:48Z</time>
      </trkpt>
      <trkpt lat="42.9018600" lon="1.2417580">
        <ele>502.6</ele>
        <time>2020-07-29T10:35:51Z</time>
      </trkpt>
      <trkpt lat="42.9021530" lon="1.2420290">
        <ele>503.2</ele>
        <time>2020-07-29T10:35:57Z</time>
      </trkpt>
      <trkpt lat="42.9022880" lon="1.2421130">
        <ele>503.5</ele>
        <time>2020-07-29T10:35:59Z</time>
      </trkpt>
      <trkpt lat="42.9024950" lon="1.2422270">
        <ele>504.0</ele>
        <time>2020-07-29T10:36:02Z</time>
      </trkpt>
      <trkpt lat="42.9028820" lon="1.2423780">
        <ele>505.4</ele>
        <time>2020-07-29T10:36:08Z</time>
      </trkpt>
      <trkpt lat="42.9029460" lon="1.2423980">
        <ele>505.6</ele>
        <time>2020-07-29T10:36:09Z</time>
      </trkpt>
      <trkpt lat="42.9032080" lon="1.2425110">
        <ele>506.7</ele>
        <time>2020-07-29T10:36:14Z</time>
      </trkpt>
      <trkpt lat="42.9033430" lon="1.2426280">
        <ele>507.2</ele>
        <time>2020-07-29T10:36:18Z</time>
      </trkpt>
      <trkpt lat="42.9033770" lon="1.2426590">
        <ele>507.3</ele>
        <time>2020-07-29T10:36:19Z</time>
      </trkpt>
      <trkpt lat="42.9034060" lon="1.2426890">
        <ele>507.4</ele>
        <time>2020-07-29T10:36:20Z</time>
      </trkpt>
      <trkpt lat="42.9035300" lon="1.2428610">
        <ele>508.0</ele>
        <time>2020-07-29T10:36:25Z</time>
      </trkpt>
      <trkpt lat="42.9035850" lon="1.2429510">
        <ele>508.2</ele>
        <time>2020-07-29T10:36:27Z</time>
      </trkpt>
      <trkpt lat="42.9036690" lon="1.2430760">
        <ele>508.3</ele>
        <time>2020-07-29T10:36:29Z</time>
      </trkpt>
      <trkpt lat="42.9039070" lon="1.2434030">
        <ele>508.0</ele>
        <time>2020-07-29T10:36:33Z</time>
      </trkpt>
      <trkpt lat="42.9039490" lon="1.2434950">
        <ele>507.8</ele>
        <time>2020-07-29T10:36:34Z</time>
      </trkpt>
      <trkpt lat="42.9040530" lon="1.2437870">
        <ele>507.2</ele>
        <time>2020-07-29T10:36:37Z</time>
      </trkpt>
      <trkpt lat="42.9041240" lon="1.2440850">
        <ele>506.8</ele>
        <time>2020-07-29T10:36:40Z</time>
      </trkpt>
      <trkpt lat="42.9042940" lon="1.2444450">
        <ele>506.3</ele>
        <time>2020-07-29T10:36:44Z</time>
      </trkpt>
      <trkpt lat="42.9044220" lon="1.2445880">
        <ele>506.1</ele>
        <time>2020-07-29T10:36:46Z</time>
      </trkpt>
      <trkpt lat="42.9044830" lon="1.2446590">
        <ele>506.0</ele>
        <time>2020-07-29T10:36:47Z</time>
      </trkpt>
      <trkpt lat="42.9046140" lon="1.2447940">
        <ele>505.8</ele>
        <time>2020-07-29T10:36:49Z</time>
      </trkpt>
      <trkpt lat="42.9047470" lon="1.2449420">
        <ele>505.7</ele>
        <time>2020-07-29T10:36:51Z</time>
      </trkpt>
      <trkpt lat="42.9048410" lon="1.2451370">
        <ele>505.6</ele>
        <time>2020-07-29T10:36:53Z</time>
      </trkpt>
      <trkpt lat="42.9048810" lon="1.2454570">
        <ele>505.2</ele>
        <time>2020-07-29T10:36:56Z</time>
      </trkpt>
      <trkpt lat="42.9048720" lon="1.2455610">
        <ele>505.0</ele>
        <time>2020-07-29T10:36:57Z</time>
      </trkpt>
      <trkpt lat="42.9048330" lon="1.2457680">
        <ele>504.4</ele>
        <time>2020-07-29T10:36:59Z</time>
      </trkpt>
      <trkpt lat="42.9048170" lon="1.2458740">
        <ele>504.2</ele>
        <time>2020-07-29T10:37:00Z</time>
      </trkpt>
      <trkpt lat="42.9048110" lon="1.2459830">
        <ele>504.0</ele>
        <time>2020-07-29T10:37:01Z</time>
      </trkpt>
      <trkpt lat="42.9048420" lon="1.2462110">
        <ele>503.8</ele>
        <time>2020-07-29T10:37:03Z</time>
      </trkpt>
      <trkpt lat="42.9049550" lon="1.2465490">
        <ele>503.5</ele>
        <time>2020-07-29T10:37:06Z</time>
      </trkpt>
      <trkpt lat="42.9050020" lon="1.2466590">
        <ele>503.4</ele>
        <time>2020-07-29T10:37:07Z</time>
      </trkpt>
      <trkpt lat="42.9050470" lon="1.2467690">
        <ele>503.5</ele>
        <time>2020-07-29T10:37:08Z</time>
      </trkpt>
      <trkpt lat="42.9052550" lon="1.2472860">
        <ele>503.2</ele>
        <time>2020-07-29T10:37:13Z</time>
      </trkpt>
      <trkpt lat="42.9054010" lon="1.2477490">
        <ele>503.5</ele>
        <time>2020-07-29T10:37:18Z</time>
      </trkpt>
      <trkpt lat="42.9054810" lon="1.2479880">
        <ele>503.8</ele>
        <time>2020-07-29T10:37:21Z</time>
      </trkpt>
      <trkpt lat="42.9055080" lon="1.2481440">
        <ele>504.0</ele>
        <time>2020-07-29T10:37:23Z</time>
      </trkpt>
      <trkpt lat="42.9056600" lon="1.2485750">
        <ele>503.9</ele>
        <time>2020-07-29T10:37:29Z</time>
      </trkpt>
      <trkpt lat="42.9056800" lon="1.2486510">
        <ele>503.9</ele>
        <time>2020-07-29T10:37:30Z</time>
      </trkpt>
      <trkpt lat="42.9057270" lon="1.2488150">
        <ele>503.7</ele>
        <time>2020-07-29T10:37:32Z</time>
      </trkpt>
      <trkpt lat="42.9058180" lon="1.2490780">
        <ele>503.6</ele>
        <time>2020-07-29T10:37:35Z</time>
      </trkpt>
      <trkpt lat="42.9058570" lon="1.2491670">
        <ele>503.6</ele>
        <time>2020-07-29T10:37:36Z</time>
      </trkpt>
      <trkpt lat="42.9059760" lon="1.2493130">
        <ele>503.4</ele>
        <time>2020-07-29T10:37:38Z</time>
      </trkpt>
      <trkpt lat="42.9062260" lon="1.2493990">
        <ele>502.8</ele>
        <time>2020-07-29T10:37:41Z</time>
      </trkpt>
      <trkpt lat="42.9063940" lon="1.2493880">
        <ele>502.7</ele>
        <time>2020-07-29T10:37:43Z</time>
      </trkpt>
      <trkpt lat="42.9066350" lon="1.2493620">
        <ele>502.8</ele>
        <time>2020-07-29T10:37:46Z</time>
      </trkpt>
      <trkpt lat="42.9069320" lon="1.2493270">
        <ele>503.1</ele>
        <time>2020-07-29T10:37:50Z</time>
      </trkpt>
      <trkpt lat="42.9070770" lon="1.2493180">
        <ele>503.3</ele>
        <time>2020-07-29T10:37:52Z</time>
      </trkpt>
      <trkpt lat="42.9076410" lon="1.2492920">
        <ele>504.3</ele>
        <time>2020-07-29T10:38:00Z</time>
      </trkpt>
      <trkpt lat="42.9077780" lon="1.2493170">
        <ele>504.6</ele>
        <time>2020-07-29T10:38:02Z</time>
      </trkpt>
      <trkpt lat="42.9079010" lon="1.2493870">
        <ele>504.9</ele>
        <time>2020-07-29T10:38:04Z</time>
      </trkpt>
      <trkpt lat="42.9080090" lon="1.2494860">
        <ele>505.2</ele>
        <time>2020-07-29T10:38:06Z</time>
      </trkpt>
      <trkpt lat="42.9082280" lon="1.2496850">
        <ele>506.3</ele>
        <time>2020-07-29T10:38:10Z</time>
      </trkpt>
      <trkpt lat="42.9085170" lon="1.2499620">
        <ele>508.4</ele>
        <time>2020-07-29T10:38:16Z</time>
      </trkpt>
      <trkpt lat="42.9086740" lon="1.2501220">
        <ele>509.3</ele>
        <time>2020-07-29T10:38:20Z</time>
      </trkpt>
      <trkpt lat="42.9087530" lon="1.2502030">
        <ele>509.7</ele>
        <time>2020-07-29T10:38:22Z</time>
      </trkpt>
      <trkpt lat="42.9088300" lon="1.2502810">
        <ele>510.0</ele>
        <time>2020-07-29T10:38:24Z</time>
      </trkpt>
      <trkpt lat="42.9088760" lon="1.2503160">
        <ele>510.2</ele>
        <time>2020-07-29T10:38:25Z</time>
      </trkpt>
      <trkpt lat="42.9089180" lon="1.2503480">
        <ele>510.3</ele>
        <time>2020-07-29T10:38:26Z</time>
      </trkpt>
      <trkpt lat="42.9089990" lon="1.2504260">
        <ele>510.5</ele>
        <time>2020-07-29T10:38:28Z</time>
      </trkpt>
      <trkpt lat="42.9092260" lon="1.2506630">
        <ele>511.3</ele>
        <time>2020-07-29T10:38:33Z</time>
      </trkpt>
      <trkpt lat="42.9094720" lon="1.2509120">
        <ele>512.6</ele>
        <time>2020-07-29T10:38:39Z</time>
      </trkpt>
      <trkpt lat="42.9095120" lon="1.2509480">
        <ele>512.8</ele>
        <time>2020-07-29T10:38:40Z</time>
      </trkpt>
      <trkpt lat="42.9097050" lon="1.2511420">
        <ele>513.8</ele>
        <time>2020-07-29T10:38:45Z</time>
      </trkpt>
      <trkpt lat="42.9097360" lon="1.2511780">
        <ele>514.0</ele>
        <time>2020-07-29T10:38:46Z</time>
      </trkpt>
      <trkpt lat="42.9098910" lon="1.2513540">
        <ele>514.9</ele>
        <time>2020-07-29T10:38:51Z</time>
      </trkpt>
      <trkpt lat="42.9099220" lon="1.2513930">
        <ele>515.1</ele>
        <time>2020-07-29T10:38:52Z</time>
      </trkpt>
      <trkpt lat="42.9099490" lon="1.2514360">
        <ele>515.2</ele>
        <time>2020-07-29T10:38:53Z</time>
      </trkpt>
      <trkpt lat="42.9100090" lon="1.2515680">
        <ele>515.7</ele>
        <time>2020-07-29T10:38:56Z</time>
      </trkpt>
      <trkpt lat="42.9100460" lon="1.2516100">
        <ele>515.9</ele>
        <time>2020-07-29T10:38:57Z</time>
      </trkpt>
      <trkpt lat="42.9101510" lon="1.2517700">
        <ele>516.5</ele>
        <time>2020-07-29T10:39:01Z</time>
      </trkpt>
      <trkpt lat="42.9101830" lon="1.2518130">
        <ele>516.7</ele>
        <time>2020-07-29T10:39:02Z</time>
      </trkpt>
      <trkpt lat="42.9102110" lon="1.2518570">
        <ele>516.8</ele>
        <time>2020-07-29T10:39:03Z</time>
      </trkpt>
      <trkpt lat="42.9103270" lon="1.2520290">
        <ele>517.5</ele>
        <time>2020-07-29T10:39:07Z</time>
      </trkpt>
      <trkpt lat="42.9103810" lon="1.2521190">
        <ele>517.7</ele>
        <time>2020-07-29T10:39:09Z</time>
      </trkpt>
      <trkpt lat="42.9105080" lon="1.2523510">
        <ele>518.2</ele>
        <time>2020-07-29T10:39:14Z</time>
      </trkpt>
      <trkpt lat="42.9106120" lon="1.2525550">
        <ele>518.5</ele>
        <time>2020-07-29T10:39:18Z</time>
      </trkpt>
      <trkpt lat="42.9106320" lon="1.2526060">
        <ele>518.5</ele>
        <time>2020-07-29T10:39:19Z</time>
      </trkpt>
      <trkpt lat="42.9107320" lon="1.2528600">
        <ele>518.8</ele>
        <time>2020-07-29T10:39:24Z</time>
      </trkpt>
      <trkpt lat="42.9109070" lon="1.2530420">
        <ele>519.0</ele>
        <time>2020-07-29T10:39:28Z</time>
      </trkpt>
      <trkpt lat="42.9109950" lon="1.2531300">
        <ele>519.1</ele>
        <time>2020-07-29T10:39:30Z</time>
      </trkpt>
      <trkpt lat="42.9112100" lon="1.2532890">
        <ele>519.3</ele>
        <time>2020-07-29T10:39:34Z</time>
      </trkpt>
      <trkpt lat="42.9113580" lon="1.2534120">
        <ele>519.6</ele>
        <time>2020-07-29T10:39:37Z</time>
      </trkpt>
      <trkpt lat="42.9114740" lon="1.2535190">
        <ele>520.0</ele>
        <time>2020-07-29T10:39:39Z</time>
      </trkpt>
      <trkpt lat="42.9115290" lon="1.2535770">
        <ele>520.1</ele>
        <time>2020-07-29T10:39:40Z</time>
      </trkpt>
      <trkpt lat="42.9115680" lon="1.2536480">
        <ele>520.4</ele>
        <time>2020-07-29T10:39:41Z</time>
      </trkpt>
      <trkpt lat="42.9116200" lon="1.2538040">
        <ele>520.8</ele>
        <time>2020-07-29T10:39:43Z</time>
      </trkpt>
      <trkpt lat="42.9116240" lon="1.2540040">
        <ele>521.3</ele>
        <time>2020-07-29T10:39:46Z</time>
      </trkpt>
      <trkpt lat="42.9116190" lon="1.2540720">
        <ele>521.4</ele>
        <time>2020-07-29T10:39:47Z</time>
      </trkpt>
      <trkpt lat="42.9115950" lon="1.2542070">
        <ele>521.7</ele>
        <time>2020-07-29T10:39:49Z</time>
      </trkpt>
      <trkpt lat="42.9115640" lon="1.2543380">
        <ele>522.0</ele>
        <time>2020-07-29T10:39:51Z</time>
      </trkpt>
      <trkpt lat="42.9115610" lon="1.2544090">
        <ele>522.2</ele>
        <time>2020-07-29T10:39:52Z</time>
      </trkpt>
      <trkpt lat="42.9115870" lon="1.2546470">
        <ele>522.7</ele>
        <time>2020-07-29T10:39:55Z</time>
      </trkpt>
      <trkpt lat="42.9115940" lon="1.2547130">
        <ele>522.9</ele>
        <time>2020-07-29T10:39:56Z</time>
      </trkpt>
      <trkpt lat="42.9116170" lon="1.2548300">
        <ele>523.1</ele>
        <time>2020-07-29T10:39:58Z</time>
      </trkpt>
      <trkpt lat="42.9116340" lon="1.2548730">
        <ele>523.2</ele>
        <time>2020-07-29T10:39:59Z</time>
      </trkpt>
      <trkpt lat="42.9116640" lon="1.2549060">
        <ele>523.3</ele>
        <time>2020-07-29T10:40:00Z</time>
      </trkpt>
      <trkpt lat="42.9117910" lon="1.2549550">
        <ele>523.5</ele>
        <time>2020-07-29T10:40:02Z</time>
      </trkpt>
      <trkpt lat="42.9119200" lon="1.2550090">
        <ele>523.5</ele>
        <time>2020-07-29T10:40:04Z</time>
      </trkpt>
      <trkpt lat="42.9119870" lon="1.2550230">
        <ele>523.6</ele>
        <time>2020-07-29T10:40:05Z</time>
      </trkpt>
      <trkpt lat="42.9120510" lon="1.2550210">
        <ele>523.6</ele>
        <time>2020-07-29T10:40:06Z</time>
      </trkpt>
      <trkpt lat="42.9121810" lon="1.2549930">
        <ele>523.7</ele>
        <time>2020-07-29T10:40:08Z</time>
      </trkpt>
      <trkpt lat="42.9123580" lon="1.2549150">
        <ele>524.0</ele>
        <time>2020-07-29T10:40:11Z</time>
      </trkpt>
      <trkpt lat="42.9125040" lon="1.2548190">
        <ele>524.1</ele>
        <time>2020-07-29T10:40:14Z</time>
      </trkpt>
      <trkpt lat="42.9125820" lon="1.2547260">
        <ele>524.2</ele>
        <time>2020-07-29T10:40:16Z</time>
      </trkpt>
      <trkpt lat="42.9127910" lon="1.2545760">
        <ele>524.5</ele>
        <time>2020-07-29T10:40:20Z</time>
      </trkpt>
      <trkpt lat="42.9129720" lon="1.2545950">
        <ele>524.8</ele>
        <time>2020-07-29T10:40:23Z</time>
      </trkpt>
      <trkpt lat="42.9131460" lon="1.2548070">
        <ele>525.1</ele>
        <time>2020-07-29T10:40:27Z</time>
      </trkpt>
      <trkpt lat="42.9131730" lon="1.2548720">
        <ele>525.1</ele>
        <time>2020-07-29T10:40:28Z</time>
      </trkpt>
      <trkpt lat="42.9132200" lon="1.2550140">
        <ele>525.1</ele>
        <time>2020-07-29T10:40:30Z</time>
      </trkpt>
      <trkpt lat="42.9132390" lon="1.2550840">
        <ele>525.1</ele>
        <time>2020-07-29T10:40:31Z</time>
      </trkpt>
      <trkpt lat="42.9133980" lon="1.2554350">
        <ele>524.6</ele>
        <time>2020-07-29T10:40:36Z</time>
      </trkpt>
      <trkpt lat="42.9134360" lon="1.2554950">
        <ele>524.5</ele>
        <time>2020-07-29T10:40:37Z</time>
      </trkpt>
      <trkpt lat="42.9136120" lon="1.2557320">
        <ele>523.6</ele>
        <time>2020-07-29T10:40:40Z</time>
      </trkpt>
      <trkpt lat="42.9136150" lon="1.2559330">
        <ele>523.1</ele>
        <time>2020-07-29T10:40:42Z</time>
      </trkpt>
      <trkpt lat="42.9135940" lon="1.2560380">
        <ele>522.9</ele>
        <time>2020-07-29T10:40:43Z</time>
      </trkpt>
      <trkpt lat="42.9135430" lon="1.2563710">
        <ele>522.3</ele>
        <time>2020-07-29T10:40:46Z</time>
      </trkpt>
      <trkpt lat="42.9135250" lon="1.2564780">
        <ele>522.2</ele>
        <time>2020-07-29T10:40:47Z</time>
      </trkpt>
      <trkpt lat="42.9135160" lon="1.2565820">
        <ele>522.1</ele>
        <time>2020-07-29T10:40:48Z</time>
      </trkpt>
      <trkpt lat="42.9134980" lon="1.2567840">
        <ele>521.9</ele>
        <time>2020-07-29T10:40:50Z</time>
      </trkpt>
      <trkpt lat="42.9135190" lon="1.2569940">
        <ele>521.6</ele>
        <time>2020-07-29T10:40:52Z</time>
      </trkpt>
      <trkpt lat="42.9135520" lon="1.2572020">
        <ele>521.5</ele>
        <time>2020-07-29T10:40:54Z</time>
      </trkpt>
      <trkpt lat="42.9136210" lon="1.2573950">
        <ele>521.4</ele>
        <time>2020-07-29T10:40:56Z</time>
      </trkpt>
      <trkpt lat="42.9137150" lon="1.2576650">
        <ele>521.5</ele>
        <time>2020-07-29T10:40:59Z</time>
      </trkpt>
      <trkpt lat="42.9138950" lon="1.2580670">
        <ele>521.8</ele>
        <time>2020-07-29T10:41:04Z</time>
      </trkpt>
      <trkpt lat="42.9139250" lon="1.2581490">
        <ele>521.9</ele>
        <time>2020-07-29T10:41:05Z</time>
      </trkpt>
      <trkpt lat="42.9140270" lon="1.2584090">
        <ele>522.2</ele>
        <time>2020-07-29T10:41:08Z</time>
      </trkpt>
      <trkpt lat="42.9140840" lon="1.2585920">
        <ele>522.3</ele>
        <time>2020-07-29T10:41:10Z</time>
      </trkpt>
      <trkpt lat="42.9141150" lon="1.2588810">
        <ele>522.5</ele>
        <time>2020-07-29T10:41:13Z</time>
      </trkpt>
      <trkpt lat="42.9140810" lon="1.2590530">
        <ele>522.6</ele>
        <time>2020-07-29T10:41:15Z</time>
      </trkpt>
      <trkpt lat="42.9140380" lon="1.2591210">
        <ele>522.6</ele>
        <time>2020-07-29T10:41:16Z</time>
      </trkpt>
      <trkpt lat="42.9138960" lon="1.2593000">
        <ele>522.8</ele>
        <time>2020-07-29T10:41:19Z</time>
      </trkpt>
      <trkpt lat="42.9138000" lon="1.2594190">
        <ele>523.0</ele>
        <time>2020-07-29T10:41:21Z</time>
      </trkpt>
      <trkpt lat="42.9136160" lon="1.2597430">
        <ele>523.0</ele>
        <time>2020-07-29T10:41:26Z</time>
      </trkpt>
      <trkpt lat="42.9135770" lon="1.2598950">
        <ele>523.2</ele>
        <time>2020-07-29T10:41:28Z</time>
      </trkpt>
      <trkpt lat="42.9135680" lon="1.2599750">
        <ele>523.3</ele>
        <time>2020-07-29T10:41:29Z</time>
      </trkpt>
      <trkpt lat="42.9135650" lon="1.2600520">
        <ele>523.3</ele>
        <time>2020-07-29T10:41:30Z</time>
      </trkpt>
      <trkpt lat="42.9135790" lon="1.2603060">
        <ele>523.5</ele>
        <time>2020-07-29T10:41:33Z</time>
      </trkpt>
      <trkpt lat="42.9136330" lon="1.2604690">
        <ele>523.6</ele>
        <time>2020-07-29T10:41:35Z</time>
      </trkpt>
      <trkpt lat="42.9136840" lon="1.2606280">
        <ele>523.6</ele>
        <time>2020-07-29T10:41:37Z</time>
      </trkpt>
      <trkpt lat="42.9137240" lon="1.2607090">
        <ele>523.7</ele>
        <time>2020-07-29T10:41:38Z</time>
      </trkpt>
      <trkpt lat="42.9137730" lon="1.2608790">
        <ele>523.8</ele>
        <time>2020-07-29T10:41:40Z</time>
      </trkpt>
      <trkpt lat="42.9138610" lon="1.2611450">
        <ele>524.1</ele>
        <time>2020-07-29T10:41:43Z</time>
      </trkpt>
      <trkpt lat="42.9138900" lon="1.2613170">
        <ele>524.3</ele>
        <time>2020-07-29T10:41:45Z</time>
      </trkpt>
      <trkpt lat="42.9138560" lon="1.2617130">
        <ele>524.5</ele>
        <time>2020-07-29T10:41:50Z</time>
      </trkpt>
      <trkpt lat="42.9137760" lon="1.2619320">
        <ele>524.7</ele>
        <time>2020-07-29T10:41:53Z</time>
      </trkpt>
      <trkpt lat="42.9137510" lon="1.2620050">
        <ele>524.8</ele>
        <time>2020-07-29T10:41:54Z</time>
      </trkpt>
      <trkpt lat="42.9137240" lon="1.2620730">
        <ele>524.9</ele>
        <time>2020-07-29T10:41:55Z</time>
      </trkpt>
      <trkpt lat="42.9135820" lon="1.2624340">
        <ele>525.3</ele>
        <time>2020-07-29T10:42:00Z</time>
      </trkpt>
      <trkpt lat="42.9135540" lon="1.2625070">
        <ele>525.4</ele>
        <time>2020-07-29T10:42:01Z</time>
      </trkpt>
      <trkpt lat="42.9134510" lon="1.2628130">
        <ele>525.8</ele>
        <time>2020-07-29T10:42:05Z</time>
      </trkpt>
      <trkpt lat="42.9133390" lon="1.2631880">
        <ele>526.2</ele>
        <time>2020-07-29T10:42:10Z</time>
      </trkpt>
      <trkpt lat="42.9133180" lon="1.2632680">
        <ele>526.3</ele>
        <time>2020-07-29T10:42:11Z</time>
      </trkpt>
      <trkpt lat="42.9133020" lon="1.2634300">
        <ele>526.5</ele>
        <time>2020-07-29T10:42:13Z</time>
      </trkpt>
      <trkpt lat="42.9133190" lon="1.2636170">
        <ele>526.6</ele>
        <time>2020-07-29T10:42:15Z</time>
      </trkpt>
      <trkpt lat="42.9134250" lon="1.2638760">
        <ele>526.7</ele>
        <time>2020-07-29T10:42:19Z</time>
      </trkpt>
      <trkpt lat="42.9134740" lon="1.2639260">
        <ele>526.7</ele>
        <time>2020-07-29T10:42:20Z</time>
      </trkpt>
      <trkpt lat="42.9136880" lon="1.2640590">
        <ele>526.7</ele>
        <time>2020-07-29T10:42:23Z</time>
      </trkpt>
      <trkpt lat="42.9137500" lon="1.2640920">
        <ele>526.7</ele>
        <time>2020-07-29T10:42:24Z</time>
      </trkpt>
      <trkpt lat="42.9138290" lon="1.2641270">
        <ele>526.8</ele>
        <time>2020-07-29T10:42:25Z</time>
      </trkpt>
      <trkpt lat="42.9142110" lon="1.2642590">
        <ele>526.9</ele>
        <time>2020-07-29T10:42:30Z</time>
      </trkpt>
      <trkpt lat="42.9145930" lon="1.2642860">
        <ele>527.2</ele>
        <time>2020-07-29T10:42:35Z</time>
      </trkpt>
      <trkpt lat="42.9150070" lon="1.2642190">
        <ele>528.2</ele>
        <time>2020-07-29T10:42:41Z</time>
      </trkpt>
      <trkpt lat="42.9152070" lon="1.2641940">
        <ele>528.9</ele>
        <time>2020-07-29T10:42:44Z</time>
      </trkpt>
      <trkpt lat="42.9153220" lon="1.2642610">
        <ele>529.2</ele>
        <time>2020-07-29T10:42:46Z</time>
      </trkpt>
      <trkpt lat="42.9153700" lon="1.2644130">
        <ele>529.5</ele>
        <time>2020-07-29T10:42:48Z</time>
      </trkpt>
      <trkpt lat="42.9153760" lon="1.2645010">
        <ele>529.6</ele>
        <time>2020-07-29T10:42:49Z</time>
      </trkpt>
      <trkpt lat="42.9153440" lon="1.2646640">
        <ele>529.9</ele>
        <time>2020-07-29T10:42:51Z</time>
      </trkpt>
      <trkpt lat="42.9152470" lon="1.2648900">
        <ele>530.2</ele>
        <time>2020-07-29T10:42:54Z</time>
      </trkpt>
      <trkpt lat="42.9152090" lon="1.2649600">
        <ele>530.3</ele>
        <time>2020-07-29T10:42:55Z</time>
      </trkpt>
      <trkpt lat="42.9151190" lon="1.2650860">
        <ele>530.5</ele>
        <time>2020-07-29T10:42:57Z</time>
      </trkpt>
      <trkpt lat="42.9150760" lon="1.2651510">
        <ele>530.6</ele>
        <time>2020-07-29T10:42:58Z</time>
      </trkpt>
      <trkpt lat="42.9149840" lon="1.2653130">
        <ele>530.7</ele>
        <time>2020-07-29T10:43:00Z</time>
      </trkpt>
      <trkpt lat="42.9148020" lon="1.2656080">
        <ele>530.9</ele>
        <time>2020-07-29T10:43:04Z</time>
      </trkpt>
      <trkpt lat="42.9146740" lon="1.2657990">
        <ele>531.2</ele>
        <time>2020-07-29T10:43:07Z</time>
      </trkpt>
      <trkpt lat="42.9145360" lon="1.2659870">
        <ele>531.3</ele>
        <time>2020-07-29T10:43:10Z</time>
      </trkpt>
      <trkpt lat="42.9142100" lon="1.2662900">
        <ele>531.5</ele>
        <time>2020-07-29T10:43:16Z</time>
      </trkpt>
      <trkpt lat="42.9137580" lon="1.2666570">
        <ele>531.6</ele>
        <time>2020-07-29T10:43:24Z</time>
      </trkpt>
      <trkpt lat="42.9134380" lon="1.2669420">
        <ele>531.8</ele>
        <time>2020-07-29T10:43:30Z</time>
      </trkpt>
      <trkpt lat="42.9131050" lon="1.2672100">
        <ele>532.0</ele>
        <time>2020-07-29T10:43:36Z</time>
      </trkpt>
      <trkpt lat="42.9130510" lon="1.2672630">
        <ele>532.1</ele>
        <time>2020-07-29T10:43:37Z</time>
      </trkpt>
      <trkpt lat="42.9130010" lon="1.2673220">
        <ele>532.1</ele>
        <time>2020-07-29T10:43:38Z</time>
      </trkpt>
      <trkpt lat="42.9128580" lon="1.2675010">
        <ele>532.2</ele>
        <time>2020-07-29T10:43:41Z</time>
      </trkpt>
      <trkpt lat="42.9125360" lon="1.2679250">
        <ele>532.7</ele>
        <time>2020-07-29T10:43:48Z</time>
      </trkpt>
      <trkpt lat="42.9122590" lon="1.2682810">
        <ele>533.1</ele>
        <time>2020-07-29T10:43:54Z</time>
      </trkpt>
      <trkpt lat="42.9122160" lon="1.2683260">
        <ele>533.2</ele>
        <time>2020-07-29T10:43:55Z</time>
      </trkpt>
      <trkpt lat="42.9121280" lon="1.2684490">
        <ele>533.4</ele>
        <time>2020-07-29T10:43:57Z</time>
      </trkpt>
      <trkpt lat="42.9120800" lon="1.2685090">
        <ele>533.5</ele>
        <time>2020-07-29T10:43:58Z</time>
      </trkpt>
      <trkpt lat="42.9120600" lon="1.2685500">
        <ele>533.6</ele>
        <time>2020-07-29T10:43:59Z</time>
      </trkpt>
      <trkpt lat="42.9120270" lon="1.2685980">
        <ele>533.7</ele>
        <time>2020-07-29T10:44:00Z</time>
      </trkpt>
      <trkpt lat="42.9118760" lon="1.2687670">
        <ele>533.9</ele>
        <time>2020-07-29T10:44:03Z</time>
      </trkpt>
      <trkpt lat="42.9118210" lon="1.2688180">
        <ele>534.0</ele>
        <time>2020-07-29T10:44:04Z</time>
      </trkpt>
      <trkpt lat="42.9116990" lon="1.2688900">
        <ele>534.1</ele>
        <time>2020-07-29T10:44:06Z</time>
      </trkpt>
      <trkpt lat="42.9115270" lon="1.2689380">
        <ele>534.3</ele>
        <time>2020-07-29T10:44:09Z</time>
      </trkpt>
      <trkpt lat="42.9114760" lon="1.2689440">
        <ele>534.4</ele>
        <time>2020-07-29T10:44:10Z</time>
      </trkpt>
      <trkpt lat="42.9114120" lon="1.2689650">
        <ele>534.4</ele>
        <time>2020-07-29T10:44:11Z</time>
      </trkpt>
      <trkpt lat="42.9109500" lon="1.2691920">
        <ele>534.5</ele>
        <time>2020-07-29T10:44:18Z</time>
      </trkpt>
      <trkpt lat="42.9107760" lon="1.2694560">
        <ele>534.6</ele>
        <time>2020-07-29T10:44:22Z</time>
      </trkpt>
      <trkpt lat="42.9107440" lon="1.2695340">
        <ele>534.6</ele>
        <time>2020-07-29T10:44:23Z</time>
      </trkpt>
      <trkpt lat="42.9107200" lon="1.2696200">
        <ele>534.7</ele>
        <time>2020-07-29T10:44:24Z</time>
      </trkpt>
      <trkpt lat="42.9106850" lon="1.2698740">
        <ele>534.8</ele>
        <time>2020-07-29T10:44:27Z</time>
      </trkpt>
      <trkpt lat="42.9106700" lon="1.2701650">
        <ele>535.0</ele>
        <time>2020-07-29T10:44:30Z</time>
      </trkpt>
      <trkpt lat="42.9106640" lon="1.2702750">
        <ele>535.0</ele>
        <time>2020-07-29T10:44:31Z</time>
      </trkpt>
      <trkpt lat="42.9106930" lon="1.2707410">
        <ele>535.5</ele>
        <time>2020-07-29T10:44:36Z</time>
      </trkpt>
      <trkpt lat="42.9106880" lon="1.2709130">
        <ele>535.8</ele>
        <time>2020-07-29T10:44:38Z</time>
      </trkpt>
      <trkpt lat="42.9106720" lon="1.2710650">
        <ele>536.1</ele>
        <time>2020-07-29T10:44:40Z</time>
      </trkpt>
      <trkpt lat="42.9106530" lon="1.2711320">
        <ele>536.2</ele>
        <time>2020-07-29T10:44:41Z</time>
      </trkpt>
      <trkpt lat="42.9105770" lon="1.2713760">
        <ele>536.7</ele>
        <time>2020-07-29T10:44:45Z</time>
      </trkpt>
      <trkpt lat="42.9104620" lon="1.2715330">
        <ele>537.0</ele>
        <time>2020-07-29T10:44:49Z</time>
      </trkpt>
      <trkpt lat="42.9103610" lon="1.2716520">
        <ele>537.2</ele>
        <time>2020-07-29T10:44:51Z</time>
      </trkpt>
      <trkpt lat="42.9102010" lon="1.2717080">
        <ele>537.3</ele>
        <time>2020-07-29T10:44:54Z</time>
      </trkpt>
      <trkpt lat="42.9101430" lon="1.2717170">
        <ele>537.4</ele>
        <time>2020-07-29T10:44:55Z</time>
      </trkpt>
      <trkpt lat="42.9100850" lon="1.2717100">
        <ele>537.4</ele>
        <time>2020-07-29T10:44:56Z</time>
      </trkpt>
      <trkpt lat="42.9099670" lon="1.2716910">
        <ele>537.4</ele>
        <time>2020-07-29T10:44:58Z</time>
      </trkpt>
      <trkpt lat="42.9098530" lon="1.2716520">
        <ele>537.5</ele>
        <time>2020-07-29T10:45:00Z</time>
      </trkpt>
      <trkpt lat="42.9097890" lon="1.2716570">
        <ele>537.5</ele>
        <time>2020-07-29T10:45:01Z</time>
      </trkpt>
      <trkpt lat="42.9096600" lon="1.2716600">
        <ele>537.5</ele>
        <time>2020-07-29T10:45:03Z</time>
      </trkpt>
      <trkpt lat="42.9095850" lon="1.2716810">
        <ele>537.5</ele>
        <time>2020-07-29T10:45:04Z</time>
      </trkpt>
      <trkpt lat="42.9095240" lon="1.2716670">
        <ele>537.5</ele>
        <time>2020-07-29T10:45:05Z</time>
      </trkpt>
      <trkpt lat="42.9093630" lon="1.2715670">
        <ele>537.4</ele>
        <time>2020-07-29T10:45:08Z</time>
      </trkpt>
      <trkpt lat="42.9092520" lon="1.2715300">
        <ele>537.5</ele>
        <time>2020-07-29T10:45:10Z</time>
      </trkpt>
      <trkpt lat="42.9092050" lon="1.2714930">
        <ele>537.6</ele>
        <time>2020-07-29T10:45:11Z</time>
      </trkpt>
      <trkpt lat="42.9091520" lon="1.2714760">
        <ele>537.7</ele>
        <time>2020-07-29T10:45:12Z</time>
      </trkpt>
      <trkpt lat="42.9090250" lon="1.2715290">
        <ele>538.1</ele>
        <time>2020-07-29T10:45:14Z</time>
      </trkpt>
      <trkpt lat="42.9089680" lon="1.2715440">
        <ele>538.3</ele>
        <time>2020-07-29T10:45:15Z</time>
      </trkpt>
      <trkpt lat="42.9089110" lon="1.2715640">
        <ele>538.5</ele>
        <time>2020-07-29T10:45:16Z</time>
      </trkpt>
      <trkpt lat="42.9087930" lon="1.2716300">
        <ele>538.9</ele>
        <time>2020-07-29T10:45:18Z</time>
      </trkpt>
      <trkpt lat="42.9087430" lon="1.2716660">
        <ele>539.1</ele>
        <time>2020-07-29T10:45:19Z</time>
      </trkpt>
      <trkpt lat="42.9085290" lon="1.2718050">
        <ele>539.7</ele>
        <time>2020-07-29T10:45:22Z</time>
      </trkpt>
      <trkpt lat="42.9084870" lon="1.2718550">
        <ele>539.9</ele>
        <time>2020-07-29T10:45:23Z</time>
      </trkpt>
      <trkpt lat="42.9084520" lon="1.2719110">
        <ele>540.0</ele>
        <time>2020-07-29T10:45:24Z</time>
      </trkpt>
      <trkpt lat="42.9084180" lon="1.2719710">
        <ele>540.2</ele>
        <time>2020-07-29T10:45:25Z</time>
      </trkpt>
      <trkpt lat="42.9083430" lon="1.2721750">
        <ele>540.9</ele>
        <time>2020-07-29T10:45:28Z</time>
      </trkpt>
      <trkpt lat="42.9082950" lon="1.2723920">
        <ele>541.6</ele>
        <time>2020-07-29T10:45:31Z</time>
      </trkpt>
      <trkpt lat="42.9082890" lon="1.2724880">
        <ele>541.7</ele>
        <time>2020-07-29T10:45:32Z</time>
      </trkpt>
      <trkpt lat="42.9082840" lon="1.2725860">
        <ele>541.7</ele>
        <time>2020-07-29T10:45:33Z</time>
      </trkpt>
      <trkpt lat="42.9082850" lon="1.2726770">
        <ele>541.8</ele>
        <time>2020-07-29T10:45:34Z</time>
      </trkpt>
      <trkpt lat="42.9083070" lon="1.2729290">
        <ele>542.1</ele>
        <time>2020-07-29T10:45:37Z</time>
      </trkpt>
      <trkpt lat="42.9083230" lon="1.2730120">
        <ele>542.2</ele>
        <time>2020-07-29T10:45:38Z</time>
      </trkpt>
      <trkpt lat="42.9083590" lon="1.2731710">
        <ele>542.7</ele>
        <time>2020-07-29T10:45:40Z</time>
      </trkpt>
      <trkpt lat="42.9083860" lon="1.2732510">
        <ele>542.9</ele>
        <time>2020-07-29T10:45:41Z</time>
      </trkpt>
      <trkpt lat="42.9084170" lon="1.2733220">
        <ele>543.2</ele>
        <time>2020-07-29T10:45:42Z</time>
      </trkpt>
      <trkpt lat="42.9084670" lon="1.2733830">
        <ele>543.5</ele>
        <time>2020-07-29T10:45:43Z</time>
      </trkpt>
      <trkpt lat="42.9085140" lon="1.2735140">
        <ele>544.0</ele>
        <time>2020-07-29T10:45:45Z</time>
      </trkpt>
      <trkpt lat="42.9084840" lon="1.2737010">
        <ele>544.5</ele>
        <time>2020-07-29T10:45:48Z</time>
      </trkpt>
      <trkpt lat="42.9084370" lon="1.2738050">
        <ele>544.7</ele>
        <time>2020-07-29T10:45:50Z</time>
      </trkpt>
      <trkpt lat="42.9083870" lon="1.2738410">
        <ele>544.9</ele>
        <time>2020-07-29T10:45:51Z</time>
      </trkpt>
      <trkpt lat="42.9082450" lon="1.2739140">
        <ele>545.2</ele>
        <time>2020-07-29T10:45:54Z</time>
      </trkpt>
      <trkpt lat="42.9082060" lon="1.2739220">
        <ele>545.3</ele>
        <time>2020-07-29T10:45:55Z</time>
      </trkpt>
      <trkpt lat="42.9081540" lon="1.2739540">
        <ele>545.4</ele>
        <time>2020-07-29T10:45:56Z</time>
      </trkpt>
      <trkpt lat="42.9081010" lon="1.2740070">
        <ele>545.6</ele>
        <time>2020-07-29T10:45:57Z</time>
      </trkpt>
      <trkpt lat="42.9079650" lon="1.2741260">
        <ele>546.1</ele>
        <time>2020-07-29T10:45:59Z</time>
      </trkpt>
      <trkpt lat="42.9078950" lon="1.2741890">
        <ele>546.2</ele>
        <time>2020-07-29T10:46:00Z</time>
      </trkpt>
      <trkpt lat="42.9078490" lon="1.2742450">
        <ele>546.3</ele>
        <time>2020-07-29T10:46:01Z</time>
      </trkpt>
      <trkpt lat="42.9077910" lon="1.2743730">
        <ele>546.4</ele>
        <time>2020-07-29T10:46:03Z</time>
      </trkpt>
      <trkpt lat="42.9077300" lon="1.2745290">
        <ele>546.5</ele>
        <time>2020-07-29T10:46:05Z</time>
      </trkpt>
      <trkpt lat="42.9077050" lon="1.2746170">
        <ele>546.5</ele>
        <time>2020-07-29T10:46:06Z</time>
      </trkpt>
      <trkpt lat="42.9076870" lon="1.2747820">
        <ele>546.6</ele>
        <time>2020-07-29T10:46:08Z</time>
      </trkpt>
      <trkpt lat="42.9077160" lon="1.2749490">
        <ele>546.8</ele>
        <time>2020-07-29T10:46:10Z</time>
      </trkpt>
      <trkpt lat="42.9078400" lon="1.2750880">
        <ele>547.0</ele>
        <time>2020-07-29T10:46:12Z</time>
      </trkpt>
      <trkpt lat="42.9078210" lon="1.2752010">
        <ele>547.1</ele>
        <time>2020-07-29T10:46:14Z</time>
      </trkpt>
      <trkpt lat="42.9078490" lon="1.2753810">
        <ele>547.3</ele>
        <time>2020-07-29T10:46:17Z</time>
      </trkpt>
      <trkpt lat="42.9078980" lon="1.2755300">
        <ele>547.5</ele>
        <time>2020-07-29T10:46:20Z</time>
      </trkpt>
      <trkpt lat="42.9079440" lon="1.2756060">
        <ele>547.6</ele>
        <time>2020-07-29T10:46:22Z</time>
      </trkpt>
      <trkpt lat="42.9080520" lon="1.2756690">
        <ele>547.6</ele>
        <time>2020-07-29T10:46:24Z</time>
      </trkpt>
      <trkpt lat="42.9082130" lon="1.2757210">
        <ele>547.6</ele>
        <time>2020-07-29T10:46:26Z</time>
      </trkpt>
      <trkpt lat="42.9086210" lon="1.2758430">
        <ele>547.6</ele>
        <time>2020-07-29T10:46:31Z</time>
      </trkpt>
      <trkpt lat="42.9087940" lon="1.2759150">
        <ele>547.7</ele>
        <time>2020-07-29T10:46:33Z</time>
      </trkpt>
      <trkpt lat="42.9088610" lon="1.2759730">
        <ele>547.8</ele>
        <time>2020-07-29T10:46:34Z</time>
      </trkpt>
      <trkpt lat="42.9089830" lon="1.2762030">
        <ele>548.0</ele>
        <time>2020-07-29T10:46:37Z</time>
      </trkpt>
      <trkpt lat="42.9090050" lon="1.2762900">
        <ele>548.1</ele>
        <time>2020-07-29T10:46:38Z</time>
      </trkpt>
      <trkpt lat="42.9090130" lon="1.2765620">
        <ele>548.4</ele>
        <time>2020-07-29T10:46:41Z</time>
      </trkpt>
      <trkpt lat="42.9089920" lon="1.2767330">
        <ele>548.6</ele>
        <time>2020-07-29T10:46:43Z</time>
      </trkpt>
      <trkpt lat="42.9089740" lon="1.2768140">
        <ele>548.7</ele>
        <time>2020-07-29T10:46:44Z</time>
      </trkpt>
      <trkpt lat="42.9089520" lon="1.2768940">
        <ele>548.8</ele>
        <time>2020-07-29T10:46:45Z</time>
      </trkpt>
      <trkpt lat="42.9089360" lon="1.2769720">
        <ele>548.9</ele>
        <time>2020-07-29T10:46:46Z</time>
      </trkpt>
      <trkpt lat="42.9088720" lon="1.2771290">
        <ele>549.2</ele>
        <time>2020-07-29T10:46:48Z</time>
      </trkpt>
      <trkpt lat="42.9088240" lon="1.2772960">
        <ele>549.3</ele>
        <time>2020-07-29T10:46:50Z</time>
      </trkpt>
      <trkpt lat="42.9087040" lon="1.2776870">
        <ele>549.7</ele>
        <time>2020-07-29T10:46:55Z</time>
      </trkpt>
      <trkpt lat="42.9086340" lon="1.2778480">
        <ele>550.1</ele>
        <time>2020-07-29T10:46:57Z</time>
      </trkpt>
      <trkpt lat="42.9085940" lon="1.2779230">
        <ele>550.2</ele>
        <time>2020-07-29T10:46:58Z</time>
      </trkpt>
      <trkpt lat="42.9085390" lon="1.2780010">
        <ele>550.4</ele>
        <time>2020-07-29T10:46:59Z</time>
      </trkpt>
      <trkpt lat="42.9084740" lon="1.2781300">
        <ele>550.7</ele>
        <time>2020-07-29T10:47:01Z</time>
      </trkpt>
      <trkpt lat="42.9084450" lon="1.2781780">
        <ele>550.9</ele>
        <time>2020-07-29T10:47:02Z</time>
      </trkpt>
      <trkpt lat="42.9083510" lon="1.2783450">
        <ele>551.2</ele>
        <time>2020-07-29T10:47:05Z</time>
      </trkpt>
      <trkpt lat="42.9083210" lon="1.2784000">
        <ele>551.3</ele>
        <time>2020-07-29T10:47:06Z</time>
      </trkpt>
      <trkpt lat="42.9082430" lon="1.2785390">
        <ele>551.6</ele>
        <time>2020-07-29T10:47:08Z</time>
      </trkpt>
      <trkpt lat="42.9081890" lon="1.2785990">
        <ele>551.7</ele>
        <time>2020-07-29T10:47:09Z</time>
      </trkpt>
      <trkpt lat="42.9081180" lon="1.2786720">
        <ele>551.9</ele>
        <time>2020-07-29T10:47:10Z</time>
      </trkpt>
      <trkpt lat="42.9080640" lon="1.2788100">
        <ele>552.1</ele>
        <time>2020-07-29T10:47:12Z</time>
      </trkpt>
      <trkpt lat="42.9079890" lon="1.2789450">
        <ele>552.3</ele>
        <time>2020-07-29T10:47:14Z</time>
      </trkpt>
      <trkpt lat="42.9079650" lon="1.2790030">
        <ele>552.3</ele>
        <time>2020-07-29T10:47:15Z</time>
      </trkpt>
      <trkpt lat="42.9078810" lon="1.2793040">
        <ele>552.7</ele>
        <time>2020-07-29T10:47:20Z</time>
      </trkpt>
      <trkpt lat="42.9078330" lon="1.2794210">
        <ele>552.9</ele>
        <time>2020-07-29T10:47:22Z</time>
      </trkpt>
      <trkpt lat="42.9076780" lon="1.2797600">
        <ele>553.5</ele>
        <time>2020-07-29T10:47:28Z</time>
      </trkpt>
      <trkpt lat="42.9076340" lon="1.2798830">
        <ele>553.7</ele>
        <time>2020-07-29T10:47:30Z</time>
      </trkpt>
      <trkpt lat="42.9075710" lon="1.2800870">
        <ele>553.9</ele>
        <time>2020-07-29T10:47:33Z</time>
      </trkpt>
      <trkpt lat="42.9075610" lon="1.2801560">
        <ele>553.9</ele>
        <time>2020-07-29T10:47:34Z</time>
      </trkpt>
      <trkpt lat="42.9075500" lon="1.2802980">
        <ele>554.1</ele>
        <time>2020-07-29T10:47:36Z</time>
      </trkpt>
      <trkpt lat="42.9075770" lon="1.2804280">
        <ele>554.2</ele>
        <time>2020-07-29T10:47:38Z</time>
      </trkpt>
      <trkpt lat="42.9076070" lon="1.2804970">
        <ele>554.2</ele>
        <time>2020-07-29T10:47:39Z</time>
      </trkpt>
      <trkpt lat="42.9076790" lon="1.2806110">
        <ele>554.3</ele>
        <time>2020-07-29T10:47:41Z</time>
      </trkpt>
      <trkpt lat="42.9077780" lon="1.2807060">
        <ele>554.3</ele>
        <time>2020-07-29T10:47:43Z</time>
      </trkpt>
      <trkpt lat="42.9078230" lon="1.2807430">
        <ele>554.3</ele>
        <time>2020-07-29T10:47:44Z</time>
      </trkpt>
      <trkpt lat="42.9078840" lon="1.2807790">
        <ele>554.3</ele>
        <time>2020-07-29T10:47:45Z</time>
      </trkpt>
      <trkpt lat="42.9082410" lon="1.2809150">
        <ele>554.5</ele>
        <time>2020-07-29T10:47:50Z</time>
      </trkpt>
      <trkpt lat="42.9083140" lon="1.2809330">
        <ele>554.6</ele>
        <time>2020-07-29T10:47:51Z</time>
      </trkpt>
      <trkpt lat="42.9085830" lon="1.2809730">
        <ele>555.0</ele>
        <time>2020-07-29T10:47:55Z</time>
      </trkpt>
      <trkpt lat="42.9090830" lon="1.2810360">
        <ele>556.2</ele>
        <time>2020-07-29T10:48:03Z</time>
      </trkpt>
      <trkpt lat="42.9092070" lon="1.2810500">
        <ele>556.8</ele>
        <time>2020-07-29T10:48:05Z</time>
      </trkpt>
      <trkpt lat="42.9094400" lon="1.2810650">
        <ele>557.3</ele>
        <time>2020-07-29T10:48:09Z</time>
      </trkpt>
      <trkpt lat="42.9098270" lon="1.2811070">
        <ele>558.3</ele>
        <time>2020-07-29T10:48:16Z</time>
      </trkpt>
      <trkpt lat="42.9099850" lon="1.2811790">
        <ele>558.6</ele>
        <time>2020-07-29T10:48:19Z</time>
      </trkpt>
      <trkpt lat="42.9100880" lon="1.2812470">
        <ele>558.8</ele>
        <time>2020-07-29T10:48:21Z</time>
      </trkpt>
      <trkpt lat="42.9102270" lon="1.2813800">
        <ele>558.9</ele>
        <time>2020-07-29T10:48:24Z</time>
      </trkpt>
      <trkpt lat="42.9103130" lon="1.2814810">
        <ele>558.9</ele>
        <time>2020-07-29T10:48:26Z</time>
      </trkpt>
      <trkpt lat="42.9103400" lon="1.2815450">
        <ele>558.9</ele>
        <time>2020-07-29T10:48:27Z</time>
      </trkpt>
      <trkpt lat="42.9104080" lon="1.2816980">
        <ele>558.9</ele>
        <time>2020-07-29T10:48:29Z</time>
      </trkpt>
      <trkpt lat="42.9105010" lon="1.2819570">
        <ele>558.7</ele>
        <time>2020-07-29T10:48:32Z</time>
      </trkpt>
      <trkpt lat="42.9105380" lon="1.2821450">
        <ele>558.6</ele>
        <time>2020-07-29T10:48:34Z</time>
      </trkpt>
      <trkpt lat="42.9105140" lon="1.2825100">
        <ele>558.6</ele>
        <time>2020-07-29T10:48:38Z</time>
      </trkpt>
      <trkpt lat="42.9104910" lon="1.2825950">
        <ele>558.6</ele>
        <time>2020-07-29T10:48:39Z</time>
      </trkpt>
      <trkpt lat="42.9104250" lon="1.2829590">
        <ele>558.6</ele>
        <time>2020-07-29T10:48:43Z</time>
      </trkpt>
      <trkpt lat="42.9103970" lon="1.2832450">
        <ele>558.6</ele>
        <time>2020-07-29T10:48:46Z</time>
      </trkpt>
      <trkpt lat="42.9103950" lon="1.2833420">
        <ele>558.6</ele>
        <time>2020-07-29T10:48:47Z</time>
      </trkpt>
      <trkpt lat="42.9103470" lon="1.2838270">
        <ele>558.6</ele>
        <time>2020-07-29T10:48:52Z</time>
      </trkpt>
      <trkpt lat="42.9103180" lon="1.2843180">
        <ele>558.6</ele>
        <time>2020-07-29T10:48:57Z</time>
      </trkpt>
      <trkpt lat="42.9103050" lon="1.2844140">
        <ele>558.6</ele>
        <time>2020-07-29T10:48:58Z</time>
      </trkpt>
      <trkpt lat="42.9102470" lon="1.2847870">
        <ele>558.7</ele>
        <time>2020-07-29T10:49:02Z</time>
      </trkpt>
      <trkpt lat="42.9101260" lon="1.2853510">
        <ele>558.9</ele>
        <time>2020-07-29T10:49:08Z</time>
      </trkpt>
      <trkpt lat="42.9099950" lon="1.2858960">
        <ele>559.3</ele>
        <time>2020-07-29T10:49:14Z</time>
      </trkpt>
      <trkpt lat="42.9098300" lon="1.2864010">
        <ele>560.0</ele>
        <time>2020-07-29T10:49:20Z</time>
      </trkpt>
      <trkpt lat="42.9097710" lon="1.2865640">
        <ele>560.2</ele>
        <time>2020-07-29T10:49:22Z</time>
      </trkpt>
      <trkpt lat="42.9096630" lon="1.2869020">
        <ele>560.6</ele>
        <time>2020-07-29T10:49:26Z</time>
      </trkpt>
      <trkpt lat="42.9094970" lon="1.2873850">
        <ele>561.1</ele>
        <time>2020-07-29T10:49:32Z</time>
      </trkpt>
      <trkpt lat="42.9093050" lon="1.2879540">
        <ele>561.3</ele>
        <time>2020-07-29T10:49:39Z</time>
      </trkpt>
      <trkpt lat="42.9092270" lon="1.2882040">
        <ele>561.3</ele>
        <time>2020-07-29T10:49:42Z</time>
      </trkpt>
      <trkpt lat="42.9091820" lon="1.2883710">
        <ele>561.4</ele>
        <time>2020-07-29T10:49:44Z</time>
      </trkpt>
      <trkpt lat="42.9090650" lon="1.2887870">
        <ele>561.5</ele>
        <time>2020-07-29T10:49:49Z</time>
      </trkpt>
      <trkpt lat="42.9088970" lon="1.2892660">
        <ele>561.8</ele>
        <time>2020-07-29T10:49:55Z</time>
      </trkpt>
      <trkpt lat="42.9087070" lon="1.2898790">
        <ele>562.7</ele>
        <time>2020-07-29T10:50:03Z</time>
      </trkpt>
      <trkpt lat="42.9086570" lon="1.2900940">
        <ele>562.9</ele>
        <time>2020-07-29T10:50:06Z</time>
      </trkpt>
      <trkpt lat="42.9086160" lon="1.2903160">
        <ele>563.4</ele>
        <time>2020-07-29T10:50:09Z</time>
      </trkpt>
      <trkpt lat="42.9085240" lon="1.2907610">
        <ele>564.3</ele>
        <time>2020-07-29T10:50:15Z</time>
      </trkpt>
      <trkpt lat="42.9084830" lon="1.2909070">
        <ele>564.6</ele>
        <time>2020-07-29T10:50:17Z</time>
      </trkpt>
      <trkpt lat="42.9083080" lon="1.2913040">
        <ele>565.0</ele>
        <time>2020-07-29T10:50:23Z</time>
      </trkpt>
      <trkpt lat="42.9082740" lon="1.2913650">
        <ele>565.0</ele>
        <time>2020-07-29T10:50:24Z</time>
      </trkpt>
      <trkpt lat="42.9080130" lon="1.2917710">
        <ele>565.2</ele>
        <time>2020-07-29T10:50:31Z</time>
      </trkpt>
      <trkpt lat="42.9078720" lon="1.2919920">
        <ele>565.7</ele>
        <time>2020-07-29T10:50:35Z</time>
      </trkpt>
      <trkpt lat="42.9077960" lon="1.2920920">
        <ele>565.8</ele>
        <time>2020-07-29T10:50:37Z</time>
      </trkpt>
      <trkpt lat="42.9077120" lon="1.2921800">
        <ele>566.0</ele>
        <time>2020-07-29T10:50:39Z</time>
      </trkpt>
      <trkpt lat="42.9076140" lon="1.2922400">
        <ele>566.2</ele>
        <time>2020-07-29T10:50:41Z</time>
      </trkpt>
      <trkpt lat="42.9074420" lon="1.2922940">
        <ele>566.4</ele>
        <time>2020-07-29T10:50:44Z</time>
      </trkpt>
      <trkpt lat="42.9071410" lon="1.2923740">
        <ele>566.4</ele>
        <time>2020-07-29T10:50:49Z</time>
      </trkpt>
      <trkpt lat="42.9067800" lon="1.2924080">
        <ele>566.5</ele>
        <time>2020-07-29T10:50:55Z</time>
      </trkpt>
      <trkpt lat="42.9065340" lon="1.2923440">
        <ele>566.6</ele>
        <time>2020-07-29T10:50:59Z</time>
      </trkpt>
      <trkpt lat="42.9064160" lon="1.2923000">
        <ele>566.6</ele>
        <time>2020-07-29T10:51:01Z</time>
      </trkpt>
      <trkpt lat="42.9058910" lon="1.2921090">
        <ele>567.0</ele>
        <time>2020-07-29T10:51:10Z</time>
      </trkpt>
      <trkpt lat="42.9058290" lon="1.2920990">
        <ele>567.0</ele>
        <time>2020-07-29T10:51:11Z</time>
      </trkpt>
      <trkpt lat="42.9055020" lon="1.2920760">
        <ele>567.2</ele>
        <time>2020-07-29T10:51:16Z</time>
      </trkpt>
      <trkpt lat="42.9053690" lon="1.2920770">
        <ele>567.3</ele>
        <time>2020-07-29T10:51:18Z</time>
      </trkpt>
      <trkpt lat="42.9049010" lon="1.2920750">
        <ele>567.7</ele>
        <time>2020-07-29T10:51:25Z</time>
      </trkpt>
      <trkpt lat="42.9048360" lon="1.2920540">
        <ele>567.8</ele>
        <time>2020-07-29T10:51:26Z</time>
      </trkpt>
      <trkpt lat="42.9044100" lon="1.2918370">
        <ele>568.2</ele>
        <time>2020-07-29T10:51:33Z</time>
      </trkpt>
      <trkpt lat="42.9042920" lon="1.2917720">
        <ele>568.4</ele>
        <time>2020-07-29T10:51:35Z</time>
      </trkpt>
      <trkpt lat="42.9042410" lon="1.2917350">
        <ele>568.4</ele>
        <time>2020-07-29T10:51:36Z</time>
      </trkpt>
      <trkpt lat="42.9041370" lon="1.2916570">
        <ele>568.6</ele>
        <time>2020-07-29T10:51:38Z</time>
      </trkpt>
      <trkpt lat="42.9040790" lon="1.2916250">
        <ele>568.7</ele>
        <time>2020-07-29T10:51:39Z</time>
      </trkpt>
      <trkpt lat="42.9039010" lon="1.2915670">
        <ele>568.9</ele>
        <time>2020-07-29T10:51:42Z</time>
      </trkpt>
      <trkpt lat="42.9037180" lon="1.2915490">
        <ele>569.2</ele>
        <time>2020-07-29T10:51:45Z</time>
      </trkpt>
      <trkpt lat="42.9036490" lon="1.2915570">
        <ele>569.2</ele>
        <time>2020-07-29T10:51:46Z</time>
      </trkpt>
      <trkpt lat="42.9035830" lon="1.2915700">
        <ele>569.2</ele>
        <time>2020-07-29T10:51:47Z</time>
      </trkpt>
      <trkpt lat="42.9033300" lon="1.2917530">
        <ele>569.4</ele>
        <time>2020-07-29T10:51:51Z</time>
      </trkpt>
      <trkpt lat="42.9032420" lon="1.2919140">
        <ele>569.4</ele>
        <time>2020-07-29T10:51:53Z</time>
      </trkpt>
      <trkpt lat="42.9032060" lon="1.2919980">
        <ele>569.4</ele>
        <time>2020-07-29T10:51:54Z</time>
      </trkpt>
      <trkpt lat="42.9031800" lon="1.2920880">
        <ele>569.4</ele>
        <time>2020-07-29T10:51:55Z</time>
      </trkpt>
      <trkpt lat="42.9031670" lon="1.2923950">
        <ele>569.3</ele>
        <time>2020-07-29T10:51:58Z</time>
      </trkpt>
      <trkpt lat="42.9032300" lon="1.2928240">
        <ele>569.4</ele>
        <time>2020-07-29T10:52:02Z</time>
      </trkpt>
      <trkpt lat="42.9032530" lon="1.2929300">
        <ele>569.5</ele>
        <time>2020-07-29T10:52:03Z</time>
      </trkpt>
      <trkpt lat="42.9034210" lon="1.2935040">
        <ele>570.8</ele>
        <time>2020-07-29T10:52:09Z</time>
      </trkpt>
      <trkpt lat="42.9035640" lon="1.2939000">
        <ele>572.1</ele>
        <time>2020-07-29T10:52:14Z</time>
      </trkpt>
      <trkpt lat="42.9035820" lon="1.2939820">
        <ele>572.4</ele>
        <time>2020-07-29T10:52:15Z</time>
      </trkpt>
      <trkpt lat="42.9035930" lon="1.2941440">
        <ele>572.8</ele>
        <time>2020-07-29T10:52:17Z</time>
      </trkpt>
      <trkpt lat="42.9035690" lon="1.2943860">
        <ele>573.2</ele>
        <time>2020-07-29T10:52:20Z</time>
      </trkpt>
      <trkpt lat="42.9035550" lon="1.2944650">
        <ele>573.3</ele>
        <time>2020-07-29T10:52:21Z</time>
      </trkpt>
      <trkpt lat="42.9035180" lon="1.2946260">
        <ele>573.5</ele>
        <time>2020-07-29T10:52:23Z</time>
      </trkpt>
      <trkpt lat="42.9034400" lon="1.2948590">
        <ele>573.8</ele>
        <time>2020-07-29T10:52:26Z</time>
      </trkpt>
      <trkpt lat="42.9033130" lon="1.2951350">
        <ele>574.3</ele>
        <time>2020-07-29T10:52:30Z</time>
      </trkpt>
      <trkpt lat="42.9032640" lon="1.2951870">
        <ele>574.4</ele>
        <time>2020-07-29T10:52:31Z</time>
      </trkpt>
      <trkpt lat="42.9031820" lon="1.2954030">
        <ele>574.8</ele>
        <time>2020-07-29T10:52:34Z</time>
      </trkpt>
      <trkpt lat="42.9031010" lon="1.2957090">
        <ele>575.1</ele>
        <time>2020-07-29T10:52:38Z</time>
      </trkpt>
      <trkpt lat="42.9030750" lon="1.2957800">
        <ele>575.2</ele>
        <time>2020-07-29T10:52:39Z</time>
      </trkpt>
      <trkpt lat="42.9030150" lon="1.2959320">
        <ele>575.3</ele>
        <time>2020-07-29T10:52:41Z</time>
      </trkpt>
      <trkpt lat="42.9028190" lon="1.2961770">
        <ele>575.2</ele>
        <time>2020-07-29T10:52:45Z</time>
      </trkpt>
      <trkpt lat="42.9024590" lon="1.2964400">
        <ele>575.0</ele>
        <time>2020-07-29T10:52:51Z</time>
      </trkpt>
      <trkpt lat="42.9022420" lon="1.2966530">
        <ele>574.9</ele>
        <time>2020-07-29T10:52:55Z</time>
      </trkpt>
      <trkpt lat="42.9021480" lon="1.2967820">
        <ele>574.9</ele>
        <time>2020-07-29T10:52:57Z</time>
      </trkpt>
      <trkpt lat="42.9020670" lon="1.2969220">
        <ele>574.9</ele>
        <time>2020-07-29T10:52:59Z</time>
      </trkpt>
      <trkpt lat="42.9019630" lon="1.2971620">
        <ele>574.8</ele>
        <time>2020-07-29T10:53:02Z</time>
      </trkpt>
      <trkpt lat="42.9017550" lon="1.2977910">
        <ele>574.9</ele>
        <time>2020-07-29T10:53:09Z</time>
      </trkpt>
      <trkpt lat="42.9016050" lon="1.2985180">
        <ele>575.9</ele>
        <time>2020-07-29T10:53:17Z</time>
      </trkpt>
      <trkpt lat="42.9015350" lon="1.2988540">
        <ele>576.5</ele>
        <time>2020-07-29T10:53:21Z</time>
      </trkpt>
      <trkpt lat="42.9015220" lon="1.2989390">
        <ele>576.6</ele>
        <time>2020-07-29T10:53:22Z</time>
      </trkpt>
      <trkpt lat="42.9014940" lon="1.2991040">
        <ele>576.9</ele>
        <time>2020-07-29T10:53:24Z</time>
      </trkpt>
      <trkpt lat="42.9014010" lon="1.2996070">
        <ele>577.4</ele>
        <time>2020-07-29T10:53:30Z</time>
      </trkpt>
      <trkpt lat="42.9013690" lon="1.2997770">
        <ele>577.5</ele>
        <time>2020-07-29T10:53:32Z</time>
      </trkpt>
      <trkpt lat="42.9013340" lon="1.3000330">
        <ele>577.9</ele>
        <time>2020-07-29T10:53:35Z</time>
      </trkpt>
      <trkpt lat="42.9013120" lon="1.3003740">
        <ele>578.5</ele>
        <time>2020-07-29T10:53:39Z</time>
      </trkpt>
      <trkpt lat="42.9012810" lon="1.3007910">
        <ele>579.5</ele>
        <time>2020-07-29T10:53:44Z</time>
      </trkpt>
      <trkpt lat="42.9012030" lon="1.3009850">
        <ele>580.0</ele>
        <time>2020-07-29T10:53:47Z</time>
      </trkpt>
      <trkpt lat="42.9011490" lon="1.3011070">
        <ele>580.4</ele>
        <time>2020-07-29T10:53:49Z</time>
      </trkpt>
      <trkpt lat="42.9010800" lon="1.3013060">
        <ele>580.8</ele>
        <time>2020-07-29T10:53:52Z</time>
      </trkpt>
      <trkpt lat="42.9010580" lon="1.3014710">
        <ele>580.8</ele>
        <time>2020-07-29T10:53:54Z</time>
      </trkpt>
      <trkpt lat="42.9010490" lon="1.3015570">
        <ele>580.8</ele>
        <time>2020-07-29T10:53:55Z</time>
      </trkpt>
      <trkpt lat="42.9010020" lon="1.3019100">
        <ele>580.8</ele>
        <time>2020-07-29T10:53:59Z</time>
      </trkpt>
      <trkpt lat="42.9009740" lon="1.3019930">
        <ele>580.9</ele>
        <time>2020-07-29T10:54:00Z</time>
      </trkpt>
      <trkpt lat="42.9008610" lon="1.3022170">
        <ele>581.0</ele>
        <time>2020-07-29T10:54:03Z</time>
      </trkpt>
      <trkpt lat="42.9007670" lon="1.3023430">
        <ele>581.0</ele>
        <time>2020-07-29T10:54:05Z</time>
      </trkpt>
      <trkpt lat="42.9004330" lon="1.3028400">
        <ele>581.3</ele>
        <time>2020-07-29T10:54:13Z</time>
      </trkpt>
      <trkpt lat="42.9004010" lon="1.3029060">
        <ele>581.3</ele>
        <time>2020-07-29T10:54:14Z</time>
      </trkpt>
      <trkpt lat="42.9002710" lon="1.3032990">
        <ele>581.4</ele>
        <time>2020-07-29T10:54:19Z</time>
      </trkpt>
      <trkpt lat="42.9000970" lon="1.3039640">
        <ele>581.8</ele>
        <time>2020-07-29T10:54:27Z</time>
      </trkpt>
      <trkpt lat="42.9000360" lon="1.3044610">
        <ele>582.0</ele>
        <time>2020-07-29T10:54:33Z</time>
      </trkpt>
      <trkpt lat="42.9000420" lon="1.3047940">
        <ele>582.3</ele>
        <time>2020-07-29T10:54:37Z</time>
      </trkpt>
      <trkpt lat="42.9000520" lon="1.3048770">
        <ele>582.4</ele>
        <time>2020-07-29T10:54:38Z</time>
      </trkpt>
      <trkpt lat="42.9001470" lon="1.3052980">
        <ele>582.6</ele>
        <time>2020-07-29T10:54:43Z</time>
      </trkpt>
      <trkpt lat="42.9001620" lon="1.3054610">
        <ele>582.6</ele>
        <time>2020-07-29T10:54:45Z</time>
      </trkpt>
      <trkpt lat="42.9001430" lon="1.3056370">
        <ele>582.7</ele>
        <time>2020-07-29T10:54:47Z</time>
      </trkpt>
      <trkpt lat="42.9000450" lon="1.3061320">
        <ele>582.7</ele>
        <time>2020-07-29T10:54:52Z</time>
      </trkpt>
      <trkpt lat="42.8998630" lon="1.3067760">
        <ele>583.3</ele>
        <time>2020-07-29T10:54:59Z</time>
      </trkpt>
      <trkpt lat="42.8997870" lon="1.3072780">
        <ele>583.9</ele>
        <time>2020-07-29T10:55:05Z</time>
      </trkpt>
      <trkpt lat="42.8997920" lon="1.3073620">
        <ele>584.0</ele>
        <time>2020-07-29T10:55:06Z</time>
      </trkpt>
      <trkpt lat="42.8998430" lon="1.3077130">
        <ele>584.1</ele>
        <time>2020-07-29T10:55:10Z</time>
      </trkpt>
      <trkpt lat="42.8998500" lon="1.3079070">
        <ele>584.0</ele>
        <time>2020-07-29T10:55:12Z</time>
      </trkpt>
      <trkpt lat="42.8998020" lon="1.3080890">
        <ele>583.8</ele>
        <time>2020-07-29T10:55:14Z</time>
      </trkpt>
      <trkpt lat="42.8996210" lon="1.3083910">
        <ele>583.6</ele>
        <time>2020-07-29T10:55:18Z</time>
      </trkpt>
      <trkpt lat="42.8994540" lon="1.3085510">
        <ele>583.8</ele>
        <time>2020-07-29T10:55:21Z</time>
      </trkpt>
      <trkpt lat="42.8993480" lon="1.3086530">
        <ele>583.9</ele>
        <time>2020-07-29T10:55:23Z</time>
      </trkpt>
      <trkpt lat="42.8992570" lon="1.3087670">
        <ele>584.0</ele>
        <time>2020-07-29T10:55:25Z</time>
      </trkpt>
      <trkpt lat="42.8991470" lon="1.3089690">
        <ele>584.2</ele>
        <time>2020-07-29T10:55:28Z</time>
      </trkpt>
      <trkpt lat="42.8990670" lon="1.3092050">
        <ele>584.5</ele>
        <time>2020-07-29T10:55:31Z</time>
      </trkpt>
      <trkpt lat="42.8990060" lon="1.3094510">
        <ele>584.7</ele>
        <time>2020-07-29T10:55:34Z</time>
      </trkpt>
      <trkpt lat="42.8988920" lon="1.3100220">
        <ele>585.5</ele>
        <time>2020-07-29T10:55:41Z</time>
      </trkpt>
      <trkpt lat="42.8988600" lon="1.3101890">
        <ele>585.7</ele>
        <time>2020-07-29T10:55:43Z</time>
      </trkpt>
      <trkpt lat="42.8987610" lon="1.3106970">
        <ele>586.2</ele>
        <time>2020-07-29T10:55:49Z</time>
      </trkpt>
      <trkpt lat="42.8987070" lon="1.3109560">
        <ele>586.7</ele>
        <time>2020-07-29T10:55:52Z</time>
      </trkpt>
      <trkpt lat="42.8985650" lon="1.3116400">
        <ele>587.0</ele>
        <time>2020-07-29T10:56:00Z</time>
      </trkpt>
      <trkpt lat="42.8985270" lon="1.3118210">
        <ele>587.0</ele>
        <time>2020-07-29T10:56:02Z</time>
      </trkpt>
      <trkpt lat="42.8983760" lon="1.3125180">
        <ele>587.5</ele>
        <time>2020-07-29T10:56:10Z</time>
      </trkpt>
      <trkpt lat="42.8982330" lon="1.3132930">
        <ele>588.1</ele>
        <time>2020-07-29T10:56:19Z</time>
      </trkpt>
      <trkpt lat="42.8982230" lon="1.3133800">
        <ele>588.2</ele>
        <time>2020-07-29T10:56:20Z</time>
      </trkpt>
      <trkpt lat="42.8981480" lon="1.3140870">
        <ele>588.8</ele>
        <time>2020-07-29T10:56:28Z</time>
      </trkpt>
      <trkpt lat="42.8980770" lon="1.3145140">
        <ele>589.5</ele>
        <time>2020-07-29T10:56:33Z</time>
      </trkpt>
      <trkpt lat="42.8980690" lon="1.3146810">
        <ele>589.5</ele>
        <time>2020-07-29T10:56:35Z</time>
      </trkpt>
      <trkpt lat="42.8980240" lon="1.3152780">
        <ele>589.9</ele>
        <time>2020-07-29T10:56:42Z</time>
      </trkpt>
      <trkpt lat="42.8980120" lon="1.3153610">
        <ele>589.9</ele>
        <time>2020-07-29T10:56:43Z</time>
      </trkpt>
      <trkpt lat="42.8979690" lon="1.3152990">
        <ele>590.0</ele>
        <time>2020-07-29T11:38:40Z</time>
      </trkpt>
      <trkpt lat="42.8979630" lon="1.3154000">
        <ele>590.1</ele>
        <time>2020-07-29T11:38:42Z</time>
      </trkpt>
      <trkpt lat="42.8979390" lon="1.3158090">
        <ele>590.6</ele>
        <time>2020-07-29T11:38:50Z</time>
      </trkpt>
      <trkpt lat="42.8978910" lon="1.3163190">
        <ele>591.6</ele>
        <time>2020-07-29T11:38:59Z</time>
      </trkpt>
      <trkpt lat="42.8978590" lon="1.3165540">
        <ele>591.7</ele>
        <time>2020-07-29T11:39:03Z</time>
      </trkpt>
      <trkpt lat="42.8978360" lon="1.3167940">
        <ele>591.8</ele>
        <time>2020-07-29T11:39:07Z</time>
      </trkpt>
      <trkpt lat="42.8978050" lon="1.3171370">
        <ele>592.1</ele>
        <time>2020-07-29T11:39:12Z</time>
      </trkpt>
      <trkpt lat="42.8977960" lon="1.3172010">
        <ele>592.2</ele>
        <time>2020-07-29T11:39:13Z</time>
      </trkpt>
      <trkpt lat="42.8977770" lon="1.3173220">
        <ele>592.3</ele>
        <time>2020-07-29T11:39:15Z</time>
      </trkpt>
      <trkpt lat="42.8977230" lon="1.3175430">
        <ele>592.7</ele>
        <time>2020-07-29T11:39:19Z</time>
      </trkpt>
      <trkpt lat="42.8976790" lon="1.3177100">
        <ele>593.0</ele>
        <time>2020-07-29T11:39:22Z</time>
      </trkpt>
      <trkpt lat="42.8976110" lon="1.3178620">
        <ele>593.3</ele>
        <time>2020-07-29T11:39:25Z</time>
      </trkpt>
      <trkpt lat="42.8975850" lon="1.3179120">
        <ele>593.4</ele>
        <time>2020-07-29T11:39:26Z</time>
      </trkpt>
      <trkpt lat="42.8974020" lon="1.3182640">
        <ele>593.7</ele>
        <time>2020-07-29T11:39:33Z</time>
      </trkpt>
      <trkpt lat="42.8972940" lon="1.3184820">
        <ele>594.2</ele>
        <time>2020-07-29T11:39:37Z</time>
      </trkpt>
      <trkpt lat="42.8972090" lon="1.3186390">
        <ele>594.4</ele>
        <time>2020-07-29T11:39:40Z</time>
      </trkpt>
      <trkpt lat="42.8969880" lon="1.3191340">
        <ele>595.0</ele>
        <time>2020-07-29T11:39:48Z</time>
      </trkpt>
      <trkpt lat="42.8968960" lon="1.3194840">
        <ele>595.4</ele>
        <time>2020-07-29T11:39:53Z</time>
      </trkpt>
      <trkpt lat="42.8968850" lon="1.3195550">
        <ele>595.5</ele>
        <time>2020-07-29T11:39:54Z</time>
      </trkpt>
      <trkpt lat="42.8968440" lon="1.3201320">
        <ele>595.9</ele>
        <time>2020-07-29T11:40:02Z</time>
      </trkpt>
      <trkpt lat="42.8968870" lon="1.3206440">
        <ele>596.5</ele>
        <time>2020-07-29T11:40:09Z</time>
      </trkpt>
      <trkpt lat="42.8969000" lon="1.3207170">
        <ele>596.6</ele>
        <time>2020-07-29T11:40:10Z</time>
      </trkpt>
      <trkpt lat="42.8969330" lon="1.3208550">
        <ele>596.7</ele>
        <time>2020-07-29T11:40:12Z</time>
      </trkpt>
      <trkpt lat="42.8970370" lon="1.3211970">
        <ele>597.0</ele>
        <time>2020-07-29T11:40:17Z</time>
      </trkpt>
      <trkpt lat="42.8972420" lon="1.3216440">
        <ele>597.3</ele>
        <time>2020-07-29T11:40:24Z</time>
      </trkpt>
      <trkpt lat="42.8972760" lon="1.3217060">
        <ele>597.4</ele>
        <time>2020-07-29T11:40:25Z</time>
      </trkpt>
      <trkpt lat="42.8976080" lon="1.3223370">
        <ele>598.2</ele>
        <time>2020-07-29T11:40:35Z</time>
      </trkpt>
      <trkpt lat="42.8977880" lon="1.3227970">
        <ele>599.0</ele>
        <time>2020-07-29T11:40:42Z</time>
      </trkpt>
      <trkpt lat="42.8978070" lon="1.3228650">
        <ele>599.1</ele>
        <time>2020-07-29T11:40:43Z</time>
      </trkpt>
      <trkpt lat="42.8979110" lon="1.3234280">
        <ele>599.7</ele>
        <time>2020-07-29T11:40:51Z</time>
      </trkpt>
      <trkpt lat="42.8979270" lon="1.3236460">
        <ele>600.1</ele>
        <time>2020-07-29T11:40:54Z</time>
      </trkpt>
      <trkpt lat="42.8979180" lon="1.3239400">
        <ele>600.7</ele>
        <time>2020-07-29T11:40:58Z</time>
      </trkpt>
      <trkpt lat="42.8978440" lon="1.3244670">
        <ele>601.4</ele>
        <time>2020-07-29T11:41:05Z</time>
      </trkpt>
      <trkpt lat="42.8978270" lon="1.3245480">
        <ele>601.5</ele>
        <time>2020-07-29T11:41:06Z</time>
      </trkpt>
      <trkpt lat="42.8976840" lon="1.3250980">
        <ele>602.4</ele>
        <time>2020-07-29T11:41:13Z</time>
      </trkpt>
      <trkpt lat="42.8976010" lon="1.3254010">
        <ele>603.0</ele>
        <time>2020-07-29T11:41:17Z</time>
      </trkpt>
      <trkpt lat="42.8974540" lon="1.3259090">
        <ele>603.8</ele>
        <time>2020-07-29T11:41:24Z</time>
      </trkpt>
      <trkpt lat="42.8973910" lon="1.3261240">
        <ele>604.2</ele>
        <time>2020-07-29T11:41:27Z</time>
      </trkpt>
      <trkpt lat="42.8972830" lon="1.3264780">
        <ele>604.7</ele>
        <time>2020-07-29T11:41:32Z</time>
      </trkpt>
      <trkpt lat="42.8971860" lon="1.3268310">
        <ele>605.1</ele>
        <time>2020-07-29T11:41:37Z</time>
      </trkpt>
      <trkpt lat="42.8970290" lon="1.3274040">
        <ele>605.4</ele>
        <time>2020-07-29T11:41:45Z</time>
      </trkpt>
      <trkpt lat="42.8969070" lon="1.3278890">
        <ele>606.0</ele>
        <time>2020-07-29T11:41:52Z</time>
      </trkpt>
      <trkpt lat="42.8967970" lon="1.3284460">
        <ele>606.6</ele>
        <time>2020-07-29T11:42:00Z</time>
      </trkpt>
      <trkpt lat="42.8967670" lon="1.3285870">
        <ele>606.8</ele>
        <time>2020-07-29T11:42:02Z</time>
      </trkpt>
      <trkpt lat="42.8966100" lon="1.3293090">
        <ele>607.8</ele>
        <time>2020-07-29T11:42:12Z</time>
      </trkpt>
      <trkpt lat="42.8965520" lon="1.3296030">
        <ele>608.5</ele>
        <time>2020-07-29T11:42:16Z</time>
      </trkpt>
      <trkpt lat="42.8964980" lon="1.3298860">
        <ele>609.2</ele>
        <time>2020-07-29T11:42:20Z</time>
      </trkpt>
      <trkpt lat="42.8964090" lon="1.3302270">
        <ele>609.2</ele>
        <time>2020-07-29T11:42:25Z</time>
      </trkpt>
      <trkpt lat="42.8963770" lon="1.3302860">
        <ele>609.1</ele>
        <time>2020-07-29T11:42:26Z</time>
      </trkpt>
      <trkpt lat="42.8963370" lon="1.3303370">
        <ele>609.1</ele>
        <time>2020-07-29T11:42:27Z</time>
      </trkpt>
      <trkpt lat="42.8960470" lon="1.3306400">
        <ele>609.1</ele>
        <time>2020-07-29T11:42:34Z</time>
      </trkpt>
      <trkpt lat="42.8959640" lon="1.3307280">
        <ele>609.2</ele>
        <time>2020-07-29T11:42:36Z</time>
      </trkpt>
      <trkpt lat="42.8956580" lon="1.3310220">
        <ele>609.6</ele>
        <time>2020-07-29T11:42:43Z</time>
      </trkpt>
      <trkpt lat="42.8953110" lon="1.3313670">
        <ele>610.2</ele>
        <time>2020-07-29T11:42:51Z</time>
      </trkpt>
      <trkpt lat="42.8951800" lon="1.3314950">
        <ele>610.5</ele>
        <time>2020-07-29T11:42:54Z</time>
      </trkpt>
      <trkpt lat="42.8949330" lon="1.3317320">
        <ele>610.8</ele>
        <time>2020-07-29T11:43:00Z</time>
      </trkpt>
      <trkpt lat="42.8947230" lon="1.3319480">
        <ele>611.2</ele>
        <time>2020-07-29T11:43:05Z</time>
      </trkpt>
      <trkpt lat="42.8946390" lon="1.3320340">
        <ele>611.4</ele>
        <time>2020-07-29T11:43:07Z</time>
      </trkpt>
      <trkpt lat="42.8943480" lon="1.3324410">
        <ele>612.1</ele>
        <time>2020-07-29T11:43:15Z</time>
      </trkpt>
      <trkpt lat="42.8942930" lon="1.3325660">
        <ele>612.3</ele>
        <time>2020-07-29T11:43:17Z</time>
      </trkpt>
      <trkpt lat="42.8942120" lon="1.3328520">
        <ele>612.6</ele>
        <time>2020-07-29T11:43:21Z</time>
      </trkpt>
      <trkpt lat="42.8941060" lon="1.3333110">
        <ele>613.7</ele>
        <time>2020-07-29T11:43:27Z</time>
      </trkpt>
      <trkpt lat="42.8939220" lon="1.3340670">
        <ele>616.6</ele>
        <time>2020-07-29T11:43:37Z</time>
      </trkpt>
      <trkpt lat="42.8937980" lon="1.3345940">
        <ele>618.1</ele>
        <time>2020-07-29T11:43:45Z</time>
      </trkpt>
      <trkpt lat="42.8937490" lon="1.3347740">
        <ele>618.5</ele>
        <time>2020-07-29T11:43:48Z</time>
      </trkpt>
      <trkpt lat="42.8936870" lon="1.3350940">
        <ele>619.4</ele>
        <time>2020-07-29T11:43:53Z</time>
      </trkpt>
      <trkpt lat="42.8936380" lon="1.3353500">
        <ele>620.2</ele>
        <time>2020-07-29T11:43:57Z</time>
      </trkpt>
      <trkpt lat="42.8936100" lon="1.3355210">
        <ele>620.8</ele>
        <time>2020-07-29T11:44:00Z</time>
      </trkpt>
      <trkpt lat="42.8935890" lon="1.3356360">
        <ele>621.3</ele>
        <time>2020-07-29T11:44:02Z</time>
      </trkpt>
      <trkpt lat="42.8935410" lon="1.3359600">
        <ele>622.5</ele>
        <time>2020-07-29T11:44:07Z</time>
      </trkpt>
      <trkpt lat="42.8935330" lon="1.3360240">
        <ele>622.7</ele>
        <time>2020-07-29T11:44:08Z</time>
      </trkpt>
      <trkpt lat="42.8935350" lon="1.3363260">
        <ele>623.8</ele>
        <time>2020-07-29T11:44:13Z</time>
      </trkpt>
      <trkpt lat="42.8935470" lon="1.3363810">
        <ele>624.0</ele>
        <time>2020-07-29T11:44:14Z</time>
      </trkpt>
      <trkpt lat="42.8936010" lon="1.3366070">
        <ele>624.9</ele>
        <time>2020-07-29T11:44:18Z</time>
      </trkpt>
      <trkpt lat="42.8936550" lon="1.3367630">
        <ele>625.6</ele>
        <time>2020-07-29T11:44:21Z</time>
      </trkpt>
      <trkpt lat="42.8937070" lon="1.3369160">
        <ele>626.2</ele>
        <time>2020-07-29T11:44:24Z</time>
      </trkpt>
      <trkpt lat="42.8937770" lon="1.3371510">
        <ele>627.1</ele>
        <time>2020-07-29T11:44:29Z</time>
      </trkpt>
      <trkpt lat="42.8937910" lon="1.3372340">
        <ele>627.4</ele>
        <time>2020-07-29T11:44:31Z</time>
      </trkpt>
      <trkpt lat="42.8937840" lon="1.3373760">
        <ele>627.8</ele>
        <time>2020-07-29T11:44:34Z</time>
      </trkpt>
      <trkpt lat="42.8937730" lon="1.3374250">
        <ele>628.0</ele>
        <time>2020-07-29T11:44:35Z</time>
      </trkpt>
      <trkpt lat="42.8936870" lon="1.3376810">
        <ele>628.8</ele>
        <time>2020-07-29T11:44:40Z</time>
      </trkpt>
      <trkpt lat="42.8936710" lon="1.3377290">
        <ele>629.0</ele>
        <time>2020-07-29T11:44:41Z</time>
      </trkpt>
      <trkpt lat="42.8935630" lon="1.3380560">
        <ele>630.0</ele>
        <time>2020-07-29T11:44:48Z</time>
      </trkpt>
      <trkpt lat="42.8935480" lon="1.3381030">
        <ele>630.2</ele>
        <time>2020-07-29T11:44:49Z</time>
      </trkpt>
      <trkpt lat="42.8935180" lon="1.3381940">
        <ele>630.5</ele>
        <time>2020-07-29T11:44:51Z</time>
      </trkpt>
      <trkpt lat="42.8934060" lon="1.3385230">
        <ele>631.7</ele>
        <time>2020-07-29T11:44:58Z</time>
      </trkpt>
      <trkpt lat="42.8933640" lon="1.3386190">
        <ele>632.0</ele>
        <time>2020-07-29T11:45:00Z</time>
      </trkpt>
      <trkpt lat="42.8932190" lon="1.3387940">
        <ele>632.8</ele>
        <time>2020-07-29T11:45:05Z</time>
      </trkpt>
      <trkpt lat="42.8931830" lon="1.3388220">
        <ele>633.0</ele>
        <time>2020-07-29T11:45:06Z</time>
      </trkpt>
      <trkpt lat="42.8931450" lon="1.3388490">
        <ele>633.2</ele>
        <time>2020-07-29T11:45:07Z</time>
      </trkpt>
      <trkpt lat="42.8929470" lon="1.3389470">
        <ele>634.1</ele>
        <time>2020-07-29T11:45:12Z</time>
      </trkpt>
      <trkpt lat="42.8927190" lon="1.3390810">
        <ele>635.2</ele>
        <time>2020-07-29T11:45:18Z</time>
      </trkpt>
      <trkpt lat="42.8926870" lon="1.3391110">
        <ele>635.4</ele>
        <time>2020-07-29T11:45:19Z</time>
      </trkpt>
      <trkpt lat="42.8926570" lon="1.3391440">
        <ele>635.5</ele>
        <time>2020-07-29T11:45:20Z</time>
      </trkpt>
      <trkpt lat="42.8925680" lon="1.3393170">
        <ele>636.0</ele>
        <time>2020-07-29T11:45:24Z</time>
      </trkpt>
      <trkpt lat="42.8925510" lon="1.3393680">
        <ele>636.1</ele>
        <time>2020-07-29T11:45:25Z</time>
      </trkpt>
      <trkpt lat="42.8925020" lon="1.3395780">
        <ele>636.7</ele>
        <time>2020-07-29T11:45:29Z</time>
      </trkpt>
      <trkpt lat="42.8924430" lon="1.3398420">
        <ele>637.5</ele>
        <time>2020-07-29T11:45:34Z</time>
      </trkpt>
      <trkpt lat="42.8923990" lon="1.3399920">
        <ele>638.1</ele>
        <time>2020-07-29T11:45:37Z</time>
      </trkpt>
      <trkpt lat="42.8923230" lon="1.3401800">
        <ele>638.7</ele>
        <time>2020-07-29T11:45:41Z</time>
      </trkpt>
      <trkpt lat="42.8922790" lon="1.3402690">
        <ele>639.1</ele>
        <time>2020-07-29T11:45:43Z</time>
      </trkpt>
      <trkpt lat="42.8921400" lon="1.3405350">
        <ele>640.2</ele>
        <time>2020-07-29T11:45:49Z</time>
      </trkpt>
      <trkpt lat="42.8921140" lon="1.3405780">
        <ele>640.4</ele>
        <time>2020-07-29T11:45:50Z</time>
      </trkpt>
      <trkpt lat="42.8919230" lon="1.3409410">
        <ele>642.0</ele>
        <time>2020-07-29T11:45:58Z</time>
      </trkpt>
      <trkpt lat="42.8918490" lon="1.3410810">
        <ele>642.2</ele>
        <time>2020-07-29T11:46:01Z</time>
      </trkpt>
      <trkpt lat="42.8917290" lon="1.3413180">
        <ele>643.0</ele>
        <time>2020-07-29T11:46:06Z</time>
      </trkpt>
      <trkpt lat="42.8915640" lon="1.3416440">
        <ele>644.3</ele>
        <time>2020-07-29T11:46:13Z</time>
      </trkpt>
      <trkpt lat="42.8915410" lon="1.3416900">
        <ele>644.4</ele>
        <time>2020-07-29T11:46:14Z</time>
      </trkpt>
      <trkpt lat="42.8914470" lon="1.3418790">
        <ele>645.0</ele>
        <time>2020-07-29T11:46:18Z</time>
      </trkpt>
      <trkpt lat="42.8912680" lon="1.3422180">
        <ele>645.9</ele>
        <time>2020-07-29T11:46:25Z</time>
      </trkpt>
      <trkpt lat="42.8909990" lon="1.3427480">
        <ele>646.7</ele>
        <time>2020-07-29T11:46:35Z</time>
      </trkpt>
      <trkpt lat="42.8909430" lon="1.3428530">
        <ele>646.7</ele>
        <time>2020-07-29T11:46:37Z</time>
      </trkpt>
      <trkpt lat="42.8907360" lon="1.3432630">
        <ele>646.7</ele>
        <time>2020-07-29T11:46:44Z</time>
      </trkpt>
      <trkpt lat="42.8904740" lon="1.3438070">
        <ele>646.8</ele>
        <time>2020-07-29T11:46:52Z</time>
      </trkpt>
      <trkpt lat="42.8901520" lon="1.3443790">
        <ele>647.4</ele>
        <time>2020-07-29T11:47:00Z</time>
      </trkpt>
      <trkpt lat="42.8899250" lon="1.3448270">
        <ele>648.5</ele>
        <time>2020-07-29T11:47:07Z</time>
      </trkpt>
      <trkpt lat="42.8897240" lon="1.3453150">
        <ele>649.6</ele>
        <time>2020-07-29T11:47:15Z</time>
      </trkpt>
      <trkpt lat="42.8897040" lon="1.3453770">
        <ele>649.7</ele>
        <time>2020-07-29T11:47:16Z</time>
      </trkpt>
      <trkpt lat="42.8895590" lon="1.3458580">
        <ele>650.7</ele>
        <time>2020-07-29T11:47:24Z</time>
      </trkpt>
      <trkpt lat="42.8895440" lon="1.3459180">
        <ele>650.9</ele>
        <time>2020-07-29T11:47:25Z</time>
      </trkpt>
      <trkpt lat="42.8894890" lon="1.3462860">
        <ele>652.0</ele>
        <time>2020-07-29T11:47:31Z</time>
      </trkpt>
      <trkpt lat="42.8894720" lon="1.3464130">
        <ele>652.5</ele>
        <time>2020-07-29T11:47:33Z</time>
      </trkpt>
      <trkpt lat="42.8894530" lon="1.3465330">
        <ele>652.9</ele>
        <time>2020-07-29T11:47:35Z</time>
      </trkpt>
      <trkpt lat="42.8894210" lon="1.3467150">
        <ele>653.6</ele>
        <time>2020-07-29T11:47:38Z</time>
      </trkpt>
      <trkpt lat="42.8893800" lon="1.3470010">
        <ele>654.4</ele>
        <time>2020-07-29T11:47:43Z</time>
      </trkpt>
      <trkpt lat="42.8893760" lon="1.3470600">
        <ele>654.4</ele>
        <time>2020-07-29T11:47:44Z</time>
      </trkpt>
      <trkpt lat="42.8893710" lon="1.3471780">
        <ele>654.4</ele>
        <time>2020-07-29T11:47:46Z</time>
      </trkpt>
      <trkpt lat="42.8893660" lon="1.3474250">
        <ele>654.2</ele>
        <time>2020-07-29T11:47:50Z</time>
      </trkpt>
      <trkpt lat="42.8894520" lon="1.3475710">
        <ele>653.5</ele>
        <time>2020-07-29T11:47:53Z</time>
      </trkpt>
      <trkpt lat="42.8896200" lon="1.3476680">
        <ele>652.3</ele>
        <time>2020-07-29T11:47:56Z</time>
      </trkpt>
      <trkpt lat="42.8896860" lon="1.3477010">
        <ele>651.8</ele>
        <time>2020-07-29T11:47:57Z</time>
      </trkpt>
      <trkpt lat="42.8900110" lon="1.3478890">
        <ele>647.9</ele>
        <time>2020-07-29T11:48:02Z</time>
      </trkpt>
      <trkpt lat="42.8900830" lon="1.3479370">
        <ele>647.1</ele>
        <time>2020-07-29T11:48:03Z</time>
      </trkpt>
      <trkpt lat="42.8901580" lon="1.3479950">
        <ele>646.1</ele>
        <time>2020-07-29T11:48:04Z</time>
      </trkpt>
      <trkpt lat="42.8903050" lon="1.3481040">
        <ele>644.3</ele>
        <time>2020-07-29T11:48:06Z</time>
      </trkpt>
      <trkpt lat="42.8905610" lon="1.3482600">
        <ele>641.8</ele>
        <time>2020-07-29T11:48:09Z</time>
      </trkpt>
      <trkpt lat="42.8907460" lon="1.3483700">
        <ele>639.9</ele>
        <time>2020-07-29T11:48:11Z</time>
      </trkpt>
      <trkpt lat="42.8908430" lon="1.3484310">
        <ele>639.0</ele>
        <time>2020-07-29T11:48:12Z</time>
      </trkpt>
      <trkpt lat="42.8909390" lon="1.3484940">
        <ele>638.0</ele>
        <time>2020-07-29T11:48:13Z</time>
      </trkpt>
      <trkpt lat="42.8911390" lon="1.3486180">
        <ele>635.9</ele>
        <time>2020-07-29T11:48:15Z</time>
      </trkpt>
      <trkpt lat="42.8912400" lon="1.3486790">
        <ele>635.1</ele>
        <time>2020-07-29T11:48:16Z</time>
      </trkpt>
      <trkpt lat="42.8914390" lon="1.3488050">
        <ele>633.8</ele>
        <time>2020-07-29T11:48:18Z</time>
      </trkpt>
      <trkpt lat="42.8916380" lon="1.3489310">
        <ele>631.7</ele>
        <time>2020-07-29T11:48:20Z</time>
      </trkpt>
      <trkpt lat="42.8917390" lon="1.3489930">
        <ele>630.7</ele>
        <time>2020-07-29T11:48:21Z</time>
      </trkpt>
      <trkpt lat="42.8919450" lon="1.3491230">
        <ele>629.3</ele>
        <time>2020-07-29T11:48:23Z</time>
      </trkpt>
      <trkpt lat="42.8921530" lon="1.3492490">
        <ele>629.1</ele>
        <time>2020-07-29T11:48:25Z</time>
      </trkpt>
      <trkpt lat="42.8923520" lon="1.3493760">
        <ele>631.2</ele>
        <time>2020-07-29T11:48:27Z</time>
      </trkpt>
      <trkpt lat="42.8924470" lon="1.3494390">
        <ele>631.0</ele>
        <time>2020-07-29T11:48:28Z</time>
      </trkpt>
      <trkpt lat="42.8926280" lon="1.3495580">
        <ele>632.4</ele>
        <time>2020-07-29T11:48:30Z</time>
      </trkpt>
      <trkpt lat="42.8927920" lon="1.3496570">
        <ele>633.9</ele>
        <time>2020-07-29T11:48:32Z</time>
      </trkpt>
      <trkpt lat="42.8931210" lon="1.3499190">
        <ele>637.6</ele>
        <time>2020-07-29T11:48:37Z</time>
      </trkpt>
      <trkpt lat="42.8932030" lon="1.3501410">
        <ele>639.5</ele>
        <time>2020-07-29T11:48:40Z</time>
      </trkpt>
      <trkpt lat="42.8931950" lon="1.3502830">
        <ele>640.5</ele>
        <time>2020-07-29T11:48:42Z</time>
      </trkpt>
      <trkpt lat="42.8931890" lon="1.3504050">
        <ele>641.3</ele>
        <time>2020-07-29T11:48:44Z</time>
      </trkpt>
      <trkpt lat="42.8932000" lon="1.3505120">
        <ele>642.0</ele>
        <time>2020-07-29T11:48:46Z</time>
      </trkpt>
      <trkpt lat="42.8932390" lon="1.3506010">
        <ele>642.6</ele>
        <time>2020-07-29T11:48:48Z</time>
      </trkpt>
      <trkpt lat="42.8932610" lon="1.3506400">
        <ele>642.8</ele>
        <time>2020-07-29T11:48:49Z</time>
      </trkpt>
      <trkpt lat="42.8933040" lon="1.3507160">
        <ele>643.4</ele>
        <time>2020-07-29T11:48:51Z</time>
      </trkpt>
      <trkpt lat="42.8933530" lon="1.3507830">
        <ele>643.9</ele>
        <time>2020-07-29T11:48:53Z</time>
      </trkpt>
      <trkpt lat="42.8934050" lon="1.3508460">
        <ele>644.5</ele>
        <time>2020-07-29T11:48:55Z</time>
      </trkpt>
      <trkpt lat="42.8934580" lon="1.3509080">
        <ele>645.1</ele>
        <time>2020-07-29T11:48:57Z</time>
      </trkpt>
      <trkpt lat="42.8936030" lon="1.3510510">
        <ele>646.8</ele>
        <time>2020-07-29T11:49:02Z</time>
      </trkpt>
      <trkpt lat="42.8936320" lon="1.3510790">
        <ele>647.2</ele>
        <time>2020-07-29T11:49:03Z</time>
      </trkpt>
      <trkpt lat="42.8937390" lon="1.3511610">
        <ele>648.4</ele>
        <time>2020-07-29T11:49:07Z</time>
      </trkpt>
      <trkpt lat="42.8937920" lon="1.3511910">
        <ele>648.9</ele>
        <time>2020-07-29T11:49:09Z</time>
      </trkpt>
      <trkpt lat="42.8938220" lon="1.3512050">
        <ele>649.3</ele>
        <time>2020-07-29T11:49:10Z</time>
      </trkpt>
      <trkpt lat="42.8940010" lon="1.3512600">
        <ele>651.2</ele>
        <time>2020-07-29T11:49:15Z</time>
      </trkpt>
      <trkpt lat="42.8940380" lon="1.3512730">
        <ele>651.6</ele>
        <time>2020-07-29T11:49:16Z</time>
      </trkpt>
      <trkpt lat="42.8941970" lon="1.3513070">
        <ele>653.2</ele>
        <time>2020-07-29T11:49:20Z</time>
      </trkpt>
      <trkpt lat="42.8943270" lon="1.3513300">
        <ele>654.6</ele>
        <time>2020-07-29T11:49:23Z</time>
      </trkpt>
      <trkpt lat="42.8943990" lon="1.3513440">
        <ele>655.5</ele>
        <time>2020-07-29T11:49:25Z</time>
      </trkpt>
      <trkpt lat="42.8945560" lon="1.3513570">
        <ele>657.4</ele>
        <time>2020-07-29T11:49:30Z</time>
      </trkpt>
      <trkpt lat="42.8946180" lon="1.3513650">
        <ele>658.2</ele>
        <time>2020-07-29T11:49:32Z</time>
      </trkpt>
      <trkpt lat="42.8947200" lon="1.3514280">
        <ele>659.5</ele>
        <time>2020-07-29T11:49:35Z</time>
      </trkpt>
      <trkpt lat="42.8947570" lon="1.3515030">
        <ele>660.2</ele>
        <time>2020-07-29T11:49:37Z</time>
      </trkpt>
      <trkpt lat="42.8947650" lon="1.3515910">
        <ele>660.8</ele>
        <time>2020-07-29T11:49:39Z</time>
      </trkpt>
      <trkpt lat="42.8947640" lon="1.3517730">
        <ele>662.3</ele>
        <time>2020-07-29T11:49:43Z</time>
      </trkpt>
      <trkpt lat="42.8947650" lon="1.3519900">
        <ele>664.0</ele>
        <time>2020-07-29T11:49:48Z</time>
      </trkpt>
      <trkpt lat="42.8947470" lon="1.3520720">
        <ele>664.7</ele>
        <time>2020-07-29T11:49:50Z</time>
      </trkpt>
      <trkpt lat="42.8946540" lon="1.3521850">
        <ele>657.5</ele>
        <time>2020-07-29T11:49:54Z</time>
      </trkpt>
      <trkpt lat="42.8946230" lon="1.3521920">
        <ele>657.7</ele>
        <time>2020-07-29T11:49:55Z</time>
      </trkpt>
      <trkpt lat="42.8945680" lon="1.3521710">
        <ele>658.0</ele>
        <time>2020-07-29T11:49:57Z</time>
      </trkpt>
      <trkpt lat="42.8945470" lon="1.3521480">
        <ele>658.1</ele>
        <time>2020-07-29T11:49:58Z</time>
      </trkpt>
      <trkpt lat="42.8945140" lon="1.3521010">
        <ele>658.3</ele>
        <time>2020-07-29T11:50:00Z</time>
      </trkpt>
      <trkpt lat="42.8944460" lon="1.3519690">
        <ele>658.7</ele>
        <time>2020-07-29T11:50:04Z</time>
      </trkpt>
      <trkpt lat="42.8944270" lon="1.3519370">
        <ele>658.9</ele>
        <time>2020-07-29T11:50:05Z</time>
      </trkpt>
      <trkpt lat="42.8943000" lon="1.3517700">
        <ele>659.6</ele>
        <time>2020-07-29T11:50:11Z</time>
      </trkpt>
      <trkpt lat="42.8941480" lon="1.3516950">
        <ele>660.9</ele>
        <time>2020-07-29T11:50:16Z</time>
      </trkpt>
      <trkpt lat="42.8940800" lon="1.3516780">
        <ele>661.6</ele>
        <time>2020-07-29T11:50:18Z</time>
      </trkpt>
      <trkpt lat="42.8939860" lon="1.3516850">
        <ele>662.5</ele>
        <time>2020-07-29T11:50:21Z</time>
      </trkpt>
      <trkpt lat="42.8939040" lon="1.3517190">
        <ele>663.4</ele>
        <time>2020-07-29T11:50:24Z</time>
      </trkpt>
      <trkpt lat="42.8938370" lon="1.3518460">
        <ele>664.3</ele>
        <time>2020-07-29T11:50:28Z</time>
      </trkpt>
      <trkpt lat="42.8938600" lon="1.3520090">
        <ele>665.0</ele>
        <time>2020-07-29T11:50:32Z</time>
      </trkpt>
      <trkpt lat="42.8938790" lon="1.3520430">
        <ele>665.1</ele>
        <time>2020-07-29T11:50:33Z</time>
      </trkpt>
      <trkpt lat="42.8939340" lon="1.3521330">
        <ele>665.2</ele>
        <time>2020-07-29T11:50:36Z</time>
      </trkpt>
      <trkpt lat="42.8940090" lon="1.3522010">
        <ele>665.2</ele>
        <time>2020-07-29T11:50:39Z</time>
      </trkpt>
      <trkpt lat="42.8941080" lon="1.3522890">
        <ele>665.3</ele>
        <time>2020-07-29T11:50:43Z</time>
      </trkpt>
      <trkpt lat="42.8941600" lon="1.3523350">
        <ele>665.5</ele>
        <time>2020-07-29T11:50:45Z</time>
      </trkpt>
      <trkpt lat="42.8942860" lon="1.3524730">
        <ele>666.0</ele>
        <time>2020-07-29T11:50:50Z</time>
      </trkpt>
      <trkpt lat="42.8943250" lon="1.3525410">
        <ele>666.2</ele>
        <time>2020-07-29T11:50:52Z</time>
      </trkpt>
      <trkpt lat="42.8943950" lon="1.3527200">
        <ele>666.9</ele>
        <time>2020-07-29T11:50:57Z</time>
      </trkpt>
      <trkpt lat="42.8944080" lon="1.3527570">
        <ele>667.1</ele>
        <time>2020-07-29T11:50:58Z</time>
      </trkpt>
      <trkpt lat="42.8944700" lon="1.3529470">
        <ele>667.9</ele>
        <time>2020-07-29T11:51:03Z</time>
      </trkpt>
      <trkpt lat="42.8945150" lon="1.3530990">
        <ele>668.7</ele>
        <time>2020-07-29T11:51:07Z</time>
      </trkpt>
      <trkpt lat="42.8945630" lon="1.3532110">
        <ele>669.4</ele>
        <time>2020-07-29T11:51:10Z</time>
      </trkpt>
      <trkpt lat="42.8946550" lon="1.3533820">
        <ele>670.4</ele>
        <time>2020-07-29T11:51:15Z</time>
      </trkpt>
      <trkpt lat="42.8946770" lon="1.3534080">
        <ele>670.6</ele>
        <time>2020-07-29T11:51:16Z</time>
      </trkpt>
      <trkpt lat="42.8947920" lon="1.3535390">
        <ele>671.6</ele>
        <time>2020-07-29T11:51:21Z</time>
      </trkpt>
      <trkpt lat="42.8948600" lon="1.3536180">
        <ele>672.2</ele>
        <time>2020-07-29T11:51:24Z</time>
      </trkpt>
      <trkpt lat="42.8948990" lon="1.3536690">
        <ele>672.5</ele>
        <time>2020-07-29T11:51:26Z</time>
      </trkpt>
      <trkpt lat="42.8950090" lon="1.3538470">
        <ele>673.5</ele>
        <time>2020-07-29T11:51:32Z</time>
      </trkpt>
      <trkpt lat="42.8950840" lon="1.3540640">
        <ele>674.5</ele>
        <time>2020-07-29T11:51:38Z</time>
      </trkpt>
      <trkpt lat="42.8951110" lon="1.3541830">
        <ele>675.0</ele>
        <time>2020-07-29T11:51:41Z</time>
      </trkpt>
      <trkpt lat="42.8951610" lon="1.3543800">
        <ele>675.8</ele>
        <time>2020-07-29T11:51:46Z</time>
      </trkpt>
      <trkpt lat="42.8952010" lon="1.3545320">
        <ele>676.5</ele>
        <time>2020-07-29T11:51:50Z</time>
      </trkpt>
      <trkpt lat="42.8952260" lon="1.3546060">
        <ele>676.8</ele>
        <time>2020-07-29T11:51:52Z</time>
      </trkpt>
      <trkpt lat="42.8953010" lon="1.3547820">
        <ele>677.5</ele>
        <time>2020-07-29T11:51:57Z</time>
      </trkpt>
      <trkpt lat="42.8953330" lon="1.3548530">
        <ele>677.9</ele>
        <time>2020-07-29T11:51:59Z</time>
      </trkpt>
      <trkpt lat="42.8953970" lon="1.3550040">
        <ele>678.7</ele>
        <time>2020-07-29T11:52:03Z</time>
      </trkpt>
      <trkpt lat="42.8954550" lon="1.3552060">
        <ele>679.7</ele>
        <time>2020-07-29T11:52:08Z</time>
      </trkpt>
      <trkpt lat="42.8954660" lon="1.3552460">
        <ele>679.9</ele>
        <time>2020-07-29T11:52:09Z</time>
      </trkpt>
      <trkpt lat="42.8955010" lon="1.3554820">
        <ele>681.0</ele>
        <time>2020-07-29T11:52:15Z</time>
      </trkpt>
      <trkpt lat="42.8955060" lon="1.3555600">
        <ele>681.3</ele>
        <time>2020-07-29T11:52:17Z</time>
      </trkpt>
      <trkpt lat="42.8955330" lon="1.3557510">
        <ele>682.2</ele>
        <time>2020-07-29T11:52:22Z</time>
      </trkpt>
      <trkpt lat="42.8955450" lon="1.3558780">
        <ele>682.8</ele>
        <time>2020-07-29T11:52:25Z</time>
      </trkpt>
      <trkpt lat="42.8955550" lon="1.3560020">
        <ele>683.4</ele>
        <time>2020-07-29T11:52:28Z</time>
      </trkpt>
      <trkpt lat="42.8955570" lon="1.3561710">
        <ele>684.2</ele>
        <time>2020-07-29T11:52:32Z</time>
      </trkpt>
      <trkpt lat="42.8955570" lon="1.3562170">
        <ele>684.5</ele>
        <time>2020-07-29T11:52:33Z</time>
      </trkpt>
      <trkpt lat="42.8955480" lon="1.3564420">
        <ele>685.7</ele>
        <time>2020-07-29T11:52:38Z</time>
      </trkpt>
      <trkpt lat="42.8955520" lon="1.3565730">
        <ele>686.3</ele>
        <time>2020-07-29T11:52:41Z</time>
      </trkpt>
      <trkpt lat="42.8955540" lon="1.3566150">
        <ele>686.6</ele>
        <time>2020-07-29T11:52:42Z</time>
      </trkpt>
      <trkpt lat="42.8955650" lon="1.3568260">
        <ele>687.6</ele>
        <time>2020-07-29T11:52:47Z</time>
      </trkpt>
      <trkpt lat="42.8955750" lon="1.3569900">
        <ele>688.4</ele>
        <time>2020-07-29T11:52:51Z</time>
      </trkpt>
      <trkpt lat="42.8955740" lon="1.3570770">
        <ele>688.8</ele>
        <time>2020-07-29T11:52:53Z</time>
      </trkpt>
      <trkpt lat="42.8955770" lon="1.3573240">
        <ele>690.1</ele>
        <time>2020-07-29T11:52:59Z</time>
      </trkpt>
      <trkpt lat="42.8955760" lon="1.3574080">
        <ele>690.5</ele>
        <time>2020-07-29T11:53:01Z</time>
      </trkpt>
      <trkpt lat="42.8955700" lon="1.3575740">
        <ele>691.4</ele>
        <time>2020-07-29T11:53:05Z</time>
      </trkpt>
      <trkpt lat="42.8955480" lon="1.3577790">
        <ele>692.6</ele>
        <time>2020-07-29T11:53:10Z</time>
      </trkpt>
      <trkpt lat="42.8955390" lon="1.3578570">
        <ele>693.0</ele>
        <time>2020-07-29T11:53:12Z</time>
      </trkpt>
      <trkpt lat="42.8955260" lon="1.3580230">
        <ele>694.0</ele>
        <time>2020-07-29T11:53:16Z</time>
      </trkpt>
      <trkpt lat="42.8955270" lon="1.3581030">
        <ele>694.4</ele>
        <time>2020-07-29T11:53:18Z</time>
      </trkpt>
      <trkpt lat="42.8955420" lon="1.3583110">
        <ele>695.6</ele>
        <time>2020-07-29T11:53:23Z</time>
      </trkpt>
      <trkpt lat="42.8955490" lon="1.3583930">
        <ele>696.1</ele>
        <time>2020-07-29T11:53:25Z</time>
      </trkpt>
      <trkpt lat="42.8955770" lon="1.3586280">
        <ele>697.5</ele>
        <time>2020-07-29T11:53:31Z</time>
      </trkpt>
      <trkpt lat="42.8955810" lon="1.3587460">
        <ele>698.2</ele>
        <time>2020-07-29T11:53:34Z</time>
      </trkpt>
      <trkpt lat="42.8955840" lon="1.3588280">
        <ele>698.7</ele>
        <time>2020-07-29T11:53:36Z</time>
      </trkpt>
      <trkpt lat="42.8955680" lon="1.3590380">
        <ele>699.9</ele>
        <time>2020-07-29T11:53:41Z</time>
      </trkpt>
      <trkpt lat="42.8955590" lon="1.3590840">
        <ele>700.2</ele>
        <time>2020-07-29T11:53:42Z</time>
      </trkpt>
      <trkpt lat="42.8955040" lon="1.3593170">
        <ele>701.5</ele>
        <time>2020-07-29T11:53:47Z</time>
      </trkpt>
      <trkpt lat="42.8954620" lon="1.3594390">
        <ele>702.3</ele>
        <time>2020-07-29T11:53:50Z</time>
      </trkpt>
      <trkpt lat="42.8954310" lon="1.3595640">
        <ele>703.0</ele>
        <time>2020-07-29T11:53:53Z</time>
      </trkpt>
      <trkpt lat="42.8953990" lon="1.3597260">
        <ele>704.0</ele>
        <time>2020-07-29T11:53:57Z</time>
      </trkpt>
      <trkpt lat="42.8953940" lon="1.3597630">
        <ele>704.3</ele>
        <time>2020-07-29T11:53:58Z</time>
      </trkpt>
      <trkpt lat="42.8954140" lon="1.3599820">
        <ele>705.7</ele>
        <time>2020-07-29T11:54:03Z</time>
      </trkpt>
      <trkpt lat="42.8954270" lon="1.3600270">
        <ele>706.0</ele>
        <time>2020-07-29T11:54:04Z</time>
      </trkpt>
      <trkpt lat="42.8955390" lon="1.3602670">
        <ele>707.8</ele>
        <time>2020-07-29T11:54:10Z</time>
      </trkpt>
      <trkpt lat="42.8956640" lon="1.3604040">
        <ele>709.0</ele>
        <time>2020-07-29T11:54:16Z</time>
      </trkpt>
      <trkpt lat="42.8956870" lon="1.3604060">
        <ele>709.1</ele>
        <time>2020-07-29T11:54:17Z</time>
      </trkpt>
      <trkpt lat="42.8957770" lon="1.3603790">
        <ele>709.5</ele>
        <time>2020-07-29T11:54:21Z</time>
      </trkpt>
      <trkpt lat="42.8958010" lon="1.3603700">
        <ele>709.6</ele>
        <time>2020-07-29T11:54:22Z</time>
      </trkpt>
      <trkpt lat="42.8958860" lon="1.3603420">
        <ele>709.8</ele>
        <time>2020-07-29T11:54:25Z</time>
      </trkpt>
      <trkpt lat="42.8959100" lon="1.3603370">
        <ele>709.9</ele>
        <time>2020-07-29T11:54:26Z</time>
      </trkpt>
      <trkpt lat="42.8959950" lon="1.3603110">
        <ele>710.0</ele>
        <time>2020-07-29T11:54:31Z</time>
      </trkpt>
      <trkpt lat="42.8960400" lon="1.3602890">
        <ele>710.2</ele>
        <time>2020-07-29T11:54:34Z</time>
      </trkpt>
      <trkpt lat="42.8960670" lon="1.3602760">
        <ele>710.3</ele>
        <time>2020-07-29T11:54:36Z</time>
      </trkpt>
      <trkpt lat="42.8960860" lon="1.3602680">
        <ele>710.4</ele>
        <time>2020-07-29T11:54:37Z</time>
      </trkpt>
      <trkpt lat="42.8962350" lon="1.3602250">
        <ele>711.1</ele>
        <time>2020-07-29T11:54:42Z</time>
      </trkpt>
      <trkpt lat="42.8962710" lon="1.3602170">
        <ele>711.3</ele>
        <time>2020-07-29T11:54:43Z</time>
      </trkpt>
      <trkpt lat="42.8964280" lon="1.3601890">
        <ele>712.5</ele>
        <time>2020-07-29T11:54:48Z</time>
      </trkpt>
      <trkpt lat="42.8965000" lon="1.3601890">
        <ele>712.9</ele>
        <time>2020-07-29T11:54:50Z</time>
      </trkpt>
      <trkpt lat="42.8966540" lon="1.3602020">
        <ele>713.7</ele>
        <time>2020-07-29T11:54:54Z</time>
      </trkpt>
      <trkpt lat="42.8967280" lon="1.3602200">
        <ele>714.0</ele>
        <time>2020-07-29T11:54:56Z</time>
      </trkpt>
      <trkpt lat="42.8969020" lon="1.3602820">
        <ele>715.1</ele>
        <time>2020-07-29T11:55:00Z</time>
      </trkpt>
      <trkpt lat="42.8970420" lon="1.3603690">
        <ele>716.1</ele>
        <time>2020-07-29T11:55:04Z</time>
      </trkpt>
      <trkpt lat="42.8971000" lon="1.3604130">
        <ele>716.5</ele>
        <time>2020-07-29T11:55:06Z</time>
      </trkpt>
      <trkpt lat="42.8972240" lon="1.3605230">
        <ele>717.4</ele>
        <time>2020-07-29T11:55:11Z</time>
      </trkpt>
      <trkpt lat="42.8972460" lon="1.3605440">
        <ele>717.6</ele>
        <time>2020-07-29T11:55:12Z</time>
      </trkpt>
      <trkpt lat="42.8973390" lon="1.3606280">
        <ele>718.3</ele>
        <time>2020-07-29T11:55:16Z</time>
      </trkpt>
      <trkpt lat="42.8973610" lon="1.3606530">
        <ele>718.5</ele>
        <time>2020-07-29T11:55:17Z</time>
      </trkpt>
      <trkpt lat="42.8974650" lon="1.3607530">
        <ele>719.3</ele>
        <time>2020-07-29T11:55:21Z</time>
      </trkpt>
      <trkpt lat="42.8975410" lon="1.3608400">
        <ele>720.0</ele>
        <time>2020-07-29T11:55:24Z</time>
      </trkpt>
      <trkpt lat="42.8976070" lon="1.3609180">
        <ele>720.7</ele>
        <time>2020-07-29T11:55:27Z</time>
      </trkpt>
      <trkpt lat="42.8977370" lon="1.3610500">
        <ele>722.0</ele>
        <time>2020-07-29T11:55:32Z</time>
      </trkpt>
      <trkpt lat="42.8978440" lon="1.3611890">
        <ele>723.5</ele>
        <time>2020-07-29T11:55:37Z</time>
      </trkpt>
      <trkpt lat="42.8978640" lon="1.3612170">
        <ele>723.8</ele>
        <time>2020-07-29T11:55:38Z</time>
      </trkpt>
      <trkpt lat="42.8979920" lon="1.3613690">
        <ele>725.1</ele>
        <time>2020-07-29T11:55:44Z</time>
      </trkpt>
      <trkpt lat="42.8980150" lon="1.3613810">
        <ele>725.2</ele>
        <time>2020-07-29T11:55:45Z</time>
      </trkpt>
      <trkpt lat="42.8980950" lon="1.3614030">
        <ele>725.7</ele>
        <time>2020-07-29T11:55:49Z</time>
      </trkpt>
      <trkpt lat="42.8981520" lon="1.3614050">
        <ele>725.9</ele>
        <time>2020-07-29T11:55:51Z</time>
      </trkpt>
      <trkpt lat="42.8982950" lon="1.3613990">
        <ele>726.4</ele>
        <time>2020-07-29T11:55:56Z</time>
      </trkpt>
      <trkpt lat="42.8984120" lon="1.3614050">
        <ele>726.8</ele>
        <time>2020-07-29T11:56:02Z</time>
      </trkpt>
      <trkpt lat="42.8985610" lon="1.3613420">
        <ele>727.6</ele>
        <time>2020-07-29T11:56:08Z</time>
      </trkpt>
      <trkpt lat="42.8987490" lon="1.3612350">
        <ele>729.0</ele>
        <time>2020-07-29T11:56:14Z</time>
      </trkpt>
      <trkpt lat="42.8987830" lon="1.3612150">
        <ele>729.3</ele>
        <time>2020-07-29T11:56:15Z</time>
      </trkpt>
      <trkpt lat="42.8988960" lon="1.3611290">
        <ele>730.3</ele>
        <time>2020-07-29T11:56:19Z</time>
      </trkpt>
      <trkpt lat="42.8990540" lon="1.3610260">
        <ele>731.6</ele>
        <time>2020-07-29T11:56:24Z</time>
      </trkpt>
      <trkpt lat="42.8991120" lon="1.3609920">
        <ele>732.2</ele>
        <time>2020-07-29T11:56:26Z</time>
      </trkpt>
      <trkpt lat="42.8992600" lon="1.3608720">
        <ele>733.7</ele>
        <time>2020-07-29T11:56:31Z</time>
      </trkpt>
      <trkpt lat="42.8992900" lon="1.3608410">
        <ele>734.1</ele>
        <time>2020-07-29T11:56:32Z</time>
      </trkpt>
      <trkpt lat="42.8994300" lon="1.3606610">
        <ele>736.2</ele>
        <time>2020-07-29T11:56:38Z</time>
      </trkpt>
      <trkpt lat="42.8994750" lon="1.3606200">
        <ele>736.8</ele>
        <time>2020-07-29T11:56:40Z</time>
      </trkpt>
      <trkpt lat="42.8995520" lon="1.3606300">
        <ele>737.5</ele>
        <time>2020-07-29T11:56:42Z</time>
      </trkpt>
      <trkpt lat="42.8996420" lon="1.3607190">
        <ele>738.0</ele>
        <time>2020-07-29T11:56:45Z</time>
      </trkpt>
      <trkpt lat="42.8996570" lon="1.3607640">
        <ele>738.1</ele>
        <time>2020-07-29T11:56:46Z</time>
      </trkpt>
      <trkpt lat="42.8996580" lon="1.3609550">
        <ele>738.1</ele>
        <time>2020-07-29T11:56:50Z</time>
      </trkpt>
      <trkpt lat="42.8996450" lon="1.3610710">
        <ele>738.1</ele>
        <time>2020-07-29T11:56:52Z</time>
      </trkpt>
      <trkpt lat="42.8995690" lon="1.3612640">
        <ele>738.3</ele>
        <time>2020-07-29T11:56:57Z</time>
      </trkpt>
      <trkpt lat="42.8994850" lon="1.3613940">
        <ele>738.9</ele>
        <time>2020-07-29T11:57:01Z</time>
      </trkpt>
      <trkpt lat="42.8994430" lon="1.3614550">
        <ele>739.3</ele>
        <time>2020-07-29T11:57:03Z</time>
      </trkpt>
      <trkpt lat="42.8993820" lon="1.3615500">
        <ele>740.0</ele>
        <time>2020-07-29T11:57:06Z</time>
      </trkpt>
      <trkpt lat="42.8993170" lon="1.3616580">
        <ele>740.9</ele>
        <time>2020-07-29T11:57:09Z</time>
      </trkpt>
      <trkpt lat="42.8992680" lon="1.3617320">
        <ele>741.6</ele>
        <time>2020-07-29T11:57:11Z</time>
      </trkpt>
      <trkpt lat="42.8991860" lon="1.3619150">
        <ele>742.8</ele>
        <time>2020-07-29T11:57:16Z</time>
      </trkpt>
      <trkpt lat="42.8991830" lon="1.3619950">
        <ele>743.1</ele>
        <time>2020-07-29T11:57:18Z</time>
      </trkpt>
      <trkpt lat="42.8992210" lon="1.3621050">
        <ele>743.5</ele>
        <time>2020-07-29T11:57:21Z</time>
      </trkpt>
      <trkpt lat="42.8992830" lon="1.3622020">
        <ele>743.6</ele>
        <time>2020-07-29T11:57:24Z</time>
      </trkpt>
      <trkpt lat="42.8993430" lon="1.3622320">
        <ele>743.7</ele>
        <time>2020-07-29T11:57:26Z</time>
      </trkpt>
      <trkpt lat="42.8995050" lon="1.3623060">
        <ele>743.7</ele>
        <time>2020-07-29T11:57:31Z</time>
      </trkpt>
      <trkpt lat="42.8995600" lon="1.3623390">
        <ele>743.8</ele>
        <time>2020-07-29T11:57:33Z</time>
      </trkpt>
      <trkpt lat="42.8996690" lon="1.3623990">
        <ele>744.2</ele>
        <time>2020-07-29T11:57:37Z</time>
      </trkpt>
      <trkpt lat="42.8997810" lon="1.3624710">
        <ele>744.7</ele>
        <time>2020-07-29T11:57:41Z</time>
      </trkpt>
      <trkpt lat="42.8998120" lon="1.3624860">
        <ele>744.9</ele>
        <time>2020-07-29T11:57:42Z</time>
      </trkpt>
      <trkpt lat="42.8999610" lon="1.3625710">
        <ele>745.8</ele>
        <time>2020-07-29T11:57:47Z</time>
      </trkpt>
      <trkpt lat="42.9000750" lon="1.3626510">
        <ele>746.6</ele>
        <time>2020-07-29T11:57:51Z</time>
      </trkpt>
      <trkpt lat="42.9001030" lon="1.3626730">
        <ele>746.8</ele>
        <time>2020-07-29T11:57:52Z</time>
      </trkpt>
      <trkpt lat="42.9002050" lon="1.3627630">
        <ele>747.7</ele>
        <time>2020-07-29T11:57:56Z</time>
      </trkpt>
      <trkpt lat="42.9003380" lon="1.3628950">
        <ele>748.9</ele>
        <time>2020-07-29T11:58:01Z</time>
      </trkpt>
      <trkpt lat="42.9003640" lon="1.3629210">
        <ele>749.1</ele>
        <time>2020-07-29T11:58:02Z</time>
      </trkpt>
      <trkpt lat="42.9005430" lon="1.3630540">
        <ele>750.3</ele>
        <time>2020-07-29T11:58:08Z</time>
      </trkpt>
      <trkpt lat="42.9007360" lon="1.3630820">
        <ele>751.4</ele>
        <time>2020-07-29T11:58:14Z</time>
      </trkpt>
      <trkpt lat="42.9009230" lon="1.3630460">
        <ele>752.4</ele>
        <time>2020-07-29T11:58:20Z</time>
      </trkpt>
      <trkpt lat="42.9009770" lon="1.3630350">
        <ele>752.8</ele>
        <time>2020-07-29T11:58:22Z</time>
      </trkpt>
      <trkpt lat="42.9010820" lon="1.3630140">
        <ele>753.5</ele>
        <time>2020-07-29T11:58:27Z</time>
      </trkpt>
      <trkpt lat="42.9011190" lon="1.3630080">
        <ele>753.8</ele>
        <time>2020-07-29T11:58:28Z</time>
      </trkpt>
      <trkpt lat="42.9013030" lon="1.3629900">
        <ele>755.3</ele>
        <time>2020-07-29T11:58:34Z</time>
      </trkpt>
      <trkpt lat="42.9013270" lon="1.3629860">
        <ele>755.5</ele>
        <time>2020-07-29T11:58:35Z</time>
      </trkpt>
      <trkpt lat="42.9014420" lon="1.3629600">
        <ele>756.7</ele>
        <time>2020-07-29T11:58:39Z</time>
      </trkpt>
      <trkpt lat="42.9015100" lon="1.3629400">
        <ele>757.5</ele>
        <time>2020-07-29T11:58:42Z</time>
      </trkpt>
      <trkpt lat="42.9015590" lon="1.3629100">
        <ele>758.1</ele>
        <time>2020-07-29T11:58:45Z</time>
      </trkpt>
      <trkpt lat="42.9016280" lon="1.3628790">
        <ele>759.0</ele>
        <time>2020-07-29T11:58:48Z</time>
      </trkpt>
      <trkpt lat="42.9016800" lon="1.3628540">
        <ele>759.7</ele>
        <time>2020-07-29T11:58:50Z</time>
      </trkpt>
      <trkpt lat="42.9017630" lon="1.3628440">
        <ele>760.8</ele>
        <time>2020-07-29T11:58:53Z</time>
      </trkpt>
      <trkpt lat="42.9019270" lon="1.3629080">
        <ele>762.5</ele>
        <time>2020-07-29T11:58:57Z</time>
      </trkpt>
      <trkpt lat="42.9019770" lon="1.3631080">
        <ele>763.0</ele>
        <time>2020-07-29T11:59:02Z</time>
      </trkpt>
      <trkpt lat="42.9019650" lon="1.3631890">
        <ele>763.2</ele>
        <time>2020-07-29T11:59:04Z</time>
      </trkpt>
      <trkpt lat="42.9019270" lon="1.3633500">
        <ele>763.6</ele>
        <time>2020-07-29T11:59:08Z</time>
      </trkpt>
      <trkpt lat="42.9019170" lon="1.3633880">
        <ele>763.8</ele>
        <time>2020-07-29T11:59:09Z</time>
      </trkpt>
      <trkpt lat="42.9018810" lon="1.3635450">
        <ele>764.5</ele>
        <time>2020-07-29T11:59:13Z</time>
      </trkpt>
      <trkpt lat="42.9018450" lon="1.3637880">
        <ele>766.1</ele>
        <time>2020-07-29T11:59:19Z</time>
      </trkpt>
      <trkpt lat="42.9018850" lon="1.3639440">
        <ele>767.1</ele>
        <time>2020-07-29T11:59:23Z</time>
      </trkpt>
      <trkpt lat="42.9019070" lon="1.3639750">
        <ele>767.4</ele>
        <time>2020-07-29T11:59:24Z</time>
      </trkpt>
      <trkpt lat="42.9020420" lon="1.3640560">
        <ele>768.3</ele>
        <time>2020-07-29T11:59:29Z</time>
      </trkpt>
      <trkpt lat="42.9022150" lon="1.3640970">
        <ele>769.5</ele>
        <time>2020-07-29T11:59:35Z</time>
      </trkpt>
      <trkpt lat="42.9022500" lon="1.3641010">
        <ele>769.7</ele>
        <time>2020-07-29T11:59:36Z</time>
      </trkpt>
      <trkpt lat="42.9023360" lon="1.3641220">
        <ele>770.3</ele>
        <time>2020-07-29T11:59:39Z</time>
      </trkpt>
      <trkpt lat="42.9024340" lon="1.3641720">
        <ele>771.0</ele>
        <time>2020-07-29T11:59:43Z</time>
      </trkpt>
      <trkpt lat="42.9024880" lon="1.3642140">
        <ele>771.4</ele>
        <time>2020-07-29T11:59:45Z</time>
      </trkpt>
      <trkpt lat="42.9025780" lon="1.3643400">
        <ele>772.1</ele>
        <time>2020-07-29T11:59:49Z</time>
      </trkpt>
      <trkpt lat="42.9026280" lon="1.3644800">
        <ele>772.8</ele>
        <time>2020-07-29T11:59:52Z</time>
      </trkpt>
      <trkpt lat="42.9026450" lon="1.3645760">
        <ele>773.2</ele>
        <time>2020-07-29T11:59:54Z</time>
      </trkpt>
      <trkpt lat="42.9026640" lon="1.3647190">
        <ele>773.8</ele>
        <time>2020-07-29T11:59:57Z</time>
      </trkpt>
      <trkpt lat="42.9026900" lon="1.3649310">
        <ele>774.8</ele>
        <time>2020-07-29T12:00:02Z</time>
      </trkpt>
      <trkpt lat="42.9027120" lon="1.3650110">
        <ele>775.2</ele>
        <time>2020-07-29T12:00:04Z</time>
      </trkpt>
      <trkpt lat="42.9028070" lon="1.3651920">
        <ele>776.2</ele>
        <time>2020-07-29T12:00:09Z</time>
      </trkpt>
      <trkpt lat="42.9028360" lon="1.3652170">
        <ele>776.4</ele>
        <time>2020-07-29T12:00:10Z</time>
      </trkpt>
      <trkpt lat="42.9029610" lon="1.3652850">
        <ele>777.2</ele>
        <time>2020-07-29T12:00:14Z</time>
      </trkpt>
      <trkpt lat="42.9029920" lon="1.3652990">
        <ele>777.4</ele>
        <time>2020-07-29T12:00:15Z</time>
      </trkpt>
      <trkpt lat="42.9031730" lon="1.3653540">
        <ele>778.8</ele>
        <time>2020-07-29T12:00:21Z</time>
      </trkpt>
      <trkpt lat="42.9032620" lon="1.3653640">
        <ele>779.6</ele>
        <time>2020-07-29T12:00:24Z</time>
      </trkpt>
      <trkpt lat="42.9033790" lon="1.3653810">
        <ele>780.8</ele>
        <time>2020-07-29T12:00:28Z</time>
      </trkpt>
      <trkpt lat="42.9034730" lon="1.3654160">
        <ele>781.7</ele>
        <time>2020-07-29T12:00:31Z</time>
      </trkpt>
      <trkpt lat="42.9034980" lon="1.3654420">
        <ele>782.0</ele>
        <time>2020-07-29T12:00:32Z</time>
      </trkpt>
      <trkpt lat="42.9035420" lon="1.3655560">
        <ele>782.6</ele>
        <time>2020-07-29T12:00:35Z</time>
      </trkpt>
      <trkpt lat="42.9035170" lon="1.3656740">
        <ele>783.1</ele>
        <time>2020-07-29T12:00:38Z</time>
      </trkpt>
      <trkpt lat="42.9035010" lon="1.3657090">
        <ele>783.2</ele>
        <time>2020-07-29T12:00:39Z</time>
      </trkpt>
      <trkpt lat="42.9034100" lon="1.3658870">
        <ele>783.8</ele>
        <time>2020-07-29T12:00:44Z</time>
      </trkpt>
      <trkpt lat="42.9033530" lon="1.3660430">
        <ele>784.4</ele>
        <time>2020-07-29T12:00:48Z</time>
      </trkpt>
      <trkpt lat="42.9033300" lon="1.3661230">
        <ele>784.7</ele>
        <time>2020-07-29T12:00:50Z</time>
      </trkpt>
      <trkpt lat="42.9032810" lon="1.3663730">
        <ele>785.8</ele>
        <time>2020-07-29T12:00:56Z</time>
      </trkpt>
      <trkpt lat="42.9032680" lon="1.3664560">
        <ele>786.2</ele>
        <time>2020-07-29T12:00:58Z</time>
      </trkpt>
      <trkpt lat="42.9032550" lon="1.3665420">
        <ele>786.7</ele>
        <time>2020-07-29T12:01:00Z</time>
      </trkpt>
      <trkpt lat="42.9032260" lon="1.3667530">
        <ele>787.8</ele>
        <time>2020-07-29T12:01:05Z</time>
      </trkpt>
      <trkpt lat="42.9032130" lon="1.3668780">
        <ele>788.5</ele>
        <time>2020-07-29T12:01:08Z</time>
      </trkpt>
      <trkpt lat="42.9032190" lon="1.3670080">
        <ele>789.3</ele>
        <time>2020-07-29T12:01:11Z</time>
      </trkpt>
      <trkpt lat="42.9032660" lon="1.3672130">
        <ele>790.4</ele>
        <time>2020-07-29T12:01:16Z</time>
      </trkpt>
      <trkpt lat="42.9032820" lon="1.3672510">
        <ele>790.6</ele>
        <time>2020-07-29T12:01:17Z</time>
      </trkpt>
      <trkpt lat="42.9034030" lon="1.3674710">
        <ele>791.8</ele>
        <time>2020-07-29T12:01:23Z</time>
      </trkpt>
      <trkpt lat="42.9034230" lon="1.3675060">
        <ele>792.0</ele>
        <time>2020-07-29T12:01:24Z</time>
      </trkpt>
      <trkpt lat="42.9035420" lon="1.3677250">
        <ele>793.0</ele>
        <time>2020-07-29T12:01:30Z</time>
      </trkpt>
      <trkpt lat="42.9035600" lon="1.3677650">
        <ele>793.0</ele>
        <time>2020-07-29T12:01:31Z</time>
      </trkpt>
      <trkpt lat="42.9036440" lon="1.3680320">
        <ele>793.4</ele>
        <time>2020-07-29T12:01:37Z</time>
      </trkpt>
      <trkpt lat="42.9036650" lon="1.3681210">
        <ele>793.6</ele>
        <time>2020-07-29T12:01:39Z</time>
      </trkpt>
      <trkpt lat="42.9036860" lon="1.3683120">
        <ele>793.9</ele>
        <time>2020-07-29T12:01:43Z</time>
      </trkpt>
      <trkpt lat="42.9036950" lon="1.3684600">
        <ele>794.1</ele>
        <time>2020-07-29T12:01:46Z</time>
      </trkpt>
      <trkpt lat="42.9037280" lon="1.3686510">
        <ele>794.2</ele>
        <time>2020-07-29T12:01:50Z</time>
      </trkpt>
      <trkpt lat="42.9037760" lon="1.3687920">
        <ele>794.4</ele>
        <time>2020-07-29T12:01:53Z</time>
      </trkpt>
      <trkpt lat="42.9038030" lon="1.3688350">
        <ele>794.6</ele>
        <time>2020-07-29T12:01:54Z</time>
      </trkpt>
      <trkpt lat="42.9038700" lon="1.3689130">
        <ele>795.0</ele>
        <time>2020-07-29T12:01:56Z</time>
      </trkpt>
      <trkpt lat="42.9039480" lon="1.3689790">
        <ele>795.3</ele>
        <time>2020-07-29T12:01:58Z</time>
      </trkpt>
      <trkpt lat="42.9039880" lon="1.3690090">
        <ele>795.5</ele>
        <time>2020-07-29T12:01:59Z</time>
      </trkpt>
      <trkpt lat="42.9040320" lon="1.3690330">
        <ele>795.6</ele>
        <time>2020-07-29T12:02:00Z</time>
      </trkpt>
      <trkpt lat="42.9041790" lon="1.3690850">
        <ele>796.2</ele>
        <time>2020-07-29T12:02:03Z</time>
      </trkpt>
      <trkpt lat="42.9042260" lon="1.3690910">
        <ele>796.4</ele>
        <time>2020-07-29T12:02:04Z</time>
      </trkpt>
      <trkpt lat="42.9044310" lon="1.3690920">
        <ele>797.3</ele>
        <time>2020-07-29T12:02:08Z</time>
      </trkpt>
      <trkpt lat="42.9045900" lon="1.3690640">
        <ele>797.9</ele>
        <time>2020-07-29T12:02:12Z</time>
      </trkpt>
      <trkpt lat="42.9048030" lon="1.3689840">
        <ele>798.9</ele>
        <time>2020-07-29T12:02:17Z</time>
      </trkpt>
      <trkpt lat="42.9048380" lon="1.3689640">
        <ele>799.0</ele>
        <time>2020-07-29T12:02:18Z</time>
      </trkpt>
      <trkpt lat="42.9048750" lon="1.3689440">
        <ele>799.2</ele>
        <time>2020-07-29T12:02:19Z</time>
      </trkpt>
      <trkpt lat="42.9049120" lon="1.3689170">
        <ele>799.4</ele>
        <time>2020-07-29T12:02:20Z</time>
      </trkpt>
      <trkpt lat="42.9050030" lon="1.3688650">
        <ele>799.8</ele>
        <time>2020-07-29T12:02:22Z</time>
      </trkpt>
      <trkpt lat="42.9051020" lon="1.3688680">
        <ele>800.2</ele>
        <time>2020-07-29T12:02:24Z</time>
      </trkpt>
      <trkpt lat="42.9051870" lon="1.3689490">
        <ele>800.5</ele>
        <time>2020-07-29T12:02:26Z</time>
      </trkpt>
      <trkpt lat="42.9052080" lon="1.3690040">
        <ele>800.6</ele>
        <time>2020-07-29T12:02:27Z</time>
      </trkpt>
      <trkpt lat="42.9052240" lon="1.3690630">
        <ele>800.8</ele>
        <time>2020-07-29T12:02:28Z</time>
      </trkpt>
      <trkpt lat="42.9053580" lon="1.3694320">
        <ele>801.5</ele>
        <time>2020-07-29T12:02:34Z</time>
      </trkpt>
      <trkpt lat="42.9054230" lon="1.3695410">
        <ele>801.8</ele>
        <time>2020-07-29T12:02:36Z</time>
      </trkpt>
      <trkpt lat="42.9054610" lon="1.3695830">
        <ele>802.0</ele>
        <time>2020-07-29T12:02:37Z</time>
      </trkpt>
      <trkpt lat="42.9055820" lon="1.3697200">
        <ele>802.6</ele>
        <time>2020-07-29T12:02:40Z</time>
      </trkpt>
      <trkpt lat="42.9057810" lon="1.3699410">
        <ele>803.6</ele>
        <time>2020-07-29T12:02:45Z</time>
      </trkpt>
      <trkpt lat="42.9058600" lon="1.3700130">
        <ele>803.7</ele>
        <time>2020-07-29T12:02:47Z</time>
      </trkpt>
      <trkpt lat="42.9059040" lon="1.3700440">
        <ele>803.8</ele>
        <time>2020-07-29T12:02:48Z</time>
      </trkpt>
      <trkpt lat="42.9060870" lon="1.3701180">
        <ele>804.2</ele>
        <time>2020-07-29T12:02:52Z</time>
      </trkpt>
      <trkpt lat="42.9061690" lon="1.3701540">
        <ele>804.4</ele>
        <time>2020-07-29T12:02:54Z</time>
      </trkpt>
      <trkpt lat="42.9064070" lon="1.3702300">
        <ele>805.0</ele>
        <time>2020-07-29T12:02:59Z</time>
      </trkpt>
      <trkpt lat="42.9066890" lon="1.3702720">
        <ele>805.6</ele>
        <time>2020-07-29T12:03:05Z</time>
      </trkpt>
      <trkpt lat="42.9068320" lon="1.3702950">
        <ele>805.9</ele>
        <time>2020-07-29T12:03:09Z</time>
      </trkpt>
      <trkpt lat="42.9068640" lon="1.3703010">
        <ele>805.9</ele>
        <time>2020-07-29T12:03:10Z</time>
      </trkpt>
      <trkpt lat="42.9070880" lon="1.3703440">
        <ele>806.4</ele>
        <time>2020-07-29T12:03:15Z</time>
      </trkpt>
      <trkpt lat="42.9073160" lon="1.3703630">
        <ele>807.0</ele>
        <time>2020-07-29T12:03:21Z</time>
      </trkpt>
      <trkpt lat="42.9074190" lon="1.3703480">
        <ele>807.3</ele>
        <time>2020-07-29T12:03:23Z</time>
      </trkpt>
      <trkpt lat="42.9074760" lon="1.3703640">
        <ele>807.5</ele>
        <time>2020-07-29T12:03:24Z</time>
      </trkpt>
      <trkpt lat="42.9075160" lon="1.3704130">
        <ele>807.6</ele>
        <time>2020-07-29T12:03:25Z</time>
      </trkpt>
      <trkpt lat="42.9075260" lon="1.3706120">
        <ele>807.9</ele>
        <time>2020-07-29T12:03:28Z</time>
      </trkpt>
      <trkpt lat="42.9074460" lon="1.3708100">
        <ele>808.1</ele>
        <time>2020-07-29T12:03:32Z</time>
      </trkpt>
      <trkpt lat="42.9073930" lon="1.3708640">
        <ele>808.3</ele>
        <time>2020-07-29T12:03:34Z</time>
      </trkpt>
      <trkpt lat="42.9073140" lon="1.3708910">
        <ele>808.5</ele>
        <time>2020-07-29T12:03:36Z</time>
      </trkpt>
      <trkpt lat="42.9072240" lon="1.3709000">
        <ele>808.8</ele>
        <time>2020-07-29T12:03:38Z</time>
      </trkpt>
      <trkpt lat="42.9071610" lon="1.3709680">
        <ele>809.0</ele>
        <time>2020-07-29T12:03:40Z</time>
      </trkpt>
      <trkpt lat="42.9071090" lon="1.3710840">
        <ele>809.3</ele>
        <time>2020-07-29T12:03:42Z</time>
      </trkpt>
      <trkpt lat="42.9070820" lon="1.3711420">
        <ele>809.5</ele>
        <time>2020-07-29T12:03:43Z</time>
      </trkpt>
      <trkpt lat="42.9070430" lon="1.3712580">
        <ele>809.9</ele>
        <time>2020-07-29T12:03:45Z</time>
      </trkpt>
      <trkpt lat="42.9070390" lon="1.3714300">
        <ele>810.5</ele>
        <time>2020-07-29T12:03:48Z</time>
      </trkpt>
      <trkpt lat="42.9070480" lon="1.3714840">
        <ele>810.7</ele>
        <time>2020-07-29T12:03:49Z</time>
      </trkpt>
      <trkpt lat="42.9070720" lon="1.3715800">
        <ele>811.2</ele>
        <time>2020-07-29T12:03:51Z</time>
      </trkpt>
      <trkpt lat="42.9070850" lon="1.3716280">
        <ele>811.4</ele>
        <time>2020-07-29T12:03:52Z</time>
      </trkpt>
      <trkpt lat="42.9071150" lon="1.3717600">
        <ele>812.1</ele>
        <time>2020-07-29T12:03:55Z</time>
      </trkpt>
      <trkpt lat="42.9071120" lon="1.3718120">
        <ele>812.4</ele>
        <time>2020-07-29T12:03:56Z</time>
      </trkpt>
      <trkpt lat="42.9071010" lon="1.3718640">
        <ele>812.6</ele>
        <time>2020-07-29T12:03:57Z</time>
      </trkpt>
      <trkpt lat="42.9070830" lon="1.3719140">
        <ele>812.9</ele>
        <time>2020-07-29T12:03:58Z</time>
      </trkpt>
      <trkpt lat="42.9069790" lon="1.3719940">
        <ele>813.6</ele>
        <time>2020-07-29T12:04:02Z</time>
      </trkpt>
      <trkpt lat="42.9068970" lon="1.3720370">
        <ele>814.1</ele>
        <time>2020-07-29T12:04:05Z</time>
      </trkpt>
      <trkpt lat="42.9068390" lon="1.3720960">
        <ele>814.4</ele>
        <time>2020-07-29T12:04:07Z</time>
      </trkpt>
      <trkpt lat="42.9067460" lon="1.3722030">
        <ele>814.8</ele>
        <time>2020-07-29T12:04:10Z</time>
      </trkpt>
      <trkpt lat="42.9066230" lon="1.3723270">
        <ele>815.3</ele>
        <time>2020-07-29T12:04:14Z</time>
      </trkpt>
      <trkpt lat="42.9065890" lon="1.3723590">
        <ele>815.5</ele>
        <time>2020-07-29T12:04:15Z</time>
      </trkpt>
      <trkpt lat="42.9064370" lon="1.3725140">
        <ele>816.3</ele>
        <time>2020-07-29T12:04:20Z</time>
      </trkpt>
      <trkpt lat="42.9063850" lon="1.3725670">
        <ele>816.7</ele>
        <time>2020-07-29T12:04:22Z</time>
      </trkpt>
      <trkpt lat="42.9063610" lon="1.3725960">
        <ele>816.8</ele>
        <time>2020-07-29T12:04:23Z</time>
      </trkpt>
      <trkpt lat="42.9062500" lon="1.3727550">
        <ele>817.7</ele>
        <time>2020-07-29T12:04:28Z</time>
      </trkpt>
      <trkpt lat="42.9061300" lon="1.3730450">
        <ele>819.2</ele>
        <time>2020-07-29T12:04:35Z</time>
      </trkpt>
      <trkpt lat="42.9061080" lon="1.3731270">
        <ele>819.6</ele>
        <time>2020-07-29T12:04:37Z</time>
      </trkpt>
      <trkpt lat="42.9060900" lon="1.3732830">
        <ele>820.3</ele>
        <time>2020-07-29T12:04:41Z</time>
      </trkpt>
      <trkpt lat="42.9060860" lon="1.3733970">
        <ele>820.9</ele>
        <time>2020-07-29T12:04:44Z</time>
      </trkpt>
      <trkpt lat="42.9060830" lon="1.3735210">
        <ele>821.5</ele>
        <time>2020-07-29T12:04:47Z</time>
      </trkpt>
      <trkpt lat="42.9060890" lon="1.3736870">
        <ele>822.3</ele>
        <time>2020-07-29T12:04:51Z</time>
      </trkpt>
      <trkpt lat="42.9060980" lon="1.3737720">
        <ele>822.7</ele>
        <time>2020-07-29T12:04:53Z</time>
      </trkpt>
      <trkpt lat="42.9061230" lon="1.3739400">
        <ele>823.5</ele>
        <time>2020-07-29T12:04:57Z</time>
      </trkpt>
      <trkpt lat="42.9061650" lon="1.3741960">
        <ele>824.7</ele>
        <time>2020-07-29T12:05:03Z</time>
      </trkpt>
      <trkpt lat="42.9062720" lon="1.3744270">
        <ele>825.9</ele>
        <time>2020-07-29T12:05:09Z</time>
      </trkpt>
      <trkpt lat="42.9063630" lon="1.3744880">
        <ele>826.5</ele>
        <time>2020-07-29T12:05:12Z</time>
      </trkpt>
      <trkpt lat="42.9064560" lon="1.3745360">
        <ele>827.1</ele>
        <time>2020-07-29T12:05:15Z</time>
      </trkpt>
      <trkpt lat="42.9065180" lon="1.3745710">
        <ele>827.6</ele>
        <time>2020-07-29T12:05:17Z</time>
      </trkpt>
      <trkpt lat="42.9066410" lon="1.3746340">
        <ele>828.3</ele>
        <time>2020-07-29T12:05:21Z</time>
      </trkpt>
      <trkpt lat="42.9066730" lon="1.3746450">
        <ele>828.5</ele>
        <time>2020-07-29T12:05:22Z</time>
      </trkpt>
      <trkpt lat="42.9067720" lon="1.3746800">
        <ele>829.1</ele>
        <time>2020-07-29T12:05:25Z</time>
      </trkpt>
      <trkpt lat="42.9069260" lon="1.3747300">
        <ele>830.1</ele>
        <time>2020-07-29T12:05:30Z</time>
      </trkpt>
      <trkpt lat="42.9069510" lon="1.3747410">
        <ele>830.3</ele>
        <time>2020-07-29T12:05:31Z</time>
      </trkpt>
      <trkpt lat="42.9070770" lon="1.3747920">
        <ele>831.3</ele>
        <time>2020-07-29T12:05:36Z</time>
      </trkpt>
      <trkpt lat="42.9072070" lon="1.3748440">
        <ele>832.4</ele>
        <time>2020-07-29T12:05:41Z</time>
      </trkpt>
      <trkpt lat="42.9072380" lon="1.3748530">
        <ele>832.7</ele>
        <time>2020-07-29T12:05:42Z</time>
      </trkpt>
      <trkpt lat="42.9073580" lon="1.3749150">
        <ele>834.0</ele>
        <time>2020-07-29T12:05:46Z</time>
      </trkpt>
      <trkpt lat="42.9074150" lon="1.3749680">
        <ele>834.7</ele>
        <time>2020-07-29T12:05:48Z</time>
      </trkpt>
      <trkpt lat="42.9074330" lon="1.3750000">
        <ele>835.0</ele>
        <time>2020-07-29T12:05:49Z</time>
      </trkpt>
      <trkpt lat="42.9074380" lon="1.3750780">
        <ele>835.5</ele>
        <time>2020-07-29T12:05:51Z</time>
      </trkpt>
      <trkpt lat="42.9074130" lon="1.3751600">
        <ele>835.9</ele>
        <time>2020-07-29T12:05:53Z</time>
      </trkpt>
      <trkpt lat="42.9073550" lon="1.3752700">
        <ele>836.5</ele>
        <time>2020-07-29T12:05:56Z</time>
      </trkpt>
      <trkpt lat="42.9073320" lon="1.3753120">
        <ele>836.6</ele>
        <time>2020-07-29T12:05:57Z</time>
      </trkpt>
      <trkpt lat="42.9073100" lon="1.3753540">
        <ele>836.8</ele>
        <time>2020-07-29T12:05:58Z</time>
      </trkpt>
      <trkpt lat="42.9072390" lon="1.3755130">
        <ele>837.3</ele>
        <time>2020-07-29T12:06:02Z</time>
      </trkpt>
      <trkpt lat="42.9072190" lon="1.3755940">
        <ele>837.6</ele>
        <time>2020-07-29T12:06:04Z</time>
      </trkpt>
      <trkpt lat="42.9072040" lon="1.3756770">
        <ele>837.9</ele>
        <time>2020-07-29T12:06:06Z</time>
      </trkpt>
      <trkpt lat="42.9071890" lon="1.3758700">
        <ele>838.7</ele>
        <time>2020-07-29T12:06:11Z</time>
      </trkpt>
      <trkpt lat="42.9071910" lon="1.3760090">
        <ele>839.2</ele>
        <time>2020-07-29T12:06:15Z</time>
      </trkpt>
      <trkpt lat="42.9071820" lon="1.3761710">
        <ele>839.9</ele>
        <time>2020-07-29T12:06:19Z</time>
      </trkpt>
      <trkpt lat="42.9071730" lon="1.3762460">
        <ele>840.3</ele>
        <time>2020-07-29T12:06:21Z</time>
      </trkpt>
      <trkpt lat="42.9071190" lon="1.3764840">
        <ele>841.6</ele>
        <time>2020-07-29T12:06:27Z</time>
      </trkpt>
      <trkpt lat="42.9071110" lon="1.3765230">
        <ele>841.8</ele>
        <time>2020-07-29T12:06:28Z</time>
      </trkpt>
      <trkpt lat="42.9070370" lon="1.3767960">
        <ele>843.5</ele>
        <time>2020-07-29T12:06:35Z</time>
      </trkpt>
      <trkpt lat="42.9070300" lon="1.3768390">
        <ele>843.8</ele>
        <time>2020-07-29T12:06:36Z</time>
      </trkpt>
      <trkpt lat="42.9070210" lon="1.3770160">
        <ele>844.8</ele>
        <time>2020-07-29T12:06:40Z</time>
      </trkpt>
      <trkpt lat="42.9070380" lon="1.3771060">
        <ele>845.3</ele>
        <time>2020-07-29T12:06:42Z</time>
      </trkpt>
      <trkpt lat="42.9070700" lon="1.3771910">
        <ele>845.8</ele>
        <time>2020-07-29T12:06:44Z</time>
      </trkpt>
      <trkpt lat="42.9071520" lon="1.3772930">
        <ele>846.4</ele>
        <time>2020-07-29T12:06:47Z</time>
      </trkpt>
      <trkpt lat="42.9072420" lon="1.3773690">
        <ele>847.0</ele>
        <time>2020-07-29T12:06:50Z</time>
      </trkpt>
      <trkpt lat="42.9074260" lon="1.3775070">
        <ele>848.4</ele>
        <time>2020-07-29T12:06:56Z</time>
      </trkpt>
      <trkpt lat="42.9075970" lon="1.3776330">
        <ele>849.9</ele>
        <time>2020-07-29T12:07:02Z</time>
      </trkpt>
      <trkpt lat="42.9076800" lon="1.3776880">
        <ele>850.7</ele>
        <time>2020-07-29T12:07:05Z</time>
      </trkpt>
      <trkpt lat="42.9077340" lon="1.3777310">
        <ele>851.3</ele>
        <time>2020-07-29T12:07:07Z</time>
      </trkpt>
      <trkpt lat="42.9078540" lon="1.3778740">
        <ele>852.8</ele>
        <time>2020-07-29T12:07:12Z</time>
      </trkpt>
      <trkpt lat="42.9078630" lon="1.3779140">
        <ele>853.0</ele>
        <time>2020-07-29T12:07:13Z</time>
      </trkpt>
      <trkpt lat="42.9078490" lon="1.3780390">
        <ele>853.7</ele>
        <time>2020-07-29T12:07:16Z</time>
      </trkpt>
      <trkpt lat="42.9078180" lon="1.3781090">
        <ele>854.0</ele>
        <time>2020-07-29T12:07:18Z</time>
      </trkpt>
      <trkpt lat="42.9077510" lon="1.3782180">
        <ele>854.4</ele>
        <time>2020-07-29T12:07:21Z</time>
      </trkpt>
      <trkpt lat="42.9076800" lon="1.3783130">
        <ele>854.8</ele>
        <time>2020-07-29T12:07:24Z</time>
      </trkpt>
      <trkpt lat="42.9075910" lon="1.3784260">
        <ele>855.4</ele>
        <time>2020-07-29T12:07:28Z</time>
      </trkpt>
      <trkpt lat="42.9074860" lon="1.3785910">
        <ele>856.2</ele>
        <time>2020-07-29T12:07:33Z</time>
      </trkpt>
      <trkpt lat="42.9074480" lon="1.3786560">
        <ele>856.5</ele>
        <time>2020-07-29T12:07:35Z</time>
      </trkpt>
      <trkpt lat="42.9074080" lon="1.3787340">
        <ele>856.9</ele>
        <time>2020-07-29T12:07:37Z</time>
      </trkpt>
      <trkpt lat="42.9073560" lon="1.3789100">
        <ele>857.9</ele>
        <time>2020-07-29T12:07:41Z</time>
      </trkpt>
      <trkpt lat="42.9072730" lon="1.3791460">
        <ele>859.3</ele>
        <time>2020-07-29T12:07:47Z</time>
      </trkpt>
      <trkpt lat="42.9072500" lon="1.3792280">
        <ele>859.9</ele>
        <time>2020-07-29T12:07:49Z</time>
      </trkpt>
      <trkpt lat="42.9072130" lon="1.3793910">
        <ele>860.8</ele>
        <time>2020-07-29T12:07:53Z</time>
      </trkpt>
      <trkpt lat="42.9071630" lon="1.3796780">
        <ele>862.4</ele>
        <time>2020-07-29T12:08:00Z</time>
      </trkpt>
      <trkpt lat="42.9071570" lon="1.3797200">
        <ele>862.6</ele>
        <time>2020-07-29T12:08:01Z</time>
      </trkpt>
      <trkpt lat="42.9071410" lon="1.3799710">
        <ele>864.0</ele>
        <time>2020-07-29T12:08:07Z</time>
      </trkpt>
      <trkpt lat="42.9071420" lon="1.3800990">
        <ele>864.7</ele>
        <time>2020-07-29T12:08:10Z</time>
      </trkpt>
      <trkpt lat="42.9071470" lon="1.3801830">
        <ele>865.2</ele>
        <time>2020-07-29T12:08:12Z</time>
      </trkpt>
      <trkpt lat="42.9071900" lon="1.3803850">
        <ele>866.5</ele>
        <time>2020-07-29T12:08:17Z</time>
      </trkpt>
      <trkpt lat="42.9073150" lon="1.3805720">
        <ele>868.0</ele>
        <time>2020-07-29T12:08:23Z</time>
      </trkpt>
      <trkpt lat="42.9074290" lon="1.3806630">
        <ele>869.0</ele>
        <time>2020-07-29T12:08:28Z</time>
      </trkpt>
      <trkpt lat="42.9074470" lon="1.3806770">
        <ele>869.1</ele>
        <time>2020-07-29T12:08:29Z</time>
      </trkpt>
      <trkpt lat="42.9074970" lon="1.3807340">
        <ele>869.6</ele>
        <time>2020-07-29T12:08:32Z</time>
      </trkpt>
      <trkpt lat="42.9075340" lon="1.3807660">
        <ele>869.9</ele>
        <time>2020-07-29T12:08:34Z</time>
      </trkpt>
      <trkpt lat="42.9076220" lon="1.3808050">
        <ele>870.6</ele>
        <time>2020-07-29T12:08:37Z</time>
      </trkpt>
      <trkpt lat="42.9076880" lon="1.3808320">
        <ele>871.0</ele>
        <time>2020-07-29T12:08:39Z</time>
      </trkpt>
      <trkpt lat="42.9077860" lon="1.3808540">
        <ele>871.7</ele>
        <time>2020-07-29T12:08:42Z</time>
      </trkpt>
      <trkpt lat="42.9078270" lon="1.3808590">
        <ele>871.9</ele>
        <time>2020-07-29T12:08:44Z</time>
      </trkpt>
      <trkpt lat="42.9079890" lon="1.3809010">
        <ele>873.1</ele>
        <time>2020-07-29T12:08:49Z</time>
      </trkpt>
      <trkpt lat="42.9082060" lon="1.3809520">
        <ele>874.7</ele>
        <time>2020-07-29T12:08:55Z</time>
      </trkpt>
      <trkpt lat="42.9084860" lon="1.3810390">
        <ele>876.9</ele>
        <time>2020-07-29T12:09:02Z</time>
      </trkpt>
      <trkpt lat="42.9086510" lon="1.3811020">
        <ele>878.3</ele>
        <time>2020-07-29T12:09:07Z</time>
      </trkpt>
      <trkpt lat="42.9086820" lon="1.3811140">
        <ele>878.6</ele>
        <time>2020-07-29T12:09:08Z</time>
      </trkpt>
      <trkpt lat="42.9088160" lon="1.3811400">
        <ele>879.6</ele>
        <time>2020-07-29T12:09:12Z</time>
      </trkpt>
      <trkpt lat="42.9088820" lon="1.3811450">
        <ele>880.2</ele>
        <time>2020-07-29T12:09:14Z</time>
      </trkpt>
      <trkpt lat="42.9089830" lon="1.3811520">
        <ele>881.0</ele>
        <time>2020-07-29T12:09:17Z</time>
      </trkpt>
      <trkpt lat="42.9091380" lon="1.3811550">
        <ele>882.3</ele>
        <time>2020-07-29T12:09:22Z</time>
      </trkpt>
      <trkpt lat="42.9092000" lon="1.3811590">
        <ele>882.7</ele>
        <time>2020-07-29T12:09:24Z</time>
      </trkpt>
      <trkpt lat="42.9093950" lon="1.3812280">
        <ele>884.2</ele>
        <time>2020-07-29T12:09:30Z</time>
      </trkpt>
      <trkpt lat="42.9094390" lon="1.3812930">
        <ele>884.7</ele>
        <time>2020-07-29T12:09:32Z</time>
      </trkpt>
      <trkpt lat="42.9094790" lon="1.3814060">
        <ele>885.4</ele>
        <time>2020-07-29T12:09:35Z</time>
      </trkpt>
      <trkpt lat="42.9094900" lon="1.3814860">
        <ele>885.8</ele>
        <time>2020-07-29T12:09:37Z</time>
      </trkpt>
      <trkpt lat="42.9094830" lon="1.3816860">
        <ele>886.9</ele>
        <time>2020-07-29T12:09:42Z</time>
      </trkpt>
      <trkpt lat="42.9094760" lon="1.3817260">
        <ele>887.1</ele>
        <time>2020-07-29T12:09:43Z</time>
      </trkpt>
      <trkpt lat="42.9094290" lon="1.3819730">
        <ele>888.5</ele>
        <time>2020-07-29T12:09:49Z</time>
      </trkpt>
      <trkpt lat="42.9094050" lon="1.3820990">
        <ele>889.2</ele>
        <time>2020-07-29T12:09:52Z</time>
      </trkpt>
      <trkpt lat="42.9093930" lon="1.3821850">
        <ele>889.7</ele>
        <time>2020-07-29T12:09:54Z</time>
      </trkpt>
      <trkpt lat="42.9094030" lon="1.3825010">
        <ele>891.4</ele>
        <time>2020-07-29T12:10:01Z</time>
      </trkpt>
      <trkpt lat="42.9094870" lon="1.3827180">
        <ele>892.9</ele>
        <time>2020-07-29T12:10:06Z</time>
      </trkpt>
      <trkpt lat="42.9095430" lon="1.3828360">
        <ele>893.9</ele>
        <time>2020-07-29T12:10:09Z</time>
      </trkpt>
      <trkpt lat="42.9095760" lon="1.3829090">
        <ele>894.5</ele>
        <time>2020-07-29T12:10:11Z</time>
      </trkpt>
      <trkpt lat="42.9096350" lon="1.3831070">
        <ele>895.8</ele>
        <time>2020-07-29T12:10:16Z</time>
      </trkpt>
      <trkpt lat="42.9096320" lon="1.3831480">
        <ele>895.9</ele>
        <time>2020-07-29T12:10:17Z</time>
      </trkpt>
      <trkpt lat="42.9095890" lon="1.3833030">
        <ele>896.5</ele>
        <time>2020-07-29T12:10:21Z</time>
      </trkpt>
      <trkpt lat="42.9095700" lon="1.3833350">
        <ele>896.6</ele>
        <time>2020-07-29T12:10:22Z</time>
      </trkpt>
      <trkpt lat="42.9094530" lon="1.3835090">
        <ele>897.4</ele>
        <time>2020-07-29T12:10:27Z</time>
      </trkpt>
      <trkpt lat="42.9093760" lon="1.3835930">
        <ele>898.0</ele>
        <time>2020-07-29T12:10:30Z</time>
      </trkpt>
      <trkpt lat="42.9093490" lon="1.3836210">
        <ele>898.2</ele>
        <time>2020-07-29T12:10:31Z</time>
      </trkpt>
      <trkpt lat="42.9092320" lon="1.3837650">
        <ele>899.2</ele>
        <time>2020-07-29T12:10:36Z</time>
      </trkpt>
      <trkpt lat="42.9091870" lon="1.3838290">
        <ele>899.6</ele>
        <time>2020-07-29T12:10:38Z</time>
      </trkpt>
      <trkpt lat="42.9091270" lon="1.3839310">
        <ele>900.2</ele>
        <time>2020-07-29T12:10:41Z</time>
      </trkpt>
      <trkpt lat="42.9090010" lon="1.3841220">
        <ele>901.4</ele>
        <time>2020-07-29T12:10:47Z</time>
      </trkpt>
      <trkpt lat="42.9088780" lon="1.3842430">
        <ele>902.4</ele>
        <time>2020-07-29T12:10:52Z</time>
      </trkpt>
      <trkpt lat="42.9087470" lon="1.3843660">
        <ele>903.5</ele>
        <time>2020-07-29T12:10:57Z</time>
      </trkpt>
      <trkpt lat="42.9087230" lon="1.3843920">
        <ele>903.7</ele>
        <time>2020-07-29T12:10:58Z</time>
      </trkpt>
      <trkpt lat="42.9086280" lon="1.3845050">
        <ele>904.6</ele>
        <time>2020-07-29T12:11:02Z</time>
      </trkpt>
      <trkpt lat="42.9085600" lon="1.3845930">
        <ele>905.3</ele>
        <time>2020-07-29T12:11:05Z</time>
      </trkpt>
      <trkpt lat="42.9085300" lon="1.3846600">
        <ele>905.7</ele>
        <time>2020-07-29T12:11:07Z</time>
      </trkpt>
      <trkpt lat="42.9084910" lon="1.3848360">
        <ele>906.6</ele>
        <time>2020-07-29T12:11:11Z</time>
      </trkpt>
      <trkpt lat="42.9084860" lon="1.3848820">
        <ele>906.9</ele>
        <time>2020-07-29T12:11:12Z</time>
      </trkpt>
      <trkpt lat="42.9084830" lon="1.3851550">
        <ele>908.2</ele>
        <time>2020-07-29T12:11:18Z</time>
      </trkpt>
      <trkpt lat="42.9084980" lon="1.3851960">
        <ele>908.4</ele>
        <time>2020-07-29T12:11:19Z</time>
      </trkpt>
      <trkpt lat="42.9086280" lon="1.3853390">
        <ele>909.4</ele>
        <time>2020-07-29T12:11:24Z</time>
      </trkpt>
      <trkpt lat="42.9087800" lon="1.3853970">
        <ele>910.2</ele>
        <time>2020-07-29T12:11:29Z</time>
      </trkpt>
      <trkpt lat="42.9088400" lon="1.3854230">
        <ele>910.6</ele>
        <time>2020-07-29T12:11:31Z</time>
      </trkpt>
      <trkpt lat="42.9089540" lon="1.3855020">
        <ele>911.5</ele>
        <time>2020-07-29T12:11:35Z</time>
      </trkpt>
      <trkpt lat="42.9090230" lon="1.3855850">
        <ele>912.1</ele>
        <time>2020-07-29T12:11:38Z</time>
      </trkpt>
      <trkpt lat="42.9090570" lon="1.3856500">
        <ele>912.5</ele>
        <time>2020-07-29T12:11:40Z</time>
      </trkpt>
      <trkpt lat="42.9090820" lon="1.3858000">
        <ele>913.3</ele>
        <time>2020-07-29T12:11:44Z</time>
      </trkpt>
      <trkpt lat="42.9090730" lon="1.3858380">
        <ele>913.5</ele>
        <time>2020-07-29T12:11:45Z</time>
      </trkpt>
      <trkpt lat="42.9090110" lon="1.3859200">
        <ele>914.1</ele>
        <time>2020-07-29T12:11:48Z</time>
      </trkpt>
      <trkpt lat="42.9089570" lon="1.3859570">
        <ele>914.5</ele>
        <time>2020-07-29T12:11:50Z</time>
      </trkpt>
      <trkpt lat="42.9088110" lon="1.3860520">
        <ele>915.4</ele>
        <time>2020-07-29T12:11:55Z</time>
      </trkpt>
      <trkpt lat="42.9087830" lon="1.3860760">
        <ele>915.6</ele>
        <time>2020-07-29T12:11:56Z</time>
      </trkpt>
      <trkpt lat="42.9086830" lon="1.3861850">
        <ele>916.5</ele>
        <time>2020-07-29T12:12:00Z</time>
      </trkpt>
      <trkpt lat="42.9086200" lon="1.3862810">
        <ele>917.3</ele>
        <time>2020-07-29T12:12:03Z</time>
      </trkpt>
      <trkpt lat="42.9085450" lon="1.3864180">
        <ele>918.2</ele>
        <time>2020-07-29T12:12:07Z</time>
      </trkpt>
      <trkpt lat="42.9085120" lon="1.3865410">
        <ele>919.0</ele>
        <time>2020-07-29T12:12:10Z</time>
      </trkpt>
      <trkpt lat="42.9085130" lon="1.3866790">
        <ele>919.7</ele>
        <time>2020-07-29T12:12:13Z</time>
      </trkpt>
      <trkpt lat="42.9085450" lon="1.3868110">
        <ele>920.5</ele>
        <time>2020-07-29T12:12:16Z</time>
      </trkpt>
      <trkpt lat="42.9085610" lon="1.3868520">
        <ele>920.8</ele>
        <time>2020-07-29T12:12:17Z</time>
      </trkpt>
      <trkpt lat="42.9086330" lon="1.3870050">
        <ele>921.8</ele>
        <time>2020-07-29T12:12:21Z</time>
      </trkpt>
      <trkpt lat="42.9087060" lon="1.3871470">
        <ele>923.0</ele>
        <time>2020-07-29T12:12:25Z</time>
      </trkpt>
      <trkpt lat="42.9087220" lon="1.3871840">
        <ele>923.3</ele>
        <time>2020-07-29T12:12:26Z</time>
      </trkpt>
      <trkpt lat="42.9087390" lon="1.3873250">
        <ele>924.3</ele>
        <time>2020-07-29T12:12:30Z</time>
      </trkpt>
      <trkpt lat="42.9087300" lon="1.3873610">
        <ele>924.5</ele>
        <time>2020-07-29T12:12:31Z</time>
      </trkpt>
      <trkpt lat="42.9087020" lon="1.3874010">
        <ele>924.8</ele>
        <time>2020-07-29T12:12:33Z</time>
      </trkpt>
      <trkpt lat="42.9086790" lon="1.3874050">
        <ele>925.0</ele>
        <time>2020-07-29T12:12:34Z</time>
      </trkpt>
      <trkpt lat="42.9085850" lon="1.3874070">
        <ele>925.7</ele>
        <time>2020-07-29T12:12:37Z</time>
      </trkpt>
      <trkpt lat="42.9085560" lon="1.3873990">
        <ele>925.8</ele>
        <time>2020-07-29T12:12:38Z</time>
      </trkpt>
      <trkpt lat="42.9084700" lon="1.3873580">
        <ele>926.4</ele>
        <time>2020-07-29T12:12:41Z</time>
      </trkpt>
      <trkpt lat="42.9084120" lon="1.3873310">
        <ele>926.7</ele>
        <time>2020-07-29T12:12:43Z</time>
      </trkpt>
      <trkpt lat="42.9083580" lon="1.3873080">
        <ele>927.0</ele>
        <time>2020-07-29T12:12:45Z</time>
      </trkpt>
      <trkpt lat="42.9082370" lon="1.3872700">
        <ele>927.7</ele>
        <time>2020-07-29T12:12:49Z</time>
      </trkpt>
      <trkpt lat="42.9082140" lon="1.3872650">
        <ele>927.8</ele>
        <time>2020-07-29T12:12:50Z</time>
      </trkpt>
      <trkpt lat="42.9081270" lon="1.3872630">
        <ele>928.3</ele>
        <time>2020-07-29T12:12:53Z</time>
      </trkpt>
      <trkpt lat="42.9080540" lon="1.3872860">
        <ele>928.7</ele>
        <time>2020-07-29T12:12:56Z</time>
      </trkpt>
      <trkpt lat="42.9079920" lon="1.3873090">
        <ele>929.0</ele>
        <time>2020-07-29T12:12:59Z</time>
      </trkpt>
      <trkpt lat="42.9079020" lon="1.3873630">
        <ele>929.5</ele>
        <time>2020-07-29T12:13:02Z</time>
      </trkpt>
      <trkpt lat="42.9078150" lon="1.3874580">
        <ele>930.1</ele>
        <time>2020-07-29T12:13:05Z</time>
      </trkpt>
      <trkpt lat="42.9077100" lon="1.3876090">
        <ele>930.9</ele>
        <time>2020-07-29T12:13:09Z</time>
      </trkpt>
      <trkpt lat="42.9075560" lon="1.3878210">
        <ele>932.1</ele>
        <time>2020-07-29T12:13:15Z</time>
      </trkpt>
      <trkpt lat="42.9075340" lon="1.3878620">
        <ele>932.4</ele>
        <time>2020-07-29T12:13:16Z</time>
      </trkpt>
      <trkpt lat="42.9074040" lon="1.3880780">
        <ele>933.7</ele>
        <time>2020-07-29T12:13:22Z</time>
      </trkpt>
      <trkpt lat="42.9073840" lon="1.3881190">
        <ele>933.9</ele>
        <time>2020-07-29T12:13:23Z</time>
      </trkpt>
      <trkpt lat="42.9072880" lon="1.3883100">
        <ele>935.2</ele>
        <time>2020-07-29T12:13:28Z</time>
      </trkpt>
      <trkpt lat="42.9072490" lon="1.3883880">
        <ele>935.7</ele>
        <time>2020-07-29T12:13:30Z</time>
      </trkpt>
      <trkpt lat="42.9071790" lon="1.3885420">
        <ele>936.8</ele>
        <time>2020-07-29T12:13:34Z</time>
      </trkpt>
      <trkpt lat="42.9071140" lon="1.3886980">
        <ele>937.8</ele>
        <time>2020-07-29T12:13:38Z</time>
      </trkpt>
      <trkpt lat="42.9070840" lon="1.3887760">
        <ele>938.2</ele>
        <time>2020-07-29T12:13:40Z</time>
      </trkpt>
      <trkpt lat="42.9069770" lon="1.3890430">
        <ele>939.9</ele>
        <time>2020-07-29T12:13:47Z</time>
      </trkpt>
      <trkpt lat="42.9068930" lon="1.3892280">
        <ele>941.1</ele>
        <time>2020-07-29T12:13:52Z</time>
      </trkpt>
      <trkpt lat="42.9068530" lon="1.3893020">
        <ele>941.7</ele>
        <time>2020-07-29T12:13:54Z</time>
      </trkpt>
      <trkpt lat="42.9068010" lon="1.3894150">
        <ele>942.5</ele>
        <time>2020-07-29T12:13:57Z</time>
      </trkpt>
      <trkpt lat="42.9067600" lon="1.3895320">
        <ele>943.3</ele>
        <time>2020-07-29T12:14:00Z</time>
      </trkpt>
      <trkpt lat="42.9067170" lon="1.3896440">
        <ele>944.0</ele>
        <time>2020-07-29T12:14:03Z</time>
      </trkpt>
      <trkpt lat="42.9066510" lon="1.3897950">
        <ele>945.1</ele>
        <time>2020-07-29T12:14:07Z</time>
      </trkpt>
      <trkpt lat="42.9066340" lon="1.3898330">
        <ele>945.3</ele>
        <time>2020-07-29T12:14:08Z</time>
      </trkpt>
      <trkpt lat="42.9065500" lon="1.3900290">
        <ele>946.7</ele>
        <time>2020-07-29T12:14:13Z</time>
      </trkpt>
      <trkpt lat="42.9065030" lon="1.3901500">
        <ele>947.5</ele>
        <time>2020-07-29T12:14:16Z</time>
      </trkpt>
      <trkpt lat="42.9064890" lon="1.3901900">
        <ele>947.7</ele>
        <time>2020-07-29T12:14:17Z</time>
      </trkpt>
      <trkpt lat="42.9064260" lon="1.3904880">
        <ele>949.4</ele>
        <time>2020-07-29T12:14:24Z</time>
      </trkpt>
      <trkpt lat="42.9064220" lon="1.3905340">
        <ele>949.4</ele>
        <time>2020-07-29T12:14:25Z</time>
      </trkpt>
      <trkpt lat="42.9064230" lon="1.3907700">
        <ele>950.2</ele>
        <time>2020-07-29T12:14:30Z</time>
      </trkpt>
      <trkpt lat="42.9064320" lon="1.3908160">
        <ele>950.3</ele>
        <time>2020-07-29T12:14:31Z</time>
      </trkpt>
      <trkpt lat="42.9065190" lon="1.3911830">
        <ele>951.7</ele>
        <time>2020-07-29T12:14:39Z</time>
      </trkpt>
      <trkpt lat="42.9065270" lon="1.3912290">
        <ele>951.9</ele>
        <time>2020-07-29T12:14:40Z</time>
      </trkpt>
      <trkpt lat="42.9065710" lon="1.3914660">
        <ele>952.7</ele>
        <time>2020-07-29T12:14:45Z</time>
      </trkpt>
      <trkpt lat="42.9065920" lon="1.3916040">
        <ele>953.2</ele>
        <time>2020-07-29T12:14:48Z</time>
      </trkpt>
      <trkpt lat="42.9066070" lon="1.3916910">
        <ele>953.6</ele>
        <time>2020-07-29T12:14:50Z</time>
      </trkpt>
      <trkpt lat="42.9066640" lon="1.3919040">
        <ele>954.5</ele>
        <time>2020-07-29T12:14:55Z</time>
      </trkpt>
      <trkpt lat="42.9067010" lon="1.3919890">
        <ele>954.9</ele>
        <time>2020-07-29T12:14:57Z</time>
      </trkpt>
      <trkpt lat="42.9067620" lon="1.3921070">
        <ele>955.4</ele>
        <time>2020-07-29T12:15:00Z</time>
      </trkpt>
      <trkpt lat="42.9068410" lon="1.3922470">
        <ele>956.1</ele>
        <time>2020-07-29T12:15:04Z</time>
      </trkpt>
      <trkpt lat="42.9068790" lon="1.3923010">
        <ele>956.4</ele>
        <time>2020-07-29T12:15:06Z</time>
      </trkpt>
      <trkpt lat="42.9070070" lon="1.3924630">
        <ele>957.4</ele>
        <time>2020-07-29T12:15:12Z</time>
      </trkpt>
      <trkpt lat="42.9071270" lon="1.3926560">
        <ele>958.4</ele>
        <time>2020-07-29T12:15:17Z</time>
      </trkpt>
      <trkpt lat="42.9071660" lon="1.3927410">
        <ele>958.7</ele>
        <time>2020-07-29T12:15:19Z</time>
      </trkpt>
      <trkpt lat="42.9071990" lon="1.3929900">
        <ele>959.5</ele>
        <time>2020-07-29T12:15:24Z</time>
      </trkpt>
      <trkpt lat="42.9071280" lon="1.3932810">
        <ele>960.5</ele>
        <time>2020-07-29T12:15:30Z</time>
      </trkpt>
      <trkpt lat="42.9071050" lon="1.3933680">
        <ele>960.8</ele>
        <time>2020-07-29T12:15:32Z</time>
      </trkpt>
      <trkpt lat="42.9070740" lon="1.3936040">
        <ele>961.8</ele>
        <time>2020-07-29T12:15:37Z</time>
      </trkpt>
      <trkpt lat="42.9070700" lon="1.3936510">
        <ele>962.0</ele>
        <time>2020-07-29T12:15:38Z</time>
      </trkpt>
      <trkpt lat="42.9070620" lon="1.3938400">
        <ele>962.8</ele>
        <time>2020-07-29T12:15:42Z</time>
      </trkpt>
      <trkpt lat="42.9070840" lon="1.3939780">
        <ele>963.4</ele>
        <time>2020-07-29T12:15:45Z</time>
      </trkpt>
      <trkpt lat="42.9071060" lon="1.3940690">
        <ele>963.8</ele>
        <time>2020-07-29T12:15:47Z</time>
      </trkpt>
      <trkpt lat="42.9072020" lon="1.3943180">
        <ele>964.9</ele>
        <time>2020-07-29T12:15:53Z</time>
      </trkpt>
      <trkpt lat="42.9072920" lon="1.3944950">
        <ele>965.7</ele>
        <time>2020-07-29T12:15:58Z</time>
      </trkpt>
      <trkpt lat="42.9073590" lon="1.3946400">
        <ele>966.4</ele>
        <time>2020-07-29T12:16:02Z</time>
      </trkpt>
      <trkpt lat="42.9073790" lon="1.3946790">
        <ele>966.6</ele>
        <time>2020-07-29T12:16:03Z</time>
      </trkpt>
      <trkpt lat="42.9074820" lon="1.3948970">
        <ele>967.7</ele>
        <time>2020-07-29T12:16:08Z</time>
      </trkpt>
      <trkpt lat="42.9075180" lon="1.3949790">
        <ele>968.1</ele>
        <time>2020-07-29T12:16:10Z</time>
      </trkpt>
      <trkpt lat="42.9075740" lon="1.3951820">
        <ele>969.0</ele>
        <time>2020-07-29T12:16:15Z</time>
      </trkpt>
      <trkpt lat="42.9075170" lon="1.3953960">
        <ele>969.8</ele>
        <time>2020-07-29T12:16:20Z</time>
      </trkpt>
      <trkpt lat="42.9074790" lon="1.3954530">
        <ele>970.1</ele>
        <time>2020-07-29T12:16:22Z</time>
      </trkpt>
      <trkpt lat="42.9074200" lon="1.3955320">
        <ele>970.6</ele>
        <time>2020-07-29T12:16:25Z</time>
      </trkpt>
      <trkpt lat="42.9073480" lon="1.3956210">
        <ele>971.2</ele>
        <time>2020-07-29T12:16:28Z</time>
      </trkpt>
      <trkpt lat="42.9072580" lon="1.3957740">
        <ele>972.1</ele>
        <time>2020-07-29T12:16:32Z</time>
      </trkpt>
      <trkpt lat="42.9072400" lon="1.3958190">
        <ele>972.3</ele>
        <time>2020-07-29T12:16:33Z</time>
      </trkpt>
      <trkpt lat="42.9071880" lon="1.3960390">
        <ele>973.4</ele>
        <time>2020-07-29T12:16:38Z</time>
      </trkpt>
      <trkpt lat="42.9072050" lon="1.3963040">
        <ele>974.5</ele>
        <time>2020-07-29T12:16:44Z</time>
      </trkpt>
      <trkpt lat="42.9072490" lon="1.3965250">
        <ele>975.5</ele>
        <time>2020-07-29T12:16:49Z</time>
      </trkpt>
      <trkpt lat="42.9072760" lon="1.3966530">
        <ele>976.1</ele>
        <time>2020-07-29T12:16:52Z</time>
      </trkpt>
      <trkpt lat="42.9073120" lon="1.3968780">
        <ele>977.0</ele>
        <time>2020-07-29T12:16:57Z</time>
      </trkpt>
      <trkpt lat="42.9073290" lon="1.3970640">
        <ele>977.6</ele>
        <time>2020-07-29T12:17:01Z</time>
      </trkpt>
      <trkpt lat="42.9073340" lon="1.3971570">
        <ele>978.0</ele>
        <time>2020-07-29T12:17:03Z</time>
      </trkpt>
      <trkpt lat="42.9073260" lon="1.3973420">
        <ele>978.7</ele>
        <time>2020-07-29T12:17:07Z</time>
      </trkpt>
      <trkpt lat="42.9073130" lon="1.3974780">
        <ele>979.3</ele>
        <time>2020-07-29T12:17:10Z</time>
      </trkpt>
      <trkpt lat="42.9072730" lon="1.3976570">
        <ele>980.1</ele>
        <time>2020-07-29T12:17:14Z</time>
      </trkpt>
      <trkpt lat="42.9072210" lon="1.3977910">
        <ele>980.7</ele>
        <time>2020-07-29T12:17:17Z</time>
      </trkpt>
      <trkpt lat="42.9071240" lon="1.3979710">
        <ele>981.7</ele>
        <time>2020-07-29T12:17:22Z</time>
      </trkpt>
      <trkpt lat="42.9070280" lon="1.3981650">
        <ele>982.8</ele>
        <time>2020-07-29T12:17:27Z</time>
      </trkpt>
      <trkpt lat="42.9069740" lon="1.3982850">
        <ele>983.4</ele>
        <time>2020-07-29T12:17:30Z</time>
      </trkpt>
      <trkpt lat="42.9069570" lon="1.3983260">
        <ele>983.6</ele>
        <time>2020-07-29T12:17:31Z</time>
      </trkpt>
      <trkpt lat="42.9068740" lon="1.3985800">
        <ele>984.7</ele>
        <time>2020-07-29T12:17:37Z</time>
      </trkpt>
      <trkpt lat="42.9068350" lon="1.3987610">
        <ele>985.4</ele>
        <time>2020-07-29T12:17:41Z</time>
      </trkpt>
      <trkpt lat="42.9068180" lon="1.3988510">
        <ele>985.8</ele>
        <time>2020-07-29T12:17:43Z</time>
      </trkpt>
      <trkpt lat="42.9067900" lon="1.3990220">
        <ele>986.5</ele>
        <time>2020-07-29T12:17:47Z</time>
      </trkpt>
      <trkpt lat="42.9067750" lon="1.3991520">
        <ele>987.1</ele>
        <time>2020-07-29T12:17:50Z</time>
      </trkpt>
      <trkpt lat="42.9067450" lon="1.3993650">
        <ele>988.1</ele>
        <time>2020-07-29T12:17:55Z</time>
      </trkpt>
      <trkpt lat="42.9067290" lon="1.3994890">
        <ele>988.7</ele>
        <time>2020-07-29T12:17:58Z</time>
      </trkpt>
      <trkpt lat="42.9067190" lon="1.3997500">
        <ele>989.9</ele>
        <time>2020-07-29T12:18:04Z</time>
      </trkpt>
      <trkpt lat="42.9067190" lon="1.3997910">
        <ele>990.1</ele>
        <time>2020-07-29T12:18:05Z</time>
      </trkpt>
      <trkpt lat="42.9067220" lon="1.3999180">
        <ele>990.6</ele>
        <time>2020-07-29T12:18:08Z</time>
      </trkpt>
      <trkpt lat="42.9067390" lon="1.4002220">
        <ele>991.7</ele>
        <time>2020-07-29T12:18:14Z</time>
      </trkpt>
      <trkpt lat="42.9067500" lon="1.4003240">
        <ele>992.1</ele>
        <time>2020-07-29T12:18:16Z</time>
      </trkpt>
      <trkpt lat="42.9067900" lon="1.4005150">
        <ele>992.9</ele>
        <time>2020-07-29T12:18:20Z</time>
      </trkpt>
      <trkpt lat="42.9068030" lon="1.4005600">
        <ele>993.1</ele>
        <time>2020-07-29T12:18:21Z</time>
      </trkpt>
      <trkpt lat="42.9068560" lon="1.4007340">
        <ele>993.7</ele>
        <time>2020-07-29T12:18:25Z</time>
      </trkpt>
      <trkpt lat="42.9069170" lon="1.4009680">
        <ele>994.6</ele>
        <time>2020-07-29T12:18:30Z</time>
      </trkpt>
      <trkpt lat="42.9069290" lon="1.4010140">
        <ele>994.7</ele>
        <time>2020-07-29T12:18:31Z</time>
      </trkpt>
      <trkpt lat="42.9069880" lon="1.4013420">
        <ele>995.9</ele>
        <time>2020-07-29T12:18:38Z</time>
      </trkpt>
      <trkpt lat="42.9070030" lon="1.4014340">
        <ele>996.2</ele>
        <time>2020-07-29T12:18:40Z</time>
      </trkpt>
      <trkpt lat="42.9070520" lon="1.4016020">
        <ele>996.8</ele>
        <time>2020-07-29T12:18:44Z</time>
      </trkpt>
      <trkpt lat="42.9070930" lon="1.4017150">
        <ele>997.3</ele>
        <time>2020-07-29T12:18:47Z</time>
      </trkpt>
      <trkpt lat="42.9071200" lon="1.4017890">
        <ele>997.7</ele>
        <time>2020-07-29T12:18:49Z</time>
      </trkpt>
      <trkpt lat="42.9071980" lon="1.4019390">
        <ele>998.4</ele>
        <time>2020-07-29T12:18:54Z</time>
      </trkpt>
      <trkpt lat="42.9072740" lon="1.4020500">
        <ele>999.0</ele>
        <time>2020-07-29T12:18:58Z</time>
      </trkpt>
      <trkpt lat="42.9073770" lon="1.4022110">
        <ele>999.8</ele>
        <time>2020-07-29T12:19:03Z</time>
      </trkpt>
      <trkpt lat="42.9073970" lon="1.4022450">
        <ele>1000.0</ele>
        <time>2020-07-29T12:19:04Z</time>
      </trkpt>
      <trkpt lat="42.9074620" lon="1.4024510">
        <ele>1000.9</ele>
        <time>2020-07-29T12:19:08Z</time>
      </trkpt>
      <trkpt lat="42.9074690" lon="1.4025010">
        <ele>1001.1</ele>
        <time>2020-07-29T12:19:09Z</time>
      </trkpt>
      <trkpt lat="42.9075060" lon="1.4028300">
        <ele>1002.4</ele>
        <time>2020-07-29T12:19:15Z</time>
      </trkpt>
      <trkpt lat="42.9075140" lon="1.4028840">
        <ele>1002.7</ele>
        <time>2020-07-29T12:19:16Z</time>
      </trkpt>
      <trkpt lat="42.9075620" lon="1.4032040">
        <ele>1004.0</ele>
        <time>2020-07-29T12:19:22Z</time>
      </trkpt>
      <trkpt lat="42.9075720" lon="1.4033210">
        <ele>1004.5</ele>
        <time>2020-07-29T12:19:24Z</time>
      </trkpt>
      <trkpt lat="42.9075660" lon="1.4036000">
        <ele>1005.5</ele>
        <time>2020-07-29T12:19:29Z</time>
      </trkpt>
      <trkpt lat="42.9075540" lon="1.4037080">
        <ele>1005.9</ele>
        <time>2020-07-29T12:19:31Z</time>
      </trkpt>
      <trkpt lat="42.9075300" lon="1.4038620">
        <ele>1006.4</ele>
        <time>2020-07-29T12:19:34Z</time>
      </trkpt>
      <trkpt lat="42.9074740" lon="1.4040520">
        <ele>1007.2</ele>
        <time>2020-07-29T12:19:38Z</time>
      </trkpt>
      <trkpt lat="42.9073610" lon="1.4042640">
        <ele>1008.3</ele>
        <time>2020-07-29T12:19:43Z</time>
      </trkpt>
      <trkpt lat="42.9072800" lon="1.4043710">
        <ele>1008.9</ele>
        <time>2020-07-29T12:19:46Z</time>
      </trkpt>
      <trkpt lat="42.9072120" lon="1.4044740">
        <ele>1009.5</ele>
        <time>2020-07-29T12:19:49Z</time>
      </trkpt>
      <trkpt lat="42.9071320" lon="1.4046180">
        <ele>1010.2</ele>
        <time>2020-07-29T12:19:53Z</time>
      </trkpt>
      <trkpt lat="42.9070920" lon="1.4047000">
        <ele>1010.7</ele>
        <time>2020-07-29T12:19:55Z</time>
      </trkpt>
      <trkpt lat="42.9070350" lon="1.4048810">
        <ele>1011.4</ele>
        <time>2020-07-29T12:19:59Z</time>
      </trkpt>
      <trkpt lat="42.9070230" lon="1.4049280">
        <ele>1011.6</ele>
        <time>2020-07-29T12:20:00Z</time>
      </trkpt>
      <trkpt lat="42.9070000" lon="1.4051270">
        <ele>1012.4</ele>
        <time>2020-07-29T12:20:04Z</time>
      </trkpt>
      <trkpt lat="42.9069950" lon="1.4052860">
        <ele>1013.0</ele>
        <time>2020-07-29T12:20:07Z</time>
      </trkpt>
      <trkpt lat="42.9070000" lon="1.4055890">
        <ele>1014.0</ele>
        <time>2020-07-29T12:20:13Z</time>
      </trkpt>
      <trkpt lat="42.9070060" lon="1.4057870">
        <ele>1014.7</ele>
        <time>2020-07-29T12:20:17Z</time>
      </trkpt>
      <trkpt lat="42.9070020" lon="1.4059390">
        <ele>1015.2</ele>
        <time>2020-07-29T12:20:20Z</time>
      </trkpt>
      <trkpt lat="42.9069870" lon="1.4061820">
        <ele>1016.2</ele>
        <time>2020-07-29T12:20:25Z</time>
      </trkpt>
      <trkpt lat="42.9069600" lon="1.4064600">
        <ele>1017.6</ele>
        <time>2020-07-29T12:20:31Z</time>
      </trkpt>
      <trkpt lat="42.9069470" lon="1.4065910">
        <ele>1018.2</ele>
        <time>2020-07-29T12:20:34Z</time>
      </trkpt>
      <trkpt lat="42.9069430" lon="1.4066330">
        <ele>1018.4</ele>
        <time>2020-07-29T12:20:35Z</time>
      </trkpt>
      <trkpt lat="42.9069370" lon="1.4066760">
        <ele>1018.6</ele>
        <time>2020-07-29T12:20:36Z</time>
      </trkpt>
      <trkpt lat="42.9068960" lon="1.4068620">
        <ele>1019.4</ele>
        <time>2020-07-29T12:20:40Z</time>
      </trkpt>
      <trkpt lat="42.9068810" lon="1.4069060">
        <ele>1019.6</ele>
        <time>2020-07-29T12:20:41Z</time>
      </trkpt>
      <trkpt lat="42.9068150" lon="1.4071540">
        <ele>1020.8</ele>
        <time>2020-07-29T12:20:46Z</time>
      </trkpt>
      <trkpt lat="42.9068040" lon="1.4072020">
        <ele>1021.0</ele>
        <time>2020-07-29T12:20:47Z</time>
      </trkpt>
      <trkpt lat="42.9067660" lon="1.4074120">
        <ele>1021.9</ele>
        <time>2020-07-29T12:20:51Z</time>
      </trkpt>
      <trkpt lat="42.9067460" lon="1.4075770">
        <ele>1022.7</ele>
        <time>2020-07-29T12:20:54Z</time>
      </trkpt>
      <trkpt lat="42.9067410" lon="1.4076330">
        <ele>1022.9</ele>
        <time>2020-07-29T12:20:55Z</time>
      </trkpt>
      <trkpt lat="42.9067120" lon="1.4079390">
        <ele>1024.0</ele>
        <time>2020-07-29T12:21:01Z</time>
      </trkpt>
      <trkpt lat="42.9067110" lon="1.4079900">
        <ele>1024.2</ele>
        <time>2020-07-29T12:21:02Z</time>
      </trkpt>
      <trkpt lat="42.9067010" lon="1.4083010">
        <ele>1025.4</ele>
        <time>2020-07-29T12:21:08Z</time>
      </trkpt>
      <trkpt lat="42.9067080" lon="1.4085070">
        <ele>1026.2</ele>
        <time>2020-07-29T12:21:12Z</time>
      </trkpt>
      <trkpt lat="42.9067150" lon="1.4086070">
        <ele>1026.5</ele>
        <time>2020-07-29T12:21:14Z</time>
      </trkpt>
      <trkpt lat="42.9067740" lon="1.4088400">
        <ele>1027.5</ele>
        <time>2020-07-29T12:21:19Z</time>
      </trkpt>
      <trkpt lat="42.9069010" lon="1.4090700">
        <ele>1028.7</ele>
        <time>2020-07-29T12:21:25Z</time>
      </trkpt>
      <trkpt lat="42.9069870" lon="1.4092350">
        <ele>1029.5</ele>
        <time>2020-07-29T12:21:29Z</time>
      </trkpt>
      <trkpt lat="42.9070130" lon="1.4093270">
        <ele>1030.0</ele>
        <time>2020-07-29T12:21:31Z</time>
      </trkpt>
      <trkpt lat="42.9070240" lon="1.4094770">
        <ele>1030.7</ele>
        <time>2020-07-29T12:21:34Z</time>
      </trkpt>
      <trkpt lat="42.9069910" lon="1.4096170">
        <ele>1031.3</ele>
        <time>2020-07-29T12:21:37Z</time>
      </trkpt>
      <trkpt lat="42.9069340" lon="1.4097980">
        <ele>1032.1</ele>
        <time>2020-07-29T12:21:41Z</time>
      </trkpt>
      <trkpt lat="42.9069030" lon="1.4098840">
        <ele>1032.5</ele>
        <time>2020-07-29T12:21:43Z</time>
      </trkpt>
      <trkpt lat="42.9068430" lon="1.4101070">
        <ele>1033.5</ele>
        <time>2020-07-29T12:21:48Z</time>
      </trkpt>
      <trkpt lat="42.9068270" lon="1.4102040">
        <ele>1034.0</ele>
        <time>2020-07-29T12:21:50Z</time>
      </trkpt>
      <trkpt lat="42.9068180" lon="1.4103580">
        <ele>1034.6</ele>
        <time>2020-07-29T12:21:53Z</time>
      </trkpt>
      <trkpt lat="42.9068260" lon="1.4105650">
        <ele>1035.3</ele>
        <time>2020-07-29T12:21:57Z</time>
      </trkpt>
      <trkpt lat="42.9068530" lon="1.4107100">
        <ele>1036.0</ele>
        <time>2020-07-29T12:22:00Z</time>
      </trkpt>
      <trkpt lat="42.9069100" lon="1.4109390">
        <ele>1037.0</ele>
        <time>2020-07-29T12:22:05Z</time>
      </trkpt>
      <trkpt lat="42.9069320" lon="1.4110310">
        <ele>1037.4</ele>
        <time>2020-07-29T12:22:07Z</time>
      </trkpt>
      <trkpt lat="42.9069750" lon="1.4112150">
        <ele>1038.2</ele>
        <time>2020-07-29T12:22:11Z</time>
      </trkpt>
      <trkpt lat="42.9069800" lon="1.4113600">
        <ele>1038.9</ele>
        <time>2020-07-29T12:22:14Z</time>
      </trkpt>
      <trkpt lat="42.9069310" lon="1.4115040">
        <ele>1039.6</ele>
        <time>2020-07-29T12:22:17Z</time>
      </trkpt>
      <trkpt lat="42.9068820" lon="1.4115900">
        <ele>1040.1</ele>
        <time>2020-07-29T12:22:19Z</time>
      </trkpt>
      <trkpt lat="42.9067710" lon="1.4117680">
        <ele>1041.2</ele>
        <time>2020-07-29T12:22:24Z</time>
      </trkpt>
      <trkpt lat="42.9067510" lon="1.4118020">
        <ele>1041.4</ele>
        <time>2020-07-29T12:22:25Z</time>
      </trkpt>
      <trkpt lat="42.9066970" lon="1.4119010">
        <ele>1042.0</ele>
        <time>2020-07-29T12:22:28Z</time>
      </trkpt>
      <trkpt lat="42.9066330" lon="1.4120210">
        <ele>1042.7</ele>
        <time>2020-07-29T12:22:31Z</time>
      </trkpt>
      <trkpt lat="42.9065960" lon="1.4121070">
        <ele>1043.1</ele>
        <time>2020-07-29T12:22:33Z</time>
      </trkpt>
      <trkpt lat="42.9065590" lon="1.4121980">
        <ele>1043.6</ele>
        <time>2020-07-29T12:22:35Z</time>
      </trkpt>
      <trkpt lat="42.9064950" lon="1.4123810">
        <ele>1044.5</ele>
        <time>2020-07-29T12:22:39Z</time>
      </trkpt>
      <trkpt lat="42.9064790" lon="1.4124330">
        <ele>1044.8</ele>
        <time>2020-07-29T12:22:40Z</time>
      </trkpt>
      <trkpt lat="42.9064100" lon="1.4127390">
        <ele>1046.1</ele>
        <time>2020-07-29T12:22:46Z</time>
      </trkpt>
      <trkpt lat="42.9063810" lon="1.4129500">
        <ele>1047.0</ele>
        <time>2020-07-29T12:22:50Z</time>
      </trkpt>
      <trkpt lat="42.9063440" lon="1.4131490">
        <ele>1048.0</ele>
        <time>2020-07-29T12:22:54Z</time>
      </trkpt>
      <trkpt lat="42.9063180" lon="1.4133560">
        <ele>1048.8</ele>
        <time>2020-07-29T12:22:58Z</time>
      </trkpt>
      <trkpt lat="42.9062900" lon="1.4135530">
        <ele>1049.6</ele>
        <time>2020-07-29T12:23:02Z</time>
      </trkpt>
      <trkpt lat="42.9062780" lon="1.4136410">
        <ele>1049.9</ele>
        <time>2020-07-29T12:23:04Z</time>
      </trkpt>
      <trkpt lat="42.9062410" lon="1.4138910">
        <ele>1051.0</ele>
        <time>2020-07-29T12:23:09Z</time>
      </trkpt>
      <trkpt lat="42.9062380" lon="1.4139440">
        <ele>1051.2</ele>
        <time>2020-07-29T12:23:10Z</time>
      </trkpt>
      <trkpt lat="42.9062840" lon="1.4141910">
        <ele>1052.2</ele>
        <time>2020-07-29T12:23:15Z</time>
      </trkpt>
      <trkpt lat="42.9063320" lon="1.4142690">
        <ele>1052.6</ele>
        <time>2020-07-29T12:23:17Z</time>
      </trkpt>
      <trkpt lat="42.9064390" lon="1.4144000">
        <ele>1053.5</ele>
        <time>2020-07-29T12:23:21Z</time>
      </trkpt>
      <trkpt lat="42.9064640" lon="1.4144280">
        <ele>1053.7</ele>
        <time>2020-07-29T12:23:22Z</time>
      </trkpt>
      <trkpt lat="42.9065340" lon="1.4145480">
        <ele>1054.5</ele>
        <time>2020-07-29T12:23:26Z</time>
      </trkpt>
      <trkpt lat="42.9065530" lon="1.4145800">
        <ele>1054.6</ele>
        <time>2020-07-29T12:23:27Z</time>
      </trkpt>
      <trkpt lat="42.9066870" lon="1.4147260">
        <ele>1055.7</ele>
        <time>2020-07-29T12:23:33Z</time>
      </trkpt>
      <trkpt lat="42.9067140" lon="1.4147450">
        <ele>1055.9</ele>
        <time>2020-07-29T12:23:34Z</time>
      </trkpt>
      <trkpt lat="42.9068250" lon="1.4148500">
        <ele>1056.7</ele>
        <time>2020-07-29T12:23:38Z</time>
      </trkpt>
      <trkpt lat="42.9068700" lon="1.4149120">
        <ele>1057.1</ele>
        <time>2020-07-29T12:23:40Z</time>
      </trkpt>
      <trkpt lat="42.9069250" lon="1.4150150">
        <ele>1057.7</ele>
        <time>2020-07-29T12:23:43Z</time>
      </trkpt>
      <trkpt lat="42.9070100" lon="1.4151680">
        <ele>1058.5</ele>
        <time>2020-07-29T12:23:47Z</time>
      </trkpt>
      <trkpt lat="42.9070660" lon="1.4152150">
        <ele>1058.9</ele>
        <time>2020-07-29T12:23:49Z</time>
      </trkpt>
      <trkpt lat="42.9071890" lon="1.4153220">
        <ele>1059.7</ele>
        <time>2020-07-29T12:23:53Z</time>
      </trkpt>
      <trkpt lat="42.9072460" lon="1.4153770">
        <ele>1060.0</ele>
        <time>2020-07-29T12:23:55Z</time>
      </trkpt>
      <trkpt lat="42.9073320" lon="1.4154550">
        <ele>1060.6</ele>
        <time>2020-07-29T12:23:58Z</time>
      </trkpt>
      <trkpt lat="42.9074590" lon="1.4155970">
        <ele>1061.5</ele>
        <time>2020-07-29T12:24:02Z</time>
      </trkpt>
      <trkpt lat="42.9075370" lon="1.4156910">
        <ele>1062.1</ele>
        <time>2020-07-29T12:24:05Z</time>
      </trkpt>
      <trkpt lat="42.9076880" lon="1.4158100">
        <ele>1063.1</ele>
        <time>2020-07-29T12:24:10Z</time>
      </trkpt>
      <trkpt lat="42.9077200" lon="1.4158290">
        <ele>1063.4</ele>
        <time>2020-07-29T12:24:11Z</time>
      </trkpt>
      <trkpt lat="42.9078100" lon="1.4159210">
        <ele>1064.1</ele>
        <time>2020-07-29T12:24:14Z</time>
      </trkpt>
      <trkpt lat="42.9078600" lon="1.4159870">
        <ele>1064.5</ele>
        <time>2020-07-29T12:24:16Z</time>
      </trkpt>
      <trkpt lat="42.9078840" lon="1.4160260">
        <ele>1064.8</ele>
        <time>2020-07-29T12:24:17Z</time>
      </trkpt>
      <trkpt lat="42.9079610" lon="1.4162690">
        <ele>1066.4</ele>
        <time>2020-07-29T12:24:22Z</time>
      </trkpt>
      <trkpt lat="42.9079570" lon="1.4163290">
        <ele>1066.4</ele>
        <time>2020-07-29T12:24:23Z</time>
      </trkpt>
      <trkpt lat="42.9079370" lon="1.4163630">
        <ele>1066.4</ele>
        <time>2020-07-29T12:24:24Z</time>
      </trkpt>
      <trkpt lat="42.9079140" lon="1.4163910">
        <ele>1066.4</ele>
        <time>2020-07-29T12:24:25Z</time>
      </trkpt>
      <trkpt lat="42.9078170" lon="1.4164350">
        <ele>1066.4</ele>
        <time>2020-07-29T12:24:28Z</time>
      </trkpt>
      <trkpt lat="42.9077180" lon="1.4164680">
        <ele>1067.0</ele>
        <time>2020-07-29T12:24:31Z</time>
      </trkpt>
      <trkpt lat="42.9076080" lon="1.4165340">
        <ele>1067.6</ele>
        <time>2020-07-29T12:24:35Z</time>
      </trkpt>
      <trkpt lat="42.9075550" lon="1.4165770">
        <ele>1068.0</ele>
        <time>2020-07-29T12:24:37Z</time>
      </trkpt>
      <trkpt lat="42.9074960" lon="1.4166390">
        <ele>1068.4</ele>
        <time>2020-07-29T12:24:39Z</time>
      </trkpt>
      <trkpt lat="42.9073610" lon="1.4167970">
        <ele>1069.3</ele>
        <time>2020-07-29T12:24:43Z</time>
      </trkpt>
      <trkpt lat="42.9072380" lon="1.4169970">
        <ele>1070.4</ele>
        <time>2020-07-29T12:24:48Z</time>
      </trkpt>
      <trkpt lat="42.9071730" lon="1.4171170">
        <ele>1071.0</ele>
        <time>2020-07-29T12:24:51Z</time>
      </trkpt>
      <trkpt lat="42.9070890" lon="1.4172770">
        <ele>1071.9</ele>
        <time>2020-07-29T12:24:55Z</time>
      </trkpt>
      <trkpt lat="42.9070350" lon="1.4174120">
        <ele>1072.5</ele>
        <time>2020-07-29T12:24:58Z</time>
      </trkpt>
      <trkpt lat="42.9069740" lon="1.4175480">
        <ele>1073.1</ele>
        <time>2020-07-29T12:25:01Z</time>
      </trkpt>
      <trkpt lat="42.9068960" lon="1.4177490">
        <ele>1074.2</ele>
        <time>2020-07-29T12:25:06Z</time>
      </trkpt>
      <trkpt lat="42.9068640" lon="1.4178310">
        <ele>1074.6</ele>
        <time>2020-07-29T12:25:08Z</time>
      </trkpt>
      <trkpt lat="42.9067990" lon="1.4180040">
        <ele>1075.5</ele>
        <time>2020-07-29T12:25:12Z</time>
      </trkpt>
      <trkpt lat="42.9067720" lon="1.4180910">
        <ele>1076.0</ele>
        <time>2020-07-29T12:25:14Z</time>
      </trkpt>
      <trkpt lat="42.9067230" lon="1.4182610">
        <ele>1076.8</ele>
        <time>2020-07-29T12:25:18Z</time>
      </trkpt>
      <trkpt lat="42.9066760" lon="1.4184430">
        <ele>1077.6</ele>
        <time>2020-07-29T12:25:22Z</time>
      </trkpt>
      <trkpt lat="42.9066670" lon="1.4184890">
        <ele>1077.8</ele>
        <time>2020-07-29T12:25:23Z</time>
      </trkpt>
      <trkpt lat="42.9066270" lon="1.4187170">
        <ele>1078.9</ele>
        <time>2020-07-29T12:25:28Z</time>
      </trkpt>
      <trkpt lat="42.9066320" lon="1.4187670">
        <ele>1079.2</ele>
        <time>2020-07-29T12:25:29Z</time>
      </trkpt>
      <trkpt lat="42.9067240" lon="1.4189650">
        <ele>1080.3</ele>
        <time>2020-07-29T12:25:34Z</time>
      </trkpt>
      <trkpt lat="42.9068500" lon="1.4191000">
        <ele>1081.3</ele>
        <time>2020-07-29T12:25:39Z</time>
      </trkpt>
      <trkpt lat="42.9068850" lon="1.4191700">
        <ele>1081.7</ele>
        <time>2020-07-29T12:25:41Z</time>
      </trkpt>
      <trkpt lat="42.9069250" lon="1.4193600">
        <ele>1082.7</ele>
        <time>2020-07-29T12:25:45Z</time>
      </trkpt>
      <trkpt lat="42.9069220" lon="1.4194090">
        <ele>1082.9</ele>
        <time>2020-07-29T12:25:46Z</time>
      </trkpt>
      <trkpt lat="42.9069210" lon="1.4195960">
        <ele>1083.9</ele>
        <time>2020-07-29T12:25:50Z</time>
      </trkpt>
      <trkpt lat="42.9069250" lon="1.4196910">
        <ele>1084.3</ele>
        <time>2020-07-29T12:25:52Z</time>
      </trkpt>
      <trkpt lat="42.9069430" lon="1.4197880">
        <ele>1084.9</ele>
        <time>2020-07-29T12:25:54Z</time>
      </trkpt>
      <trkpt lat="42.9069750" lon="1.4199100">
        <ele>1085.5</ele>
        <time>2020-07-29T12:25:57Z</time>
      </trkpt>
      <trkpt lat="42.9069870" lon="1.4199560">
        <ele>1085.8</ele>
        <time>2020-07-29T12:25:58Z</time>
      </trkpt>
      <trkpt lat="42.9069880" lon="1.4201620">
        <ele>1086.9</ele>
        <time>2020-07-29T12:26:02Z</time>
      </trkpt>
      <trkpt lat="42.9069760" lon="1.4202180">
        <ele>1087.2</ele>
        <time>2020-07-29T12:26:03Z</time>
      </trkpt>
      <trkpt lat="42.9068970" lon="1.4204020">
        <ele>1088.4</ele>
        <time>2020-07-29T12:26:07Z</time>
      </trkpt>
      <trkpt lat="42.9068080" lon="1.4206070">
        <ele>1089.6</ele>
        <time>2020-07-29T12:26:12Z</time>
      </trkpt>
      <trkpt lat="42.9067900" lon="1.4206580">
        <ele>1090.0</ele>
        <time>2020-07-29T12:26:13Z</time>
      </trkpt>
      <trkpt lat="42.9067330" lon="1.4207860">
        <ele>1090.8</ele>
        <time>2020-07-29T12:26:16Z</time>
      </trkpt>
      <trkpt lat="42.9066590" lon="1.4208840">
        <ele>1091.6</ele>
        <time>2020-07-29T12:26:19Z</time>
      </trkpt>
      <trkpt lat="42.9066340" lon="1.4209080">
        <ele>1091.8</ele>
        <time>2020-07-29T12:26:20Z</time>
      </trkpt>
      <trkpt lat="42.9064970" lon="1.4209840">
        <ele>1092.9</ele>
        <time>2020-07-29T12:26:25Z</time>
      </trkpt>
      <trkpt lat="42.9063940" lon="1.4211690">
        <ele>1094.1</ele>
        <time>2020-07-29T12:26:30Z</time>
      </trkpt>
      <trkpt lat="42.9063250" lon="1.4214470">
        <ele>1095.5</ele>
        <time>2020-07-29T12:26:36Z</time>
      </trkpt>
      <trkpt lat="42.9063170" lon="1.4214910">
        <ele>1095.8</ele>
        <time>2020-07-29T12:26:37Z</time>
      </trkpt>
      <trkpt lat="42.9062900" lon="1.4216680">
        <ele>1096.5</ele>
        <time>2020-07-29T12:26:41Z</time>
      </trkpt>
      <trkpt lat="42.9062820" lon="1.4217610">
        <ele>1097.0</ele>
        <time>2020-07-29T12:26:43Z</time>
      </trkpt>
      <trkpt lat="42.9062530" lon="1.4219790">
        <ele>1097.9</ele>
        <time>2020-07-29T12:26:48Z</time>
      </trkpt>
      <trkpt lat="42.9062310" lon="1.4221080">
        <ele>1098.5</ele>
        <time>2020-07-29T12:26:51Z</time>
      </trkpt>
      <trkpt lat="42.9062120" lon="1.4223630">
        <ele>1099.4</ele>
        <time>2020-07-29T12:26:57Z</time>
      </trkpt>
      <trkpt lat="42.9062090" lon="1.4226130">
        <ele>1100.4</ele>
        <time>2020-07-29T12:27:02Z</time>
      </trkpt>
      <trkpt lat="42.9062150" lon="1.4227090">
        <ele>1100.8</ele>
        <time>2020-07-29T12:27:04Z</time>
      </trkpt>
      <trkpt lat="42.9062330" lon="1.4228030">
        <ele>1101.2</ele>
        <time>2020-07-29T12:27:06Z</time>
      </trkpt>
      <trkpt lat="42.9062880" lon="1.4229340">
        <ele>1101.8</ele>
        <time>2020-07-29T12:27:09Z</time>
      </trkpt>
      <trkpt lat="42.9064100" lon="1.4231090">
        <ele>1102.7</ele>
        <time>2020-07-29T12:27:14Z</time>
      </trkpt>
      <trkpt lat="42.9064610" lon="1.4231550">
        <ele>1103.0</ele>
        <time>2020-07-29T12:27:16Z</time>
      </trkpt>
      <trkpt lat="42.9065860" lon="1.4231910">
        <ele>1103.7</ele>
        <time>2020-07-29T12:27:20Z</time>
      </trkpt>
      <trkpt lat="42.9066130" lon="1.4231910">
        <ele>1103.8</ele>
        <time>2020-07-29T12:27:21Z</time>
      </trkpt>
      <trkpt lat="42.9068240" lon="1.4231760">
        <ele>1104.9</ele>
        <time>2020-07-29T12:27:27Z</time>
      </trkpt>
      <trkpt lat="42.9069000" lon="1.4231690">
        <ele>1105.2</ele>
        <time>2020-07-29T12:27:29Z</time>
      </trkpt>
      <trkpt lat="42.9070570" lon="1.4232040">
        <ele>1106.1</ele>
        <time>2020-07-29T12:27:34Z</time>
      </trkpt>
      <trkpt lat="42.9071210" lon="1.4232380">
        <ele>1106.5</ele>
        <time>2020-07-29T12:27:36Z</time>
      </trkpt>
      <trkpt lat="42.9072220" lon="1.4233010">
        <ele>1107.2</ele>
        <time>2020-07-29T12:27:39Z</time>
      </trkpt>
      <trkpt lat="42.9073210" lon="1.4233580">
        <ele>1107.7</ele>
        <time>2020-07-29T12:27:42Z</time>
      </trkpt>
      <trkpt lat="42.9073920" lon="1.4234250">
        <ele>1108.2</ele>
        <time>2020-07-29T12:27:44Z</time>
      </trkpt>
      <trkpt lat="42.9075090" lon="1.4235740">
        <ele>1109.1</ele>
        <time>2020-07-29T12:27:48Z</time>
      </trkpt>
      <trkpt lat="42.9075560" lon="1.4236850">
        <ele>1109.6</ele>
        <time>2020-07-29T12:27:50Z</time>
      </trkpt>
      <trkpt lat="42.9076140" lon="1.4238180">
        <ele>1110.3</ele>
        <time>2020-07-29T12:27:53Z</time>
      </trkpt>
      <trkpt lat="42.9076290" lon="1.4238590">
        <ele>1110.5</ele>
        <time>2020-07-29T12:27:54Z</time>
      </trkpt>
      <trkpt lat="42.9076870" lon="1.4240370">
        <ele>1111.4</ele>
        <time>2020-07-29T12:27:58Z</time>
      </trkpt>
      <trkpt lat="42.9077120" lon="1.4241340">
        <ele>1111.9</ele>
        <time>2020-07-29T12:28:00Z</time>
      </trkpt>
      <trkpt lat="42.9077350" lon="1.4242220">
        <ele>1112.3</ele>
        <time>2020-07-29T12:28:02Z</time>
      </trkpt>
      <trkpt lat="42.9077600" lon="1.4244510">
        <ele>1113.3</ele>
        <time>2020-07-29T12:28:06Z</time>
      </trkpt>
      <trkpt lat="42.9077620" lon="1.4244980">
        <ele>1113.5</ele>
        <time>2020-07-29T12:28:07Z</time>
      </trkpt>
      <trkpt lat="42.9077690" lon="1.4246520">
        <ele>1114.3</ele>
        <time>2020-07-29T12:28:10Z</time>
      </trkpt>
      <trkpt lat="42.9077540" lon="1.4248830">
        <ele>1115.4</ele>
        <time>2020-07-29T12:28:15Z</time>
      </trkpt>
      <trkpt lat="42.9077400" lon="1.4249270">
        <ele>1115.6</ele>
        <time>2020-07-29T12:28:16Z</time>
      </trkpt>
      <trkpt lat="42.9076320" lon="1.4251130">
        <ele>1116.6</ele>
        <time>2020-07-29T12:28:21Z</time>
      </trkpt>
      <trkpt lat="42.9076050" lon="1.4251390">
        <ele>1116.8</ele>
        <time>2020-07-29T12:28:22Z</time>
      </trkpt>
      <trkpt lat="42.9074740" lon="1.4252180">
        <ele>1117.6</ele>
        <time>2020-07-29T12:28:27Z</time>
      </trkpt>
      <trkpt lat="42.9074470" lon="1.4252290">
        <ele>1117.8</ele>
        <time>2020-07-29T12:28:28Z</time>
      </trkpt>
      <trkpt lat="42.9073260" lon="1.4252880">
        <ele>1118.5</ele>
        <time>2020-07-29T12:28:33Z</time>
      </trkpt>
      <trkpt lat="42.9072980" lon="1.4253080">
        <ele>1118.7</ele>
        <time>2020-07-29T12:28:34Z</time>
      </trkpt>
      <trkpt lat="42.9071010" lon="1.4254030">
        <ele>1119.8</ele>
        <time>2020-07-29T12:28:40Z</time>
      </trkpt>
      <trkpt lat="42.9070280" lon="1.4254440">
        <ele>1120.1</ele>
        <time>2020-07-29T12:28:42Z</time>
      </trkpt>
      <trkpt lat="42.9068840" lon="1.4255420">
        <ele>1120.9</ele>
        <time>2020-07-29T12:28:46Z</time>
      </trkpt>
      <trkpt lat="42.9067500" lon="1.4256560">
        <ele>1121.6</ele>
        <time>2020-07-29T12:28:50Z</time>
      </trkpt>
      <trkpt lat="42.9066630" lon="1.4257460">
        <ele>1122.1</ele>
        <time>2020-07-29T12:28:53Z</time>
      </trkpt>
      <trkpt lat="42.9064950" lon="1.4259190">
        <ele>1123.2</ele>
        <time>2020-07-29T12:28:59Z</time>
      </trkpt>
      <trkpt lat="42.9064410" lon="1.4259780">
        <ele>1123.6</ele>
        <time>2020-07-29T12:29:01Z</time>
      </trkpt>
      <trkpt lat="42.9063310" lon="1.4260930">
        <ele>1124.4</ele>
        <time>2020-07-29T12:29:05Z</time>
      </trkpt>
      <trkpt lat="42.9062350" lon="1.4262010">
        <ele>1125.2</ele>
        <time>2020-07-29T12:29:09Z</time>
      </trkpt>
      <trkpt lat="42.9062070" lon="1.4262300">
        <ele>1125.4</ele>
        <time>2020-07-29T12:29:10Z</time>
      </trkpt>
      <trkpt lat="42.9060750" lon="1.4264380">
        <ele>1126.5</ele>
        <time>2020-07-29T12:29:16Z</time>
      </trkpt>
      <trkpt lat="42.9060470" lon="1.4265240">
        <ele>1126.9</ele>
        <time>2020-07-29T12:29:18Z</time>
      </trkpt>
      <trkpt lat="42.9060260" lon="1.4267110">
        <ele>1127.7</ele>
        <time>2020-07-29T12:29:22Z</time>
      </trkpt>
      <trkpt lat="42.9060270" lon="1.4268520">
        <ele>1128.3</ele>
        <time>2020-07-29T12:29:25Z</time>
      </trkpt>
      <trkpt lat="42.9060410" lon="1.4271120">
        <ele>1129.4</ele>
        <time>2020-07-29T12:29:31Z</time>
      </trkpt>
      <trkpt lat="42.9060440" lon="1.4271570">
        <ele>1129.6</ele>
        <time>2020-07-29T12:29:32Z</time>
      </trkpt>
      <trkpt lat="42.9060700" lon="1.4275170">
        <ele>1131.2</ele>
        <time>2020-07-29T12:29:40Z</time>
      </trkpt>
      <trkpt lat="42.9060800" lon="1.4276470">
        <ele>1131.8</ele>
        <time>2020-07-29T12:29:43Z</time>
      </trkpt>
      <trkpt lat="42.9060840" lon="1.4276860">
        <ele>1131.9</ele>
        <time>2020-07-29T12:29:44Z</time>
      </trkpt>
      <trkpt lat="42.9061260" lon="1.4278890">
        <ele>1132.8</ele>
        <time>2020-07-29T12:29:49Z</time>
      </trkpt>
      <trkpt lat="42.9061440" lon="1.4279260">
        <ele>1133.0</ele>
        <time>2020-07-29T12:29:50Z</time>
      </trkpt>
      <trkpt lat="42.9062740" lon="1.4280430">
        <ele>1133.8</ele>
        <time>2020-07-29T12:29:55Z</time>
      </trkpt>
      <trkpt lat="42.9063740" lon="1.4280850">
        <ele>1134.2</ele>
        <time>2020-07-29T12:29:58Z</time>
      </trkpt>
      <trkpt lat="42.9064440" lon="1.4281820">
        <ele>1134.6</ele>
        <time>2020-07-29T12:30:00Z</time>
      </trkpt>
      <trkpt lat="42.9065150" lon="1.4284100">
        <ele>1135.6</ele>
        <time>2020-07-29T12:30:05Z</time>
      </trkpt>
      <trkpt lat="42.9065310" lon="1.4285010">
        <ele>1135.9</ele>
        <time>2020-07-29T12:30:07Z</time>
      </trkpt>
      <trkpt lat="42.9065170" lon="1.4286920">
        <ele>1136.6</ele>
        <time>2020-07-29T12:30:11Z</time>
      </trkpt>
      <trkpt lat="42.9064240" lon="1.4289190">
        <ele>1137.5</ele>
        <time>2020-07-29T12:30:16Z</time>
      </trkpt>
      <trkpt lat="42.9063680" lon="1.4289760">
        <ele>1137.8</ele>
        <time>2020-07-29T12:30:18Z</time>
      </trkpt>
      <trkpt lat="42.9062890" lon="1.4290400">
        <ele>1138.3</ele>
        <time>2020-07-29T12:30:21Z</time>
      </trkpt>
      <trkpt lat="42.9061750" lon="1.4291150">
        <ele>1138.9</ele>
        <time>2020-07-29T12:30:25Z</time>
      </trkpt>
      <trkpt lat="42.9059650" lon="1.4292570">
        <ele>1140.0</ele>
        <time>2020-07-29T12:30:32Z</time>
      </trkpt>
      <trkpt lat="42.9059310" lon="1.4292810">
        <ele>1140.2</ele>
        <time>2020-07-29T12:30:33Z</time>
      </trkpt>
      <trkpt lat="42.9057700" lon="1.4293620">
        <ele>1141.0</ele>
        <time>2020-07-29T12:30:38Z</time>
      </trkpt>
      <trkpt lat="42.9057420" lon="1.4293740">
        <ele>1141.1</ele>
        <time>2020-07-29T12:30:39Z</time>
      </trkpt>
      <trkpt lat="42.9055210" lon="1.4294390">
        <ele>1142.1</ele>
        <time>2020-07-29T12:30:45Z</time>
      </trkpt>
      <trkpt lat="42.9052840" lon="1.4295520">
        <ele>1142.9</ele>
        <time>2020-07-29T12:30:51Z</time>
      </trkpt>
      <trkpt lat="42.9052430" lon="1.4295830">
        <ele>1143.0</ele>
        <time>2020-07-29T12:30:52Z</time>
      </trkpt>
      <trkpt lat="42.9051610" lon="1.4296530">
        <ele>1143.4</ele>
        <time>2020-07-29T12:30:54Z</time>
      </trkpt>
      <trkpt lat="42.9050490" lon="1.4297870">
        <ele>1143.9</ele>
        <time>2020-07-29T12:30:57Z</time>
      </trkpt>
      <trkpt lat="42.9050100" lon="1.4298280">
        <ele>1144.0</ele>
        <time>2020-07-29T12:30:58Z</time>
      </trkpt>
      <trkpt lat="42.9048400" lon="1.4300370">
        <ele>1144.8</ele>
        <time>2020-07-29T12:31:03Z</time>
      </trkpt>
      <trkpt lat="42.9046880" lon="1.4302600">
        <ele>1145.5</ele>
        <time>2020-07-29T12:31:08Z</time>
      </trkpt>
      <trkpt lat="42.9046720" lon="1.4303110">
        <ele>1145.6</ele>
        <time>2020-07-29T12:31:09Z</time>
      </trkpt>
      <trkpt lat="42.9045760" lon="1.4305690">
        <ele>1146.3</ele>
        <time>2020-07-29T12:31:14Z</time>
      </trkpt>
      <trkpt lat="42.9045240" lon="1.4307900">
        <ele>1146.9</ele>
        <time>2020-07-29T12:31:18Z</time>
      </trkpt>
      <trkpt lat="42.9044820" lon="1.4310090">
        <ele>1147.4</ele>
        <time>2020-07-29T12:31:22Z</time>
      </trkpt>
      <trkpt lat="42.9044760" lon="1.4311200">
        <ele>1147.7</ele>
        <time>2020-07-29T12:31:24Z</time>
      </trkpt>
      <trkpt lat="42.9045100" lon="1.4312800">
        <ele>1148.1</ele>
        <time>2020-07-29T12:31:27Z</time>
      </trkpt>
      <trkpt lat="42.9045710" lon="1.4313650">
        <ele>1148.4</ele>
        <time>2020-07-29T12:31:29Z</time>
      </trkpt>
      <trkpt lat="42.9046310" lon="1.4314190">
        <ele>1148.5</ele>
        <time>2020-07-29T12:31:31Z</time>
      </trkpt>
      <trkpt lat="42.9047640" lon="1.4315290">
        <ele>1148.9</ele>
        <time>2020-07-29T12:31:35Z</time>
      </trkpt>
      <trkpt lat="42.9047910" lon="1.4315610">
        <ele>1148.9</ele>
        <time>2020-07-29T12:31:36Z</time>
      </trkpt>
      <trkpt lat="42.9048130" lon="1.4315960">
        <ele>1149.0</ele>
        <time>2020-07-29T12:31:37Z</time>
      </trkpt>
      <trkpt lat="42.9049860" lon="1.4318180">
        <ele>1149.7</ele>
        <time>2020-07-29T12:31:43Z</time>
      </trkpt>
      <trkpt lat="42.9050990" lon="1.4319850">
        <ele>1150.3</ele>
        <time>2020-07-29T12:31:47Z</time>
      </trkpt>
      <trkpt lat="42.9051810" lon="1.4320980">
        <ele>1150.7</ele>
        <time>2020-07-29T12:31:50Z</time>
      </trkpt>
      <trkpt lat="42.9052110" lon="1.4321290">
        <ele>1150.8</ele>
        <time>2020-07-29T12:31:51Z</time>
      </trkpt>
      <trkpt lat="42.9053140" lon="1.4322560">
        <ele>1151.4</ele>
        <time>2020-07-29T12:31:55Z</time>
      </trkpt>
      <trkpt lat="42.9053640" lon="1.4323310">
        <ele>1151.7</ele>
        <time>2020-07-29T12:31:57Z</time>
      </trkpt>
      <trkpt lat="42.9054040" lon="1.4324900">
        <ele>1152.2</ele>
        <time>2020-07-29T12:32:00Z</time>
      </trkpt>
      <trkpt lat="42.9054070" lon="1.4325670">
        <ele>1152.4</ele>
        <time>2020-07-29T12:32:01Z</time>
      </trkpt>
      <trkpt lat="42.9053500" lon="1.4327300">
        <ele>1152.8</ele>
        <time>2020-07-29T12:32:04Z</time>
      </trkpt>
      <trkpt lat="42.9053260" lon="1.4327660">
        <ele>1153.2</ele>
        <time>2020-07-29T12:32:05Z</time>
      </trkpt>
      <trkpt lat="42.9052350" lon="1.4328620">
        <ele>1153.6</ele>
        <time>2020-07-29T12:32:08Z</time>
      </trkpt>
      <trkpt lat="42.9049810" lon="1.4330460">
        <ele>1154.3</ele>
        <time>2020-07-29T12:32:14Z</time>
      </trkpt>
      <trkpt lat="42.9049420" lon="1.4330840">
        <ele>1154.4</ele>
        <time>2020-07-29T12:32:15Z</time>
      </trkpt>
      <trkpt lat="42.9047060" lon="1.4334020">
        <ele>1155.3</ele>
        <time>2020-07-29T12:32:22Z</time>
      </trkpt>
      <trkpt lat="42.9046770" lon="1.4334500">
        <ele>1155.4</ele>
        <time>2020-07-29T12:32:23Z</time>
      </trkpt>
      <trkpt lat="42.9044900" lon="1.4337150">
        <ele>1156.3</ele>
        <time>2020-07-29T12:32:29Z</time>
      </trkpt>
      <trkpt lat="42.9044000" lon="1.4338430">
        <ele>1156.8</ele>
        <time>2020-07-29T12:32:32Z</time>
      </trkpt>
      <trkpt lat="42.9042250" lon="1.4341030">
        <ele>1157.8</ele>
        <time>2020-07-29T12:32:38Z</time>
      </trkpt>
      <trkpt lat="42.9041760" lon="1.4341990">
        <ele>1158.1</ele>
        <time>2020-07-29T12:32:40Z</time>
      </trkpt>
      <trkpt lat="42.9040680" lon="1.4345900">
        <ele>1159.3</ele>
        <time>2020-07-29T12:32:47Z</time>
      </trkpt>
      <trkpt lat="42.9040410" lon="1.4350080">
        <ele>1160.4</ele>
        <time>2020-07-29T12:32:54Z</time>
      </trkpt>
      <trkpt lat="42.9040600" lon="1.4351590">
        <ele>1160.9</ele>
        <time>2020-07-29T12:32:57Z</time>
      </trkpt>
      <trkpt lat="42.9040990" lon="1.4352450">
        <ele>1161.3</ele>
        <time>2020-07-29T12:32:59Z</time>
      </trkpt>
      <trkpt lat="42.9042040" lon="1.4353430">
        <ele>1161.9</ele>
        <time>2020-07-29T12:33:03Z</time>
      </trkpt>
      <trkpt lat="42.9042290" lon="1.4353720">
        <ele>1162.0</ele>
        <time>2020-07-29T12:33:04Z</time>
      </trkpt>
      <trkpt lat="42.9043860" lon="1.4355150">
        <ele>1162.7</ele>
        <time>2020-07-29T12:33:09Z</time>
      </trkpt>
      <trkpt lat="42.9044780" lon="1.4356590">
        <ele>1163.2</ele>
        <time>2020-07-29T12:33:12Z</time>
      </trkpt>
      <trkpt lat="42.9045100" lon="1.4357180">
        <ele>1163.3</ele>
        <time>2020-07-29T12:33:13Z</time>
      </trkpt>
      <trkpt lat="42.9045430" lon="1.4357810">
        <ele>1163.5</ele>
        <time>2020-07-29T12:33:14Z</time>
      </trkpt>
      <trkpt lat="42.9046160" lon="1.4359490">
        <ele>1164.0</ele>
        <time>2020-07-29T12:33:17Z</time>
      </trkpt>
      <trkpt lat="42.9046500" lon="1.4360660">
        <ele>1164.3</ele>
        <time>2020-07-29T12:33:19Z</time>
      </trkpt>
      <trkpt lat="42.9046880" lon="1.4361740">
        <ele>1164.7</ele>
        <time>2020-07-29T12:33:21Z</time>
      </trkpt>
      <trkpt lat="42.9047710" lon="1.4362800">
        <ele>1165.3</ele>
        <time>2020-07-29T12:33:24Z</time>
      </trkpt>
      <trkpt lat="42.9048010" lon="1.4363010">
        <ele>1165.4</ele>
        <time>2020-07-29T12:33:25Z</time>
      </trkpt>
      <trkpt lat="42.9049460" lon="1.4363710">
        <ele>1165.9</ele>
        <time>2020-07-29T12:33:29Z</time>
      </trkpt>
      <trkpt lat="42.9049820" lon="1.4364000">
        <ele>1166.1</ele>
        <time>2020-07-29T12:33:30Z</time>
      </trkpt>
      <trkpt lat="42.9050850" lon="1.4365710">
        <ele>1166.4</ele>
        <time>2020-07-29T12:33:33Z</time>
      </trkpt>
      <trkpt lat="42.9051120" lon="1.4368150">
        <ele>1167.1</ele>
        <time>2020-07-29T12:33:37Z</time>
      </trkpt>
      <trkpt lat="42.9050910" lon="1.4369730">
        <ele>1167.7</ele>
        <time>2020-07-29T12:33:40Z</time>
      </trkpt>
      <trkpt lat="42.9050850" lon="1.4371350">
        <ele>1168.4</ele>
        <time>2020-07-29T12:33:43Z</time>
      </trkpt>
      <trkpt lat="42.9051080" lon="1.4373250">
        <ele>1169.1</ele>
        <time>2020-07-29T12:33:46Z</time>
      </trkpt>
      <trkpt lat="42.9051370" lon="1.4375350">
        <ele>1169.9</ele>
        <time>2020-07-29T12:33:49Z</time>
      </trkpt>
      <trkpt lat="42.9051420" lon="1.4376660">
        <ele>1170.4</ele>
        <time>2020-07-29T12:33:51Z</time>
      </trkpt>
      <trkpt lat="42.9051230" lon="1.4378000">
        <ele>1170.9</ele>
        <time>2020-07-29T12:33:53Z</time>
      </trkpt>
      <trkpt lat="42.9050990" lon="1.4378640">
        <ele>1171.1</ele>
        <time>2020-07-29T12:33:54Z</time>
      </trkpt>
      <trkpt lat="42.9050060" lon="1.4380300">
        <ele>1171.8</ele>
        <time>2020-07-29T12:33:57Z</time>
      </trkpt>
      <trkpt lat="42.9049690" lon="1.4380560">
        <ele>1172.0</ele>
        <time>2020-07-29T12:33:58Z</time>
      </trkpt>
      <trkpt lat="42.9048970" lon="1.4380980">
        <ele>1172.4</ele>
        <time>2020-07-29T12:34:00Z</time>
      </trkpt>
      <trkpt lat="42.9047890" lon="1.4381180">
        <ele>1173.0</ele>
        <time>2020-07-29T12:34:03Z</time>
      </trkpt>
      <trkpt lat="42.9047230" lon="1.4381280">
        <ele>1173.3</ele>
        <time>2020-07-29T12:34:05Z</time>
      </trkpt>
      <trkpt lat="42.9045890" lon="1.4381540">
        <ele>1174.0</ele>
        <time>2020-07-29T12:34:09Z</time>
      </trkpt>
      <trkpt lat="42.9045590" lon="1.4381570">
        <ele>1174.2</ele>
        <time>2020-07-29T12:34:10Z</time>
      </trkpt>
      <trkpt lat="42.9043800" lon="1.4381490">
        <ele>1175.1</ele>
        <time>2020-07-29T12:34:15Z</time>
      </trkpt>
      <trkpt lat="42.9043450" lon="1.4381540">
        <ele>1175.2</ele>
        <time>2020-07-29T12:34:16Z</time>
      </trkpt>
      <trkpt lat="42.9041410" lon="1.4382750">
        <ele>1176.4</ele>
        <time>2020-07-29T12:34:22Z</time>
      </trkpt>
      <trkpt lat="42.9039760" lon="1.4384370">
        <ele>1177.4</ele>
        <time>2020-07-29T12:34:27Z</time>
      </trkpt>
      <trkpt lat="42.9039490" lon="1.4384820">
        <ele>1177.6</ele>
        <time>2020-07-29T12:34:28Z</time>
      </trkpt>
      <trkpt lat="42.9038640" lon="1.4387310">
        <ele>1178.5</ele>
        <time>2020-07-29T12:34:33Z</time>
      </trkpt>
      <trkpt lat="42.9038890" lon="1.4390280">
        <ele>1179.5</ele>
        <time>2020-07-29T12:34:39Z</time>
      </trkpt>
      <trkpt lat="42.9039040" lon="1.4390730">
        <ele>1179.7</ele>
        <time>2020-07-29T12:34:40Z</time>
      </trkpt>
      <trkpt lat="42.9039500" lon="1.4392590">
        <ele>1180.4</ele>
        <time>2020-07-29T12:34:44Z</time>
      </trkpt>
      <trkpt lat="42.9039920" lon="1.4394310">
        <ele>1181.0</ele>
        <time>2020-07-29T12:34:48Z</time>
      </trkpt>
      <trkpt lat="42.9040150" lon="1.4395190">
        <ele>1181.3</ele>
        <time>2020-07-29T12:34:50Z</time>
      </trkpt>
      <trkpt lat="42.9040590" lon="1.4397630">
        <ele>1182.2</ele>
        <time>2020-07-29T12:34:55Z</time>
      </trkpt>
      <trkpt lat="42.9040640" lon="1.4398140">
        <ele>1182.3</ele>
        <time>2020-07-29T12:34:56Z</time>
      </trkpt>
      <trkpt lat="42.9040610" lon="1.4400220">
        <ele>1182.9</ele>
        <time>2020-07-29T12:35:00Z</time>
      </trkpt>
      <trkpt lat="42.9040330" lon="1.4401760">
        <ele>1183.3</ele>
        <time>2020-07-29T12:35:03Z</time>
      </trkpt>
      <trkpt lat="42.9039260" lon="1.4405010">
        <ele>1184.3</ele>
        <time>2020-07-29T12:35:10Z</time>
      </trkpt>
      <trkpt lat="42.9038870" lon="1.4405880">
        <ele>1184.7</ele>
        <time>2020-07-29T12:35:12Z</time>
      </trkpt>
      <trkpt lat="42.9038090" lon="1.4406950">
        <ele>1185.4</ele>
        <time>2020-07-29T12:35:15Z</time>
      </trkpt>
      <trkpt lat="42.9037460" lon="1.4407250">
        <ele>1185.8</ele>
        <time>2020-07-29T12:35:17Z</time>
      </trkpt>
      <trkpt lat="42.9037140" lon="1.4407230">
        <ele>1186.0</ele>
        <time>2020-07-29T12:35:18Z</time>
      </trkpt>
      <trkpt lat="42.9036600" lon="1.4406690">
        <ele>1186.5</ele>
        <time>2020-07-29T12:35:20Z</time>
      </trkpt>
      <trkpt lat="42.9036270" lon="1.4405910">
        <ele>1187.0</ele>
        <time>2020-07-29T12:35:22Z</time>
      </trkpt>
      <trkpt lat="42.9035830" lon="1.4404820">
        <ele>1187.6</ele>
        <time>2020-07-29T12:35:25Z</time>
      </trkpt>
      <trkpt lat="42.9035400" lon="1.4404080">
        <ele>1188.0</ele>
        <time>2020-07-29T12:35:27Z</time>
      </trkpt>
      <trkpt lat="42.9034840" lon="1.4403560">
        <ele>1188.3</ele>
        <time>2020-07-29T12:35:29Z</time>
      </trkpt>
      <trkpt lat="42.9034230" lon="1.4403290">
        <ele>1188.7</ele>
        <time>2020-07-29T12:35:31Z</time>
      </trkpt>
      <trkpt lat="42.9033050" lon="1.4403420">
        <ele>1189.2</ele>
        <time>2020-07-29T12:35:34Z</time>
      </trkpt>
      <trkpt lat="42.9031890" lon="1.4403950">
        <ele>1189.8</ele>
        <time>2020-07-29T12:35:37Z</time>
      </trkpt>
      <trkpt lat="42.9031500" lon="1.4404210">
        <ele>1190.0</ele>
        <time>2020-07-29T12:35:38Z</time>
      </trkpt>
      <trkpt lat="42.9030810" lon="1.4404810">
        <ele>1190.4</ele>
        <time>2020-07-29T12:35:40Z</time>
      </trkpt>
      <trkpt lat="42.9029560" lon="1.4406010">
        <ele>1191.1</ele>
        <time>2020-07-29T12:35:44Z</time>
      </trkpt>
      <trkpt lat="42.9028860" lon="1.4407100">
        <ele>1191.5</ele>
        <time>2020-07-29T12:35:47Z</time>
      </trkpt>
      <trkpt lat="42.9028290" lon="1.4408490">
        <ele>1192.0</ele>
        <time>2020-07-29T12:35:50Z</time>
      </trkpt>
      <trkpt lat="42.9027890" lon="1.4410000">
        <ele>1192.5</ele>
        <time>2020-07-29T12:35:53Z</time>
      </trkpt>
      <trkpt lat="42.9027500" lon="1.4412130">
        <ele>1193.1</ele>
        <time>2020-07-29T12:35:57Z</time>
      </trkpt>
      <trkpt lat="42.9027100" lon="1.4415200">
        <ele>1194.1</ele>
        <time>2020-07-29T12:36:03Z</time>
      </trkpt>
      <trkpt lat="42.9026960" lon="1.4416180">
        <ele>1194.5</ele>
        <time>2020-07-29T12:36:05Z</time>
      </trkpt>
      <trkpt lat="42.9026590" lon="1.4419520">
        <ele>1195.8</ele>
        <time>2020-07-29T12:36:12Z</time>
      </trkpt>
      <trkpt lat="42.9026560" lon="1.4419990">
        <ele>1196.0</ele>
        <time>2020-07-29T12:36:13Z</time>
      </trkpt>
      <trkpt lat="42.9026710" lon="1.4423710">
        <ele>1197.6</ele>
        <time>2020-07-29T12:36:21Z</time>
      </trkpt>
      <trkpt lat="42.9026780" lon="1.4424170">
        <ele>1197.8</ele>
        <time>2020-07-29T12:36:22Z</time>
      </trkpt>
      <trkpt lat="42.9027130" lon="1.4426470">
        <ele>1198.9</ele>
        <time>2020-07-29T12:36:27Z</time>
      </trkpt>
      <trkpt lat="42.9027430" lon="1.4428270">
        <ele>1199.7</ele>
        <time>2020-07-29T12:36:31Z</time>
      </trkpt>
      <trkpt lat="42.9027560" lon="1.4429150">
        <ele>1200.1</ele>
        <time>2020-07-29T12:36:33Z</time>
      </trkpt>
      <trkpt lat="42.9028040" lon="1.4431730">
        <ele>1201.4</ele>
        <time>2020-07-29T12:36:39Z</time>
      </trkpt>
      <trkpt lat="42.9028900" lon="1.4434260">
        <ele>1202.8</ele>
        <time>2020-07-29T12:36:45Z</time>
      </trkpt>
      <trkpt lat="42.9030110" lon="1.4436610">
        <ele>1203.9</ele>
        <time>2020-07-29T12:36:51Z</time>
      </trkpt>
      <trkpt lat="42.9030730" lon="1.4437840">
        <ele>1204.5</ele>
        <time>2020-07-29T12:36:54Z</time>
      </trkpt>
      <trkpt lat="42.9030920" lon="1.4438250">
        <ele>1204.7</ele>
        <time>2020-07-29T12:36:55Z</time>
      </trkpt>
      <trkpt lat="42.9032080" lon="1.4440880">
        <ele>1206.0</ele>
        <time>2020-07-29T12:37:02Z</time>
      </trkpt>
      <trkpt lat="42.9033010" lon="1.4442600">
        <ele>1206.8</ele>
        <time>2020-07-29T12:37:07Z</time>
      </trkpt>
      <trkpt lat="42.9034100" lon="1.4444810">
        <ele>1207.8</ele>
        <time>2020-07-29T12:37:13Z</time>
      </trkpt>
      <trkpt lat="42.9034730" lon="1.4446930">
        <ele>1208.6</ele>
        <time>2020-07-29T12:37:18Z</time>
      </trkpt>
      <trkpt lat="42.9034960" lon="1.4448250">
        <ele>1209.1</ele>
        <time>2020-07-29T12:37:21Z</time>
      </trkpt>
      <trkpt lat="42.9034980" lon="1.4450480">
        <ele>1210.0</ele>
        <time>2020-07-29T12:37:26Z</time>
      </trkpt>
      <trkpt lat="42.9034910" lon="1.4450950">
        <ele>1210.2</ele>
        <time>2020-07-29T12:37:27Z</time>
      </trkpt>
      <trkpt lat="42.9033930" lon="1.4452810">
        <ele>1211.2</ele>
        <time>2020-07-29T12:37:32Z</time>
      </trkpt>
      <trkpt lat="42.9033310" lon="1.4453000">
        <ele>1211.6</ele>
        <time>2020-07-29T12:37:34Z</time>
      </trkpt>
      <trkpt lat="42.9032650" lon="1.4452880">
        <ele>1212.0</ele>
        <time>2020-07-29T12:37:36Z</time>
      </trkpt>
      <trkpt lat="42.9031280" lon="1.4452520">
        <ele>1212.9</ele>
        <time>2020-07-29T12:37:40Z</time>
      </trkpt>
      <trkpt lat="42.9030150" lon="1.4452110">
        <ele>1213.6</ele>
        <time>2020-07-29T12:37:43Z</time>
      </trkpt>
      <trkpt lat="42.9029400" lon="1.4451920">
        <ele>1214.0</ele>
        <time>2020-07-29T12:37:45Z</time>
      </trkpt>
      <trkpt lat="42.9027580" lon="1.4451750">
        <ele>1215.1</ele>
        <time>2020-07-29T12:37:50Z</time>
      </trkpt>
      <trkpt lat="42.9026200" lon="1.4451830">
        <ele>1216.0</ele>
        <time>2020-07-29T12:37:54Z</time>
      </trkpt>
      <trkpt lat="42.9024880" lon="1.4452000">
        <ele>1216.9</ele>
        <time>2020-07-29T12:37:58Z</time>
      </trkpt>
      <trkpt lat="42.9024320" lon="1.4451940">
        <ele>1217.2</ele>
        <time>2020-07-29T12:38:00Z</time>
      </trkpt>
      <trkpt lat="42.9023680" lon="1.4451920">
        <ele>1217.5</ele>
        <time>2020-07-29T12:38:02Z</time>
      </trkpt>
      <trkpt lat="42.9022490" lon="1.4451940">
        <ele>1218.1</ele>
        <time>2020-07-29T12:38:06Z</time>
      </trkpt>
      <trkpt lat="42.9022130" lon="1.4451970">
        <ele>1218.3</ele>
        <time>2020-07-29T12:38:07Z</time>
      </trkpt>
      <trkpt lat="42.9019350" lon="1.4452690">
        <ele>1219.8</ele>
        <time>2020-07-29T12:38:15Z</time>
      </trkpt>
      <trkpt lat="42.9017040" lon="1.4453760">
        <ele>1221.0</ele>
        <time>2020-07-29T12:38:22Z</time>
      </trkpt>
      <trkpt lat="42.9015800" lon="1.4454730">
        <ele>1221.8</ele>
        <time>2020-07-29T12:38:26Z</time>
      </trkpt>
      <trkpt lat="42.9014780" lon="1.4456120">
        <ele>1222.5</ele>
        <time>2020-07-29T12:38:30Z</time>
      </trkpt>
      <trkpt lat="42.9014570" lon="1.4456480">
        <ele>1222.7</ele>
        <time>2020-07-29T12:38:31Z</time>
      </trkpt>
      <trkpt lat="42.9013430" lon="1.4459000">
        <ele>1223.7</ele>
        <time>2020-07-29T12:38:37Z</time>
      </trkpt>
      <trkpt lat="42.9013250" lon="1.4459420">
        <ele>1223.9</ele>
        <time>2020-07-29T12:38:38Z</time>
      </trkpt>
      <trkpt lat="42.9011860" lon="1.4463420">
        <ele>1225.4</ele>
        <time>2020-07-29T12:38:47Z</time>
      </trkpt>
      <trkpt lat="42.9010840" lon="1.4466120">
        <ele>1226.5</ele>
        <time>2020-07-29T12:38:53Z</time>
      </trkpt>
      <trkpt lat="42.9010030" lon="1.4467810">
        <ele>1227.3</ele>
        <time>2020-07-29T12:38:57Z</time>
      </trkpt>
      <trkpt lat="42.9009810" lon="1.4468220">
        <ele>1227.5</ele>
        <time>2020-07-29T12:38:58Z</time>
      </trkpt>
      <trkpt lat="42.9008830" lon="1.4470240">
        <ele>1228.5</ele>
        <time>2020-07-29T12:39:03Z</time>
      </trkpt>
      <trkpt lat="42.9008110" lon="1.4471830">
        <ele>1229.3</ele>
        <time>2020-07-29T12:39:07Z</time>
      </trkpt>
      <trkpt lat="42.9007790" lon="1.4472630">
        <ele>1229.7</ele>
        <time>2020-07-29T12:39:09Z</time>
      </trkpt>
      <trkpt lat="42.9006620" lon="1.4475950">
        <ele>1231.2</ele>
        <time>2020-07-29T12:39:17Z</time>
      </trkpt>
      <trkpt lat="42.9006360" lon="1.4476820">
        <ele>1231.6</ele>
        <time>2020-07-29T12:39:19Z</time>
      </trkpt>
      <trkpt lat="42.9005840" lon="1.4478970">
        <ele>1232.6</ele>
        <time>2020-07-29T12:39:24Z</time>
      </trkpt>
      <trkpt lat="42.9005670" lon="1.4479870">
        <ele>1233.0</ele>
        <time>2020-07-29T12:39:26Z</time>
      </trkpt>
      <trkpt lat="42.9005500" lon="1.4480770">
        <ele>1233.4</ele>
        <time>2020-07-29T12:39:28Z</time>
      </trkpt>
      <trkpt lat="42.9005140" lon="1.4484010">
        <ele>1234.5</ele>
        <time>2020-07-29T12:39:35Z</time>
      </trkpt>
      <trkpt lat="42.9005190" lon="1.4484960">
        <ele>1234.8</ele>
        <time>2020-07-29T12:39:37Z</time>
      </trkpt>
      <trkpt lat="42.9005560" lon="1.4487840">
        <ele>1235.7</ele>
        <time>2020-07-29T12:39:43Z</time>
      </trkpt>
      <trkpt lat="42.9005810" lon="1.4490270">
        <ele>1236.5</ele>
        <time>2020-07-29T12:39:48Z</time>
      </trkpt>
      <trkpt lat="42.9005640" lon="1.4491740">
        <ele>1237.1</ele>
        <time>2020-07-29T12:39:51Z</time>
      </trkpt>
      <trkpt lat="42.9004690" lon="1.4494320">
        <ele>1238.2</ele>
        <time>2020-07-29T12:39:57Z</time>
      </trkpt>
      <trkpt lat="42.9003490" lon="1.4497350">
        <ele>1239.5</ele>
        <time>2020-07-29T12:40:04Z</time>
      </trkpt>
      <trkpt lat="42.9003350" lon="1.4497790">
        <ele>1239.7</ele>
        <time>2020-07-29T12:40:05Z</time>
      </trkpt>
      <trkpt lat="42.9002760" lon="1.4499630">
        <ele>1240.4</ele>
        <time>2020-07-29T12:40:09Z</time>
      </trkpt>
      <trkpt lat="42.9002210" lon="1.4501520">
        <ele>1241.1</ele>
        <time>2020-07-29T12:40:13Z</time>
      </trkpt>
      <trkpt lat="42.9000910" lon="1.4504260">
        <ele>1242.3</ele>
        <time>2020-07-29T12:40:20Z</time>
      </trkpt>
      <trkpt lat="42.9000590" lon="1.4505080">
        <ele>1242.6</ele>
        <time>2020-07-29T12:40:22Z</time>
      </trkpt>
      <trkpt lat="42.8999990" lon="1.4507720">
        <ele>1243.4</ele>
        <time>2020-07-29T12:40:28Z</time>
      </trkpt>
      <trkpt lat="42.8999710" lon="1.4509090">
        <ele>1243.9</ele>
        <time>2020-07-29T12:40:31Z</time>
      </trkpt>
      <trkpt lat="42.8999130" lon="1.4511750">
        <ele>1244.8</ele>
        <time>2020-07-29T12:40:37Z</time>
      </trkpt>
      <trkpt lat="42.8998950" lon="1.4512610">
        <ele>1245.1</ele>
        <time>2020-07-29T12:40:39Z</time>
      </trkpt>
      <trkpt lat="42.8998530" lon="1.4514380">
        <ele>1245.8</ele>
        <time>2020-07-29T12:40:43Z</time>
      </trkpt>
      <trkpt lat="42.8998440" lon="1.4514820">
        <ele>1246.0</ele>
        <time>2020-07-29T12:40:44Z</time>
      </trkpt>
      <trkpt lat="42.8997870" lon="1.4517600">
        <ele>1246.9</ele>
        <time>2020-07-29T12:40:50Z</time>
      </trkpt>
      <trkpt lat="42.8997100" lon="1.4521510">
        <ele>1248.1</ele>
        <time>2020-07-29T12:40:58Z</time>
      </trkpt>
      <trkpt lat="42.8996860" lon="1.4522470">
        <ele>1248.4</ele>
        <time>2020-07-29T12:41:00Z</time>
      </trkpt>
      <trkpt lat="42.8995700" lon="1.4524500">
        <ele>1249.2</ele>
        <time>2020-07-29T12:41:05Z</time>
      </trkpt>
      <trkpt lat="42.8995000" lon="1.4524910">
        <ele>1249.5</ele>
        <time>2020-07-29T12:41:07Z</time>
      </trkpt>
      <trkpt lat="42.8993950" lon="1.4525250">
        <ele>1249.9</ele>
        <time>2020-07-29T12:41:10Z</time>
      </trkpt>
      <trkpt lat="42.8993260" lon="1.4525430">
        <ele>1250.2</ele>
        <time>2020-07-29T12:41:12Z</time>
      </trkpt>
      <trkpt lat="42.8991610" lon="1.4526200">
        <ele>1250.7</ele>
        <time>2020-07-29T12:41:17Z</time>
      </trkpt>
      <trkpt lat="42.8991320" lon="1.4526470">
        <ele>1250.7</ele>
        <time>2020-07-29T12:41:18Z</time>
      </trkpt>
      <trkpt lat="42.8990520" lon="1.4527550">
        <ele>1250.6</ele>
        <time>2020-07-29T12:41:21Z</time>
      </trkpt>
      <trkpt lat="42.8990320" lon="1.4532890">
        <ele>1249.3</ele>
        <time>2020-07-29T12:43:56Z</time>
      </trkpt>
      <trkpt lat="42.8991080" lon="1.4535010">
        <ele>1248.4</ele>
        <time>2020-07-29T12:44:00Z</time>
      </trkpt>
      <trkpt lat="42.8991940" lon="1.4538950">
        <ele>1246.9</ele>
        <time>2020-07-29T12:44:05Z</time>
      </trkpt>
      <trkpt lat="42.8992140" lon="1.4540900">
        <ele>1246.2</ele>
        <time>2020-07-29T12:44:07Z</time>
      </trkpt>
      <trkpt lat="42.8992160" lon="1.4542990">
        <ele>1245.4</ele>
        <time>2020-07-29T12:44:09Z</time>
      </trkpt>
      <trkpt lat="42.8992140" lon="1.4544070">
        <ele>1245.0</ele>
        <time>2020-07-29T12:44:10Z</time>
      </trkpt>
      <trkpt lat="42.8992050" lon="1.4546290">
        <ele>1244.1</ele>
        <time>2020-07-29T12:44:12Z</time>
      </trkpt>
      <trkpt lat="42.8992010" lon="1.4549740">
        <ele>1242.6</ele>
        <time>2020-07-29T12:44:15Z</time>
      </trkpt>
      <trkpt lat="42.8991920" lon="1.4552160">
        <ele>1241.6</ele>
        <time>2020-07-29T12:44:17Z</time>
      </trkpt>
      <trkpt lat="42.8991820" lon="1.4556020">
        <ele>1240.0</ele>
        <time>2020-07-29T12:44:20Z</time>
      </trkpt>
      <trkpt lat="42.8991740" lon="1.4557320">
        <ele>1239.5</ele>
        <time>2020-07-29T12:44:21Z</time>
      </trkpt>
      <trkpt lat="42.8991550" lon="1.4559930">
        <ele>1238.5</ele>
        <time>2020-07-29T12:44:23Z</time>
      </trkpt>
      <trkpt lat="42.8991200" lon="1.4562560">
        <ele>1237.5</ele>
        <time>2020-07-29T12:44:25Z</time>
      </trkpt>
      <trkpt lat="42.8990450" lon="1.4565010">
        <ele>1236.5</ele>
        <time>2020-07-29T12:44:27Z</time>
      </trkpt>
      <trkpt lat="42.8989430" lon="1.4567270">
        <ele>1235.3</ele>
        <time>2020-07-29T12:44:29Z</time>
      </trkpt>
      <trkpt lat="42.8988160" lon="1.4570900">
        <ele>1233.4</ele>
        <time>2020-07-29T12:44:32Z</time>
      </trkpt>
      <trkpt lat="42.8987320" lon="1.4573460">
        <ele>1232.2</ele>
        <time>2020-07-29T12:44:34Z</time>
      </trkpt>
      <trkpt lat="42.8986070" lon="1.4577090">
        <ele>1230.5</ele>
        <time>2020-07-29T12:44:37Z</time>
      </trkpt>
      <trkpt lat="42.8985800" lon="1.4578260">
        <ele>1230.0</ele>
        <time>2020-07-29T12:44:38Z</time>
      </trkpt>
      <trkpt lat="42.8985690" lon="1.4579380">
        <ele>1229.4</ele>
        <time>2020-07-29T12:44:39Z</time>
      </trkpt>
      <trkpt lat="42.8985810" lon="1.4580420">
        <ele>1229.0</ele>
        <time>2020-07-29T12:44:40Z</time>
      </trkpt>
      <trkpt lat="42.8986230" lon="1.4581330">
        <ele>1228.5</ele>
        <time>2020-07-29T12:44:41Z</time>
      </trkpt>
      <trkpt lat="42.8986900" lon="1.4581990">
        <ele>1228.0</ele>
        <time>2020-07-29T12:44:42Z</time>
      </trkpt>
      <trkpt lat="42.8987720" lon="1.4582440">
        <ele>1227.4</ele>
        <time>2020-07-29T12:44:43Z</time>
      </trkpt>
      <trkpt lat="42.8989350" lon="1.4583570">
        <ele>1226.3</ele>
        <time>2020-07-29T12:44:45Z</time>
      </trkpt>
      <trkpt lat="42.8990240" lon="1.4585840">
        <ele>1225.1</ele>
        <time>2020-07-29T12:44:47Z</time>
      </trkpt>
      <trkpt lat="42.8990140" lon="1.4588560">
        <ele>1223.9</ele>
        <time>2020-07-29T12:44:49Z</time>
      </trkpt>
      <trkpt lat="42.8989140" lon="1.4590980">
        <ele>1222.7</ele>
        <time>2020-07-29T12:44:51Z</time>
      </trkpt>
      <trkpt lat="42.8988340" lon="1.4591900">
        <ele>1222.1</ele>
        <time>2020-07-29T12:44:52Z</time>
      </trkpt>
      <trkpt lat="42.8987400" lon="1.4592540">
        <ele>1221.5</ele>
        <time>2020-07-29T12:44:53Z</time>
      </trkpt>
      <trkpt lat="42.8985430" lon="1.4593030">
        <ele>1220.3</ele>
        <time>2020-07-29T12:44:55Z</time>
      </trkpt>
      <trkpt lat="42.8984520" lon="1.4593130">
        <ele>1219.9</ele>
        <time>2020-07-29T12:44:56Z</time>
      </trkpt>
      <trkpt lat="42.8983680" lon="1.4593330">
        <ele>1219.4</ele>
        <time>2020-07-29T12:44:57Z</time>
      </trkpt>
      <trkpt lat="42.8982360" lon="1.4594590">
        <ele>1218.6</ele>
        <time>2020-07-29T12:44:59Z</time>
      </trkpt>
      <trkpt lat="42.8981880" lon="1.4596770">
        <ele>1217.8</ele>
        <time>2020-07-29T12:45:01Z</time>
      </trkpt>
      <trkpt lat="42.8982280" lon="1.4599140">
        <ele>1217.0</ele>
        <time>2020-07-29T12:45:03Z</time>
      </trkpt>
      <trkpt lat="42.8983530" lon="1.4600940">
        <ele>1216.4</ele>
        <time>2020-07-29T12:45:05Z</time>
      </trkpt>
      <trkpt lat="42.8984580" lon="1.4602820">
        <ele>1215.7</ele>
        <time>2020-07-29T12:45:07Z</time>
      </trkpt>
      <trkpt lat="42.8984190" lon="1.4604930">
        <ele>1214.8</ele>
        <time>2020-07-29T12:45:09Z</time>
      </trkpt>
      <trkpt lat="42.8982780" lon="1.4605880">
        <ele>1213.8</ele>
        <time>2020-07-29T12:45:11Z</time>
      </trkpt>
      <trkpt lat="42.8981940" lon="1.4606120">
        <ele>1213.2</ele>
        <time>2020-07-29T12:45:12Z</time>
      </trkpt>
      <trkpt lat="42.8981120" lon="1.4606530">
        <ele>1212.6</ele>
        <time>2020-07-29T12:45:13Z</time>
      </trkpt>
      <trkpt lat="42.8980410" lon="1.4607270">
        <ele>1212.1</ele>
        <time>2020-07-29T12:45:14Z</time>
      </trkpt>
      <trkpt lat="42.8979610" lon="1.4609430">
        <ele>1210.9</ele>
        <time>2020-07-29T12:45:16Z</time>
      </trkpt>
      <trkpt lat="42.8979960" lon="1.4613410">
        <ele>1209.0</ele>
        <time>2020-07-29T12:45:19Z</time>
      </trkpt>
      <trkpt lat="42.8980600" lon="1.4616160">
        <ele>1207.8</ele>
        <time>2020-07-29T12:45:21Z</time>
      </trkpt>
      <trkpt lat="42.8980970" lon="1.4617540">
        <ele>1207.3</ele>
        <time>2020-07-29T12:45:22Z</time>
      </trkpt>
      <trkpt lat="42.8981820" lon="1.4620270">
        <ele>1206.2</ele>
        <time>2020-07-29T12:45:24Z</time>
      </trkpt>
      <trkpt lat="42.8982750" lon="1.4623060">
        <ele>1205.0</ele>
        <time>2020-07-29T12:45:26Z</time>
      </trkpt>
      <trkpt lat="42.8983630" lon="1.4625920">
        <ele>1203.7</ele>
        <time>2020-07-29T12:45:28Z</time>
      </trkpt>
      <trkpt lat="42.8984600" lon="1.4628760">
        <ele>1202.7</ele>
        <time>2020-07-29T12:45:30Z</time>
      </trkpt>
      <trkpt lat="42.8985500" lon="1.4631660">
        <ele>1201.8</ele>
        <time>2020-07-29T12:45:32Z</time>
      </trkpt>
      <trkpt lat="42.8985850" lon="1.4634720">
        <ele>1200.6</ele>
        <time>2020-07-29T12:45:34Z</time>
      </trkpt>
      <trkpt lat="42.8985330" lon="1.4637750">
        <ele>1199.4</ele>
        <time>2020-07-29T12:45:36Z</time>
      </trkpt>
      <trkpt lat="42.8983200" lon="1.4641410">
        <ele>1197.7</ele>
        <time>2020-07-29T12:45:39Z</time>
      </trkpt>
      <trkpt lat="42.8982460" lon="1.4642600">
        <ele>1197.1</ele>
        <time>2020-07-29T12:45:40Z</time>
      </trkpt>
      <trkpt lat="42.8981120" lon="1.4645140">
        <ele>1195.9</ele>
        <time>2020-07-29T12:45:42Z</time>
      </trkpt>
      <trkpt lat="42.8979830" lon="1.4647830">
        <ele>1194.5</ele>
        <time>2020-07-29T12:45:44Z</time>
      </trkpt>
      <trkpt lat="42.8978510" lon="1.4650550">
        <ele>1193.2</ele>
        <time>2020-07-29T12:45:46Z</time>
      </trkpt>
      <trkpt lat="42.8977090" lon="1.4653200">
        <ele>1192.0</ele>
        <time>2020-07-29T12:45:48Z</time>
      </trkpt>
      <trkpt lat="42.8975670" lon="1.4655910">
        <ele>1190.7</ele>
        <time>2020-07-29T12:45:50Z</time>
      </trkpt>
      <trkpt lat="42.8973850" lon="1.4660250">
        <ele>1188.7</ele>
        <time>2020-07-29T12:45:53Z</time>
      </trkpt>
      <trkpt lat="42.8972840" lon="1.4663270">
        <ele>1187.3</ele>
        <time>2020-07-29T12:45:55Z</time>
      </trkpt>
      <trkpt lat="42.8971410" lon="1.4667870">
        <ele>1185.2</ele>
        <time>2020-07-29T12:45:58Z</time>
      </trkpt>
      <trkpt lat="42.8970430" lon="1.4670880">
        <ele>1183.9</ele>
        <time>2020-07-29T12:46:00Z</time>
      </trkpt>
      <trkpt lat="42.8969450" lon="1.4673880">
        <ele>1182.7</ele>
        <time>2020-07-29T12:46:02Z</time>
      </trkpt>
      <trkpt lat="42.8968990" lon="1.4675370">
        <ele>1182.0</ele>
        <time>2020-07-29T12:46:03Z</time>
      </trkpt>
      <trkpt lat="42.8968540" lon="1.4676810">
        <ele>1181.4</ele>
        <time>2020-07-29T12:46:04Z</time>
      </trkpt>
      <trkpt lat="42.8967340" lon="1.4680530">
        <ele>1180.0</ele>
        <time>2020-07-29T12:46:07Z</time>
      </trkpt>
      <trkpt lat="42.8967050" lon="1.4681620">
        <ele>1179.7</ele>
        <time>2020-07-29T12:46:08Z</time>
      </trkpt>
      <trkpt lat="42.8966950" lon="1.4682650">
        <ele>1179.3</ele>
        <time>2020-07-29T12:46:09Z</time>
      </trkpt>
      <trkpt lat="42.8967150" lon="1.4683560">
        <ele>1179.1</ele>
        <time>2020-07-29T12:46:10Z</time>
      </trkpt>
      <trkpt lat="42.8968380" lon="1.4684590">
        <ele>1178.6</ele>
        <time>2020-07-29T12:46:12Z</time>
      </trkpt>
      <trkpt lat="42.8971520" lon="1.4685760">
        <ele>1177.5</ele>
        <time>2020-07-29T12:46:16Z</time>
      </trkpt>
      <trkpt lat="42.8973240" lon="1.4688260">
        <ele>1176.8</ele>
        <time>2020-07-29T12:46:19Z</time>
      </trkpt>
      <trkpt lat="42.8973050" lon="1.4690550">
        <ele>1176.2</ele>
        <time>2020-07-29T12:46:21Z</time>
      </trkpt>
      <trkpt lat="42.8971760" lon="1.4691930">
        <ele>1175.4</ele>
        <time>2020-07-29T12:46:23Z</time>
      </trkpt>
      <trkpt lat="42.8970140" lon="1.4691930">
        <ele>1174.6</ele>
        <time>2020-07-29T12:46:25Z</time>
      </trkpt>
      <trkpt lat="42.8969420" lon="1.4691310">
        <ele>1174.2</ele>
        <time>2020-07-29T12:46:26Z</time>
      </trkpt>
      <trkpt lat="42.8968860" lon="1.4690390">
        <ele>1173.8</ele>
        <time>2020-07-29T12:46:27Z</time>
      </trkpt>
      <trkpt lat="42.8968450" lon="1.4689290">
        <ele>1173.4</ele>
        <time>2020-07-29T12:46:28Z</time>
      </trkpt>
      <trkpt lat="42.8967480" lon="1.4687120">
        <ele>1172.6</ele>
        <time>2020-07-29T12:46:30Z</time>
      </trkpt>
      <trkpt lat="42.8966840" lon="1.4686190">
        <ele>1172.2</ele>
        <time>2020-07-29T12:46:31Z</time>
      </trkpt>
      <trkpt lat="42.8965850" lon="1.4684190">
        <ele>1171.4</ele>
        <time>2020-07-29T12:46:33Z</time>
      </trkpt>
      <trkpt lat="42.8965940" lon="1.4680470">
        <ele>1169.9</ele>
        <time>2020-07-29T12:46:36Z</time>
      </trkpt>
      <trkpt lat="42.8966130" lon="1.4679180">
        <ele>1169.4</ele>
        <time>2020-07-29T12:46:37Z</time>
      </trkpt>
      <trkpt lat="42.8966350" lon="1.4677870">
        <ele>1168.9</ele>
        <time>2020-07-29T12:46:38Z</time>
      </trkpt>
      <trkpt lat="42.8967190" lon="1.4672210">
        <ele>1166.6</ele>
        <time>2020-07-29T12:46:42Z</time>
      </trkpt>
      <trkpt lat="42.8967930" lon="1.4666140">
        <ele>1164.1</ele>
        <time>2020-07-29T12:46:46Z</time>
      </trkpt>
      <trkpt lat="42.8968120" lon="1.4662990">
        <ele>1162.9</ele>
        <time>2020-07-29T12:46:48Z</time>
      </trkpt>
      <trkpt lat="42.8968110" lon="1.4659740">
        <ele>1161.6</ele>
        <time>2020-07-29T12:46:50Z</time>
      </trkpt>
      <trkpt lat="42.8967990" lon="1.4656390">
        <ele>1160.3</ele>
        <time>2020-07-29T12:46:52Z</time>
      </trkpt>
      <trkpt lat="42.8968010" lon="1.4654720">
        <ele>1159.7</ele>
        <time>2020-07-29T12:46:53Z</time>
      </trkpt>
      <trkpt lat="42.8968260" lon="1.4651390">
        <ele>1158.5</ele>
        <time>2020-07-29T12:46:55Z</time>
      </trkpt>
      <trkpt lat="42.8968550" lon="1.4649790">
        <ele>1157.9</ele>
        <time>2020-07-29T12:46:56Z</time>
      </trkpt>
      <trkpt lat="42.8968920" lon="1.4648230">
        <ele>1157.3</ele>
        <time>2020-07-29T12:46:57Z</time>
      </trkpt>
      <trkpt lat="42.8969850" lon="1.4645230">
        <ele>1156.4</ele>
        <time>2020-07-29T12:46:59Z</time>
      </trkpt>
      <trkpt lat="42.8970740" lon="1.4642230">
        <ele>1155.5</ele>
        <time>2020-07-29T12:47:01Z</time>
      </trkpt>
      <trkpt lat="42.8971450" lon="1.4639100">
        <ele>1154.6</ele>
        <time>2020-07-29T12:47:03Z</time>
      </trkpt>
      <trkpt lat="42.8972130" lon="1.4634390">
        <ele>1153.6</ele>
        <time>2020-07-29T12:47:06Z</time>
      </trkpt>
      <trkpt lat="42.8972310" lon="1.4632840">
        <ele>1153.3</ele>
        <time>2020-07-29T12:47:07Z</time>
      </trkpt>
      <trkpt lat="42.8972380" lon="1.4628210">
        <ele>1152.5</ele>
        <time>2020-07-29T12:47:10Z</time>
      </trkpt>
      <trkpt lat="42.8972070" lon="1.4625230">
        <ele>1152.1</ele>
        <time>2020-07-29T12:47:12Z</time>
      </trkpt>
      <trkpt lat="42.8971580" lon="1.4621100">
        <ele>1151.6</ele>
        <time>2020-07-29T12:47:15Z</time>
      </trkpt>
      <trkpt lat="42.8971350" lon="1.4619890">
        <ele>1151.5</ele>
        <time>2020-07-29T12:47:16Z</time>
      </trkpt>
      <trkpt lat="42.8969960" lon="1.4617250">
        <ele>1150.9</ele>
        <time>2020-07-29T12:47:19Z</time>
      </trkpt>
      <trkpt lat="42.8968470" lon="1.4617280">
        <ele>1150.3</ele>
        <time>2020-07-29T12:47:21Z</time>
      </trkpt>
      <trkpt lat="42.8967580" lon="1.4619020">
        <ele>1149.7</ele>
        <time>2020-07-29T12:47:23Z</time>
      </trkpt>
      <trkpt lat="42.8967930" lon="1.4621100">
        <ele>1149.2</ele>
        <time>2020-07-29T12:47:25Z</time>
      </trkpt>
      <trkpt lat="42.8968430" lon="1.4622090">
        <ele>1148.9</ele>
        <time>2020-07-29T12:47:26Z</time>
      </trkpt>
      <trkpt lat="42.8969380" lon="1.4624110">
        <ele>1148.6</ele>
        <time>2020-07-29T12:47:28Z</time>
      </trkpt>
      <trkpt lat="42.8970060" lon="1.4626310">
        <ele>1148.1</ele>
        <time>2020-07-29T12:47:30Z</time>
      </trkpt>
      <trkpt lat="42.8970290" lon="1.4627490">
        <ele>1147.8</ele>
        <time>2020-07-29T12:47:31Z</time>
      </trkpt>
      <trkpt lat="42.8970270" lon="1.4630000">
        <ele>1147.1</ele>
        <time>2020-07-29T12:47:33Z</time>
      </trkpt>
      <trkpt lat="42.8969660" lon="1.4632360">
        <ele>1146.3</ele>
        <time>2020-07-29T12:47:35Z</time>
      </trkpt>
      <trkpt lat="42.8969040" lon="1.4634820">
        <ele>1145.4</ele>
        <time>2020-07-29T12:47:37Z</time>
      </trkpt>
      <trkpt lat="42.8968490" lon="1.4637390">
        <ele>1144.6</ele>
        <time>2020-07-29T12:47:39Z</time>
      </trkpt>
      <trkpt lat="42.8967860" lon="1.4639980">
        <ele>1143.5</ele>
        <time>2020-07-29T12:47:41Z</time>
      </trkpt>
      <trkpt lat="42.8967400" lon="1.4641210">
        <ele>1143.0</ele>
        <time>2020-07-29T12:47:42Z</time>
      </trkpt>
      <trkpt lat="42.8965430" lon="1.4644370">
        <ele>1141.2</ele>
        <time>2020-07-29T12:47:45Z</time>
      </trkpt>
      <trkpt lat="42.8964780" lon="1.4645450">
        <ele>1140.5</ele>
        <time>2020-07-29T12:47:46Z</time>
      </trkpt>
      <trkpt lat="42.8963730" lon="1.4647920">
        <ele>1139.3</ele>
        <time>2020-07-29T12:47:48Z</time>
      </trkpt>
      <trkpt lat="42.8962950" lon="1.4650710">
        <ele>1138.0</ele>
        <time>2020-07-29T12:47:50Z</time>
      </trkpt>
      <trkpt lat="42.8962220" lon="1.4653600">
        <ele>1136.7</ele>
        <time>2020-07-29T12:47:52Z</time>
      </trkpt>
      <trkpt lat="42.8961600" lon="1.4656570">
        <ele>1135.5</ele>
        <time>2020-07-29T12:47:54Z</time>
      </trkpt>
      <trkpt lat="42.8961070" lon="1.4659570">
        <ele>1134.3</ele>
        <time>2020-07-29T12:47:56Z</time>
      </trkpt>
      <trkpt lat="42.8960800" lon="1.4661070">
        <ele>1133.6</ele>
        <time>2020-07-29T12:47:57Z</time>
      </trkpt>
      <trkpt lat="42.8960510" lon="1.4662540">
        <ele>1132.9</ele>
        <time>2020-07-29T12:47:58Z</time>
      </trkpt>
      <trkpt lat="42.8960260" lon="1.4664020">
        <ele>1132.3</ele>
        <time>2020-07-29T12:47:59Z</time>
      </trkpt>
      <trkpt lat="42.8959940" lon="1.4667020">
        <ele>1131.2</ele>
        <time>2020-07-29T12:48:01Z</time>
      </trkpt>
      <trkpt lat="42.8959860" lon="1.4668510">
        <ele>1130.8</ele>
        <time>2020-07-29T12:48:02Z</time>
      </trkpt>
      <trkpt lat="42.8959780" lon="1.4670020">
        <ele>1130.3</ele>
        <time>2020-07-29T12:48:03Z</time>
      </trkpt>
      <trkpt lat="42.8959490" lon="1.4672990">
        <ele>1129.3</ele>
        <time>2020-07-29T12:48:05Z</time>
      </trkpt>
      <trkpt lat="42.8959220" lon="1.4674440">
        <ele>1128.7</ele>
        <time>2020-07-29T12:48:06Z</time>
      </trkpt>
      <trkpt lat="42.8958810" lon="1.4675830">
        <ele>1128.0</ele>
        <time>2020-07-29T12:48:07Z</time>
      </trkpt>
      <trkpt lat="42.8956600" lon="1.4681140">
        <ele>1125.5</ele>
        <time>2020-07-29T12:48:11Z</time>
      </trkpt>
      <trkpt lat="42.8955560" lon="1.4685610">
        <ele>1123.7</ele>
        <time>2020-07-29T12:48:14Z</time>
      </trkpt>
      <trkpt lat="42.8955390" lon="1.4687160">
        <ele>1123.1</ele>
        <time>2020-07-29T12:48:15Z</time>
      </trkpt>
      <trkpt lat="42.8955240" lon="1.4690340">
        <ele>1121.8</ele>
        <time>2020-07-29T12:48:17Z</time>
      </trkpt>
      <trkpt lat="42.8955210" lon="1.4695120">
        <ele>1119.9</ele>
        <time>2020-07-29T12:48:20Z</time>
      </trkpt>
      <trkpt lat="42.8955230" lon="1.4698280">
        <ele>1118.8</ele>
        <time>2020-07-29T12:48:22Z</time>
      </trkpt>
      <trkpt lat="42.8955310" lon="1.4699850">
        <ele>1118.2</ele>
        <time>2020-07-29T12:48:23Z</time>
      </trkpt>
      <trkpt lat="42.8955590" lon="1.4703020">
        <ele>1117.1</ele>
        <time>2020-07-29T12:48:25Z</time>
      </trkpt>
      <trkpt lat="42.8955730" lon="1.4704610">
        <ele>1116.5</ele>
        <time>2020-07-29T12:48:26Z</time>
      </trkpt>
      <trkpt lat="42.8955850" lon="1.4706200">
        <ele>1116.0</ele>
        <time>2020-07-29T12:48:27Z</time>
      </trkpt>
      <trkpt lat="42.8955970" lon="1.4709320">
        <ele>1115.0</ele>
        <time>2020-07-29T12:48:29Z</time>
      </trkpt>
      <trkpt lat="42.8955850" lon="1.4710870">
        <ele>1114.5</ele>
        <time>2020-07-29T12:48:30Z</time>
      </trkpt>
      <trkpt lat="42.8955570" lon="1.4712300">
        <ele>1114.0</ele>
        <time>2020-07-29T12:48:31Z</time>
      </trkpt>
      <trkpt lat="42.8954500" lon="1.4715020">
        <ele>1112.6</ele>
        <time>2020-07-29T12:48:33Z</time>
      </trkpt>
      <trkpt lat="42.8953180" lon="1.4717690">
        <ele>1111.2</ele>
        <time>2020-07-29T12:48:35Z</time>
      </trkpt>
      <trkpt lat="42.8951840" lon="1.4720530">
        <ele>1109.8</ele>
        <time>2020-07-29T12:48:37Z</time>
      </trkpt>
      <trkpt lat="42.8951230" lon="1.4722020">
        <ele>1109.0</ele>
        <time>2020-07-29T12:48:38Z</time>
      </trkpt>
      <trkpt lat="42.8950030" lon="1.4725100">
        <ele>1107.5</ele>
        <time>2020-07-29T12:48:40Z</time>
      </trkpt>
      <trkpt lat="42.8949050" lon="1.4728030">
        <ele>1105.8</ele>
        <time>2020-07-29T12:48:42Z</time>
      </trkpt>
      <trkpt lat="42.8948470" lon="1.4732960">
        <ele>1102.9</ele>
        <time>2020-07-29T12:48:45Z</time>
      </trkpt>
      <trkpt lat="42.8948400" lon="1.4736470">
        <ele>1100.9</ele>
        <time>2020-07-29T12:48:47Z</time>
      </trkpt>
      <trkpt lat="42.8948430" lon="1.4738310">
        <ele>1099.8</ele>
        <time>2020-07-29T12:48:48Z</time>
      </trkpt>
      <trkpt lat="42.8948510" lon="1.4741940">
        <ele>1097.6</ele>
        <time>2020-07-29T12:48:50Z</time>
      </trkpt>
      <trkpt lat="42.8948410" lon="1.4743650">
        <ele>1096.5</ele>
        <time>2020-07-29T12:48:51Z</time>
      </trkpt>
      <trkpt lat="42.8948220" lon="1.4745360">
        <ele>1095.3</ele>
        <time>2020-07-29T12:48:52Z</time>
      </trkpt>
      <trkpt lat="42.8947950" lon="1.4746930">
        <ele>1094.2</ele>
        <time>2020-07-29T12:48:53Z</time>
      </trkpt>
      <trkpt lat="42.8947620" lon="1.4748380">
        <ele>1093.2</ele>
        <time>2020-07-29T12:48:54Z</time>
      </trkpt>
      <trkpt lat="42.8947160" lon="1.4749330">
        <ele>1092.5</ele>
        <time>2020-07-29T12:48:55Z</time>
      </trkpt>
      <trkpt lat="42.8946710" lon="1.4750540">
        <ele>1091.7</ele>
        <time>2020-07-29T12:48:56Z</time>
      </trkpt>
      <trkpt lat="42.8946060" lon="1.4751610">
        <ele>1090.1</ele>
        <time>2020-07-29T12:48:57Z</time>
      </trkpt>
      <trkpt lat="42.8945250" lon="1.4752360">
        <ele>1089.3</ele>
        <time>2020-07-29T12:48:58Z</time>
      </trkpt>
      <trkpt lat="42.8943340" lon="1.4754350">
        <ele>1087.1</ele>
        <time>2020-07-29T12:49:00Z</time>
      </trkpt>
      <trkpt lat="42.8940300" lon="1.4757390">
        <ele>1083.7</ele>
        <time>2020-07-29T12:49:03Z</time>
      </trkpt>
      <trkpt lat="42.8939420" lon="1.4758520">
        <ele>1082.7</ele>
        <time>2020-07-29T12:49:04Z</time>
      </trkpt>
      <trkpt lat="42.8938660" lon="1.4759690">
        <ele>1081.8</ele>
        <time>2020-07-29T12:49:05Z</time>
      </trkpt>
      <trkpt lat="42.8937600" lon="1.4762280">
        <ele>1079.9</ele>
        <time>2020-07-29T12:49:07Z</time>
      </trkpt>
      <trkpt lat="42.8937250" lon="1.4763770">
        <ele>1078.8</ele>
        <time>2020-07-29T12:49:08Z</time>
      </trkpt>
      <trkpt lat="42.8936990" lon="1.4765300">
        <ele>1077.7</ele>
        <time>2020-07-29T12:49:09Z</time>
      </trkpt>
      <trkpt lat="42.8936620" lon="1.4768610">
        <ele>1075.4</ele>
        <time>2020-07-29T12:49:11Z</time>
      </trkpt>
      <trkpt lat="42.8936440" lon="1.4770340">
        <ele>1074.3</ele>
        <time>2020-07-29T12:49:12Z</time>
      </trkpt>
      <trkpt lat="42.8936240" lon="1.4772180">
        <ele>1073.3</ele>
        <time>2020-07-29T12:49:13Z</time>
      </trkpt>
      <trkpt lat="42.8936060" lon="1.4774000">
        <ele>1072.3</ele>
        <time>2020-07-29T12:49:14Z</time>
      </trkpt>
      <trkpt lat="42.8935850" lon="1.4775830">
        <ele>1071.2</ele>
        <time>2020-07-29T12:49:15Z</time>
      </trkpt>
      <trkpt lat="42.8935590" lon="1.4777520">
        <ele>1070.0</ele>
        <time>2020-07-29T12:49:16Z</time>
      </trkpt>
      <trkpt lat="42.8935300" lon="1.4779120">
        <ele>1068.8</ele>
        <time>2020-07-29T12:49:17Z</time>
      </trkpt>
      <trkpt lat="42.8935060" lon="1.4780660">
        <ele>1067.6</ele>
        <time>2020-07-29T12:49:18Z</time>
      </trkpt>
      <trkpt lat="42.8934940" lon="1.4782250">
        <ele>1066.3</ele>
        <time>2020-07-29T12:49:19Z</time>
      </trkpt>
      <trkpt lat="42.8934990" lon="1.4783970">
        <ele>1065.2</ele>
        <time>2020-07-29T12:49:20Z</time>
      </trkpt>
      <trkpt lat="42.8935150" lon="1.4785770">
        <ele>1064.0</ele>
        <time>2020-07-29T12:49:21Z</time>
      </trkpt>
      <trkpt lat="42.8935340" lon="1.4787640">
        <ele>1062.9</ele>
        <time>2020-07-29T12:49:22Z</time>
      </trkpt>
      <trkpt lat="42.8935470" lon="1.4789400">
        <ele>1062.0</ele>
        <time>2020-07-29T12:49:23Z</time>
      </trkpt>
      <trkpt lat="42.8935580" lon="1.4791130">
        <ele>1061.2</ele>
        <time>2020-07-29T12:49:24Z</time>
      </trkpt>
      <trkpt lat="42.8935640" lon="1.4792780">
        <ele>1060.6</ele>
        <time>2020-07-29T12:49:25Z</time>
      </trkpt>
      <trkpt lat="42.8935580" lon="1.4794310">
        <ele>1059.9</ele>
        <time>2020-07-29T12:49:26Z</time>
      </trkpt>
      <trkpt lat="42.8935300" lon="1.4795720">
        <ele>1059.3</ele>
        <time>2020-07-29T12:49:27Z</time>
      </trkpt>
      <trkpt lat="42.8934780" lon="1.4797030">
        <ele>1058.4</ele>
        <time>2020-07-29T12:49:28Z</time>
      </trkpt>
      <trkpt lat="42.8934030" lon="1.4798060">
        <ele>1057.4</ele>
        <time>2020-07-29T12:49:29Z</time>
      </trkpt>
      <trkpt lat="42.8933120" lon="1.4798910">
        <ele>1056.3</ele>
        <time>2020-07-29T12:49:30Z</time>
      </trkpt>
      <trkpt lat="42.8932090" lon="1.4799610">
        <ele>1055.0</ele>
        <time>2020-07-29T12:49:31Z</time>
      </trkpt>
      <trkpt lat="42.8931050" lon="1.4800170">
        <ele>1053.9</ele>
        <time>2020-07-29T12:49:32Z</time>
      </trkpt>
      <trkpt lat="42.8929910" lon="1.4800640">
        <ele>1052.8</ele>
        <time>2020-07-29T12:49:33Z</time>
      </trkpt>
      <trkpt lat="42.8928770" lon="1.4801250">
        <ele>1051.7</ele>
        <time>2020-07-29T12:49:34Z</time>
      </trkpt>
      <trkpt lat="42.8926640" lon="1.4802970">
        <ele>1049.5</ele>
        <time>2020-07-29T12:49:36Z</time>
      </trkpt>
      <trkpt lat="42.8925670" lon="1.4804100">
        <ele>1048.7</ele>
        <time>2020-07-29T12:49:37Z</time>
      </trkpt>
      <trkpt lat="42.8923910" lon="1.4806720">
        <ele>1046.4</ele>
        <time>2020-07-29T12:49:39Z</time>
      </trkpt>
      <trkpt lat="42.8923150" lon="1.4808190">
        <ele>1045.3</ele>
        <time>2020-07-29T12:49:40Z</time>
      </trkpt>
      <trkpt lat="42.8921760" lon="1.4811160">
        <ele>1043.8</ele>
        <time>2020-07-29T12:49:42Z</time>
      </trkpt>
      <trkpt lat="42.8921250" lon="1.4812620">
        <ele>1043.1</ele>
        <time>2020-07-29T12:49:43Z</time>
      </trkpt>
      <trkpt lat="42.8920560" lon="1.4813870">
        <ele>1042.4</ele>
        <time>2020-07-29T12:49:44Z</time>
      </trkpt>
      <trkpt lat="42.8919840" lon="1.4814950">
        <ele>1041.7</ele>
        <time>2020-07-29T12:49:45Z</time>
      </trkpt>
      <trkpt lat="42.8918950" lon="1.4815620">
        <ele>1040.9</ele>
        <time>2020-07-29T12:49:46Z</time>
      </trkpt>
      <trkpt lat="42.8917930" lon="1.4815930">
        <ele>1039.9</ele>
        <time>2020-07-29T12:49:47Z</time>
      </trkpt>
      <trkpt lat="42.8916910" lon="1.4816130">
        <ele>1038.8</ele>
        <time>2020-07-29T12:49:48Z</time>
      </trkpt>
      <trkpt lat="42.8915790" lon="1.4816270">
        <ele>1037.8</ele>
        <time>2020-07-29T12:49:49Z</time>
      </trkpt>
      <trkpt lat="42.8914700" lon="1.4816510">
        <ele>1036.8</ele>
        <time>2020-07-29T12:49:50Z</time>
      </trkpt>
      <trkpt lat="42.8913630" lon="1.4816930">
        <ele>1035.9</ele>
        <time>2020-07-29T12:49:51Z</time>
      </trkpt>
      <trkpt lat="42.8912630" lon="1.4817630">
        <ele>1035.0</ele>
        <time>2020-07-29T12:49:52Z</time>
      </trkpt>
      <trkpt lat="42.8910860" lon="1.4819540">
        <ele>1033.1</ele>
        <time>2020-07-29T12:49:54Z</time>
      </trkpt>
      <trkpt lat="42.8908860" lon="1.4823130">
        <ele>1030.3</ele>
        <time>2020-07-29T12:49:57Z</time>
      </trkpt>
      <trkpt lat="42.8908280" lon="1.4824420">
        <ele>1029.3</ele>
        <time>2020-07-29T12:49:58Z</time>
      </trkpt>
      <trkpt lat="42.8907730" lon="1.4825820">
        <ele>1028.1</ele>
        <time>2020-07-29T12:49:59Z</time>
      </trkpt>
      <trkpt lat="42.8907240" lon="1.4827220">
        <ele>1026.9</ele>
        <time>2020-07-29T12:50:00Z</time>
      </trkpt>
      <trkpt lat="42.8906820" lon="1.4828690">
        <ele>1025.8</ele>
        <time>2020-07-29T12:50:01Z</time>
      </trkpt>
      <trkpt lat="42.8906490" lon="1.4830180">
        <ele>1024.7</ele>
        <time>2020-07-29T12:50:02Z</time>
      </trkpt>
      <trkpt lat="42.8906260" lon="1.4831720">
        <ele>1023.4</ele>
        <time>2020-07-29T12:50:03Z</time>
      </trkpt>
      <trkpt lat="42.8906170" lon="1.4833410">
        <ele>1022.0</ele>
        <time>2020-07-29T12:50:04Z</time>
      </trkpt>
      <trkpt lat="42.8906130" lon="1.4835150">
        <ele>1020.9</ele>
        <time>2020-07-29T12:50:05Z</time>
      </trkpt>
      <trkpt lat="42.8906120" lon="1.4837010">
        <ele>1020.0</ele>
        <time>2020-07-29T12:50:06Z</time>
      </trkpt>
      <trkpt lat="42.8906070" lon="1.4838870">
        <ele>1019.1</ele>
        <time>2020-07-29T12:50:07Z</time>
      </trkpt>
      <trkpt lat="42.8906010" lon="1.4840620">
        <ele>1018.3</ele>
        <time>2020-07-29T12:50:08Z</time>
      </trkpt>
      <trkpt lat="42.8905850" lon="1.4842300">
        <ele>1017.7</ele>
        <time>2020-07-29T12:50:09Z</time>
      </trkpt>
      <trkpt lat="42.8905650" lon="1.4843870">
        <ele>1017.0</ele>
        <time>2020-07-29T12:50:10Z</time>
      </trkpt>
      <trkpt lat="42.8905450" lon="1.4845370">
        <ele>1016.6</ele>
        <time>2020-07-29T12:50:11Z</time>
      </trkpt>
      <trkpt lat="42.8905260" lon="1.4846820">
        <ele>1016.3</ele>
        <time>2020-07-29T12:50:12Z</time>
      </trkpt>
      <trkpt lat="42.8905050" lon="1.4848110">
        <ele>1015.8</ele>
        <time>2020-07-29T12:50:13Z</time>
      </trkpt>
      <trkpt lat="42.8904710" lon="1.4849160">
        <ele>1015.2</ele>
        <time>2020-07-29T12:50:14Z</time>
      </trkpt>
      <trkpt lat="42.8904200" lon="1.4849910">
        <ele>1014.4</ele>
        <time>2020-07-29T12:50:15Z</time>
      </trkpt>
      <trkpt lat="42.8903460" lon="1.4850320">
        <ele>1013.5</ele>
        <time>2020-07-29T12:50:16Z</time>
      </trkpt>
      <trkpt lat="42.8901590" lon="1.4850270">
        <ele>1011.2</ele>
        <time>2020-07-29T12:50:18Z</time>
      </trkpt>
      <trkpt lat="42.8900610" lon="1.4850400">
        <ele>1010.1</ele>
        <time>2020-07-29T12:50:19Z</time>
      </trkpt>
      <trkpt lat="42.8898750" lon="1.4851630">
        <ele>1008.4</ele>
        <time>2020-07-29T12:50:21Z</time>
      </trkpt>
      <trkpt lat="42.8896620" lon="1.4855110">
        <ele>1005.8</ele>
        <time>2020-07-29T12:50:24Z</time>
      </trkpt>
      <trkpt lat="42.8895980" lon="1.4856450">
        <ele>1004.9</ele>
        <time>2020-07-29T12:50:25Z</time>
      </trkpt>
      <trkpt lat="42.8895280" lon="1.4857770">
        <ele>1003.9</ele>
        <time>2020-07-29T12:50:26Z</time>
      </trkpt>
      <trkpt lat="42.8894470" lon="1.4858990">
        <ele>1003.1</ele>
        <time>2020-07-29T12:50:27Z</time>
      </trkpt>
      <trkpt lat="42.8893580" lon="1.4860070">
        <ele>1002.3</ele>
        <time>2020-07-29T12:50:28Z</time>
      </trkpt>
      <trkpt lat="42.8892710" lon="1.4861050">
        <ele>1001.5</ele>
        <time>2020-07-29T12:50:29Z</time>
      </trkpt>
      <trkpt lat="42.8891930" lon="1.4862090">
        <ele>1000.6</ele>
        <time>2020-07-29T12:50:30Z</time>
      </trkpt>
      <trkpt lat="42.8891340" lon="1.4863370">
        <ele>999.5</ele>
        <time>2020-07-29T12:50:31Z</time>
      </trkpt>
      <trkpt lat="42.8890960" lon="1.4864750">
        <ele>998.3</ele>
        <time>2020-07-29T12:50:32Z</time>
      </trkpt>
      <trkpt lat="42.8890810" lon="1.4866210">
        <ele>997.3</ele>
        <time>2020-07-29T12:50:33Z</time>
      </trkpt>
      <trkpt lat="42.8890790" lon="1.4867680">
        <ele>996.4</ele>
        <time>2020-07-29T12:50:34Z</time>
      </trkpt>
      <trkpt lat="42.8890750" lon="1.4869160">
        <ele>995.6</ele>
        <time>2020-07-29T12:50:35Z</time>
      </trkpt>
      <trkpt lat="42.8890480" lon="1.4870640">
        <ele>994.7</ele>
        <time>2020-07-29T12:50:36Z</time>
      </trkpt>
      <trkpt lat="42.8890030" lon="1.4871970">
        <ele>993.1</ele>
        <time>2020-07-29T12:50:37Z</time>
      </trkpt>
      <trkpt lat="42.8889360" lon="1.4873180">
        <ele>990.5</ele>
        <time>2020-07-29T12:50:38Z</time>
      </trkpt>
      <trkpt lat="42.8888550" lon="1.4874280">
        <ele>989.5</ele>
        <time>2020-07-29T12:50:39Z</time>
      </trkpt>
      <trkpt lat="42.8887710" lon="1.4875410">
        <ele>988.4</ele>
        <time>2020-07-29T12:50:40Z</time>
      </trkpt>
      <trkpt lat="42.8886030" lon="1.4877730">
        <ele>986.2</ele>
        <time>2020-07-29T12:50:42Z</time>
      </trkpt>
      <trkpt lat="42.8884400" lon="1.4880240">
        <ele>983.9</ele>
        <time>2020-07-29T12:50:44Z</time>
      </trkpt>
      <trkpt lat="42.8883540" lon="1.4881520">
        <ele>982.9</ele>
        <time>2020-07-29T12:50:45Z</time>
      </trkpt>
      <trkpt lat="42.8882610" lon="1.4882710">
        <ele>982.0</ele>
        <time>2020-07-29T12:50:46Z</time>
      </trkpt>
      <trkpt lat="42.8880680" lon="1.4884790">
        <ele>980.2</ele>
        <time>2020-07-29T12:50:48Z</time>
      </trkpt>
      <trkpt lat="42.8879740" lon="1.4885690">
        <ele>979.4</ele>
        <time>2020-07-29T12:50:49Z</time>
      </trkpt>
      <trkpt lat="42.8878820" lon="1.4886570">
        <ele>978.5</ele>
        <time>2020-07-29T12:50:50Z</time>
      </trkpt>
      <trkpt lat="42.8877980" lon="1.4887460">
        <ele>977.6</ele>
        <time>2020-07-29T12:50:51Z</time>
      </trkpt>
      <trkpt lat="42.8877320" lon="1.4888450">
        <ele>976.6</ele>
        <time>2020-07-29T12:50:52Z</time>
      </trkpt>
      <trkpt lat="42.8876820" lon="1.4889590">
        <ele>975.6</ele>
        <time>2020-07-29T12:50:53Z</time>
      </trkpt>
      <trkpt lat="42.8876460" lon="1.4890910">
        <ele>974.7</ele>
        <time>2020-07-29T12:50:54Z</time>
      </trkpt>
      <trkpt lat="42.8875760" lon="1.4893810">
        <ele>972.8</ele>
        <time>2020-07-29T12:50:56Z</time>
      </trkpt>
      <trkpt lat="42.8875060" lon="1.4896800">
        <ele>971.2</ele>
        <time>2020-07-29T12:50:58Z</time>
      </trkpt>
      <trkpt lat="42.8874240" lon="1.4900890">
        <ele>969.0</ele>
        <time>2020-07-29T12:51:01Z</time>
      </trkpt>
      <trkpt lat="42.8874110" lon="1.4902280">
        <ele>968.2</ele>
        <time>2020-07-29T12:51:02Z</time>
      </trkpt>
      <trkpt lat="42.8874100" lon="1.4903690">
        <ele>967.4</ele>
        <time>2020-07-29T12:51:03Z</time>
      </trkpt>
      <trkpt lat="42.8874220" lon="1.4905150">
        <ele>966.5</ele>
        <time>2020-07-29T12:51:04Z</time>
      </trkpt>
      <trkpt lat="42.8874410" lon="1.4906610">
        <ele>965.6</ele>
        <time>2020-07-29T12:51:05Z</time>
      </trkpt>
      <trkpt lat="42.8874630" lon="1.4908180">
        <ele>964.7</ele>
        <time>2020-07-29T12:51:06Z</time>
      </trkpt>
      <trkpt lat="42.8874780" lon="1.4911590">
        <ele>962.9</ele>
        <time>2020-07-29T12:51:08Z</time>
      </trkpt>
      <trkpt lat="42.8874440" lon="1.4915030">
        <ele>960.7</ele>
        <time>2020-07-29T12:51:10Z</time>
      </trkpt>
      <trkpt lat="42.8874270" lon="1.4916680">
        <ele>959.7</ele>
        <time>2020-07-29T12:51:11Z</time>
      </trkpt>
      <trkpt lat="42.8874210" lon="1.4918340">
        <ele>958.7</ele>
        <time>2020-07-29T12:51:12Z</time>
      </trkpt>
      <trkpt lat="42.8874230" lon="1.4919960">
        <ele>957.8</ele>
        <time>2020-07-29T12:51:13Z</time>
      </trkpt>
      <trkpt lat="42.8874180" lon="1.4923300">
        <ele>955.9</ele>
        <time>2020-07-29T12:51:15Z</time>
      </trkpt>
      <trkpt lat="42.8873900" lon="1.4925060">
        <ele>954.8</ele>
        <time>2020-07-29T12:51:16Z</time>
      </trkpt>
      <trkpt lat="42.8873390" lon="1.4926560">
        <ele>953.7</ele>
        <time>2020-07-29T12:51:17Z</time>
      </trkpt>
      <trkpt lat="42.8872120" lon="1.4929340">
        <ele>951.6</ele>
        <time>2020-07-29T12:51:19Z</time>
      </trkpt>
      <trkpt lat="42.8871530" lon="1.4930650">
        <ele>950.6</ele>
        <time>2020-07-29T12:51:20Z</time>
      </trkpt>
      <trkpt lat="42.8870500" lon="1.4933250">
        <ele>948.8</ele>
        <time>2020-07-29T12:51:22Z</time>
      </trkpt>
      <trkpt lat="42.8870170" lon="1.4934610">
        <ele>948.0</ele>
        <time>2020-07-29T12:51:23Z</time>
      </trkpt>
      <trkpt lat="42.8869970" lon="1.4936040">
        <ele>947.1</ele>
        <time>2020-07-29T12:51:24Z</time>
      </trkpt>
      <trkpt lat="42.8869660" lon="1.4939030">
        <ele>945.3</ele>
        <time>2020-07-29T12:51:26Z</time>
      </trkpt>
      <trkpt lat="42.8869310" lon="1.4940560">
        <ele>944.3</ele>
        <time>2020-07-29T12:51:27Z</time>
      </trkpt>
      <trkpt lat="42.8868790" lon="1.4942030">
        <ele>943.3</ele>
        <time>2020-07-29T12:51:28Z</time>
      </trkpt>
      <trkpt lat="42.8867520" lon="1.4944830">
        <ele>941.2</ele>
        <time>2020-07-29T12:51:30Z</time>
      </trkpt>
      <trkpt lat="42.8866170" lon="1.4947420">
        <ele>939.4</ele>
        <time>2020-07-29T12:51:32Z</time>
      </trkpt>
      <trkpt lat="42.8865380" lon="1.4948520">
        <ele>938.5</ele>
        <time>2020-07-29T12:51:33Z</time>
      </trkpt>
      <trkpt lat="42.8864450" lon="1.4949360">
        <ele>937.8</ele>
        <time>2020-07-29T12:51:34Z</time>
      </trkpt>
      <trkpt lat="42.8862560" lon="1.4950800">
        <ele>936.6</ele>
        <time>2020-07-29T12:51:36Z</time>
      </trkpt>
      <trkpt lat="42.8861700" lon="1.4951720">
        <ele>935.5</ele>
        <time>2020-07-29T12:51:37Z</time>
      </trkpt>
      <trkpt lat="42.8860970" lon="1.4952830">
        <ele>934.5</ele>
        <time>2020-07-29T12:51:38Z</time>
      </trkpt>
      <trkpt lat="42.8860360" lon="1.4954040">
        <ele>933.4</ele>
        <time>2020-07-29T12:51:39Z</time>
      </trkpt>
      <trkpt lat="42.8859420" lon="1.4956430">
        <ele>931.8</ele>
        <time>2020-07-29T12:51:41Z</time>
      </trkpt>
      <trkpt lat="42.8859030" lon="1.4957570">
        <ele>931.0</ele>
        <time>2020-07-29T12:51:42Z</time>
      </trkpt>
      <trkpt lat="42.8858630" lon="1.4958530">
        <ele>930.4</ele>
        <time>2020-07-29T12:51:43Z</time>
      </trkpt>
      <trkpt lat="42.8857420" lon="1.4959680">
        <ele>929.2</ele>
        <time>2020-07-29T12:51:45Z</time>
      </trkpt>
      <trkpt lat="42.8855800" lon="1.4959240">
        <ele>927.6</ele>
        <time>2020-07-29T12:51:47Z</time>
      </trkpt>
      <trkpt lat="42.8853550" lon="1.4956970">
        <ele>924.9</ele>
        <time>2020-07-29T12:51:50Z</time>
      </trkpt>
      <trkpt lat="42.8851810" lon="1.4955590">
        <ele>923.0</ele>
        <time>2020-07-29T12:51:52Z</time>
      </trkpt>
      <trkpt lat="42.8850780" lon="1.4955250">
        <ele>922.0</ele>
        <time>2020-07-29T12:51:53Z</time>
      </trkpt>
      <trkpt lat="42.8849720" lon="1.4955130">
        <ele>921.0</ele>
        <time>2020-07-29T12:51:54Z</time>
      </trkpt>
      <trkpt lat="42.8847490" lon="1.4955280">
        <ele>919.0</ele>
        <time>2020-07-29T12:51:56Z</time>
      </trkpt>
      <trkpt lat="42.8846310" lon="1.4955440">
        <ele>917.9</ele>
        <time>2020-07-29T12:51:57Z</time>
      </trkpt>
      <trkpt lat="42.8845120" lon="1.4955620">
        <ele>916.7</ele>
        <time>2020-07-29T12:51:58Z</time>
      </trkpt>
      <trkpt lat="42.8843900" lon="1.4955810">
        <ele>915.6</ele>
        <time>2020-07-29T12:51:59Z</time>
      </trkpt>
      <trkpt lat="42.8841500" lon="1.4956090">
        <ele>913.3</ele>
        <time>2020-07-29T12:52:01Z</time>
      </trkpt>
      <trkpt lat="42.8840400" lon="1.4956170">
        <ele>912.6</ele>
        <time>2020-07-29T12:52:02Z</time>
      </trkpt>
      <trkpt lat="42.8839380" lon="1.4956180">
        <ele>911.9</ele>
        <time>2020-07-29T12:52:03Z</time>
      </trkpt>
      <trkpt lat="42.8838450" lon="1.4956140">
        <ele>911.4</ele>
        <time>2020-07-29T12:52:04Z</time>
      </trkpt>
      <trkpt lat="42.8836720" lon="1.4956240">
        <ele>910.4</ele>
        <time>2020-07-29T12:52:06Z</time>
      </trkpt>
      <trkpt lat="42.8835990" lon="1.4956670">
        <ele>910.0</ele>
        <time>2020-07-29T12:52:07Z</time>
      </trkpt>
      <trkpt lat="42.8835400" lon="1.4957300">
        <ele>909.9</ele>
        <time>2020-07-29T12:52:08Z</time>
      </trkpt>
      <trkpt lat="42.8835170" lon="1.4958020">
        <ele>909.8</ele>
        <time>2020-07-29T12:52:09Z</time>
      </trkpt>
      <trkpt lat="42.8835080" lon="1.4958810">
        <ele>909.7</ele>
        <time>2020-07-29T12:52:10Z</time>
      </trkpt>
      <trkpt lat="42.8835800" lon="1.4961620">
        <ele>907.9</ele>
        <time>2020-07-29T12:52:13Z</time>
      </trkpt>
      <trkpt lat="42.8838510" lon="1.4966180">
        <ele>904.3</ele>
        <time>2020-07-29T12:52:17Z</time>
      </trkpt>
      <trkpt lat="42.8838820" lon="1.4967510">
        <ele>903.4</ele>
        <time>2020-07-29T12:52:18Z</time>
      </trkpt>
      <trkpt lat="42.8839010" lon="1.4968990">
        <ele>902.4</ele>
        <time>2020-07-29T12:52:19Z</time>
      </trkpt>
      <trkpt lat="42.8839090" lon="1.4970450">
        <ele>901.5</ele>
        <time>2020-07-29T12:52:20Z</time>
      </trkpt>
      <trkpt lat="42.8839100" lon="1.4971920">
        <ele>900.5</ele>
        <time>2020-07-29T12:52:21Z</time>
      </trkpt>
      <trkpt lat="42.8838940" lon="1.4973430">
        <ele>899.4</ele>
        <time>2020-07-29T12:52:22Z</time>
      </trkpt>
      <trkpt lat="42.8838710" lon="1.4974940">
        <ele>898.2</ele>
        <time>2020-07-29T12:52:23Z</time>
      </trkpt>
      <trkpt lat="42.8838420" lon="1.4976470">
        <ele>896.8</ele>
        <time>2020-07-29T12:52:24Z</time>
      </trkpt>
      <trkpt lat="42.8838060" lon="1.4978040">
        <ele>895.7</ele>
        <time>2020-07-29T12:52:25Z</time>
      </trkpt>
      <trkpt lat="42.8837180" lon="1.4981230">
        <ele>893.8</ele>
        <time>2020-07-29T12:52:27Z</time>
      </trkpt>
      <trkpt lat="42.8835900" lon="1.4984300">
        <ele>890.5</ele>
        <time>2020-07-29T12:52:29Z</time>
      </trkpt>
      <trkpt lat="42.8835130" lon="1.4985800">
        <ele>888.8</ele>
        <time>2020-07-29T12:52:30Z</time>
      </trkpt>
      <trkpt lat="42.8834320" lon="1.4987280">
        <ele>887.4</ele>
        <time>2020-07-29T12:52:31Z</time>
      </trkpt>
      <trkpt lat="42.8833510" lon="1.4988740">
        <ele>886.0</ele>
        <time>2020-07-29T12:52:32Z</time>
      </trkpt>
      <trkpt lat="42.8832670" lon="1.4990100">
        <ele>884.8</ele>
        <time>2020-07-29T12:52:33Z</time>
      </trkpt>
      <trkpt lat="42.8830890" lon="1.4992670">
        <ele>883.0</ele>
        <time>2020-07-29T12:52:35Z</time>
      </trkpt>
      <trkpt lat="42.8829880" lon="1.4993730">
        <ele>882.0</ele>
        <time>2020-07-29T12:52:36Z</time>
      </trkpt>
      <trkpt lat="42.8828800" lon="1.4994710">
        <ele>881.2</ele>
        <time>2020-07-29T12:52:37Z</time>
      </trkpt>
      <trkpt lat="42.8827670" lon="1.4995470">
        <ele>880.3</ele>
        <time>2020-07-29T12:52:38Z</time>
      </trkpt>
      <trkpt lat="42.8826470" lon="1.4995980">
        <ele>878.9</ele>
        <time>2020-07-29T12:52:39Z</time>
      </trkpt>
      <trkpt lat="42.8825170" lon="1.4996480">
        <ele>877.5</ele>
        <time>2020-07-29T12:52:40Z</time>
      </trkpt>
      <trkpt lat="42.8823830" lon="1.4996770">
        <ele>876.2</ele>
        <time>2020-07-29T12:52:41Z</time>
      </trkpt>
      <trkpt lat="42.8822520" lon="1.4997100">
        <ele>874.9</ele>
        <time>2020-07-29T12:52:42Z</time>
      </trkpt>
      <trkpt lat="42.8821240" lon="1.4997460">
        <ele>873.8</ele>
        <time>2020-07-29T12:52:43Z</time>
      </trkpt>
      <trkpt lat="42.8819980" lon="1.4997940">
        <ele>872.9</ele>
        <time>2020-07-29T12:52:44Z</time>
      </trkpt>
      <trkpt lat="42.8817540" lon="1.4999470">
        <ele>870.3</ele>
        <time>2020-07-29T12:52:46Z</time>
      </trkpt>
      <trkpt lat="42.8816360" lon="1.5000430">
        <ele>869.2</ele>
        <time>2020-07-29T12:52:47Z</time>
      </trkpt>
      <trkpt lat="42.8815250" lon="1.5001490">
        <ele>868.3</ele>
        <time>2020-07-29T12:52:48Z</time>
      </trkpt>
      <trkpt lat="42.8814190" lon="1.5002470">
        <ele>867.8</ele>
        <time>2020-07-29T12:52:49Z</time>
      </trkpt>
      <trkpt lat="42.8812230" lon="1.5004170">
        <ele>865.8</ele>
        <time>2020-07-29T12:52:51Z</time>
      </trkpt>
      <trkpt lat="42.8811280" lon="1.5004890">
        <ele>865.2</ele>
        <time>2020-07-29T12:52:52Z</time>
      </trkpt>
      <trkpt lat="42.8810280" lon="1.5005370">
        <ele>864.9</ele>
        <time>2020-07-29T12:52:53Z</time>
      </trkpt>
      <trkpt lat="42.8808460" lon="1.5005410">
        <ele>863.2</ele>
        <time>2020-07-29T12:52:55Z</time>
      </trkpt>
      <trkpt lat="42.8807620" lon="1.5005180">
        <ele>862.2</ele>
        <time>2020-07-29T12:52:56Z</time>
      </trkpt>
      <trkpt lat="42.8805870" lon="1.5003660">
        <ele>859.8</ele>
        <time>2020-07-29T12:52:58Z</time>
      </trkpt>
      <trkpt lat="42.8804970" lon="1.5002730">
        <ele>858.9</ele>
        <time>2020-07-29T12:52:59Z</time>
      </trkpt>
      <trkpt lat="42.8804020" lon="1.5001790">
        <ele>858.0</ele>
        <time>2020-07-29T12:53:00Z</time>
      </trkpt>
      <trkpt lat="42.8802240" lon="1.4999820">
        <ele>856.0</ele>
        <time>2020-07-29T12:53:02Z</time>
      </trkpt>
      <trkpt lat="42.8800600" lon="1.4998100">
        <ele>854.8</ele>
        <time>2020-07-29T12:53:04Z</time>
      </trkpt>
      <trkpt lat="42.8799210" lon="1.4997010">
        <ele>854.1</ele>
        <time>2020-07-29T12:53:06Z</time>
      </trkpt>
      <trkpt lat="42.8798530" lon="1.4996880">
        <ele>854.0</ele>
        <time>2020-07-29T12:53:07Z</time>
      </trkpt>
      <trkpt lat="42.8797890" lon="1.4997080">
        <ele>853.9</ele>
        <time>2020-07-29T12:53:08Z</time>
      </trkpt>
      <trkpt lat="42.8797500" lon="1.4997660">
        <ele>853.8</ele>
        <time>2020-07-29T12:53:09Z</time>
      </trkpt>
      <trkpt lat="42.8797410" lon="1.4998430">
        <ele>853.5</ele>
        <time>2020-07-29T12:53:10Z</time>
      </trkpt>
      <trkpt lat="42.8797550" lon="1.4999320">
        <ele>853.0</ele>
        <time>2020-07-29T12:53:11Z</time>
      </trkpt>
      <trkpt lat="42.8798910" lon="1.5002280">
        <ele>849.6</ele>
        <time>2020-07-29T12:53:14Z</time>
      </trkpt>
      <trkpt lat="42.8801450" lon="1.5007120">
        <ele>845.0</ele>
        <time>2020-07-29T12:53:18Z</time>
      </trkpt>
      <trkpt lat="42.8802060" lon="1.5008280">
        <ele>843.9</ele>
        <time>2020-07-29T12:53:19Z</time>
      </trkpt>
      <trkpt lat="42.8802740" lon="1.5009350">
        <ele>842.8</ele>
        <time>2020-07-29T12:53:20Z</time>
      </trkpt>
      <trkpt lat="42.8804390" lon="1.5011090">
        <ele>841.2</ele>
        <time>2020-07-29T12:53:22Z</time>
      </trkpt>
      <trkpt lat="42.8805400" lon="1.5011640">
        <ele>840.4</ele>
        <time>2020-07-29T12:53:23Z</time>
      </trkpt>
      <trkpt lat="42.8806500" lon="1.5012060">
        <ele>839.3</ele>
        <time>2020-07-29T12:53:24Z</time>
      </trkpt>
      <trkpt lat="42.8807590" lon="1.5012560">
        <ele>838.4</ele>
        <time>2020-07-29T12:53:25Z</time>
      </trkpt>
      <trkpt lat="42.8809840" lon="1.5013940">
        <ele>836.0</ele>
        <time>2020-07-29T12:53:27Z</time>
      </trkpt>
      <trkpt lat="42.8812210" lon="1.5015590">
        <ele>833.1</ele>
        <time>2020-07-29T12:53:29Z</time>
      </trkpt>
      <trkpt lat="42.8815460" lon="1.5017890">
        <ele>829.8</ele>
        <time>2020-07-29T12:53:32Z</time>
      </trkpt>
      <trkpt lat="42.8816410" lon="1.5018600">
        <ele>828.3</ele>
        <time>2020-07-29T12:53:33Z</time>
      </trkpt>
      <trkpt lat="42.8817340" lon="1.5019170">
        <ele>827.2</ele>
        <time>2020-07-29T12:53:34Z</time>
      </trkpt>
      <trkpt lat="42.8818320" lon="1.5019490">
        <ele>826.9</ele>
        <time>2020-07-29T12:53:35Z</time>
      </trkpt>
      <trkpt lat="42.8819310" lon="1.5019520">
        <ele>826.5</ele>
        <time>2020-07-29T12:53:36Z</time>
      </trkpt>
      <trkpt lat="42.8820250" lon="1.5019290">
        <ele>826.1</ele>
        <time>2020-07-29T12:53:37Z</time>
      </trkpt>
      <trkpt lat="42.8821220" lon="1.5018920">
        <ele>825.6</ele>
        <time>2020-07-29T12:53:38Z</time>
      </trkpt>
      <trkpt lat="42.8822150" lon="1.5018500">
        <ele>825.3</ele>
        <time>2020-07-29T12:53:39Z</time>
      </trkpt>
      <trkpt lat="42.8823030" lon="1.5018070">
        <ele>825.1</ele>
        <time>2020-07-29T12:53:40Z</time>
      </trkpt>
      <trkpt lat="42.8823860" lon="1.5017750">
        <ele>824.9</ele>
        <time>2020-07-29T12:53:41Z</time>
      </trkpt>
      <trkpt lat="42.8824650" lon="1.5017780">
        <ele>824.7</ele>
        <time>2020-07-29T12:53:42Z</time>
      </trkpt>
      <trkpt lat="42.8825290" lon="1.5018270">
        <ele>824.5</ele>
        <time>2020-07-29T12:53:43Z</time>
      </trkpt>
      <trkpt lat="42.8825660" lon="1.5019100">
        <ele>824.4</ele>
        <time>2020-07-29T12:53:44Z</time>
      </trkpt>
      <trkpt lat="42.8825590" lon="1.5021000">
        <ele>823.9</ele>
        <time>2020-07-29T12:53:46Z</time>
      </trkpt>
      <trkpt lat="42.8824300" lon="1.5024050">
        <ele>821.7</ele>
        <time>2020-07-29T12:53:49Z</time>
      </trkpt>
      <trkpt lat="42.8822550" lon="1.5027250">
        <ele>819.3</ele>
        <time>2020-07-29T12:53:52Z</time>
      </trkpt>
      <trkpt lat="42.8821810" lon="1.5028380">
        <ele>818.4</ele>
        <time>2020-07-29T12:53:53Z</time>
      </trkpt>
      <trkpt lat="42.8820980" lon="1.5029450">
        <ele>817.5</ele>
        <time>2020-07-29T12:53:54Z</time>
      </trkpt>
      <trkpt lat="42.8820050" lon="1.5030420">
        <ele>816.5</ele>
        <time>2020-07-29T12:53:55Z</time>
      </trkpt>
      <trkpt lat="42.8817980" lon="1.5032180">
        <ele>814.3</ele>
        <time>2020-07-29T12:53:57Z</time>
      </trkpt>
      <trkpt lat="42.8816930" lon="1.5033020">
        <ele>813.2</ele>
        <time>2020-07-29T12:53:58Z</time>
      </trkpt>
      <trkpt lat="42.8815860" lon="1.5033880">
        <ele>812.1</ele>
        <time>2020-07-29T12:53:59Z</time>
      </trkpt>
      <trkpt lat="42.8813660" lon="1.5035680">
        <ele>809.7</ele>
        <time>2020-07-29T12:54:01Z</time>
      </trkpt>
      <trkpt lat="42.8811450" lon="1.5037410">
        <ele>807.5</ele>
        <time>2020-07-29T12:54:03Z</time>
      </trkpt>
      <trkpt lat="42.8810400" lon="1.5038250">
        <ele>806.4</ele>
        <time>2020-07-29T12:54:04Z</time>
      </trkpt>
      <trkpt lat="42.8809420" lon="1.5039150">
        <ele>805.3</ele>
        <time>2020-07-29T12:54:05Z</time>
      </trkpt>
      <trkpt lat="42.8808530" lon="1.5040080">
        <ele>804.4</ele>
        <time>2020-07-29T12:54:06Z</time>
      </trkpt>
      <trkpt lat="42.8807760" lon="1.5041150">
        <ele>803.4</ele>
        <time>2020-07-29T12:54:07Z</time>
      </trkpt>
      <trkpt lat="42.8807080" lon="1.5042410">
        <ele>802.2</ele>
        <time>2020-07-29T12:54:08Z</time>
      </trkpt>
      <trkpt lat="42.8806510" lon="1.5043730">
        <ele>801.1</ele>
        <time>2020-07-29T12:54:09Z</time>
      </trkpt>
      <trkpt lat="42.8806000" lon="1.5045180">
        <ele>799.9</ele>
        <time>2020-07-29T12:54:10Z</time>
      </trkpt>
      <trkpt lat="42.8805500" lon="1.5046630">
        <ele>798.8</ele>
        <time>2020-07-29T12:54:11Z</time>
      </trkpt>
      <trkpt lat="42.8804630" lon="1.5049280">
        <ele>796.8</ele>
        <time>2020-07-29T12:54:13Z</time>
      </trkpt>
      <trkpt lat="42.8804360" lon="1.5050520">
        <ele>795.9</ele>
        <time>2020-07-29T12:54:14Z</time>
      </trkpt>
      <trkpt lat="42.8804310" lon="1.5051780">
        <ele>795.1</ele>
        <time>2020-07-29T12:54:15Z</time>
      </trkpt>
      <trkpt lat="42.8804990" lon="1.5054230">
        <ele>793.5</ele>
        <time>2020-07-29T12:54:17Z</time>
      </trkpt>
      <trkpt lat="42.8805580" lon="1.5055440">
        <ele>792.8</ele>
        <time>2020-07-29T12:54:18Z</time>
      </trkpt>
      <trkpt lat="42.8806110" lon="1.5056760">
        <ele>792.0</ele>
        <time>2020-07-29T12:54:19Z</time>
      </trkpt>
      <trkpt lat="42.8806530" lon="1.5058180">
        <ele>791.1</ele>
        <time>2020-07-29T12:54:20Z</time>
      </trkpt>
      <trkpt lat="42.8806550" lon="1.5061130">
        <ele>789.2</ele>
        <time>2020-07-29T12:54:22Z</time>
      </trkpt>
      <trkpt lat="42.8806420" lon="1.5062670">
        <ele>788.2</ele>
        <time>2020-07-29T12:54:23Z</time>
      </trkpt>
      <trkpt lat="42.8806240" lon="1.5066100">
        <ele>786.1</ele>
        <time>2020-07-29T12:54:25Z</time>
      </trkpt>
      <trkpt lat="42.8806200" lon="1.5067810">
        <ele>785.2</ele>
        <time>2020-07-29T12:54:26Z</time>
      </trkpt>
      <trkpt lat="42.8806220" lon="1.5069510">
        <ele>784.1</ele>
        <time>2020-07-29T12:54:27Z</time>
      </trkpt>
      <trkpt lat="42.8806320" lon="1.5073040">
        <ele>782.2</ele>
        <time>2020-07-29T12:54:29Z</time>
      </trkpt>
      <trkpt lat="42.8806600" lon="1.5076440">
        <ele>780.3</ele>
        <time>2020-07-29T12:54:31Z</time>
      </trkpt>
      <trkpt lat="42.8807060" lon="1.5079950">
        <ele>778.2</ele>
        <time>2020-07-29T12:54:33Z</time>
      </trkpt>
      <trkpt lat="42.8807410" lon="1.5081760">
        <ele>777.2</ele>
        <time>2020-07-29T12:54:34Z</time>
      </trkpt>
      <trkpt lat="42.8807810" lon="1.5083630">
        <ele>776.1</ele>
        <time>2020-07-29T12:54:35Z</time>
      </trkpt>
      <trkpt lat="42.8808210" lon="1.5085490">
        <ele>775.2</ele>
        <time>2020-07-29T12:54:36Z</time>
      </trkpt>
      <trkpt lat="42.8808880" lon="1.5089240">
        <ele>773.1</ele>
        <time>2020-07-29T12:54:38Z</time>
      </trkpt>
      <trkpt lat="42.8809080" lon="1.5091160">
        <ele>771.9</ele>
        <time>2020-07-29T12:54:39Z</time>
      </trkpt>
      <trkpt lat="42.8809090" lon="1.5093130">
        <ele>770.7</ele>
        <time>2020-07-29T12:54:40Z</time>
      </trkpt>
      <trkpt lat="42.8808910" lon="1.5095090">
        <ele>769.5</ele>
        <time>2020-07-29T12:54:41Z</time>
      </trkpt>
      <trkpt lat="42.8808500" lon="1.5099230">
        <ele>766.9</ele>
        <time>2020-07-29T12:54:43Z</time>
      </trkpt>
      <trkpt lat="42.8808340" lon="1.5101260">
        <ele>765.7</ele>
        <time>2020-07-29T12:54:44Z</time>
      </trkpt>
      <trkpt lat="42.8808200" lon="1.5105220">
        <ele>763.1</ele>
        <time>2020-07-29T12:54:46Z</time>
      </trkpt>
      <trkpt lat="42.8808240" lon="1.5109080">
        <ele>761.0</ele>
        <time>2020-07-29T12:54:48Z</time>
      </trkpt>
      <trkpt lat="42.8808250" lon="1.5111010">
        <ele>759.9</ele>
        <time>2020-07-29T12:54:49Z</time>
      </trkpt>
      <trkpt lat="42.8808210" lon="1.5112840">
        <ele>758.9</ele>
        <time>2020-07-29T12:54:50Z</time>
      </trkpt>
      <trkpt lat="42.8808030" lon="1.5114620">
        <ele>757.7</ele>
        <time>2020-07-29T12:54:51Z</time>
      </trkpt>
      <trkpt lat="42.8807730" lon="1.5116370">
        <ele>756.6</ele>
        <time>2020-07-29T12:54:52Z</time>
      </trkpt>
      <trkpt lat="42.8807410" lon="1.5118110">
        <ele>755.5</ele>
        <time>2020-07-29T12:54:53Z</time>
      </trkpt>
      <trkpt lat="42.8807150" lon="1.5119890">
        <ele>754.5</ele>
        <time>2020-07-29T12:54:54Z</time>
      </trkpt>
      <trkpt lat="42.8806970" lon="1.5121720">
        <ele>753.5</ele>
        <time>2020-07-29T12:54:55Z</time>
      </trkpt>
      <trkpt lat="42.8806860" lon="1.5123560">
        <ele>752.5</ele>
        <time>2020-07-29T12:54:56Z</time>
      </trkpt>
      <trkpt lat="42.8806760" lon="1.5125390">
        <ele>751.4</ele>
        <time>2020-07-29T12:54:57Z</time>
      </trkpt>
      <trkpt lat="42.8806640" lon="1.5127120">
        <ele>750.3</ele>
        <time>2020-07-29T12:54:58Z</time>
      </trkpt>
      <trkpt lat="42.8806290" lon="1.5130540">
        <ele>748.3</ele>
        <time>2020-07-29T12:55:00Z</time>
      </trkpt>
      <trkpt lat="42.8805960" lon="1.5132190">
        <ele>747.3</ele>
        <time>2020-07-29T12:55:01Z</time>
      </trkpt>
      <trkpt lat="42.8805500" lon="1.5133800">
        <ele>746.3</ele>
        <time>2020-07-29T12:55:02Z</time>
      </trkpt>
      <trkpt lat="42.8804330" lon="1.5136880">
        <ele>744.1</ele>
        <time>2020-07-29T12:55:04Z</time>
      </trkpt>
      <trkpt lat="42.8803810" lon="1.5138440">
        <ele>743.0</ele>
        <time>2020-07-29T12:55:05Z</time>
      </trkpt>
      <trkpt lat="42.8803340" lon="1.5139990">
        <ele>741.8</ele>
        <time>2020-07-29T12:55:06Z</time>
      </trkpt>
      <trkpt lat="42.8802310" lon="1.5143060">
        <ele>739.7</ele>
        <time>2020-07-29T12:55:08Z</time>
      </trkpt>
      <trkpt lat="42.8801690" lon="1.5144420">
        <ele>738.7</ele>
        <time>2020-07-29T12:55:09Z</time>
      </trkpt>
      <trkpt lat="42.8801130" lon="1.5145820">
        <ele>737.6</ele>
        <time>2020-07-29T12:55:10Z</time>
      </trkpt>
      <trkpt lat="42.8800780" lon="1.5147360">
        <ele>736.4</ele>
        <time>2020-07-29T12:55:11Z</time>
      </trkpt>
      <trkpt lat="42.8800420" lon="1.5152320">
        <ele>733.7</ele>
        <time>2020-07-29T12:55:14Z</time>
      </trkpt>
      <trkpt lat="42.8800410" lon="1.5154040">
        <ele>732.8</ele>
        <time>2020-07-29T12:55:15Z</time>
      </trkpt>
      <trkpt lat="42.8800430" lon="1.5155780">
        <ele>731.9</ele>
        <time>2020-07-29T12:55:16Z</time>
      </trkpt>
      <trkpt lat="42.8800580" lon="1.5159320">
        <ele>730.0</ele>
        <time>2020-07-29T12:55:18Z</time>
      </trkpt>
      <trkpt lat="42.8800810" lon="1.5161090">
        <ele>728.9</ele>
        <time>2020-07-29T12:55:19Z</time>
      </trkpt>
      <trkpt lat="42.8801170" lon="1.5162830">
        <ele>727.8</ele>
        <time>2020-07-29T12:55:20Z</time>
      </trkpt>
      <trkpt lat="42.8802140" lon="1.5165970">
        <ele>725.8</ele>
        <time>2020-07-29T12:55:22Z</time>
      </trkpt>
      <trkpt lat="42.8802740" lon="1.5167390">
        <ele>724.9</ele>
        <time>2020-07-29T12:55:23Z</time>
      </trkpt>
      <trkpt lat="42.8803310" lon="1.5168820">
        <ele>723.9</ele>
        <time>2020-07-29T12:55:24Z</time>
      </trkpt>
      <trkpt lat="42.8803760" lon="1.5170320">
        <ele>723.0</ele>
        <time>2020-07-29T12:55:25Z</time>
      </trkpt>
      <trkpt lat="42.8804050" lon="1.5171820">
        <ele>722.2</ele>
        <time>2020-07-29T12:55:26Z</time>
      </trkpt>
      <trkpt lat="42.8804230" lon="1.5174680">
        <ele>720.7</ele>
        <time>2020-07-29T12:55:28Z</time>
      </trkpt>
      <trkpt lat="42.8804000" lon="1.5176010">
        <ele>719.9</ele>
        <time>2020-07-29T12:55:29Z</time>
      </trkpt>
      <trkpt lat="42.8803540" lon="1.5177190">
        <ele>719.1</ele>
        <time>2020-07-29T12:55:30Z</time>
      </trkpt>
      <trkpt lat="42.8802930" lon="1.5178220">
        <ele>718.4</ele>
        <time>2020-07-29T12:55:31Z</time>
      </trkpt>
      <trkpt lat="42.8802250" lon="1.5179140">
        <ele>717.6</ele>
        <time>2020-07-29T12:55:32Z</time>
      </trkpt>
      <trkpt lat="42.8801540" lon="1.5180010">
        <ele>716.9</ele>
        <time>2020-07-29T12:55:33Z</time>
      </trkpt>
      <trkpt lat="42.8799530" lon="1.5182840">
        <ele>714.9</ele>
        <time>2020-07-29T12:55:36Z</time>
      </trkpt>
      <trkpt lat="42.8799010" lon="1.5184030">
        <ele>714.3</ele>
        <time>2020-07-29T12:55:37Z</time>
      </trkpt>
      <trkpt lat="42.8798320" lon="1.5186750">
        <ele>713.2</ele>
        <time>2020-07-29T12:55:39Z</time>
      </trkpt>
      <trkpt lat="42.8798110" lon="1.5188240">
        <ele>712.5</ele>
        <time>2020-07-29T12:55:40Z</time>
      </trkpt>
      <trkpt lat="42.8797950" lon="1.5189790">
        <ele>711.9</ele>
        <time>2020-07-29T12:55:41Z</time>
      </trkpt>
      <trkpt lat="42.8797540" lon="1.5194740">
        <ele>709.4</ele>
        <time>2020-07-29T12:55:44Z</time>
      </trkpt>
      <trkpt lat="42.8797360" lon="1.5196450">
        <ele>708.4</ele>
        <time>2020-07-29T12:55:45Z</time>
      </trkpt>
      <trkpt lat="42.8797170" lon="1.5198200">
        <ele>707.4</ele>
        <time>2020-07-29T12:55:46Z</time>
      </trkpt>
      <trkpt lat="42.8796970" lon="1.5199990">
        <ele>706.5</ele>
        <time>2020-07-29T12:55:47Z</time>
      </trkpt>
      <trkpt lat="42.8796720" lon="1.5201790">
        <ele>705.6</ele>
        <time>2020-07-29T12:55:48Z</time>
      </trkpt>
      <trkpt lat="42.8796430" lon="1.5203610">
        <ele>705.0</ele>
        <time>2020-07-29T12:55:49Z</time>
      </trkpt>
      <trkpt lat="42.8796080" lon="1.5205400">
        <ele>704.4</ele>
        <time>2020-07-29T12:55:50Z</time>
      </trkpt>
      <trkpt lat="42.8795270" lon="1.5208930">
        <ele>703.8</ele>
        <time>2020-07-29T12:55:52Z</time>
      </trkpt>
      <trkpt lat="42.8794050" lon="1.5214110">
        <ele>702.8</ele>
        <time>2020-07-29T12:55:55Z</time>
      </trkpt>
      <trkpt lat="42.8793650" lon="1.5215720">
        <ele>702.3</ele>
        <time>2020-07-29T12:55:56Z</time>
      </trkpt>
      <trkpt lat="42.8793280" lon="1.5217330">
        <ele>701.7</ele>
        <time>2020-07-29T12:55:57Z</time>
      </trkpt>
      <trkpt lat="42.8792940" lon="1.5218930">
        <ele>701.2</ele>
        <time>2020-07-29T12:55:58Z</time>
      </trkpt>
      <trkpt lat="42.8792630" lon="1.5220510">
        <ele>700.5</ele>
        <time>2020-07-29T12:55:59Z</time>
      </trkpt>
      <trkpt lat="42.8792030" lon="1.5223700">
        <ele>699.0</ele>
        <time>2020-07-29T12:56:01Z</time>
      </trkpt>
      <trkpt lat="42.8791400" lon="1.5226980">
        <ele>697.4</ele>
        <time>2020-07-29T12:56:03Z</time>
      </trkpt>
      <trkpt lat="42.8791090" lon="1.5228600">
        <ele>696.7</ele>
        <time>2020-07-29T12:56:04Z</time>
      </trkpt>
      <trkpt lat="42.8789600" lon="1.5236760">
        <ele>694.3</ele>
        <time>2020-07-29T12:56:09Z</time>
      </trkpt>
      <trkpt lat="42.8789310" lon="1.5238370">
        <ele>694.0</ele>
        <time>2020-07-29T12:56:10Z</time>
      </trkpt>
      <trkpt lat="42.8789000" lon="1.5239950">
        <ele>693.6</ele>
        <time>2020-07-29T12:56:11Z</time>
      </trkpt>
      <trkpt lat="42.8788690" lon="1.5241470">
        <ele>693.2</ele>
        <time>2020-07-29T12:56:12Z</time>
      </trkpt>
      <trkpt lat="42.8788090" lon="1.5244450">
        <ele>692.6</ele>
        <time>2020-07-29T12:56:14Z</time>
      </trkpt>
      <trkpt lat="42.8787810" lon="1.5245890">
        <ele>692.3</ele>
        <time>2020-07-29T12:56:15Z</time>
      </trkpt>
      <trkpt lat="42.8787540" lon="1.5247330">
        <ele>691.8</ele>
        <time>2020-07-29T12:56:16Z</time>
      </trkpt>
      <trkpt lat="42.8786680" lon="1.5251640">
        <ele>690.6</ele>
        <time>2020-07-29T12:56:19Z</time>
      </trkpt>
      <trkpt lat="42.8785290" lon="1.5258700">
        <ele>689.2</ele>
        <time>2020-07-29T12:56:24Z</time>
      </trkpt>
      <trkpt lat="42.8784700" lon="1.5261500">
        <ele>688.6</ele>
        <time>2020-07-29T12:56:26Z</time>
      </trkpt>
      <trkpt lat="42.8783360" lon="1.5268420">
        <ele>687.5</ele>
        <time>2020-07-29T12:56:31Z</time>
      </trkpt>
      <trkpt lat="42.8782840" lon="1.5271150">
        <ele>686.9</ele>
        <time>2020-07-29T12:56:33Z</time>
      </trkpt>
      <trkpt lat="42.8781210" lon="1.5279330">
        <ele>685.1</ele>
        <time>2020-07-29T12:56:39Z</time>
      </trkpt>
      <trkpt lat="42.8780480" lon="1.5283470">
        <ele>684.2</ele>
        <time>2020-07-29T12:56:42Z</time>
      </trkpt>
      <trkpt lat="42.8780140" lon="1.5287590">
        <ele>683.6</ele>
        <time>2020-07-29T12:56:45Z</time>
      </trkpt>
      <trkpt lat="42.8780150" lon="1.5288970">
        <ele>683.5</ele>
        <time>2020-07-29T12:56:46Z</time>
      </trkpt>
      <trkpt lat="42.8780530" lon="1.5293000">
        <ele>683.3</ele>
        <time>2020-07-29T12:56:49Z</time>
      </trkpt>
      <trkpt lat="42.8781750" lon="1.5299540">
        <ele>683.0</ele>
        <time>2020-07-29T12:56:54Z</time>
      </trkpt>
      <trkpt lat="42.8782290" lon="1.5302130">
        <ele>683.1</ele>
        <time>2020-07-29T12:56:56Z</time>
      </trkpt>
      <trkpt lat="42.8783630" lon="1.5308400">
        <ele>683.0</ele>
        <time>2020-07-29T12:57:01Z</time>
      </trkpt>
      <trkpt lat="42.8784690" lon="1.5313250">
        <ele>682.9</ele>
        <time>2020-07-29T12:57:05Z</time>
      </trkpt>
      <trkpt lat="42.8785710" lon="1.5320620">
        <ele>682.5</ele>
        <time>2020-07-29T12:57:11Z</time>
      </trkpt>
      <trkpt lat="42.8785590" lon="1.5326840">
        <ele>682.2</ele>
        <time>2020-07-29T12:57:16Z</time>
      </trkpt>
      <trkpt lat="42.8784460" lon="1.5334360">
        <ele>681.8</ele>
        <time>2020-07-29T12:57:22Z</time>
      </trkpt>
      <trkpt lat="42.8784280" lon="1.5335650">
        <ele>681.9</ele>
        <time>2020-07-29T12:57:23Z</time>
      </trkpt>
      <trkpt lat="42.8783510" lon="1.5340910">
        <ele>680.9</ele>
        <time>2020-07-29T12:57:27Z</time>
      </trkpt>
      <trkpt lat="42.8783170" lon="1.5343580">
        <ele>680.2</ele>
        <time>2020-07-29T12:57:29Z</time>
      </trkpt>
      <trkpt lat="42.8782830" lon="1.5347650">
        <ele>679.3</ele>
        <time>2020-07-29T12:57:32Z</time>
      </trkpt>
      <trkpt lat="42.8782650" lon="1.5351730">
        <ele>678.3</ele>
        <time>2020-07-29T12:57:35Z</time>
      </trkpt>
      <trkpt lat="42.8782510" lon="1.5355670">
        <ele>677.5</ele>
        <time>2020-07-29T12:57:38Z</time>
      </trkpt>
      <trkpt lat="42.8782500" lon="1.5358250">
        <ele>677.1</ele>
        <time>2020-07-29T12:57:40Z</time>
      </trkpt>
      <trkpt lat="42.8782500" lon="1.5360800">
        <ele>676.8</ele>
        <time>2020-07-29T12:57:42Z</time>
      </trkpt>
      <trkpt lat="42.8782470" lon="1.5364590">
        <ele>676.2</ele>
        <time>2020-07-29T12:57:45Z</time>
      </trkpt>
      <trkpt lat="42.8782340" lon="1.5372240">
        <ele>675.2</ele>
        <time>2020-07-29T12:57:51Z</time>
      </trkpt>
      <trkpt lat="42.8782310" lon="1.5373530">
        <ele>675.1</ele>
        <time>2020-07-29T12:57:52Z</time>
      </trkpt>
      <trkpt lat="42.8782180" lon="1.5381120">
        <ele>674.6</ele>
        <time>2020-07-29T12:57:58Z</time>
      </trkpt>
      <trkpt lat="42.8782540" lon="1.5385960">
        <ele>674.5</ele>
        <time>2020-07-29T12:58:02Z</time>
      </trkpt>
      <trkpt lat="42.8782880" lon="1.5388270">
        <ele>674.7</ele>
        <time>2020-07-29T12:58:04Z</time>
      </trkpt>
      <trkpt lat="42.8784280" lon="1.5395650">
        <ele>675.3</ele>
        <time>2020-07-29T12:58:11Z</time>
      </trkpt>
      <trkpt lat="42.8785870" lon="1.5403780">
        <ele>675.5</ele>
        <time>2020-07-29T12:58:19Z</time>
      </trkpt>
      <trkpt lat="42.8786070" lon="1.5404820">
        <ele>675.5</ele>
        <time>2020-07-29T12:58:20Z</time>
      </trkpt>
      <trkpt lat="42.8787530" lon="1.5412190">
        <ele>675.5</ele>
        <time>2020-07-29T12:58:27Z</time>
      </trkpt>
      <trkpt lat="42.8788140" lon="1.5415410">
        <ele>675.2</ele>
        <time>2020-07-29T12:58:30Z</time>
      </trkpt>
      <trkpt lat="42.8789730" lon="1.5420660">
        <ele>674.9</ele>
        <time>2020-07-29T12:58:35Z</time>
      </trkpt>
      <trkpt lat="42.8790500" lon="1.5422630">
        <ele>674.9</ele>
        <time>2020-07-29T12:58:37Z</time>
      </trkpt>
      <trkpt lat="42.8792730" lon="1.5427230">
        <ele>674.6</ele>
        <time>2020-07-29T12:58:42Z</time>
      </trkpt>
      <trkpt lat="42.8796030" lon="1.5432380">
        <ele>672.8</ele>
        <time>2020-07-29T12:58:48Z</time>
      </trkpt>
      <trkpt lat="42.8797200" lon="1.5434350">
        <ele>671.2</ele>
        <time>2020-07-29T12:58:50Z</time>
      </trkpt>
      <trkpt lat="42.8798370" lon="1.5436670">
        <ele>669.3</ele>
        <time>2020-07-29T12:58:52Z</time>
      </trkpt>
      <trkpt lat="42.8798870" lon="1.5438000">
        <ele>668.2</ele>
        <time>2020-07-29T12:58:53Z</time>
      </trkpt>
      <trkpt lat="42.8799300" lon="1.5439430">
        <ele>667.1</ele>
        <time>2020-07-29T12:58:54Z</time>
      </trkpt>
      <trkpt lat="42.8799960" lon="1.5442510">
        <ele>665.1</ele>
        <time>2020-07-29T12:58:56Z</time>
      </trkpt>
      <trkpt lat="42.8800420" lon="1.5445730">
        <ele>663.3</ele>
        <time>2020-07-29T12:58:58Z</time>
      </trkpt>
      <trkpt lat="42.8800520" lon="1.5447350">
        <ele>662.5</ele>
        <time>2020-07-29T12:58:59Z</time>
      </trkpt>
      <trkpt lat="42.8800500" lon="1.5450610">
        <ele>660.9</ele>
        <time>2020-07-29T12:59:01Z</time>
      </trkpt>
      <trkpt lat="42.8800440" lon="1.5452250">
        <ele>660.5</ele>
        <time>2020-07-29T12:59:02Z</time>
      </trkpt>
      <trkpt lat="42.8800380" lon="1.5453870">
        <ele>660.1</ele>
        <time>2020-07-29T12:59:03Z</time>
      </trkpt>
      <trkpt lat="42.8800260" lon="1.5455480">
        <ele>659.5</ele>
        <time>2020-07-29T12:59:04Z</time>
      </trkpt>
      <trkpt lat="42.8799730" lon="1.5458590">
        <ele>658.1</ele>
        <time>2020-07-29T12:59:06Z</time>
      </trkpt>
      <trkpt lat="42.8799280" lon="1.5460020">
        <ele>657.5</ele>
        <time>2020-07-29T12:59:07Z</time>
      </trkpt>
      <trkpt lat="42.8798650" lon="1.5461320">
        <ele>656.8</ele>
        <time>2020-07-29T12:59:08Z</time>
      </trkpt>
      <trkpt lat="42.8797910" lon="1.5462540">
        <ele>656.1</ele>
        <time>2020-07-29T12:59:09Z</time>
      </trkpt>
      <trkpt lat="42.8797040" lon="1.5463640">
        <ele>655.3</ele>
        <time>2020-07-29T12:59:10Z</time>
      </trkpt>
      <trkpt lat="42.8796080" lon="1.5464610">
        <ele>654.4</ele>
        <time>2020-07-29T12:59:11Z</time>
      </trkpt>
      <trkpt lat="42.8795010" lon="1.5465390">
        <ele>653.5</ele>
        <time>2020-07-29T12:59:12Z</time>
      </trkpt>
      <trkpt lat="42.8792650" lon="1.5466700">
        <ele>651.4</ele>
        <time>2020-07-29T12:59:14Z</time>
      </trkpt>
      <trkpt lat="42.8790220" lon="1.5468020">
        <ele>649.5</ele>
        <time>2020-07-29T12:59:16Z</time>
      </trkpt>
      <trkpt lat="42.8789030" lon="1.5468840">
        <ele>648.8</ele>
        <time>2020-07-29T12:59:17Z</time>
      </trkpt>
      <trkpt lat="42.8787920" lon="1.5469820">
        <ele>648.0</ele>
        <time>2020-07-29T12:59:18Z</time>
      </trkpt>
      <trkpt lat="42.8786910" lon="1.5470940">
        <ele>647.3</ele>
        <time>2020-07-29T12:59:19Z</time>
      </trkpt>
      <trkpt lat="42.8785970" lon="1.5472150">
        <ele>646.5</ele>
        <time>2020-07-29T12:59:20Z</time>
      </trkpt>
      <trkpt lat="42.8784090" lon="1.5474590">
        <ele>644.7</ele>
        <time>2020-07-29T12:59:22Z</time>
      </trkpt>
      <trkpt lat="42.8782090" lon="1.5476870">
        <ele>642.5</ele>
        <time>2020-07-29T12:59:24Z</time>
      </trkpt>
      <trkpt lat="42.8780130" lon="1.5479390">
        <ele>640.4</ele>
        <time>2020-07-29T12:59:26Z</time>
      </trkpt>
      <trkpt lat="42.8779280" lon="1.5480810">
        <ele>639.5</ele>
        <time>2020-07-29T12:59:27Z</time>
      </trkpt>
      <trkpt lat="42.8778500" lon="1.5482290">
        <ele>638.4</ele>
        <time>2020-07-29T12:59:28Z</time>
      </trkpt>
      <trkpt lat="42.8776920" lon="1.5485190">
        <ele>636.3</ele>
        <time>2020-07-29T12:59:30Z</time>
      </trkpt>
      <trkpt lat="42.8775150" lon="1.5487760">
        <ele>634.1</ele>
        <time>2020-07-29T12:59:32Z</time>
      </trkpt>
      <trkpt lat="42.8774210" lon="1.5488950">
        <ele>633.0</ele>
        <time>2020-07-29T12:59:33Z</time>
      </trkpt>
      <trkpt lat="42.8773270" lon="1.5490160">
        <ele>632.0</ele>
        <time>2020-07-29T12:59:34Z</time>
      </trkpt>
      <trkpt lat="42.8772320" lon="1.5491350">
        <ele>631.6</ele>
        <time>2020-07-29T12:59:35Z</time>
      </trkpt>
      <trkpt lat="42.8770270" lon="1.5493480">
        <ele>629.1</ele>
        <time>2020-07-29T12:59:37Z</time>
      </trkpt>
      <trkpt lat="42.8769150" lon="1.5494370">
        <ele>627.8</ele>
        <time>2020-07-29T12:59:38Z</time>
      </trkpt>
      <trkpt lat="42.8767980" lon="1.5495160">
        <ele>626.5</ele>
        <time>2020-07-29T12:59:39Z</time>
      </trkpt>
      <trkpt lat="42.8765580" lon="1.5496650">
        <ele>624.7</ele>
        <time>2020-07-29T12:59:41Z</time>
      </trkpt>
      <trkpt lat="42.8764370" lon="1.5497360">
        <ele>624.3</ele>
        <time>2020-07-29T12:59:42Z</time>
      </trkpt>
      <trkpt lat="42.8761990" lon="1.5498780">
        <ele>624.1</ele>
        <time>2020-07-29T12:59:44Z</time>
      </trkpt>
      <trkpt lat="42.8760830" lon="1.5499480">
        <ele>624.1</ele>
        <time>2020-07-29T12:59:45Z</time>
      </trkpt>
      <trkpt lat="42.8758630" lon="1.5500930">
        <ele>624.4</ele>
        <time>2020-07-29T12:59:47Z</time>
      </trkpt>
      <trkpt lat="42.8756690" lon="1.5502590">
        <ele>625.5</ele>
        <time>2020-07-29T12:59:49Z</time>
      </trkpt>
      <trkpt lat="42.8755880" lon="1.5503450">
        <ele>626.2</ele>
        <time>2020-07-29T12:59:50Z</time>
      </trkpt>
      <trkpt lat="42.8754750" lon="1.5505250">
        <ele>627.4</ele>
        <time>2020-07-29T12:59:52Z</time>
      </trkpt>
      <trkpt lat="42.8753940" lon="1.5509310">
        <ele>629.5</ele>
        <time>2020-07-29T12:59:56Z</time>
      </trkpt>
      <trkpt lat="42.8753550" lon="1.5512780">
        <ele>631.3</ele>
        <time>2020-07-29T13:00:00Z</time>
      </trkpt>
      <trkpt lat="42.8753460" lon="1.5513520">
        <ele>631.7</ele>
        <time>2020-07-29T13:00:01Z</time>
      </trkpt>
      <trkpt lat="42.8753370" lon="1.5514230">
        <ele>632.1</ele>
        <time>2020-07-29T13:00:02Z</time>
      </trkpt>
      <trkpt lat="42.8753190" lon="1.5515620">
        <ele>632.9</ele>
        <time>2020-07-29T13:00:04Z</time>
      </trkpt>
      <trkpt lat="42.8753020" lon="1.5516940">
        <ele>633.7</ele>
        <time>2020-07-29T13:00:06Z</time>
      </trkpt>
      <trkpt lat="42.8752940" lon="1.5518060">
        <ele>634.3</ele>
        <time>2020-07-29T13:00:08Z</time>
      </trkpt>
      <trkpt lat="42.8752820" lon="1.5519530">
        <ele>635.2</ele>
        <time>2020-07-29T13:00:11Z</time>
      </trkpt>
      <trkpt lat="42.8752760" lon="1.5520070">
        <ele>635.5</ele>
        <time>2020-07-29T13:00:12Z</time>
      </trkpt>
      <trkpt lat="42.8752680" lon="1.5520670">
        <ele>635.8</ele>
        <time>2020-07-29T13:00:13Z</time>
      </trkpt>
      <trkpt lat="42.8752540" lon="1.5521850">
        <ele>636.4</ele>
        <time>2020-07-29T13:00:15Z</time>
      </trkpt>
      <trkpt lat="42.8752300" lon="1.5524060">
        <ele>637.4</ele>
        <time>2020-07-29T13:00:19Z</time>
      </trkpt>
      <trkpt lat="42.8752230" lon="1.5524740">
        <ele>637.7</ele>
        <time>2020-07-29T13:00:20Z</time>
      </trkpt>
      <trkpt lat="42.8751950" lon="1.5526840">
        <ele>638.7</ele>
        <time>2020-07-29T13:00:23Z</time>
      </trkpt>
      <trkpt lat="42.8751590" lon="1.5531140">
        <ele>639.9</ele>
        <time>2020-07-29T13:00:29Z</time>
      </trkpt>
      <trkpt lat="42.8751550" lon="1.5531770">
        <ele>640.1</ele>
        <time>2020-07-29T13:00:30Z</time>
      </trkpt>
      <trkpt lat="42.8751560" lon="1.5533060">
        <ele>640.6</ele>
        <time>2020-07-29T13:00:32Z</time>
      </trkpt>
      <trkpt lat="42.8751740" lon="1.5534950">
        <ele>641.4</ele>
        <time>2020-07-29T13:00:35Z</time>
      </trkpt>
      <trkpt lat="42.8752000" lon="1.5536790">
        <ele>642.3</ele>
        <time>2020-07-29T13:00:38Z</time>
      </trkpt>
      <trkpt lat="42.8752260" lon="1.5538510">
        <ele>643.2</ele>
        <time>2020-07-29T13:00:41Z</time>
      </trkpt>
      <trkpt lat="42.8752330" lon="1.5539080">
        <ele>643.4</ele>
        <time>2020-07-29T13:00:42Z</time>
      </trkpt>
      <trkpt lat="42.8752480" lon="1.5540610">
        <ele>644.1</ele>
        <time>2020-07-29T13:00:45Z</time>
      </trkpt>
      <trkpt lat="42.8752590" lon="1.5542720">
        <ele>645.0</ele>
        <time>2020-07-29T13:00:49Z</time>
      </trkpt>
      <trkpt lat="42.8752560" lon="1.5545320">
        <ele>646.0</ele>
        <time>2020-07-29T13:00:54Z</time>
      </trkpt>
      <trkpt lat="42.8752480" lon="1.5545890">
        <ele>646.2</ele>
        <time>2020-07-29T13:00:55Z</time>
      </trkpt>
      <trkpt lat="42.8752240" lon="1.5547100">
        <ele>646.5</ele>
        <time>2020-07-29T13:00:57Z</time>
      </trkpt>
      <trkpt lat="42.8751860" lon="1.5548180">
        <ele>646.8</ele>
        <time>2020-07-29T13:00:59Z</time>
      </trkpt>
      <trkpt lat="42.8751570" lon="1.5548650">
        <ele>647.0</ele>
        <time>2020-07-29T13:01:00Z</time>
      </trkpt>
      <trkpt lat="42.8751120" lon="1.5549580">
        <ele>647.3</ele>
        <time>2020-07-29T13:01:02Z</time>
      </trkpt>
      <trkpt lat="42.8750410" lon="1.5551580">
        <ele>648.2</ele>
        <time>2020-07-29T13:01:06Z</time>
      </trkpt>
      <trkpt lat="42.8750270" lon="1.5552160">
        <ele>648.4</ele>
        <time>2020-07-29T13:01:07Z</time>
      </trkpt>
      <trkpt lat="42.8750020" lon="1.5553370">
        <ele>648.8</ele>
        <time>2020-07-29T13:01:09Z</time>
      </trkpt>
      <trkpt lat="42.8749960" lon="1.5554780">
        <ele>649.1</ele>
        <time>2020-07-29T13:01:11Z</time>
      </trkpt>
      <trkpt lat="42.8749850" lon="1.5556850">
        <ele>649.5</ele>
        <time>2020-07-29T13:01:14Z</time>
      </trkpt>
      <trkpt lat="42.8749870" lon="1.5557590">
        <ele>649.7</ele>
        <time>2020-07-29T13:01:15Z</time>
      </trkpt>
      <trkpt lat="42.8749680" lon="1.5559620">
        <ele>650.1</ele>
        <time>2020-07-29T13:01:18Z</time>
      </trkpt>
      <trkpt lat="42.8748940" lon="1.5564350">
        <ele>651.5</ele>
        <time>2020-07-29T13:01:26Z</time>
      </trkpt>
      <trkpt lat="42.8748870" lon="1.5564880">
        <ele>651.7</ele>
        <time>2020-07-29T13:01:27Z</time>
      </trkpt>
      <trkpt lat="42.8748780" lon="1.5566950">
        <ele>652.5</ele>
        <time>2020-07-29T13:01:31Z</time>
      </trkpt>
      <trkpt lat="42.8748770" lon="1.5568060">
        <ele>653.0</ele>
        <time>2020-07-29T13:01:33Z</time>
      </trkpt>
      <trkpt lat="42.8748710" lon="1.5570340">
        <ele>654.1</ele>
        <time>2020-07-29T13:01:37Z</time>
      </trkpt>
      <trkpt lat="42.8748710" lon="1.5571550">
        <ele>654.7</ele>
        <time>2020-07-29T13:01:39Z</time>
      </trkpt>
      <trkpt lat="42.8748780" lon="1.5572780">
        <ele>655.2</ele>
        <time>2020-07-29T13:01:41Z</time>
      </trkpt>
      <trkpt lat="42.8749030" lon="1.5576220">
        <ele>656.8</ele>
        <time>2020-07-29T13:01:47Z</time>
      </trkpt>
      <trkpt lat="42.8749100" lon="1.5576730">
        <ele>657.0</ele>
        <time>2020-07-29T13:01:48Z</time>
      </trkpt>
      <trkpt lat="42.8749490" lon="1.5579590">
        <ele>658.5</ele>
        <time>2020-07-29T13:01:53Z</time>
      </trkpt>
      <trkpt lat="42.8749660" lon="1.5581240">
        <ele>659.3</ele>
        <time>2020-07-29T13:01:56Z</time>
      </trkpt>
      <trkpt lat="42.8749710" lon="1.5581780">
        <ele>659.5</ele>
        <time>2020-07-29T13:01:57Z</time>
      </trkpt>
      <trkpt lat="42.8749940" lon="1.5583810">
        <ele>660.6</ele>
        <time>2020-07-29T13:02:01Z</time>
      </trkpt>
      <trkpt lat="42.8750190" lon="1.5586340">
        <ele>662.0</ele>
        <time>2020-07-29T13:02:06Z</time>
      </trkpt>
      <trkpt lat="42.8750240" lon="1.5586900">
        <ele>662.3</ele>
        <time>2020-07-29T13:02:07Z</time>
      </trkpt>
      <trkpt lat="42.8750250" lon="1.5589390">
        <ele>663.5</ele>
        <time>2020-07-29T13:02:12Z</time>
      </trkpt>
      <trkpt lat="42.8750240" lon="1.5590390">
        <ele>663.9</ele>
        <time>2020-07-29T13:02:14Z</time>
      </trkpt>
      <trkpt lat="42.8750070" lon="1.5592360">
        <ele>664.6</ele>
        <time>2020-07-29T13:02:18Z</time>
      </trkpt>
      <trkpt lat="42.8749670" lon="1.5594400">
        <ele>665.1</ele>
        <time>2020-07-29T13:02:22Z</time>
      </trkpt>
      <trkpt lat="42.8749420" lon="1.5595600">
        <ele>665.3</ele>
        <time>2020-07-29T13:02:24Z</time>
      </trkpt>
      <trkpt lat="42.8748970" lon="1.5597630">
        <ele>665.4</ele>
        <time>2020-07-29T13:02:27Z</time>
      </trkpt>
      <trkpt lat="42.8748840" lon="1.5598400">
        <ele>665.3</ele>
        <time>2020-07-29T13:02:28Z</time>
      </trkpt>
      <trkpt lat="42.8747930" lon="1.5602600">
        <ele>664.2</ele>
        <time>2020-07-29T13:02:33Z</time>
      </trkpt>
      <trkpt lat="42.8746480" lon="1.5607740">
        <ele>661.2</ele>
        <time>2020-07-29T13:02:38Z</time>
      </trkpt>
      <trkpt lat="42.8745040" lon="1.5611120">
        <ele>658.5</ele>
        <time>2020-07-29T13:02:41Z</time>
      </trkpt>
      <trkpt lat="42.8743910" lon="1.5613420">
        <ele>656.7</ele>
        <time>2020-07-29T13:02:43Z</time>
      </trkpt>
      <trkpt lat="42.8742570" lon="1.5615600">
        <ele>654.9</ele>
        <time>2020-07-29T13:02:45Z</time>
      </trkpt>
      <trkpt lat="42.8741180" lon="1.5617800">
        <ele>653.4</ele>
        <time>2020-07-29T13:02:47Z</time>
      </trkpt>
      <trkpt lat="42.8739890" lon="1.5620150">
        <ele>652.5</ele>
        <time>2020-07-29T13:02:49Z</time>
      </trkpt>
      <trkpt lat="42.8738770" lon="1.5622580">
        <ele>651.9</ele>
        <time>2020-07-29T13:02:51Z</time>
      </trkpt>
      <trkpt lat="42.8737870" lon="1.5624990">
        <ele>651.5</ele>
        <time>2020-07-29T13:02:53Z</time>
      </trkpt>
      <trkpt lat="42.8737500" lon="1.5626150">
        <ele>651.4</ele>
        <time>2020-07-29T13:02:54Z</time>
      </trkpt>
      <trkpt lat="42.8737170" lon="1.5627330">
        <ele>651.2</ele>
        <time>2020-07-29T13:02:55Z</time>
      </trkpt>
      <trkpt lat="42.8736510" lon="1.5629640">
        <ele>651.1</ele>
        <time>2020-07-29T13:02:57Z</time>
      </trkpt>
      <trkpt lat="42.8735560" lon="1.5633030">
        <ele>650.7</ele>
        <time>2020-07-29T13:03:00Z</time>
      </trkpt>
      <trkpt lat="42.8734720" lon="1.5635220">
        <ele>649.9</ele>
        <time>2020-07-29T13:03:02Z</time>
      </trkpt>
      <trkpt lat="42.8733660" lon="1.5637430">
        <ele>648.7</ele>
        <time>2020-07-29T13:03:04Z</time>
      </trkpt>
      <trkpt lat="42.8732270" lon="1.5639570">
        <ele>648.2</ele>
        <time>2020-07-29T13:03:06Z</time>
      </trkpt>
      <trkpt lat="42.8731410" lon="1.5640510">
        <ele>648.1</ele>
        <time>2020-07-29T13:03:07Z</time>
      </trkpt>
      <trkpt lat="42.8728550" lon="1.5642680">
        <ele>647.1</ele>
        <time>2020-07-29T13:03:10Z</time>
      </trkpt>
      <trkpt lat="42.8726640" lon="1.5644050">
        <ele>646.5</ele>
        <time>2020-07-29T13:03:12Z</time>
      </trkpt>
      <trkpt lat="42.8724750" lon="1.5645340">
        <ele>645.9</ele>
        <time>2020-07-29T13:03:14Z</time>
      </trkpt>
      <trkpt lat="42.8722880" lon="1.5646540">
        <ele>645.4</ele>
        <time>2020-07-29T13:03:16Z</time>
      </trkpt>
      <trkpt lat="42.8720250" lon="1.5648390">
        <ele>644.6</ele>
        <time>2020-07-29T13:03:19Z</time>
      </trkpt>
      <trkpt lat="42.8717100" lon="1.5651180">
        <ele>642.7</ele>
        <time>2020-07-29T13:03:23Z</time>
      </trkpt>
      <trkpt lat="42.8716410" lon="1.5652110">
        <ele>642.1</ele>
        <time>2020-07-29T13:03:24Z</time>
      </trkpt>
      <trkpt lat="42.8715830" lon="1.5653240">
        <ele>641.3</ele>
        <time>2020-07-29T13:03:25Z</time>
      </trkpt>
      <trkpt lat="42.8715370" lon="1.5654500">
        <ele>640.5</ele>
        <time>2020-07-29T13:03:26Z</time>
      </trkpt>
      <trkpt lat="42.8715010" lon="1.5655820">
        <ele>639.7</ele>
        <time>2020-07-29T13:03:27Z</time>
      </trkpt>
      <trkpt lat="42.8714690" lon="1.5657210">
        <ele>638.9</ele>
        <time>2020-07-29T13:03:28Z</time>
      </trkpt>
      <trkpt lat="42.8714050" lon="1.5660070">
        <ele>637.4</ele>
        <time>2020-07-29T13:03:30Z</time>
      </trkpt>
      <trkpt lat="42.8713030" lon="1.5664540">
        <ele>635.2</ele>
        <time>2020-07-29T13:03:33Z</time>
      </trkpt>
      <trkpt lat="42.8712700" lon="1.5666070">
        <ele>634.4</ele>
        <time>2020-07-29T13:03:34Z</time>
      </trkpt>
      <trkpt lat="42.8712360" lon="1.5667600">
        <ele>633.7</ele>
        <time>2020-07-29T13:03:35Z</time>
      </trkpt>
      <trkpt lat="42.8711550" lon="1.5670650">
        <ele>632.1</ele>
        <time>2020-07-29T13:03:37Z</time>
      </trkpt>
      <trkpt lat="42.8711010" lon="1.5672060">
        <ele>631.3</ele>
        <time>2020-07-29T13:03:38Z</time>
      </trkpt>
      <trkpt lat="42.8710390" lon="1.5673430">
        <ele>630.5</ele>
        <time>2020-07-29T13:03:39Z</time>
      </trkpt>
      <trkpt lat="42.8709510" lon="1.5674400">
        <ele>629.7</ele>
        <time>2020-07-29T13:03:40Z</time>
      </trkpt>
      <trkpt lat="42.8708470" lon="1.5675220">
        <ele>629.0</ele>
        <time>2020-07-29T13:03:41Z</time>
      </trkpt>
      <trkpt lat="42.8706070" lon="1.5676140">
        <ele>627.4</ele>
        <time>2020-07-29T13:03:43Z</time>
      </trkpt>
      <trkpt lat="42.8704850" lon="1.5676430">
        <ele>626.6</ele>
        <time>2020-07-29T13:03:44Z</time>
      </trkpt>
      <trkpt lat="42.8703690" lon="1.5676730">
        <ele>625.8</ele>
        <time>2020-07-29T13:03:45Z</time>
      </trkpt>
      <trkpt lat="42.8701380" lon="1.5677590">
        <ele>624.4</ele>
        <time>2020-07-29T13:03:47Z</time>
      </trkpt>
      <trkpt lat="42.8700250" lon="1.5678250">
        <ele>623.8</ele>
        <time>2020-07-29T13:03:48Z</time>
      </trkpt>
      <trkpt lat="42.8699060" lon="1.5678920">
        <ele>623.1</ele>
        <time>2020-07-29T13:03:49Z</time>
      </trkpt>
      <trkpt lat="42.8697820" lon="1.5679480">
        <ele>622.3</ele>
        <time>2020-07-29T13:03:50Z</time>
      </trkpt>
      <trkpt lat="42.8696560" lon="1.5679920">
        <ele>621.6</ele>
        <time>2020-07-29T13:03:51Z</time>
      </trkpt>
      <trkpt lat="42.8695310" lon="1.5680260">
        <ele>620.8</ele>
        <time>2020-07-29T13:03:52Z</time>
      </trkpt>
      <trkpt lat="42.8694100" lon="1.5680590">
        <ele>620.0</ele>
        <time>2020-07-29T13:03:53Z</time>
      </trkpt>
      <trkpt lat="42.8690470" lon="1.5681560">
        <ele>617.7</ele>
        <time>2020-07-29T13:03:56Z</time>
      </trkpt>
      <trkpt lat="42.8689230" lon="1.5681770">
        <ele>616.9</ele>
        <time>2020-07-29T13:03:57Z</time>
      </trkpt>
      <trkpt lat="42.8687960" lon="1.5682020">
        <ele>616.1</ele>
        <time>2020-07-29T13:03:58Z</time>
      </trkpt>
      <trkpt lat="42.8685380" lon="1.5682530">
        <ele>614.5</ele>
        <time>2020-07-29T13:04:00Z</time>
      </trkpt>
      <trkpt lat="42.8684070" lon="1.5682610">
        <ele>613.6</ele>
        <time>2020-07-29T13:04:01Z</time>
      </trkpt>
      <trkpt lat="42.8682810" lon="1.5682580">
        <ele>612.8</ele>
        <time>2020-07-29T13:04:02Z</time>
      </trkpt>
      <trkpt lat="42.8681560" lon="1.5682500">
        <ele>612.0</ele>
        <time>2020-07-29T13:04:03Z</time>
      </trkpt>
      <trkpt lat="42.8679130" lon="1.5682400">
        <ele>610.4</ele>
        <time>2020-07-29T13:04:05Z</time>
      </trkpt>
      <trkpt lat="42.8677910" lon="1.5682500">
        <ele>609.7</ele>
        <time>2020-07-29T13:04:06Z</time>
      </trkpt>
      <trkpt lat="42.8676740" lon="1.5682800">
        <ele>609.0</ele>
        <time>2020-07-29T13:04:07Z</time>
      </trkpt>
      <trkpt lat="42.8674500" lon="1.5683870">
        <ele>607.7</ele>
        <time>2020-07-29T13:04:09Z</time>
      </trkpt>
      <trkpt lat="42.8673400" lon="1.5684570">
        <ele>607.0</ele>
        <time>2020-07-29T13:04:10Z</time>
      </trkpt>
      <trkpt lat="42.8672300" lon="1.5685350">
        <ele>606.3</ele>
        <time>2020-07-29T13:04:11Z</time>
      </trkpt>
      <trkpt lat="42.8671220" lon="1.5686160">
        <ele>605.6</ele>
        <time>2020-07-29T13:04:12Z</time>
      </trkpt>
      <trkpt lat="42.8669050" lon="1.5687750">
        <ele>604.1</ele>
        <time>2020-07-29T13:04:14Z</time>
      </trkpt>
      <trkpt lat="42.8665670" lon="1.5690190">
        <ele>601.8</ele>
        <time>2020-07-29T13:04:17Z</time>
      </trkpt>
      <trkpt lat="42.8664550" lon="1.5691000">
        <ele>601.1</ele>
        <time>2020-07-29T13:04:18Z</time>
      </trkpt>
      <trkpt lat="42.8663420" lon="1.5691740">
        <ele>600.5</ele>
        <time>2020-07-29T13:04:19Z</time>
      </trkpt>
      <trkpt lat="42.8662260" lon="1.5692380">
        <ele>599.8</ele>
        <time>2020-07-29T13:04:20Z</time>
      </trkpt>
      <trkpt lat="42.8659920" lon="1.5693540">
        <ele>598.5</ele>
        <time>2020-07-29T13:04:22Z</time>
      </trkpt>
      <trkpt lat="42.8658790" lon="1.5694160">
        <ele>597.8</ele>
        <time>2020-07-29T13:04:23Z</time>
      </trkpt>
      <trkpt lat="42.8656600" lon="1.5695570">
        <ele>596.4</ele>
        <time>2020-07-29T13:04:25Z</time>
      </trkpt>
      <trkpt lat="42.8655480" lon="1.5696310">
        <ele>595.7</ele>
        <time>2020-07-29T13:04:26Z</time>
      </trkpt>
      <trkpt lat="42.8651930" lon="1.5697860">
        <ele>593.6</ele>
        <time>2020-07-29T13:04:29Z</time>
      </trkpt>
      <trkpt lat="42.8649440" lon="1.5698770">
        <ele>592.0</ele>
        <time>2020-07-29T13:04:31Z</time>
      </trkpt>
      <trkpt lat="42.8645920" lon="1.5700730">
        <ele>589.8</ele>
        <time>2020-07-29T13:04:34Z</time>
      </trkpt>
      <trkpt lat="42.8644760" lon="1.5701470">
        <ele>589.1</ele>
        <time>2020-07-29T13:04:35Z</time>
      </trkpt>
      <trkpt lat="42.8643580" lon="1.5702220">
        <ele>588.3</ele>
        <time>2020-07-29T13:04:36Z</time>
      </trkpt>
      <trkpt lat="42.8641260" lon="1.5703830">
        <ele>586.8</ele>
        <time>2020-07-29T13:04:38Z</time>
      </trkpt>
      <trkpt lat="42.8640120" lon="1.5704640">
        <ele>586.1</ele>
        <time>2020-07-29T13:04:39Z</time>
      </trkpt>
      <trkpt lat="42.8637820" lon="1.5706260">
        <ele>584.7</ele>
        <time>2020-07-29T13:04:41Z</time>
      </trkpt>
      <trkpt lat="42.8635800" lon="1.5708230">
        <ele>583.3</ele>
        <time>2020-07-29T13:04:43Z</time>
      </trkpt>
      <trkpt lat="42.8634870" lon="1.5709330">
        <ele>582.6</ele>
        <time>2020-07-29T13:04:44Z</time>
      </trkpt>
      <trkpt lat="42.8634010" lon="1.5710520">
        <ele>581.9</ele>
        <time>2020-07-29T13:04:45Z</time>
      </trkpt>
      <trkpt lat="42.8632290" lon="1.5712960">
        <ele>580.6</ele>
        <time>2020-07-29T13:04:47Z</time>
      </trkpt>
      <trkpt lat="42.8630610" lon="1.5715570">
        <ele>579.2</ele>
        <time>2020-07-29T13:04:49Z</time>
      </trkpt>
      <trkpt lat="42.8629020" lon="1.5718120">
        <ele>577.9</ele>
        <time>2020-07-29T13:04:51Z</time>
      </trkpt>
      <trkpt lat="42.8628160" lon="1.5719320">
        <ele>577.3</ele>
        <time>2020-07-29T13:04:52Z</time>
      </trkpt>
      <trkpt lat="42.8627280" lon="1.5720460">
        <ele>576.6</ele>
        <time>2020-07-29T13:04:53Z</time>
      </trkpt>
      <trkpt lat="42.8625410" lon="1.5722540">
        <ele>575.3</ele>
        <time>2020-07-29T13:04:55Z</time>
      </trkpt>
      <trkpt lat="42.8623460" lon="1.5724410">
        <ele>573.9</ele>
        <time>2020-07-29T13:04:57Z</time>
      </trkpt>
      <trkpt lat="42.8621540" lon="1.5726310">
        <ele>572.6</ele>
        <time>2020-07-29T13:04:59Z</time>
      </trkpt>
      <trkpt lat="42.8619880" lon="1.5728630">
        <ele>571.4</ele>
        <time>2020-07-29T13:05:01Z</time>
      </trkpt>
      <trkpt lat="42.8619160" lon="1.5729940">
        <ele>570.8</ele>
        <time>2020-07-29T13:05:02Z</time>
      </trkpt>
      <trkpt lat="42.8617940" lon="1.5732950">
        <ele>569.4</ele>
        <time>2020-07-29T13:05:04Z</time>
      </trkpt>
      <trkpt lat="42.8616890" lon="1.5736170">
        <ele>568.0</ele>
        <time>2020-07-29T13:05:06Z</time>
      </trkpt>
      <trkpt lat="42.8615030" lon="1.5740670">
        <ele>565.9</ele>
        <time>2020-07-29T13:05:09Z</time>
      </trkpt>
      <trkpt lat="42.8613450" lon="1.5743350">
        <ele>564.5</ele>
        <time>2020-07-29T13:05:11Z</time>
      </trkpt>
      <trkpt lat="42.8611790" lon="1.5745930">
        <ele>563.2</ele>
        <time>2020-07-29T13:05:13Z</time>
      </trkpt>
      <trkpt lat="42.8610990" lon="1.5747200">
        <ele>562.6</ele>
        <time>2020-07-29T13:05:14Z</time>
      </trkpt>
      <trkpt lat="42.8609360" lon="1.5749710">
        <ele>561.4</ele>
        <time>2020-07-29T13:05:16Z</time>
      </trkpt>
      <trkpt lat="42.8607720" lon="1.5752140">
        <ele>560.2</ele>
        <time>2020-07-29T13:05:18Z</time>
      </trkpt>
      <trkpt lat="42.8606860" lon="1.5753280">
        <ele>559.5</ele>
        <time>2020-07-29T13:05:19Z</time>
      </trkpt>
      <trkpt lat="42.8605980" lon="1.5754360">
        <ele>558.9</ele>
        <time>2020-07-29T13:05:20Z</time>
      </trkpt>
      <trkpt lat="42.8605060" lon="1.5755350">
        <ele>558.3</ele>
        <time>2020-07-29T13:05:21Z</time>
      </trkpt>
      <trkpt lat="42.8603150" lon="1.5757090">
        <ele>557.1</ele>
        <time>2020-07-29T13:05:23Z</time>
      </trkpt>
      <trkpt lat="42.8602150" lon="1.5757840">
        <ele>556.5</ele>
        <time>2020-07-29T13:05:24Z</time>
      </trkpt>
      <trkpt lat="42.8601110" lon="1.5758480">
        <ele>556.5</ele>
        <time>2020-07-29T13:05:25Z</time>
      </trkpt>
      <trkpt lat="42.8598950" lon="1.5759620">
        <ele>555.2</ele>
        <time>2020-07-29T13:05:27Z</time>
      </trkpt>
      <trkpt lat="42.8596720" lon="1.5760590">
        <ele>553.9</ele>
        <time>2020-07-29T13:05:29Z</time>
      </trkpt>
      <trkpt lat="42.8593410" lon="1.5762000">
        <ele>552.8</ele>
        <time>2020-07-29T13:05:32Z</time>
      </trkpt>
      <trkpt lat="42.8590420" lon="1.5763920">
        <ele>550.8</ele>
        <time>2020-07-29T13:05:35Z</time>
      </trkpt>
      <trkpt lat="42.8588810" lon="1.5765920">
        <ele>549.4</ele>
        <time>2020-07-29T13:05:37Z</time>
      </trkpt>
      <trkpt lat="42.8588160" lon="1.5767110">
        <ele>548.7</ele>
        <time>2020-07-29T13:05:38Z</time>
      </trkpt>
      <trkpt lat="42.8587540" lon="1.5768340">
        <ele>547.9</ele>
        <time>2020-07-29T13:05:39Z</time>
      </trkpt>
      <trkpt lat="42.8586270" lon="1.5770770">
        <ele>546.4</ele>
        <time>2020-07-29T13:05:41Z</time>
      </trkpt>
      <trkpt lat="42.8585770" lon="1.5772090">
        <ele>545.6</ele>
        <time>2020-07-29T13:05:42Z</time>
      </trkpt>
      <trkpt lat="42.8585450" lon="1.5773530">
        <ele>544.8</ele>
        <time>2020-07-29T13:05:43Z</time>
      </trkpt>
      <trkpt lat="42.8585420" lon="1.5776500">
        <ele>543.3</ele>
        <time>2020-07-29T13:05:45Z</time>
      </trkpt>
      <trkpt lat="42.8585600" lon="1.5777910">
        <ele>542.7</ele>
        <time>2020-07-29T13:05:46Z</time>
      </trkpt>
      <trkpt lat="42.8586380" lon="1.5780710">
        <ele>541.2</ele>
        <time>2020-07-29T13:05:48Z</time>
      </trkpt>
      <trkpt lat="42.8586660" lon="1.5782180">
        <ele>540.5</ele>
        <time>2020-07-29T13:05:49Z</time>
      </trkpt>
      <trkpt lat="42.8586790" lon="1.5783730">
        <ele>539.7</ele>
        <time>2020-07-29T13:05:50Z</time>
      </trkpt>
      <trkpt lat="42.8586570" lon="1.5786880">
        <ele>538.1</ele>
        <time>2020-07-29T13:05:52Z</time>
      </trkpt>
      <trkpt lat="42.8586370" lon="1.5788460">
        <ele>537.3</ele>
        <time>2020-07-29T13:05:53Z</time>
      </trkpt>
      <trkpt lat="42.8586050" lon="1.5791690">
        <ele>535.4</ele>
        <time>2020-07-29T13:05:55Z</time>
      </trkpt>
      <trkpt lat="42.8585870" lon="1.5794960">
        <ele>533.5</ele>
        <time>2020-07-29T13:05:57Z</time>
      </trkpt>
      <trkpt lat="42.8585760" lon="1.5796590">
        <ele>532.6</ele>
        <time>2020-07-29T13:05:58Z</time>
      </trkpt>
      <trkpt lat="42.8585650" lon="1.5798220">
        <ele>531.7</ele>
        <time>2020-07-29T13:05:59Z</time>
      </trkpt>
      <trkpt lat="42.8585440" lon="1.5801430">
        <ele>530.1</ele>
        <time>2020-07-29T13:06:01Z</time>
      </trkpt>
      <trkpt lat="42.8585230" lon="1.5803010">
        <ele>529.3</ele>
        <time>2020-07-29T13:06:02Z</time>
      </trkpt>
      <trkpt lat="42.8584500" lon="1.5806150">
        <ele>527.7</ele>
        <time>2020-07-29T13:06:04Z</time>
      </trkpt>
      <trkpt lat="42.8583440" lon="1.5809150">
        <ele>525.9</ele>
        <time>2020-07-29T13:06:06Z</time>
      </trkpt>
      <trkpt lat="42.8582320" lon="1.5812150">
        <ele>524.2</ele>
        <time>2020-07-29T13:06:08Z</time>
      </trkpt>
      <trkpt lat="42.8581760" lon="1.5813620">
        <ele>523.4</ele>
        <time>2020-07-29T13:06:09Z</time>
      </trkpt>
      <trkpt lat="42.8580610" lon="1.5816530">
        <ele>521.6</ele>
        <time>2020-07-29T13:06:11Z</time>
      </trkpt>
      <trkpt lat="42.8580070" lon="1.5818010">
        <ele>520.8</ele>
        <time>2020-07-29T13:06:12Z</time>
      </trkpt>
      <trkpt lat="42.8579540" lon="1.5819480">
        <ele>519.9</ele>
        <time>2020-07-29T13:06:13Z</time>
      </trkpt>
      <trkpt lat="42.8578530" lon="1.5822460">
        <ele>518.3</ele>
        <time>2020-07-29T13:06:15Z</time>
      </trkpt>
      <trkpt lat="42.8577620" lon="1.5825490">
        <ele>516.7</ele>
        <time>2020-07-29T13:06:17Z</time>
      </trkpt>
      <trkpt lat="42.8576510" lon="1.5828290">
        <ele>515.1</ele>
        <time>2020-07-29T13:06:19Z</time>
      </trkpt>
      <trkpt lat="42.8575770" lon="1.5829470">
        <ele>514.4</ele>
        <time>2020-07-29T13:06:20Z</time>
      </trkpt>
      <trkpt lat="42.8574840" lon="1.5830300">
        <ele>513.5</ele>
        <time>2020-07-29T13:06:21Z</time>
      </trkpt>
      <trkpt lat="42.8573780" lon="1.5830800">
        <ele>512.6</ele>
        <time>2020-07-29T13:06:22Z</time>
      </trkpt>
      <trkpt lat="42.8572650" lon="1.5831090">
        <ele>511.6</ele>
        <time>2020-07-29T13:06:23Z</time>
      </trkpt>
      <trkpt lat="42.8571480" lon="1.5831270">
        <ele>510.6</ele>
        <time>2020-07-29T13:06:24Z</time>
      </trkpt>
      <trkpt lat="42.8570310" lon="1.5831510">
        <ele>509.6</ele>
        <time>2020-07-29T13:06:25Z</time>
      </trkpt>
      <trkpt lat="42.8569200" lon="1.5831970">
        <ele>508.6</ele>
        <time>2020-07-29T13:06:26Z</time>
      </trkpt>
      <trkpt lat="42.8568140" lon="1.5832720">
        <ele>507.6</ele>
        <time>2020-07-29T13:06:27Z</time>
      </trkpt>
      <trkpt lat="42.8566390" lon="1.5834880">
        <ele>506.0</ele>
        <time>2020-07-29T13:06:29Z</time>
      </trkpt>
      <trkpt lat="42.8565030" lon="1.5837510">
        <ele>504.9</ele>
        <time>2020-07-29T13:06:31Z</time>
      </trkpt>
      <trkpt lat="42.8563600" lon="1.5840100">
        <ele>504.2</ele>
        <time>2020-07-29T13:06:33Z</time>
      </trkpt>
      <trkpt lat="42.8561720" lon="1.5841870">
        <ele>503.6</ele>
        <time>2020-07-29T13:06:35Z</time>
      </trkpt>
      <trkpt lat="42.8560700" lon="1.5842380">
        <ele>503.4</ele>
        <time>2020-07-29T13:06:36Z</time>
      </trkpt>
      <trkpt lat="42.8559660" lon="1.5842790">
        <ele>503.0</ele>
        <time>2020-07-29T13:06:37Z</time>
      </trkpt>
      <trkpt lat="42.8558730" lon="1.5843290">
        <ele>502.6</ele>
        <time>2020-07-29T13:06:38Z</time>
      </trkpt>
      <trkpt lat="42.8557830" lon="1.5843980">
        <ele>502.3</ele>
        <time>2020-07-29T13:06:39Z</time>
      </trkpt>
      <trkpt lat="42.8556990" lon="1.5844870">
        <ele>502.0</ele>
        <time>2020-07-29T13:06:40Z</time>
      </trkpt>
      <trkpt lat="42.8556230" lon="1.5845980">
        <ele>501.8</ele>
        <time>2020-07-29T13:06:41Z</time>
      </trkpt>
      <trkpt lat="42.8555500" lon="1.5847050">
        <ele>501.6</ele>
        <time>2020-07-29T13:06:42Z</time>
      </trkpt>
      <trkpt lat="42.8554080" lon="1.5849130">
        <ele>501.5</ele>
        <time>2020-07-29T13:06:44Z</time>
      </trkpt>
      <trkpt lat="42.8552710" lon="1.5851120">
        <ele>501.4</ele>
        <time>2020-07-29T13:06:46Z</time>
      </trkpt>
      <trkpt lat="42.8550150" lon="1.5854720">
        <ele>501.2</ele>
        <time>2020-07-29T13:06:50Z</time>
      </trkpt>
      <trkpt lat="42.8546710" lon="1.5859640">
        <ele>500.8</ele>
        <time>2020-07-29T13:06:56Z</time>
      </trkpt>
      <trkpt lat="42.8543330" lon="1.5866150">
        <ele>500.8</ele>
        <time>2020-07-29T13:07:03Z</time>
      </trkpt>
      <trkpt lat="42.8541220" lon="1.5872180">
        <ele>501.0</ele>
        <time>2020-07-29T13:07:09Z</time>
      </trkpt>
      <trkpt lat="42.8539120" lon="1.5878690">
        <ele>500.3</ele>
        <time>2020-07-29T13:07:16Z</time>
      </trkpt>
      <trkpt lat="42.8537090" lon="1.5885100">
        <ele>497.7</ele>
        <time>2020-07-29T13:07:22Z</time>
      </trkpt>
      <trkpt lat="42.8535240" lon="1.5890590">
        <ele>496.2</ele>
        <time>2020-07-29T13:07:27Z</time>
      </trkpt>
      <trkpt lat="42.8534450" lon="1.5892720">
        <ele>495.8</ele>
        <time>2020-07-29T13:07:29Z</time>
      </trkpt>
      <trkpt lat="42.8534020" lon="1.5893780">
        <ele>495.6</ele>
        <time>2020-07-29T13:07:30Z</time>
      </trkpt>
      <trkpt lat="42.8533090" lon="1.5895810">
        <ele>495.2</ele>
        <time>2020-07-29T13:07:32Z</time>
      </trkpt>
      <trkpt lat="42.8530710" lon="1.5900460">
        <ele>494.6</ele>
        <time>2020-07-29T13:07:37Z</time>
      </trkpt>
      <trkpt lat="42.8529550" lon="1.5902390">
        <ele>494.8</ele>
        <time>2020-07-29T13:07:40Z</time>
      </trkpt>
      <trkpt lat="42.8528650" lon="1.5903130">
        <ele>495.1</ele>
        <time>2020-07-29T13:07:42Z</time>
      </trkpt>
      <trkpt lat="42.8528160" lon="1.5903300">
        <ele>495.2</ele>
        <time>2020-07-29T13:07:43Z</time>
      </trkpt>
      <trkpt lat="42.8525650" lon="1.5904350">
        <ele>495.9</ele>
        <time>2020-07-29T13:07:48Z</time>
      </trkpt>
      <trkpt lat="42.8524050" lon="1.5906420">
        <ele>496.2</ele>
        <time>2020-07-29T13:07:52Z</time>
      </trkpt>
      <trkpt lat="42.8523380" lon="1.5909470">
        <ele>496.2</ele>
        <time>2020-07-29T13:07:56Z</time>
      </trkpt>
      <trkpt lat="42.8523820" lon="1.5912940">
        <ele>496.0</ele>
        <time>2020-07-29T13:08:00Z</time>
      </trkpt>
      <trkpt lat="42.8525410" lon="1.5916250">
        <ele>495.2</ele>
        <time>2020-07-29T13:08:04Z</time>
      </trkpt>
      <trkpt lat="42.8525490" lon="1.5918410">
        <ele>494.3</ele>
        <time>2020-07-29T13:08:06Z</time>
      </trkpt>
      <trkpt lat="42.8524970" lon="1.5920630">
        <ele>493.5</ele>
        <time>2020-07-29T13:08:08Z</time>
      </trkpt>
      <trkpt lat="42.8524290" lon="1.5922840">
        <ele>492.8</ele>
        <time>2020-07-29T13:08:10Z</time>
      </trkpt>
      <trkpt lat="42.8523170" lon="1.5926080">
        <ele>492.6</ele>
        <time>2020-07-29T13:08:13Z</time>
      </trkpt>
      <trkpt lat="42.8522400" lon="1.5928240">
        <ele>492.2</ele>
        <time>2020-07-29T13:08:15Z</time>
      </trkpt>
      <trkpt lat="42.8521250" lon="1.5931550">
        <ele>491.4</ele>
        <time>2020-07-29T13:08:18Z</time>
      </trkpt>
      <trkpt lat="42.8520050" lon="1.5934980">
        <ele>490.7</ele>
        <time>2020-07-29T13:08:21Z</time>
      </trkpt>
      <trkpt lat="42.8519220" lon="1.5937360">
        <ele>489.7</ele>
        <time>2020-07-29T13:08:23Z</time>
      </trkpt>
      <trkpt lat="42.8517010" lon="1.5943680">
        <ele>486.3</ele>
        <time>2020-07-29T13:08:28Z</time>
      </trkpt>
      <trkpt lat="42.8515610" lon="1.5947680">
        <ele>484.5</ele>
        <time>2020-07-29T13:08:31Z</time>
      </trkpt>
      <trkpt lat="42.8515140" lon="1.5949010">
        <ele>484.1</ele>
        <time>2020-07-29T13:08:32Z</time>
      </trkpt>
      <trkpt lat="42.8514220" lon="1.5951650">
        <ele>483.4</ele>
        <time>2020-07-29T13:08:34Z</time>
      </trkpt>
      <trkpt lat="42.8513320" lon="1.5954260">
        <ele>482.7</ele>
        <time>2020-07-29T13:08:36Z</time>
      </trkpt>
      <trkpt lat="42.8512850" lon="1.5955530">
        <ele>482.4</ele>
        <time>2020-07-29T13:08:37Z</time>
      </trkpt>
      <trkpt lat="42.8512410" lon="1.5956800">
        <ele>482.1</ele>
        <time>2020-07-29T13:08:38Z</time>
      </trkpt>
      <trkpt lat="42.8511540" lon="1.5959300">
        <ele>481.6</ele>
        <time>2020-07-29T13:08:40Z</time>
      </trkpt>
      <trkpt lat="42.8509820" lon="1.5964170">
        <ele>480.6</ele>
        <time>2020-07-29T13:08:44Z</time>
      </trkpt>
      <trkpt lat="42.8509000" lon="1.5966560">
        <ele>480.1</ele>
        <time>2020-07-29T13:08:46Z</time>
      </trkpt>
      <trkpt lat="42.8507750" lon="1.5970150">
        <ele>479.4</ele>
        <time>2020-07-29T13:08:49Z</time>
      </trkpt>
      <trkpt lat="42.8505680" lon="1.5976050">
        <ele>478.7</ele>
        <time>2020-07-29T13:08:54Z</time>
      </trkpt>
      <trkpt lat="42.8503750" lon="1.5981660">
        <ele>477.8</ele>
        <time>2020-07-29T13:08:59Z</time>
      </trkpt>
      <trkpt lat="42.8502620" lon="1.5984930">
        <ele>477.6</ele>
        <time>2020-07-29T13:09:02Z</time>
      </trkpt>
      <trkpt lat="42.8501490" lon="1.5988270">
        <ele>477.4</ele>
        <time>2020-07-29T13:09:05Z</time>
      </trkpt>
      <trkpt lat="42.8500640" lon="1.5990430">
        <ele>477.4</ele>
        <time>2020-07-29T13:09:07Z</time>
      </trkpt>
      <trkpt lat="42.8499540" lon="1.5992330">
        <ele>478.1</ele>
        <time>2020-07-29T13:09:09Z</time>
      </trkpt>
      <trkpt lat="42.8497350" lon="1.5994120">
        <ele>476.7</ele>
        <time>2020-07-29T13:09:12Z</time>
      </trkpt>
      <trkpt lat="42.8495660" lon="1.5994630">
        <ele>476.4</ele>
        <time>2020-07-29T13:09:14Z</time>
      </trkpt>
      <trkpt lat="42.8493070" lon="1.5995120">
        <ele>475.9</ele>
        <time>2020-07-29T13:09:17Z</time>
      </trkpt>
      <trkpt lat="42.8487080" lon="1.5995920">
        <ele>475.3</ele>
        <time>2020-07-29T13:09:24Z</time>
      </trkpt>
      <trkpt lat="42.8485410" lon="1.5996130">
        <ele>475.1</ele>
        <time>2020-07-29T13:09:26Z</time>
      </trkpt>
      <trkpt lat="42.8479670" lon="1.5996870">
        <ele>474.6</ele>
        <time>2020-07-29T13:09:33Z</time>
      </trkpt>
      <trkpt lat="42.8478850" lon="1.5996960">
        <ele>474.6</ele>
        <time>2020-07-29T13:09:34Z</time>
      </trkpt>
      <trkpt lat="42.8473140" lon="1.5997760">
        <ele>475.2</ele>
        <time>2020-07-29T13:09:41Z</time>
      </trkpt>
      <trkpt lat="42.8470720" lon="1.5998290">
        <ele>475.2</ele>
        <time>2020-07-29T13:09:44Z</time>
      </trkpt>
      <trkpt lat="42.8466390" lon="1.5999980">
        <ele>476.1</ele>
        <time>2020-07-29T13:09:50Z</time>
      </trkpt>
      <trkpt lat="42.8463120" lon="1.6001860">
        <ele>478.2</ele>
        <time>2020-07-29T13:09:56Z</time>
      </trkpt>
      <trkpt lat="42.8462210" lon="1.6002460">
        <ele>478.8</ele>
        <time>2020-07-29T13:09:58Z</time>
      </trkpt>
      <trkpt lat="42.8460490" lon="1.6003670">
        <ele>480.0</ele>
        <time>2020-07-29T13:10:02Z</time>
      </trkpt>
      <trkpt lat="42.8459290" lon="1.6004610">
        <ele>480.9</ele>
        <time>2020-07-29T13:10:05Z</time>
      </trkpt>
      <trkpt lat="42.8458890" lon="1.6004930">
        <ele>481.1</ele>
        <time>2020-07-29T13:10:06Z</time>
      </trkpt>
      <trkpt lat="42.8457660" lon="1.6005910">
        <ele>481.8</ele>
        <time>2020-07-29T13:10:09Z</time>
      </trkpt>
      <trkpt lat="42.8456390" lon="1.6006930">
        <ele>482.4</ele>
        <time>2020-07-29T13:10:12Z</time>
      </trkpt>
      <trkpt lat="42.8455960" lon="1.6007260">
        <ele>482.6</ele>
        <time>2020-07-29T13:10:13Z</time>
      </trkpt>
      <trkpt lat="42.8455000" lon="1.6007720">
        <ele>483.0</ele>
        <time>2020-07-29T13:10:15Z</time>
      </trkpt>
      <trkpt lat="42.8453950" lon="1.6007940">
        <ele>483.3</ele>
        <time>2020-07-29T13:10:17Z</time>
      </trkpt>
      <trkpt lat="42.8452430" lon="1.6007440">
        <ele>483.4</ele>
        <time>2020-07-29T13:10:20Z</time>
      </trkpt>
      <trkpt lat="42.8451040" lon="1.6008380">
        <ele>483.4</ele>
        <time>2020-07-29T13:10:23Z</time>
      </trkpt>
      <trkpt lat="42.8450560" lon="1.6009860">
        <ele>483.3</ele>
        <time>2020-07-29T13:10:25Z</time>
      </trkpt>
      <trkpt lat="42.8450300" lon="1.6010640">
        <ele>483.0</ele>
        <time>2020-07-29T13:10:26Z</time>
      </trkpt>
      <trkpt lat="42.8450020" lon="1.6011440">
        <ele>482.8</ele>
        <time>2020-07-29T13:10:27Z</time>
      </trkpt>
      <trkpt lat="42.8449690" lon="1.6012220">
        <ele>482.7</ele>
        <time>2020-07-29T13:10:28Z</time>
      </trkpt>
      <trkpt lat="42.8448740" lon="1.6013560">
        <ele>482.3</ele>
        <time>2020-07-29T13:10:30Z</time>
      </trkpt>
      <trkpt lat="42.8445550" lon="1.6015890">
        <ele>481.4</ele>
        <time>2020-07-29T13:10:35Z</time>
      </trkpt>
      <trkpt lat="42.8441960" lon="1.6017690">
        <ele>480.6</ele>
        <time>2020-07-29T13:10:40Z</time>
      </trkpt>
      <trkpt lat="42.8440480" lon="1.6018290">
        <ele>480.4</ele>
        <time>2020-07-29T13:10:42Z</time>
      </trkpt>
      <trkpt lat="42.8439070" lon="1.6018760">
        <ele>480.2</ele>
        <time>2020-07-29T13:10:44Z</time>
      </trkpt>
      <trkpt lat="42.8437220" lon="1.6019060">
        <ele>480.0</ele>
        <time>2020-07-29T13:10:47Z</time>
      </trkpt>
      <trkpt lat="42.8434730" lon="1.6019510">
        <ele>480.0</ele>
        <time>2020-07-29T13:10:52Z</time>
      </trkpt>
      <trkpt lat="42.8433680" lon="1.6019690">
        <ele>480.1</ele>
        <time>2020-07-29T13:10:54Z</time>
      </trkpt>
      <trkpt lat="42.8430370" lon="1.6020300">
        <ele>480.2</ele>
        <time>2020-07-29T13:11:00Z</time>
      </trkpt>
      <trkpt lat="42.8429150" lon="1.6020510">
        <ele>480.3</ele>
        <time>2020-07-29T13:11:02Z</time>
      </trkpt>
      <trkpt lat="42.8423290" lon="1.6021600">
        <ele>480.8</ele>
        <time>2020-07-29T13:11:11Z</time>
      </trkpt>
      <trkpt lat="42.8417440" lon="1.6022670">
        <ele>481.4</ele>
        <time>2020-07-29T13:11:20Z</time>
      </trkpt>
      <trkpt lat="42.8412390" lon="1.6023640">
        <ele>482.2</ele>
        <time>2020-07-29T13:11:28Z</time>
      </trkpt>
      <trkpt lat="42.8407410" lon="1.6024500">
        <ele>483.0</ele>
        <time>2020-07-29T13:11:36Z</time>
      </trkpt>
      <trkpt lat="42.8405610" lon="1.6024780">
        <ele>483.3</ele>
        <time>2020-07-29T13:11:39Z</time>
      </trkpt>
      <trkpt lat="42.8402100" lon="1.6025390">
        <ele>483.7</ele>
        <time>2020-07-29T13:11:45Z</time>
      </trkpt>
      <trkpt lat="42.8396180" lon="1.6026590">
        <ele>484.5</ele>
        <time>2020-07-29T13:11:55Z</time>
      </trkpt>
      <trkpt lat="42.8395580" lon="1.6026710">
        <ele>484.6</ele>
        <time>2020-07-29T13:11:56Z</time>
      </trkpt>
      <trkpt lat="42.8391070" lon="1.6027630">
        <ele>485.6</ele>
        <time>2020-07-29T13:12:04Z</time>
      </trkpt>
      <trkpt lat="42.8390550" lon="1.6027820">
        <ele>485.7</ele>
        <time>2020-07-29T13:12:05Z</time>
      </trkpt>
      <trkpt lat="42.8390060" lon="1.6028070">
        <ele>485.9</ele>
        <time>2020-07-29T13:12:06Z</time>
      </trkpt>
      <trkpt lat="42.8388610" lon="1.6029170">
        <ele>486.2</ele>
        <time>2020-07-29T13:12:09Z</time>
      </trkpt>
      <trkpt lat="42.8386270" lon="1.6031450">
        <ele>487.1</ele>
        <time>2020-07-29T13:12:14Z</time>
      </trkpt>
      <trkpt lat="42.8385370" lon="1.6032350">
        <ele>487.5</ele>
        <time>2020-07-29T13:12:16Z</time>
      </trkpt>
      <trkpt lat="42.8384040" lon="1.6033730">
        <ele>487.9</ele>
        <time>2020-07-29T13:12:19Z</time>
      </trkpt>
      <trkpt lat="42.8380690" lon="1.6037120">
        <ele>488.7</ele>
        <time>2020-07-29T13:12:26Z</time>
      </trkpt>
      <trkpt lat="42.8379770" lon="1.6038310">
        <ele>489.0</ele>
        <time>2020-07-29T13:12:28Z</time>
      </trkpt>
      <trkpt lat="42.8378900" lon="1.6039560">
        <ele>489.4</ele>
        <time>2020-07-29T13:12:30Z</time>
      </trkpt>
      <trkpt lat="42.8378430" lon="1.6040070">
        <ele>489.6</ele>
        <time>2020-07-29T13:12:31Z</time>
      </trkpt>
      <trkpt lat="42.8376940" lon="1.6041140">
        <ele>490.1</ele>
        <time>2020-07-29T13:12:34Z</time>
      </trkpt>
      <trkpt lat="42.8376540" lon="1.6041710">
        <ele>490.2</ele>
        <time>2020-07-29T13:12:35Z</time>
      </trkpt>
      <trkpt lat="42.8376150" lon="1.6044270">
        <ele>490.3</ele>
        <time>2020-07-29T13:12:38Z</time>
      </trkpt>
      <trkpt lat="42.8376060" lon="1.6045190">
        <ele>490.3</ele>
        <time>2020-07-29T13:12:39Z</time>
      </trkpt>
      <trkpt lat="42.8375480" lon="1.6046870">
        <ele>490.3</ele>
        <time>2020-07-29T13:12:41Z</time>
      </trkpt>
      <trkpt lat="42.8373090" lon="1.6051950">
        <ele>490.8</ele>
        <time>2020-07-29T13:12:48Z</time>
      </trkpt>
      <trkpt lat="42.8370870" lon="1.6055160">
        <ele>491.3</ele>
        <time>2020-07-29T13:12:54Z</time>
      </trkpt>
      <trkpt lat="42.8360700" lon="1.6063160">
        <ele>492.3</ele>
        <time>2020-07-29T13:14:47Z</time>
      </trkpt>
      <trkpt lat="42.8358330" lon="1.6065280">
        <ele>492.7</ele>
        <time>2020-07-29T13:14:52Z</time>
      </trkpt>
      <trkpt lat="42.8354390" lon="1.6067930">
        <ele>493.0</ele>
        <time>2020-07-29T13:14:59Z</time>
      </trkpt>
      <trkpt lat="42.8349730" lon="1.6070820">
        <ele>494.5</ele>
        <time>2020-07-29T13:15:08Z</time>
      </trkpt>
      <trkpt lat="42.8346240" lon="1.6071700">
        <ele>495.5</ele>
        <time>2020-07-29T13:15:15Z</time>
      </trkpt>
      <trkpt lat="42.8344660" lon="1.6072010">
        <ele>495.9</ele>
        <time>2020-07-29T13:15:18Z</time>
      </trkpt>
      <trkpt lat="42.8341940" lon="1.6072620">
        <ele>496.4</ele>
        <time>2020-07-29T13:15:23Z</time>
      </trkpt>
      <trkpt lat="42.8340840" lon="1.6072960">
        <ele>496.5</ele>
        <time>2020-07-29T13:15:25Z</time>
      </trkpt>
      <trkpt lat="42.8336500" lon="1.6074880">
        <ele>496.9</ele>
        <time>2020-07-29T13:15:33Z</time>
      </trkpt>
      <trkpt lat="42.8332010" lon="1.6077610">
        <ele>495.6</ele>
        <time>2020-07-29T13:15:40Z</time>
      </trkpt>
      <trkpt lat="42.8326760" lon="1.6080950">
        <ele>493.4</ele>
        <time>2020-07-29T13:15:47Z</time>
      </trkpt>
      <trkpt lat="42.8325130" lon="1.6082090">
        <ele>492.6</ele>
        <time>2020-07-29T13:15:49Z</time>
      </trkpt>
      <trkpt lat="42.8321840" lon="1.6084660">
        <ele>491.2</ele>
        <time>2020-07-29T13:15:53Z</time>
      </trkpt>
      <trkpt lat="42.8321060" lon="1.6085460">
        <ele>490.8</ele>
        <time>2020-07-29T13:15:54Z</time>
      </trkpt>
      <trkpt lat="42.8318690" lon="1.6087940">
        <ele>489.6</ele>
        <time>2020-07-29T13:15:57Z</time>
      </trkpt>
      <trkpt lat="42.8316320" lon="1.6090540">
        <ele>488.6</ele>
        <time>2020-07-29T13:16:00Z</time>
      </trkpt>
      <trkpt lat="42.8313950" lon="1.6093240">
        <ele>487.8</ele>
        <time>2020-07-29T13:16:03Z</time>
      </trkpt>
      <trkpt lat="42.8311560" lon="1.6095920">
        <ele>487.0</ele>
        <time>2020-07-29T13:16:06Z</time>
      </trkpt>
      <trkpt lat="42.8309170" lon="1.6098660">
        <ele>486.3</ele>
        <time>2020-07-29T13:16:09Z</time>
      </trkpt>
      <trkpt lat="42.8308420" lon="1.6099580">
        <ele>486.1</ele>
        <time>2020-07-29T13:16:10Z</time>
      </trkpt>
      <trkpt lat="42.8306400" lon="1.6102510">
        <ele>485.4</ele>
        <time>2020-07-29T13:16:13Z</time>
      </trkpt>
      <trkpt lat="42.8305160" lon="1.6104590">
        <ele>484.9</ele>
        <time>2020-07-29T13:16:15Z</time>
      </trkpt>
      <trkpt lat="42.8301500" lon="1.6110970">
        <ele>484.4</ele>
        <time>2020-07-29T13:16:21Z</time>
      </trkpt>
      <trkpt lat="42.8299830" lon="1.6113960">
        <ele>484.3</ele>
        <time>2020-07-29T13:16:24Z</time>
      </trkpt>
      <trkpt lat="42.8298170" lon="1.6116740">
        <ele>484.3</ele>
        <time>2020-07-29T13:16:27Z</time>
      </trkpt>
      <trkpt lat="42.8296060" lon="1.6120270">
        <ele>484.3</ele>
        <time>2020-07-29T13:16:31Z</time>
      </trkpt>
      <trkpt lat="42.8292450" lon="1.6126230">
        <ele>484.2</ele>
        <time>2020-07-29T13:16:38Z</time>
      </trkpt>
      <trkpt lat="42.8289980" lon="1.6130430">
        <ele>484.1</ele>
        <time>2020-07-29T13:16:43Z</time>
      </trkpt>
      <trkpt lat="42.8286470" lon="1.6136310">
        <ele>483.6</ele>
        <time>2020-07-29T13:16:50Z</time>
      </trkpt>
      <trkpt lat="42.8284380" lon="1.6139760">
        <ele>483.4</ele>
        <time>2020-07-29T13:16:54Z</time>
      </trkpt>
      <trkpt lat="42.8280790" lon="1.6145770">
        <ele>483.4</ele>
        <time>2020-07-29T13:17:01Z</time>
      </trkpt>
      <trkpt lat="42.8280270" lon="1.6146600">
        <ele>483.4</ele>
        <time>2020-07-29T13:17:02Z</time>
      </trkpt>
      <trkpt lat="42.8276600" lon="1.6152210">
        <ele>483.6</ele>
        <time>2020-07-29T13:17:09Z</time>
      </trkpt>
      <trkpt lat="42.8276070" lon="1.6152980">
        <ele>483.6</ele>
        <time>2020-07-29T13:17:10Z</time>
      </trkpt>
      <trkpt lat="42.8272300" lon="1.6158260">
        <ele>483.8</ele>
        <time>2020-07-29T13:17:17Z</time>
      </trkpt>
      <trkpt lat="42.8270610" lon="1.6160490">
        <ele>484.0</ele>
        <time>2020-07-29T13:17:20Z</time>
      </trkpt>
      <trkpt lat="42.8266620" lon="1.6165760">
        <ele>483.9</ele>
        <time>2020-07-29T13:17:27Z</time>
      </trkpt>
      <trkpt lat="42.8265550" lon="1.6167280">
        <ele>483.7</ele>
        <time>2020-07-29T13:17:29Z</time>
      </trkpt>
      <trkpt lat="42.8261330" lon="1.6172990">
        <ele>483.6</ele>
        <time>2020-07-29T13:17:37Z</time>
      </trkpt>
      <trkpt lat="42.8257270" lon="1.6177010">
        <ele>483.9</ele>
        <time>2020-07-29T13:17:44Z</time>
      </trkpt>
      <trkpt lat="42.8252750" lon="1.6180660">
        <ele>484.5</ele>
        <time>2020-07-29T13:17:51Z</time>
      </trkpt>
      <trkpt lat="42.8252110" lon="1.6181120">
        <ele>484.6</ele>
        <time>2020-07-29T13:17:52Z</time>
      </trkpt>
      <trkpt lat="42.8247040" lon="1.6184910">
        <ele>485.3</ele>
        <time>2020-07-29T13:18:00Z</time>
      </trkpt>
      <trkpt lat="42.8246420" lon="1.6185360">
        <ele>485.4</ele>
        <time>2020-07-29T13:18:01Z</time>
      </trkpt>
      <trkpt lat="42.8241480" lon="1.6189060">
        <ele>486.5</ele>
        <time>2020-07-29T13:18:09Z</time>
      </trkpt>
      <trkpt lat="42.8240240" lon="1.6190030">
        <ele>486.9</ele>
        <time>2020-07-29T13:18:11Z</time>
      </trkpt>
      <trkpt lat="42.8235310" lon="1.6193880">
        <ele>487.1</ele>
        <time>2020-07-29T13:18:19Z</time>
      </trkpt>
      <trkpt lat="42.8233480" lon="1.6195230">
        <ele>487.1</ele>
        <time>2020-07-29T13:18:22Z</time>
      </trkpt>
      <trkpt lat="42.8228620" lon="1.6198910">
        <ele>487.2</ele>
        <time>2020-07-29T13:18:30Z</time>
      </trkpt>
      <trkpt lat="42.8228000" lon="1.6199360">
        <ele>487.2</ele>
        <time>2020-07-29T13:18:31Z</time>
      </trkpt>
      <trkpt lat="42.8227370" lon="1.6199810">
        <ele>487.2</ele>
        <time>2020-07-29T13:18:32Z</time>
      </trkpt>
      <trkpt lat="42.8222340" lon="1.6203390">
        <ele>487.2</ele>
        <time>2020-07-29T13:18:40Z</time>
      </trkpt>
      <trkpt lat="42.8220450" lon="1.6204790">
        <ele>487.2</ele>
        <time>2020-07-29T13:18:43Z</time>
      </trkpt>
      <trkpt lat="42.8215530" lon="1.6208440">
        <ele>487.8</ele>
        <time>2020-07-29T13:18:51Z</time>
      </trkpt>
      <trkpt lat="42.8213170" lon="1.6210200">
        <ele>488.1</ele>
        <time>2020-07-29T13:18:55Z</time>
      </trkpt>
      <trkpt lat="42.8207720" lon="1.6213870">
        <ele>487.9</ele>
        <time>2020-07-29T13:19:04Z</time>
      </trkpt>
      <trkpt lat="42.8202590" lon="1.6216470">
        <ele>488.4</ele>
        <time>2020-07-29T13:19:12Z</time>
      </trkpt>
      <trkpt lat="42.8201970" lon="1.6216790">
        <ele>488.5</ele>
        <time>2020-07-29T13:19:13Z</time>
      </trkpt>
      <trkpt lat="42.8197250" lon="1.6219900">
        <ele>490.0</ele>
        <time>2020-07-29T13:19:21Z</time>
      </trkpt>
      <trkpt lat="42.8194010" lon="1.6222690">
        <ele>490.4</ele>
        <time>2020-07-29T13:19:27Z</time>
      </trkpt>
      <trkpt lat="42.8192420" lon="1.6224180">
        <ele>490.5</ele>
        <time>2020-07-29T13:19:30Z</time>
      </trkpt>
      <trkpt lat="42.8187770" lon="1.6229470">
        <ele>490.5</ele>
        <time>2020-07-29T13:19:39Z</time>
      </trkpt>
      <trkpt lat="42.8184050" lon="1.6235100">
        <ele>490.6</ele>
        <time>2020-07-29T13:19:47Z</time>
      </trkpt>
      <trkpt lat="42.8183620" lon="1.6235820">
        <ele>490.6</ele>
        <time>2020-07-29T13:19:48Z</time>
      </trkpt>
      <trkpt lat="42.8180350" lon="1.6242250">
        <ele>490.5</ele>
        <time>2020-07-29T13:19:56Z</time>
      </trkpt>
      <trkpt lat="42.8179560" lon="1.6243910">
        <ele>490.5</ele>
        <time>2020-07-29T13:19:58Z</time>
      </trkpt>
      <trkpt lat="42.8176360" lon="1.6250530">
        <ele>490.7</ele>
        <time>2020-07-29T13:20:06Z</time>
      </trkpt>
      <trkpt lat="42.8175960" lon="1.6251350">
        <ele>490.7</ele>
        <time>2020-07-29T13:20:07Z</time>
      </trkpt>
      <trkpt lat="42.8172890" lon="1.6257740">
        <ele>491.0</ele>
        <time>2020-07-29T13:20:15Z</time>
      </trkpt>
      <trkpt lat="42.8172530" lon="1.6258520">
        <ele>491.0</ele>
        <time>2020-07-29T13:20:16Z</time>
      </trkpt>
      <trkpt lat="42.8169420" lon="1.6264940">
        <ele>491.2</ele>
        <time>2020-07-29T13:20:24Z</time>
      </trkpt>
      <trkpt lat="42.8169050" lon="1.6265770">
        <ele>491.2</ele>
        <time>2020-07-29T13:20:25Z</time>
      </trkpt>
      <trkpt lat="42.8165960" lon="1.6272210">
        <ele>491.4</ele>
        <time>2020-07-29T13:20:33Z</time>
      </trkpt>
      <trkpt lat="42.8163880" lon="1.6276240">
        <ele>491.4</ele>
        <time>2020-07-29T13:20:38Z</time>
      </trkpt>
      <trkpt lat="42.8162660" lon="1.6278590">
        <ele>491.5</ele>
        <time>2020-07-29T13:20:41Z</time>
      </trkpt>
      <trkpt lat="42.8159380" lon="1.6284950">
        <ele>492.0</ele>
        <time>2020-07-29T13:20:49Z</time>
      </trkpt>
      <trkpt lat="42.8158130" lon="1.6287320">
        <ele>492.0</ele>
        <time>2020-07-29T13:20:52Z</time>
      </trkpt>
      <trkpt lat="42.8154710" lon="1.6293860">
        <ele>491.9</ele>
        <time>2020-07-29T13:21:00Z</time>
      </trkpt>
      <trkpt lat="42.8154270" lon="1.6294680">
        <ele>491.9</ele>
        <time>2020-07-29T13:21:01Z</time>
      </trkpt>
      <trkpt lat="42.8150830" lon="1.6301270">
        <ele>492.1</ele>
        <time>2020-07-29T13:21:09Z</time>
      </trkpt>
      <trkpt lat="42.8150410" lon="1.6302080">
        <ele>492.1</ele>
        <time>2020-07-29T13:21:10Z</time>
      </trkpt>
      <trkpt lat="42.8147070" lon="1.6308480">
        <ele>492.1</ele>
        <time>2020-07-29T13:21:18Z</time>
      </trkpt>
      <trkpt lat="42.8144600" lon="1.6313180">
        <ele>492.2</ele>
        <time>2020-07-29T13:21:24Z</time>
      </trkpt>
      <trkpt lat="42.8141340" lon="1.6319440">
        <ele>492.5</ele>
        <time>2020-07-29T13:21:32Z</time>
      </trkpt>
      <trkpt lat="42.8139320" lon="1.6323270">
        <ele>493.5</ele>
        <time>2020-07-29T13:21:37Z</time>
      </trkpt>
      <trkpt lat="42.8136020" lon="1.6329290">
        <ele>494.2</ele>
        <time>2020-07-29T13:21:45Z</time>
      </trkpt>
      <trkpt lat="42.8135190" lon="1.6330820">
        <ele>494.4</ele>
        <time>2020-07-29T13:21:47Z</time>
      </trkpt>
      <trkpt lat="42.8134350" lon="1.6332360">
        <ele>494.6</ele>
        <time>2020-07-29T13:21:49Z</time>
      </trkpt>
      <trkpt lat="42.8131330" lon="1.6337890">
        <ele>495.1</ele>
        <time>2020-07-29T13:21:56Z</time>
      </trkpt>
      <trkpt lat="42.8130450" lon="1.6339520">
        <ele>495.2</ele>
        <time>2020-07-29T13:21:58Z</time>
      </trkpt>
      <trkpt lat="42.8127750" lon="1.6344420">
        <ele>495.4</ele>
        <time>2020-07-29T13:22:04Z</time>
      </trkpt>
      <trkpt lat="42.8124450" lon="1.6350450">
        <ele>495.7</ele>
        <time>2020-07-29T13:22:11Z</time>
      </trkpt>
      <trkpt lat="42.8123960" lon="1.6351310">
        <ele>495.7</ele>
        <time>2020-07-29T13:22:12Z</time>
      </trkpt>
      <trkpt lat="42.8120520" lon="1.6357650">
        <ele>496.1</ele>
        <time>2020-07-29T13:22:19Z</time>
      </trkpt>
      <trkpt lat="42.8119040" lon="1.6360350">
        <ele>496.2</ele>
        <time>2020-07-29T13:22:22Z</time>
      </trkpt>
      <trkpt lat="42.8115520" lon="1.6366480">
        <ele>496.6</ele>
        <time>2020-07-29T13:22:29Z</time>
      </trkpt>
      <trkpt lat="42.8112110" lon="1.6372610">
        <ele>497.4</ele>
        <time>2020-07-29T13:22:36Z</time>
      </trkpt>
      <trkpt lat="42.8111630" lon="1.6373500">
        <ele>497.5</ele>
        <time>2020-07-29T13:22:37Z</time>
      </trkpt>
      <trkpt lat="42.8108790" lon="1.6378790">
        <ele>498.7</ele>
        <time>2020-07-29T13:22:43Z</time>
      </trkpt>
      <trkpt lat="42.8106950" lon="1.6382100">
        <ele>499.6</ele>
        <time>2020-07-29T13:22:47Z</time>
      </trkpt>
      <trkpt lat="42.8106510" lon="1.6382900">
        <ele>499.8</ele>
        <time>2020-07-29T13:22:48Z</time>
      </trkpt>
      <trkpt lat="42.8103960" lon="1.6387540">
        <ele>500.9</ele>
        <time>2020-07-29T13:22:54Z</time>
      </trkpt>
      <trkpt lat="42.8102750" lon="1.6389800">
        <ele>501.6</ele>
        <time>2020-07-29T13:22:57Z</time>
      </trkpt>
      <trkpt lat="42.8100300" lon="1.6394260">
        <ele>502.6</ele>
        <time>2020-07-29T13:23:03Z</time>
      </trkpt>
      <trkpt lat="42.8098620" lon="1.6397250">
        <ele>503.0</ele>
        <time>2020-07-29T13:23:07Z</time>
      </trkpt>
      <trkpt lat="42.8097340" lon="1.6399510">
        <ele>503.2</ele>
        <time>2020-07-29T13:23:10Z</time>
      </trkpt>
      <trkpt lat="42.8094940" lon="1.6403220">
        <ele>503.4</ele>
        <time>2020-07-29T13:23:15Z</time>
      </trkpt>
      <trkpt lat="42.8090940" lon="1.6408530">
        <ele>502.7</ele>
        <time>2020-07-29T13:23:22Z</time>
      </trkpt>
      <trkpt lat="42.8090340" lon="1.6409310">
        <ele>502.5</ele>
        <time>2020-07-29T13:23:23Z</time>
      </trkpt>
      <trkpt lat="42.8085790" lon="1.6415070">
        <ele>501.1</ele>
        <time>2020-07-29T13:23:30Z</time>
      </trkpt>
      <trkpt lat="42.8085110" lon="1.6415940">
        <ele>500.8</ele>
        <time>2020-07-29T13:23:31Z</time>
      </trkpt>
      <trkpt lat="42.8080760" lon="1.6421440">
        <ele>498.8</ele>
        <time>2020-07-29T13:23:37Z</time>
      </trkpt>
      <trkpt lat="42.8080010" lon="1.6422390">
        <ele>498.6</ele>
        <time>2020-07-29T13:23:38Z</time>
      </trkpt>
      <trkpt lat="42.8079240" lon="1.6423350">
        <ele>498.4</ele>
        <time>2020-07-29T13:23:39Z</time>
      </trkpt>
      <trkpt lat="42.8076140" lon="1.6427260">
        <ele>497.7</ele>
        <time>2020-07-29T13:23:43Z</time>
      </trkpt>
      <trkpt lat="42.8071560" lon="1.6433160">
        <ele>497.8</ele>
        <time>2020-07-29T13:23:49Z</time>
      </trkpt>
      <trkpt lat="42.8067180" lon="1.6438730">
        <ele>497.9</ele>
        <time>2020-07-29T13:23:55Z</time>
      </trkpt>
      <trkpt lat="42.8065080" lon="1.6441400">
        <ele>498.1</ele>
        <time>2020-07-29T13:23:58Z</time>
      </trkpt>
      <trkpt lat="42.8061050" lon="1.6446590">
        <ele>498.3</ele>
        <time>2020-07-29T13:24:04Z</time>
      </trkpt>
      <trkpt lat="42.8058510" lon="1.6449850">
        <ele>498.4</ele>
        <time>2020-07-29T13:24:08Z</time>
      </trkpt>
      <trkpt lat="42.8054140" lon="1.6455330">
        <ele>498.8</ele>
        <time>2020-07-29T13:24:15Z</time>
      </trkpt>
      <trkpt lat="42.8053530" lon="1.6456070">
        <ele>498.9</ele>
        <time>2020-07-29T13:24:16Z</time>
      </trkpt>
      <trkpt lat="42.8049550" lon="1.6461060">
        <ele>500.5</ele>
        <time>2020-07-29T13:24:23Z</time>
      </trkpt>
      <trkpt lat="42.8047160" lon="1.6464120">
        <ele>501.7</ele>
        <time>2020-07-29T13:24:28Z</time>
      </trkpt>
      <trkpt lat="42.8046280" lon="1.6465230">
        <ele>502.2</ele>
        <time>2020-07-29T13:24:30Z</time>
      </trkpt>
      <trkpt lat="42.8045460" lon="1.6466260">
        <ele>502.6</ele>
        <time>2020-07-29T13:24:32Z</time>
      </trkpt>
      <trkpt lat="42.8044230" lon="1.6467760">
        <ele>503.3</ele>
        <time>2020-07-29T13:24:35Z</time>
      </trkpt>
      <trkpt lat="42.8042590" lon="1.6469690">
        <ele>504.4</ele>
        <time>2020-07-29T13:24:39Z</time>
      </trkpt>
      <trkpt lat="42.8041040" lon="1.6471570">
        <ele>505.7</ele>
        <time>2020-07-29T13:24:43Z</time>
      </trkpt>
      <trkpt lat="42.8039890" lon="1.6472950">
        <ele>506.6</ele>
        <time>2020-07-29T13:24:46Z</time>
      </trkpt>
      <trkpt lat="42.8039130" lon="1.6473850">
        <ele>507.1</ele>
        <time>2020-07-29T13:24:48Z</time>
      </trkpt>
      <trkpt lat="42.8038070" lon="1.6475330">
        <ele>507.9</ele>
        <time>2020-07-29T13:24:51Z</time>
      </trkpt>
      <trkpt lat="42.8036670" lon="1.6477280">
        <ele>508.9</ele>
        <time>2020-07-29T13:24:55Z</time>
      </trkpt>
      <trkpt lat="42.8034800" lon="1.6479820">
        <ele>510.0</ele>
        <time>2020-07-29T13:25:00Z</time>
      </trkpt>
      <trkpt lat="42.8033570" lon="1.6481450">
        <ele>510.5</ele>
        <time>2020-07-29T13:25:03Z</time>
      </trkpt>
      <trkpt lat="42.8033150" lon="1.6482020">
        <ele>510.6</ele>
        <time>2020-07-29T13:25:04Z</time>
      </trkpt>
      <trkpt lat="42.8029760" lon="1.6486240">
        <ele>510.2</ele>
        <time>2020-07-29T13:25:11Z</time>
      </trkpt>
      <trkpt lat="42.8026010" lon="1.6490860">
        <ele>507.6</ele>
        <time>2020-07-29T13:25:17Z</time>
      </trkpt>
      <trkpt lat="42.8021410" lon="1.6496420">
        <ele>504.0</ele>
        <time>2020-07-29T13:25:23Z</time>
      </trkpt>
      <trkpt lat="42.8020580" lon="1.6497430">
        <ele>503.6</ele>
        <time>2020-07-29T13:25:24Z</time>
      </trkpt>
      <trkpt lat="42.8018070" lon="1.6500490">
        <ele>502.8</ele>
        <time>2020-07-29T13:25:27Z</time>
      </trkpt>
      <trkpt lat="42.8016390" lon="1.6502530">
        <ele>502.4</ele>
        <time>2020-07-29T13:25:29Z</time>
      </trkpt>
      <trkpt lat="42.8013940" lon="1.6505540">
        <ele>502.2</ele>
        <time>2020-07-29T13:25:32Z</time>
      </trkpt>
      <trkpt lat="42.8013130" lon="1.6506510">
        <ele>502.1</ele>
        <time>2020-07-29T13:25:33Z</time>
      </trkpt>
      <trkpt lat="42.8012350" lon="1.6507470">
        <ele>502.0</ele>
        <time>2020-07-29T13:25:34Z</time>
      </trkpt>
      <trkpt lat="42.8010200" lon="1.6510470">
        <ele>502.1</ele>
        <time>2020-07-29T13:25:37Z</time>
      </trkpt>
      <trkpt lat="42.8008950" lon="1.6512590">
        <ele>502.2</ele>
        <time>2020-07-29T13:25:39Z</time>
      </trkpt>
      <trkpt lat="42.8006090" lon="1.6519220">
        <ele>502.9</ele>
        <time>2020-07-29T13:25:45Z</time>
      </trkpt>
      <trkpt lat="42.8004370" lon="1.6526030">
        <ele>503.7</ele>
        <time>2020-07-29T13:25:51Z</time>
      </trkpt>
      <trkpt lat="42.8003880" lon="1.6531570">
        <ele>504.0</ele>
        <time>2020-07-29T13:25:56Z</time>
      </trkpt>
      <trkpt lat="42.8003770" lon="1.6533780">
        <ele>504.0</ele>
        <time>2020-07-29T13:25:58Z</time>
      </trkpt>
      <trkpt lat="42.8003130" lon="1.6538320">
        <ele>503.9</ele>
        <time>2020-07-29T13:26:02Z</time>
      </trkpt>
      <trkpt lat="42.8001520" lon="1.6543660">
        <ele>503.7</ele>
        <time>2020-07-29T13:26:07Z</time>
      </trkpt>
      <trkpt lat="42.8000200" lon="1.6550030">
        <ele>503.9</ele>
        <time>2020-07-29T13:26:13Z</time>
      </trkpt>
      <trkpt lat="42.7998920" lon="1.6557400">
        <ele>504.0</ele>
        <time>2020-07-29T13:26:20Z</time>
      </trkpt>
      <trkpt lat="42.7998610" lon="1.6559470">
        <ele>504.2</ele>
        <time>2020-07-29T13:26:22Z</time>
      </trkpt>
      <trkpt lat="42.7997420" lon="1.6567340">
        <ele>504.7</ele>
        <time>2020-07-29T13:26:30Z</time>
      </trkpt>
      <trkpt lat="42.7997280" lon="1.6568330">
        <ele>504.7</ele>
        <time>2020-07-29T13:26:31Z</time>
      </trkpt>
      <trkpt lat="42.7996360" lon="1.6574270">
        <ele>504.6</ele>
        <time>2020-07-29T13:26:37Z</time>
      </trkpt>
      <trkpt lat="42.7995750" lon="1.6578270">
        <ele>504.9</ele>
        <time>2020-07-29T13:26:41Z</time>
      </trkpt>
      <trkpt lat="42.7994650" lon="1.6585310">
        <ele>505.2</ele>
        <time>2020-07-29T13:26:48Z</time>
      </trkpt>
      <trkpt lat="42.7993840" lon="1.6592540">
        <ele>505.6</ele>
        <time>2020-07-29T13:26:55Z</time>
      </trkpt>
      <trkpt lat="42.7993030" lon="1.6598390">
        <ele>505.8</ele>
        <time>2020-07-29T13:27:01Z</time>
      </trkpt>
      <trkpt lat="42.7991840" lon="1.6606160">
        <ele>506.8</ele>
        <time>2020-07-29T13:27:09Z</time>
      </trkpt>
      <trkpt lat="42.7991520" lon="1.6608060">
        <ele>507.1</ele>
        <time>2020-07-29T13:27:11Z</time>
      </trkpt>
      <trkpt lat="42.7990220" lon="1.6615540">
        <ele>507.4</ele>
        <time>2020-07-29T13:27:19Z</time>
      </trkpt>
      <trkpt lat="42.7989890" lon="1.6617360">
        <ele>507.5</ele>
        <time>2020-07-29T13:27:21Z</time>
      </trkpt>
      <trkpt lat="42.7988480" lon="1.6624300">
        <ele>507.8</ele>
        <time>2020-07-29T13:27:29Z</time>
      </trkpt>
      <trkpt lat="42.7988270" lon="1.6625140">
        <ele>507.8</ele>
        <time>2020-07-29T13:27:30Z</time>
      </trkpt>
      <trkpt lat="42.7986830" lon="1.6631830">
        <ele>508.4</ele>
        <time>2020-07-29T13:27:38Z</time>
      </trkpt>
      <trkpt lat="42.7986020" lon="1.6635050">
        <ele>508.6</ele>
        <time>2020-07-29T13:27:42Z</time>
      </trkpt>
      <trkpt lat="42.7985270" lon="1.6638440">
        <ele>508.8</ele>
        <time>2020-07-29T13:27:46Z</time>
      </trkpt>
      <trkpt lat="42.7985100" lon="1.6639320">
        <ele>508.8</ele>
        <time>2020-07-29T13:27:47Z</time>
      </trkpt>
      <trkpt lat="42.7983690" lon="1.6646480">
        <ele>509.2</ele>
        <time>2020-07-29T13:27:55Z</time>
      </trkpt>
      <trkpt lat="42.7983330" lon="1.6648310">
        <ele>509.3</ele>
        <time>2020-07-29T13:27:57Z</time>
      </trkpt>
      <trkpt lat="42.7981900" lon="1.6655710">
        <ele>509.3</ele>
        <time>2020-07-29T13:28:05Z</time>
      </trkpt>
      <trkpt lat="42.7981710" lon="1.6656650">
        <ele>509.4</ele>
        <time>2020-07-29T13:28:06Z</time>
      </trkpt>
      <trkpt lat="42.7980230" lon="1.6664340">
        <ele>510.0</ele>
        <time>2020-07-29T13:28:14Z</time>
      </trkpt>
      <trkpt lat="42.7979670" lon="1.6667220">
        <ele>510.4</ele>
        <time>2020-07-29T13:28:17Z</time>
      </trkpt>
      <trkpt lat="42.7978220" lon="1.6674720">
        <ele>511.5</ele>
        <time>2020-07-29T13:28:25Z</time>
      </trkpt>
      <trkpt lat="42.7977750" lon="1.6676520">
        <ele>511.7</ele>
        <time>2020-07-29T13:28:27Z</time>
      </trkpt>
      <trkpt lat="42.7977250" lon="1.6678300">
        <ele>511.9</ele>
        <time>2020-07-29T13:28:29Z</time>
      </trkpt>
      <trkpt lat="42.7975550" lon="1.6683590">
        <ele>512.3</ele>
        <time>2020-07-29T13:28:35Z</time>
      </trkpt>
      <trkpt lat="42.7973880" lon="1.6687980">
        <ele>512.1</ele>
        <time>2020-07-29T13:28:40Z</time>
      </trkpt>
      <trkpt lat="42.7971640" lon="1.6692790">
        <ele>512.4</ele>
        <time>2020-07-29T13:28:46Z</time>
      </trkpt>
      <trkpt lat="42.7968750" lon="1.6699360">
        <ele>512.8</ele>
        <time>2020-07-29T13:28:54Z</time>
      </trkpt>
      <trkpt lat="42.7968400" lon="1.6700140">
        <ele>512.8</ele>
        <time>2020-07-29T13:28:55Z</time>
      </trkpt>
      <trkpt lat="42.7965510" lon="1.6706550">
        <ele>513.4</ele>
        <time>2020-07-29T13:29:03Z</time>
      </trkpt>
      <trkpt lat="42.7965130" lon="1.6707330">
        <ele>513.5</ele>
        <time>2020-07-29T13:29:04Z</time>
      </trkpt>
      <trkpt lat="42.7963630" lon="1.6710450">
        <ele>513.8</ele>
        <time>2020-07-29T13:29:08Z</time>
      </trkpt>
      <trkpt lat="42.7961220" lon="1.6714870">
        <ele>514.5</ele>
        <time>2020-07-29T13:29:14Z</time>
      </trkpt>
      <trkpt lat="42.7959990" lon="1.6716990">
        <ele>515.0</ele>
        <time>2020-07-29T13:29:17Z</time>
      </trkpt>
      <trkpt lat="42.7956910" lon="1.6722450">
        <ele>516.0</ele>
        <time>2020-07-29T13:29:25Z</time>
      </trkpt>
      <trkpt lat="42.7954770" lon="1.6726570">
        <ele>516.6</ele>
        <time>2020-07-29T13:29:31Z</time>
      </trkpt>
      <trkpt lat="42.7952350" lon="1.6731550">
        <ele>517.2</ele>
        <time>2020-07-29T13:29:38Z</time>
      </trkpt>
      <trkpt lat="42.7949210" lon="1.6738460">
        <ele>517.5</ele>
        <time>2020-07-29T13:29:47Z</time>
      </trkpt>
      <trkpt lat="42.7948570" lon="1.6740050">
        <ele>517.6</ele>
        <time>2020-07-29T13:29:49Z</time>
      </trkpt>
      <trkpt lat="42.7946300" lon="1.6746720">
        <ele>518.3</ele>
        <time>2020-07-29T13:29:57Z</time>
      </trkpt>
      <trkpt lat="42.7946060" lon="1.6747600">
        <ele>518.3</ele>
        <time>2020-07-29T13:29:58Z</time>
      </trkpt>
      <trkpt lat="42.7944650" lon="1.6753880">
        <ele>519.1</ele>
        <time>2020-07-29T13:30:05Z</time>
      </trkpt>
      <trkpt lat="42.7944270" lon="1.6755660">
        <ele>519.1</ele>
        <time>2020-07-29T13:30:07Z</time>
      </trkpt>
      <trkpt lat="42.7943060" lon="1.6761890">
        <ele>519.3</ele>
        <time>2020-07-29T13:30:14Z</time>
      </trkpt>
      <trkpt lat="42.7942340" lon="1.6766260">
        <ele>520.0</ele>
        <time>2020-07-29T13:30:19Z</time>
      </trkpt>
      <trkpt lat="42.7942190" lon="1.6767150">
        <ele>520.1</ele>
        <time>2020-07-29T13:30:20Z</time>
      </trkpt>
      <trkpt lat="42.7941570" lon="1.6770720">
        <ele>520.7</ele>
        <time>2020-07-29T13:30:24Z</time>
      </trkpt>
      <trkpt lat="42.7940730" lon="1.6775170">
        <ele>521.3</ele>
        <time>2020-07-29T13:30:29Z</time>
      </trkpt>
      <trkpt lat="42.7940000" lon="1.6778520">
        <ele>521.7</ele>
        <time>2020-07-29T13:30:33Z</time>
      </trkpt>
      <trkpt lat="42.7939280" lon="1.6781790">
        <ele>522.3</ele>
        <time>2020-07-29T13:30:37Z</time>
      </trkpt>
      <trkpt lat="42.7938610" lon="1.6784250">
        <ele>522.7</ele>
        <time>2020-07-29T13:30:40Z</time>
      </trkpt>
      <trkpt lat="42.7937640" lon="1.6787480">
        <ele>523.2</ele>
        <time>2020-07-29T13:30:44Z</time>
      </trkpt>
      <trkpt lat="42.7935610" lon="1.6792950">
        <ele>524.0</ele>
        <time>2020-07-29T13:30:51Z</time>
      </trkpt>
      <trkpt lat="42.7932790" lon="1.6798950">
        <ele>524.9</ele>
        <time>2020-07-29T13:30:59Z</time>
      </trkpt>
      <trkpt lat="42.7931200" lon="1.6801890">
        <ele>525.5</ele>
        <time>2020-07-29T13:31:03Z</time>
      </trkpt>
      <trkpt lat="42.7929130" lon="1.6805510">
        <ele>526.1</ele>
        <time>2020-07-29T13:31:08Z</time>
      </trkpt>
      <trkpt lat="42.7928290" lon="1.6806920">
        <ele>526.4</ele>
        <time>2020-07-29T13:31:10Z</time>
      </trkpt>
      <trkpt lat="42.7926630" lon="1.6809660">
        <ele>527.1</ele>
        <time>2020-07-29T13:31:14Z</time>
      </trkpt>
      <trkpt lat="42.7923280" lon="1.6815120">
        <ele>527.9</ele>
        <time>2020-07-29T13:31:22Z</time>
      </trkpt>
      <trkpt lat="42.7922860" lon="1.6815810">
        <ele>528.1</ele>
        <time>2020-07-29T13:31:23Z</time>
      </trkpt>
      <trkpt lat="42.7920390" lon="1.6819890">
        <ele>528.9</ele>
        <time>2020-07-29T13:31:29Z</time>
      </trkpt>
      <trkpt lat="42.7919110" lon="1.6821920">
        <ele>529.2</ele>
        <time>2020-07-29T13:31:32Z</time>
      </trkpt>
      <trkpt lat="42.7915670" lon="1.6827280">
        <ele>530.2</ele>
        <time>2020-07-29T13:31:40Z</time>
      </trkpt>
      <trkpt lat="42.7914390" lon="1.6829310">
        <ele>530.5</ele>
        <time>2020-07-29T13:31:43Z</time>
      </trkpt>
      <trkpt lat="42.7912270" lon="1.6832910">
        <ele>531.0</ele>
        <time>2020-07-29T13:31:48Z</time>
      </trkpt>
      <trkpt lat="42.7911390" lon="1.6834390">
        <ele>531.2</ele>
        <time>2020-07-29T13:31:50Z</time>
      </trkpt>
      <trkpt lat="42.7908900" lon="1.6839230">
        <ele>531.7</ele>
        <time>2020-07-29T13:31:56Z</time>
      </trkpt>
      <trkpt lat="42.7906990" lon="1.6843460">
        <ele>532.0</ele>
        <time>2020-07-29T13:32:01Z</time>
      </trkpt>
      <trkpt lat="42.7905970" lon="1.6846050">
        <ele>532.0</ele>
        <time>2020-07-29T13:32:04Z</time>
      </trkpt>
      <trkpt lat="42.7903500" lon="1.6853180">
        <ele>532.3</ele>
        <time>2020-07-29T13:32:12Z</time>
      </trkpt>
      <trkpt lat="42.7903220" lon="1.6854120">
        <ele>532.3</ele>
        <time>2020-07-29T13:32:13Z</time>
      </trkpt>
      <trkpt lat="42.7901370" lon="1.6861970">
        <ele>532.1</ele>
        <time>2020-07-29T13:32:21Z</time>
      </trkpt>
      <trkpt lat="42.7901160" lon="1.6862950">
        <ele>532.1</ele>
        <time>2020-07-29T13:32:22Z</time>
      </trkpt>
      <trkpt lat="42.7899770" lon="1.6870120">
        <ele>531.9</ele>
        <time>2020-07-29T13:32:29Z</time>
      </trkpt>
      <trkpt lat="42.7899180" lon="1.6873300">
        <ele>531.7</ele>
        <time>2020-07-29T13:32:32Z</time>
      </trkpt>
      <trkpt lat="42.7897760" lon="1.6880650">
        <ele>531.3</ele>
        <time>2020-07-29T13:32:39Z</time>
      </trkpt>
      <trkpt lat="42.7897330" lon="1.6882810">
        <ele>531.2</ele>
        <time>2020-07-29T13:32:41Z</time>
      </trkpt>
      <trkpt lat="42.7895550" lon="1.6890540">
        <ele>530.8</ele>
        <time>2020-07-29T13:32:48Z</time>
      </trkpt>
      <trkpt lat="42.7895230" lon="1.6891640">
        <ele>530.7</ele>
        <time>2020-07-29T13:32:49Z</time>
      </trkpt>
      <trkpt lat="42.7892470" lon="1.6898990">
        <ele>530.2</ele>
        <time>2020-07-29T13:32:56Z</time>
      </trkpt>
      <trkpt lat="42.7888950" lon="1.6905730">
        <ele>529.9</ele>
        <time>2020-07-29T13:33:03Z</time>
      </trkpt>
      <trkpt lat="42.7884800" lon="1.6911260">
        <ele>529.6</ele>
        <time>2020-07-29T13:33:10Z</time>
      </trkpt>
      <trkpt lat="42.7880950" lon="1.6916460">
        <ele>529.9</ele>
        <time>2020-07-29T13:33:17Z</time>
      </trkpt>
      <trkpt lat="42.7877410" lon="1.6921560">
        <ele>530.8</ele>
        <time>2020-07-29T13:33:24Z</time>
      </trkpt>
      <trkpt lat="42.7874060" lon="1.6926550">
        <ele>532.5</ele>
        <time>2020-07-29T13:33:31Z</time>
      </trkpt>
      <trkpt lat="42.7872690" lon="1.6928520">
        <ele>533.2</ele>
        <time>2020-07-29T13:33:34Z</time>
      </trkpt>
      <trkpt lat="42.7870410" lon="1.6931480">
        <ele>534.2</ele>
        <time>2020-07-29T13:33:39Z</time>
      </trkpt>
      <trkpt lat="42.7869940" lon="1.6932060">
        <ele>534.4</ele>
        <time>2020-07-29T13:33:40Z</time>
      </trkpt>
      <trkpt lat="42.7869000" lon="1.6933130">
        <ele>534.7</ele>
        <time>2020-07-29T13:33:42Z</time>
      </trkpt>
      <trkpt lat="42.7868520" lon="1.6933620">
        <ele>534.9</ele>
        <time>2020-07-29T13:33:43Z</time>
      </trkpt>
      <trkpt lat="42.7867060" lon="1.6935100">
        <ele>535.3</ele>
        <time>2020-07-29T13:33:46Z</time>
      </trkpt>
      <trkpt lat="42.7865580" lon="1.6936420">
        <ele>535.7</ele>
        <time>2020-07-29T13:33:49Z</time>
      </trkpt>
      <trkpt lat="42.7862540" lon="1.6938980">
        <ele>536.4</ele>
        <time>2020-07-29T13:33:55Z</time>
      </trkpt>
      <trkpt lat="42.7860400" lon="1.6940410">
        <ele>536.7</ele>
        <time>2020-07-29T13:33:59Z</time>
      </trkpt>
      <trkpt lat="42.7856840" lon="1.6942460">
        <ele>537.1</ele>
        <time>2020-07-29T13:34:05Z</time>
      </trkpt>
      <trkpt lat="42.7855550" lon="1.6943030">
        <ele>537.3</ele>
        <time>2020-07-29T13:34:07Z</time>
      </trkpt>
      <trkpt lat="42.7850810" lon="1.6944600">
        <ele>537.5</ele>
        <time>2020-07-29T13:34:14Z</time>
      </trkpt>
      <trkpt lat="42.7845100" lon="1.6945550">
        <ele>537.3</ele>
        <time>2020-07-29T13:34:22Z</time>
      </trkpt>
      <trkpt lat="42.7844370" lon="1.6945650">
        <ele>537.2</ele>
        <time>2020-07-29T13:34:23Z</time>
      </trkpt>
      <trkpt lat="42.7838900" lon="1.6946070">
        <ele>536.4</ele>
        <time>2020-07-29T13:34:30Z</time>
      </trkpt>
      <trkpt lat="42.7838080" lon="1.6946100">
        <ele>536.3</ele>
        <time>2020-07-29T13:34:31Z</time>
      </trkpt>
      <trkpt lat="42.7832060" lon="1.6946690">
        <ele>535.6</ele>
        <time>2020-07-29T13:34:38Z</time>
      </trkpt>
      <trkpt lat="42.7825840" lon="1.6947900">
        <ele>535.6</ele>
        <time>2020-07-29T13:34:45Z</time>
      </trkpt>
      <trkpt lat="42.7820140" lon="1.6949480">
        <ele>536.7</ele>
        <time>2020-07-29T13:34:52Z</time>
      </trkpt>
      <trkpt lat="42.7819380" lon="1.6949710">
        <ele>537.0</ele>
        <time>2020-07-29T13:34:53Z</time>
      </trkpt>
      <trkpt lat="42.7813920" lon="1.6951360">
        <ele>539.0</ele>
        <time>2020-07-29T13:35:01Z</time>
      </trkpt>
      <trkpt lat="42.7811990" lon="1.6952000">
        <ele>540.0</ele>
        <time>2020-07-29T13:35:04Z</time>
      </trkpt>
      <trkpt lat="42.7808810" lon="1.6952960">
        <ele>541.7</ele>
        <time>2020-07-29T13:35:09Z</time>
      </trkpt>
      <trkpt lat="42.7806310" lon="1.6953650">
        <ele>542.8</ele>
        <time>2020-07-29T13:35:13Z</time>
      </trkpt>
      <trkpt lat="42.7803870" lon="1.6954340">
        <ele>543.7</ele>
        <time>2020-07-29T13:35:17Z</time>
      </trkpt>
      <trkpt lat="42.7802100" lon="1.6954860">
        <ele>544.5</ele>
        <time>2020-07-29T13:35:20Z</time>
      </trkpt>
      <trkpt lat="42.7798550" lon="1.6955780">
        <ele>546.1</ele>
        <time>2020-07-29T13:35:26Z</time>
      </trkpt>
      <trkpt lat="42.7797400" lon="1.6956090">
        <ele>546.7</ele>
        <time>2020-07-29T13:35:28Z</time>
      </trkpt>
      <trkpt lat="42.7794550" lon="1.6956880">
        <ele>548.1</ele>
        <time>2020-07-29T13:35:33Z</time>
      </trkpt>
      <trkpt lat="42.7793980" lon="1.6957040">
        <ele>548.3</ele>
        <time>2020-07-29T13:35:34Z</time>
      </trkpt>
      <trkpt lat="42.7789380" lon="1.6958230">
        <ele>550.2</ele>
        <time>2020-07-29T13:35:42Z</time>
      </trkpt>
      <trkpt lat="42.7787020" lon="1.6958890">
        <ele>550.6</ele>
        <time>2020-07-29T13:35:46Z</time>
      </trkpt>
      <trkpt lat="42.7785820" lon="1.6959050">
        <ele>550.8</ele>
        <time>2020-07-29T13:35:48Z</time>
      </trkpt>
      <trkpt lat="42.7783970" lon="1.6959260">
        <ele>551.2</ele>
        <time>2020-07-29T13:35:51Z</time>
      </trkpt>
      <trkpt lat="42.7782740" lon="1.6959610">
        <ele>551.4</ele>
        <time>2020-07-29T13:35:53Z</time>
      </trkpt>
      <trkpt lat="42.7777940" lon="1.6960960">
        <ele>552.3</ele>
        <time>2020-07-29T13:36:01Z</time>
      </trkpt>
      <trkpt lat="42.7773600" lon="1.6962420">
        <ele>553.2</ele>
        <time>2020-07-29T13:36:08Z</time>
      </trkpt>
      <trkpt lat="42.7770970" lon="1.6963370">
        <ele>553.6</ele>
        <time>2020-07-29T13:36:12Z</time>
      </trkpt>
      <trkpt lat="42.7766860" lon="1.6964650">
        <ele>554.3</ele>
        <time>2020-07-29T13:36:18Z</time>
      </trkpt>
      <trkpt lat="42.7764860" lon="1.6965300">
        <ele>554.9</ele>
        <time>2020-07-29T13:36:21Z</time>
      </trkpt>
      <trkpt lat="42.7761700" lon="1.6966760">
        <ele>554.8</ele>
        <time>2020-07-29T13:36:26Z</time>
      </trkpt>
      <trkpt lat="42.7758650" lon="1.6969180">
        <ele>554.6</ele>
        <time>2020-07-29T13:36:31Z</time>
      </trkpt>
      <trkpt lat="42.7757570" lon="1.6970440">
        <ele>554.7</ele>
        <time>2020-07-29T13:36:33Z</time>
      </trkpt>
      <trkpt lat="42.7756240" lon="1.6972530">
        <ele>554.8</ele>
        <time>2020-07-29T13:36:36Z</time>
      </trkpt>
      <trkpt lat="42.7753900" lon="1.6976900">
        <ele>555.8</ele>
        <time>2020-07-29T13:36:42Z</time>
      </trkpt>
      <trkpt lat="42.7753540" lon="1.6977610">
        <ele>555.9</ele>
        <time>2020-07-29T13:36:43Z</time>
      </trkpt>
      <trkpt lat="42.7752620" lon="1.6979640">
        <ele>556.3</ele>
        <time>2020-07-29T13:36:46Z</time>
      </trkpt>
      <trkpt lat="42.7751930" lon="1.6981200">
        <ele>556.6</ele>
        <time>2020-07-29T13:36:48Z</time>
      </trkpt>
      <trkpt lat="42.7750980" lon="1.6983440">
        <ele>557.0</ele>
        <time>2020-07-29T13:36:51Z</time>
      </trkpt>
      <trkpt lat="42.7749910" lon="1.6985710">
        <ele>557.6</ele>
        <time>2020-07-29T13:36:54Z</time>
      </trkpt>
      <trkpt lat="42.7747800" lon="1.6990100">
        <ele>559.2</ele>
        <time>2020-07-29T13:37:00Z</time>
      </trkpt>
      <trkpt lat="42.7747210" lon="1.6991340">
        <ele>559.9</ele>
        <time>2020-07-29T13:37:02Z</time>
      </trkpt>
      <trkpt lat="42.7746420" lon="1.6992930">
        <ele>560.7</ele>
        <time>2020-07-29T13:37:05Z</time>
      </trkpt>
      <trkpt lat="42.7745680" lon="1.6994290">
        <ele>561.5</ele>
        <time>2020-07-29T13:37:08Z</time>
      </trkpt>
      <trkpt lat="42.7744430" lon="1.6996960">
        <ele>562.9</ele>
        <time>2020-07-29T13:37:13Z</time>
      </trkpt>
      <trkpt lat="42.7743930" lon="1.6997890">
        <ele>563.4</ele>
        <time>2020-07-29T13:37:15Z</time>
      </trkpt>
      <trkpt lat="42.7743690" lon="1.6998330">
        <ele>563.6</ele>
        <time>2020-07-29T13:37:16Z</time>
      </trkpt>
      <trkpt lat="42.7742680" lon="1.7000290">
        <ele>564.6</ele>
        <time>2020-07-29T13:37:20Z</time>
      </trkpt>
      <trkpt lat="42.7742410" lon="1.7000800">
        <ele>564.9</ele>
        <time>2020-07-29T13:37:21Z</time>
      </trkpt>
      <trkpt lat="42.7740990" lon="1.7003620">
        <ele>566.1</ele>
        <time>2020-07-29T13:37:26Z</time>
      </trkpt>
      <trkpt lat="42.7740730" lon="1.7004080">
        <ele>566.3</ele>
        <time>2020-07-29T13:37:27Z</time>
      </trkpt>
      <trkpt lat="42.7740460" lon="1.7004630">
        <ele>566.6</ele>
        <time>2020-07-29T13:37:28Z</time>
      </trkpt>
      <trkpt lat="42.7739480" lon="1.7006860">
        <ele>567.8</ele>
        <time>2020-07-29T13:37:32Z</time>
      </trkpt>
      <trkpt lat="42.7739100" lon="1.7007900">
        <ele>568.4</ele>
        <time>2020-07-29T13:37:34Z</time>
      </trkpt>
      <trkpt lat="42.7738760" lon="1.7009000">
        <ele>568.9</ele>
        <time>2020-07-29T13:37:36Z</time>
      </trkpt>
      <trkpt lat="42.7738610" lon="1.7009660">
        <ele>569.2</ele>
        <time>2020-07-29T13:37:37Z</time>
      </trkpt>
      <trkpt lat="42.7738350" lon="1.7010960">
        <ele>569.8</ele>
        <time>2020-07-29T13:37:39Z</time>
      </trkpt>
      <trkpt lat="42.7738140" lon="1.7012270">
        <ele>570.3</ele>
        <time>2020-07-29T13:37:41Z</time>
      </trkpt>
      <trkpt lat="42.7737800" lon="1.7014440">
        <ele>571.0</ele>
        <time>2020-07-29T13:37:44Z</time>
      </trkpt>
      <trkpt lat="42.7737220" lon="1.7018090">
        <ele>572.1</ele>
        <time>2020-07-29T13:37:49Z</time>
      </trkpt>
      <trkpt lat="42.7737120" lon="1.7018750">
        <ele>572.3</ele>
        <time>2020-07-29T13:37:50Z</time>
      </trkpt>
      <trkpt lat="42.7736300" lon="1.7023790">
        <ele>573.2</ele>
        <time>2020-07-29T13:37:57Z</time>
      </trkpt>
      <trkpt lat="42.7736180" lon="1.7024560">
        <ele>573.3</ele>
        <time>2020-07-29T13:37:58Z</time>
      </trkpt>
      <trkpt lat="42.7735010" lon="1.7031590">
        <ele>573.4</ele>
        <time>2020-07-29T13:38:07Z</time>
      </trkpt>
      <trkpt lat="42.7733690" lon="1.7037960">
        <ele>573.5</ele>
        <time>2020-07-29T13:38:15Z</time>
      </trkpt>
      <trkpt lat="42.7733060" lon="1.7041270">
        <ele>573.7</ele>
        <time>2020-07-29T13:38:19Z</time>
      </trkpt>
      <trkpt lat="42.7732560" lon="1.7043830">
        <ele>573.9</ele>
        <time>2020-07-29T13:38:22Z</time>
      </trkpt>
      <trkpt lat="42.7731110" lon="1.7051290">
        <ele>574.5</ele>
        <time>2020-07-29T13:38:31Z</time>
      </trkpt>
      <trkpt lat="42.7730930" lon="1.7052180">
        <ele>574.5</ele>
        <time>2020-07-29T13:38:32Z</time>
      </trkpt>
      <trkpt lat="42.7730790" lon="1.7052930">
        <ele>574.4</ele>
        <time>2020-07-29T13:38:33Z</time>
      </trkpt>
      <trkpt lat="42.7729670" lon="1.7058600">
        <ele>573.8</ele>
        <time>2020-07-29T13:38:39Z</time>
      </trkpt>
      <trkpt lat="42.7728000" lon="1.7066020">
        <ele>572.3</ele>
        <time>2020-07-29T13:38:46Z</time>
      </trkpt>
      <trkpt lat="42.7726200" lon="1.7072050">
        <ele>569.8</ele>
        <time>2020-07-29T13:38:51Z</time>
      </trkpt>
      <trkpt lat="42.7725800" lon="1.7073330">
        <ele>569.2</ele>
        <time>2020-07-29T13:38:52Z</time>
      </trkpt>
      <trkpt lat="42.7724160" lon="1.7078740">
        <ele>566.1</ele>
        <time>2020-07-29T13:38:56Z</time>
      </trkpt>
      <trkpt lat="42.7722980" lon="1.7083090">
        <ele>563.3</ele>
        <time>2020-07-29T13:38:59Z</time>
      </trkpt>
      <trkpt lat="42.7722630" lon="1.7084640">
        <ele>562.4</ele>
        <time>2020-07-29T13:39:00Z</time>
      </trkpt>
      <trkpt lat="42.7722320" lon="1.7086270">
        <ele>561.5</ele>
        <time>2020-07-29T13:39:01Z</time>
      </trkpt>
      <trkpt lat="42.7721920" lon="1.7089710">
        <ele>560.1</ele>
        <time>2020-07-29T13:39:03Z</time>
      </trkpt>
      <trkpt lat="42.7721770" lon="1.7091460">
        <ele>559.6</ele>
        <time>2020-07-29T13:39:04Z</time>
      </trkpt>
      <trkpt lat="42.7721440" lon="1.7094980">
        <ele>558.9</ele>
        <time>2020-07-29T13:39:06Z</time>
      </trkpt>
      <trkpt lat="42.7721150" lon="1.7098430">
        <ele>558.8</ele>
        <time>2020-07-29T13:39:08Z</time>
      </trkpt>
      <trkpt lat="42.7721050" lon="1.7100110">
        <ele>558.8</ele>
        <time>2020-07-29T13:39:09Z</time>
      </trkpt>
      <trkpt lat="42.7720940" lon="1.7101760">
        <ele>558.9</ele>
        <time>2020-07-29T13:39:10Z</time>
      </trkpt>
      <trkpt lat="42.7720760" lon="1.7105000">
        <ele>559.2</ele>
        <time>2020-07-29T13:39:12Z</time>
      </trkpt>
      <trkpt lat="42.7720280" lon="1.7112870">
        <ele>556.6</ele>
        <time>2020-07-29T13:39:17Z</time>
      </trkpt>
      <trkpt lat="42.7720070" lon="1.7115880">
        <ele>556.5</ele>
        <time>2020-07-29T13:39:19Z</time>
      </trkpt>
      <trkpt lat="42.7719520" lon="1.7124390">
        <ele>556.6</ele>
        <time>2020-07-29T13:39:25Z</time>
      </trkpt>
      <trkpt lat="42.7719010" lon="1.7132290">
        <ele>557.0</ele>
        <time>2020-07-29T13:39:31Z</time>
      </trkpt>
      <trkpt lat="42.7718770" lon="1.7136060">
        <ele>557.2</ele>
        <time>2020-07-29T13:39:34Z</time>
      </trkpt>
      <trkpt lat="42.7718250" lon="1.7143360">
        <ele>557.9</ele>
        <time>2020-07-29T13:39:40Z</time>
      </trkpt>
      <trkpt lat="42.7717910" lon="1.7148110">
        <ele>558.3</ele>
        <time>2020-07-29T13:39:44Z</time>
      </trkpt>
      <trkpt lat="42.7717760" lon="1.7150440">
        <ele>558.6</ele>
        <time>2020-07-29T13:39:46Z</time>
      </trkpt>
      <trkpt lat="42.7717290" lon="1.7158360">
        <ele>559.2</ele>
        <time>2020-07-29T13:39:53Z</time>
      </trkpt>
      <trkpt lat="42.7717220" lon="1.7159440">
        <ele>559.4</ele>
        <time>2020-07-29T13:39:54Z</time>
      </trkpt>
      <trkpt lat="42.7717060" lon="1.7161590">
        <ele>559.4</ele>
        <time>2020-07-29T13:39:56Z</time>
      </trkpt>
      <trkpt lat="42.7716650" lon="1.7169050">
        <ele>559.8</ele>
        <time>2020-07-29T13:40:03Z</time>
      </trkpt>
      <trkpt lat="42.7716230" lon="1.7176460">
        <ele>560.3</ele>
        <time>2020-07-29T13:40:10Z</time>
      </trkpt>
      <trkpt lat="42.7716010" lon="1.7179590">
        <ele>560.6</ele>
        <time>2020-07-29T13:40:13Z</time>
      </trkpt>
      <trkpt lat="42.7715950" lon="1.7180620">
        <ele>560.7</ele>
        <time>2020-07-29T13:40:14Z</time>
      </trkpt>
      <trkpt lat="42.7715430" lon="1.7187760">
        <ele>561.3</ele>
        <time>2020-07-29T13:40:21Z</time>
      </trkpt>
      <trkpt lat="42.7714910" lon="1.7195770">
        <ele>561.8</ele>
        <time>2020-07-29T13:40:29Z</time>
      </trkpt>
      <trkpt lat="42.7714840" lon="1.7196770">
        <ele>561.9</ele>
        <time>2020-07-29T13:40:30Z</time>
      </trkpt>
      <trkpt lat="42.7714470" lon="1.7203470">
        <ele>562.5</ele>
        <time>2020-07-29T13:40:37Z</time>
      </trkpt>
      <trkpt lat="42.7714340" lon="1.7205320">
        <ele>562.7</ele>
        <time>2020-07-29T13:40:39Z</time>
      </trkpt>
      <trkpt lat="42.7713790" lon="1.7213360">
        <ele>563.4</ele>
        <time>2020-07-29T13:40:48Z</time>
      </trkpt>
      <trkpt lat="42.7713700" lon="1.7214210">
        <ele>563.5</ele>
        <time>2020-07-29T13:40:49Z</time>
      </trkpt>
      <trkpt lat="42.7713510" lon="1.7216790">
        <ele>563.8</ele>
        <time>2020-07-29T13:40:52Z</time>
      </trkpt>
      <trkpt lat="42.7713420" lon="1.7218450">
        <ele>564.0</ele>
        <time>2020-07-29T13:40:54Z</time>
      </trkpt>
      <trkpt lat="42.7713170" lon="1.7222470">
        <ele>564.7</ele>
        <time>2020-07-29T13:40:59Z</time>
      </trkpt>
      <trkpt lat="42.7712690" lon="1.7228720">
        <ele>566.0</ele>
        <time>2020-07-29T13:41:07Z</time>
      </trkpt>
      <trkpt lat="42.7712600" lon="1.7230330">
        <ele>566.2</ele>
        <time>2020-07-29T13:41:09Z</time>
      </trkpt>
      <trkpt lat="42.7712220" lon="1.7235870">
        <ele>567.3</ele>
        <time>2020-07-29T13:41:16Z</time>
      </trkpt>
      <trkpt lat="42.7712160" lon="1.7236650">
        <ele>567.5</ele>
        <time>2020-07-29T13:41:17Z</time>
      </trkpt>
      <trkpt lat="42.7711850" lon="1.7242000">
        <ele>568.8</ele>
        <time>2020-07-29T13:41:24Z</time>
      </trkpt>
      <trkpt lat="42.7711800" lon="1.7242780">
        <ele>569.1</ele>
        <time>2020-07-29T13:41:25Z</time>
      </trkpt>
      <trkpt lat="42.7711550" lon="1.7246670">
        <ele>570.2</ele>
        <time>2020-07-29T13:41:30Z</time>
      </trkpt>
      <trkpt lat="42.7711510" lon="1.7248110">
        <ele>570.7</ele>
        <time>2020-07-29T13:41:32Z</time>
      </trkpt>
      <trkpt lat="42.7711250" lon="1.7252370">
        <ele>572.2</ele>
        <time>2020-07-29T13:41:38Z</time>
      </trkpt>
      <trkpt lat="42.7711130" lon="1.7254370">
        <ele>573.2</ele>
        <time>2020-07-29T13:41:41Z</time>
      </trkpt>
      <trkpt lat="42.7711090" lon="1.7255000">
        <ele>573.5</ele>
        <time>2020-07-29T13:41:42Z</time>
      </trkpt>
      <trkpt lat="42.7710940" lon="1.7257290">
        <ele>574.6</ele>
        <time>2020-07-29T13:41:46Z</time>
      </trkpt>
      <trkpt lat="42.7710870" lon="1.7258470">
        <ele>575.2</ele>
        <time>2020-07-29T13:41:48Z</time>
      </trkpt>
      <trkpt lat="42.7710780" lon="1.7259740">
        <ele>575.8</ele>
        <time>2020-07-29T13:41:50Z</time>
      </trkpt>
      <trkpt lat="42.7710680" lon="1.7261520">
        <ele>576.6</ele>
        <time>2020-07-29T13:41:53Z</time>
      </trkpt>
      <trkpt lat="42.7710540" lon="1.7263830">
        <ele>577.7</ele>
        <time>2020-07-29T13:41:57Z</time>
      </trkpt>
      <trkpt lat="42.7710500" lon="1.7264380">
        <ele>578.0</ele>
        <time>2020-07-29T13:41:58Z</time>
      </trkpt>
      <trkpt lat="42.7710300" lon="1.7267040">
        <ele>579.4</ele>
        <time>2020-07-29T13:42:03Z</time>
      </trkpt>
      <trkpt lat="42.7710280" lon="1.7268000">
        <ele>579.9</ele>
        <time>2020-07-29T13:42:05Z</time>
      </trkpt>
      <trkpt lat="42.7710240" lon="1.7268960">
        <ele>580.4</ele>
        <time>2020-07-29T13:42:07Z</time>
      </trkpt>
      <trkpt lat="42.7710120" lon="1.7271540">
        <ele>581.8</ele>
        <time>2020-07-29T13:42:12Z</time>
      </trkpt>
      <trkpt lat="42.7710100" lon="1.7272080">
        <ele>582.1</ele>
        <time>2020-07-29T13:42:13Z</time>
      </trkpt>
      <trkpt lat="42.7710050" lon="1.7273600">
        <ele>582.9</ele>
        <time>2020-07-29T13:42:16Z</time>
      </trkpt>
      <trkpt lat="42.7709940" lon="1.7275660">
        <ele>583.9</ele>
        <time>2020-07-29T13:42:20Z</time>
      </trkpt>
      <trkpt lat="42.7709890" lon="1.7276680">
        <ele>584.4</ele>
        <time>2020-07-29T13:42:22Z</time>
      </trkpt>
      <trkpt lat="42.7709790" lon="1.7278210">
        <ele>585.2</ele>
        <time>2020-07-29T13:42:25Z</time>
      </trkpt>
      <trkpt lat="42.7709680" lon="1.7279820">
        <ele>586.0</ele>
        <time>2020-07-29T13:42:28Z</time>
      </trkpt>
      <trkpt lat="42.7709490" lon="1.7282090">
        <ele>587.1</ele>
        <time>2020-07-29T13:42:32Z</time>
      </trkpt>
      <trkpt lat="42.7709460" lon="1.7282660">
        <ele>587.4</ele>
        <time>2020-07-29T13:42:33Z</time>
      </trkpt>
      <trkpt lat="42.7709270" lon="1.7285840">
        <ele>589.0</ele>
        <time>2020-07-29T13:42:39Z</time>
      </trkpt>
      <trkpt lat="42.7709200" lon="1.7287230">
        <ele>589.6</ele>
        <time>2020-07-29T13:42:42Z</time>
      </trkpt>
      <trkpt lat="42.7709180" lon="1.7287700">
        <ele>589.8</ele>
        <time>2020-07-29T13:42:43Z</time>
      </trkpt>
      <trkpt lat="42.7709120" lon="1.7289540">
        <ele>590.7</ele>
        <time>2020-07-29T13:42:47Z</time>
      </trkpt>
      <trkpt lat="42.7708990" lon="1.7290980">
        <ele>591.3</ele>
        <time>2020-07-29T13:42:50Z</time>
      </trkpt>
      <trkpt lat="42.7708930" lon="1.7291850">
        <ele>591.7</ele>
        <time>2020-07-29T13:42:52Z</time>
      </trkpt>
      <trkpt lat="42.7708780" lon="1.7294510">
        <ele>592.8</ele>
        <time>2020-07-29T13:42:57Z</time>
      </trkpt>
      <trkpt lat="42.7708750" lon="1.7295660">
        <ele>593.3</ele>
        <time>2020-07-29T13:42:59Z</time>
      </trkpt>
      <trkpt lat="42.7708690" lon="1.7297780">
        <ele>594.0</ele>
        <time>2020-07-29T13:43:03Z</time>
      </trkpt>
      <trkpt lat="42.7708590" lon="1.7300210">
        <ele>594.9</ele>
        <time>2020-07-29T13:43:07Z</time>
      </trkpt>
      <trkpt lat="42.7708550" lon="1.7300850">
        <ele>595.1</ele>
        <time>2020-07-29T13:43:08Z</time>
      </trkpt>
      <trkpt lat="42.7708140" lon="1.7305130">
        <ele>596.3</ele>
        <time>2020-07-29T13:43:14Z</time>
      </trkpt>
      <trkpt lat="42.7707650" lon="1.7309600">
        <ele>597.3</ele>
        <time>2020-07-29T13:43:20Z</time>
      </trkpt>
      <trkpt lat="42.7707540" lon="1.7311020">
        <ele>597.7</ele>
        <time>2020-07-29T13:43:22Z</time>
      </trkpt>
      <trkpt lat="42.7707100" lon="1.7314400">
        <ele>598.7</ele>
        <time>2020-07-29T13:43:27Z</time>
      </trkpt>
      <trkpt lat="42.7706900" lon="1.7316880">
        <ele>599.5</ele>
        <time>2020-07-29T13:43:31Z</time>
      </trkpt>
      <trkpt lat="42.7706700" lon="1.7319620">
        <ele>600.1</ele>
        <time>2020-07-29T13:43:35Z</time>
      </trkpt>
      <trkpt lat="42.7706570" lon="1.7320980">
        <ele>600.5</ele>
        <time>2020-07-29T13:43:37Z</time>
      </trkpt>
      <trkpt lat="42.7705820" lon="1.7324200">
        <ele>601.2</ele>
        <time>2020-07-29T13:43:42Z</time>
      </trkpt>
      <trkpt lat="42.7704340" lon="1.7329370">
        <ele>602.8</ele>
        <time>2020-07-29T13:43:51Z</time>
      </trkpt>
      <trkpt lat="42.7703270" lon="1.7333860">
        <ele>604.6</ele>
        <time>2020-07-29T13:43:59Z</time>
      </trkpt>
      <trkpt lat="42.7702880" lon="1.7336600">
        <ele>605.6</ele>
        <time>2020-07-29T13:44:04Z</time>
      </trkpt>
      <trkpt lat="42.7702810" lon="1.7337890">
        <ele>606.0</ele>
        <time>2020-07-29T13:44:06Z</time>
      </trkpt>
      <trkpt lat="42.7702770" lon="1.7339330">
        <ele>606.5</ele>
        <time>2020-07-29T13:44:08Z</time>
      </trkpt>
      <trkpt lat="42.7702760" lon="1.7340800">
        <ele>606.9</ele>
        <time>2020-07-29T13:44:10Z</time>
      </trkpt>
      <trkpt lat="42.7702810" lon="1.7341530">
        <ele>607.1</ele>
        <time>2020-07-29T13:44:11Z</time>
      </trkpt>
      <trkpt lat="42.7702890" lon="1.7342230">
        <ele>607.2</ele>
        <time>2020-07-29T13:44:12Z</time>
      </trkpt>
      <trkpt lat="42.7703910" lon="1.7346810">
        <ele>608.4</ele>
        <time>2020-07-29T13:44:19Z</time>
      </trkpt>
      <trkpt lat="42.7704080" lon="1.7347450">
        <ele>608.5</ele>
        <time>2020-07-29T13:44:20Z</time>
      </trkpt>
      <trkpt lat="42.7704890" lon="1.7350780">
        <ele>609.0</ele>
        <time>2020-07-29T13:44:25Z</time>
      </trkpt>
      <trkpt lat="42.7705180" lon="1.7352860">
        <ele>609.3</ele>
        <time>2020-07-29T13:44:28Z</time>
      </trkpt>
      <trkpt lat="42.7705300" lon="1.7355180">
        <ele>609.4</ele>
        <time>2020-07-29T13:44:31Z</time>
      </trkpt>
      <trkpt lat="42.7705150" lon="1.7357730">
        <ele>609.1</ele>
        <time>2020-07-29T13:44:34Z</time>
      </trkpt>
      <trkpt lat="42.7703830" lon="1.7362200">
        <ele>607.8</ele>
        <time>2020-07-29T13:44:39Z</time>
      </trkpt>
      <trkpt lat="42.7701120" lon="1.7366480">
        <ele>606.2</ele>
        <time>2020-07-29T13:44:44Z</time>
      </trkpt>
      <trkpt lat="42.7700440" lon="1.7367250">
        <ele>605.9</ele>
        <time>2020-07-29T13:44:45Z</time>
      </trkpt>
      <trkpt lat="42.7698430" lon="1.7369600">
        <ele>605.0</ele>
        <time>2020-07-29T13:44:48Z</time>
      </trkpt>
      <trkpt lat="42.7697100" lon="1.7371470">
        <ele>604.4</ele>
        <time>2020-07-29T13:44:50Z</time>
      </trkpt>
      <trkpt lat="42.7696450" lon="1.7372550">
        <ele>604.2</ele>
        <time>2020-07-29T13:44:51Z</time>
      </trkpt>
      <trkpt lat="42.7694950" lon="1.7375600">
        <ele>603.5</ele>
        <time>2020-07-29T13:44:54Z</time>
      </trkpt>
      <trkpt lat="42.7693140" lon="1.7379900">
        <ele>602.6</ele>
        <time>2020-07-29T13:44:58Z</time>
      </trkpt>
      <trkpt lat="42.7692130" lon="1.7382120">
        <ele>602.1</ele>
        <time>2020-07-29T13:45:00Z</time>
      </trkpt>
      <trkpt lat="42.7690460" lon="1.7385500">
        <ele>601.3</ele>
        <time>2020-07-29T13:45:03Z</time>
      </trkpt>
      <trkpt lat="42.7689230" lon="1.7387800">
        <ele>600.8</ele>
        <time>2020-07-29T13:45:05Z</time>
      </trkpt>
      <trkpt lat="42.7687520" lon="1.7391270">
        <ele>600.0</ele>
        <time>2020-07-29T13:45:08Z</time>
      </trkpt>
      <trkpt lat="42.7686190" lon="1.7394920">
        <ele>599.3</ele>
        <time>2020-07-29T13:45:11Z</time>
      </trkpt>
      <trkpt lat="42.7684750" lon="1.7400050">
        <ele>598.4</ele>
        <time>2020-07-29T13:45:15Z</time>
      </trkpt>
      <trkpt lat="42.7684310" lon="1.7402630">
        <ele>598.0</ele>
        <time>2020-07-29T13:45:17Z</time>
      </trkpt>
      <trkpt lat="42.7683770" lon="1.7408060">
        <ele>597.2</ele>
        <time>2020-07-29T13:45:21Z</time>
      </trkpt>
      <trkpt lat="42.7683630" lon="1.7410920">
        <ele>596.7</ele>
        <time>2020-07-29T13:45:23Z</time>
      </trkpt>
      <trkpt lat="42.7683360" lon="1.7415100">
        <ele>596.1</ele>
        <time>2020-07-29T13:45:26Z</time>
      </trkpt>
      <trkpt lat="42.7682790" lon="1.7417800">
        <ele>595.7</ele>
        <time>2020-07-29T13:45:28Z</time>
      </trkpt>
      <trkpt lat="42.7681530" lon="1.7421710">
        <ele>594.5</ele>
        <time>2020-07-29T13:45:31Z</time>
      </trkpt>
      <trkpt lat="42.7680370" lon="1.7424080">
        <ele>593.8</ele>
        <time>2020-07-29T13:45:33Z</time>
      </trkpt>
      <trkpt lat="42.7679080" lon="1.7426380">
        <ele>592.8</ele>
        <time>2020-07-29T13:45:35Z</time>
      </trkpt>
      <trkpt lat="42.7677570" lon="1.7428530">
        <ele>592.0</ele>
        <time>2020-07-29T13:45:37Z</time>
      </trkpt>
      <trkpt lat="42.7676100" lon="1.7430590">
        <ele>591.1</ele>
        <time>2020-07-29T13:45:39Z</time>
      </trkpt>
      <trkpt lat="42.7674090" lon="1.7433770">
        <ele>589.9</ele>
        <time>2020-07-29T13:45:42Z</time>
      </trkpt>
      <trkpt lat="42.7671920" lon="1.7437270">
        <ele>588.2</ele>
        <time>2020-07-29T13:45:45Z</time>
      </trkpt>
      <trkpt lat="42.7670540" lon="1.7439760">
        <ele>586.9</ele>
        <time>2020-07-29T13:45:47Z</time>
      </trkpt>
      <trkpt lat="42.7669860" lon="1.7441040">
        <ele>586.4</ele>
        <time>2020-07-29T13:45:48Z</time>
      </trkpt>
      <trkpt lat="42.7667930" lon="1.7444980">
        <ele>584.8</ele>
        <time>2020-07-29T13:45:51Z</time>
      </trkpt>
      <trkpt lat="42.7665940" lon="1.7449000">
        <ele>583.6</ele>
        <time>2020-07-29T13:45:54Z</time>
      </trkpt>
      <trkpt lat="42.7664590" lon="1.7451720">
        <ele>583.3</ele>
        <time>2020-07-29T13:45:56Z</time>
      </trkpt>
      <trkpt lat="42.7663320" lon="1.7454330">
        <ele>583.1</ele>
        <time>2020-07-29T13:45:58Z</time>
      </trkpt>
      <trkpt lat="42.7661450" lon="1.7457960">
        <ele>583.0</ele>
        <time>2020-07-29T13:46:01Z</time>
      </trkpt>
      <trkpt lat="42.7658890" lon="1.7463650">
        <ele>583.3</ele>
        <time>2020-07-29T13:46:06Z</time>
      </trkpt>
      <trkpt lat="42.7658120" lon="1.7465970">
        <ele>583.5</ele>
        <time>2020-07-29T13:46:08Z</time>
      </trkpt>
      <trkpt lat="42.7657330" lon="1.7469840">
        <ele>584.0</ele>
        <time>2020-07-29T13:46:11Z</time>
      </trkpt>
      <trkpt lat="42.7656870" lon="1.7476030">
        <ele>584.9</ele>
        <time>2020-07-29T13:46:16Z</time>
      </trkpt>
      <trkpt lat="42.7656780" lon="1.7480790">
        <ele>585.9</ele>
        <time>2020-07-29T13:46:20Z</time>
      </trkpt>
      <trkpt lat="42.7656730" lon="1.7484210">
        <ele>586.3</ele>
        <time>2020-07-29T13:46:23Z</time>
      </trkpt>
      <trkpt lat="42.7656310" lon="1.7489420">
        <ele>587.3</ele>
        <time>2020-07-29T13:46:28Z</time>
      </trkpt>
      <trkpt lat="42.7656100" lon="1.7490420">
        <ele>587.2</ele>
        <time>2020-07-29T13:46:29Z</time>
      </trkpt>
      <trkpt lat="42.7654400" lon="1.7495830">
        <ele>587.7</ele>
        <time>2020-07-29T13:46:35Z</time>
      </trkpt>
      <trkpt lat="42.7652300" lon="1.7500490">
        <ele>588.5</ele>
        <time>2020-07-29T13:46:41Z</time>
      </trkpt>
      <trkpt lat="42.7651350" lon="1.7502930">
        <ele>589.0</ele>
        <time>2020-07-29T13:46:44Z</time>
      </trkpt>
      <trkpt lat="42.7649800" lon="1.7506960">
        <ele>590.0</ele>
        <time>2020-07-29T13:46:49Z</time>
      </trkpt>
      <trkpt lat="42.7649450" lon="1.7507780">
        <ele>590.1</ele>
        <time>2020-07-29T13:46:50Z</time>
      </trkpt>
      <trkpt lat="42.7647680" lon="1.7512630">
        <ele>590.7</ele>
        <time>2020-07-29T13:46:56Z</time>
      </trkpt>
      <trkpt lat="42.7647350" lon="1.7513400">
        <ele>590.8</ele>
        <time>2020-07-29T13:46:57Z</time>
      </trkpt>
      <trkpt lat="42.7645990" lon="1.7516660">
        <ele>591.3</ele>
        <time>2020-07-29T13:47:01Z</time>
      </trkpt>
      <trkpt lat="42.7644420" lon="1.7520350">
        <ele>591.8</ele>
        <time>2020-07-29T13:47:06Z</time>
      </trkpt>
      <trkpt lat="42.7642660" lon="1.7524930">
        <ele>592.4</ele>
        <time>2020-07-29T13:47:12Z</time>
      </trkpt>
      <trkpt lat="42.7642360" lon="1.7525750">
        <ele>592.5</ele>
        <time>2020-07-29T13:47:13Z</time>
      </trkpt>
      <trkpt lat="42.7640150" lon="1.7531530">
        <ele>593.2</ele>
        <time>2020-07-29T13:47:20Z</time>
      </trkpt>
      <trkpt lat="42.7639660" lon="1.7533150">
        <ele>593.4</ele>
        <time>2020-07-29T13:47:22Z</time>
      </trkpt>
      <trkpt lat="42.7639180" lon="1.7534730">
        <ele>593.6</ele>
        <time>2020-07-29T13:47:24Z</time>
      </trkpt>
      <trkpt lat="42.7638010" lon="1.7538970">
        <ele>594.2</ele>
        <time>2020-07-29T13:47:29Z</time>
      </trkpt>
      <trkpt lat="42.7637390" lon="1.7541550">
        <ele>594.6</ele>
        <time>2020-07-29T13:47:32Z</time>
      </trkpt>
      <trkpt lat="42.7636000" lon="1.7547430">
        <ele>595.3</ele>
        <time>2020-07-29T13:47:39Z</time>
      </trkpt>
      <trkpt lat="42.7635540" lon="1.7549250">
        <ele>595.5</ele>
        <time>2020-07-29T13:47:41Z</time>
      </trkpt>
      <trkpt lat="42.7634210" lon="1.7553480">
        <ele>596.2</ele>
        <time>2020-07-29T13:47:46Z</time>
      </trkpt>
      <trkpt lat="42.7632620" lon="1.7557130">
        <ele>596.9</ele>
        <time>2020-07-29T13:47:51Z</time>
      </trkpt>
      <trkpt lat="42.7632320" lon="1.7557860">
        <ele>597.1</ele>
        <time>2020-07-29T13:47:52Z</time>
      </trkpt>
      <trkpt lat="42.7629590" lon="1.7564010">
        <ele>598.1</ele>
        <time>2020-07-29T13:48:01Z</time>
      </trkpt>
      <trkpt lat="42.7628000" lon="1.7568370">
        <ele>599.0</ele>
        <time>2020-07-29T13:48:07Z</time>
      </trkpt>
      <trkpt lat="42.7627410" lon="1.7569880">
        <ele>599.3</ele>
        <time>2020-07-29T13:48:09Z</time>
      </trkpt>
      <trkpt lat="42.7626010" lon="1.7573480">
        <ele>600.0</ele>
        <time>2020-07-29T13:48:14Z</time>
      </trkpt>
      <trkpt lat="42.7624810" lon="1.7576310">
        <ele>600.6</ele>
        <time>2020-07-29T13:48:18Z</time>
      </trkpt>
      <trkpt lat="42.7624540" lon="1.7577040">
        <ele>600.7</ele>
        <time>2020-07-29T13:48:19Z</time>
      </trkpt>
      <trkpt lat="42.7622660" lon="1.7581980">
        <ele>601.6</ele>
        <time>2020-07-29T13:48:26Z</time>
      </trkpt>
      <trkpt lat="42.7621680" lon="1.7584760">
        <ele>602.0</ele>
        <time>2020-07-29T13:48:30Z</time>
      </trkpt>
      <trkpt lat="42.7620080" lon="1.7588800">
        <ele>602.8</ele>
        <time>2020-07-29T13:48:36Z</time>
      </trkpt>
      <trkpt lat="42.7618840" lon="1.7592070">
        <ele>603.4</ele>
        <time>2020-07-29T13:48:41Z</time>
      </trkpt>
      <trkpt lat="42.7618610" lon="1.7592730">
        <ele>603.4</ele>
        <time>2020-07-29T13:48:42Z</time>
      </trkpt>
      <trkpt lat="42.7616890" lon="1.7597910">
        <ele>603.8</ele>
        <time>2020-07-29T13:48:50Z</time>
      </trkpt>
      <trkpt lat="42.7616680" lon="1.7598600">
        <ele>603.9</ele>
        <time>2020-07-29T13:48:51Z</time>
      </trkpt>
      <trkpt lat="42.7614300" lon="1.7605650">
        <ele>604.5</ele>
        <time>2020-07-29T13:49:01Z</time>
      </trkpt>
      <trkpt lat="42.7612880" lon="1.7610370">
        <ele>605.8</ele>
        <time>2020-07-29T13:49:08Z</time>
      </trkpt>
      <trkpt lat="42.7605970" lon="1.7619500">
        <ele>606.0</ele>
        <time>2020-07-30T07:12:36Z</time>
      </trkpt>
      <trkpt lat="42.7604940" lon="1.7621120">
        <ele>607.0</ele>
        <time>2020-07-30T07:12:40Z</time>
      </trkpt>
      <trkpt lat="42.7604370" lon="1.7621950">
        <ele>607.2</ele>
        <time>2020-07-30T07:12:42Z</time>
      </trkpt>
      <trkpt lat="42.7603870" lon="1.7622820">
        <ele>607.4</ele>
        <time>2020-07-30T07:12:44Z</time>
      </trkpt>
      <trkpt lat="42.7603550" lon="1.7623850">
        <ele>607.6</ele>
        <time>2020-07-30T07:12:46Z</time>
      </trkpt>
      <trkpt lat="42.7603360" lon="1.7625020">
        <ele>607.8</ele>
        <time>2020-07-30T07:12:48Z</time>
      </trkpt>
      <trkpt lat="42.7603030" lon="1.7629230">
        <ele>607.8</ele>
        <time>2020-07-30T07:12:55Z</time>
      </trkpt>
      <trkpt lat="42.7602750" lon="1.7634510">
        <ele>608.0</ele>
        <time>2020-07-30T07:13:02Z</time>
      </trkpt>
      <trkpt lat="42.7602610" lon="1.7636860">
        <ele>608.0</ele>
        <time>2020-07-30T07:13:05Z</time>
      </trkpt>
      <trkpt lat="42.7602410" lon="1.7640100">
        <ele>608.2</ele>
        <time>2020-07-30T07:13:09Z</time>
      </trkpt>
      <trkpt lat="42.7601280" lon="1.7646900">
        <ele>608.2</ele>
        <time>2020-07-30T07:13:17Z</time>
      </trkpt>
      <trkpt lat="42.7599640" lon="1.7651960">
        <ele>607.6</ele>
        <time>2020-07-30T07:13:22Z</time>
      </trkpt>
      <trkpt lat="42.7598870" lon="1.7654140">
        <ele>607.0</ele>
        <time>2020-07-30T07:13:24Z</time>
      </trkpt>
      <trkpt lat="42.7597780" lon="1.7657280">
        <ele>605.8</ele>
        <time>2020-07-30T07:13:27Z</time>
      </trkpt>
      <trkpt lat="42.7597420" lon="1.7658300">
        <ele>605.4</ele>
        <time>2020-07-30T07:13:28Z</time>
      </trkpt>
      <trkpt lat="42.7596710" lon="1.7660320">
        <ele>604.4</ele>
        <time>2020-07-30T07:13:30Z</time>
      </trkpt>
      <trkpt lat="42.7595970" lon="1.7662300">
        <ele>603.4</ele>
        <time>2020-07-30T07:13:32Z</time>
      </trkpt>
      <trkpt lat="42.7593840" lon="1.7668290">
        <ele>602.6</ele>
        <time>2020-07-30T07:13:38Z</time>
      </trkpt>
      <trkpt lat="42.7592290" lon="1.7672500">
        <ele>602.4</ele>
        <time>2020-07-30T07:13:42Z</time>
      </trkpt>
      <trkpt lat="42.7591040" lon="1.7675760">
        <ele>602.2</ele>
        <time>2020-07-30T07:13:45Z</time>
      </trkpt>
      <trkpt lat="42.7589350" lon="1.7679780">
        <ele>601.4</ele>
        <time>2020-07-30T07:13:49Z</time>
      </trkpt>
      <trkpt lat="42.7588480" lon="1.7681520">
        <ele>601.2</ele>
        <time>2020-07-30T07:13:51Z</time>
      </trkpt>
      <trkpt lat="42.7586480" lon="1.7684770">
        <ele>601.0</ele>
        <time>2020-07-30T07:13:56Z</time>
      </trkpt>
      <trkpt lat="42.7584300" lon="1.7687370">
        <ele>602.4</ele>
        <time>2020-07-30T07:14:02Z</time>
      </trkpt>
      <trkpt lat="42.7583940" lon="1.7687740">
        <ele>602.8</ele>
        <time>2020-07-30T07:14:03Z</time>
      </trkpt>
      <trkpt lat="42.7583230" lon="1.7688470">
        <ele>604.0</ele>
        <time>2020-07-30T07:14:05Z</time>
      </trkpt>
      <trkpt lat="42.7582190" lon="1.7689580">
        <ele>605.0</ele>
        <time>2020-07-30T07:14:08Z</time>
      </trkpt>
      <trkpt lat="42.7581850" lon="1.7689890">
        <ele>605.4</ele>
        <time>2020-07-30T07:14:09Z</time>
      </trkpt>
      <trkpt lat="42.7581150" lon="1.7690560">
        <ele>606.2</ele>
        <time>2020-07-30T07:14:11Z</time>
      </trkpt>
      <trkpt lat="42.7580000" lon="1.7691780">
        <ele>607.2</ele>
        <time>2020-07-30T07:14:15Z</time>
      </trkpt>
      <trkpt lat="42.7578850" lon="1.7692860">
        <ele>608.2</ele>
        <time>2020-07-30T07:14:18Z</time>
      </trkpt>
      <trkpt lat="42.7578440" lon="1.7693250">
        <ele>608.6</ele>
        <time>2020-07-30T07:14:19Z</time>
      </trkpt>
      <trkpt lat="42.7578060" lon="1.7693580">
        <ele>608.8</ele>
        <time>2020-07-30T07:14:20Z</time>
      </trkpt>
      <trkpt lat="42.7576760" lon="1.7694670">
        <ele>609.2</ele>
        <time>2020-07-30T07:14:23Z</time>
      </trkpt>
      <trkpt lat="42.7575520" lon="1.7695680">
        <ele>609.8</ele>
        <time>2020-07-30T07:14:26Z</time>
      </trkpt>
      <trkpt lat="42.7573860" lon="1.7697280">
        <ele>610.4</ele>
        <time>2020-07-30T07:14:30Z</time>
      </trkpt>
      <trkpt lat="42.7571620" lon="1.7699540">
        <ele>610.8</ele>
        <time>2020-07-30T07:14:36Z</time>
      </trkpt>
      <trkpt lat="42.7570890" lon="1.7700250">
        <ele>611.2</ele>
        <time>2020-07-30T07:14:38Z</time>
      </trkpt>
      <trkpt lat="42.7569000" lon="1.7701910">
        <ele>612.0</ele>
        <time>2020-07-30T07:14:43Z</time>
      </trkpt>
      <trkpt lat="42.7568060" lon="1.7702700">
        <ele>613.0</ele>
        <time>2020-07-30T07:14:46Z</time>
      </trkpt>
      <trkpt lat="42.7566150" lon="1.7704080">
        <ele>613.8</ele>
        <time>2020-07-30T07:14:52Z</time>
      </trkpt>
      <trkpt lat="42.7565800" lon="1.7704340">
        <ele>614.2</ele>
        <time>2020-07-30T07:14:53Z</time>
      </trkpt>
      <trkpt lat="42.7564230" lon="1.7705280">
        <ele>615.2</ele>
        <time>2020-07-30T07:14:57Z</time>
      </trkpt>
      <trkpt lat="42.7562280" lon="1.7705960">
        <ele>616.2</ele>
        <time>2020-07-30T07:15:02Z</time>
      </trkpt>
      <trkpt lat="42.7561500" lon="1.7706050">
        <ele>616.8</ele>
        <time>2020-07-30T07:15:04Z</time>
      </trkpt>
      <trkpt lat="42.7560720" lon="1.7706030">
        <ele>617.2</ele>
        <time>2020-07-30T07:15:06Z</time>
      </trkpt>
      <trkpt lat="42.7559190" lon="1.7705710">
        <ele>618.4</ele>
        <time>2020-07-30T07:15:10Z</time>
      </trkpt>
      <trkpt lat="42.7557570" lon="1.7704980">
        <ele>619.8</ele>
        <time>2020-07-30T07:15:15Z</time>
      </trkpt>
      <trkpt lat="42.7557370" lon="1.7704820">
        <ele>620.0</ele>
        <time>2020-07-30T07:15:16Z</time>
      </trkpt>
      <trkpt lat="42.7555190" lon="1.7703660">
        <ele>620.8</ele>
        <time>2020-07-30T07:15:22Z</time>
      </trkpt>
      <trkpt lat="42.7553400" lon="1.7703050">
        <ele>622.0</ele>
        <time>2020-07-30T07:15:26Z</time>
      </trkpt>
      <trkpt lat="42.7552910" lon="1.7702930">
        <ele>622.4</ele>
        <time>2020-07-30T07:15:27Z</time>
      </trkpt>
      <trkpt lat="42.7550910" lon="1.7702680">
        <ele>623.0</ele>
        <time>2020-07-30T07:15:31Z</time>
      </trkpt>
      <trkpt lat="42.7549340" lon="1.7702870">
        <ele>623.2</ele>
        <time>2020-07-30T07:15:34Z</time>
      </trkpt>
      <trkpt lat="42.7545970" lon="1.7704090">
        <ele>623.0</ele>
        <time>2020-07-30T07:15:40Z</time>
      </trkpt>
      <trkpt lat="42.7541370" lon="1.7706140">
        <ele>623.0</ele>
        <time>2020-07-30T07:15:47Z</time>
      </trkpt>
      <trkpt lat="42.7536020" lon="1.7708310">
        <ele>622.8</ele>
        <time>2020-07-30T07:15:55Z</time>
      </trkpt>
      <trkpt lat="42.7532620" lon="1.7709260">
        <ele>623.0</ele>
        <time>2020-07-30T07:16:01Z</time>
      </trkpt>
      <trkpt lat="42.7532190" lon="1.7709460">
        <ele>623.0</ele>
        <time>2020-07-30T07:16:02Z</time>
      </trkpt>
      <trkpt lat="42.7530460" lon="1.7710440">
        <ele>623.2</ele>
        <time>2020-07-30T07:16:06Z</time>
      </trkpt>
      <trkpt lat="42.7529140" lon="1.7711210">
        <ele>624.0</ele>
        <time>2020-07-30T07:16:09Z</time>
      </trkpt>
      <trkpt lat="42.7527820" lon="1.7712040">
        <ele>624.8</ele>
        <time>2020-07-30T07:16:12Z</time>
      </trkpt>
      <trkpt lat="42.7527380" lon="1.7712310">
        <ele>625.4</ele>
        <time>2020-07-30T07:16:13Z</time>
      </trkpt>
      <trkpt lat="42.7526500" lon="1.7712910">
        <ele>626.0</ele>
        <time>2020-07-30T07:16:15Z</time>
      </trkpt>
      <trkpt lat="42.7525410" lon="1.7713510">
        <ele>627.0</ele>
        <time>2020-07-30T07:16:18Z</time>
      </trkpt>
      <trkpt lat="42.7525040" lon="1.7713740">
        <ele>627.2</ele>
        <time>2020-07-30T07:16:19Z</time>
      </trkpt>
      <trkpt lat="42.7523680" lon="1.7714360">
        <ele>628.6</ele>
        <time>2020-07-30T07:16:23Z</time>
      </trkpt>
      <trkpt lat="42.7523040" lon="1.7714580">
        <ele>629.0</ele>
        <time>2020-07-30T07:16:25Z</time>
      </trkpt>
      <trkpt lat="42.7522680" lon="1.7714770">
        <ele>629.4</ele>
        <time>2020-07-30T07:16:26Z</time>
      </trkpt>
      <trkpt lat="42.7522340" lon="1.7714950">
        <ele>629.6</ele>
        <time>2020-07-30T07:16:27Z</time>
      </trkpt>
      <trkpt lat="42.7521380" lon="1.7715550">
        <ele>630.8</ele>
        <time>2020-07-30T07:16:30Z</time>
      </trkpt>
      <trkpt lat="42.7521120" lon="1.7715710">
        <ele>631.2</ele>
        <time>2020-07-30T07:16:31Z</time>
      </trkpt>
      <trkpt lat="42.7520520" lon="1.7716070">
        <ele>631.8</ele>
        <time>2020-07-30T07:16:33Z</time>
      </trkpt>
      <trkpt lat="42.7519500" lon="1.7716600">
        <ele>633.0</ele>
        <time>2020-07-30T07:16:36Z</time>
      </trkpt>
      <trkpt lat="42.7519200" lon="1.7716720">
        <ele>633.4</ele>
        <time>2020-07-30T07:16:37Z</time>
      </trkpt>
      <trkpt lat="42.7518230" lon="1.7717140">
        <ele>634.2</ele>
        <time>2020-07-30T07:16:40Z</time>
      </trkpt>
      <trkpt lat="42.7516990" lon="1.7717900">
        <ele>635.2</ele>
        <time>2020-07-30T07:16:44Z</time>
      </trkpt>
      <trkpt lat="42.7516720" lon="1.7718100">
        <ele>635.4</ele>
        <time>2020-07-30T07:16:45Z</time>
      </trkpt>
      <trkpt lat="42.7515610" lon="1.7718830">
        <ele>636.0</ele>
        <time>2020-07-30T07:16:49Z</time>
      </trkpt>
      <trkpt lat="42.7514980" lon="1.7719140">
        <ele>636.4</ele>
        <time>2020-07-30T07:16:51Z</time>
      </trkpt>
      <trkpt lat="42.7513720" lon="1.7719590">
        <ele>637.6</ele>
        <time>2020-07-30T07:16:55Z</time>
      </trkpt>
      <trkpt lat="42.7512140" lon="1.7720180">
        <ele>638.6</ele>
        <time>2020-07-30T07:17:00Z</time>
      </trkpt>
      <trkpt lat="42.7511200" lon="1.7720610">
        <ele>639.2</ele>
        <time>2020-07-30T07:17:03Z</time>
      </trkpt>
      <trkpt lat="42.7510330" lon="1.7721090">
        <ele>639.4</ele>
        <time>2020-07-30T07:17:06Z</time>
      </trkpt>
      <trkpt lat="42.7509160" lon="1.7721620">
        <ele>640.8</ele>
        <time>2020-07-30T07:17:10Z</time>
      </trkpt>
      <trkpt lat="42.7508410" lon="1.7722090">
        <ele>641.8</ele>
        <time>2020-07-30T07:17:13Z</time>
      </trkpt>
      <trkpt lat="42.7507470" lon="1.7722430">
        <ele>642.6</ele>
        <time>2020-07-30T07:17:16Z</time>
      </trkpt>
      <trkpt lat="42.7507140" lon="1.7722560">
        <ele>643.0</ele>
        <time>2020-07-30T07:17:17Z</time>
      </trkpt>
      <trkpt lat="42.7505580" lon="1.7723220">
        <ele>644.0</ele>
        <time>2020-07-30T07:17:22Z</time>
      </trkpt>
      <trkpt lat="42.7504640" lon="1.7723600">
        <ele>644.6</ele>
        <time>2020-07-30T07:17:25Z</time>
      </trkpt>
      <trkpt lat="42.7504080" lon="1.7723940">
        <ele>645.0</ele>
        <time>2020-07-30T07:17:27Z</time>
      </trkpt>
      <trkpt lat="42.7502940" lon="1.7724470">
        <ele>645.8</ele>
        <time>2020-07-30T07:17:31Z</time>
      </trkpt>
      <trkpt lat="42.7502710" lon="1.7724530">
        <ele>646.0</ele>
        <time>2020-07-30T07:17:32Z</time>
      </trkpt>
      <trkpt lat="42.7501800" lon="1.7724860">
        <ele>647.0</ele>
        <time>2020-07-30T07:17:36Z</time>
      </trkpt>
      <trkpt lat="42.7501560" lon="1.7724950">
        <ele>647.4</ele>
        <time>2020-07-30T07:17:37Z</time>
      </trkpt>
      <trkpt lat="42.7500770" lon="1.7725210">
        <ele>648.2</ele>
        <time>2020-07-30T07:17:40Z</time>
      </trkpt>
      <trkpt lat="42.7499880" lon="1.7725420">
        <ele>649.2</ele>
        <time>2020-07-30T07:17:43Z</time>
      </trkpt>
      <trkpt lat="42.7499610" lon="1.7725490">
        <ele>649.4</ele>
        <time>2020-07-30T07:17:44Z</time>
      </trkpt>
      <trkpt lat="42.7498300" lon="1.7726140">
        <ele>650.4</ele>
        <time>2020-07-30T07:17:48Z</time>
      </trkpt>
      <trkpt lat="42.7496970" lon="1.7726830">
        <ele>651.4</ele>
        <time>2020-07-30T07:17:52Z</time>
      </trkpt>
      <trkpt lat="42.7495900" lon="1.7727620">
        <ele>652.6</ele>
        <time>2020-07-30T07:17:57Z</time>
      </trkpt>
      <trkpt lat="42.7495700" lon="1.7727790">
        <ele>653.0</ele>
        <time>2020-07-30T07:17:58Z</time>
      </trkpt>
      <trkpt lat="42.7494960" lon="1.7728290">
        <ele>653.8</ele>
        <time>2020-07-30T07:18:01Z</time>
      </trkpt>
      <trkpt lat="42.7494070" lon="1.7728710">
        <ele>654.4</ele>
        <time>2020-07-30T07:18:04Z</time>
      </trkpt>
      <trkpt lat="42.7493420" lon="1.7729050">
        <ele>655.0</ele>
        <time>2020-07-30T07:18:06Z</time>
      </trkpt>
      <trkpt lat="42.7491970" lon="1.7730130">
        <ele>655.8</ele>
        <time>2020-07-30T07:18:10Z</time>
      </trkpt>
      <trkpt lat="42.7491630" lon="1.7730470">
        <ele>656.6</ele>
        <time>2020-07-30T07:18:11Z</time>
      </trkpt>
      <trkpt lat="42.7491270" lon="1.7730820">
        <ele>656.6</ele>
        <time>2020-07-30T07:18:12Z</time>
      </trkpt>
      <trkpt lat="42.7490930" lon="1.7731150">
        <ele>656.8</ele>
        <time>2020-07-30T07:18:13Z</time>
      </trkpt>
      <trkpt lat="42.7489220" lon="1.7733090">
        <ele>658.0</ele>
        <time>2020-07-30T07:18:18Z</time>
      </trkpt>
      <trkpt lat="42.7488900" lon="1.7733540">
        <ele>658.2</ele>
        <time>2020-07-30T07:18:19Z</time>
      </trkpt>
      <trkpt lat="42.7486530" lon="1.7737000">
        <ele>658.6</ele>
        <time>2020-07-30T07:18:25Z</time>
      </trkpt>
      <trkpt lat="42.7483940" lon="1.7740640">
        <ele>658.6</ele>
        <time>2020-07-30T07:18:31Z</time>
      </trkpt>
      <trkpt lat="42.7480420" lon="1.7745840">
        <ele>657.8</ele>
        <time>2020-07-30T07:18:39Z</time>
      </trkpt>
      <trkpt lat="42.7478050" lon="1.7748200">
        <ele>657.6</ele>
        <time>2020-07-30T07:18:44Z</time>
      </trkpt>
      <trkpt lat="42.7474360" lon="1.7751240">
        <ele>657.6</ele>
        <time>2020-07-30T07:18:51Z</time>
      </trkpt>
      <trkpt lat="42.7471880" lon="1.7753560">
        <ele>657.6</ele>
        <time>2020-07-30T07:18:56Z</time>
      </trkpt>
      <trkpt lat="42.7470300" lon="1.7754790">
        <ele>657.8</ele>
        <time>2020-07-30T07:18:59Z</time>
      </trkpt>
      <trkpt lat="42.7469160" lon="1.7755390">
        <ele>657.8</ele>
        <time>2020-07-30T07:19:01Z</time>
      </trkpt>
      <trkpt lat="42.7468640" lon="1.7755790">
        <ele>657.8</ele>
        <time>2020-07-30T07:19:02Z</time>
      </trkpt>
      <trkpt lat="42.7466340" lon="1.7757510">
        <ele>657.6</ele>
        <time>2020-07-30T07:19:05Z</time>
      </trkpt>
      <trkpt lat="42.7461650" lon="1.7760860">
        <ele>657.0</ele>
        <time>2020-07-30T07:19:11Z</time>
      </trkpt>
      <trkpt lat="42.7460920" lon="1.7761370">
        <ele>656.8</ele>
        <time>2020-07-30T07:19:12Z</time>
      </trkpt>
      <trkpt lat="42.7458650" lon="1.7763140">
        <ele>656.2</ele>
        <time>2020-07-30T07:19:15Z</time>
      </trkpt>
      <trkpt lat="42.7457880" lon="1.7763790">
        <ele>656.0</ele>
        <time>2020-07-30T07:19:16Z</time>
      </trkpt>
      <trkpt lat="42.7456450" lon="1.7765330">
        <ele>655.6</ele>
        <time>2020-07-30T07:19:18Z</time>
      </trkpt>
      <trkpt lat="42.7455210" lon="1.7766890">
        <ele>655.4</ele>
        <time>2020-07-30T07:19:20Z</time>
      </trkpt>
      <trkpt lat="42.7452030" lon="1.7772630">
        <ele>655.2</ele>
        <time>2020-07-30T07:19:26Z</time>
      </trkpt>
      <trkpt lat="42.7448310" lon="1.7779140">
        <ele>655.0</ele>
        <time>2020-07-30T07:19:33Z</time>
      </trkpt>
      <trkpt lat="42.7445610" lon="1.7782150">
        <ele>654.4</ele>
        <time>2020-07-30T07:19:37Z</time>
      </trkpt>
      <trkpt lat="42.7444840" lon="1.7782780">
        <ele>654.2</ele>
        <time>2020-07-30T07:19:38Z</time>
      </trkpt>
      <trkpt lat="42.7443220" lon="1.7783990">
        <ele>653.4</ele>
        <time>2020-07-30T07:19:40Z</time>
      </trkpt>
      <trkpt lat="42.7439650" lon="1.7786140">
        <ele>652.0</ele>
        <time>2020-07-30T07:19:44Z</time>
      </trkpt>
      <trkpt lat="42.7436810" lon="1.7788020">
        <ele>650.8</ele>
        <time>2020-07-30T07:19:47Z</time>
      </trkpt>
      <trkpt lat="42.7434030" lon="1.7790030">
        <ele>649.2</ele>
        <time>2020-07-30T07:19:50Z</time>
      </trkpt>
      <trkpt lat="42.7433150" lon="1.7790860">
        <ele>648.4</ele>
        <time>2020-07-30T07:19:51Z</time>
      </trkpt>
      <trkpt lat="42.7432320" lon="1.7791760">
        <ele>647.4</ele>
        <time>2020-07-30T07:19:52Z</time>
      </trkpt>
      <trkpt lat="42.7430840" lon="1.7793850">
        <ele>646.0</ele>
        <time>2020-07-30T07:19:54Z</time>
      </trkpt>
      <trkpt lat="42.7430160" lon="1.7795010">
        <ele>645.4</ele>
        <time>2020-07-30T07:19:55Z</time>
      </trkpt>
      <trkpt lat="42.7429540" lon="1.7796200">
        <ele>645.0</ele>
        <time>2020-07-30T07:19:56Z</time>
      </trkpt>
      <trkpt lat="42.7427910" lon="1.7799840">
        <ele>643.6</ele>
        <time>2020-07-30T07:19:59Z</time>
      </trkpt>
      <trkpt lat="42.7427420" lon="1.7801000">
        <ele>643.0</ele>
        <time>2020-07-30T07:20:00Z</time>
      </trkpt>
      <trkpt lat="42.7426470" lon="1.7803270">
        <ele>642.6</ele>
        <time>2020-07-30T07:20:02Z</time>
      </trkpt>
      <trkpt lat="42.7424210" lon="1.7808740">
        <ele>642.0</ele>
        <time>2020-07-30T07:20:07Z</time>
      </trkpt>
      <trkpt lat="42.7421340" lon="1.7815710">
        <ele>642.2</ele>
        <time>2020-07-30T07:20:14Z</time>
      </trkpt>
      <trkpt lat="42.7420950" lon="1.7816680">
        <ele>642.4</ele>
        <time>2020-07-30T07:20:15Z</time>
      </trkpt>
      <trkpt lat="42.7418290" lon="1.7823290">
        <ele>643.0</ele>
        <time>2020-07-30T07:20:22Z</time>
      </trkpt>
      <trkpt lat="42.7417520" lon="1.7825080">
        <ele>643.2</ele>
        <time>2020-07-30T07:20:24Z</time>
      </trkpt>
      <trkpt lat="42.7416770" lon="1.7826870">
        <ele>643.4</ele>
        <time>2020-07-30T07:20:26Z</time>
      </trkpt>
      <trkpt lat="42.7414840" lon="1.7831460">
        <ele>643.8</ele>
        <time>2020-07-30T07:20:31Z</time>
      </trkpt>
      <trkpt lat="42.7411530" lon="1.7837880">
        <ele>643.8</ele>
        <time>2020-07-30T07:20:39Z</time>
      </trkpt>
      <trkpt lat="42.7408700" lon="1.7842270">
        <ele>643.8</ele>
        <time>2020-07-30T07:20:45Z</time>
      </trkpt>
      <trkpt lat="42.7405890" lon="1.7846390">
        <ele>644.2</ele>
        <time>2020-07-30T07:20:51Z</time>
      </trkpt>
      <trkpt lat="42.7404510" lon="1.7848270">
        <ele>644.6</ele>
        <time>2020-07-30T07:20:54Z</time>
      </trkpt>
      <trkpt lat="42.7400620" lon="1.7854610">
        <ele>645.0</ele>
        <time>2020-07-30T07:21:03Z</time>
      </trkpt>
      <trkpt lat="42.7399550" lon="1.7856940">
        <ele>645.2</ele>
        <time>2020-07-30T07:21:06Z</time>
      </trkpt>
      <trkpt lat="42.7398340" lon="1.7859930">
        <ele>645.4</ele>
        <time>2020-07-30T07:21:10Z</time>
      </trkpt>
      <trkpt lat="42.7396980" lon="1.7865300">
        <ele>646.0</ele>
        <time>2020-07-30T07:21:17Z</time>
      </trkpt>
      <trkpt lat="42.7396710" lon="1.7866710">
        <ele>646.2</ele>
        <time>2020-07-30T07:21:19Z</time>
      </trkpt>
      <trkpt lat="42.7396240" lon="1.7870040">
        <ele>646.8</ele>
        <time>2020-07-30T07:21:24Z</time>
      </trkpt>
      <trkpt lat="42.7396170" lon="1.7870660">
        <ele>647.0</ele>
        <time>2020-07-30T07:21:25Z</time>
      </trkpt>
      <trkpt lat="42.7395910" lon="1.7873030">
        <ele>648.2</ele>
        <time>2020-07-30T07:21:29Z</time>
      </trkpt>
      <trkpt lat="42.7395700" lon="1.7874810">
        <ele>648.8</ele>
        <time>2020-07-30T07:21:32Z</time>
      </trkpt>
      <trkpt lat="42.7395500" lon="1.7876610">
        <ele>649.6</ele>
        <time>2020-07-30T07:21:35Z</time>
      </trkpt>
      <trkpt lat="42.7395420" lon="1.7877190">
        <ele>649.6</ele>
        <time>2020-07-30T07:21:36Z</time>
      </trkpt>
      <trkpt lat="42.7395200" lon="1.7878860">
        <ele>650.4</ele>
        <time>2020-07-30T07:21:39Z</time>
      </trkpt>
      <trkpt lat="42.7395140" lon="1.7879400">
        <ele>650.8</ele>
        <time>2020-07-30T07:21:40Z</time>
      </trkpt>
      <trkpt lat="42.7394710" lon="1.7882910">
        <ele>651.6</ele>
        <time>2020-07-30T07:21:46Z</time>
      </trkpt>
      <trkpt lat="42.7393520" lon="1.7886840">
        <ele>653.0</ele>
        <time>2020-07-30T07:21:53Z</time>
      </trkpt>
      <trkpt lat="42.7393290" lon="1.7887440">
        <ele>653.4</ele>
        <time>2020-07-30T07:21:54Z</time>
      </trkpt>
      <trkpt lat="42.7392780" lon="1.7888480">
        <ele>654.0</ele>
        <time>2020-07-30T07:21:56Z</time>
      </trkpt>
      <trkpt lat="42.7392500" lon="1.7888970">
        <ele>654.2</ele>
        <time>2020-07-30T07:21:57Z</time>
      </trkpt>
      <trkpt lat="42.7391610" lon="1.7890370">
        <ele>654.6</ele>
        <time>2020-07-30T07:22:00Z</time>
      </trkpt>
      <trkpt lat="42.7390300" lon="1.7891880">
        <ele>655.4</ele>
        <time>2020-07-30T07:22:04Z</time>
      </trkpt>
      <trkpt lat="42.7389970" lon="1.7892250">
        <ele>655.6</ele>
        <time>2020-07-30T07:22:05Z</time>
      </trkpt>
      <trkpt lat="42.7387520" lon="1.7894520">
        <ele>656.4</ele>
        <time>2020-07-30T07:22:11Z</time>
      </trkpt>
      <trkpt lat="42.7384090" lon="1.7895800">
        <ele>656.8</ele>
        <time>2020-07-30T07:22:18Z</time>
      </trkpt>
      <trkpt lat="42.7381100" lon="1.7895900">
        <ele>657.2</ele>
        <time>2020-07-30T07:22:24Z</time>
      </trkpt>
      <trkpt lat="42.7376870" lon="1.7896260">
        <ele>657.0</ele>
        <time>2020-07-30T07:22:32Z</time>
      </trkpt>
      <trkpt lat="42.7372470" lon="1.7897200">
        <ele>657.0</ele>
        <time>2020-07-30T07:22:40Z</time>
      </trkpt>
      <trkpt lat="42.7369800" lon="1.7898220">
        <ele>657.2</ele>
        <time>2020-07-30T07:22:45Z</time>
      </trkpt>
      <trkpt lat="42.7368730" lon="1.7898480">
        <ele>657.4</ele>
        <time>2020-07-30T07:22:47Z</time>
      </trkpt>
      <trkpt lat="42.7363780" lon="1.7900270">
        <ele>657.6</ele>
        <time>2020-07-30T07:22:56Z</time>
      </trkpt>
      <trkpt lat="42.7361600" lon="1.7901500">
        <ele>657.8</ele>
        <time>2020-07-30T07:23:00Z</time>
      </trkpt>
      <trkpt lat="42.7360470" lon="1.7902130">
        <ele>657.8</ele>
        <time>2020-07-30T07:23:02Z</time>
      </trkpt>
      <trkpt lat="42.7359940" lon="1.7902490">
        <ele>658.0</ele>
        <time>2020-07-30T07:23:03Z</time>
      </trkpt>
      <trkpt lat="42.7358450" lon="1.7903970">
        <ele>658.0</ele>
        <time>2020-07-30T07:23:06Z</time>
      </trkpt>
      <trkpt lat="42.7357980" lon="1.7904520">
        <ele>658.2</ele>
        <time>2020-07-30T07:23:07Z</time>
      </trkpt>
      <trkpt lat="42.7355430" lon="1.7907980">
        <ele>658.4</ele>
        <time>2020-07-30T07:23:13Z</time>
      </trkpt>
      <trkpt lat="42.7355080" lon="1.7908600">
        <ele>658.6</ele>
        <time>2020-07-30T07:23:14Z</time>
      </trkpt>
      <trkpt lat="42.7353610" lon="1.7911830">
        <ele>658.6</ele>
        <time>2020-07-30T07:23:19Z</time>
      </trkpt>
      <trkpt lat="42.7351660" lon="1.7917010">
        <ele>659.0</ele>
        <time>2020-07-30T07:23:27Z</time>
      </trkpt>
      <trkpt lat="42.7351380" lon="1.7917660">
        <ele>659.2</ele>
        <time>2020-07-30T07:23:28Z</time>
      </trkpt>
      <trkpt lat="42.7350590" lon="1.7919720">
        <ele>660.0</ele>
        <time>2020-07-30T07:23:31Z</time>
      </trkpt>
      <trkpt lat="42.7349500" lon="1.7922300">
        <ele>660.8</ele>
        <time>2020-07-30T07:23:35Z</time>
      </trkpt>
      <trkpt lat="42.7348190" lon="1.7925320">
        <ele>661.0</ele>
        <time>2020-07-30T07:23:40Z</time>
      </trkpt>
      <trkpt lat="42.7347130" lon="1.7927670">
        <ele>662.2</ele>
        <time>2020-07-30T07:23:44Z</time>
      </trkpt>
      <trkpt lat="42.7346860" lon="1.7928230">
        <ele>662.4</ele>
        <time>2020-07-30T07:23:45Z</time>
      </trkpt>
      <trkpt lat="42.7345170" lon="1.7932120">
        <ele>663.4</ele>
        <time>2020-07-30T07:23:51Z</time>
      </trkpt>
      <trkpt lat="42.7344060" lon="1.7934480">
        <ele>664.0</ele>
        <time>2020-07-30T07:23:55Z</time>
      </trkpt>
      <trkpt lat="42.7343510" lon="1.7935730">
        <ele>664.4</ele>
        <time>2020-07-30T07:23:57Z</time>
      </trkpt>
      <trkpt lat="42.7341300" lon="1.7941110">
        <ele>665.4</ele>
        <time>2020-07-30T07:24:05Z</time>
      </trkpt>
      <trkpt lat="42.7341020" lon="1.7941800">
        <ele>665.6</ele>
        <time>2020-07-30T07:24:06Z</time>
      </trkpt>
      <trkpt lat="42.7338870" lon="1.7947600">
        <ele>666.4</ele>
        <time>2020-07-30T07:24:14Z</time>
      </trkpt>
      <trkpt lat="42.7338320" lon="1.7949100">
        <ele>666.6</ele>
        <time>2020-07-30T07:24:16Z</time>
      </trkpt>
      <trkpt lat="42.7336000" lon="1.7956130">
        <ele>667.4</ele>
        <time>2020-07-30T07:24:25Z</time>
      </trkpt>
      <trkpt lat="42.7334120" lon="1.7962570">
        <ele>667.4</ele>
        <time>2020-07-30T07:24:33Z</time>
      </trkpt>
      <trkpt lat="42.7333430" lon="1.7965050">
        <ele>667.6</ele>
        <time>2020-07-30T07:24:36Z</time>
      </trkpt>
      <trkpt lat="42.7331270" lon="1.7972620">
        <ele>667.4</ele>
        <time>2020-07-30T07:24:45Z</time>
      </trkpt>
      <trkpt lat="42.7330520" lon="1.7975200">
        <ele>667.4</ele>
        <time>2020-07-30T07:24:48Z</time>
      </trkpt>
      <trkpt lat="42.7328400" lon="1.7982230">
        <ele>667.2</ele>
        <time>2020-07-30T07:24:56Z</time>
      </trkpt>
      <trkpt lat="42.7327530" lon="1.7984930">
        <ele>667.2</ele>
        <time>2020-07-30T07:24:59Z</time>
      </trkpt>
      <trkpt lat="42.7325040" lon="1.7991880">
        <ele>666.6</ele>
        <time>2020-07-30T07:25:07Z</time>
      </trkpt>
      <trkpt lat="42.7324050" lon="1.7994440">
        <ele>666.4</ele>
        <time>2020-07-30T07:25:10Z</time>
      </trkpt>
      <trkpt lat="42.7321160" lon="1.8001210">
        <ele>666.2</ele>
        <time>2020-07-30T07:25:18Z</time>
      </trkpt>
      <trkpt lat="42.7320100" lon="1.8003780">
        <ele>666.0</ele>
        <time>2020-07-30T07:25:21Z</time>
      </trkpt>
      <trkpt lat="42.7319330" lon="1.8005550">
        <ele>666.0</ele>
        <time>2020-07-30T07:25:23Z</time>
      </trkpt>
      <trkpt lat="42.7316810" lon="1.8010900">
        <ele>665.6</ele>
        <time>2020-07-30T07:25:29Z</time>
      </trkpt>
      <trkpt lat="42.7313630" lon="1.8017240">
        <ele>665.0</ele>
        <time>2020-07-30T07:25:36Z</time>
      </trkpt>
      <trkpt lat="42.7312280" lon="1.8019970">
        <ele>665.0</ele>
        <time>2020-07-30T07:25:39Z</time>
      </trkpt>
      <trkpt lat="42.7311830" lon="1.8020880">
        <ele>665.0</ele>
        <time>2020-07-30T07:25:40Z</time>
      </trkpt>
      <trkpt lat="42.7308720" lon="1.8027040">
        <ele>664.8</ele>
        <time>2020-07-30T07:25:47Z</time>
      </trkpt>
      <trkpt lat="42.7307420" lon="1.8029580">
        <ele>664.6</ele>
        <time>2020-07-30T07:25:50Z</time>
      </trkpt>
      <trkpt lat="42.7304050" lon="1.8036210">
        <ele>664.2</ele>
        <time>2020-07-30T07:25:58Z</time>
      </trkpt>
      <trkpt lat="42.7302830" lon="1.8038640">
        <ele>664.2</ele>
        <time>2020-07-30T07:26:01Z</time>
      </trkpt>
      <trkpt lat="42.7299560" lon="1.8044970">
        <ele>665.6</ele>
        <time>2020-07-30T07:26:09Z</time>
      </trkpt>
      <trkpt lat="42.7297900" lon="1.8048030">
        <ele>666.0</ele>
        <time>2020-07-30T07:26:13Z</time>
      </trkpt>
      <trkpt lat="42.7294490" lon="1.8053960">
        <ele>666.6</ele>
        <time>2020-07-30T07:26:21Z</time>
      </trkpt>
      <trkpt lat="42.7293160" lon="1.8056050">
        <ele>666.8</ele>
        <time>2020-07-30T07:26:24Z</time>
      </trkpt>
      <trkpt lat="42.7292250" lon="1.8057420">
        <ele>667.2</ele>
        <time>2020-07-30T07:26:26Z</time>
      </trkpt>
      <trkpt lat="42.7288070" lon="1.8063250">
        <ele>667.8</ele>
        <time>2020-07-30T07:26:35Z</time>
      </trkpt>
      <trkpt lat="42.7285170" lon="1.8066990">
        <ele>668.4</ele>
        <time>2020-07-30T07:26:41Z</time>
      </trkpt>
      <trkpt lat="42.7282800" lon="1.8069950">
        <ele>669.0</ele>
        <time>2020-07-30T07:26:46Z</time>
      </trkpt>
      <trkpt lat="42.7279550" lon="1.8073940">
        <ele>669.4</ele>
        <time>2020-07-30T07:26:53Z</time>
      </trkpt>
      <trkpt lat="42.7278540" lon="1.8074900">
        <ele>669.8</ele>
        <time>2020-07-30T07:26:55Z</time>
      </trkpt>
      <trkpt lat="42.7275470" lon="1.8078730">
        <ele>670.6</ele>
        <time>2020-07-30T07:27:02Z</time>
      </trkpt>
      <trkpt lat="42.7273020" lon="1.8082080">
        <ele>671.6</ele>
        <time>2020-07-30T07:27:08Z</time>
      </trkpt>
      <trkpt lat="42.7271490" lon="1.8084270">
        <ele>672.2</ele>
        <time>2020-07-30T07:27:12Z</time>
      </trkpt>
      <trkpt lat="42.7270430" lon="1.8085950">
        <ele>672.8</ele>
        <time>2020-07-30T07:27:15Z</time>
      </trkpt>
      <trkpt lat="42.7268450" lon="1.8089490">
        <ele>673.2</ele>
        <time>2020-07-30T07:27:21Z</time>
      </trkpt>
      <trkpt lat="42.7267830" lon="1.8090710">
        <ele>673.6</ele>
        <time>2020-07-30T07:27:23Z</time>
      </trkpt>
      <trkpt lat="42.7265330" lon="1.8095710">
        <ele>674.6</ele>
        <time>2020-07-30T07:27:31Z</time>
      </trkpt>
      <trkpt lat="42.7264710" lon="1.8096950">
        <ele>675.0</ele>
        <time>2020-07-30T07:27:33Z</time>
      </trkpt>
      <trkpt lat="42.7263510" lon="1.8099450">
        <ele>675.6</ele>
        <time>2020-07-30T07:27:37Z</time>
      </trkpt>
      <trkpt lat="42.7262710" lon="1.8101460">
        <ele>676.2</ele>
        <time>2020-07-30T07:27:40Z</time>
      </trkpt>
      <trkpt lat="42.7262210" lon="1.8102790">
        <ele>676.8</ele>
        <time>2020-07-30T07:27:42Z</time>
      </trkpt>
      <trkpt lat="42.7261030" lon="1.8106080">
        <ele>677.8</ele>
        <time>2020-07-30T07:27:47Z</time>
      </trkpt>
      <trkpt lat="42.7260790" lon="1.8106750">
        <ele>678.0</ele>
        <time>2020-07-30T07:27:48Z</time>
      </trkpt>
      <trkpt lat="42.7259550" lon="1.8110790">
        <ele>678.8</ele>
        <time>2020-07-30T07:27:54Z</time>
      </trkpt>
      <trkpt lat="42.7258820" lon="1.8113500">
        <ele>679.2</ele>
        <time>2020-07-30T07:27:58Z</time>
      </trkpt>
      <trkpt lat="42.7258310" lon="1.8115560">
        <ele>679.8</ele>
        <time>2020-07-30T07:28:01Z</time>
      </trkpt>
      <trkpt lat="42.7257660" lon="1.8118260">
        <ele>680.4</ele>
        <time>2020-07-30T07:28:05Z</time>
      </trkpt>
      <trkpt lat="42.7257150" lon="1.8120920">
        <ele>681.0</ele>
        <time>2020-07-30T07:28:09Z</time>
      </trkpt>
      <trkpt lat="42.7256540" lon="1.8124180">
        <ele>681.8</ele>
        <time>2020-07-30T07:28:14Z</time>
      </trkpt>
      <trkpt lat="42.7256430" lon="1.8124800">
        <ele>681.8</ele>
        <time>2020-07-30T07:28:15Z</time>
      </trkpt>
      <trkpt lat="42.7255590" lon="1.8129890">
        <ele>682.8</ele>
        <time>2020-07-30T07:28:23Z</time>
      </trkpt>
      <trkpt lat="42.7255390" lon="1.8131060">
        <ele>683.4</ele>
        <time>2020-07-30T07:28:25Z</time>
      </trkpt>
      <trkpt lat="42.7255120" lon="1.8132750">
        <ele>684.0</ele>
        <time>2020-07-30T07:28:28Z</time>
      </trkpt>
      <trkpt lat="42.7254690" lon="1.8135050">
        <ele>685.2</ele>
        <time>2020-07-30T07:28:32Z</time>
      </trkpt>
      <trkpt lat="42.7254590" lon="1.8135620">
        <ele>685.2</ele>
        <time>2020-07-30T07:28:33Z</time>
      </trkpt>
      <trkpt lat="42.7254070" lon="1.8138500">
        <ele>686.2</ele>
        <time>2020-07-30T07:28:38Z</time>
      </trkpt>
      <trkpt lat="42.7253760" lon="1.8140220">
        <ele>686.4</ele>
        <time>2020-07-30T07:28:41Z</time>
      </trkpt>
      <trkpt lat="42.7253200" lon="1.8143050">
        <ele>687.2</ele>
        <time>2020-07-30T07:28:46Z</time>
      </trkpt>
      <trkpt lat="42.7252830" lon="1.8145380">
        <ele>687.8</ele>
        <time>2020-07-30T07:28:50Z</time>
      </trkpt>
      <trkpt lat="42.7252740" lon="1.8145960">
        <ele>688.2</ele>
        <time>2020-07-30T07:28:51Z</time>
      </trkpt>
      <trkpt lat="42.7252220" lon="1.8148900">
        <ele>689.2</ele>
        <time>2020-07-30T07:28:56Z</time>
      </trkpt>
      <trkpt lat="42.7251860" lon="1.8151180">
        <ele>690.0</ele>
        <time>2020-07-30T07:29:00Z</time>
      </trkpt>
      <trkpt lat="42.7251570" lon="1.8152930">
        <ele>690.4</ele>
        <time>2020-07-30T07:29:03Z</time>
      </trkpt>
      <trkpt lat="42.7250890" lon="1.8156530">
        <ele>691.4</ele>
        <time>2020-07-30T07:29:09Z</time>
      </trkpt>
      <trkpt lat="42.7250220" lon="1.8160280">
        <ele>692.4</ele>
        <time>2020-07-30T07:29:15Z</time>
      </trkpt>
      <trkpt lat="42.7249770" lon="1.8162770">
        <ele>693.2</ele>
        <time>2020-07-30T07:29:19Z</time>
      </trkpt>
      <trkpt lat="42.7249650" lon="1.8163400">
        <ele>693.4</ele>
        <time>2020-07-30T07:29:20Z</time>
      </trkpt>
      <trkpt lat="42.7249180" lon="1.8166540">
        <ele>694.4</ele>
        <time>2020-07-30T07:29:25Z</time>
      </trkpt>
      <trkpt lat="42.7248850" lon="1.8168480">
        <ele>695.0</ele>
        <time>2020-07-30T07:29:28Z</time>
      </trkpt>
      <trkpt lat="42.7248530" lon="1.8170420">
        <ele>695.4</ele>
        <time>2020-07-30T07:29:31Z</time>
      </trkpt>
      <trkpt lat="42.7247980" lon="1.8173720">
        <ele>696.6</ele>
        <time>2020-07-30T07:29:36Z</time>
      </trkpt>
      <trkpt lat="42.7247870" lon="1.8174400">
        <ele>696.8</ele>
        <time>2020-07-30T07:29:37Z</time>
      </trkpt>
      <trkpt lat="42.7247750" lon="1.8175070">
        <ele>697.0</ele>
        <time>2020-07-30T07:29:38Z</time>
      </trkpt>
      <trkpt lat="42.7247250" lon="1.8177730">
        <ele>697.6</ele>
        <time>2020-07-30T07:29:42Z</time>
      </trkpt>
      <trkpt lat="42.7246400" lon="1.8182610">
        <ele>698.6</ele>
        <time>2020-07-30T07:29:49Z</time>
      </trkpt>
      <trkpt lat="42.7245290" lon="1.8189640">
        <ele>699.6</ele>
        <time>2020-07-30T07:29:59Z</time>
      </trkpt>
      <trkpt lat="42.7245150" lon="1.8190340">
        <ele>699.8</ele>
        <time>2020-07-30T07:30:00Z</time>
      </trkpt>
      <trkpt lat="42.7244530" lon="1.8195270">
        <ele>700.6</ele>
        <time>2020-07-30T07:30:07Z</time>
      </trkpt>
      <trkpt lat="42.7244470" lon="1.8195980">
        <ele>700.8</ele>
        <time>2020-07-30T07:30:08Z</time>
      </trkpt>
      <trkpt lat="42.7244180" lon="1.8200170">
        <ele>701.6</ele>
        <time>2020-07-30T07:30:14Z</time>
      </trkpt>
      <trkpt lat="42.7243980" lon="1.8202900">
        <ele>702.4</ele>
        <time>2020-07-30T07:30:18Z</time>
      </trkpt>
      <trkpt lat="42.7243900" lon="1.8204850">
        <ele>702.8</ele>
        <time>2020-07-30T07:30:21Z</time>
      </trkpt>
      <trkpt lat="42.7243710" lon="1.8208000">
        <ele>703.6</ele>
        <time>2020-07-30T07:30:26Z</time>
      </trkpt>
      <trkpt lat="42.7243670" lon="1.8208640">
        <ele>703.8</ele>
        <time>2020-07-30T07:30:27Z</time>
      </trkpt>
      <trkpt lat="42.7243510" lon="1.8211760">
        <ele>704.8</ele>
        <time>2020-07-30T07:30:32Z</time>
      </trkpt>
      <trkpt lat="42.7243420" lon="1.8214350">
        <ele>705.4</ele>
        <time>2020-07-30T07:30:36Z</time>
      </trkpt>
      <trkpt lat="42.7243390" lon="1.8216860">
        <ele>706.0</ele>
        <time>2020-07-30T07:30:40Z</time>
      </trkpt>
      <trkpt lat="42.7243460" lon="1.8220490">
        <ele>707.4</ele>
        <time>2020-07-30T07:30:46Z</time>
      </trkpt>
      <trkpt lat="42.7243490" lon="1.8221060">
        <ele>707.6</ele>
        <time>2020-07-30T07:30:47Z</time>
      </trkpt>
      <trkpt lat="42.7243630" lon="1.8225120">
        <ele>708.4</ele>
        <time>2020-07-30T07:30:54Z</time>
      </trkpt>
      <trkpt lat="42.7243810" lon="1.8226890">
        <ele>708.8</ele>
        <time>2020-07-30T07:30:57Z</time>
      </trkpt>
      <trkpt lat="42.7243900" lon="1.8228090">
        <ele>709.4</ele>
        <time>2020-07-30T07:30:59Z</time>
      </trkpt>
      <trkpt lat="42.7244300" lon="1.8232770">
        <ele>710.6</ele>
        <time>2020-07-30T07:31:07Z</time>
      </trkpt>
      <trkpt lat="42.7244370" lon="1.8233360">
        <ele>710.8</ele>
        <time>2020-07-30T07:31:08Z</time>
      </trkpt>
      <trkpt lat="42.7244530" lon="1.8236210">
        <ele>711.6</ele>
        <time>2020-07-30T07:31:13Z</time>
      </trkpt>
      <trkpt lat="42.7244620" lon="1.8237310">
        <ele>712.8</ele>
        <time>2020-07-30T07:31:15Z</time>
      </trkpt>
      <trkpt lat="42.7244690" lon="1.8238420">
        <ele>713.0</ele>
        <time>2020-07-30T07:31:17Z</time>
      </trkpt>
      <trkpt lat="42.7245110" lon="1.8241790">
        <ele>713.8</ele>
        <time>2020-07-30T07:31:23Z</time>
      </trkpt>
      <trkpt lat="42.7245230" lon="1.8243510">
        <ele>714.4</ele>
        <time>2020-07-30T07:31:26Z</time>
      </trkpt>
      <trkpt lat="42.7245540" lon="1.8246350">
        <ele>715.0</ele>
        <time>2020-07-30T07:31:31Z</time>
      </trkpt>
      <trkpt lat="42.7245650" lon="1.8248100">
        <ele>715.4</ele>
        <time>2020-07-30T07:31:34Z</time>
      </trkpt>
      <trkpt lat="42.7245800" lon="1.8249830">
        <ele>716.0</ele>
        <time>2020-07-30T07:31:37Z</time>
      </trkpt>
      <trkpt lat="42.7246040" lon="1.8252760">
        <ele>716.8</ele>
        <time>2020-07-30T07:31:42Z</time>
      </trkpt>
      <trkpt lat="42.7246090" lon="1.8253340">
        <ele>717.2</ele>
        <time>2020-07-30T07:31:43Z</time>
      </trkpt>
      <trkpt lat="42.7246230" lon="1.8256700">
        <ele>718.4</ele>
        <time>2020-07-30T07:31:49Z</time>
      </trkpt>
      <trkpt lat="42.7246290" lon="1.8258310">
        <ele>719.2</ele>
        <time>2020-07-30T07:31:52Z</time>
      </trkpt>
      <trkpt lat="42.7246280" lon="1.8259380">
        <ele>719.6</ele>
        <time>2020-07-30T07:31:54Z</time>
      </trkpt>
      <trkpt lat="42.7246350" lon="1.8262750">
        <ele>720.6</ele>
        <time>2020-07-30T07:32:00Z</time>
      </trkpt>
      <trkpt lat="42.7246340" lon="1.8263870">
        <ele>721.2</ele>
        <time>2020-07-30T07:32:02Z</time>
      </trkpt>
      <trkpt lat="42.7246270" lon="1.8264950">
        <ele>721.8</ele>
        <time>2020-07-30T07:32:04Z</time>
      </trkpt>
      <trkpt lat="42.7246270" lon="1.8268170">
        <ele>722.8</ele>
        <time>2020-07-30T07:32:10Z</time>
      </trkpt>
      <trkpt lat="42.7246120" lon="1.8269750">
        <ele>723.6</ele>
        <time>2020-07-30T07:32:13Z</time>
      </trkpt>
      <trkpt lat="42.7246070" lon="1.8270280">
        <ele>723.8</ele>
        <time>2020-07-30T07:32:14Z</time>
      </trkpt>
      <trkpt lat="42.7245740" lon="1.8274140">
        <ele>725.0</ele>
        <time>2020-07-30T07:32:21Z</time>
      </trkpt>
      <trkpt lat="42.7245690" lon="1.8274680">
        <ele>725.2</ele>
        <time>2020-07-30T07:32:22Z</time>
      </trkpt>
      <trkpt lat="42.7245380" lon="1.8276840">
        <ele>726.2</ele>
        <time>2020-07-30T07:32:26Z</time>
      </trkpt>
      <trkpt lat="42.7244860" lon="1.8279740">
        <ele>726.8</ele>
        <time>2020-07-30T07:32:31Z</time>
      </trkpt>
      <trkpt lat="42.7244600" lon="1.8280880">
        <ele>727.2</ele>
        <time>2020-07-30T07:32:33Z</time>
      </trkpt>
      <trkpt lat="42.7244230" lon="1.8282490">
        <ele>728.2</ele>
        <time>2020-07-30T07:32:36Z</time>
      </trkpt>
      <trkpt lat="42.7243690" lon="1.8284660">
        <ele>728.6</ele>
        <time>2020-07-30T07:32:40Z</time>
      </trkpt>
      <trkpt lat="42.7243350" lon="1.8285740">
        <ele>729.2</ele>
        <time>2020-07-30T07:32:42Z</time>
      </trkpt>
      <trkpt lat="42.7242680" lon="1.8287900">
        <ele>730.2</ele>
        <time>2020-07-30T07:32:46Z</time>
      </trkpt>
      <trkpt lat="42.7241970" lon="1.8290110">
        <ele>731.0</ele>
        <time>2020-07-30T07:32:50Z</time>
      </trkpt>
      <trkpt lat="42.7241790" lon="1.8290690">
        <ele>731.2</ele>
        <time>2020-07-30T07:32:51Z</time>
      </trkpt>
      <trkpt lat="42.7240530" lon="1.8294070">
        <ele>732.2</ele>
        <time>2020-07-30T07:32:57Z</time>
      </trkpt>
      <trkpt lat="42.7240320" lon="1.8294650">
        <ele>732.4</ele>
        <time>2020-07-30T07:32:58Z</time>
      </trkpt>
      <trkpt lat="42.7238540" lon="1.8298690">
        <ele>733.2</ele>
        <time>2020-07-30T07:33:06Z</time>
      </trkpt>
      <trkpt lat="42.7238310" lon="1.8299170">
        <ele>733.4</ele>
        <time>2020-07-30T07:33:07Z</time>
      </trkpt>
      <trkpt lat="42.7237310" lon="1.8301170">
        <ele>734.2</ele>
        <time>2020-07-30T07:33:11Z</time>
      </trkpt>
      <trkpt lat="42.7235750" lon="1.8304090">
        <ele>735.0</ele>
        <time>2020-07-30T07:33:17Z</time>
      </trkpt>
      <trkpt lat="42.7235190" lon="1.8305090">
        <ele>735.2</ele>
        <time>2020-07-30T07:33:19Z</time>
      </trkpt>
      <trkpt lat="42.7233380" lon="1.8307980">
        <ele>736.4</ele>
        <time>2020-07-30T07:33:25Z</time>
      </trkpt>
      <trkpt lat="42.7232430" lon="1.8309380">
        <ele>737.0</ele>
        <time>2020-07-30T07:33:28Z</time>
      </trkpt>
      <trkpt lat="42.7230770" lon="1.8311670">
        <ele>737.4</ele>
        <time>2020-07-30T07:33:33Z</time>
      </trkpt>
      <trkpt lat="42.7228730" lon="1.8314200">
        <ele>738.4</ele>
        <time>2020-07-30T07:33:39Z</time>
      </trkpt>
      <trkpt lat="42.7228380" lon="1.8314610">
        <ele>738.6</ele>
        <time>2020-07-30T07:33:40Z</time>
      </trkpt>
      <trkpt lat="42.7225600" lon="1.8317720">
        <ele>739.4</ele>
        <time>2020-07-30T07:33:48Z</time>
      </trkpt>
      <trkpt lat="42.7224540" lon="1.8318780">
        <ele>739.6</ele>
        <time>2020-07-30T07:33:51Z</time>
      </trkpt>
      <trkpt lat="42.7222750" lon="1.8320500">
        <ele>740.2</ele>
        <time>2020-07-30T07:33:56Z</time>
      </trkpt>
      <trkpt lat="42.7222030" lon="1.8321180">
        <ele>740.4</ele>
        <time>2020-07-30T07:33:58Z</time>
      </trkpt>
      <trkpt lat="42.7220930" lon="1.8322100">
        <ele>741.0</ele>
        <time>2020-07-30T07:34:01Z</time>
      </trkpt>
      <trkpt lat="42.7220200" lon="1.8322700">
        <ele>741.2</ele>
        <time>2020-07-30T07:34:03Z</time>
      </trkpt>
      <trkpt lat="42.7218280" lon="1.8324190">
        <ele>742.4</ele>
        <time>2020-07-30T07:34:08Z</time>
      </trkpt>
      <trkpt lat="42.7217090" lon="1.8325080">
        <ele>742.8</ele>
        <time>2020-07-30T07:34:11Z</time>
      </trkpt>
      <trkpt lat="42.7215830" lon="1.8325880">
        <ele>743.2</ele>
        <time>2020-07-30T07:34:14Z</time>
      </trkpt>
      <trkpt lat="42.7213340" lon="1.8327340">
        <ele>744.0</ele>
        <time>2020-07-30T07:34:20Z</time>
      </trkpt>
      <trkpt lat="42.7212090" lon="1.8328020">
        <ele>744.2</ele>
        <time>2020-07-30T07:34:23Z</time>
      </trkpt>
      <trkpt lat="42.7209170" lon="1.8329350">
        <ele>745.0</ele>
        <time>2020-07-30T07:34:30Z</time>
      </trkpt>
      <trkpt lat="42.7208340" lon="1.8329700">
        <ele>745.2</ele>
        <time>2020-07-30T07:34:32Z</time>
      </trkpt>
      <trkpt lat="42.7204930" lon="1.8331130">
        <ele>746.2</ele>
        <time>2020-07-30T07:34:40Z</time>
      </trkpt>
      <trkpt lat="42.7201620" lon="1.8332690">
        <ele>747.2</ele>
        <time>2020-07-30T07:34:48Z</time>
      </trkpt>
      <trkpt lat="42.7201190" lon="1.8332840">
        <ele>747.2</ele>
        <time>2020-07-30T07:34:49Z</time>
      </trkpt>
      <trkpt lat="42.7198190" lon="1.8333950">
        <ele>748.2</ele>
        <time>2020-07-30T07:34:56Z</time>
      </trkpt>
      <trkpt lat="42.7197310" lon="1.8334270">
        <ele>748.2</ele>
        <time>2020-07-30T07:34:58Z</time>
      </trkpt>
      <trkpt lat="42.7194670" lon="1.8335260">
        <ele>749.2</ele>
        <time>2020-07-30T07:35:04Z</time>
      </trkpt>
      <trkpt lat="42.7192940" lon="1.8335920">
        <ele>750.2</ele>
        <time>2020-07-30T07:35:08Z</time>
      </trkpt>
      <trkpt lat="42.7189080" lon="1.8337410">
        <ele>751.0</ele>
        <time>2020-07-30T07:35:17Z</time>
      </trkpt>
      <trkpt lat="42.7188650" lon="1.8337570">
        <ele>751.2</ele>
        <time>2020-07-30T07:35:18Z</time>
      </trkpt>
      <trkpt lat="42.7186250" lon="1.8338340">
        <ele>751.6</ele>
        <time>2020-07-30T07:35:24Z</time>
      </trkpt>
      <trkpt lat="42.7185450" lon="1.8338600">
        <ele>752.0</ele>
        <time>2020-07-30T07:35:26Z</time>
      </trkpt>
      <trkpt lat="42.7184560" lon="1.8338970">
        <ele>752.4</ele>
        <time>2020-07-30T07:35:28Z</time>
      </trkpt>
      <trkpt lat="42.7181950" lon="1.8340110">
        <ele>753.0</ele>
        <time>2020-07-30T07:35:34Z</time>
      </trkpt>
      <trkpt lat="42.7181100" lon="1.8340480">
        <ele>753.2</ele>
        <time>2020-07-30T07:35:36Z</time>
      </trkpt>
      <trkpt lat="42.7178080" lon="1.8341730">
        <ele>754.4</ele>
        <time>2020-07-30T07:35:43Z</time>
      </trkpt>
      <trkpt lat="42.7174620" lon="1.8343050">
        <ele>755.2</ele>
        <time>2020-07-30T07:35:51Z</time>
      </trkpt>
      <trkpt lat="42.7173750" lon="1.8343370">
        <ele>755.6</ele>
        <time>2020-07-30T07:35:53Z</time>
      </trkpt>
      <trkpt lat="42.7170620" lon="1.8344600">
        <ele>756.2</ele>
        <time>2020-07-30T07:36:00Z</time>
      </trkpt>
      <trkpt lat="42.7168790" lon="1.8345290">
        <ele>756.8</ele>
        <time>2020-07-30T07:36:04Z</time>
      </trkpt>
      <trkpt lat="42.7167910" lon="1.8345630">
        <ele>757.2</ele>
        <time>2020-07-30T07:36:06Z</time>
      </trkpt>
      <trkpt lat="42.7165120" lon="1.8346650">
        <ele>757.6</ele>
        <time>2020-07-30T07:36:12Z</time>
      </trkpt>
      <trkpt lat="42.7163310" lon="1.8347480">
        <ele>758.0</ele>
        <time>2020-07-30T07:36:16Z</time>
      </trkpt>
      <trkpt lat="42.7161980" lon="1.8348130">
        <ele>758.4</ele>
        <time>2020-07-30T07:36:19Z</time>
      </trkpt>
      <trkpt lat="42.7159670" lon="1.8349150">
        <ele>759.2</ele>
        <time>2020-07-30T07:36:24Z</time>
      </trkpt>
      <trkpt lat="42.7157820" lon="1.8349940">
        <ele>760.0</ele>
        <time>2020-07-30T07:36:28Z</time>
      </trkpt>
      <trkpt lat="42.7156910" lon="1.8350270">
        <ele>760.4</ele>
        <time>2020-07-30T07:36:30Z</time>
      </trkpt>
      <trkpt lat="42.7154250" lon="1.8351010">
        <ele>761.0</ele>
        <time>2020-07-30T07:36:36Z</time>
      </trkpt>
      <trkpt lat="42.7153800" lon="1.8351110">
        <ele>761.2</ele>
        <time>2020-07-30T07:36:37Z</time>
      </trkpt>
      <trkpt lat="42.7152870" lon="1.8351270">
        <ele>761.4</ele>
        <time>2020-07-30T07:36:39Z</time>
      </trkpt>
      <trkpt lat="42.7150030" lon="1.8351940">
        <ele>762.4</ele>
        <time>2020-07-30T07:36:45Z</time>
      </trkpt>
      <trkpt lat="42.7149570" lon="1.8352040">
        <ele>762.6</ele>
        <time>2020-07-30T07:36:46Z</time>
      </trkpt>
      <trkpt lat="42.7146070" lon="1.8352570">
        <ele>763.2</ele>
        <time>2020-07-30T07:36:54Z</time>
      </trkpt>
      <trkpt lat="42.7144770" lon="1.8352720">
        <ele>763.4</ele>
        <time>2020-07-30T07:36:57Z</time>
      </trkpt>
      <trkpt lat="42.7141580" lon="1.8352940">
        <ele>764.4</ele>
        <time>2020-07-30T07:37:04Z</time>
      </trkpt>
      <trkpt lat="42.7137970" lon="1.8352860">
        <ele>765.4</ele>
        <time>2020-07-30T07:37:12Z</time>
      </trkpt>
      <trkpt lat="42.7137520" lon="1.8352830">
        <ele>765.4</ele>
        <time>2020-07-30T07:37:13Z</time>
      </trkpt>
      <trkpt lat="42.7134310" lon="1.8352610">
        <ele>766.2</ele>
        <time>2020-07-30T07:37:20Z</time>
      </trkpt>
      <trkpt lat="42.7132820" lon="1.8352650">
        <ele>766.8</ele>
        <time>2020-07-30T07:37:23Z</time>
      </trkpt>
      <trkpt lat="42.7130840" lon="1.8352690">
        <ele>768.0</ele>
        <time>2020-07-30T07:37:27Z</time>
      </trkpt>
      <trkpt lat="42.7129870" lon="1.8352690">
        <ele>768.4</ele>
        <time>2020-07-30T07:37:29Z</time>
      </trkpt>
      <trkpt lat="42.7127950" lon="1.8352620">
        <ele>768.8</ele>
        <time>2020-07-30T07:37:33Z</time>
      </trkpt>
      <trkpt lat="42.7125030" lon="1.8352590">
        <ele>769.6</ele>
        <time>2020-07-30T07:37:39Z</time>
      </trkpt>
      <trkpt lat="42.7123060" lon="1.8352530">
        <ele>769.8</ele>
        <time>2020-07-30T07:37:43Z</time>
      </trkpt>
      <trkpt lat="42.7120100" lon="1.8352550">
        <ele>770.6</ele>
        <time>2020-07-30T07:37:49Z</time>
      </trkpt>
      <trkpt lat="42.7119120" lon="1.8352620">
        <ele>771.0</ele>
        <time>2020-07-30T07:37:51Z</time>
      </trkpt>
      <trkpt lat="42.7116220" lon="1.8352770">
        <ele>772.2</ele>
        <time>2020-07-30T07:37:57Z</time>
      </trkpt>
      <trkpt lat="42.7115720" lon="1.8352820">
        <ele>772.0</ele>
        <time>2020-07-30T07:37:58Z</time>
      </trkpt>
      <trkpt lat="42.7112370" lon="1.8353010">
        <ele>773.0</ele>
        <time>2020-07-30T07:38:05Z</time>
      </trkpt>
      <trkpt lat="42.7111890" lon="1.8353040">
        <ele>773.2</ele>
        <time>2020-07-30T07:38:06Z</time>
      </trkpt>
      <trkpt lat="42.7107920" lon="1.8353750">
        <ele>774.0</ele>
        <time>2020-07-30T07:38:14Z</time>
      </trkpt>
      <trkpt lat="42.7107400" lon="1.8353880">
        <ele>774.0</ele>
        <time>2020-07-30T07:38:15Z</time>
      </trkpt>
      <trkpt lat="42.7104880" lon="1.8354540">
        <ele>774.8</ele>
        <time>2020-07-30T07:38:20Z</time>
      </trkpt>
      <trkpt lat="42.7103900" lon="1.8354830">
        <ele>775.2</ele>
        <time>2020-07-30T07:38:22Z</time>
      </trkpt>
      <trkpt lat="42.7102930" lon="1.8355140">
        <ele>776.0</ele>
        <time>2020-07-30T07:38:24Z</time>
      </trkpt>
      <trkpt lat="42.7100970" lon="1.8355660">
        <ele>777.0</ele>
        <time>2020-07-30T07:38:28Z</time>
      </trkpt>
      <trkpt lat="42.7099470" lon="1.8356030">
        <ele>777.4</ele>
        <time>2020-07-30T07:38:31Z</time>
      </trkpt>
      <trkpt lat="42.7096020" lon="1.8356940">
        <ele>778.2</ele>
        <time>2020-07-30T07:38:38Z</time>
      </trkpt>
      <trkpt lat="42.7095050" lon="1.8357210">
        <ele>778.4</ele>
        <time>2020-07-30T07:38:40Z</time>
      </trkpt>
      <trkpt lat="42.7091210" lon="1.8358250">
        <ele>779.2</ele>
        <time>2020-07-30T07:38:48Z</time>
      </trkpt>
      <trkpt lat="42.7089770" lon="1.8358630">
        <ele>779.6</ele>
        <time>2020-07-30T07:38:51Z</time>
      </trkpt>
      <trkpt lat="42.7086960" lon="1.8359390">
        <ele>780.4</ele>
        <time>2020-07-30T07:38:57Z</time>
      </trkpt>
      <trkpt lat="42.7084620" lon="1.8360020">
        <ele>781.2</ele>
        <time>2020-07-30T07:39:02Z</time>
      </trkpt>
      <trkpt lat="42.7082790" lon="1.8360520">
        <ele>781.8</ele>
        <time>2020-07-30T07:39:06Z</time>
      </trkpt>
      <trkpt lat="42.7079060" lon="1.8361590">
        <ele>782.8</ele>
        <time>2020-07-30T07:39:14Z</time>
      </trkpt>
      <trkpt lat="42.7075170" lon="1.8362670">
        <ele>784.0</ele>
        <time>2020-07-30T07:39:22Z</time>
      </trkpt>
      <trkpt lat="42.7073250" lon="1.8362810">
        <ele>784.4</ele>
        <time>2020-07-30T07:39:26Z</time>
      </trkpt>
      <trkpt lat="42.7072360" lon="1.8362380">
        <ele>784.8</ele>
        <time>2020-07-30T07:39:28Z</time>
      </trkpt>
      <trkpt lat="42.7071920" lon="1.8362140">
        <ele>785.0</ele>
        <time>2020-07-30T07:39:29Z</time>
      </trkpt>
      <trkpt lat="42.7070560" lon="1.8362230">
        <ele>785.2</ele>
        <time>2020-07-30T07:39:32Z</time>
      </trkpt>
      <trkpt lat="42.7069480" lon="1.8363410">
        <ele>785.4</ele>
        <time>2020-07-30T07:39:35Z</time>
      </trkpt>
      <trkpt lat="42.7069100" lon="1.8363830">
        <ele>785.6</ele>
        <time>2020-07-30T07:39:36Z</time>
      </trkpt>
      <trkpt lat="42.7067740" lon="1.8364740">
        <ele>786.0</ele>
        <time>2020-07-30T07:39:39Z</time>
      </trkpt>
      <trkpt lat="42.7066870" lon="1.8365120">
        <ele>786.4</ele>
        <time>2020-07-30T07:39:41Z</time>
      </trkpt>
      <trkpt lat="42.7063800" lon="1.8366430">
        <ele>787.0</ele>
        <time>2020-07-30T07:39:49Z</time>
      </trkpt>
      <trkpt lat="42.7063450" lon="1.8366600">
        <ele>787.2</ele>
        <time>2020-07-30T07:39:50Z</time>
      </trkpt>
      <trkpt lat="42.7062370" lon="1.8367020">
        <ele>788.6</ele>
        <time>2020-07-30T07:39:53Z</time>
      </trkpt>
      <trkpt lat="42.7060870" lon="1.8367510">
        <ele>789.8</ele>
        <time>2020-07-30T07:39:57Z</time>
      </trkpt>
      <trkpt lat="42.7059430" lon="1.8367670">
        <ele>790.8</ele>
        <time>2020-07-30T07:40:01Z</time>
      </trkpt>
      <trkpt lat="42.7058710" lon="1.8367520">
        <ele>791.4</ele>
        <time>2020-07-30T07:40:03Z</time>
      </trkpt>
      <trkpt lat="42.7057590" lon="1.8367190">
        <ele>792.0</ele>
        <time>2020-07-30T07:40:06Z</time>
      </trkpt>
      <trkpt lat="42.7056370" lon="1.8366890">
        <ele>792.8</ele>
        <time>2020-07-30T07:40:09Z</time>
      </trkpt>
      <trkpt lat="42.7055970" lon="1.8366760">
        <ele>793.2</ele>
        <time>2020-07-30T07:40:10Z</time>
      </trkpt>
      <trkpt lat="42.7053680" lon="1.8366070">
        <ele>794.2</ele>
        <time>2020-07-30T07:40:16Z</time>
      </trkpt>
      <trkpt lat="42.7053270" lon="1.8365950">
        <ele>794.4</ele>
        <time>2020-07-30T07:40:17Z</time>
      </trkpt>
      <trkpt lat="42.7051350" lon="1.8365100">
        <ele>795.4</ele>
        <time>2020-07-30T07:40:22Z</time>
      </trkpt>
      <trkpt lat="42.7051000" lon="1.8364820">
        <ele>795.8</ele>
        <time>2020-07-30T07:40:23Z</time>
      </trkpt>
      <trkpt lat="42.7050060" lon="1.8363820">
        <ele>796.8</ele>
        <time>2020-07-30T07:40:26Z</time>
      </trkpt>
      <trkpt lat="42.7048850" lon="1.8362460">
        <ele>797.4</ele>
        <time>2020-07-30T07:40:30Z</time>
      </trkpt>
      <trkpt lat="42.7048240" lon="1.8361860">
        <ele>797.8</ele>
        <time>2020-07-30T07:40:32Z</time>
      </trkpt>
      <trkpt lat="42.7046320" lon="1.8360170">
        <ele>799.0</ele>
        <time>2020-07-30T07:40:38Z</time>
      </trkpt>
      <trkpt lat="42.7045630" lon="1.8359660">
        <ele>799.4</ele>
        <time>2020-07-30T07:40:40Z</time>
      </trkpt>
      <trkpt lat="42.7043860" lon="1.8358320">
        <ele>800.0</ele>
        <time>2020-07-30T07:40:45Z</time>
      </trkpt>
      <trkpt lat="42.7042120" lon="1.8357090">
        <ele>800.8</ele>
        <time>2020-07-30T07:40:50Z</time>
      </trkpt>
      <trkpt lat="42.7041510" lon="1.8356590">
        <ele>801.4</ele>
        <time>2020-07-30T07:40:52Z</time>
      </trkpt>
      <trkpt lat="42.7039900" lon="1.8355320">
        <ele>802.4</ele>
        <time>2020-07-30T07:40:57Z</time>
      </trkpt>
      <trkpt lat="42.7039550" lon="1.8355090">
        <ele>802.6</ele>
        <time>2020-07-30T07:40:58Z</time>
      </trkpt>
      <trkpt lat="42.7037740" lon="1.8353820">
        <ele>803.6</ele>
        <time>2020-07-30T07:41:03Z</time>
      </trkpt>
      <trkpt lat="42.7036310" lon="1.8352770">
        <ele>804.2</ele>
        <time>2020-07-30T07:41:07Z</time>
      </trkpt>
      <trkpt lat="42.7035260" lon="1.8351940">
        <ele>804.8</ele>
        <time>2020-07-30T07:41:10Z</time>
      </trkpt>
      <trkpt lat="42.7033520" lon="1.8350820">
        <ele>805.8</ele>
        <time>2020-07-30T07:41:15Z</time>
      </trkpt>
      <trkpt lat="42.7033180" lon="1.8350640">
        <ele>806.0</ele>
        <time>2020-07-30T07:41:16Z</time>
      </trkpt>
      <trkpt lat="42.7031720" lon="1.8350130">
        <ele>806.8</ele>
        <time>2020-07-30T07:41:20Z</time>
      </trkpt>
      <trkpt lat="42.7030250" lon="1.8349630">
        <ele>808.0</ele>
        <time>2020-07-30T07:41:24Z</time>
      </trkpt>
      <trkpt lat="42.7029880" lon="1.8349490">
        <ele>808.2</ele>
        <time>2020-07-30T07:41:25Z</time>
      </trkpt>
      <trkpt lat="42.7027930" lon="1.8348960">
        <ele>809.0</ele>
        <time>2020-07-30T07:41:30Z</time>
      </trkpt>
      <trkpt lat="42.7026560" lon="1.8348460">
        <ele>809.6</ele>
        <time>2020-07-30T07:41:34Z</time>
      </trkpt>
      <trkpt lat="42.7025560" lon="1.8348130">
        <ele>810.2</ele>
        <time>2020-07-30T07:41:37Z</time>
      </trkpt>
      <trkpt lat="42.7023850" lon="1.8347570">
        <ele>811.0</ele>
        <time>2020-07-30T07:41:42Z</time>
      </trkpt>
      <trkpt lat="42.7023120" lon="1.8347330">
        <ele>811.2</ele>
        <time>2020-07-30T07:41:44Z</time>
      </trkpt>
      <trkpt lat="42.7021390" lon="1.8346850">
        <ele>812.0</ele>
        <time>2020-07-30T07:41:48Z</time>
      </trkpt>
      <trkpt lat="42.7020980" lon="1.8346720">
        <ele>812.2</ele>
        <time>2020-07-30T07:41:49Z</time>
      </trkpt>
      <trkpt lat="42.7020600" lon="1.8346570">
        <ele>812.8</ele>
        <time>2020-07-30T07:41:50Z</time>
      </trkpt>
      <trkpt lat="42.7018670" lon="1.8345850">
        <ele>813.8</ele>
        <time>2020-07-30T07:41:55Z</time>
      </trkpt>
      <trkpt lat="42.7018280" lon="1.8345750">
        <ele>813.8</ele>
        <time>2020-07-30T07:41:56Z</time>
      </trkpt>
      <trkpt lat="42.7016450" lon="1.8345060">
        <ele>814.8</ele>
        <time>2020-07-30T07:42:01Z</time>
      </trkpt>
      <trkpt lat="42.7014660" lon="1.8344470">
        <ele>815.8</ele>
        <time>2020-07-30T07:42:06Z</time>
      </trkpt>
      <trkpt lat="42.7014310" lon="1.8344360">
        <ele>816.0</ele>
        <time>2020-07-30T07:42:07Z</time>
      </trkpt>
      <trkpt lat="42.7012590" lon="1.8343690">
        <ele>817.0</ele>
        <time>2020-07-30T07:42:12Z</time>
      </trkpt>
      <trkpt lat="42.7011510" lon="1.8343240">
        <ele>817.8</ele>
        <time>2020-07-30T07:42:15Z</time>
      </trkpt>
      <trkpt lat="42.7011130" lon="1.8343140">
        <ele>818.0</ele>
        <time>2020-07-30T07:42:16Z</time>
      </trkpt>
      <trkpt lat="42.7009710" lon="1.8342690">
        <ele>819.2</ele>
        <time>2020-07-30T07:42:20Z</time>
      </trkpt>
      <trkpt lat="42.7009010" lon="1.8342390">
        <ele>819.6</ele>
        <time>2020-07-30T07:42:22Z</time>
      </trkpt>
      <trkpt lat="42.7007340" lon="1.8341710">
        <ele>820.4</ele>
        <time>2020-07-30T07:42:27Z</time>
      </trkpt>
      <trkpt lat="42.7006970" lon="1.8341620">
        <ele>820.4</ele>
        <time>2020-07-30T07:42:28Z</time>
      </trkpt>
      <trkpt lat="42.7006560" lon="1.8341570">
        <ele>820.6</ele>
        <time>2020-07-30T07:42:29Z</time>
      </trkpt>
      <trkpt lat="42.7004880" lon="1.8341500">
        <ele>821.4</ele>
        <time>2020-07-30T07:42:33Z</time>
      </trkpt>
      <trkpt lat="42.7004030" lon="1.8341530">
        <ele>821.8</ele>
        <time>2020-07-30T07:42:35Z</time>
      </trkpt>
      <trkpt lat="42.7001560" lon="1.8341960">
        <ele>822.4</ele>
        <time>2020-07-30T07:42:40Z</time>
      </trkpt>
      <trkpt lat="42.7000410" lon="1.8342260">
        <ele>822.4</ele>
        <time>2020-07-30T07:42:42Z</time>
      </trkpt>
      <trkpt lat="42.6996720" lon="1.8343180">
        <ele>822.4</ele>
        <time>2020-07-30T07:42:48Z</time>
      </trkpt>
      <trkpt lat="42.6992930" lon="1.8344220">
        <ele>822.2</ele>
        <time>2020-07-30T07:42:54Z</time>
      </trkpt>
      <trkpt lat="42.6988490" lon="1.8346310">
        <ele>822.0</ele>
        <time>2020-07-30T07:43:01Z</time>
      </trkpt>
      <trkpt lat="42.6984470" lon="1.8346890">
        <ele>822.0</ele>
        <time>2020-07-30T07:43:07Z</time>
      </trkpt>
      <trkpt lat="42.6980970" lon="1.8346360">
        <ele>821.8</ele>
        <time>2020-07-30T07:43:13Z</time>
      </trkpt>
      <trkpt lat="42.6978140" lon="1.8345840">
        <ele>822.2</ele>
        <time>2020-07-30T07:43:19Z</time>
      </trkpt>
      <trkpt lat="42.6975230" lon="1.8345820">
        <ele>822.8</ele>
        <time>2020-07-30T07:43:25Z</time>
      </trkpt>
      <trkpt lat="42.6974300" lon="1.8345690">
        <ele>823.4</ele>
        <time>2020-07-30T07:43:27Z</time>
      </trkpt>
      <trkpt lat="42.6971740" lon="1.8345410">
        <ele>824.6</ele>
        <time>2020-07-30T07:43:32Z</time>
      </trkpt>
      <trkpt lat="42.6968950" lon="1.8344560">
        <ele>825.8</ele>
        <time>2020-07-30T07:43:38Z</time>
      </trkpt>
      <trkpt lat="42.6968500" lon="1.8344370">
        <ele>826.0</ele>
        <time>2020-07-30T07:43:39Z</time>
      </trkpt>
      <trkpt lat="42.6966850" lon="1.8343420">
        <ele>826.8</ele>
        <time>2020-07-30T07:43:43Z</time>
      </trkpt>
      <trkpt lat="42.6965130" lon="1.8342540">
        <ele>827.8</ele>
        <time>2020-07-30T07:43:47Z</time>
      </trkpt>
      <trkpt lat="42.6964250" lon="1.8342130">
        <ele>828.0</ele>
        <time>2020-07-30T07:43:49Z</time>
      </trkpt>
      <trkpt lat="42.6962510" lon="1.8341310">
        <ele>828.8</ele>
        <time>2020-07-30T07:43:53Z</time>
      </trkpt>
      <trkpt lat="42.6959610" lon="1.8339850">
        <ele>829.8</ele>
        <time>2020-07-30T07:44:00Z</time>
      </trkpt>
      <trkpt lat="42.6958780" lon="1.8339380">
        <ele>830.0</ele>
        <time>2020-07-30T07:44:02Z</time>
      </trkpt>
      <trkpt lat="42.6957910" lon="1.8339000">
        <ele>830.2</ele>
        <time>2020-07-30T07:44:04Z</time>
      </trkpt>
      <trkpt lat="42.6957540" lon="1.8338700">
        <ele>830.4</ele>
        <time>2020-07-30T07:44:05Z</time>
      </trkpt>
      <trkpt lat="42.6956490" lon="1.8337870">
        <ele>830.8</ele>
        <time>2020-07-30T07:44:08Z</time>
      </trkpt>
      <trkpt lat="42.6955280" lon="1.8337200">
        <ele>831.0</ele>
        <time>2020-07-30T07:44:11Z</time>
      </trkpt>
      <trkpt lat="42.6953450" lon="1.8335690">
        <ele>832.0</ele>
        <time>2020-07-30T07:44:16Z</time>
      </trkpt>
      <trkpt lat="42.6953140" lon="1.8335330">
        <ele>832.2</ele>
        <time>2020-07-30T07:44:17Z</time>
      </trkpt>
      <trkpt lat="42.6952800" lon="1.8335030">
        <ele>832.4</ele>
        <time>2020-07-30T07:44:18Z</time>
      </trkpt>
      <trkpt lat="42.6952440" lon="1.8334760">
        <ele>832.8</ele>
        <time>2020-07-30T07:44:19Z</time>
      </trkpt>
      <trkpt lat="42.6951360" lon="1.8334000">
        <ele>833.6</ele>
        <time>2020-07-30T07:44:22Z</time>
      </trkpt>
      <trkpt lat="42.6950320" lon="1.8333210">
        <ele>834.2</ele>
        <time>2020-07-30T07:44:25Z</time>
      </trkpt>
      <trkpt lat="42.6949680" lon="1.8332630">
        <ele>834.6</ele>
        <time>2020-07-30T07:44:27Z</time>
      </trkpt>
      <trkpt lat="42.6947530" lon="1.8330980">
        <ele>835.6</ele>
        <time>2020-07-30T07:44:33Z</time>
      </trkpt>
      <trkpt lat="42.6947040" lon="1.8330740">
        <ele>835.8</ele>
        <time>2020-07-30T07:44:34Z</time>
      </trkpt>
      <trkpt lat="42.6944280" lon="1.8329080">
        <ele>836.2</ele>
        <time>2020-07-30T07:44:40Z</time>
      </trkpt>
      <trkpt lat="42.6942970" lon="1.8328460">
        <ele>836.8</ele>
        <time>2020-07-30T07:44:43Z</time>
      </trkpt>
      <trkpt lat="42.6941530" lon="1.8327340">
        <ele>837.4</ele>
        <time>2020-07-30T07:44:47Z</time>
      </trkpt>
      <trkpt lat="42.6940800" lon="1.8326840">
        <ele>837.8</ele>
        <time>2020-07-30T07:44:49Z</time>
      </trkpt>
      <trkpt lat="42.6939680" lon="1.8326070">
        <ele>838.8</ele>
        <time>2020-07-30T07:44:52Z</time>
      </trkpt>
      <trkpt lat="42.6937620" lon="1.8324110">
        <ele>840.0</ele>
        <time>2020-07-30T07:44:58Z</time>
      </trkpt>
      <trkpt lat="42.6936490" lon="1.8323220">
        <ele>840.4</ele>
        <time>2020-07-30T07:45:01Z</time>
      </trkpt>
      <trkpt lat="42.6933850" lon="1.8321400">
        <ele>841.0</ele>
        <time>2020-07-30T07:45:08Z</time>
      </trkpt>
      <trkpt lat="42.6933530" lon="1.8321090">
        <ele>841.0</ele>
        <time>2020-07-30T07:45:09Z</time>
      </trkpt>
      <trkpt lat="42.6933180" lon="1.8320770">
        <ele>841.2</ele>
        <time>2020-07-30T07:45:10Z</time>
      </trkpt>
      <trkpt lat="42.6932500" lon="1.8320070">
        <ele>841.6</ele>
        <time>2020-07-30T07:45:12Z</time>
      </trkpt>
      <trkpt lat="42.6931740" lon="1.8319440">
        <ele>842.4</ele>
        <time>2020-07-30T07:45:14Z</time>
      </trkpt>
      <trkpt lat="42.6931370" lon="1.8319150">
        <ele>842.2</ele>
        <time>2020-07-30T07:45:15Z</time>
      </trkpt>
      <trkpt lat="42.6929230" lon="1.8317530">
        <ele>843.2</ele>
        <time>2020-07-30T07:45:21Z</time>
      </trkpt>
      <trkpt lat="42.6928510" lon="1.8316950">
        <ele>843.8</ele>
        <time>2020-07-30T07:45:23Z</time>
      </trkpt>
      <trkpt lat="42.6927040" lon="1.8315660">
        <ele>844.4</ele>
        <time>2020-07-30T07:45:27Z</time>
      </trkpt>
      <trkpt lat="42.6925920" lon="1.8314720">
        <ele>845.0</ele>
        <time>2020-07-30T07:45:30Z</time>
      </trkpt>
      <trkpt lat="42.6925540" lon="1.8314410">
        <ele>845.4</ele>
        <time>2020-07-30T07:45:31Z</time>
      </trkpt>
      <trkpt lat="42.6922960" lon="1.8312040">
        <ele>846.0</ele>
        <time>2020-07-30T07:45:38Z</time>
      </trkpt>
      <trkpt lat="42.6921770" lon="1.8310320">
        <ele>846.4</ele>
        <time>2020-07-30T07:45:42Z</time>
      </trkpt>
      <trkpt lat="42.6921300" lon="1.8309400">
        <ele>847.0</ele>
        <time>2020-07-30T07:45:44Z</time>
      </trkpt>
      <trkpt lat="42.6920770" lon="1.8307990">
        <ele>847.4</ele>
        <time>2020-07-30T07:45:47Z</time>
      </trkpt>
      <trkpt lat="42.6920420" lon="1.8306480">
        <ele>847.6</ele>
        <time>2020-07-30T07:45:50Z</time>
      </trkpt>
      <trkpt lat="42.6920180" lon="1.8304330">
        <ele>848.4</ele>
        <time>2020-07-30T07:45:54Z</time>
      </trkpt>
      <trkpt lat="42.6920110" lon="1.8302040">
        <ele>849.0</ele>
        <time>2020-07-30T07:45:58Z</time>
      </trkpt>
      <trkpt lat="42.6920140" lon="1.8300300">
        <ele>849.6</ele>
        <time>2020-07-30T07:46:01Z</time>
      </trkpt>
      <trkpt lat="42.6920180" lon="1.8298140">
        <ele>850.0</ele>
        <time>2020-07-30T07:46:05Z</time>
      </trkpt>
      <trkpt lat="42.6920240" lon="1.8297050">
        <ele>850.6</ele>
        <time>2020-07-30T07:46:07Z</time>
      </trkpt>
      <trkpt lat="42.6920730" lon="1.8294340">
        <ele>851.6</ele>
        <time>2020-07-30T07:46:12Z</time>
      </trkpt>
      <trkpt lat="42.6920920" lon="1.8293820">
        <ele>851.8</ele>
        <time>2020-07-30T07:46:13Z</time>
      </trkpt>
      <trkpt lat="42.6921960" lon="1.8290330">
        <ele>852.4</ele>
        <time>2020-07-30T07:46:20Z</time>
      </trkpt>
      <trkpt lat="42.6922200" lon="1.8289270">
        <ele>852.6</ele>
        <time>2020-07-30T07:46:22Z</time>
      </trkpt>
      <trkpt lat="42.6922350" lon="1.8288730">
        <ele>852.6</ele>
        <time>2020-07-30T07:46:23Z</time>
      </trkpt>
      <trkpt lat="42.6922950" lon="1.8287090">
        <ele>853.0</ele>
        <time>2020-07-30T07:46:26Z</time>
      </trkpt>
      <trkpt lat="42.6923630" lon="1.8284960">
        <ele>853.6</ele>
        <time>2020-07-30T07:46:30Z</time>
      </trkpt>
      <trkpt lat="42.6924040" lon="1.8283220">
        <ele>853.8</ele>
        <time>2020-07-30T07:46:33Z</time>
      </trkpt>
      <trkpt lat="42.6924670" lon="1.8280860">
        <ele>854.2</ele>
        <time>2020-07-30T07:46:37Z</time>
      </trkpt>
      <trkpt lat="42.6925060" lon="1.8279750">
        <ele>854.6</ele>
        <time>2020-07-30T07:46:39Z</time>
      </trkpt>
      <trkpt lat="42.6925220" lon="1.8279110">
        <ele>854.8</ele>
        <time>2020-07-30T07:46:40Z</time>
      </trkpt>
      <trkpt lat="42.6925660" lon="1.8277360">
        <ele>855.6</ele>
        <time>2020-07-30T07:46:43Z</time>
      </trkpt>
      <trkpt lat="42.6925930" lon="1.8275560">
        <ele>856.0</ele>
        <time>2020-07-30T07:46:46Z</time>
      </trkpt>
      <trkpt lat="42.6926170" lon="1.8272810">
        <ele>856.8</ele>
        <time>2020-07-30T07:46:51Z</time>
      </trkpt>
      <trkpt lat="42.6926680" lon="1.8272010">
        <ele>857.0</ele>
        <time>2020-07-30T07:46:53Z</time>
      </trkpt>
      <trkpt lat="42.6926640" lon="1.8271510">
        <ele>857.0</ele>
        <time>2020-07-30T07:46:54Z</time>
      </trkpt>
      <trkpt lat="42.6925680" lon="1.8269680">
        <ele>857.2</ele>
        <time>2020-07-30T07:46:58Z</time>
      </trkpt>
      <trkpt lat="42.6924570" lon="1.8268690">
        <ele>857.4</ele>
        <time>2020-07-30T07:47:01Z</time>
      </trkpt>
      <trkpt lat="42.6923770" lon="1.8268050">
        <ele>857.6</ele>
        <time>2020-07-30T07:47:03Z</time>
      </trkpt>
      <trkpt lat="42.6923360" lon="1.8267680">
        <ele>857.8</ele>
        <time>2020-07-30T07:47:04Z</time>
      </trkpt>
      <trkpt lat="42.6922950" lon="1.8267320">
        <ele>857.8</ele>
        <time>2020-07-30T07:47:05Z</time>
      </trkpt>
      <trkpt lat="42.6921700" lon="1.8266250">
        <ele>858.6</ele>
        <time>2020-07-30T07:47:08Z</time>
      </trkpt>
      <trkpt lat="42.6919720" lon="1.8264610">
        <ele>859.8</ele>
        <time>2020-07-30T07:47:13Z</time>
      </trkpt>
      <trkpt lat="42.6918660" lon="1.8263590">
        <ele>860.4</ele>
        <time>2020-07-30T07:47:16Z</time>
      </trkpt>
      <trkpt lat="42.6918060" lon="1.8262760">
        <ele>860.6</ele>
        <time>2020-07-30T07:47:18Z</time>
      </trkpt>
      <trkpt lat="42.6917790" lon="1.8262310">
        <ele>860.8</ele>
        <time>2020-07-30T07:47:19Z</time>
      </trkpt>
      <trkpt lat="42.6917550" lon="1.8261820">
        <ele>861.0</ele>
        <time>2020-07-30T07:47:20Z</time>
      </trkpt>
      <trkpt lat="42.6917040" lon="1.8259470">
        <ele>861.6</ele>
        <time>2020-07-30T07:47:24Z</time>
      </trkpt>
      <trkpt lat="42.6917030" lon="1.8258850">
        <ele>861.6</ele>
        <time>2020-07-30T07:47:25Z</time>
      </trkpt>
      <trkpt lat="42.6917040" lon="1.8258220">
        <ele>861.6</ele>
        <time>2020-07-30T07:47:26Z</time>
      </trkpt>
      <trkpt lat="42.6916950" lon="1.8256420">
        <ele>861.8</ele>
        <time>2020-07-30T07:47:29Z</time>
      </trkpt>
      <trkpt lat="42.6916860" lon="1.8255850">
        <ele>862.0</ele>
        <time>2020-07-30T07:47:30Z</time>
      </trkpt>
      <trkpt lat="42.6916360" lon="1.8254280">
        <ele>862.0</ele>
        <time>2020-07-30T07:47:33Z</time>
      </trkpt>
      <trkpt lat="42.6915830" lon="1.8253420">
        <ele>862.2</ele>
        <time>2020-07-30T07:47:35Z</time>
      </trkpt>
      <trkpt lat="42.6914330" lon="1.8252700">
        <ele>862.4</ele>
        <time>2020-07-30T07:47:39Z</time>
      </trkpt>
      <trkpt lat="42.6913840" lon="1.8252620">
        <ele>862.6</ele>
        <time>2020-07-30T07:47:40Z</time>
      </trkpt>
      <trkpt lat="42.6913320" lon="1.8252530">
        <ele>862.8</ele>
        <time>2020-07-30T07:47:41Z</time>
      </trkpt>
      <trkpt lat="42.6911920" lon="1.8252340">
        <ele>863.6</ele>
        <time>2020-07-30T07:47:44Z</time>
      </trkpt>
      <trkpt lat="42.6909000" lon="1.8252190">
        <ele>864.6</ele>
        <time>2020-07-30T07:47:51Z</time>
      </trkpt>
      <trkpt lat="42.6908580" lon="1.8252210">
        <ele>864.8</ele>
        <time>2020-07-30T07:47:52Z</time>
      </trkpt>
      <trkpt lat="42.6906880" lon="1.8252170">
        <ele>865.6</ele>
        <time>2020-07-30T07:47:56Z</time>
      </trkpt>
      <trkpt lat="42.6905620" lon="1.8252050">
        <ele>866.8</ele>
        <time>2020-07-30T07:47:59Z</time>
      </trkpt>
      <trkpt lat="42.6905230" lon="1.8251980">
        <ele>867.0</ele>
        <time>2020-07-30T07:48:00Z</time>
      </trkpt>
      <trkpt lat="42.6902610" lon="1.8251120">
        <ele>867.6</ele>
        <time>2020-07-30T07:48:07Z</time>
      </trkpt>
      <trkpt lat="42.6902240" lon="1.8250990">
        <ele>867.8</ele>
        <time>2020-07-30T07:48:08Z</time>
      </trkpt>
      <trkpt lat="42.6901120" lon="1.8250600">
        <ele>868.6</ele>
        <time>2020-07-30T07:48:11Z</time>
      </trkpt>
      <trkpt lat="42.6899950" lon="1.8250290">
        <ele>869.2</ele>
        <time>2020-07-30T07:48:14Z</time>
      </trkpt>
      <trkpt lat="42.6898560" lon="1.8249540">
        <ele>869.6</ele>
        <time>2020-07-30T07:48:18Z</time>
      </trkpt>
      <trkpt lat="42.6898200" lon="1.8249340">
        <ele>869.8</ele>
        <time>2020-07-30T07:48:19Z</time>
      </trkpt>
      <trkpt lat="42.6896590" lon="1.8248830">
        <ele>870.6</ele>
        <time>2020-07-30T07:48:23Z</time>
      </trkpt>
      <trkpt lat="42.6895800" lon="1.8248510">
        <ele>870.8</ele>
        <time>2020-07-30T07:48:25Z</time>
      </trkpt>
      <trkpt lat="42.6894280" lon="1.8247790">
        <ele>871.6</ele>
        <time>2020-07-30T07:48:29Z</time>
      </trkpt>
      <trkpt lat="42.6892470" lon="1.8246900">
        <ele>872.4</ele>
        <time>2020-07-30T07:48:34Z</time>
      </trkpt>
      <trkpt lat="42.6892130" lon="1.8246690">
        <ele>872.6</ele>
        <time>2020-07-30T07:48:35Z</time>
      </trkpt>
      <trkpt lat="42.6889710" lon="1.8245230">
        <ele>873.8</ele>
        <time>2020-07-30T07:48:42Z</time>
      </trkpt>
      <trkpt lat="42.6887930" lon="1.8244290">
        <ele>874.6</ele>
        <time>2020-07-30T07:48:47Z</time>
      </trkpt>
      <trkpt lat="42.6886600" lon="1.8243480">
        <ele>875.4</ele>
        <time>2020-07-30T07:48:51Z</time>
      </trkpt>
      <trkpt lat="42.6885950" lon="1.8243030">
        <ele>875.8</ele>
        <time>2020-07-30T07:48:53Z</time>
      </trkpt>
      <trkpt lat="42.6884720" lon="1.8242180">
        <ele>876.6</ele>
        <time>2020-07-30T07:48:57Z</time>
      </trkpt>
      <trkpt lat="42.6884440" lon="1.8242010">
        <ele>876.8</ele>
        <time>2020-07-30T07:48:58Z</time>
      </trkpt>
      <trkpt lat="42.6883610" lon="1.8241010">
        <ele>878.0</ele>
        <time>2020-07-30T07:49:02Z</time>
      </trkpt>
      <trkpt lat="42.6883170" lon="1.8240570">
        <ele>878.6</ele>
        <time>2020-07-30T07:49:04Z</time>
      </trkpt>
      <trkpt lat="42.6882630" lon="1.8239890">
        <ele>878.8</ele>
        <time>2020-07-30T07:49:07Z</time>
      </trkpt>
      <trkpt lat="42.6882460" lon="1.8239240">
        <ele>879.4</ele>
        <time>2020-07-30T07:49:10Z</time>
      </trkpt>
      <trkpt lat="42.6881510" lon="1.8240900">
        <ele>879.8</ele>
        <time>2020-07-30T07:49:12Z</time>
      </trkpt>
      <trkpt lat="42.6878770" lon="1.8244480">
        <ele>880.4</ele>
        <time>2020-07-30T07:49:15Z</time>
      </trkpt>
      <trkpt lat="42.6876870" lon="1.8246770">
        <ele>880.6</ele>
        <time>2020-07-30T07:49:17Z</time>
      </trkpt>
      <trkpt lat="42.6876570" lon="1.8247090">
        <ele>880.8</ele>
        <time>2020-07-30T07:49:18Z</time>
      </trkpt>
      <trkpt lat="42.6876210" lon="1.8247260">
        <ele>881.0</ele>
        <time>2020-07-30T07:49:19Z</time>
      </trkpt>
      <trkpt lat="42.6874260" lon="1.8247210">
        <ele>881.6</ele>
        <time>2020-07-30T07:49:24Z</time>
      </trkpt>
      <trkpt lat="42.6873920" lon="1.8247060">
        <ele>881.6</ele>
        <time>2020-07-30T07:49:25Z</time>
      </trkpt>
      <trkpt lat="42.6873600" lon="1.8246910">
        <ele>881.8</ele>
        <time>2020-07-30T07:49:26Z</time>
      </trkpt>
      <trkpt lat="42.6872520" lon="1.8245960">
        <ele>882.8</ele>
        <time>2020-07-30T07:49:30Z</time>
      </trkpt>
      <trkpt lat="42.6872310" lon="1.8245700">
        <ele>883.0</ele>
        <time>2020-07-30T07:49:31Z</time>
      </trkpt>
      <trkpt lat="42.6871730" lon="1.8244740">
        <ele>884.0</ele>
        <time>2020-07-30T07:49:34Z</time>
      </trkpt>
      <trkpt lat="42.6871470" lon="1.8243990">
        <ele>885.0</ele>
        <time>2020-07-30T07:49:36Z</time>
      </trkpt>
      <trkpt lat="42.6871340" lon="1.8243550">
        <ele>885.2</ele>
        <time>2020-07-30T07:49:37Z</time>
      </trkpt>
      <trkpt lat="42.6870060" lon="1.8240690">
        <ele>886.0</ele>
        <time>2020-07-30T07:49:43Z</time>
      </trkpt>
      <trkpt lat="42.6869800" lon="1.8240220">
        <ele>886.2</ele>
        <time>2020-07-30T07:49:44Z</time>
      </trkpt>
      <trkpt lat="42.6869070" lon="1.8238800">
        <ele>886.8</ele>
        <time>2020-07-30T07:49:47Z</time>
      </trkpt>
      <trkpt lat="42.6867920" lon="1.8236600">
        <ele>887.8</ele>
        <time>2020-07-30T07:49:52Z</time>
      </trkpt>
      <trkpt lat="42.6867670" lon="1.8236160">
        <ele>888.0</ele>
        <time>2020-07-30T07:49:53Z</time>
      </trkpt>
      <trkpt lat="42.6866610" lon="1.8234310">
        <ele>888.8</ele>
        <time>2020-07-30T07:49:57Z</time>
      </trkpt>
      <trkpt lat="42.6865530" lon="1.8232860">
        <ele>889.8</ele>
        <time>2020-07-30T07:50:01Z</time>
      </trkpt>
      <trkpt lat="42.6865410" lon="1.8232800">
        <ele>890.0</ele>
        <time>2020-07-30T07:50:02Z</time>
      </trkpt>
      <trkpt lat="42.6864230" lon="1.8232150">
        <ele>891.0</ele>
        <time>2020-07-30T07:50:06Z</time>
      </trkpt>
      <trkpt lat="42.6863160" lon="1.8231610">
        <ele>891.6</ele>
        <time>2020-07-30T07:50:09Z</time>
      </trkpt>
      <trkpt lat="42.6862110" lon="1.8231270">
        <ele>892.0</ele>
        <time>2020-07-30T07:50:12Z</time>
      </trkpt>
      <trkpt lat="42.6861160" lon="1.8231190">
        <ele>893.0</ele>
        <time>2020-07-30T07:50:15Z</time>
      </trkpt>
      <trkpt lat="42.6860550" lon="1.8231200">
        <ele>893.2</ele>
        <time>2020-07-30T07:50:17Z</time>
      </trkpt>
      <trkpt lat="42.6859520" lon="1.8231200">
        <ele>894.2</ele>
        <time>2020-07-30T07:50:21Z</time>
      </trkpt>
      <trkpt lat="42.6859110" lon="1.8231370">
        <ele>894.2</ele>
        <time>2020-07-30T07:50:22Z</time>
      </trkpt>
      <trkpt lat="42.6857360" lon="1.8231840">
        <ele>894.8</ele>
        <time>2020-07-30T07:50:26Z</time>
      </trkpt>
      <trkpt lat="42.6856240" lon="1.8232430">
        <ele>895.2</ele>
        <time>2020-07-30T07:50:29Z</time>
      </trkpt>
      <trkpt lat="42.6854950" lon="1.8233590">
        <ele>895.8</ele>
        <time>2020-07-30T07:50:33Z</time>
      </trkpt>
      <trkpt lat="42.6854370" lon="1.8234130">
        <ele>896.2</ele>
        <time>2020-07-30T07:50:35Z</time>
      </trkpt>
      <trkpt lat="42.6852780" lon="1.8235950">
        <ele>897.2</ele>
        <time>2020-07-30T07:50:41Z</time>
      </trkpt>
      <trkpt lat="42.6851130" lon="1.8237740">
        <ele>898.2</ele>
        <time>2020-07-30T07:50:47Z</time>
      </trkpt>
      <trkpt lat="42.6850140" lon="1.8237670">
        <ele>898.6</ele>
        <time>2020-07-30T07:50:49Z</time>
      </trkpt>
      <trkpt lat="42.6848940" lon="1.8237880">
        <ele>899.2</ele>
        <time>2020-07-30T07:50:52Z</time>
      </trkpt>
      <trkpt lat="42.6847150" lon="1.8238500">
        <ele>900.6</ele>
        <time>2020-07-30T07:50:57Z</time>
      </trkpt>
      <trkpt lat="42.6845790" lon="1.8239180">
        <ele>901.6</ele>
        <time>2020-07-30T07:51:01Z</time>
      </trkpt>
      <trkpt lat="42.6844830" lon="1.8239930">
        <ele>902.4</ele>
        <time>2020-07-30T07:51:04Z</time>
      </trkpt>
      <trkpt lat="42.6844490" lon="1.8240190">
        <ele>902.6</ele>
        <time>2020-07-30T07:51:05Z</time>
      </trkpt>
      <trkpt lat="42.6843330" lon="1.8241530">
        <ele>903.6</ele>
        <time>2020-07-30T07:51:09Z</time>
      </trkpt>
      <trkpt lat="42.6842870" lon="1.8242380">
        <ele>904.0</ele>
        <time>2020-07-30T07:51:11Z</time>
      </trkpt>
      <trkpt lat="42.6841900" lon="1.8244020">
        <ele>904.8</ele>
        <time>2020-07-30T07:51:15Z</time>
      </trkpt>
      <trkpt lat="42.6841600" lon="1.8244380">
        <ele>905.0</ele>
        <time>2020-07-30T07:51:16Z</time>
      </trkpt>
      <trkpt lat="42.6840520" lon="1.8247030">
        <ele>905.2</ele>
        <time>2020-07-30T07:51:22Z</time>
      </trkpt>
      <trkpt lat="42.6839960" lon="1.8249120">
        <ele>905.6</ele>
        <time>2020-07-30T07:51:27Z</time>
      </trkpt>
      <trkpt lat="42.6839570" lon="1.8251630">
        <ele>906.6</ele>
        <time>2020-07-30T07:51:32Z</time>
      </trkpt>
      <trkpt lat="42.6839470" lon="1.8252120">
        <ele>907.0</ele>
        <time>2020-07-30T07:51:33Z</time>
      </trkpt>
      <trkpt lat="42.6838980" lon="1.8253970">
        <ele>907.8</ele>
        <time>2020-07-30T07:51:37Z</time>
      </trkpt>
      <trkpt lat="42.6838630" lon="1.8255490">
        <ele>908.2</ele>
        <time>2020-07-30T07:51:40Z</time>
      </trkpt>
      <trkpt lat="42.6838250" lon="1.8256940">
        <ele>908.8</ele>
        <time>2020-07-30T07:51:43Z</time>
      </trkpt>
      <trkpt lat="42.6837750" lon="1.8258310">
        <ele>909.2</ele>
        <time>2020-07-30T07:51:46Z</time>
      </trkpt>
      <trkpt lat="42.6837610" lon="1.8259260">
        <ele>909.6</ele>
        <time>2020-07-30T07:51:48Z</time>
      </trkpt>
      <trkpt lat="42.6837180" lon="1.8261250">
        <ele>910.8</ele>
        <time>2020-07-30T07:51:52Z</time>
      </trkpt>
      <trkpt lat="42.6837110" lon="1.8261800">
        <ele>911.0</ele>
        <time>2020-07-30T07:51:53Z</time>
      </trkpt>
      <trkpt lat="42.6836740" lon="1.8263950">
        <ele>912.0</ele>
        <time>2020-07-30T07:51:57Z</time>
      </trkpt>
      <trkpt lat="42.6836550" lon="1.8265590">
        <ele>912.6</ele>
        <time>2020-07-30T07:52:00Z</time>
      </trkpt>
      <trkpt lat="42.6836340" lon="1.8266660">
        <ele>913.2</ele>
        <time>2020-07-30T07:52:02Z</time>
      </trkpt>
      <trkpt lat="42.6835640" lon="1.8268610">
        <ele>914.0</ele>
        <time>2020-07-30T07:52:06Z</time>
      </trkpt>
      <trkpt lat="42.6835380" lon="1.8269030">
        <ele>914.2</ele>
        <time>2020-07-30T07:52:07Z</time>
      </trkpt>
      <trkpt lat="42.6833510" lon="1.8270390">
        <ele>914.6</ele>
        <time>2020-07-30T07:52:12Z</time>
      </trkpt>
      <trkpt lat="42.6831050" lon="1.8271190">
        <ele>915.2</ele>
        <time>2020-07-30T07:52:18Z</time>
      </trkpt>
      <trkpt lat="42.6829550" lon="1.8271770">
        <ele>915.6</ele>
        <time>2020-07-30T07:52:22Z</time>
      </trkpt>
      <trkpt lat="42.6828480" lon="1.8272400">
        <ele>916.2</ele>
        <time>2020-07-30T07:52:25Z</time>
      </trkpt>
      <trkpt lat="42.6826970" lon="1.8273570">
        <ele>916.8</ele>
        <time>2020-07-30T07:52:29Z</time>
      </trkpt>
      <trkpt lat="42.6826210" lon="1.8274230">
        <ele>917.4</ele>
        <time>2020-07-30T07:52:31Z</time>
      </trkpt>
      <trkpt lat="42.6824000" lon="1.8276220">
        <ele>918.0</ele>
        <time>2020-07-30T07:52:37Z</time>
      </trkpt>
      <trkpt lat="42.6822510" lon="1.8277450">
        <ele>918.4</ele>
        <time>2020-07-30T07:52:41Z</time>
      </trkpt>
      <trkpt lat="42.6821470" lon="1.8278410">
        <ele>919.2</ele>
        <time>2020-07-30T07:52:44Z</time>
      </trkpt>
      <trkpt lat="42.6821140" lon="1.8278740">
        <ele>919.4</ele>
        <time>2020-07-30T07:52:45Z</time>
      </trkpt>
      <trkpt lat="42.6819410" lon="1.8281050">
        <ele>920.6</ele>
        <time>2020-07-30T07:52:51Z</time>
      </trkpt>
      <trkpt lat="42.6819140" lon="1.8281500">
        <ele>920.8</ele>
        <time>2020-07-30T07:52:52Z</time>
      </trkpt>
      <trkpt lat="42.6818950" lon="1.8282010">
        <ele>920.8</ele>
        <time>2020-07-30T07:52:53Z</time>
      </trkpt>
      <trkpt lat="42.6817960" lon="1.8284010">
        <ele>921.6</ele>
        <time>2020-07-30T07:52:57Z</time>
      </trkpt>
      <trkpt lat="42.6817760" lon="1.8284530">
        <ele>921.8</ele>
        <time>2020-07-30T07:52:58Z</time>
      </trkpt>
      <trkpt lat="42.6817470" lon="1.8284980">
        <ele>922.0</ele>
        <time>2020-07-30T07:52:59Z</time>
      </trkpt>
      <trkpt lat="42.6816310" lon="1.8286630">
        <ele>922.6</ele>
        <time>2020-07-30T07:53:03Z</time>
      </trkpt>
      <trkpt lat="42.6815990" lon="1.8286940">
        <ele>922.8</ele>
        <time>2020-07-30T07:53:04Z</time>
      </trkpt>
      <trkpt lat="42.6815270" lon="1.8287780">
        <ele>923.0</ele>
        <time>2020-07-30T07:53:07Z</time>
      </trkpt>
      <trkpt lat="42.6814780" lon="1.8288250">
        <ele>923.4</ele>
        <time>2020-07-30T07:53:09Z</time>
      </trkpt>
      <trkpt lat="42.6814460" lon="1.8288470">
        <ele>923.8</ele>
        <time>2020-07-30T07:53:10Z</time>
      </trkpt>
      <trkpt lat="42.6813360" lon="1.8289210">
        <ele>924.6</ele>
        <time>2020-07-30T07:53:14Z</time>
      </trkpt>
      <trkpt lat="42.6813060" lon="1.8289410">
        <ele>924.8</ele>
        <time>2020-07-30T07:53:15Z</time>
      </trkpt>
      <trkpt lat="42.6811180" lon="1.8290730">
        <ele>925.6</ele>
        <time>2020-07-30T07:53:20Z</time>
      </trkpt>
      <trkpt lat="42.6810800" lon="1.8291130">
        <ele>925.8</ele>
        <time>2020-07-30T07:53:21Z</time>
      </trkpt>
      <trkpt lat="42.6808820" lon="1.8292930">
        <ele>927.0</ele>
        <time>2020-07-30T07:53:26Z</time>
      </trkpt>
      <trkpt lat="42.6807390" lon="1.8294510">
        <ele>927.6</ele>
        <time>2020-07-30T07:53:30Z</time>
      </trkpt>
      <trkpt lat="42.6806820" lon="1.8295310">
        <ele>927.8</ele>
        <time>2020-07-30T07:53:32Z</time>
      </trkpt>
      <trkpt lat="42.6805940" lon="1.8296670">
        <ele>928.0</ele>
        <time>2020-07-30T07:53:35Z</time>
      </trkpt>
      <trkpt lat="42.6805390" lon="1.8297680">
        <ele>928.0</ele>
        <time>2020-07-30T07:53:37Z</time>
      </trkpt>
      <trkpt lat="42.6803400" lon="1.8300540">
        <ele>928.8</ele>
        <time>2020-07-30T07:53:43Z</time>
      </trkpt>
      <trkpt lat="42.6803040" lon="1.8300920">
        <ele>929.0</ele>
        <time>2020-07-30T07:53:44Z</time>
      </trkpt>
      <trkpt lat="42.6800570" lon="1.8303120">
        <ele>929.4</ele>
        <time>2020-07-30T07:53:51Z</time>
      </trkpt>
      <trkpt lat="42.6799470" lon="1.8304550">
        <ele>930.0</ele>
        <time>2020-07-30T07:53:55Z</time>
      </trkpt>
      <trkpt lat="42.6797870" lon="1.8303880">
        <ele>930.2</ele>
        <time>2020-07-30T07:53:56Z</time>
      </trkpt>
      <trkpt lat="42.6795560" lon="1.8303220">
        <ele>930.4</ele>
        <time>2020-07-30T07:53:58Z</time>
      </trkpt>
      <trkpt lat="42.6793670" lon="1.8302900">
        <ele>930.8</ele>
        <time>2020-07-30T07:54:00Z</time>
      </trkpt>
      <trkpt lat="42.6792210" lon="1.8305110">
        <ele>931.6</ele>
        <time>2020-07-30T07:54:06Z</time>
      </trkpt>
      <trkpt lat="42.6791650" lon="1.8305790">
        <ele>932.0</ele>
        <time>2020-07-30T07:54:08Z</time>
      </trkpt>
      <trkpt lat="42.6789540" lon="1.8308100">
        <ele>932.6</ele>
        <time>2020-07-30T07:54:15Z</time>
      </trkpt>
      <trkpt lat="42.6789260" lon="1.8308460">
        <ele>932.8</ele>
        <time>2020-07-30T07:54:16Z</time>
      </trkpt>
      <trkpt lat="42.6788490" lon="1.8309710">
        <ele>933.6</ele>
        <time>2020-07-30T07:54:19Z</time>
      </trkpt>
      <trkpt lat="42.6788050" lon="1.8310710">
        <ele>934.0</ele>
        <time>2020-07-30T07:54:21Z</time>
      </trkpt>
      <trkpt lat="42.6787190" lon="1.8313650">
        <ele>935.0</ele>
        <time>2020-07-30T07:54:26Z</time>
      </trkpt>
      <trkpt lat="42.6786940" lon="1.8314960">
        <ele>935.4</ele>
        <time>2020-07-30T07:54:28Z</time>
      </trkpt>
      <trkpt lat="42.6786000" lon="1.8318580">
        <ele>936.0</ele>
        <time>2020-07-30T07:54:34Z</time>
      </trkpt>
      <trkpt lat="42.6785620" lon="1.8319680">
        <ele>936.0</ele>
        <time>2020-07-30T07:54:36Z</time>
      </trkpt>
      <trkpt lat="42.6784770" lon="1.8324300">
        <ele>936.8</ele>
        <time>2020-07-30T07:54:44Z</time>
      </trkpt>
      <trkpt lat="42.6784620" lon="1.8324820">
        <ele>937.0</ele>
        <time>2020-07-30T07:54:45Z</time>
      </trkpt>
      <trkpt lat="42.6784050" lon="1.8325680">
        <ele>937.0</ele>
        <time>2020-07-30T07:54:47Z</time>
      </trkpt>
      <trkpt lat="42.6782540" lon="1.8327160">
        <ele>937.6</ele>
        <time>2020-07-30T07:54:51Z</time>
      </trkpt>
      <trkpt lat="42.6782010" lon="1.8327400">
        <ele>937.8</ele>
        <time>2020-07-30T07:54:52Z</time>
      </trkpt>
      <trkpt lat="42.6779640" lon="1.8329590">
        <ele>938.8</ele>
        <time>2020-07-30T07:54:58Z</time>
      </trkpt>
      <trkpt lat="42.6778920" lon="1.8330330">
        <ele>939.2</ele>
        <time>2020-07-30T07:55:00Z</time>
      </trkpt>
      <trkpt lat="42.6778060" lon="1.8330940">
        <ele>939.4</ele>
        <time>2020-07-30T07:55:02Z</time>
      </trkpt>
      <trkpt lat="42.6776730" lon="1.8333000">
        <ele>939.8</ele>
        <time>2020-07-30T07:55:07Z</time>
      </trkpt>
      <trkpt lat="42.6775110" lon="1.8335970">
        <ele>940.6</ele>
        <time>2020-07-30T07:55:14Z</time>
      </trkpt>
      <trkpt lat="42.6774630" lon="1.8336760">
        <ele>940.8</ele>
        <time>2020-07-30T07:55:16Z</time>
      </trkpt>
      <trkpt lat="42.6773740" lon="1.8338440">
        <ele>942.0</ele>
        <time>2020-07-30T07:55:20Z</time>
      </trkpt>
      <trkpt lat="42.6772650" lon="1.8340710">
        <ele>942.8</ele>
        <time>2020-07-30T07:55:25Z</time>
      </trkpt>
      <trkpt lat="42.6772230" lon="1.8341640">
        <ele>943.2</ele>
        <time>2020-07-30T07:55:27Z</time>
      </trkpt>
      <trkpt lat="42.6772230" lon="1.8341640">
        <ele>944.2</ele>
        <time>2020-07-30T07:55:35Z</time>
      </trkpt>
      <trkpt lat="42.6772230" lon="1.8341640">
        <ele>945.0</ele>
        <time>2020-07-30T07:55:42Z</time>
      </trkpt>
      <trkpt lat="42.6772230" lon="1.8341640">
        <ele>946.2</ele>
        <time>2020-07-30T07:55:49Z</time>
      </trkpt>
      <trkpt lat="42.6765290" lon="1.8354330">
        <ele>947.2</ele>
        <time>2020-07-30T07:55:58Z</time>
      </trkpt>
      <trkpt lat="42.6765110" lon="1.8354690">
        <ele>947.4</ele>
        <time>2020-07-30T07:55:59Z</time>
      </trkpt>
      <trkpt lat="42.6764750" lon="1.8354940">
        <ele>947.4</ele>
        <time>2020-07-30T07:56:00Z</time>
      </trkpt>
      <trkpt lat="42.6763030" lon="1.8355410">
        <ele>948.2</ele>
        <time>2020-07-30T07:56:04Z</time>
      </trkpt>
      <trkpt lat="42.6762590" lon="1.8355460">
        <ele>948.2</ele>
        <time>2020-07-30T07:56:05Z</time>
      </trkpt>
      <trkpt lat="42.6759470" lon="1.8355070">
        <ele>949.2</ele>
        <time>2020-07-30T07:56:11Z</time>
      </trkpt>
      <trkpt lat="42.6759120" lon="1.8355050">
        <ele>949.4</ele>
        <time>2020-07-30T07:56:12Z</time>
      </trkpt>
      <trkpt lat="42.6757370" lon="1.8354470">
        <ele>950.4</ele>
        <time>2020-07-30T07:56:17Z</time>
      </trkpt>
      <trkpt lat="42.6756940" lon="1.8354250">
        <ele>950.6</ele>
        <time>2020-07-30T07:56:18Z</time>
      </trkpt>
      <trkpt lat="42.6754860" lon="1.8352940">
        <ele>951.4</ele>
        <time>2020-07-30T07:56:24Z</time>
      </trkpt>
      <trkpt lat="42.6754480" lon="1.8352800">
        <ele>951.6</ele>
        <time>2020-07-30T07:56:25Z</time>
      </trkpt>
      <trkpt lat="42.6752590" lon="1.8352200">
        <ele>952.6</ele>
        <time>2020-07-30T07:56:30Z</time>
      </trkpt>
      <trkpt lat="42.6751450" lon="1.8352090">
        <ele>954.0</ele>
        <time>2020-07-30T07:56:33Z</time>
      </trkpt>
      <trkpt lat="42.6750230" lon="1.8352570">
        <ele>955.2</ele>
        <time>2020-07-30T07:56:36Z</time>
      </trkpt>
      <trkpt lat="42.6749370" lon="1.8352900">
        <ele>955.8</ele>
        <time>2020-07-30T07:56:38Z</time>
      </trkpt>
      <trkpt lat="42.6747280" lon="1.8352160">
        <ele>956.0</ele>
        <time>2020-07-30T07:56:40Z</time>
      </trkpt>
      <trkpt lat="42.6744560" lon="1.8352940">
        <ele>956.8</ele>
        <time>2020-07-30T07:56:45Z</time>
      </trkpt>
      <trkpt lat="42.6743770" lon="1.8353500">
        <ele>957.0</ele>
        <time>2020-07-30T07:56:47Z</time>
      </trkpt>
      <trkpt lat="42.6742370" lon="1.8354560">
        <ele>958.2</ele>
        <time>2020-07-30T07:56:51Z</time>
      </trkpt>
      <trkpt lat="42.6741360" lon="1.8355430">
        <ele>958.6</ele>
        <time>2020-07-30T07:56:54Z</time>
      </trkpt>
      <trkpt lat="42.6740720" lon="1.8355980">
        <ele>959.2</ele>
        <time>2020-07-30T07:56:56Z</time>
      </trkpt>
      <trkpt lat="42.6738700" lon="1.8357590">
        <ele>960.4</ele>
        <time>2020-07-30T07:57:02Z</time>
      </trkpt>
      <trkpt lat="42.6736950" lon="1.8358990">
        <ele>961.2</ele>
        <time>2020-07-30T07:57:07Z</time>
      </trkpt>
      <trkpt lat="42.6735730" lon="1.8359500">
        <ele>961.8</ele>
        <time>2020-07-30T07:57:10Z</time>
      </trkpt>
      <trkpt lat="42.6734890" lon="1.8359590">
        <ele>962.2</ele>
        <time>2020-07-30T07:57:12Z</time>
      </trkpt>
      <trkpt lat="42.6733350" lon="1.8359390">
        <ele>962.8</ele>
        <time>2020-07-30T07:57:16Z</time>
      </trkpt>
      <trkpt lat="42.6731180" lon="1.8358770">
        <ele>963.2</ele>
        <time>2020-07-30T07:57:22Z</time>
      </trkpt>
      <trkpt lat="42.6730800" lon="1.8358650">
        <ele>963.4</ele>
        <time>2020-07-30T07:57:23Z</time>
      </trkpt>
      <trkpt lat="42.6729700" lon="1.8358130">
        <ele>964.6</ele>
        <time>2020-07-30T07:57:26Z</time>
      </trkpt>
      <trkpt lat="42.6728190" lon="1.8357710">
        <ele>965.8</ele>
        <time>2020-07-30T07:57:30Z</time>
      </trkpt>
      <trkpt lat="42.6726130" lon="1.8357420">
        <ele>966.8</ele>
        <time>2020-07-30T07:57:35Z</time>
      </trkpt>
      <trkpt lat="42.6725310" lon="1.8357290">
        <ele>967.6</ele>
        <time>2020-07-30T07:57:37Z</time>
      </trkpt>
      <trkpt lat="42.6724890" lon="1.8357250">
        <ele>967.8</ele>
        <time>2020-07-30T07:57:38Z</time>
      </trkpt>
      <trkpt lat="42.6723030" lon="1.8356730">
        <ele>968.6</ele>
        <time>2020-07-30T07:57:43Z</time>
      </trkpt>
      <trkpt lat="42.6722580" lon="1.8356750">
        <ele>968.8</ele>
        <time>2020-07-30T07:57:44Z</time>
      </trkpt>
      <trkpt lat="42.6720410" lon="1.8356650">
        <ele>969.8</ele>
        <time>2020-07-30T07:57:49Z</time>
      </trkpt>
      <trkpt lat="42.6718410" lon="1.8356540">
        <ele>971.2</ele>
        <time>2020-07-30T07:57:54Z</time>
      </trkpt>
      <trkpt lat="42.6717340" lon="1.8356370">
        <ele>971.8</ele>
        <time>2020-07-30T07:57:57Z</time>
      </trkpt>
      <trkpt lat="42.6716270" lon="1.8356260">
        <ele>972.4</ele>
        <time>2020-07-30T07:58:00Z</time>
      </trkpt>
      <trkpt lat="42.6714100" lon="1.8356400">
        <ele>973.2</ele>
        <time>2020-07-30T07:58:06Z</time>
      </trkpt>
      <trkpt lat="42.6712660" lon="1.8356800">
        <ele>974.4</ele>
        <time>2020-07-30T07:58:10Z</time>
      </trkpt>
      <trkpt lat="42.6711980" lon="1.8357000">
        <ele>974.6</ele>
        <time>2020-07-30T07:58:12Z</time>
      </trkpt>
      <trkpt lat="42.6709900" lon="1.8357480">
        <ele>975.2</ele>
        <time>2020-07-30T07:58:18Z</time>
      </trkpt>
      <trkpt lat="42.6709520" lon="1.8357560">
        <ele>975.6</ele>
        <time>2020-07-30T07:58:19Z</time>
      </trkpt>
      <trkpt lat="42.6707740" lon="1.8357870">
        <ele>976.8</ele>
        <time>2020-07-30T07:58:24Z</time>
      </trkpt>
      <trkpt lat="42.6707380" lon="1.8357870">
        <ele>977.0</ele>
        <time>2020-07-30T07:58:25Z</time>
      </trkpt>
      <trkpt lat="42.6705550" lon="1.8357380">
        <ele>978.0</ele>
        <time>2020-07-30T07:58:30Z</time>
      </trkpt>
      <trkpt lat="42.6704790" lon="1.8357110">
        <ele>978.2</ele>
        <time>2020-07-30T07:58:32Z</time>
      </trkpt>
      <trkpt lat="42.6703700" lon="1.8356650">
        <ele>978.8</ele>
        <time>2020-07-30T07:58:35Z</time>
      </trkpt>
      <trkpt lat="42.6701820" lon="1.8356070">
        <ele>980.0</ele>
        <time>2020-07-30T07:58:40Z</time>
      </trkpt>
      <trkpt lat="42.6701050" lon="1.8355980">
        <ele>980.6</ele>
        <time>2020-07-30T07:58:42Z</time>
      </trkpt>
      <trkpt lat="42.6699960" lon="1.8356080">
        <ele>981.2</ele>
        <time>2020-07-30T07:58:45Z</time>
      </trkpt>
      <trkpt lat="42.6698490" lon="1.8356190">
        <ele>982.0</ele>
        <time>2020-07-30T07:58:49Z</time>
      </trkpt>
      <trkpt lat="42.6697720" lon="1.8356190">
        <ele>982.2</ele>
        <time>2020-07-30T07:58:51Z</time>
      </trkpt>
      <trkpt lat="42.6695390" lon="1.8356070">
        <ele>983.2</ele>
        <time>2020-07-30T07:58:57Z</time>
      </trkpt>
      <trkpt lat="42.6693810" lon="1.8355770">
        <ele>984.2</ele>
        <time>2020-07-30T07:59:01Z</time>
      </trkpt>
      <trkpt lat="42.6691990" lon="1.8355300">
        <ele>985.0</ele>
        <time>2020-07-30T07:59:06Z</time>
      </trkpt>
      <trkpt lat="42.6691610" lon="1.8355200">
        <ele>985.2</ele>
        <time>2020-07-30T07:59:07Z</time>
      </trkpt>
      <trkpt lat="42.6689410" lon="1.8354750">
        <ele>986.4</ele>
        <time>2020-07-30T07:59:13Z</time>
      </trkpt>
      <trkpt lat="42.6689040" lon="1.8354680">
        <ele>986.6</ele>
        <time>2020-07-30T07:59:14Z</time>
      </trkpt>
      <trkpt lat="42.6687250" lon="1.8354220">
        <ele>987.4</ele>
        <time>2020-07-30T07:59:19Z</time>
      </trkpt>
      <trkpt lat="42.6685880" lon="1.8353900">
        <ele>988.2</ele>
        <time>2020-07-30T07:59:23Z</time>
      </trkpt>
      <trkpt lat="42.6685520" lon="1.8353830">
        <ele>988.4</ele>
        <time>2020-07-30T07:59:24Z</time>
      </trkpt>
      <trkpt lat="42.6683600" lon="1.8353620">
        <ele>989.6</ele>
        <time>2020-07-30T07:59:29Z</time>
      </trkpt>
      <trkpt lat="42.6683210" lon="1.8353610">
        <ele>989.8</ele>
        <time>2020-07-30T07:59:30Z</time>
      </trkpt>
      <trkpt lat="42.6680860" lon="1.8353610">
        <ele>990.6</ele>
        <time>2020-07-30T07:59:36Z</time>
      </trkpt>
      <trkpt lat="42.6679370" lon="1.8353550">
        <ele>991.2</ele>
        <time>2020-07-30T07:59:40Z</time>
      </trkpt>
      <trkpt lat="42.6678210" lon="1.8353330">
        <ele>991.6</ele>
        <time>2020-07-30T07:59:43Z</time>
      </trkpt>
      <trkpt lat="42.6676280" lon="1.8352520">
        <ele>992.4</ele>
        <time>2020-07-30T07:59:48Z</time>
      </trkpt>
      <trkpt lat="42.6675540" lon="1.8352160">
        <ele>992.6</ele>
        <time>2020-07-30T07:59:50Z</time>
      </trkpt>
      <trkpt lat="42.6673680" lon="1.8351340">
        <ele>993.8</ele>
        <time>2020-07-30T07:59:55Z</time>
      </trkpt>
      <trkpt lat="42.6673240" lon="1.8351280">
        <ele>994.0</ele>
        <time>2020-07-30T07:59:56Z</time>
      </trkpt>
      <trkpt lat="42.6671960" lon="1.8351270">
        <ele>994.6</ele>
        <time>2020-07-30T07:59:59Z</time>
      </trkpt>
      <trkpt lat="42.6670280" lon="1.8351640">
        <ele>995.4</ele>
        <time>2020-07-30T08:00:03Z</time>
      </trkpt>
      <trkpt lat="42.6667790" lon="1.8352050">
        <ele>995.8</ele>
        <time>2020-07-30T08:00:09Z</time>
      </trkpt>
      <trkpt lat="42.6665870" lon="1.8353020">
        <ele>996.0</ele>
        <time>2020-07-30T08:00:12Z</time>
      </trkpt>
      <trkpt lat="42.6665200" lon="1.8353000">
        <ele>996.0</ele>
        <time>2020-07-30T08:00:13Z</time>
      </trkpt>
      <trkpt lat="42.6664370" lon="1.8352260">
        <ele>995.8</ele>
        <time>2020-07-30T08:00:15Z</time>
      </trkpt>
      <trkpt lat="42.6663620" lon="1.8351410">
        <ele>996.0</ele>
        <time>2020-07-30T08:00:17Z</time>
      </trkpt>
      <trkpt lat="42.6661500" lon="1.8347840">
        <ele>996.6</ele>
        <time>2020-07-30T08:00:25Z</time>
      </trkpt>
      <trkpt lat="42.6660630" lon="1.8346100">
        <ele>997.8</ele>
        <time>2020-07-30T08:00:29Z</time>
      </trkpt>
      <trkpt lat="42.6659240" lon="1.8343530">
        <ele>999.0</ele>
        <time>2020-07-30T08:00:35Z</time>
      </trkpt>
      <trkpt lat="42.6658980" lon="1.8343130">
        <ele>999.2</ele>
        <time>2020-07-30T08:00:36Z</time>
      </trkpt>
      <trkpt lat="42.6657410" lon="1.8341520">
        <ele>1000.2</ele>
        <time>2020-07-30T08:00:40Z</time>
      </trkpt>
      <trkpt lat="42.6655610" lon="1.8340180">
        <ele>1000.8</ele>
        <time>2020-07-30T08:00:44Z</time>
      </trkpt>
      <trkpt lat="42.6654740" lon="1.8339570">
        <ele>1001.0</ele>
        <time>2020-07-30T08:00:46Z</time>
      </trkpt>
      <trkpt lat="42.6652980" lon="1.8338320">
        <ele>1001.6</ele>
        <time>2020-07-30T08:00:50Z</time>
      </trkpt>
      <trkpt lat="42.6651700" lon="1.8337500">
        <ele>1001.8</ele>
        <time>2020-07-30T08:00:53Z</time>
      </trkpt>
      <trkpt lat="42.6650330" lon="1.8337070">
        <ele>1001.8</ele>
        <time>2020-07-30T08:00:56Z</time>
      </trkpt>
      <trkpt lat="42.6649360" lon="1.8336880">
        <ele>1002.0</ele>
        <time>2020-07-30T08:00:58Z</time>
      </trkpt>
      <trkpt lat="42.6646890" lon="1.8336950">
        <ele>1003.0</ele>
        <time>2020-07-30T08:01:03Z</time>
      </trkpt>
      <trkpt lat="42.6646410" lon="1.8337070">
        <ele>1003.0</ele>
        <time>2020-07-30T08:01:04Z</time>
      </trkpt>
      <trkpt lat="42.6642580" lon="1.8338390">
        <ele>1004.2</ele>
        <time>2020-07-30T08:01:12Z</time>
      </trkpt>
      <trkpt lat="42.6639740" lon="1.8340190">
        <ele>1005.4</ele>
        <time>2020-07-30T08:01:19Z</time>
      </trkpt>
      <trkpt lat="42.6637910" lon="1.8341760">
        <ele>1006.2</ele>
        <time>2020-07-30T08:01:24Z</time>
      </trkpt>
      <trkpt lat="42.6636840" lon="1.8342760">
        <ele>1006.8</ele>
        <time>2020-07-30T08:01:27Z</time>
      </trkpt>
      <trkpt lat="42.6636190" lon="1.8343570">
        <ele>1007.2</ele>
        <time>2020-07-30T08:01:29Z</time>
      </trkpt>
      <trkpt lat="42.6635910" lon="1.8344020">
        <ele>1007.4</ele>
        <time>2020-07-30T08:01:30Z</time>
      </trkpt>
      <trkpt lat="42.6635400" lon="1.8345740">
        <ele>1008.0</ele>
        <time>2020-07-30T08:01:33Z</time>
      </trkpt>
      <trkpt lat="42.6635360" lon="1.8347040">
        <ele>1008.4</ele>
        <time>2020-07-30T08:01:35Z</time>
      </trkpt>
      <trkpt lat="42.6635410" lon="1.8347700">
        <ele>1008.6</ele>
        <time>2020-07-30T08:01:36Z</time>
      </trkpt>
      <trkpt lat="42.6635350" lon="1.8349030">
        <ele>1009.2</ele>
        <time>2020-07-30T08:01:38Z</time>
      </trkpt>
      <trkpt lat="42.6635210" lon="1.8350410">
        <ele>1009.6</ele>
        <time>2020-07-30T08:01:40Z</time>
      </trkpt>
      <trkpt lat="42.6634630" lon="1.8351460">
        <ele>1009.4</ele>
        <time>2020-07-30T08:01:42Z</time>
      </trkpt>
      <trkpt lat="42.6632740" lon="1.8352910">
        <ele>1009.6</ele>
        <time>2020-07-30T08:01:47Z</time>
      </trkpt>
      <trkpt lat="42.6632330" lon="1.8353010">
        <ele>1009.6</ele>
        <time>2020-07-30T08:01:48Z</time>
      </trkpt>
      <trkpt lat="42.6630640" lon="1.8353610">
        <ele>1010.2</ele>
        <time>2020-07-30T08:01:52Z</time>
      </trkpt>
      <trkpt lat="42.6629760" lon="1.8354250">
        <ele>1010.4</ele>
        <time>2020-07-30T08:01:54Z</time>
      </trkpt>
      <trkpt lat="42.6629330" lon="1.8354620">
        <ele>1010.6</ele>
        <time>2020-07-30T08:01:55Z</time>
      </trkpt>
      <trkpt lat="42.6625610" lon="1.8357070">
        <ele>1011.0</ele>
        <time>2020-07-30T08:02:03Z</time>
      </trkpt>
      <trkpt lat="42.6624180" lon="1.8357650">
        <ele>1011.4</ele>
        <time>2020-07-30T08:02:06Z</time>
      </trkpt>
      <trkpt lat="42.6620820" lon="1.8359200">
        <ele>1012.0</ele>
        <time>2020-07-30T08:02:13Z</time>
      </trkpt>
      <trkpt lat="42.6619450" lon="1.8360000">
        <ele>1012.4</ele>
        <time>2020-07-30T08:02:16Z</time>
      </trkpt>
      <trkpt lat="42.6617260" lon="1.8361470">
        <ele>1013.4</ele>
        <time>2020-07-30T08:02:21Z</time>
      </trkpt>
      <trkpt lat="42.6616430" lon="1.8362120">
        <ele>1013.8</ele>
        <time>2020-07-30T08:02:23Z</time>
      </trkpt>
      <trkpt lat="42.6614440" lon="1.8363690">
        <ele>1014.4</ele>
        <time>2020-07-30T08:02:28Z</time>
      </trkpt>
      <trkpt lat="42.6612370" lon="1.8365060">
        <ele>1015.0</ele>
        <time>2020-07-30T08:02:33Z</time>
      </trkpt>
      <trkpt lat="42.6611530" lon="1.8365520">
        <ele>1015.4</ele>
        <time>2020-07-30T08:02:35Z</time>
      </trkpt>
      <trkpt lat="42.6609270" lon="1.8366200">
        <ele>1016.0</ele>
        <time>2020-07-30T08:02:40Z</time>
      </trkpt>
      <trkpt lat="42.6607130" lon="1.8366060">
        <ele>1016.6</ele>
        <time>2020-07-30T08:02:45Z</time>
      </trkpt>
      <trkpt lat="42.6605790" lon="1.8365940">
        <ele>1017.2</ele>
        <time>2020-07-30T08:02:48Z</time>
      </trkpt>
      <trkpt lat="42.6604510" lon="1.8365820">
        <ele>1017.6</ele>
        <time>2020-07-30T08:02:51Z</time>
      </trkpt>
      <trkpt lat="42.6602340" lon="1.8365330">
        <ele>1019.0</ele>
        <time>2020-07-30T08:02:56Z</time>
      </trkpt>
      <trkpt lat="42.6601920" lon="1.8365190">
        <ele>1019.2</ele>
        <time>2020-07-30T08:02:57Z</time>
      </trkpt>
      <trkpt lat="42.6600230" lon="1.8364580">
        <ele>1020.0</ele>
        <time>2020-07-30T08:03:01Z</time>
      </trkpt>
      <trkpt lat="42.6598180" lon="1.8363520">
        <ele>1020.6</ele>
        <time>2020-07-30T08:03:06Z</time>
      </trkpt>
      <trkpt lat="42.6596910" lon="1.8362890">
        <ele>1021.2</ele>
        <time>2020-07-30T08:03:09Z</time>
      </trkpt>
      <trkpt lat="42.6594760" lon="1.8361890">
        <ele>1022.4</ele>
        <time>2020-07-30T08:03:14Z</time>
      </trkpt>
      <trkpt lat="42.6594320" lon="1.8361710">
        <ele>1022.8</ele>
        <time>2020-07-30T08:03:15Z</time>
      </trkpt>
      <trkpt lat="42.6592560" lon="1.8360930">
        <ele>1023.2</ele>
        <time>2020-07-30T08:03:19Z</time>
      </trkpt>
      <trkpt lat="42.6589520" lon="1.8359580">
        <ele>1024.0</ele>
        <time>2020-07-30T08:03:26Z</time>
      </trkpt>
      <trkpt lat="42.6588620" lon="1.8359170">
        <ele>1024.2</ele>
        <time>2020-07-30T08:03:28Z</time>
      </trkpt>
      <trkpt lat="42.6584950" lon="1.8357780">
        <ele>1025.0</ele>
        <time>2020-07-30T08:03:36Z</time>
      </trkpt>
      <trkpt lat="42.6582660" lon="1.8357180">
        <ele>1025.4</ele>
        <time>2020-07-30T08:03:41Z</time>
      </trkpt>
      <trkpt lat="42.6581250" lon="1.8357300">
        <ele>1026.0</ele>
        <time>2020-07-30T08:03:44Z</time>
      </trkpt>
      <trkpt lat="42.6579440" lon="1.8357530">
        <ele>1026.4</ele>
        <time>2020-07-30T08:03:48Z</time>
      </trkpt>
      <trkpt lat="42.6577640" lon="1.8357780">
        <ele>1026.8</ele>
        <time>2020-07-30T08:03:52Z</time>
      </trkpt>
      <trkpt lat="42.6576550" lon="1.8358070">
        <ele>1027.2</ele>
        <time>2020-07-30T08:03:55Z</time>
      </trkpt>
      <trkpt lat="42.6576110" lon="1.8358120">
        <ele>1027.4</ele>
        <time>2020-07-30T08:03:56Z</time>
      </trkpt>
      <trkpt lat="42.6575700" lon="1.8358210">
        <ele>1027.6</ele>
        <time>2020-07-30T08:03:57Z</time>
      </trkpt>
      <trkpt lat="42.6575240" lon="1.8358290">
        <ele>1027.6</ele>
        <time>2020-07-30T08:03:58Z</time>
      </trkpt>
      <trkpt lat="42.6573770" lon="1.8358360">
        <ele>1028.0</ele>
        <time>2020-07-30T08:04:01Z</time>
      </trkpt>
      <trkpt lat="42.6569560" lon="1.8358590">
        <ele>1028.6</ele>
        <time>2020-07-30T08:04:09Z</time>
      </trkpt>
      <trkpt lat="42.6566300" lon="1.8358020">
        <ele>1029.6</ele>
        <time>2020-07-30T08:04:15Z</time>
      </trkpt>
      <trkpt lat="42.6565750" lon="1.8357790">
        <ele>1029.8</ele>
        <time>2020-07-30T08:04:16Z</time>
      </trkpt>
      <trkpt lat="42.6563170" lon="1.8356610">
        <ele>1030.0</ele>
        <time>2020-07-30T08:04:21Z</time>
      </trkpt>
      <trkpt lat="42.6560940" lon="1.8356850">
        <ele>1030.0</ele>
        <time>2020-07-30T08:04:25Z</time>
      </trkpt>
      <trkpt lat="42.6560390" lon="1.8357010">
        <ele>1030.0</ele>
        <time>2020-07-30T08:04:26Z</time>
      </trkpt>
      <trkpt lat="42.6559790" lon="1.8357110">
        <ele>1030.2</ele>
        <time>2020-07-30T08:04:27Z</time>
      </trkpt>
      <trkpt lat="42.6558100" lon="1.8356860">
        <ele>1030.4</ele>
        <time>2020-07-30T08:04:30Z</time>
      </trkpt>
      <trkpt lat="42.6557140" lon="1.8356590">
        <ele>1030.6</ele>
        <time>2020-07-30T08:04:32Z</time>
      </trkpt>
      <trkpt lat="42.6556260" lon="1.8356350">
        <ele>1030.8</ele>
        <time>2020-07-30T08:04:34Z</time>
      </trkpt>
      <trkpt lat="42.6555380" lon="1.8356180">
        <ele>1031.2</ele>
        <time>2020-07-30T08:04:36Z</time>
      </trkpt>
      <trkpt lat="42.6554090" lon="1.8355900">
        <ele>1031.6</ele>
        <time>2020-07-30T08:04:39Z</time>
      </trkpt>
      <trkpt lat="42.6553230" lon="1.8355650">
        <ele>1032.2</ele>
        <time>2020-07-30T08:04:41Z</time>
      </trkpt>
      <trkpt lat="42.6552410" lon="1.8355240">
        <ele>1033.2</ele>
        <time>2020-07-30T08:04:43Z</time>
      </trkpt>
      <trkpt lat="42.6552030" lon="1.8354950">
        <ele>1033.6</ele>
        <time>2020-07-30T08:04:44Z</time>
      </trkpt>
      <trkpt lat="42.6551680" lon="1.8354670">
        <ele>1034.0</ele>
        <time>2020-07-30T08:04:45Z</time>
      </trkpt>
      <trkpt lat="42.6551020" lon="1.8354150">
        <ele>1034.6</ele>
        <time>2020-07-30T08:04:47Z</time>
      </trkpt>
      <trkpt lat="42.6550470" lon="1.8353380">
        <ele>1035.0</ele>
        <time>2020-07-30T08:04:49Z</time>
      </trkpt>
      <trkpt lat="42.6549830" lon="1.8352610">
        <ele>1035.2</ele>
        <time>2020-07-30T08:04:51Z</time>
      </trkpt>
      <trkpt lat="42.6549160" lon="1.8351860">
        <ele>1035.8</ele>
        <time>2020-07-30T08:04:53Z</time>
      </trkpt>
      <trkpt lat="42.6547190" lon="1.8350440">
        <ele>1036.6</ele>
        <time>2020-07-30T08:04:58Z</time>
      </trkpt>
      <trkpt lat="42.6545020" lon="1.8349760">
        <ele>1037.8</ele>
        <time>2020-07-30T08:05:03Z</time>
      </trkpt>
      <trkpt lat="42.6544140" lon="1.8349690">
        <ele>1038.2</ele>
        <time>2020-07-30T08:05:05Z</time>
      </trkpt>
      <trkpt lat="42.6542390" lon="1.8349740">
        <ele>1038.8</ele>
        <time>2020-07-30T08:05:09Z</time>
      </trkpt>
      <trkpt lat="42.6541030" lon="1.8349910">
        <ele>1039.8</ele>
        <time>2020-07-30T08:05:12Z</time>
      </trkpt>
      <trkpt lat="42.6540570" lon="1.8349970">
        <ele>1040.0</ele>
        <time>2020-07-30T08:05:13Z</time>
      </trkpt>
      <trkpt lat="42.6538380" lon="1.8350370">
        <ele>1041.0</ele>
        <time>2020-07-30T08:05:18Z</time>
      </trkpt>
      <trkpt lat="42.6537100" lon="1.8350490">
        <ele>1041.4</ele>
        <time>2020-07-30T08:05:21Z</time>
      </trkpt>
      <trkpt lat="42.6535030" lon="1.8350250">
        <ele>1042.2</ele>
        <time>2020-07-30T08:05:26Z</time>
      </trkpt>
      <trkpt lat="42.6534190" lon="1.8350080">
        <ele>1042.6</ele>
        <time>2020-07-30T08:05:28Z</time>
      </trkpt>
      <trkpt lat="42.6532890" lon="1.8349980">
        <ele>1043.2</ele>
        <time>2020-07-30T08:05:31Z</time>
      </trkpt>
      <trkpt lat="42.6530700" lon="1.8350200">
        <ele>1044.4</ele>
        <time>2020-07-30T08:05:36Z</time>
      </trkpt>
      <trkpt lat="42.6528450" lon="1.8350850">
        <ele>1045.6</ele>
        <time>2020-07-30T08:05:41Z</time>
      </trkpt>
      <trkpt lat="42.6525850" lon="1.8351390">
        <ele>1046.2</ele>
        <time>2020-07-30T08:05:47Z</time>
      </trkpt>
      <trkpt lat="42.6524560" lon="1.8351640">
        <ele>1046.8</ele>
        <time>2020-07-30T08:05:50Z</time>
      </trkpt>
      <trkpt lat="42.6523700" lon="1.8351630">
        <ele>1047.2</ele>
        <time>2020-07-30T08:05:52Z</time>
      </trkpt>
      <trkpt lat="42.6522400" lon="1.8351520">
        <ele>1047.4</ele>
        <time>2020-07-30T08:05:55Z</time>
      </trkpt>
      <trkpt lat="42.6521980" lon="1.8351470">
        <ele>1047.4</ele>
        <time>2020-07-30T08:05:56Z</time>
      </trkpt>
      <trkpt lat="42.6520250" lon="1.8351110">
        <ele>1047.8</ele>
        <time>2020-07-30T08:06:00Z</time>
      </trkpt>
      <trkpt lat="42.6519400" lon="1.8350920">
        <ele>1047.8</ele>
        <time>2020-07-30T08:06:02Z</time>
      </trkpt>
      <trkpt lat="42.6516280" lon="1.8350260">
        <ele>1048.6</ele>
        <time>2020-07-30T08:06:09Z</time>
      </trkpt>
      <trkpt lat="42.6515350" lon="1.8350000">
        <ele>1049.0</ele>
        <time>2020-07-30T08:06:11Z</time>
      </trkpt>
      <trkpt lat="42.6512430" lon="1.8349430">
        <ele>1049.8</ele>
        <time>2020-07-30T08:06:17Z</time>
      </trkpt>
      <trkpt lat="42.6511430" lon="1.8349110">
        <ele>1049.8</ele>
        <time>2020-07-30T08:06:19Z</time>
      </trkpt>
      <trkpt lat="42.6509150" lon="1.8348160">
        <ele>1050.8</ele>
        <time>2020-07-30T08:06:24Z</time>
      </trkpt>
      <trkpt lat="42.6507730" lon="1.8347510">
        <ele>1051.6</ele>
        <time>2020-07-30T08:06:27Z</time>
      </trkpt>
      <trkpt lat="42.6506360" lon="1.8346970">
        <ele>1052.0</ele>
        <time>2020-07-30T08:06:30Z</time>
      </trkpt>
      <trkpt lat="42.6503840" lon="1.8345510">
        <ele>1052.4</ele>
        <time>2020-07-30T08:06:35Z</time>
      </trkpt>
      <trkpt lat="42.6502460" lon="1.8344550">
        <ele>1053.0</ele>
        <time>2020-07-30T08:06:38Z</time>
      </trkpt>
      <trkpt lat="42.6500170" lon="1.8343210">
        <ele>1054.0</ele>
        <time>2020-07-30T08:06:43Z</time>
      </trkpt>
      <trkpt lat="42.6499710" lon="1.8342950">
        <ele>1054.2</ele>
        <time>2020-07-30T08:06:44Z</time>
      </trkpt>
      <trkpt lat="42.6496710" lon="1.8340820">
        <ele>1055.2</ele>
        <time>2020-07-30T08:06:51Z</time>
      </trkpt>
      <trkpt lat="42.6495520" lon="1.8339890">
        <ele>1055.6</ele>
        <time>2020-07-30T08:06:54Z</time>
      </trkpt>
      <trkpt lat="42.6493490" lon="1.8338400">
        <ele>1056.2</ele>
        <time>2020-07-30T08:06:59Z</time>
      </trkpt>
      <trkpt lat="42.6490290" lon="1.8336060">
        <ele>1056.8</ele>
        <time>2020-07-30T08:07:07Z</time>
      </trkpt>
      <trkpt lat="42.6489460" lon="1.8335510">
        <ele>1057.2</ele>
        <time>2020-07-30T08:07:09Z</time>
      </trkpt>
      <trkpt lat="42.6486540" lon="1.8333600">
        <ele>1058.2</ele>
        <time>2020-07-30T08:07:16Z</time>
      </trkpt>
      <trkpt lat="42.6485260" lon="1.8332780">
        <ele>1058.4</ele>
        <time>2020-07-30T08:07:19Z</time>
      </trkpt>
      <trkpt lat="42.6481020" lon="1.8329950">
        <ele>1059.2</ele>
        <time>2020-07-30T08:07:29Z</time>
      </trkpt>
      <trkpt lat="42.6480600" lon="1.8329670">
        <ele>1059.4</ele>
        <time>2020-07-30T08:07:30Z</time>
      </trkpt>
      <trkpt lat="42.6477680" lon="1.8327820">
        <ele>1060.4</ele>
        <time>2020-07-30T08:07:37Z</time>
      </trkpt>
      <trkpt lat="42.6476860" lon="1.8327330">
        <ele>1060.8</ele>
        <time>2020-07-30T08:07:39Z</time>
      </trkpt>
      <trkpt lat="42.6474030" lon="1.8325540">
        <ele>1061.6</ele>
        <time>2020-07-30T08:07:46Z</time>
      </trkpt>
      <trkpt lat="42.6472820" lon="1.8324810">
        <ele>1062.0</ele>
        <time>2020-07-30T08:07:49Z</time>
      </trkpt>
      <trkpt lat="42.6471630" lon="1.8324130">
        <ele>1062.6</ele>
        <time>2020-07-30T08:07:52Z</time>
      </trkpt>
      <trkpt lat="42.6469270" lon="1.8322940">
        <ele>1064.0</ele>
        <time>2020-07-30T08:07:58Z</time>
      </trkpt>
      <trkpt lat="42.6468490" lon="1.8322610">
        <ele>1065.0</ele>
        <time>2020-07-30T08:08:00Z</time>
      </trkpt>
      <trkpt lat="42.6468100" lon="1.8322450">
        <ele>1065.2</ele>
        <time>2020-07-30T08:08:01Z</time>
      </trkpt>
      <trkpt lat="42.6465330" lon="1.8321440">
        <ele>1066.4</ele>
        <time>2020-07-30T08:08:08Z</time>
      </trkpt>
      <trkpt lat="42.6464540" lon="1.8321200">
        <ele>1067.0</ele>
        <time>2020-07-30T08:08:10Z</time>
      </trkpt>
      <trkpt lat="42.6462640" lon="1.8320570">
        <ele>1067.4</ele>
        <time>2020-07-30T08:08:15Z</time>
      </trkpt>
      <trkpt lat="42.6460300" lon="1.8319990">
        <ele>1068.4</ele>
        <time>2020-07-30T08:08:21Z</time>
      </trkpt>
      <trkpt lat="42.6459900" lon="1.8319890">
        <ele>1068.4</ele>
        <time>2020-07-30T08:08:22Z</time>
      </trkpt>
      <trkpt lat="42.6457080" lon="1.8319260">
        <ele>1069.4</ele>
        <time>2020-07-30T08:08:29Z</time>
      </trkpt>
      <trkpt lat="42.6455870" lon="1.8319080">
        <ele>1070.0</ele>
        <time>2020-07-30T08:08:32Z</time>
      </trkpt>
      <trkpt lat="42.6454660" lon="1.8318970">
        <ele>1070.6</ele>
        <time>2020-07-30T08:08:35Z</time>
      </trkpt>
      <trkpt lat="42.6453020" lon="1.8318790">
        <ele>1071.8</ele>
        <time>2020-07-30T08:08:39Z</time>
      </trkpt>
      <trkpt lat="42.6451280" lon="1.8318620">
        <ele>1072.4</ele>
        <time>2020-07-30T08:08:43Z</time>
      </trkpt>
      <trkpt lat="42.6450390" lon="1.8318510">
        <ele>1072.8</ele>
        <time>2020-07-30T08:08:45Z</time>
      </trkpt>
      <trkpt lat="42.6447690" lon="1.8318370">
        <ele>1073.8</ele>
        <time>2020-07-30T08:08:51Z</time>
      </trkpt>
      <trkpt lat="42.6446780" lon="1.8318330">
        <ele>1074.0</ele>
        <time>2020-07-30T08:08:53Z</time>
      </trkpt>
      <trkpt lat="42.6442750" lon="1.8318220">
        <ele>1074.8</ele>
        <time>2020-07-30T08:09:01Z</time>
      </trkpt>
      <trkpt lat="42.6442240" lon="1.8318140">
        <ele>1075.0</ele>
        <time>2020-07-30T08:09:02Z</time>
      </trkpt>
      <trkpt lat="42.6440100" lon="1.8317880">
        <ele>1075.0</ele>
        <time>2020-07-30T08:09:06Z</time>
      </trkpt>
      <trkpt lat="42.6438960" lon="1.8317810">
        <ele>1075.0</ele>
        <time>2020-07-30T08:09:08Z</time>
      </trkpt>
      <trkpt lat="42.6433950" lon="1.8317830">
        <ele>1075.0</ele>
        <time>2020-07-30T08:09:16Z</time>
      </trkpt>
      <trkpt lat="42.6432100" lon="1.8317750">
        <ele>1075.0</ele>
        <time>2020-07-30T08:09:19Z</time>
      </trkpt>
      <trkpt lat="42.6429540" lon="1.8317620">
        <ele>1075.6</ele>
        <time>2020-07-30T08:09:23Z</time>
      </trkpt>
      <trkpt lat="42.6428310" lon="1.8317460">
        <ele>1075.8</ele>
        <time>2020-07-30T08:09:25Z</time>
      </trkpt>
      <trkpt lat="42.6425850" lon="1.8316780">
        <ele>1075.8</ele>
        <time>2020-07-30T08:09:29Z</time>
      </trkpt>
      <trkpt lat="42.6421330" lon="1.8315040">
        <ele>1076.0</ele>
        <time>2020-07-30T08:09:37Z</time>
      </trkpt>
      <trkpt lat="42.6418600" lon="1.8313460">
        <ele>1076.8</ele>
        <time>2020-07-30T08:09:43Z</time>
      </trkpt>
      <trkpt lat="42.6418150" lon="1.8313150">
        <ele>1077.0</ele>
        <time>2020-07-30T08:09:44Z</time>
      </trkpt>
      <trkpt lat="42.6416460" lon="1.8311890">
        <ele>1078.2</ele>
        <time>2020-07-30T08:09:48Z</time>
      </trkpt>
      <trkpt lat="42.6415220" lon="1.8311080">
        <ele>1079.0</ele>
        <time>2020-07-30T08:09:51Z</time>
      </trkpt>
      <trkpt lat="42.6414420" lon="1.8310540">
        <ele>1079.0</ele>
        <time>2020-07-30T08:09:53Z</time>
      </trkpt>
      <trkpt lat="42.6412950" lon="1.8309350">
        <ele>1080.0</ele>
        <time>2020-07-30T08:09:57Z</time>
      </trkpt>
      <trkpt lat="42.6412580" lon="1.8309050">
        <ele>1080.2</ele>
        <time>2020-07-30T08:09:58Z</time>
      </trkpt>
      <trkpt lat="42.6412220" lon="1.8308750">
        <ele>1080.8</ele>
        <time>2020-07-30T08:09:59Z</time>
      </trkpt>
      <trkpt lat="42.6411070" lon="1.8307830">
        <ele>1081.6</ele>
        <time>2020-07-30T08:10:02Z</time>
      </trkpt>
      <trkpt lat="42.6409420" lon="1.8306700">
        <ele>1082.6</ele>
        <time>2020-07-30T08:10:06Z</time>
      </trkpt>
      <trkpt lat="42.6409010" lon="1.8306420">
        <ele>1082.8</ele>
        <time>2020-07-30T08:10:07Z</time>
      </trkpt>
      <trkpt lat="42.6406400" lon="1.8304980">
        <ele>1083.8</ele>
        <time>2020-07-30T08:10:13Z</time>
      </trkpt>
      <trkpt lat="42.6403490" lon="1.8303370">
        <ele>1084.8</ele>
        <time>2020-07-30T08:10:20Z</time>
      </trkpt>
      <trkpt lat="42.6403080" lon="1.8303150">
        <ele>1085.2</ele>
        <time>2020-07-30T08:10:21Z</time>
      </trkpt>
      <trkpt lat="42.6401430" lon="1.8302280">
        <ele>1086.0</ele>
        <time>2020-07-30T08:10:25Z</time>
      </trkpt>
      <trkpt lat="42.6399380" lon="1.8301180">
        <ele>1087.2</ele>
        <time>2020-07-30T08:10:30Z</time>
      </trkpt>
      <trkpt lat="42.6395040" lon="1.8299460">
        <ele>1088.4</ele>
        <time>2020-07-30T08:10:40Z</time>
      </trkpt>
      <trkpt lat="42.6394610" lon="1.8299300">
        <ele>1088.6</ele>
        <time>2020-07-30T08:10:41Z</time>
      </trkpt>
      <trkpt lat="42.6392870" lon="1.8298660">
        <ele>1089.2</ele>
        <time>2020-07-30T08:10:45Z</time>
      </trkpt>
      <trkpt lat="42.6390650" lon="1.8297990">
        <ele>1089.8</ele>
        <time>2020-07-30T08:10:50Z</time>
      </trkpt>
      <trkpt lat="42.6389710" lon="1.8297800">
        <ele>1090.4</ele>
        <time>2020-07-30T08:10:52Z</time>
      </trkpt>
      <trkpt lat="42.6388300" lon="1.8297430">
        <ele>1091.4</ele>
        <time>2020-07-30T08:10:55Z</time>
      </trkpt>
      <trkpt lat="42.6387370" lon="1.8297320">
        <ele>1091.8</ele>
        <time>2020-07-30T08:10:57Z</time>
      </trkpt>
      <trkpt lat="42.6384600" lon="1.8296980">
        <ele>1092.4</ele>
        <time>2020-07-30T08:11:03Z</time>
      </trkpt>
      <trkpt lat="42.6382270" lon="1.8296680">
        <ele>1093.0</ele>
        <time>2020-07-30T08:11:08Z</time>
      </trkpt>
      <trkpt lat="42.6380850" lon="1.8296480">
        <ele>1093.6</ele>
        <time>2020-07-30T08:11:11Z</time>
      </trkpt>
      <trkpt lat="42.6378020" lon="1.8295920">
        <ele>1094.6</ele>
        <time>2020-07-30T08:11:17Z</time>
      </trkpt>
      <trkpt lat="42.6374080" lon="1.8295110">
        <ele>1095.6</ele>
        <time>2020-07-30T08:11:25Z</time>
      </trkpt>
      <trkpt lat="42.6370380" lon="1.8293870">
        <ele>1096.8</ele>
        <time>2020-07-30T08:11:33Z</time>
      </trkpt>
      <trkpt lat="42.6369470" lon="1.8293510">
        <ele>1097.0</ele>
        <time>2020-07-30T08:11:35Z</time>
      </trkpt>
      <trkpt lat="42.6367650" lon="1.8292730">
        <ele>1097.8</ele>
        <time>2020-07-30T08:11:39Z</time>
      </trkpt>
      <trkpt lat="42.6365500" lon="1.8291520">
        <ele>1098.2</ele>
        <time>2020-07-30T08:11:44Z</time>
      </trkpt>
      <trkpt lat="42.6364680" lon="1.8291090">
        <ele>1098.8</ele>
        <time>2020-07-30T08:11:46Z</time>
      </trkpt>
      <trkpt lat="42.6361290" lon="1.8289550">
        <ele>1100.0</ele>
        <time>2020-07-30T08:11:54Z</time>
      </trkpt>
      <trkpt lat="42.6359520" lon="1.8289370">
        <ele>1101.0</ele>
        <time>2020-07-30T08:11:58Z</time>
      </trkpt>
      <trkpt lat="42.6359080" lon="1.8289540">
        <ele>1101.4</ele>
        <time>2020-07-30T08:11:59Z</time>
      </trkpt>
      <trkpt lat="42.6358200" lon="1.8290010">
        <ele>1101.6</ele>
        <time>2020-07-30T08:12:01Z</time>
      </trkpt>
      <trkpt lat="42.6357240" lon="1.8289850">
        <ele>1101.8</ele>
        <time>2020-07-30T08:12:03Z</time>
      </trkpt>
      <trkpt lat="42.6354850" lon="1.8289020">
        <ele>1102.4</ele>
        <time>2020-07-30T08:12:08Z</time>
      </trkpt>
      <trkpt lat="42.6352240" lon="1.8288010">
        <ele>1103.2</ele>
        <time>2020-07-30T08:12:13Z</time>
      </trkpt>
      <trkpt lat="42.6351220" lon="1.8287490">
        <ele>1103.4</ele>
        <time>2020-07-30T08:12:15Z</time>
      </trkpt>
      <trkpt lat="42.6348950" lon="1.8285900">
        <ele>1104.2</ele>
        <time>2020-07-30T08:12:20Z</time>
      </trkpt>
      <trkpt lat="42.6347680" lon="1.8285060">
        <ele>1104.6</ele>
        <time>2020-07-30T08:12:23Z</time>
      </trkpt>
      <trkpt lat="42.6345660" lon="1.8283800">
        <ele>1105.4</ele>
        <time>2020-07-30T08:12:28Z</time>
      </trkpt>
      <trkpt lat="42.6342990" lon="1.8281990">
        <ele>1106.6</ele>
        <time>2020-07-30T08:12:35Z</time>
      </trkpt>
      <trkpt lat="42.6342260" lon="1.8281470">
        <ele>1107.0</ele>
        <time>2020-07-30T08:12:37Z</time>
      </trkpt>
      <trkpt lat="42.6341180" lon="1.8280680">
        <ele>1107.6</ele>
        <time>2020-07-30T08:12:40Z</time>
      </trkpt>
      <trkpt lat="42.6339130" lon="1.8279170">
        <ele>1108.6</ele>
        <time>2020-07-30T08:12:46Z</time>
      </trkpt>
      <trkpt lat="42.6338790" lon="1.8278890">
        <ele>1108.8</ele>
        <time>2020-07-30T08:12:47Z</time>
      </trkpt>
      <trkpt lat="42.6337750" lon="1.8278020">
        <ele>1109.4</ele>
        <time>2020-07-30T08:12:50Z</time>
      </trkpt>
      <trkpt lat="42.6336680" lon="1.8277140">
        <ele>1109.8</ele>
        <time>2020-07-30T08:12:53Z</time>
      </trkpt>
      <trkpt lat="42.6336290" lon="1.8276900">
        <ele>1110.0</ele>
        <time>2020-07-30T08:12:54Z</time>
      </trkpt>
      <trkpt lat="42.6334770" lon="1.8275870">
        <ele>1110.8</ele>
        <time>2020-07-30T08:12:58Z</time>
      </trkpt>
      <trkpt lat="42.6334450" lon="1.8275560">
        <ele>1111.0</ele>
        <time>2020-07-30T08:12:59Z</time>
      </trkpt>
      <trkpt lat="42.6332780" lon="1.8274250">
        <ele>1112.2</ele>
        <time>2020-07-30T08:13:04Z</time>
      </trkpt>
      <trkpt lat="42.6331750" lon="1.8273470">
        <ele>1112.6</ele>
        <time>2020-07-30T08:13:07Z</time>
      </trkpt>
      <trkpt lat="42.6331130" lon="1.8272960">
        <ele>1113.2</ele>
        <time>2020-07-30T08:13:09Z</time>
      </trkpt>
      <trkpt lat="42.6330820" lon="1.8272690">
        <ele>1113.4</ele>
        <time>2020-07-30T08:13:10Z</time>
      </trkpt>
      <trkpt lat="42.6329820" lon="1.8271850">
        <ele>1114.4</ele>
        <time>2020-07-30T08:13:13Z</time>
      </trkpt>
      <trkpt lat="42.6329230" lon="1.8271260">
        <ele>1114.8</ele>
        <time>2020-07-30T08:13:15Z</time>
      </trkpt>
      <trkpt lat="42.6327990" lon="1.8269910">
        <ele>1115.4</ele>
        <time>2020-07-30T08:13:19Z</time>
      </trkpt>
      <trkpt lat="42.6326710" lon="1.8268700">
        <ele>1116.0</ele>
        <time>2020-07-30T08:13:23Z</time>
      </trkpt>
      <trkpt lat="42.6326100" lon="1.8268010">
        <ele>1116.4</ele>
        <time>2020-07-30T08:13:25Z</time>
      </trkpt>
      <trkpt lat="42.6324790" lon="1.8266340">
        <ele>1117.2</ele>
        <time>2020-07-30T08:13:30Z</time>
      </trkpt>
      <trkpt lat="42.6324260" lon="1.8265770">
        <ele>1117.6</ele>
        <time>2020-07-30T08:13:32Z</time>
      </trkpt>
      <trkpt lat="42.6323160" lon="1.8264210">
        <ele>1118.4</ele>
        <time>2020-07-30T08:13:36Z</time>
      </trkpt>
      <trkpt lat="42.6322060" lon="1.8262760">
        <ele>1119.4</ele>
        <time>2020-07-30T08:13:40Z</time>
      </trkpt>
      <trkpt lat="42.6321490" lon="1.8261850">
        <ele>1119.8</ele>
        <time>2020-07-30T08:13:42Z</time>
      </trkpt>
      <trkpt lat="42.6320420" lon="1.8260600">
        <ele>1120.4</ele>
        <time>2020-07-30T08:13:45Z</time>
      </trkpt>
      <trkpt lat="42.6320050" lon="1.8260210">
        <ele>1120.6</ele>
        <time>2020-07-30T08:13:46Z</time>
      </trkpt>
      <trkpt lat="42.6317140" lon="1.8258060">
        <ele>1121.6</ele>
        <time>2020-07-30T08:13:53Z</time>
      </trkpt>
      <trkpt lat="42.6316250" lon="1.8257780">
        <ele>1122.6</ele>
        <time>2020-07-30T08:13:55Z</time>
      </trkpt>
      <trkpt lat="42.6315800" lon="1.8257720">
        <ele>1122.8</ele>
        <time>2020-07-30T08:13:56Z</time>
      </trkpt>
      <trkpt lat="42.6314540" lon="1.8257810">
        <ele>1123.2</ele>
        <time>2020-07-30T08:13:59Z</time>
      </trkpt>
      <trkpt lat="42.6313540" lon="1.8257720">
        <ele>1123.6</ele>
        <time>2020-07-30T08:14:02Z</time>
      </trkpt>
      <trkpt lat="42.6313100" lon="1.8257720">
        <ele>1123.6</ele>
        <time>2020-07-30T08:14:03Z</time>
      </trkpt>
      <trkpt lat="42.6312630" lon="1.8257720">
        <ele>1123.8</ele>
        <time>2020-07-30T08:14:04Z</time>
      </trkpt>
      <trkpt lat="42.6309810" lon="1.8257240">
        <ele>1124.6</ele>
        <time>2020-07-30T08:14:11Z</time>
      </trkpt>
      <trkpt lat="42.6309380" lon="1.8257200">
        <ele>1124.8</ele>
        <time>2020-07-30T08:14:12Z</time>
      </trkpt>
      <trkpt lat="42.6306320" lon="1.8256770">
        <ele>1125.8</ele>
        <time>2020-07-30T08:14:19Z</time>
      </trkpt>
      <trkpt lat="42.6305880" lon="1.8256750">
        <ele>1126.0</ele>
        <time>2020-07-30T08:14:20Z</time>
      </trkpt>
      <trkpt lat="42.6303680" lon="1.8256800">
        <ele>1127.2</ele>
        <time>2020-07-30T08:14:25Z</time>
      </trkpt>
      <trkpt lat="42.6302040" lon="1.8257240">
        <ele>1128.0</ele>
        <time>2020-07-30T08:14:29Z</time>
      </trkpt>
      <trkpt lat="42.6301230" lon="1.8257630">
        <ele>1128.4</ele>
        <time>2020-07-30T08:14:31Z</time>
      </trkpt>
      <trkpt lat="42.6300040" lon="1.8258280">
        <ele>1128.8</ele>
        <time>2020-07-30T08:14:34Z</time>
      </trkpt>
      <trkpt lat="42.6299250" lon="1.8258680">
        <ele>1129.0</ele>
        <time>2020-07-30T08:14:36Z</time>
      </trkpt>
      <trkpt lat="42.6298100" lon="1.8259180">
        <ele>1129.4</ele>
        <time>2020-07-30T08:14:39Z</time>
      </trkpt>
      <trkpt lat="42.6296650" lon="1.8259280">
        <ele>1129.8</ele>
        <time>2020-07-30T08:14:43Z</time>
      </trkpt>
      <trkpt lat="42.6294040" lon="1.8259200">
        <ele>1130.4</ele>
        <time>2020-07-30T08:14:49Z</time>
      </trkpt>
      <trkpt lat="42.6293090" lon="1.8259160">
        <ele>1130.6</ele>
        <time>2020-07-30T08:14:51Z</time>
      </trkpt>
      <trkpt lat="42.6291350" lon="1.8259080">
        <ele>1131.6</ele>
        <time>2020-07-30T08:14:55Z</time>
      </trkpt>
      <trkpt lat="42.6288550" lon="1.8258960">
        <ele>1132.6</ele>
        <time>2020-07-30T08:15:01Z</time>
      </trkpt>
      <trkpt lat="42.6288060" lon="1.8258950">
        <ele>1132.8</ele>
        <time>2020-07-30T08:15:02Z</time>
      </trkpt>
      <trkpt lat="42.6284900" lon="1.8258910">
        <ele>1133.8</ele>
        <time>2020-07-30T08:15:09Z</time>
      </trkpt>
      <trkpt lat="42.6283980" lon="1.8258940">
        <ele>1133.8</ele>
        <time>2020-07-30T08:15:11Z</time>
      </trkpt>
      <trkpt lat="42.6281340" lon="1.8258980">
        <ele>1134.6</ele>
        <time>2020-07-30T08:15:17Z</time>
      </trkpt>
      <trkpt lat="42.6280910" lon="1.8258870">
        <ele>1134.8</ele>
        <time>2020-07-30T08:15:18Z</time>
      </trkpt>
      <trkpt lat="42.6279090" lon="1.8258400">
        <ele>1135.4</ele>
        <time>2020-07-30T08:15:22Z</time>
      </trkpt>
      <trkpt lat="42.6278140" lon="1.8258140">
        <ele>1135.6</ele>
        <time>2020-07-30T08:15:24Z</time>
      </trkpt>
      <trkpt lat="42.6277190" lon="1.8257880">
        <ele>1136.0</ele>
        <time>2020-07-30T08:15:26Z</time>
      </trkpt>
      <trkpt lat="42.6275950" lon="1.8257260">
        <ele>1136.2</ele>
        <time>2020-07-30T08:15:29Z</time>
      </trkpt>
      <trkpt lat="42.6275160" lon="1.8256660">
        <ele>1136.4</ele>
        <time>2020-07-30T08:15:31Z</time>
      </trkpt>
      <trkpt lat="42.6274790" lon="1.8256330">
        <ele>1136.4</ele>
        <time>2020-07-30T08:15:32Z</time>
      </trkpt>
      <trkpt lat="42.6273680" lon="1.8255220">
        <ele>1136.8</ele>
        <time>2020-07-30T08:15:35Z</time>
      </trkpt>
      <trkpt lat="42.6272330" lon="1.8253530">
        <ele>1137.4</ele>
        <time>2020-07-30T08:15:39Z</time>
      </trkpt>
      <trkpt lat="42.6271380" lon="1.8252330">
        <ele>1138.0</ele>
        <time>2020-07-30T08:15:42Z</time>
      </trkpt>
      <trkpt lat="42.6270130" lon="1.8250830">
        <ele>1138.8</ele>
        <time>2020-07-30T08:15:46Z</time>
      </trkpt>
      <trkpt lat="42.6269490" lon="1.8250180">
        <ele>1139.2</ele>
        <time>2020-07-30T08:15:48Z</time>
      </trkpt>
      <trkpt lat="42.6267670" lon="1.8248540">
        <ele>1140.6</ele>
        <time>2020-07-30T08:15:53Z</time>
      </trkpt>
      <trkpt lat="42.6267290" lon="1.8248260">
        <ele>1140.4</ele>
        <time>2020-07-30T08:15:54Z</time>
      </trkpt>
      <trkpt lat="42.6264510" lon="1.8246610">
        <ele>1141.4</ele>
        <time>2020-07-30T08:16:01Z</time>
      </trkpt>
      <trkpt lat="42.6264120" lon="1.8246450">
        <ele>1141.6</ele>
        <time>2020-07-30T08:16:02Z</time>
      </trkpt>
      <trkpt lat="42.6262600" lon="1.8245810">
        <ele>1142.4</ele>
        <time>2020-07-30T08:16:06Z</time>
      </trkpt>
      <trkpt lat="42.6260300" lon="1.8245050">
        <ele>1143.6</ele>
        <time>2020-07-30T08:16:12Z</time>
      </trkpt>
      <trkpt lat="42.6257240" lon="1.8244120">
        <ele>1144.8</ele>
        <time>2020-07-30T08:16:20Z</time>
      </trkpt>
      <trkpt lat="42.6255240" lon="1.8243590">
        <ele>1145.6</ele>
        <time>2020-07-30T08:16:25Z</time>
      </trkpt>
      <trkpt lat="42.6253350" lon="1.8243030">
        <ele>1146.4</ele>
        <time>2020-07-30T08:16:30Z</time>
      </trkpt>
      <trkpt lat="42.6253010" lon="1.8242900">
        <ele>1146.6</ele>
        <time>2020-07-30T08:16:31Z</time>
      </trkpt>
      <trkpt lat="42.6251470" lon="1.8242220">
        <ele>1147.6</ele>
        <time>2020-07-30T08:16:36Z</time>
      </trkpt>
      <trkpt lat="42.6251120" lon="1.8242090">
        <ele>1147.8</ele>
        <time>2020-07-30T08:16:37Z</time>
      </trkpt>
      <trkpt lat="42.6248650" lon="1.8241510">
        <ele>1148.8</ele>
        <time>2020-07-30T08:16:43Z</time>
      </trkpt>
      <trkpt lat="42.6247470" lon="1.8241150">
        <ele>1149.2</ele>
        <time>2020-07-30T08:16:46Z</time>
      </trkpt>
      <trkpt lat="42.6245670" lon="1.8240320">
        <ele>1150.2</ele>
        <time>2020-07-30T08:16:51Z</time>
      </trkpt>
      <trkpt lat="42.6245360" lon="1.8240030">
        <ele>1150.4</ele>
        <time>2020-07-30T08:16:52Z</time>
      </trkpt>
      <trkpt lat="42.6244010" lon="1.8239040">
        <ele>1151.4</ele>
        <time>2020-07-30T08:16:56Z</time>
      </trkpt>
      <trkpt lat="42.6243080" lon="1.8238290">
        <ele>1152.0</ele>
        <time>2020-07-30T08:16:59Z</time>
      </trkpt>
      <trkpt lat="42.6242510" lon="1.8237750">
        <ele>1152.2</ele>
        <time>2020-07-30T08:17:01Z</time>
      </trkpt>
      <trkpt lat="42.6240990" lon="1.8236260">
        <ele>1153.2</ele>
        <time>2020-07-30T08:17:06Z</time>
      </trkpt>
      <trkpt lat="42.6240550" lon="1.8236160">
        <ele>1153.6</ele>
        <time>2020-07-30T08:17:07Z</time>
      </trkpt>
      <trkpt lat="42.6239280" lon="1.8234750">
        <ele>1154.2</ele>
        <time>2020-07-30T08:17:11Z</time>
      </trkpt>
      <trkpt lat="42.6238720" lon="1.8233930">
        <ele>1154.6</ele>
        <time>2020-07-30T08:17:13Z</time>
      </trkpt>
      <trkpt lat="42.6237510" lon="1.8231800">
        <ele>1155.2</ele>
        <time>2020-07-30T08:17:18Z</time>
      </trkpt>
      <trkpt lat="42.6237060" lon="1.8230960">
        <ele>1155.6</ele>
        <time>2020-07-30T08:17:20Z</time>
      </trkpt>
      <trkpt lat="42.6236570" lon="1.8230140">
        <ele>1156.6</ele>
        <time>2020-07-30T08:17:22Z</time>
      </trkpt>
      <trkpt lat="42.6235340" lon="1.8228140">
        <ele>1157.8</ele>
        <time>2020-07-30T08:17:27Z</time>
      </trkpt>
      <trkpt lat="42.6234540" lon="1.8226950">
        <ele>1158.4</ele>
        <time>2020-07-30T08:17:30Z</time>
      </trkpt>
      <trkpt lat="42.6233660" lon="1.8225900">
        <ele>1159.0</ele>
        <time>2020-07-30T08:17:33Z</time>
      </trkpt>
      <trkpt lat="42.6232040" lon="1.8224470">
        <ele>1159.8</ele>
        <time>2020-07-30T08:17:38Z</time>
      </trkpt>
      <trkpt lat="42.6231690" lon="1.8224230">
        <ele>1160.0</ele>
        <time>2020-07-30T08:17:39Z</time>
      </trkpt>
      <trkpt lat="42.6229420" lon="1.8223360">
        <ele>1160.8</ele>
        <time>2020-07-30T08:17:45Z</time>
      </trkpt>
      <trkpt lat="42.6228260" lon="1.8223210">
        <ele>1161.0</ele>
        <time>2020-07-30T08:17:48Z</time>
      </trkpt>
      <trkpt lat="42.6226690" lon="1.8223130">
        <ele>1161.8</ele>
        <time>2020-07-30T08:17:52Z</time>
      </trkpt>
      <trkpt lat="42.6226300" lon="1.8223190">
        <ele>1161.8</ele>
        <time>2020-07-30T08:17:53Z</time>
      </trkpt>
      <trkpt lat="42.6224070" lon="1.8223250">
        <ele>1163.0</ele>
        <time>2020-07-30T08:17:59Z</time>
      </trkpt>
      <trkpt lat="42.6223730" lon="1.8223240">
        <ele>1163.4</ele>
        <time>2020-07-30T08:18:00Z</time>
      </trkpt>
      <trkpt lat="42.6221770" lon="1.8223080">
        <ele>1164.2</ele>
        <time>2020-07-30T08:18:06Z</time>
      </trkpt>
      <trkpt lat="42.6220320" lon="1.8223030">
        <ele>1165.0</ele>
        <time>2020-07-30T08:18:10Z</time>
      </trkpt>
      <trkpt lat="42.6219510" lon="1.8223130">
        <ele>1165.4</ele>
        <time>2020-07-30T08:18:12Z</time>
      </trkpt>
      <trkpt lat="42.6217660" lon="1.8223380">
        <ele>1166.4</ele>
        <time>2020-07-30T08:18:17Z</time>
      </trkpt>
      <trkpt lat="42.6217290" lon="1.8223490">
        <ele>1166.4</ele>
        <time>2020-07-30T08:18:18Z</time>
      </trkpt>
      <trkpt lat="42.6215670" lon="1.8223930">
        <ele>1167.4</ele>
        <time>2020-07-30T08:18:22Z</time>
      </trkpt>
      <trkpt lat="42.6215280" lon="1.8224010">
        <ele>1167.6</ele>
        <time>2020-07-30T08:18:23Z</time>
      </trkpt>
      <trkpt lat="42.6212100" lon="1.8224050">
        <ele>1168.4</ele>
        <time>2020-07-30T08:18:30Z</time>
      </trkpt>
      <trkpt lat="42.6211690" lon="1.8223950">
        <ele>1168.4</ele>
        <time>2020-07-30T08:18:31Z</time>
      </trkpt>
      <trkpt lat="42.6209460" lon="1.8222670">
        <ele>1169.6</ele>
        <time>2020-07-30T08:18:37Z</time>
      </trkpt>
      <trkpt lat="42.6207870" lon="1.8220920">
        <ele>1170.8</ele>
        <time>2020-07-30T08:18:42Z</time>
      </trkpt>
      <trkpt lat="42.6207250" lon="1.8220100">
        <ele>1171.2</ele>
        <time>2020-07-30T08:18:44Z</time>
      </trkpt>
      <trkpt lat="42.6206360" lon="1.8218930">
        <ele>1171.8</ele>
        <time>2020-07-30T08:18:47Z</time>
      </trkpt>
      <trkpt lat="42.6204930" lon="1.8217090">
        <ele>1172.8</ele>
        <time>2020-07-30T08:18:52Z</time>
      </trkpt>
      <trkpt lat="42.6204370" lon="1.8216410">
        <ele>1173.4</ele>
        <time>2020-07-30T08:18:54Z</time>
      </trkpt>
      <trkpt lat="42.6203180" lon="1.8215010">
        <ele>1174.0</ele>
        <time>2020-07-30T08:18:58Z</time>
      </trkpt>
      <trkpt lat="42.6201960" lon="1.8213710">
        <ele>1174.8</ele>
        <time>2020-07-30T08:19:02Z</time>
      </trkpt>
      <trkpt lat="42.6201650" lon="1.8213400">
        <ele>1175.0</ele>
        <time>2020-07-30T08:19:03Z</time>
      </trkpt>
      <trkpt lat="42.6199520" lon="1.8211200">
        <ele>1175.8</ele>
        <time>2020-07-30T08:19:10Z</time>
      </trkpt>
      <trkpt lat="42.6199200" lon="1.8210910">
        <ele>1176.0</ele>
        <time>2020-07-30T08:19:11Z</time>
      </trkpt>
      <trkpt lat="42.6197050" lon="1.8208780">
        <ele>1177.0</ele>
        <time>2020-07-30T08:19:18Z</time>
      </trkpt>
      <trkpt lat="42.6195550" lon="1.8207230">
        <ele>1178.0</ele>
        <time>2020-07-30T08:19:23Z</time>
      </trkpt>
      <trkpt lat="42.6195240" lon="1.8206950">
        <ele>1178.0</ele>
        <time>2020-07-30T08:19:24Z</time>
      </trkpt>
      <trkpt lat="42.6193200" lon="1.8205400">
        <ele>1179.2</ele>
        <time>2020-07-30T08:19:30Z</time>
      </trkpt>
      <trkpt lat="42.6192490" lon="1.8204970">
        <ele>1179.6</ele>
        <time>2020-07-30T08:19:32Z</time>
      </trkpt>
      <trkpt lat="42.6191070" lon="1.8204200">
        <ele>1180.4</ele>
        <time>2020-07-30T08:19:36Z</time>
      </trkpt>
      <trkpt lat="42.6189170" lon="1.8203730">
        <ele>1181.2</ele>
        <time>2020-07-30T08:19:41Z</time>
      </trkpt>
      <trkpt lat="42.6186840" lon="1.8203350">
        <ele>1182.6</ele>
        <time>2020-07-30T08:19:47Z</time>
      </trkpt>
      <trkpt lat="42.6185760" lon="1.8203090">
        <ele>1183.0</ele>
        <time>2020-07-30T08:19:50Z</time>
      </trkpt>
      <trkpt lat="42.6184640" lon="1.8202790">
        <ele>1183.6</ele>
        <time>2020-07-30T08:19:53Z</time>
      </trkpt>
      <trkpt lat="42.6182910" lon="1.8202060">
        <ele>1184.2</ele>
        <time>2020-07-30T08:19:58Z</time>
      </trkpt>
      <trkpt lat="42.6181740" lon="1.8201690">
        <ele>1184.6</ele>
        <time>2020-07-30T08:20:01Z</time>
      </trkpt>
      <trkpt lat="42.6180270" lon="1.8201220">
        <ele>1185.4</ele>
        <time>2020-07-30T08:20:05Z</time>
      </trkpt>
      <trkpt lat="42.6179480" lon="1.8200990">
        <ele>1185.8</ele>
        <time>2020-07-30T08:20:07Z</time>
      </trkpt>
      <trkpt lat="42.6177940" lon="1.8200320">
        <ele>1186.8</ele>
        <time>2020-07-30T08:20:12Z</time>
      </trkpt>
      <trkpt lat="42.6176020" lon="1.8200180">
        <ele>1188.0</ele>
        <time>2020-07-30T08:20:18Z</time>
      </trkpt>
      <trkpt lat="42.6174220" lon="1.8200330">
        <ele>1189.2</ele>
        <time>2020-07-30T08:20:23Z</time>
      </trkpt>
      <trkpt lat="42.6173080" lon="1.8200240">
        <ele>1189.4</ele>
        <time>2020-07-30T08:20:26Z</time>
      </trkpt>
      <trkpt lat="42.6170780" lon="1.8199930">
        <ele>1190.0</ele>
        <time>2020-07-30T08:20:32Z</time>
      </trkpt>
      <trkpt lat="42.6169780" lon="1.8199990">
        <ele>1190.2</ele>
        <time>2020-07-30T08:20:34Z</time>
      </trkpt>
      <trkpt lat="42.6167810" lon="1.8200010">
        <ele>1191.4</ele>
        <time>2020-07-30T08:20:38Z</time>
      </trkpt>
      <trkpt lat="42.6165560" lon="1.8199980">
        <ele>1192.4</ele>
        <time>2020-07-30T08:20:42Z</time>
      </trkpt>
      <trkpt lat="42.6165000" lon="1.8199940">
        <ele>1192.6</ele>
        <time>2020-07-30T08:20:43Z</time>
      </trkpt>
      <trkpt lat="42.6164000" lon="1.8199650">
        <ele>1193.0</ele>
        <time>2020-07-30T08:20:45Z</time>
      </trkpt>
      <trkpt lat="42.6163070" lon="1.8199160">
        <ele>1193.4</ele>
        <time>2020-07-30T08:20:47Z</time>
      </trkpt>
      <trkpt lat="42.6162140" lon="1.8198640">
        <ele>1193.8</ele>
        <time>2020-07-30T08:20:49Z</time>
      </trkpt>
      <trkpt lat="42.6159950" lon="1.8197680">
        <ele>1194.0</ele>
        <time>2020-07-30T08:20:54Z</time>
      </trkpt>
      <trkpt lat="42.6159510" lon="1.8197540">
        <ele>1194.2</ele>
        <time>2020-07-30T08:20:55Z</time>
      </trkpt>
      <trkpt lat="42.6157600" lon="1.8197040">
        <ele>1194.4</ele>
        <time>2020-07-30T08:20:59Z</time>
      </trkpt>
      <trkpt lat="42.6155710" lon="1.8196290">
        <ele>1195.0</ele>
        <time>2020-07-30T08:21:03Z</time>
      </trkpt>
      <trkpt lat="42.6154840" lon="1.8195800">
        <ele>1195.0</ele>
        <time>2020-07-30T08:21:05Z</time>
      </trkpt>
      <trkpt lat="42.6153030" lon="1.8194720">
        <ele>1195.4</ele>
        <time>2020-07-30T08:21:09Z</time>
      </trkpt>
      <trkpt lat="42.6152600" lon="1.8194410">
        <ele>1195.4</ele>
        <time>2020-07-30T08:21:10Z</time>
      </trkpt>
      <trkpt lat="42.6149900" lon="1.8191890">
        <ele>1196.2</ele>
        <time>2020-07-30T08:21:17Z</time>
      </trkpt>
      <trkpt lat="42.6149170" lon="1.8191140">
        <ele>1196.4</ele>
        <time>2020-07-30T08:21:19Z</time>
      </trkpt>
      <trkpt lat="42.6147100" lon="1.8188870">
        <ele>1197.0</ele>
        <time>2020-07-30T08:21:25Z</time>
      </trkpt>
      <trkpt lat="42.6146110" lon="1.8187670">
        <ele>1197.4</ele>
        <time>2020-07-30T08:21:28Z</time>
      </trkpt>
      <trkpt lat="42.6144560" lon="1.8186290">
        <ele>1198.0</ele>
        <time>2020-07-30T08:21:32Z</time>
      </trkpt>
      <trkpt lat="42.6143750" lon="1.8185630">
        <ele>1198.6</ele>
        <time>2020-07-30T08:21:34Z</time>
      </trkpt>
      <trkpt lat="42.6142430" lon="1.8184870">
        <ele>1199.0</ele>
        <time>2020-07-30T08:21:37Z</time>
      </trkpt>
      <trkpt lat="42.6141500" lon="1.8184460">
        <ele>1199.2</ele>
        <time>2020-07-30T08:21:39Z</time>
      </trkpt>
      <trkpt lat="42.6139640" lon="1.8183830">
        <ele>1199.8</ele>
        <time>2020-07-30T08:21:43Z</time>
      </trkpt>
      <trkpt lat="42.6138220" lon="1.8183690">
        <ele>1200.6</ele>
        <time>2020-07-30T08:21:46Z</time>
      </trkpt>
      <trkpt lat="42.6137760" lon="1.8183690">
        <ele>1200.8</ele>
        <time>2020-07-30T08:21:47Z</time>
      </trkpt>
      <trkpt lat="42.6136860" lon="1.8183760">
        <ele>1201.2</ele>
        <time>2020-07-30T08:21:49Z</time>
      </trkpt>
      <trkpt lat="42.6135890" lon="1.8184000">
        <ele>1201.4</ele>
        <time>2020-07-30T08:21:51Z</time>
      </trkpt>
      <trkpt lat="42.6133630" lon="1.8184550">
        <ele>1201.8</ele>
        <time>2020-07-30T08:21:56Z</time>
      </trkpt>
      <trkpt lat="42.6132240" lon="1.8184830">
        <ele>1202.0</ele>
        <time>2020-07-30T08:21:59Z</time>
      </trkpt>
      <trkpt lat="42.6129950" lon="1.8185210">
        <ele>1203.0</ele>
        <time>2020-07-30T08:22:04Z</time>
      </trkpt>
      <trkpt lat="42.6128480" lon="1.8185370">
        <ele>1203.2</ele>
        <time>2020-07-30T08:22:07Z</time>
      </trkpt>
      <trkpt lat="42.6124850" lon="1.8185540">
        <ele>1204.0</ele>
        <time>2020-07-30T08:22:13Z</time>
      </trkpt>
      <trkpt lat="42.6124310" lon="1.8185470">
        <ele>1204.2</ele>
        <time>2020-07-30T08:22:14Z</time>
      </trkpt>
      <trkpt lat="42.6121520" lon="1.8184370">
        <ele>1204.8</ele>
        <time>2020-07-30T08:22:20Z</time>
      </trkpt>
      <trkpt lat="42.6121120" lon="1.8184090">
        <ele>1205.0</ele>
        <time>2020-07-30T08:22:21Z</time>
      </trkpt>
      <trkpt lat="42.6118840" lon="1.8182330">
        <ele>1206.0</ele>
        <time>2020-07-30T08:22:27Z</time>
      </trkpt>
      <trkpt lat="42.6118140" lon="1.8181670">
        <ele>1206.4</ele>
        <time>2020-07-30T08:22:29Z</time>
      </trkpt>
      <trkpt lat="42.6117340" lon="1.8181200">
        <ele>1207.0</ele>
        <time>2020-07-30T08:22:31Z</time>
      </trkpt>
      <trkpt lat="42.6116130" lon="1.8180110">
        <ele>1207.8</ele>
        <time>2020-07-30T08:22:34Z</time>
      </trkpt>
      <trkpt lat="42.6115720" lon="1.8179740">
        <ele>1208.2</ele>
        <time>2020-07-30T08:22:35Z</time>
      </trkpt>
      <trkpt lat="42.6113750" lon="1.8178090">
        <ele>1209.2</ele>
        <time>2020-07-30T08:22:40Z</time>
      </trkpt>
      <trkpt lat="42.6112200" lon="1.8176900">
        <ele>1209.8</ele>
        <time>2020-07-30T08:22:44Z</time>
      </trkpt>
      <trkpt lat="42.6111420" lon="1.8176320">
        <ele>1210.2</ele>
        <time>2020-07-30T08:22:46Z</time>
      </trkpt>
      <trkpt lat="42.6108800" lon="1.8174570">
        <ele>1211.2</ele>
        <time>2020-07-30T08:22:53Z</time>
      </trkpt>
      <trkpt lat="42.6108420" lon="1.8174380">
        <ele>1211.4</ele>
        <time>2020-07-30T08:22:54Z</time>
      </trkpt>
      <trkpt lat="42.6105760" lon="1.8172870">
        <ele>1212.4</ele>
        <time>2020-07-30T08:23:01Z</time>
      </trkpt>
      <trkpt lat="42.6105350" lon="1.8172770">
        <ele>1212.6</ele>
        <time>2020-07-30T08:23:02Z</time>
      </trkpt>
      <trkpt lat="42.6104540" lon="1.8172680">
        <ele>1213.0</ele>
        <time>2020-07-30T08:23:04Z</time>
      </trkpt>
      <trkpt lat="42.6103330" lon="1.8173000">
        <ele>1213.4</ele>
        <time>2020-07-30T08:23:07Z</time>
      </trkpt>
      <trkpt lat="42.6102940" lon="1.8173280">
        <ele>1213.6</ele>
        <time>2020-07-30T08:23:08Z</time>
      </trkpt>
      <trkpt lat="42.6101690" lon="1.8175120">
        <ele>1214.4</ele>
        <time>2020-07-30T08:23:12Z</time>
      </trkpt>
      <trkpt lat="42.6101480" lon="1.8175730">
        <ele>1214.6</ele>
        <time>2020-07-30T08:23:13Z</time>
      </trkpt>
      <trkpt lat="42.6101390" lon="1.8177620">
        <ele>1214.8</ele>
        <time>2020-07-30T08:23:16Z</time>
      </trkpt>
      <trkpt lat="42.6101490" lon="1.8178960">
        <ele>1215.0</ele>
        <time>2020-07-30T08:23:18Z</time>
      </trkpt>
      <trkpt lat="42.6101610" lon="1.8179610">
        <ele>1215.0</ele>
        <time>2020-07-30T08:23:19Z</time>
      </trkpt>
      <trkpt lat="42.6101960" lon="1.8180830">
        <ele>1215.2</ele>
        <time>2020-07-30T08:23:21Z</time>
      </trkpt>
      <trkpt lat="42.6102720" lon="1.8182530">
        <ele>1215.6</ele>
        <time>2020-07-30T08:23:24Z</time>
      </trkpt>
      <trkpt lat="42.6103840" lon="1.8184460">
        <ele>1215.8</ele>
        <time>2020-07-30T08:23:28Z</time>
      </trkpt>
      <trkpt lat="42.6105660" lon="1.8186850">
        <ele>1216.4</ele>
        <time>2020-07-30T08:23:34Z</time>
      </trkpt>
      <trkpt lat="42.6106020" lon="1.8187190">
        <ele>1216.6</ele>
        <time>2020-07-30T08:23:35Z</time>
      </trkpt>
      <trkpt lat="42.6107920" lon="1.8188530">
        <ele>1217.6</ele>
        <time>2020-07-30T08:23:40Z</time>
      </trkpt>
      <trkpt lat="42.6108710" lon="1.8189000">
        <ele>1218.2</ele>
        <time>2020-07-30T08:23:42Z</time>
      </trkpt>
      <trkpt lat="42.6109950" lon="1.8189690">
        <ele>1218.6</ele>
        <time>2020-07-30T08:23:45Z</time>
      </trkpt>
      <trkpt lat="42.6111980" lon="1.8190950">
        <ele>1219.6</ele>
        <time>2020-07-30T08:23:50Z</time>
      </trkpt>
      <trkpt lat="42.6112390" lon="1.8191220">
        <ele>1219.8</ele>
        <time>2020-07-30T08:23:51Z</time>
      </trkpt>
      <trkpt lat="42.6114540" lon="1.8192690">
        <ele>1220.6</ele>
        <time>2020-07-30T08:23:57Z</time>
      </trkpt>
      <trkpt lat="42.6114860" lon="1.8192960">
        <ele>1220.8</ele>
        <time>2020-07-30T08:23:58Z</time>
      </trkpt>
      <trkpt lat="42.6116800" lon="1.8194200">
        <ele>1221.6</ele>
        <time>2020-07-30T08:24:03Z</time>
      </trkpt>
      <trkpt lat="42.6117210" lon="1.8194410">
        <ele>1221.8</ele>
        <time>2020-07-30T08:24:04Z</time>
      </trkpt>
      <trkpt lat="42.6119260" lon="1.8195180">
        <ele>1222.8</ele>
        <time>2020-07-30T08:24:09Z</time>
      </trkpt>
      <trkpt lat="42.6119680" lon="1.8195270">
        <ele>1223.0</ele>
        <time>2020-07-30T08:24:10Z</time>
      </trkpt>
      <trkpt lat="42.6121650" lon="1.8195630">
        <ele>1224.0</ele>
        <time>2020-07-30T08:24:15Z</time>
      </trkpt>
      <trkpt lat="42.6122400" lon="1.8195880">
        <ele>1224.2</ele>
        <time>2020-07-30T08:24:17Z</time>
      </trkpt>
      <trkpt lat="42.6124510" lon="1.8197160">
        <ele>1224.8</ele>
        <time>2020-07-30T08:24:23Z</time>
      </trkpt>
      <trkpt lat="42.6124880" lon="1.8197430">
        <ele>1224.8</ele>
        <time>2020-07-30T08:24:24Z</time>
      </trkpt>
      <trkpt lat="42.6127220" lon="1.8198740">
        <ele>1225.8</ele>
        <time>2020-07-30T08:24:30Z</time>
      </trkpt>
      <trkpt lat="42.6127620" lon="1.8198870">
        <ele>1226.0</ele>
        <time>2020-07-30T08:24:31Z</time>
      </trkpt>
      <trkpt lat="42.6130730" lon="1.8199350">
        <ele>1227.2</ele>
        <time>2020-07-30T08:24:38Z</time>
      </trkpt>
      <trkpt lat="42.6132020" lon="1.8199630">
        <ele>1227.6</ele>
        <time>2020-07-30T08:24:41Z</time>
      </trkpt>
      <trkpt lat="42.6132700" lon="1.8200270">
        <ele>1227.8</ele>
        <time>2020-07-30T08:24:43Z</time>
      </trkpt>
      <trkpt lat="42.6133070" lon="1.8202020">
        <ele>1227.8</ele>
        <time>2020-07-30T08:24:46Z</time>
      </trkpt>
      <trkpt lat="42.6132520" lon="1.8203600">
        <ele>1228.0</ele>
        <time>2020-07-30T08:24:49Z</time>
      </trkpt>
      <trkpt lat="42.6131210" lon="1.8204170">
        <ele>1228.0</ele>
        <time>2020-07-30T08:24:52Z</time>
      </trkpt>
      <trkpt lat="42.6130760" lon="1.8204040">
        <ele>1228.2</ele>
        <time>2020-07-30T08:24:53Z</time>
      </trkpt>
      <trkpt lat="42.6129520" lon="1.8203270">
        <ele>1228.8</ele>
        <time>2020-07-30T08:24:56Z</time>
      </trkpt>
      <trkpt lat="42.6128680" lon="1.8202670">
        <ele>1229.4</ele>
        <time>2020-07-30T08:24:58Z</time>
      </trkpt>
      <trkpt lat="42.6127100" lon="1.8201440">
        <ele>1230.6</ele>
        <time>2020-07-30T08:25:02Z</time>
      </trkpt>
      <trkpt lat="42.6125580" lon="1.8200330">
        <ele>1231.6</ele>
        <time>2020-07-30T08:25:06Z</time>
      </trkpt>
      <trkpt lat="42.6124440" lon="1.8199470">
        <ele>1232.6</ele>
        <time>2020-07-30T08:25:09Z</time>
      </trkpt>
      <trkpt lat="42.6124070" lon="1.8199190">
        <ele>1232.6</ele>
        <time>2020-07-30T08:25:10Z</time>
      </trkpt>
      <trkpt lat="42.6121830" lon="1.8197800">
        <ele>1233.8</ele>
        <time>2020-07-30T08:25:16Z</time>
      </trkpt>
      <trkpt lat="42.6121020" lon="1.8197550">
        <ele>1234.2</ele>
        <time>2020-07-30T08:25:18Z</time>
      </trkpt>
      <trkpt lat="42.6118540" lon="1.8197250">
        <ele>1235.0</ele>
        <time>2020-07-30T08:25:24Z</time>
      </trkpt>
      <trkpt lat="42.6117750" lon="1.8197160">
        <ele>1235.2</ele>
        <time>2020-07-30T08:25:26Z</time>
      </trkpt>
      <trkpt lat="42.6114970" lon="1.8196580">
        <ele>1236.0</ele>
        <time>2020-07-30T08:25:33Z</time>
      </trkpt>
      <trkpt lat="42.6114240" lon="1.8196190">
        <ele>1236.2</ele>
        <time>2020-07-30T08:25:35Z</time>
      </trkpt>
      <trkpt lat="42.6112800" lon="1.8195280">
        <ele>1237.2</ele>
        <time>2020-07-30T08:25:39Z</time>
      </trkpt>
      <trkpt lat="42.6111480" lon="1.8194260">
        <ele>1238.0</ele>
        <time>2020-07-30T08:25:43Z</time>
      </trkpt>
      <trkpt lat="42.6110790" lon="1.8193820">
        <ele>1238.4</ele>
        <time>2020-07-30T08:25:45Z</time>
      </trkpt>
      <trkpt lat="42.6108920" lon="1.8192770">
        <ele>1239.4</ele>
        <time>2020-07-30T08:25:50Z</time>
      </trkpt>
      <trkpt lat="42.6108510" lon="1.8192600">
        <ele>1239.6</ele>
        <time>2020-07-30T08:25:51Z</time>
      </trkpt>
      <trkpt lat="42.6106780" lon="1.8191780">
        <ele>1240.4</ele>
        <time>2020-07-30T08:25:55Z</time>
      </trkpt>
      <trkpt lat="42.6105210" lon="1.8191100">
        <ele>1241.2</ele>
        <time>2020-07-30T08:25:59Z</time>
      </trkpt>
      <trkpt lat="42.6104460" lon="1.8190710">
        <ele>1241.6</ele>
        <time>2020-07-30T08:26:01Z</time>
      </trkpt>
      <trkpt lat="42.6102740" lon="1.8189410">
        <ele>1242.8</ele>
        <time>2020-07-30T08:26:06Z</time>
      </trkpt>
      <trkpt lat="42.6102430" lon="1.8189070">
        <ele>1243.0</ele>
        <time>2020-07-30T08:26:07Z</time>
      </trkpt>
      <trkpt lat="42.6100810" lon="1.8187030">
        <ele>1243.8</ele>
        <time>2020-07-30T08:26:13Z</time>
      </trkpt>
      <trkpt lat="42.6099940" lon="1.8186060">
        <ele>1244.6</ele>
        <time>2020-07-30T08:26:16Z</time>
      </trkpt>
      <trkpt lat="42.6098960" lon="1.8185190">
        <ele>1245.0</ele>
        <time>2020-07-30T08:26:19Z</time>
      </trkpt>
      <trkpt lat="42.6097280" lon="1.8183980">
        <ele>1245.6</ele>
        <time>2020-07-30T08:26:24Z</time>
      </trkpt>
      <trkpt lat="42.6096580" lon="1.8183660">
        <ele>1246.0</ele>
        <time>2020-07-30T08:26:26Z</time>
      </trkpt>
      <trkpt lat="42.6094760" lon="1.8183010">
        <ele>1247.0</ele>
        <time>2020-07-30T08:26:31Z</time>
      </trkpt>
      <trkpt lat="42.6094020" lon="1.8182760">
        <ele>1247.6</ele>
        <time>2020-07-30T08:26:33Z</time>
      </trkpt>
      <trkpt lat="42.6093300" lon="1.8182410">
        <ele>1248.2</ele>
        <time>2020-07-30T08:26:35Z</time>
      </trkpt>
      <trkpt lat="42.6092030" lon="1.8181280">
        <ele>1249.0</ele>
        <time>2020-07-30T08:26:39Z</time>
      </trkpt>
      <trkpt lat="42.6091510" lon="1.8180600">
        <ele>1249.4</ele>
        <time>2020-07-30T08:26:41Z</time>
      </trkpt>
      <trkpt lat="42.6090230" lon="1.8178810">
        <ele>1250.2</ele>
        <time>2020-07-30T08:26:46Z</time>
      </trkpt>
      <trkpt lat="42.6089950" lon="1.8178480">
        <ele>1250.4</ele>
        <time>2020-07-30T08:26:47Z</time>
      </trkpt>
      <trkpt lat="42.6088720" lon="1.8177320">
        <ele>1251.4</ele>
        <time>2020-07-30T08:26:51Z</time>
      </trkpt>
      <trkpt lat="42.6087700" lon="1.8176660">
        <ele>1252.0</ele>
        <time>2020-07-30T08:26:54Z</time>
      </trkpt>
      <trkpt lat="42.6086660" lon="1.8176060">
        <ele>1252.6</ele>
        <time>2020-07-30T08:26:57Z</time>
      </trkpt>
      <trkpt lat="42.6085060" lon="1.8175030">
        <ele>1253.4</ele>
        <time>2020-07-30T08:27:02Z</time>
      </trkpt>
      <trkpt lat="42.6084750" lon="1.8174860">
        <ele>1253.6</ele>
        <time>2020-07-30T08:27:03Z</time>
      </trkpt>
      <trkpt lat="42.6083060" lon="1.8173530">
        <ele>1254.4</ele>
        <time>2020-07-30T08:27:08Z</time>
      </trkpt>
      <trkpt lat="42.6082370" lon="1.8173020">
        <ele>1254.8</ele>
        <time>2020-07-30T08:27:10Z</time>
      </trkpt>
      <trkpt lat="42.6080940" lon="1.8171830">
        <ele>1255.4</ele>
        <time>2020-07-30T08:27:14Z</time>
      </trkpt>
      <trkpt lat="42.6080260" lon="1.8171230">
        <ele>1255.6</ele>
        <time>2020-07-30T08:27:16Z</time>
      </trkpt>
      <trkpt lat="42.6078700" lon="1.8169840">
        <ele>1256.6</ele>
        <time>2020-07-30T08:27:21Z</time>
      </trkpt>
      <trkpt lat="42.6078080" lon="1.8169310">
        <ele>1257.2</ele>
        <time>2020-07-30T08:27:23Z</time>
      </trkpt>
      <trkpt lat="42.6077180" lon="1.8168460">
        <ele>1257.8</ele>
        <time>2020-07-30T08:27:26Z</time>
      </trkpt>
      <trkpt lat="42.6075750" lon="1.8167000">
        <ele>1258.8</ele>
        <time>2020-07-30T08:27:31Z</time>
      </trkpt>
      <trkpt lat="42.6075480" lon="1.8166680">
        <ele>1259.0</ele>
        <time>2020-07-30T08:27:32Z</time>
      </trkpt>
      <trkpt lat="42.6073830" lon="1.8164760">
        <ele>1260.2</ele>
        <time>2020-07-30T08:27:38Z</time>
      </trkpt>
      <trkpt lat="42.6072350" lon="1.8163280">
        <ele>1261.0</ele>
        <time>2020-07-30T08:27:43Z</time>
      </trkpt>
      <trkpt lat="42.6072080" lon="1.8163010">
        <ele>1261.0</ele>
        <time>2020-07-30T08:27:44Z</time>
      </trkpt>
      <trkpt lat="42.6070530" lon="1.8161640">
        <ele>1262.0</ele>
        <time>2020-07-30T08:27:49Z</time>
      </trkpt>
      <trkpt lat="42.6070270" lon="1.8161380">
        <ele>1262.2</ele>
        <time>2020-07-30T08:27:50Z</time>
      </trkpt>
      <trkpt lat="42.6068400" lon="1.8159050">
        <ele>1263.4</ele>
        <time>2020-07-30T08:27:57Z</time>
      </trkpt>
      <trkpt lat="42.6068140" lon="1.8158720">
        <ele>1263.6</ele>
        <time>2020-07-30T08:27:58Z</time>
      </trkpt>
      <trkpt lat="42.6067340" lon="1.8157820">
        <ele>1264.6</ele>
        <time>2020-07-30T08:28:01Z</time>
      </trkpt>
      <trkpt lat="42.6066380" lon="1.8157030">
        <ele>1265.2</ele>
        <time>2020-07-30T08:28:04Z</time>
      </trkpt>
      <trkpt lat="42.6065710" lon="1.8156590">
        <ele>1265.6</ele>
        <time>2020-07-30T08:28:06Z</time>
      </trkpt>
      <trkpt lat="42.6063790" lon="1.8155020">
        <ele>1266.4</ele>
        <time>2020-07-30T08:28:12Z</time>
      </trkpt>
      <trkpt lat="42.6063220" lon="1.8154360">
        <ele>1266.8</ele>
        <time>2020-07-30T08:28:14Z</time>
      </trkpt>
      <trkpt lat="42.6062110" lon="1.8153030">
        <ele>1267.4</ele>
        <time>2020-07-30T08:28:18Z</time>
      </trkpt>
      <trkpt lat="42.6061260" lon="1.8151480">
        <ele>1268.2</ele>
        <time>2020-07-30T08:28:22Z</time>
      </trkpt>
      <trkpt lat="42.6060950" lon="1.8150190">
        <ele>1268.8</ele>
        <time>2020-07-30T08:28:25Z</time>
      </trkpt>
      <trkpt lat="42.6060710" lon="1.8148920">
        <ele>1269.4</ele>
        <time>2020-07-30T08:28:28Z</time>
      </trkpt>
      <trkpt lat="42.6060480" lon="1.8148000">
        <ele>1270.0</ele>
        <time>2020-07-30T08:28:30Z</time>
      </trkpt>
      <trkpt lat="42.6059820" lon="1.8146010">
        <ele>1271.0</ele>
        <time>2020-07-30T08:28:34Z</time>
      </trkpt>
      <trkpt lat="42.6059170" lon="1.8144690">
        <ele>1271.8</ele>
        <time>2020-07-30T08:28:37Z</time>
      </trkpt>
      <trkpt lat="42.6058960" lon="1.8144210">
        <ele>1272.0</ele>
        <time>2020-07-30T08:28:38Z</time>
      </trkpt>
      <trkpt lat="42.6058740" lon="1.8143760">
        <ele>1272.0</ele>
        <time>2020-07-30T08:28:39Z</time>
      </trkpt>
      <trkpt lat="42.6057360" lon="1.8141770">
        <ele>1272.8</ele>
        <time>2020-07-30T08:28:44Z</time>
      </trkpt>
      <trkpt lat="42.6057040" lon="1.8141420">
        <ele>1273.2</ele>
        <time>2020-07-30T08:28:45Z</time>
      </trkpt>
      <trkpt lat="42.6055750" lon="1.8140240">
        <ele>1274.0</ele>
        <time>2020-07-30T08:28:49Z</time>
      </trkpt>
      <trkpt lat="42.6055440" lon="1.8139920">
        <ele>1274.2</ele>
        <time>2020-07-30T08:28:50Z</time>
      </trkpt>
      <trkpt lat="42.6053920" lon="1.8138450">
        <ele>1275.0</ele>
        <time>2020-07-30T08:28:55Z</time>
      </trkpt>
      <trkpt lat="42.6053250" lon="1.8138060">
        <ele>1275.4</ele>
        <time>2020-07-30T08:28:57Z</time>
      </trkpt>
      <trkpt lat="42.6051830" lon="1.8137380">
        <ele>1276.2</ele>
        <time>2020-07-30T08:29:01Z</time>
      </trkpt>
      <trkpt lat="42.6050790" lon="1.8136880">
        <ele>1276.8</ele>
        <time>2020-07-30T08:29:04Z</time>
      </trkpt>
      <trkpt lat="42.6050460" lon="1.8136730">
        <ele>1277.2</ele>
        <time>2020-07-30T08:29:05Z</time>
      </trkpt>
      <trkpt lat="42.6049000" lon="1.8135480">
        <ele>1277.6</ele>
        <time>2020-07-30T08:29:10Z</time>
      </trkpt>
      <trkpt lat="42.6048100" lon="1.8134690">
        <ele>1278.0</ele>
        <time>2020-07-30T08:29:13Z</time>
      </trkpt>
      <trkpt lat="42.6047180" lon="1.8133960">
        <ele>1278.8</ele>
        <time>2020-07-30T08:29:16Z</time>
      </trkpt>
      <trkpt lat="42.6046840" lon="1.8133710">
        <ele>1279.0</ele>
        <time>2020-07-30T08:29:17Z</time>
      </trkpt>
      <trkpt lat="42.6045630" lon="1.8132590">
        <ele>1280.0</ele>
        <time>2020-07-30T08:29:21Z</time>
      </trkpt>
      <trkpt lat="42.6045400" lon="1.8132290">
        <ele>1280.2</ele>
        <time>2020-07-30T08:29:22Z</time>
      </trkpt>
      <trkpt lat="42.6044710" lon="1.8131140">
        <ele>1280.6</ele>
        <time>2020-07-30T08:29:25Z</time>
      </trkpt>
      <trkpt lat="42.6043370" lon="1.8130270">
        <ele>1281.4</ele>
        <time>2020-07-30T08:29:29Z</time>
      </trkpt>
      <trkpt lat="42.6042390" lon="1.8129710">
        <ele>1282.4</ele>
        <time>2020-07-30T08:29:32Z</time>
      </trkpt>
      <trkpt lat="42.6041460" lon="1.8129030">
        <ele>1283.2</ele>
        <time>2020-07-30T08:29:35Z</time>
      </trkpt>
      <trkpt lat="42.6040500" lon="1.8128380">
        <ele>1283.6</ele>
        <time>2020-07-30T08:29:38Z</time>
      </trkpt>
      <trkpt lat="42.6039530" lon="1.8127830">
        <ele>1284.4</ele>
        <time>2020-07-30T08:29:41Z</time>
      </trkpt>
      <trkpt lat="42.6038910" lon="1.8127400">
        <ele>1284.8</ele>
        <time>2020-07-30T08:29:43Z</time>
      </trkpt>
      <trkpt lat="42.6037440" lon="1.8126690">
        <ele>1285.4</ele>
        <time>2020-07-30T08:29:47Z</time>
      </trkpt>
      <trkpt lat="42.6036030" lon="1.8126030">
        <ele>1285.8</ele>
        <time>2020-07-30T08:29:51Z</time>
      </trkpt>
      <trkpt lat="42.6035040" lon="1.8125490">
        <ele>1286.0</ele>
        <time>2020-07-30T08:29:54Z</time>
      </trkpt>
      <trkpt lat="42.6032950" lon="1.8124330">
        <ele>1287.2</ele>
        <time>2020-07-30T08:30:00Z</time>
      </trkpt>
      <trkpt lat="42.6031900" lon="1.8123840">
        <ele>1287.8</ele>
        <time>2020-07-30T08:30:03Z</time>
      </trkpt>
      <trkpt lat="42.6031180" lon="1.8123530">
        <ele>1288.2</ele>
        <time>2020-07-30T08:30:05Z</time>
      </trkpt>
      <trkpt lat="42.6029040" lon="1.8122570">
        <ele>1289.4</ele>
        <time>2020-07-30T08:30:11Z</time>
      </trkpt>
      <trkpt lat="42.6028670" lon="1.8122440">
        <ele>1289.6</ele>
        <time>2020-07-30T08:30:12Z</time>
      </trkpt>
      <trkpt lat="42.6027580" lon="1.8122050">
        <ele>1290.4</ele>
        <time>2020-07-30T08:30:15Z</time>
      </trkpt>
      <trkpt lat="42.6026570" lon="1.8121600">
        <ele>1290.8</ele>
        <time>2020-07-30T08:30:18Z</time>
      </trkpt>
      <trkpt lat="42.6025870" lon="1.8121380">
        <ele>1291.2</ele>
        <time>2020-07-30T08:30:20Z</time>
      </trkpt>
      <trkpt lat="42.6023470" lon="1.8120450">
        <ele>1292.0</ele>
        <time>2020-07-30T08:30:27Z</time>
      </trkpt>
      <trkpt lat="42.6022790" lon="1.8120180">
        <ele>1292.4</ele>
        <time>2020-07-30T08:30:29Z</time>
      </trkpt>
      <trkpt lat="42.6021390" lon="1.8119670">
        <ele>1293.6</ele>
        <time>2020-07-30T08:30:33Z</time>
      </trkpt>
      <trkpt lat="42.6020710" lon="1.8119380">
        <ele>1294.4</ele>
        <time>2020-07-30T08:30:35Z</time>
      </trkpt>
      <trkpt lat="42.6020370" lon="1.8119220">
        <ele>1294.6</ele>
        <time>2020-07-30T08:30:36Z</time>
      </trkpt>
      <trkpt lat="42.6018250" lon="1.8118290">
        <ele>1295.6</ele>
        <time>2020-07-30T08:30:42Z</time>
      </trkpt>
      <trkpt lat="42.6017920" lon="1.8118200">
        <ele>1295.8</ele>
        <time>2020-07-30T08:30:43Z</time>
      </trkpt>
      <trkpt lat="42.6016230" lon="1.8117470">
        <ele>1296.4</ele>
        <time>2020-07-30T08:30:48Z</time>
      </trkpt>
      <trkpt lat="42.6015450" lon="1.8117320">
        <ele>1296.6</ele>
        <time>2020-07-30T08:30:50Z</time>
      </trkpt>
      <trkpt lat="42.6014010" lon="1.8116840">
        <ele>1297.4</ele>
        <time>2020-07-30T08:30:54Z</time>
      </trkpt>
      <trkpt lat="42.6013300" lon="1.8116570">
        <ele>1298.0</ele>
        <time>2020-07-30T08:30:56Z</time>
      </trkpt>
      <trkpt lat="42.6011190" lon="1.8115700">
        <ele>1299.0</ele>
        <time>2020-07-30T08:31:02Z</time>
      </trkpt>
      <trkpt lat="42.6010820" lon="1.8115560">
        <ele>1299.2</ele>
        <time>2020-07-30T08:31:03Z</time>
      </trkpt>
      <trkpt lat="42.6008970" lon="1.8114910">
        <ele>1300.2</ele>
        <time>2020-07-30T08:31:08Z</time>
      </trkpt>
      <trkpt lat="42.6008220" lon="1.8114670">
        <ele>1300.6</ele>
        <time>2020-07-30T08:31:10Z</time>
      </trkpt>
      <trkpt lat="42.6007500" lon="1.8114470">
        <ele>1301.2</ele>
        <time>2020-07-30T08:31:12Z</time>
      </trkpt>
      <trkpt lat="42.6006000" lon="1.8114020">
        <ele>1302.4</ele>
        <time>2020-07-30T08:31:16Z</time>
      </trkpt>
      <trkpt lat="42.6005290" lon="1.8113760">
        <ele>1302.8</ele>
        <time>2020-07-30T08:31:18Z</time>
      </trkpt>
      <trkpt lat="42.6003250" lon="1.8112790">
        <ele>1303.6</ele>
        <time>2020-07-30T08:31:24Z</time>
      </trkpt>
      <trkpt lat="42.6002920" lon="1.8112610">
        <ele>1303.6</ele>
        <time>2020-07-30T08:31:25Z</time>
      </trkpt>
      <trkpt lat="42.6001520" lon="1.8111840">
        <ele>1304.2</ele>
        <time>2020-07-30T08:31:29Z</time>
      </trkpt>
      <trkpt lat="42.6001160" lon="1.8111630">
        <ele>1304.4</ele>
        <time>2020-07-30T08:31:30Z</time>
      </trkpt>
      <trkpt lat="42.5999420" lon="1.8110630">
        <ele>1305.4</ele>
        <time>2020-07-30T08:31:35Z</time>
      </trkpt>
      <trkpt lat="42.5998760" lon="1.8110110">
        <ele>1305.8</ele>
        <time>2020-07-30T08:31:37Z</time>
      </trkpt>
      <trkpt lat="42.5998110" lon="1.8109610">
        <ele>1306.4</ele>
        <time>2020-07-30T08:31:39Z</time>
      </trkpt>
      <trkpt lat="42.5996230" lon="1.8108040">
        <ele>1307.2</ele>
        <time>2020-07-30T08:31:45Z</time>
      </trkpt>
      <trkpt lat="42.5995910" lon="1.8107820">
        <ele>1307.6</ele>
        <time>2020-07-30T08:31:46Z</time>
      </trkpt>
      <trkpt lat="42.5994370" lon="1.8106460">
        <ele>1308.4</ele>
        <time>2020-07-30T08:31:51Z</time>
      </trkpt>
      <trkpt lat="42.5994030" lon="1.8106170">
        <ele>1308.8</ele>
        <time>2020-07-30T08:31:52Z</time>
      </trkpt>
      <trkpt lat="42.5992830" lon="1.8105010">
        <ele>1309.6</ele>
        <time>2020-07-30T08:31:56Z</time>
      </trkpt>
      <trkpt lat="42.5991630" lon="1.8103800">
        <ele>1310.6</ele>
        <time>2020-07-30T08:32:00Z</time>
      </trkpt>
      <trkpt lat="42.5991340" lon="1.8103490">
        <ele>1310.8</ele>
        <time>2020-07-30T08:32:01Z</time>
      </trkpt>
      <trkpt lat="42.5989570" lon="1.8101580">
        <ele>1311.6</ele>
        <time>2020-07-30T08:32:07Z</time>
      </trkpt>
      <trkpt lat="42.5988080" lon="1.8100020">
        <ele>1312.6</ele>
        <time>2020-07-30T08:32:12Z</time>
      </trkpt>
      <trkpt lat="42.5987770" lon="1.8099740">
        <ele>1312.8</ele>
        <time>2020-07-30T08:32:13Z</time>
      </trkpt>
      <trkpt lat="42.5986270" lon="1.8098330">
        <ele>1313.8</ele>
        <time>2020-07-30T08:32:18Z</time>
      </trkpt>
      <trkpt lat="42.5986000" lon="1.8097990">
        <ele>1314.0</ele>
        <time>2020-07-30T08:32:19Z</time>
      </trkpt>
      <trkpt lat="42.5984580" lon="1.8096390">
        <ele>1315.2</ele>
        <time>2020-07-30T08:32:24Z</time>
      </trkpt>
      <trkpt lat="42.5983390" lon="1.8095320">
        <ele>1316.0</ele>
        <time>2020-07-30T08:32:28Z</time>
      </trkpt>
      <trkpt lat="42.5981810" lon="1.8094070">
        <ele>1317.2</ele>
        <time>2020-07-30T08:32:33Z</time>
      </trkpt>
      <trkpt lat="42.5981480" lon="1.8093860">
        <ele>1317.2</ele>
        <time>2020-07-30T08:32:34Z</time>
      </trkpt>
      <trkpt lat="42.5979560" lon="1.8092480">
        <ele>1318.2</ele>
        <time>2020-07-30T08:32:40Z</time>
      </trkpt>
      <trkpt lat="42.5978900" lon="1.8091970">
        <ele>1318.6</ele>
        <time>2020-07-30T08:32:42Z</time>
      </trkpt>
      <trkpt lat="42.5977300" lon="1.8090760">
        <ele>1319.2</ele>
        <time>2020-07-30T08:32:47Z</time>
      </trkpt>
      <trkpt lat="42.5975640" lon="1.8089690">
        <ele>1320.4</ele>
        <time>2020-07-30T08:32:52Z</time>
      </trkpt>
      <trkpt lat="42.5975320" lon="1.8089480">
        <ele>1320.6</ele>
        <time>2020-07-30T08:32:53Z</time>
      </trkpt>
      <trkpt lat="42.5974240" lon="1.8089010">
        <ele>1321.6</ele>
        <time>2020-07-30T08:32:56Z</time>
      </trkpt>
      <trkpt lat="42.5972550" lon="1.8088100">
        <ele>1322.8</ele>
        <time>2020-07-30T08:33:01Z</time>
      </trkpt>
      <trkpt lat="42.5971880" lon="1.8087730">
        <ele>1323.2</ele>
        <time>2020-07-30T08:33:03Z</time>
      </trkpt>
      <trkpt lat="42.5970870" lon="1.8087230">
        <ele>1323.6</ele>
        <time>2020-07-30T08:33:06Z</time>
      </trkpt>
      <trkpt lat="42.5969230" lon="1.8086420">
        <ele>1324.6</ele>
        <time>2020-07-30T08:33:11Z</time>
      </trkpt>
      <trkpt lat="42.5968890" lon="1.8086250">
        <ele>1324.8</ele>
        <time>2020-07-30T08:33:12Z</time>
      </trkpt>
      <trkpt lat="42.5966630" lon="1.8085050">
        <ele>1325.8</ele>
        <time>2020-07-30T08:33:19Z</time>
      </trkpt>
      <trkpt lat="42.5965640" lon="1.8084410">
        <ele>1326.6</ele>
        <time>2020-07-30T08:33:22Z</time>
      </trkpt>
      <trkpt lat="42.5964990" lon="1.8084020">
        <ele>1327.4</ele>
        <time>2020-07-30T08:33:24Z</time>
      </trkpt>
      <trkpt lat="42.5963420" lon="1.8082970">
        <ele>1328.4</ele>
        <time>2020-07-30T08:33:29Z</time>
      </trkpt>
      <trkpt lat="42.5961850" lon="1.8081900">
        <ele>1329.2</ele>
        <time>2020-07-30T08:33:34Z</time>
      </trkpt>
      <trkpt lat="42.5961540" lon="1.8081670">
        <ele>1329.4</ele>
        <time>2020-07-30T08:33:35Z</time>
      </trkpt>
      <trkpt lat="42.5960020" lon="1.8080550">
        <ele>1330.6</ele>
        <time>2020-07-30T08:33:40Z</time>
      </trkpt>
      <trkpt lat="42.5959120" lon="1.8079800">
        <ele>1331.0</ele>
        <time>2020-07-30T08:33:43Z</time>
      </trkpt>
      <trkpt lat="42.5958530" lon="1.8079330">
        <ele>1331.6</ele>
        <time>2020-07-30T08:33:45Z</time>
      </trkpt>
      <trkpt lat="42.5956800" lon="1.8077850">
        <ele>1332.6</ele>
        <time>2020-07-30T08:33:51Z</time>
      </trkpt>
      <trkpt lat="42.5955930" lon="1.8077130">
        <ele>1333.6</ele>
        <time>2020-07-30T08:33:54Z</time>
      </trkpt>
      <trkpt lat="42.5955630" lon="1.8076890">
        <ele>1333.8</ele>
        <time>2020-07-30T08:33:55Z</time>
      </trkpt>
      <trkpt lat="42.5955040" lon="1.8076390">
        <ele>1334.2</ele>
        <time>2020-07-30T08:33:57Z</time>
      </trkpt>
      <trkpt lat="42.5954140" lon="1.8075630">
        <ele>1334.8</ele>
        <time>2020-07-30T08:34:00Z</time>
      </trkpt>
      <trkpt lat="42.5952320" lon="1.8074080">
        <ele>1335.6</ele>
        <time>2020-07-30T08:34:06Z</time>
      </trkpt>
      <trkpt lat="42.5950510" lon="1.8072400">
        <ele>1336.8</ele>
        <time>2020-07-30T08:34:12Z</time>
      </trkpt>
      <trkpt lat="42.5949160" lon="1.8070840">
        <ele>1337.8</ele>
        <time>2020-07-30T08:34:17Z</time>
      </trkpt>
      <trkpt lat="42.5948900" lon="1.8070500">
        <ele>1337.8</ele>
        <time>2020-07-30T08:34:18Z</time>
      </trkpt>
      <trkpt lat="42.5947950" lon="1.8069070">
        <ele>1338.8</ele>
        <time>2020-07-30T08:34:22Z</time>
      </trkpt>
      <trkpt lat="42.5946970" lon="1.8067570">
        <ele>1339.4</ele>
        <time>2020-07-30T08:34:26Z</time>
      </trkpt>
      <trkpt lat="42.5946270" lon="1.8066420">
        <ele>1339.8</ele>
        <time>2020-07-30T08:34:29Z</time>
      </trkpt>
      <trkpt lat="42.5945410" lon="1.8064760">
        <ele>1341.0</ele>
        <time>2020-07-30T08:34:33Z</time>
      </trkpt>
      <trkpt lat="42.5945220" lon="1.8064330">
        <ele>1341.2</ele>
        <time>2020-07-30T08:34:34Z</time>
      </trkpt>
      <trkpt lat="42.5944670" lon="1.8063060">
        <ele>1342.2</ele>
        <time>2020-07-30T08:34:37Z</time>
      </trkpt>
      <trkpt lat="42.5943800" lon="1.8060230">
        <ele>1343.2</ele>
        <time>2020-07-30T08:34:43Z</time>
      </trkpt>
      <trkpt lat="42.5943010" lon="1.8057390">
        <ele>1344.2</ele>
        <time>2020-07-30T08:34:49Z</time>
      </trkpt>
      <trkpt lat="42.5942500" lon="1.8055470">
        <ele>1345.0</ele>
        <time>2020-07-30T08:34:53Z</time>
      </trkpt>
      <trkpt lat="42.5942200" lon="1.8054540">
        <ele>1345.4</ele>
        <time>2020-07-30T08:34:55Z</time>
      </trkpt>
      <trkpt lat="42.5941370" lon="1.8051780">
        <ele>1346.2</ele>
        <time>2020-07-30T08:35:01Z</time>
      </trkpt>
      <trkpt lat="42.5941100" lon="1.8050900">
        <ele>1346.6</ele>
        <time>2020-07-30T08:35:03Z</time>
      </trkpt>
      <trkpt lat="42.5939990" lon="1.8047820">
        <ele>1347.4</ele>
        <time>2020-07-30T08:35:10Z</time>
      </trkpt>
      <trkpt lat="42.5938530" lon="1.8045130">
        <ele>1348.6</ele>
        <time>2020-07-30T08:35:17Z</time>
      </trkpt>
      <trkpt lat="42.5938070" lon="1.8044430">
        <ele>1348.8</ele>
        <time>2020-07-30T08:35:19Z</time>
      </trkpt>
      <trkpt lat="42.5937300" lon="1.8043460">
        <ele>1349.4</ele>
        <time>2020-07-30T08:35:22Z</time>
      </trkpt>
      <trkpt lat="42.5935790" lon="1.8042260">
        <ele>1350.2</ele>
        <time>2020-07-30T08:35:27Z</time>
      </trkpt>
      <trkpt lat="42.5935110" lon="1.8042000">
        <ele>1350.6</ele>
        <time>2020-07-30T08:35:29Z</time>
      </trkpt>
      <trkpt lat="42.5933250" lon="1.8041570">
        <ele>1351.8</ele>
        <time>2020-07-30T08:35:34Z</time>
      </trkpt>
      <trkpt lat="42.5930890" lon="1.8040930">
        <ele>1352.6</ele>
        <time>2020-07-30T08:35:40Z</time>
      </trkpt>
      <trkpt lat="42.5930140" lon="1.8040520">
        <ele>1352.8</ele>
        <time>2020-07-30T08:35:42Z</time>
      </trkpt>
      <trkpt lat="42.5927630" lon="1.8038940">
        <ele>1353.6</ele>
        <time>2020-07-30T08:35:49Z</time>
      </trkpt>
      <trkpt lat="42.5925300" lon="1.8037230">
        <ele>1354.6</ele>
        <time>2020-07-30T08:35:56Z</time>
      </trkpt>
      <trkpt lat="42.5924600" lon="1.8036830">
        <ele>1355.0</ele>
        <time>2020-07-30T08:35:58Z</time>
      </trkpt>
      <trkpt lat="42.5923490" lon="1.8036350">
        <ele>1355.6</ele>
        <time>2020-07-30T08:36:01Z</time>
      </trkpt>
      <trkpt lat="42.5921520" lon="1.8035730">
        <ele>1356.6</ele>
        <time>2020-07-30T08:36:06Z</time>
      </trkpt>
      <trkpt lat="42.5921120" lon="1.8035600">
        <ele>1356.8</ele>
        <time>2020-07-30T08:36:07Z</time>
      </trkpt>
      <trkpt lat="42.5917130" lon="1.8034320">
        <ele>1357.6</ele>
        <time>2020-07-30T08:36:17Z</time>
      </trkpt>
      <trkpt lat="42.5916360" lon="1.8033990">
        <ele>1358.0</ele>
        <time>2020-07-30T08:36:19Z</time>
      </trkpt>
      <trkpt lat="42.5913910" lon="1.8032270">
        <ele>1358.6</ele>
        <time>2020-07-30T08:36:26Z</time>
      </trkpt>
      <trkpt lat="42.5913250" lon="1.8031710">
        <ele>1359.0</ele>
        <time>2020-07-30T08:36:28Z</time>
      </trkpt>
      <trkpt lat="42.5911320" lon="1.8029820">
        <ele>1360.0</ele>
        <time>2020-07-30T08:36:34Z</time>
      </trkpt>
      <trkpt lat="42.5910720" lon="1.8029070">
        <ele>1360.4</ele>
        <time>2020-07-30T08:36:36Z</time>
      </trkpt>
      <trkpt lat="42.5909740" lon="1.8027410">
        <ele>1361.0</ele>
        <time>2020-07-30T08:36:40Z</time>
      </trkpt>
      <trkpt lat="42.5909120" lon="1.8026090">
        <ele>1361.6</ele>
        <time>2020-07-30T08:36:43Z</time>
      </trkpt>
      <trkpt lat="42.5908360" lon="1.8024150">
        <ele>1362.2</ele>
        <time>2020-07-30T08:36:47Z</time>
      </trkpt>
      <trkpt lat="42.5907620" lon="1.8022330">
        <ele>1363.0</ele>
        <time>2020-07-30T08:36:51Z</time>
      </trkpt>
      <trkpt lat="42.5906640" lon="1.8019760">
        <ele>1363.8</ele>
        <time>2020-07-30T08:36:57Z</time>
      </trkpt>
      <trkpt lat="42.5906280" lon="1.8018790">
        <ele>1364.2</ele>
        <time>2020-07-30T08:36:59Z</time>
      </trkpt>
      <trkpt lat="42.5905550" lon="1.8016410">
        <ele>1364.8</ele>
        <time>2020-07-30T08:37:04Z</time>
      </trkpt>
      <trkpt lat="42.5905400" lon="1.8015940">
        <ele>1365.0</ele>
        <time>2020-07-30T08:37:05Z</time>
      </trkpt>
      <trkpt lat="42.5904690" lon="1.8013520">
        <ele>1366.0</ele>
        <time>2020-07-30T08:37:10Z</time>
      </trkpt>
      <trkpt lat="42.5904300" lon="1.8012040">
        <ele>1366.6</ele>
        <time>2020-07-30T08:37:13Z</time>
      </trkpt>
      <trkpt lat="42.5903860" lon="1.8010630">
        <ele>1367.4</ele>
        <time>2020-07-30T08:37:16Z</time>
      </trkpt>
      <trkpt lat="42.5903220" lon="1.8008750">
        <ele>1368.6</ele>
        <time>2020-07-30T08:37:20Z</time>
      </trkpt>
      <trkpt lat="42.5902550" lon="1.8006960">
        <ele>1369.4</ele>
        <time>2020-07-30T08:37:24Z</time>
      </trkpt>
      <trkpt lat="42.5902180" lon="1.8006090">
        <ele>1369.6</ele>
        <time>2020-07-30T08:37:26Z</time>
      </trkpt>
      <trkpt lat="42.5901270" lon="1.8003940">
        <ele>1370.6</ele>
        <time>2020-07-30T08:37:31Z</time>
      </trkpt>
      <trkpt lat="42.5900670" lon="1.8002690">
        <ele>1371.2</ele>
        <time>2020-07-30T08:37:34Z</time>
      </trkpt>
      <trkpt lat="42.5900000" lon="1.8001520">
        <ele>1371.6</ele>
        <time>2020-07-30T08:37:37Z</time>
      </trkpt>
      <trkpt lat="42.5898760" lon="1.7999630">
        <ele>1372.6</ele>
        <time>2020-07-30T08:37:42Z</time>
      </trkpt>
      <trkpt lat="42.5897760" lon="1.7998200">
        <ele>1373.8</ele>
        <time>2020-07-30T08:37:46Z</time>
      </trkpt>
      <trkpt lat="42.5896880" lon="1.7997090">
        <ele>1374.2</ele>
        <time>2020-07-30T08:37:49Z</time>
      </trkpt>
      <trkpt lat="42.5895040" lon="1.7994960">
        <ele>1375.0</ele>
        <time>2020-07-30T08:37:55Z</time>
      </trkpt>
      <trkpt lat="42.5893410" lon="1.7993190">
        <ele>1376.2</ele>
        <time>2020-07-30T08:38:00Z</time>
      </trkpt>
      <trkpt lat="42.5892220" lon="1.7991830">
        <ele>1377.0</ele>
        <time>2020-07-30T08:38:04Z</time>
      </trkpt>
      <trkpt lat="42.5891950" lon="1.7991460">
        <ele>1377.2</ele>
        <time>2020-07-30T08:38:05Z</time>
      </trkpt>
      <trkpt lat="42.5890810" lon="1.7989530">
        <ele>1378.4</ele>
        <time>2020-07-30T08:38:10Z</time>
      </trkpt>
      <trkpt lat="42.5890630" lon="1.7988570">
        <ele>1378.6</ele>
        <time>2020-07-30T08:38:12Z</time>
      </trkpt>
      <trkpt lat="42.5890140" lon="1.7986630">
        <ele>1379.2</ele>
        <time>2020-07-30T08:38:16Z</time>
      </trkpt>
      <trkpt lat="42.5889850" lon="1.7986290">
        <ele>1379.6</ele>
        <time>2020-07-30T08:38:17Z</time>
      </trkpt>
      <trkpt lat="42.5888450" lon="1.7985290">
        <ele>1380.2</ele>
        <time>2020-07-30T08:38:21Z</time>
      </trkpt>
      <trkpt lat="42.5888130" lon="1.7984960">
        <ele>1380.4</ele>
        <time>2020-07-30T08:38:22Z</time>
      </trkpt>
      <trkpt lat="42.5886620" lon="1.7983240">
        <ele>1381.4</ele>
        <time>2020-07-30T08:38:27Z</time>
      </trkpt>
      <trkpt lat="42.5885640" lon="1.7982440">
        <ele>1381.8</ele>
        <time>2020-07-30T08:38:30Z</time>
      </trkpt>
      <trkpt lat="42.5884940" lon="1.7981910">
        <ele>1382.2</ele>
        <time>2020-07-30T08:38:32Z</time>
      </trkpt>
      <trkpt lat="42.5884570" lon="1.7981640">
        <ele>1382.4</ele>
        <time>2020-07-30T08:38:33Z</time>
      </trkpt>
      <trkpt lat="42.5882670" lon="1.7980100">
        <ele>1382.8</ele>
        <time>2020-07-30T08:38:38Z</time>
      </trkpt>
      <trkpt lat="42.5881740" lon="1.7978720">
        <ele>1383.4</ele>
        <time>2020-07-30T08:38:41Z</time>
      </trkpt>
      <trkpt lat="42.5881180" lon="1.7977710">
        <ele>1383.6</ele>
        <time>2020-07-30T08:38:43Z</time>
      </trkpt>
      <trkpt lat="42.5878780" lon="1.7973320">
        <ele>1384.4</ele>
        <time>2020-07-30T08:38:51Z</time>
      </trkpt>
      <trkpt lat="42.5878470" lon="1.7972790">
        <ele>1384.4</ele>
        <time>2020-07-30T08:38:52Z</time>
      </trkpt>
      <trkpt lat="42.5876360" lon="1.7969650">
        <ele>1384.8</ele>
        <time>2020-07-30T08:38:59Z</time>
      </trkpt>
      <trkpt lat="42.5875100" lon="1.7968270">
        <ele>1385.6</ele>
        <time>2020-07-30T08:39:03Z</time>
      </trkpt>
      <trkpt lat="42.5873620" lon="1.7966640">
        <ele>1386.2</ele>
        <time>2020-07-30T08:39:08Z</time>
      </trkpt>
      <trkpt lat="42.5873340" lon="1.7966300">
        <ele>1386.4</ele>
        <time>2020-07-30T08:39:09Z</time>
      </trkpt>
      <trkpt lat="42.5872550" lon="1.7965240">
        <ele>1387.8</ele>
        <time>2020-07-30T08:39:12Z</time>
      </trkpt>
      <trkpt lat="42.5871780" lon="1.7964150">
        <ele>1389.0</ele>
        <time>2020-07-30T08:39:15Z</time>
      </trkpt>
      <trkpt lat="42.5871280" lon="1.7963420">
        <ele>1389.6</ele>
        <time>2020-07-30T08:39:17Z</time>
      </trkpt>
      <trkpt lat="42.5870760" lon="1.7962690">
        <ele>1390.2</ele>
        <time>2020-07-30T08:39:19Z</time>
      </trkpt>
      <trkpt lat="42.5869120" lon="1.7960610">
        <ele>1391.2</ele>
        <time>2020-07-30T08:39:25Z</time>
      </trkpt>
      <trkpt lat="42.5868030" lon="1.7959330">
        <ele>1392.4</ele>
        <time>2020-07-30T08:39:29Z</time>
      </trkpt>
      <trkpt lat="42.5866880" lon="1.7958170">
        <ele>1393.4</ele>
        <time>2020-07-30T08:39:33Z</time>
      </trkpt>
      <trkpt lat="42.5866570" lon="1.7957940">
        <ele>1393.6</ele>
        <time>2020-07-30T08:39:34Z</time>
      </trkpt>
      <trkpt lat="42.5865350" lon="1.7957240">
        <ele>1394.4</ele>
        <time>2020-07-30T08:39:38Z</time>
      </trkpt>
      <trkpt lat="42.5864570" lon="1.7956790">
        <ele>1395.4</ele>
        <time>2020-07-30T08:39:41Z</time>
      </trkpt>
      <trkpt lat="42.5864290" lon="1.7956650">
        <ele>1395.6</ele>
        <time>2020-07-30T08:39:42Z</time>
      </trkpt>
      <trkpt lat="42.5863200" lon="1.7956190">
        <ele>1396.6</ele>
        <time>2020-07-30T08:39:46Z</time>
      </trkpt>
      <trkpt lat="42.5862120" lon="1.7955870">
        <ele>1397.6</ele>
        <time>2020-07-30T08:39:50Z</time>
      </trkpt>
      <trkpt lat="42.5860510" lon="1.7955870">
        <ele>1398.6</ele>
        <time>2020-07-30T08:39:56Z</time>
      </trkpt>
      <trkpt lat="42.5859970" lon="1.7956000">
        <ele>1399.0</ele>
        <time>2020-07-30T08:39:58Z</time>
      </trkpt>
      <trkpt lat="42.5859120" lon="1.7956220">
        <ele>1399.6</ele>
        <time>2020-07-30T08:40:01Z</time>
      </trkpt>
      <trkpt lat="42.5857720" lon="1.7956570">
        <ele>1400.8</ele>
        <time>2020-07-30T08:40:06Z</time>
      </trkpt>
      <trkpt lat="42.5857100" lon="1.7956770">
        <ele>1401.4</ele>
        <time>2020-07-30T08:40:08Z</time>
      </trkpt>
      <trkpt lat="42.5856510" lon="1.7957000">
        <ele>1402.2</ele>
        <time>2020-07-30T08:40:10Z</time>
      </trkpt>
      <trkpt lat="42.5855310" lon="1.7957410">
        <ele>1403.4</ele>
        <time>2020-07-30T08:40:14Z</time>
      </trkpt>
      <trkpt lat="42.5853860" lon="1.7957900">
        <ele>1404.4</ele>
        <time>2020-07-30T08:40:19Z</time>
      </trkpt>
      <trkpt lat="42.5852100" lon="1.7958500">
        <ele>1405.4</ele>
        <time>2020-07-30T08:40:25Z</time>
      </trkpt>
      <trkpt lat="42.5851580" lon="1.7958660">
        <ele>1405.8</ele>
        <time>2020-07-30T08:40:27Z</time>
      </trkpt>
      <trkpt lat="42.5850830" lon="1.7958890">
        <ele>1407.0</ele>
        <time>2020-07-30T08:40:30Z</time>
      </trkpt>
      <trkpt lat="42.5849500" lon="1.7959360">
        <ele>1407.8</ele>
        <time>2020-07-30T08:40:35Z</time>
      </trkpt>
      <trkpt lat="42.5848970" lon="1.7959530">
        <ele>1408.2</ele>
        <time>2020-07-30T08:40:37Z</time>
      </trkpt>
      <trkpt lat="42.5848170" lon="1.7959780">
        <ele>1408.8</ele>
        <time>2020-07-30T08:40:40Z</time>
      </trkpt>
      <trkpt lat="42.5847090" lon="1.7960060">
        <ele>1410.0</ele>
        <time>2020-07-30T08:40:44Z</time>
      </trkpt>
      <trkpt lat="42.5846040" lon="1.7960180">
        <ele>1411.0</ele>
        <time>2020-07-30T08:40:48Z</time>
      </trkpt>
      <trkpt lat="42.5845500" lon="1.7960190">
        <ele>1411.2</ele>
        <time>2020-07-30T08:40:50Z</time>
      </trkpt>
      <trkpt lat="42.5845250" lon="1.7960150">
        <ele>1411.6</ele>
        <time>2020-07-30T08:40:51Z</time>
      </trkpt>
      <trkpt lat="42.5844180" lon="1.7960060">
        <ele>1412.0</ele>
        <time>2020-07-30T08:40:55Z</time>
      </trkpt>
      <trkpt lat="42.5843390" lon="1.7959980">
        <ele>1412.8</ele>
        <time>2020-07-30T08:40:58Z</time>
      </trkpt>
      <trkpt lat="42.5842860" lon="1.7959890">
        <ele>1413.2</ele>
        <time>2020-07-30T08:41:00Z</time>
      </trkpt>
      <trkpt lat="42.5841490" lon="1.7959610">
        <ele>1414.2</ele>
        <time>2020-07-30T08:41:05Z</time>
      </trkpt>
      <trkpt lat="42.5840910" lon="1.7959460">
        <ele>1414.6</ele>
        <time>2020-07-30T08:41:07Z</time>
      </trkpt>
      <trkpt lat="42.5840050" lon="1.7959260">
        <ele>1415.4</ele>
        <time>2020-07-30T08:41:10Z</time>
      </trkpt>
      <trkpt lat="42.5838930" lon="1.7958960">
        <ele>1416.4</ele>
        <time>2020-07-30T08:41:14Z</time>
      </trkpt>
      <trkpt lat="42.5837860" lon="1.7958640">
        <ele>1417.4</ele>
        <time>2020-07-30T08:41:18Z</time>
      </trkpt>
      <trkpt lat="42.5836480" lon="1.7958260">
        <ele>1418.4</ele>
        <time>2020-07-30T08:41:23Z</time>
      </trkpt>
      <trkpt lat="42.5835080" lon="1.7957840">
        <ele>1419.4</ele>
        <time>2020-07-30T08:41:28Z</time>
      </trkpt>
      <trkpt lat="42.5833710" lon="1.7957460">
        <ele>1420.6</ele>
        <time>2020-07-30T08:41:33Z</time>
      </trkpt>
      <trkpt lat="42.5832610" lon="1.7957140">
        <ele>1421.4</ele>
        <time>2020-07-30T08:41:37Z</time>
      </trkpt>
      <trkpt lat="42.5832060" lon="1.7956970">
        <ele>1422.2</ele>
        <time>2020-07-30T08:41:39Z</time>
      </trkpt>
      <trkpt lat="42.5831500" lon="1.7956820">
        <ele>1422.6</ele>
        <time>2020-07-30T08:41:41Z</time>
      </trkpt>
      <trkpt lat="42.5830250" lon="1.7956450">
        <ele>1423.8</ele>
        <time>2020-07-30T08:41:46Z</time>
      </trkpt>
      <trkpt lat="42.5829780" lon="1.7956300">
        <ele>1424.2</ele>
        <time>2020-07-30T08:41:48Z</time>
      </trkpt>
      <trkpt lat="42.5829290" lon="1.7956160">
        <ele>1425.0</ele>
        <time>2020-07-30T08:41:50Z</time>
      </trkpt>
      <trkpt lat="42.5828300" lon="1.7955880">
        <ele>1426.2</ele>
        <time>2020-07-30T08:41:54Z</time>
      </trkpt>
      <trkpt lat="42.5827040" lon="1.7955530">
        <ele>1427.2</ele>
        <time>2020-07-30T08:41:59Z</time>
      </trkpt>
      <trkpt lat="42.5825790" lon="1.7955160">
        <ele>1428.2</ele>
        <time>2020-07-30T08:42:04Z</time>
      </trkpt>
      <trkpt lat="42.5824790" lon="1.7954890">
        <ele>1429.0</ele>
        <time>2020-07-30T08:42:08Z</time>
      </trkpt>
      <trkpt lat="42.5824540" lon="1.7954830">
        <ele>1429.6</ele>
        <time>2020-07-30T08:42:09Z</time>
      </trkpt>
      <trkpt lat="42.5823060" lon="1.7954400">
        <ele>1430.8</ele>
        <time>2020-07-30T08:42:15Z</time>
      </trkpt>
      <trkpt lat="42.5822080" lon="1.7954150">
        <ele>1431.8</ele>
        <time>2020-07-30T08:42:19Z</time>
      </trkpt>
      <trkpt lat="42.5821830" lon="1.7954090">
        <ele>1432.0</ele>
        <time>2020-07-30T08:42:20Z</time>
      </trkpt>
      <trkpt lat="42.5820850" lon="1.7953750">
        <ele>1432.8</ele>
        <time>2020-07-30T08:42:24Z</time>
      </trkpt>
      <trkpt lat="42.5819890" lon="1.7953410">
        <ele>1433.8</ele>
        <time>2020-07-30T08:42:28Z</time>
      </trkpt>
      <trkpt lat="42.5819640" lon="1.7953340">
        <ele>1434.0</ele>
        <time>2020-07-30T08:42:29Z</time>
      </trkpt>
      <trkpt lat="42.5817890" lon="1.7952690">
        <ele>1434.8</ele>
        <time>2020-07-30T08:42:36Z</time>
      </trkpt>
      <trkpt lat="42.5816650" lon="1.7952210">
        <ele>1436.0</ele>
        <time>2020-07-30T08:42:41Z</time>
      </trkpt>
      <trkpt lat="42.5815670" lon="1.7951770">
        <ele>1436.8</ele>
        <time>2020-07-30T08:42:45Z</time>
      </trkpt>
      <trkpt lat="42.5815420" lon="1.7951660">
        <ele>1437.2</ele>
        <time>2020-07-30T08:42:46Z</time>
      </trkpt>
      <trkpt lat="42.5814260" lon="1.7950990">
        <ele>1438.0</ele>
        <time>2020-07-30T08:42:51Z</time>
      </trkpt>
      <trkpt lat="42.5814040" lon="1.7950800">
        <ele>1438.2</ele>
        <time>2020-07-30T08:42:52Z</time>
      </trkpt>
      <trkpt lat="42.5812990" lon="1.7949990">
        <ele>1439.0</ele>
        <time>2020-07-30T08:42:57Z</time>
      </trkpt>
      <trkpt lat="42.5812750" lon="1.7949810">
        <ele>1439.4</ele>
        <time>2020-07-30T08:42:58Z</time>
      </trkpt>
      <trkpt lat="42.5811690" lon="1.7948760">
        <ele>1440.4</ele>
        <time>2020-07-30T08:43:03Z</time>
      </trkpt>
      <trkpt lat="42.5811260" lon="1.7948350">
        <ele>1440.6</ele>
        <time>2020-07-30T08:43:05Z</time>
      </trkpt>
      <trkpt lat="42.5810840" lon="1.7947930">
        <ele>1441.8</ele>
        <time>2020-07-30T08:43:07Z</time>
      </trkpt>
      <trkpt lat="42.5809570" lon="1.7946670">
        <ele>1443.0</ele>
        <time>2020-07-30T08:43:13Z</time>
      </trkpt>
      <trkpt lat="42.5809160" lon="1.7946240">
        <ele>1444.0</ele>
        <time>2020-07-30T08:43:15Z</time>
      </trkpt>
      <trkpt lat="42.5808510" lon="1.7945630">
        <ele>1444.6</ele>
        <time>2020-07-30T08:43:18Z</time>
      </trkpt>
      <trkpt lat="42.5808070" lon="1.7945190">
        <ele>1445.0</ele>
        <time>2020-07-30T08:43:20Z</time>
      </trkpt>
      <trkpt lat="42.5806800" lon="1.7943900">
        <ele>1446.2</ele>
        <time>2020-07-30T08:43:26Z</time>
      </trkpt>
      <trkpt lat="42.5806380" lon="1.7943460">
        <ele>1446.8</ele>
        <time>2020-07-30T08:43:28Z</time>
      </trkpt>
      <trkpt lat="42.5805970" lon="1.7943000">
        <ele>1447.2</ele>
        <time>2020-07-30T08:43:30Z</time>
      </trkpt>
      <trkpt lat="42.5804780" lon="1.7941760">
        <ele>1448.4</ele>
        <time>2020-07-30T08:43:36Z</time>
      </trkpt>
      <trkpt lat="42.5804380" lon="1.7941330">
        <ele>1449.2</ele>
        <time>2020-07-30T08:43:38Z</time>
      </trkpt>
      <trkpt lat="42.5803980" lon="1.7940890">
        <ele>1449.4</ele>
        <time>2020-07-30T08:43:40Z</time>
      </trkpt>
      <trkpt lat="42.5802890" lon="1.7939740">
        <ele>1450.4</ele>
        <time>2020-07-30T08:43:45Z</time>
      </trkpt>
      <trkpt lat="42.5801940" lon="1.7938770">
        <ele>1451.2</ele>
        <time>2020-07-30T08:43:49Z</time>
      </trkpt>
      <trkpt lat="42.5801440" lon="1.7938250">
        <ele>1451.4</ele>
        <time>2020-07-30T08:43:51Z</time>
      </trkpt>
      <trkpt lat="42.5799680" lon="1.7936600">
        <ele>1451.8</ele>
        <time>2020-07-30T08:43:57Z</time>
      </trkpt>
      <trkpt lat="42.5799020" lon="1.7936030">
        <ele>1452.0</ele>
        <time>2020-07-30T08:43:59Z</time>
      </trkpt>
      <trkpt lat="42.5797370" lon="1.7934600">
        <ele>1452.4</ele>
        <time>2020-07-30T08:44:04Z</time>
      </trkpt>
      <trkpt lat="42.5796140" lon="1.7933580">
        <ele>1453.2</ele>
        <time>2020-07-30T08:44:08Z</time>
      </trkpt>
      <trkpt lat="42.5794700" lon="1.7932370">
        <ele>1453.4</ele>
        <time>2020-07-30T08:44:13Z</time>
      </trkpt>
      <trkpt lat="42.5793540" lon="1.7931440">
        <ele>1453.8</ele>
        <time>2020-07-30T08:44:17Z</time>
      </trkpt>
      <trkpt lat="42.5792720" lon="1.7930770">
        <ele>1454.4</ele>
        <time>2020-07-30T08:44:20Z</time>
      </trkpt>
      <trkpt lat="42.5791630" lon="1.7929920">
        <ele>1455.4</ele>
        <time>2020-07-30T08:44:24Z</time>
      </trkpt>
      <trkpt lat="42.5791370" lon="1.7929690">
        <ele>1455.6</ele>
        <time>2020-07-30T08:44:25Z</time>
      </trkpt>
      <trkpt lat="42.5789800" lon="1.7928420">
        <ele>1456.6</ele>
        <time>2020-07-30T08:44:31Z</time>
      </trkpt>
      <trkpt lat="42.5789560" lon="1.7928210">
        <ele>1457.0</ele>
        <time>2020-07-30T08:44:32Z</time>
      </trkpt>
      <trkpt lat="42.5789330" lon="1.7928010">
        <ele>1457.6</ele>
        <time>2020-07-30T08:44:33Z</time>
      </trkpt>
      <trkpt lat="42.5788790" lon="1.7927620">
        <ele>1458.8</ele>
        <time>2020-07-30T08:44:35Z</time>
      </trkpt>
      <trkpt lat="42.5787830" lon="1.7926860">
        <ele>1460.0</ele>
        <time>2020-07-30T08:44:39Z</time>
      </trkpt>
      <trkpt lat="42.5787600" lon="1.7926670">
        <ele>1460.2</ele>
        <time>2020-07-30T08:44:40Z</time>
      </trkpt>
      <trkpt lat="42.5786490" lon="1.7925610">
        <ele>1461.0</ele>
        <time>2020-07-30T08:44:45Z</time>
      </trkpt>
      <trkpt lat="42.5785780" lon="1.7925010">
        <ele>1462.0</ele>
        <time>2020-07-30T08:44:48Z</time>
      </trkpt>
      <trkpt lat="42.5785530" lon="1.7924820">
        <ele>1462.2</ele>
        <time>2020-07-30T08:44:49Z</time>
      </trkpt>
      <trkpt lat="42.5784560" lon="1.7924010">
        <ele>1463.0</ele>
        <time>2020-07-30T08:44:53Z</time>
      </trkpt>
      <trkpt lat="42.5783330" lon="1.7922780">
        <ele>1464.0</ele>
        <time>2020-07-30T08:44:58Z</time>
      </trkpt>
      <trkpt lat="42.5781980" lon="1.7921420">
        <ele>1465.2</ele>
        <time>2020-07-30T08:45:04Z</time>
      </trkpt>
      <trkpt lat="42.5781390" lon="1.7920550">
        <ele>1466.0</ele>
        <time>2020-07-30T08:45:07Z</time>
      </trkpt>
      <trkpt lat="42.5781180" lon="1.7920270">
        <ele>1466.2</ele>
        <time>2020-07-30T08:45:08Z</time>
      </trkpt>
      <trkpt lat="42.5780530" lon="1.7919430">
        <ele>1467.2</ele>
        <time>2020-07-30T08:45:11Z</time>
      </trkpt>
      <trkpt lat="42.5779530" lon="1.7917900">
        <ele>1468.2</ele>
        <time>2020-07-30T08:45:16Z</time>
      </trkpt>
      <trkpt lat="42.5778270" lon="1.7915780">
        <ele>1469.4</ele>
        <time>2020-07-30T08:45:23Z</time>
      </trkpt>
      <trkpt lat="42.5777750" lon="1.7914870">
        <ele>1470.2</ele>
        <time>2020-07-30T08:45:26Z</time>
      </trkpt>
      <trkpt lat="42.5777610" lon="1.7914570">
        <ele>1470.4</ele>
        <time>2020-07-30T08:45:27Z</time>
      </trkpt>
      <trkpt lat="42.5776670" lon="1.7912790">
        <ele>1471.6</ele>
        <time>2020-07-30T08:45:33Z</time>
      </trkpt>
      <trkpt lat="42.5776230" lon="1.7911870">
        <ele>1472.0</ele>
        <time>2020-07-30T08:45:36Z</time>
      </trkpt>
      <trkpt lat="42.5775770" lon="1.7910920">
        <ele>1472.8</ele>
        <time>2020-07-30T08:45:39Z</time>
      </trkpt>
      <trkpt lat="42.5775020" lon="1.7909380">
        <ele>1473.8</ele>
        <time>2020-07-30T08:45:44Z</time>
      </trkpt>
      <trkpt lat="42.5774730" lon="1.7908740">
        <ele>1474.2</ele>
        <time>2020-07-30T08:45:46Z</time>
      </trkpt>
      <trkpt lat="42.5774280" lon="1.7907800">
        <ele>1475.0</ele>
        <time>2020-07-30T08:45:49Z</time>
      </trkpt>
      <trkpt lat="42.5773560" lon="1.7906140">
        <ele>1475.8</ele>
        <time>2020-07-30T08:45:54Z</time>
      </trkpt>
      <trkpt lat="42.5773280" lon="1.7905500">
        <ele>1476.2</ele>
        <time>2020-07-30T08:45:56Z</time>
      </trkpt>
      <trkpt lat="42.5772850" lon="1.7904510">
        <ele>1476.8</ele>
        <time>2020-07-30T08:45:59Z</time>
      </trkpt>
      <trkpt lat="42.5772020" lon="1.7902490">
        <ele>1478.0</ele>
        <time>2020-07-30T08:46:05Z</time>
      </trkpt>
      <trkpt lat="42.5771870" lon="1.7902180">
        <ele>1478.2</ele>
        <time>2020-07-30T08:46:06Z</time>
      </trkpt>
      <trkpt lat="42.5771590" lon="1.7901570">
        <ele>1478.8</ele>
        <time>2020-07-30T08:46:08Z</time>
      </trkpt>
      <trkpt lat="42.5771060" lon="1.7900370">
        <ele>1479.8</ele>
        <time>2020-07-30T08:46:12Z</time>
      </trkpt>
      <trkpt lat="42.5770910" lon="1.7900090">
        <ele>1480.8</ele>
        <time>2020-07-30T08:46:13Z</time>
      </trkpt>
      <trkpt lat="42.5770770" lon="1.7899790">
        <ele>1481.4</ele>
        <time>2020-07-30T08:46:14Z</time>
      </trkpt>
      <trkpt lat="42.5770490" lon="1.7899170">
        <ele>1482.0</ele>
        <time>2020-07-30T08:46:16Z</time>
      </trkpt>
      <trkpt lat="42.5769550" lon="1.7897490">
        <ele>1482.8</ele>
        <time>2020-07-30T08:46:22Z</time>
      </trkpt>
      <trkpt lat="42.5768580" lon="1.7895840">
        <ele>1484.0</ele>
        <time>2020-07-30T08:46:28Z</time>
      </trkpt>
      <trkpt lat="42.5768080" lon="1.7895000">
        <ele>1485.0</ele>
        <time>2020-07-30T08:46:31Z</time>
      </trkpt>
      <trkpt lat="42.5767910" lon="1.7894730">
        <ele>1485.4</ele>
        <time>2020-07-30T08:46:32Z</time>
      </trkpt>
      <trkpt lat="42.5767450" lon="1.7893900">
        <ele>1485.8</ele>
        <time>2020-07-30T08:46:35Z</time>
      </trkpt>
      <trkpt lat="42.5766660" lon="1.7892530">
        <ele>1487.0</ele>
        <time>2020-07-30T08:46:40Z</time>
      </trkpt>
      <trkpt lat="42.5766160" lon="1.7891740">
        <ele>1487.6</ele>
        <time>2020-07-30T08:46:43Z</time>
      </trkpt>
      <trkpt lat="42.5765780" lon="1.7891290">
        <ele>1488.0</ele>
        <time>2020-07-30T08:46:45Z</time>
      </trkpt>
      <trkpt lat="42.5764880" lon="1.7890580">
        <ele>1489.0</ele>
        <time>2020-07-30T08:46:49Z</time>
      </trkpt>
      <trkpt lat="42.5764630" lon="1.7890470">
        <ele>1489.2</ele>
        <time>2020-07-30T08:46:50Z</time>
      </trkpt>
      <trkpt lat="42.5762970" lon="1.7890630">
        <ele>1490.2</ele>
        <time>2020-07-30T08:46:56Z</time>
      </trkpt>
      <trkpt lat="42.5761810" lon="1.7892000">
        <ele>1491.0</ele>
        <time>2020-07-30T08:47:01Z</time>
      </trkpt>
      <trkpt lat="42.5761660" lon="1.7892410">
        <ele>1491.0</ele>
        <time>2020-07-30T08:47:02Z</time>
      </trkpt>
      <trkpt lat="42.5761410" lon="1.7894910">
        <ele>1491.2</ele>
        <time>2020-07-30T08:47:07Z</time>
      </trkpt>
      <trkpt lat="42.5761390" lon="1.7896480">
        <ele>1492.0</ele>
        <time>2020-07-30T08:47:10Z</time>
      </trkpt>
      <trkpt lat="42.5761420" lon="1.7899460">
        <ele>1492.6</ele>
        <time>2020-07-30T08:47:16Z</time>
      </trkpt>
      <trkpt lat="42.5761430" lon="1.7900440">
        <ele>1493.2</ele>
        <time>2020-07-30T08:47:18Z</time>
      </trkpt>
      <trkpt lat="42.5761430" lon="1.7902390">
        <ele>1494.2</ele>
        <time>2020-07-30T08:47:22Z</time>
      </trkpt>
      <trkpt lat="42.5761470" lon="1.7903410">
        <ele>1494.4</ele>
        <time>2020-07-30T08:47:24Z</time>
      </trkpt>
      <trkpt lat="42.5761530" lon="1.7906420">
        <ele>1495.2</ele>
        <time>2020-07-30T08:47:30Z</time>
      </trkpt>
      <trkpt lat="42.5761540" lon="1.7906890">
        <ele>1495.8</ele>
        <time>2020-07-30T08:47:31Z</time>
      </trkpt>
      <trkpt lat="42.5761560" lon="1.7907810">
        <ele>1496.2</ele>
        <time>2020-07-30T08:47:33Z</time>
      </trkpt>
      <trkpt lat="42.5761720" lon="1.7910620">
        <ele>1496.6</ele>
        <time>2020-07-30T08:47:39Z</time>
      </trkpt>
      <trkpt lat="42.5762030" lon="1.7913100">
        <ele>1497.6</ele>
        <time>2020-07-30T08:47:44Z</time>
      </trkpt>
      <trkpt lat="42.5762420" lon="1.7915260">
        <ele>1498.4</ele>
        <time>2020-07-30T08:47:48Z</time>
      </trkpt>
      <trkpt lat="42.5762550" lon="1.7915810">
        <ele>1498.6</ele>
        <time>2020-07-30T08:47:49Z</time>
      </trkpt>
      <trkpt lat="42.5763000" lon="1.7917310">
        <ele>1499.8</ele>
        <time>2020-07-30T08:47:52Z</time>
      </trkpt>
      <trkpt lat="42.5763580" lon="1.7918710">
        <ele>1500.2</ele>
        <time>2020-07-30T08:47:55Z</time>
      </trkpt>
      <trkpt lat="42.5764710" lon="1.7921100">
        <ele>1500.8</ele>
        <time>2020-07-30T08:48:00Z</time>
      </trkpt>
      <trkpt lat="42.5765400" lon="1.7922670">
        <ele>1500.8</ele>
        <time>2020-07-30T08:48:03Z</time>
      </trkpt>
      <trkpt lat="42.5765390" lon="1.7924930">
        <ele>1501.2</ele>
        <time>2020-07-30T08:48:07Z</time>
      </trkpt>
      <trkpt lat="42.5764660" lon="1.7925460">
        <ele>1501.8</ele>
        <time>2020-07-30T08:48:09Z</time>
      </trkpt>
      <trkpt lat="42.5764210" lon="1.7925430">
        <ele>1502.2</ele>
        <time>2020-07-30T08:48:10Z</time>
      </trkpt>
      <trkpt lat="42.5763150" lon="1.7924350">
        <ele>1502.8</ele>
        <time>2020-07-30T08:48:13Z</time>
      </trkpt>
      <trkpt lat="42.5762740" lon="1.7923260">
        <ele>1503.0</ele>
        <time>2020-07-30T08:48:15Z</time>
      </trkpt>
      <trkpt lat="42.5762240" lon="1.7921600">
        <ele>1503.8</ele>
        <time>2020-07-30T08:48:18Z</time>
      </trkpt>
      <trkpt lat="42.5762100" lon="1.7921080">
        <ele>1504.0</ele>
        <time>2020-07-30T08:48:19Z</time>
      </trkpt>
      <trkpt lat="42.5761130" lon="1.7918230">
        <ele>1505.2</ele>
        <time>2020-07-30T08:48:25Z</time>
      </trkpt>
      <trkpt lat="42.5760790" lon="1.7917400">
        <ele>1505.6</ele>
        <time>2020-07-30T08:48:27Z</time>
      </trkpt>
      <trkpt lat="42.5760430" lon="1.7916610">
        <ele>1506.2</ele>
        <time>2020-07-30T08:48:29Z</time>
      </trkpt>
      <trkpt lat="42.5759460" lon="1.7914270">
        <ele>1507.4</ele>
        <time>2020-07-30T08:48:35Z</time>
      </trkpt>
      <trkpt lat="42.5759000" lon="1.7913130">
        <ele>1507.8</ele>
        <time>2020-07-30T08:48:38Z</time>
      </trkpt>
      <trkpt lat="42.5758840" lon="1.7912760">
        <ele>1508.4</ele>
        <time>2020-07-30T08:48:39Z</time>
      </trkpt>
      <trkpt lat="42.5758180" lon="1.7911280">
        <ele>1509.4</ele>
        <time>2020-07-30T08:48:43Z</time>
      </trkpt>
      <trkpt lat="42.5757410" lon="1.7909430">
        <ele>1510.6</ele>
        <time>2020-07-30T08:48:48Z</time>
      </trkpt>
      <trkpt lat="42.5756180" lon="1.7906530">
        <ele>1511.8</ele>
        <time>2020-07-30T08:48:56Z</time>
      </trkpt>
      <trkpt lat="42.5755900" lon="1.7905810">
        <ele>1512.0</ele>
        <time>2020-07-30T08:48:58Z</time>
      </trkpt>
      <trkpt lat="42.5755470" lon="1.7904710">
        <ele>1513.0</ele>
        <time>2020-07-30T08:49:01Z</time>
      </trkpt>
      <trkpt lat="42.5754700" lon="1.7902930">
        <ele>1514.0</ele>
        <time>2020-07-30T08:49:06Z</time>
      </trkpt>
      <trkpt lat="42.5754000" lon="1.7901530">
        <ele>1514.6</ele>
        <time>2020-07-30T08:49:10Z</time>
      </trkpt>
      <trkpt lat="42.5753720" lon="1.7900770">
        <ele>1515.0</ele>
        <time>2020-07-30T08:49:12Z</time>
      </trkpt>
      <trkpt lat="42.5752850" lon="1.7898930">
        <ele>1516.2</ele>
        <time>2020-07-30T08:49:17Z</time>
      </trkpt>
      <trkpt lat="42.5752670" lon="1.7898580">
        <ele>1516.2</ele>
        <time>2020-07-30T08:49:18Z</time>
      </trkpt>
      <trkpt lat="42.5751120" lon="1.7895050">
        <ele>1517.0</ele>
        <time>2020-07-30T08:49:27Z</time>
      </trkpt>
      <trkpt lat="42.5750940" lon="1.7894630">
        <ele>1517.6</ele>
        <time>2020-07-30T08:49:28Z</time>
      </trkpt>
      <trkpt lat="42.5750230" lon="1.7892920">
        <ele>1518.6</ele>
        <time>2020-07-30T08:49:32Z</time>
      </trkpt>
      <trkpt lat="42.5749370" lon="1.7890840">
        <ele>1519.2</ele>
        <time>2020-07-30T08:49:37Z</time>
      </trkpt>
      <trkpt lat="42.5749040" lon="1.7890030">
        <ele>1519.6</ele>
        <time>2020-07-30T08:49:39Z</time>
      </trkpt>
      <trkpt lat="42.5747900" lon="1.7886670">
        <ele>1520.6</ele>
        <time>2020-07-30T08:49:47Z</time>
      </trkpt>
      <trkpt lat="42.5747800" lon="1.7886210">
        <ele>1520.6</ele>
        <time>2020-07-30T08:49:48Z</time>
      </trkpt>
      <trkpt lat="42.5747370" lon="1.7884430">
        <ele>1521.6</ele>
        <time>2020-07-30T08:49:52Z</time>
      </trkpt>
      <trkpt lat="42.5746870" lon="1.7883330">
        <ele>1522.0</ele>
        <time>2020-07-30T08:49:55Z</time>
      </trkpt>
      <trkpt lat="42.5745470" lon="1.7882130">
        <ele>1522.6</ele>
        <time>2020-07-30T08:50:00Z</time>
      </trkpt>
      <trkpt lat="42.5744120" lon="1.7882390">
        <ele>1523.4</ele>
        <time>2020-07-30T08:50:04Z</time>
      </trkpt>
      <trkpt lat="42.5743570" lon="1.7882990">
        <ele>1523.8</ele>
        <time>2020-07-30T08:50:06Z</time>
      </trkpt>
      <trkpt lat="42.5743180" lon="1.7883820">
        <ele>1524.2</ele>
        <time>2020-07-30T08:50:08Z</time>
      </trkpt>
      <trkpt lat="42.5743150" lon="1.7886210">
        <ele>1524.8</ele>
        <time>2020-07-30T08:50:13Z</time>
      </trkpt>
      <trkpt lat="42.5743270" lon="1.7886650">
        <ele>1524.8</ele>
        <time>2020-07-30T08:50:14Z</time>
      </trkpt>
      <trkpt lat="42.5744540" lon="1.7889810">
        <ele>1525.6</ele>
        <time>2020-07-30T08:50:21Z</time>
      </trkpt>
      <trkpt lat="42.5744930" lon="1.7890720">
        <ele>1525.8</ele>
        <time>2020-07-30T08:50:23Z</time>
      </trkpt>
      <trkpt lat="42.5745510" lon="1.7892020">
        <ele>1526.8</ele>
        <time>2020-07-30T08:50:26Z</time>
      </trkpt>
      <trkpt lat="42.5746170" lon="1.7893760">
        <ele>1527.2</ele>
        <time>2020-07-30T08:50:30Z</time>
      </trkpt>
      <trkpt lat="42.5746750" lon="1.7895550">
        <ele>1527.8</ele>
        <time>2020-07-30T08:50:34Z</time>
      </trkpt>
      <trkpt lat="42.5747340" lon="1.7897740">
        <ele>1528.6</ele>
        <time>2020-07-30T08:50:39Z</time>
      </trkpt>
      <trkpt lat="42.5747440" lon="1.7898180">
        <ele>1528.8</ele>
        <time>2020-07-30T08:50:40Z</time>
      </trkpt>
      <trkpt lat="42.5747830" lon="1.7900380">
        <ele>1529.8</ele>
        <time>2020-07-30T08:50:45Z</time>
      </trkpt>
      <trkpt lat="42.5748130" lon="1.7902160">
        <ele>1530.6</ele>
        <time>2020-07-30T08:50:49Z</time>
      </trkpt>
      <trkpt lat="42.5748290" lon="1.7903030">
        <ele>1531.0</ele>
        <time>2020-07-30T08:50:51Z</time>
      </trkpt>
      <trkpt lat="42.5748700" lon="1.7905180">
        <ele>1532.2</ele>
        <time>2020-07-30T08:50:56Z</time>
      </trkpt>
      <trkpt lat="42.5748950" lon="1.7906400">
        <ele>1532.8</ele>
        <time>2020-07-30T08:50:59Z</time>
      </trkpt>
      <trkpt lat="42.5749150" lon="1.7907610">
        <ele>1533.2</ele>
        <time>2020-07-30T08:51:02Z</time>
      </trkpt>
      <trkpt lat="42.5749580" lon="1.7910030">
        <ele>1534.4</ele>
        <time>2020-07-30T08:51:08Z</time>
      </trkpt>
      <trkpt lat="42.5749650" lon="1.7910420">
        <ele>1534.6</ele>
        <time>2020-07-30T08:51:09Z</time>
      </trkpt>
      <trkpt lat="42.5749780" lon="1.7911160">
        <ele>1535.4</ele>
        <time>2020-07-30T08:51:11Z</time>
      </trkpt>
      <trkpt lat="42.5749910" lon="1.7912700">
        <ele>1536.4</ele>
        <time>2020-07-30T08:51:15Z</time>
      </trkpt>
      <trkpt lat="42.5749970" lon="1.7913090">
        <ele>1536.6</ele>
        <time>2020-07-30T08:51:16Z</time>
      </trkpt>
      <trkpt lat="42.5750250" lon="1.7914680">
        <ele>1537.4</ele>
        <time>2020-07-30T08:51:20Z</time>
      </trkpt>
      <trkpt lat="42.5750570" lon="1.7916180">
        <ele>1538.6</ele>
        <time>2020-07-30T08:51:24Z</time>
      </trkpt>
      <trkpt lat="42.5750710" lon="1.7916910">
        <ele>1539.4</ele>
        <time>2020-07-30T08:51:26Z</time>
      </trkpt>
      <trkpt lat="42.5750780" lon="1.7917260">
        <ele>1539.8</ele>
        <time>2020-07-30T08:51:27Z</time>
      </trkpt>
      <trkpt lat="42.5751060" lon="1.7918680">
        <ele>1541.0</ele>
        <time>2020-07-30T08:51:31Z</time>
      </trkpt>
      <trkpt lat="42.5751330" lon="1.7919800">
        <ele>1542.0</ele>
        <time>2020-07-30T08:51:34Z</time>
      </trkpt>
      <trkpt lat="42.5751430" lon="1.7920200">
        <ele>1542.2</ele>
        <time>2020-07-30T08:51:35Z</time>
      </trkpt>
      <trkpt lat="42.5751910" lon="1.7921660">
        <ele>1543.4</ele>
        <time>2020-07-30T08:51:39Z</time>
      </trkpt>
      <trkpt lat="42.5752270" lon="1.7922840">
        <ele>1544.2</ele>
        <time>2020-07-30T08:51:42Z</time>
      </trkpt>
      <trkpt lat="42.5753110" lon="1.7925010">
        <ele>1545.4</ele>
        <time>2020-07-30T08:51:47Z</time>
      </trkpt>
      <trkpt lat="42.5753340" lon="1.7925400">
        <ele>1545.6</ele>
        <time>2020-07-30T08:51:48Z</time>
      </trkpt>
      <trkpt lat="42.5754220" lon="1.7926880">
        <ele>1546.4</ele>
        <time>2020-07-30T08:51:52Z</time>
      </trkpt>
      <trkpt lat="42.5755150" lon="1.7928180">
        <ele>1547.2</ele>
        <time>2020-07-30T08:51:56Z</time>
      </trkpt>
      <trkpt lat="42.5755830" lon="1.7929130">
        <ele>1547.4</ele>
        <time>2020-07-30T08:51:59Z</time>
      </trkpt>
      <trkpt lat="42.5757120" lon="1.7931100">
        <ele>1548.4</ele>
        <time>2020-07-30T08:52:05Z</time>
      </trkpt>
      <trkpt lat="42.5757940" lon="1.7932590">
        <ele>1548.8</ele>
        <time>2020-07-30T08:52:09Z</time>
      </trkpt>
      <trkpt lat="42.5758050" lon="1.7934300">
        <ele>1549.6</ele>
        <time>2020-07-30T08:52:13Z</time>
      </trkpt>
      <trkpt lat="42.5757430" lon="1.7935060">
        <ele>1550.0</ele>
        <time>2020-07-30T08:52:16Z</time>
      </trkpt>
      <trkpt lat="42.5757160" lon="1.7935050">
        <ele>1550.2</ele>
        <time>2020-07-30T08:52:17Z</time>
      </trkpt>
      <trkpt lat="42.5756420" lon="1.7934430">
        <ele>1550.8</ele>
        <time>2020-07-30T08:52:20Z</time>
      </trkpt>
      <trkpt lat="42.5756150" lon="1.7934140">
        <ele>1551.0</ele>
        <time>2020-07-30T08:52:21Z</time>
      </trkpt>
      <trkpt lat="42.5755400" lon="1.7933180">
        <ele>1552.0</ele>
        <time>2020-07-30T08:52:24Z</time>
      </trkpt>
      <trkpt lat="42.5754390" lon="1.7931600">
        <ele>1552.6</ele>
        <time>2020-07-30T08:52:28Z</time>
      </trkpt>
      <trkpt lat="42.5754180" lon="1.7931200">
        <ele>1552.8</ele>
        <time>2020-07-30T08:52:29Z</time>
      </trkpt>
      <trkpt lat="42.5753010" lon="1.7928710">
        <ele>1554.0</ele>
        <time>2020-07-30T08:52:35Z</time>
      </trkpt>
      <trkpt lat="42.5752810" lon="1.7928320">
        <ele>1554.0</ele>
        <time>2020-07-30T08:52:36Z</time>
      </trkpt>
      <trkpt lat="42.5752010" lon="1.7926750">
        <ele>1555.2</ele>
        <time>2020-07-30T08:52:40Z</time>
      </trkpt>
      <trkpt lat="42.5750610" lon="1.7924130">
        <ele>1556.2</ele>
        <time>2020-07-30T08:52:47Z</time>
      </trkpt>
      <trkpt lat="42.5749540" lon="1.7922250">
        <ele>1557.2</ele>
        <time>2020-07-30T08:52:52Z</time>
      </trkpt>
      <trkpt lat="42.5748650" lon="1.7920790">
        <ele>1558.2</ele>
        <time>2020-07-30T08:52:56Z</time>
      </trkpt>
      <trkpt lat="42.5747040" lon="1.7918270">
        <ele>1559.0</ele>
        <time>2020-07-30T08:53:03Z</time>
      </trkpt>
      <trkpt lat="42.5746570" lon="1.7917570">
        <ele>1559.6</ele>
        <time>2020-07-30T08:53:05Z</time>
      </trkpt>
      <trkpt lat="42.5745150" lon="1.7915530">
        <ele>1560.6</ele>
        <time>2020-07-30T08:53:11Z</time>
      </trkpt>
      <trkpt lat="42.5744760" lon="1.7914810">
        <ele>1560.8</ele>
        <time>2020-07-30T08:53:13Z</time>
      </trkpt>
      <trkpt lat="42.5744010" lon="1.7913280">
        <ele>1561.6</ele>
        <time>2020-07-30T08:53:17Z</time>
      </trkpt>
      <trkpt lat="42.5743400" lon="1.7911740">
        <ele>1562.6</ele>
        <time>2020-07-30T08:53:21Z</time>
      </trkpt>
      <trkpt lat="42.5743090" lon="1.7910980">
        <ele>1562.8</ele>
        <time>2020-07-30T08:53:23Z</time>
      </trkpt>
      <trkpt lat="42.5741890" lon="1.7908930">
        <ele>1563.8</ele>
        <time>2020-07-30T08:53:29Z</time>
      </trkpt>
      <trkpt lat="42.5741400" lon="1.7908350">
        <ele>1564.0</ele>
        <time>2020-07-30T08:53:31Z</time>
      </trkpt>
      <trkpt lat="42.5739950" lon="1.7906610">
        <ele>1564.8</ele>
        <time>2020-07-30T08:53:37Z</time>
      </trkpt>
      <trkpt lat="42.5739280" lon="1.7905680">
        <ele>1565.6</ele>
        <time>2020-07-30T08:53:40Z</time>
      </trkpt>
      <trkpt lat="42.5738870" lon="1.7905060">
        <ele>1565.8</ele>
        <time>2020-07-30T08:53:42Z</time>
      </trkpt>
      <trkpt lat="42.5737430" lon="1.7902730">
        <ele>1567.0</ele>
        <time>2020-07-30T08:53:49Z</time>
      </trkpt>
      <trkpt lat="42.5735890" lon="1.7900410">
        <ele>1568.0</ele>
        <time>2020-07-30T08:53:56Z</time>
      </trkpt>
      <trkpt lat="42.5735100" lon="1.7899510">
        <ele>1568.2</ele>
        <time>2020-07-30T08:53:59Z</time>
      </trkpt>
      <trkpt lat="42.5733930" lon="1.7898490">
        <ele>1569.0</ele>
        <time>2020-07-30T08:54:03Z</time>
      </trkpt>
      <trkpt lat="42.5733040" lon="1.7897760">
        <ele>1570.0</ele>
        <time>2020-07-30T08:54:06Z</time>
      </trkpt>
      <trkpt lat="42.5732130" lon="1.7897050">
        <ele>1570.4</ele>
        <time>2020-07-30T08:54:09Z</time>
      </trkpt>
      <trkpt lat="42.5730590" lon="1.7895880">
        <ele>1571.2</ele>
        <time>2020-07-30T08:54:14Z</time>
      </trkpt>
      <trkpt lat="42.5729400" lon="1.7894890">
        <ele>1572.0</ele>
        <time>2020-07-30T08:54:18Z</time>
      </trkpt>
      <trkpt lat="42.5728810" lon="1.7894410">
        <ele>1572.4</ele>
        <time>2020-07-30T08:54:20Z</time>
      </trkpt>
      <trkpt lat="42.5727360" lon="1.7893080">
        <ele>1573.2</ele>
        <time>2020-07-30T08:54:25Z</time>
      </trkpt>
      <trkpt lat="42.5726560" lon="1.7892220">
        <ele>1573.8</ele>
        <time>2020-07-30T08:54:28Z</time>
      </trkpt>
      <trkpt lat="42.5725820" lon="1.7891280">
        <ele>1574.6</ele>
        <time>2020-07-30T08:54:31Z</time>
      </trkpt>
      <trkpt lat="42.5724470" lon="1.7889860">
        <ele>1575.4</ele>
        <time>2020-07-30T08:54:36Z</time>
      </trkpt>
      <trkpt lat="42.5724190" lon="1.7889590">
        <ele>1575.6</ele>
        <time>2020-07-30T08:54:37Z</time>
      </trkpt>
      <trkpt lat="42.5722390" lon="1.7888500">
        <ele>1576.8</ele>
        <time>2020-07-30T08:54:43Z</time>
      </trkpt>
      <trkpt lat="42.5722060" lon="1.7888390">
        <ele>1577.0</ele>
        <time>2020-07-30T08:54:44Z</time>
      </trkpt>
      <trkpt lat="42.5720360" lon="1.7887920">
        <ele>1577.8</ele>
        <time>2020-07-30T08:54:49Z</time>
      </trkpt>
      <trkpt lat="42.5719380" lon="1.7887350">
        <ele>1578.2</ele>
        <time>2020-07-30T08:54:52Z</time>
      </trkpt>
      <trkpt lat="42.5718330" lon="1.7885240">
        <ele>1578.6</ele>
        <time>2020-07-30T08:54:57Z</time>
      </trkpt>
      <trkpt lat="42.5717960" lon="1.7884310">
        <ele>1578.8</ele>
        <time>2020-07-30T08:54:59Z</time>
      </trkpt>
      <trkpt lat="42.5717120" lon="1.7881460">
        <ele>1579.8</ele>
        <time>2020-07-30T08:55:05Z</time>
      </trkpt>
      <trkpt lat="42.5717350" lon="1.7879610">
        <ele>1580.6</ele>
        <time>2020-07-30T08:55:09Z</time>
      </trkpt>
      <trkpt lat="42.5717500" lon="1.7879250">
        <ele>1580.8</ele>
        <time>2020-07-30T08:55:10Z</time>
      </trkpt>
      <trkpt lat="42.5718190" lon="1.7877270">
        <ele>1581.8</ele>
        <time>2020-07-30T08:55:15Z</time>
      </trkpt>
      <trkpt lat="42.5718480" lon="1.7875870">
        <ele>1583.2</ele>
        <time>2020-07-30T08:55:18Z</time>
      </trkpt>
      <trkpt lat="42.5718020" lon="1.7873180">
        <ele>1584.0</ele>
        <time>2020-07-30T08:55:23Z</time>
      </trkpt>
      <trkpt lat="42.5717800" lon="1.7872710">
        <ele>1584.2</ele>
        <time>2020-07-30T08:55:24Z</time>
      </trkpt>
      <trkpt lat="42.5716270" lon="1.7870290">
        <ele>1585.4</ele>
        <time>2020-07-30T08:55:30Z</time>
      </trkpt>
      <trkpt lat="42.5715240" lon="1.7868850">
        <ele>1586.4</ele>
        <time>2020-07-30T08:55:34Z</time>
      </trkpt>
      <trkpt lat="42.5713770" lon="1.7866770">
        <ele>1587.2</ele>
        <time>2020-07-30T08:55:40Z</time>
      </trkpt>
      <trkpt lat="42.5713530" lon="1.7866420">
        <ele>1587.4</ele>
        <time>2020-07-30T08:55:41Z</time>
      </trkpt>
      <trkpt lat="42.5712290" lon="1.7864710">
        <ele>1588.2</ele>
        <time>2020-07-30T08:55:46Z</time>
      </trkpt>
      <trkpt lat="42.5711120" lon="1.7863090">
        <ele>1589.0</ele>
        <time>2020-07-30T08:55:51Z</time>
      </trkpt>
      <trkpt lat="42.5710430" lon="1.7862090">
        <ele>1589.2</ele>
        <time>2020-07-30T08:55:54Z</time>
      </trkpt>
      <trkpt lat="42.5708920" lon="1.7859570">
        <ele>1590.4</ele>
        <time>2020-07-30T08:56:01Z</time>
      </trkpt>
      <trkpt lat="42.5708180" lon="1.7857500">
        <ele>1591.6</ele>
        <time>2020-07-30T08:56:06Z</time>
      </trkpt>
      <trkpt lat="42.5707830" lon="1.7856220">
        <ele>1592.0</ele>
        <time>2020-07-30T08:56:09Z</time>
      </trkpt>
      <trkpt lat="42.5707400" lon="1.7854490">
        <ele>1592.8</ele>
        <time>2020-07-30T08:56:13Z</time>
      </trkpt>
      <trkpt lat="42.5706500" lon="1.7851960">
        <ele>1593.6</ele>
        <time>2020-07-30T08:56:19Z</time>
      </trkpt>
      <trkpt lat="42.5705890" lon="1.7850780">
        <ele>1594.8</ele>
        <time>2020-07-30T08:56:22Z</time>
      </trkpt>
      <trkpt lat="42.5704740" lon="1.7848970">
        <ele>1595.8</ele>
        <time>2020-07-30T08:56:27Z</time>
      </trkpt>
      <trkpt lat="42.5704050" lon="1.7847910">
        <ele>1596.0</ele>
        <time>2020-07-30T08:56:30Z</time>
      </trkpt>
      <trkpt lat="42.5702640" lon="1.7845880">
        <ele>1596.8</ele>
        <time>2020-07-30T08:56:36Z</time>
      </trkpt>
      <trkpt lat="42.5702140" lon="1.7845190">
        <ele>1597.4</ele>
        <time>2020-07-30T08:56:38Z</time>
      </trkpt>
      <trkpt lat="42.5701070" lon="1.7843890">
        <ele>1597.8</ele>
        <time>2020-07-30T08:56:42Z</time>
      </trkpt>
      <trkpt lat="42.5699270" lon="1.7841640">
        <ele>1599.0</ele>
        <time>2020-07-30T08:56:49Z</time>
      </trkpt>
      <trkpt lat="42.5699010" lon="1.7841320">
        <ele>1599.2</ele>
        <time>2020-07-30T08:56:50Z</time>
      </trkpt>
      <trkpt lat="42.5698290" lon="1.7840290">
        <ele>1600.0</ele>
        <time>2020-07-30T08:56:53Z</time>
      </trkpt>
      <trkpt lat="42.5697520" lon="1.7838730">
        <ele>1600.6</ele>
        <time>2020-07-30T08:56:57Z</time>
      </trkpt>
      <trkpt lat="42.5697000" lon="1.7837500">
        <ele>1601.2</ele>
        <time>2020-07-30T08:57:00Z</time>
      </trkpt>
      <trkpt lat="42.5695950" lon="1.7834960">
        <ele>1602.2</ele>
        <time>2020-07-30T08:57:06Z</time>
      </trkpt>
      <trkpt lat="42.5695770" lon="1.7834550">
        <ele>1602.4</ele>
        <time>2020-07-30T08:57:07Z</time>
      </trkpt>
      <trkpt lat="42.5695250" lon="1.7833330">
        <ele>1603.4</ele>
        <time>2020-07-30T08:57:10Z</time>
      </trkpt>
      <trkpt lat="42.5694330" lon="1.7831170">
        <ele>1604.6</ele>
        <time>2020-07-30T08:57:15Z</time>
      </trkpt>
      <trkpt lat="42.5693940" lon="1.7830330">
        <ele>1604.8</ele>
        <time>2020-07-30T08:57:17Z</time>
      </trkpt>
      <trkpt lat="42.5692860" lon="1.7828220">
        <ele>1605.8</ele>
        <time>2020-07-30T08:57:22Z</time>
      </trkpt>
      <trkpt lat="42.5691820" lon="1.7826740">
        <ele>1606.4</ele>
        <time>2020-07-30T08:57:26Z</time>
      </trkpt>
      <trkpt lat="42.5690480" lon="1.7825080">
        <ele>1606.6</ele>
        <time>2020-07-30T08:57:31Z</time>
      </trkpt>
      <trkpt lat="42.5689160" lon="1.7823440">
        <ele>1607.8</ele>
        <time>2020-07-30T08:57:36Z</time>
      </trkpt>
      <trkpt lat="42.5688890" lon="1.7823120">
        <ele>1608.2</ele>
        <time>2020-07-30T08:57:37Z</time>
      </trkpt>
      <trkpt lat="42.5687570" lon="1.7821490">
        <ele>1609.0</ele>
        <time>2020-07-30T08:57:42Z</time>
      </trkpt>
      <trkpt lat="42.5686490" lon="1.7820200">
        <ele>1610.2</ele>
        <time>2020-07-30T08:57:46Z</time>
      </trkpt>
      <trkpt lat="42.5685420" lon="1.7818890">
        <ele>1610.6</ele>
        <time>2020-07-30T08:57:50Z</time>
      </trkpt>
      <trkpt lat="42.5684920" lon="1.7818190">
        <ele>1611.0</ele>
        <time>2020-07-30T08:57:52Z</time>
      </trkpt>
      <trkpt lat="42.5683680" lon="1.7815850">
        <ele>1611.6</ele>
        <time>2020-07-30T08:57:58Z</time>
      </trkpt>
      <trkpt lat="42.5683270" lon="1.7815070">
        <ele>1612.4</ele>
        <time>2020-07-30T08:58:00Z</time>
      </trkpt>
      <trkpt lat="42.5682690" lon="1.7813870">
        <ele>1613.4</ele>
        <time>2020-07-30T08:58:03Z</time>
      </trkpt>
      <trkpt lat="42.5681500" lon="1.7811530">
        <ele>1614.4</ele>
        <time>2020-07-30T08:58:09Z</time>
      </trkpt>
      <trkpt lat="42.5681030" lon="1.7810820">
        <ele>1614.4</ele>
        <time>2020-07-30T08:58:11Z</time>
      </trkpt>
      <trkpt lat="42.5680240" lon="1.7809870">
        <ele>1615.4</ele>
        <time>2020-07-30T08:58:14Z</time>
      </trkpt>
      <trkpt lat="42.5679420" lon="1.7809030">
        <ele>1615.6</ele>
        <time>2020-07-30T08:58:17Z</time>
      </trkpt>
      <trkpt lat="42.5678220" lon="1.7808000">
        <ele>1616.4</ele>
        <time>2020-07-30T08:58:21Z</time>
      </trkpt>
      <trkpt lat="42.5676370" lon="1.7806450">
        <ele>1617.4</ele>
        <time>2020-07-30T08:58:27Z</time>
      </trkpt>
      <trkpt lat="42.5676070" lon="1.7806200">
        <ele>1617.8</ele>
        <time>2020-07-30T08:58:28Z</time>
      </trkpt>
      <trkpt lat="42.5675160" lon="1.7805440">
        <ele>1618.6</ele>
        <time>2020-07-30T08:58:31Z</time>
      </trkpt>
      <trkpt lat="42.5672560" lon="1.7803040">
        <ele>1619.4</ele>
        <time>2020-07-30T08:58:40Z</time>
      </trkpt>
      <trkpt lat="42.5672290" lon="1.7802720">
        <ele>1619.6</ele>
        <time>2020-07-30T08:58:41Z</time>
      </trkpt>
      <trkpt lat="42.5671360" lon="1.7801280">
        <ele>1620.8</ele>
        <time>2020-07-30T08:58:45Z</time>
      </trkpt>
      <trkpt lat="42.5670810" lon="1.7800090">
        <ele>1621.8</ele>
        <time>2020-07-30T08:58:48Z</time>
      </trkpt>
      <trkpt lat="42.5670630" lon="1.7799700">
        <ele>1622.0</ele>
        <time>2020-07-30T08:58:49Z</time>
      </trkpt>
      <trkpt lat="42.5669320" lon="1.7796990">
        <ele>1623.2</ele>
        <time>2020-07-30T08:58:56Z</time>
      </trkpt>
      <trkpt lat="42.5668710" lon="1.7795870">
        <ele>1623.4</ele>
        <time>2020-07-30T08:58:59Z</time>
      </trkpt>
      <trkpt lat="42.5668030" lon="1.7794860">
        <ele>1624.2</ele>
        <time>2020-07-30T08:59:02Z</time>
      </trkpt>
      <trkpt lat="42.5666610" lon="1.7792850">
        <ele>1625.4</ele>
        <time>2020-07-30T08:59:08Z</time>
      </trkpt>
      <trkpt lat="42.5665860" lon="1.7791880">
        <ele>1626.2</ele>
        <time>2020-07-30T08:59:11Z</time>
      </trkpt>
      <trkpt lat="42.5665370" lon="1.7791210">
        <ele>1626.4</ele>
        <time>2020-07-30T08:59:13Z</time>
      </trkpt>
      <trkpt lat="42.5663650" lon="1.7788980">
        <ele>1627.6</ele>
        <time>2020-07-30T08:59:20Z</time>
      </trkpt>
      <trkpt lat="42.5662940" lon="1.7787980">
        <ele>1627.8</ele>
        <time>2020-07-30T08:59:23Z</time>
      </trkpt>
      <trkpt lat="42.5661960" lon="1.7786700">
        <ele>1628.6</ele>
        <time>2020-07-30T08:59:27Z</time>
      </trkpt>
      <trkpt lat="42.5660720" lon="1.7785050">
        <ele>1629.8</ele>
        <time>2020-07-30T08:59:32Z</time>
      </trkpt>
      <trkpt lat="42.5660020" lon="1.7783950">
        <ele>1630.2</ele>
        <time>2020-07-30T08:59:35Z</time>
      </trkpt>
      <trkpt lat="42.5659290" lon="1.7782910">
        <ele>1631.0</ele>
        <time>2020-07-30T08:59:38Z</time>
      </trkpt>
      <trkpt lat="42.5658060" lon="1.7781200">
        <ele>1632.0</ele>
        <time>2020-07-30T08:59:43Z</time>
      </trkpt>
      <trkpt lat="42.5656880" lon="1.7779480">
        <ele>1633.0</ele>
        <time>2020-07-30T08:59:48Z</time>
      </trkpt>
      <trkpt lat="42.5655720" lon="1.7776560">
        <ele>1634.2</ele>
        <time>2020-07-30T08:59:55Z</time>
      </trkpt>
      <trkpt lat="42.5655580" lon="1.7776120">
        <ele>1634.4</ele>
        <time>2020-07-30T08:59:56Z</time>
      </trkpt>
      <trkpt lat="42.5654980" lon="1.7773950">
        <ele>1635.2</ele>
        <time>2020-07-30T09:00:01Z</time>
      </trkpt>
      <trkpt lat="42.5654310" lon="1.7771290">
        <ele>1636.2</ele>
        <time>2020-07-30T09:00:07Z</time>
      </trkpt>
      <trkpt lat="42.5654070" lon="1.7770400">
        <ele>1636.8</ele>
        <time>2020-07-30T09:00:09Z</time>
      </trkpt>
      <trkpt lat="42.5653950" lon="1.7769960">
        <ele>1637.2</ele>
        <time>2020-07-30T09:00:10Z</time>
      </trkpt>
      <trkpt lat="42.5652870" lon="1.7766130">
        <ele>1638.4</ele>
        <time>2020-07-30T09:00:19Z</time>
      </trkpt>
      <trkpt lat="42.5652430" lon="1.7764890">
        <ele>1639.2</ele>
        <time>2020-07-30T09:00:22Z</time>
      </trkpt>
      <trkpt lat="42.5652090" lon="1.7764080">
        <ele>1639.6</ele>
        <time>2020-07-30T09:00:24Z</time>
      </trkpt>
      <trkpt lat="42.5650860" lon="1.7761670">
        <ele>1640.4</ele>
        <time>2020-07-30T09:00:30Z</time>
      </trkpt>
      <trkpt lat="42.5650420" lon="1.7760840">
        <ele>1640.6</ele>
        <time>2020-07-30T09:00:32Z</time>
      </trkpt>
      <trkpt lat="42.5648800" lon="1.7757680">
        <ele>1641.6</ele>
        <time>2020-07-30T09:00:39Z</time>
      </trkpt>
      <trkpt lat="42.5648560" lon="1.7757240">
        <ele>1641.8</ele>
        <time>2020-07-30T09:00:40Z</time>
      </trkpt>
      <trkpt lat="42.5647630" lon="1.7755550">
        <ele>1642.8</ele>
        <time>2020-07-30T09:00:44Z</time>
      </trkpt>
      <trkpt lat="42.5645730" lon="1.7752090">
        <ele>1644.0</ele>
        <time>2020-07-30T09:00:52Z</time>
      </trkpt>
      <trkpt lat="42.5644950" lon="1.7750330">
        <ele>1645.0</ele>
        <time>2020-07-30T09:00:56Z</time>
      </trkpt>
      <trkpt lat="42.5644580" lon="1.7748900">
        <ele>1645.6</ele>
        <time>2020-07-30T09:00:59Z</time>
      </trkpt>
      <trkpt lat="42.5644510" lon="1.7748380">
        <ele>1645.8</ele>
        <time>2020-07-30T09:01:00Z</time>
      </trkpt>
      <trkpt lat="42.5644620" lon="1.7746260">
        <ele>1646.6</ele>
        <time>2020-07-30T09:01:04Z</time>
      </trkpt>
      <trkpt lat="42.5644850" lon="1.7744740">
        <ele>1647.0</ele>
        <time>2020-07-30T09:01:07Z</time>
      </trkpt>
      <trkpt lat="42.5644950" lon="1.7742750">
        <ele>1648.0</ele>
        <time>2020-07-30T09:01:11Z</time>
      </trkpt>
      <trkpt lat="42.5644920" lon="1.7742260">
        <ele>1648.2</ele>
        <time>2020-07-30T09:01:12Z</time>
      </trkpt>
      <trkpt lat="42.5644420" lon="1.7739840">
        <ele>1649.0</ele>
        <time>2020-07-30T09:01:17Z</time>
      </trkpt>
      <trkpt lat="42.5644160" lon="1.7738880">
        <ele>1649.4</ele>
        <time>2020-07-30T09:01:19Z</time>
      </trkpt>
      <trkpt lat="42.5643490" lon="1.7736560">
        <ele>1650.0</ele>
        <time>2020-07-30T09:01:24Z</time>
      </trkpt>
      <trkpt lat="42.5642580" lon="1.7733380">
        <ele>1651.2</ele>
        <time>2020-07-30T09:01:31Z</time>
      </trkpt>
      <trkpt lat="42.5641770" lon="1.7730570">
        <ele>1652.4</ele>
        <time>2020-07-30T09:01:37Z</time>
      </trkpt>
      <trkpt lat="42.5640760" lon="1.7727870">
        <ele>1653.0</ele>
        <time>2020-07-30T09:01:43Z</time>
      </trkpt>
      <trkpt lat="42.5640110" lon="1.7726640">
        <ele>1653.6</ele>
        <time>2020-07-30T09:01:46Z</time>
      </trkpt>
      <trkpt lat="42.5639020" lon="1.7724600">
        <ele>1654.6</ele>
        <time>2020-07-30T09:01:51Z</time>
      </trkpt>
      <trkpt lat="42.5638350" lon="1.7723310">
        <ele>1655.2</ele>
        <time>2020-07-30T09:01:54Z</time>
      </trkpt>
      <trkpt lat="42.5637780" lon="1.7721910">
        <ele>1655.2</ele>
        <time>2020-07-30T09:01:57Z</time>
      </trkpt>
      <trkpt lat="42.5637530" lon="1.7720390">
        <ele>1655.6</ele>
        <time>2020-07-30T09:02:00Z</time>
      </trkpt>
      <trkpt lat="42.5637850" lon="1.7717750">
        <ele>1656.8</ele>
        <time>2020-07-30T09:02:05Z</time>
      </trkpt>
      <trkpt lat="42.5638090" lon="1.7714020">
        <ele>1657.8</ele>
        <time>2020-07-30T09:02:12Z</time>
      </trkpt>
      <trkpt lat="42.5637200" lon="1.7712180">
        <ele>1658.8</ele>
        <time>2020-07-30T09:02:16Z</time>
      </trkpt>
      <trkpt lat="42.5635490" lon="1.7711650">
        <ele>1659.4</ele>
        <time>2020-07-30T09:02:20Z</time>
      </trkpt>
      <trkpt lat="42.5633900" lon="1.7712890">
        <ele>1659.8</ele>
        <time>2020-07-30T09:02:24Z</time>
      </trkpt>
      <trkpt lat="42.5633470" lon="1.7714750">
        <ele>1660.0</ele>
        <time>2020-07-30T09:02:27Z</time>
      </trkpt>
      <trkpt lat="42.5633570" lon="1.7716050">
        <ele>1660.4</ele>
        <time>2020-07-30T09:02:29Z</time>
      </trkpt>
      <trkpt lat="42.5633680" lon="1.7716670">
        <ele>1660.4</ele>
        <time>2020-07-30T09:02:30Z</time>
      </trkpt>
      <trkpt lat="42.5633960" lon="1.7717840">
        <ele>1660.4</ele>
        <time>2020-07-30T09:02:32Z</time>
      </trkpt>
      <trkpt lat="42.5634270" lon="1.7718970">
        <ele>1660.6</ele>
        <time>2020-07-30T09:02:34Z</time>
      </trkpt>
      <trkpt lat="42.5635190" lon="1.7722560">
        <ele>1661.4</ele>
        <time>2020-07-30T09:02:41Z</time>
      </trkpt>
      <trkpt lat="42.5635440" lon="1.7723560">
        <ele>1661.8</ele>
        <time>2020-07-30T09:02:43Z</time>
      </trkpt>
      <trkpt lat="42.5636010" lon="1.7726130">
        <ele>1663.0</ele>
        <time>2020-07-30T09:02:48Z</time>
      </trkpt>
      <trkpt lat="42.5636410" lon="1.7728860">
        <ele>1663.6</ele>
        <time>2020-07-30T09:02:53Z</time>
      </trkpt>
      <trkpt lat="42.5636410" lon="1.7729940">
        <ele>1663.8</ele>
        <time>2020-07-30T09:02:55Z</time>
      </trkpt>
      <trkpt lat="42.5635930" lon="1.7732400">
        <ele>1664.4</ele>
        <time>2020-07-30T09:03:00Z</time>
      </trkpt>
      <trkpt lat="42.5635750" lon="1.7732790">
        <ele>1664.8</ele>
        <time>2020-07-30T09:03:01Z</time>
      </trkpt>
      <trkpt lat="42.5635130" lon="1.7734340">
        <ele>1665.6</ele>
        <time>2020-07-30T09:03:05Z</time>
      </trkpt>
      <trkpt lat="42.5634960" lon="1.7735240">
        <ele>1666.2</ele>
        <time>2020-07-30T09:03:07Z</time>
      </trkpt>
      <trkpt lat="42.5634920" lon="1.7736170">
        <ele>1666.8</ele>
        <time>2020-07-30T09:03:09Z</time>
      </trkpt>
      <trkpt lat="42.5635060" lon="1.7738010">
        <ele>1667.6</ele>
        <time>2020-07-30T09:03:13Z</time>
      </trkpt>
      <trkpt lat="42.5635110" lon="1.7738480">
        <ele>1668.2</ele>
        <time>2020-07-30T09:03:14Z</time>
      </trkpt>
      <trkpt lat="42.5635310" lon="1.7741260">
        <ele>1669.2</ele>
        <time>2020-07-30T09:03:20Z</time>
      </trkpt>
      <trkpt lat="42.5635330" lon="1.7741710">
        <ele>1669.4</ele>
        <time>2020-07-30T09:03:21Z</time>
      </trkpt>
      <trkpt lat="42.5635340" lon="1.7743960">
        <ele>1670.2</ele>
        <time>2020-07-30T09:03:26Z</time>
      </trkpt>
      <trkpt lat="42.5635320" lon="1.7745780">
        <ele>1670.8</ele>
        <time>2020-07-30T09:03:30Z</time>
      </trkpt>
      <trkpt lat="42.5635320" lon="1.7748070">
        <ele>1671.6</ele>
        <time>2020-07-30T09:03:35Z</time>
      </trkpt>
      <trkpt lat="42.5635330" lon="1.7750400">
        <ele>1672.6</ele>
        <time>2020-07-30T09:03:40Z</time>
      </trkpt>
      <trkpt lat="42.5635330" lon="1.7751310">
        <ele>1673.0</ele>
        <time>2020-07-30T09:03:42Z</time>
      </trkpt>
      <trkpt lat="42.5635320" lon="1.7753140">
        <ele>1673.8</ele>
        <time>2020-07-30T09:03:46Z</time>
      </trkpt>
      <trkpt lat="42.5635060" lon="1.7755970">
        <ele>1675.0</ele>
        <time>2020-07-30T09:03:52Z</time>
      </trkpt>
      <trkpt lat="42.5634630" lon="1.7759220">
        <ele>1675.8</ele>
        <time>2020-07-30T09:03:59Z</time>
      </trkpt>
      <trkpt lat="42.5634490" lon="1.7760180">
        <ele>1676.0</ele>
        <time>2020-07-30T09:04:01Z</time>
      </trkpt>
      <trkpt lat="42.5633200" lon="1.7763480">
        <ele>1676.8</ele>
        <time>2020-07-30T09:04:09Z</time>
      </trkpt>
      <trkpt lat="42.5631670" lon="1.7764520">
        <ele>1677.8</ele>
        <time>2020-07-30T09:04:14Z</time>
      </trkpt>
      <trkpt lat="42.5631030" lon="1.7764980">
        <ele>1678.0</ele>
        <time>2020-07-30T09:04:16Z</time>
      </trkpt>
      <trkpt lat="42.5630720" lon="1.7765230">
        <ele>1678.8</ele>
        <time>2020-07-30T09:04:17Z</time>
      </trkpt>
      <trkpt lat="42.5629460" lon="1.7766180">
        <ele>1679.8</ele>
        <time>2020-07-30T09:04:21Z</time>
      </trkpt>
      <trkpt lat="42.5628620" lon="1.7767130">
        <ele>1680.2</ele>
        <time>2020-07-30T09:04:24Z</time>
      </trkpt>
      <trkpt lat="42.5628170" lon="1.7769370">
        <ele>1680.4</ele>
        <time>2020-07-30T09:04:29Z</time>
      </trkpt>
      <trkpt lat="42.5628310" lon="1.7770300">
        <ele>1681.0</ele>
        <time>2020-07-30T09:04:31Z</time>
      </trkpt>
      <trkpt lat="42.5628800" lon="1.7772050">
        <ele>1682.0</ele>
        <time>2020-07-30T09:04:35Z</time>
      </trkpt>
      <trkpt lat="42.5629570" lon="1.7773550">
        <ele>1683.0</ele>
        <time>2020-07-30T09:04:39Z</time>
      </trkpt>
      <trkpt lat="42.5630080" lon="1.7774220">
        <ele>1683.4</ele>
        <time>2020-07-30T09:04:41Z</time>
      </trkpt>
      <trkpt lat="42.5631010" lon="1.7775000">
        <ele>1684.0</ele>
        <time>2020-07-30T09:04:44Z</time>
      </trkpt>
      <trkpt lat="42.5632380" lon="1.7775810">
        <ele>1685.4</ele>
        <time>2020-07-30T09:04:48Z</time>
      </trkpt>
      <trkpt lat="42.5633970" lon="1.7777750">
        <ele>1686.0</ele>
        <time>2020-07-30T09:04:54Z</time>
      </trkpt>
      <trkpt lat="42.5634280" lon="1.7779180">
        <ele>1686.2</ele>
        <time>2020-07-30T09:04:57Z</time>
      </trkpt>
      <trkpt lat="42.5634370" lon="1.7780620">
        <ele>1686.6</ele>
        <time>2020-07-30T09:05:00Z</time>
      </trkpt>
      <trkpt lat="42.5634470" lon="1.7782940">
        <ele>1687.2</ele>
        <time>2020-07-30T09:05:05Z</time>
      </trkpt>
      <trkpt lat="42.5634550" lon="1.7784400">
        <ele>1688.0</ele>
        <time>2020-07-30T09:05:08Z</time>
      </trkpt>
      <trkpt lat="42.5634580" lon="1.7784890">
        <ele>1688.4</ele>
        <time>2020-07-30T09:05:09Z</time>
      </trkpt>
      <trkpt lat="42.5635230" lon="1.7787660">
        <ele>1689.2</ele>
        <time>2020-07-30T09:05:15Z</time>
      </trkpt>
      <trkpt lat="42.5636540" lon="1.7791310">
        <ele>1690.2</ele>
        <time>2020-07-30T09:05:23Z</time>
      </trkpt>
      <trkpt lat="42.5636680" lon="1.7791780">
        <ele>1690.6</ele>
        <time>2020-07-30T09:05:24Z</time>
      </trkpt>
      <trkpt lat="42.5637030" lon="1.7793190">
        <ele>1691.4</ele>
        <time>2020-07-30T09:05:27Z</time>
      </trkpt>
      <trkpt lat="42.5637370" lon="1.7795120">
        <ele>1692.4</ele>
        <time>2020-07-30T09:05:31Z</time>
      </trkpt>
      <trkpt lat="42.5637440" lon="1.7796070">
        <ele>1692.6</ele>
        <time>2020-07-30T09:05:33Z</time>
      </trkpt>
      <trkpt lat="42.5637430" lon="1.7798470">
        <ele>1693.4</ele>
        <time>2020-07-30T09:05:38Z</time>
      </trkpt>
      <trkpt lat="42.5637210" lon="1.7800700">
        <ele>1694.2</ele>
        <time>2020-07-30T09:05:43Z</time>
      </trkpt>
      <trkpt lat="42.5637140" lon="1.7801610">
        <ele>1694.4</ele>
        <time>2020-07-30T09:05:45Z</time>
      </trkpt>
      <trkpt lat="42.5637160" lon="1.7804040">
        <ele>1695.4</ele>
        <time>2020-07-30T09:05:50Z</time>
      </trkpt>
      <trkpt lat="42.5637280" lon="1.7805040">
        <ele>1695.6</ele>
        <time>2020-07-30T09:05:52Z</time>
      </trkpt>
      <trkpt lat="42.5637820" lon="1.7806440">
        <ele>1696.2</ele>
        <time>2020-07-30T09:05:55Z</time>
      </trkpt>
      <trkpt lat="42.5638300" lon="1.7807220">
        <ele>1696.8</ele>
        <time>2020-07-30T09:05:57Z</time>
      </trkpt>
      <trkpt lat="42.5639160" lon="1.7808240">
        <ele>1697.4</ele>
        <time>2020-07-30T09:06:00Z</time>
      </trkpt>
      <trkpt lat="42.5640570" lon="1.7809880">
        <ele>1698.2</ele>
        <time>2020-07-30T09:06:05Z</time>
      </trkpt>
      <trkpt lat="42.5640830" lon="1.7810230">
        <ele>1698.4</ele>
        <time>2020-07-30T09:06:06Z</time>
      </trkpt>
      <trkpt lat="42.5642410" lon="1.7812900">
        <ele>1699.2</ele>
        <time>2020-07-30T09:06:13Z</time>
      </trkpt>
      <trkpt lat="42.5642620" lon="1.7813300">
        <ele>1699.2</ele>
        <time>2020-07-30T09:06:14Z</time>
      </trkpt>
      <trkpt lat="42.5643520" lon="1.7815340">
        <ele>1700.4</ele>
        <time>2020-07-30T09:06:19Z</time>
      </trkpt>
      <trkpt lat="42.5643710" lon="1.7815770">
        <ele>1700.6</ele>
        <time>2020-07-30T09:06:20Z</time>
      </trkpt>
      <trkpt lat="42.5644380" lon="1.7817520">
        <ele>1701.6</ele>
        <time>2020-07-30T09:06:24Z</time>
      </trkpt>
      <trkpt lat="42.5644940" lon="1.7819320">
        <ele>1702.0</ele>
        <time>2020-07-30T09:06:28Z</time>
      </trkpt>
      <trkpt lat="42.5645160" lon="1.7820230">
        <ele>1702.4</ele>
        <time>2020-07-30T09:06:30Z</time>
      </trkpt>
      <trkpt lat="42.5645590" lon="1.7821970">
        <ele>1703.0</ele>
        <time>2020-07-30T09:06:34Z</time>
      </trkpt>
      <trkpt lat="42.5646730" lon="1.7823440">
        <ele>1703.8</ele>
        <time>2020-07-30T09:06:38Z</time>
      </trkpt>
      <trkpt lat="42.5647080" lon="1.7823740">
        <ele>1704.0</ele>
        <time>2020-07-30T09:06:39Z</time>
      </trkpt>
      <trkpt lat="42.5647800" lon="1.7824320">
        <ele>1704.8</ele>
        <time>2020-07-30T09:06:41Z</time>
      </trkpt>
      <trkpt lat="42.5649130" lon="1.7825600">
        <ele>1705.4</ele>
        <time>2020-07-30T09:06:45Z</time>
      </trkpt>
      <trkpt lat="42.5650120" lon="1.7826550">
        <ele>1705.8</ele>
        <time>2020-07-30T09:06:48Z</time>
      </trkpt>
      <trkpt lat="42.5651670" lon="1.7828080">
        <ele>1706.4</ele>
        <time>2020-07-30T09:06:53Z</time>
      </trkpt>
      <trkpt lat="42.5652270" lon="1.7828720">
        <ele>1706.8</ele>
        <time>2020-07-30T09:06:55Z</time>
      </trkpt>
      <trkpt lat="42.5653880" lon="1.7830630">
        <ele>1707.6</ele>
        <time>2020-07-30T09:07:01Z</time>
      </trkpt>
      <trkpt lat="42.5654140" lon="1.7830900">
        <ele>1708.0</ele>
        <time>2020-07-30T09:07:02Z</time>
      </trkpt>
      <trkpt lat="42.5655750" lon="1.7832230">
        <ele>1708.8</ele>
        <time>2020-07-30T09:07:07Z</time>
      </trkpt>
      <trkpt lat="42.5657240" lon="1.7833220">
        <ele>1710.0</ele>
        <time>2020-07-30T09:07:11Z</time>
      </trkpt>
      <trkpt lat="42.5658700" lon="1.7833830">
        <ele>1710.6</ele>
        <time>2020-07-30T09:07:15Z</time>
      </trkpt>
      <trkpt lat="42.5659440" lon="1.7834190">
        <ele>1711.0</ele>
        <time>2020-07-30T09:07:17Z</time>
      </trkpt>
      <trkpt lat="42.5661080" lon="1.7835390">
        <ele>1711.8</ele>
        <time>2020-07-30T09:07:22Z</time>
      </trkpt>
      <trkpt lat="42.5661380" lon="1.7835680">
        <ele>1712.2</ele>
        <time>2020-07-30T09:07:23Z</time>
      </trkpt>
      <trkpt lat="42.5662670" lon="1.7837330">
        <ele>1713.0</ele>
        <time>2020-07-30T09:07:28Z</time>
      </trkpt>
      <trkpt lat="42.5663890" lon="1.7839150">
        <ele>1714.2</ele>
        <time>2020-07-30T09:07:33Z</time>
      </trkpt>
      <trkpt lat="42.5664090" lon="1.7839520">
        <ele>1714.6</ele>
        <time>2020-07-30T09:07:34Z</time>
      </trkpt>
      <trkpt lat="42.5664680" lon="1.7840660">
        <ele>1715.2</ele>
        <time>2020-07-30T09:07:37Z</time>
      </trkpt>
      <trkpt lat="42.5665650" lon="1.7842290">
        <ele>1715.8</ele>
        <time>2020-07-30T09:07:41Z</time>
      </trkpt>
      <trkpt lat="42.5666320" lon="1.7843500">
        <ele>1716.2</ele>
        <time>2020-07-30T09:07:44Z</time>
      </trkpt>
      <trkpt lat="42.5667450" lon="1.7845340">
        <ele>1717.2</ele>
        <time>2020-07-30T09:07:49Z</time>
      </trkpt>
      <trkpt lat="42.5668560" lon="1.7847150">
        <ele>1718.4</ele>
        <time>2020-07-30T09:07:54Z</time>
      </trkpt>
      <trkpt lat="42.5669180" lon="1.7848230">
        <ele>1718.6</ele>
        <time>2020-07-30T09:07:57Z</time>
      </trkpt>
      <trkpt lat="42.5670080" lon="1.7850140">
        <ele>1719.4</ele>
        <time>2020-07-30T09:08:02Z</time>
      </trkpt>
      <trkpt lat="42.5670570" lon="1.7851760">
        <ele>1720.0</ele>
        <time>2020-07-30T09:08:06Z</time>
      </trkpt>
      <trkpt lat="42.5670920" lon="1.7853010">
        <ele>1720.4</ele>
        <time>2020-07-30T09:08:09Z</time>
      </trkpt>
      <trkpt lat="42.5671360" lon="1.7854640">
        <ele>1720.8</ele>
        <time>2020-07-30T09:08:13Z</time>
      </trkpt>
      <trkpt lat="42.5671930" lon="1.7857250">
        <ele>1721.4</ele>
        <time>2020-07-30T09:08:19Z</time>
      </trkpt>
      <trkpt lat="42.5672100" lon="1.7858110">
        <ele>1721.4</ele>
        <time>2020-07-30T09:08:21Z</time>
      </trkpt>
      <trkpt lat="42.5672600" lon="1.7860430">
        <ele>1722.6</ele>
        <time>2020-07-30T09:08:26Z</time>
      </trkpt>
      <trkpt lat="42.5672760" lon="1.7861420">
        <ele>1723.0</ele>
        <time>2020-07-30T09:08:28Z</time>
      </trkpt>
      <trkpt lat="42.5672980" lon="1.7862350">
        <ele>1723.8</ele>
        <time>2020-07-30T09:08:30Z</time>
      </trkpt>
      <trkpt lat="42.5673460" lon="1.7864600">
        <ele>1724.8</ele>
        <time>2020-07-30T09:08:35Z</time>
      </trkpt>
      <trkpt lat="42.5673600" lon="1.7865460">
        <ele>1724.8</ele>
        <time>2020-07-30T09:08:37Z</time>
      </trkpt>
      <trkpt lat="42.5673930" lon="1.7867670">
        <ele>1725.8</ele>
        <time>2020-07-30T09:08:42Z</time>
      </trkpt>
      <trkpt lat="42.5674010" lon="1.7868110">
        <ele>1726.0</ele>
        <time>2020-07-30T09:08:43Z</time>
      </trkpt>
      <trkpt lat="42.5674370" lon="1.7870790">
        <ele>1727.0</ele>
        <time>2020-07-30T09:08:49Z</time>
      </trkpt>
      <trkpt lat="42.5674710" lon="1.7873470">
        <ele>1727.8</ele>
        <time>2020-07-30T09:08:55Z</time>
      </trkpt>
      <trkpt lat="42.5674760" lon="1.7873920">
        <ele>1728.0</ele>
        <time>2020-07-30T09:08:56Z</time>
      </trkpt>
      <trkpt lat="42.5674980" lon="1.7875810">
        <ele>1729.0</ele>
        <time>2020-07-30T09:09:00Z</time>
      </trkpt>
      <trkpt lat="42.5675260" lon="1.7878180">
        <ele>1729.6</ele>
        <time>2020-07-30T09:09:05Z</time>
      </trkpt>
      <trkpt lat="42.5675390" lon="1.7879520">
        <ele>1730.2</ele>
        <time>2020-07-30T09:09:08Z</time>
      </trkpt>
      <trkpt lat="42.5675440" lon="1.7881730">
        <ele>1731.0</ele>
        <time>2020-07-30T09:09:13Z</time>
      </trkpt>
      <trkpt lat="42.5675410" lon="1.7882170">
        <ele>1731.2</ele>
        <time>2020-07-30T09:09:14Z</time>
      </trkpt>
      <trkpt lat="42.5674970" lon="1.7885100">
        <ele>1731.6</ele>
        <time>2020-07-30T09:09:21Z</time>
      </trkpt>
      <trkpt lat="42.5674790" lon="1.7885930">
        <ele>1732.2</ele>
        <time>2020-07-30T09:09:23Z</time>
      </trkpt>
      <trkpt lat="42.5674150" lon="1.7887880">
        <ele>1732.6</ele>
        <time>2020-07-30T09:09:28Z</time>
      </trkpt>
      <trkpt lat="42.5673050" lon="1.7891020">
        <ele>1733.0</ele>
        <time>2020-07-30T09:09:36Z</time>
      </trkpt>
      <trkpt lat="42.5672690" lon="1.7892230">
        <ele>1733.6</ele>
        <time>2020-07-30T09:09:39Z</time>
      </trkpt>
      <trkpt lat="42.5672000" lon="1.7894140">
        <ele>1734.2</ele>
        <time>2020-07-30T09:09:44Z</time>
      </trkpt>
      <trkpt lat="42.5671300" lon="1.7896020">
        <ele>1734.8</ele>
        <time>2020-07-30T09:09:49Z</time>
      </trkpt>
      <trkpt lat="42.5671140" lon="1.7896390">
        <ele>1735.2</ele>
        <time>2020-07-30T09:09:50Z</time>
      </trkpt>
      <trkpt lat="42.5670280" lon="1.7898110">
        <ele>1736.4</ele>
        <time>2020-07-30T09:09:55Z</time>
      </trkpt>
      <trkpt lat="42.5669590" lon="1.7899430">
        <ele>1737.0</ele>
        <time>2020-07-30T09:09:59Z</time>
      </trkpt>
      <trkpt lat="42.5669060" lon="1.7900380">
        <ele>1737.4</ele>
        <time>2020-07-30T09:10:02Z</time>
      </trkpt>
      <trkpt lat="42.5667890" lon="1.7902640">
        <ele>1737.6</ele>
        <time>2020-07-30T09:10:09Z</time>
      </trkpt>
      <trkpt lat="42.5667520" lon="1.7903280">
        <ele>1738.4</ele>
        <time>2020-07-30T09:10:11Z</time>
      </trkpt>
      <trkpt lat="42.5666640" lon="1.7904930">
        <ele>1739.6</ele>
        <time>2020-07-30T09:10:16Z</time>
      </trkpt>
      <trkpt lat="42.5666010" lon="1.7906390">
        <ele>1740.4</ele>
        <time>2020-07-30T09:10:20Z</time>
      </trkpt>
      <trkpt lat="42.5665630" lon="1.7907550">
        <ele>1740.6</ele>
        <time>2020-07-30T09:10:23Z</time>
      </trkpt>
      <trkpt lat="42.5665120" lon="1.7909630">
        <ele>1741.4</ele>
        <time>2020-07-30T09:10:28Z</time>
      </trkpt>
      <trkpt lat="42.5665040" lon="1.7910070">
        <ele>1741.8</ele>
        <time>2020-07-30T09:10:29Z</time>
      </trkpt>
      <trkpt lat="42.5664460" lon="1.7913110">
        <ele>1742.8</ele>
        <time>2020-07-30T09:10:36Z</time>
      </trkpt>
      <trkpt lat="42.5664420" lon="1.7913540">
        <ele>1742.8</ele>
        <time>2020-07-30T09:10:37Z</time>
      </trkpt>
      <trkpt lat="42.5664040" lon="1.7915990">
        <ele>1743.8</ele>
        <time>2020-07-30T09:10:43Z</time>
      </trkpt>
      <trkpt lat="42.5663720" lon="1.7918080">
        <ele>1744.8</ele>
        <time>2020-07-30T09:10:48Z</time>
      </trkpt>
      <trkpt lat="42.5663540" lon="1.7919320">
        <ele>1745.8</ele>
        <time>2020-07-30T09:10:51Z</time>
      </trkpt>
      <trkpt lat="42.5663360" lon="1.7921900">
        <ele>1747.0</ele>
        <time>2020-07-30T09:10:57Z</time>
      </trkpt>
      <trkpt lat="42.5663420" lon="1.7922800">
        <ele>1747.8</ele>
        <time>2020-07-30T09:10:59Z</time>
      </trkpt>
      <trkpt lat="42.5663460" lon="1.7923250">
        <ele>1747.8</ele>
        <time>2020-07-30T09:11:00Z</time>
      </trkpt>
      <trkpt lat="42.5664010" lon="1.7925920">
        <ele>1749.0</ele>
        <time>2020-07-30T09:11:06Z</time>
      </trkpt>
      <trkpt lat="42.5664140" lon="1.7926350">
        <ele>1749.2</ele>
        <time>2020-07-30T09:11:07Z</time>
      </trkpt>
      <trkpt lat="42.5664680" lon="1.7928010">
        <ele>1750.0</ele>
        <time>2020-07-30T09:11:11Z</time>
      </trkpt>
      <trkpt lat="42.5665310" lon="1.7930060">
        <ele>1750.4</ele>
        <time>2020-07-30T09:11:16Z</time>
      </trkpt>
      <trkpt lat="42.5665680" lon="1.7931250">
        <ele>1751.0</ele>
        <time>2020-07-30T09:11:19Z</time>
      </trkpt>
      <trkpt lat="42.5666370" lon="1.7934050">
        <ele>1752.0</ele>
        <time>2020-07-30T09:11:26Z</time>
      </trkpt>
      <trkpt lat="42.5666840" lon="1.7937810">
        <ele>1753.0</ele>
        <time>2020-07-30T09:11:35Z</time>
      </trkpt>
      <trkpt lat="42.5666940" lon="1.7938700">
        <ele>1753.2</ele>
        <time>2020-07-30T09:11:37Z</time>
      </trkpt>
      <trkpt lat="42.5667040" lon="1.7940840">
        <ele>1754.0</ele>
        <time>2020-07-30T09:11:42Z</time>
      </trkpt>
      <trkpt lat="42.5667060" lon="1.7942520">
        <ele>1754.4</ele>
        <time>2020-07-30T09:11:46Z</time>
      </trkpt>
      <trkpt lat="42.5667120" lon="1.7943740">
        <ele>1755.0</ele>
        <time>2020-07-30T09:11:49Z</time>
      </trkpt>
      <trkpt lat="42.5667210" lon="1.7945450">
        <ele>1756.0</ele>
        <time>2020-07-30T09:11:53Z</time>
      </trkpt>
      <trkpt lat="42.5667300" lon="1.7947180">
        <ele>1756.6</ele>
        <time>2020-07-30T09:11:57Z</time>
      </trkpt>
      <trkpt lat="42.5667370" lon="1.7948510">
        <ele>1757.2</ele>
        <time>2020-07-30T09:12:00Z</time>
      </trkpt>
      <trkpt lat="42.5667420" lon="1.7950630">
        <ele>1758.0</ele>
        <time>2020-07-30T09:12:05Z</time>
      </trkpt>
      <trkpt lat="42.5667430" lon="1.7951040">
        <ele>1758.2</ele>
        <time>2020-07-30T09:12:06Z</time>
      </trkpt>
      <trkpt lat="42.5667500" lon="1.7953150">
        <ele>1759.0</ele>
        <time>2020-07-30T09:12:11Z</time>
      </trkpt>
      <trkpt lat="42.5667520" lon="1.7953580">
        <ele>1759.0</ele>
        <time>2020-07-30T09:12:12Z</time>
      </trkpt>
      <trkpt lat="42.5667720" lon="1.7956570">
        <ele>1760.0</ele>
        <time>2020-07-30T09:12:19Z</time>
      </trkpt>
      <trkpt lat="42.5667750" lon="1.7957000">
        <ele>1760.2</ele>
        <time>2020-07-30T09:12:20Z</time>
      </trkpt>
      <trkpt lat="42.5667870" lon="1.7959100">
        <ele>1761.0</ele>
        <time>2020-07-30T09:12:25Z</time>
      </trkpt>
      <trkpt lat="42.5667940" lon="1.7961010">
        <ele>1762.0</ele>
        <time>2020-07-30T09:12:30Z</time>
      </trkpt>
      <trkpt lat="42.5667990" lon="1.7962930">
        <ele>1762.4</ele>
        <time>2020-07-30T09:12:35Z</time>
      </trkpt>
      <trkpt lat="42.5668010" lon="1.7964110">
        <ele>1762.6</ele>
        <time>2020-07-30T09:12:38Z</time>
      </trkpt>
      <trkpt lat="42.5668000" lon="1.7964870">
        <ele>1763.2</ele>
        <time>2020-07-30T09:12:40Z</time>
      </trkpt>
      <trkpt lat="42.5668000" lon="1.7966390">
        <ele>1764.4</ele>
        <time>2020-07-30T09:12:44Z</time>
      </trkpt>
      <trkpt lat="42.5667940" lon="1.7967160">
        <ele>1764.6</ele>
        <time>2020-07-30T09:12:46Z</time>
      </trkpt>
      <trkpt lat="42.5667590" lon="1.7969100">
        <ele>1765.4</ele>
        <time>2020-07-30T09:12:51Z</time>
      </trkpt>
      <trkpt lat="42.5667200" lon="1.7970200">
        <ele>1766.2</ele>
        <time>2020-07-30T09:12:54Z</time>
      </trkpt>
      <trkpt lat="42.5667070" lon="1.7970560">
        <ele>1766.4</ele>
        <time>2020-07-30T09:12:55Z</time>
      </trkpt>
      <trkpt lat="42.5666500" lon="1.7972390">
        <ele>1767.4</ele>
        <time>2020-07-30T09:13:00Z</time>
      </trkpt>
      <trkpt lat="42.5666440" lon="1.7972790">
        <ele>1767.6</ele>
        <time>2020-07-30T09:13:01Z</time>
      </trkpt>
      <trkpt lat="42.5666330" lon="1.7974420">
        <ele>1768.6</ele>
        <time>2020-07-30T09:13:05Z</time>
      </trkpt>
      <trkpt lat="42.5666240" lon="1.7976060">
        <ele>1769.6</ele>
        <time>2020-07-30T09:13:09Z</time>
      </trkpt>
      <trkpt lat="42.5666270" lon="1.7976890">
        <ele>1770.0</ele>
        <time>2020-07-30T09:13:11Z</time>
      </trkpt>
      <trkpt lat="42.5666560" lon="1.7978530">
        <ele>1770.8</ele>
        <time>2020-07-30T09:13:15Z</time>
      </trkpt>
      <trkpt lat="42.5667030" lon="1.7980060">
        <ele>1772.0</ele>
        <time>2020-07-30T09:13:19Z</time>
      </trkpt>
      <trkpt lat="42.5667490" lon="1.7981130">
        <ele>1773.0</ele>
        <time>2020-07-30T09:13:22Z</time>
      </trkpt>
      <trkpt lat="42.5668410" lon="1.7982810">
        <ele>1773.6</ele>
        <time>2020-07-30T09:13:27Z</time>
      </trkpt>
      <trkpt lat="42.5669530" lon="1.7984700">
        <ele>1774.0</ele>
        <time>2020-07-30T09:13:33Z</time>
      </trkpt>
      <trkpt lat="42.5669800" lon="1.7985410">
        <ele>1774.2</ele>
        <time>2020-07-30T09:13:35Z</time>
      </trkpt>
      <trkpt lat="42.5670280" lon="1.7988090">
        <ele>1775.0</ele>
        <time>2020-07-30T09:13:42Z</time>
      </trkpt>
      <trkpt lat="42.5670280" lon="1.7988470">
        <ele>1775.0</ele>
        <time>2020-07-30T09:13:43Z</time>
      </trkpt>
      <trkpt lat="42.5670100" lon="1.7991110">
        <ele>1776.0</ele>
        <time>2020-07-30T09:13:50Z</time>
      </trkpt>
      <trkpt lat="42.5670070" lon="1.7991490">
        <ele>1776.2</ele>
        <time>2020-07-30T09:13:51Z</time>
      </trkpt>
      <trkpt lat="42.5669850" lon="1.7992590">
        <ele>1777.2</ele>
        <time>2020-07-30T09:13:54Z</time>
      </trkpt>
      <trkpt lat="42.5669460" lon="1.7994010">
        <ele>1778.2</ele>
        <time>2020-07-30T09:13:58Z</time>
      </trkpt>
      <trkpt lat="42.5668280" lon="1.7995980">
        <ele>1779.0</ele>
        <time>2020-07-30T09:14:04Z</time>
      </trkpt>
      <trkpt lat="42.5667780" lon="1.7996530">
        <ele>1779.4</ele>
        <time>2020-07-30T09:14:06Z</time>
      </trkpt>
      <trkpt lat="42.5666230" lon="1.7998040">
        <ele>1780.4</ele>
        <time>2020-07-30T09:14:12Z</time>
      </trkpt>
      <trkpt lat="42.5665130" lon="1.7998890">
        <ele>1781.4</ele>
        <time>2020-07-30T09:14:16Z</time>
      </trkpt>
      <trkpt lat="42.5663970" lon="1.7999550">
        <ele>1782.6</ele>
        <time>2020-07-30T09:14:20Z</time>
      </trkpt>
      <trkpt lat="42.5661870" lon="1.8000600">
        <ele>1784.0</ele>
        <time>2020-07-30T09:14:27Z</time>
      </trkpt>
      <trkpt lat="42.5660070" lon="1.8001550">
        <ele>1785.0</ele>
        <time>2020-07-30T09:14:33Z</time>
      </trkpt>
      <trkpt lat="42.5659470" lon="1.8001880">
        <ele>1785.2</ele>
        <time>2020-07-30T09:14:35Z</time>
      </trkpt>
      <trkpt lat="42.5657950" lon="1.8002690">
        <ele>1785.8</ele>
        <time>2020-07-30T09:14:40Z</time>
      </trkpt>
      <trkpt lat="42.5656410" lon="1.8003380">
        <ele>1786.6</ele>
        <time>2020-07-30T09:14:45Z</time>
      </trkpt>
      <trkpt lat="42.5655820" lon="1.8003700">
        <ele>1786.8</ele>
        <time>2020-07-30T09:14:47Z</time>
      </trkpt>
      <trkpt lat="42.5654690" lon="1.8004450">
        <ele>1788.0</ele>
        <time>2020-07-30T09:14:51Z</time>
      </trkpt>
      <trkpt lat="42.5653850" lon="1.8005050">
        <ele>1788.6</ele>
        <time>2020-07-30T09:14:54Z</time>
      </trkpt>
      <trkpt lat="42.5653280" lon="1.8005480">
        <ele>1788.8</ele>
        <time>2020-07-30T09:14:56Z</time>
      </trkpt>
      <trkpt lat="42.5651170" lon="1.8006770">
        <ele>1789.8</ele>
        <time>2020-07-30T09:15:03Z</time>
      </trkpt>
      <trkpt lat="42.5650870" lon="1.8006970">
        <ele>1790.0</ele>
        <time>2020-07-30T09:15:04Z</time>
      </trkpt>
      <trkpt lat="42.5649170" lon="1.8008000">
        <ele>1791.0</ele>
        <time>2020-07-30T09:15:09Z</time>
      </trkpt>
      <trkpt lat="42.5648470" lon="1.8008390">
        <ele>1791.4</ele>
        <time>2020-07-30T09:15:11Z</time>
      </trkpt>
      <trkpt lat="42.5647800" lon="1.8008790">
        <ele>1791.8</ele>
        <time>2020-07-30T09:15:13Z</time>
      </trkpt>
      <trkpt lat="42.5646030" lon="1.8010200">
        <ele>1792.6</ele>
        <time>2020-07-30T09:15:19Z</time>
      </trkpt>
      <trkpt lat="42.5645500" lon="1.8010740">
        <ele>1793.0</ele>
        <time>2020-07-30T09:15:21Z</time>
      </trkpt>
      <trkpt lat="42.5643930" lon="1.8013040">
        <ele>1793.8</ele>
        <time>2020-07-30T09:15:28Z</time>
      </trkpt>
      <trkpt lat="42.5643730" lon="1.8013400">
        <ele>1794.0</ele>
        <time>2020-07-30T09:15:29Z</time>
      </trkpt>
      <trkpt lat="42.5642370" lon="1.8015850">
        <ele>1795.0</ele>
        <time>2020-07-30T09:15:36Z</time>
      </trkpt>
      <trkpt lat="42.5641930" lon="1.8016540">
        <ele>1795.4</ele>
        <time>2020-07-30T09:15:38Z</time>
      </trkpt>
      <trkpt lat="42.5641240" lon="1.8017580">
        <ele>1796.2</ele>
        <time>2020-07-30T09:15:41Z</time>
      </trkpt>
      <trkpt lat="42.5639930" lon="1.8019190">
        <ele>1797.0</ele>
        <time>2020-07-30T09:15:46Z</time>
      </trkpt>
      <trkpt lat="42.5639360" lon="1.8019770">
        <ele>1797.6</ele>
        <time>2020-07-30T09:15:48Z</time>
      </trkpt>
      <trkpt lat="42.5637960" lon="1.8021080">
        <ele>1798.2</ele>
        <time>2020-07-30T09:15:53Z</time>
      </trkpt>
      <trkpt lat="42.5637210" lon="1.8021920">
        <ele>1798.4</ele>
        <time>2020-07-30T09:15:56Z</time>
      </trkpt>
      <trkpt lat="42.5636060" lon="1.8023420">
        <ele>1799.4</ele>
        <time>2020-07-30T09:16:01Z</time>
      </trkpt>
      <trkpt lat="42.5635120" lon="1.8024760">
        <ele>1800.2</ele>
        <time>2020-07-30T09:16:05Z</time>
      </trkpt>
      <trkpt lat="42.5634890" lon="1.8025100">
        <ele>1800.4</ele>
        <time>2020-07-30T09:16:06Z</time>
      </trkpt>
      <trkpt lat="42.5633130" lon="1.8027870">
        <ele>1801.6</ele>
        <time>2020-07-30T09:16:14Z</time>
      </trkpt>
      <trkpt lat="42.5632910" lon="1.8028200">
        <ele>1801.8</ele>
        <time>2020-07-30T09:16:15Z</time>
      </trkpt>
      <trkpt lat="42.5632120" lon="1.8029590">
        <ele>1802.6</ele>
        <time>2020-07-30T09:16:19Z</time>
      </trkpt>
      <trkpt lat="42.5631080" lon="1.8031260">
        <ele>1803.6</ele>
        <time>2020-07-30T09:16:24Z</time>
      </trkpt>
      <trkpt lat="42.5630860" lon="1.8031580">
        <ele>1803.8</ele>
        <time>2020-07-30T09:16:25Z</time>
      </trkpt>
      <trkpt lat="42.5629930" lon="1.8032800">
        <ele>1804.6</ele>
        <time>2020-07-30T09:16:29Z</time>
      </trkpt>
      <trkpt lat="42.5628590" lon="1.8034580">
        <ele>1805.4</ele>
        <time>2020-07-30T09:16:35Z</time>
      </trkpt>
      <trkpt lat="42.5627950" lon="1.8035530">
        <ele>1805.6</ele>
        <time>2020-07-30T09:16:38Z</time>
      </trkpt>
      <trkpt lat="42.5626930" lon="1.8037140">
        <ele>1806.4</ele>
        <time>2020-07-30T09:16:43Z</time>
      </trkpt>
      <trkpt lat="42.5626760" lon="1.8037490">
        <ele>1806.8</ele>
        <time>2020-07-30T09:16:44Z</time>
      </trkpt>
      <trkpt lat="42.5625570" lon="1.8040070">
        <ele>1807.8</ele>
        <time>2020-07-30T09:16:51Z</time>
      </trkpt>
      <trkpt lat="42.5625050" lon="1.8041210">
        <ele>1808.4</ele>
        <time>2020-07-30T09:16:54Z</time>
      </trkpt>
      <trkpt lat="42.5624720" lon="1.8041960">
        <ele>1808.8</ele>
        <time>2020-07-30T09:16:56Z</time>
      </trkpt>
      <trkpt lat="42.5623640" lon="1.8044680">
        <ele>1809.4</ele>
        <time>2020-07-30T09:17:03Z</time>
      </trkpt>
      <trkpt lat="42.5623390" lon="1.8045520">
        <ele>1809.8</ele>
        <time>2020-07-30T09:17:05Z</time>
      </trkpt>
      <trkpt lat="42.5623000" lon="1.8047260">
        <ele>1810.8</ele>
        <time>2020-07-30T09:17:09Z</time>
      </trkpt>
      <trkpt lat="42.5622830" lon="1.8048140">
        <ele>1811.2</ele>
        <time>2020-07-30T09:17:11Z</time>
      </trkpt>
      <trkpt lat="42.5622270" lon="1.8050650">
        <ele>1811.8</ele>
        <time>2020-07-30T09:17:17Z</time>
      </trkpt>
      <trkpt lat="42.5621980" lon="1.8051900">
        <ele>1812.2</ele>
        <time>2020-07-30T09:17:20Z</time>
      </trkpt>
      <trkpt lat="42.5621420" lon="1.8053910">
        <ele>1812.6</ele>
        <time>2020-07-30T09:17:25Z</time>
      </trkpt>
      <trkpt lat="42.5621020" lon="1.8055520">
        <ele>1813.8</ele>
        <time>2020-07-30T09:17:29Z</time>
      </trkpt>
      <trkpt lat="42.5620300" lon="1.8058800">
        <ele>1814.8</ele>
        <time>2020-07-30T09:17:37Z</time>
      </trkpt>
      <trkpt lat="42.5620050" lon="1.8060020">
        <ele>1815.2</ele>
        <time>2020-07-30T09:17:40Z</time>
      </trkpt>
      <trkpt lat="42.5619600" lon="1.8062020">
        <ele>1815.8</ele>
        <time>2020-07-30T09:17:45Z</time>
      </trkpt>
      <trkpt lat="42.5619060" lon="1.8064450">
        <ele>1816.8</ele>
        <time>2020-07-30T09:17:51Z</time>
      </trkpt>
      <trkpt lat="42.5618450" lon="1.8066920">
        <ele>1817.6</ele>
        <time>2020-07-30T09:17:57Z</time>
      </trkpt>
      <trkpt lat="42.5618020" lon="1.8068550">
        <ele>1818.2</ele>
        <time>2020-07-30T09:18:01Z</time>
      </trkpt>
      <trkpt lat="42.5617710" lon="1.8069330">
        <ele>1818.8</ele>
        <time>2020-07-30T09:18:03Z</time>
      </trkpt>
      <trkpt lat="42.5616800" lon="1.8071120">
        <ele>1819.8</ele>
        <time>2020-07-30T09:18:08Z</time>
      </trkpt>
      <trkpt lat="42.5616410" lon="1.8071780">
        <ele>1820.0</ele>
        <time>2020-07-30T09:18:10Z</time>
      </trkpt>
      <trkpt lat="42.5615790" lon="1.8072720">
        <ele>1820.8</ele>
        <time>2020-07-30T09:18:13Z</time>
      </trkpt>
      <trkpt lat="42.5614770" lon="1.8074290">
        <ele>1821.8</ele>
        <time>2020-07-30T09:18:18Z</time>
      </trkpt>
      <trkpt lat="42.5613940" lon="1.8075540">
        <ele>1822.2</ele>
        <time>2020-07-30T09:18:22Z</time>
      </trkpt>
      <trkpt lat="42.5613180" lon="1.8076900">
        <ele>1822.8</ele>
        <time>2020-07-30T09:18:26Z</time>
      </trkpt>
      <trkpt lat="42.5612560" lon="1.8078420">
        <ele>1823.4</ele>
        <time>2020-07-30T09:18:30Z</time>
      </trkpt>
      <trkpt lat="42.5612260" lon="1.8079210">
        <ele>1823.8</ele>
        <time>2020-07-30T09:18:32Z</time>
      </trkpt>
      <trkpt lat="42.5611790" lon="1.8080350">
        <ele>1824.6</ele>
        <time>2020-07-30T09:18:35Z</time>
      </trkpt>
      <trkpt lat="42.5611200" lon="1.8081950">
        <ele>1825.2</ele>
        <time>2020-07-30T09:18:39Z</time>
      </trkpt>
      <trkpt lat="42.5610760" lon="1.8083090">
        <ele>1825.6</ele>
        <time>2020-07-30T09:18:42Z</time>
      </trkpt>
      <trkpt lat="42.5609780" lon="1.8085710">
        <ele>1826.4</ele>
        <time>2020-07-30T09:18:49Z</time>
      </trkpt>
      <trkpt lat="42.5609520" lon="1.8086460">
        <ele>1826.6</ele>
        <time>2020-07-30T09:18:51Z</time>
      </trkpt>
      <trkpt lat="42.5608650" lon="1.8088720">
        <ele>1827.6</ele>
        <time>2020-07-30T09:18:57Z</time>
      </trkpt>
      <trkpt lat="42.5608510" lon="1.8089090">
        <ele>1828.0</ele>
        <time>2020-07-30T09:18:58Z</time>
      </trkpt>
      <trkpt lat="42.5608090" lon="1.8090230">
        <ele>1828.8</ele>
        <time>2020-07-30T09:19:01Z</time>
      </trkpt>
      <trkpt lat="42.5607330" lon="1.8092000">
        <ele>1829.8</ele>
        <time>2020-07-30T09:19:06Z</time>
      </trkpt>
      <trkpt lat="42.5607160" lon="1.8092330">
        <ele>1830.0</ele>
        <time>2020-07-30T09:19:07Z</time>
      </trkpt>
      <trkpt lat="42.5605970" lon="1.8094230">
        <ele>1830.8</ele>
        <time>2020-07-30T09:19:13Z</time>
      </trkpt>
      <trkpt lat="42.5605120" lon="1.8095500">
        <ele>1831.2</ele>
        <time>2020-07-30T09:19:17Z</time>
      </trkpt>
      <trkpt lat="42.5604260" lon="1.8096760">
        <ele>1831.8</ele>
        <time>2020-07-30T09:19:21Z</time>
      </trkpt>
      <trkpt lat="42.5602800" lon="1.8099020">
        <ele>1832.8</ele>
        <time>2020-07-30T09:19:28Z</time>
      </trkpt>
      <trkpt lat="42.5602350" lon="1.8099630">
        <ele>1833.2</ele>
        <time>2020-07-30T09:19:30Z</time>
      </trkpt>
      <trkpt lat="42.5601500" lon="1.8100850">
        <ele>1833.8</ele>
        <time>2020-07-30T09:19:34Z</time>
      </trkpt>
      <trkpt lat="42.5600810" lon="1.8101460">
        <ele>1834.4</ele>
        <time>2020-07-30T09:19:37Z</time>
      </trkpt>
      <trkpt lat="42.5599820" lon="1.8102660">
        <ele>1834.8</ele>
        <time>2020-07-30T09:19:42Z</time>
      </trkpt>
      <trkpt lat="42.5599460" lon="1.8103220">
        <ele>1835.2</ele>
        <time>2020-07-30T09:19:44Z</time>
      </trkpt>
      <trkpt lat="42.5599270" lon="1.8103460">
        <ele>1835.2</ele>
        <time>2020-07-30T09:19:45Z</time>
      </trkpt>
      <trkpt lat="42.5598740" lon="1.8104330">
        <ele>1836.2</ele>
        <time>2020-07-30T09:28:49Z</time>
      </trkpt>
      <trkpt lat="42.5598140" lon="1.8105200">
        <ele>1836.0</ele>
        <time>2020-07-30T09:28:51Z</time>
      </trkpt>
      <trkpt lat="42.5596130" lon="1.8108630">
        <ele>1834.8</ele>
        <time>2020-07-30T09:28:57Z</time>
      </trkpt>
      <trkpt lat="42.5595850" lon="1.8109360">
        <ele>1834.6</ele>
        <time>2020-07-30T09:28:58Z</time>
      </trkpt>
      <trkpt lat="42.5595050" lon="1.8112700">
        <ele>1834.0</ele>
        <time>2020-07-30T09:29:02Z</time>
      </trkpt>
      <trkpt lat="42.5594920" lon="1.8113620">
        <ele>1833.6</ele>
        <time>2020-07-30T09:29:03Z</time>
      </trkpt>
      <trkpt lat="42.5594580" lon="1.8117630">
        <ele>1832.6</ele>
        <time>2020-07-30T09:29:07Z</time>
      </trkpt>
      <trkpt lat="42.5594530" lon="1.8118710">
        <ele>1832.2</ele>
        <time>2020-07-30T09:29:08Z</time>
      </trkpt>
      <trkpt lat="42.5594350" lon="1.8123290">
        <ele>1831.2</ele>
        <time>2020-07-30T09:29:12Z</time>
      </trkpt>
      <trkpt lat="42.5594270" lon="1.8124490">
        <ele>1830.0</ele>
        <time>2020-07-30T09:29:13Z</time>
      </trkpt>
      <trkpt lat="42.5593920" lon="1.8126920">
        <ele>1828.8</ele>
        <time>2020-07-30T09:29:15Z</time>
      </trkpt>
      <trkpt lat="42.5593360" lon="1.8129350">
        <ele>1827.8</ele>
        <time>2020-07-30T09:29:17Z</time>
      </trkpt>
      <trkpt lat="42.5592420" lon="1.8133110">
        <ele>1826.6</ele>
        <time>2020-07-30T09:29:20Z</time>
      </trkpt>
      <trkpt lat="42.5592090" lon="1.8134390">
        <ele>1826.0</ele>
        <time>2020-07-30T09:29:21Z</time>
      </trkpt>
      <trkpt lat="42.5591760" lon="1.8135690">
        <ele>1825.4</ele>
        <time>2020-07-30T09:29:22Z</time>
      </trkpt>
      <trkpt lat="42.5591060" lon="1.8138300">
        <ele>1824.4</ele>
        <time>2020-07-30T09:29:24Z</time>
      </trkpt>
      <trkpt lat="42.5590220" lon="1.8140850">
        <ele>1823.4</ele>
        <time>2020-07-30T09:29:26Z</time>
      </trkpt>
      <trkpt lat="42.5589700" lon="1.8142030">
        <ele>1822.8</ele>
        <time>2020-07-30T09:29:27Z</time>
      </trkpt>
      <trkpt lat="42.5588570" lon="1.8144320">
        <ele>1821.2</ele>
        <time>2020-07-30T09:29:29Z</time>
      </trkpt>
      <trkpt lat="42.5587440" lon="1.8146650">
        <ele>1819.6</ele>
        <time>2020-07-30T09:29:31Z</time>
      </trkpt>
      <trkpt lat="42.5586280" lon="1.8149030">
        <ele>1818.2</ele>
        <time>2020-07-30T09:29:33Z</time>
      </trkpt>
      <trkpt lat="42.5585100" lon="1.8151500">
        <ele>1817.4</ele>
        <time>2020-07-30T09:29:35Z</time>
      </trkpt>
      <trkpt lat="42.5584490" lon="1.8152760">
        <ele>1816.8</ele>
        <time>2020-07-30T09:29:36Z</time>
      </trkpt>
      <trkpt lat="42.5583260" lon="1.8155290">
        <ele>1815.8</ele>
        <time>2020-07-30T09:29:38Z</time>
      </trkpt>
      <trkpt lat="42.5582020" lon="1.8157810">
        <ele>1814.4</ele>
        <time>2020-07-30T09:29:40Z</time>
      </trkpt>
      <trkpt lat="42.5579490" lon="1.8162840">
        <ele>1813.4</ele>
        <time>2020-07-30T09:29:44Z</time>
      </trkpt>
      <trkpt lat="42.5578200" lon="1.8165370">
        <ele>1811.6</ele>
        <time>2020-07-30T09:29:46Z</time>
      </trkpt>
      <trkpt lat="42.5576870" lon="1.8167920">
        <ele>1810.0</ele>
        <time>2020-07-30T09:29:48Z</time>
      </trkpt>
      <trkpt lat="42.5575550" lon="1.8170490">
        <ele>1809.0</ele>
        <time>2020-07-30T09:29:50Z</time>
      </trkpt>
      <trkpt lat="42.5573540" lon="1.8174360">
        <ele>1807.0</ele>
        <time>2020-07-30T09:29:53Z</time>
      </trkpt>
      <trkpt lat="42.5572860" lon="1.8175660">
        <ele>1805.8</ele>
        <time>2020-07-30T09:29:54Z</time>
      </trkpt>
      <trkpt lat="42.5571480" lon="1.8178270">
        <ele>1804.4</ele>
        <time>2020-07-30T09:29:56Z</time>
      </trkpt>
      <trkpt lat="42.5570090" lon="1.8180890">
        <ele>1803.0</ele>
        <time>2020-07-30T09:29:58Z</time>
      </trkpt>
      <trkpt lat="42.5568690" lon="1.8183490">
        <ele>1801.8</ele>
        <time>2020-07-30T09:30:00Z</time>
      </trkpt>
      <trkpt lat="42.5566540" lon="1.8187370">
        <ele>1800.8</ele>
        <time>2020-07-30T09:30:03Z</time>
      </trkpt>
      <trkpt lat="42.5565820" lon="1.8188680">
        <ele>1799.6</ele>
        <time>2020-07-30T09:30:04Z</time>
      </trkpt>
      <trkpt lat="42.5565080" lon="1.8189990">
        <ele>1798.4</ele>
        <time>2020-07-30T09:30:05Z</time>
      </trkpt>
      <trkpt lat="42.5563590" lon="1.8192590">
        <ele>1796.6</ele>
        <time>2020-07-30T09:30:07Z</time>
      </trkpt>
      <trkpt lat="42.5561290" lon="1.8196350">
        <ele>1794.6</ele>
        <time>2020-07-30T09:30:10Z</time>
      </trkpt>
      <trkpt lat="42.5559690" lon="1.8198790">
        <ele>1793.0</ele>
        <time>2020-07-30T09:30:12Z</time>
      </trkpt>
      <trkpt lat="42.5558890" lon="1.8200010">
        <ele>1792.4</ele>
        <time>2020-07-30T09:30:13Z</time>
      </trkpt>
      <trkpt lat="42.5558100" lon="1.8201230">
        <ele>1792.0</ele>
        <time>2020-07-30T09:30:14Z</time>
      </trkpt>
      <trkpt lat="42.5557310" lon="1.8202460">
        <ele>1790.4</ele>
        <time>2020-07-30T09:30:15Z</time>
      </trkpt>
      <trkpt lat="42.5555720" lon="1.8204880">
        <ele>1788.8</ele>
        <time>2020-07-30T09:30:17Z</time>
      </trkpt>
      <trkpt lat="42.5554130" lon="1.8207290">
        <ele>1787.6</ele>
        <time>2020-07-30T09:30:19Z</time>
      </trkpt>
      <trkpt lat="42.5552590" lon="1.8209720">
        <ele>1786.6</ele>
        <time>2020-07-30T09:30:21Z</time>
      </trkpt>
      <trkpt lat="42.5551120" lon="1.8212240">
        <ele>1786.0</ele>
        <time>2020-07-30T09:30:23Z</time>
      </trkpt>
      <trkpt lat="42.5549750" lon="1.8214850">
        <ele>1785.2</ele>
        <time>2020-07-30T09:30:25Z</time>
      </trkpt>
      <trkpt lat="42.5547540" lon="1.8218670">
        <ele>1783.6</ele>
        <time>2020-07-30T09:30:28Z</time>
      </trkpt>
      <trkpt lat="42.5546750" lon="1.8219900">
        <ele>1782.8</ele>
        <time>2020-07-30T09:30:29Z</time>
      </trkpt>
      <trkpt lat="42.5545960" lon="1.8221130">
        <ele>1782.0</ele>
        <time>2020-07-30T09:30:30Z</time>
      </trkpt>
      <trkpt lat="42.5543730" lon="1.8225010">
        <ele>1780.6</ele>
        <time>2020-07-30T09:30:33Z</time>
      </trkpt>
      <trkpt lat="42.5543040" lon="1.8226340">
        <ele>1779.4</ele>
        <time>2020-07-30T09:30:34Z</time>
      </trkpt>
      <trkpt lat="42.5542360" lon="1.8227650">
        <ele>1778.8</ele>
        <time>2020-07-30T09:30:35Z</time>
      </trkpt>
      <trkpt lat="42.5541690" lon="1.8228990">
        <ele>1778.2</ele>
        <time>2020-07-30T09:30:36Z</time>
      </trkpt>
      <trkpt lat="42.5540520" lon="1.8231790">
        <ele>1777.0</ele>
        <time>2020-07-30T09:30:38Z</time>
      </trkpt>
      <trkpt lat="42.5540070" lon="1.8233240">
        <ele>1776.4</ele>
        <time>2020-07-30T09:30:39Z</time>
      </trkpt>
      <trkpt lat="42.5539470" lon="1.8236170">
        <ele>1775.8</ele>
        <time>2020-07-30T09:30:41Z</time>
      </trkpt>
      <trkpt lat="42.5539310" lon="1.8237600">
        <ele>1775.6</ele>
        <time>2020-07-30T09:30:42Z</time>
      </trkpt>
      <trkpt lat="42.5539120" lon="1.8238920">
        <ele>1775.4</ele>
        <time>2020-07-30T09:30:43Z</time>
      </trkpt>
      <trkpt lat="42.5538300" lon="1.8240930">
        <ele>1775.2</ele>
        <time>2020-07-30T09:30:45Z</time>
      </trkpt>
      <trkpt lat="42.5536970" lon="1.8241790">
        <ele>1775.0</ele>
        <time>2020-07-30T09:30:47Z</time>
      </trkpt>
      <trkpt lat="42.5535770" lon="1.8241000">
        <ele>1774.6</ele>
        <time>2020-07-30T09:30:49Z</time>
      </trkpt>
      <trkpt lat="42.5535580" lon="1.8240110">
        <ele>1774.6</ele>
        <time>2020-07-30T09:30:50Z</time>
      </trkpt>
      <trkpt lat="42.5535680" lon="1.8239070">
        <ele>1774.4</ele>
        <time>2020-07-30T09:30:51Z</time>
      </trkpt>
      <trkpt lat="42.5537080" lon="1.8236400">
        <ele>1774.0</ele>
        <time>2020-07-30T09:30:54Z</time>
      </trkpt>
      <trkpt lat="42.5539130" lon="1.8232760">
        <ele>1773.6</ele>
        <time>2020-07-30T09:30:58Z</time>
      </trkpt>
      <trkpt lat="42.5540030" lon="1.8230660">
        <ele>1773.4</ele>
        <time>2020-07-30T09:31:00Z</time>
      </trkpt>
      <trkpt lat="42.5541380" lon="1.8227100">
        <ele>1773.2</ele>
        <time>2020-07-30T09:31:03Z</time>
      </trkpt>
      <trkpt lat="42.5543250" lon="1.8221840">
        <ele>1772.0</ele>
        <time>2020-07-30T09:31:07Z</time>
      </trkpt>
      <trkpt lat="42.5544240" lon="1.8219090">
        <ele>1771.2</ele>
        <time>2020-07-30T09:31:09Z</time>
      </trkpt>
      <trkpt lat="42.5544770" lon="1.8217680">
        <ele>1770.6</ele>
        <time>2020-07-30T09:31:10Z</time>
      </trkpt>
      <trkpt lat="42.5545910" lon="1.8214820">
        <ele>1769.2</ele>
        <time>2020-07-30T09:31:12Z</time>
      </trkpt>
      <trkpt lat="42.5547010" lon="1.8211830">
        <ele>1767.8</ele>
        <time>2020-07-30T09:31:14Z</time>
      </trkpt>
      <trkpt lat="42.5547490" lon="1.8210260">
        <ele>1767.4</ele>
        <time>2020-07-30T09:31:15Z</time>
      </trkpt>
      <trkpt lat="42.5548600" lon="1.8207160">
        <ele>1766.4</ele>
        <time>2020-07-30T09:31:17Z</time>
      </trkpt>
      <trkpt lat="42.5549870" lon="1.8204070">
        <ele>1765.0</ele>
        <time>2020-07-30T09:31:19Z</time>
      </trkpt>
      <trkpt lat="42.5551110" lon="1.8200900">
        <ele>1763.8</ele>
        <time>2020-07-30T09:31:21Z</time>
      </trkpt>
      <trkpt lat="42.5553040" lon="1.8196030">
        <ele>1762.4</ele>
        <time>2020-07-30T09:31:24Z</time>
      </trkpt>
      <trkpt lat="42.5554280" lon="1.8192680">
        <ele>1760.8</ele>
        <time>2020-07-30T09:31:26Z</time>
      </trkpt>
      <trkpt lat="42.5555490" lon="1.8189280">
        <ele>1759.4</ele>
        <time>2020-07-30T09:31:28Z</time>
      </trkpt>
      <trkpt lat="42.5556050" lon="1.8187530">
        <ele>1758.2</ele>
        <time>2020-07-30T09:31:29Z</time>
      </trkpt>
      <trkpt lat="42.5557130" lon="1.8183990">
        <ele>1756.8</ele>
        <time>2020-07-30T09:31:31Z</time>
      </trkpt>
      <trkpt lat="42.5557620" lon="1.8182200">
        <ele>1756.2</ele>
        <time>2020-07-30T09:31:32Z</time>
      </trkpt>
      <trkpt lat="42.5558030" lon="1.8180370">
        <ele>1755.8</ele>
        <time>2020-07-30T09:31:33Z</time>
      </trkpt>
      <trkpt lat="42.5558550" lon="1.8176630">
        <ele>1754.4</ele>
        <time>2020-07-30T09:31:35Z</time>
      </trkpt>
      <trkpt lat="42.5558730" lon="1.8174720">
        <ele>1753.8</ele>
        <time>2020-07-30T09:31:36Z</time>
      </trkpt>
      <trkpt lat="42.5558990" lon="1.8172790">
        <ele>1753.2</ele>
        <time>2020-07-30T09:31:37Z</time>
      </trkpt>
      <trkpt lat="42.5559350" lon="1.8170880">
        <ele>1752.4</ele>
        <time>2020-07-30T09:31:38Z</time>
      </trkpt>
      <trkpt lat="42.5559870" lon="1.8169040">
        <ele>1751.6</ele>
        <time>2020-07-30T09:31:39Z</time>
      </trkpt>
      <trkpt lat="42.5560710" lon="1.8165310">
        <ele>1749.6</ele>
        <time>2020-07-30T09:31:41Z</time>
      </trkpt>
      <trkpt lat="42.5560820" lon="1.8163360">
        <ele>1748.6</ele>
        <time>2020-07-30T09:31:42Z</time>
      </trkpt>
      <trkpt lat="42.5560710" lon="1.8161410">
        <ele>1748.0</ele>
        <time>2020-07-30T09:31:43Z</time>
      </trkpt>
      <trkpt lat="42.5559880" lon="1.8157650">
        <ele>1746.8</ele>
        <time>2020-07-30T09:31:45Z</time>
      </trkpt>
      <trkpt lat="42.5558540" lon="1.8154270">
        <ele>1745.2</ele>
        <time>2020-07-30T09:31:47Z</time>
      </trkpt>
      <trkpt lat="42.5557160" lon="1.8150890">
        <ele>1743.2</ele>
        <time>2020-07-30T09:31:49Z</time>
      </trkpt>
      <trkpt lat="42.5555820" lon="1.8147540">
        <ele>1741.8</ele>
        <time>2020-07-30T09:31:51Z</time>
      </trkpt>
      <trkpt lat="42.5554430" lon="1.8144560">
        <ele>1740.6</ele>
        <time>2020-07-30T09:31:53Z</time>
      </trkpt>
      <trkpt lat="42.5553620" lon="1.8143360">
        <ele>1739.6</ele>
        <time>2020-07-30T09:31:54Z</time>
      </trkpt>
      <trkpt lat="42.5551770" lon="1.8141650">
        <ele>1738.4</ele>
        <time>2020-07-30T09:31:56Z</time>
      </trkpt>
      <trkpt lat="42.5550850" lon="1.8141060">
        <ele>1737.4</ele>
        <time>2020-07-30T09:31:57Z</time>
      </trkpt>
      <trkpt lat="42.5549920" lon="1.8140700">
        <ele>1736.8</ele>
        <time>2020-07-30T09:31:58Z</time>
      </trkpt>
      <trkpt lat="42.5549010" lon="1.8140780">
        <ele>1736.4</ele>
        <time>2020-07-30T09:31:59Z</time>
      </trkpt>
      <trkpt lat="42.5547460" lon="1.8142240">
        <ele>1736.0</ele>
        <time>2020-07-30T09:32:01Z</time>
      </trkpt>
      <trkpt lat="42.5546310" lon="1.8144450">
        <ele>1735.8</ele>
        <time>2020-07-30T09:32:03Z</time>
      </trkpt>
      <trkpt lat="42.5545790" lon="1.8145650">
        <ele>1735.6</ele>
        <time>2020-07-30T09:32:04Z</time>
      </trkpt>
      <trkpt lat="42.5545240" lon="1.8146850">
        <ele>1735.4</ele>
        <time>2020-07-30T09:32:05Z</time>
      </trkpt>
      <trkpt lat="42.5544080" lon="1.8149210">
        <ele>1734.4</ele>
        <time>2020-07-30T09:32:07Z</time>
      </trkpt>
      <trkpt lat="42.5542880" lon="1.8151660">
        <ele>1733.0</ele>
        <time>2020-07-30T09:32:09Z</time>
      </trkpt>
      <trkpt lat="42.5542200" lon="1.8152800">
        <ele>1732.4</ele>
        <time>2020-07-30T09:32:10Z</time>
      </trkpt>
      <trkpt lat="42.5541440" lon="1.8153820">
        <ele>1731.6</ele>
        <time>2020-07-30T09:32:11Z</time>
      </trkpt>
      <trkpt lat="42.5539660" lon="1.8155520">
        <ele>1729.8</ele>
        <time>2020-07-30T09:32:13Z</time>
      </trkpt>
      <trkpt lat="42.5538670" lon="1.8156150">
        <ele>1728.8</ele>
        <time>2020-07-30T09:32:14Z</time>
      </trkpt>
      <trkpt lat="42.5537660" lon="1.8156680">
        <ele>1728.2</ele>
        <time>2020-07-30T09:32:15Z</time>
      </trkpt>
      <trkpt lat="42.5536670" lon="1.8157270">
        <ele>1727.8</ele>
        <time>2020-07-30T09:32:16Z</time>
      </trkpt>
      <trkpt lat="42.5534740" lon="1.8158600">
        <ele>1726.6</ele>
        <time>2020-07-30T09:32:18Z</time>
      </trkpt>
      <trkpt lat="42.5531680" lon="1.8160330">
        <ele>1725.8</ele>
        <time>2020-07-30T09:32:21Z</time>
      </trkpt>
      <trkpt lat="42.5529560" lon="1.8160990">
        <ele>1725.6</ele>
        <time>2020-07-30T09:32:23Z</time>
      </trkpt>
      <trkpt lat="42.5527700" lon="1.8161570">
        <ele>1724.2</ele>
        <time>2020-07-30T09:32:25Z</time>
      </trkpt>
      <trkpt lat="42.5526970" lon="1.8162230">
        <ele>1723.4</ele>
        <time>2020-07-30T09:32:26Z</time>
      </trkpt>
      <trkpt lat="42.5526530" lon="1.8163190">
        <ele>1722.2</ele>
        <time>2020-07-30T09:32:27Z</time>
      </trkpt>
      <trkpt lat="42.5526450" lon="1.8164290">
        <ele>1721.4</ele>
        <time>2020-07-30T09:32:28Z</time>
      </trkpt>
      <trkpt lat="42.5526740" lon="1.8165310">
        <ele>1721.0</ele>
        <time>2020-07-30T09:32:29Z</time>
      </trkpt>
      <trkpt lat="42.5527340" lon="1.8166120">
        <ele>1720.6</ele>
        <time>2020-07-30T09:32:30Z</time>
      </trkpt>
      <trkpt lat="42.5529030" lon="1.8166750">
        <ele>1720.2</ele>
        <time>2020-07-30T09:32:32Z</time>
      </trkpt>
      <trkpt lat="42.5531970" lon="1.8166380">
        <ele>1719.8</ele>
        <time>2020-07-30T09:32:35Z</time>
      </trkpt>
      <trkpt lat="42.5533030" lon="1.8166150">
        <ele>1719.8</ele>
        <time>2020-07-30T09:32:36Z</time>
      </trkpt>
      <trkpt lat="42.5537480" lon="1.8165700">
        <ele>1719.4</ele>
        <time>2020-07-30T09:32:40Z</time>
      </trkpt>
      <trkpt lat="42.5538430" lon="1.8166210">
        <ele>1719.2</ele>
        <time>2020-07-30T09:32:41Z</time>
      </trkpt>
      <trkpt lat="42.5540100" lon="1.8168170">
        <ele>1718.6</ele>
        <time>2020-07-30T09:32:43Z</time>
      </trkpt>
      <trkpt lat="42.5540790" lon="1.8169440">
        <ele>1717.6</ele>
        <time>2020-07-30T09:32:44Z</time>
      </trkpt>
      <trkpt lat="42.5541370" lon="1.8170870">
        <ele>1717.2</ele>
        <time>2020-07-30T09:32:45Z</time>
      </trkpt>
      <trkpt lat="42.5541840" lon="1.8172440">
        <ele>1716.4</ele>
        <time>2020-07-30T09:32:46Z</time>
      </trkpt>
      <trkpt lat="42.5542040" lon="1.8174090">
        <ele>1716.0</ele>
        <time>2020-07-30T09:32:47Z</time>
      </trkpt>
      <trkpt lat="42.5541940" lon="1.8175710">
        <ele>1714.6</ele>
        <time>2020-07-30T09:32:48Z</time>
      </trkpt>
      <trkpt lat="42.5541170" lon="1.8178690">
        <ele>1712.6</ele>
        <time>2020-07-30T09:32:50Z</time>
      </trkpt>
      <trkpt lat="42.5540670" lon="1.8180140">
        <ele>1711.4</ele>
        <time>2020-07-30T09:32:51Z</time>
      </trkpt>
      <trkpt lat="42.5540160" lon="1.8181590">
        <ele>1709.0</ele>
        <time>2020-07-30T09:32:52Z</time>
      </trkpt>
      <trkpt lat="42.5539690" lon="1.8183070">
        <ele>1707.8</ele>
        <time>2020-07-30T09:32:53Z</time>
      </trkpt>
      <trkpt lat="42.5539230" lon="1.8184540">
        <ele>1706.8</ele>
        <time>2020-07-30T09:32:54Z</time>
      </trkpt>
      <trkpt lat="42.5538790" lon="1.8186000">
        <ele>1705.2</ele>
        <time>2020-07-30T09:32:55Z</time>
      </trkpt>
      <trkpt lat="42.5537980" lon="1.8188930">
        <ele>1703.6</ele>
        <time>2020-07-30T09:32:57Z</time>
      </trkpt>
      <trkpt lat="42.5537580" lon="1.8190410">
        <ele>1703.0</ele>
        <time>2020-07-30T09:32:58Z</time>
      </trkpt>
      <trkpt lat="42.5537190" lon="1.8191890">
        <ele>1702.2</ele>
        <time>2020-07-30T09:32:59Z</time>
      </trkpt>
      <trkpt lat="42.5536390" lon="1.8194840">
        <ele>1700.6</ele>
        <time>2020-07-30T09:33:01Z</time>
      </trkpt>
      <trkpt lat="42.5535550" lon="1.8197790">
        <ele>1699.0</ele>
        <time>2020-07-30T09:33:03Z</time>
      </trkpt>
      <trkpt lat="42.5534550" lon="1.8200640">
        <ele>1698.0</ele>
        <time>2020-07-30T09:33:05Z</time>
      </trkpt>
      <trkpt lat="42.5533930" lon="1.8201950">
        <ele>1697.6</ele>
        <time>2020-07-30T09:33:06Z</time>
      </trkpt>
      <trkpt lat="42.5531750" lon="1.8205440">
        <ele>1696.8</ele>
        <time>2020-07-30T09:33:09Z</time>
      </trkpt>
      <trkpt lat="42.5531140" lon="1.8206690">
        <ele>1696.4</ele>
        <time>2020-07-30T09:33:10Z</time>
      </trkpt>
      <trkpt lat="42.5530210" lon="1.8209400">
        <ele>1695.2</ele>
        <time>2020-07-30T09:33:12Z</time>
      </trkpt>
      <trkpt lat="42.5529820" lon="1.8210800">
        <ele>1694.6</ele>
        <time>2020-07-30T09:33:13Z</time>
      </trkpt>
      <trkpt lat="42.5529420" lon="1.8212180">
        <ele>1693.8</ele>
        <time>2020-07-30T09:33:14Z</time>
      </trkpt>
      <trkpt lat="42.5528910" lon="1.8213530">
        <ele>1693.2</ele>
        <time>2020-07-30T09:33:15Z</time>
      </trkpt>
      <trkpt lat="42.5527610" lon="1.8216070">
        <ele>1692.6</ele>
        <time>2020-07-30T09:33:17Z</time>
      </trkpt>
      <trkpt lat="42.5526130" lon="1.8218520">
        <ele>1691.4</ele>
        <time>2020-07-30T09:33:19Z</time>
      </trkpt>
      <trkpt lat="42.5523340" lon="1.8223640">
        <ele>1689.8</ele>
        <time>2020-07-30T09:33:23Z</time>
      </trkpt>
      <trkpt lat="42.5522700" lon="1.8224990">
        <ele>1689.2</ele>
        <time>2020-07-30T09:33:24Z</time>
      </trkpt>
      <trkpt lat="42.5522050" lon="1.8226330">
        <ele>1688.4</ele>
        <time>2020-07-30T09:33:25Z</time>
      </trkpt>
      <trkpt lat="42.5521410" lon="1.8227680">
        <ele>1687.4</ele>
        <time>2020-07-30T09:33:26Z</time>
      </trkpt>
      <trkpt lat="42.5520150" lon="1.8230400">
        <ele>1686.0</ele>
        <time>2020-07-30T09:33:28Z</time>
      </trkpt>
      <trkpt lat="42.5519000" lon="1.8233160">
        <ele>1684.8</ele>
        <time>2020-07-30T09:33:30Z</time>
      </trkpt>
      <trkpt lat="42.5518550" lon="1.8234600">
        <ele>1684.4</ele>
        <time>2020-07-30T09:33:31Z</time>
      </trkpt>
      <trkpt lat="42.5517490" lon="1.8239040">
        <ele>1683.4</ele>
        <time>2020-07-30T09:33:34Z</time>
      </trkpt>
      <trkpt lat="42.5515640" lon="1.8243020">
        <ele>1682.2</ele>
        <time>2020-07-30T09:33:37Z</time>
      </trkpt>
      <trkpt lat="42.5514940" lon="1.8244280">
        <ele>1682.2</ele>
        <time>2020-07-30T09:33:38Z</time>
      </trkpt>
      <trkpt lat="42.5513760" lon="1.8247060">
        <ele>1681.6</ele>
        <time>2020-07-30T09:33:40Z</time>
      </trkpt>
      <trkpt lat="42.5513320" lon="1.8248570">
        <ele>1681.2</ele>
        <time>2020-07-30T09:33:41Z</time>
      </trkpt>
      <trkpt lat="42.5512780" lon="1.8251740">
        <ele>1679.8</ele>
        <time>2020-07-30T09:33:43Z</time>
      </trkpt>
      <trkpt lat="42.5512630" lon="1.8253380">
        <ele>1679.0</ele>
        <time>2020-07-30T09:33:44Z</time>
      </trkpt>
      <trkpt lat="42.5512510" lon="1.8255020">
        <ele>1678.2</ele>
        <time>2020-07-30T09:33:45Z</time>
      </trkpt>
      <trkpt lat="42.5512410" lon="1.8256690">
        <ele>1677.2</ele>
        <time>2020-07-30T09:33:46Z</time>
      </trkpt>
      <trkpt lat="42.5512190" lon="1.8260000">
        <ele>1675.8</ele>
        <time>2020-07-30T09:33:48Z</time>
      </trkpt>
      <trkpt lat="42.5511970" lon="1.8263290">
        <ele>1674.4</ele>
        <time>2020-07-30T09:33:50Z</time>
      </trkpt>
      <trkpt lat="42.5511770" lon="1.8266590">
        <ele>1673.0</ele>
        <time>2020-07-30T09:33:52Z</time>
      </trkpt>
      <trkpt lat="42.5511740" lon="1.8269930">
        <ele>1671.4</ele>
        <time>2020-07-30T09:33:54Z</time>
      </trkpt>
      <trkpt lat="42.5511830" lon="1.8273330">
        <ele>1669.4</ele>
        <time>2020-07-30T09:33:56Z</time>
      </trkpt>
      <trkpt lat="42.5511980" lon="1.8276730">
        <ele>1668.0</ele>
        <time>2020-07-30T09:33:58Z</time>
      </trkpt>
      <trkpt lat="42.5512370" lon="1.8281770">
        <ele>1667.0</ele>
        <time>2020-07-30T09:34:01Z</time>
      </trkpt>
      <trkpt lat="42.5512880" lon="1.8286920">
        <ele>1665.4</ele>
        <time>2020-07-30T09:34:04Z</time>
      </trkpt>
      <trkpt lat="42.5513470" lon="1.8292190">
        <ele>1664.0</ele>
        <time>2020-07-30T09:34:07Z</time>
      </trkpt>
      <trkpt lat="42.5513580" lon="1.8295790">
        <ele>1663.0</ele>
        <time>2020-07-30T09:34:09Z</time>
      </trkpt>
      <trkpt lat="42.5513360" lon="1.8299400">
        <ele>1661.6</ele>
        <time>2020-07-30T09:34:11Z</time>
      </trkpt>
      <trkpt lat="42.5513070" lon="1.8303030">
        <ele>1660.0</ele>
        <time>2020-07-30T09:34:13Z</time>
      </trkpt>
      <trkpt lat="42.5513030" lon="1.8306690">
        <ele>1658.4</ele>
        <time>2020-07-30T09:34:15Z</time>
      </trkpt>
      <trkpt lat="42.5513140" lon="1.8308540">
        <ele>1657.8</ele>
        <time>2020-07-30T09:34:16Z</time>
      </trkpt>
      <trkpt lat="42.5513340" lon="1.8310380">
        <ele>1657.2</ele>
        <time>2020-07-30T09:34:17Z</time>
      </trkpt>
      <trkpt lat="42.5513690" lon="1.8312180">
        <ele>1656.6</ele>
        <time>2020-07-30T09:34:18Z</time>
      </trkpt>
      <trkpt lat="42.5514200" lon="1.8313910">
        <ele>1656.0</ele>
        <time>2020-07-30T09:34:19Z</time>
      </trkpt>
      <trkpt lat="42.5515440" lon="1.8317230">
        <ele>1655.0</ele>
        <time>2020-07-30T09:34:21Z</time>
      </trkpt>
      <trkpt lat="42.5516590" lon="1.8320670">
        <ele>1653.8</ele>
        <time>2020-07-30T09:34:23Z</time>
      </trkpt>
      <trkpt lat="42.5517120" lon="1.8324090">
        <ele>1652.4</ele>
        <time>2020-07-30T09:34:25Z</time>
      </trkpt>
      <trkpt lat="42.5517160" lon="1.8325740">
        <ele>1651.6</ele>
        <time>2020-07-30T09:34:26Z</time>
      </trkpt>
      <trkpt lat="42.5517010" lon="1.8327300">
        <ele>1650.6</ele>
        <time>2020-07-30T09:34:27Z</time>
      </trkpt>
      <trkpt lat="42.5516660" lon="1.8328710">
        <ele>1649.6</ele>
        <time>2020-07-30T09:34:28Z</time>
      </trkpt>
      <trkpt lat="42.5516050" lon="1.8329780">
        <ele>1649.0</ele>
        <time>2020-07-30T09:34:29Z</time>
      </trkpt>
      <trkpt lat="42.5515230" lon="1.8330570">
        <ele>1648.6</ele>
        <time>2020-07-30T09:34:30Z</time>
      </trkpt>
      <trkpt lat="42.5513480" lon="1.8332220">
        <ele>1648.0</ele>
        <time>2020-07-30T09:34:32Z</time>
      </trkpt>
      <trkpt lat="42.5512590" lon="1.8332660">
        <ele>1647.8</ele>
        <time>2020-07-30T09:34:33Z</time>
      </trkpt>
      <trkpt lat="42.5511910" lon="1.8333130">
        <ele>1647.4</ele>
        <time>2020-07-30T09:34:34Z</time>
      </trkpt>
      <trkpt lat="42.5510670" lon="1.8334660">
        <ele>1646.8</ele>
        <time>2020-07-30T09:34:36Z</time>
      </trkpt>
      <trkpt lat="42.5510340" lon="1.8335840">
        <ele>1646.8</ele>
        <time>2020-07-30T09:34:37Z</time>
      </trkpt>
      <trkpt lat="42.5509950" lon="1.8338990">
        <ele>1646.4</ele>
        <time>2020-07-30T09:34:39Z</time>
      </trkpt>
      <trkpt lat="42.5509740" lon="1.8340540">
        <ele>1646.0</ele>
        <time>2020-07-30T09:34:40Z</time>
      </trkpt>
      <trkpt lat="42.5509530" lon="1.8342120">
        <ele>1645.6</ele>
        <time>2020-07-30T09:34:41Z</time>
      </trkpt>
      <trkpt lat="42.5509270" lon="1.8343560">
        <ele>1645.4</ele>
        <time>2020-07-30T09:34:42Z</time>
      </trkpt>
      <trkpt lat="42.5509140" lon="1.8345450">
        <ele>1645.0</ele>
        <time>2020-07-30T09:34:43Z</time>
      </trkpt>
      <trkpt lat="42.5508990" lon="1.8347350">
        <ele>1644.6</ele>
        <time>2020-07-30T09:34:44Z</time>
      </trkpt>
      <trkpt lat="42.5508730" lon="1.8349060">
        <ele>1643.8</ele>
        <time>2020-07-30T09:34:45Z</time>
      </trkpt>
      <trkpt lat="42.5508230" lon="1.8349740">
        <ele>1643.4</ele>
        <time>2020-07-30T09:34:46Z</time>
      </trkpt>
      <trkpt lat="42.5507710" lon="1.8350980">
        <ele>1643.0</ele>
        <time>2020-07-30T09:34:47Z</time>
      </trkpt>
      <trkpt lat="42.5507330" lon="1.8352950">
        <ele>1642.6</ele>
        <time>2020-07-30T09:34:48Z</time>
      </trkpt>
      <trkpt lat="42.5506720" lon="1.8354360">
        <ele>1641.4</ele>
        <time>2020-07-30T09:34:49Z</time>
      </trkpt>
      <trkpt lat="42.5506220" lon="1.8356210">
        <ele>1640.8</ele>
        <time>2020-07-30T09:34:50Z</time>
      </trkpt>
      <trkpt lat="42.5505700" lon="1.8358100">
        <ele>1639.6</ele>
        <time>2020-07-30T09:34:51Z</time>
      </trkpt>
      <trkpt lat="42.5505160" lon="1.8360340">
        <ele>1639.2</ele>
        <time>2020-07-30T09:34:52Z</time>
      </trkpt>
      <trkpt lat="42.5504680" lon="1.8362330">
        <ele>1638.2</ele>
        <time>2020-07-30T09:34:53Z</time>
      </trkpt>
      <trkpt lat="42.5503680" lon="1.8365610">
        <ele>1636.8</ele>
        <time>2020-07-30T09:34:55Z</time>
      </trkpt>
      <trkpt lat="42.5503370" lon="1.8367090">
        <ele>1636.6</ele>
        <time>2020-07-30T09:34:56Z</time>
      </trkpt>
      <trkpt lat="42.5503120" lon="1.8368700">
        <ele>1635.8</ele>
        <time>2020-07-30T09:34:57Z</time>
      </trkpt>
      <trkpt lat="42.5502890" lon="1.8370480">
        <ele>1634.6</ele>
        <time>2020-07-30T09:34:58Z</time>
      </trkpt>
      <trkpt lat="42.5502710" lon="1.8372740">
        <ele>1633.8</ele>
        <time>2020-07-30T09:34:59Z</time>
      </trkpt>
      <trkpt lat="42.5502530" lon="1.8374720">
        <ele>1633.0</ele>
        <time>2020-07-30T09:35:00Z</time>
      </trkpt>
      <trkpt lat="42.5501980" lon="1.8378380">
        <ele>1631.4</ele>
        <time>2020-07-30T09:35:02Z</time>
      </trkpt>
      <trkpt lat="42.5501620" lon="1.8382050">
        <ele>1629.6</ele>
        <time>2020-07-30T09:35:04Z</time>
      </trkpt>
      <trkpt lat="42.5501510" lon="1.8383850">
        <ele>1629.2</ele>
        <time>2020-07-30T09:35:05Z</time>
      </trkpt>
      <trkpt lat="42.5501400" lon="1.8385650">
        <ele>1628.4</ele>
        <time>2020-07-30T09:35:06Z</time>
      </trkpt>
      <trkpt lat="42.5501160" lon="1.8389250">
        <ele>1625.6</ele>
        <time>2020-07-30T09:35:08Z</time>
      </trkpt>
      <trkpt lat="42.5500930" lon="1.8392890">
        <ele>1624.2</ele>
        <time>2020-07-30T09:35:10Z</time>
      </trkpt>
      <trkpt lat="42.5500750" lon="1.8396630">
        <ele>1623.0</ele>
        <time>2020-07-30T09:35:12Z</time>
      </trkpt>
      <trkpt lat="42.5500580" lon="1.8400360">
        <ele>1621.8</ele>
        <time>2020-07-30T09:35:14Z</time>
      </trkpt>
      <trkpt lat="42.5500460" lon="1.8404200">
        <ele>1620.6</ele>
        <time>2020-07-30T09:35:16Z</time>
      </trkpt>
      <trkpt lat="42.5500540" lon="1.8407820">
        <ele>1619.4</ele>
        <time>2020-07-30T09:35:18Z</time>
      </trkpt>
      <trkpt lat="42.5500700" lon="1.8409500">
        <ele>1618.6</ele>
        <time>2020-07-30T09:35:19Z</time>
      </trkpt>
      <trkpt lat="42.5500970" lon="1.8411050">
        <ele>1617.8</ele>
        <time>2020-07-30T09:35:20Z</time>
      </trkpt>
      <trkpt lat="42.5501700" lon="1.8413850">
        <ele>1616.4</ele>
        <time>2020-07-30T09:35:22Z</time>
      </trkpt>
      <trkpt lat="42.5502270" lon="1.8416240">
        <ele>1615.6</ele>
        <time>2020-07-30T09:35:24Z</time>
      </trkpt>
      <trkpt lat="42.5502360" lon="1.8417280">
        <ele>1615.4</ele>
        <time>2020-07-30T09:35:25Z</time>
      </trkpt>
      <trkpt lat="42.5501880" lon="1.8419140">
        <ele>1615.2</ele>
        <time>2020-07-30T09:35:27Z</time>
      </trkpt>
      <trkpt lat="42.5500560" lon="1.8419630">
        <ele>1615.0</ele>
        <time>2020-07-30T09:35:29Z</time>
      </trkpt>
      <trkpt lat="42.5499440" lon="1.8418220">
        <ele>1614.8</ele>
        <time>2020-07-30T09:35:31Z</time>
      </trkpt>
      <trkpt lat="42.5499220" lon="1.8415930">
        <ele>1614.6</ele>
        <time>2020-07-30T09:35:33Z</time>
      </trkpt>
      <trkpt lat="42.5499270" lon="1.8414730">
        <ele>1614.4</ele>
        <time>2020-07-30T09:35:34Z</time>
      </trkpt>
      <trkpt lat="42.5499490" lon="1.8410970">
        <ele>1613.6</ele>
        <time>2020-07-30T09:35:37Z</time>
      </trkpt>
      <trkpt lat="42.5499570" lon="1.8408360">
        <ele>1611.8</ele>
        <time>2020-07-30T09:35:39Z</time>
      </trkpt>
      <trkpt lat="42.5499410" lon="1.8405720">
        <ele>1610.6</ele>
        <time>2020-07-30T09:35:41Z</time>
      </trkpt>
      <trkpt lat="42.5499080" lon="1.8403050">
        <ele>1609.6</ele>
        <time>2020-07-30T09:35:43Z</time>
      </trkpt>
      <trkpt lat="42.5498840" lon="1.8398920">
        <ele>1608.2</ele>
        <time>2020-07-30T09:35:46Z</time>
      </trkpt>
      <trkpt lat="42.5498760" lon="1.8396090">
        <ele>1607.0</ele>
        <time>2020-07-30T09:35:48Z</time>
      </trkpt>
      <trkpt lat="42.5498560" lon="1.8393200">
        <ele>1605.8</ele>
        <time>2020-07-30T09:35:50Z</time>
      </trkpt>
      <trkpt lat="42.5498340" lon="1.8390270">
        <ele>1604.6</ele>
        <time>2020-07-30T09:35:52Z</time>
      </trkpt>
      <trkpt lat="42.5497990" lon="1.8385800">
        <ele>1603.4</ele>
        <time>2020-07-30T09:35:55Z</time>
      </trkpt>
      <trkpt lat="42.5497890" lon="1.8384290">
        <ele>1603.0</ele>
        <time>2020-07-30T09:35:56Z</time>
      </trkpt>
      <trkpt lat="42.5497830" lon="1.8382770">
        <ele>1602.2</ele>
        <time>2020-07-30T09:35:57Z</time>
      </trkpt>
      <trkpt lat="42.5497710" lon="1.8379700">
        <ele>1600.8</ele>
        <time>2020-07-30T09:35:59Z</time>
      </trkpt>
      <trkpt lat="42.5497590" lon="1.8376570">
        <ele>1599.2</ele>
        <time>2020-07-30T09:36:01Z</time>
      </trkpt>
      <trkpt lat="42.5497480" lon="1.8373410">
        <ele>1598.0</ele>
        <time>2020-07-30T09:36:03Z</time>
      </trkpt>
      <trkpt lat="42.5497430" lon="1.8371820">
        <ele>1597.6</ele>
        <time>2020-07-30T09:36:04Z</time>
      </trkpt>
      <trkpt lat="42.5497360" lon="1.8368630">
        <ele>1597.0</ele>
        <time>2020-07-30T09:36:06Z</time>
      </trkpt>
      <trkpt lat="42.5497320" lon="1.8363920">
        <ele>1595.2</ele>
        <time>2020-07-30T09:36:09Z</time>
      </trkpt>
      <trkpt lat="42.5497470" lon="1.8360820">
        <ele>1594.0</ele>
        <time>2020-07-30T09:36:11Z</time>
      </trkpt>
      <trkpt lat="42.5497570" lon="1.8359280">
        <ele>1593.2</ele>
        <time>2020-07-30T09:36:12Z</time>
      </trkpt>
      <trkpt lat="42.5497690" lon="1.8357710">
        <ele>1592.2</ele>
        <time>2020-07-30T09:36:13Z</time>
      </trkpt>
      <trkpt lat="42.5497920" lon="1.8354570">
        <ele>1590.4</ele>
        <time>2020-07-30T09:36:15Z</time>
      </trkpt>
      <trkpt lat="42.5498110" lon="1.8351410">
        <ele>1589.2</ele>
        <time>2020-07-30T09:36:17Z</time>
      </trkpt>
      <trkpt lat="42.5498100" lon="1.8346680">
        <ele>1588.2</ele>
        <time>2020-07-30T09:36:20Z</time>
      </trkpt>
      <trkpt lat="42.5497870" lon="1.8341990">
        <ele>1586.8</ele>
        <time>2020-07-30T09:36:23Z</time>
      </trkpt>
      <trkpt lat="42.5497830" lon="1.8338870">
        <ele>1585.4</ele>
        <time>2020-07-30T09:36:25Z</time>
      </trkpt>
      <trkpt lat="42.5497740" lon="1.8335780">
        <ele>1583.8</ele>
        <time>2020-07-30T09:36:27Z</time>
      </trkpt>
      <trkpt lat="42.5497690" lon="1.8332720">
        <ele>1582.2</ele>
        <time>2020-07-30T09:36:29Z</time>
      </trkpt>
      <trkpt lat="42.5497800" lon="1.8329670">
        <ele>1581.2</ele>
        <time>2020-07-30T09:36:31Z</time>
      </trkpt>
      <trkpt lat="42.5498000" lon="1.8328230">
        <ele>1580.8</ele>
        <time>2020-07-30T09:36:32Z</time>
      </trkpt>
      <trkpt lat="42.5498010" lon="1.8324230">
        <ele>1579.2</ele>
        <time>2020-07-30T09:36:35Z</time>
      </trkpt>
      <trkpt lat="42.5496700" lon="1.8322320">
        <ele>1578.2</ele>
        <time>2020-07-30T09:36:37Z</time>
      </trkpt>
      <trkpt lat="42.5495780" lon="1.8321760">
        <ele>1577.8</ele>
        <time>2020-07-30T09:36:38Z</time>
      </trkpt>
      <trkpt lat="42.5494810" lon="1.8321330">
        <ele>1577.4</ele>
        <time>2020-07-30T09:36:39Z</time>
      </trkpt>
      <trkpt lat="42.5493850" lon="1.8320840">
        <ele>1577.0</ele>
        <time>2020-07-30T09:36:40Z</time>
      </trkpt>
      <trkpt lat="42.5492930" lon="1.8320220">
        <ele>1576.8</ele>
        <time>2020-07-30T09:36:41Z</time>
      </trkpt>
      <trkpt lat="42.5491420" lon="1.8318220">
        <ele>1576.6</ele>
        <time>2020-07-30T09:36:43Z</time>
      </trkpt>
      <trkpt lat="42.5490920" lon="1.8315600">
        <ele>1576.2</ele>
        <time>2020-07-30T09:36:45Z</time>
      </trkpt>
      <trkpt lat="42.5490970" lon="1.8314190">
        <ele>1575.6</ele>
        <time>2020-07-30T09:36:46Z</time>
      </trkpt>
      <trkpt lat="42.5491100" lon="1.8312770">
        <ele>1574.8</ele>
        <time>2020-07-30T09:36:47Z</time>
      </trkpt>
      <trkpt lat="42.5491270" lon="1.8311360">
        <ele>1573.8</ele>
        <time>2020-07-30T09:36:48Z</time>
      </trkpt>
      <trkpt lat="42.5491460" lon="1.8309920">
        <ele>1573.0</ele>
        <time>2020-07-30T09:36:49Z</time>
      </trkpt>
      <trkpt lat="42.5491660" lon="1.8308490">
        <ele>1572.4</ele>
        <time>2020-07-30T09:36:50Z</time>
      </trkpt>
      <trkpt lat="42.5492040" lon="1.8305580">
        <ele>1570.4</ele>
        <time>2020-07-30T09:36:52Z</time>
      </trkpt>
      <trkpt lat="42.5492120" lon="1.8304100">
        <ele>1569.6</ele>
        <time>2020-07-30T09:36:53Z</time>
      </trkpt>
      <trkpt lat="42.5492040" lon="1.8302650">
        <ele>1569.0</ele>
        <time>2020-07-30T09:36:54Z</time>
      </trkpt>
      <trkpt lat="42.5491480" lon="1.8299800">
        <ele>1567.4</ele>
        <time>2020-07-30T09:36:56Z</time>
      </trkpt>
      <trkpt lat="42.5490820" lon="1.8296910">
        <ele>1566.8</ele>
        <time>2020-07-30T09:36:58Z</time>
      </trkpt>
      <trkpt lat="42.5490510" lon="1.8295430">
        <ele>1566.4</ele>
        <time>2020-07-30T09:36:59Z</time>
      </trkpt>
      <trkpt lat="42.5489980" lon="1.8292410">
        <ele>1565.2</ele>
        <time>2020-07-30T09:37:01Z</time>
      </trkpt>
      <trkpt lat="42.5489670" lon="1.8289320">
        <ele>1564.4</ele>
        <time>2020-07-30T09:37:03Z</time>
      </trkpt>
      <trkpt lat="42.5489540" lon="1.8287750">
        <ele>1563.8</ele>
        <time>2020-07-30T09:37:04Z</time>
      </trkpt>
      <trkpt lat="42.5489270" lon="1.8284590">
        <ele>1562.4</ele>
        <time>2020-07-30T09:37:06Z</time>
      </trkpt>
      <trkpt lat="42.5488940" lon="1.8281450">
        <ele>1561.0</ele>
        <time>2020-07-30T09:37:08Z</time>
      </trkpt>
      <trkpt lat="42.5488470" lon="1.8278400">
        <ele>1560.0</ele>
        <time>2020-07-30T09:37:10Z</time>
      </trkpt>
      <trkpt lat="42.5488160" lon="1.8276910">
        <ele>1559.6</ele>
        <time>2020-07-30T09:37:11Z</time>
      </trkpt>
      <trkpt lat="42.5487750" lon="1.8275500">
        <ele>1559.2</ele>
        <time>2020-07-30T09:37:12Z</time>
      </trkpt>
      <trkpt lat="42.5487160" lon="1.8274220">
        <ele>1558.8</ele>
        <time>2020-07-30T09:37:13Z</time>
      </trkpt>
      <trkpt lat="42.5486400" lon="1.8273150">
        <ele>1558.0</ele>
        <time>2020-07-30T09:37:14Z</time>
      </trkpt>
      <trkpt lat="42.5485490" lon="1.8272260">
        <ele>1557.0</ele>
        <time>2020-07-30T09:37:15Z</time>
      </trkpt>
      <trkpt lat="42.5483420" lon="1.8270860">
        <ele>1555.8</ele>
        <time>2020-07-30T09:37:17Z</time>
      </trkpt>
      <trkpt lat="42.5481240" lon="1.8269570">
        <ele>1554.2</ele>
        <time>2020-07-30T09:37:19Z</time>
      </trkpt>
      <trkpt lat="42.5478150" lon="1.8267170">
        <ele>1553.0</ele>
        <time>2020-07-30T09:37:22Z</time>
      </trkpt>
      <trkpt lat="42.5476680" lon="1.8264710">
        <ele>1552.0</ele>
        <time>2020-07-30T09:37:24Z</time>
      </trkpt>
      <trkpt lat="42.5476160" lon="1.8263270">
        <ele>1551.8</ele>
        <time>2020-07-30T09:37:25Z</time>
      </trkpt>
      <trkpt lat="42.5475710" lon="1.8261760">
        <ele>1550.8</ele>
        <time>2020-07-30T09:37:26Z</time>
      </trkpt>
      <trkpt lat="42.5475260" lon="1.8260260">
        <ele>1549.8</ele>
        <time>2020-07-30T09:37:27Z</time>
      </trkpt>
      <trkpt lat="42.5474700" lon="1.8258860">
        <ele>1549.2</ele>
        <time>2020-07-30T09:37:28Z</time>
      </trkpt>
      <trkpt lat="42.5473930" lon="1.8257630">
        <ele>1548.6</ele>
        <time>2020-07-30T09:37:29Z</time>
      </trkpt>
      <trkpt lat="42.5472990" lon="1.8256580">
        <ele>1548.2</ele>
        <time>2020-07-30T09:37:30Z</time>
      </trkpt>
      <trkpt lat="42.5470830" lon="1.8255110">
        <ele>1547.4</ele>
        <time>2020-07-30T09:37:32Z</time>
      </trkpt>
      <trkpt lat="42.5469670" lon="1.8254560">
        <ele>1547.0</ele>
        <time>2020-07-30T09:37:33Z</time>
      </trkpt>
      <trkpt lat="42.5466140" lon="1.8253140">
        <ele>1546.2</ele>
        <time>2020-07-30T09:37:36Z</time>
      </trkpt>
      <trkpt lat="42.5464930" lon="1.8252950">
        <ele>1545.6</ele>
        <time>2020-07-30T09:37:37Z</time>
      </trkpt>
      <trkpt lat="42.5463720" lon="1.8252970">
        <ele>1545.0</ele>
        <time>2020-07-30T09:37:38Z</time>
      </trkpt>
      <trkpt lat="42.5461370" lon="1.8253600">
        <ele>1543.8</ele>
        <time>2020-07-30T09:37:40Z</time>
      </trkpt>
      <trkpt lat="42.5459380" lon="1.8255290">
        <ele>1542.6</ele>
        <time>2020-07-30T09:37:42Z</time>
      </trkpt>
      <trkpt lat="42.5458030" lon="1.8257870">
        <ele>1541.0</ele>
        <time>2020-07-30T09:37:44Z</time>
      </trkpt>
      <trkpt lat="42.5457390" lon="1.8259120">
        <ele>1540.8</ele>
        <time>2020-07-30T09:37:45Z</time>
      </trkpt>
      <trkpt lat="42.5456570" lon="1.8260120">
        <ele>1539.8</ele>
        <time>2020-07-30T09:37:46Z</time>
      </trkpt>
      <trkpt lat="42.5455600" lon="1.8260680">
        <ele>1539.0</ele>
        <time>2020-07-30T09:37:47Z</time>
      </trkpt>
      <trkpt lat="42.5454550" lon="1.8260790">
        <ele>1538.4</ele>
        <time>2020-07-30T09:37:48Z</time>
      </trkpt>
      <trkpt lat="42.5453500" lon="1.8260600">
        <ele>1537.8</ele>
        <time>2020-07-30T09:37:49Z</time>
      </trkpt>
      <trkpt lat="42.5452440" lon="1.8260320">
        <ele>1536.4</ele>
        <time>2020-07-30T09:37:50Z</time>
      </trkpt>
      <trkpt lat="42.5450220" lon="1.8259970">
        <ele>1535.2</ele>
        <time>2020-07-30T09:37:52Z</time>
      </trkpt>
      <trkpt lat="42.5449090" lon="1.8260040">
        <ele>1535.0</ele>
        <time>2020-07-30T09:37:53Z</time>
      </trkpt>
      <trkpt lat="42.5444540" lon="1.8261160">
        <ele>1534.0</ele>
        <time>2020-07-30T09:37:57Z</time>
      </trkpt>
      <trkpt lat="42.5443410" lon="1.8261560">
        <ele>1533.6</ele>
        <time>2020-07-30T09:37:58Z</time>
      </trkpt>
      <trkpt lat="42.5441210" lon="1.8262570">
        <ele>1532.6</ele>
        <time>2020-07-30T09:38:00Z</time>
      </trkpt>
      <trkpt lat="42.5438040" lon="1.8264450">
        <ele>1531.4</ele>
        <time>2020-07-30T09:38:02Z</time>
      </trkpt>
      <trkpt lat="42.5437010" lon="1.8265070">
        <ele>1531.2</ele>
        <time>2020-07-30T09:38:03Z</time>
      </trkpt>
      <trkpt lat="42.5435950" lon="1.8265630">
        <ele>1530.2</ele>
        <time>2020-07-30T09:38:05Z</time>
      </trkpt>
      <trkpt lat="42.5432790" lon="1.8267160">
        <ele>1528.6</ele>
        <time>2020-07-30T09:38:07Z</time>
      </trkpt>
      <trkpt lat="42.5431750" lon="1.8267710">
        <ele>1527.0</ele>
        <time>2020-07-30T09:38:09Z</time>
      </trkpt>
      <trkpt lat="42.5427630" lon="1.8270060">
        <ele>1525.8</ele>
        <time>2020-07-30T09:38:12Z</time>
      </trkpt>
      <trkpt lat="42.5426600" lon="1.8270570">
        <ele>1524.6</ele>
        <time>2020-07-30T09:38:14Z</time>
      </trkpt>
      <trkpt lat="42.5425570" lon="1.8271100">
        <ele>1524.2</ele>
        <time>2020-07-30T09:38:15Z</time>
      </trkpt>
      <trkpt lat="42.5422470" lon="1.8272780">
        <ele>1522.8</ele>
        <time>2020-07-30T09:38:17Z</time>
      </trkpt>
      <trkpt lat="42.5420440" lon="1.8273950">
        <ele>1521.6</ele>
        <time>2020-07-30T09:38:20Z</time>
      </trkpt>
      <trkpt lat="42.5416300" lon="1.8276260">
        <ele>1520.4</ele>
        <time>2020-07-30T09:38:24Z</time>
      </trkpt>
      <trkpt lat="42.5414100" lon="1.8277200">
        <ele>1519.0</ele>
        <time>2020-07-30T09:38:26Z</time>
      </trkpt>
      <trkpt lat="42.5411010" lon="1.8278550">
        <ele>1518.0</ele>
        <time>2020-07-30T09:38:29Z</time>
      </trkpt>
      <trkpt lat="42.5410090" lon="1.8278820">
        <ele>1517.4</ele>
        <time>2020-07-30T09:38:30Z</time>
      </trkpt>
      <trkpt lat="42.5408840" lon="1.8278010">
        <ele>1516.8</ele>
        <time>2020-07-30T09:38:31Z</time>
      </trkpt>
      <trkpt lat="42.5406540" lon="1.8276670">
        <ele>1515.6</ele>
        <time>2020-07-30T09:38:33Z</time>
      </trkpt>
      <trkpt lat="42.5404310" lon="1.8275140">
        <ele>1514.4</ele>
        <time>2020-07-30T09:38:35Z</time>
      </trkpt>
      <trkpt lat="42.5402290" lon="1.8273360">
        <ele>1513.8</ele>
        <time>2020-07-30T09:38:37Z</time>
      </trkpt>
      <trkpt lat="42.5401380" lon="1.8272240">
        <ele>1513.0</ele>
        <time>2020-07-30T09:38:38Z</time>
      </trkpt>
      <trkpt lat="42.5400510" lon="1.8270930">
        <ele>1512.0</ele>
        <time>2020-07-30T09:38:39Z</time>
      </trkpt>
      <trkpt lat="42.5399760" lon="1.8269650">
        <ele>1511.0</ele>
        <time>2020-07-30T09:38:40Z</time>
      </trkpt>
      <trkpt lat="42.5399030" lon="1.8268380">
        <ele>1510.6</ele>
        <time>2020-07-30T09:38:41Z</time>
      </trkpt>
      <trkpt lat="42.5397260" lon="1.8264470">
        <ele>1509.6</ele>
        <time>2020-07-30T09:38:44Z</time>
      </trkpt>
      <trkpt lat="42.5396690" lon="1.8263120">
        <ele>1509.4</ele>
        <time>2020-07-30T09:38:45Z</time>
      </trkpt>
      <trkpt lat="42.5395460" lon="1.8260390">
        <ele>1508.4</ele>
        <time>2020-07-30T09:38:47Z</time>
      </trkpt>
      <trkpt lat="42.5394730" lon="1.8259090">
        <ele>1507.6</ele>
        <time>2020-07-30T09:38:48Z</time>
      </trkpt>
      <trkpt lat="42.5393910" lon="1.8257910">
        <ele>1507.0</ele>
        <time>2020-07-30T09:38:49Z</time>
      </trkpt>
      <trkpt lat="42.5392090" lon="1.8256120">
        <ele>1506.0</ele>
        <time>2020-07-30T09:38:51Z</time>
      </trkpt>
      <trkpt lat="42.5391080" lon="1.8255350">
        <ele>1505.8</ele>
        <time>2020-07-30T09:38:52Z</time>
      </trkpt>
      <trkpt lat="42.5390040" lon="1.8254640">
        <ele>1505.6</ele>
        <time>2020-07-30T09:38:53Z</time>
      </trkpt>
      <trkpt lat="42.5388990" lon="1.8253930">
        <ele>1505.0</ele>
        <time>2020-07-30T09:38:54Z</time>
      </trkpt>
      <trkpt lat="42.5386890" lon="1.8252460">
        <ele>1503.6</ele>
        <time>2020-07-30T09:38:56Z</time>
      </trkpt>
      <trkpt lat="42.5384790" lon="1.8251030">
        <ele>1501.8</ele>
        <time>2020-07-30T09:38:58Z</time>
      </trkpt>
      <trkpt lat="42.5383730" lon="1.8250310">
        <ele>1501.2</ele>
        <time>2020-07-30T09:38:59Z</time>
      </trkpt>
      <trkpt lat="42.5382680" lon="1.8249610">
        <ele>1500.2</ele>
        <time>2020-07-30T09:39:00Z</time>
      </trkpt>
      <trkpt lat="42.5380570" lon="1.8248160">
        <ele>1498.8</ele>
        <time>2020-07-30T09:39:02Z</time>
      </trkpt>
      <trkpt lat="42.5377330" lon="1.8246120">
        <ele>1497.6</ele>
        <time>2020-07-30T09:39:05Z</time>
      </trkpt>
      <trkpt lat="42.5376210" lon="1.8245520">
        <ele>1497.2</ele>
        <time>2020-07-30T09:39:06Z</time>
      </trkpt>
      <trkpt lat="42.5375090" lon="1.8245000">
        <ele>1496.6</ele>
        <time>2020-07-30T09:39:07Z</time>
      </trkpt>
      <trkpt lat="42.5372810" lon="1.8244110">
        <ele>1495.0</ele>
        <time>2020-07-30T09:39:09Z</time>
      </trkpt>
      <trkpt lat="42.5370710" lon="1.8243320">
        <ele>1493.8</ele>
        <time>2020-07-30T09:39:11Z</time>
      </trkpt>
      <trkpt lat="42.5369770" lon="1.8242950">
        <ele>1492.2</ele>
        <time>2020-07-30T09:39:12Z</time>
      </trkpt>
      <trkpt lat="42.5368940" lon="1.8242460">
        <ele>1491.4</ele>
        <time>2020-07-30T09:39:13Z</time>
      </trkpt>
      <trkpt lat="42.5368370" lon="1.8241790">
        <ele>1490.6</ele>
        <time>2020-07-30T09:39:14Z</time>
      </trkpt>
      <trkpt lat="42.5368240" lon="1.8240290">
        <ele>1490.2</ele>
        <time>2020-07-30T09:39:16Z</time>
      </trkpt>
      <trkpt lat="42.5367750" lon="1.8237360">
        <ele>1489.4</ele>
        <time>2020-07-30T09:39:20Z</time>
      </trkpt>
      <trkpt lat="42.5365580" lon="1.8235080">
        <ele>1488.8</ele>
        <time>2020-07-30T09:39:24Z</time>
      </trkpt>
      <trkpt lat="42.5364860" lon="1.8234610">
        <ele>1488.8</ele>
        <time>2020-07-30T09:39:25Z</time>
      </trkpt>
      <trkpt lat="42.5362620" lon="1.8233520">
        <ele>1488.6</ele>
        <time>2020-07-30T09:39:28Z</time>
      </trkpt>
      <trkpt lat="42.5361020" lon="1.8232880">
        <ele>1488.2</ele>
        <time>2020-07-30T09:39:30Z</time>
      </trkpt>
      <trkpt lat="42.5358450" lon="1.8231900">
        <ele>1486.4</ele>
        <time>2020-07-30T09:39:33Z</time>
      </trkpt>
      <trkpt lat="42.5356660" lon="1.8231160">
        <ele>1485.0</ele>
        <time>2020-07-30T09:39:35Z</time>
      </trkpt>
      <trkpt lat="42.5354040" lon="1.8229880">
        <ele>1483.8</ele>
        <time>2020-07-30T09:39:38Z</time>
      </trkpt>
      <trkpt lat="42.5351470" lon="1.8228480">
        <ele>1482.4</ele>
        <time>2020-07-30T09:39:41Z</time>
      </trkpt>
      <trkpt lat="42.5348100" lon="1.8226740">
        <ele>1481.2</ele>
        <time>2020-07-30T09:39:45Z</time>
      </trkpt>
      <trkpt lat="42.5344790" lon="1.8225240">
        <ele>1480.6</ele>
        <time>2020-07-30T09:39:49Z</time>
      </trkpt>
      <trkpt lat="42.5339010" lon="1.8223330">
        <ele>1480.2</ele>
        <time>2020-07-30T09:39:56Z</time>
      </trkpt>
      <trkpt lat="42.5337440" lon="1.8222770">
        <ele>1480.2</ele>
        <time>2020-07-30T09:39:58Z</time>
      </trkpt>
      <trkpt lat="42.5333230" lon="1.8220700">
        <ele>1480.0</ele>
        <time>2020-07-30T09:40:04Z</time>
      </trkpt>
      <trkpt lat="42.5329620" lon="1.8218040">
        <ele>1480.2</ele>
        <time>2020-07-30T09:40:10Z</time>
      </trkpt>
      <trkpt lat="42.5326600" lon="1.8216230">
        <ele>1481.4</ele>
        <time>2020-07-30T09:40:15Z</time>
      </trkpt>
      <trkpt lat="42.5325990" lon="1.8215950">
        <ele>1481.6</ele>
        <time>2020-07-30T09:40:16Z</time>
      </trkpt>
      <trkpt lat="42.5325360" lon="1.8215720">
        <ele>1481.6</ele>
        <time>2020-07-30T09:40:17Z</time>
      </trkpt>
      <trkpt lat="42.5322160" lon="1.8215050">
        <ele>1482.0</ele>
        <time>2020-07-30T09:40:22Z</time>
      </trkpt>
      <trkpt lat="42.5319610" lon="1.8215060">
        <ele>1482.4</ele>
        <time>2020-07-30T09:40:26Z</time>
      </trkpt>
      <trkpt lat="42.5317740" lon="1.8215350">
        <ele>1482.6</ele>
        <time>2020-07-30T09:40:29Z</time>
      </trkpt>
      <trkpt lat="42.5313650" lon="1.8216940">
        <ele>1482.8</ele>
        <time>2020-07-30T09:40:36Z</time>
      </trkpt>
      <trkpt lat="42.5309850" lon="1.8219880">
        <ele>1483.2</ele>
        <time>2020-07-30T09:40:43Z</time>
      </trkpt>
      <trkpt lat="42.5305890" lon="1.8223970">
        <ele>1483.2</ele>
        <time>2020-07-30T09:40:50Z</time>
      </trkpt>
      <trkpt lat="42.5301250" lon="1.8228850">
        <ele>1481.8</ele>
        <time>2020-07-30T09:40:57Z</time>
      </trkpt>
      <trkpt lat="42.5300510" lon="1.8229610">
        <ele>1481.6</ele>
        <time>2020-07-30T09:40:58Z</time>
      </trkpt>
      <trkpt lat="42.5295890" lon="1.8234490">
        <ele>1479.6</ele>
        <time>2020-07-30T09:41:04Z</time>
      </trkpt>
      <trkpt lat="42.5295060" lon="1.8235340">
        <ele>1479.2</ele>
        <time>2020-07-30T09:41:05Z</time>
      </trkpt>
      <trkpt lat="42.5293350" lon="1.8237100">
        <ele>1478.6</ele>
        <time>2020-07-30T09:41:07Z</time>
      </trkpt>
      <trkpt lat="42.5291510" lon="1.8238850">
        <ele>1477.2</ele>
        <time>2020-07-30T09:41:09Z</time>
      </trkpt>
      <trkpt lat="42.5289450" lon="1.8240450">
        <ele>1475.8</ele>
        <time>2020-07-30T09:41:11Z</time>
      </trkpt>
      <trkpt lat="42.5287100" lon="1.8241660">
        <ele>1474.6</ele>
        <time>2020-07-30T09:41:13Z</time>
      </trkpt>
      <trkpt lat="42.5285840" lon="1.8242060">
        <ele>1473.6</ele>
        <time>2020-07-30T09:41:14Z</time>
      </trkpt>
      <trkpt lat="42.5284550" lon="1.8242330">
        <ele>1472.8</ele>
        <time>2020-07-30T09:41:15Z</time>
      </trkpt>
      <trkpt lat="42.5281930" lon="1.8242480">
        <ele>1471.2</ele>
        <time>2020-07-30T09:41:17Z</time>
      </trkpt>
      <trkpt lat="42.5280620" lon="1.8242410">
        <ele>1470.2</ele>
        <time>2020-07-30T09:41:18Z</time>
      </trkpt>
      <trkpt lat="42.5279310" lon="1.8242280">
        <ele>1469.0</ele>
        <time>2020-07-30T09:41:19Z</time>
      </trkpt>
      <trkpt lat="42.5278000" lon="1.8242090">
        <ele>1467.6</ele>
        <time>2020-07-30T09:41:20Z</time>
      </trkpt>
      <trkpt lat="42.5276700" lon="1.8241780">
        <ele>1466.0</ele>
        <time>2020-07-30T09:41:21Z</time>
      </trkpt>
      <trkpt lat="42.5275420" lon="1.8241330">
        <ele>1464.6</ele>
        <time>2020-07-30T09:41:22Z</time>
      </trkpt>
      <trkpt lat="42.5274170" lon="1.8240740">
        <ele>1462.8</ele>
        <time>2020-07-30T09:41:23Z</time>
      </trkpt>
      <trkpt lat="42.5272980" lon="1.8239980">
        <ele>1460.6</ele>
        <time>2020-07-30T09:41:24Z</time>
      </trkpt>
      <trkpt lat="42.5271870" lon="1.8239040">
        <ele>1458.4</ele>
        <time>2020-07-30T09:41:25Z</time>
      </trkpt>
      <trkpt lat="42.5270840" lon="1.8238020">
        <ele>1457.2</ele>
        <time>2020-07-30T09:41:26Z</time>
      </trkpt>
      <trkpt lat="42.5268850" lon="1.8236000">
        <ele>1455.6</ele>
        <time>2020-07-30T09:41:28Z</time>
      </trkpt>
      <trkpt lat="42.5267830" lon="1.8235110">
        <ele>1454.6</ele>
        <time>2020-07-30T09:41:29Z</time>
      </trkpt>
      <trkpt lat="42.5266780" lon="1.8234330">
        <ele>1453.4</ele>
        <time>2020-07-30T09:41:30Z</time>
      </trkpt>
      <trkpt lat="42.5265700" lon="1.8233670">
        <ele>1452.4</ele>
        <time>2020-07-30T09:41:31Z</time>
      </trkpt>
      <trkpt lat="42.5264620" lon="1.8233120">
        <ele>1449.4</ele>
        <time>2020-07-30T09:41:32Z</time>
      </trkpt>
      <trkpt lat="42.5262440" lon="1.8232270">
        <ele>1447.8</ele>
        <time>2020-07-30T09:41:34Z</time>
      </trkpt>
      <trkpt lat="42.5256260" lon="1.8230260">
        <ele>1446.8</ele>
        <time>2020-07-30T09:41:40Z</time>
      </trkpt>
      <trkpt lat="42.5255290" lon="1.8229950">
        <ele>1446.6</ele>
        <time>2020-07-30T09:41:41Z</time>
      </trkpt>
      <trkpt lat="42.5249820" lon="1.8228530">
        <ele>1446.0</ele>
        <time>2020-07-30T09:41:47Z</time>
      </trkpt>
      <trkpt lat="42.5244040" lon="1.8227090">
        <ele>1445.8</ele>
        <time>2020-07-30T09:41:54Z</time>
      </trkpt>
      <trkpt lat="42.5243260" lon="1.8226950">
        <ele>1445.8</ele>
        <time>2020-07-30T09:41:55Z</time>
      </trkpt>
      <trkpt lat="42.5239480" lon="1.8226970">
        <ele>1446.0</ele>
        <time>2020-07-30T09:42:00Z</time>
      </trkpt>
      <trkpt lat="42.5233630" lon="1.8228020">
        <ele>1447.0</ele>
        <time>2020-07-30T09:42:08Z</time>
      </trkpt>
      <trkpt lat="42.5232920" lon="1.8228150">
        <ele>1447.0</ele>
        <time>2020-07-30T09:42:09Z</time>
      </trkpt>
      <trkpt lat="42.5228040" lon="1.8228480">
        <ele>1447.4</ele>
        <time>2020-07-30T09:42:16Z</time>
      </trkpt>
      <trkpt lat="42.5224010" lon="1.8227690">
        <ele>1447.4</ele>
        <time>2020-07-30T09:42:22Z</time>
      </trkpt>
      <trkpt lat="42.5218260" lon="1.8225790">
        <ele>1447.8</ele>
        <time>2020-07-30T09:42:31Z</time>
      </trkpt>
      <trkpt lat="42.5217650" lon="1.8225470">
        <ele>1447.6</ele>
        <time>2020-07-30T09:42:32Z</time>
      </trkpt>
      <trkpt lat="42.5212040" lon="1.8222930">
        <ele>1447.8</ele>
        <time>2020-07-30T09:42:41Z</time>
      </trkpt>
      <trkpt lat="42.5208140" lon="1.8222410">
        <ele>1447.8</ele>
        <time>2020-07-30T09:42:47Z</time>
      </trkpt>
      <trkpt lat="42.5203580" lon="1.8223020">
        <ele>1448.0</ele>
        <time>2020-07-30T09:42:54Z</time>
      </trkpt>
      <trkpt lat="42.5198780" lon="1.8224550">
        <ele>1447.8</ele>
        <time>2020-07-30T09:43:01Z</time>
      </trkpt>
      <trkpt lat="42.5193660" lon="1.8226160">
        <ele>1447.2</ele>
        <time>2020-07-30T09:43:07Z</time>
      </trkpt>
      <trkpt lat="42.5189760" lon="1.8227320">
        <ele>1446.0</ele>
        <time>2020-07-30T09:43:11Z</time>
      </trkpt>
      <trkpt lat="42.5187660" lon="1.8227550">
        <ele>1445.0</ele>
        <time>2020-07-30T09:43:13Z</time>
      </trkpt>
      <trkpt lat="42.5186580" lon="1.8227520">
        <ele>1444.8</ele>
        <time>2020-07-30T09:43:14Z</time>
      </trkpt>
      <trkpt lat="42.5183330" lon="1.8227310">
        <ele>1443.2</ele>
        <time>2020-07-30T09:43:17Z</time>
      </trkpt>
      <trkpt lat="42.5182280" lon="1.8227370">
        <ele>1442.2</ele>
        <time>2020-07-30T09:43:18Z</time>
      </trkpt>
      <trkpt lat="42.5181260" lon="1.8227620">
        <ele>1441.6</ele>
        <time>2020-07-30T09:43:19Z</time>
      </trkpt>
      <trkpt lat="42.5179260" lon="1.8228440">
        <ele>1440.4</ele>
        <time>2020-07-30T09:43:21Z</time>
      </trkpt>
      <trkpt lat="42.5177240" lon="1.8229250">
        <ele>1438.4</ele>
        <time>2020-07-30T09:43:23Z</time>
      </trkpt>
      <trkpt lat="42.5176220" lon="1.8229660">
        <ele>1437.2</ele>
        <time>2020-07-30T09:43:24Z</time>
      </trkpt>
      <trkpt lat="42.5174280" lon="1.8230750">
        <ele>1435.4</ele>
        <time>2020-07-30T09:43:26Z</time>
      </trkpt>
      <trkpt lat="42.5173390" lon="1.8231500">
        <ele>1435.0</ele>
        <time>2020-07-30T09:43:27Z</time>
      </trkpt>
      <trkpt lat="42.5171740" lon="1.8233240">
        <ele>1434.0</ele>
        <time>2020-07-30T09:43:29Z</time>
      </trkpt>
      <trkpt lat="42.5170950" lon="1.8234200">
        <ele>1433.2</ele>
        <time>2020-07-30T09:43:30Z</time>
      </trkpt>
      <trkpt lat="42.5170140" lon="1.8235160">
        <ele>1432.2</ele>
        <time>2020-07-30T09:43:31Z</time>
      </trkpt>
      <trkpt lat="42.5168420" lon="1.8236910">
        <ele>1430.8</ele>
        <time>2020-07-30T09:43:33Z</time>
      </trkpt>
      <trkpt lat="42.5166550" lon="1.8238460">
        <ele>1429.4</ele>
        <time>2020-07-30T09:43:35Z</time>
      </trkpt>
      <trkpt lat="42.5165590" lon="1.8239150">
        <ele>1428.6</ele>
        <time>2020-07-30T09:43:36Z</time>
      </trkpt>
      <trkpt lat="42.5162590" lon="1.8241210">
        <ele>1427.8</ele>
        <time>2020-07-30T09:43:39Z</time>
      </trkpt>
      <trkpt lat="42.5159510" lon="1.8243190">
        <ele>1426.4</ele>
        <time>2020-07-30T09:43:42Z</time>
      </trkpt>
      <trkpt lat="42.5157340" lon="1.8244090">
        <ele>1425.6</ele>
        <time>2020-07-30T09:43:44Z</time>
      </trkpt>
      <trkpt lat="42.5156210" lon="1.8244320">
        <ele>1425.2</ele>
        <time>2020-07-30T09:43:45Z</time>
      </trkpt>
      <trkpt lat="42.5153870" lon="1.8244340">
        <ele>1424.4</ele>
        <time>2020-07-30T09:43:47Z</time>
      </trkpt>
      <trkpt lat="42.5152690" lon="1.8244150">
        <ele>1424.0</ele>
        <time>2020-07-30T09:43:48Z</time>
      </trkpt>
      <trkpt lat="42.5151520" lon="1.8243920">
        <ele>1423.8</ele>
        <time>2020-07-30T09:43:49Z</time>
      </trkpt>
      <trkpt lat="42.5150350" lon="1.8243690">
        <ele>1423.4</ele>
        <time>2020-07-30T09:43:50Z</time>
      </trkpt>
      <trkpt lat="42.5148140" lon="1.8243370">
        <ele>1422.2</ele>
        <time>2020-07-30T09:43:52Z</time>
      </trkpt>
      <trkpt lat="42.5147120" lon="1.8243120">
        <ele>1421.6</ele>
        <time>2020-07-30T09:43:53Z</time>
      </trkpt>
      <trkpt lat="42.5146180" lon="1.8242820">
        <ele>1420.6</ele>
        <time>2020-07-30T09:43:54Z</time>
      </trkpt>
      <trkpt lat="42.5144470" lon="1.8242080">
        <ele>1419.6</ele>
        <time>2020-07-30T09:43:56Z</time>
      </trkpt>
      <trkpt lat="42.5143600" lon="1.8242000">
        <ele>1418.8</ele>
        <time>2020-07-30T09:43:57Z</time>
      </trkpt>
      <trkpt lat="42.5142730" lon="1.8242180">
        <ele>1418.0</ele>
        <time>2020-07-30T09:43:58Z</time>
      </trkpt>
      <trkpt lat="42.5141040" lon="1.8243220">
        <ele>1417.4</ele>
        <time>2020-07-30T09:44:00Z</time>
      </trkpt>
      <trkpt lat="42.5140180" lon="1.8243960">
        <ele>1417.2</ele>
        <time>2020-07-30T09:44:01Z</time>
      </trkpt>
      <trkpt lat="42.5139280" lon="1.8244760">
        <ele>1416.6</ele>
        <time>2020-07-30T09:44:02Z</time>
      </trkpt>
      <trkpt lat="42.5136600" lon="1.8247390">
        <ele>1415.0</ele>
        <time>2020-07-30T09:44:05Z</time>
      </trkpt>
      <trkpt lat="42.5134690" lon="1.8251160">
        <ele>1414.0</ele>
        <time>2020-07-30T09:44:08Z</time>
      </trkpt>
      <trkpt lat="42.5132600" lon="1.8254840">
        <ele>1412.2</ele>
        <time>2020-07-30T09:44:11Z</time>
      </trkpt>
      <trkpt lat="42.5130730" lon="1.8256540">
        <ele>1410.6</ele>
        <time>2020-07-30T09:44:13Z</time>
      </trkpt>
      <trkpt lat="42.5128830" lon="1.8258240">
        <ele>1409.4</ele>
        <time>2020-07-30T09:44:15Z</time>
      </trkpt>
      <trkpt lat="42.5126960" lon="1.8259920">
        <ele>1407.6</ele>
        <time>2020-07-30T09:44:17Z</time>
      </trkpt>
      <trkpt lat="42.5126110" lon="1.8260880">
        <ele>1406.8</ele>
        <time>2020-07-30T09:44:18Z</time>
      </trkpt>
      <trkpt lat="42.5125390" lon="1.8261980">
        <ele>1406.0</ele>
        <time>2020-07-30T09:44:19Z</time>
      </trkpt>
      <trkpt lat="42.5124410" lon="1.8264630">
        <ele>1404.2</ele>
        <time>2020-07-30T09:44:21Z</time>
      </trkpt>
      <trkpt lat="42.5124160" lon="1.8266070">
        <ele>1403.8</ele>
        <time>2020-07-30T09:44:22Z</time>
      </trkpt>
      <trkpt lat="42.5124000" lon="1.8267550">
        <ele>1403.6</ele>
        <time>2020-07-30T09:44:23Z</time>
      </trkpt>
      <trkpt lat="42.5123760" lon="1.8269040">
        <ele>1403.0</ele>
        <time>2020-07-30T09:44:24Z</time>
      </trkpt>
      <trkpt lat="42.5123320" lon="1.8270440">
        <ele>1402.2</ele>
        <time>2020-07-30T09:44:25Z</time>
      </trkpt>
      <trkpt lat="42.5122640" lon="1.8271660">
        <ele>1401.8</ele>
        <time>2020-07-30T09:44:26Z</time>
      </trkpt>
      <trkpt lat="42.5121760" lon="1.8272660">
        <ele>1401.4</ele>
        <time>2020-07-30T09:44:27Z</time>
      </trkpt>
      <trkpt lat="42.5120800" lon="1.8273520">
        <ele>1400.8</ele>
        <time>2020-07-30T09:44:28Z</time>
      </trkpt>
      <trkpt lat="42.5119810" lon="1.8274330">
        <ele>1400.4</ele>
        <time>2020-07-30T09:44:29Z</time>
      </trkpt>
      <trkpt lat="42.5118810" lon="1.8275150">
        <ele>1400.0</ele>
        <time>2020-07-30T09:44:30Z</time>
      </trkpt>
      <trkpt lat="42.5116830" lon="1.8276830">
        <ele>1399.2</ele>
        <time>2020-07-30T09:44:32Z</time>
      </trkpt>
      <trkpt lat="42.5115830" lon="1.8277670">
        <ele>1398.8</ele>
        <time>2020-07-30T09:44:33Z</time>
      </trkpt>
      <trkpt lat="42.5113760" lon="1.8279410">
        <ele>1398.0</ele>
        <time>2020-07-30T09:44:35Z</time>
      </trkpt>
      <trkpt lat="42.5111690" lon="1.8281160">
        <ele>1396.8</ele>
        <time>2020-07-30T09:44:37Z</time>
      </trkpt>
      <trkpt lat="42.5109590" lon="1.8282920">
        <ele>1395.6</ele>
        <time>2020-07-30T09:44:39Z</time>
      </trkpt>
      <trkpt lat="42.5107560" lon="1.8284750">
        <ele>1394.4</ele>
        <time>2020-07-30T09:44:41Z</time>
      </trkpt>
      <trkpt lat="42.5106600" lon="1.8285790">
        <ele>1393.4</ele>
        <time>2020-07-30T09:44:42Z</time>
      </trkpt>
      <trkpt lat="42.5105720" lon="1.8286920">
        <ele>1392.0</ele>
        <time>2020-07-30T09:44:43Z</time>
      </trkpt>
      <trkpt lat="42.5104870" lon="1.8288100">
        <ele>1391.0</ele>
        <time>2020-07-30T09:44:44Z</time>
      </trkpt>
      <trkpt lat="42.5103270" lon="1.8290530">
        <ele>1389.8</ele>
        <time>2020-07-30T09:44:46Z</time>
      </trkpt>
      <trkpt lat="42.5102560" lon="1.8291830">
        <ele>1389.2</ele>
        <time>2020-07-30T09:44:47Z</time>
      </trkpt>
      <trkpt lat="42.5101910" lon="1.8293190">
        <ele>1387.8</ele>
        <time>2020-07-30T09:44:48Z</time>
      </trkpt>
      <trkpt lat="42.5100700" lon="1.8295990">
        <ele>1386.4</ele>
        <time>2020-07-30T09:44:50Z</time>
      </trkpt>
      <trkpt lat="42.5099430" lon="1.8298700">
        <ele>1384.6</ele>
        <time>2020-07-30T09:44:52Z</time>
      </trkpt>
      <trkpt lat="42.5098050" lon="1.8301200">
        <ele>1383.2</ele>
        <time>2020-07-30T09:44:54Z</time>
      </trkpt>
      <trkpt lat="42.5095960" lon="1.8304700">
        <ele>1381.8</ele>
        <time>2020-07-30T09:44:57Z</time>
      </trkpt>
      <trkpt lat="42.5095220" lon="1.8305740">
        <ele>1381.4</ele>
        <time>2020-07-30T09:44:58Z</time>
      </trkpt>
      <trkpt lat="42.5092930" lon="1.8308600">
        <ele>1380.8</ele>
        <time>2020-07-30T09:45:01Z</time>
      </trkpt>
      <trkpt lat="42.5090690" lon="1.8311310">
        <ele>1380.4</ele>
        <time>2020-07-30T09:45:04Z</time>
      </trkpt>
      <trkpt lat="42.5086080" lon="1.8316200">
        <ele>1380.8</ele>
        <time>2020-07-30T09:45:10Z</time>
      </trkpt>
      <trkpt lat="42.5081210" lon="1.8319870">
        <ele>1380.4</ele>
        <time>2020-07-30T09:45:16Z</time>
      </trkpt>
      <trkpt lat="42.5080420" lon="1.8320540">
        <ele>1380.4</ele>
        <time>2020-07-30T09:45:17Z</time>
      </trkpt>
      <trkpt lat="42.5076490" lon="1.8323810">
        <ele>1379.8</ele>
        <time>2020-07-30T09:45:22Z</time>
      </trkpt>
      <trkpt lat="42.5072580" lon="1.8327020">
        <ele>1379.4</ele>
        <time>2020-07-30T09:45:27Z</time>
      </trkpt>
      <trkpt lat="42.5069440" lon="1.8329560">
        <ele>1378.8</ele>
        <time>2020-07-30T09:45:31Z</time>
      </trkpt>
      <trkpt lat="42.5066400" lon="1.8332150">
        <ele>1378.2</ele>
        <time>2020-07-30T09:45:35Z</time>
      </trkpt>
      <trkpt lat="42.5062160" lon="1.8336270">
        <ele>1377.8</ele>
        <time>2020-07-30T09:45:41Z</time>
      </trkpt>
      <trkpt lat="42.5061460" lon="1.8336980">
        <ele>1377.6</ele>
        <time>2020-07-30T09:45:42Z</time>
      </trkpt>
      <trkpt lat="42.5056890" lon="1.8340570">
        <ele>1376.8</ele>
        <time>2020-07-30T09:45:48Z</time>
      </trkpt>
      <trkpt lat="42.5051660" lon="1.8344250">
        <ele>1375.8</ele>
        <time>2020-07-30T09:45:55Z</time>
      </trkpt>
      <trkpt lat="42.5050930" lon="1.8344750">
        <ele>1375.8</ele>
        <time>2020-07-30T09:45:56Z</time>
      </trkpt>
      <trkpt lat="42.5047270" lon="1.8347550">
        <ele>1375.6</ele>
        <time>2020-07-30T09:46:01Z</time>
      </trkpt>
      <trkpt lat="42.5045800" lon="1.8348720">
        <ele>1375.6</ele>
        <time>2020-07-30T09:46:03Z</time>
      </trkpt>
      <trkpt lat="42.5040630" lon="1.8352870">
        <ele>1375.2</ele>
        <time>2020-07-30T09:46:10Z</time>
      </trkpt>
      <trkpt lat="42.5038540" lon="1.8354800">
        <ele>1374.6</ele>
        <time>2020-07-30T09:46:13Z</time>
      </trkpt>
      <trkpt lat="42.5037860" lon="1.8355490">
        <ele>1374.4</ele>
        <time>2020-07-30T09:46:14Z</time>
      </trkpt>
      <trkpt lat="42.5034610" lon="1.8359020">
        <ele>1373.8</ele>
        <time>2020-07-30T09:46:19Z</time>
      </trkpt>
      <trkpt lat="42.5033040" lon="1.8359160">
        <ele>1373.6</ele>
        <time>2020-07-30T09:46:21Z</time>
      </trkpt>
      <trkpt lat="42.5032290" lon="1.8358770">
        <ele>1373.4</ele>
        <time>2020-07-30T09:46:22Z</time>
      </trkpt>
      <trkpt lat="42.5030770" lon="1.8358140">
        <ele>1373.0</ele>
        <time>2020-07-30T09:46:24Z</time>
      </trkpt>
      <trkpt lat="42.5028330" lon="1.8358550">
        <ele>1372.8</ele>
        <time>2020-07-30T09:46:27Z</time>
      </trkpt>
      <trkpt lat="42.5027500" lon="1.8358910">
        <ele>1372.6</ele>
        <time>2020-07-30T09:46:28Z</time>
      </trkpt>
      <trkpt lat="42.5024960" lon="1.8360180">
        <ele>1372.4</ele>
        <time>2020-07-30T09:46:31Z</time>
      </trkpt>
      <trkpt lat="42.5023260" lon="1.8361240">
        <ele>1372.2</ele>
        <time>2020-07-30T09:46:33Z</time>
      </trkpt>
      <trkpt lat="42.5021630" lon="1.8362650">
        <ele>1371.4</ele>
        <time>2020-07-30T09:46:35Z</time>
      </trkpt>
      <trkpt lat="42.5019090" lon="1.8364920">
        <ele>1370.0</ele>
        <time>2020-07-30T09:46:38Z</time>
      </trkpt>
      <trkpt lat="42.5017280" lon="1.8366280">
        <ele>1369.0</ele>
        <time>2020-07-30T09:46:40Z</time>
      </trkpt>
      <trkpt lat="42.5015430" lon="1.8367600">
        <ele>1367.8</ele>
        <time>2020-07-30T09:46:42Z</time>
      </trkpt>
      <trkpt lat="42.5013550" lon="1.8369020">
        <ele>1366.4</ele>
        <time>2020-07-30T09:46:44Z</time>
      </trkpt>
      <trkpt lat="42.5012600" lon="1.8369750">
        <ele>1365.6</ele>
        <time>2020-07-30T09:46:45Z</time>
      </trkpt>
      <trkpt lat="42.5011650" lon="1.8370490">
        <ele>1365.2</ele>
        <time>2020-07-30T09:46:46Z</time>
      </trkpt>
      <trkpt lat="42.5008900" lon="1.8372800">
        <ele>1363.6</ele>
        <time>2020-07-30T09:46:49Z</time>
      </trkpt>
      <trkpt lat="42.5006120" lon="1.8375340">
        <ele>1361.8</ele>
        <time>2020-07-30T09:46:52Z</time>
      </trkpt>
      <trkpt lat="42.5004240" lon="1.8377050">
        <ele>1360.0</ele>
        <time>2020-07-30T09:46:54Z</time>
      </trkpt>
      <trkpt lat="42.5002300" lon="1.8378820">
        <ele>1358.8</ele>
        <time>2020-07-30T09:46:56Z</time>
      </trkpt>
      <trkpt lat="42.4999400" lon="1.8381540">
        <ele>1357.6</ele>
        <time>2020-07-30T09:46:59Z</time>
      </trkpt>
      <trkpt lat="42.4997430" lon="1.8383400">
        <ele>1356.4</ele>
        <time>2020-07-30T09:47:01Z</time>
      </trkpt>
      <trkpt lat="42.4995490" lon="1.8385190">
        <ele>1355.4</ele>
        <time>2020-07-30T09:47:03Z</time>
      </trkpt>
      <trkpt lat="42.4993550" lon="1.8387080">
        <ele>1354.2</ele>
        <time>2020-07-30T09:47:05Z</time>
      </trkpt>
      <trkpt lat="42.4992620" lon="1.8388040">
        <ele>1353.4</ele>
        <time>2020-07-30T09:47:06Z</time>
      </trkpt>
      <trkpt lat="42.4991720" lon="1.8389120">
        <ele>1352.4</ele>
        <time>2020-07-30T09:47:07Z</time>
      </trkpt>
      <trkpt lat="42.4990330" lon="1.8391770">
        <ele>1350.0</ele>
        <time>2020-07-30T09:47:09Z</time>
      </trkpt>
      <trkpt lat="42.4989420" lon="1.8396610">
        <ele>1349.2</ele>
        <time>2020-07-30T09:47:12Z</time>
      </trkpt>
      <trkpt lat="42.4989270" lon="1.8398280">
        <ele>1348.8</ele>
        <time>2020-07-30T09:47:13Z</time>
      </trkpt>
      <trkpt lat="42.4988850" lon="1.8403240">
        <ele>1347.2</ele>
        <time>2020-07-30T09:47:16Z</time>
      </trkpt>
      <trkpt lat="42.4988600" lon="1.8406540">
        <ele>1345.8</ele>
        <time>2020-07-30T09:47:18Z</time>
      </trkpt>
      <trkpt lat="42.4988300" lon="1.8407970">
        <ele>1345.4</ele>
        <time>2020-07-30T09:47:19Z</time>
      </trkpt>
      <trkpt lat="42.4987610" lon="1.8410960">
        <ele>1344.0</ele>
        <time>2020-07-30T09:47:21Z</time>
      </trkpt>
      <trkpt lat="42.4987130" lon="1.8412510">
        <ele>1342.8</ele>
        <time>2020-07-30T09:47:22Z</time>
      </trkpt>
      <trkpt lat="42.4986570" lon="1.8414020">
        <ele>1342.2</ele>
        <time>2020-07-30T09:47:23Z</time>
      </trkpt>
      <trkpt lat="42.4985950" lon="1.8415500">
        <ele>1341.6</ele>
        <time>2020-07-30T09:47:24Z</time>
      </trkpt>
      <trkpt lat="42.4984530" lon="1.8418330">
        <ele>1340.6</ele>
        <time>2020-07-30T09:47:26Z</time>
      </trkpt>
      <trkpt lat="42.4983700" lon="1.8419620">
        <ele>1339.8</ele>
        <time>2020-07-30T09:47:27Z</time>
      </trkpt>
      <trkpt lat="42.4982810" lon="1.8420800">
        <ele>1339.2</ele>
        <time>2020-07-30T09:47:28Z</time>
      </trkpt>
      <trkpt lat="42.4980050" lon="1.8424080">
        <ele>1337.8</ele>
        <time>2020-07-30T09:47:31Z</time>
      </trkpt>
      <trkpt lat="42.4978300" lon="1.8426400">
        <ele>1336.6</ele>
        <time>2020-07-30T09:47:33Z</time>
      </trkpt>
      <trkpt lat="42.4977590" lon="1.8427780">
        <ele>1335.8</ele>
        <time>2020-07-30T09:47:34Z</time>
      </trkpt>
      <trkpt lat="42.4976980" lon="1.8429220">
        <ele>1334.8</ele>
        <time>2020-07-30T09:47:35Z</time>
      </trkpt>
      <trkpt lat="42.4975790" lon="1.8432150">
        <ele>1332.8</ele>
        <time>2020-07-30T09:47:37Z</time>
      </trkpt>
      <trkpt lat="42.4975200" lon="1.8433610">
        <ele>1331.6</ele>
        <time>2020-07-30T09:47:38Z</time>
      </trkpt>
      <trkpt lat="42.4973440" lon="1.8438090">
        <ele>1330.6</ele>
        <time>2020-07-30T09:47:41Z</time>
      </trkpt>
      <trkpt lat="42.4971340" lon="1.8444290">
        <ele>1329.0</ele>
        <time>2020-07-30T09:47:45Z</time>
      </trkpt>
      <trkpt lat="42.4970480" lon="1.8447500">
        <ele>1327.6</ele>
        <time>2020-07-30T09:47:47Z</time>
      </trkpt>
      <trkpt lat="42.4969610" lon="1.8450610">
        <ele>1326.4</ele>
        <time>2020-07-30T09:47:49Z</time>
      </trkpt>
      <trkpt lat="42.4968740" lon="1.8453680">
        <ele>1324.4</ele>
        <time>2020-07-30T09:47:51Z</time>
      </trkpt>
      <trkpt lat="42.4967730" lon="1.8456660">
        <ele>1323.0</ele>
        <time>2020-07-30T09:47:53Z</time>
      </trkpt>
      <trkpt lat="42.4967100" lon="1.8458050">
        <ele>1322.2</ele>
        <time>2020-07-30T09:47:54Z</time>
      </trkpt>
      <trkpt lat="42.4966400" lon="1.8459400">
        <ele>1321.8</ele>
        <time>2020-07-30T09:47:55Z</time>
      </trkpt>
      <trkpt lat="42.4964990" lon="1.8462130">
        <ele>1320.6</ele>
        <time>2020-07-30T09:47:57Z</time>
      </trkpt>
      <trkpt lat="42.4963550" lon="1.8464830">
        <ele>1318.8</ele>
        <time>2020-07-30T09:47:59Z</time>
      </trkpt>
      <trkpt lat="42.4962800" lon="1.8466120">
        <ele>1318.0</ele>
        <time>2020-07-30T09:48:00Z</time>
      </trkpt>
      <trkpt lat="42.4962090" lon="1.8467440">
        <ele>1317.6</ele>
        <time>2020-07-30T09:48:01Z</time>
      </trkpt>
      <trkpt lat="42.4961470" lon="1.8468830">
        <ele>1317.2</ele>
        <time>2020-07-30T09:48:02Z</time>
      </trkpt>
      <trkpt lat="42.4960990" lon="1.8470300">
        <ele>1316.4</ele>
        <time>2020-07-30T09:48:03Z</time>
      </trkpt>
      <trkpt lat="42.4960640" lon="1.8473410">
        <ele>1314.8</ele>
        <time>2020-07-30T09:48:05Z</time>
      </trkpt>
      <trkpt lat="42.4960530" lon="1.8474930">
        <ele>1314.2</ele>
        <time>2020-07-30T09:48:06Z</time>
      </trkpt>
      <trkpt lat="42.4960130" lon="1.8476280">
        <ele>1313.6</ele>
        <time>2020-07-30T09:48:07Z</time>
      </trkpt>
      <trkpt lat="42.4959420" lon="1.8477340">
        <ele>1313.2</ele>
        <time>2020-07-30T09:48:08Z</time>
      </trkpt>
      <trkpt lat="42.4957520" lon="1.8478580">
        <ele>1312.4</ele>
        <time>2020-07-30T09:48:10Z</time>
      </trkpt>
      <trkpt lat="42.4956500" lon="1.8478980">
        <ele>1312.2</ele>
        <time>2020-07-30T09:48:11Z</time>
      </trkpt>
      <trkpt lat="42.4951370" lon="1.8481110">
        <ele>1311.4</ele>
        <time>2020-07-30T09:48:16Z</time>
      </trkpt>
      <trkpt lat="42.4949400" lon="1.8482220">
        <ele>1310.2</ele>
        <time>2020-07-30T09:48:18Z</time>
      </trkpt>
      <trkpt lat="42.4946820" lon="1.8484700">
        <ele>1309.0</ele>
        <time>2020-07-30T09:48:21Z</time>
      </trkpt>
      <trkpt lat="42.4946020" lon="1.8485670">
        <ele>1309.0</ele>
        <time>2020-07-30T09:48:22Z</time>
      </trkpt>
      <trkpt lat="42.4943690" lon="1.8488620">
        <ele>1308.0</ele>
        <time>2020-07-30T09:48:25Z</time>
      </trkpt>
      <trkpt lat="42.4940670" lon="1.8492530">
        <ele>1306.4</ele>
        <time>2020-07-30T09:48:29Z</time>
      </trkpt>
      <trkpt lat="42.4939910" lon="1.8493500">
        <ele>1305.6</ele>
        <time>2020-07-30T09:48:30Z</time>
      </trkpt>
      <trkpt lat="42.4939160" lon="1.8494470">
        <ele>1304.4</ele>
        <time>2020-07-30T09:48:31Z</time>
      </trkpt>
      <trkpt lat="42.4938420" lon="1.8495430">
        <ele>1303.4</ele>
        <time>2020-07-30T09:48:32Z</time>
      </trkpt>
      <trkpt lat="42.4935530" lon="1.8499450">
        <ele>1302.4</ele>
        <time>2020-07-30T09:48:36Z</time>
      </trkpt>
      <trkpt lat="42.4934810" lon="1.8500500">
        <ele>1302.2</ele>
        <time>2020-07-30T09:48:37Z</time>
      </trkpt>
      <trkpt lat="42.4933370" lon="1.8502590">
        <ele>1301.4</ele>
        <time>2020-07-30T09:48:39Z</time>
      </trkpt>
      <trkpt lat="42.4929780" lon="1.8507950">
        <ele>1300.4</ele>
        <time>2020-07-30T09:48:44Z</time>
      </trkpt>
      <trkpt lat="42.4928400" lon="1.8510190">
        <ele>1299.2</ele>
        <time>2020-07-30T09:48:46Z</time>
      </trkpt>
      <trkpt lat="42.4927740" lon="1.8511330">
        <ele>1299.0</ele>
        <time>2020-07-30T09:48:47Z</time>
      </trkpt>
      <trkpt lat="42.4925840" lon="1.8514820">
        <ele>1298.2</ele>
        <time>2020-07-30T09:48:50Z</time>
      </trkpt>
      <trkpt lat="42.4923290" lon="1.8519420">
        <ele>1296.8</ele>
        <time>2020-07-30T09:48:54Z</time>
      </trkpt>
      <trkpt lat="42.4921720" lon="1.8521260">
        <ele>1295.6</ele>
        <time>2020-07-30T09:48:56Z</time>
      </trkpt>
      <trkpt lat="42.4920870" lon="1.8522020">
        <ele>1295.0</ele>
        <time>2020-07-30T09:48:57Z</time>
      </trkpt>
      <trkpt lat="42.4920000" lon="1.8522730">
        <ele>1294.2</ele>
        <time>2020-07-30T09:48:58Z</time>
      </trkpt>
      <trkpt lat="42.4918280" lon="1.8524050">
        <ele>1293.2</ele>
        <time>2020-07-30T09:49:00Z</time>
      </trkpt>
      <trkpt lat="42.4914890" lon="1.8526710">
        <ele>1292.2</ele>
        <time>2020-07-30T09:49:04Z</time>
      </trkpt>
      <trkpt lat="42.4909920" lon="1.8530640">
        <ele>1291.4</ele>
        <time>2020-07-30T09:49:10Z</time>
      </trkpt>
      <trkpt lat="42.4909110" lon="1.8531270">
        <ele>1291.2</ele>
        <time>2020-07-30T09:49:11Z</time>
      </trkpt>
      <trkpt lat="42.4905140" lon="1.8534550">
        <ele>1290.0</ele>
        <time>2020-07-30T09:49:16Z</time>
      </trkpt>
      <trkpt lat="42.4904410" lon="1.8535350">
        <ele>1289.8</ele>
        <time>2020-07-30T09:49:17Z</time>
      </trkpt>
      <trkpt lat="42.4901050" lon="1.8540030">
        <ele>1289.2</ele>
        <time>2020-07-30T09:49:22Z</time>
      </trkpt>
      <trkpt lat="42.4899670" lon="1.8542020">
        <ele>1289.0</ele>
        <time>2020-07-30T09:49:24Z</time>
      </trkpt>
      <trkpt lat="42.4896180" lon="1.8547280">
        <ele>1287.8</ele>
        <time>2020-07-30T09:49:29Z</time>
      </trkpt>
      <trkpt lat="42.4894770" lon="1.8549490">
        <ele>1287.2</ele>
        <time>2020-07-30T09:49:31Z</time>
      </trkpt>
      <trkpt lat="42.4894050" lon="1.8550610">
        <ele>1286.6</ele>
        <time>2020-07-30T09:49:32Z</time>
      </trkpt>
      <trkpt lat="42.4891800" lon="1.8553990">
        <ele>1285.4</ele>
        <time>2020-07-30T09:49:35Z</time>
      </trkpt>
      <trkpt lat="42.4889300" lon="1.8557140">
        <ele>1284.4</ele>
        <time>2020-07-30T09:49:38Z</time>
      </trkpt>
      <trkpt lat="42.4888440" lon="1.8558140">
        <ele>1283.8</ele>
        <time>2020-07-30T09:49:39Z</time>
      </trkpt>
      <trkpt lat="42.4886690" lon="1.8560090">
        <ele>1282.8</ele>
        <time>2020-07-30T09:49:41Z</time>
      </trkpt>
      <trkpt lat="42.4884920" lon="1.8562040">
        <ele>1281.6</ele>
        <time>2020-07-30T09:49:43Z</time>
      </trkpt>
      <trkpt lat="42.4883030" lon="1.8563840">
        <ele>1280.0</ele>
        <time>2020-07-30T09:49:45Z</time>
      </trkpt>
      <trkpt lat="42.4881980" lon="1.8564470">
        <ele>1279.4</ele>
        <time>2020-07-30T09:49:46Z</time>
      </trkpt>
      <trkpt lat="42.4880870" lon="1.8564900">
        <ele>1278.8</ele>
        <time>2020-07-30T09:49:47Z</time>
      </trkpt>
      <trkpt lat="42.4877420" lon="1.8565720">
        <ele>1278.0</ele>
        <time>2020-07-30T09:49:50Z</time>
      </trkpt>
      <trkpt lat="42.4876270" lon="1.8565970">
        <ele>1277.6</ele>
        <time>2020-07-30T09:49:51Z</time>
      </trkpt>
      <trkpt lat="42.4872870" lon="1.8566740">
        <ele>1276.2</ele>
        <time>2020-07-30T09:49:54Z</time>
      </trkpt>
      <trkpt lat="42.4870650" lon="1.8567250">
        <ele>1275.2</ele>
        <time>2020-07-30T09:49:56Z</time>
      </trkpt>
      <trkpt lat="42.4868560" lon="1.8567930">
        <ele>1273.8</ele>
        <time>2020-07-30T09:49:58Z</time>
      </trkpt>
      <trkpt lat="42.4867660" lon="1.8568640">
        <ele>1272.4</ele>
        <time>2020-07-30T09:49:59Z</time>
      </trkpt>
      <trkpt lat="42.4866920" lon="1.8569600">
        <ele>1272.0</ele>
        <time>2020-07-30T09:50:00Z</time>
      </trkpt>
      <trkpt lat="42.4866350" lon="1.8570750">
        <ele>1271.2</ele>
        <time>2020-07-30T09:50:01Z</time>
      </trkpt>
      <trkpt lat="42.4865990" lon="1.8572070">
        <ele>1270.6</ele>
        <time>2020-07-30T09:50:02Z</time>
      </trkpt>
      <trkpt lat="42.4865610" lon="1.8574950">
        <ele>1270.0</ele>
        <time>2020-07-30T09:50:04Z</time>
      </trkpt>
      <trkpt lat="42.4865170" lon="1.8577880">
        <ele>1269.8</ele>
        <time>2020-07-30T09:50:06Z</time>
      </trkpt>
      <trkpt lat="42.4864800" lon="1.8579300">
        <ele>1269.6</ele>
        <time>2020-07-30T09:50:07Z</time>
      </trkpt>
      <trkpt lat="42.4863520" lon="1.8581770">
        <ele>1269.4</ele>
        <time>2020-07-30T09:50:09Z</time>
      </trkpt>
      <trkpt lat="42.4861730" lon="1.8583840">
        <ele>1268.8</ele>
        <time>2020-07-30T09:50:11Z</time>
      </trkpt>
      <trkpt lat="42.4859870" lon="1.8585780">
        <ele>1267.8</ele>
        <time>2020-07-30T09:50:13Z</time>
      </trkpt>
      <trkpt lat="42.4858930" lon="1.8586750">
        <ele>1267.4</ele>
        <time>2020-07-30T09:50:14Z</time>
      </trkpt>
      <trkpt lat="42.4856980" lon="1.8588570">
        <ele>1266.4</ele>
        <time>2020-07-30T09:50:16Z</time>
      </trkpt>
      <trkpt lat="42.4854930" lon="1.8590210">
        <ele>1265.2</ele>
        <time>2020-07-30T09:50:18Z</time>
      </trkpt>
      <trkpt lat="42.4853890" lon="1.8591020">
        <ele>1264.8</ele>
        <time>2020-07-30T09:50:19Z</time>
      </trkpt>
      <trkpt lat="42.4851820" lon="1.8592600">
        <ele>1264.2</ele>
        <time>2020-07-30T09:50:21Z</time>
      </trkpt>
      <trkpt lat="42.4849730" lon="1.8594210">
        <ele>1263.0</ele>
        <time>2020-07-30T09:50:23Z</time>
      </trkpt>
      <trkpt lat="42.4846520" lon="1.8596510">
        <ele>1261.6</ele>
        <time>2020-07-30T09:50:26Z</time>
      </trkpt>
      <trkpt lat="42.4845400" lon="1.8597150">
        <ele>1260.4</ele>
        <time>2020-07-30T09:50:27Z</time>
      </trkpt>
      <trkpt lat="42.4841980" lon="1.8598920">
        <ele>1259.4</ele>
        <time>2020-07-30T09:50:30Z</time>
      </trkpt>
      <trkpt lat="42.4839810" lon="1.8600290">
        <ele>1258.4</ele>
        <time>2020-07-30T09:50:32Z</time>
      </trkpt>
      <trkpt lat="42.4838810" lon="1.8601150">
        <ele>1257.8</ele>
        <time>2020-07-30T09:50:33Z</time>
      </trkpt>
      <trkpt lat="42.4837880" lon="1.8602170">
        <ele>1257.2</ele>
        <time>2020-07-30T09:50:34Z</time>
      </trkpt>
      <trkpt lat="42.4835260" lon="1.8605520">
        <ele>1256.6</ele>
        <time>2020-07-30T09:50:37Z</time>
      </trkpt>
      <trkpt lat="42.4833540" lon="1.8607790">
        <ele>1256.2</ele>
        <time>2020-07-30T09:50:39Z</time>
      </trkpt>
      <trkpt lat="42.4828960" lon="1.8613000">
        <ele>1254.8</ele>
        <time>2020-07-30T09:50:44Z</time>
      </trkpt>
      <trkpt lat="42.4827030" lon="1.8614920">
        <ele>1253.6</ele>
        <time>2020-07-30T09:50:46Z</time>
      </trkpt>
      <trkpt lat="42.4826130" lon="1.8615970">
        <ele>1252.8</ele>
        <time>2020-07-30T09:50:47Z</time>
      </trkpt>
      <trkpt lat="42.4825330" lon="1.8617140">
        <ele>1252.4</ele>
        <time>2020-07-30T09:50:48Z</time>
      </trkpt>
      <trkpt lat="42.4824610" lon="1.8618420">
        <ele>1252.2</ele>
        <time>2020-07-30T09:50:49Z</time>
      </trkpt>
      <trkpt lat="42.4823360" lon="1.8621150">
        <ele>1251.6</ele>
        <time>2020-07-30T09:50:51Z</time>
      </trkpt>
      <trkpt lat="42.4822740" lon="1.8622510">
        <ele>1251.4</ele>
        <time>2020-07-30T09:50:52Z</time>
      </trkpt>
      <trkpt lat="42.4821400" lon="1.8625140">
        <ele>1250.8</ele>
        <time>2020-07-30T09:50:54Z</time>
      </trkpt>
      <trkpt lat="42.4819660" lon="1.8627210">
        <ele>1250.2</ele>
        <time>2020-07-30T09:50:56Z</time>
      </trkpt>
      <trkpt lat="42.4818620" lon="1.8627890">
        <ele>1249.4</ele>
        <time>2020-07-30T09:50:57Z</time>
      </trkpt>
      <trkpt lat="42.4817530" lon="1.8628410">
        <ele>1248.8</ele>
        <time>2020-07-30T09:50:58Z</time>
      </trkpt>
      <trkpt lat="42.4815290" lon="1.8629180">
        <ele>1247.4</ele>
        <time>2020-07-30T09:51:00Z</time>
      </trkpt>
      <trkpt lat="42.4814170" lon="1.8629560">
        <ele>1247.0</ele>
        <time>2020-07-30T09:51:01Z</time>
      </trkpt>
      <trkpt lat="42.4810990" lon="1.8630980">
        <ele>1246.2</ele>
        <time>2020-07-30T09:51:04Z</time>
      </trkpt>
      <trkpt lat="42.4810000" lon="1.8631590">
        <ele>1246.0</ele>
        <time>2020-07-30T09:51:05Z</time>
      </trkpt>
      <trkpt lat="42.4807100" lon="1.8633650">
        <ele>1244.8</ele>
        <time>2020-07-30T09:51:08Z</time>
      </trkpt>
      <trkpt lat="42.4805210" lon="1.8635100">
        <ele>1243.8</ele>
        <time>2020-07-30T09:51:10Z</time>
      </trkpt>
      <trkpt lat="42.4803360" lon="1.8636500">
        <ele>1243.4</ele>
        <time>2020-07-30T09:51:12Z</time>
      </trkpt>
      <trkpt lat="42.4799020" lon="1.8640510">
        <ele>1242.8</ele>
        <time>2020-07-30T09:51:17Z</time>
      </trkpt>
      <trkpt lat="42.4798190" lon="1.8641410">
        <ele>1242.6</ele>
        <time>2020-07-30T09:51:18Z</time>
      </trkpt>
      <trkpt lat="42.4795120" lon="1.8645390">
        <ele>1241.8</ele>
        <time>2020-07-30T09:51:22Z</time>
      </trkpt>
      <trkpt lat="42.4794370" lon="1.8646420">
        <ele>1241.2</ele>
        <time>2020-07-30T09:51:23Z</time>
      </trkpt>
      <trkpt lat="42.4793000" lon="1.8648600">
        <ele>1240.6</ele>
        <time>2020-07-30T09:51:25Z</time>
      </trkpt>
      <trkpt lat="42.4791260" lon="1.8652200">
        <ele>1239.6</ele>
        <time>2020-07-30T09:51:28Z</time>
      </trkpt>
      <trkpt lat="42.4788070" lon="1.8659670">
        <ele>1238.8</ele>
        <time>2020-07-30T09:51:34Z</time>
      </trkpt>
      <trkpt lat="42.4786950" lon="1.8662120">
        <ele>1238.4</ele>
        <time>2020-07-30T09:51:36Z</time>
      </trkpt>
      <trkpt lat="42.4786380" lon="1.8663320">
        <ele>1238.0</ele>
        <time>2020-07-30T09:51:37Z</time>
      </trkpt>
      <trkpt lat="42.4785230" lon="1.8665720">
        <ele>1237.4</ele>
        <time>2020-07-30T09:51:39Z</time>
      </trkpt>
      <trkpt lat="42.4784060" lon="1.8668060">
        <ele>1236.2</ele>
        <time>2020-07-30T09:51:41Z</time>
      </trkpt>
      <trkpt lat="42.4782900" lon="1.8670410">
        <ele>1235.0</ele>
        <time>2020-07-30T09:51:43Z</time>
      </trkpt>
      <trkpt lat="42.4781200" lon="1.8673960">
        <ele>1233.8</ele>
        <time>2020-07-30T09:51:46Z</time>
      </trkpt>
      <trkpt lat="42.4778860" lon="1.8678590">
        <ele>1232.8</ele>
        <time>2020-07-30T09:51:50Z</time>
      </trkpt>
      <trkpt lat="42.4775380" lon="1.8685170">
        <ele>1231.8</ele>
        <time>2020-07-30T09:51:56Z</time>
      </trkpt>
      <trkpt lat="42.4773790" lon="1.8688260">
        <ele>1230.8</ele>
        <time>2020-07-30T09:51:59Z</time>
      </trkpt>
      <trkpt lat="42.4771860" lon="1.8692220">
        <ele>1230.4</ele>
        <time>2020-07-30T09:52:03Z</time>
      </trkpt>
      <trkpt lat="42.4770620" lon="1.8695130">
        <ele>1230.4</ele>
        <time>2020-07-30T09:52:06Z</time>
      </trkpt>
      <trkpt lat="42.4770080" lon="1.8697170">
        <ele>1230.4</ele>
        <time>2020-07-30T09:52:08Z</time>
      </trkpt>
      <trkpt lat="42.4768860" lon="1.8703480">
        <ele>1230.6</ele>
        <time>2020-07-30T09:52:14Z</time>
      </trkpt>
      <trkpt lat="42.4768540" lon="1.8704460">
        <ele>1230.6</ele>
        <time>2020-07-30T09:52:15Z</time>
      </trkpt>
      <trkpt lat="42.4766440" lon="1.8708850">
        <ele>1231.0</ele>
        <time>2020-07-30T09:52:20Z</time>
      </trkpt>
      <trkpt lat="42.4763010" lon="1.8715500">
        <ele>1231.0</ele>
        <time>2020-07-30T09:52:28Z</time>
      </trkpt>
      <trkpt lat="42.4761760" lon="1.8717920">
        <ele>1231.0</ele>
        <time>2020-07-30T09:52:31Z</time>
      </trkpt>
      <trkpt lat="42.4758540" lon="1.8724060">
        <ele>1231.0</ele>
        <time>2020-07-30T09:52:39Z</time>
      </trkpt>
      <trkpt lat="42.4758160" lon="1.8724790">
        <ele>1231.0</ele>
        <time>2020-07-30T09:52:40Z</time>
      </trkpt>
      <trkpt lat="42.4755310" lon="1.8730250">
        <ele>1231.6</ele>
        <time>2020-07-30T09:52:48Z</time>
      </trkpt>
      <trkpt lat="42.4754650" lon="1.8731540">
        <ele>1231.6</ele>
        <time>2020-07-30T09:52:50Z</time>
      </trkpt>
      <trkpt lat="42.4751840" lon="1.8736980">
        <ele>1232.0</ele>
        <time>2020-07-30T09:52:58Z</time>
      </trkpt>
      <trkpt lat="42.4748740" lon="1.8742990">
        <ele>1232.0</ele>
        <time>2020-07-30T09:53:06Z</time>
      </trkpt>
      <trkpt lat="42.4748330" lon="1.8743760">
        <ele>1232.0</ele>
        <time>2020-07-30T09:53:07Z</time>
      </trkpt>
      <trkpt lat="42.4745060" lon="1.8750460">
        <ele>1231.0</ele>
        <time>2020-07-30T09:53:15Z</time>
      </trkpt>
      <trkpt lat="42.4744650" lon="1.8751320">
        <ele>1231.0</ele>
        <time>2020-07-30T09:53:16Z</time>
      </trkpt>
      <trkpt lat="42.4741530" lon="1.8757740">
        <ele>1230.4</ele>
        <time>2020-07-30T09:53:24Z</time>
      </trkpt>
      <trkpt lat="42.4738900" lon="1.8763700">
        <ele>1229.8</ele>
        <time>2020-07-30T09:53:32Z</time>
      </trkpt>
      <trkpt lat="42.4736310" lon="1.8770260">
        <ele>1229.6</ele>
        <time>2020-07-30T09:53:41Z</time>
      </trkpt>
      <trkpt lat="42.4736000" lon="1.8771000">
        <ele>1229.6</ele>
        <time>2020-07-30T09:53:42Z</time>
      </trkpt>
      <trkpt lat="42.4734000" lon="1.8776420">
        <ele>1229.6</ele>
        <time>2020-07-30T09:53:49Z</time>
      </trkpt>
      <trkpt lat="42.4732130" lon="1.8783440">
        <ele>1230.0</ele>
        <time>2020-07-30T09:53:57Z</time>
      </trkpt>
      <trkpt lat="42.4731620" lon="1.8785230">
        <ele>1230.0</ele>
        <time>2020-07-30T09:53:59Z</time>
      </trkpt>
      <trkpt lat="42.4730980" lon="1.8787010">
        <ele>1230.2</ele>
        <time>2020-07-30T09:54:01Z</time>
      </trkpt>
      <trkpt lat="42.4729660" lon="1.8789460">
        <ele>1230.2</ele>
        <time>2020-07-30T09:54:04Z</time>
      </trkpt>
      <trkpt lat="42.4725850" lon="1.8795740">
        <ele>1230.0</ele>
        <time>2020-07-30T09:54:12Z</time>
      </trkpt>
      <trkpt lat="42.4724870" lon="1.8797310">
        <ele>1229.6</ele>
        <time>2020-07-30T09:54:14Z</time>
      </trkpt>
      <trkpt lat="42.4724390" lon="1.8798100">
        <ele>1229.4</ele>
        <time>2020-07-30T09:54:15Z</time>
      </trkpt>
      <trkpt lat="42.4720390" lon="1.8804190">
        <ele>1228.8</ele>
        <time>2020-07-30T09:54:23Z</time>
      </trkpt>
      <trkpt lat="42.4719400" lon="1.8805650">
        <ele>1228.8</ele>
        <time>2020-07-30T09:54:25Z</time>
      </trkpt>
      <trkpt lat="42.4715460" lon="1.8811530">
        <ele>1228.4</ele>
        <time>2020-07-30T09:54:33Z</time>
      </trkpt>
      <trkpt lat="42.4712980" lon="1.8815100">
        <ele>1228.0</ele>
        <time>2020-07-30T09:54:38Z</time>
      </trkpt>
      <trkpt lat="42.4709160" lon="1.8819270">
        <ele>1228.0</ele>
        <time>2020-07-30T09:54:45Z</time>
      </trkpt>
      <trkpt lat="42.4706770" lon="1.8821360">
        <ele>1228.0</ele>
        <time>2020-07-30T09:54:49Z</time>
      </trkpt>
      <trkpt lat="42.4706100" lon="1.8821710">
        <ele>1228.0</ele>
        <time>2020-07-30T09:54:50Z</time>
      </trkpt>
      <trkpt lat="42.4702530" lon="1.8822470">
        <ele>1228.0</ele>
        <time>2020-07-30T09:54:55Z</time>
      </trkpt>
      <trkpt lat="42.4699000" lon="1.8821610">
        <ele>1228.0</ele>
        <time>2020-07-30T09:55:00Z</time>
      </trkpt>
      <trkpt lat="42.4698290" lon="1.8821530">
        <ele>1228.0</ele>
        <time>2020-07-30T09:55:01Z</time>
      </trkpt>
      <trkpt lat="42.4696240" lon="1.8822120">
        <ele>1228.0</ele>
        <time>2020-07-30T09:55:04Z</time>
      </trkpt>
      <trkpt lat="42.4694510" lon="1.8823780">
        <ele>1227.8</ele>
        <time>2020-07-30T09:55:07Z</time>
      </trkpt>
      <trkpt lat="42.4693950" lon="1.8824440">
        <ele>1227.6</ele>
        <time>2020-07-30T09:55:08Z</time>
      </trkpt>
      <trkpt lat="42.4689390" lon="1.8829780">
        <ele>1226.6</ele>
        <time>2020-07-30T09:55:16Z</time>
      </trkpt>
      <trkpt lat="42.4688220" lon="1.8831190">
        <ele>1226.2</ele>
        <time>2020-07-30T09:55:18Z</time>
      </trkpt>
      <trkpt lat="42.4686980" lon="1.8832720">
        <ele>1225.4</ele>
        <time>2020-07-30T09:55:20Z</time>
      </trkpt>
      <trkpt lat="42.4684320" lon="1.8835990">
        <ele>1224.6</ele>
        <time>2020-07-30T09:55:24Z</time>
      </trkpt>
      <trkpt lat="42.4682890" lon="1.8837760">
        <ele>1224.4</ele>
        <time>2020-07-30T09:55:26Z</time>
      </trkpt>
      <trkpt lat="42.4679130" lon="1.8842430">
        <ele>1223.4</ele>
        <time>2020-07-30T09:55:31Z</time>
      </trkpt>
      <trkpt lat="42.4678370" lon="1.8843390">
        <ele>1223.2</ele>
        <time>2020-07-30T09:55:32Z</time>
      </trkpt>
      <trkpt lat="42.4675310" lon="1.8847160">
        <ele>1222.2</ele>
        <time>2020-07-30T09:55:36Z</time>
      </trkpt>
      <trkpt lat="42.4673760" lon="1.8849080">
        <ele>1219.8</ele>
        <time>2020-07-30T09:55:38Z</time>
      </trkpt>
      <trkpt lat="42.4672220" lon="1.8851070">
        <ele>1218.4</ele>
        <time>2020-07-30T09:55:40Z</time>
      </trkpt>
      <trkpt lat="42.4670770" lon="1.8853230">
        <ele>1217.0</ele>
        <time>2020-07-30T09:55:42Z</time>
      </trkpt>
      <trkpt lat="42.4668810" lon="1.8856640">
        <ele>1216.0</ele>
        <time>2020-07-30T09:55:45Z</time>
      </trkpt>
      <trkpt lat="42.4668220" lon="1.8857830">
        <ele>1215.6</ele>
        <time>2020-07-30T09:55:46Z</time>
      </trkpt>
      <trkpt lat="42.4667070" lon="1.8860240">
        <ele>1215.0</ele>
        <time>2020-07-30T09:55:48Z</time>
      </trkpt>
      <trkpt lat="42.4665980" lon="1.8862670">
        <ele>1213.8</ele>
        <time>2020-07-30T09:55:50Z</time>
      </trkpt>
      <trkpt lat="42.4665000" lon="1.8865130">
        <ele>1212.8</ele>
        <time>2020-07-30T09:55:52Z</time>
      </trkpt>
      <trkpt lat="42.4664540" lon="1.8866340">
        <ele>1212.2</ele>
        <time>2020-07-30T09:55:53Z</time>
      </trkpt>
      <trkpt lat="42.4663620" lon="1.8868670">
        <ele>1211.4</ele>
        <time>2020-07-30T09:55:55Z</time>
      </trkpt>
      <trkpt lat="42.4662010" lon="1.8873290">
        <ele>1210.8</ele>
        <time>2020-07-30T09:55:59Z</time>
      </trkpt>
      <trkpt lat="42.4660900" lon="1.8876790">
        <ele>1210.2</ele>
        <time>2020-07-30T09:56:02Z</time>
      </trkpt>
      <trkpt lat="42.4659390" lon="1.8881370">
        <ele>1209.8</ele>
        <time>2020-07-30T09:56:06Z</time>
      </trkpt>
      <trkpt lat="42.4657530" lon="1.8886980">
        <ele>1209.4</ele>
        <time>2020-07-30T09:56:11Z</time>
      </trkpt>
      <trkpt lat="42.4656020" lon="1.8891400">
        <ele>1208.2</ele>
        <time>2020-07-30T09:56:15Z</time>
      </trkpt>
      <trkpt lat="42.4655640" lon="1.8892500">
        <ele>1207.8</ele>
        <time>2020-07-30T09:56:16Z</time>
      </trkpt>
      <trkpt lat="42.4654920" lon="1.8894700">
        <ele>1207.0</ele>
        <time>2020-07-30T09:56:18Z</time>
      </trkpt>
      <trkpt lat="42.4652630" lon="1.8901390">
        <ele>1206.4</ele>
        <time>2020-07-30T09:56:24Z</time>
      </trkpt>
      <trkpt lat="42.4652230" lon="1.8902540">
        <ele>1206.4</ele>
        <time>2020-07-30T09:56:25Z</time>
      </trkpt>
      <trkpt lat="42.4651440" lon="1.8904860">
        <ele>1206.2</ele>
        <time>2020-07-30T09:56:27Z</time>
      </trkpt>
      <trkpt lat="42.4651080" lon="1.8906030">
        <ele>1206.0</ele>
        <time>2020-07-30T09:56:28Z</time>
      </trkpt>
      <trkpt lat="42.4650490" lon="1.8908480">
        <ele>1205.4</ele>
        <time>2020-07-30T09:56:30Z</time>
      </trkpt>
      <trkpt lat="42.4650100" lon="1.8910940">
        <ele>1205.0</ele>
        <time>2020-07-30T09:56:32Z</time>
      </trkpt>
      <trkpt lat="42.4650030" lon="1.8912160">
        <ele>1204.8</ele>
        <time>2020-07-30T09:56:33Z</time>
      </trkpt>
      <trkpt lat="42.4650030" lon="1.8913360">
        <ele>1204.0</ele>
        <time>2020-07-30T09:56:34Z</time>
      </trkpt>
      <trkpt lat="42.4650660" lon="1.8918030">
        <ele>1203.4</ele>
        <time>2020-07-30T09:56:38Z</time>
      </trkpt>
      <trkpt lat="42.4651920" lon="1.8924170">
        <ele>1203.2</ele>
        <time>2020-07-30T09:56:44Z</time>
      </trkpt>
      <trkpt lat="42.4652910" lon="1.8929440">
        <ele>1204.0</ele>
        <time>2020-07-30T09:56:50Z</time>
      </trkpt>
      <trkpt lat="42.4653090" lon="1.8931120">
        <ele>1204.6</ele>
        <time>2020-07-30T09:56:52Z</time>
      </trkpt>
      <trkpt lat="42.4653060" lon="1.8932820">
        <ele>1205.0</ele>
        <time>2020-07-30T09:56:54Z</time>
      </trkpt>
      <trkpt lat="42.4652970" lon="1.8933650">
        <ele>1205.2</ele>
        <time>2020-07-30T09:56:55Z</time>
      </trkpt>
      <trkpt lat="42.4652370" lon="1.8936790">
        <ele>1206.4</ele>
        <time>2020-07-30T09:56:59Z</time>
      </trkpt>
      <trkpt lat="42.4651760" lon="1.8938960">
        <ele>1207.0</ele>
        <time>2020-07-30T09:57:02Z</time>
      </trkpt>
      <trkpt lat="42.4650800" lon="1.8940880">
        <ele>1207.4</ele>
        <time>2020-07-30T09:57:05Z</time>
      </trkpt>
      <trkpt lat="42.4649800" lon="1.8942830">
        <ele>1208.0</ele>
        <time>2020-07-30T09:57:08Z</time>
      </trkpt>
      <trkpt lat="42.4648770" lon="1.8944690">
        <ele>1208.4</ele>
        <time>2020-07-30T09:57:11Z</time>
      </trkpt>
      <trkpt lat="42.4648090" lon="1.8945930">
        <ele>1208.8</ele>
        <time>2020-07-30T09:57:13Z</time>
      </trkpt>
      <trkpt lat="42.4646340" lon="1.8948990">
        <ele>1209.6</ele>
        <time>2020-07-30T09:57:18Z</time>
      </trkpt>
      <trkpt lat="42.4645300" lon="1.8950860">
        <ele>1210.2</ele>
        <time>2020-07-30T09:57:21Z</time>
      </trkpt>
      <trkpt lat="42.4644550" lon="1.8952880">
        <ele>1210.4</ele>
        <time>2020-07-30T09:57:24Z</time>
      </trkpt>
      <trkpt lat="42.4644220" lon="1.8954330">
        <ele>1210.8</ele>
        <time>2020-07-30T09:57:26Z</time>
      </trkpt>
      <trkpt lat="42.4643740" lon="1.8957780">
        <ele>1212.2</ele>
        <time>2020-07-30T09:57:31Z</time>
      </trkpt>
      <trkpt lat="42.4641360" lon="1.8968130">
        <ele>1214.4</ele>
        <time>2020-07-30T09:58:37Z</time>
      </trkpt>
      <trkpt lat="42.4640310" lon="1.8971210">
        <ele>1214.8</ele>
        <time>2020-07-30T09:58:42Z</time>
      </trkpt>
      <trkpt lat="42.4638740" lon="1.8975190">
        <ele>1215.0</ele>
        <time>2020-07-30T09:58:49Z</time>
      </trkpt>
      <trkpt lat="42.4638310" lon="1.8976400">
        <ele>1215.2</ele>
        <time>2020-07-30T09:58:51Z</time>
      </trkpt>
      <trkpt lat="42.4637880" lon="1.8977660">
        <ele>1215.4</ele>
        <time>2020-07-30T09:58:53Z</time>
      </trkpt>
      <trkpt lat="42.4637650" lon="1.8978280">
        <ele>1215.4</ele>
        <time>2020-07-30T09:58:54Z</time>
      </trkpt>
      <trkpt lat="42.4636420" lon="1.8981340">
        <ele>1216.8</ele>
        <time>2020-07-30T09:58:59Z</time>
      </trkpt>
      <trkpt lat="42.4636160" lon="1.8981940">
        <ele>1216.8</ele>
        <time>2020-07-30T09:59:00Z</time>
      </trkpt>
      <trkpt lat="42.4634930" lon="1.8984850">
        <ele>1217.8</ele>
        <time>2020-07-30T09:59:05Z</time>
      </trkpt>
      <trkpt lat="42.4633920" lon="1.8987260">
        <ele>1218.0</ele>
        <time>2020-07-30T09:59:09Z</time>
      </trkpt>
      <trkpt lat="42.4632100" lon="1.8991550">
        <ele>1218.8</ele>
        <time>2020-07-30T09:59:16Z</time>
      </trkpt>
      <trkpt lat="42.4631560" lon="1.8992790">
        <ele>1219.2</ele>
        <time>2020-07-30T09:59:18Z</time>
      </trkpt>
      <trkpt lat="42.4630030" lon="1.8996470">
        <ele>1220.2</ele>
        <time>2020-07-30T09:59:24Z</time>
      </trkpt>
      <trkpt lat="42.4629010" lon="1.8998880">
        <ele>1220.2</ele>
        <time>2020-07-30T09:59:28Z</time>
      </trkpt>
      <trkpt lat="42.4627140" lon="1.9003970">
        <ele>1221.0</ele>
        <time>2020-07-30T09:59:36Z</time>
      </trkpt>
      <trkpt lat="42.4626950" lon="1.9004630">
        <ele>1221.2</ele>
        <time>2020-07-30T09:59:37Z</time>
      </trkpt>
      <trkpt lat="42.4625790" lon="1.9009300">
        <ele>1222.0</ele>
        <time>2020-07-30T09:59:44Z</time>
      </trkpt>
      <trkpt lat="42.4625650" lon="1.9009960">
        <ele>1222.2</ele>
        <time>2020-07-30T09:59:45Z</time>
      </trkpt>
      <trkpt lat="42.4624650" lon="1.9013970">
        <ele>1223.6</ele>
        <time>2020-07-30T09:59:51Z</time>
      </trkpt>
      <trkpt lat="42.4624230" lon="1.9015290">
        <ele>1223.8</ele>
        <time>2020-07-30T09:59:53Z</time>
      </trkpt>
      <trkpt lat="42.4621870" lon="1.9021580">
        <ele>1224.4</ele>
        <time>2020-07-30T10:00:02Z</time>
      </trkpt>
      <trkpt lat="42.4619370" lon="1.9028590">
        <ele>1224.4</ele>
        <time>2020-07-30T10:00:11Z</time>
      </trkpt>
      <trkpt lat="42.4619150" lon="1.9029430">
        <ele>1224.4</ele>
        <time>2020-07-30T10:00:12Z</time>
      </trkpt>
      <trkpt lat="42.4617920" lon="1.9036520">
        <ele>1224.2</ele>
        <time>2020-07-30T10:00:20Z</time>
      </trkpt>
      <trkpt lat="42.4618430" lon="1.9041280">
        <ele>1224.2</ele>
        <time>2020-07-30T10:00:25Z</time>
      </trkpt>
      <trkpt lat="42.4618650" lon="1.9042230">
        <ele>1224.0</ele>
        <time>2020-07-30T10:00:26Z</time>
      </trkpt>
      <trkpt lat="42.4620590" lon="1.9048860">
        <ele>1223.6</ele>
        <time>2020-07-30T10:00:33Z</time>
      </trkpt>
      <trkpt lat="42.4622990" lon="1.9056200">
        <ele>1223.6</ele>
        <time>2020-07-30T10:00:41Z</time>
      </trkpt>
      <trkpt lat="42.4624420" lon="1.9060920">
        <ele>1224.0</ele>
        <time>2020-07-30T10:00:46Z</time>
      </trkpt>
      <trkpt lat="42.4624640" lon="1.9065050">
        <ele>1224.0</ele>
        <time>2020-07-30T10:00:50Z</time>
      </trkpt>
      <trkpt lat="42.4624050" lon="1.9073300">
        <ele>1223.8</ele>
        <time>2020-07-30T10:00:58Z</time>
      </trkpt>
      <trkpt lat="42.4623960" lon="1.9074360">
        <ele>1223.8</ele>
        <time>2020-07-30T10:00:59Z</time>
      </trkpt>
      <trkpt lat="42.4623120" lon="1.9081740">
        <ele>1223.4</ele>
        <time>2020-07-30T10:01:06Z</time>
      </trkpt>
      <trkpt lat="42.4622920" lon="1.9082770">
        <ele>1223.4</ele>
        <time>2020-07-30T10:01:07Z</time>
      </trkpt>
      <trkpt lat="42.4621330" lon="1.9089780">
        <ele>1223.2</ele>
        <time>2020-07-30T10:01:14Z</time>
      </trkpt>
      <trkpt lat="42.4620610" lon="1.9092730">
        <ele>1223.2</ele>
        <time>2020-07-30T10:01:17Z</time>
      </trkpt>
      <trkpt lat="42.4620380" lon="1.9093710">
        <ele>1223.2</ele>
        <time>2020-07-30T10:01:18Z</time>
      </trkpt>
      <trkpt lat="42.4618330" lon="1.9101510">
        <ele>1223.0</ele>
        <time>2020-07-30T10:01:26Z</time>
      </trkpt>
      <trkpt lat="42.4618000" lon="1.9102450">
        <ele>1223.0</ele>
        <time>2020-07-30T10:01:27Z</time>
      </trkpt>
      <trkpt lat="42.4615560" lon="1.9108950">
        <ele>1223.0</ele>
        <time>2020-07-30T10:01:34Z</time>
      </trkpt>
      <trkpt lat="42.4614040" lon="1.9112690">
        <ele>1222.8</ele>
        <time>2020-07-30T10:01:38Z</time>
      </trkpt>
      <trkpt lat="42.4612290" lon="1.9117620">
        <ele>1222.6</ele>
        <time>2020-07-30T10:01:43Z</time>
      </trkpt>
      <trkpt lat="42.4611500" lon="1.9119550">
        <ele>1222.2</ele>
        <time>2020-07-30T10:01:45Z</time>
      </trkpt>
      <trkpt lat="42.4609490" lon="1.9125570">
        <ele>1221.4</ele>
        <time>2020-07-30T10:01:51Z</time>
      </trkpt>
      <trkpt lat="42.4608060" lon="1.9133030">
        <ele>1220.4</ele>
        <time>2020-07-30T10:01:58Z</time>
      </trkpt>
      <trkpt lat="42.4607820" lon="1.9134100">
        <ele>1220.2</ele>
        <time>2020-07-30T10:01:59Z</time>
      </trkpt>
      <trkpt lat="42.4605670" lon="1.9141370">
        <ele>1219.8</ele>
        <time>2020-07-30T10:02:06Z</time>
      </trkpt>
      <trkpt lat="42.4603110" lon="1.9148580">
        <ele>1219.4</ele>
        <time>2020-07-30T10:02:13Z</time>
      </trkpt>
      <trkpt lat="42.4602750" lon="1.9149630">
        <ele>1219.0</ele>
        <time>2020-07-30T10:02:14Z</time>
      </trkpt>
      <trkpt lat="42.4602160" lon="1.9151820">
        <ele>1218.2</ele>
        <time>2020-07-30T10:02:16Z</time>
      </trkpt>
      <trkpt lat="42.4601490" lon="1.9155230">
        <ele>1217.6</ele>
        <time>2020-07-30T10:02:19Z</time>
      </trkpt>
      <trkpt lat="42.4600620" lon="1.9160950">
        <ele>1217.2</ele>
        <time>2020-07-30T10:02:24Z</time>
      </trkpt>
      <trkpt lat="42.4600350" lon="1.9162070">
        <ele>1217.0</ele>
        <time>2020-07-30T10:02:25Z</time>
      </trkpt>
      <trkpt lat="42.4598780" lon="1.9168890">
        <ele>1216.4</ele>
        <time>2020-07-30T10:02:31Z</time>
      </trkpt>
      <trkpt lat="42.4598400" lon="1.9169970">
        <ele>1216.4</ele>
        <time>2020-07-30T10:02:32Z</time>
      </trkpt>
      <trkpt lat="42.4597150" lon="1.9173130">
        <ele>1216.0</ele>
        <time>2020-07-30T10:02:35Z</time>
      </trkpt>
      <trkpt lat="42.4596310" lon="1.9175190">
        <ele>1215.6</ele>
        <time>2020-07-30T10:02:37Z</time>
      </trkpt>
      <trkpt lat="42.4595940" lon="1.9176220">
        <ele>1215.2</ele>
        <time>2020-07-30T10:02:38Z</time>
      </trkpt>
      <trkpt lat="42.4594760" lon="1.9180450">
        <ele>1214.8</ele>
        <time>2020-07-30T10:02:42Z</time>
      </trkpt>
      <trkpt lat="42.4594350" lon="1.9182640">
        <ele>1214.2</ele>
        <time>2020-07-30T10:02:44Z</time>
      </trkpt>
      <trkpt lat="42.4593890" lon="1.9185980">
        <ele>1213.8</ele>
        <time>2020-07-30T10:02:47Z</time>
      </trkpt>
      <trkpt lat="42.4593640" lon="1.9187060">
        <ele>1213.8</ele>
        <time>2020-07-30T10:02:48Z</time>
      </trkpt>
      <trkpt lat="42.4592570" lon="1.9190120">
        <ele>1213.2</ele>
        <time>2020-07-30T10:02:51Z</time>
      </trkpt>
      <trkpt lat="42.4591740" lon="1.9192110">
        <ele>1213.2</ele>
        <time>2020-07-30T10:02:53Z</time>
      </trkpt>
      <trkpt lat="42.4588600" lon="1.9198990">
        <ele>1213.0</ele>
        <time>2020-07-30T10:03:00Z</time>
      </trkpt>
      <trkpt lat="42.4585370" lon="1.9206070">
        <ele>1212.8</ele>
        <time>2020-07-30T10:03:07Z</time>
      </trkpt>
      <trkpt lat="42.4584550" lon="1.9208230">
        <ele>1212.8</ele>
        <time>2020-07-30T10:03:09Z</time>
      </trkpt>
      <trkpt lat="42.4583030" lon="1.9213990">
        <ele>1212.4</ele>
        <time>2020-07-30T10:03:14Z</time>
      </trkpt>
      <trkpt lat="42.4582250" lon="1.9217520">
        <ele>1212.0</ele>
        <time>2020-07-30T10:03:17Z</time>
      </trkpt>
      <trkpt lat="42.4581500" lon="1.9221030">
        <ele>1211.0</ele>
        <time>2020-07-30T10:03:20Z</time>
      </trkpt>
      <trkpt lat="42.4579960" lon="1.9227980">
        <ele>1210.4</ele>
        <time>2020-07-30T10:03:26Z</time>
      </trkpt>
      <trkpt lat="42.4578440" lon="1.9235040">
        <ele>1210.2</ele>
        <time>2020-07-30T10:03:32Z</time>
      </trkpt>
      <trkpt lat="42.4577680" lon="1.9238640">
        <ele>1209.8</ele>
        <time>2020-07-30T10:03:35Z</time>
      </trkpt>
      <trkpt lat="42.4576410" lon="1.9244570">
        <ele>1209.2</ele>
        <time>2020-07-30T10:03:40Z</time>
      </trkpt>
      <trkpt lat="42.4575420" lon="1.9249260">
        <ele>1208.0</ele>
        <time>2020-07-30T10:03:44Z</time>
      </trkpt>
      <trkpt lat="42.4574450" lon="1.9253910">
        <ele>1207.4</ele>
        <time>2020-07-30T10:03:48Z</time>
      </trkpt>
      <trkpt lat="42.4572690" lon="1.9262040">
        <ele>1207.2</ele>
        <time>2020-07-30T10:03:55Z</time>
      </trkpt>
      <trkpt lat="42.4572190" lon="1.9264350">
        <ele>1207.2</ele>
        <time>2020-07-30T10:03:57Z</time>
      </trkpt>
      <trkpt lat="42.4570960" lon="1.9270120">
        <ele>1206.6</ele>
        <time>2020-07-30T10:04:02Z</time>
      </trkpt>
      <trkpt lat="42.4570250" lon="1.9273590">
        <ele>1206.0</ele>
        <time>2020-07-30T10:04:05Z</time>
      </trkpt>
      <trkpt lat="42.4568780" lon="1.9280540">
        <ele>1205.6</ele>
        <time>2020-07-30T10:04:11Z</time>
      </trkpt>
      <trkpt lat="42.4567270" lon="1.9287580">
        <ele>1205.2</ele>
        <time>2020-07-30T10:04:17Z</time>
      </trkpt>
      <trkpt lat="42.4566320" lon="1.9292360">
        <ele>1205.0</ele>
        <time>2020-07-30T10:04:21Z</time>
      </trkpt>
      <trkpt lat="42.4564720" lon="1.9299570">
        <ele>1204.4</ele>
        <time>2020-07-30T10:04:27Z</time>
      </trkpt>
      <trkpt lat="42.4563800" lon="1.9303140">
        <ele>1204.0</ele>
        <time>2020-07-30T10:04:30Z</time>
      </trkpt>
      <trkpt lat="42.4562290" lon="1.9309020">
        <ele>1202.8</ele>
        <time>2020-07-30T10:04:35Z</time>
      </trkpt>
      <trkpt lat="42.4561070" lon="1.9313760">
        <ele>1202.0</ele>
        <time>2020-07-30T10:04:39Z</time>
      </trkpt>
      <trkpt lat="42.4560460" lon="1.9316170">
        <ele>1201.8</ele>
        <time>2020-07-30T10:04:41Z</time>
      </trkpt>
      <trkpt lat="42.4558600" lon="1.9323410">
        <ele>1201.6</ele>
        <time>2020-07-30T10:04:47Z</time>
      </trkpt>
      <trkpt lat="42.4557480" lon="1.9326960">
        <ele>1201.0</ele>
        <time>2020-07-30T10:04:50Z</time>
      </trkpt>
      <trkpt lat="42.4556140" lon="1.9330460">
        <ele>1200.6</ele>
        <time>2020-07-30T10:04:53Z</time>
      </trkpt>
      <trkpt lat="42.4554970" lon="1.9332590">
        <ele>1200.0</ele>
        <time>2020-07-30T10:04:55Z</time>
      </trkpt>
      <trkpt lat="42.4554320" lon="1.9333620">
        <ele>1199.8</ele>
        <time>2020-07-30T10:04:56Z</time>
      </trkpt>
      <trkpt lat="42.4550910" lon="1.9338880">
        <ele>1198.6</ele>
        <time>2020-07-30T10:05:01Z</time>
      </trkpt>
      <trkpt lat="42.4549510" lon="1.9341070">
        <ele>1198.2</ele>
        <time>2020-07-30T10:05:03Z</time>
      </trkpt>
      <trkpt lat="42.4548110" lon="1.9343260">
        <ele>1197.4</ele>
        <time>2020-07-30T10:05:05Z</time>
      </trkpt>
      <trkpt lat="42.4546040" lon="1.9346500">
        <ele>1195.4</ele>
        <time>2020-07-30T10:05:08Z</time>
      </trkpt>
      <trkpt lat="42.4544670" lon="1.9348640">
        <ele>1194.4</ele>
        <time>2020-07-30T10:05:10Z</time>
      </trkpt>
      <trkpt lat="42.4544000" lon="1.9349700">
        <ele>1194.0</ele>
        <time>2020-07-30T10:05:11Z</time>
      </trkpt>
      <trkpt lat="42.4542760" lon="1.9351890">
        <ele>1193.4</ele>
        <time>2020-07-30T10:05:13Z</time>
      </trkpt>
      <trkpt lat="42.4542310" lon="1.9353120">
        <ele>1193.2</ele>
        <time>2020-07-30T10:05:14Z</time>
      </trkpt>
      <trkpt lat="42.4542050" lon="1.9354450">
        <ele>1193.0</ele>
        <time>2020-07-30T10:05:15Z</time>
      </trkpt>
      <trkpt lat="42.4542210" lon="1.9357180">
        <ele>1192.2</ele>
        <time>2020-07-30T10:05:17Z</time>
      </trkpt>
      <trkpt lat="42.4542580" lon="1.9358480">
        <ele>1191.8</ele>
        <time>2020-07-30T10:05:18Z</time>
      </trkpt>
      <trkpt lat="42.4544730" lon="1.9361410">
        <ele>1191.6</ele>
        <time>2020-07-30T10:05:21Z</time>
      </trkpt>
      <trkpt lat="42.4545740" lon="1.9361890">
        <ele>1191.2</ele>
        <time>2020-07-30T10:05:22Z</time>
      </trkpt>
      <trkpt lat="42.4547910" lon="1.9362160">
        <ele>1190.4</ele>
        <time>2020-07-30T10:05:24Z</time>
      </trkpt>
      <trkpt lat="42.4549030" lon="1.9362170">
        <ele>1190.2</ele>
        <time>2020-07-30T10:05:25Z</time>
      </trkpt>
      <trkpt lat="42.4554910" lon="1.9362150">
        <ele>1189.0</ele>
        <time>2020-07-30T10:05:30Z</time>
      </trkpt>
      <trkpt lat="42.4556110" lon="1.9362190">
        <ele>1188.4</ele>
        <time>2020-07-30T10:05:31Z</time>
      </trkpt>
      <trkpt lat="42.4557320" lon="1.9362220">
        <ele>1188.0</ele>
        <time>2020-07-30T10:05:32Z</time>
      </trkpt>
      <trkpt lat="42.4560890" lon="1.9362220">
        <ele>1186.2</ele>
        <time>2020-07-30T10:05:35Z</time>
      </trkpt>
      <trkpt lat="42.4562070" lon="1.9362150">
        <ele>1184.4</ele>
        <time>2020-07-30T10:05:36Z</time>
      </trkpt>
      <trkpt lat="42.4564410" lon="1.9361760">
        <ele>1183.4</ele>
        <time>2020-07-30T10:05:38Z</time>
      </trkpt>
      <trkpt lat="42.4566710" lon="1.9361050">
        <ele>1182.2</ele>
        <time>2020-07-30T10:05:40Z</time>
      </trkpt>
      <trkpt lat="42.4569010" lon="1.9360260">
        <ele>1180.8</ele>
        <time>2020-07-30T10:05:42Z</time>
      </trkpt>
      <trkpt lat="42.4570190" lon="1.9359890">
        <ele>1180.2</ele>
        <time>2020-07-30T10:05:43Z</time>
      </trkpt>
      <trkpt lat="42.4572560" lon="1.9359250">
        <ele>1179.6</ele>
        <time>2020-07-30T10:05:45Z</time>
      </trkpt>
      <trkpt lat="42.4576220" lon="1.9358800">
        <ele>1178.4</ele>
        <time>2020-07-30T10:05:48Z</time>
      </trkpt>
      <trkpt lat="42.4578700" lon="1.9358720">
        <ele>1177.4</ele>
        <time>2020-07-30T10:05:50Z</time>
      </trkpt>
      <trkpt lat="42.4582430" lon="1.9358600">
        <ele>1176.2</ele>
        <time>2020-07-30T10:05:53Z</time>
      </trkpt>
      <trkpt lat="42.4584890" lon="1.9358640">
        <ele>1175.2</ele>
        <time>2020-07-30T10:05:55Z</time>
      </trkpt>
      <trkpt lat="42.4586100" lon="1.9358870">
        <ele>1174.6</ele>
        <time>2020-07-30T10:05:56Z</time>
      </trkpt>
      <trkpt lat="42.4588450" lon="1.9359700">
        <ele>1173.6</ele>
        <time>2020-07-30T10:05:58Z</time>
      </trkpt>
      <trkpt lat="42.4590770" lon="1.9360600">
        <ele>1172.4</ele>
        <time>2020-07-30T10:06:00Z</time>
      </trkpt>
      <trkpt lat="42.4591930" lon="1.9361000">
        <ele>1172.0</ele>
        <time>2020-07-30T10:06:01Z</time>
      </trkpt>
      <trkpt lat="42.4593100" lon="1.9361340">
        <ele>1171.4</ele>
        <time>2020-07-30T10:06:02Z</time>
      </trkpt>
      <trkpt lat="42.4596710" lon="1.9361790">
        <ele>1169.8</ele>
        <time>2020-07-30T10:06:05Z</time>
      </trkpt>
      <trkpt lat="42.4600340" lon="1.9361900">
        <ele>1168.4</ele>
        <time>2020-07-30T10:06:08Z</time>
      </trkpt>
      <trkpt lat="42.4602750" lon="1.9362010">
        <ele>1167.2</ele>
        <time>2020-07-30T10:06:10Z</time>
      </trkpt>
      <trkpt lat="42.4606350" lon="1.9362230">
        <ele>1166.4</ele>
        <time>2020-07-30T10:06:13Z</time>
      </trkpt>
      <trkpt lat="42.4608690" lon="1.9362650">
        <ele>1165.2</ele>
        <time>2020-07-30T10:06:15Z</time>
      </trkpt>
      <trkpt lat="42.4609770" lon="1.9363200">
        <ele>1164.8</ele>
        <time>2020-07-30T10:06:16Z</time>
      </trkpt>
      <trkpt lat="42.4611590" lon="1.9365030">
        <ele>1163.6</ele>
        <time>2020-07-30T10:06:18Z</time>
      </trkpt>
      <trkpt lat="42.4612390" lon="1.9366110">
        <ele>1163.0</ele>
        <time>2020-07-30T10:06:19Z</time>
      </trkpt>
      <trkpt lat="42.4613180" lon="1.9367220">
        <ele>1162.6</ele>
        <time>2020-07-30T10:06:20Z</time>
      </trkpt>
      <trkpt lat="42.4613900" lon="1.9368370">
        <ele>1162.2</ele>
        <time>2020-07-30T10:06:21Z</time>
      </trkpt>
      <trkpt lat="42.4614800" lon="1.9370910">
        <ele>1161.4</ele>
        <time>2020-07-30T10:06:23Z</time>
      </trkpt>
      <trkpt lat="42.4614970" lon="1.9373580">
        <ele>1160.2</ele>
        <time>2020-07-30T10:06:25Z</time>
      </trkpt>
      <trkpt lat="42.4614800" lon="1.9374860">
        <ele>1159.6</ele>
        <time>2020-07-30T10:06:26Z</time>
      </trkpt>
      <trkpt lat="42.4613910" lon="1.9377150">
        <ele>1159.0</ele>
        <time>2020-07-30T10:06:28Z</time>
      </trkpt>
      <trkpt lat="42.4613310" lon="1.9378160">
        <ele>1158.8</ele>
        <time>2020-07-30T10:06:29Z</time>
      </trkpt>
      <trkpt lat="42.4612680" lon="1.9379140">
        <ele>1158.6</ele>
        <time>2020-07-30T10:06:30Z</time>
      </trkpt>
      <trkpt lat="42.4608750" lon="1.9384800">
        <ele>1158.0</ele>
        <time>2020-07-30T10:06:36Z</time>
      </trkpt>
      <trkpt lat="42.4606120" lon="1.9388610">
        <ele>1156.6</ele>
        <time>2020-07-30T10:06:40Z</time>
      </trkpt>
      <trkpt lat="42.4603410" lon="1.9392420">
        <ele>1155.6</ele>
        <time>2020-07-30T10:06:44Z</time>
      </trkpt>
      <trkpt lat="42.4602020" lon="1.9394340">
        <ele>1154.8</ele>
        <time>2020-07-30T10:06:46Z</time>
      </trkpt>
      <trkpt lat="42.4601340" lon="1.9395310">
        <ele>1154.6</ele>
        <time>2020-07-30T10:06:47Z</time>
      </trkpt>
      <trkpt lat="42.4599240" lon="1.9398070">
        <ele>1153.8</ele>
        <time>2020-07-30T10:06:50Z</time>
      </trkpt>
      <trkpt lat="42.4598410" lon="1.9398740">
        <ele>1153.6</ele>
        <time>2020-07-30T10:06:51Z</time>
      </trkpt>
      <trkpt lat="42.4596640" lon="1.9399730">
        <ele>1153.2</ele>
        <time>2020-07-30T10:06:53Z</time>
      </trkpt>
      <trkpt lat="42.4593900" lon="1.9401090">
        <ele>1153.0</ele>
        <time>2020-07-30T10:06:56Z</time>
      </trkpt>
      <trkpt lat="42.4590140" lon="1.9402960">
        <ele>1152.0</ele>
        <time>2020-07-30T10:07:00Z</time>
      </trkpt>
      <trkpt lat="42.4585320" lon="1.9405390">
        <ele>1151.0</ele>
        <time>2020-07-30T10:07:05Z</time>
      </trkpt>
      <trkpt lat="42.4584340" lon="1.9405890">
        <ele>1150.8</ele>
        <time>2020-07-30T10:07:06Z</time>
      </trkpt>
      <trkpt lat="42.4581330" lon="1.9407370">
        <ele>1150.0</ele>
        <time>2020-07-30T10:07:09Z</time>
      </trkpt>
      <trkpt lat="42.4575330" lon="1.9410370">
        <ele>1148.4</ele>
        <time>2020-07-30T10:07:15Z</time>
      </trkpt>
      <trkpt lat="42.4574340" lon="1.9410870">
        <ele>1147.8</ele>
        <time>2020-07-30T10:07:16Z</time>
      </trkpt>
      <trkpt lat="42.4573340" lon="1.9411380">
        <ele>1147.2</ele>
        <time>2020-07-30T10:07:17Z</time>
      </trkpt>
      <trkpt lat="42.4569400" lon="1.9413470">
        <ele>1146.0</ele>
        <time>2020-07-30T10:07:21Z</time>
      </trkpt>
      <trkpt lat="42.4567510" lon="1.9414770">
        <ele>1145.4</ele>
        <time>2020-07-30T10:07:23Z</time>
      </trkpt>
      <trkpt lat="42.4562900" lon="1.9418090">
        <ele>1144.8</ele>
        <time>2020-07-30T10:07:28Z</time>
      </trkpt>
      <trkpt lat="42.4559230" lon="1.9420740">
        <ele>1143.6</ele>
        <time>2020-07-30T10:07:32Z</time>
      </trkpt>
      <trkpt lat="42.4557390" lon="1.9422080">
        <ele>1142.6</ele>
        <time>2020-07-30T10:07:34Z</time>
      </trkpt>
      <trkpt lat="42.4556470" lon="1.9422740">
        <ele>1142.4</ele>
        <time>2020-07-30T10:07:35Z</time>
      </trkpt>
      <trkpt lat="42.4550910" lon="1.9426770">
        <ele>1142.0</ele>
        <time>2020-07-30T10:07:41Z</time>
      </trkpt>
      <trkpt lat="42.4548110" lon="1.9428800">
        <ele>1141.4</ele>
        <time>2020-07-30T10:07:44Z</time>
      </trkpt>
      <trkpt lat="42.4546240" lon="1.9430180">
        <ele>1141.0</ele>
        <time>2020-07-30T10:07:46Z</time>
      </trkpt>
      <trkpt lat="42.4541300" lon="1.9432730">
        <ele>1140.2</ele>
        <time>2020-07-30T10:07:51Z</time>
      </trkpt>
      <trkpt lat="42.4537290" lon="1.9434130">
        <ele>1139.0</ele>
        <time>2020-07-30T10:07:55Z</time>
      </trkpt>
      <trkpt lat="42.4534320" lon="1.9435110">
        <ele>1137.6</ele>
        <time>2020-07-30T10:07:58Z</time>
      </trkpt>
      <trkpt lat="42.4531380" lon="1.9436090">
        <ele>1137.4</ele>
        <time>2020-07-30T10:08:01Z</time>
      </trkpt>
      <trkpt lat="42.4528430" lon="1.9437100">
        <ele>1136.4</ele>
        <time>2020-07-30T10:08:04Z</time>
      </trkpt>
      <trkpt lat="42.4522440" lon="1.9439120">
        <ele>1135.6</ele>
        <time>2020-07-30T10:08:10Z</time>
      </trkpt>
      <trkpt lat="42.4520390" lon="1.9439810">
        <ele>1135.4</ele>
        <time>2020-07-30T10:08:12Z</time>
      </trkpt>
      <trkpt lat="42.4514170" lon="1.9441910">
        <ele>1134.4</ele>
        <time>2020-07-30T10:08:18Z</time>
      </trkpt>
      <trkpt lat="42.4513120" lon="1.9442200">
        <ele>1134.2</ele>
        <time>2020-07-30T10:08:19Z</time>
      </trkpt>
      <trkpt lat="42.4512050" lon="1.9442450">
        <ele>1134.2</ele>
        <time>2020-07-30T10:08:20Z</time>
      </trkpt>
      <trkpt lat="42.4507760" lon="1.9442880">
        <ele>1133.2</ele>
        <time>2020-07-30T10:08:24Z</time>
      </trkpt>
      <trkpt lat="42.4506690" lon="1.9442920">
        <ele>1132.6</ele>
        <time>2020-07-30T10:08:25Z</time>
      </trkpt>
      <trkpt lat="42.4504560" lon="1.9443000">
        <ele>1131.8</ele>
        <time>2020-07-30T10:08:27Z</time>
      </trkpt>
      <trkpt lat="42.4500370" lon="1.9443190">
        <ele>1130.8</ele>
        <time>2020-07-30T10:08:31Z</time>
      </trkpt>
      <trkpt lat="42.4496180" lon="1.9443210">
        <ele>1129.6</ele>
        <time>2020-07-30T10:08:35Z</time>
      </trkpt>
      <trkpt lat="42.4492060" lon="1.9442900">
        <ele>1128.4</ele>
        <time>2020-07-30T10:08:39Z</time>
      </trkpt>
      <trkpt lat="42.4488010" lon="1.9442660">
        <ele>1127.4</ele>
        <time>2020-07-30T10:08:43Z</time>
      </trkpt>
      <trkpt lat="42.4487010" lon="1.9442680">
        <ele>1127.2</ele>
        <time>2020-07-30T10:08:44Z</time>
      </trkpt>
      <trkpt lat="42.4481180" lon="1.9443280">
        <ele>1126.6</ele>
        <time>2020-07-30T10:08:50Z</time>
      </trkpt>
      <trkpt lat="42.4479330" lon="1.9443610">
        <ele>1125.8</ele>
        <time>2020-07-30T10:08:52Z</time>
      </trkpt>
      <trkpt lat="42.4478420" lon="1.9443770">
        <ele>1125.4</ele>
        <time>2020-07-30T10:08:53Z</time>
      </trkpt>
      <trkpt lat="42.4475730" lon="1.9444180">
        <ele>1124.2</ele>
        <time>2020-07-30T10:08:56Z</time>
      </trkpt>
      <trkpt lat="42.4474840" lon="1.9444210">
        <ele>1124.0</ele>
        <time>2020-07-30T10:08:57Z</time>
      </trkpt>
      <trkpt lat="42.4473950" lon="1.9444100">
        <ele>1123.8</ele>
        <time>2020-07-30T10:08:58Z</time>
      </trkpt>
      <trkpt lat="42.4471470" lon="1.9443850">
        <ele>1123.6</ele>
        <time>2020-07-30T10:09:01Z</time>
      </trkpt>
      <trkpt lat="42.4470330" lon="1.9445210">
        <ele>1123.6</ele>
        <time>2020-07-30T10:09:03Z</time>
      </trkpt>
      <trkpt lat="42.4469130" lon="1.9448180">
        <ele>1123.6</ele>
        <time>2020-07-30T10:09:06Z</time>
      </trkpt>
      <trkpt lat="42.4468560" lon="1.9449100">
        <ele>1123.4</ele>
        <time>2020-07-30T10:09:07Z</time>
      </trkpt>
      <trkpt lat="42.4464910" lon="1.9454590">
        <ele>1123.4</ele>
        <time>2020-07-30T10:09:13Z</time>
      </trkpt>
      <trkpt lat="42.4464270" lon="1.9455520">
        <ele>1123.4</ele>
        <time>2020-07-30T10:09:14Z</time>
      </trkpt>
      <trkpt lat="42.4463050" lon="1.9457380">
        <ele>1123.2</ele>
        <time>2020-07-30T10:09:16Z</time>
      </trkpt>
      <trkpt lat="42.4461820" lon="1.9459060">
        <ele>1122.6</ele>
        <time>2020-07-30T10:09:18Z</time>
      </trkpt>
      <trkpt lat="42.4461120" lon="1.9459610">
        <ele>1122.2</ele>
        <time>2020-07-30T10:09:19Z</time>
      </trkpt>
      <trkpt lat="42.4460370" lon="1.9459800">
        <ele>1121.8</ele>
        <time>2020-07-30T10:09:20Z</time>
      </trkpt>
      <trkpt lat="42.4459650" lon="1.9459570">
        <ele>1121.6</ele>
        <time>2020-07-30T10:09:21Z</time>
      </trkpt>
      <trkpt lat="42.4458670" lon="1.9458170">
        <ele>1121.4</ele>
        <time>2020-07-30T10:09:23Z</time>
      </trkpt>
      <trkpt lat="42.4458160" lon="1.9456390">
        <ele>1121.4</ele>
        <time>2020-07-30T10:09:25Z</time>
      </trkpt>
      <trkpt lat="42.4457430" lon="1.9453840">
        <ele>1121.4</ele>
        <time>2020-07-30T10:09:28Z</time>
      </trkpt>
      <trkpt lat="42.4455800" lon="1.9448280">
        <ele>1123.2</ele>
        <time>2020-07-30T10:09:35Z</time>
      </trkpt>
      <trkpt lat="42.4455070" lon="1.9445950">
        <ele>1124.6</ele>
        <time>2020-07-30T10:09:38Z</time>
      </trkpt>
      <trkpt lat="42.4454300" lon="1.9443600">
        <ele>1125.6</ele>
        <time>2020-07-30T10:09:41Z</time>
      </trkpt>
      <trkpt lat="42.4453570" lon="1.9441110">
        <ele>1126.4</ele>
        <time>2020-07-30T10:09:44Z</time>
      </trkpt>
      <trkpt lat="42.4451710" lon="1.9434790">
        <ele>1126.4</ele>
        <time>2020-07-30T10:09:51Z</time>
      </trkpt>
      <trkpt lat="42.4449530" lon="1.9428830">
        <ele>1126.4</ele>
        <time>2020-07-30T10:09:57Z</time>
      </trkpt>
      <trkpt lat="42.4446500" lon="1.9423820">
        <ele>1125.8</ele>
        <time>2020-07-30T10:10:02Z</time>
      </trkpt>
      <trkpt lat="42.4444950" lon="1.9421970">
        <ele>1124.6</ele>
        <time>2020-07-30T10:10:04Z</time>
      </trkpt>
      <trkpt lat="42.4444090" lon="1.9421140">
        <ele>1124.2</ele>
        <time>2020-07-30T10:10:05Z</time>
      </trkpt>
      <trkpt lat="42.4443170" lon="1.9420390">
        <ele>1123.8</ele>
        <time>2020-07-30T10:10:06Z</time>
      </trkpt>
      <trkpt lat="42.4442190" lon="1.9419750">
        <ele>1123.4</ele>
        <time>2020-07-30T10:10:07Z</time>
      </trkpt>
      <trkpt lat="42.4440110" lon="1.9418860">
        <ele>1121.6</ele>
        <time>2020-07-30T10:10:09Z</time>
      </trkpt>
      <trkpt lat="42.4437970" lon="1.9418430">
        <ele>1120.2</ele>
        <time>2020-07-30T10:10:11Z</time>
      </trkpt>
      <trkpt lat="42.4435850" lon="1.9418250">
        <ele>1119.0</ele>
        <time>2020-07-30T10:10:13Z</time>
      </trkpt>
      <trkpt lat="42.4433770" lon="1.9418160">
        <ele>1117.6</ele>
        <time>2020-07-30T10:10:15Z</time>
      </trkpt>
      <trkpt lat="42.4431740" lon="1.9418030">
        <ele>1116.6</ele>
        <time>2020-07-30T10:10:17Z</time>
      </trkpt>
      <trkpt lat="42.4428750" lon="1.9417890">
        <ele>1115.0</ele>
        <time>2020-07-30T10:10:20Z</time>
      </trkpt>
      <trkpt lat="42.4427750" lon="1.9417850">
        <ele>1115.0</ele>
        <time>2020-07-30T10:10:21Z</time>
      </trkpt>
      <trkpt lat="42.4421870" lon="1.9417490">
        <ele>1114.6</ele>
        <time>2020-07-30T10:10:27Z</time>
      </trkpt>
      <trkpt lat="42.4418990" lon="1.9417350">
        <ele>1114.2</ele>
        <time>2020-07-30T10:10:30Z</time>
      </trkpt>
      <trkpt lat="42.4413110" lon="1.9417040">
        <ele>1113.4</ele>
        <time>2020-07-30T10:10:36Z</time>
      </trkpt>
      <trkpt lat="42.4410090" lon="1.9416870">
        <ele>1113.2</ele>
        <time>2020-07-30T10:10:39Z</time>
      </trkpt>
      <trkpt lat="42.4407090" lon="1.9416680">
        <ele>1113.2</ele>
        <time>2020-07-30T10:10:42Z</time>
      </trkpt>
      <trkpt lat="42.4402130" lon="1.9416400">
        <ele>1112.6</ele>
        <time>2020-07-30T10:10:47Z</time>
      </trkpt>
      <trkpt lat="42.4400160" lon="1.9416300">
        <ele>1112.0</ele>
        <time>2020-07-30T10:10:49Z</time>
      </trkpt>
      <trkpt lat="42.4395280" lon="1.9416030">
        <ele>1111.0</ele>
        <time>2020-07-30T10:10:54Z</time>
      </trkpt>
      <trkpt lat="42.4394300" lon="1.9415960">
        <ele>1110.8</ele>
        <time>2020-07-30T10:10:55Z</time>
      </trkpt>
      <trkpt lat="42.4390440" lon="1.9415090">
        <ele>1110.0</ele>
        <time>2020-07-30T10:10:59Z</time>
      </trkpt>
      <trkpt lat="42.4387740" lon="1.9413590">
        <ele>1109.6</ele>
        <time>2020-07-30T10:11:02Z</time>
      </trkpt>
      <trkpt lat="42.4386020" lon="1.9412400">
        <ele>1109.4</ele>
        <time>2020-07-30T10:11:04Z</time>
      </trkpt>
      <trkpt lat="42.4380840" lon="1.9409010">
        <ele>1109.0</ele>
        <time>2020-07-30T10:11:10Z</time>
      </trkpt>
      <trkpt lat="42.4379980" lon="1.9408460">
        <ele>1108.6</ele>
        <time>2020-07-30T10:11:11Z</time>
      </trkpt>
      <trkpt lat="42.4376600" lon="1.9406220">
        <ele>1108.2</ele>
        <time>2020-07-30T10:11:15Z</time>
      </trkpt>
      <trkpt lat="42.4374920" lon="1.9405130">
        <ele>1107.4</ele>
        <time>2020-07-30T10:11:17Z</time>
      </trkpt>
      <trkpt lat="42.4369870" lon="1.9401840">
        <ele>1107.0</ele>
        <time>2020-07-30T10:11:23Z</time>
      </trkpt>
      <trkpt lat="42.4367430" lon="1.9400230">
        <ele>1106.8</ele>
        <time>2020-07-30T10:11:26Z</time>
      </trkpt>
      <trkpt lat="42.4365850" lon="1.9399150">
        <ele>1106.4</ele>
        <time>2020-07-30T10:11:28Z</time>
      </trkpt>
      <trkpt lat="42.4361130" lon="1.9396040">
        <ele>1105.2</ele>
        <time>2020-07-30T10:11:34Z</time>
      </trkpt>
      <trkpt lat="42.4360350" lon="1.9395540">
        <ele>1105.2</ele>
        <time>2020-07-30T10:11:35Z</time>
      </trkpt>
      <trkpt lat="42.4355020" lon="1.9392040">
        <ele>1104.8</ele>
        <time>2020-07-30T10:11:42Z</time>
      </trkpt>
      <trkpt lat="42.4350550" lon="1.9389000">
        <ele>1104.6</ele>
        <time>2020-07-30T10:11:48Z</time>
      </trkpt>
      <trkpt lat="42.4346520" lon="1.9385270">
        <ele>1104.8</ele>
        <time>2020-07-30T10:11:54Z</time>
      </trkpt>
      <trkpt lat="42.4342140" lon="1.9380460">
        <ele>1104.6</ele>
        <time>2020-07-30T10:12:01Z</time>
      </trkpt>
      <trkpt lat="42.4340910" lon="1.9379100">
        <ele>1104.6</ele>
        <time>2020-07-30T10:12:03Z</time>
      </trkpt>
      <trkpt lat="42.4340300" lon="1.9378430">
        <ele>1104.6</ele>
        <time>2020-07-30T10:12:04Z</time>
      </trkpt>
      <trkpt lat="42.4336030" lon="1.9373820">
        <ele>1104.4</ele>
        <time>2020-07-30T10:12:11Z</time>
      </trkpt>
      <trkpt lat="42.4333680" lon="1.9371170">
        <ele>1104.2</ele>
        <time>2020-07-30T10:12:15Z</time>
      </trkpt>
      <trkpt lat="42.4333180" lon="1.9370430">
        <ele>1104.2</ele>
        <time>2020-07-30T10:12:16Z</time>
      </trkpt>
      <trkpt lat="42.4332800" lon="1.9368660">
        <ele>1104.2</ele>
        <time>2020-07-30T10:12:18Z</time>
      </trkpt>
      <trkpt lat="42.4332620" lon="1.9365200">
        <ele>1104.2</ele>
        <time>2020-07-30T10:12:22Z</time>
      </trkpt>
      <trkpt lat="42.4332060" lon="1.9363580">
        <ele>1104.2</ele>
        <time>2020-07-30T10:12:24Z</time>
      </trkpt>
      <trkpt lat="42.4331820" lon="1.9362730">
        <ele>1104.2</ele>
        <time>2020-07-30T10:12:25Z</time>
      </trkpt>
      <trkpt lat="42.4331480" lon="1.9361010">
        <ele>1104.6</ele>
        <time>2020-07-30T10:12:27Z</time>
      </trkpt>
      <trkpt lat="42.4330970" lon="1.9358540">
        <ele>1105.0</ele>
        <time>2020-07-30T10:12:30Z</time>
      </trkpt>
      <trkpt lat="42.4330060" lon="1.9356340">
        <ele>1105.2</ele>
        <time>2020-07-30T10:12:33Z</time>
      </trkpt>
      <trkpt lat="42.4329660" lon="1.9355720">
        <ele>1105.6</ele>
        <time>2020-07-30T10:12:34Z</time>
      </trkpt>
      <trkpt lat="42.4328560" lon="1.9353770">
        <ele>1106.0</ele>
        <time>2020-07-30T10:12:37Z</time>
      </trkpt>
      <trkpt lat="42.4328010" lon="1.9352360">
        <ele>1106.4</ele>
        <time>2020-07-30T10:12:39Z</time>
      </trkpt>
      <trkpt lat="42.4327470" lon="1.9350200">
        <ele>1107.0</ele>
        <time>2020-07-30T10:12:42Z</time>
      </trkpt>
      <trkpt lat="42.4327030" lon="1.9348120">
        <ele>1107.2</ele>
        <time>2020-07-30T10:12:45Z</time>
      </trkpt>
      <trkpt lat="42.4326040" lon="1.9343480">
        <ele>1108.0</ele>
        <time>2020-07-30T10:12:52Z</time>
      </trkpt>
      <trkpt lat="42.4325900" lon="1.9342830">
        <ele>1108.2</ele>
        <time>2020-07-30T10:12:53Z</time>
      </trkpt>
      <trkpt lat="42.4325630" lon="1.9340890">
        <ele>1109.6</ele>
        <time>2020-07-30T10:12:56Z</time>
      </trkpt>
      <trkpt lat="42.4325790" lon="1.9339600">
        <ele>1109.8</ele>
        <time>2020-07-30T10:12:58Z</time>
      </trkpt>
      <trkpt lat="42.4326060" lon="1.9338450">
        <ele>1110.2</ele>
        <time>2020-07-30T10:13:00Z</time>
      </trkpt>
      <trkpt lat="42.4326030" lon="1.9336790">
        <ele>1110.6</ele>
        <time>2020-07-30T10:13:03Z</time>
      </trkpt>
      <trkpt lat="42.4325940" lon="1.9336270">
        <ele>1110.8</ele>
        <time>2020-07-30T10:13:04Z</time>
      </trkpt>
      <trkpt lat="42.4323910" lon="1.9332990">
        <ele>1114.6</ele>
        <time>2020-07-30T10:13:16Z</time>
      </trkpt>
      <trkpt lat="42.4323600" lon="1.9332320">
        <ele>1114.8</ele>
        <time>2020-07-30T10:13:18Z</time>
      </trkpt>
      <trkpt lat="42.4322720" lon="1.9330360">
        <ele>1114.8</ele>
        <time>2020-07-30T10:13:22Z</time>
      </trkpt>
      <trkpt lat="42.4322500" lon="1.9329790">
        <ele>1115.0</ele>
        <time>2020-07-30T10:13:23Z</time>
      </trkpt>
      <trkpt lat="42.4321960" lon="1.9327980">
        <ele>1115.0</ele>
        <time>2020-07-30T10:13:26Z</time>
      </trkpt>
      <trkpt lat="42.4321650" lon="1.9326780">
        <ele>1115.0</ele>
        <time>2020-07-30T10:13:28Z</time>
      </trkpt>
      <trkpt lat="42.4321450" lon="1.9326220">
        <ele>1115.0</ele>
        <time>2020-07-30T10:13:29Z</time>
      </trkpt>
      <trkpt lat="42.4320340" lon="1.9323700">
        <ele>1116.0</ele>
        <time>2020-07-30T10:13:34Z</time>
      </trkpt>
      <trkpt lat="42.4319680" lon="1.9322260">
        <ele>1117.2</ele>
        <time>2020-07-30T10:13:37Z</time>
      </trkpt>
      <trkpt lat="42.4319220" lon="1.9321340">
        <ele>1117.6</ele>
        <time>2020-07-30T10:13:39Z</time>
      </trkpt>
      <trkpt lat="42.4318960" lon="1.9320920">
        <ele>1117.8</ele>
        <time>2020-07-30T10:13:40Z</time>
      </trkpt>
      <trkpt lat="42.4318670" lon="1.9320530">
        <ele>1118.2</ele>
        <time>2020-07-30T10:13:41Z</time>
      </trkpt>
      <trkpt lat="42.4317410" lon="1.9319030">
        <ele>1119.2</ele>
        <time>2020-07-30T10:13:45Z</time>
      </trkpt>
      <trkpt lat="42.4313920" lon="1.9315430">
        <ele>1120.4</ele>
        <time>2020-07-30T10:13:55Z</time>
      </trkpt>
      <trkpt lat="42.4313220" lon="1.9314760">
        <ele>1120.4</ele>
        <time>2020-07-30T10:13:57Z</time>
      </trkpt>
      <trkpt lat="42.4310070" lon="1.9311640">
        <ele>1121.2</ele>
        <time>2020-07-30T10:14:06Z</time>
      </trkpt>
      <trkpt lat="42.4308980" lon="1.9310580">
        <ele>1121.6</ele>
        <time>2020-07-30T10:14:09Z</time>
      </trkpt>
      <trkpt lat="42.4306500" lon="1.9308050">
        <ele>1122.6</ele>
        <time>2020-07-30T10:14:16Z</time>
      </trkpt>
      <trkpt lat="42.4306170" lon="1.9307690">
        <ele>1122.8</ele>
        <time>2020-07-30T10:14:17Z</time>
      </trkpt>
      <trkpt lat="42.4303630" lon="1.9305220">
        <ele>1123.6</ele>
        <time>2020-07-30T10:14:24Z</time>
      </trkpt>
      <trkpt lat="42.4302910" lon="1.9304530">
        <ele>1124.0</ele>
        <time>2020-07-30T10:14:26Z</time>
      </trkpt>
      <trkpt lat="42.4301910" lon="1.9303390">
        <ele>1124.8</ele>
        <time>2020-07-30T10:14:29Z</time>
      </trkpt>
      <trkpt lat="42.4300990" lon="1.9302100">
        <ele>1125.2</ele>
        <time>2020-07-30T10:14:32Z</time>
      </trkpt>
      <trkpt lat="42.4299460" lon="1.9299400">
        <ele>1126.4</ele>
        <time>2020-07-30T10:14:38Z</time>
      </trkpt>
      <trkpt lat="42.4330520" lon="1.9299680">
        <ele>1157.8</ele>
        <time>2020-07-30T11:31:06Z</time>
      </trkpt>
      <trkpt lat="42.4332280" lon="1.9300290">
        <ele>1157.2</ele>
        <time>2020-07-30T11:31:09Z</time>
      </trkpt>
      <trkpt lat="42.4333850" lon="1.9300060">
        <ele>1156.8</ele>
        <time>2020-07-30T11:31:11Z</time>
      </trkpt>
      <trkpt lat="42.4334800" lon="1.9299580">
        <ele>1156.6</ele>
        <time>2020-07-30T11:31:13Z</time>
      </trkpt>
      <trkpt lat="42.4337340" lon="1.9298280">
        <ele>1156.6</ele>
        <time>2020-07-30T11:31:20Z</time>
      </trkpt>
      <trkpt lat="42.4338350" lon="1.9297090">
        <ele>1157.6</ele>
        <time>2020-07-30T11:31:25Z</time>
      </trkpt>
      <trkpt lat="42.4338830" lon="1.9296710">
        <ele>1158.2</ele>
        <time>2020-07-30T11:31:27Z</time>
      </trkpt>
      <trkpt lat="42.4340440" lon="1.9295820">
        <ele>1159.2</ele>
        <time>2020-07-30T11:31:32Z</time>
      </trkpt>
      <trkpt lat="42.4341400" lon="1.9294370">
        <ele>1160.6</ele>
        <time>2020-07-30T11:31:36Z</time>
      </trkpt>
      <trkpt lat="42.4341450" lon="1.9293960">
        <ele>1161.0</ele>
        <time>2020-07-30T11:31:37Z</time>
      </trkpt>
      <trkpt lat="42.4341490" lon="1.9293340">
        <ele>1161.2</ele>
        <time>2020-07-30T11:31:39Z</time>
      </trkpt>
      <trkpt lat="42.4341480" lon="1.9292710">
        <ele>1161.8</ele>
        <time>2020-07-30T11:31:42Z</time>
      </trkpt>
      <trkpt lat="42.4341640" lon="1.9292530">
        <ele>1162.0</ele>
        <time>2020-07-30T11:31:43Z</time>
      </trkpt>
      <trkpt lat="42.4342250" lon="1.9292760">
        <ele>1163.0</ele>
        <time>2020-07-30T11:31:47Z</time>
      </trkpt>
      <trkpt lat="42.4342790" lon="1.9292690">
        <ele>1163.4</ele>
        <time>2020-07-30T11:31:49Z</time>
      </trkpt>
      <trkpt lat="42.4343200" lon="1.9292620">
        <ele>1164.2</ele>
        <time>2020-07-30T11:31:51Z</time>
      </trkpt>
      <trkpt lat="42.4343290" lon="1.9292550">
        <ele>1164.4</ele>
        <time>2020-07-30T11:31:52Z</time>
      </trkpt>
      <trkpt lat="42.4344170" lon="1.9292240">
        <ele>1165.2</ele>
        <time>2020-07-30T11:31:56Z</time>
      </trkpt>
      <trkpt lat="42.4344420" lon="1.9292230">
        <ele>1165.4</ele>
        <time>2020-07-30T11:31:57Z</time>
      </trkpt>
      <trkpt lat="42.4345700" lon="1.9292420">
        <ele>1165.6</ele>
        <time>2020-07-30T11:32:00Z</time>
      </trkpt>
      <trkpt lat="42.4346810" lon="1.9293120">
        <ele>1165.6</ele>
        <time>2020-07-30T11:32:03Z</time>
      </trkpt>
      <trkpt lat="42.4347750" lon="1.9294110">
        <ele>1165.6</ele>
        <time>2020-07-30T11:32:06Z</time>
      </trkpt>
      <trkpt lat="42.4348490" lon="1.9295180">
        <ele>1165.6</ele>
        <time>2020-07-30T11:32:08Z</time>
      </trkpt>
      <trkpt lat="42.4349230" lon="1.9296360">
        <ele>1165.4</ele>
        <time>2020-07-30T11:32:10Z</time>
      </trkpt>
      <trkpt lat="42.4349470" lon="1.9297060">
        <ele>1165.4</ele>
        <time>2020-07-30T11:32:11Z</time>
      </trkpt>
      <trkpt lat="42.4349700" lon="1.9297740">
        <ele>1165.2</ele>
        <time>2020-07-30T11:32:12Z</time>
      </trkpt>
      <trkpt lat="42.4350730" lon="1.9300450">
        <ele>1165.0</ele>
        <time>2020-07-30T11:32:16Z</time>
      </trkpt>
      <trkpt lat="42.4351190" lon="1.9302530">
        <ele>1164.8</ele>
        <time>2020-07-30T11:32:19Z</time>
      </trkpt>
      <trkpt lat="42.4351990" lon="1.9305380">
        <ele>1164.8</ele>
        <time>2020-07-30T11:32:23Z</time>
      </trkpt>
      <trkpt lat="42.4352520" lon="1.9307420">
        <ele>1164.8</ele>
        <time>2020-07-30T11:32:26Z</time>
      </trkpt>
      <trkpt lat="42.4354140" lon="1.9312140">
        <ele>1165.0</ele>
        <time>2020-07-30T11:32:33Z</time>
      </trkpt>
      <trkpt lat="42.4354070" lon="1.9313510">
        <ele>1165.0</ele>
        <time>2020-07-30T11:32:35Z</time>
      </trkpt>
      <trkpt lat="42.4353280" lon="1.9313860">
        <ele>1165.0</ele>
        <time>2020-07-30T11:32:37Z</time>
      </trkpt>
      <trkpt lat="42.4352350" lon="1.9312710">
        <ele>1164.8</ele>
        <time>2020-07-30T11:32:39Z</time>
      </trkpt>
      <trkpt lat="42.4351960" lon="1.9311880">
        <ele>1164.2</ele>
        <time>2020-07-30T11:32:40Z</time>
      </trkpt>
      <trkpt lat="42.4351360" lon="1.9309930">
        <ele>1163.2</ele>
        <time>2020-07-30T11:32:42Z</time>
      </trkpt>
      <trkpt lat="42.4351110" lon="1.9308980">
        <ele>1162.2</ele>
        <time>2020-07-30T11:32:43Z</time>
      </trkpt>
      <trkpt lat="42.4350800" lon="1.9308030">
        <ele>1161.0</ele>
        <time>2020-07-30T11:32:44Z</time>
      </trkpt>
      <trkpt lat="42.4350420" lon="1.9307060">
        <ele>1159.6</ele>
        <time>2020-07-30T11:32:45Z</time>
      </trkpt>
      <trkpt lat="42.4350130" lon="1.9306100">
        <ele>1158.6</ele>
        <time>2020-07-30T11:32:46Z</time>
      </trkpt>
      <trkpt lat="42.4349850" lon="1.9305200">
        <ele>1157.4</ele>
        <time>2020-07-30T11:32:47Z</time>
      </trkpt>
      <trkpt lat="42.4349570" lon="1.9304350">
        <ele>1156.4</ele>
        <time>2020-07-30T11:32:48Z</time>
      </trkpt>
      <trkpt lat="42.4349050" lon="1.9302810">
        <ele>1155.4</ele>
        <time>2020-07-30T11:32:50Z</time>
      </trkpt>
      <trkpt lat="42.4348670" lon="1.9302130">
        <ele>1155.2</ele>
        <time>2020-07-30T11:32:51Z</time>
      </trkpt>
      <trkpt lat="42.4347130" lon="1.9301330">
        <ele>1154.8</ele>
        <time>2020-07-30T11:32:54Z</time>
      </trkpt>
      <trkpt lat="42.4344890" lon="1.9301960">
        <ele>1154.6</ele>
        <time>2020-07-30T11:32:57Z</time>
      </trkpt>
      <trkpt lat="42.4343250" lon="1.9302590">
        <ele>1154.2</ele>
        <time>2020-07-30T11:32:59Z</time>
      </trkpt>
      <trkpt lat="42.4341390" lon="1.9303770">
        <ele>1153.8</ele>
        <time>2020-07-30T11:33:02Z</time>
      </trkpt>
      <trkpt lat="42.4340950" lon="1.9304430">
        <ele>1153.0</ele>
        <time>2020-07-30T11:33:03Z</time>
      </trkpt>
      <trkpt lat="42.4340600" lon="1.9305310">
        <ele>1151.8</ele>
        <time>2020-07-30T11:33:04Z</time>
      </trkpt>
      <trkpt lat="42.4340320" lon="1.9306350">
        <ele>1150.4</ele>
        <time>2020-07-30T11:33:05Z</time>
      </trkpt>
      <trkpt lat="42.4340100" lon="1.9307500">
        <ele>1149.4</ele>
        <time>2020-07-30T11:33:06Z</time>
      </trkpt>
      <trkpt lat="42.4339680" lon="1.9309820">
        <ele>1147.2</ele>
        <time>2020-07-30T11:33:08Z</time>
      </trkpt>
      <trkpt lat="42.4339300" lon="1.9312090">
        <ele>1145.8</ele>
        <time>2020-07-30T11:33:10Z</time>
      </trkpt>
      <trkpt lat="42.4339140" lon="1.9313190">
        <ele>1144.6</ele>
        <time>2020-07-30T11:33:11Z</time>
      </trkpt>
      <trkpt lat="42.4339010" lon="1.9314240">
        <ele>1143.6</ele>
        <time>2020-07-30T11:33:12Z</time>
      </trkpt>
      <trkpt lat="42.4338890" lon="1.9315270">
        <ele>1142.2</ele>
        <time>2020-07-30T11:33:13Z</time>
      </trkpt>
      <trkpt lat="42.4338770" lon="1.9316250">
        <ele>1141.0</ele>
        <time>2020-07-30T11:33:14Z</time>
      </trkpt>
      <trkpt lat="42.4338680" lon="1.9317120">
        <ele>1139.6</ele>
        <time>2020-07-30T11:33:15Z</time>
      </trkpt>
      <trkpt lat="42.4338580" lon="1.9317910">
        <ele>1138.6</ele>
        <time>2020-07-30T11:33:16Z</time>
      </trkpt>
      <trkpt lat="42.4338570" lon="1.9318650">
        <ele>1137.8</ele>
        <time>2020-07-30T11:33:17Z</time>
      </trkpt>
      <trkpt lat="42.4338660" lon="1.9319370">
        <ele>1137.4</ele>
        <time>2020-07-30T11:33:18Z</time>
      </trkpt>
      <trkpt lat="42.4338980" lon="1.9320030">
        <ele>1137.0</ele>
        <time>2020-07-30T11:33:19Z</time>
      </trkpt>
      <trkpt lat="42.4339980" lon="1.9321140">
        <ele>1135.6</ele>
        <time>2020-07-30T11:33:21Z</time>
      </trkpt>
      <trkpt lat="42.4340480" lon="1.9321710">
        <ele>1135.0</ele>
        <time>2020-07-30T11:33:22Z</time>
      </trkpt>
      <trkpt lat="42.4340940" lon="1.9322370">
        <ele>1134.8</ele>
        <time>2020-07-30T11:33:23Z</time>
      </trkpt>
      <trkpt lat="42.4341340" lon="1.9323090">
        <ele>1134.4</ele>
        <time>2020-07-30T11:33:24Z</time>
      </trkpt>
      <trkpt lat="42.4342320" lon="1.9325500">
        <ele>1133.4</ele>
        <time>2020-07-30T11:33:27Z</time>
      </trkpt>
      <trkpt lat="42.4342580" lon="1.9326340">
        <ele>1133.2</ele>
        <time>2020-07-30T11:33:28Z</time>
      </trkpt>
      <trkpt lat="42.4343000" lon="1.9327960">
        <ele>1133.0</ele>
        <time>2020-07-30T11:33:30Z</time>
      </trkpt>
      <trkpt lat="42.4343240" lon="1.9329490">
        <ele>1133.0</ele>
        <time>2020-07-30T11:33:32Z</time>
      </trkpt>
      <trkpt lat="42.4343390" lon="1.9332970">
        <ele>1133.0</ele>
        <time>2020-07-30T11:33:37Z</time>
      </trkpt>
      <trkpt lat="42.4343320" lon="1.9333630">
        <ele>1133.2</ele>
        <time>2020-07-30T11:33:38Z</time>
      </trkpt>
      <trkpt lat="42.4342480" lon="1.9335790">
        <ele>1134.2</ele>
        <time>2020-07-30T11:33:42Z</time>
      </trkpt>
      <trkpt lat="42.4342110" lon="1.9336310">
        <ele>1134.2</ele>
        <time>2020-07-30T11:33:43Z</time>
      </trkpt>
      <trkpt lat="42.4341770" lon="1.9336920">
        <ele>1134.2</ele>
        <time>2020-07-30T11:33:44Z</time>
      </trkpt>
      <trkpt lat="42.4341280" lon="1.9338540">
        <ele>1134.2</ele>
        <time>2020-07-30T11:33:46Z</time>
      </trkpt>
      <trkpt lat="42.4341290" lon="1.9341720">
        <ele>1134.2</ele>
        <time>2020-07-30T11:33:49Z</time>
      </trkpt>
      <trkpt lat="42.4342380" lon="1.9346330">
        <ele>1133.8</ele>
        <time>2020-07-30T11:33:53Z</time>
      </trkpt>
      <trkpt lat="42.4343590" lon="1.9349950">
        <ele>1132.2</ele>
        <time>2020-07-30T11:33:56Z</time>
      </trkpt>
      <trkpt lat="42.4344500" lon="1.9352350">
        <ele>1131.0</ele>
        <time>2020-07-30T11:33:58Z</time>
      </trkpt>
      <trkpt lat="42.4345010" lon="1.9353570">
        <ele>1130.2</ele>
        <time>2020-07-30T11:33:59Z</time>
      </trkpt>
      <trkpt lat="42.4345530" lon="1.9354820">
        <ele>1129.6</ele>
        <time>2020-07-30T11:34:00Z</time>
      </trkpt>
      <trkpt lat="42.4346800" lon="1.9358670">
        <ele>1128.4</ele>
        <time>2020-07-30T11:34:03Z</time>
      </trkpt>
      <trkpt lat="42.4346990" lon="1.9360020">
        <ele>1127.8</ele>
        <time>2020-07-30T11:34:04Z</time>
      </trkpt>
      <trkpt lat="42.4347030" lon="1.9361350">
        <ele>1126.4</ele>
        <time>2020-07-30T11:34:05Z</time>
      </trkpt>
      <trkpt lat="42.4346550" lon="1.9363790">
        <ele>1125.2</ele>
        <time>2020-07-30T11:34:07Z</time>
      </trkpt>
      <trkpt lat="42.4345400" lon="1.9365760">
        <ele>1123.8</ele>
        <time>2020-07-30T11:34:09Z</time>
      </trkpt>
      <trkpt lat="42.4344670" lon="1.9366490">
        <ele>1123.2</ele>
        <time>2020-07-30T11:34:10Z</time>
      </trkpt>
      <trkpt lat="42.4343870" lon="1.9367030">
        <ele>1122.6</ele>
        <time>2020-07-30T11:34:11Z</time>
      </trkpt>
      <trkpt lat="42.4342070" lon="1.9367370">
        <ele>1120.6</ele>
        <time>2020-07-30T11:34:13Z</time>
      </trkpt>
      <trkpt lat="42.4340290" lon="1.9367040">
        <ele>1119.2</ele>
        <time>2020-07-30T11:34:15Z</time>
      </trkpt>
      <trkpt lat="42.4339480" lon="1.9366820">
        <ele>1118.4</ele>
        <time>2020-07-30T11:34:16Z</time>
      </trkpt>
      <trkpt lat="42.4338730" lon="1.9366560">
        <ele>1117.6</ele>
        <time>2020-07-30T11:34:17Z</time>
      </trkpt>
      <trkpt lat="42.4337270" lon="1.9366080">
        <ele>1116.8</ele>
        <time>2020-07-30T11:34:19Z</time>
      </trkpt>
      <trkpt lat="42.4336530" lon="1.9365900">
        <ele>1116.2</ele>
        <time>2020-07-30T11:34:20Z</time>
      </trkpt>
      <trkpt lat="42.4335810" lon="1.9365810">
        <ele>1115.4</ele>
        <time>2020-07-30T11:34:21Z</time>
      </trkpt>
      <trkpt lat="42.4334470" lon="1.9365600">
        <ele>1114.0</ele>
        <time>2020-07-30T11:34:23Z</time>
      </trkpt>
      <trkpt lat="42.4333830" lon="1.9365360">
        <ele>1113.6</ele>
        <time>2020-07-30T11:34:24Z</time>
      </trkpt>
      <trkpt lat="42.4333210" lon="1.9365030">
        <ele>1113.0</ele>
        <time>2020-07-30T11:34:25Z</time>
      </trkpt>
      <trkpt lat="42.4331720" lon="1.9363320">
        <ele>1112.2</ele>
        <time>2020-07-30T11:34:28Z</time>
      </trkpt>
      <trkpt lat="42.4331380" lon="1.9361690">
        <ele>1112.0</ele>
        <time>2020-07-30T11:34:30Z</time>
      </trkpt>
      <trkpt lat="42.4331320" lon="1.9360880">
        <ele>1111.8</ele>
        <time>2020-07-30T11:34:31Z</time>
      </trkpt>
      <trkpt lat="42.4331210" lon="1.9360080">
        <ele>1111.6</ele>
        <time>2020-07-30T11:34:32Z</time>
      </trkpt>
      <trkpt lat="42.4331060" lon="1.9359310">
        <ele>1111.2</ele>
        <time>2020-07-30T11:34:33Z</time>
      </trkpt>
      <trkpt lat="42.4330210" lon="1.9357230">
        <ele>1111.0</ele>
        <time>2020-07-30T11:34:36Z</time>
      </trkpt>
      <trkpt lat="42.4329350" lon="1.9356210">
        <ele>1111.0</ele>
        <time>2020-07-30T11:34:38Z</time>
      </trkpt>
      <trkpt lat="42.4328290" lon="1.9355750">
        <ele>1111.0</ele>
        <time>2020-07-30T11:34:40Z</time>
      </trkpt>
      <trkpt lat="42.4326010" lon="1.9356050">
        <ele>1111.0</ele>
        <time>2020-07-30T11:34:44Z</time>
      </trkpt>
      <trkpt lat="42.4325400" lon="1.9356030">
        <ele>1111.4</ele>
        <time>2020-07-30T11:34:45Z</time>
      </trkpt>
      <trkpt lat="42.4323520" lon="1.9355410">
        <ele>1111.4</ele>
        <time>2020-07-30T11:34:48Z</time>
      </trkpt>
      <trkpt lat="42.4322900" lon="1.9355040">
        <ele>1111.4</ele>
        <time>2020-07-30T11:34:49Z</time>
      </trkpt>
      <trkpt lat="42.4320030" lon="1.9352810">
        <ele>1111.4</ele>
        <time>2020-07-30T11:34:54Z</time>
      </trkpt>
      <trkpt lat="42.4314950" lon="1.9348680">
        <ele>1110.2</ele>
        <time>2020-07-30T11:35:03Z</time>
      </trkpt>
      <trkpt lat="42.4314370" lon="1.9348210">
        <ele>1110.0</ele>
        <time>2020-07-30T11:35:04Z</time>
      </trkpt>
      <trkpt lat="42.4309250" lon="1.9343950">
        <ele>1109.8</ele>
        <time>2020-07-30T11:35:13Z</time>
      </trkpt>
      <trkpt lat="42.4307510" lon="1.9342440">
        <ele>1109.2</ele>
        <time>2020-07-30T11:35:16Z</time>
      </trkpt>
      <trkpt lat="42.4304110" lon="1.9339190">
        <ele>1108.2</ele>
        <time>2020-07-30T11:35:22Z</time>
      </trkpt>
      <trkpt lat="42.4303550" lon="1.9338650">
        <ele>1108.2</ele>
        <time>2020-07-30T11:35:23Z</time>
      </trkpt>
      <trkpt lat="42.4299370" lon="1.9334190">
        <ele>1108.6</ele>
        <time>2020-07-30T11:35:31Z</time>
      </trkpt>
      <trkpt lat="42.4295330" lon="1.9328930">
        <ele>1109.0</ele>
        <time>2020-07-30T11:35:40Z</time>
      </trkpt>
      <trkpt lat="42.4294910" lon="1.9328340">
        <ele>1109.2</ele>
        <time>2020-07-30T11:35:41Z</time>
      </trkpt>
      <trkpt lat="42.4292540" lon="1.9324600">
        <ele>1109.4</ele>
        <time>2020-07-30T11:35:47Z</time>
      </trkpt>
      <trkpt lat="42.4290720" lon="1.9321440">
        <ele>1109.6</ele>
        <time>2020-07-30T11:35:52Z</time>
      </trkpt>
      <trkpt lat="42.4287440" lon="1.9315120">
        <ele>1110.2</ele>
        <time>2020-07-30T11:36:02Z</time>
      </trkpt>
      <trkpt lat="42.4286810" lon="1.9313850">
        <ele>1110.4</ele>
        <time>2020-07-30T11:36:04Z</time>
      </trkpt>
      <trkpt lat="42.4286500" lon="1.9313220">
        <ele>1110.6</ele>
        <time>2020-07-30T11:36:05Z</time>
      </trkpt>
      <trkpt lat="42.4283780" lon="1.9307570">
        <ele>1111.8</ele>
        <time>2020-07-30T11:36:14Z</time>
      </trkpt>
      <trkpt lat="42.4283480" lon="1.9306950">
        <ele>1112.0</ele>
        <time>2020-07-30T11:36:15Z</time>
      </trkpt>
      <trkpt lat="42.4282890" lon="1.9305700">
        <ele>1112.0</ele>
        <time>2020-07-30T11:36:17Z</time>
      </trkpt>
      <trkpt lat="42.4280080" lon="1.9299860">
        <ele>1112.4</ele>
        <time>2020-07-30T11:36:26Z</time>
      </trkpt>
      <trkpt lat="42.4277070" lon="1.9293430">
        <ele>1112.4</ele>
        <time>2020-07-30T11:36:35Z</time>
      </trkpt>
      <trkpt lat="42.4276350" lon="1.9291880">
        <ele>1112.4</ele>
        <time>2020-07-30T11:36:37Z</time>
      </trkpt>
      <trkpt lat="42.4273610" lon="1.9285790">
        <ele>1111.2</ele>
        <time>2020-07-30T11:36:45Z</time>
      </trkpt>
      <trkpt lat="42.4273350" lon="1.9284950">
        <ele>1111.2</ele>
        <time>2020-07-30T11:36:46Z</time>
      </trkpt>
      <trkpt lat="42.4273090" lon="1.9283520">
        <ele>1111.0</ele>
        <time>2020-07-30T11:36:48Z</time>
      </trkpt>
      <trkpt lat="42.4273040" lon="1.9282280">
        <ele>1111.0</ele>
        <time>2020-07-30T11:36:50Z</time>
      </trkpt>
      <trkpt lat="42.4272880" lon="1.9280880">
        <ele>1111.0</ele>
        <time>2020-07-30T11:36:52Z</time>
      </trkpt>
      <trkpt lat="42.4272700" lon="1.9280090">
        <ele>1111.0</ele>
        <time>2020-07-30T11:36:53Z</time>
      </trkpt>
      <trkpt lat="42.4271630" lon="1.9277900">
        <ele>1110.8</ele>
        <time>2020-07-30T11:36:56Z</time>
      </trkpt>
      <trkpt lat="42.4269860" lon="1.9276430">
        <ele>1110.8</ele>
        <time>2020-07-30T11:36:59Z</time>
      </trkpt>
      <trkpt lat="42.4269270" lon="1.9275970">
        <ele>1110.8</ele>
        <time>2020-07-30T11:37:00Z</time>
      </trkpt>
      <trkpt lat="42.4266540" lon="1.9273020">
        <ele>1110.4</ele>
        <time>2020-07-30T11:37:05Z</time>
      </trkpt>
      <trkpt lat="42.4265610" lon="1.9271610">
        <ele>1110.0</ele>
        <time>2020-07-30T11:37:07Z</time>
      </trkpt>
      <trkpt lat="42.4264190" lon="1.9269560">
        <ele>1109.4</ele>
        <time>2020-07-30T11:37:10Z</time>
      </trkpt>
      <trkpt lat="42.4263220" lon="1.9268280">
        <ele>1109.2</ele>
        <time>2020-07-30T11:37:12Z</time>
      </trkpt>
      <trkpt lat="42.4260090" lon="1.9263810">
        <ele>1108.8</ele>
        <time>2020-07-30T11:37:19Z</time>
      </trkpt>
      <trkpt lat="42.4258630" lon="1.9260050">
        <ele>1108.4</ele>
        <time>2020-07-30T11:37:24Z</time>
      </trkpt>
      <trkpt lat="42.4258530" lon="1.9259250">
        <ele>1108.4</ele>
        <time>2020-07-30T11:37:25Z</time>
      </trkpt>
      <trkpt lat="42.4258090" lon="1.9255050">
        <ele>1108.2</ele>
        <time>2020-07-30T11:37:30Z</time>
      </trkpt>
      <trkpt lat="42.4257420" lon="1.9247600">
        <ele>1108.4</ele>
        <time>2020-07-30T11:37:39Z</time>
      </trkpt>
      <trkpt lat="42.4257270" lon="1.9245950">
        <ele>1108.4</ele>
        <time>2020-07-30T11:37:41Z</time>
      </trkpt>
      <trkpt lat="42.4257010" lon="1.9242560">
        <ele>1108.6</ele>
        <time>2020-07-30T11:37:45Z</time>
      </trkpt>
      <trkpt lat="42.4257200" lon="1.9240880">
        <ele>1108.6</ele>
        <time>2020-07-30T11:37:47Z</time>
      </trkpt>
      <trkpt lat="42.4258560" lon="1.9236100">
        <ele>1109.4</ele>
        <time>2020-07-30T11:37:53Z</time>
      </trkpt>
      <trkpt lat="42.4258480" lon="1.9232970">
        <ele>1109.4</ele>
        <time>2020-07-30T11:37:57Z</time>
      </trkpt>
      <trkpt lat="42.4256690" lon="1.9230820">
        <ele>1109.2</ele>
        <time>2020-07-30T11:38:01Z</time>
      </trkpt>
      <trkpt lat="42.4254860" lon="1.9230630">
        <ele>1109.2</ele>
        <time>2020-07-30T11:38:04Z</time>
      </trkpt>
      <trkpt lat="42.4253620" lon="1.9231150">
        <ele>1108.8</ele>
        <time>2020-07-30T11:38:06Z</time>
      </trkpt>
      <trkpt lat="42.4252310" lon="1.9231710">
        <ele>1108.6</ele>
        <time>2020-07-30T11:38:08Z</time>
      </trkpt>
      <trkpt lat="42.4250920" lon="1.9231870">
        <ele>1108.6</ele>
        <time>2020-07-30T11:38:10Z</time>
      </trkpt>
      <trkpt lat="42.4249540" lon="1.9231720">
        <ele>1108.4</ele>
        <time>2020-07-30T11:38:12Z</time>
      </trkpt>
      <trkpt lat="42.4248850" lon="1.9231550">
        <ele>1108.2</ele>
        <time>2020-07-30T11:38:13Z</time>
      </trkpt>
      <trkpt lat="42.4246130" lon="1.9230660">
        <ele>1107.4</ele>
        <time>2020-07-30T11:38:17Z</time>
      </trkpt>
      <trkpt lat="42.4244080" lon="1.9229910">
        <ele>1106.8</ele>
        <time>2020-07-30T11:38:20Z</time>
      </trkpt>
      <trkpt lat="42.4243390" lon="1.9229650">
        <ele>1106.6</ele>
        <time>2020-07-30T11:38:21Z</time>
      </trkpt>
      <trkpt lat="42.4237760" lon="1.9227460">
        <ele>1105.6</ele>
        <time>2020-07-30T11:38:29Z</time>
      </trkpt>
      <trkpt lat="42.4236370" lon="1.9226870">
        <ele>1105.6</ele>
        <time>2020-07-30T11:38:31Z</time>
      </trkpt>
      <trkpt lat="42.4232220" lon="1.9225270">
        <ele>1104.4</ele>
        <time>2020-07-30T11:38:37Z</time>
      </trkpt>
      <trkpt lat="42.4230130" lon="1.9224480">
        <ele>1104.2</ele>
        <time>2020-07-30T11:38:40Z</time>
      </trkpt>
      <trkpt lat="42.4224430" lon="1.9222390">
        <ele>1103.8</ele>
        <time>2020-07-30T11:38:48Z</time>
      </trkpt>
      <trkpt lat="42.4223710" lon="1.9222100">
        <ele>1103.8</ele>
        <time>2020-07-30T11:38:49Z</time>
      </trkpt>
      <trkpt lat="42.4221560" lon="1.9221250">
        <ele>1103.8</ele>
        <time>2020-07-30T11:38:52Z</time>
      </trkpt>
      <trkpt lat="42.4220850" lon="1.9220980">
        <ele>1103.6</ele>
        <time>2020-07-30T11:38:53Z</time>
      </trkpt>
      <trkpt lat="42.4216650" lon="1.9219440">
        <ele>1102.8</ele>
        <time>2020-07-30T11:38:59Z</time>
      </trkpt>
      <trkpt lat="42.4214660" lon="1.9218570">
        <ele>1102.6</ele>
        <time>2020-07-30T11:39:02Z</time>
      </trkpt>
      <trkpt lat="42.4212070" lon="1.9217580">
        <ele>1102.4</ele>
        <time>2020-07-30T11:39:06Z</time>
      </trkpt>
      <trkpt lat="42.4206320" lon="1.9215640">
        <ele>1102.6</ele>
        <time>2020-07-30T11:39:15Z</time>
      </trkpt>
      <trkpt lat="42.4205670" lon="1.9215410">
        <ele>1102.8</ele>
        <time>2020-07-30T11:39:16Z</time>
      </trkpt>
      <trkpt lat="42.4200110" lon="1.9213310">
        <ele>1103.0</ele>
        <time>2020-07-30T11:39:24Z</time>
      </trkpt>
      <trkpt lat="42.4199400" lon="1.9213030">
        <ele>1103.0</ele>
        <time>2020-07-30T11:39:25Z</time>
      </trkpt>
      <trkpt lat="42.4194410" lon="1.9211140">
        <ele>1101.6</ele>
        <time>2020-07-30T11:39:32Z</time>
      </trkpt>
      <trkpt lat="42.4190760" lon="1.9209760">
        <ele>1100.6</ele>
        <time>2020-07-30T11:39:37Z</time>
      </trkpt>
      <trkpt lat="42.4188540" lon="1.9208910">
        <ele>1100.4</ele>
        <time>2020-07-30T11:39:40Z</time>
      </trkpt>
      <trkpt lat="42.4183370" lon="1.9206990">
        <ele>1099.6</ele>
        <time>2020-07-30T11:39:47Z</time>
      </trkpt>
      <trkpt lat="42.4181160" lon="1.9206150">
        <ele>1098.6</ele>
        <time>2020-07-30T11:39:50Z</time>
      </trkpt>
      <trkpt lat="42.4180410" lon="1.9205890">
        <ele>1098.4</ele>
        <time>2020-07-30T11:39:51Z</time>
      </trkpt>
      <trkpt lat="42.4175120" lon="1.9203910">
        <ele>1098.2</ele>
        <time>2020-07-30T11:39:58Z</time>
      </trkpt>
      <trkpt lat="42.4171920" lon="1.9202710">
        <ele>1097.6</ele>
        <time>2020-07-30T11:40:02Z</time>
      </trkpt>
      <trkpt lat="42.4166070" lon="1.9200500">
        <ele>1096.4</ele>
        <time>2020-07-30T11:40:09Z</time>
      </trkpt>
      <trkpt lat="42.4163470" lon="1.9199600">
        <ele>1095.4</ele>
        <time>2020-07-30T11:40:12Z</time>
      </trkpt>
      <trkpt lat="42.4161730" lon="1.9198950">
        <ele>1094.4</ele>
        <time>2020-07-30T11:40:14Z</time>
      </trkpt>
      <trkpt lat="42.4160870" lon="1.9198620">
        <ele>1094.2</ele>
        <time>2020-07-30T11:40:15Z</time>
      </trkpt>
      <trkpt lat="42.4155680" lon="1.9196650">
        <ele>1093.0</ele>
        <time>2020-07-30T11:40:21Z</time>
      </trkpt>
      <trkpt lat="42.4152240" lon="1.9195330">
        <ele>1092.8</ele>
        <time>2020-07-30T11:40:25Z</time>
      </trkpt>
      <trkpt lat="42.4151360" lon="1.9195080">
        <ele>1092.6</ele>
        <time>2020-07-30T11:40:26Z</time>
      </trkpt>
      <trkpt lat="42.4148800" lon="1.9194240">
        <ele>1092.2</ele>
        <time>2020-07-30T11:40:29Z</time>
      </trkpt>
      <trkpt lat="42.4143260" lon="1.9192140">
        <ele>1091.4</ele>
        <time>2020-07-30T11:40:36Z</time>
      </trkpt>
      <trkpt lat="42.4142530" lon="1.9191880">
        <ele>1091.4</ele>
        <time>2020-07-30T11:40:37Z</time>
      </trkpt>
      <trkpt lat="42.4136600" lon="1.9189600">
        <ele>1091.4</ele>
        <time>2020-07-30T11:40:45Z</time>
      </trkpt>
      <trkpt lat="42.4131340" lon="1.9187600">
        <ele>1091.0</ele>
        <time>2020-07-30T11:40:52Z</time>
      </trkpt>
      <trkpt lat="42.4128300" lon="1.9186500">
        <ele>1090.8</ele>
        <time>2020-07-30T11:40:56Z</time>
      </trkpt>
      <trkpt lat="42.4123790" lon="1.9184770">
        <ele>1090.2</ele>
        <time>2020-07-30T11:41:02Z</time>
      </trkpt>
      <trkpt lat="42.4119970" lon="1.9183340">
        <ele>1089.2</ele>
        <time>2020-07-30T11:41:07Z</time>
      </trkpt>
      <trkpt lat="42.4118410" lon="1.9182730">
        <ele>1089.2</ele>
        <time>2020-07-30T11:41:09Z</time>
      </trkpt>
      <trkpt lat="42.4112870" lon="1.9180620">
        <ele>1088.6</ele>
        <time>2020-07-30T11:41:16Z</time>
      </trkpt>
      <trkpt lat="42.4112080" lon="1.9180320">
        <ele>1088.4</ele>
        <time>2020-07-30T11:41:17Z</time>
      </trkpt>
      <trkpt lat="42.4109630" lon="1.9179400">
        <ele>1087.8</ele>
        <time>2020-07-30T11:41:20Z</time>
      </trkpt>
      <trkpt lat="42.4107940" lon="1.9178790">
        <ele>1087.2</ele>
        <time>2020-07-30T11:41:22Z</time>
      </trkpt>
      <trkpt lat="42.4105370" lon="1.9177820">
        <ele>1086.2</ele>
        <time>2020-07-30T11:41:25Z</time>
      </trkpt>
      <trkpt lat="42.4101910" lon="1.9176470">
        <ele>1085.0</ele>
        <time>2020-07-30T11:41:29Z</time>
      </trkpt>
      <trkpt lat="42.4096730" lon="1.9174530">
        <ele>1083.6</ele>
        <time>2020-07-30T11:41:35Z</time>
      </trkpt>
      <trkpt lat="42.4094180" lon="1.9173590">
        <ele>1082.6</ele>
        <time>2020-07-30T11:41:38Z</time>
      </trkpt>
      <trkpt lat="42.4090830" lon="1.9172320">
        <ele>1082.0</ele>
        <time>2020-07-30T11:41:42Z</time>
      </trkpt>
      <trkpt lat="42.4088320" lon="1.9171370">
        <ele>1081.6</ele>
        <time>2020-07-30T11:41:45Z</time>
      </trkpt>
      <trkpt lat="42.4082580" lon="1.9169210">
        <ele>1080.8</ele>
        <time>2020-07-30T11:41:52Z</time>
      </trkpt>
      <trkpt lat="42.4081770" lon="1.9168900">
        <ele>1080.6</ele>
        <time>2020-07-30T11:41:53Z</time>
      </trkpt>
      <trkpt lat="42.4076160" lon="1.9166800">
        <ele>1080.2</ele>
        <time>2020-07-30T11:42:00Z</time>
      </trkpt>
      <trkpt lat="42.4072180" lon="1.9165310">
        <ele>1079.6</ele>
        <time>2020-07-30T11:42:05Z</time>
      </trkpt>
      <trkpt lat="42.4066650" lon="1.9163350">
        <ele>1079.0</ele>
        <time>2020-07-30T11:42:12Z</time>
      </trkpt>
      <trkpt lat="42.4062030" lon="1.9161610">
        <ele>1078.8</ele>
        <time>2020-07-30T11:42:18Z</time>
      </trkpt>
      <trkpt lat="42.4059750" lon="1.9160780">
        <ele>1078.8</ele>
        <time>2020-07-30T11:42:21Z</time>
      </trkpt>
      <trkpt lat="42.4054490" lon="1.9158410">
        <ele>1078.6</ele>
        <time>2020-07-30T11:42:28Z</time>
      </trkpt>
      <trkpt lat="42.4050680" lon="1.9156450">
        <ele>1077.8</ele>
        <time>2020-07-30T11:42:33Z</time>
      </trkpt>
      <trkpt lat="42.4046830" lon="1.9154340">
        <ele>1076.6</ele>
        <time>2020-07-30T11:42:38Z</time>
      </trkpt>
      <trkpt lat="42.4046060" lon="1.9153930">
        <ele>1076.4</ele>
        <time>2020-07-30T11:42:39Z</time>
      </trkpt>
      <trkpt lat="42.4042130" lon="1.9151990">
        <ele>1075.8</ele>
        <time>2020-07-30T11:42:44Z</time>
      </trkpt>
      <trkpt lat="42.4039690" lon="1.9151130">
        <ele>1075.4</ele>
        <time>2020-07-30T11:42:47Z</time>
      </trkpt>
      <trkpt lat="42.4036330" lon="1.9150560">
        <ele>1074.8</ele>
        <time>2020-07-30T11:42:51Z</time>
      </trkpt>
      <trkpt lat="42.4034610" lon="1.9150540">
        <ele>1074.4</ele>
        <time>2020-07-30T11:42:53Z</time>
      </trkpt>
      <trkpt lat="42.4029530" lon="1.9151480">
        <ele>1074.0</ele>
        <time>2020-07-30T11:42:59Z</time>
      </trkpt>
      <trkpt lat="42.4026250" lon="1.9152490">
        <ele>1074.0</ele>
        <time>2020-07-30T11:43:03Z</time>
      </trkpt>
      <trkpt lat="42.4021460" lon="1.9153870">
        <ele>1073.6</ele>
        <time>2020-07-30T11:43:09Z</time>
      </trkpt>
      <trkpt lat="42.4015720" lon="1.9155170">
        <ele>1073.2</ele>
        <time>2020-07-30T11:43:16Z</time>
      </trkpt>
      <trkpt lat="42.4014910" lon="1.9155300">
        <ele>1073.2</ele>
        <time>2020-07-30T11:43:17Z</time>
      </trkpt>
      <trkpt lat="42.4013270" lon="1.9155580">
        <ele>1072.8</ele>
        <time>2020-07-30T11:43:19Z</time>
      </trkpt>
      <trkpt lat="42.4010840" lon="1.9155450">
        <ele>1072.8</ele>
        <time>2020-07-30T11:43:22Z</time>
      </trkpt>
      <trkpt lat="42.4007200" lon="1.9154350">
        <ele>1072.4</ele>
        <time>2020-07-30T11:43:27Z</time>
      </trkpt>
      <trkpt lat="42.4006740" lon="1.9154180">
        <ele>1072.4</ele>
        <time>2020-07-30T11:43:28Z</time>
      </trkpt>
      <trkpt lat="42.4005770" lon="1.9153910">
        <ele>1072.6</ele>
        <time>2020-07-30T11:43:32Z</time>
      </trkpt>
      <trkpt lat="42.4005570" lon="1.9153890">
        <ele>1072.6</ele>
        <time>2020-07-30T11:43:33Z</time>
      </trkpt>
      <trkpt lat="42.4004550" lon="1.9154690">
        <ele>1073.2</ele>
        <time>2020-07-30T11:43:37Z</time>
      </trkpt>
      <trkpt lat="42.4003690" lon="1.9157130">
        <ele>1073.8</ele>
        <time>2020-07-30T11:43:42Z</time>
      </trkpt>
      <trkpt lat="42.4003380" lon="1.9158180">
        <ele>1073.8</ele>
        <time>2020-07-30T11:43:44Z</time>
      </trkpt>
      <trkpt lat="42.4002490" lon="1.9159230">
        <ele>1074.0</ele>
        <time>2020-07-30T11:43:47Z</time>
      </trkpt>
      <trkpt lat="42.4002150" lon="1.9159430">
        <ele>1074.4</ele>
        <time>2020-07-30T11:43:48Z</time>
      </trkpt>
      <trkpt lat="42.4001480" lon="1.9159690">
        <ele>1074.4</ele>
        <time>2020-07-30T11:43:50Z</time>
      </trkpt>
      <trkpt lat="42.4000500" lon="1.9159820">
        <ele>1075.2</ele>
        <time>2020-07-30T11:43:53Z</time>
      </trkpt>
      <trkpt lat="42.4000160" lon="1.9159770">
        <ele>1075.6</ele>
        <time>2020-07-30T11:43:54Z</time>
      </trkpt>
      <trkpt lat="42.3998620" lon="1.9159130">
        <ele>1077.0</ele>
        <time>2020-07-30T11:43:59Z</time>
      </trkpt>
      <trkpt lat="42.3998340" lon="1.9158920">
        <ele>1077.2</ele>
        <time>2020-07-30T11:44:00Z</time>
      </trkpt>
      <trkpt lat="42.3997520" lon="1.9158310">
        <ele>1078.4</ele>
        <time>2020-07-30T11:44:03Z</time>
      </trkpt>
      <trkpt lat="42.3996700" lon="1.9157700">
        <ele>1079.6</ele>
        <time>2020-07-30T11:44:06Z</time>
      </trkpt>
      <trkpt lat="42.3996170" lon="1.9157290">
        <ele>1080.0</ele>
        <time>2020-07-30T11:44:08Z</time>
      </trkpt>
      <trkpt lat="42.3995650" lon="1.9156880">
        <ele>1080.8</ele>
        <time>2020-07-30T11:44:10Z</time>
      </trkpt>
      <trkpt lat="42.3994360" lon="1.9155970">
        <ele>1082.0</ele>
        <time>2020-07-30T11:44:15Z</time>
      </trkpt>
      <trkpt lat="42.3993830" lon="1.9155680">
        <ele>1082.4</ele>
        <time>2020-07-30T11:44:17Z</time>
      </trkpt>
      <trkpt lat="42.3993280" lon="1.9155290">
        <ele>1083.0</ele>
        <time>2020-07-30T11:44:19Z</time>
      </trkpt>
      <trkpt lat="42.3992420" lon="1.9154980">
        <ele>1084.2</ele>
        <time>2020-07-30T11:44:22Z</time>
      </trkpt>
      <trkpt lat="42.3992120" lon="1.9154900">
        <ele>1084.6</ele>
        <time>2020-07-30T11:44:23Z</time>
      </trkpt>
      <trkpt lat="42.3990960" lon="1.9154670">
        <ele>1085.2</ele>
        <time>2020-07-30T11:44:27Z</time>
      </trkpt>
      <trkpt lat="42.3990650" lon="1.9154650">
        <ele>1085.6</ele>
        <time>2020-07-30T11:44:28Z</time>
      </trkpt>
      <trkpt lat="42.3989680" lon="1.9154640">
        <ele>1086.2</ele>
        <time>2020-07-30T11:44:31Z</time>
      </trkpt>
      <trkpt lat="42.3989340" lon="1.9154650">
        <ele>1086.6</ele>
        <time>2020-07-30T11:44:32Z</time>
      </trkpt>
      <trkpt lat="42.3987510" lon="1.9155010">
        <ele>1087.8</ele>
        <time>2020-07-30T11:44:37Z</time>
      </trkpt>
      <trkpt lat="42.3987150" lon="1.9155130">
        <ele>1088.0</ele>
        <time>2020-07-30T11:44:38Z</time>
      </trkpt>
      <trkpt lat="42.3983720" lon="1.9156280">
        <ele>1089.0</ele>
        <time>2020-07-30T11:44:47Z</time>
      </trkpt>
      <trkpt lat="42.3983300" lon="1.9156400">
        <ele>1089.0</ele>
        <time>2020-07-30T11:44:48Z</time>
      </trkpt>
      <trkpt lat="42.3979920" lon="1.9157110">
        <ele>1090.4</ele>
        <time>2020-07-30T11:44:56Z</time>
      </trkpt>
      <trkpt lat="42.3978250" lon="1.9157290">
        <ele>1090.8</ele>
        <time>2020-07-30T11:45:00Z</time>
      </trkpt>
      <trkpt lat="42.3975830" lon="1.9157060">
        <ele>1091.6</ele>
        <time>2020-07-30T11:45:06Z</time>
      </trkpt>
      <trkpt lat="42.3974680" lon="1.9156770">
        <ele>1091.8</ele>
        <time>2020-07-30T11:45:09Z</time>
      </trkpt>
      <trkpt lat="42.3972430" lon="1.9155920">
        <ele>1092.8</ele>
        <time>2020-07-30T11:45:15Z</time>
      </trkpt>
      <trkpt lat="42.3971740" lon="1.9155550">
        <ele>1093.2</ele>
        <time>2020-07-30T11:45:17Z</time>
      </trkpt>
      <trkpt lat="42.3971080" lon="1.9155180">
        <ele>1093.8</ele>
        <time>2020-07-30T11:45:19Z</time>
      </trkpt>
      <trkpt lat="42.3969120" lon="1.9154020">
        <ele>1094.8</ele>
        <time>2020-07-30T11:45:25Z</time>
      </trkpt>
      <trkpt lat="42.3968790" lon="1.9153820">
        <ele>1095.2</ele>
        <time>2020-07-30T11:45:26Z</time>
      </trkpt>
      <trkpt lat="42.3967840" lon="1.9153130">
        <ele>1096.0</ele>
        <time>2020-07-30T11:45:29Z</time>
      </trkpt>
      <trkpt lat="42.3966350" lon="1.9151810">
        <ele>1096.8</ele>
        <time>2020-07-30T11:45:34Z</time>
      </trkpt>
      <trkpt lat="42.3966050" lon="1.9151550">
        <ele>1097.4</ele>
        <time>2020-07-30T11:45:35Z</time>
      </trkpt>
      <trkpt lat="42.3963970" lon="1.9149800">
        <ele>1098.4</ele>
        <time>2020-07-30T11:45:42Z</time>
      </trkpt>
      <trkpt lat="42.3963130" lon="1.9149040">
        <ele>1098.6</ele>
        <time>2020-07-30T11:45:45Z</time>
      </trkpt>
      <trkpt lat="42.3961750" lon="1.9147710">
        <ele>1099.6</ele>
        <time>2020-07-30T11:45:50Z</time>
      </trkpt>
      <trkpt lat="42.3960770" lon="1.9146560">
        <ele>1100.6</ele>
        <time>2020-07-30T11:45:54Z</time>
      </trkpt>
      <trkpt lat="42.3960520" lon="1.9146260">
        <ele>1100.8</ele>
        <time>2020-07-30T11:45:55Z</time>
      </trkpt>
      <trkpt lat="42.3959550" lon="1.9144950">
        <ele>1102.0</ele>
        <time>2020-07-30T11:45:59Z</time>
      </trkpt>
      <trkpt lat="42.3958850" lon="1.9143920">
        <ele>1102.8</ele>
        <time>2020-07-30T11:46:02Z</time>
      </trkpt>
      <trkpt lat="42.3958380" lon="1.9143240">
        <ele>1103.4</ele>
        <time>2020-07-30T11:46:04Z</time>
      </trkpt>
      <trkpt lat="42.3958170" lon="1.9142880">
        <ele>1103.6</ele>
        <time>2020-07-30T11:46:05Z</time>
      </trkpt>
      <trkpt lat="42.3957250" lon="1.9141480">
        <ele>1104.4</ele>
        <time>2020-07-30T11:46:09Z</time>
      </trkpt>
      <trkpt lat="42.3955890" lon="1.9139310">
        <ele>1105.4</ele>
        <time>2020-07-30T11:46:15Z</time>
      </trkpt>
      <trkpt lat="42.3955660" lon="1.9138950">
        <ele>1105.6</ele>
        <time>2020-07-30T11:46:16Z</time>
      </trkpt>
      <trkpt lat="42.3954360" lon="1.9136680">
        <ele>1106.8</ele>
        <time>2020-07-30T11:46:22Z</time>
      </trkpt>
      <trkpt lat="42.3953900" lon="1.9135960">
        <ele>1107.4</ele>
        <time>2020-07-30T11:46:24Z</time>
      </trkpt>
      <trkpt lat="42.3952560" lon="1.9134310">
        <ele>1108.0</ele>
        <time>2020-07-30T11:46:29Z</time>
      </trkpt>
      <trkpt lat="42.3951970" lon="1.9133730">
        <ele>1108.4</ele>
        <time>2020-07-30T11:46:31Z</time>
      </trkpt>
      <trkpt lat="42.3951080" lon="1.9132980">
        <ele>1109.6</ele>
        <time>2020-07-30T11:46:34Z</time>
      </trkpt>
      <trkpt lat="42.3949470" lon="1.9131980">
        <ele>1110.4</ele>
        <time>2020-07-30T11:46:39Z</time>
      </trkpt>
      <trkpt lat="42.3948790" lon="1.9131570">
        <ele>1110.6</ele>
        <time>2020-07-30T11:46:41Z</time>
      </trkpt>
      <trkpt lat="42.3946050" lon="1.9130410">
        <ele>1111.8</ele>
        <time>2020-07-30T11:46:49Z</time>
      </trkpt>
      <trkpt lat="42.3945710" lon="1.9130320">
        <ele>1112.2</ele>
        <time>2020-07-30T11:46:50Z</time>
      </trkpt>
      <trkpt lat="42.3943660" lon="1.9130250">
        <ele>1113.2</ele>
        <time>2020-07-30T11:46:56Z</time>
      </trkpt>
      <trkpt lat="42.3943300" lon="1.9130330">
        <ele>1113.4</ele>
        <time>2020-07-30T11:46:57Z</time>
      </trkpt>
      <trkpt lat="42.3942260" lon="1.9130670">
        <ele>1114.2</ele>
        <time>2020-07-30T11:47:00Z</time>
      </trkpt>
      <trkpt lat="42.3940560" lon="1.9131270">
        <ele>1115.2</ele>
        <time>2020-07-30T11:47:05Z</time>
      </trkpt>
      <trkpt lat="42.3939890" lon="1.9131560">
        <ele>1115.4</ele>
        <time>2020-07-30T11:47:07Z</time>
      </trkpt>
      <trkpt lat="42.3937700" lon="1.9132490">
        <ele>1116.6</ele>
        <time>2020-07-30T11:47:13Z</time>
      </trkpt>
      <trkpt lat="42.3936880" lon="1.9132820">
        <ele>1116.8</ele>
        <time>2020-07-30T11:47:15Z</time>
      </trkpt>
      <trkpt lat="42.3932600" lon="1.9134550">
        <ele>1117.6</ele>
        <time>2020-07-30T11:47:25Z</time>
      </trkpt>
      <trkpt lat="42.3932180" lon="1.9134680">
        <ele>1117.6</ele>
        <time>2020-07-30T11:47:26Z</time>
      </trkpt>
      <trkpt lat="42.3930850" lon="1.9134900">
        <ele>1117.8</ele>
        <time>2020-07-30T11:47:29Z</time>
      </trkpt>
      <trkpt lat="42.3929500" lon="1.9134590">
        <ele>1117.8</ele>
        <time>2020-07-30T11:47:32Z</time>
      </trkpt>
      <trkpt lat="42.3927620" lon="1.9132780">
        <ele>1118.0</ele>
        <time>2020-07-30T11:47:37Z</time>
      </trkpt>
      <trkpt lat="42.3927330" lon="1.9132300">
        <ele>1118.2</ele>
        <time>2020-07-30T11:47:38Z</time>
      </trkpt>
      <trkpt lat="42.3925510" lon="1.9128480">
        <ele>1118.6</ele>
        <time>2020-07-30T11:47:45Z</time>
      </trkpt>
      <trkpt lat="42.3925250" lon="1.9127880">
        <ele>1119.0</ele>
        <time>2020-07-30T11:47:46Z</time>
      </trkpt>
      <trkpt lat="42.3923340" lon="1.9123650">
        <ele>1119.6</ele>
        <time>2020-07-30T11:47:53Z</time>
      </trkpt>
      <trkpt lat="42.3921030" lon="1.9118520">
        <ele>1120.0</ele>
        <time>2020-07-30T11:48:02Z</time>
      </trkpt>
      <trkpt lat="42.3919280" lon="1.9114540">
        <ele>1120.8</ele>
        <time>2020-07-30T11:48:10Z</time>
      </trkpt>
      <trkpt lat="42.3918680" lon="1.9113170">
        <ele>1121.2</ele>
        <time>2020-07-30T11:48:13Z</time>
      </trkpt>
      <trkpt lat="42.3918080" lon="1.9111810">
        <ele>1122.4</ele>
        <time>2020-07-30T11:48:16Z</time>
      </trkpt>
      <trkpt lat="42.3917310" lon="1.9110030">
        <ele>1123.4</ele>
        <time>2020-07-30T11:48:20Z</time>
      </trkpt>
      <trkpt lat="42.3916920" lon="1.9109180">
        <ele>1124.0</ele>
        <time>2020-07-30T11:48:22Z</time>
      </trkpt>
      <trkpt lat="42.3916300" lon="1.9108010">
        <ele>1124.6</ele>
        <time>2020-07-30T11:48:25Z</time>
      </trkpt>
      <trkpt lat="42.3914970" lon="1.9105800">
        <ele>1125.8</ele>
        <time>2020-07-30T11:48:31Z</time>
      </trkpt>
      <trkpt lat="42.3914690" lon="1.9105510">
        <ele>1126.0</ele>
        <time>2020-07-30T11:48:32Z</time>
      </trkpt>
      <trkpt lat="42.3913800" lon="1.9104760">
        <ele>1126.6</ele>
        <time>2020-07-30T11:48:35Z</time>
      </trkpt>
      <trkpt lat="42.3913520" lon="1.9104500">
        <ele>1127.0</ele>
        <time>2020-07-30T11:48:36Z</time>
      </trkpt>
      <trkpt lat="42.3912320" lon="1.9103690">
        <ele>1127.8</ele>
        <time>2020-07-30T11:48:40Z</time>
      </trkpt>
      <trkpt lat="42.3911990" lon="1.9103550">
        <ele>1128.2</ele>
        <time>2020-07-30T11:48:41Z</time>
      </trkpt>
      <trkpt lat="42.3910970" lon="1.9103100">
        <ele>1129.2</ele>
        <time>2020-07-30T11:48:44Z</time>
      </trkpt>
      <trkpt lat="42.3908990" lon="1.9102110">
        <ele>1130.2</ele>
        <time>2020-07-30T11:48:50Z</time>
      </trkpt>
      <trkpt lat="42.3908660" lon="1.9101970">
        <ele>1130.4</ele>
        <time>2020-07-30T11:48:51Z</time>
      </trkpt>
      <trkpt lat="42.3906040" lon="1.9100770">
        <ele>1131.8</ele>
        <time>2020-07-30T11:48:59Z</time>
      </trkpt>
      <trkpt lat="42.3905070" lon="1.9100280">
        <ele>1132.8</ele>
        <time>2020-07-30T11:49:02Z</time>
      </trkpt>
      <trkpt lat="42.3904750" lon="1.9100120">
        <ele>1133.0</ele>
        <time>2020-07-30T11:49:03Z</time>
      </trkpt>
      <trkpt lat="42.3902010" lon="1.9098890">
        <ele>1134.4</ele>
        <time>2020-07-30T11:49:11Z</time>
      </trkpt>
      <trkpt lat="42.3901260" lon="1.9098550">
        <ele>1134.8</ele>
        <time>2020-07-30T11:49:13Z</time>
      </trkpt>
      <trkpt lat="42.3899280" lon="1.9097610">
        <ele>1135.4</ele>
        <time>2020-07-30T11:49:18Z</time>
      </trkpt>
      <trkpt lat="42.3897570" lon="1.9096850">
        <ele>1135.8</ele>
        <time>2020-07-30T11:49:22Z</time>
      </trkpt>
      <trkpt lat="42.3893590" lon="1.9095060">
        <ele>1136.2</ele>
        <time>2020-07-30T11:49:31Z</time>
      </trkpt>
      <trkpt lat="42.3891000" lon="1.9093700">
        <ele>1136.8</ele>
        <time>2020-07-30T11:49:37Z</time>
      </trkpt>
      <trkpt lat="42.3889680" lon="1.9093070">
        <ele>1136.8</ele>
        <time>2020-07-30T11:49:40Z</time>
      </trkpt>
      <trkpt lat="42.3884480" lon="1.9090610">
        <ele>1137.6</ele>
        <time>2020-07-30T11:49:52Z</time>
      </trkpt>
      <trkpt lat="42.3884040" lon="1.9090390">
        <ele>1137.8</ele>
        <time>2020-07-30T11:49:53Z</time>
      </trkpt>
      <trkpt lat="42.3880530" lon="1.9088740">
        <ele>1138.8</ele>
        <time>2020-07-30T11:50:01Z</time>
      </trkpt>
      <trkpt lat="42.3879240" lon="1.9088130">
        <ele>1139.0</ele>
        <time>2020-07-30T11:50:04Z</time>
      </trkpt>
      <trkpt lat="42.3874520" lon="1.9085940">
        <ele>1139.4</ele>
        <time>2020-07-30T11:50:15Z</time>
      </trkpt>
      <trkpt lat="42.3873640" lon="1.9085550">
        <ele>1140.0</ele>
        <time>2020-07-30T11:50:17Z</time>
      </trkpt>
      <trkpt lat="42.3870620" lon="1.9084190">
        <ele>1141.0</ele>
        <time>2020-07-30T11:50:24Z</time>
      </trkpt>
      <trkpt lat="42.3868510" lon="1.9083190">
        <ele>1141.4</ele>
        <time>2020-07-30T11:50:29Z</time>
      </trkpt>
      <trkpt lat="42.3866530" lon="1.9082280">
        <ele>1142.2</ele>
        <time>2020-07-30T11:50:34Z</time>
      </trkpt>
      <trkpt lat="42.3864240" lon="1.9081210">
        <ele>1143.0</ele>
        <time>2020-07-30T11:50:40Z</time>
      </trkpt>
      <trkpt lat="42.3863870" lon="1.9081020">
        <ele>1143.4</ele>
        <time>2020-07-30T11:50:41Z</time>
      </trkpt>
      <trkpt lat="42.3862380" lon="1.9080320">
        <ele>1144.6</ele>
        <time>2020-07-30T11:50:45Z</time>
      </trkpt>
      <trkpt lat="42.3860560" lon="1.9079480">
        <ele>1145.4</ele>
        <time>2020-07-30T11:50:50Z</time>
      </trkpt>
      <trkpt lat="42.3860210" lon="1.9079310">
        <ele>1145.6</ele>
        <time>2020-07-30T11:50:51Z</time>
      </trkpt>
      <trkpt lat="42.3857760" lon="1.9078200">
        <ele>1146.8</ele>
        <time>2020-07-30T11:50:58Z</time>
      </trkpt>
      <trkpt lat="42.3856040" lon="1.9077350">
        <ele>1148.0</ele>
        <time>2020-07-30T11:51:03Z</time>
      </trkpt>
      <trkpt lat="42.3853660" lon="1.9076250">
        <ele>1149.0</ele>
        <time>2020-07-30T11:51:10Z</time>
      </trkpt>
      <trkpt lat="42.3852330" lon="1.9075610">
        <ele>1149.6</ele>
        <time>2020-07-30T11:51:14Z</time>
      </trkpt>
      <trkpt lat="42.3851310" lon="1.9075160">
        <ele>1150.0</ele>
        <time>2020-07-30T11:51:17Z</time>
      </trkpt>
      <trkpt lat="42.3848950" lon="1.9074080">
        <ele>1151.2</ele>
        <time>2020-07-30T11:51:24Z</time>
      </trkpt>
      <trkpt lat="42.3848620" lon="1.9073900">
        <ele>1151.6</ele>
        <time>2020-07-30T11:51:25Z</time>
      </trkpt>
      <trkpt lat="42.3847630" lon="1.9073450">
        <ele>1152.2</ele>
        <time>2020-07-30T11:51:28Z</time>
      </trkpt>
      <trkpt lat="42.3845650" lon="1.9072570">
        <ele>1153.6</ele>
        <time>2020-07-30T11:51:34Z</time>
      </trkpt>
      <trkpt lat="42.3843760" lon="1.9071590">
        <ele>1154.6</ele>
        <time>2020-07-30T11:51:40Z</time>
      </trkpt>
      <trkpt lat="42.3842920" lon="1.9071020">
        <ele>1155.2</ele>
        <time>2020-07-30T11:51:43Z</time>
      </trkpt>
      <trkpt lat="42.3842000" lon="1.9070200">
        <ele>1155.8</ele>
        <time>2020-07-30T11:51:46Z</time>
      </trkpt>
      <trkpt lat="42.3841320" lon="1.9069100">
        <ele>1156.4</ele>
        <time>2020-07-30T11:51:49Z</time>
      </trkpt>
      <trkpt lat="42.3841020" lon="1.9068320">
        <ele>1156.8</ele>
        <time>2020-07-30T11:51:51Z</time>
      </trkpt>
      <trkpt lat="42.3840650" lon="1.9067100">
        <ele>1157.2</ele>
        <time>2020-07-30T11:51:54Z</time>
      </trkpt>
      <trkpt lat="42.3840400" lon="1.9066360">
        <ele>1157.8</ele>
        <time>2020-07-30T11:51:56Z</time>
      </trkpt>
      <trkpt lat="42.3839760" lon="1.9064840">
        <ele>1159.0</ele>
        <time>2020-07-30T11:52:00Z</time>
      </trkpt>
      <trkpt lat="42.3839330" lon="1.9064220">
        <ele>1159.8</ele>
        <time>2020-07-30T11:52:02Z</time>
      </trkpt>
      <trkpt lat="42.3838570" lon="1.9063430">
        <ele>1160.2</ele>
        <time>2020-07-30T11:52:05Z</time>
      </trkpt>
      <trkpt lat="42.3837390" lon="1.9062870">
        <ele>1160.8</ele>
        <time>2020-07-30T11:52:09Z</time>
      </trkpt>
      <trkpt lat="42.3836420" lon="1.9062800">
        <ele>1161.4</ele>
        <time>2020-07-30T11:52:12Z</time>
      </trkpt>
      <trkpt lat="42.3835230" lon="1.9063010">
        <ele>1161.6</ele>
        <time>2020-07-30T11:52:16Z</time>
      </trkpt>
      <trkpt lat="42.3833420" lon="1.9063790">
        <ele>1162.4</ele>
        <time>2020-07-30T11:52:22Z</time>
      </trkpt>
      <trkpt lat="42.3831940" lon="1.9064530">
        <ele>1163.2</ele>
        <time>2020-07-30T11:52:27Z</time>
      </trkpt>
      <trkpt lat="42.3831370" lon="1.9064850">
        <ele>1163.8</ele>
        <time>2020-07-30T11:52:29Z</time>
      </trkpt>
      <trkpt lat="42.3829910" lon="1.9065630">
        <ele>1164.8</ele>
        <time>2020-07-30T11:52:34Z</time>
      </trkpt>
      <trkpt lat="42.3828210" lon="1.9066590">
        <ele>1165.8</ele>
        <time>2020-07-30T11:52:40Z</time>
      </trkpt>
      <trkpt lat="42.3827620" lon="1.9066910">
        <ele>1166.2</ele>
        <time>2020-07-30T11:52:42Z</time>
      </trkpt>
      <trkpt lat="42.3826450" lon="1.9067560">
        <ele>1166.8</ele>
        <time>2020-07-30T11:52:46Z</time>
      </trkpt>
      <trkpt lat="42.3824660" lon="1.9068570">
        <ele>1167.8</ele>
        <time>2020-07-30T11:52:52Z</time>
      </trkpt>
      <trkpt lat="42.3824360" lon="1.9068760">
        <ele>1168.0</ele>
        <time>2020-07-30T11:52:53Z</time>
      </trkpt>
      <trkpt lat="42.3822580" lon="1.9069870">
        <ele>1169.6</ele>
        <time>2020-07-30T11:52:59Z</time>
      </trkpt>
      <trkpt lat="42.3821670" lon="1.9070390">
        <ele>1170.2</ele>
        <time>2020-07-30T11:53:02Z</time>
      </trkpt>
      <trkpt lat="42.3821080" lon="1.9070770">
        <ele>1170.6</ele>
        <time>2020-07-30T11:53:04Z</time>
      </trkpt>
      <trkpt lat="42.3819310" lon="1.9071770">
        <ele>1171.6</ele>
        <time>2020-07-30T11:53:10Z</time>
      </trkpt>
      <trkpt lat="42.3818780" lon="1.9072120">
        <ele>1172.0</ele>
        <time>2020-07-30T11:53:12Z</time>
      </trkpt>
      <trkpt lat="42.3816910" lon="1.9072360">
        <ele>1172.6</ele>
        <time>2020-07-30T11:53:18Z</time>
      </trkpt>
      <trkpt lat="42.3816610" lon="1.9072330">
        <ele>1172.8</ele>
        <time>2020-07-30T11:53:19Z</time>
      </trkpt>
      <trkpt lat="42.3814880" lon="1.9071580">
        <ele>1173.6</ele>
        <time>2020-07-30T11:53:25Z</time>
      </trkpt>
      <trkpt lat="42.3814610" lon="1.9071410">
        <ele>1173.8</ele>
        <time>2020-07-30T11:53:26Z</time>
      </trkpt>
      <trkpt lat="42.3814330" lon="1.9071230">
        <ele>1174.4</ele>
        <time>2020-07-30T11:53:27Z</time>
      </trkpt>
      <trkpt lat="42.3813820" lon="1.9070780">
        <ele>1175.0</ele>
        <time>2020-07-30T11:53:29Z</time>
      </trkpt>
      <trkpt lat="42.3812960" lon="1.9069660">
        <ele>1175.8</ele>
        <time>2020-07-30T11:53:33Z</time>
      </trkpt>
      <trkpt lat="42.3812630" lon="1.9068950">
        <ele>1176.2</ele>
        <time>2020-07-30T11:53:35Z</time>
      </trkpt>
      <trkpt lat="42.3812480" lon="1.9067610">
        <ele>1177.0</ele>
        <time>2020-07-30T11:53:38Z</time>
      </trkpt>
      <trkpt lat="42.3812490" lon="1.9067150">
        <ele>1177.2</ele>
        <time>2020-07-30T11:53:39Z</time>
      </trkpt>
      <trkpt lat="42.3813010" lon="1.9065550">
        <ele>1178.2</ele>
        <time>2020-07-30T11:53:43Z</time>
      </trkpt>
      <trkpt lat="42.3813220" lon="1.9065210">
        <ele>1178.2</ele>
        <time>2020-07-30T11:53:44Z</time>
      </trkpt>
      <trkpt lat="42.3814760" lon="1.9063540">
        <ele>1179.0</ele>
        <time>2020-07-30T11:53:50Z</time>
      </trkpt>
      <trkpt lat="42.3815880" lon="1.9061960">
        <ele>1179.2</ele>
        <time>2020-07-30T11:53:55Z</time>
      </trkpt>
      <trkpt lat="42.3816280" lon="1.9061270">
        <ele>1179.4</ele>
        <time>2020-07-30T11:53:57Z</time>
      </trkpt>
      <trkpt lat="42.3817180" lon="1.9059450">
        <ele>1180.6</ele>
        <time>2020-07-30T11:54:02Z</time>
      </trkpt>
      <trkpt lat="42.3817920" lon="1.9057640">
        <ele>1181.4</ele>
        <time>2020-07-30T11:54:07Z</time>
      </trkpt>
      <trkpt lat="42.3818350" lon="1.9056450">
        <ele>1181.6</ele>
        <time>2020-07-30T11:54:10Z</time>
      </trkpt>
      <trkpt lat="42.3819310" lon="1.9053820">
        <ele>1182.8</ele>
        <time>2020-07-30T11:54:17Z</time>
      </trkpt>
      <trkpt lat="42.3819450" lon="1.9053450">
        <ele>1183.0</ele>
        <time>2020-07-30T11:54:18Z</time>
      </trkpt>
      <trkpt lat="42.3819920" lon="1.9051130">
        <ele>1184.0</ele>
        <time>2020-07-30T11:54:24Z</time>
      </trkpt>
      <trkpt lat="42.3820350" lon="1.9049640">
        <ele>1184.6</ele>
        <time>2020-07-30T11:54:28Z</time>
      </trkpt>
      <trkpt lat="42.3820700" lon="1.9048550">
        <ele>1185.0</ele>
        <time>2020-07-30T11:54:31Z</time>
      </trkpt>
      <trkpt lat="42.3821010" lon="1.9047400">
        <ele>1186.2</ele>
        <time>2020-07-30T11:54:34Z</time>
      </trkpt>
      <trkpt lat="42.3821350" lon="1.9045820">
        <ele>1187.0</ele>
        <time>2020-07-30T11:54:38Z</time>
      </trkpt>
      <trkpt lat="42.3821510" lon="1.9045020">
        <ele>1187.2</ele>
        <time>2020-07-30T11:54:40Z</time>
      </trkpt>
      <trkpt lat="42.3821880" lon="1.9043070">
        <ele>1188.4</ele>
        <time>2020-07-30T11:54:45Z</time>
      </trkpt>
      <trkpt lat="42.3821990" lon="1.9041950">
        <ele>1189.2</ele>
        <time>2020-07-30T11:54:48Z</time>
      </trkpt>
      <trkpt lat="42.3821800" lon="1.9040690">
        <ele>1189.6</ele>
        <time>2020-07-30T11:54:51Z</time>
      </trkpt>
      <trkpt lat="42.3821260" lon="1.9039470">
        <ele>1190.6</ele>
        <time>2020-07-30T11:54:54Z</time>
      </trkpt>
      <trkpt lat="42.3821010" lon="1.9039130">
        <ele>1190.8</ele>
        <time>2020-07-30T11:54:55Z</time>
      </trkpt>
      <trkpt lat="42.3819940" lon="1.9038330">
        <ele>1191.2</ele>
        <time>2020-07-30T11:54:59Z</time>
      </trkpt>
      <trkpt lat="42.3817600" lon="1.9037280">
        <ele>1192.0</ele>
        <time>2020-07-30T11:55:07Z</time>
      </trkpt>
      <trkpt lat="42.3817030" lon="1.9037050">
        <ele>1192.8</ele>
        <time>2020-07-30T11:55:09Z</time>
      </trkpt>
      <trkpt lat="42.3816740" lon="1.9036950">
        <ele>1193.2</ele>
        <time>2020-07-30T11:55:10Z</time>
      </trkpt>
      <trkpt lat="42.3815090" lon="1.9036090">
        <ele>1194.6</ele>
        <time>2020-07-30T11:55:16Z</time>
      </trkpt>
      <trkpt lat="42.3814820" lon="1.9035940">
        <ele>1194.6</ele>
        <time>2020-07-30T11:55:17Z</time>
      </trkpt>
      <trkpt lat="42.3813750" lon="1.9035300">
        <ele>1195.6</ele>
        <time>2020-07-30T11:55:21Z</time>
      </trkpt>
      <trkpt lat="42.3812480" lon="1.9034320">
        <ele>1196.0</ele>
        <time>2020-07-30T11:55:26Z</time>
      </trkpt>
      <trkpt lat="42.3811080" lon="1.9033640">
        <ele>1196.6</ele>
        <time>2020-07-30T11:55:31Z</time>
      </trkpt>
      <trkpt lat="42.3810270" lon="1.9033200">
        <ele>1197.0</ele>
        <time>2020-07-30T11:55:34Z</time>
      </trkpt>
      <trkpt lat="42.3809410" lon="1.9032960">
        <ele>1197.6</ele>
        <time>2020-07-30T11:55:37Z</time>
      </trkpt>
      <trkpt lat="42.3808230" lon="1.9032730">
        <ele>1198.6</ele>
        <time>2020-07-30T11:55:41Z</time>
      </trkpt>
      <trkpt lat="42.3807940" lon="1.9032720">
        <ele>1198.8</ele>
        <time>2020-07-30T11:55:42Z</time>
      </trkpt>
      <trkpt lat="42.3806470" lon="1.9032760">
        <ele>1199.8</ele>
        <time>2020-07-30T11:55:47Z</time>
      </trkpt>
      <trkpt lat="42.3805290" lon="1.9033080">
        <ele>1201.0</ele>
        <time>2020-07-30T11:55:51Z</time>
      </trkpt>
      <trkpt lat="42.3803830" lon="1.9033760">
        <ele>1202.0</ele>
        <time>2020-07-30T11:55:56Z</time>
      </trkpt>
      <trkpt lat="42.3801940" lon="1.9034480">
        <ele>1203.0</ele>
        <time>2020-07-30T11:56:02Z</time>
      </trkpt>
      <trkpt lat="42.3801590" lon="1.9034500">
        <ele>1203.4</ele>
        <time>2020-07-30T11:56:03Z</time>
      </trkpt>
      <trkpt lat="42.3800210" lon="1.9033820">
        <ele>1204.4</ele>
        <time>2020-07-30T11:56:07Z</time>
      </trkpt>
      <trkpt lat="42.3799940" lon="1.9033410">
        <ele>1204.4</ele>
        <time>2020-07-30T11:56:08Z</time>
      </trkpt>
      <trkpt lat="42.3799520" lon="1.9031890">
        <ele>1204.6</ele>
        <time>2020-07-30T11:56:11Z</time>
      </trkpt>
      <trkpt lat="42.3799950" lon="1.9028900">
        <ele>1205.2</ele>
        <time>2020-07-30T11:56:17Z</time>
      </trkpt>
      <trkpt lat="42.3800080" lon="1.9028420">
        <ele>1205.6</ele>
        <time>2020-07-30T11:56:18Z</time>
      </trkpt>
      <trkpt lat="42.3800690" lon="1.9026520">
        <ele>1206.8</ele>
        <time>2020-07-30T11:56:22Z</time>
      </trkpt>
      <trkpt lat="42.3801520" lon="1.9024760">
        <ele>1207.6</ele>
        <time>2020-07-30T11:56:26Z</time>
      </trkpt>
      <trkpt lat="42.3801910" lon="1.9023960">
        <ele>1207.8</ele>
        <time>2020-07-30T11:56:28Z</time>
      </trkpt>
      <trkpt lat="42.3803010" lon="1.9021580">
        <ele>1209.0</ele>
        <time>2020-07-30T11:56:34Z</time>
      </trkpt>
      <trkpt lat="42.3803550" lon="1.9019850">
        <ele>1209.4</ele>
        <time>2020-07-30T11:56:38Z</time>
      </trkpt>
      <trkpt lat="42.3803770" lon="1.9018040">
        <ele>1210.0</ele>
        <time>2020-07-30T11:56:42Z</time>
      </trkpt>
      <trkpt lat="42.3803660" lon="1.9016740">
        <ele>1211.0</ele>
        <time>2020-07-30T11:56:45Z</time>
      </trkpt>
      <trkpt lat="42.3802590" lon="1.9013840">
        <ele>1212.0</ele>
        <time>2020-07-30T11:56:52Z</time>
      </trkpt>
      <trkpt lat="42.3801440" lon="1.9012270">
        <ele>1213.2</ele>
        <time>2020-07-30T11:56:57Z</time>
      </trkpt>
      <trkpt lat="42.3801010" lon="1.9011580">
        <ele>1213.8</ele>
        <time>2020-07-30T11:56:59Z</time>
      </trkpt>
      <trkpt lat="42.3800550" lon="1.9010930">
        <ele>1214.2</ele>
        <time>2020-07-30T11:57:01Z</time>
      </trkpt>
      <trkpt lat="42.3799610" lon="1.9009210">
        <ele>1215.6</ele>
        <time>2020-07-30T11:57:06Z</time>
      </trkpt>
      <trkpt lat="42.3799440" lon="1.9008860">
        <ele>1215.8</ele>
        <time>2020-07-30T11:57:07Z</time>
      </trkpt>
      <trkpt lat="42.3798810" lon="1.9007410">
        <ele>1216.8</ele>
        <time>2020-07-30T11:57:11Z</time>
      </trkpt>
      <trkpt lat="42.3798010" lon="1.9005490">
        <ele>1218.0</ele>
        <time>2020-07-30T11:57:16Z</time>
      </trkpt>
      <trkpt lat="42.3797730" lon="1.9004720">
        <ele>1218.4</ele>
        <time>2020-07-30T11:57:18Z</time>
      </trkpt>
      <trkpt lat="42.3797070" lon="1.9002790">
        <ele>1219.0</ele>
        <time>2020-07-30T11:57:23Z</time>
      </trkpt>
      <trkpt lat="42.3796320" lon="1.9000840">
        <ele>1220.0</ele>
        <time>2020-07-30T11:57:28Z</time>
      </trkpt>
      <trkpt lat="42.3796170" lon="1.9000460">
        <ele>1220.2</ele>
        <time>2020-07-30T11:57:29Z</time>
      </trkpt>
      <trkpt lat="42.3795290" lon="1.8998230">
        <ele>1221.2</ele>
        <time>2020-07-30T11:57:35Z</time>
      </trkpt>
      <trkpt lat="42.3795060" lon="1.8997450">
        <ele>1221.6</ele>
        <time>2020-07-30T11:57:37Z</time>
      </trkpt>
      <trkpt lat="42.3794280" lon="1.8996130">
        <ele>1222.2</ele>
        <time>2020-07-30T11:57:41Z</time>
      </trkpt>
      <trkpt lat="42.3793860" lon="1.8995460">
        <ele>1222.6</ele>
        <time>2020-07-30T11:57:43Z</time>
      </trkpt>
      <trkpt lat="42.3792820" lon="1.8994450">
        <ele>1223.4</ele>
        <time>2020-07-30T11:57:47Z</time>
      </trkpt>
      <trkpt lat="42.3792490" lon="1.8994310">
        <ele>1223.6</ele>
        <time>2020-07-30T11:57:48Z</time>
      </trkpt>
      <trkpt lat="42.3791170" lon="1.8993700">
        <ele>1224.4</ele>
        <time>2020-07-30T11:57:52Z</time>
      </trkpt>
      <trkpt lat="42.3789850" lon="1.8993200">
        <ele>1225.4</ele>
        <time>2020-07-30T11:57:56Z</time>
      </trkpt>
      <trkpt lat="42.3789530" lon="1.8993110">
        <ele>1225.6</ele>
        <time>2020-07-30T11:57:57Z</time>
      </trkpt>
      <trkpt lat="42.3787610" lon="1.8992620">
        <ele>1226.6</ele>
        <time>2020-07-30T11:58:03Z</time>
      </trkpt>
      <trkpt lat="42.3786350" lon="1.8992340">
        <ele>1227.4</ele>
        <time>2020-07-30T11:58:07Z</time>
      </trkpt>
      <trkpt lat="42.3785720" lon="1.8992240">
        <ele>1228.0</ele>
        <time>2020-07-30T11:58:09Z</time>
      </trkpt>
      <trkpt lat="42.3784820" lon="1.8992010">
        <ele>1229.0</ele>
        <time>2020-07-30T11:58:12Z</time>
      </trkpt>
      <trkpt lat="42.3783270" lon="1.8991850">
        <ele>1230.0</ele>
        <time>2020-07-30T11:58:17Z</time>
      </trkpt>
      <trkpt lat="42.3781040" lon="1.8991580">
        <ele>1231.2</ele>
        <time>2020-07-30T11:58:24Z</time>
      </trkpt>
      <trkpt lat="42.3779750" lon="1.8991420">
        <ele>1231.8</ele>
        <time>2020-07-30T11:58:28Z</time>
      </trkpt>
      <trkpt lat="42.3779110" lon="1.8991350">
        <ele>1232.2</ele>
        <time>2020-07-30T11:58:30Z</time>
      </trkpt>
      <trkpt lat="42.3776940" lon="1.8991040">
        <ele>1233.4</ele>
        <time>2020-07-30T11:58:37Z</time>
      </trkpt>
      <trkpt lat="42.3775710" lon="1.8990880">
        <ele>1234.2</ele>
        <time>2020-07-30T11:58:41Z</time>
      </trkpt>
      <trkpt lat="42.3775400" lon="1.8990850">
        <ele>1234.6</ele>
        <time>2020-07-30T11:58:42Z</time>
      </trkpt>
      <trkpt lat="42.3773840" lon="1.8990700">
        <ele>1235.8</ele>
        <time>2020-07-30T11:58:47Z</time>
      </trkpt>
      <trkpt lat="42.3771960" lon="1.8990700">
        <ele>1236.8</ele>
        <time>2020-07-30T11:58:53Z</time>
      </trkpt>
      <trkpt lat="42.3770080" lon="1.8990920">
        <ele>1237.8</ele>
        <time>2020-07-30T11:58:59Z</time>
      </trkpt>
      <trkpt lat="42.3769120" lon="1.8991110">
        <ele>1238.4</ele>
        <time>2020-07-30T11:59:02Z</time>
      </trkpt>
      <trkpt lat="42.3768160" lon="1.8991310">
        <ele>1239.0</ele>
        <time>2020-07-30T11:59:05Z</time>
      </trkpt>
      <trkpt lat="42.3766280" lon="1.8991840">
        <ele>1240.0</ele>
        <time>2020-07-30T11:59:11Z</time>
      </trkpt>
      <trkpt lat="42.3764190" lon="1.8992740">
        <ele>1241.4</ele>
        <time>2020-07-30T11:59:18Z</time>
      </trkpt>
      <trkpt lat="42.3763900" lon="1.8992900">
        <ele>1241.4</ele>
        <time>2020-07-30T11:59:19Z</time>
      </trkpt>
      <trkpt lat="42.3762240" lon="1.8994040">
        <ele>1242.4</ele>
        <time>2020-07-30T11:59:25Z</time>
      </trkpt>
      <trkpt lat="42.3761760" lon="1.8994560">
        <ele>1242.8</ele>
        <time>2020-07-30T11:59:27Z</time>
      </trkpt>
      <trkpt lat="42.3761110" lon="1.8995380">
        <ele>1243.6</ele>
        <time>2020-07-30T11:59:30Z</time>
      </trkpt>
      <trkpt lat="42.3760320" lon="1.8996760">
        <ele>1244.4</ele>
        <time>2020-07-30T11:59:34Z</time>
      </trkpt>
      <trkpt lat="42.3759870" lon="1.8997430">
        <ele>1244.6</ele>
        <time>2020-07-30T11:59:36Z</time>
      </trkpt>
      <trkpt lat="42.3758550" lon="1.8998740">
        <ele>1245.6</ele>
        <time>2020-07-30T11:59:41Z</time>
      </trkpt>
      <trkpt lat="42.3758260" lon="1.8998920">
        <ele>1245.8</ele>
        <time>2020-07-30T11:59:42Z</time>
      </trkpt>
      <trkpt lat="42.3756570" lon="1.8999830">
        <ele>1247.0</ele>
        <time>2020-07-30T11:59:48Z</time>
      </trkpt>
      <trkpt lat="42.3755990" lon="1.9000100">
        <ele>1247.4</ele>
        <time>2020-07-30T11:59:50Z</time>
      </trkpt>
      <trkpt lat="42.3754810" lon="1.9000680">
        <ele>1248.0</ele>
        <time>2020-07-30T11:59:54Z</time>
      </trkpt>
      <trkpt lat="42.3753120" lon="1.9001640">
        <ele>1249.2</ele>
        <time>2020-07-30T12:00:00Z</time>
      </trkpt>
      <trkpt lat="42.3752540" lon="1.9001970">
        <ele>1249.4</ele>
        <time>2020-07-30T12:00:02Z</time>
      </trkpt>
      <trkpt lat="42.3751690" lon="1.9002500">
        <ele>1250.6</ele>
        <time>2020-07-30T12:00:05Z</time>
      </trkpt>
      <trkpt lat="42.3749950" lon="1.9003640">
        <ele>1251.8</ele>
        <time>2020-07-30T12:00:11Z</time>
      </trkpt>
      <trkpt lat="42.3749380" lon="1.9004050">
        <ele>1252.2</ele>
        <time>2020-07-30T12:00:13Z</time>
      </trkpt>
      <trkpt lat="42.3748230" lon="1.9004840">
        <ele>1252.8</ele>
        <time>2020-07-30T12:00:17Z</time>
      </trkpt>
      <trkpt lat="42.3746600" lon="1.9006200">
        <ele>1253.6</ele>
        <time>2020-07-30T12:00:23Z</time>
      </trkpt>
      <trkpt lat="42.3746330" lon="1.9006430">
        <ele>1253.8</ele>
        <time>2020-07-30T12:00:24Z</time>
      </trkpt>
      <trkpt lat="42.3744990" lon="1.9007700">
        <ele>1255.0</ele>
        <time>2020-07-30T12:00:29Z</time>
      </trkpt>
      <trkpt lat="42.3743680" lon="1.9009040">
        <ele>1256.0</ele>
        <time>2020-07-30T12:00:34Z</time>
      </trkpt>
      <trkpt lat="42.3742410" lon="1.9010410">
        <ele>1257.2</ele>
        <time>2020-07-30T12:00:39Z</time>
      </trkpt>
      <trkpt lat="42.3741190" lon="1.9011830">
        <ele>1258.2</ele>
        <time>2020-07-30T12:00:44Z</time>
      </trkpt>
      <trkpt lat="42.3740470" lon="1.9012700">
        <ele>1258.8</ele>
        <time>2020-07-30T12:00:47Z</time>
      </trkpt>
      <trkpt lat="42.3740010" lon="1.9013330">
        <ele>1259.4</ele>
        <time>2020-07-30T12:00:49Z</time>
      </trkpt>
      <trkpt lat="42.3738740" lon="1.9015370">
        <ele>1260.6</ele>
        <time>2020-07-30T12:00:55Z</time>
      </trkpt>
      <trkpt lat="42.3738400" lon="1.9016080">
        <ele>1261.0</ele>
        <time>2020-07-30T12:00:57Z</time>
      </trkpt>
      <trkpt lat="42.3737970" lon="1.9017220">
        <ele>1261.8</ele>
        <time>2020-07-30T12:01:00Z</time>
      </trkpt>
      <trkpt lat="42.3737460" lon="1.9019730">
        <ele>1262.8</ele>
        <time>2020-07-30T12:01:06Z</time>
      </trkpt>
      <trkpt lat="42.3737590" lon="1.9022390">
        <ele>1264.0</ele>
        <time>2020-07-30T12:01:12Z</time>
      </trkpt>
      <trkpt lat="42.3737800" lon="1.9023250">
        <ele>1264.2</ele>
        <time>2020-07-30T12:01:14Z</time>
      </trkpt>
      <trkpt lat="42.3738450" lon="1.9024840">
        <ele>1265.2</ele>
        <time>2020-07-30T12:01:18Z</time>
      </trkpt>
      <trkpt lat="42.3739270" lon="1.9026240">
        <ele>1265.8</ele>
        <time>2020-07-30T12:01:22Z</time>
      </trkpt>
      <trkpt lat="42.3739690" lon="1.9026900">
        <ele>1266.2</ele>
        <time>2020-07-30T12:01:24Z</time>
      </trkpt>
      <trkpt lat="42.3740340" lon="1.9027850">
        <ele>1266.8</ele>
        <time>2020-07-30T12:01:27Z</time>
      </trkpt>
      <trkpt lat="42.3741020" lon="1.9028850">
        <ele>1267.4</ele>
        <time>2020-07-30T12:01:30Z</time>
      </trkpt>
      <trkpt lat="42.3741730" lon="1.9029800">
        <ele>1268.0</ele>
        <time>2020-07-30T12:01:33Z</time>
      </trkpt>
      <trkpt lat="42.3742180" lon="1.9030460">
        <ele>1268.4</ele>
        <time>2020-07-30T12:01:35Z</time>
      </trkpt>
      <trkpt lat="42.3744000" lon="1.9032990">
        <ele>1269.8</ele>
        <time>2020-07-30T12:01:43Z</time>
      </trkpt>
      <trkpt lat="42.3744230" lon="1.9033300">
        <ele>1270.0</ele>
        <time>2020-07-30T12:01:44Z</time>
      </trkpt>
      <trkpt lat="42.3745140" lon="1.9034600">
        <ele>1270.8</ele>
        <time>2020-07-30T12:01:48Z</time>
      </trkpt>
      <trkpt lat="42.3746290" lon="1.9036210">
        <ele>1271.8</ele>
        <time>2020-07-30T12:01:53Z</time>
      </trkpt>
      <trkpt lat="42.3746450" lon="1.9036600">
        <ele>1272.0</ele>
        <time>2020-07-30T12:01:54Z</time>
      </trkpt>
      <trkpt lat="42.3746610" lon="1.9037920">
        <ele>1272.6</ele>
        <time>2020-07-30T12:01:57Z</time>
      </trkpt>
      <trkpt lat="42.3746580" lon="1.9039230">
        <ele>1273.0</ele>
        <time>2020-07-30T12:02:00Z</time>
      </trkpt>
      <trkpt lat="42.3746590" lon="1.9041860">
        <ele>1274.2</ele>
        <time>2020-07-30T12:02:06Z</time>
      </trkpt>
      <trkpt lat="42.3746690" lon="1.9043390">
        <ele>1275.0</ele>
        <time>2020-07-30T12:02:09Z</time>
      </trkpt>
      <trkpt lat="42.3746650" lon="1.9045690">
        <ele>1276.0</ele>
        <time>2020-07-30T12:02:13Z</time>
      </trkpt>
      <trkpt lat="42.3746560" lon="1.9046270">
        <ele>1276.2</ele>
        <time>2020-07-30T12:02:14Z</time>
      </trkpt>
      <trkpt lat="42.3745880" lon="1.9049090">
        <ele>1276.4</ele>
        <time>2020-07-30T12:02:19Z</time>
      </trkpt>
      <trkpt lat="42.3745360" lon="1.9052190">
        <ele>1276.6</ele>
        <time>2020-07-30T12:02:24Z</time>
      </trkpt>
      <trkpt lat="42.3745110" lon="1.9052790">
        <ele>1276.6</ele>
        <time>2020-07-30T12:02:25Z</time>
      </trkpt>
      <trkpt lat="42.3743830" lon="1.9054040">
        <ele>1276.8</ele>
        <time>2020-07-30T12:02:28Z</time>
      </trkpt>
      <trkpt lat="42.3743350" lon="1.9054370">
        <ele>1277.0</ele>
        <time>2020-07-30T12:02:29Z</time>
      </trkpt>
      <trkpt lat="42.3740200" lon="1.9055830">
        <ele>1277.2</ele>
        <time>2020-07-30T12:02:35Z</time>
      </trkpt>
      <trkpt lat="42.3739620" lon="1.9055890">
        <ele>1277.2</ele>
        <time>2020-07-30T12:02:36Z</time>
      </trkpt>
      <trkpt lat="42.3737910" lon="1.9055750">
        <ele>1277.2</ele>
        <time>2020-07-30T12:02:39Z</time>
      </trkpt>
      <trkpt lat="42.3737360" lon="1.9055660">
        <ele>1277.2</ele>
        <time>2020-07-30T12:02:40Z</time>
      </trkpt>
      <trkpt lat="42.3732040" lon="1.9055260">
        <ele>1278.0</ele>
        <time>2020-07-30T12:02:50Z</time>
      </trkpt>
      <trkpt lat="42.3730300" lon="1.9055450">
        <ele>1278.2</ele>
        <time>2020-07-30T12:02:54Z</time>
      </trkpt>
      <trkpt lat="42.3728180" lon="1.9055830">
        <ele>1279.0</ele>
        <time>2020-07-30T12:02:59Z</time>
      </trkpt>
      <trkpt lat="42.3726300" lon="1.9056730">
        <ele>1280.2</ele>
        <time>2020-07-30T12:03:04Z</time>
      </trkpt>
      <trkpt lat="42.3725990" lon="1.9057040">
        <ele>1280.8</ele>
        <time>2020-07-30T12:03:05Z</time>
      </trkpt>
      <trkpt lat="42.3725000" lon="1.9058720">
        <ele>1281.6</ele>
        <time>2020-07-30T12:03:09Z</time>
      </trkpt>
      <trkpt lat="42.3724800" lon="1.9059170">
        <ele>1282.0</ele>
        <time>2020-07-30T12:03:10Z</time>
      </trkpt>
      <trkpt lat="42.3724330" lon="1.9060610">
        <ele>1283.0</ele>
        <time>2020-07-30T12:03:13Z</time>
      </trkpt>
      <trkpt lat="42.3723890" lon="1.9062470">
        <ele>1284.2</ele>
        <time>2020-07-30T12:03:17Z</time>
      </trkpt>
      <trkpt lat="42.3723730" lon="1.9064340">
        <ele>1285.6</ele>
        <time>2020-07-30T12:03:21Z</time>
      </trkpt>
      <trkpt lat="42.3723710" lon="1.9066590">
        <ele>1286.8</ele>
        <time>2020-07-30T12:03:26Z</time>
      </trkpt>
      <trkpt lat="42.3723760" lon="1.9067040">
        <ele>1287.0</ele>
        <time>2020-07-30T12:03:27Z</time>
      </trkpt>
      <trkpt lat="42.3724060" lon="1.9069250">
        <ele>1288.0</ele>
        <time>2020-07-30T12:03:32Z</time>
      </trkpt>
      <trkpt lat="42.3724070" lon="1.9070600">
        <ele>1288.6</ele>
        <time>2020-07-30T12:03:35Z</time>
      </trkpt>
      <trkpt lat="42.3723880" lon="1.9071440">
        <ele>1289.0</ele>
        <time>2020-07-30T12:03:37Z</time>
      </trkpt>
      <trkpt lat="42.3723310" lon="1.9072530">
        <ele>1289.6</ele>
        <time>2020-07-30T12:03:40Z</time>
      </trkpt>
      <trkpt lat="42.3722680" lon="1.9073600">
        <ele>1290.2</ele>
        <time>2020-07-30T12:03:43Z</time>
      </trkpt>
      <trkpt lat="42.3721550" lon="1.9076090">
        <ele>1291.4</ele>
        <time>2020-07-30T12:03:49Z</time>
      </trkpt>
      <trkpt lat="42.3720870" lon="1.9078430">
        <ele>1292.4</ele>
        <time>2020-07-30T12:03:54Z</time>
      </trkpt>
      <trkpt lat="42.3720340" lon="1.9080840">
        <ele>1293.2</ele>
        <time>2020-07-30T12:03:59Z</time>
      </trkpt>
      <trkpt lat="42.3719940" lon="1.9082800">
        <ele>1293.6</ele>
        <time>2020-07-30T12:04:03Z</time>
      </trkpt>
      <trkpt lat="42.3719370" lon="1.9085210">
        <ele>1294.4</ele>
        <time>2020-07-30T12:04:08Z</time>
      </trkpt>
      <trkpt lat="42.3719240" lon="1.9085700">
        <ele>1294.6</ele>
        <time>2020-07-30T12:04:09Z</time>
      </trkpt>
      <trkpt lat="42.3717970" lon="1.9088830">
        <ele>1295.0</ele>
        <time>2020-07-30T12:04:16Z</time>
      </trkpt>
      <trkpt lat="42.3716750" lon="1.9089870">
        <ele>1295.6</ele>
        <time>2020-07-30T12:04:20Z</time>
      </trkpt>
      <trkpt lat="42.3716380" lon="1.9089920">
        <ele>1296.0</ele>
        <time>2020-07-30T12:04:21Z</time>
      </trkpt>
      <trkpt lat="42.3715660" lon="1.9089760">
        <ele>1296.6</ele>
        <time>2020-07-30T12:04:23Z</time>
      </trkpt>
      <trkpt lat="42.3715020" lon="1.9089270">
        <ele>1297.0</ele>
        <time>2020-07-30T12:04:25Z</time>
      </trkpt>
      <trkpt lat="42.3714200" lon="1.9088250">
        <ele>1297.8</ele>
        <time>2020-07-30T12:04:28Z</time>
      </trkpt>
      <trkpt lat="42.3713280" lon="1.9086670">
        <ele>1298.2</ele>
        <time>2020-07-30T12:04:32Z</time>
      </trkpt>
      <trkpt lat="42.3712050" lon="1.9084710">
        <ele>1298.8</ele>
        <time>2020-07-30T12:04:37Z</time>
      </trkpt>
      <trkpt lat="42.3710760" lon="1.9082900">
        <ele>1299.8</ele>
        <time>2020-07-30T12:04:42Z</time>
      </trkpt>
      <trkpt lat="42.3709670" lon="1.9081560">
        <ele>1300.8</ele>
        <time>2020-07-30T12:04:46Z</time>
      </trkpt>
      <trkpt lat="42.3708200" lon="1.9080020">
        <ele>1301.6</ele>
        <time>2020-07-30T12:04:51Z</time>
      </trkpt>
      <trkpt lat="42.3707640" lon="1.9079410">
        <ele>1302.2</ele>
        <time>2020-07-30T12:04:53Z</time>
      </trkpt>
      <trkpt lat="42.3706540" lon="1.9078150">
        <ele>1303.2</ele>
        <time>2020-07-30T12:04:57Z</time>
      </trkpt>
      <trkpt lat="42.3705050" lon="1.9076840">
        <ele>1303.8</ele>
        <time>2020-07-30T12:05:02Z</time>
      </trkpt>
      <trkpt lat="42.3703670" lon="1.9076680">
        <ele>1304.4</ele>
        <time>2020-07-30T12:05:06Z</time>
      </trkpt>
      <trkpt lat="42.3703330" lon="1.9076810">
        <ele>1304.6</ele>
        <time>2020-07-30T12:05:07Z</time>
      </trkpt>
      <trkpt lat="42.3702410" lon="1.9077490">
        <ele>1305.6</ele>
        <time>2020-07-30T12:05:10Z</time>
      </trkpt>
      <trkpt lat="42.3701970" lon="1.9078280">
        <ele>1306.2</ele>
        <time>2020-07-30T12:05:12Z</time>
      </trkpt>
      <trkpt lat="42.3701490" lon="1.9079700">
        <ele>1306.8</ele>
        <time>2020-07-30T12:05:15Z</time>
      </trkpt>
      <trkpt lat="42.3700650" lon="1.9082350">
        <ele>1307.4</ele>
        <time>2020-07-30T12:05:20Z</time>
      </trkpt>
      <trkpt lat="42.3698740" lon="1.9088860">
        <ele>1308.0</ele>
        <time>2020-07-30T12:05:31Z</time>
      </trkpt>
      <trkpt lat="42.3698400" lon="1.9090090">
        <ele>1308.2</ele>
        <time>2020-07-30T12:05:33Z</time>
      </trkpt>
      <trkpt lat="42.3696780" lon="1.9094430">
        <ele>1308.4</ele>
        <time>2020-07-30T12:05:41Z</time>
      </trkpt>
      <trkpt lat="42.3696110" lon="1.9095850">
        <ele>1309.2</ele>
        <time>2020-07-30T12:05:44Z</time>
      </trkpt>
      <trkpt lat="42.3694830" lon="1.9098030">
        <ele>1310.2</ele>
        <time>2020-07-30T12:05:49Z</time>
      </trkpt>
      <trkpt lat="42.3694560" lon="1.9098450">
        <ele>1310.4</ele>
        <time>2020-07-30T12:05:50Z</time>
      </trkpt>
      <trkpt lat="42.3693320" lon="1.9099950">
        <ele>1311.4</ele>
        <time>2020-07-30T12:05:54Z</time>
      </trkpt>
      <trkpt lat="42.3692990" lon="1.9100260">
        <ele>1311.6</ele>
        <time>2020-07-30T12:05:55Z</time>
      </trkpt>
      <trkpt lat="42.3692630" lon="1.9100540">
        <ele>1311.8</ele>
        <time>2020-07-30T12:05:56Z</time>
      </trkpt>
      <trkpt lat="42.3692250" lon="1.9100780">
        <ele>1312.2</ele>
        <time>2020-07-30T12:05:57Z</time>
      </trkpt>
      <trkpt lat="42.3690730" lon="1.9101480">
        <ele>1313.0</ele>
        <time>2020-07-30T12:06:01Z</time>
      </trkpt>
      <trkpt lat="42.3690370" lon="1.9101630">
        <ele>1313.4</ele>
        <time>2020-07-30T12:06:02Z</time>
      </trkpt>
      <trkpt lat="42.3688230" lon="1.9102890">
        <ele>1314.6</ele>
        <time>2020-07-30T12:06:08Z</time>
      </trkpt>
      <trkpt lat="42.3687230" lon="1.9103630">
        <ele>1315.4</ele>
        <time>2020-07-30T12:06:11Z</time>
      </trkpt>
      <trkpt lat="42.3686920" lon="1.9103890">
        <ele>1315.6</ele>
        <time>2020-07-30T12:06:12Z</time>
      </trkpt>
      <trkpt lat="42.3684800" lon="1.9105710">
        <ele>1316.6</ele>
        <time>2020-07-30T12:06:19Z</time>
      </trkpt>
      <trkpt lat="42.3684480" lon="1.9106010">
        <ele>1316.8</ele>
        <time>2020-07-30T12:06:20Z</time>
      </trkpt>
      <trkpt lat="42.3682630" lon="1.9107720">
        <ele>1318.0</ele>
        <time>2020-07-30T12:06:26Z</time>
      </trkpt>
      <trkpt lat="42.3681950" lon="1.9108190">
        <ele>1318.6</ele>
        <time>2020-07-30T12:06:28Z</time>
      </trkpt>
      <trkpt lat="42.3680870" lon="1.9108800">
        <ele>1319.2</ele>
        <time>2020-07-30T12:06:31Z</time>
      </trkpt>
      <trkpt lat="42.3679050" lon="1.9109820">
        <ele>1320.2</ele>
        <time>2020-07-30T12:06:36Z</time>
      </trkpt>
      <trkpt lat="42.3678350" lon="1.9110210">
        <ele>1320.6</ele>
        <time>2020-07-30T12:06:38Z</time>
      </trkpt>
      <trkpt lat="42.3677660" lon="1.9110620">
        <ele>1321.4</ele>
        <time>2020-07-30T12:06:40Z</time>
      </trkpt>
      <trkpt lat="42.3676040" lon="1.9111870">
        <ele>1322.4</ele>
        <time>2020-07-30T12:06:45Z</time>
      </trkpt>
      <trkpt lat="42.3675770" lon="1.9112180">
        <ele>1322.6</ele>
        <time>2020-07-30T12:06:46Z</time>
      </trkpt>
      <trkpt lat="42.3674210" lon="1.9113600">
        <ele>1323.4</ele>
        <time>2020-07-30T12:06:51Z</time>
      </trkpt>
      <trkpt lat="42.3673940" lon="1.9113950">
        <ele>1323.8</ele>
        <time>2020-07-30T12:06:52Z</time>
      </trkpt>
      <trkpt lat="42.3673160" lon="1.9114930">
        <ele>1324.8</ele>
        <time>2020-07-30T12:06:55Z</time>
      </trkpt>
      <trkpt lat="42.3671670" lon="1.9116850">
        <ele>1325.8</ele>
        <time>2020-07-30T12:07:01Z</time>
      </trkpt>
      <trkpt lat="42.3670430" lon="1.9118560">
        <ele>1327.0</ele>
        <time>2020-07-30T12:07:06Z</time>
      </trkpt>
      <trkpt lat="42.3669640" lon="1.9119560">
        <ele>1328.0</ele>
        <time>2020-07-30T12:07:09Z</time>
      </trkpt>
      <trkpt lat="42.3669370" lon="1.9119890">
        <ele>1328.2</ele>
        <time>2020-07-30T12:07:10Z</time>
      </trkpt>
      <trkpt lat="42.3668080" lon="1.9122140">
        <ele>1329.2</ele>
        <time>2020-07-30T12:07:16Z</time>
      </trkpt>
      <trkpt lat="42.3667730" lon="1.9122990">
        <ele>1329.4</ele>
        <time>2020-07-30T12:07:18Z</time>
      </trkpt>
      <trkpt lat="42.3667170" lon="1.9125290">
        <ele>1330.2</ele>
        <time>2020-07-30T12:07:23Z</time>
      </trkpt>
      <trkpt lat="42.3666820" lon="1.9126680">
        <ele>1330.8</ele>
        <time>2020-07-30T12:07:26Z</time>
      </trkpt>
      <trkpt lat="42.3666480" lon="1.9128050">
        <ele>1331.4</ele>
        <time>2020-07-30T12:07:29Z</time>
      </trkpt>
      <trkpt lat="42.3665940" lon="1.9130750">
        <ele>1332.0</ele>
        <time>2020-07-30T12:07:35Z</time>
      </trkpt>
      <trkpt lat="42.3665720" lon="1.9131600">
        <ele>1332.6</ele>
        <time>2020-07-30T12:07:37Z</time>
      </trkpt>
      <trkpt lat="42.3664830" lon="1.9134970">
        <ele>1333.6</ele>
        <time>2020-07-30T12:07:45Z</time>
      </trkpt>
      <trkpt lat="42.3664730" lon="1.9135410">
        <ele>1333.8</ele>
        <time>2020-07-30T12:07:46Z</time>
      </trkpt>
      <trkpt lat="42.3664420" lon="1.9137210">
        <ele>1335.0</ele>
        <time>2020-07-30T12:07:50Z</time>
      </trkpt>
      <trkpt lat="42.3664130" lon="1.9139530">
        <ele>1335.8</ele>
        <time>2020-07-30T12:07:55Z</time>
      </trkpt>
      <trkpt lat="42.3664110" lon="1.9140020">
        <ele>1336.0</ele>
        <time>2020-07-30T12:07:56Z</time>
      </trkpt>
      <trkpt lat="42.3663800" lon="1.9142090">
        <ele>1336.8</ele>
        <time>2020-07-30T12:08:00Z</time>
      </trkpt>
      <trkpt lat="42.3663420" lon="1.9143150">
        <ele>1337.0</ele>
        <time>2020-07-30T12:08:02Z</time>
      </trkpt>
      <trkpt lat="42.3661830" lon="1.9144980">
        <ele>1337.6</ele>
        <time>2020-07-30T12:08:07Z</time>
      </trkpt>
      <trkpt lat="42.3661080" lon="1.9145400">
        <ele>1337.6</ele>
        <time>2020-07-30T12:08:09Z</time>
      </trkpt>
      <trkpt lat="42.3659170" lon="1.9146200">
        <ele>1338.0</ele>
        <time>2020-07-30T12:08:14Z</time>
      </trkpt>
      <trkpt lat="42.3658780" lon="1.9146340">
        <ele>1338.2</ele>
        <time>2020-07-30T12:08:15Z</time>
      </trkpt>
      <trkpt lat="42.3656880" lon="1.9147050">
        <ele>1339.4</ele>
        <time>2020-07-30T12:08:20Z</time>
      </trkpt>
      <trkpt lat="42.3655080" lon="1.9147990">
        <ele>1340.0</ele>
        <time>2020-07-30T12:08:25Z</time>
      </trkpt>
      <trkpt lat="42.3654410" lon="1.9148400">
        <ele>1340.2</ele>
        <time>2020-07-30T12:08:27Z</time>
      </trkpt>
      <trkpt lat="42.3652980" lon="1.9149270">
        <ele>1341.4</ele>
        <time>2020-07-30T12:08:31Z</time>
      </trkpt>
      <trkpt lat="42.3652310" lon="1.9149800">
        <ele>1342.2</ele>
        <time>2020-07-30T12:08:33Z</time>
      </trkpt>
      <trkpt lat="42.3651980" lon="1.9150080">
        <ele>1342.6</ele>
        <time>2020-07-30T12:08:34Z</time>
      </trkpt>
      <trkpt lat="42.3650460" lon="1.9151650">
        <ele>1343.6</ele>
        <time>2020-07-30T12:08:39Z</time>
      </trkpt>
      <trkpt lat="42.3649530" lon="1.9152550">
        <ele>1344.4</ele>
        <time>2020-07-30T12:08:42Z</time>
      </trkpt>
      <trkpt lat="42.3649230" lon="1.9152860">
        <ele>1344.8</ele>
        <time>2020-07-30T12:08:43Z</time>
      </trkpt>
      <trkpt lat="42.3648080" lon="1.9154240">
        <ele>1346.0</ele>
        <time>2020-07-30T12:08:47Z</time>
      </trkpt>
      <trkpt lat="42.3646920" lon="1.9155610">
        <ele>1346.8</ele>
        <time>2020-07-30T12:08:51Z</time>
      </trkpt>
      <trkpt lat="42.3646340" lon="1.9156320">
        <ele>1347.2</ele>
        <time>2020-07-30T12:08:53Z</time>
      </trkpt>
      <trkpt lat="42.3645410" lon="1.9157880">
        <ele>1348.4</ele>
        <time>2020-07-30T12:08:57Z</time>
      </trkpt>
      <trkpt lat="42.3645190" lon="1.9158280">
        <ele>1348.6</ele>
        <time>2020-07-30T12:08:58Z</time>
      </trkpt>
      <trkpt lat="42.3644550" lon="1.9160110">
        <ele>1349.6</ele>
        <time>2020-07-30T12:09:02Z</time>
      </trkpt>
      <trkpt lat="42.3644210" lon="1.9161660">
        <ele>1350.2</ele>
        <time>2020-07-30T12:09:05Z</time>
      </trkpt>
      <trkpt lat="42.3644080" lon="1.9163320">
        <ele>1350.6</ele>
        <time>2020-07-30T12:09:08Z</time>
      </trkpt>
      <trkpt lat="42.3644120" lon="1.9165510">
        <ele>1351.0</ele>
        <time>2020-07-30T12:09:12Z</time>
      </trkpt>
      <trkpt lat="42.3644880" lon="1.9169300">
        <ele>1351.8</ele>
        <time>2020-07-30T12:09:20Z</time>
      </trkpt>
      <trkpt lat="42.3645580" lon="1.9171400">
        <ele>1352.8</ele>
        <time>2020-07-30T12:09:25Z</time>
      </trkpt>
      <trkpt lat="42.3646480" lon="1.9173740">
        <ele>1353.8</ele>
        <time>2020-07-30T12:09:31Z</time>
      </trkpt>
      <trkpt lat="42.3646620" lon="1.9174140">
        <ele>1354.0</ele>
        <time>2020-07-30T12:09:32Z</time>
      </trkpt>
      <trkpt lat="42.3647130" lon="1.9176330">
        <ele>1355.2</ele>
        <time>2020-07-30T12:09:37Z</time>
      </trkpt>
      <trkpt lat="42.3647100" lon="1.9176800">
        <ele>1355.4</ele>
        <time>2020-07-30T12:09:38Z</time>
      </trkpt>
      <trkpt lat="42.3646280" lon="1.9178900">
        <ele>1356.0</ele>
        <time>2020-07-30T12:09:43Z</time>
      </trkpt>
      <trkpt lat="42.3645670" lon="1.9180540">
        <ele>1356.2</ele>
        <time>2020-07-30T12:09:47Z</time>
      </trkpt>
      <trkpt lat="42.3645540" lon="1.9181470">
        <ele>1356.6</ele>
        <time>2020-07-30T12:09:49Z</time>
      </trkpt>
      <trkpt lat="42.3645640" lon="1.9183380">
        <ele>1357.2</ele>
        <time>2020-07-30T12:09:53Z</time>
      </trkpt>
      <trkpt lat="42.3645710" lon="1.9184360">
        <ele>1357.6</ele>
        <time>2020-07-30T12:09:55Z</time>
      </trkpt>
      <trkpt lat="42.3645920" lon="1.9186330">
        <ele>1358.4</ele>
        <time>2020-07-30T12:09:59Z</time>
      </trkpt>
      <trkpt lat="42.3646130" lon="1.9188210">
        <ele>1358.8</ele>
        <time>2020-07-30T12:10:03Z</time>
      </trkpt>
      <trkpt lat="42.3646090" lon="1.9189620">
        <ele>1359.4</ele>
        <time>2020-07-30T12:10:06Z</time>
      </trkpt>
      <trkpt lat="42.3645770" lon="1.9190460">
        <ele>1359.6</ele>
        <time>2020-07-30T12:10:08Z</time>
      </trkpt>
      <trkpt lat="42.3644540" lon="1.9192300">
        <ele>1360.4</ele>
        <time>2020-07-30T12:10:13Z</time>
      </trkpt>
      <trkpt lat="42.3643950" lon="1.9192900">
        <ele>1360.8</ele>
        <time>2020-07-30T12:10:15Z</time>
      </trkpt>
      <trkpt lat="42.3642650" lon="1.9193930">
        <ele>1361.4</ele>
        <time>2020-07-30T12:10:19Z</time>
      </trkpt>
      <trkpt lat="42.3641660" lon="1.9194660">
        <ele>1362.0</ele>
        <time>2020-07-30T12:10:22Z</time>
      </trkpt>
      <trkpt lat="42.3640600" lon="1.9195280">
        <ele>1362.4</ele>
        <time>2020-07-30T12:10:25Z</time>
      </trkpt>
      <trkpt lat="42.3638850" lon="1.9196360">
        <ele>1363.4</ele>
        <time>2020-07-30T12:10:30Z</time>
      </trkpt>
      <trkpt lat="42.3638500" lon="1.9196610">
        <ele>1363.6</ele>
        <time>2020-07-30T12:10:31Z</time>
      </trkpt>
      <trkpt lat="42.3635900" lon="1.9198260">
        <ele>1364.4</ele>
        <time>2020-07-30T12:10:38Z</time>
      </trkpt>
      <trkpt lat="42.3635430" lon="1.9198410">
        <ele>1364.6</ele>
        <time>2020-07-30T12:10:39Z</time>
      </trkpt>
      <trkpt lat="42.3633340" lon="1.9199230">
        <ele>1365.4</ele>
        <time>2020-07-30T12:10:44Z</time>
      </trkpt>
      <trkpt lat="42.3632740" lon="1.9200000">
        <ele>1365.4</ele>
        <time>2020-07-30T12:10:46Z</time>
      </trkpt>
      <trkpt lat="42.3632500" lon="1.9200450">
        <ele>1365.6</ele>
        <time>2020-07-30T12:10:47Z</time>
      </trkpt>
      <trkpt lat="42.3631920" lon="1.9202620">
        <ele>1366.2</ele>
        <time>2020-07-30T12:10:51Z</time>
      </trkpt>
      <trkpt lat="42.3631790" lon="1.9203720">
        <ele>1366.6</ele>
        <time>2020-07-30T12:10:53Z</time>
      </trkpt>
      <trkpt lat="42.3631830" lon="1.9206000">
        <ele>1367.2</ele>
        <time>2020-07-30T12:10:57Z</time>
      </trkpt>
      <trkpt lat="42.3631920" lon="1.9207140">
        <ele>1367.8</ele>
        <time>2020-07-30T12:10:59Z</time>
      </trkpt>
      <trkpt lat="42.3632040" lon="1.9208840">
        <ele>1368.2</ele>
        <time>2020-07-30T12:11:02Z</time>
      </trkpt>
      <trkpt lat="42.3631880" lon="1.9209970">
        <ele>1368.6</ele>
        <time>2020-07-30T12:11:04Z</time>
      </trkpt>
      <trkpt lat="42.3631740" lon="1.9210520">
        <ele>1368.8</ele>
        <time>2020-07-30T12:11:05Z</time>
      </trkpt>
      <trkpt lat="42.3631220" lon="1.9211990">
        <ele>1369.8</ele>
        <time>2020-07-30T12:11:08Z</time>
      </trkpt>
      <trkpt lat="42.3631040" lon="1.9212470">
        <ele>1370.2</ele>
        <time>2020-07-30T12:11:09Z</time>
      </trkpt>
      <trkpt lat="42.3630880" lon="1.9212950">
        <ele>1370.4</ele>
        <time>2020-07-30T12:11:10Z</time>
      </trkpt>
      <trkpt lat="42.3630010" lon="1.9216300">
        <ele>1371.2</ele>
        <time>2020-07-30T12:11:17Z</time>
      </trkpt>
      <trkpt lat="42.3629650" lon="1.9217710">
        <ele>1371.8</ele>
        <time>2020-07-30T12:11:20Z</time>
      </trkpt>
      <trkpt lat="42.3629410" lon="1.9218640">
        <ele>1372.2</ele>
        <time>2020-07-30T12:11:22Z</time>
      </trkpt>
      <trkpt lat="42.3628860" lon="1.9220530">
        <ele>1373.4</ele>
        <time>2020-07-30T12:11:26Z</time>
      </trkpt>
      <trkpt lat="42.3628410" lon="1.9221390">
        <ele>1373.8</ele>
        <time>2020-07-30T12:11:28Z</time>
      </trkpt>
      <trkpt lat="42.3628090" lon="1.9221740">
        <ele>1374.2</ele>
        <time>2020-07-30T12:11:29Z</time>
      </trkpt>
      <trkpt lat="42.3627310" lon="1.9222190">
        <ele>1374.4</ele>
        <time>2020-07-30T12:11:31Z</time>
      </trkpt>
      <trkpt lat="42.3626380" lon="1.9222330">
        <ele>1374.6</ele>
        <time>2020-07-30T12:11:33Z</time>
      </trkpt>
      <trkpt lat="42.3622750" lon="1.9222990">
        <ele>1374.8</ele>
        <time>2020-07-30T12:11:41Z</time>
      </trkpt>
      <trkpt lat="42.3621120" lon="1.9223730">
        <ele>1374.8</ele>
        <time>2020-07-30T12:11:45Z</time>
      </trkpt>
      <trkpt lat="42.3620410" lon="1.9224320">
        <ele>1375.0</ele>
        <time>2020-07-30T12:11:47Z</time>
      </trkpt>
      <trkpt lat="42.3619530" lon="1.9225450">
        <ele>1375.4</ele>
        <time>2020-07-30T12:11:50Z</time>
      </trkpt>
      <trkpt lat="42.3619140" lon="1.9226340">
        <ele>1376.2</ele>
        <time>2020-07-30T12:11:52Z</time>
      </trkpt>
      <trkpt lat="42.3618990" lon="1.9226810">
        <ele>1376.4</ele>
        <time>2020-07-30T12:11:53Z</time>
      </trkpt>
      <trkpt lat="42.3618380" lon="1.9228600">
        <ele>1377.6</ele>
        <time>2020-07-30T12:11:57Z</time>
      </trkpt>
      <trkpt lat="42.3617700" lon="1.9230420">
        <ele>1378.4</ele>
        <time>2020-07-30T12:12:01Z</time>
      </trkpt>
      <trkpt lat="42.3617490" lon="1.9230860">
        <ele>1378.6</ele>
        <time>2020-07-30T12:12:02Z</time>
      </trkpt>
      <trkpt lat="42.3615700" lon="1.9233550">
        <ele>1379.6</ele>
        <time>2020-07-30T12:12:09Z</time>
      </trkpt>
      <trkpt lat="42.3615430" lon="1.9233890">
        <ele>1379.6</ele>
        <time>2020-07-30T12:12:10Z</time>
      </trkpt>
      <trkpt lat="42.3613110" lon="1.9236380">
        <ele>1380.8</ele>
        <time>2020-07-30T12:12:18Z</time>
      </trkpt>
      <trkpt lat="42.3612810" lon="1.9236680">
        <ele>1380.8</ele>
        <time>2020-07-30T12:12:19Z</time>
      </trkpt>
      <trkpt lat="42.3611120" lon="1.9238640">
        <ele>1382.0</ele>
        <time>2020-07-30T12:12:25Z</time>
      </trkpt>
      <trkpt lat="42.3610670" lon="1.9239450">
        <ele>1382.4</ele>
        <time>2020-07-30T12:12:27Z</time>
      </trkpt>
      <trkpt lat="42.3610280" lon="1.9240860">
        <ele>1383.0</ele>
        <time>2020-07-30T12:12:30Z</time>
      </trkpt>
      <trkpt lat="42.3610250" lon="1.9241380">
        <ele>1383.4</ele>
        <time>2020-07-30T12:12:31Z</time>
      </trkpt>
      <trkpt lat="42.3610510" lon="1.9243360">
        <ele>1384.2</ele>
        <time>2020-07-30T12:12:35Z</time>
      </trkpt>
      <trkpt lat="42.3610790" lon="1.9244310">
        <ele>1384.4</ele>
        <time>2020-07-30T12:12:37Z</time>
      </trkpt>
      <trkpt lat="42.3611430" lon="1.9246140">
        <ele>1385.4</ele>
        <time>2020-07-30T12:12:41Z</time>
      </trkpt>
      <trkpt lat="42.3611870" lon="1.9247500">
        <ele>1386.6</ele>
        <time>2020-07-30T12:12:44Z</time>
      </trkpt>
      <trkpt lat="42.3612380" lon="1.9248810">
        <ele>1387.4</ele>
        <time>2020-07-30T12:12:47Z</time>
      </trkpt>
      <trkpt lat="42.3612730" lon="1.9249670">
        <ele>1387.8</ele>
        <time>2020-07-30T12:12:49Z</time>
      </trkpt>
      <trkpt lat="42.3613560" lon="1.9251870">
        <ele>1388.8</ele>
        <time>2020-07-30T12:12:54Z</time>
      </trkpt>
      <trkpt lat="42.3613860" lon="1.9252770">
        <ele>1389.4</ele>
        <time>2020-07-30T12:12:56Z</time>
      </trkpt>
      <trkpt lat="42.3614370" lon="1.9254060">
        <ele>1390.0</ele>
        <time>2020-07-30T12:12:59Z</time>
      </trkpt>
      <trkpt lat="42.3614740" lon="1.9255920">
        <ele>1390.8</ele>
        <time>2020-07-30T12:13:03Z</time>
      </trkpt>
      <trkpt lat="42.3614690" lon="1.9256420">
        <ele>1391.0</ele>
        <time>2020-07-30T12:13:04Z</time>
      </trkpt>
      <trkpt lat="42.3614070" lon="1.9257690">
        <ele>1391.8</ele>
        <time>2020-07-30T12:13:07Z</time>
      </trkpt>
      <trkpt lat="42.3613390" lon="1.9258170">
        <ele>1392.2</ele>
        <time>2020-07-30T12:13:09Z</time>
      </trkpt>
      <trkpt lat="42.3612640" lon="1.9258420">
        <ele>1392.4</ele>
        <time>2020-07-30T12:13:11Z</time>
      </trkpt>
      <trkpt lat="42.3611130" lon="1.9258840">
        <ele>1393.0</ele>
        <time>2020-07-30T12:13:15Z</time>
      </trkpt>
      <trkpt lat="42.3609310" lon="1.9259590">
        <ele>1393.6</ele>
        <time>2020-07-30T12:13:20Z</time>
      </trkpt>
      <trkpt lat="42.3608280" lon="1.9261150">
        <ele>1393.8</ele>
        <time>2020-07-30T12:13:24Z</time>
      </trkpt>
      <trkpt lat="42.3607850" lon="1.9263200">
        <ele>1394.0</ele>
        <time>2020-07-30T12:13:28Z</time>
      </trkpt>
      <trkpt lat="42.3607690" lon="1.9264260">
        <ele>1394.2</ele>
        <time>2020-07-30T12:13:30Z</time>
      </trkpt>
      <trkpt lat="42.3607460" lon="1.9265350">
        <ele>1394.4</ele>
        <time>2020-07-30T12:13:32Z</time>
      </trkpt>
      <trkpt lat="42.3606720" lon="1.9266690">
        <ele>1394.8</ele>
        <time>2020-07-30T12:13:35Z</time>
      </trkpt>
      <trkpt lat="42.3606410" lon="1.9267060">
        <ele>1395.0</ele>
        <time>2020-07-30T12:13:36Z</time>
      </trkpt>
      <trkpt lat="42.3605780" lon="1.9267710">
        <ele>1395.0</ele>
        <time>2020-07-30T12:13:38Z</time>
      </trkpt>
      <trkpt lat="42.3604670" lon="1.9268370">
        <ele>1395.4</ele>
        <time>2020-07-30T12:13:41Z</time>
      </trkpt>
      <trkpt lat="42.3603460" lon="1.9268680">
        <ele>1396.4</ele>
        <time>2020-07-30T12:13:44Z</time>
      </trkpt>
      <trkpt lat="42.3601950" lon="1.9268920">
        <ele>1397.0</ele>
        <time>2020-07-30T12:13:48Z</time>
      </trkpt>
      <trkpt lat="42.3601190" lon="1.9269100">
        <ele>1397.4</ele>
        <time>2020-07-30T12:13:50Z</time>
      </trkpt>
      <trkpt lat="42.3599600" lon="1.9269570">
        <ele>1398.4</ele>
        <time>2020-07-30T12:13:54Z</time>
      </trkpt>
      <trkpt lat="42.3598440" lon="1.9270210">
        <ele>1398.6</ele>
        <time>2020-07-30T12:13:57Z</time>
      </trkpt>
      <trkpt lat="42.3596490" lon="1.9271360">
        <ele>1399.4</ele>
        <time>2020-07-30T12:14:02Z</time>
      </trkpt>
      <trkpt lat="42.3594560" lon="1.9272600">
        <ele>1399.8</ele>
        <time>2020-07-30T12:14:07Z</time>
      </trkpt>
      <trkpt lat="42.3593010" lon="1.9273560">
        <ele>1400.6</ele>
        <time>2020-07-30T12:14:11Z</time>
      </trkpt>
      <trkpt lat="42.3591980" lon="1.9274520">
        <ele>1401.2</ele>
        <time>2020-07-30T12:14:14Z</time>
      </trkpt>
      <trkpt lat="42.3591670" lon="1.9274910">
        <ele>1401.2</ele>
        <time>2020-07-30T12:14:15Z</time>
      </trkpt>
      <trkpt lat="42.3589650" lon="1.9278570">
        <ele>1401.6</ele>
        <time>2020-07-30T12:14:23Z</time>
      </trkpt>
      <trkpt lat="42.3588730" lon="1.9280560">
        <ele>1402.8</ele>
        <time>2020-07-30T12:14:27Z</time>
      </trkpt>
      <trkpt lat="42.3588080" lon="1.9282150">
        <ele>1403.8</ele>
        <time>2020-07-30T12:14:30Z</time>
      </trkpt>
      <trkpt lat="42.3587960" lon="1.9282730">
        <ele>1403.8</ele>
        <time>2020-07-30T12:14:31Z</time>
      </trkpt>
      <trkpt lat="42.3587860" lon="1.9284610">
        <ele>1404.0</ele>
        <time>2020-07-30T12:14:34Z</time>
      </trkpt>
      <trkpt lat="42.3587910" lon="1.9285930">
        <ele>1404.0</ele>
        <time>2020-07-30T12:14:36Z</time>
      </trkpt>
      <trkpt lat="42.3588110" lon="1.9291650">
        <ele>1404.0</ele>
        <time>2020-07-30T12:14:45Z</time>
      </trkpt>
      <trkpt lat="42.3587640" lon="1.9295180">
        <ele>1405.0</ele>
        <time>2020-07-30T12:14:51Z</time>
      </trkpt>
      <trkpt lat="42.3587420" lon="1.9295720">
        <ele>1405.2</ele>
        <time>2020-07-30T12:14:52Z</time>
      </trkpt>
      <trkpt lat="42.3586410" lon="1.9296840">
        <ele>1406.2</ele>
        <time>2020-07-30T12:14:55Z</time>
      </trkpt>
      <trkpt lat="42.3586030" lon="1.9297140">
        <ele>1406.6</ele>
        <time>2020-07-30T12:14:56Z</time>
      </trkpt>
      <trkpt lat="42.3585650" lon="1.9297400">
        <ele>1407.0</ele>
        <time>2020-07-30T12:14:57Z</time>
      </trkpt>
      <trkpt lat="42.3584970" lon="1.9297900">
        <ele>1407.4</ele>
        <time>2020-07-30T12:14:59Z</time>
      </trkpt>
      <trkpt lat="42.3583770" lon="1.9298650">
        <ele>1407.8</ele>
        <time>2020-07-30T12:15:03Z</time>
      </trkpt>
      <trkpt lat="42.3582610" lon="1.9299490">
        <ele>1408.4</ele>
        <time>2020-07-30T12:15:07Z</time>
      </trkpt>
      <trkpt lat="42.3581730" lon="1.9299970">
        <ele>1409.0</ele>
        <time>2020-07-30T12:15:10Z</time>
      </trkpt>
      <trkpt lat="42.3581150" lon="1.9300350">
        <ele>1409.4</ele>
        <time>2020-07-30T12:15:12Z</time>
      </trkpt>
      <trkpt lat="42.3579630" lon="1.9301410">
        <ele>1410.6</ele>
        <time>2020-07-30T12:15:17Z</time>
      </trkpt>
      <trkpt lat="42.3579380" lon="1.9301730">
        <ele>1410.8</ele>
        <time>2020-07-30T12:15:18Z</time>
      </trkpt>
      <trkpt lat="42.3578760" lon="1.9302880">
        <ele>1411.8</ele>
        <time>2020-07-30T12:15:21Z</time>
      </trkpt>
      <trkpt lat="42.3578070" lon="1.9304640">
        <ele>1412.4</ele>
        <time>2020-07-30T12:15:25Z</time>
      </trkpt>
      <trkpt lat="42.3577940" lon="1.9305070">
        <ele>1412.8</ele>
        <time>2020-07-30T12:15:26Z</time>
      </trkpt>
      <trkpt lat="42.3577260" lon="1.9307210">
        <ele>1414.0</ele>
        <time>2020-07-30T12:15:31Z</time>
      </trkpt>
      <trkpt lat="42.3576720" lon="1.9308440">
        <ele>1415.0</ele>
        <time>2020-07-30T12:15:34Z</time>
      </trkpt>
      <trkpt lat="42.3575280" lon="1.9309120">
        <ele>1415.6</ele>
        <time>2020-07-30T12:15:38Z</time>
      </trkpt>
      <trkpt lat="42.3574490" lon="1.9308630">
        <ele>1416.0</ele>
        <time>2020-07-30T12:15:40Z</time>
      </trkpt>
      <trkpt lat="42.3573780" lon="1.9308010">
        <ele>1416.2</ele>
        <time>2020-07-30T12:15:42Z</time>
      </trkpt>
      <trkpt lat="42.3573390" lon="1.9307760">
        <ele>1416.2</ele>
        <time>2020-07-30T12:15:43Z</time>
      </trkpt>
      <trkpt lat="42.3572000" lon="1.9307440">
        <ele>1416.4</ele>
        <time>2020-07-30T12:15:46Z</time>
      </trkpt>
      <trkpt lat="42.3571550" lon="1.9307430">
        <ele>1416.4</ele>
        <time>2020-07-30T12:15:47Z</time>
      </trkpt>
      <trkpt lat="42.3571130" lon="1.9307460">
        <ele>1416.6</ele>
        <time>2020-07-30T12:15:48Z</time>
      </trkpt>
      <trkpt lat="42.3570320" lon="1.9307620">
        <ele>1416.6</ele>
        <time>2020-07-30T12:15:50Z</time>
      </trkpt>
      <trkpt lat="42.3569560" lon="1.9307920">
        <ele>1416.8</ele>
        <time>2020-07-30T12:15:52Z</time>
      </trkpt>
      <trkpt lat="42.3568350" lon="1.9308280">
        <ele>1417.0</ele>
        <time>2020-07-30T12:15:55Z</time>
      </trkpt>
      <trkpt lat="42.3567000" lon="1.9309130">
        <ele>1417.8</ele>
        <time>2020-07-30T12:15:59Z</time>
      </trkpt>
      <trkpt lat="42.3566680" lon="1.9309420">
        <ele>1418.0</ele>
        <time>2020-07-30T12:16:00Z</time>
      </trkpt>
      <trkpt lat="42.3564660" lon="1.9310950">
        <ele>1419.0</ele>
        <time>2020-07-30T12:16:06Z</time>
      </trkpt>
      <trkpt lat="42.3562410" lon="1.9312580">
        <ele>1420.2</ele>
        <time>2020-07-30T12:16:12Z</time>
      </trkpt>
      <trkpt lat="42.3560890" lon="1.9313690">
        <ele>1420.8</ele>
        <time>2020-07-30T12:16:16Z</time>
      </trkpt>
      <trkpt lat="42.3559110" lon="1.9314930">
        <ele>1421.2</ele>
        <time>2020-07-30T12:16:21Z</time>
      </trkpt>
      <trkpt lat="42.3557800" lon="1.9315780">
        <ele>1422.2</ele>
        <time>2020-07-30T12:16:25Z</time>
      </trkpt>
      <trkpt lat="42.3557470" lon="1.9315970">
        <ele>1422.4</ele>
        <time>2020-07-30T12:16:26Z</time>
      </trkpt>
      <trkpt lat="42.3555190" lon="1.9317700">
        <ele>1423.2</ele>
        <time>2020-07-30T12:16:33Z</time>
      </trkpt>
      <trkpt lat="42.3554620" lon="1.9318230">
        <ele>1423.2</ele>
        <time>2020-07-30T12:16:35Z</time>
      </trkpt>
      <trkpt lat="42.3553390" lon="1.9319340">
        <ele>1424.6</ele>
        <time>2020-07-30T12:16:39Z</time>
      </trkpt>
      <trkpt lat="42.3552740" lon="1.9319890">
        <ele>1425.8</ele>
        <time>2020-07-30T12:16:41Z</time>
      </trkpt>
      <trkpt lat="42.3552410" lon="1.9320140">
        <ele>1426.2</ele>
        <time>2020-07-30T12:16:42Z</time>
      </trkpt>
      <trkpt lat="42.3551240" lon="1.9320520">
        <ele>1426.8</ele>
        <time>2020-07-30T12:16:45Z</time>
      </trkpt>
      <trkpt lat="42.3550340" lon="1.9320540">
        <ele>1427.0</ele>
        <time>2020-07-30T12:16:47Z</time>
      </trkpt>
      <trkpt lat="42.3548930" lon="1.9320560">
        <ele>1428.2</ele>
        <time>2020-07-30T12:16:51Z</time>
      </trkpt>
      <trkpt lat="42.3547970" lon="1.9320910">
        <ele>1428.6</ele>
        <time>2020-07-30T12:16:54Z</time>
      </trkpt>
      <trkpt lat="42.3546710" lon="1.9321390">
        <ele>1429.4</ele>
        <time>2020-07-30T12:16:58Z</time>
      </trkpt>
      <trkpt lat="42.3545120" lon="1.9322020">
        <ele>1429.8</ele>
        <time>2020-07-30T12:17:03Z</time>
      </trkpt>
      <trkpt lat="42.3543320" lon="1.9322600">
        <ele>1430.4</ele>
        <time>2020-07-30T12:17:08Z</time>
      </trkpt>
      <trkpt lat="42.3542190" lon="1.9322900">
        <ele>1431.0</ele>
        <time>2020-07-30T12:17:11Z</time>
      </trkpt>
      <trkpt lat="42.3538900" lon="1.9323640">
        <ele>1431.4</ele>
        <time>2020-07-30T12:17:19Z</time>
      </trkpt>
      <trkpt lat="42.3537950" lon="1.9323920">
        <ele>1431.6</ele>
        <time>2020-07-30T12:17:21Z</time>
      </trkpt>
      <trkpt lat="42.3535300" lon="1.9325070">
        <ele>1432.0</ele>
        <time>2020-07-30T12:17:27Z</time>
      </trkpt>
      <trkpt lat="42.3533350" lon="1.9326240">
        <ele>1432.6</ele>
        <time>2020-07-30T12:17:31Z</time>
      </trkpt>
      <trkpt lat="42.3531210" lon="1.9327890">
        <ele>1433.2</ele>
        <time>2020-07-30T12:17:36Z</time>
      </trkpt>
      <trkpt lat="42.3530180" lon="1.9328860">
        <ele>1433.6</ele>
        <time>2020-07-30T12:17:39Z</time>
      </trkpt>
      <trkpt lat="42.3529240" lon="1.9329790">
        <ele>1433.8</ele>
        <time>2020-07-30T12:17:42Z</time>
      </trkpt>
      <trkpt lat="42.3528400" lon="1.9330810">
        <ele>1434.2</ele>
        <time>2020-07-30T12:17:45Z</time>
      </trkpt>
      <trkpt lat="42.3526940" lon="1.9333010">
        <ele>1434.6</ele>
        <time>2020-07-30T12:17:51Z</time>
      </trkpt>
      <trkpt lat="42.3526280" lon="1.9334150">
        <ele>1434.8</ele>
        <time>2020-07-30T12:17:54Z</time>
      </trkpt>
      <trkpt lat="42.3525690" lon="1.9335380">
        <ele>1435.8</ele>
        <time>2020-07-30T12:17:57Z</time>
      </trkpt>
      <trkpt lat="42.3525300" lon="1.9337260">
        <ele>1436.4</ele>
        <time>2020-07-30T12:18:01Z</time>
      </trkpt>
      <trkpt lat="42.3525200" lon="1.9338310">
        <ele>1437.2</ele>
        <time>2020-07-30T12:18:03Z</time>
      </trkpt>
      <trkpt lat="42.3525210" lon="1.9341500">
        <ele>1438.2</ele>
        <time>2020-07-30T12:18:09Z</time>
      </trkpt>
      <trkpt lat="42.3525270" lon="1.9342010">
        <ele>1438.2</ele>
        <time>2020-07-30T12:18:10Z</time>
      </trkpt>
      <trkpt lat="42.3526130" lon="1.9345400">
        <ele>1439.2</ele>
        <time>2020-07-30T12:18:17Z</time>
      </trkpt>
      <trkpt lat="42.3526310" lon="1.9345830">
        <ele>1439.4</ele>
        <time>2020-07-30T12:18:18Z</time>
      </trkpt>
      <trkpt lat="42.3528070" lon="1.9349830">
        <ele>1440.4</ele>
        <time>2020-07-30T12:18:27Z</time>
      </trkpt>
      <trkpt lat="42.3528290" lon="1.9350320">
        <ele>1440.6</ele>
        <time>2020-07-30T12:18:28Z</time>
      </trkpt>
      <trkpt lat="42.3528880" lon="1.9352520">
        <ele>1441.4</ele>
        <time>2020-07-30T12:18:32Z</time>
      </trkpt>
      <trkpt lat="42.3528950" lon="1.9353110">
        <ele>1441.6</ele>
        <time>2020-07-30T12:18:33Z</time>
      </trkpt>
      <trkpt lat="42.3528910" lon="1.9357120">
        <ele>1441.8</ele>
        <time>2020-07-30T12:18:40Z</time>
      </trkpt>
      <trkpt lat="42.3528360" lon="1.9360230">
        <ele>1442.0</ele>
        <time>2020-07-30T12:18:46Z</time>
      </trkpt>
      <trkpt lat="42.3527600" lon="1.9362640">
        <ele>1442.6</ele>
        <time>2020-07-30T12:18:51Z</time>
      </trkpt>
      <trkpt lat="42.3527060" lon="1.9364550">
        <ele>1444.0</ele>
        <time>2020-07-30T12:18:55Z</time>
      </trkpt>
      <trkpt lat="42.3526850" lon="1.9365520">
        <ele>1444.8</ele>
        <time>2020-07-30T12:18:57Z</time>
      </trkpt>
      <trkpt lat="42.3526770" lon="1.9366010">
        <ele>1445.4</ele>
        <time>2020-07-30T12:18:58Z</time>
      </trkpt>
      <trkpt lat="42.3526670" lon="1.9367000">
        <ele>1446.4</ele>
        <time>2020-07-30T12:19:00Z</time>
      </trkpt>
      <trkpt lat="42.3526670" lon="1.9368950">
        <ele>1446.8</ele>
        <time>2020-07-30T12:19:04Z</time>
      </trkpt>
      <trkpt lat="42.3527100" lon="1.9371270">
        <ele>1447.4</ele>
        <time>2020-07-30T12:19:09Z</time>
      </trkpt>
      <trkpt lat="42.3527370" lon="1.9372190">
        <ele>1447.8</ele>
        <time>2020-07-30T12:19:11Z</time>
      </trkpt>
      <trkpt lat="42.3528830" lon="1.9375830">
        <ele>1447.8</ele>
        <time>2020-07-30T12:19:18Z</time>
      </trkpt>
      <trkpt lat="42.3529460" lon="1.9377670">
        <ele>1447.8</ele>
        <time>2020-07-30T12:19:21Z</time>
      </trkpt>
      <trkpt lat="42.3529690" lon="1.9379640">
        <ele>1447.8</ele>
        <time>2020-07-30T12:19:24Z</time>
      </trkpt>
      <trkpt lat="42.3529470" lon="1.9381470">
        <ele>1447.8</ele>
        <time>2020-07-30T12:19:27Z</time>
      </trkpt>
      <trkpt lat="42.3529260" lon="1.9382550">
        <ele>1448.0</ele>
        <time>2020-07-30T12:19:29Z</time>
      </trkpt>
      <trkpt lat="42.3528770" lon="1.9384010">
        <ele>1448.4</ele>
        <time>2020-07-30T12:19:32Z</time>
      </trkpt>
      <trkpt lat="42.3528170" lon="1.9384740">
        <ele>1448.6</ele>
        <time>2020-07-30T12:19:34Z</time>
      </trkpt>
      <trkpt lat="42.3527140" lon="1.9385600">
        <ele>1449.4</ele>
        <time>2020-07-30T12:19:37Z</time>
      </trkpt>
      <trkpt lat="42.3526060" lon="1.9386130">
        <ele>1450.6</ele>
        <time>2020-07-30T12:19:40Z</time>
      </trkpt>
      <trkpt lat="42.3523410" lon="1.9387690">
        <ele>1451.8</ele>
        <time>2020-07-30T12:19:48Z</time>
      </trkpt>
      <trkpt lat="42.3523090" lon="1.9387900">
        <ele>1451.8</ele>
        <time>2020-07-30T12:19:49Z</time>
      </trkpt>
      <trkpt lat="42.3521160" lon="1.9389440">
        <ele>1452.8</ele>
        <time>2020-07-30T12:19:55Z</time>
      </trkpt>
      <trkpt lat="42.3520540" lon="1.9390080">
        <ele>1454.0</ele>
        <time>2020-07-30T12:19:57Z</time>
      </trkpt>
      <trkpt lat="42.3519520" lon="1.9391770">
        <ele>1455.2</ele>
        <time>2020-07-30T12:20:01Z</time>
      </trkpt>
      <trkpt lat="42.3519340" lon="1.9392270">
        <ele>1455.4</ele>
        <time>2020-07-30T12:20:02Z</time>
      </trkpt>
      <trkpt lat="42.3518960" lon="1.9394360">
        <ele>1456.0</ele>
        <time>2020-07-30T12:20:06Z</time>
      </trkpt>
      <trkpt lat="42.3518940" lon="1.9395460">
        <ele>1456.2</ele>
        <time>2020-07-30T12:20:08Z</time>
      </trkpt>
      <trkpt lat="42.3518920" lon="1.9396010">
        <ele>1456.4</ele>
        <time>2020-07-30T12:20:09Z</time>
      </trkpt>
      <trkpt lat="42.3518890" lon="1.9396570">
        <ele>1456.6</ele>
        <time>2020-07-30T12:20:10Z</time>
      </trkpt>
      <trkpt lat="42.3518800" lon="1.9398710">
        <ele>1457.4</ele>
        <time>2020-07-30T12:20:14Z</time>
      </trkpt>
      <trkpt lat="42.3518810" lon="1.9399730">
        <ele>1457.4</ele>
        <time>2020-07-30T12:20:16Z</time>
      </trkpt>
      <trkpt lat="42.3519000" lon="1.9404190">
        <ele>1458.8</ele>
        <time>2020-07-30T12:20:25Z</time>
      </trkpt>
      <trkpt lat="42.3519000" lon="1.9404720">
        <ele>1459.2</ele>
        <time>2020-07-30T12:20:26Z</time>
      </trkpt>
      <trkpt lat="42.3519040" lon="1.9405720">
        <ele>1460.0</ele>
        <time>2020-07-30T12:20:28Z</time>
      </trkpt>
      <trkpt lat="42.3519200" lon="1.9409660">
        <ele>1460.8</ele>
        <time>2020-07-30T12:20:36Z</time>
      </trkpt>
      <trkpt lat="42.3519250" lon="1.9411210">
        <ele>1461.0</ele>
        <time>2020-07-30T12:20:39Z</time>
      </trkpt>
      <trkpt lat="42.3519050" lon="1.9414500">
        <ele>1461.8</ele>
        <time>2020-07-30T12:20:45Z</time>
      </trkpt>
      <trkpt lat="42.3518320" lon="1.9417690">
        <ele>1461.8</ele>
        <time>2020-07-30T12:20:51Z</time>
      </trkpt>
      <trkpt lat="42.3517970" lon="1.9419290">
        <ele>1462.0</ele>
        <time>2020-07-30T12:20:54Z</time>
      </trkpt>
      <trkpt lat="42.3517720" lon="1.9422470">
        <ele>1463.0</ele>
        <time>2020-07-30T12:21:00Z</time>
      </trkpt>
      <trkpt lat="42.3517660" lon="1.9423530">
        <ele>1463.2</ele>
        <time>2020-07-30T12:21:02Z</time>
      </trkpt>
      <trkpt lat="42.3517570" lon="1.9426190">
        <ele>1463.8</ele>
        <time>2020-07-30T12:21:07Z</time>
      </trkpt>
      <trkpt lat="42.3517320" lon="1.9429390">
        <ele>1464.8</ele>
        <time>2020-07-30T12:21:13Z</time>
      </trkpt>
      <trkpt lat="42.3517200" lon="1.9430420">
        <ele>1464.8</ele>
        <time>2020-07-30T12:21:15Z</time>
      </trkpt>
      <trkpt lat="42.3516620" lon="1.9435060">
        <ele>1465.8</ele>
        <time>2020-07-30T12:21:24Z</time>
      </trkpt>
      <trkpt lat="42.3516550" lon="1.9435580">
        <ele>1466.2</ele>
        <time>2020-07-30T12:21:25Z</time>
      </trkpt>
      <trkpt lat="42.3516300" lon="1.9437690">
        <ele>1467.2</ele>
        <time>2020-07-30T12:21:29Z</time>
      </trkpt>
      <trkpt lat="42.3515960" lon="1.9438670">
        <ele>1467.6</ele>
        <time>2020-07-30T12:21:31Z</time>
      </trkpt>
      <trkpt lat="42.3515720" lon="1.9439110">
        <ele>1467.8</ele>
        <time>2020-07-30T12:21:32Z</time>
      </trkpt>
      <trkpt lat="42.3515430" lon="1.9439510">
        <ele>1468.0</ele>
        <time>2020-07-30T12:21:33Z</time>
      </trkpt>
      <trkpt lat="42.3514790" lon="1.9440160">
        <ele>1468.6</ele>
        <time>2020-07-30T12:21:35Z</time>
      </trkpt>
      <trkpt lat="42.3514140" lon="1.9440740">
        <ele>1469.2</ele>
        <time>2020-07-30T12:21:37Z</time>
      </trkpt>
      <trkpt lat="42.3511680" lon="1.9443390">
        <ele>1470.6</ele>
        <time>2020-07-30T12:21:45Z</time>
      </trkpt>
      <trkpt lat="42.3510940" lon="1.9443960">
        <ele>1471.2</ele>
        <time>2020-07-30T12:21:47Z</time>
      </trkpt>
      <trkpt lat="42.3510080" lon="1.9444230">
        <ele>1471.6</ele>
        <time>2020-07-30T12:21:49Z</time>
      </trkpt>
      <trkpt lat="42.3508780" lon="1.9444130">
        <ele>1471.8</ele>
        <time>2020-07-30T12:21:52Z</time>
      </trkpt>
      <trkpt lat="42.3507640" lon="1.9443670">
        <ele>1472.0</ele>
        <time>2020-07-30T12:21:55Z</time>
      </trkpt>
      <trkpt lat="42.3506230" lon="1.9442900">
        <ele>1472.2</ele>
        <time>2020-07-30T12:21:59Z</time>
      </trkpt>
      <trkpt lat="42.3505540" lon="1.9442460">
        <ele>1472.8</ele>
        <time>2020-07-30T12:22:01Z</time>
      </trkpt>
      <trkpt lat="42.3504500" lon="1.9441810">
        <ele>1474.0</ele>
        <time>2020-07-30T12:22:04Z</time>
      </trkpt>
      <trkpt lat="42.3502210" lon="1.9441020">
        <ele>1474.4</ele>
        <time>2020-07-30T12:22:10Z</time>
      </trkpt>
      <trkpt lat="42.3500210" lon="1.9441900">
        <ele>1474.6</ele>
        <time>2020-07-30T12:22:15Z</time>
      </trkpt>
      <trkpt lat="42.3499700" lon="1.9443610">
        <ele>1474.6</ele>
        <time>2020-07-30T12:22:18Z</time>
      </trkpt>
      <trkpt lat="42.3500380" lon="1.9445970">
        <ele>1474.8</ele>
        <time>2020-07-30T12:22:22Z</time>
      </trkpt>
      <trkpt lat="42.3500690" lon="1.9446490">
        <ele>1474.8</ele>
        <time>2020-07-30T12:22:23Z</time>
      </trkpt>
      <trkpt lat="42.3502370" lon="1.9449020">
        <ele>1474.8</ele>
        <time>2020-07-30T12:22:28Z</time>
      </trkpt>
      <trkpt lat="42.3502690" lon="1.9449560">
        <ele>1475.0</ele>
        <time>2020-07-30T12:22:29Z</time>
      </trkpt>
      <trkpt lat="42.3503280" lon="1.9450680">
        <ele>1475.2</ele>
        <time>2020-07-30T12:22:31Z</time>
      </trkpt>
      <trkpt lat="42.3504100" lon="1.9453180">
        <ele>1475.8</ele>
        <time>2020-07-30T12:22:35Z</time>
      </trkpt>
      <trkpt lat="42.3504290" lon="1.9454450">
        <ele>1475.8</ele>
        <time>2020-07-30T12:22:37Z</time>
      </trkpt>
      <trkpt lat="42.3504700" lon="1.9458250">
        <ele>1476.0</ele>
        <time>2020-07-30T12:22:43Z</time>
      </trkpt>
      <trkpt lat="42.3505560" lon="1.9461860">
        <ele>1476.0</ele>
        <time>2020-07-30T12:22:49Z</time>
      </trkpt>
      <trkpt lat="42.3505790" lon="1.9462380">
        <ele>1476.2</ele>
        <time>2020-07-30T12:22:50Z</time>
      </trkpt>
      <trkpt lat="42.3507200" lon="1.9464070">
        <ele>1476.4</ele>
        <time>2020-07-30T12:22:54Z</time>
      </trkpt>
      <trkpt lat="42.3507620" lon="1.9464430">
        <ele>1476.6</ele>
        <time>2020-07-30T12:22:55Z</time>
      </trkpt>
      <trkpt lat="42.3508060" lon="1.9464810">
        <ele>1476.8</ele>
        <time>2020-07-30T12:22:56Z</time>
      </trkpt>
      <trkpt lat="42.3508910" lon="1.9465710">
        <ele>1477.2</ele>
        <time>2020-07-30T12:22:58Z</time>
      </trkpt>
      <trkpt lat="42.3509550" lon="1.9467020">
        <ele>1477.4</ele>
        <time>2020-07-30T12:23:00Z</time>
      </trkpt>
      <trkpt lat="42.3509320" lon="1.9469400">
        <ele>1477.6</ele>
        <time>2020-07-30T12:23:03Z</time>
      </trkpt>
      <trkpt lat="42.3509070" lon="1.9470130">
        <ele>1477.6</ele>
        <time>2020-07-30T12:23:04Z</time>
      </trkpt>
      <trkpt lat="42.3507910" lon="1.9473680">
        <ele>1477.6</ele>
        <time>2020-07-30T12:23:09Z</time>
      </trkpt>
      <trkpt lat="42.3507790" lon="1.9474410">
        <ele>1477.6</ele>
        <time>2020-07-30T12:23:10Z</time>
      </trkpt>
      <trkpt lat="42.3507730" lon="1.9476570">
        <ele>1477.6</ele>
        <time>2020-07-30T12:23:13Z</time>
      </trkpt>
      <trkpt lat="42.3507860" lon="1.9478010">
        <ele>1477.6</ele>
        <time>2020-07-30T12:23:15Z</time>
      </trkpt>
      <trkpt lat="42.3508000" lon="1.9478730">
        <ele>1477.6</ele>
        <time>2020-07-30T12:23:16Z</time>
      </trkpt>
      <trkpt lat="42.3508400" lon="1.9480170">
        <ele>1477.8</ele>
        <time>2020-07-30T12:23:18Z</time>
      </trkpt>
      <trkpt lat="42.3508760" lon="1.9481690">
        <ele>1477.6</ele>
        <time>2020-07-30T12:23:20Z</time>
      </trkpt>
      <trkpt lat="42.3508590" lon="1.9484740">
        <ele>1478.4</ele>
        <time>2020-07-30T12:23:24Z</time>
      </trkpt>
      <trkpt lat="42.3508190" lon="1.9485950">
        <ele>1478.4</ele>
        <time>2020-07-30T12:23:26Z</time>
      </trkpt>
      <trkpt lat="42.3507800" lon="1.9487040">
        <ele>1478.6</ele>
        <time>2020-07-30T12:23:28Z</time>
      </trkpt>
      <trkpt lat="42.3507490" lon="1.9488110">
        <ele>1478.8</ele>
        <time>2020-07-30T12:23:30Z</time>
      </trkpt>
      <trkpt lat="42.3507460" lon="1.9490350">
        <ele>1479.8</ele>
        <time>2020-07-30T12:23:34Z</time>
      </trkpt>
      <trkpt lat="42.3507610" lon="1.9490900">
        <ele>1480.4</ele>
        <time>2020-07-30T12:23:35Z</time>
      </trkpt>
      <trkpt lat="42.3508020" lon="1.9491930">
        <ele>1481.0</ele>
        <time>2020-07-30T12:23:37Z</time>
      </trkpt>
      <trkpt lat="42.3508260" lon="1.9492430">
        <ele>1481.0</ele>
        <time>2020-07-30T12:23:38Z</time>
      </trkpt>
      <trkpt lat="42.3509080" lon="1.9493890">
        <ele>1481.6</ele>
        <time>2020-07-30T12:23:41Z</time>
      </trkpt>
      <trkpt lat="42.3509380" lon="1.9494370">
        <ele>1482.0</ele>
        <time>2020-07-30T12:23:42Z</time>
      </trkpt>
      <trkpt lat="42.3511380" lon="1.9497180">
        <ele>1482.6</ele>
        <time>2020-07-30T12:23:48Z</time>
      </trkpt>
      <trkpt lat="42.3512210" lon="1.9497870">
        <ele>1482.8</ele>
        <time>2020-07-30T12:23:50Z</time>
      </trkpt>
      <trkpt lat="42.3513130" lon="1.9498480">
        <ele>1483.0</ele>
        <time>2020-07-30T12:23:52Z</time>
      </trkpt>
      <trkpt lat="42.3514060" lon="1.9499330">
        <ele>1483.2</ele>
        <time>2020-07-30T12:23:54Z</time>
      </trkpt>
      <trkpt lat="42.3514460" lon="1.9499940">
        <ele>1483.2</ele>
        <time>2020-07-30T12:23:55Z</time>
      </trkpt>
      <trkpt lat="42.3516090" lon="1.9504050">
        <ele>1483.2</ele>
        <time>2020-07-30T12:24:01Z</time>
      </trkpt>
      <trkpt lat="42.3517580" lon="1.9509120">
        <ele>1483.6</ele>
        <time>2020-07-30T12:24:09Z</time>
      </trkpt>
      <trkpt lat="42.3517830" lon="1.9510870">
        <ele>1484.0</ele>
        <time>2020-07-30T12:24:12Z</time>
      </trkpt>
      <trkpt lat="42.3518140" lon="1.9513730">
        <ele>1485.2</ele>
        <time>2020-07-30T12:24:17Z</time>
      </trkpt>
      <trkpt lat="42.3518490" lon="1.9517800">
        <ele>1486.2</ele>
        <time>2020-07-30T12:24:24Z</time>
      </trkpt>
      <trkpt lat="42.3518890" lon="1.9520630">
        <ele>1487.2</ele>
        <time>2020-07-30T12:24:29Z</time>
      </trkpt>
      <trkpt lat="42.3519640" lon="1.9522950">
        <ele>1487.8</ele>
        <time>2020-07-30T12:24:33Z</time>
      </trkpt>
      <trkpt lat="42.3519940" lon="1.9523500">
        <ele>1488.0</ele>
        <time>2020-07-30T12:24:34Z</time>
      </trkpt>
      <trkpt lat="42.3521640" lon="1.9525320">
        <ele>1488.0</ele>
        <time>2020-07-30T12:24:38Z</time>
      </trkpt>
      <trkpt lat="42.3524350" lon="1.9526590">
        <ele>1488.0</ele>
        <time>2020-07-30T12:24:43Z</time>
      </trkpt>
      <trkpt lat="42.3528560" lon="1.9527020">
        <ele>1487.8</ele>
        <time>2020-07-30T12:24:50Z</time>
      </trkpt>
      <trkpt lat="42.3534310" lon="1.9527750">
        <ele>1487.8</ele>
        <time>2020-07-30T12:24:59Z</time>
      </trkpt>
      <trkpt lat="42.3534960" lon="1.9527960">
        <ele>1487.8</ele>
        <time>2020-07-30T12:25:00Z</time>
      </trkpt>
      <trkpt lat="42.3538700" lon="1.9529740">
        <ele>1488.0</ele>
        <time>2020-07-30T12:25:06Z</time>
      </trkpt>
      <trkpt lat="42.3540630" lon="1.9530180">
        <ele>1487.8</ele>
        <time>2020-07-30T12:25:09Z</time>
      </trkpt>
      <trkpt lat="42.3541940" lon="1.9529950">
        <ele>1488.0</ele>
        <time>2020-07-30T12:25:11Z</time>
      </trkpt>
      <trkpt lat="42.3543580" lon="1.9528460">
        <ele>1488.0</ele>
        <time>2020-07-30T12:25:14Z</time>
      </trkpt>
      <trkpt lat="42.3544040" lon="1.9527760">
        <ele>1488.0</ele>
        <time>2020-07-30T12:25:15Z</time>
      </trkpt>
      <trkpt lat="42.3545170" lon="1.9525360">
        <ele>1488.2</ele>
        <time>2020-07-30T12:25:18Z</time>
      </trkpt>
      <trkpt lat="42.3547690" lon="1.9519370">
        <ele>1488.2</ele>
        <time>2020-07-30T12:25:25Z</time>
      </trkpt>
      <trkpt lat="42.3548410" lon="1.9517660">
        <ele>1488.0</ele>
        <time>2020-07-30T12:25:27Z</time>
      </trkpt>
      <trkpt lat="42.3551140" lon="1.9511820">
        <ele>1487.6</ele>
        <time>2020-07-30T12:25:34Z</time>
      </trkpt>
      <trkpt lat="42.3553570" lon="1.9508130">
        <ele>1487.4</ele>
        <time>2020-07-30T12:25:39Z</time>
      </trkpt>
      <trkpt lat="42.3557370" lon="1.9503710">
        <ele>1487.6</ele>
        <time>2020-07-30T12:25:46Z</time>
      </trkpt>
      <trkpt lat="42.3557830" lon="1.9502980">
        <ele>1487.8</ele>
        <time>2020-07-30T12:25:47Z</time>
      </trkpt>
      <trkpt lat="42.3559160" lon="1.9499760">
        <ele>1488.2</ele>
        <time>2020-07-30T12:25:51Z</time>
      </trkpt>
      <trkpt lat="42.3560510" lon="1.9496730">
        <ele>1488.0</ele>
        <time>2020-07-30T12:25:55Z</time>
      </trkpt>
      <trkpt lat="42.3561410" lon="1.9495460">
        <ele>1488.0</ele>
        <time>2020-07-30T12:25:57Z</time>
      </trkpt>
      <trkpt lat="42.3563530" lon="1.9494150">
        <ele>1488.0</ele>
        <time>2020-07-30T12:26:01Z</time>
      </trkpt>
      <trkpt lat="42.3565110" lon="1.9495330">
        <ele>1488.0</ele>
        <time>2020-07-30T12:26:04Z</time>
      </trkpt>
      <trkpt lat="42.3565380" lon="1.9497780">
        <ele>1487.2</ele>
        <time>2020-07-30T12:26:07Z</time>
      </trkpt>
      <trkpt lat="42.3565350" lon="1.9498590">
        <ele>1487.0</ele>
        <time>2020-07-30T12:26:08Z</time>
      </trkpt>
      <trkpt lat="42.3565160" lon="1.9501670">
        <ele>1486.2</ele>
        <time>2020-07-30T12:26:12Z</time>
      </trkpt>
      <trkpt lat="42.3564970" lon="1.9504560">
        <ele>1486.2</ele>
        <time>2020-07-30T12:26:16Z</time>
      </trkpt>
      <trkpt lat="42.3564290" lon="1.9509500">
        <ele>1486.2</ele>
        <time>2020-07-30T12:26:23Z</time>
      </trkpt>
      <trkpt lat="42.3563380" lon="1.9515140">
        <ele>1487.0</ele>
        <time>2020-07-30T12:26:31Z</time>
      </trkpt>
      <trkpt lat="42.3563340" lon="1.9515870">
        <ele>1487.2</ele>
        <time>2020-07-30T12:26:32Z</time>
      </trkpt>
      <trkpt lat="42.3563470" lon="1.9519550">
        <ele>1488.2</ele>
        <time>2020-07-30T12:26:37Z</time>
      </trkpt>
      <trkpt lat="42.3563650" lon="1.9521020">
        <ele>1488.2</ele>
        <time>2020-07-30T12:26:39Z</time>
      </trkpt>
      <trkpt lat="42.3564690" lon="1.9528470">
        <ele>1488.8</ele>
        <time>2020-07-30T12:26:49Z</time>
      </trkpt>
      <trkpt lat="42.3564770" lon="1.9529200">
        <ele>1488.6</ele>
        <time>2020-07-30T12:26:50Z</time>
      </trkpt>
      <trkpt lat="42.3565560" lon="1.9534810">
        <ele>1488.2</ele>
        <time>2020-07-30T12:26:58Z</time>
      </trkpt>
      <trkpt lat="42.3566210" lon="1.9539680">
        <ele>1488.4</ele>
        <time>2020-07-30T12:27:05Z</time>
      </trkpt>
      <trkpt lat="42.3566560" lon="1.9540990">
        <ele>1488.4</ele>
        <time>2020-07-30T12:27:07Z</time>
      </trkpt>
      <trkpt lat="42.3567930" lon="1.9543100">
        <ele>1488.6</ele>
        <time>2020-07-30T12:27:11Z</time>
      </trkpt>
      <trkpt lat="42.3570000" lon="1.9544090">
        <ele>1489.2</ele>
        <time>2020-07-30T12:27:15Z</time>
      </trkpt>
      <trkpt lat="42.3570570" lon="1.9544180">
        <ele>1489.8</ele>
        <time>2020-07-30T12:27:16Z</time>
      </trkpt>
      <trkpt lat="42.3571690" lon="1.9544280">
        <ele>1490.0</ele>
        <time>2020-07-30T12:27:18Z</time>
      </trkpt>
      <trkpt lat="42.3573940" lon="1.9544230">
        <ele>1490.4</ele>
        <time>2020-07-30T12:27:22Z</time>
      </trkpt>
      <trkpt lat="42.3579640" lon="1.9543390">
        <ele>1490.4</ele>
        <time>2020-07-30T12:27:32Z</time>
      </trkpt>
      <trkpt lat="42.3583250" lon="1.9542430">
        <ele>1490.8</ele>
        <time>2020-07-30T12:27:38Z</time>
      </trkpt>
      <trkpt lat="42.3587650" lon="1.9540870">
        <ele>1491.0</ele>
        <time>2020-07-30T12:27:46Z</time>
      </trkpt>
      <trkpt lat="42.3588700" lon="1.9540730">
        <ele>1491.0</ele>
        <time>2020-07-30T12:27:48Z</time>
      </trkpt>
      <trkpt lat="42.3589810" lon="1.9540910">
        <ele>1491.0</ele>
        <time>2020-07-30T12:27:50Z</time>
      </trkpt>
      <trkpt lat="42.3590330" lon="1.9541170">
        <ele>1491.0</ele>
        <time>2020-07-30T12:27:51Z</time>
      </trkpt>
      <trkpt lat="42.3591210" lon="1.9541960">
        <ele>1491.2</ele>
        <time>2020-07-30T12:27:53Z</time>
      </trkpt>
      <trkpt lat="42.3591600" lon="1.9542390">
        <ele>1491.2</ele>
        <time>2020-07-30T12:27:54Z</time>
      </trkpt>
      <trkpt lat="42.3592010" lon="1.9542740">
        <ele>1491.2</ele>
        <time>2020-07-30T12:27:55Z</time>
      </trkpt>
      <trkpt lat="42.3593990" lon="1.9543680">
        <ele>1492.0</ele>
        <time>2020-07-30T12:27:59Z</time>
      </trkpt>
      <trkpt lat="42.3594500" lon="1.9543790">
        <ele>1492.2</ele>
        <time>2020-07-30T12:28:00Z</time>
      </trkpt>
      <trkpt lat="42.3596730" lon="1.9544130">
        <ele>1493.2</ele>
        <time>2020-07-30T12:28:04Z</time>
      </trkpt>
      <trkpt lat="42.3599020" lon="1.9544270">
        <ele>1493.4</ele>
        <time>2020-07-30T12:28:08Z</time>
      </trkpt>
      <trkpt lat="42.3603770" lon="1.9543950">
        <ele>1493.8</ele>
        <time>2020-07-30T12:28:17Z</time>
      </trkpt>
      <trkpt lat="42.3604770" lon="1.9543920">
        <ele>1494.0</ele>
        <time>2020-07-30T12:28:19Z</time>
      </trkpt>
      <trkpt lat="42.3607150" lon="1.9544380">
        <ele>1495.0</ele>
        <time>2020-07-30T12:28:24Z</time>
      </trkpt>
      <trkpt lat="42.3607600" lon="1.9544590">
        <ele>1495.2</ele>
        <time>2020-07-30T12:28:25Z</time>
      </trkpt>
      <trkpt lat="42.3608040" lon="1.9544850">
        <ele>1495.4</ele>
        <time>2020-07-30T12:28:26Z</time>
      </trkpt>
      <trkpt lat="42.3609160" lon="1.9546070">
        <ele>1496.0</ele>
        <time>2020-07-30T12:28:29Z</time>
      </trkpt>
      <trkpt lat="42.3609420" lon="1.9548050">
        <ele>1496.2</ele>
        <time>2020-07-30T12:28:32Z</time>
      </trkpt>
      <trkpt lat="42.3609190" lon="1.9548700">
        <ele>1496.2</ele>
        <time>2020-07-30T12:28:33Z</time>
      </trkpt>
      <trkpt lat="42.3608520" lon="1.9549840">
        <ele>1496.6</ele>
        <time>2020-07-30T12:28:35Z</time>
      </trkpt>
      <trkpt lat="42.3608180" lon="1.9550380">
        <ele>1496.6</ele>
        <time>2020-07-30T12:28:36Z</time>
      </trkpt>
      <trkpt lat="42.3605450" lon="1.9554320">
        <ele>1497.0</ele>
        <time>2020-07-30T12:28:44Z</time>
      </trkpt>
      <trkpt lat="42.3604790" lon="1.9555290">
        <ele>1497.2</ele>
        <time>2020-07-30T12:28:46Z</time>
      </trkpt>
      <trkpt lat="42.3602530" lon="1.9559140">
        <ele>1497.4</ele>
        <time>2020-07-30T12:28:54Z</time>
      </trkpt>
      <trkpt lat="42.3602100" lon="1.9561330">
        <ele>1497.2</ele>
        <time>2020-07-30T12:28:58Z</time>
      </trkpt>
      <trkpt lat="42.3602080" lon="1.9561890">
        <ele>1497.2</ele>
        <time>2020-07-30T12:28:59Z</time>
      </trkpt>
      <trkpt lat="42.3602730" lon="1.9564690">
        <ele>1497.4</ele>
        <time>2020-07-30T12:29:04Z</time>
      </trkpt>
      <trkpt lat="42.3603880" lon="1.9567290">
        <ele>1498.2</ele>
        <time>2020-07-30T12:29:09Z</time>
      </trkpt>
      <trkpt lat="42.3604750" lon="1.9568780">
        <ele>1498.4</ele>
        <time>2020-07-30T12:29:12Z</time>
      </trkpt>
      <trkpt lat="42.3605420" lon="1.9569680">
        <ele>1498.6</ele>
        <time>2020-07-30T12:29:14Z</time>
      </trkpt>
      <trkpt lat="42.3607020" lon="1.9571120">
        <ele>1499.0</ele>
        <time>2020-07-30T12:29:18Z</time>
      </trkpt>
      <trkpt lat="42.3607480" lon="1.9571370">
        <ele>1499.0</ele>
        <time>2020-07-30T12:29:19Z</time>
      </trkpt>
      <trkpt lat="42.3609420" lon="1.9572010">
        <ele>1499.4</ele>
        <time>2020-07-30T12:29:23Z</time>
      </trkpt>
      <trkpt lat="42.3609900" lon="1.9572040">
        <ele>1500.0</ele>
        <time>2020-07-30T12:29:24Z</time>
      </trkpt>
      <trkpt lat="42.3610380" lon="1.9572020">
        <ele>1500.2</ele>
        <time>2020-07-30T12:29:25Z</time>
      </trkpt>
      <trkpt lat="42.3611330" lon="1.9571870">
        <ele>1500.4</ele>
        <time>2020-07-30T12:29:27Z</time>
      </trkpt>
      <trkpt lat="42.3612760" lon="1.9571580">
        <ele>1500.6</ele>
        <time>2020-07-30T12:29:30Z</time>
      </trkpt>
      <trkpt lat="42.3614680" lon="1.9571280">
        <ele>1500.8</ele>
        <time>2020-07-30T12:29:34Z</time>
      </trkpt>
      <trkpt lat="42.3616040" lon="1.9570940">
        <ele>1501.0</ele>
        <time>2020-07-30T12:29:37Z</time>
      </trkpt>
      <trkpt lat="42.3617420" lon="1.9570680">
        <ele>1501.2</ele>
        <time>2020-07-30T12:29:40Z</time>
      </trkpt>
      <trkpt lat="42.3618380" lon="1.9570710">
        <ele>1501.4</ele>
        <time>2020-07-30T12:29:42Z</time>
      </trkpt>
      <trkpt lat="42.3618870" lon="1.9570870">
        <ele>1501.6</ele>
        <time>2020-07-30T12:29:43Z</time>
      </trkpt>
      <trkpt lat="42.3620060" lon="1.9572110">
        <ele>1501.6</ele>
        <time>2020-07-30T12:29:46Z</time>
      </trkpt>
      <trkpt lat="42.3620360" lon="1.9572690">
        <ele>1501.8</ele>
        <time>2020-07-30T12:29:47Z</time>
      </trkpt>
      <trkpt lat="42.3621690" lon="1.9575470">
        <ele>1502.2</ele>
        <time>2020-07-30T12:29:52Z</time>
      </trkpt>
      <trkpt lat="42.3622020" lon="1.9575890">
        <ele>1502.2</ele>
        <time>2020-07-30T12:29:53Z</time>
      </trkpt>
      <trkpt lat="42.3623390" lon="1.9577120">
        <ele>1502.6</ele>
        <time>2020-07-30T12:29:56Z</time>
      </trkpt>
      <trkpt lat="42.3624430" lon="1.9577860">
        <ele>1502.8</ele>
        <time>2020-07-30T12:29:58Z</time>
      </trkpt>
      <trkpt lat="42.3627360" lon="1.9579150">
        <ele>1503.2</ele>
        <time>2020-07-30T12:30:03Z</time>
      </trkpt>
      <trkpt lat="42.3627990" lon="1.9579330">
        <ele>1503.2</ele>
        <time>2020-07-30T12:30:04Z</time>
      </trkpt>
      <trkpt lat="42.3633690" lon="1.9580750">
        <ele>1503.6</ele>
        <time>2020-07-30T12:30:13Z</time>
      </trkpt>
      <trkpt lat="42.3635010" lon="1.9581030">
        <ele>1503.4</ele>
        <time>2020-07-30T12:30:15Z</time>
      </trkpt>
      <trkpt lat="42.3639260" lon="1.9581380">
        <ele>1503.6</ele>
        <time>2020-07-30T12:30:22Z</time>
      </trkpt>
      <trkpt lat="42.3640820" lon="1.9581300">
        <ele>1504.2</ele>
        <time>2020-07-30T12:30:25Z</time>
      </trkpt>
      <trkpt lat="42.3642290" lon="1.9581180">
        <ele>1505.4</ele>
        <time>2020-07-30T12:30:28Z</time>
      </trkpt>
      <trkpt lat="42.3642750" lon="1.9581240">
        <ele>1505.6</ele>
        <time>2020-07-30T12:30:29Z</time>
      </trkpt>
      <trkpt lat="42.3643210" lon="1.9581330">
        <ele>1505.8</ele>
        <time>2020-07-30T12:30:30Z</time>
      </trkpt>
      <trkpt lat="42.3644150" lon="1.9581610">
        <ele>1506.4</ele>
        <time>2020-07-30T12:30:32Z</time>
      </trkpt>
      <trkpt lat="42.3646010" lon="1.9582240">
        <ele>1507.0</ele>
        <time>2020-07-30T12:30:36Z</time>
      </trkpt>
      <trkpt lat="42.3646930" lon="1.9582600">
        <ele>1507.2</ele>
        <time>2020-07-30T12:30:38Z</time>
      </trkpt>
      <trkpt lat="42.3649630" lon="1.9583500">
        <ele>1508.2</ele>
        <time>2020-07-30T12:30:44Z</time>
      </trkpt>
      <trkpt lat="42.3650610" lon="1.9583840">
        <ele>1508.4</ele>
        <time>2020-07-30T12:30:46Z</time>
      </trkpt>
      <trkpt lat="42.3653420" lon="1.9584750">
        <ele>1509.6</ele>
        <time>2020-07-30T12:30:52Z</time>
      </trkpt>
      <trkpt lat="42.3656860" lon="1.9585830">
        <ele>1510.0</ele>
        <time>2020-07-30T12:30:59Z</time>
      </trkpt>
      <trkpt lat="42.3659110" lon="1.9586490">
        <ele>1510.4</ele>
        <time>2020-07-30T12:31:03Z</time>
      </trkpt>
      <trkpt lat="42.3660840" lon="1.9587010">
        <ele>1511.2</ele>
        <time>2020-07-30T12:31:06Z</time>
      </trkpt>
      <trkpt lat="42.3662040" lon="1.9587450">
        <ele>1511.2</ele>
        <time>2020-07-30T12:31:08Z</time>
      </trkpt>
      <trkpt lat="42.3666050" lon="1.9588710">
        <ele>1511.6</ele>
        <time>2020-07-30T12:31:15Z</time>
      </trkpt>
      <trkpt lat="42.3666580" lon="1.9588880">
        <ele>1511.6</ele>
        <time>2020-07-30T12:31:16Z</time>
      </trkpt>
      <trkpt lat="42.3668070" lon="1.9589380">
        <ele>1512.6</ele>
        <time>2020-07-30T12:31:19Z</time>
      </trkpt>
      <trkpt lat="42.3671220" lon="1.9590250">
        <ele>1513.8</ele>
        <time>2020-07-30T12:31:25Z</time>
      </trkpt>
      <trkpt lat="42.3672340" lon="1.9590710">
        <ele>1514.0</ele>
        <time>2020-07-30T12:31:27Z</time>
      </trkpt>
      <trkpt lat="42.3673400" lon="1.9591690">
        <ele>1514.4</ele>
        <time>2020-07-30T12:31:29Z</time>
      </trkpt>
      <trkpt lat="42.3673780" lon="1.9594000">
        <ele>1514.4</ele>
        <time>2020-07-30T12:31:32Z</time>
      </trkpt>
      <trkpt lat="42.3672700" lon="1.9595980">
        <ele>1514.4</ele>
        <time>2020-07-30T12:31:35Z</time>
      </trkpt>
      <trkpt lat="42.3670850" lon="1.9596180">
        <ele>1514.4</ele>
        <time>2020-07-30T12:31:38Z</time>
      </trkpt>
      <trkpt lat="42.3667490" lon="1.9596480">
        <ele>1514.2</ele>
        <time>2020-07-30T12:31:44Z</time>
      </trkpt>
      <trkpt lat="42.3664880" lon="1.9597310">
        <ele>1514.6</ele>
        <time>2020-07-30T12:31:50Z</time>
      </trkpt>
      <trkpt lat="42.3662830" lon="1.9598470">
        <ele>1515.8</ele>
        <time>2020-07-30T12:31:55Z</time>
      </trkpt>
      <trkpt lat="42.3661870" lon="1.9598840">
        <ele>1516.6</ele>
        <time>2020-07-30T12:31:57Z</time>
      </trkpt>
      <trkpt lat="42.3661450" lon="1.9599050">
        <ele>1516.8</ele>
        <time>2020-07-30T12:31:58Z</time>
      </trkpt>
      <trkpt lat="42.3659430" lon="1.9600150">
        <ele>1517.8</ele>
        <time>2020-07-30T12:32:03Z</time>
      </trkpt>
      <trkpt lat="42.3659040" lon="1.9600330">
        <ele>1518.0</ele>
        <time>2020-07-30T12:32:04Z</time>
      </trkpt>
      <trkpt lat="42.3656560" lon="1.9601280">
        <ele>1518.8</ele>
        <time>2020-07-30T12:32:10Z</time>
      </trkpt>
      <trkpt lat="42.3656140" lon="1.9601320">
        <ele>1519.0</ele>
        <time>2020-07-30T12:32:11Z</time>
      </trkpt>
      <trkpt lat="42.3654530" lon="1.9601370">
        <ele>1520.2</ele>
        <time>2020-07-30T12:32:15Z</time>
      </trkpt>
      <trkpt lat="42.3653490" lon="1.9601350">
        <ele>1520.6</ele>
        <time>2020-07-30T12:32:18Z</time>
      </trkpt>
      <trkpt lat="42.3650740" lon="1.9601750">
        <ele>1521.2</ele>
        <time>2020-07-30T12:32:25Z</time>
      </trkpt>
      <trkpt lat="42.3649490" lon="1.9602050">
        <ele>1521.4</ele>
        <time>2020-07-30T12:32:28Z</time>
      </trkpt>
      <trkpt lat="42.3647530" lon="1.9602520">
        <ele>1522.2</ele>
        <time>2020-07-30T12:32:33Z</time>
      </trkpt>
      <trkpt lat="42.3646060" lon="1.9602960">
        <ele>1522.6</ele>
        <time>2020-07-30T12:32:37Z</time>
      </trkpt>
      <trkpt lat="42.3644650" lon="1.9603650">
        <ele>1523.4</ele>
        <time>2020-07-30T12:32:41Z</time>
      </trkpt>
      <trkpt lat="42.3643200" lon="1.9604580">
        <ele>1524.0</ele>
        <time>2020-07-30T12:32:45Z</time>
      </trkpt>
      <trkpt lat="42.3642460" lon="1.9605120">
        <ele>1524.4</ele>
        <time>2020-07-30T12:32:47Z</time>
      </trkpt>
      <trkpt lat="42.3641350" lon="1.9605940">
        <ele>1525.4</ele>
        <time>2020-07-30T12:32:50Z</time>
      </trkpt>
      <trkpt lat="42.3639590" lon="1.9607570">
        <ele>1526.2</ele>
        <time>2020-07-30T12:32:55Z</time>
      </trkpt>
      <trkpt lat="42.3639300" lon="1.9608010">
        <ele>1526.2</ele>
        <time>2020-07-30T12:32:56Z</time>
      </trkpt>
      <trkpt lat="42.3638840" lon="1.9608970">
        <ele>1526.6</ele>
        <time>2020-07-30T12:32:58Z</time>
      </trkpt>
      <trkpt lat="42.3638580" lon="1.9610720">
        <ele>1527.8</ele>
        <time>2020-07-30T12:33:01Z</time>
      </trkpt>
      <trkpt lat="42.3638490" lon="1.9612360">
        <ele>1528.8</ele>
        <time>2020-07-30T12:33:04Z</time>
      </trkpt>
      <trkpt lat="42.3638290" lon="1.9614530">
        <ele>1529.0</ele>
        <time>2020-07-30T12:33:08Z</time>
      </trkpt>
      <trkpt lat="42.3638160" lon="1.9615040">
        <ele>1529.2</ele>
        <time>2020-07-30T12:33:09Z</time>
      </trkpt>
      <trkpt lat="42.3637380" lon="1.9616910">
        <ele>1529.6</ele>
        <time>2020-07-30T12:33:13Z</time>
      </trkpt>
      <trkpt lat="42.3636860" lon="1.9617680">
        <ele>1529.8</ele>
        <time>2020-07-30T12:33:15Z</time>
      </trkpt>
      <trkpt lat="42.3634960" lon="1.9620230">
        <ele>1530.8</ele>
        <time>2020-07-30T12:33:22Z</time>
      </trkpt>
      <trkpt lat="42.3634110" lon="1.9621290">
        <ele>1531.6</ele>
        <time>2020-07-30T12:33:25Z</time>
      </trkpt>
      <trkpt lat="42.3632310" lon="1.9623320">
        <ele>1532.8</ele>
        <time>2020-07-30T12:33:31Z</time>
      </trkpt>
      <trkpt lat="42.3631210" lon="1.9624000">
        <ele>1533.0</ele>
        <time>2020-07-30T12:33:34Z</time>
      </trkpt>
      <trkpt lat="42.3629550" lon="1.9623520">
        <ele>1533.2</ele>
        <time>2020-07-30T12:33:38Z</time>
      </trkpt>
      <trkpt lat="42.3628570" lon="1.9621570">
        <ele>1533.6</ele>
        <time>2020-07-30T12:33:42Z</time>
      </trkpt>
      <trkpt lat="42.3627920" lon="1.9620050">
        <ele>1534.2</ele>
        <time>2020-07-30T12:33:45Z</time>
      </trkpt>
      <trkpt lat="42.3627010" lon="1.9618810">
        <ele>1534.6</ele>
        <time>2020-07-30T12:33:48Z</time>
      </trkpt>
      <trkpt lat="42.3626680" lon="1.9618460">
        <ele>1534.6</ele>
        <time>2020-07-30T12:33:49Z</time>
      </trkpt>
      <trkpt lat="42.3625160" lon="1.9617480">
        <ele>1535.2</ele>
        <time>2020-07-30T12:33:53Z</time>
      </trkpt>
      <trkpt lat="42.3623160" lon="1.9616870">
        <ele>1535.8</ele>
        <time>2020-07-30T12:33:58Z</time>
      </trkpt>
      <trkpt lat="42.3622030" lon="1.9616600">
        <ele>1536.0</ele>
        <time>2020-07-30T12:34:01Z</time>
      </trkpt>
      <trkpt lat="42.3619720" lon="1.9616400">
        <ele>1536.6</ele>
        <time>2020-07-30T12:34:07Z</time>
      </trkpt>
      <trkpt lat="42.3618970" lon="1.9616390">
        <ele>1536.8</ele>
        <time>2020-07-30T12:34:09Z</time>
      </trkpt>
      <trkpt lat="42.3616780" lon="1.9616280">
        <ele>1537.2</ele>
        <time>2020-07-30T12:34:15Z</time>
      </trkpt>
      <trkpt lat="42.3615720" lon="1.9616370">
        <ele>1537.6</ele>
        <time>2020-07-30T12:34:18Z</time>
      </trkpt>
      <trkpt lat="42.3614580" lon="1.9616700">
        <ele>1538.2</ele>
        <time>2020-07-30T12:34:21Z</time>
      </trkpt>
      <trkpt lat="42.3613860" lon="1.9617070">
        <ele>1538.4</ele>
        <time>2020-07-30T12:34:23Z</time>
      </trkpt>
      <trkpt lat="42.3612630" lon="1.9618330">
        <ele>1539.2</ele>
        <time>2020-07-30T12:34:27Z</time>
      </trkpt>
      <trkpt lat="42.3611800" lon="1.9620090">
        <ele>1539.6</ele>
        <time>2020-07-30T12:34:31Z</time>
      </trkpt>
      <trkpt lat="42.3611530" lon="1.9621090">
        <ele>1540.4</ele>
        <time>2020-07-30T12:34:33Z</time>
      </trkpt>
      <trkpt lat="42.3611390" lon="1.9621600">
        <ele>1540.6</ele>
        <time>2020-07-30T12:34:34Z</time>
      </trkpt>
      <trkpt lat="42.3610970" lon="1.9623090">
        <ele>1541.6</ele>
        <time>2020-07-30T12:34:37Z</time>
      </trkpt>
      <trkpt lat="42.3610430" lon="1.9625620">
        <ele>1542.2</ele>
        <time>2020-07-30T12:34:42Z</time>
      </trkpt>
      <trkpt lat="42.3610200" lon="1.9627190">
        <ele>1542.8</ele>
        <time>2020-07-30T12:34:45Z</time>
      </trkpt>
      <trkpt lat="42.3609830" lon="1.9631000">
        <ele>1543.6</ele>
        <time>2020-07-30T12:34:52Z</time>
      </trkpt>
      <trkpt lat="42.3609800" lon="1.9631530">
        <ele>1543.8</ele>
        <time>2020-07-30T12:34:53Z</time>
      </trkpt>
      <trkpt lat="42.3609740" lon="1.9634770">
        <ele>1545.0</ele>
        <time>2020-07-30T12:34:59Z</time>
      </trkpt>
      <trkpt lat="42.3609610" lon="1.9636920">
        <ele>1545.4</ele>
        <time>2020-07-30T12:35:03Z</time>
      </trkpt>
      <trkpt lat="42.3609330" lon="1.9639110">
        <ele>1546.0</ele>
        <time>2020-07-30T12:35:07Z</time>
      </trkpt>
      <trkpt lat="42.3608650" lon="1.9641680">
        <ele>1546.2</ele>
        <time>2020-07-30T12:35:12Z</time>
      </trkpt>
      <trkpt lat="42.3607840" lon="1.9643580">
        <ele>1546.8</ele>
        <time>2020-07-30T12:35:16Z</time>
      </trkpt>
      <trkpt lat="42.3607570" lon="1.9644000">
        <ele>1547.0</ele>
        <time>2020-07-30T12:35:17Z</time>
      </trkpt>
      <trkpt lat="42.3607260" lon="1.9644370">
        <ele>1547.0</ele>
        <time>2020-07-30T12:35:18Z</time>
      </trkpt>
      <trkpt lat="42.3605390" lon="1.9645470">
        <ele>1547.6</ele>
        <time>2020-07-30T12:35:23Z</time>
      </trkpt>
      <trkpt lat="42.3603860" lon="1.9646090">
        <ele>1547.8</ele>
        <time>2020-07-30T12:35:27Z</time>
      </trkpt>
      <trkpt lat="42.3602330" lon="1.9646810">
        <ele>1549.0</ele>
        <time>2020-07-30T12:35:31Z</time>
      </trkpt>
      <trkpt lat="42.3601950" lon="1.9647020">
        <ele>1549.2</ele>
        <time>2020-07-30T12:35:32Z</time>
      </trkpt>
      <trkpt lat="42.3599930" lon="1.9648850">
        <ele>1550.0</ele>
        <time>2020-07-30T12:35:38Z</time>
      </trkpt>
      <trkpt lat="42.3599650" lon="1.9649230">
        <ele>1550.4</ele>
        <time>2020-07-30T12:35:39Z</time>
      </trkpt>
      <trkpt lat="42.3598230" lon="1.9651140">
        <ele>1551.0</ele>
        <time>2020-07-30T12:35:44Z</time>
      </trkpt>
      <trkpt lat="42.3596650" lon="1.9653590">
        <ele>1551.4</ele>
        <time>2020-07-30T12:35:50Z</time>
      </trkpt>
      <trkpt lat="42.3595350" lon="1.9656340">
        <ele>1552.0</ele>
        <time>2020-07-30T12:35:56Z</time>
      </trkpt>
      <trkpt lat="42.3595190" lon="1.9656850">
        <ele>1552.2</ele>
        <time>2020-07-30T12:35:57Z</time>
      </trkpt>
      <trkpt lat="42.3595080" lon="1.9657370">
        <ele>1552.4</ele>
        <time>2020-07-30T12:35:58Z</time>
      </trkpt>
      <trkpt lat="42.3594730" lon="1.9658960">
        <ele>1552.8</ele>
        <time>2020-07-30T12:36:01Z</time>
      </trkpt>
      <trkpt lat="42.3594460" lon="1.9661630">
        <ele>1554.0</ele>
        <time>2020-07-30T12:36:06Z</time>
      </trkpt>
      <trkpt lat="42.3594240" lon="1.9663850">
        <ele>1555.0</ele>
        <time>2020-07-30T12:36:10Z</time>
      </trkpt>
      <trkpt lat="42.3594080" lon="1.9666660">
        <ele>1556.0</ele>
        <time>2020-07-30T12:36:15Z</time>
      </trkpt>
      <trkpt lat="42.3594040" lon="1.9667240">
        <ele>1556.2</ele>
        <time>2020-07-30T12:36:16Z</time>
      </trkpt>
      <trkpt lat="42.3593420" lon="1.9671170">
        <ele>1557.0</ele>
        <time>2020-07-30T12:36:23Z</time>
      </trkpt>
      <trkpt lat="42.3593250" lon="1.9671690">
        <ele>1557.2</ele>
        <time>2020-07-30T12:36:24Z</time>
      </trkpt>
      <trkpt lat="42.3591510" lon="1.9676700">
        <ele>1558.0</ele>
        <time>2020-07-30T12:36:34Z</time>
      </trkpt>
      <trkpt lat="42.3590680" lon="1.9678770">
        <ele>1558.2</ele>
        <time>2020-07-30T12:36:38Z</time>
      </trkpt>
      <trkpt lat="42.3590080" lon="1.9679600">
        <ele>1558.2</ele>
        <time>2020-07-30T12:36:40Z</time>
      </trkpt>
      <trkpt lat="42.3588560" lon="1.9680340">
        <ele>1558.6</ele>
        <time>2020-07-30T12:36:44Z</time>
      </trkpt>
      <trkpt lat="42.3588190" lon="1.9680420">
        <ele>1558.6</ele>
        <time>2020-07-30T12:36:45Z</time>
      </trkpt>
      <trkpt lat="42.3586290" lon="1.9681090">
        <ele>1558.6</ele>
        <time>2020-07-30T12:36:50Z</time>
      </trkpt>
      <trkpt lat="42.3585930" lon="1.9681380">
        <ele>1559.0</ele>
        <time>2020-07-30T12:36:51Z</time>
      </trkpt>
      <trkpt lat="42.3585620" lon="1.9681750">
        <ele>1559.4</ele>
        <time>2020-07-30T12:36:52Z</time>
      </trkpt>
      <trkpt lat="42.3585170" lon="1.9682650">
        <ele>1560.0</ele>
        <time>2020-07-30T12:36:54Z</time>
      </trkpt>
      <trkpt lat="42.3584710" lon="1.9684150">
        <ele>1561.0</ele>
        <time>2020-07-30T12:36:57Z</time>
      </trkpt>
      <trkpt lat="42.3584620" lon="1.9684670">
        <ele>1561.6</ele>
        <time>2020-07-30T12:36:58Z</time>
      </trkpt>
      <trkpt lat="42.3584230" lon="1.9687840">
        <ele>1562.6</ele>
        <time>2020-07-30T12:37:04Z</time>
      </trkpt>
      <trkpt lat="42.3584110" lon="1.9688840">
        <ele>1562.8</ele>
        <time>2020-07-30T12:37:06Z</time>
      </trkpt>
      <trkpt lat="42.3583860" lon="1.9692360">
        <ele>1563.6</ele>
        <time>2020-07-30T12:37:13Z</time>
      </trkpt>
      <trkpt lat="42.3583800" lon="1.9693900">
        <ele>1564.2</ele>
        <time>2020-07-30T12:37:16Z</time>
      </trkpt>
      <trkpt lat="42.3583750" lon="1.9694920">
        <ele>1564.6</ele>
        <time>2020-07-30T12:37:18Z</time>
      </trkpt>
      <trkpt lat="42.3583590" lon="1.9698700">
        <ele>1565.2</ele>
        <time>2020-07-30T12:37:25Z</time>
      </trkpt>
      <trkpt lat="42.3583580" lon="1.9699240">
        <ele>1565.6</ele>
        <time>2020-07-30T12:37:26Z</time>
      </trkpt>
      <trkpt lat="42.3583550" lon="1.9703010">
        <ele>1566.6</ele>
        <time>2020-07-30T12:37:33Z</time>
      </trkpt>
      <trkpt lat="42.3583310" lon="1.9706310">
        <ele>1568.0</ele>
        <time>2020-07-30T12:37:39Z</time>
      </trkpt>
      <trkpt lat="42.3583190" lon="1.9706870">
        <ele>1568.2</ele>
        <time>2020-07-30T12:37:40Z</time>
      </trkpt>
      <trkpt lat="42.3582990" lon="1.9707390">
        <ele>1568.6</ele>
        <time>2020-07-30T12:37:41Z</time>
      </trkpt>
      <trkpt lat="42.3582720" lon="1.9707840">
        <ele>1568.8</ele>
        <time>2020-07-30T12:37:42Z</time>
      </trkpt>
      <trkpt lat="42.3582370" lon="1.9708220">
        <ele>1569.0</ele>
        <time>2020-07-30T12:37:43Z</time>
      </trkpt>
      <trkpt lat="42.3581520" lon="1.9708510">
        <ele>1569.2</ele>
        <time>2020-07-30T12:37:45Z</time>
      </trkpt>
      <trkpt lat="42.3579880" lon="1.9707950">
        <ele>1569.8</ele>
        <time>2020-07-30T12:37:49Z</time>
      </trkpt>
      <trkpt lat="42.3578750" lon="1.9707250">
        <ele>1569.8</ele>
        <time>2020-07-30T12:37:52Z</time>
      </trkpt>
      <trkpt lat="42.3576900" lon="1.9706010">
        <ele>1570.8</ele>
        <time>2020-07-30T12:37:57Z</time>
      </trkpt>
      <trkpt lat="42.3576170" lon="1.9705560">
        <ele>1570.8</ele>
        <time>2020-07-30T12:37:59Z</time>
      </trkpt>
      <trkpt lat="42.3574690" lon="1.9704760">
        <ele>1571.0</ele>
        <time>2020-07-30T12:38:03Z</time>
      </trkpt>
      <trkpt lat="42.3571440" lon="1.9703220">
        <ele>1571.4</ele>
        <time>2020-07-30T12:38:12Z</time>
      </trkpt>
      <trkpt lat="42.3570340" lon="1.9703070">
        <ele>1571.6</ele>
        <time>2020-07-30T12:38:15Z</time>
      </trkpt>
      <trkpt lat="42.3568700" lon="1.9703320">
        <ele>1572.2</ele>
        <time>2020-07-30T12:38:19Z</time>
      </trkpt>
      <trkpt lat="42.3567410" lon="1.9703630">
        <ele>1573.2</ele>
        <time>2020-07-30T12:38:22Z</time>
      </trkpt>
      <trkpt lat="42.3566050" lon="1.9704070">
        <ele>1573.6</ele>
        <time>2020-07-30T12:38:25Z</time>
      </trkpt>
      <trkpt lat="42.3565160" lon="1.9704610">
        <ele>1573.6</ele>
        <time>2020-07-30T12:38:27Z</time>
      </trkpt>
      <trkpt lat="42.3563300" lon="1.9706960">
        <ele>1574.0</ele>
        <time>2020-07-30T12:38:32Z</time>
      </trkpt>
      <trkpt lat="42.3562970" lon="1.9709050">
        <ele>1574.2</ele>
        <time>2020-07-30T12:38:35Z</time>
      </trkpt>
      <trkpt lat="42.3563030" lon="1.9709780">
        <ele>1574.0</ele>
        <time>2020-07-30T12:38:36Z</time>
      </trkpt>
      <trkpt lat="42.3563920" lon="1.9712600">
        <ele>1574.2</ele>
        <time>2020-07-30T12:38:40Z</time>
      </trkpt>
      <trkpt lat="42.3566610" lon="1.9718370">
        <ele>1574.6</ele>
        <time>2020-07-30T12:38:48Z</time>
      </trkpt>
      <trkpt lat="42.3567140" lon="1.9719970">
        <ele>1574.6</ele>
        <time>2020-07-30T12:38:50Z</time>
      </trkpt>
      <trkpt lat="42.3567180" lon="1.9721750">
        <ele>1574.8</ele>
        <time>2020-07-30T12:38:52Z</time>
      </trkpt>
      <trkpt lat="42.3566090" lon="1.9723940">
        <ele>1574.6</ele>
        <time>2020-07-30T12:38:55Z</time>
      </trkpt>
      <trkpt lat="42.3564250" lon="1.9724690">
        <ele>1574.6</ele>
        <time>2020-07-30T12:38:58Z</time>
      </trkpt>
      <trkpt lat="42.3561740" lon="1.9726100">
        <ele>1574.8</ele>
        <time>2020-07-30T12:39:03Z</time>
      </trkpt>
      <trkpt lat="42.3560500" lon="1.9727340">
        <ele>1575.0</ele>
        <time>2020-07-30T12:39:06Z</time>
      </trkpt>
      <trkpt lat="42.3559840" lon="1.9728290">
        <ele>1575.4</ele>
        <time>2020-07-30T12:39:08Z</time>
      </trkpt>
      <trkpt lat="42.3559560" lon="1.9728800">
        <ele>1575.6</ele>
        <time>2020-07-30T12:39:09Z</time>
      </trkpt>
      <trkpt lat="42.3558770" lon="1.9731010">
        <ele>1576.0</ele>
        <time>2020-07-30T12:39:13Z</time>
      </trkpt>
      <trkpt lat="42.3557830" lon="1.9734530">
        <ele>1577.0</ele>
        <time>2020-07-30T12:39:19Z</time>
      </trkpt>
      <trkpt lat="42.3556940" lon="1.9738590">
        <ele>1577.8</ele>
        <time>2020-07-30T12:39:25Z</time>
      </trkpt>
      <trkpt lat="42.3556720" lon="1.9739320">
        <ele>1577.8</ele>
        <time>2020-07-30T12:39:26Z</time>
      </trkpt>
      <trkpt lat="42.3556450" lon="1.9740000">
        <ele>1577.8</ele>
        <time>2020-07-30T12:39:27Z</time>
      </trkpt>
      <trkpt lat="42.3555700" lon="1.9741110">
        <ele>1578.0</ele>
        <time>2020-07-30T12:39:29Z</time>
      </trkpt>
      <trkpt lat="42.3554850" lon="1.9741980">
        <ele>1578.2</ele>
        <time>2020-07-30T12:39:31Z</time>
      </trkpt>
      <trkpt lat="42.3552970" lon="1.9743560">
        <ele>1578.4</ele>
        <time>2020-07-30T12:39:35Z</time>
      </trkpt>
      <trkpt lat="42.3551680" lon="1.9744920">
        <ele>1578.4</ele>
        <time>2020-07-30T12:39:38Z</time>
      </trkpt>
      <trkpt lat="42.3550450" lon="1.9746460">
        <ele>1578.4</ele>
        <time>2020-07-30T12:39:41Z</time>
      </trkpt>
      <trkpt lat="42.3550060" lon="1.9746930">
        <ele>1578.6</ele>
        <time>2020-07-30T12:39:42Z</time>
      </trkpt>
      <trkpt lat="42.3548590" lon="1.9749020">
        <ele>1578.6</ele>
        <time>2020-07-30T12:39:46Z</time>
      </trkpt>
      <trkpt lat="42.3548280" lon="1.9749630">
        <ele>1578.4</ele>
        <time>2020-07-30T12:39:47Z</time>
      </trkpt>
      <trkpt lat="42.3547280" lon="1.9752090">
        <ele>1578.6</ele>
        <time>2020-07-30T12:39:51Z</time>
      </trkpt>
      <trkpt lat="42.3546660" lon="1.9754870">
        <ele>1578.6</ele>
        <time>2020-07-30T12:39:55Z</time>
      </trkpt>
      <trkpt lat="42.3546610" lon="1.9755610">
        <ele>1578.6</ele>
        <time>2020-07-30T12:39:56Z</time>
      </trkpt>
      <trkpt lat="42.3546630" lon="1.9756330">
        <ele>1578.6</ele>
        <time>2020-07-30T12:39:57Z</time>
      </trkpt>
      <trkpt lat="42.3547010" lon="1.9758380">
        <ele>1578.8</ele>
        <time>2020-07-30T12:40:00Z</time>
      </trkpt>
      <trkpt lat="42.3547350" lon="1.9759700">
        <ele>1578.8</ele>
        <time>2020-07-30T12:40:02Z</time>
      </trkpt>
      <trkpt lat="42.3548020" lon="1.9763890">
        <ele>1579.4</ele>
        <time>2020-07-30T12:40:08Z</time>
      </trkpt>
      <trkpt lat="42.3546980" lon="1.9766050">
        <ele>1579.6</ele>
        <time>2020-07-30T12:40:11Z</time>
      </trkpt>
      <trkpt lat="42.3545540" lon="1.9767650">
        <ele>1579.6</ele>
        <time>2020-07-30T12:40:14Z</time>
      </trkpt>
      <trkpt lat="42.3544530" lon="1.9768480">
        <ele>1579.6</ele>
        <time>2020-07-30T12:40:16Z</time>
      </trkpt>
      <trkpt lat="42.3541010" lon="1.9771700">
        <ele>1579.8</ele>
        <time>2020-07-30T12:40:23Z</time>
      </trkpt>
      <trkpt lat="42.3538230" lon="1.9775720">
        <ele>1580.0</ele>
        <time>2020-07-30T12:40:30Z</time>
      </trkpt>
      <trkpt lat="42.3536430" lon="1.9780580">
        <ele>1580.2</ele>
        <time>2020-07-30T12:40:37Z</time>
      </trkpt>
      <trkpt lat="42.3536260" lon="1.9781340">
        <ele>1580.4</ele>
        <time>2020-07-30T12:40:38Z</time>
      </trkpt>
      <trkpt lat="42.3536110" lon="1.9783640">
        <ele>1580.4</ele>
        <time>2020-07-30T12:40:41Z</time>
      </trkpt>
      <trkpt lat="42.3536160" lon="1.9784380">
        <ele>1580.6</ele>
        <time>2020-07-30T12:40:42Z</time>
      </trkpt>
      <trkpt lat="42.3536390" lon="1.9785840">
        <ele>1580.8</ele>
        <time>2020-07-30T12:40:44Z</time>
      </trkpt>
      <trkpt lat="42.3537210" lon="1.9788800">
        <ele>1581.2</ele>
        <time>2020-07-30T12:40:48Z</time>
      </trkpt>
      <trkpt lat="42.3537870" lon="1.9790930">
        <ele>1581.4</ele>
        <time>2020-07-30T12:40:51Z</time>
      </trkpt>
      <trkpt lat="42.3539120" lon="1.9795220">
        <ele>1581.6</ele>
        <time>2020-07-30T12:40:57Z</time>
      </trkpt>
      <trkpt lat="42.3539700" lon="1.9798280">
        <ele>1582.2</ele>
        <time>2020-07-30T12:41:01Z</time>
      </trkpt>
      <trkpt lat="42.3539990" lon="1.9801490">
        <ele>1582.8</ele>
        <time>2020-07-30T12:41:05Z</time>
      </trkpt>
      <trkpt lat="42.3539890" lon="1.9803150">
        <ele>1583.0</ele>
        <time>2020-07-30T12:41:07Z</time>
      </trkpt>
      <trkpt lat="42.3539540" lon="1.9804780">
        <ele>1583.0</ele>
        <time>2020-07-30T12:41:09Z</time>
      </trkpt>
      <trkpt lat="42.3539210" lon="1.9805530">
        <ele>1583.2</ele>
        <time>2020-07-30T12:41:10Z</time>
      </trkpt>
      <trkpt lat="42.3537520" lon="1.9806610">
        <ele>1583.2</ele>
        <time>2020-07-30T12:41:13Z</time>
      </trkpt>
      <trkpt lat="42.3535740" lon="1.9805670">
        <ele>1583.4</ele>
        <time>2020-07-30T12:41:16Z</time>
      </trkpt>
      <trkpt lat="42.3534010" lon="1.9804750">
        <ele>1583.6</ele>
        <time>2020-07-30T12:41:19Z</time>
      </trkpt>
      <trkpt lat="42.3532200" lon="1.9804300">
        <ele>1583.8</ele>
        <time>2020-07-30T12:41:22Z</time>
      </trkpt>
      <trkpt lat="42.3530020" lon="1.9805220">
        <ele>1583.6</ele>
        <time>2020-07-30T12:41:26Z</time>
      </trkpt>
      <trkpt lat="42.3528960" lon="1.9807910">
        <ele>1583.6</ele>
        <time>2020-07-30T12:41:30Z</time>
      </trkpt>
      <trkpt lat="42.3528800" lon="1.9808640">
        <ele>1583.6</ele>
        <time>2020-07-30T12:41:31Z</time>
      </trkpt>
      <trkpt lat="42.3527670" lon="1.9812940">
        <ele>1583.6</ele>
        <time>2020-07-30T12:41:37Z</time>
      </trkpt>
      <trkpt lat="42.3525760" lon="1.9816640">
        <ele>1583.8</ele>
        <time>2020-07-30T12:41:43Z</time>
      </trkpt>
      <trkpt lat="42.3523070" lon="1.9820390">
        <ele>1584.4</ele>
        <time>2020-07-30T12:41:50Z</time>
      </trkpt>
      <trkpt lat="42.3521800" lon="1.9821890">
        <ele>1584.8</ele>
        <time>2020-07-30T12:41:53Z</time>
      </trkpt>
      <trkpt lat="42.3520300" lon="1.9823940">
        <ele>1585.4</ele>
        <time>2020-07-30T12:41:57Z</time>
      </trkpt>
      <trkpt lat="42.3519570" lon="1.9824860">
        <ele>1585.4</ele>
        <time>2020-07-30T12:41:59Z</time>
      </trkpt>
      <trkpt lat="42.3518540" lon="1.9826370">
        <ele>1585.4</ele>
        <time>2020-07-30T12:42:02Z</time>
      </trkpt>
      <trkpt lat="42.3517160" lon="1.9829750">
        <ele>1585.8</ele>
        <time>2020-07-30T12:42:08Z</time>
      </trkpt>
      <trkpt lat="42.3516560" lon="1.9831490">
        <ele>1587.0</ele>
        <time>2020-07-30T12:42:11Z</time>
      </trkpt>
      <trkpt lat="42.3516380" lon="1.9832680">
        <ele>1587.2</ele>
        <time>2020-07-30T12:42:13Z</time>
      </trkpt>
      <trkpt lat="42.3516310" lon="1.9833330">
        <ele>1587.4</ele>
        <time>2020-07-30T12:42:14Z</time>
      </trkpt>
      <trkpt lat="42.3516310" lon="1.9835210">
        <ele>1587.6</ele>
        <time>2020-07-30T12:42:17Z</time>
      </trkpt>
      <trkpt lat="42.3516450" lon="1.9837190">
        <ele>1587.8</ele>
        <time>2020-07-30T12:42:20Z</time>
      </trkpt>
      <trkpt lat="42.3516470" lon="1.9838590">
        <ele>1588.4</ele>
        <time>2020-07-30T12:42:22Z</time>
      </trkpt>
      <trkpt lat="42.3516250" lon="1.9840120">
        <ele>1588.8</ele>
        <time>2020-07-30T12:42:24Z</time>
      </trkpt>
      <trkpt lat="42.3516060" lon="1.9840840">
        <ele>1589.0</ele>
        <time>2020-07-30T12:42:25Z</time>
      </trkpt>
      <trkpt lat="42.3515240" lon="1.9842590">
        <ele>1589.4</ele>
        <time>2020-07-30T12:42:28Z</time>
      </trkpt>
      <trkpt lat="42.3514720" lon="1.9843590">
        <ele>1589.6</ele>
        <time>2020-07-30T12:42:30Z</time>
      </trkpt>
      <trkpt lat="42.3514500" lon="1.9844100">
        <ele>1590.0</ele>
        <time>2020-07-30T12:42:31Z</time>
      </trkpt>
      <trkpt lat="42.3513770" lon="1.9846290">
        <ele>1590.4</ele>
        <time>2020-07-30T12:42:35Z</time>
      </trkpt>
      <trkpt lat="42.3513570" lon="1.9847480">
        <ele>1590.6</ele>
        <time>2020-07-30T12:42:37Z</time>
      </trkpt>
      <trkpt lat="42.3513420" lon="1.9848710">
        <ele>1591.0</ele>
        <time>2020-07-30T12:42:39Z</time>
      </trkpt>
      <trkpt lat="42.3513290" lon="1.9851630">
        <ele>1592.0</ele>
        <time>2020-07-30T12:42:44Z</time>
      </trkpt>
      <trkpt lat="42.3513630" lon="1.9856170">
        <ele>1593.0</ele>
        <time>2020-07-30T12:42:52Z</time>
      </trkpt>
      <trkpt lat="42.3513710" lon="1.9856730">
        <ele>1593.2</ele>
        <time>2020-07-30T12:42:53Z</time>
      </trkpt>
      <trkpt lat="42.3514360" lon="1.9860010">
        <ele>1594.4</ele>
        <time>2020-07-30T12:42:59Z</time>
      </trkpt>
      <trkpt lat="42.3514500" lon="1.9861140">
        <ele>1594.8</ele>
        <time>2020-07-30T12:43:01Z</time>
      </trkpt>
      <trkpt lat="42.3514690" lon="1.9862230">
        <ele>1595.4</ele>
        <time>2020-07-30T12:43:03Z</time>
      </trkpt>
      <trkpt lat="42.3515100" lon="1.9865000">
        <ele>1596.2</ele>
        <time>2020-07-30T12:43:08Z</time>
      </trkpt>
      <trkpt lat="42.3515530" lon="1.9867130">
        <ele>1597.0</ele>
        <time>2020-07-30T12:43:12Z</time>
      </trkpt>
      <trkpt lat="42.3515850" lon="1.9868130">
        <ele>1597.4</ele>
        <time>2020-07-30T12:43:14Z</time>
      </trkpt>
      <trkpt lat="42.3516960" lon="1.9870400">
        <ele>1597.8</ele>
        <time>2020-07-30T12:43:19Z</time>
      </trkpt>
      <trkpt lat="42.3517530" lon="1.9871190">
        <ele>1598.4</ele>
        <time>2020-07-30T12:43:21Z</time>
      </trkpt>
      <trkpt lat="42.3519230" lon="1.9872910">
        <ele>1599.2</ele>
        <time>2020-07-30T12:43:26Z</time>
      </trkpt>
      <trkpt lat="42.3519560" lon="1.9873240">
        <ele>1599.4</ele>
        <time>2020-07-30T12:43:27Z</time>
      </trkpt>
      <trkpt lat="42.3520190" lon="1.9873950">
        <ele>1599.8</ele>
        <time>2020-07-30T12:43:29Z</time>
      </trkpt>
      <trkpt lat="42.3521200" lon="1.9875740">
        <ele>1600.4</ele>
        <time>2020-07-30T12:43:33Z</time>
      </trkpt>
      <trkpt lat="42.3521420" lon="1.9876210">
        <ele>1600.6</ele>
        <time>2020-07-30T12:43:34Z</time>
      </trkpt>
      <trkpt lat="42.3523170" lon="1.9880670">
        <ele>1600.8</ele>
        <time>2020-07-30T12:43:43Z</time>
      </trkpt>
      <trkpt lat="42.3523260" lon="1.9881250">
        <ele>1601.0</ele>
        <time>2020-07-30T12:43:44Z</time>
      </trkpt>
      <trkpt lat="42.3523300" lon="1.9882930">
        <ele>1601.4</ele>
        <time>2020-07-30T12:43:47Z</time>
      </trkpt>
      <trkpt lat="42.3523240" lon="1.9883500">
        <ele>1601.4</ele>
        <time>2020-07-30T12:43:48Z</time>
      </trkpt>
      <trkpt lat="42.3522310" lon="1.9885780">
        <ele>1601.6</ele>
        <time>2020-07-30T12:43:53Z</time>
      </trkpt>
      <trkpt lat="42.3521100" lon="1.9886080">
        <ele>1601.8</ele>
        <time>2020-07-30T12:43:56Z</time>
      </trkpt>
      <trkpt lat="42.3520010" lon="1.9885240">
        <ele>1602.0</ele>
        <time>2020-07-30T12:43:59Z</time>
      </trkpt>
      <trkpt lat="42.3519720" lon="1.9884860">
        <ele>1602.2</ele>
        <time>2020-07-30T12:44:00Z</time>
      </trkpt>
      <trkpt lat="42.3518820" lon="1.9883860">
        <ele>1603.2</ele>
        <time>2020-07-30T12:44:03Z</time>
      </trkpt>
      <trkpt lat="42.3518080" lon="1.9883470">
        <ele>1603.4</ele>
        <time>2020-07-30T12:44:05Z</time>
      </trkpt>
      <trkpt lat="42.3516230" lon="1.9883570">
        <ele>1603.6</ele>
        <time>2020-07-30T12:44:10Z</time>
      </trkpt>
      <trkpt lat="42.3515300" lon="1.9884480">
        <ele>1604.0</ele>
        <time>2020-07-30T12:44:13Z</time>
      </trkpt>
      <trkpt lat="42.3514510" lon="1.9885660">
        <ele>1604.2</ele>
        <time>2020-07-30T12:44:16Z</time>
      </trkpt>
      <trkpt lat="42.3513590" lon="1.9887610">
        <ele>1605.2</ele>
        <time>2020-07-30T12:44:20Z</time>
      </trkpt>
      <trkpt lat="42.3513350" lon="1.9888170">
        <ele>1605.6</ele>
        <time>2020-07-30T12:44:21Z</time>
      </trkpt>
      <trkpt lat="42.3512910" lon="1.9889320">
        <ele>1606.2</ele>
        <time>2020-07-30T12:44:23Z</time>
      </trkpt>
      <trkpt lat="42.3512340" lon="1.9891090">
        <ele>1607.4</ele>
        <time>2020-07-30T12:44:26Z</time>
      </trkpt>
      <trkpt lat="42.3512010" lon="1.9892220">
        <ele>1608.0</ele>
        <time>2020-07-30T12:44:28Z</time>
      </trkpt>
      <trkpt lat="42.3511450" lon="1.9893820">
        <ele>1608.4</ele>
        <time>2020-07-30T12:44:31Z</time>
      </trkpt>
      <trkpt lat="42.3510860" lon="1.9895970">
        <ele>1609.6</ele>
        <time>2020-07-30T12:44:35Z</time>
      </trkpt>
      <trkpt lat="42.3510710" lon="1.9896490">
        <ele>1609.8</ele>
        <time>2020-07-30T12:44:36Z</time>
      </trkpt>
      <trkpt lat="42.3509390" lon="1.9901060">
        <ele>1610.6</ele>
        <time>2020-07-30T12:44:45Z</time>
      </trkpt>
      <trkpt lat="42.3508070" lon="1.9904490">
        <ele>1611.4</ele>
        <time>2020-07-30T12:44:52Z</time>
      </trkpt>
      <trkpt lat="42.3507910" lon="1.9905010">
        <ele>1611.4</ele>
        <time>2020-07-30T12:44:53Z</time>
      </trkpt>
      <trkpt lat="42.3506810" lon="1.9908040">
        <ele>1612.2</ele>
        <time>2020-07-30T12:44:59Z</time>
      </trkpt>
      <trkpt lat="42.3506460" lon="1.9909040">
        <ele>1612.6</ele>
        <time>2020-07-30T12:45:01Z</time>
      </trkpt>
      <trkpt lat="42.3505440" lon="1.9912170">
        <ele>1613.2</ele>
        <time>2020-07-30T12:45:07Z</time>
      </trkpt>
      <trkpt lat="42.3504730" lon="1.9914230">
        <ele>1613.4</ele>
        <time>2020-07-30T12:45:11Z</time>
      </trkpt>
      <trkpt lat="42.3503830" lon="1.9917410">
        <ele>1614.2</ele>
        <time>2020-07-30T12:45:17Z</time>
      </trkpt>
      <trkpt lat="42.3503720" lon="1.9917960">
        <ele>1614.2</ele>
        <time>2020-07-30T12:45:18Z</time>
      </trkpt>
      <trkpt lat="42.3503650" lon="1.9918470">
        <ele>1614.6</ele>
        <time>2020-07-30T12:45:19Z</time>
      </trkpt>
      <trkpt lat="42.3503340" lon="1.9921310">
        <ele>1615.6</ele>
        <time>2020-07-30T12:45:24Z</time>
      </trkpt>
      <trkpt lat="42.3502890" lon="1.9925310">
        <ele>1616.2</ele>
        <time>2020-07-30T12:45:31Z</time>
      </trkpt>
      <trkpt lat="42.3502820" lon="1.9925810">
        <ele>1616.2</ele>
        <time>2020-07-30T12:45:32Z</time>
      </trkpt>
      <trkpt lat="42.3502500" lon="1.9928420">
        <ele>1616.4</ele>
        <time>2020-07-30T12:45:37Z</time>
      </trkpt>
      <trkpt lat="42.3502500" lon="1.9929560">
        <ele>1616.6</ele>
        <time>2020-07-30T12:45:39Z</time>
      </trkpt>
      <trkpt lat="42.3502720" lon="1.9932020">
        <ele>1617.0</ele>
        <time>2020-07-30T12:45:43Z</time>
      </trkpt>
      <trkpt lat="42.3503040" lon="1.9933890">
        <ele>1617.6</ele>
        <time>2020-07-30T12:45:46Z</time>
      </trkpt>
      <trkpt lat="42.3503630" lon="1.9936300">
        <ele>1618.8</ele>
        <time>2020-07-30T12:45:50Z</time>
      </trkpt>
      <trkpt lat="42.3503800" lon="1.9936860">
        <ele>1619.2</ele>
        <time>2020-07-30T12:45:51Z</time>
      </trkpt>
      <trkpt lat="42.3504140" lon="1.9937950">
        <ele>1619.8</ele>
        <time>2020-07-30T12:45:53Z</time>
      </trkpt>
      <trkpt lat="42.3504830" lon="1.9940430">
        <ele>1620.6</ele>
        <time>2020-07-30T12:45:57Z</time>
      </trkpt>
      <trkpt lat="42.3504930" lon="1.9941120">
        <ele>1620.8</ele>
        <time>2020-07-30T12:45:58Z</time>
      </trkpt>
      <trkpt lat="42.3504940" lon="1.9941890">
        <ele>1621.0</ele>
        <time>2020-07-30T12:45:59Z</time>
      </trkpt>
      <trkpt lat="42.3504490" lon="1.9943380">
        <ele>1621.0</ele>
        <time>2020-07-30T12:46:01Z</time>
      </trkpt>
      <trkpt lat="42.3502910" lon="1.9944040">
        <ele>1621.2</ele>
        <time>2020-07-30T12:46:04Z</time>
      </trkpt>
      <trkpt lat="42.3501600" lon="1.9942920">
        <ele>1621.2</ele>
        <time>2020-07-30T12:46:07Z</time>
      </trkpt>
      <trkpt lat="42.3500770" lon="1.9941490">
        <ele>1621.2</ele>
        <time>2020-07-30T12:46:10Z</time>
      </trkpt>
      <trkpt lat="42.3500020" lon="1.9940010">
        <ele>1621.6</ele>
        <time>2020-07-30T12:46:13Z</time>
      </trkpt>
      <trkpt lat="42.3499770" lon="1.9939550">
        <ele>1621.8</ele>
        <time>2020-07-30T12:46:14Z</time>
      </trkpt>
      <trkpt lat="42.3498280" lon="1.9937500">
        <ele>1622.6</ele>
        <time>2020-07-30T12:46:19Z</time>
      </trkpt>
      <trkpt lat="42.3497940" lon="1.9937180">
        <ele>1622.8</ele>
        <time>2020-07-30T12:46:20Z</time>
      </trkpt>
      <trkpt lat="42.3495720" lon="1.9935500">
        <ele>1623.8</ele>
        <time>2020-07-30T12:46:26Z</time>
      </trkpt>
      <trkpt lat="42.3495390" lon="1.9935120">
        <ele>1623.8</ele>
        <time>2020-07-30T12:46:27Z</time>
      </trkpt>
      <trkpt lat="42.3494880" lon="1.9933750">
        <ele>1624.8</ele>
        <time>2020-07-30T12:46:30Z</time>
      </trkpt>
      <trkpt lat="42.3494800" lon="1.9932720">
        <ele>1625.2</ele>
        <time>2020-07-30T12:46:32Z</time>
      </trkpt>
      <trkpt lat="42.3494540" lon="1.9930520">
        <ele>1625.6</ele>
        <time>2020-07-30T12:46:36Z</time>
      </trkpt>
      <trkpt lat="42.3494460" lon="1.9929960">
        <ele>1625.8</ele>
        <time>2020-07-30T12:46:37Z</time>
      </trkpt>
      <trkpt lat="42.3494270" lon="1.9928880">
        <ele>1626.4</ele>
        <time>2020-07-30T12:46:39Z</time>
      </trkpt>
      <trkpt lat="42.3493890" lon="1.9927320">
        <ele>1626.8</ele>
        <time>2020-07-30T12:46:42Z</time>
      </trkpt>
      <trkpt lat="42.3493060" lon="1.9923830">
        <ele>1627.2</ele>
        <time>2020-07-30T12:46:49Z</time>
      </trkpt>
      <trkpt lat="42.3492840" lon="1.9922780">
        <ele>1627.8</ele>
        <time>2020-07-30T12:46:51Z</time>
      </trkpt>
      <trkpt lat="42.3492450" lon="1.9920060">
        <ele>1628.8</ele>
        <time>2020-07-30T12:46:56Z</time>
      </trkpt>
      <trkpt lat="42.3492400" lon="1.9919460">
        <ele>1629.0</ele>
        <time>2020-07-30T12:46:57Z</time>
      </trkpt>
      <trkpt lat="42.3492370" lon="1.9915190">
        <ele>1629.6</ele>
        <time>2020-07-30T12:47:05Z</time>
      </trkpt>
      <trkpt lat="42.3492360" lon="1.9914550">
        <ele>1629.8</ele>
        <time>2020-07-30T12:47:06Z</time>
      </trkpt>
      <trkpt lat="42.3492370" lon="1.9913930">
        <ele>1630.0</ele>
        <time>2020-07-30T12:47:07Z</time>
      </trkpt>
      <trkpt lat="42.3492550" lon="1.9912010">
        <ele>1630.6</ele>
        <time>2020-07-30T12:47:10Z</time>
      </trkpt>
      <trkpt lat="42.3492570" lon="1.9911330">
        <ele>1631.0</ele>
        <time>2020-07-30T12:47:11Z</time>
      </trkpt>
      <trkpt lat="42.3492870" lon="1.9907350">
        <ele>1631.6</ele>
        <time>2020-07-30T12:47:17Z</time>
      </trkpt>
      <trkpt lat="42.3492930" lon="1.9906700">
        <ele>1631.8</ele>
        <time>2020-07-30T12:47:18Z</time>
      </trkpt>
      <trkpt lat="42.3493360" lon="1.9902970">
        <ele>1633.2</ele>
        <time>2020-07-30T12:47:24Z</time>
      </trkpt>
      <trkpt lat="42.3493420" lon="1.9902320">
        <ele>1633.4</ele>
        <time>2020-07-30T12:47:25Z</time>
      </trkpt>
      <trkpt lat="42.3493460" lon="1.9901620">
        <ele>1633.6</ele>
        <time>2020-07-30T12:47:26Z</time>
      </trkpt>
      <trkpt lat="42.3493750" lon="1.9898770">
        <ele>1634.4</ele>
        <time>2020-07-30T12:47:31Z</time>
      </trkpt>
      <trkpt lat="42.3493930" lon="1.9897660">
        <ele>1634.6</ele>
        <time>2020-07-30T12:47:33Z</time>
      </trkpt>
      <trkpt lat="42.3494410" lon="1.9895560">
        <ele>1635.2</ele>
        <time>2020-07-30T12:47:37Z</time>
      </trkpt>
      <trkpt lat="42.3494880" lon="1.9893510">
        <ele>1636.2</ele>
        <time>2020-07-30T12:47:41Z</time>
      </trkpt>
      <trkpt lat="42.3494990" lon="1.9892940">
        <ele>1636.2</ele>
        <time>2020-07-30T12:47:42Z</time>
      </trkpt>
      <trkpt lat="42.3495390" lon="1.9889630">
        <ele>1637.0</ele>
        <time>2020-07-30T12:47:48Z</time>
      </trkpt>
      <trkpt lat="42.3495570" lon="1.9888580">
        <ele>1637.4</ele>
        <time>2020-07-30T12:47:50Z</time>
      </trkpt>
      <trkpt lat="42.3495940" lon="1.9885350">
        <ele>1638.2</ele>
        <time>2020-07-30T12:47:56Z</time>
      </trkpt>
      <trkpt lat="42.3495750" lon="1.9883570">
        <ele>1638.6</ele>
        <time>2020-07-30T12:47:59Z</time>
      </trkpt>
      <trkpt lat="42.3495280" lon="1.9882350">
        <ele>1639.0</ele>
        <time>2020-07-30T12:48:01Z</time>
      </trkpt>
      <trkpt lat="42.3494400" lon="1.9880640">
        <ele>1639.4</ele>
        <time>2020-07-30T12:48:04Z</time>
      </trkpt>
      <trkpt lat="42.3494110" lon="1.9880010">
        <ele>1639.4</ele>
        <time>2020-07-30T12:48:05Z</time>
      </trkpt>
      <trkpt lat="42.3493690" lon="1.9878550">
        <ele>1639.8</ele>
        <time>2020-07-30T12:48:07Z</time>
      </trkpt>
      <trkpt lat="42.3493360" lon="1.9876670">
        <ele>1640.0</ele>
        <time>2020-07-30T12:48:10Z</time>
      </trkpt>
      <trkpt lat="42.3493340" lon="1.9875470">
        <ele>1640.2</ele>
        <time>2020-07-30T12:48:12Z</time>
      </trkpt>
      <trkpt lat="42.3493300" lon="1.9874800">
        <ele>1640.4</ele>
        <time>2020-07-30T12:48:13Z</time>
      </trkpt>
      <trkpt lat="42.3493220" lon="1.9871800">
        <ele>1641.2</ele>
        <time>2020-07-30T12:48:18Z</time>
      </trkpt>
      <trkpt lat="42.3493150" lon="1.9871190">
        <ele>1641.4</ele>
        <time>2020-07-30T12:48:19Z</time>
      </trkpt>
      <trkpt lat="42.3492960" lon="1.9868300">
        <ele>1642.4</ele>
        <time>2020-07-30T12:48:24Z</time>
      </trkpt>
      <trkpt lat="42.3492490" lon="1.9864900">
        <ele>1643.4</ele>
        <time>2020-07-30T12:48:30Z</time>
      </trkpt>
      <trkpt lat="42.3492260" lon="1.9863850">
        <ele>1644.0</ele>
        <time>2020-07-30T12:48:32Z</time>
      </trkpt>
      <trkpt lat="42.3491910" lon="1.9862170">
        <ele>1644.4</ele>
        <time>2020-07-30T12:48:35Z</time>
      </trkpt>
      <trkpt lat="42.3491240" lon="1.9859920">
        <ele>1645.2</ele>
        <time>2020-07-30T12:48:39Z</time>
      </trkpt>
      <trkpt lat="42.3491060" lon="1.9859360">
        <ele>1645.4</ele>
        <time>2020-07-30T12:48:40Z</time>
      </trkpt>
      <trkpt lat="42.3489680" lon="1.9855660">
        <ele>1646.0</ele>
        <time>2020-07-30T12:48:47Z</time>
      </trkpt>
      <trkpt lat="42.3489330" lon="1.9854690">
        <ele>1646.4</ele>
        <time>2020-07-30T12:48:49Z</time>
      </trkpt>
      <trkpt lat="42.3488170" lon="1.9851590">
        <ele>1647.2</ele>
        <time>2020-07-30T12:48:55Z</time>
      </trkpt>
      <trkpt lat="42.3487980" lon="1.9851130">
        <ele>1647.4</ele>
        <time>2020-07-30T12:48:56Z</time>
      </trkpt>
      <trkpt lat="42.3486410" lon="1.9847580">
        <ele>1648.4</ele>
        <time>2020-07-30T12:49:04Z</time>
      </trkpt>
      <trkpt lat="42.3484820" lon="1.9845800">
        <ele>1648.8</ele>
        <time>2020-07-30T12:49:09Z</time>
      </trkpt>
      <trkpt lat="42.3484430" lon="1.9845460">
        <ele>1649.0</ele>
        <time>2020-07-30T12:49:10Z</time>
      </trkpt>
      <trkpt lat="42.3483680" lon="1.9844860">
        <ele>1649.4</ele>
        <time>2020-07-30T12:49:12Z</time>
      </trkpt>
      <trkpt lat="42.3481800" lon="1.9843600">
        <ele>1650.4</ele>
        <time>2020-07-30T12:49:17Z</time>
      </trkpt>
      <trkpt lat="42.3481390" lon="1.9843390">
        <ele>1650.4</ele>
        <time>2020-07-30T12:49:18Z</time>
      </trkpt>
      <trkpt lat="42.3479740" lon="1.9842590">
        <ele>1651.0</ele>
        <time>2020-07-30T12:49:22Z</time>
      </trkpt>
      <trkpt lat="42.3479320" lon="1.9842490">
        <ele>1651.2</ele>
        <time>2020-07-30T12:49:23Z</time>
      </trkpt>
      <trkpt lat="42.3477670" lon="1.9842330">
        <ele>1651.4</ele>
        <time>2020-07-30T12:49:27Z</time>
      </trkpt>
      <trkpt lat="42.3476890" lon="1.9842480">
        <ele>1651.6</ele>
        <time>2020-07-30T12:49:29Z</time>
      </trkpt>
      <trkpt lat="42.3475640" lon="1.9842750">
        <ele>1651.8</ele>
        <time>2020-07-30T12:49:32Z</time>
      </trkpt>
      <trkpt lat="42.3474380" lon="1.9842940">
        <ele>1652.2</ele>
        <time>2020-07-30T12:49:35Z</time>
      </trkpt>
      <trkpt lat="42.3473090" lon="1.9843050">
        <ele>1652.4</ele>
        <time>2020-07-30T12:49:38Z</time>
      </trkpt>
      <trkpt lat="42.3472170" lon="1.9842770">
        <ele>1652.6</ele>
        <time>2020-07-30T12:49:40Z</time>
      </trkpt>
      <trkpt lat="42.3471080" lon="1.9841500">
        <ele>1652.8</ele>
        <time>2020-07-30T12:49:43Z</time>
      </trkpt>
      <trkpt lat="42.3470700" lon="1.9840360">
        <ele>1653.6</ele>
        <time>2020-07-30T12:49:45Z</time>
      </trkpt>
      <trkpt lat="42.3470780" lon="1.9839300">
        <ele>1654.4</ele>
        <time>2020-07-30T12:49:47Z</time>
      </trkpt>
      <trkpt lat="42.3470930" lon="1.9838300">
        <ele>1654.6</ele>
        <time>2020-07-30T12:49:49Z</time>
      </trkpt>
      <trkpt lat="42.3471580" lon="1.9836510">
        <ele>1655.2</ele>
        <time>2020-07-30T12:49:53Z</time>
      </trkpt>
      <trkpt lat="42.3472140" lon="1.9835250">
        <ele>1655.8</ele>
        <time>2020-07-30T12:49:56Z</time>
      </trkpt>
      <trkpt lat="42.3473190" lon="1.9833420">
        <ele>1656.6</ele>
        <time>2020-07-30T12:50:01Z</time>
      </trkpt>
      <trkpt lat="42.3473420" lon="1.9833070">
        <ele>1656.8</ele>
        <time>2020-07-30T12:50:02Z</time>
      </trkpt>
      <trkpt lat="42.3474150" lon="1.9831300">
        <ele>1657.4</ele>
        <time>2020-07-30T12:50:06Z</time>
      </trkpt>
      <trkpt lat="42.3474370" lon="1.9830890">
        <ele>1657.8</ele>
        <time>2020-07-30T12:50:07Z</time>
      </trkpt>
      <trkpt lat="42.3475920" lon="1.9828160">
        <ele>1658.6</ele>
        <time>2020-07-30T12:50:13Z</time>
      </trkpt>
      <trkpt lat="42.3476170" lon="1.9827740">
        <ele>1658.8</ele>
        <time>2020-07-30T12:50:14Z</time>
      </trkpt>
      <trkpt lat="42.3477610" lon="1.9825040">
        <ele>1659.2</ele>
        <time>2020-07-30T12:50:20Z</time>
      </trkpt>
      <trkpt lat="42.3477780" lon="1.9823330">
        <ele>1660.0</ele>
        <time>2020-07-30T12:50:23Z</time>
      </trkpt>
      <trkpt lat="42.3477680" lon="1.9822770">
        <ele>1660.4</ele>
        <time>2020-07-30T12:50:24Z</time>
      </trkpt>
      <trkpt lat="42.3477020" lon="1.9820470">
        <ele>1661.0</ele>
        <time>2020-07-30T12:50:28Z</time>
      </trkpt>
      <trkpt lat="42.3476480" lon="1.9818310">
        <ele>1661.4</ele>
        <time>2020-07-30T12:50:32Z</time>
      </trkpt>
      <trkpt lat="42.3476030" lon="1.9815210">
        <ele>1662.0</ele>
        <time>2020-07-30T12:50:38Z</time>
      </trkpt>
      <trkpt lat="42.3476010" lon="1.9814720">
        <ele>1662.2</ele>
        <time>2020-07-30T12:50:39Z</time>
      </trkpt>
      <trkpt lat="42.3476120" lon="1.9811330">
        <ele>1663.0</ele>
        <time>2020-07-30T12:50:46Z</time>
      </trkpt>
      <trkpt lat="42.3476100" lon="1.9810800">
        <ele>1663.2</ele>
        <time>2020-07-30T12:50:47Z</time>
      </trkpt>
      <trkpt lat="42.3476120" lon="1.9808230">
        <ele>1664.0</ele>
        <time>2020-07-30T12:50:52Z</time>
      </trkpt>
      <trkpt lat="42.3476090" lon="1.9807180">
        <ele>1664.2</ele>
        <time>2020-07-30T12:50:54Z</time>
      </trkpt>
      <trkpt lat="42.3476150" lon="1.9804070">
        <ele>1664.8</ele>
        <time>2020-07-30T12:51:00Z</time>
      </trkpt>
      <trkpt lat="42.3476160" lon="1.9803540">
        <ele>1665.0</ele>
        <time>2020-07-30T12:51:01Z</time>
      </trkpt>
      <trkpt lat="42.3476450" lon="1.9801340">
        <ele>1665.4</ele>
        <time>2020-07-30T12:51:05Z</time>
      </trkpt>
      <trkpt lat="42.3476600" lon="1.9800190">
        <ele>1666.0</ele>
        <time>2020-07-30T12:51:07Z</time>
      </trkpt>
      <trkpt lat="42.3476980" lon="1.9797200">
        <ele>1667.2</ele>
        <time>2020-07-30T12:51:12Z</time>
      </trkpt>
      <trkpt lat="42.3477030" lon="1.9796530">
        <ele>1667.4</ele>
        <time>2020-07-30T12:51:13Z</time>
      </trkpt>
      <trkpt lat="42.3477160" lon="1.9793440">
        <ele>1668.4</ele>
        <time>2020-07-30T12:51:18Z</time>
      </trkpt>
      <trkpt lat="42.3476990" lon="1.9791670">
        <ele>1668.6</ele>
        <time>2020-07-30T12:51:21Z</time>
      </trkpt>
      <trkpt lat="42.3476250" lon="1.9787680">
        <ele>1669.0</ele>
        <time>2020-07-30T12:51:28Z</time>
      </trkpt>
      <trkpt lat="42.3474770" lon="1.9785250">
        <ele>1669.2</ele>
        <time>2020-07-30T12:51:33Z</time>
      </trkpt>
      <trkpt lat="42.3473970" lon="1.9784510">
        <ele>1669.2</ele>
        <time>2020-07-30T12:51:35Z</time>
      </trkpt>
      <trkpt lat="42.3471920" lon="1.9782990">
        <ele>1670.2</ele>
        <time>2020-07-30T12:51:40Z</time>
      </trkpt>
      <trkpt lat="42.3471510" lon="1.9782770">
        <ele>1670.2</ele>
        <time>2020-07-30T12:51:41Z</time>
      </trkpt>
      <trkpt lat="42.3469870" lon="1.9782150">
        <ele>1670.6</ele>
        <time>2020-07-30T12:51:45Z</time>
      </trkpt>
      <trkpt lat="42.3468990" lon="1.9782040">
        <ele>1670.8</ele>
        <time>2020-07-30T12:51:47Z</time>
      </trkpt>
      <trkpt lat="42.3467200" lon="1.9781780">
        <ele>1671.4</ele>
        <time>2020-07-30T12:51:51Z</time>
      </trkpt>
      <trkpt lat="42.3465350" lon="1.9781740">
        <ele>1672.4</ele>
        <time>2020-07-30T12:51:55Z</time>
      </trkpt>
      <trkpt lat="42.3464900" lon="1.9781780">
        <ele>1672.4</ele>
        <time>2020-07-30T12:51:56Z</time>
      </trkpt>
      <trkpt lat="42.3462690" lon="1.9782100">
        <ele>1672.8</ele>
        <time>2020-07-30T12:52:01Z</time>
      </trkpt>
      <trkpt lat="42.3461440" lon="1.9782250">
        <ele>1673.0</ele>
        <time>2020-07-30T12:52:04Z</time>
      </trkpt>
      <trkpt lat="42.3458580" lon="1.9782660">
        <ele>1673.4</ele>
        <time>2020-07-30T12:52:11Z</time>
      </trkpt>
      <trkpt lat="42.3457780" lon="1.9782790">
        <ele>1673.4</ele>
        <time>2020-07-30T12:52:13Z</time>
      </trkpt>
      <trkpt lat="42.3454700" lon="1.9783080">
        <ele>1673.6</ele>
        <time>2020-07-30T12:52:20Z</time>
      </trkpt>
      <trkpt lat="42.3452480" lon="1.9783330">
        <ele>1674.2</ele>
        <time>2020-07-30T12:52:25Z</time>
      </trkpt>
      <trkpt lat="42.3450630" lon="1.9783640">
        <ele>1674.8</ele>
        <time>2020-07-30T12:52:29Z</time>
      </trkpt>
      <trkpt lat="42.3449280" lon="1.9784110">
        <ele>1675.4</ele>
        <time>2020-07-30T12:52:32Z</time>
      </trkpt>
      <trkpt lat="42.3447500" lon="1.9784920">
        <ele>1676.4</ele>
        <time>2020-07-30T12:52:36Z</time>
      </trkpt>
      <trkpt lat="42.3447080" lon="1.9785170">
        <ele>1677.0</ele>
        <time>2020-07-30T12:52:37Z</time>
      </trkpt>
      <trkpt lat="42.3446670" lon="1.9785440">
        <ele>1677.0</ele>
        <time>2020-07-30T12:52:38Z</time>
      </trkpt>
      <trkpt lat="42.3445430" lon="1.9786270">
        <ele>1677.4</ele>
        <time>2020-07-30T12:52:41Z</time>
      </trkpt>
      <trkpt lat="42.3442980" lon="1.9787980">
        <ele>1677.8</ele>
        <time>2020-07-30T12:52:47Z</time>
      </trkpt>
      <trkpt lat="42.3441470" lon="1.9789240">
        <ele>1678.0</ele>
        <time>2020-07-30T12:52:51Z</time>
      </trkpt>
      <trkpt lat="42.3440290" lon="1.9790390">
        <ele>1678.4</ele>
        <time>2020-07-30T12:52:54Z</time>
      </trkpt>
      <trkpt lat="42.3439940" lon="1.9790780">
        <ele>1678.6</ele>
        <time>2020-07-30T12:52:55Z</time>
      </trkpt>
      <trkpt lat="42.3438370" lon="1.9792160">
        <ele>1679.2</ele>
        <time>2020-07-30T12:52:59Z</time>
      </trkpt>
      <trkpt lat="42.3437610" lon="1.9792830">
        <ele>1679.4</ele>
        <time>2020-07-30T12:53:01Z</time>
      </trkpt>
      <trkpt lat="42.3435710" lon="1.9794640">
        <ele>1679.8</ele>
        <time>2020-07-30T12:53:06Z</time>
      </trkpt>
      <trkpt lat="42.3434620" lon="1.9795790">
        <ele>1680.4</ele>
        <time>2020-07-30T12:53:09Z</time>
      </trkpt>
      <trkpt lat="42.3432910" lon="1.9797710">
        <ele>1681.0</ele>
        <time>2020-07-30T12:53:14Z</time>
      </trkpt>
      <trkpt lat="42.3430690" lon="1.9800520">
        <ele>1681.2</ele>
        <time>2020-07-30T12:53:21Z</time>
      </trkpt>
      <trkpt lat="42.3430400" lon="1.9800940">
        <ele>1681.2</ele>
        <time>2020-07-30T12:53:22Z</time>
      </trkpt>
      <trkpt lat="42.3429910" lon="1.9801870">
        <ele>1681.2</ele>
        <time>2020-07-30T12:53:24Z</time>
      </trkpt>
      <trkpt lat="42.3429060" lon="1.9804050">
        <ele>1681.4</ele>
        <time>2020-07-30T12:53:28Z</time>
      </trkpt>
      <trkpt lat="42.3428760" lon="1.9805810">
        <ele>1681.4</ele>
        <time>2020-07-30T12:53:31Z</time>
      </trkpt>
      <trkpt lat="42.3428610" lon="1.9807650">
        <ele>1682.0</ele>
        <time>2020-07-30T12:53:34Z</time>
      </trkpt>
      <trkpt lat="42.3428550" lon="1.9808290">
        <ele>1682.2</ele>
        <time>2020-07-30T12:53:35Z</time>
      </trkpt>
      <trkpt lat="42.3428390" lon="1.9809510">
        <ele>1682.4</ele>
        <time>2020-07-30T12:53:37Z</time>
      </trkpt>
      <trkpt lat="42.3427940" lon="1.9811360">
        <ele>1683.0</ele>
        <time>2020-07-30T12:53:40Z</time>
      </trkpt>
      <trkpt lat="42.3427680" lon="1.9811950">
        <ele>1683.4</ele>
        <time>2020-07-30T12:53:41Z</time>
      </trkpt>
      <trkpt lat="42.3426610" lon="1.9813490">
        <ele>1684.0</ele>
        <time>2020-07-30T12:53:44Z</time>
      </trkpt>
      <trkpt lat="42.3425150" lon="1.9814390">
        <ele>1684.2</ele>
        <time>2020-07-30T12:53:47Z</time>
      </trkpt>
      <trkpt lat="42.3424700" lon="1.9814570">
        <ele>1684.2</ele>
        <time>2020-07-30T12:53:48Z</time>
      </trkpt>
      <trkpt lat="42.3421790" lon="1.9815830">
        <ele>1685.2</ele>
        <time>2020-07-30T12:53:54Z</time>
      </trkpt>
      <trkpt lat="42.3421340" lon="1.9816030">
        <ele>1685.4</ele>
        <time>2020-07-30T12:53:55Z</time>
      </trkpt>
      <trkpt lat="42.3418410" lon="1.9817920">
        <ele>1686.0</ele>
        <time>2020-07-30T12:54:02Z</time>
      </trkpt>
      <trkpt lat="42.3417580" lon="1.9818570">
        <ele>1686.0</ele>
        <time>2020-07-30T12:54:04Z</time>
      </trkpt>
      <trkpt lat="42.3416000" lon="1.9819920">
        <ele>1686.4</ele>
        <time>2020-07-30T12:54:08Z</time>
      </trkpt>
      <trkpt lat="42.3413410" lon="1.9822510">
        <ele>1687.4</ele>
        <time>2020-07-30T12:54:15Z</time>
      </trkpt>
      <trkpt lat="42.3412750" lon="1.9823330">
        <ele>1687.6</ele>
        <time>2020-07-30T12:54:17Z</time>
      </trkpt>
      <trkpt lat="42.3410890" lon="1.9826320">
        <ele>1688.2</ele>
        <time>2020-07-30T12:54:23Z</time>
      </trkpt>
      <trkpt lat="42.3410680" lon="1.9826920">
        <ele>1688.2</ele>
        <time>2020-07-30T12:54:24Z</time>
      </trkpt>
      <trkpt lat="42.3409980" lon="1.9830630">
        <ele>1688.2</ele>
        <time>2020-07-30T12:54:30Z</time>
      </trkpt>
      <trkpt lat="42.3409980" lon="1.9831260">
        <ele>1688.4</ele>
        <time>2020-07-30T12:54:31Z</time>
      </trkpt>
      <trkpt lat="42.3410200" lon="1.9833760">
        <ele>1688.4</ele>
        <time>2020-07-30T12:54:35Z</time>
      </trkpt>
      <trkpt lat="42.3410530" lon="1.9834910">
        <ele>1688.8</ele>
        <time>2020-07-30T12:54:37Z</time>
      </trkpt>
      <trkpt lat="42.3411400" lon="1.9837100">
        <ele>1689.6</ele>
        <time>2020-07-30T12:54:41Z</time>
      </trkpt>
      <trkpt lat="42.3411920" lon="1.9838150">
        <ele>1689.8</ele>
        <time>2020-07-30T12:54:43Z</time>
      </trkpt>
      <trkpt lat="42.3413320" lon="1.9840890">
        <ele>1690.6</ele>
        <time>2020-07-30T12:54:48Z</time>
      </trkpt>
      <trkpt lat="42.3414040" lon="1.9842600">
        <ele>1690.8</ele>
        <time>2020-07-30T12:54:51Z</time>
      </trkpt>
      <trkpt lat="42.3414220" lon="1.9843230">
        <ele>1691.0</ele>
        <time>2020-07-30T12:54:52Z</time>
      </trkpt>
      <trkpt lat="42.3414320" lon="1.9845780">
        <ele>1691.2</ele>
        <time>2020-07-30T12:54:56Z</time>
      </trkpt>
      <trkpt lat="42.3413980" lon="1.9846980">
        <ele>1691.8</ele>
        <time>2020-07-30T12:54:58Z</time>
      </trkpt>
      <trkpt lat="42.3413510" lon="1.9848120">
        <ele>1692.0</ele>
        <time>2020-07-30T12:55:00Z</time>
      </trkpt>
      <trkpt lat="42.3413280" lon="1.9848700">
        <ele>1691.8</ele>
        <time>2020-07-30T12:55:01Z</time>
      </trkpt>
      <trkpt lat="42.3412440" lon="1.9851040">
        <ele>1692.6</ele>
        <time>2020-07-30T12:55:05Z</time>
      </trkpt>
      <trkpt lat="42.3411920" lon="1.9852870">
        <ele>1693.0</ele>
        <time>2020-07-30T12:55:08Z</time>
      </trkpt>
      <trkpt lat="42.3411760" lon="1.9854220">
        <ele>1693.4</ele>
        <time>2020-07-30T12:55:10Z</time>
      </trkpt>
      <trkpt lat="42.3411730" lon="1.9856260">
        <ele>1693.6</ele>
        <time>2020-07-30T12:55:13Z</time>
      </trkpt>
      <trkpt lat="42.3411750" lon="1.9856940">
        <ele>1693.8</ele>
        <time>2020-07-30T12:55:14Z</time>
      </trkpt>
      <trkpt lat="42.3411900" lon="1.9858990">
        <ele>1694.0</ele>
        <time>2020-07-30T12:55:17Z</time>
      </trkpt>
      <trkpt lat="42.3412580" lon="1.9865790">
        <ele>1694.4</ele>
        <time>2020-07-30T12:55:27Z</time>
      </trkpt>
      <trkpt lat="42.3412940" lon="1.9867150">
        <ele>1694.6</ele>
        <time>2020-07-30T12:55:29Z</time>
      </trkpt>
      <trkpt lat="42.3413940" lon="1.9869820">
        <ele>1694.8</ele>
        <time>2020-07-30T12:55:33Z</time>
      </trkpt>
      <trkpt lat="42.3414890" lon="1.9871630">
        <ele>1695.6</ele>
        <time>2020-07-30T12:55:36Z</time>
      </trkpt>
      <trkpt lat="42.3416200" lon="1.9873900">
        <ele>1696.0</ele>
        <time>2020-07-30T12:55:40Z</time>
      </trkpt>
      <trkpt lat="42.3417140" lon="1.9875550">
        <ele>1696.6</ele>
        <time>2020-07-30T12:55:43Z</time>
      </trkpt>
      <trkpt lat="42.3417830" lon="1.9877540">
        <ele>1697.2</ele>
        <time>2020-07-30T12:55:46Z</time>
      </trkpt>
      <trkpt lat="42.3417990" lon="1.9878330">
        <ele>1697.4</ele>
        <time>2020-07-30T12:55:47Z</time>
      </trkpt>
      <trkpt lat="42.3418250" lon="1.9879930">
        <ele>1697.8</ele>
        <time>2020-07-30T12:55:49Z</time>
      </trkpt>
      <trkpt lat="42.3418620" lon="1.9881420">
        <ele>1698.4</ele>
        <time>2020-07-30T12:55:51Z</time>
      </trkpt>
      <trkpt lat="42.3419010" lon="1.9882860">
        <ele>1698.6</ele>
        <time>2020-07-30T12:55:53Z</time>
      </trkpt>
      <trkpt lat="42.3419150" lon="1.9884390">
        <ele>1699.0</ele>
        <time>2020-07-30T12:55:55Z</time>
      </trkpt>
      <trkpt lat="42.3419100" lon="1.9885160">
        <ele>1699.0</ele>
        <time>2020-07-30T12:55:56Z</time>
      </trkpt>
      <trkpt lat="42.3419020" lon="1.9885920">
        <ele>1699.2</ele>
        <time>2020-07-30T12:55:57Z</time>
      </trkpt>
      <trkpt lat="42.3418620" lon="1.9891700">
        <ele>1699.8</ele>
        <time>2020-07-30T12:56:05Z</time>
      </trkpt>
      <trkpt lat="42.3418470" lon="1.9893800">
        <ele>1700.0</ele>
        <time>2020-07-30T12:56:08Z</time>
      </trkpt>
      <trkpt lat="42.3417690" lon="1.9901580">
        <ele>1701.0</ele>
        <time>2020-07-30T12:56:19Z</time>
      </trkpt>
      <trkpt lat="42.3417530" lon="1.9902260">
        <ele>1701.4</ele>
        <time>2020-07-30T12:56:20Z</time>
      </trkpt>
      <trkpt lat="42.3416730" lon="1.9904160">
        <ele>1701.8</ele>
        <time>2020-07-30T12:56:23Z</time>
      </trkpt>
      <trkpt lat="42.3415640" lon="1.9905920">
        <ele>1702.0</ele>
        <time>2020-07-30T12:56:26Z</time>
      </trkpt>
      <trkpt lat="42.3415120" lon="1.9906280">
        <ele>1702.2</ele>
        <time>2020-07-30T12:56:27Z</time>
      </trkpt>
      <trkpt lat="42.3414510" lon="1.9906440">
        <ele>1702.2</ele>
        <time>2020-07-30T12:56:28Z</time>
      </trkpt>
      <trkpt lat="42.3412730" lon="1.9905830">
        <ele>1702.6</ele>
        <time>2020-07-30T12:56:31Z</time>
      </trkpt>
      <trkpt lat="42.3412200" lon="1.9905380">
        <ele>1702.6</ele>
        <time>2020-07-30T12:56:32Z</time>
      </trkpt>
      <trkpt lat="42.3409890" lon="1.9902990">
        <ele>1702.8</ele>
        <time>2020-07-30T12:56:37Z</time>
      </trkpt>
      <trkpt lat="42.3409460" lon="1.9902510">
        <ele>1703.0</ele>
        <time>2020-07-30T12:56:38Z</time>
      </trkpt>
      <trkpt lat="42.3406900" lon="1.9899940">
        <ele>1703.4</ele>
        <time>2020-07-30T12:56:44Z</time>
      </trkpt>
      <trkpt lat="42.3405090" lon="1.9898750">
        <ele>1703.8</ele>
        <time>2020-07-30T12:56:48Z</time>
      </trkpt>
      <trkpt lat="42.3403650" lon="1.9898150">
        <ele>1704.2</ele>
        <time>2020-07-30T12:56:51Z</time>
      </trkpt>
      <trkpt lat="42.3401170" lon="1.9897370">
        <ele>1705.2</ele>
        <time>2020-07-30T12:56:56Z</time>
      </trkpt>
      <trkpt lat="42.3399620" lon="1.9896860">
        <ele>1705.6</ele>
        <time>2020-07-30T12:56:59Z</time>
      </trkpt>
      <trkpt lat="42.3398600" lon="1.9896520">
        <ele>1706.2</ele>
        <time>2020-07-30T12:57:01Z</time>
      </trkpt>
      <trkpt lat="42.3394760" lon="1.9895150">
        <ele>1706.8</ele>
        <time>2020-07-30T12:57:09Z</time>
      </trkpt>
      <trkpt lat="42.3392850" lon="1.9894470">
        <ele>1707.2</ele>
        <time>2020-07-30T12:57:13Z</time>
      </trkpt>
      <trkpt lat="42.3390910" lon="1.9893880">
        <ele>1707.8</ele>
        <time>2020-07-30T12:57:17Z</time>
      </trkpt>
      <trkpt lat="42.3390010" lon="1.9893580">
        <ele>1708.0</ele>
        <time>2020-07-30T12:57:19Z</time>
      </trkpt>
      <trkpt lat="42.3387710" lon="1.9892830">
        <ele>1708.6</ele>
        <time>2020-07-30T12:57:24Z</time>
      </trkpt>
      <trkpt lat="42.3384670" lon="1.9892730">
        <ele>1709.0</ele>
        <time>2020-07-30T12:57:30Z</time>
      </trkpt>
      <trkpt lat="42.3383260" lon="1.9893580">
        <ele>1709.2</ele>
        <time>2020-07-30T12:57:33Z</time>
      </trkpt>
      <trkpt lat="42.3382510" lon="1.9894430">
        <ele>1709.4</ele>
        <time>2020-07-30T12:57:35Z</time>
      </trkpt>
      <trkpt lat="42.3379840" lon="1.9898410">
        <ele>1709.8</ele>
        <time>2020-07-30T12:57:43Z</time>
      </trkpt>
      <trkpt lat="42.3379310" lon="1.9899470">
        <ele>1710.0</ele>
        <time>2020-07-30T12:57:45Z</time>
      </trkpt>
      <trkpt lat="42.3377930" lon="1.9902140">
        <ele>1711.0</ele>
        <time>2020-07-30T12:57:50Z</time>
      </trkpt>
      <trkpt lat="42.3377130" lon="1.9903780">
        <ele>1711.2</ele>
        <time>2020-07-30T12:57:53Z</time>
      </trkpt>
      <trkpt lat="42.3375300" lon="1.9907990">
        <ele>1711.8</ele>
        <time>2020-07-30T12:58:00Z</time>
      </trkpt>
      <trkpt lat="42.3374980" lon="1.9908600">
        <ele>1711.8</ele>
        <time>2020-07-30T12:58:01Z</time>
      </trkpt>
      <trkpt lat="42.3374600" lon="1.9909120">
        <ele>1712.0</ele>
        <time>2020-07-30T12:58:02Z</time>
      </trkpt>
      <trkpt lat="42.3373570" lon="1.9909720">
        <ele>1712.2</ele>
        <time>2020-07-30T12:58:04Z</time>
      </trkpt>
      <trkpt lat="42.3373010" lon="1.9909880">
        <ele>1712.2</ele>
        <time>2020-07-30T12:58:05Z</time>
      </trkpt>
      <trkpt lat="42.3369620" lon="1.9910230">
        <ele>1712.8</ele>
        <time>2020-07-30T12:58:11Z</time>
      </trkpt>
      <trkpt lat="42.3365170" lon="1.9910530">
        <ele>1712.6</ele>
        <time>2020-07-30T12:58:19Z</time>
      </trkpt>
      <trkpt lat="42.3361860" lon="1.9910730">
        <ele>1712.6</ele>
        <time>2020-07-30T12:58:25Z</time>
      </trkpt>
      <trkpt lat="42.3363360" lon="1.9910650">
        <ele>1712.8</ele>
        <time>2020-07-30T13:04:27Z</time>
      </trkpt>
      <trkpt lat="42.3360480" lon="1.9910990">
        <ele>1712.6</ele>
        <time>2020-07-30T13:04:34Z</time>
      </trkpt>
      <trkpt lat="42.3358790" lon="1.9911890">
        <ele>1712.4</ele>
        <time>2020-07-30T13:04:38Z</time>
      </trkpt>
      <trkpt lat="42.3357990" lon="1.9912570">
        <ele>1712.4</ele>
        <time>2020-07-30T13:04:40Z</time>
      </trkpt>
      <trkpt lat="42.3355690" lon="1.9914790">
        <ele>1712.0</ele>
        <time>2020-07-30T13:04:45Z</time>
      </trkpt>
      <trkpt lat="42.3355160" lon="1.9915410">
        <ele>1711.8</ele>
        <time>2020-07-30T13:04:46Z</time>
      </trkpt>
      <trkpt lat="42.3353710" lon="1.9917750">
        <ele>1711.8</ele>
        <time>2020-07-30T13:04:49Z</time>
      </trkpt>
      <trkpt lat="42.3353310" lon="1.9918770">
        <ele>1711.6</ele>
        <time>2020-07-30T13:04:50Z</time>
      </trkpt>
      <trkpt lat="42.3352240" lon="1.9922320">
        <ele>1710.6</ele>
        <time>2020-07-30T13:04:53Z</time>
      </trkpt>
      <trkpt lat="42.3351480" lon="1.9924900">
        <ele>1708.8</ele>
        <time>2020-07-30T13:04:55Z</time>
      </trkpt>
      <trkpt lat="42.3350620" lon="1.9927560">
        <ele>1707.0</ele>
        <time>2020-07-30T13:04:57Z</time>
      </trkpt>
      <trkpt lat="42.3349700" lon="1.9930260">
        <ele>1705.4</ele>
        <time>2020-07-30T13:04:59Z</time>
      </trkpt>
      <trkpt lat="42.3348850" lon="1.9933150">
        <ele>1703.8</ele>
        <time>2020-07-30T13:05:01Z</time>
      </trkpt>
      <trkpt lat="42.3347760" lon="1.9937790">
        <ele>1702.4</ele>
        <time>2020-07-30T13:05:04Z</time>
      </trkpt>
      <trkpt lat="42.3347140" lon="1.9941040">
        <ele>1701.4</ele>
        <time>2020-07-30T13:05:06Z</time>
      </trkpt>
      <trkpt lat="42.3346850" lon="1.9942700">
        <ele>1700.6</ele>
        <time>2020-07-30T13:05:07Z</time>
      </trkpt>
      <trkpt lat="42.3346590" lon="1.9944320">
        <ele>1700.0</ele>
        <time>2020-07-30T13:05:08Z</time>
      </trkpt>
      <trkpt lat="42.3346420" lon="1.9945940">
        <ele>1699.4</ele>
        <time>2020-07-30T13:05:09Z</time>
      </trkpt>
      <trkpt lat="42.3346440" lon="1.9947520">
        <ele>1698.4</ele>
        <time>2020-07-30T13:05:10Z</time>
      </trkpt>
      <trkpt lat="42.3346640" lon="1.9949020">
        <ele>1697.4</ele>
        <time>2020-07-30T13:05:11Z</time>
      </trkpt>
      <trkpt lat="42.3347120" lon="1.9950340">
        <ele>1696.6</ele>
        <time>2020-07-30T13:05:12Z</time>
      </trkpt>
      <trkpt lat="42.3347840" lon="1.9951490">
        <ele>1695.8</ele>
        <time>2020-07-30T13:05:13Z</time>
      </trkpt>
      <trkpt lat="42.3348670" lon="1.9952470">
        <ele>1695.0</ele>
        <time>2020-07-30T13:05:14Z</time>
      </trkpt>
      <trkpt lat="42.3349500" lon="1.9953580">
        <ele>1694.0</ele>
        <time>2020-07-30T13:05:15Z</time>
      </trkpt>
      <trkpt lat="42.3350120" lon="1.9954870">
        <ele>1692.6</ele>
        <time>2020-07-30T13:05:16Z</time>
      </trkpt>
      <trkpt lat="42.3350430" lon="1.9956350">
        <ele>1691.2</ele>
        <time>2020-07-30T13:05:17Z</time>
      </trkpt>
      <trkpt lat="42.3350550" lon="1.9957860">
        <ele>1690.4</ele>
        <time>2020-07-30T13:05:18Z</time>
      </trkpt>
      <trkpt lat="42.3350820" lon="1.9959290">
        <ele>1690.0</ele>
        <time>2020-07-30T13:05:19Z</time>
      </trkpt>
      <trkpt lat="42.3351340" lon="1.9960530">
        <ele>1689.8</ele>
        <time>2020-07-30T13:05:20Z</time>
      </trkpt>
      <trkpt lat="42.3353680" lon="1.9962910">
        <ele>1688.6</ele>
        <time>2020-07-30T13:05:23Z</time>
      </trkpt>
      <trkpt lat="42.3356380" lon="1.9964820">
        <ele>1687.6</ele>
        <time>2020-07-30T13:05:26Z</time>
      </trkpt>
      <trkpt lat="42.3357130" lon="1.9967100">
        <ele>1687.6</ele>
        <time>2020-07-30T13:05:28Z</time>
      </trkpt>
      <trkpt lat="42.3356510" lon="1.9969390">
        <ele>1687.4</ele>
        <time>2020-07-30T13:05:30Z</time>
      </trkpt>
      <trkpt lat="42.3356010" lon="1.9970420">
        <ele>1687.4</ele>
        <time>2020-07-30T13:05:31Z</time>
      </trkpt>
      <trkpt lat="42.3355560" lon="1.9971520">
        <ele>1687.4</ele>
        <time>2020-07-30T13:05:32Z</time>
      </trkpt>
      <trkpt lat="42.3354230" lon="1.9974860">
        <ele>1687.0</ele>
        <time>2020-07-30T13:05:35Z</time>
      </trkpt>
      <trkpt lat="42.3352730" lon="1.9978130">
        <ele>1686.2</ele>
        <time>2020-07-30T13:05:38Z</time>
      </trkpt>
      <trkpt lat="42.3350130" lon="1.9983420">
        <ele>1685.8</ele>
        <time>2020-07-30T13:05:43Z</time>
      </trkpt>
      <trkpt lat="42.3349270" lon="1.9985620">
        <ele>1685.0</ele>
        <time>2020-07-30T13:05:45Z</time>
      </trkpt>
      <trkpt lat="42.3348840" lon="1.9988000">
        <ele>1684.4</ele>
        <time>2020-07-30T13:05:47Z</time>
      </trkpt>
      <trkpt lat="42.3348870" lon="1.9989250">
        <ele>1684.0</ele>
        <time>2020-07-30T13:05:48Z</time>
      </trkpt>
      <trkpt lat="42.3348870" lon="1.9989250">
        <ele>1682.8</ele>
        <time>2020-07-30T13:05:50Z</time>
      </trkpt>
      <trkpt lat="42.3349730" lon="1.9991480">
        <ele>1682.6</ele>
        <time>2020-07-30T13:05:51Z</time>
      </trkpt>
      <trkpt lat="42.3350580" lon="1.9993710">
        <ele>1682.4</ele>
        <time>2020-07-30T13:05:52Z</time>
      </trkpt>
      <trkpt lat="42.3353330" lon="1.9998960">
        <ele>1682.2</ele>
        <time>2020-07-30T13:05:57Z</time>
      </trkpt>
      <trkpt lat="42.3353160" lon="2.0001450">
        <ele>1682.2</ele>
        <time>2020-07-30T13:05:59Z</time>
      </trkpt>
      <trkpt lat="42.3351950" lon="2.0003310">
        <ele>1682.0</ele>
        <time>2020-07-30T13:06:01Z</time>
      </trkpt>
      <trkpt lat="42.3351230" lon="2.0004130">
        <ele>1681.8</ele>
        <time>2020-07-30T13:06:02Z</time>
      </trkpt>
      <trkpt lat="42.3349820" lon="2.0005860">
        <ele>1681.4</ele>
        <time>2020-07-30T13:06:04Z</time>
      </trkpt>
      <trkpt lat="42.3346950" lon="2.0009470">
        <ele>1680.4</ele>
        <time>2020-07-30T13:06:08Z</time>
      </trkpt>
      <trkpt lat="42.3346360" lon="2.0010540">
        <ele>1680.4</ele>
        <time>2020-07-30T13:06:09Z</time>
      </trkpt>
      <trkpt lat="42.3344920" lon="2.0014090">
        <ele>1680.0</ele>
        <time>2020-07-30T13:06:12Z</time>
      </trkpt>
      <trkpt lat="42.3343830" lon="2.0016330">
        <ele>1679.4</ele>
        <time>2020-07-30T13:06:14Z</time>
      </trkpt>
      <trkpt lat="42.3342290" lon="2.0018100">
        <ele>1679.2</ele>
        <time>2020-07-30T13:06:16Z</time>
      </trkpt>
      <trkpt lat="42.3339320" lon="2.0019250">
        <ele>1678.2</ele>
        <time>2020-07-30T13:06:19Z</time>
      </trkpt>
      <trkpt lat="42.3337320" lon="2.0019990">
        <ele>1677.6</ele>
        <time>2020-07-30T13:06:21Z</time>
      </trkpt>
      <trkpt lat="42.3334380" lon="2.0021310">
        <ele>1676.6</ele>
        <time>2020-07-30T13:06:24Z</time>
      </trkpt>
      <trkpt lat="42.3330690" lon="2.0023230">
        <ele>1675.4</ele>
        <time>2020-07-30T13:06:28Z</time>
      </trkpt>
      <trkpt lat="42.3327130" lon="2.0025360">
        <ele>1675.0</ele>
        <time>2020-07-30T13:06:32Z</time>
      </trkpt>
      <trkpt lat="42.3325450" lon="2.0026650">
        <ele>1674.4</ele>
        <time>2020-07-30T13:06:34Z</time>
      </trkpt>
      <trkpt lat="42.3323910" lon="2.0028170">
        <ele>1673.8</ele>
        <time>2020-07-30T13:06:36Z</time>
      </trkpt>
      <trkpt lat="42.3321920" lon="2.0030830">
        <ele>1673.6</ele>
        <time>2020-07-30T13:06:38Z</time>
      </trkpt>
      <trkpt lat="42.3321340" lon="2.0031790">
        <ele>1673.4</ele>
        <time>2020-07-30T13:06:40Z</time>
      </trkpt>
      <trkpt lat="42.3319020" lon="2.0035630">
        <ele>1673.2</ele>
        <time>2020-07-30T13:06:44Z</time>
      </trkpt>
      <trkpt lat="42.3316550" lon="2.0039240">
        <ele>1673.0</ele>
        <time>2020-07-30T13:06:48Z</time>
      </trkpt>
      <trkpt lat="42.3315850" lon="2.0040050">
        <ele>1673.0</ele>
        <time>2020-07-30T13:06:49Z</time>
      </trkpt>
      <trkpt lat="42.3313470" lon="2.0041940">
        <ele>1673.0</ele>
        <time>2020-07-30T13:06:52Z</time>
      </trkpt>
      <trkpt lat="42.3311720" lon="2.0042630">
        <ele>1672.8</ele>
        <time>2020-07-30T13:06:54Z</time>
      </trkpt>
      <trkpt lat="42.3310900" lon="2.0043050">
        <ele>1672.6</ele>
        <time>2020-07-30T13:06:55Z</time>
      </trkpt>
      <trkpt lat="42.3310190" lon="2.0043700">
        <ele>1672.6</ele>
        <time>2020-07-30T13:06:56Z</time>
      </trkpt>
      <trkpt lat="42.3309040" lon="2.0046670">
        <ele>1672.2</ele>
        <time>2020-07-30T13:06:59Z</time>
      </trkpt>
      <trkpt lat="42.3309260" lon="2.0048840">
        <ele>1671.6</ele>
        <time>2020-07-30T13:07:01Z</time>
      </trkpt>
      <trkpt lat="42.3310660" lon="2.0051520">
        <ele>1671.2</ele>
        <time>2020-07-30T13:07:04Z</time>
      </trkpt>
      <trkpt lat="42.3313290" lon="2.0054120">
        <ele>1671.0</ele>
        <time>2020-07-30T13:07:08Z</time>
      </trkpt>
      <trkpt lat="42.3317740" lon="2.0057000">
        <ele>1671.0</ele>
        <time>2020-07-30T13:07:14Z</time>
      </trkpt>
      <trkpt lat="42.3318560" lon="2.0057320">
        <ele>1671.0</ele>
        <time>2020-07-30T13:07:15Z</time>
      </trkpt>
      <trkpt lat="42.3323430" lon="2.0059110">
        <ele>1670.8</ele>
        <time>2020-07-30T13:07:21Z</time>
      </trkpt>
      <trkpt lat="42.3327390" lon="2.0060500">
        <ele>1670.8</ele>
        <time>2020-07-30T13:07:26Z</time>
      </trkpt>
      <trkpt lat="42.3328120" lon="2.0061010">
        <ele>1670.8</ele>
        <time>2020-07-30T13:07:27Z</time>
      </trkpt>
      <trkpt lat="42.3329550" lon="2.0063790">
        <ele>1670.6</ele>
        <time>2020-07-30T13:07:30Z</time>
      </trkpt>
      <trkpt lat="42.3329180" lon="2.0067230">
        <ele>1670.4</ele>
        <time>2020-07-30T13:07:33Z</time>
      </trkpt>
      <trkpt lat="42.3328110" lon="2.0071560">
        <ele>1669.6</ele>
        <time>2020-07-30T13:07:37Z</time>
      </trkpt>
      <trkpt lat="42.3327340" lon="2.0074760">
        <ele>1668.4</ele>
        <time>2020-07-30T13:07:40Z</time>
      </trkpt>
      <trkpt lat="42.3327080" lon="2.0075810">
        <ele>1668.0</ele>
        <time>2020-07-30T13:07:41Z</time>
      </trkpt>
      <trkpt lat="42.3325250" lon="2.0082150">
        <ele>1667.4</ele>
        <time>2020-07-30T13:07:47Z</time>
      </trkpt>
      <trkpt lat="42.3324740" lon="2.0084290">
        <ele>1667.4</ele>
        <time>2020-07-30T13:07:49Z</time>
      </trkpt>
      <trkpt lat="42.3324800" lon="2.0087620">
        <ele>1667.0</ele>
        <time>2020-07-30T13:07:52Z</time>
      </trkpt>
      <trkpt lat="42.3326450" lon="2.0090110">
        <ele>1666.6</ele>
        <time>2020-07-30T13:07:55Z</time>
      </trkpt>
      <trkpt lat="42.3327930" lon="2.0091060">
        <ele>1666.4</ele>
        <time>2020-07-30T13:07:57Z</time>
      </trkpt>
      <trkpt lat="42.3328720" lon="2.0091460">
        <ele>1666.4</ele>
        <time>2020-07-30T13:07:58Z</time>
      </trkpt>
      <trkpt lat="42.3329530" lon="2.0091810">
        <ele>1666.4</ele>
        <time>2020-07-30T13:07:59Z</time>
      </trkpt>
      <trkpt lat="42.3333830" lon="2.0092880">
        <ele>1666.0</ele>
        <time>2020-07-30T13:08:04Z</time>
      </trkpt>
      <trkpt lat="42.3340100" lon="2.0093100">
        <ele>1665.6</ele>
        <time>2020-07-30T13:08:11Z</time>
      </trkpt>
      <trkpt lat="42.3341000" lon="2.0093020">
        <ele>1665.2</ele>
        <time>2020-07-30T13:08:12Z</time>
      </trkpt>
      <trkpt lat="42.3341900" lon="2.0092910">
        <ele>1664.8</ele>
        <time>2020-07-30T13:08:13Z</time>
      </trkpt>
      <trkpt lat="42.3345530" lon="2.0092210">
        <ele>1664.6</ele>
        <time>2020-07-30T13:08:17Z</time>
      </trkpt>
      <trkpt lat="42.3348900" lon="2.0090540">
        <ele>1664.2</ele>
        <time>2020-07-30T13:08:21Z</time>
      </trkpt>
      <trkpt lat="42.3349740" lon="2.0090430">
        <ele>1664.0</ele>
        <time>2020-07-30T13:08:22Z</time>
      </trkpt>
      <trkpt lat="42.3351160" lon="2.0091700">
        <ele>1663.6</ele>
        <time>2020-07-30T13:08:24Z</time>
      </trkpt>
      <trkpt lat="42.3352030" lon="2.0093730">
        <ele>1663.2</ele>
        <time>2020-07-30T13:08:26Z</time>
      </trkpt>
      <trkpt lat="42.3353300" lon="2.0096780">
        <ele>1662.8</ele>
        <time>2020-07-30T13:08:29Z</time>
      </trkpt>
      <trkpt lat="42.3356310" lon="2.0102760">
        <ele>1661.8</ele>
        <time>2020-07-30T13:08:35Z</time>
      </trkpt>
      <trkpt lat="42.3358630" lon="2.0106520">
        <ele>1661.4</ele>
        <time>2020-07-30T13:08:39Z</time>
      </trkpt>
      <trkpt lat="42.3359750" lon="2.0108390">
        <ele>1661.4</ele>
        <time>2020-07-30T13:08:41Z</time>
      </trkpt>
      <trkpt lat="42.3359930" lon="2.0110620">
        <ele>1661.4</ele>
        <time>2020-07-30T13:08:43Z</time>
      </trkpt>
      <trkpt lat="42.3358670" lon="2.0112100">
        <ele>1661.4</ele>
        <time>2020-07-30T13:08:45Z</time>
      </trkpt>
      <trkpt lat="42.3356950" lon="2.0112010">
        <ele>1661.2</ele>
        <time>2020-07-30T13:08:47Z</time>
      </trkpt>
      <trkpt lat="42.3356110" lon="2.0111600">
        <ele>1661.2</ele>
        <time>2020-07-30T13:08:48Z</time>
      </trkpt>
      <trkpt lat="42.3352620" lon="2.0110510">
        <ele>1660.8</ele>
        <time>2020-07-30T13:08:52Z</time>
      </trkpt>
      <trkpt lat="42.3348230" lon="2.0110810">
        <ele>1660.6</ele>
        <time>2020-07-30T13:08:57Z</time>
      </trkpt>
      <trkpt lat="42.3347390" lon="2.0111120">
        <ele>1660.4</ele>
        <time>2020-07-30T13:08:58Z</time>
      </trkpt>
      <trkpt lat="42.3344210" lon="2.0112840">
        <ele>1659.8</ele>
        <time>2020-07-30T13:09:02Z</time>
      </trkpt>
      <trkpt lat="42.3340050" lon="2.0116170">
        <ele>1659.2</ele>
        <time>2020-07-30T13:09:08Z</time>
      </trkpt>
      <trkpt lat="42.3336130" lon="2.0121020">
        <ele>1658.2</ele>
        <time>2020-07-30T13:09:15Z</time>
      </trkpt>
      <trkpt lat="42.3335280" lon="2.0122600">
        <ele>1658.0</ele>
        <time>2020-07-30T13:09:17Z</time>
      </trkpt>
      <trkpt lat="42.3334710" lon="2.0124400">
        <ele>1658.0</ele>
        <time>2020-07-30T13:09:19Z</time>
      </trkpt>
      <trkpt lat="42.3334350" lon="2.0127360">
        <ele>1658.2</ele>
        <time>2020-07-30T13:09:22Z</time>
      </trkpt>
      <trkpt lat="42.3334310" lon="2.0129410">
        <ele>1658.4</ele>
        <time>2020-07-30T13:09:24Z</time>
      </trkpt>
      <trkpt lat="42.3334760" lon="2.0135650">
        <ele>1659.0</ele>
        <time>2020-07-30T13:09:30Z</time>
      </trkpt>
      <trkpt lat="42.3334350" lon="2.0137630">
        <ele>1659.2</ele>
        <time>2020-07-30T13:09:32Z</time>
      </trkpt>
      <trkpt lat="42.3333060" lon="2.0138640">
        <ele>1659.2</ele>
        <time>2020-07-30T13:09:34Z</time>
      </trkpt>
      <trkpt lat="42.3331550" lon="2.0138330">
        <ele>1659.2</ele>
        <time>2020-07-30T13:09:36Z</time>
      </trkpt>
      <trkpt lat="42.3330760" lon="2.0138110">
        <ele>1658.8</ele>
        <time>2020-07-30T13:09:37Z</time>
      </trkpt>
      <trkpt lat="42.3325100" lon="2.0136960">
        <ele>1658.4</ele>
        <time>2020-07-30T13:09:44Z</time>
      </trkpt>
      <trkpt lat="42.3323480" lon="2.0136640">
        <ele>1657.6</ele>
        <time>2020-07-30T13:09:46Z</time>
      </trkpt>
      <trkpt lat="42.3322680" lon="2.0136490">
        <ele>1657.4</ele>
        <time>2020-07-30T13:09:47Z</time>
      </trkpt>
      <trkpt lat="42.3318790" lon="2.0136590">
        <ele>1657.0</ele>
        <time>2020-07-30T13:09:52Z</time>
      </trkpt>
      <trkpt lat="42.3316490" lon="2.0137250">
        <ele>1656.6</ele>
        <time>2020-07-30T13:09:55Z</time>
      </trkpt>
      <trkpt lat="42.3314170" lon="2.0137780">
        <ele>1656.4</ele>
        <time>2020-07-30T13:09:58Z</time>
      </trkpt>
      <trkpt lat="42.3310300" lon="2.0138350">
        <ele>1655.6</ele>
        <time>2020-07-30T13:10:03Z</time>
      </trkpt>
      <trkpt lat="42.3308010" lon="2.0139040">
        <ele>1655.0</ele>
        <time>2020-07-30T13:10:06Z</time>
      </trkpt>
      <trkpt lat="42.3307320" lon="2.0139430">
        <ele>1655.0</ele>
        <time>2020-07-30T13:10:07Z</time>
      </trkpt>
      <trkpt lat="42.3305480" lon="2.0141050">
        <ele>1655.0</ele>
        <time>2020-07-30T13:10:10Z</time>
      </trkpt>
      <trkpt lat="42.3301780" lon="2.0145520">
        <ele>1655.0</ele>
        <time>2020-07-30T13:10:17Z</time>
      </trkpt>
      <trkpt lat="42.3297700" lon="2.0149970">
        <ele>1655.0</ele>
        <time>2020-07-30T13:10:24Z</time>
      </trkpt>
      <trkpt lat="42.3292860" lon="2.0154960">
        <ele>1654.8</ele>
        <time>2020-07-30T13:10:32Z</time>
      </trkpt>
      <trkpt lat="42.3292250" lon="2.0155620">
        <ele>1654.6</ele>
        <time>2020-07-30T13:10:33Z</time>
      </trkpt>
      <trkpt lat="42.3291650" lon="2.0156290">
        <ele>1654.2</ele>
        <time>2020-07-30T13:10:34Z</time>
      </trkpt>
      <trkpt lat="42.3290540" lon="2.0157690">
        <ele>1654.0</ele>
        <time>2020-07-30T13:10:36Z</time>
      </trkpt>
      <trkpt lat="42.3289590" lon="2.0159320">
        <ele>1654.0</ele>
        <time>2020-07-30T13:10:38Z</time>
      </trkpt>
      <trkpt lat="42.3288310" lon="2.0163100">
        <ele>1653.6</ele>
        <time>2020-07-30T13:10:42Z</time>
      </trkpt>
      <trkpt lat="42.3288070" lon="2.0167340">
        <ele>1653.6</ele>
        <time>2020-07-30T13:10:46Z</time>
      </trkpt>
      <trkpt lat="42.3288110" lon="2.0168420">
        <ele>1653.6</ele>
        <time>2020-07-30T13:10:47Z</time>
      </trkpt>
      <trkpt lat="42.3287840" lon="2.0174930">
        <ele>1653.4</ele>
        <time>2020-07-30T13:10:53Z</time>
      </trkpt>
      <trkpt lat="42.3287100" lon="2.0176870">
        <ele>1653.2</ele>
        <time>2020-07-30T13:10:55Z</time>
      </trkpt>
      <trkpt lat="42.3286530" lon="2.0177660">
        <ele>1653.0</ele>
        <time>2020-07-30T13:10:56Z</time>
      </trkpt>
      <trkpt lat="42.3285230" lon="2.0178880">
        <ele>1653.0</ele>
        <time>2020-07-30T13:10:58Z</time>
      </trkpt>
      <trkpt lat="42.3283300" lon="2.0180630">
        <ele>1652.6</ele>
        <time>2020-07-30T13:11:01Z</time>
      </trkpt>
      <trkpt lat="42.3281520" lon="2.0182560">
        <ele>1652.2</ele>
        <time>2020-07-30T13:11:04Z</time>
      </trkpt>
      <trkpt lat="42.3279260" lon="2.0185290">
        <ele>1651.8</ele>
        <time>2020-07-30T13:11:08Z</time>
      </trkpt>
      <trkpt lat="42.3275190" lon="2.0191180">
        <ele>1651.2</ele>
        <time>2020-07-30T13:11:16Z</time>
      </trkpt>
      <trkpt lat="42.3274750" lon="2.0191970">
        <ele>1651.2</ele>
        <time>2020-07-30T13:11:17Z</time>
      </trkpt>
      <trkpt lat="42.3274020" lon="2.0193650">
        <ele>1651.0</ele>
        <time>2020-07-30T13:11:19Z</time>
      </trkpt>
      <trkpt lat="42.3273750" lon="2.0194550">
        <ele>1651.0</ele>
        <time>2020-07-30T13:11:20Z</time>
      </trkpt>
      <trkpt lat="42.3273560" lon="2.0195480">
        <ele>1651.0</ele>
        <time>2020-07-30T13:11:21Z</time>
      </trkpt>
      <trkpt lat="42.3273350" lon="2.0198430">
        <ele>1650.8</ele>
        <time>2020-07-30T13:11:24Z</time>
      </trkpt>
      <trkpt lat="42.3273410" lon="2.0200470">
        <ele>1650.6</ele>
        <time>2020-07-30T13:11:26Z</time>
      </trkpt>
      <trkpt lat="42.3274060" lon="2.0207140">
        <ele>1650.0</ele>
        <time>2020-07-30T13:11:32Z</time>
      </trkpt>
      <trkpt lat="42.3274140" lon="2.0208330">
        <ele>1649.8</ele>
        <time>2020-07-30T13:11:33Z</time>
      </trkpt>
      <trkpt lat="42.3274350" lon="2.0210770">
        <ele>1649.4</ele>
        <time>2020-07-30T13:11:35Z</time>
      </trkpt>
      <trkpt lat="42.3275060" lon="2.0213030">
        <ele>1649.2</ele>
        <time>2020-07-30T13:11:37Z</time>
      </trkpt>
      <trkpt lat="42.3276420" lon="2.0214730">
        <ele>1648.4</ele>
        <time>2020-07-30T13:11:39Z</time>
      </trkpt>
      <trkpt lat="42.3277290" lon="2.0215290">
        <ele>1648.0</ele>
        <time>2020-07-30T13:11:40Z</time>
      </trkpt>
      <trkpt lat="42.3279190" lon="2.0215970">
        <ele>1647.2</ele>
        <time>2020-07-30T13:11:42Z</time>
      </trkpt>
      <trkpt lat="42.3281180" lon="2.0216460">
        <ele>1646.8</ele>
        <time>2020-07-30T13:11:44Z</time>
      </trkpt>
      <trkpt lat="42.3284290" lon="2.0217100">
        <ele>1646.0</ele>
        <time>2020-07-30T13:11:47Z</time>
      </trkpt>
      <trkpt lat="42.3287400" lon="2.0218080">
        <ele>1644.8</ele>
        <time>2020-07-30T13:11:50Z</time>
      </trkpt>
      <trkpt lat="42.3290520" lon="2.0219370">
        <ele>1643.8</ele>
        <time>2020-07-30T13:11:53Z</time>
      </trkpt>
      <trkpt lat="42.3291530" lon="2.0219990">
        <ele>1643.2</ele>
        <time>2020-07-30T13:11:54Z</time>
      </trkpt>
      <trkpt lat="42.3294590" lon="2.0221390">
        <ele>1641.8</ele>
        <time>2020-07-30T13:11:57Z</time>
      </trkpt>
      <trkpt lat="42.3295640" lon="2.0221550">
        <ele>1640.4</ele>
        <time>2020-07-30T13:11:58Z</time>
      </trkpt>
      <trkpt lat="42.3297590" lon="2.0222370">
        <ele>1639.0</ele>
        <time>2020-07-30T13:12:00Z</time>
      </trkpt>
      <trkpt lat="42.3298490" lon="2.0224770">
        <ele>1638.2</ele>
        <time>2020-07-30T13:12:02Z</time>
      </trkpt>
      <trkpt lat="42.3298560" lon="2.0226170">
        <ele>1637.8</ele>
        <time>2020-07-30T13:12:03Z</time>
      </trkpt>
      <trkpt lat="42.3298550" lon="2.0227610">
        <ele>1637.6</ele>
        <time>2020-07-30T13:12:04Z</time>
      </trkpt>
      <trkpt lat="42.3298540" lon="2.0230540">
        <ele>1637.4</ele>
        <time>2020-07-30T13:12:06Z</time>
      </trkpt>
      <trkpt lat="42.3298290" lon="2.0238100">
        <ele>1636.8</ele>
        <time>2020-07-30T13:12:11Z</time>
      </trkpt>
      <trkpt lat="42.3298010" lon="2.0239600">
        <ele>1636.2</ele>
        <time>2020-07-30T13:12:12Z</time>
      </trkpt>
      <trkpt lat="42.3297670" lon="2.0241060">
        <ele>1635.6</ele>
        <time>2020-07-30T13:12:13Z</time>
      </trkpt>
      <trkpt lat="42.3297370" lon="2.0242490">
        <ele>1634.8</ele>
        <time>2020-07-30T13:12:14Z</time>
      </trkpt>
      <trkpt lat="42.3297270" lon="2.0243920">
        <ele>1633.8</ele>
        <time>2020-07-30T13:12:15Z</time>
      </trkpt>
      <trkpt lat="42.3297480" lon="2.0245310">
        <ele>1633.0</ele>
        <time>2020-07-30T13:12:16Z</time>
      </trkpt>
      <trkpt lat="42.3297970" lon="2.0246600">
        <ele>1632.2</ele>
        <time>2020-07-30T13:12:17Z</time>
      </trkpt>
      <trkpt lat="42.3299360" lon="2.0248920">
        <ele>1630.8</ele>
        <time>2020-07-30T13:12:19Z</time>
      </trkpt>
      <trkpt lat="42.3303570" lon="2.0253920">
        <ele>1629.8</ele>
        <time>2020-07-30T13:12:24Z</time>
      </trkpt>
      <trkpt lat="42.3304540" lon="2.0254630">
        <ele>1628.8</ele>
        <time>2020-07-30T13:12:25Z</time>
      </trkpt>
      <trkpt lat="42.3306640" lon="2.0255490">
        <ele>1627.6</ele>
        <time>2020-07-30T13:12:27Z</time>
      </trkpt>
      <trkpt lat="42.3308980" lon="2.0255660">
        <ele>1626.6</ele>
        <time>2020-07-30T13:12:29Z</time>
      </trkpt>
      <trkpt lat="42.3310210" lon="2.0255650">
        <ele>1626.4</ele>
        <time>2020-07-30T13:12:30Z</time>
      </trkpt>
      <trkpt lat="42.3311490" lon="2.0255740">
        <ele>1626.0</ele>
        <time>2020-07-30T13:12:31Z</time>
      </trkpt>
      <trkpt lat="42.3313990" lon="2.0256410">
        <ele>1625.6</ele>
        <time>2020-07-30T13:12:33Z</time>
      </trkpt>
      <trkpt lat="42.3316440" lon="2.0257260">
        <ele>1625.0</ele>
        <time>2020-07-30T13:12:35Z</time>
      </trkpt>
      <trkpt lat="42.3317690" lon="2.0257660">
        <ele>1624.4</ele>
        <time>2020-07-30T13:12:36Z</time>
      </trkpt>
      <trkpt lat="42.3320190" lon="2.0258360">
        <ele>1623.2</ele>
        <time>2020-07-30T13:12:38Z</time>
      </trkpt>
      <trkpt lat="42.3322720" lon="2.0258910">
        <ele>1621.8</ele>
        <time>2020-07-30T13:12:40Z</time>
      </trkpt>
      <trkpt lat="42.3323970" lon="2.0259080">
        <ele>1621.2</ele>
        <time>2020-07-30T13:12:41Z</time>
      </trkpt>
      <trkpt lat="42.3325230" lon="2.0259150">
        <ele>1620.6</ele>
        <time>2020-07-30T13:12:42Z</time>
      </trkpt>
      <trkpt lat="42.3327720" lon="2.0259020">
        <ele>1619.0</ele>
        <time>2020-07-30T13:12:44Z</time>
      </trkpt>
      <trkpt lat="42.3328960" lon="2.0258890">
        <ele>1618.4</ele>
        <time>2020-07-30T13:12:45Z</time>
      </trkpt>
      <trkpt lat="42.3330200" lon="2.0258760">
        <ele>1618.0</ele>
        <time>2020-07-30T13:12:46Z</time>
      </trkpt>
      <trkpt lat="42.3332690" lon="2.0258460">
        <ele>1616.8</ele>
        <time>2020-07-30T13:12:48Z</time>
      </trkpt>
      <trkpt lat="42.3337610" lon="2.0257670">
        <ele>1615.6</ele>
        <time>2020-07-30T13:12:52Z</time>
      </trkpt>
      <trkpt lat="42.3341230" lon="2.0257080">
        <ele>1614.0</ele>
        <time>2020-07-30T13:12:55Z</time>
      </trkpt>
      <trkpt lat="42.3342370" lon="2.0257160">
        <ele>1613.2</ele>
        <time>2020-07-30T13:12:56Z</time>
      </trkpt>
      <trkpt lat="42.3343420" lon="2.0257620">
        <ele>1612.8</ele>
        <time>2020-07-30T13:12:57Z</time>
      </trkpt>
      <trkpt lat="42.3344840" lon="2.0259710">
        <ele>1611.8</ele>
        <time>2020-07-30T13:12:59Z</time>
      </trkpt>
      <trkpt lat="42.3346030" lon="2.0262090">
        <ele>1611.2</ele>
        <time>2020-07-30T13:13:01Z</time>
      </trkpt>
      <trkpt lat="42.3346880" lon="2.0263060">
        <ele>1610.8</ele>
        <time>2020-07-30T13:13:02Z</time>
      </trkpt>
      <trkpt lat="42.3347810" lon="2.0263920">
        <ele>1610.4</ele>
        <time>2020-07-30T13:13:03Z</time>
      </trkpt>
      <trkpt lat="42.3349890" lon="2.0264650">
        <ele>1609.8</ele>
        <time>2020-07-30T13:13:05Z</time>
      </trkpt>
      <trkpt lat="42.3350850" lon="2.0264450">
        <ele>1609.0</ele>
        <time>2020-07-30T13:13:06Z</time>
      </trkpt>
      <trkpt lat="42.3352850" lon="2.0264560">
        <ele>1608.0</ele>
        <time>2020-07-30T13:13:08Z</time>
      </trkpt>
      <trkpt lat="42.3353700" lon="2.0265330">
        <ele>1607.8</ele>
        <time>2020-07-30T13:13:09Z</time>
      </trkpt>
      <trkpt lat="42.3354290" lon="2.0266470">
        <ele>1607.6</ele>
        <time>2020-07-30T13:13:10Z</time>
      </trkpt>
      <trkpt lat="42.3354690" lon="2.0269320">
        <ele>1607.2</ele>
        <time>2020-07-30T13:13:12Z</time>
      </trkpt>
      <trkpt lat="42.3354810" lon="2.0270800">
        <ele>1606.6</ele>
        <time>2020-07-30T13:13:13Z</time>
      </trkpt>
      <trkpt lat="42.3355630" lon="2.0273650">
        <ele>1604.6</ele>
        <time>2020-07-30T13:13:15Z</time>
      </trkpt>
      <trkpt lat="42.3357250" lon="2.0276070">
        <ele>1602.8</ele>
        <time>2020-07-30T13:13:17Z</time>
      </trkpt>
      <trkpt lat="42.3358240" lon="2.0277080">
        <ele>1601.8</ele>
        <time>2020-07-30T13:13:18Z</time>
      </trkpt>
      <trkpt lat="42.3359330" lon="2.0277970">
        <ele>1601.0</ele>
        <time>2020-07-30T13:13:19Z</time>
      </trkpt>
      <trkpt lat="42.3360460" lon="2.0278810">
        <ele>1599.8</ele>
        <time>2020-07-30T13:13:20Z</time>
      </trkpt>
      <trkpt lat="42.3361600" lon="2.0279730">
        <ele>1599.0</ele>
        <time>2020-07-30T13:13:21Z</time>
      </trkpt>
      <trkpt lat="42.3362670" lon="2.0280780">
        <ele>1597.8</ele>
        <time>2020-07-30T13:13:22Z</time>
      </trkpt>
      <trkpt lat="42.3365600" lon="2.0284410">
        <ele>1596.6</ele>
        <time>2020-07-30T13:13:25Z</time>
      </trkpt>
      <trkpt lat="42.3367490" lon="2.0286900">
        <ele>1595.0</ele>
        <time>2020-07-30T13:13:27Z</time>
      </trkpt>
      <trkpt lat="42.3368420" lon="2.0288170">
        <ele>1593.8</ele>
        <time>2020-07-30T13:13:28Z</time>
      </trkpt>
      <trkpt lat="42.3370210" lon="2.0290810">
        <ele>1592.4</ele>
        <time>2020-07-30T13:13:30Z</time>
      </trkpt>
      <trkpt lat="42.3371940" lon="2.0293330">
        <ele>1591.0</ele>
        <time>2020-07-30T13:13:32Z</time>
      </trkpt>
      <trkpt lat="42.3372900" lon="2.0294350">
        <ele>1590.4</ele>
        <time>2020-07-30T13:13:33Z</time>
      </trkpt>
      <trkpt lat="42.3373960" lon="2.0295060">
        <ele>1590.0</ele>
        <time>2020-07-30T13:13:34Z</time>
      </trkpt>
      <trkpt lat="42.3375050" lon="2.0295360">
        <ele>1589.6</ele>
        <time>2020-07-30T13:13:35Z</time>
      </trkpt>
      <trkpt lat="42.3376180" lon="2.0295270">
        <ele>1588.8</ele>
        <time>2020-07-30T13:13:36Z</time>
      </trkpt>
      <trkpt lat="42.3377320" lon="2.0294950">
        <ele>1588.4</ele>
        <time>2020-07-30T13:13:37Z</time>
      </trkpt>
      <trkpt lat="42.3379550" lon="2.0293620">
        <ele>1587.8</ele>
        <time>2020-07-30T13:13:39Z</time>
      </trkpt>
      <trkpt lat="42.3381530" lon="2.0291620">
        <ele>1587.4</ele>
        <time>2020-07-30T13:13:41Z</time>
      </trkpt>
      <trkpt lat="42.3382460" lon="2.0290570">
        <ele>1587.2</ele>
        <time>2020-07-30T13:13:42Z</time>
      </trkpt>
      <trkpt lat="42.3383400" lon="2.0289620">
        <ele>1587.0</ele>
        <time>2020-07-30T13:13:43Z</time>
      </trkpt>
      <trkpt lat="42.3385330" lon="2.0288530">
        <ele>1586.6</ele>
        <time>2020-07-30T13:13:45Z</time>
      </trkpt>
      <trkpt lat="42.3387010" lon="2.0289390">
        <ele>1585.8</ele>
        <time>2020-07-30T13:13:47Z</time>
      </trkpt>
      <trkpt lat="42.3388450" lon="2.0291220">
        <ele>1584.8</ele>
        <time>2020-07-30T13:13:49Z</time>
      </trkpt>
      <trkpt lat="42.3389290" lon="2.0291860">
        <ele>1584.0</ele>
        <time>2020-07-30T13:13:50Z</time>
      </trkpt>
      <trkpt lat="42.3390240" lon="2.0292190">
        <ele>1583.4</ele>
        <time>2020-07-30T13:13:51Z</time>
      </trkpt>
      <trkpt lat="42.3392240" lon="2.0292150">
        <ele>1582.0</ele>
        <time>2020-07-30T13:13:53Z</time>
      </trkpt>
      <trkpt lat="42.3395150" lon="2.0290890">
        <ele>1581.0</ele>
        <time>2020-07-30T13:13:56Z</time>
      </trkpt>
      <trkpt lat="42.3397140" lon="2.0290070">
        <ele>1580.4</ele>
        <time>2020-07-30T13:13:58Z</time>
      </trkpt>
      <trkpt lat="42.3398180" lon="2.0289980">
        <ele>1580.2</ele>
        <time>2020-07-30T13:13:59Z</time>
      </trkpt>
      <trkpt lat="42.3400260" lon="2.0290120">
        <ele>1579.8</ele>
        <time>2020-07-30T13:14:01Z</time>
      </trkpt>
      <trkpt lat="42.3401330" lon="2.0290080">
        <ele>1579.8</ele>
        <time>2020-07-30T13:14:02Z</time>
      </trkpt>
      <trkpt lat="42.3402380" lon="2.0289980">
        <ele>1579.6</ele>
        <time>2020-07-30T13:14:03Z</time>
      </trkpt>
      <trkpt lat="42.3403400" lon="2.0290010">
        <ele>1579.4</ele>
        <time>2020-07-30T13:14:04Z</time>
      </trkpt>
      <trkpt lat="42.3405040" lon="2.0290890">
        <ele>1578.8</ele>
        <time>2020-07-30T13:14:06Z</time>
      </trkpt>
      <trkpt lat="42.3405420" lon="2.0291820">
        <ele>1578.4</ele>
        <time>2020-07-30T13:14:07Z</time>
      </trkpt>
      <trkpt lat="42.3405420" lon="2.0292830">
        <ele>1578.2</ele>
        <time>2020-07-30T13:14:08Z</time>
      </trkpt>
      <trkpt lat="42.3404460" lon="2.0294570">
        <ele>1577.8</ele>
        <time>2020-07-30T13:14:10Z</time>
      </trkpt>
      <trkpt lat="42.3402080" lon="2.0296430">
        <ele>1577.4</ele>
        <time>2020-07-30T13:14:13Z</time>
      </trkpt>
      <trkpt lat="42.3398500" lon="2.0299230">
        <ele>1575.0</ele>
        <time>2020-07-30T13:14:17Z</time>
      </trkpt>
      <trkpt lat="42.3397610" lon="2.0300070">
        <ele>1574.2</ele>
        <time>2020-07-30T13:14:18Z</time>
      </trkpt>
      <trkpt lat="42.3396730" lon="2.0300950">
        <ele>1573.2</ele>
        <time>2020-07-30T13:14:19Z</time>
      </trkpt>
      <trkpt lat="42.3395970" lon="2.0301830">
        <ele>1572.4</ele>
        <time>2020-07-30T13:14:20Z</time>
      </trkpt>
      <trkpt lat="42.3395420" lon="2.0302750">
        <ele>1571.6</ele>
        <time>2020-07-30T13:14:21Z</time>
      </trkpt>
      <trkpt lat="42.3395270" lon="2.0304580">
        <ele>1569.8</ele>
        <time>2020-07-30T13:14:23Z</time>
      </trkpt>
      <trkpt lat="42.3396250" lon="2.0305660">
        <ele>1568.4</ele>
        <time>2020-07-30T13:14:25Z</time>
      </trkpt>
      <trkpt lat="42.3398800" lon="2.0305380">
        <ele>1567.6</ele>
        <time>2020-07-30T13:14:28Z</time>
      </trkpt>
      <trkpt lat="42.3399760" lon="2.0305260">
        <ele>1567.4</ele>
        <time>2020-07-30T13:14:29Z</time>
      </trkpt>
      <trkpt lat="42.3402840" lon="2.0305390">
        <ele>1567.2</ele>
        <time>2020-07-30T13:14:32Z</time>
      </trkpt>
      <trkpt lat="42.3405880" lon="2.0306480">
        <ele>1566.0</ele>
        <time>2020-07-30T13:14:35Z</time>
      </trkpt>
      <trkpt lat="42.3406880" lon="2.0306950">
        <ele>1565.0</ele>
        <time>2020-07-30T13:14:36Z</time>
      </trkpt>
      <trkpt lat="42.3407850" lon="2.0307450">
        <ele>1564.0</ele>
        <time>2020-07-30T13:14:37Z</time>
      </trkpt>
      <trkpt lat="42.3408730" lon="2.0308000">
        <ele>1563.2</ele>
        <time>2020-07-30T13:14:38Z</time>
      </trkpt>
      <trkpt lat="42.3409470" lon="2.0308730">
        <ele>1562.4</ele>
        <time>2020-07-30T13:14:39Z</time>
      </trkpt>
      <trkpt lat="42.3409940" lon="2.0309680">
        <ele>1561.8</ele>
        <time>2020-07-30T13:14:40Z</time>
      </trkpt>
      <trkpt lat="42.3410020" lon="2.0310740">
        <ele>1561.2</ele>
        <time>2020-07-30T13:14:41Z</time>
      </trkpt>
      <trkpt lat="42.3409700" lon="2.0311710">
        <ele>1560.6</ele>
        <time>2020-07-30T13:14:42Z</time>
      </trkpt>
      <trkpt lat="42.3408330" lon="2.0312980">
        <ele>1560.0</ele>
        <time>2020-07-30T13:14:44Z</time>
      </trkpt>
      <trkpt lat="42.3405160" lon="2.0315580">
        <ele>1559.6</ele>
        <time>2020-07-30T13:14:48Z</time>
      </trkpt>
      <trkpt lat="42.3404380" lon="2.0316420">
        <ele>1559.0</ele>
        <time>2020-07-30T13:14:49Z</time>
      </trkpt>
      <trkpt lat="42.3403630" lon="2.0317300">
        <ele>1558.0</ele>
        <time>2020-07-30T13:14:50Z</time>
      </trkpt>
      <trkpt lat="42.3402080" lon="2.0318980">
        <ele>1556.4</ele>
        <time>2020-07-30T13:14:52Z</time>
      </trkpt>
      <trkpt lat="42.3401340" lon="2.0319880">
        <ele>1556.0</ele>
        <time>2020-07-30T13:14:53Z</time>
      </trkpt>
      <trkpt lat="42.3400580" lon="2.0320810">
        <ele>1555.0</ele>
        <time>2020-07-30T13:14:54Z</time>
      </trkpt>
      <trkpt lat="42.3399850" lon="2.0321770">
        <ele>1554.0</ele>
        <time>2020-07-30T13:14:55Z</time>
      </trkpt>
      <trkpt lat="42.3398410" lon="2.0323850">
        <ele>1552.8</ele>
        <time>2020-07-30T13:14:57Z</time>
      </trkpt>
      <trkpt lat="42.3396980" lon="2.0326120">
        <ele>1552.2</ele>
        <time>2020-07-30T13:14:59Z</time>
      </trkpt>
      <trkpt lat="42.3396250" lon="2.0327300">
        <ele>1551.6</ele>
        <time>2020-07-30T13:15:00Z</time>
      </trkpt>
      <trkpt lat="42.3394660" lon="2.0329560">
        <ele>1550.6</ele>
        <time>2020-07-30T13:15:02Z</time>
      </trkpt>
      <trkpt lat="42.3392800" lon="2.0331500">
        <ele>1550.0</ele>
        <time>2020-07-30T13:15:04Z</time>
      </trkpt>
      <trkpt lat="42.3390820" lon="2.0333300">
        <ele>1549.6</ele>
        <time>2020-07-30T13:15:06Z</time>
      </trkpt>
      <trkpt lat="42.3388860" lon="2.0335090">
        <ele>1548.2</ele>
        <time>2020-07-30T13:15:08Z</time>
      </trkpt>
      <trkpt lat="42.3386920" lon="2.0336890">
        <ele>1546.6</ele>
        <time>2020-07-30T13:15:10Z</time>
      </trkpt>
      <trkpt lat="42.3384810" lon="2.0338370">
        <ele>1545.0</ele>
        <time>2020-07-30T13:15:12Z</time>
      </trkpt>
      <trkpt lat="42.3383690" lon="2.0338840">
        <ele>1544.0</ele>
        <time>2020-07-30T13:15:13Z</time>
      </trkpt>
      <trkpt lat="42.3381500" lon="2.0339900">
        <ele>1542.6</ele>
        <time>2020-07-30T13:15:15Z</time>
      </trkpt>
      <trkpt lat="42.3379660" lon="2.0341720">
        <ele>1541.6</ele>
        <time>2020-07-30T13:15:17Z</time>
      </trkpt>
      <trkpt lat="42.3378910" lon="2.0342840">
        <ele>1541.4</ele>
        <time>2020-07-30T13:15:18Z</time>
      </trkpt>
      <trkpt lat="42.3376180" lon="2.0344890">
        <ele>1540.4</ele>
        <time>2020-07-30T13:15:20Z</time>
      </trkpt>
      <trkpt lat="42.3375690" lon="2.0344690">
        <ele>1540.0</ele>
        <time>2020-07-30T13:15:21Z</time>
      </trkpt>
      <trkpt lat="42.3375190" lon="2.0344500">
        <ele>1539.4</ele>
        <time>2020-07-30T13:15:22Z</time>
      </trkpt>
      <trkpt lat="42.3374190" lon="2.0344110">
        <ele>1539.0</ele>
        <time>2020-07-30T13:15:23Z</time>
      </trkpt>
      <trkpt lat="42.3373290" lon="2.0343250">
        <ele>1538.4</ele>
        <time>2020-07-30T13:15:24Z</time>
      </trkpt>
      <trkpt lat="42.3371380" lon="2.0341570">
        <ele>1537.8</ele>
        <time>2020-07-30T13:15:26Z</time>
      </trkpt>
      <trkpt lat="42.3370320" lon="2.0340890">
        <ele>1537.4</ele>
        <time>2020-07-30T13:15:27Z</time>
      </trkpt>
      <trkpt lat="42.3369260" lon="2.0340230">
        <ele>1537.2</ele>
        <time>2020-07-30T13:15:28Z</time>
      </trkpt>
      <trkpt lat="42.3366180" lon="2.0337790">
        <ele>1536.6</ele>
        <time>2020-07-30T13:15:31Z</time>
      </trkpt>
      <trkpt lat="42.3365200" lon="2.0336870">
        <ele>1536.2</ele>
        <time>2020-07-30T13:15:32Z</time>
      </trkpt>
      <trkpt lat="42.3363180" lon="2.0335080">
        <ele>1534.6</ele>
        <time>2020-07-30T13:15:34Z</time>
      </trkpt>
      <trkpt lat="42.3360970" lon="2.0333830">
        <ele>1533.0</ele>
        <time>2020-07-30T13:15:36Z</time>
      </trkpt>
      <trkpt lat="42.3359840" lon="2.0333530">
        <ele>1532.0</ele>
        <time>2020-07-30T13:15:37Z</time>
      </trkpt>
      <trkpt lat="42.3357480" lon="2.0333400">
        <ele>1530.6</ele>
        <time>2020-07-30T13:15:39Z</time>
      </trkpt>
      <trkpt lat="42.3355120" lon="2.0333940">
        <ele>1529.0</ele>
        <time>2020-07-30T13:15:41Z</time>
      </trkpt>
      <trkpt lat="42.3353930" lon="2.0334420">
        <ele>1528.2</ele>
        <time>2020-07-30T13:15:42Z</time>
      </trkpt>
      <trkpt lat="42.3352760" lon="2.0335020">
        <ele>1527.4</ele>
        <time>2020-07-30T13:15:43Z</time>
      </trkpt>
      <trkpt lat="42.3351630" lon="2.0335750">
        <ele>1526.6</ele>
        <time>2020-07-30T13:15:44Z</time>
      </trkpt>
      <trkpt lat="42.3350500" lon="2.0336550">
        <ele>1526.2</ele>
        <time>2020-07-30T13:15:45Z</time>
      </trkpt>
      <trkpt lat="42.3349380" lon="2.0337410">
        <ele>1525.6</ele>
        <time>2020-07-30T13:15:46Z</time>
      </trkpt>
      <trkpt lat="42.3348290" lon="2.0338340">
        <ele>1525.0</ele>
        <time>2020-07-30T13:15:47Z</time>
      </trkpt>
      <trkpt lat="42.3346090" lon="2.0340280">
        <ele>1523.8</ele>
        <time>2020-07-30T13:15:49Z</time>
      </trkpt>
      <trkpt lat="42.3343870" lon="2.0342140">
        <ele>1522.2</ele>
        <time>2020-07-30T13:15:51Z</time>
      </trkpt>
      <trkpt lat="42.3342710" lon="2.0342890">
        <ele>1521.4</ele>
        <time>2020-07-30T13:15:52Z</time>
      </trkpt>
      <trkpt lat="42.3341560" lon="2.0343670">
        <ele>1520.6</ele>
        <time>2020-07-30T13:15:53Z</time>
      </trkpt>
      <trkpt lat="42.3339470" lon="2.0345530">
        <ele>1519.2</ele>
        <time>2020-07-30T13:15:55Z</time>
      </trkpt>
      <trkpt lat="42.3338630" lon="2.0346730">
        <ele>1518.2</ele>
        <time>2020-07-30T13:15:56Z</time>
      </trkpt>
      <trkpt lat="42.3337960" lon="2.0348090">
        <ele>1517.6</ele>
        <time>2020-07-30T13:15:57Z</time>
      </trkpt>
      <trkpt lat="42.3337130" lon="2.0351270">
        <ele>1516.4</ele>
        <time>2020-07-30T13:15:59Z</time>
      </trkpt>
      <trkpt lat="42.3337080" lon="2.0354720">
        <ele>1515.4</ele>
        <time>2020-07-30T13:16:01Z</time>
      </trkpt>
      <trkpt lat="42.3337310" lon="2.0356420">
        <ele>1515.0</ele>
        <time>2020-07-30T13:16:02Z</time>
      </trkpt>
      <trkpt lat="42.3338750" lon="2.0361210">
        <ele>1514.0</ele>
        <time>2020-07-30T13:16:05Z</time>
      </trkpt>
      <trkpt lat="42.3339420" lon="2.0362710">
        <ele>1513.4</ele>
        <time>2020-07-30T13:16:06Z</time>
      </trkpt>
      <trkpt lat="42.3340180" lon="2.0364140">
        <ele>1512.8</ele>
        <time>2020-07-30T13:16:07Z</time>
      </trkpt>
      <trkpt lat="42.3340940" lon="2.0365620">
        <ele>1511.6</ele>
        <time>2020-07-30T13:16:08Z</time>
      </trkpt>
      <trkpt lat="42.3342270" lon="2.0368740">
        <ele>1510.4</ele>
        <time>2020-07-30T13:16:10Z</time>
      </trkpt>
      <trkpt lat="42.3343060" lon="2.0372150">
        <ele>1509.2</ele>
        <time>2020-07-30T13:16:12Z</time>
      </trkpt>
      <trkpt lat="42.3343270" lon="2.0373890">
        <ele>1508.6</ele>
        <time>2020-07-30T13:16:13Z</time>
      </trkpt>
      <trkpt lat="42.3343450" lon="2.0375630">
        <ele>1507.8</ele>
        <time>2020-07-30T13:16:14Z</time>
      </trkpt>
      <trkpt lat="42.3344000" lon="2.0379020">
        <ele>1506.2</ele>
        <time>2020-07-30T13:16:16Z</time>
      </trkpt>
      <trkpt lat="42.3344400" lon="2.0380660">
        <ele>1505.2</ele>
        <time>2020-07-30T13:16:17Z</time>
      </trkpt>
      <trkpt lat="42.3344870" lon="2.0382270">
        <ele>1504.0</ele>
        <time>2020-07-30T13:16:18Z</time>
      </trkpt>
      <trkpt lat="42.3345460" lon="2.0383830">
        <ele>1503.0</ele>
        <time>2020-07-30T13:16:19Z</time>
      </trkpt>
      <trkpt lat="42.3347010" lon="2.0386680">
        <ele>1501.6</ele>
        <time>2020-07-30T13:16:21Z</time>
      </trkpt>
      <trkpt lat="42.3349980" lon="2.0390120">
        <ele>1501.0</ele>
        <time>2020-07-30T13:16:24Z</time>
      </trkpt>
      <trkpt lat="42.3351060" lon="2.0391080">
        <ele>1500.8</ele>
        <time>2020-07-30T13:16:25Z</time>
      </trkpt>
      <trkpt lat="42.3352110" lon="2.0392050">
        <ele>1500.4</ele>
        <time>2020-07-30T13:16:26Z</time>
      </trkpt>
      <trkpt lat="42.3353020" lon="2.0393180">
        <ele>1500.0</ele>
        <time>2020-07-30T13:16:27Z</time>
      </trkpt>
      <trkpt lat="42.3353730" lon="2.0394570">
        <ele>1499.4</ele>
        <time>2020-07-30T13:16:28Z</time>
      </trkpt>
      <trkpt lat="42.3354210" lon="2.0396100">
        <ele>1498.8</ele>
        <time>2020-07-30T13:16:29Z</time>
      </trkpt>
      <trkpt lat="42.3354340" lon="2.0397720">
        <ele>1498.2</ele>
        <time>2020-07-30T13:16:30Z</time>
      </trkpt>
      <trkpt lat="42.3354500" lon="2.0399310">
        <ele>1497.4</ele>
        <time>2020-07-30T13:16:31Z</time>
      </trkpt>
      <trkpt lat="42.3355220" lon="2.0402410">
        <ele>1495.8</ele>
        <time>2020-07-30T13:16:33Z</time>
      </trkpt>
      <trkpt lat="42.3356070" lon="2.0405380">
        <ele>1494.2</ele>
        <time>2020-07-30T13:16:35Z</time>
      </trkpt>
      <trkpt lat="42.3357010" lon="2.0408230">
        <ele>1492.8</ele>
        <time>2020-07-30T13:16:37Z</time>
      </trkpt>
      <trkpt lat="42.3357710" lon="2.0411070">
        <ele>1492.2</ele>
        <time>2020-07-30T13:16:39Z</time>
      </trkpt>
      <trkpt lat="42.3357170" lon="2.0413620">
        <ele>1491.4</ele>
        <time>2020-07-30T13:16:41Z</time>
      </trkpt>
      <trkpt lat="42.3355380" lon="2.0414910">
        <ele>1491.0</ele>
        <time>2020-07-30T13:16:43Z</time>
      </trkpt>
      <trkpt lat="42.3353130" lon="2.0414410">
        <ele>1490.6</ele>
        <time>2020-07-30T13:16:45Z</time>
      </trkpt>
      <trkpt lat="42.3352070" lon="2.0414020">
        <ele>1490.4</ele>
        <time>2020-07-30T13:16:46Z</time>
      </trkpt>
      <trkpt lat="42.3350980" lon="2.0413610">
        <ele>1490.2</ele>
        <time>2020-07-30T13:16:47Z</time>
      </trkpt>
      <trkpt lat="42.3346630" lon="2.0411950">
        <ele>1489.0</ele>
        <time>2020-07-30T13:16:51Z</time>
      </trkpt>
      <trkpt lat="42.3343400" lon="2.0410750">
        <ele>1487.8</ele>
        <time>2020-07-30T13:16:54Z</time>
      </trkpt>
      <trkpt lat="42.3341360" lon="2.0410080">
        <ele>1486.6</ele>
        <time>2020-07-30T13:16:56Z</time>
      </trkpt>
      <trkpt lat="42.3340380" lon="2.0409780">
        <ele>1486.0</ele>
        <time>2020-07-30T13:16:57Z</time>
      </trkpt>
      <trkpt lat="42.3339400" lon="2.0409490">
        <ele>1485.6</ele>
        <time>2020-07-30T13:16:58Z</time>
      </trkpt>
      <trkpt lat="42.3333670" lon="2.0407410">
        <ele>1485.0</ele>
        <time>2020-07-30T13:17:04Z</time>
      </trkpt>
      <trkpt lat="42.3329980" lon="2.0404670">
        <ele>1485.0</ele>
        <time>2020-07-30T13:17:09Z</time>
      </trkpt>
      <trkpt lat="42.3325320" lon="2.0399400">
        <ele>1485.0</ele>
        <time>2020-07-30T13:17:15Z</time>
      </trkpt>
      <trkpt lat="42.3322240" lon="2.0395620">
        <ele>1484.8</ele>
        <time>2020-07-30T13:17:19Z</time>
      </trkpt>
      <trkpt lat="42.3321340" lon="2.0394880">
        <ele>1484.4</ele>
        <time>2020-07-30T13:17:20Z</time>
      </trkpt>
      <trkpt lat="42.3318390" lon="2.0393350">
        <ele>1483.2</ele>
        <time>2020-07-30T13:17:23Z</time>
      </trkpt>
      <trkpt lat="42.3316270" lon="2.0393010">
        <ele>1482.2</ele>
        <time>2020-07-30T13:17:25Z</time>
      </trkpt>
      <trkpt lat="42.3315200" lon="2.0392880">
        <ele>1481.6</ele>
        <time>2020-07-30T13:17:26Z</time>
      </trkpt>
      <trkpt lat="42.3313070" lon="2.0392680">
        <ele>1480.4</ele>
        <time>2020-07-30T13:17:28Z</time>
      </trkpt>
      <trkpt lat="42.3309840" lon="2.0392400">
        <ele>1479.4</ele>
        <time>2020-07-30T13:17:31Z</time>
      </trkpt>
      <trkpt lat="42.3306510" lon="2.0392280">
        <ele>1477.8</ele>
        <time>2020-07-30T13:17:34Z</time>
      </trkpt>
      <trkpt lat="42.3304220" lon="2.0392260">
        <ele>1477.0</ele>
        <time>2020-07-30T13:17:36Z</time>
      </trkpt>
      <trkpt lat="42.3301920" lon="2.0392330">
        <ele>1476.6</ele>
        <time>2020-07-30T13:17:38Z</time>
      </trkpt>
      <trkpt lat="42.3298410" lon="2.0392300">
        <ele>1475.6</ele>
        <time>2020-07-30T13:17:41Z</time>
      </trkpt>
      <trkpt lat="42.3296070" lon="2.0392030">
        <ele>1474.6</ele>
        <time>2020-07-30T13:17:43Z</time>
      </trkpt>
      <trkpt lat="42.3293750" lon="2.0391350">
        <ele>1473.6</ele>
        <time>2020-07-30T13:17:45Z</time>
      </trkpt>
      <trkpt lat="42.3291540" lon="2.0390260">
        <ele>1472.8</ele>
        <time>2020-07-30T13:17:47Z</time>
      </trkpt>
      <trkpt lat="42.3289400" lon="2.0388960">
        <ele>1472.2</ele>
        <time>2020-07-30T13:17:49Z</time>
      </trkpt>
      <trkpt lat="42.3285200" lon="2.0386320">
        <ele>1471.2</ele>
        <time>2020-07-30T13:17:53Z</time>
      </trkpt>
      <trkpt lat="42.3283020" lon="2.0385250">
        <ele>1470.4</ele>
        <time>2020-07-30T13:17:55Z</time>
      </trkpt>
      <trkpt lat="42.3281900" lon="2.0384920">
        <ele>1469.6</ele>
        <time>2020-07-30T13:17:56Z</time>
      </trkpt>
      <trkpt lat="42.3278540" lon="2.0384360">
        <ele>1468.8</ele>
        <time>2020-07-30T13:17:59Z</time>
      </trkpt>
      <trkpt lat="42.3277400" lon="2.0384230">
        <ele>1468.4</ele>
        <time>2020-07-30T13:18:00Z</time>
      </trkpt>
      <trkpt lat="42.3273990" lon="2.0383460">
        <ele>1467.4</ele>
        <time>2020-07-30T13:18:03Z</time>
      </trkpt>
      <trkpt lat="42.3272870" lon="2.0383090">
        <ele>1467.0</ele>
        <time>2020-07-30T13:18:04Z</time>
      </trkpt>
      <trkpt lat="42.3269490" lon="2.0382440">
        <ele>1466.0</ele>
        <time>2020-07-30T13:18:07Z</time>
      </trkpt>
      <trkpt lat="42.3268350" lon="2.0382490">
        <ele>1465.6</ele>
        <time>2020-07-30T13:18:08Z</time>
      </trkpt>
      <trkpt lat="42.3266130" lon="2.0383140">
        <ele>1464.8</ele>
        <time>2020-07-30T13:18:10Z</time>
      </trkpt>
      <trkpt lat="42.3265080" lon="2.0383670">
        <ele>1464.6</ele>
        <time>2020-07-30T13:18:11Z</time>
      </trkpt>
      <trkpt lat="42.3264030" lon="2.0384270">
        <ele>1464.0</ele>
        <time>2020-07-30T13:18:12Z</time>
      </trkpt>
      <trkpt lat="42.3262980" lon="2.0384960">
        <ele>1463.6</ele>
        <time>2020-07-30T13:18:13Z</time>
      </trkpt>
      <trkpt lat="42.3261010" lon="2.0386690">
        <ele>1463.0</ele>
        <time>2020-07-30T13:18:15Z</time>
      </trkpt>
      <trkpt lat="42.3260170" lon="2.0387680">
        <ele>1462.8</ele>
        <time>2020-07-30T13:18:16Z</time>
      </trkpt>
      <trkpt lat="42.3259660" lon="2.0388970">
        <ele>1462.6</ele>
        <time>2020-07-30T13:18:17Z</time>
      </trkpt>
      <trkpt lat="42.3259310" lon="2.0390410">
        <ele>1462.2</ele>
        <time>2020-07-30T13:18:18Z</time>
      </trkpt>
      <trkpt lat="42.3258910" lon="2.0393550">
        <ele>1461.6</ele>
        <time>2020-07-30T13:18:20Z</time>
      </trkpt>
      <trkpt lat="42.3259170" lon="2.0394910">
        <ele>1461.2</ele>
        <time>2020-07-30T13:18:21Z</time>
      </trkpt>
      <trkpt lat="42.3260370" lon="2.0397040">
        <ele>1460.2</ele>
        <time>2020-07-30T13:18:23Z</time>
      </trkpt>
      <trkpt lat="42.3261160" lon="2.0397970">
        <ele>1460.0</ele>
        <time>2020-07-30T13:18:24Z</time>
      </trkpt>
      <trkpt lat="42.3261880" lon="2.0399020">
        <ele>1459.8</ele>
        <time>2020-07-30T13:18:25Z</time>
      </trkpt>
      <trkpt lat="42.3262540" lon="2.0400160">
        <ele>1459.6</ele>
        <time>2020-07-30T13:18:26Z</time>
      </trkpt>
      <trkpt lat="42.3263680" lon="2.0404360">
        <ele>1459.4</ele>
        <time>2020-07-30T13:18:29Z</time>
      </trkpt>
      <trkpt lat="42.3263760" lon="2.0407330">
        <ele>1459.0</ele>
        <time>2020-07-30T13:18:31Z</time>
      </trkpt>
      <trkpt lat="42.3263670" lon="2.0408790">
        <ele>1458.6</ele>
        <time>2020-07-30T13:18:32Z</time>
      </trkpt>
      <trkpt lat="42.3263590" lon="2.0410300">
        <ele>1457.8</ele>
        <time>2020-07-30T13:18:33Z</time>
      </trkpt>
      <trkpt lat="42.3263630" lon="2.0413440">
        <ele>1456.6</ele>
        <time>2020-07-30T13:18:35Z</time>
      </trkpt>
      <trkpt lat="42.3263760" lon="2.0415040">
        <ele>1456.2</ele>
        <time>2020-07-30T13:18:36Z</time>
      </trkpt>
      <trkpt lat="42.3264370" lon="2.0418270">
        <ele>1456.0</ele>
        <time>2020-07-30T13:18:38Z</time>
      </trkpt>
      <trkpt lat="42.3264850" lon="2.0419870">
        <ele>1455.8</ele>
        <time>2020-07-30T13:18:39Z</time>
      </trkpt>
      <trkpt lat="42.3265420" lon="2.0421360">
        <ele>1455.6</ele>
        <time>2020-07-30T13:18:40Z</time>
      </trkpt>
      <trkpt lat="42.3266920" lon="2.0423980">
        <ele>1454.8</ele>
        <time>2020-07-30T13:18:42Z</time>
      </trkpt>
      <trkpt lat="42.3267810" lon="2.0425100">
        <ele>1454.4</ele>
        <time>2020-07-30T13:18:43Z</time>
      </trkpt>
      <trkpt lat="42.3269790" lon="2.0427050">
        <ele>1453.4</ele>
        <time>2020-07-30T13:18:45Z</time>
      </trkpt>
      <trkpt lat="42.3271990" lon="2.0428640">
        <ele>1452.0</ele>
        <time>2020-07-30T13:18:47Z</time>
      </trkpt>
      <trkpt lat="42.3274360" lon="2.0430070">
        <ele>1450.8</ele>
        <time>2020-07-30T13:18:49Z</time>
      </trkpt>
      <trkpt lat="42.3275530" lon="2.0430770">
        <ele>1449.2</ele>
        <time>2020-07-30T13:18:50Z</time>
      </trkpt>
      <trkpt lat="42.3277900" lon="2.0432090">
        <ele>1448.2</ele>
        <time>2020-07-30T13:18:52Z</time>
      </trkpt>
      <trkpt lat="42.3280300" lon="2.0433220">
        <ele>1447.0</ele>
        <time>2020-07-30T13:18:54Z</time>
      </trkpt>
      <trkpt lat="42.3281470" lon="2.0433850">
        <ele>1446.6</ele>
        <time>2020-07-30T13:18:55Z</time>
      </trkpt>
      <trkpt lat="42.3283690" lon="2.0435330">
        <ele>1445.6</ele>
        <time>2020-07-30T13:18:57Z</time>
      </trkpt>
      <trkpt lat="42.3284740" lon="2.0436220">
        <ele>1445.4</ele>
        <time>2020-07-30T13:18:58Z</time>
      </trkpt>
      <trkpt lat="42.3285700" lon="2.0437320">
        <ele>1445.2</ele>
        <time>2020-07-30T13:18:59Z</time>
      </trkpt>
      <trkpt lat="42.3287770" lon="2.0441320">
        <ele>1444.6</ele>
        <time>2020-07-30T13:19:02Z</time>
      </trkpt>
      <trkpt lat="42.3288320" lon="2.0442650">
        <ele>1444.4</ele>
        <time>2020-07-30T13:19:03Z</time>
      </trkpt>
      <trkpt lat="42.3288980" lon="2.0443780">
        <ele>1443.8</ele>
        <time>2020-07-30T13:19:04Z</time>
      </trkpt>
      <trkpt lat="42.3289860" lon="2.0444660">
        <ele>1443.4</ele>
        <time>2020-07-30T13:19:05Z</time>
      </trkpt>
      <trkpt lat="42.3290850" lon="2.0445190">
        <ele>1443.0</ele>
        <time>2020-07-30T13:19:06Z</time>
      </trkpt>
      <trkpt lat="42.3292930" lon="2.0445920">
        <ele>1442.4</ele>
        <time>2020-07-30T13:19:08Z</time>
      </trkpt>
      <trkpt lat="42.3293900" lon="2.0446460">
        <ele>1442.2</ele>
        <time>2020-07-30T13:19:09Z</time>
      </trkpt>
      <trkpt lat="42.3295600" lon="2.0448240">
        <ele>1441.8</ele>
        <time>2020-07-30T13:19:11Z</time>
      </trkpt>
      <trkpt lat="42.3296830" lon="2.0452170">
        <ele>1441.2</ele>
        <time>2020-07-30T13:19:14Z</time>
      </trkpt>
      <trkpt lat="42.3298180" lon="2.0456030">
        <ele>1440.8</ele>
        <time>2020-07-30T13:19:17Z</time>
      </trkpt>
      <trkpt lat="42.3298840" lon="2.0457180">
        <ele>1439.8</ele>
        <time>2020-07-30T13:19:18Z</time>
      </trkpt>
      <trkpt lat="42.3300080" lon="2.0459510">
        <ele>1438.6</ele>
        <time>2020-07-30T13:19:20Z</time>
      </trkpt>
      <trkpt lat="42.3300670" lon="2.0462030">
        <ele>1438.2</ele>
        <time>2020-07-30T13:19:22Z</time>
      </trkpt>
      <trkpt lat="42.3300250" lon="2.0464630">
        <ele>1438.0</ele>
        <time>2020-07-30T13:19:24Z</time>
      </trkpt>
      <trkpt lat="42.3299330" lon="2.0467030">
        <ele>1437.6</ele>
        <time>2020-07-30T13:19:26Z</time>
      </trkpt>
      <trkpt lat="42.3298740" lon="2.0468190">
        <ele>1437.4</ele>
        <time>2020-07-30T13:19:27Z</time>
      </trkpt>
      <trkpt lat="42.3296260" lon="2.0471090">
        <ele>1437.0</ele>
        <time>2020-07-30T13:19:30Z</time>
      </trkpt>
      <trkpt lat="42.3294230" lon="2.0472300">
        <ele>1436.8</ele>
        <time>2020-07-30T13:19:32Z</time>
      </trkpt>
      <trkpt lat="42.3292150" lon="2.0473420">
        <ele>1436.6</ele>
        <time>2020-07-30T13:19:34Z</time>
      </trkpt>
      <trkpt lat="42.3289110" lon="2.0475430">
        <ele>1435.4</ele>
        <time>2020-07-30T13:19:37Z</time>
      </trkpt>
      <trkpt lat="42.3288240" lon="2.0476320">
        <ele>1435.0</ele>
        <time>2020-07-30T13:19:38Z</time>
      </trkpt>
      <trkpt lat="42.3287550" lon="2.0477460">
        <ele>1434.8</ele>
        <time>2020-07-30T13:19:39Z</time>
      </trkpt>
      <trkpt lat="42.3286970" lon="2.0480200">
        <ele>1434.2</ele>
        <time>2020-07-30T13:19:41Z</time>
      </trkpt>
      <trkpt lat="42.3287200" lon="2.0483190">
        <ele>1433.2</ele>
        <time>2020-07-30T13:19:43Z</time>
      </trkpt>
      <trkpt lat="42.3287490" lon="2.0484650">
        <ele>1432.8</ele>
        <time>2020-07-30T13:19:44Z</time>
      </trkpt>
      <trkpt lat="42.3287880" lon="2.0486100">
        <ele>1432.0</ele>
        <time>2020-07-30T13:19:45Z</time>
      </trkpt>
      <trkpt lat="42.3289510" lon="2.0490200">
        <ele>1431.0</ele>
        <time>2020-07-30T13:19:48Z</time>
      </trkpt>
      <trkpt lat="42.3290180" lon="2.0491470">
        <ele>1430.8</ele>
        <time>2020-07-30T13:19:49Z</time>
      </trkpt>
      <trkpt lat="42.3290890" lon="2.0492690">
        <ele>1430.4</ele>
        <time>2020-07-30T13:19:50Z</time>
      </trkpt>
      <trkpt lat="42.3292330" lon="2.0495120">
        <ele>1429.4</ele>
        <time>2020-07-30T13:19:52Z</time>
      </trkpt>
      <trkpt lat="42.3293110" lon="2.0496240">
        <ele>1428.6</ele>
        <time>2020-07-30T13:19:53Z</time>
      </trkpt>
      <trkpt lat="42.3293860" lon="2.0497410">
        <ele>1428.0</ele>
        <time>2020-07-30T13:19:54Z</time>
      </trkpt>
      <trkpt lat="42.3296840" lon="2.0502000">
        <ele>1426.8</ele>
        <time>2020-07-30T13:19:58Z</time>
      </trkpt>
      <trkpt lat="42.3298670" lon="2.0503710">
        <ele>1425.6</ele>
        <time>2020-07-30T13:20:00Z</time>
      </trkpt>
      <trkpt lat="42.3299650" lon="2.0504410">
        <ele>1424.8</ele>
        <time>2020-07-30T13:20:01Z</time>
      </trkpt>
      <trkpt lat="42.3300560" lon="2.0505230">
        <ele>1424.2</ele>
        <time>2020-07-30T13:20:02Z</time>
      </trkpt>
      <trkpt lat="42.3301210" lon="2.0506360">
        <ele>1423.8</ele>
        <time>2020-07-30T13:20:03Z</time>
      </trkpt>
      <trkpt lat="42.3301440" lon="2.0509140">
        <ele>1423.2</ele>
        <time>2020-07-30T13:20:05Z</time>
      </trkpt>
      <trkpt lat="42.3299870" lon="2.0512960">
        <ele>1422.4</ele>
        <time>2020-07-30T13:20:08Z</time>
      </trkpt>
      <trkpt lat="42.3299180" lon="2.0514100">
        <ele>1422.2</ele>
        <time>2020-07-30T13:20:09Z</time>
      </trkpt>
      <trkpt lat="42.3298430" lon="2.0515210">
        <ele>1422.0</ele>
        <time>2020-07-30T13:20:10Z</time>
      </trkpt>
      <trkpt lat="42.3296050" lon="2.0518720">
        <ele>1420.8</ele>
        <time>2020-07-30T13:20:13Z</time>
      </trkpt>
      <trkpt lat="42.3294320" lon="2.0520930">
        <ele>1419.8</ele>
        <time>2020-07-30T13:20:15Z</time>
      </trkpt>
      <trkpt lat="42.3292630" lon="2.0523050">
        <ele>1418.4</ele>
        <time>2020-07-30T13:20:17Z</time>
      </trkpt>
      <trkpt lat="42.3291920" lon="2.0524140">
        <ele>1417.6</ele>
        <time>2020-07-30T13:20:18Z</time>
      </trkpt>
      <trkpt lat="42.3291490" lon="2.0525300">
        <ele>1416.6</ele>
        <time>2020-07-30T13:20:19Z</time>
      </trkpt>
      <trkpt lat="42.3291350" lon="2.0526660">
        <ele>1416.0</ele>
        <time>2020-07-30T13:20:20Z</time>
      </trkpt>
      <trkpt lat="42.3291540" lon="2.0527990">
        <ele>1415.2</ele>
        <time>2020-07-30T13:20:21Z</time>
      </trkpt>
      <trkpt lat="42.3291990" lon="2.0529170">
        <ele>1414.2</ele>
        <time>2020-07-30T13:20:22Z</time>
      </trkpt>
      <trkpt lat="42.3292580" lon="2.0530300">
        <ele>1413.8</ele>
        <time>2020-07-30T13:20:23Z</time>
      </trkpt>
      <trkpt lat="42.3293240" lon="2.0531420">
        <ele>1413.4</ele>
        <time>2020-07-30T13:20:24Z</time>
      </trkpt>
      <trkpt lat="42.3294690" lon="2.0533690">
        <ele>1413.0</ele>
        <time>2020-07-30T13:20:26Z</time>
      </trkpt>
      <trkpt lat="42.3296680" lon="2.0537490">
        <ele>1412.6</ele>
        <time>2020-07-30T13:20:29Z</time>
      </trkpt>
      <trkpt lat="42.3297260" lon="2.0538830">
        <ele>1412.2</ele>
        <time>2020-07-30T13:20:30Z</time>
      </trkpt>
      <trkpt lat="42.3298470" lon="2.0541430">
        <ele>1411.4</ele>
        <time>2020-07-30T13:20:32Z</time>
      </trkpt>
      <trkpt lat="42.3299500" lon="2.0544280">
        <ele>1410.2</ele>
        <time>2020-07-30T13:20:34Z</time>
      </trkpt>
      <trkpt lat="42.3299860" lon="2.0545810">
        <ele>1409.6</ele>
        <time>2020-07-30T13:20:35Z</time>
      </trkpt>
      <trkpt lat="42.3300070" lon="2.0547370">
        <ele>1409.0</ele>
        <time>2020-07-30T13:20:36Z</time>
      </trkpt>
      <trkpt lat="42.3300040" lon="2.0550530">
        <ele>1407.8</ele>
        <time>2020-07-30T13:20:38Z</time>
      </trkpt>
      <trkpt lat="42.3299840" lon="2.0552090">
        <ele>1406.4</ele>
        <time>2020-07-30T13:20:39Z</time>
      </trkpt>
      <trkpt lat="42.3299420" lon="2.0556910">
        <ele>1405.2</ele>
        <time>2020-07-30T13:20:42Z</time>
      </trkpt>
      <trkpt lat="42.3299380" lon="2.0561840">
        <ele>1404.0</ele>
        <time>2020-07-30T13:20:45Z</time>
      </trkpt>
      <trkpt lat="42.3299220" lon="2.0565170">
        <ele>1402.4</ele>
        <time>2020-07-30T13:20:47Z</time>
      </trkpt>
      <trkpt lat="42.3299020" lon="2.0566830">
        <ele>1402.2</ele>
        <time>2020-07-30T13:20:48Z</time>
      </trkpt>
      <trkpt lat="42.3297650" lon="2.0571630">
        <ele>1401.4</ele>
        <time>2020-07-30T13:20:51Z</time>
      </trkpt>
      <trkpt lat="42.3296580" lon="2.0574710">
        <ele>1400.4</ele>
        <time>2020-07-30T13:20:53Z</time>
      </trkpt>
      <trkpt lat="42.3295500" lon="2.0577780">
        <ele>1399.4</ele>
        <time>2020-07-30T13:20:55Z</time>
      </trkpt>
      <trkpt lat="42.3294450" lon="2.0580770">
        <ele>1398.2</ele>
        <time>2020-07-30T13:20:57Z</time>
      </trkpt>
      <trkpt lat="42.3293380" lon="2.0583900">
        <ele>1397.0</ele>
        <time>2020-07-30T13:20:59Z</time>
      </trkpt>
      <trkpt lat="42.3292340" lon="2.0586990">
        <ele>1395.4</ele>
        <time>2020-07-30T13:21:01Z</time>
      </trkpt>
      <trkpt lat="42.3291270" lon="2.0589980">
        <ele>1394.2</ele>
        <time>2020-07-30T13:21:03Z</time>
      </trkpt>
      <trkpt lat="42.3290330" lon="2.0592910">
        <ele>1393.0</ele>
        <time>2020-07-30T13:21:05Z</time>
      </trkpt>
      <trkpt lat="42.3290120" lon="2.0596040">
        <ele>1392.0</ele>
        <time>2020-07-30T13:21:07Z</time>
      </trkpt>
      <trkpt lat="42.3290380" lon="2.0597580">
        <ele>1391.2</ele>
        <time>2020-07-30T13:21:08Z</time>
      </trkpt>
      <trkpt lat="42.3290800" lon="2.0599050">
        <ele>1389.8</ele>
        <time>2020-07-30T13:21:09Z</time>
      </trkpt>
      <trkpt lat="42.3291290" lon="2.0600520">
        <ele>1388.6</ele>
        <time>2020-07-30T13:21:10Z</time>
      </trkpt>
      <trkpt lat="42.3291800" lon="2.0601990">
        <ele>1387.6</ele>
        <time>2020-07-30T13:21:11Z</time>
      </trkpt>
      <trkpt lat="42.3292700" lon="2.0605000">
        <ele>1386.6</ele>
        <time>2020-07-30T13:21:13Z</time>
      </trkpt>
      <trkpt lat="42.3292970" lon="2.0606560">
        <ele>1386.2</ele>
        <time>2020-07-30T13:21:14Z</time>
      </trkpt>
      <trkpt lat="42.3293250" lon="2.0611240">
        <ele>1385.2</ele>
        <time>2020-07-30T13:21:17Z</time>
      </trkpt>
      <trkpt lat="42.3294200" lon="2.0613600">
        <ele>1384.4</ele>
        <time>2020-07-30T13:21:19Z</time>
      </trkpt>
      <trkpt lat="42.3295040" lon="2.0614240">
        <ele>1384.2</ele>
        <time>2020-07-30T13:21:20Z</time>
      </trkpt>
      <trkpt lat="42.3296010" lon="2.0614550">
        <ele>1383.6</ele>
        <time>2020-07-30T13:21:21Z</time>
      </trkpt>
      <trkpt lat="42.3298210" lon="2.0614640">
        <ele>1382.4</ele>
        <time>2020-07-30T13:21:23Z</time>
      </trkpt>
      <trkpt lat="42.3300510" lon="2.0614550">
        <ele>1382.0</ele>
        <time>2020-07-30T13:21:25Z</time>
      </trkpt>
      <trkpt lat="42.3302910" lon="2.0614490">
        <ele>1381.6</ele>
        <time>2020-07-30T13:21:27Z</time>
      </trkpt>
      <trkpt lat="42.3306460" lon="2.0614160">
        <ele>1380.0</ele>
        <time>2020-07-30T13:21:30Z</time>
      </trkpt>
      <trkpt lat="42.3308740" lon="2.0613560">
        <ele>1379.4</ele>
        <time>2020-07-30T13:21:32Z</time>
      </trkpt>
      <trkpt lat="42.3309840" lon="2.0613130">
        <ele>1378.6</ele>
        <time>2020-07-30T13:21:33Z</time>
      </trkpt>
      <trkpt lat="42.3313010" lon="2.0611680">
        <ele>1377.2</ele>
        <time>2020-07-30T13:21:36Z</time>
      </trkpt>
      <trkpt lat="42.3314010" lon="2.0611070">
        <ele>1376.6</ele>
        <time>2020-07-30T13:21:37Z</time>
      </trkpt>
      <trkpt lat="42.3316680" lon="2.0609060">
        <ele>1376.2</ele>
        <time>2020-07-30T13:21:40Z</time>
      </trkpt>
      <trkpt lat="42.3317590" lon="2.0608740">
        <ele>1376.0</ele>
        <time>2020-07-30T13:21:41Z</time>
      </trkpt>
      <trkpt lat="42.3319260" lon="2.0609800">
        <ele>1376.0</ele>
        <time>2020-07-30T13:21:43Z</time>
      </trkpt>
      <trkpt lat="42.3320110" lon="2.0611960">
        <ele>1375.0</ele>
        <time>2020-07-30T13:21:45Z</time>
      </trkpt>
      <trkpt lat="42.3320250" lon="2.0613210">
        <ele>1374.6</ele>
        <time>2020-07-30T13:21:46Z</time>
      </trkpt>
      <trkpt lat="42.3319800" lon="2.0617100">
        <ele>1374.2</ele>
        <time>2020-07-30T13:21:49Z</time>
      </trkpt>
      <trkpt lat="42.3318780" lon="2.0621200">
        <ele>1374.0</ele>
        <time>2020-07-30T13:21:52Z</time>
      </trkpt>
      <trkpt lat="42.3318070" lon="2.0624040">
        <ele>1373.6</ele>
        <time>2020-07-30T13:21:54Z</time>
      </trkpt>
      <trkpt lat="42.3316900" lon="2.0628360">
        <ele>1372.6</ele>
        <time>2020-07-30T13:21:57Z</time>
      </trkpt>
      <trkpt lat="42.3316030" lon="2.0631250">
        <ele>1371.0</ele>
        <time>2020-07-30T13:21:59Z</time>
      </trkpt>
      <trkpt lat="42.3315570" lon="2.0632640">
        <ele>1369.8</ele>
        <time>2020-07-30T13:22:00Z</time>
      </trkpt>
      <trkpt lat="42.3315130" lon="2.0634010">
        <ele>1369.0</ele>
        <time>2020-07-30T13:22:01Z</time>
      </trkpt>
      <trkpt lat="42.3314690" lon="2.0635420">
        <ele>1368.2</ele>
        <time>2020-07-30T13:22:02Z</time>
      </trkpt>
      <trkpt lat="42.3313370" lon="2.0639510">
        <ele>1367.2</ele>
        <time>2020-07-30T13:22:05Z</time>
      </trkpt>
      <trkpt lat="42.3312090" lon="2.0643560">
        <ele>1366.0</ele>
        <time>2020-07-30T13:22:08Z</time>
      </trkpt>
      <trkpt lat="42.3311230" lon="2.0646230">
        <ele>1364.6</ele>
        <time>2020-07-30T13:22:10Z</time>
      </trkpt>
      <trkpt lat="42.3309940" lon="2.0650290">
        <ele>1363.2</ele>
        <time>2020-07-30T13:22:13Z</time>
      </trkpt>
      <trkpt lat="42.3309020" lon="2.0652900">
        <ele>1362.2</ele>
        <time>2020-07-30T13:22:15Z</time>
      </trkpt>
      <trkpt lat="42.3308530" lon="2.0654220">
        <ele>1361.8</ele>
        <time>2020-07-30T13:22:16Z</time>
      </trkpt>
      <trkpt lat="42.3306040" lon="2.0660920">
        <ele>1361.4</ele>
        <time>2020-07-30T13:22:21Z</time>
      </trkpt>
      <trkpt lat="42.3305120" lon="2.0663710">
        <ele>1360.8</ele>
        <time>2020-07-30T13:22:23Z</time>
      </trkpt>
      <trkpt lat="42.3304720" lon="2.0665130">
        <ele>1360.8</ele>
        <time>2020-07-30T13:22:24Z</time>
      </trkpt>
      <trkpt lat="42.3304390" lon="2.0666550">
        <ele>1360.6</ele>
        <time>2020-07-30T13:22:25Z</time>
      </trkpt>
      <trkpt lat="42.3304080" lon="2.0669520">
        <ele>1360.2</ele>
        <time>2020-07-30T13:22:27Z</time>
      </trkpt>
      <trkpt lat="42.3304070" lon="2.0671050">
        <ele>1359.8</ele>
        <time>2020-07-30T13:22:28Z</time>
      </trkpt>
      <trkpt lat="42.3304090" lon="2.0672580">
        <ele>1359.2</ele>
        <time>2020-07-30T13:22:29Z</time>
      </trkpt>
      <trkpt lat="42.3304110" lon="2.0674090">
        <ele>1358.6</ele>
        <time>2020-07-30T13:22:30Z</time>
      </trkpt>
      <trkpt lat="42.3304070" lon="2.0678750">
        <ele>1357.2</ele>
        <time>2020-07-30T13:22:33Z</time>
      </trkpt>
      <trkpt lat="42.3304060" lon="2.0683530">
        <ele>1356.2</ele>
        <time>2020-07-30T13:22:36Z</time>
      </trkpt>
      <trkpt lat="42.3304180" lon="2.0685100">
        <ele>1355.6</ele>
        <time>2020-07-30T13:22:37Z</time>
      </trkpt>
      <trkpt lat="42.3304430" lon="2.0686640">
        <ele>1355.0</ele>
        <time>2020-07-30T13:22:38Z</time>
      </trkpt>
      <trkpt lat="42.3305760" lon="2.0691050">
        <ele>1354.2</ele>
        <time>2020-07-30T13:22:41Z</time>
      </trkpt>
      <trkpt lat="42.3306210" lon="2.0692540">
        <ele>1353.6</ele>
        <time>2020-07-30T13:22:42Z</time>
      </trkpt>
      <trkpt lat="42.3306620" lon="2.0694050">
        <ele>1352.8</ele>
        <time>2020-07-30T13:22:43Z</time>
      </trkpt>
      <trkpt lat="42.3307480" lon="2.0698730">
        <ele>1351.4</ele>
        <time>2020-07-30T13:22:46Z</time>
      </trkpt>
      <trkpt lat="42.3308270" lon="2.0703400">
        <ele>1350.4</ele>
        <time>2020-07-30T13:22:49Z</time>
      </trkpt>
      <trkpt lat="42.3308720" lon="2.0706560">
        <ele>1349.2</ele>
        <time>2020-07-30T13:22:51Z</time>
      </trkpt>
      <trkpt lat="42.3309340" lon="2.0709620">
        <ele>1348.6</ele>
        <time>2020-07-30T13:22:53Z</time>
      </trkpt>
      <trkpt lat="42.3309920" lon="2.0710970">
        <ele>1347.8</ele>
        <time>2020-07-30T13:22:54Z</time>
      </trkpt>
      <trkpt lat="42.3311660" lon="2.0713040">
        <ele>1347.4</ele>
        <time>2020-07-30T13:22:56Z</time>
      </trkpt>
      <trkpt lat="42.3313890" lon="2.0714120">
        <ele>1347.0</ele>
        <time>2020-07-30T13:22:58Z</time>
      </trkpt>
      <trkpt lat="42.3315080" lon="2.0714390">
        <ele>1346.8</ele>
        <time>2020-07-30T13:22:59Z</time>
      </trkpt>
      <trkpt lat="42.3317540" lon="2.0714480">
        <ele>1346.6</ele>
        <time>2020-07-30T13:23:01Z</time>
      </trkpt>
      <trkpt lat="42.3320120" lon="2.0714390">
        <ele>1346.2</ele>
        <time>2020-07-30T13:23:03Z</time>
      </trkpt>
      <trkpt lat="42.3322760" lon="2.0714280">
        <ele>1345.8</ele>
        <time>2020-07-30T13:23:05Z</time>
      </trkpt>
      <trkpt lat="42.3326760" lon="2.0714250">
        <ele>1344.6</ele>
        <time>2020-07-30T13:23:08Z</time>
      </trkpt>
      <trkpt lat="42.3329360" lon="2.0714160">
        <ele>1342.4</ele>
        <time>2020-07-30T13:23:10Z</time>
      </trkpt>
      <trkpt lat="42.3330670" lon="2.0714130">
        <ele>1341.4</ele>
        <time>2020-07-30T13:23:11Z</time>
      </trkpt>
      <trkpt lat="42.3333280" lon="2.0714260">
        <ele>1340.2</ele>
        <time>2020-07-30T13:23:13Z</time>
      </trkpt>
      <trkpt lat="42.3335870" lon="2.0714530">
        <ele>1338.8</ele>
        <time>2020-07-30T13:23:15Z</time>
      </trkpt>
      <trkpt lat="42.3337140" lon="2.0714800">
        <ele>1337.8</ele>
        <time>2020-07-30T13:23:16Z</time>
      </trkpt>
      <trkpt lat="42.3339590" lon="2.0715350">
        <ele>1336.8</ele>
        <time>2020-07-30T13:23:18Z</time>
      </trkpt>
      <trkpt lat="42.3341920" lon="2.0716080">
        <ele>1336.0</ele>
        <time>2020-07-30T13:23:20Z</time>
      </trkpt>
      <trkpt lat="42.3342900" lon="2.0716730">
        <ele>1335.2</ele>
        <time>2020-07-30T13:23:21Z</time>
      </trkpt>
      <trkpt lat="42.3343750" lon="2.0718820">
        <ele>1334.4</ele>
        <time>2020-07-30T13:23:23Z</time>
      </trkpt>
      <trkpt lat="42.3343670" lon="2.0719990">
        <ele>1334.0</ele>
        <time>2020-07-30T13:23:24Z</time>
      </trkpt>
      <trkpt lat="42.3343210" lon="2.0721000">
        <ele>1333.6</ele>
        <time>2020-07-30T13:23:25Z</time>
      </trkpt>
      <trkpt lat="42.3341540" lon="2.0721870">
        <ele>1333.2</ele>
        <time>2020-07-30T13:23:27Z</time>
      </trkpt>
      <trkpt lat="42.3340610" lon="2.0722120">
        <ele>1333.2</ele>
        <time>2020-07-30T13:23:28Z</time>
      </trkpt>
      <trkpt lat="42.3338660" lon="2.0722620">
        <ele>1333.0</ele>
        <time>2020-07-30T13:23:30Z</time>
      </trkpt>
      <trkpt lat="42.3336670" lon="2.0723160">
        <ele>1332.8</ele>
        <time>2020-07-30T13:23:32Z</time>
      </trkpt>
      <trkpt lat="42.3334620" lon="2.0723920">
        <ele>1331.8</ele>
        <time>2020-07-30T13:23:34Z</time>
      </trkpt>
      <trkpt lat="42.3332570" lon="2.0724820">
        <ele>1330.4</ele>
        <time>2020-07-30T13:23:36Z</time>
      </trkpt>
      <trkpt lat="42.3330490" lon="2.0725890">
        <ele>1329.2</ele>
        <time>2020-07-30T13:23:38Z</time>
      </trkpt>
      <trkpt lat="42.3328420" lon="2.0727170">
        <ele>1328.0</ele>
        <time>2020-07-30T13:23:40Z</time>
      </trkpt>
      <trkpt lat="42.3326360" lon="2.0728680">
        <ele>1326.4</ele>
        <time>2020-07-30T13:23:42Z</time>
      </trkpt>
      <trkpt lat="42.3325360" lon="2.0729480">
        <ele>1326.0</ele>
        <time>2020-07-30T13:23:43Z</time>
      </trkpt>
      <trkpt lat="42.3324370" lon="2.0730290">
        <ele>1325.6</ele>
        <time>2020-07-30T13:23:44Z</time>
      </trkpt>
      <trkpt lat="42.3323430" lon="2.0731190">
        <ele>1325.2</ele>
        <time>2020-07-30T13:23:45Z</time>
      </trkpt>
      <trkpt lat="42.3322030" lon="2.0733520">
        <ele>1324.8</ele>
        <time>2020-07-30T13:23:47Z</time>
      </trkpt>
      <trkpt lat="42.3321680" lon="2.0734930">
        <ele>1324.2</ele>
        <time>2020-07-30T13:23:48Z</time>
      </trkpt>
      <trkpt lat="42.3321550" lon="2.0736440">
        <ele>1323.0</ele>
        <time>2020-07-30T13:23:49Z</time>
      </trkpt>
      <trkpt lat="42.3321540" lon="2.0738000">
        <ele>1322.6</ele>
        <time>2020-07-30T13:23:50Z</time>
      </trkpt>
      <trkpt lat="42.3321400" lon="2.0739590">
        <ele>1322.4</ele>
        <time>2020-07-30T13:23:51Z</time>
      </trkpt>
      <trkpt lat="42.3320950" lon="2.0741130">
        <ele>1322.0</ele>
        <time>2020-07-30T13:23:52Z</time>
      </trkpt>
      <trkpt lat="42.3319110" lon="2.0742970">
        <ele>1321.4</ele>
        <time>2020-07-30T13:23:54Z</time>
      </trkpt>
      <trkpt lat="42.3316700" lon="2.0742600">
        <ele>1321.2</ele>
        <time>2020-07-30T13:23:56Z</time>
      </trkpt>
      <trkpt lat="42.3313070" lon="2.0741910">
        <ele>1320.6</ele>
        <time>2020-07-30T13:23:59Z</time>
      </trkpt>
      <trkpt lat="42.3311880" lon="2.0742180">
        <ele>1320.2</ele>
        <time>2020-07-30T13:24:00Z</time>
      </trkpt>
      <trkpt lat="42.3310670" lon="2.0742390">
        <ele>1319.2</ele>
        <time>2020-07-30T13:24:01Z</time>
      </trkpt>
      <trkpt lat="42.3309430" lon="2.0742440">
        <ele>1317.4</ele>
        <time>2020-07-30T13:24:02Z</time>
      </trkpt>
      <trkpt lat="42.3308190" lon="2.0742320">
        <ele>1316.2</ele>
        <time>2020-07-30T13:24:03Z</time>
      </trkpt>
      <trkpt lat="42.3306950" lon="2.0742080">
        <ele>1314.8</ele>
        <time>2020-07-30T13:24:04Z</time>
      </trkpt>
      <trkpt lat="42.3305710" lon="2.0741800">
        <ele>1313.4</ele>
        <time>2020-07-30T13:24:05Z</time>
      </trkpt>
      <trkpt lat="42.3304460" lon="2.0741520">
        <ele>1312.2</ele>
        <time>2020-07-30T13:24:06Z</time>
      </trkpt>
      <trkpt lat="42.3301970" lon="2.0741110">
        <ele>1311.2</ele>
        <time>2020-07-30T13:24:08Z</time>
      </trkpt>
      <trkpt lat="42.3300710" lon="2.0740940">
        <ele>1311.0</ele>
        <time>2020-07-30T13:24:09Z</time>
      </trkpt>
      <trkpt lat="42.3295800" lon="2.0739650">
        <ele>1310.2</ele>
        <time>2020-07-30T13:24:13Z</time>
      </trkpt>
      <trkpt lat="42.3294590" lon="2.0739260">
        <ele>1309.8</ele>
        <time>2020-07-30T13:24:14Z</time>
      </trkpt>
      <trkpt lat="42.3292180" lon="2.0738650">
        <ele>1307.4</ele>
        <time>2020-07-30T13:24:16Z</time>
      </trkpt>
      <trkpt lat="42.3290980" lon="2.0738260">
        <ele>1306.8</ele>
        <time>2020-07-30T13:24:17Z</time>
      </trkpt>
      <trkpt lat="42.3289830" lon="2.0737660">
        <ele>1306.4</ele>
        <time>2020-07-30T13:24:18Z</time>
      </trkpt>
      <trkpt lat="42.3286710" lon="2.0734890">
        <ele>1305.4</ele>
        <time>2020-07-30T13:24:21Z</time>
      </trkpt>
      <trkpt lat="42.3285790" lon="2.0733790">
        <ele>1305.0</ele>
        <time>2020-07-30T13:24:22Z</time>
      </trkpt>
      <trkpt lat="42.3284010" lon="2.0731690">
        <ele>1304.0</ele>
        <time>2020-07-30T13:24:24Z</time>
      </trkpt>
      <trkpt lat="42.3281160" lon="2.0728430">
        <ele>1302.6</ele>
        <time>2020-07-30T13:24:27Z</time>
      </trkpt>
      <trkpt lat="42.3278440" lon="2.0724920">
        <ele>1301.2</ele>
        <time>2020-07-30T13:24:30Z</time>
      </trkpt>
      <trkpt lat="42.3277690" lon="2.0723550">
        <ele>1300.8</ele>
        <time>2020-07-30T13:24:31Z</time>
      </trkpt>
      <trkpt lat="42.3276990" lon="2.0722120">
        <ele>1300.4</ele>
        <time>2020-07-30T13:24:32Z</time>
      </trkpt>
      <trkpt lat="42.3276310" lon="2.0720770">
        <ele>1300.0</ele>
        <time>2020-07-30T13:24:33Z</time>
      </trkpt>
      <trkpt lat="42.3275580" lon="2.0719590">
        <ele>1299.6</ele>
        <time>2020-07-30T13:24:34Z</time>
      </trkpt>
      <trkpt lat="42.3274760" lon="2.0718670">
        <ele>1298.8</ele>
        <time>2020-07-30T13:24:35Z</time>
      </trkpt>
      <trkpt lat="42.3272780" lon="2.0717150">
        <ele>1297.8</ele>
        <time>2020-07-30T13:24:37Z</time>
      </trkpt>
      <trkpt lat="42.3271690" lon="2.0716740">
        <ele>1297.4</ele>
        <time>2020-07-30T13:24:38Z</time>
      </trkpt>
      <trkpt lat="42.3269530" lon="2.0716640">
        <ele>1296.8</ele>
        <time>2020-07-30T13:24:40Z</time>
      </trkpt>
      <trkpt lat="42.3268510" lon="2.0717010">
        <ele>1296.4</ele>
        <time>2020-07-30T13:24:41Z</time>
      </trkpt>
      <trkpt lat="42.3266600" lon="2.0718290">
        <ele>1295.0</ele>
        <time>2020-07-30T13:24:43Z</time>
      </trkpt>
      <trkpt lat="42.3265770" lon="2.0719180">
        <ele>1294.0</ele>
        <time>2020-07-30T13:24:44Z</time>
      </trkpt>
      <trkpt lat="42.3264230" lon="2.0721270">
        <ele>1292.6</ele>
        <time>2020-07-30T13:24:46Z</time>
      </trkpt>
      <trkpt lat="42.3262820" lon="2.0723620">
        <ele>1291.2</ele>
        <time>2020-07-30T13:24:48Z</time>
      </trkpt>
      <trkpt lat="42.3260180" lon="2.0728950">
        <ele>1290.2</ele>
        <time>2020-07-30T13:24:52Z</time>
      </trkpt>
      <trkpt lat="42.3258220" lon="2.0733180">
        <ele>1289.2</ele>
        <time>2020-07-30T13:24:55Z</time>
      </trkpt>
      <trkpt lat="42.3257040" lon="2.0736150">
        <ele>1288.0</ele>
        <time>2020-07-30T13:24:57Z</time>
      </trkpt>
      <trkpt lat="42.3255920" lon="2.0739270">
        <ele>1286.4</ele>
        <time>2020-07-30T13:24:59Z</time>
      </trkpt>
      <trkpt lat="42.3255400" lon="2.0740870">
        <ele>1285.6</ele>
        <time>2020-07-30T13:25:00Z</time>
      </trkpt>
      <trkpt lat="42.3254940" lon="2.0742520">
        <ele>1285.0</ele>
        <time>2020-07-30T13:25:01Z</time>
      </trkpt>
      <trkpt lat="42.3254320" lon="2.0745980">
        <ele>1284.4</ele>
        <time>2020-07-30T13:25:03Z</time>
      </trkpt>
      <trkpt lat="42.3254220" lon="2.0747750">
        <ele>1284.2</ele>
        <time>2020-07-30T13:25:04Z</time>
      </trkpt>
      <trkpt lat="42.3254280" lon="2.0749520">
        <ele>1283.8</ele>
        <time>2020-07-30T13:25:05Z</time>
      </trkpt>
      <trkpt lat="42.3254830" lon="2.0752930">
        <ele>1282.4</ele>
        <time>2020-07-30T13:25:07Z</time>
      </trkpt>
      <trkpt lat="42.3255940" lon="2.0756020">
        <ele>1281.2</ele>
        <time>2020-07-30T13:25:09Z</time>
      </trkpt>
      <trkpt lat="42.3256710" lon="2.0757360">
        <ele>1280.2</ele>
        <time>2020-07-30T13:25:10Z</time>
      </trkpt>
      <trkpt lat="42.3257680" lon="2.0758420">
        <ele>1279.6</ele>
        <time>2020-07-30T13:25:11Z</time>
      </trkpt>
      <trkpt lat="42.3258770" lon="2.0759230">
        <ele>1279.2</ele>
        <time>2020-07-30T13:25:12Z</time>
      </trkpt>
      <trkpt lat="42.3261120" lon="2.0760510">
        <ele>1278.4</ele>
        <time>2020-07-30T13:25:14Z</time>
      </trkpt>
      <trkpt lat="42.3264700" lon="2.0762230">
        <ele>1278.0</ele>
        <time>2020-07-30T13:25:17Z</time>
      </trkpt>
      <trkpt lat="42.3265900" lon="2.0762780">
        <ele>1277.6</ele>
        <time>2020-07-30T13:25:18Z</time>
      </trkpt>
      <trkpt lat="42.3269430" lon="2.0764300">
        <ele>1276.2</ele>
        <time>2020-07-30T13:25:21Z</time>
      </trkpt>
      <trkpt lat="42.3271710" lon="2.0765260">
        <ele>1275.2</ele>
        <time>2020-07-30T13:25:23Z</time>
      </trkpt>
      <trkpt lat="42.3276100" lon="2.0767110">
        <ele>1273.4</ele>
        <time>2020-07-30T13:25:27Z</time>
      </trkpt>
      <trkpt lat="42.3277000" lon="2.0767810">
        <ele>1273.0</ele>
        <time>2020-07-30T13:25:28Z</time>
      </trkpt>
      <trkpt lat="42.3277700" lon="2.0770190">
        <ele>1272.6</ele>
        <time>2020-07-30T13:25:30Z</time>
      </trkpt>
      <trkpt lat="42.3277450" lon="2.0771430">
        <ele>1272.4</ele>
        <time>2020-07-30T13:25:31Z</time>
      </trkpt>
      <trkpt lat="42.3276900" lon="2.0772500">
        <ele>1272.2</ele>
        <time>2020-07-30T13:25:32Z</time>
      </trkpt>
      <trkpt lat="42.3275230" lon="2.0774090">
        <ele>1271.0</ele>
        <time>2020-07-30T13:25:34Z</time>
      </trkpt>
      <trkpt lat="42.3274280" lon="2.0774700">
        <ele>1270.6</ele>
        <time>2020-07-30T13:25:35Z</time>
      </trkpt>
      <trkpt lat="42.3273300" lon="2.0775320">
        <ele>1270.2</ele>
        <time>2020-07-30T13:25:36Z</time>
      </trkpt>
      <trkpt lat="42.3272320" lon="2.0775930">
        <ele>1270.0</ele>
        <time>2020-07-30T13:25:37Z</time>
      </trkpt>
      <trkpt lat="42.3271330" lon="2.0776540">
        <ele>1268.2</ele>
        <time>2020-07-30T13:25:38Z</time>
      </trkpt>
      <trkpt lat="42.3269330" lon="2.0777870">
        <ele>1267.0</ele>
        <time>2020-07-30T13:25:40Z</time>
      </trkpt>
      <trkpt lat="42.3267310" lon="2.0779190">
        <ele>1266.0</ele>
        <time>2020-07-30T13:25:42Z</time>
      </trkpt>
      <trkpt lat="42.3266330" lon="2.0779940">
        <ele>1265.6</ele>
        <time>2020-07-30T13:25:43Z</time>
      </trkpt>
      <trkpt lat="42.3264500" lon="2.0781830">
        <ele>1265.0</ele>
        <time>2020-07-30T13:25:45Z</time>
      </trkpt>
      <trkpt lat="42.3263740" lon="2.0782960">
        <ele>1264.2</ele>
        <time>2020-07-30T13:25:46Z</time>
      </trkpt>
      <trkpt lat="42.3262880" lon="2.0785650">
        <ele>1263.0</ele>
        <time>2020-07-30T13:25:48Z</time>
      </trkpt>
      <trkpt lat="42.3263020" lon="2.0788700">
        <ele>1262.4</ele>
        <time>2020-07-30T13:25:50Z</time>
      </trkpt>
      <trkpt lat="42.3263710" lon="2.0791850">
        <ele>1261.6</ele>
        <time>2020-07-30T13:25:52Z</time>
      </trkpt>
      <trkpt lat="42.3264430" lon="2.0795030">
        <ele>1260.6</ele>
        <time>2020-07-30T13:25:54Z</time>
      </trkpt>
      <trkpt lat="42.3264550" lon="2.0796690">
        <ele>1260.4</ele>
        <time>2020-07-30T13:25:55Z</time>
      </trkpt>
      <trkpt lat="42.3264440" lon="2.0798300">
        <ele>1259.8</ele>
        <time>2020-07-30T13:25:56Z</time>
      </trkpt>
      <trkpt lat="42.3263760" lon="2.0801440">
        <ele>1259.4</ele>
        <time>2020-07-30T13:25:58Z</time>
      </trkpt>
      <trkpt lat="42.3263000" lon="2.0804590">
        <ele>1258.6</ele>
        <time>2020-07-30T13:26:00Z</time>
      </trkpt>
      <trkpt lat="42.3262670" lon="2.0806220">
        <ele>1258.0</ele>
        <time>2020-07-30T13:26:01Z</time>
      </trkpt>
      <trkpt lat="42.3262330" lon="2.0809590">
        <ele>1256.8</ele>
        <time>2020-07-30T13:26:03Z</time>
      </trkpt>
      <trkpt lat="42.3262390" lon="2.0811290">
        <ele>1256.0</ele>
        <time>2020-07-30T13:26:04Z</time>
      </trkpt>
      <trkpt lat="42.3262640" lon="2.0812960">
        <ele>1255.4</ele>
        <time>2020-07-30T13:26:05Z</time>
      </trkpt>
      <trkpt lat="42.3263460" lon="2.0816130">
        <ele>1254.2</ele>
        <time>2020-07-30T13:26:07Z</time>
      </trkpt>
      <trkpt lat="42.3264870" lon="2.0820810">
        <ele>1252.6</ele>
        <time>2020-07-30T13:26:10Z</time>
      </trkpt>
      <trkpt lat="42.3265010" lon="2.0822530">
        <ele>1252.0</ele>
        <time>2020-07-30T13:26:11Z</time>
      </trkpt>
      <trkpt lat="42.3264870" lon="2.0824200">
        <ele>1251.4</ele>
        <time>2020-07-30T13:26:12Z</time>
      </trkpt>
      <trkpt lat="42.3264430" lon="2.0825780">
        <ele>1251.0</ele>
        <time>2020-07-30T13:26:13Z</time>
      </trkpt>
      <trkpt lat="42.3263000" lon="2.0828590">
        <ele>1250.0</ele>
        <time>2020-07-30T13:26:15Z</time>
      </trkpt>
      <trkpt lat="42.3262230" lon="2.0829930">
        <ele>1249.4</ele>
        <time>2020-07-30T13:26:16Z</time>
      </trkpt>
      <trkpt lat="42.3261550" lon="2.0831340">
        <ele>1249.0</ele>
        <time>2020-07-30T13:26:17Z</time>
      </trkpt>
      <trkpt lat="42.3260780" lon="2.0834500">
        <ele>1247.6</ele>
        <time>2020-07-30T13:26:19Z</time>
      </trkpt>
      <trkpt lat="42.3261150" lon="2.0837840">
        <ele>1245.6</ele>
        <time>2020-07-30T13:26:21Z</time>
      </trkpt>
      <trkpt lat="42.3262210" lon="2.0841070">
        <ele>1244.2</ele>
        <time>2020-07-30T13:26:23Z</time>
      </trkpt>
      <trkpt lat="42.3263150" lon="2.0844420">
        <ele>1243.2</ele>
        <time>2020-07-30T13:26:25Z</time>
      </trkpt>
      <trkpt lat="42.3263590" lon="2.0849820">
        <ele>1242.2</ele>
        <time>2020-07-30T13:26:28Z</time>
      </trkpt>
      <trkpt lat="42.3263550" lon="2.0851620">
        <ele>1241.6</ele>
        <time>2020-07-30T13:26:29Z</time>
      </trkpt>
      <trkpt lat="42.3263520" lon="2.0853450">
        <ele>1240.6</ele>
        <time>2020-07-30T13:26:30Z</time>
      </trkpt>
      <trkpt lat="42.3263620" lon="2.0855260">
        <ele>1239.6</ele>
        <time>2020-07-30T13:26:31Z</time>
      </trkpt>
      <trkpt lat="42.3263920" lon="2.0857010">
        <ele>1238.8</ele>
        <time>2020-07-30T13:26:32Z</time>
      </trkpt>
      <trkpt lat="42.3264490" lon="2.0858590">
        <ele>1237.8</ele>
        <time>2020-07-30T13:26:33Z</time>
      </trkpt>
      <trkpt lat="42.3265340" lon="2.0859960">
        <ele>1237.0</ele>
        <time>2020-07-30T13:26:34Z</time>
      </trkpt>
      <trkpt lat="42.3266300" lon="2.0861210">
        <ele>1236.2</ele>
        <time>2020-07-30T13:26:35Z</time>
      </trkpt>
      <trkpt lat="42.3267250" lon="2.0862400">
        <ele>1235.6</ele>
        <time>2020-07-30T13:26:36Z</time>
      </trkpt>
      <trkpt lat="42.3268110" lon="2.0863620">
        <ele>1235.0</ele>
        <time>2020-07-30T13:26:37Z</time>
      </trkpt>
      <trkpt lat="42.3269060" lon="2.0866190">
        <ele>1233.8</ele>
        <time>2020-07-30T13:26:39Z</time>
      </trkpt>
      <trkpt lat="42.3268230" lon="2.0868200">
        <ele>1232.6</ele>
        <time>2020-07-30T13:26:41Z</time>
      </trkpt>
      <trkpt lat="42.3266470" lon="2.0868880">
        <ele>1231.4</ele>
        <time>2020-07-30T13:26:43Z</time>
      </trkpt>
      <trkpt lat="42.3264380" lon="2.0868960">
        <ele>1230.6</ele>
        <time>2020-07-30T13:26:45Z</time>
      </trkpt>
      <trkpt lat="42.3262110" lon="2.0869000">
        <ele>1230.2</ele>
        <time>2020-07-30T13:26:47Z</time>
      </trkpt>
      <trkpt lat="42.3259840" lon="2.0869200">
        <ele>1230.0</ele>
        <time>2020-07-30T13:26:49Z</time>
      </trkpt>
      <trkpt lat="42.3257670" lon="2.0870400">
        <ele>1229.4</ele>
        <time>2020-07-30T13:26:51Z</time>
      </trkpt>
      <trkpt lat="42.3256780" lon="2.0871300">
        <ele>1229.0</ele>
        <time>2020-07-30T13:26:52Z</time>
      </trkpt>
      <trkpt lat="42.3255290" lon="2.0873580">
        <ele>1227.6</ele>
        <time>2020-07-30T13:26:54Z</time>
      </trkpt>
      <trkpt lat="42.3254620" lon="2.0874860">
        <ele>1226.8</ele>
        <time>2020-07-30T13:26:55Z</time>
      </trkpt>
      <trkpt lat="42.3253940" lon="2.0876140">
        <ele>1226.2</ele>
        <time>2020-07-30T13:26:56Z</time>
      </trkpt>
      <trkpt lat="42.3252580" lon="2.0878770">
        <ele>1225.2</ele>
        <time>2020-07-30T13:26:58Z</time>
      </trkpt>
      <trkpt lat="42.3251240" lon="2.0881450">
        <ele>1223.4</ele>
        <time>2020-07-30T13:27:00Z</time>
      </trkpt>
      <trkpt lat="42.3249910" lon="2.0884140">
        <ele>1222.4</ele>
        <time>2020-07-30T13:27:02Z</time>
      </trkpt>
      <trkpt lat="42.3248620" lon="2.0886870">
        <ele>1221.2</ele>
        <time>2020-07-30T13:27:04Z</time>
      </trkpt>
      <trkpt lat="42.3246900" lon="2.0891150">
        <ele>1220.0</ele>
        <time>2020-07-30T13:27:07Z</time>
      </trkpt>
      <trkpt lat="42.3246380" lon="2.0892640">
        <ele>1219.4</ele>
        <time>2020-07-30T13:27:08Z</time>
      </trkpt>
      <trkpt lat="42.3245860" lon="2.0894120">
        <ele>1218.8</ele>
        <time>2020-07-30T13:27:09Z</time>
      </trkpt>
      <trkpt lat="42.3244830" lon="2.0897100">
        <ele>1217.6</ele>
        <time>2020-07-30T13:27:11Z</time>
      </trkpt>
      <trkpt lat="42.3243840" lon="2.0900110">
        <ele>1216.6</ele>
        <time>2020-07-30T13:27:13Z</time>
      </trkpt>
      <trkpt lat="42.3242950" lon="2.0903190">
        <ele>1215.6</ele>
        <time>2020-07-30T13:27:15Z</time>
      </trkpt>
      <trkpt lat="42.3242600" lon="2.0904710">
        <ele>1215.2</ele>
        <time>2020-07-30T13:27:16Z</time>
      </trkpt>
      <trkpt lat="42.3242280" lon="2.0907940">
        <ele>1214.4</ele>
        <time>2020-07-30T13:27:18Z</time>
      </trkpt>
      <trkpt lat="42.3242250" lon="2.0909610">
        <ele>1214.0</ele>
        <time>2020-07-30T13:27:19Z</time>
      </trkpt>
      <trkpt lat="42.3242330" lon="2.0911210">
        <ele>1213.6</ele>
        <time>2020-07-30T13:27:20Z</time>
      </trkpt>
      <trkpt lat="42.3243020" lon="2.0914240">
        <ele>1212.8</ele>
        <time>2020-07-30T13:27:22Z</time>
      </trkpt>
      <trkpt lat="42.3245210" lon="2.0917510">
        <ele>1211.8</ele>
        <time>2020-07-30T13:27:25Z</time>
      </trkpt>
      <trkpt lat="42.3247140" lon="2.0918810">
        <ele>1210.2</ele>
        <time>2020-07-30T13:27:27Z</time>
      </trkpt>
      <trkpt lat="42.3248070" lon="2.0919500">
        <ele>1209.6</ele>
        <time>2020-07-30T13:27:28Z</time>
      </trkpt>
      <trkpt lat="42.3249010" lon="2.0921820">
        <ele>1209.0</ele>
        <time>2020-07-30T13:27:30Z</time>
      </trkpt>
      <trkpt lat="42.3248660" lon="2.0924900">
        <ele>1209.0</ele>
        <time>2020-07-30T13:27:32Z</time>
      </trkpt>
      <trkpt lat="42.3246740" lon="2.0928700">
        <ele>1208.4</ele>
        <time>2020-07-30T13:27:35Z</time>
      </trkpt>
      <trkpt lat="42.3245950" lon="2.0929730">
        <ele>1207.8</ele>
        <time>2020-07-30T13:27:36Z</time>
      </trkpt>
      <trkpt lat="42.3245300" lon="2.0930850">
        <ele>1207.2</ele>
        <time>2020-07-30T13:27:37Z</time>
      </trkpt>
      <trkpt lat="42.3244830" lon="2.0932180">
        <ele>1206.6</ele>
        <time>2020-07-30T13:27:38Z</time>
      </trkpt>
      <trkpt lat="42.3244440" lon="2.0935060">
        <ele>1205.6</ele>
        <time>2020-07-30T13:27:40Z</time>
      </trkpt>
      <trkpt lat="42.3244480" lon="2.0936590">
        <ele>1205.2</ele>
        <time>2020-07-30T13:27:41Z</time>
      </trkpt>
      <trkpt lat="42.3244550" lon="2.0938100">
        <ele>1204.6</ele>
        <time>2020-07-30T13:27:42Z</time>
      </trkpt>
      <trkpt lat="42.3244670" lon="2.0939620">
        <ele>1204.2</ele>
        <time>2020-07-30T13:27:43Z</time>
      </trkpt>
      <trkpt lat="42.3245260" lon="2.0944170">
        <ele>1202.8</ele>
        <time>2020-07-30T13:27:46Z</time>
      </trkpt>
      <trkpt lat="42.3245560" lon="2.0945680">
        <ele>1202.4</ele>
        <time>2020-07-30T13:27:47Z</time>
      </trkpt>
      <trkpt lat="42.3246010" lon="2.0948790">
        <ele>1202.0</ele>
        <time>2020-07-30T13:27:49Z</time>
      </trkpt>
      <trkpt lat="42.3245940" lon="2.0950370">
        <ele>1201.8</ele>
        <time>2020-07-30T13:27:50Z</time>
      </trkpt>
      <trkpt lat="42.3244630" lon="2.0952920">
        <ele>1201.0</ele>
        <time>2020-07-30T13:27:52Z</time>
      </trkpt>
      <trkpt lat="42.3243600" lon="2.0953570">
        <ele>1200.6</ele>
        <time>2020-07-30T13:27:53Z</time>
      </trkpt>
      <trkpt lat="42.3242470" lon="2.0953840">
        <ele>1199.8</ele>
        <time>2020-07-30T13:27:54Z</time>
      </trkpt>
      <trkpt lat="42.3241290" lon="2.0953920">
        <ele>1198.8</ele>
        <time>2020-07-30T13:27:55Z</time>
      </trkpt>
      <trkpt lat="42.3240100" lon="2.0953910">
        <ele>1198.4</ele>
        <time>2020-07-30T13:27:56Z</time>
      </trkpt>
      <trkpt lat="42.3238910" lon="2.0953790">
        <ele>1198.2</ele>
        <time>2020-07-30T13:27:57Z</time>
      </trkpt>
      <trkpt lat="42.3237740" lon="2.0953510">
        <ele>1197.6</ele>
        <time>2020-07-30T13:27:58Z</time>
      </trkpt>
      <trkpt lat="42.3235380" lon="2.0952420">
        <ele>1196.0</ele>
        <time>2020-07-30T13:28:00Z</time>
      </trkpt>
      <trkpt lat="42.3234150" lon="2.0951810">
        <ele>1195.2</ele>
        <time>2020-07-30T13:28:01Z</time>
      </trkpt>
      <trkpt lat="42.3232910" lon="2.0951280">
        <ele>1194.4</ele>
        <time>2020-07-30T13:28:02Z</time>
      </trkpt>
      <trkpt lat="42.3230410" lon="2.0950190">
        <ele>1193.0</ele>
        <time>2020-07-30T13:28:04Z</time>
      </trkpt>
      <trkpt lat="42.3229090" lon="2.0949680">
        <ele>1192.0</ele>
        <time>2020-07-30T13:28:05Z</time>
      </trkpt>
      <trkpt lat="42.3227730" lon="2.0949310">
        <ele>1190.8</ele>
        <time>2020-07-30T13:28:06Z</time>
      </trkpt>
      <trkpt lat="42.3226330" lon="2.0949130">
        <ele>1189.8</ele>
        <time>2020-07-30T13:28:07Z</time>
      </trkpt>
      <trkpt lat="42.3224940" lon="2.0949140">
        <ele>1188.6</ele>
        <time>2020-07-30T13:28:08Z</time>
      </trkpt>
      <trkpt lat="42.3223570" lon="2.0949370">
        <ele>1187.4</ele>
        <time>2020-07-30T13:28:09Z</time>
      </trkpt>
      <trkpt lat="42.3222210" lon="2.0949830">
        <ele>1186.4</ele>
        <time>2020-07-30T13:28:10Z</time>
      </trkpt>
      <trkpt lat="42.3219740" lon="2.0951220">
        <ele>1184.4</ele>
        <time>2020-07-30T13:28:12Z</time>
      </trkpt>
      <trkpt lat="42.3218590" lon="2.0952100">
        <ele>1183.4</ele>
        <time>2020-07-30T13:28:13Z</time>
      </trkpt>
      <trkpt lat="42.3217500" lon="2.0953070">
        <ele>1182.4</ele>
        <time>2020-07-30T13:28:14Z</time>
      </trkpt>
      <trkpt lat="42.3216450" lon="2.0954130">
        <ele>1181.4</ele>
        <time>2020-07-30T13:28:15Z</time>
      </trkpt>
      <trkpt lat="42.3215490" lon="2.0955280">
        <ele>1180.4</ele>
        <time>2020-07-30T13:28:16Z</time>
      </trkpt>
      <trkpt lat="42.3214630" lon="2.0956510">
        <ele>1179.2</ele>
        <time>2020-07-30T13:28:17Z</time>
      </trkpt>
      <trkpt lat="42.3213310" lon="2.0959370">
        <ele>1177.6</ele>
        <time>2020-07-30T13:28:19Z</time>
      </trkpt>
      <trkpt lat="42.3212850" lon="2.0960900">
        <ele>1177.0</ele>
        <time>2020-07-30T13:28:20Z</time>
      </trkpt>
      <trkpt lat="42.3212400" lon="2.0962430">
        <ele>1176.6</ele>
        <time>2020-07-30T13:28:21Z</time>
      </trkpt>
      <trkpt lat="42.3211840" lon="2.0963920">
        <ele>1175.6</ele>
        <time>2020-07-30T13:28:22Z</time>
      </trkpt>
      <trkpt lat="42.3211120" lon="2.0965320">
        <ele>1175.0</ele>
        <time>2020-07-30T13:28:23Z</time>
      </trkpt>
      <trkpt lat="42.3209250" lon="2.0967450">
        <ele>1174.4</ele>
        <time>2020-07-30T13:28:25Z</time>
      </trkpt>
      <trkpt lat="42.3208230" lon="2.0968320">
        <ele>1174.0</ele>
        <time>2020-07-30T13:28:26Z</time>
      </trkpt>
      <trkpt lat="42.3206360" lon="2.0970230">
        <ele>1173.0</ele>
        <time>2020-07-30T13:28:28Z</time>
      </trkpt>
      <trkpt lat="42.3205600" lon="2.0971390">
        <ele>1172.6</ele>
        <time>2020-07-30T13:28:29Z</time>
      </trkpt>
      <trkpt lat="42.3204450" lon="2.0974050">
        <ele>1171.6</ele>
        <time>2020-07-30T13:28:31Z</time>
      </trkpt>
      <trkpt lat="42.3204090" lon="2.0975510">
        <ele>1170.8</ele>
        <time>2020-07-30T13:28:32Z</time>
      </trkpt>
      <trkpt lat="42.3203960" lon="2.0977020">
        <ele>1170.2</ele>
        <time>2020-07-30T13:28:33Z</time>
      </trkpt>
      <trkpt lat="42.3204120" lon="2.0978540">
        <ele>1169.8</ele>
        <time>2020-07-30T13:28:34Z</time>
      </trkpt>
      <trkpt lat="42.3205140" lon="2.0981150">
        <ele>1168.8</ele>
        <time>2020-07-30T13:28:36Z</time>
      </trkpt>
      <trkpt lat="42.3207700" lon="2.0983880">
        <ele>1168.0</ele>
        <time>2020-07-30T13:28:39Z</time>
      </trkpt>
      <trkpt lat="42.3208660" lon="2.0984640">
        <ele>1167.8</ele>
        <time>2020-07-30T13:28:40Z</time>
      </trkpt>
      <trkpt lat="42.3209660" lon="2.0985400">
        <ele>1167.8</ele>
        <time>2020-07-30T13:28:41Z</time>
      </trkpt>
      <trkpt lat="42.3211600" lon="2.0987110">
        <ele>1167.6</ele>
        <time>2020-07-30T13:28:43Z</time>
      </trkpt>
      <trkpt lat="42.3214550" lon="2.0989930">
        <ele>1167.0</ele>
        <time>2020-07-30T13:28:46Z</time>
      </trkpt>
      <trkpt lat="42.3215660" lon="2.0990680">
        <ele>1166.2</ele>
        <time>2020-07-30T13:28:47Z</time>
      </trkpt>
      <trkpt lat="42.3217800" lon="2.0992260">
        <ele>1163.8</ele>
        <time>2020-07-30T13:28:49Z</time>
      </trkpt>
      <trkpt lat="42.3218630" lon="2.0993420">
        <ele>1163.2</ele>
        <time>2020-07-30T13:28:50Z</time>
      </trkpt>
      <trkpt lat="42.3219260" lon="2.0994840">
        <ele>1162.6</ele>
        <time>2020-07-30T13:28:51Z</time>
      </trkpt>
      <trkpt lat="42.3219630" lon="2.0996460">
        <ele>1162.0</ele>
        <time>2020-07-30T13:28:52Z</time>
      </trkpt>
      <trkpt lat="42.3219680" lon="2.0998150">
        <ele>1161.4</ele>
        <time>2020-07-30T13:28:53Z</time>
      </trkpt>
      <trkpt lat="42.3219340" lon="2.0999790">
        <ele>1161.0</ele>
        <time>2020-07-30T13:28:54Z</time>
      </trkpt>
      <trkpt lat="42.3217840" lon="2.1002230">
        <ele>1160.4</ele>
        <time>2020-07-30T13:28:56Z</time>
      </trkpt>
      <trkpt lat="42.3215730" lon="2.1002890">
        <ele>1158.8</ele>
        <time>2020-07-30T13:28:58Z</time>
      </trkpt>
      <trkpt lat="42.3213510" lon="2.1002770">
        <ele>1157.6</ele>
        <time>2020-07-30T13:29:00Z</time>
      </trkpt>
      <trkpt lat="42.3212430" lon="2.1002550">
        <ele>1157.2</ele>
        <time>2020-07-30T13:29:01Z</time>
      </trkpt>
      <trkpt lat="42.3211310" lon="2.1002290">
        <ele>1156.8</ele>
        <time>2020-07-30T13:29:02Z</time>
      </trkpt>
      <trkpt lat="42.3210120" lon="2.1001980">
        <ele>1156.0</ele>
        <time>2020-07-30T13:29:03Z</time>
      </trkpt>
      <trkpt lat="42.3207720" lon="2.1001470">
        <ele>1154.6</ele>
        <time>2020-07-30T13:29:05Z</time>
      </trkpt>
      <trkpt lat="42.3206500" lon="2.1001360">
        <ele>1154.2</ele>
        <time>2020-07-30T13:29:06Z</time>
      </trkpt>
      <trkpt lat="42.3204150" lon="2.1001510">
        <ele>1153.4</ele>
        <time>2020-07-30T13:29:08Z</time>
      </trkpt>
      <trkpt lat="42.3201990" lon="2.1002350">
        <ele>1152.6</ele>
        <time>2020-07-30T13:29:10Z</time>
      </trkpt>
      <trkpt lat="42.3201080" lon="2.1003100">
        <ele>1152.2</ele>
        <time>2020-07-30T13:29:11Z</time>
      </trkpt>
      <trkpt lat="42.3199730" lon="2.1005200">
        <ele>1151.4</ele>
        <time>2020-07-30T13:29:13Z</time>
      </trkpt>
      <trkpt lat="42.3199220" lon="2.1006490">
        <ele>1151.2</ele>
        <time>2020-07-30T13:29:14Z</time>
      </trkpt>
      <trkpt lat="42.3198740" lon="2.1007810">
        <ele>1150.8</ele>
        <time>2020-07-30T13:29:15Z</time>
      </trkpt>
      <trkpt lat="42.3197740" lon="2.1010490">
        <ele>1149.6</ele>
        <time>2020-07-30T13:29:17Z</time>
      </trkpt>
      <trkpt lat="42.3195090" lon="2.1015220">
        <ele>1148.4</ele>
        <time>2020-07-30T13:29:21Z</time>
      </trkpt>
      <trkpt lat="42.3192520" lon="2.1017890">
        <ele>1147.6</ele>
        <time>2020-07-30T13:29:24Z</time>
      </trkpt>
      <trkpt lat="42.3191580" lon="2.1018660">
        <ele>1147.2</ele>
        <time>2020-07-30T13:29:25Z</time>
      </trkpt>
      <trkpt lat="42.3190640" lon="2.1019330">
        <ele>1146.4</ele>
        <time>2020-07-30T13:29:26Z</time>
      </trkpt>
      <trkpt lat="42.3186720" lon="2.1021890">
        <ele>1145.6</ele>
        <time>2020-07-30T13:29:30Z</time>
      </trkpt>
      <trkpt lat="42.3185790" lon="2.1022590">
        <ele>1145.2</ele>
        <time>2020-07-30T13:29:31Z</time>
      </trkpt>
      <trkpt lat="42.3183260" lon="2.1025080">
        <ele>1144.8</ele>
        <time>2020-07-30T13:29:34Z</time>
      </trkpt>
      <trkpt lat="42.3182520" lon="2.1026060">
        <ele>1144.6</ele>
        <time>2020-07-30T13:29:35Z</time>
      </trkpt>
      <trkpt lat="42.3181900" lon="2.1027180">
        <ele>1144.0</ele>
        <time>2020-07-30T13:29:36Z</time>
      </trkpt>
      <trkpt lat="42.3181430" lon="2.1028420">
        <ele>1143.6</ele>
        <time>2020-07-30T13:29:37Z</time>
      </trkpt>
      <trkpt lat="42.3181070" lon="2.1029750">
        <ele>1143.2</ele>
        <time>2020-07-30T13:29:38Z</time>
      </trkpt>
      <trkpt lat="42.3180830" lon="2.1032540">
        <ele>1142.6</ele>
        <time>2020-07-30T13:29:40Z</time>
      </trkpt>
      <trkpt lat="42.3181110" lon="2.1035350">
        <ele>1142.4</ele>
        <time>2020-07-30T13:29:42Z</time>
      </trkpt>
      <trkpt lat="42.3181270" lon="2.1036810">
        <ele>1142.2</ele>
        <time>2020-07-30T13:29:43Z</time>
      </trkpt>
      <trkpt lat="42.3181450" lon="2.1038270">
        <ele>1141.4</ele>
        <time>2020-07-30T13:29:44Z</time>
      </trkpt>
      <trkpt lat="42.3181650" lon="2.1039730">
        <ele>1140.6</ele>
        <time>2020-07-30T13:29:45Z</time>
      </trkpt>
      <trkpt lat="42.3182120" lon="2.1042620">
        <ele>1139.6</ele>
        <time>2020-07-30T13:29:47Z</time>
      </trkpt>
      <trkpt lat="42.3183190" lon="2.1044780">
        <ele>1139.2</ele>
        <time>2020-07-30T13:29:49Z</time>
      </trkpt>
      <trkpt lat="42.3184950" lon="2.1045430">
        <ele>1138.6</ele>
        <time>2020-07-30T13:29:51Z</time>
      </trkpt>
      <trkpt lat="42.3187030" lon="2.1045320">
        <ele>1137.8</ele>
        <time>2020-07-30T13:29:54Z</time>
      </trkpt>
      <trkpt lat="42.3187490" lon="2.1044750">
        <ele>1137.8</ele>
        <time>2020-07-30T13:29:56Z</time>
      </trkpt>
      <trkpt lat="42.3187430" lon="2.1044360">
        <ele>1137.8</ele>
        <time>2020-07-30T13:29:57Z</time>
      </trkpt>
      <trkpt lat="42.3186490" lon="2.1044240">
        <ele>1140.0</ele>
        <time>2020-07-30T13:31:27Z</time>
      </trkpt>
      <trkpt lat="42.3188840" lon="2.1043870">
        <ele>1139.6</ele>
        <time>2020-07-30T13:31:32Z</time>
      </trkpt>
      <trkpt lat="42.3189450" lon="2.1043580">
        <ele>1139.0</ele>
        <time>2020-07-30T13:31:33Z</time>
      </trkpt>
      <trkpt lat="42.3190680" lon="2.1042860">
        <ele>1138.6</ele>
        <time>2020-07-30T13:31:35Z</time>
      </trkpt>
      <trkpt lat="42.3192030" lon="2.1042020">
        <ele>1137.8</ele>
        <time>2020-07-30T13:31:37Z</time>
      </trkpt>
      <trkpt lat="42.3192760" lon="2.1041700">
        <ele>1138.0</ele>
        <time>2020-07-30T13:31:38Z</time>
      </trkpt>
      <trkpt lat="42.3194350" lon="2.1041740">
        <ele>1137.4</ele>
        <time>2020-07-30T13:31:40Z</time>
      </trkpt>
      <trkpt lat="42.3195050" lon="2.1042340">
        <ele>1137.0</ele>
        <time>2020-07-30T13:31:41Z</time>
      </trkpt>
      <trkpt lat="42.3195540" lon="2.1043220">
        <ele>1136.6</ele>
        <time>2020-07-30T13:31:42Z</time>
      </trkpt>
      <trkpt lat="42.3196080" lon="2.1045350">
        <ele>1135.8</ele>
        <time>2020-07-30T13:31:44Z</time>
      </trkpt>
      <trkpt lat="42.3196330" lon="2.1046480">
        <ele>1135.4</ele>
        <time>2020-07-30T13:31:45Z</time>
      </trkpt>
      <trkpt lat="42.3197000" lon="2.1048670">
        <ele>1134.2</ele>
        <time>2020-07-30T13:31:47Z</time>
      </trkpt>
      <trkpt lat="42.3197490" lon="2.1049640">
        <ele>1133.6</ele>
        <time>2020-07-30T13:31:48Z</time>
      </trkpt>
      <trkpt lat="42.3198000" lon="2.1050580">
        <ele>1133.4</ele>
        <time>2020-07-30T13:31:49Z</time>
      </trkpt>
      <trkpt lat="42.3198370" lon="2.1051620">
        <ele>1133.2</ele>
        <time>2020-07-30T13:31:50Z</time>
      </trkpt>
      <trkpt lat="42.3197940" lon="2.1053880">
        <ele>1132.6</ele>
        <time>2020-07-30T13:31:52Z</time>
      </trkpt>
      <trkpt lat="42.3196430" lon="2.1055370">
        <ele>1132.0</ele>
        <time>2020-07-30T13:31:54Z</time>
      </trkpt>
      <trkpt lat="42.3194650" lon="2.1056370">
        <ele>1131.4</ele>
        <time>2020-07-30T13:31:56Z</time>
      </trkpt>
      <trkpt lat="42.3193760" lon="2.1057020">
        <ele>1131.2</ele>
        <time>2020-07-30T13:31:57Z</time>
      </trkpt>
      <trkpt lat="42.3192940" lon="2.1057770">
        <ele>1131.0</ele>
        <time>2020-07-30T13:31:58Z</time>
      </trkpt>
      <trkpt lat="42.3191550" lon="2.1059860">
        <ele>1129.8</ele>
        <time>2020-07-30T13:32:00Z</time>
      </trkpt>
      <trkpt lat="42.3191000" lon="2.1061090">
        <ele>1129.0</ele>
        <time>2020-07-30T13:32:01Z</time>
      </trkpt>
      <trkpt lat="42.3190520" lon="2.1062280">
        <ele>1128.6</ele>
        <time>2020-07-30T13:32:02Z</time>
      </trkpt>
      <trkpt lat="42.3189640" lon="2.1064820">
        <ele>1127.6</ele>
        <time>2020-07-30T13:32:04Z</time>
      </trkpt>
      <trkpt lat="42.3188800" lon="2.1067420">
        <ele>1127.0</ele>
        <time>2020-07-30T13:32:06Z</time>
      </trkpt>
      <trkpt lat="42.3187840" lon="2.1070060">
        <ele>1126.0</ele>
        <time>2020-07-30T13:32:08Z</time>
      </trkpt>
      <trkpt lat="42.3186980" lon="2.1073000">
        <ele>1124.8</ele>
        <time>2020-07-30T13:32:10Z</time>
      </trkpt>
      <trkpt lat="42.3186130" lon="2.1076040">
        <ele>1123.8</ele>
        <time>2020-07-30T13:32:12Z</time>
      </trkpt>
      <trkpt lat="42.3185040" lon="2.1080730">
        <ele>1122.0</ele>
        <time>2020-07-30T13:32:15Z</time>
      </trkpt>
      <trkpt lat="42.3184820" lon="2.1082360">
        <ele>1121.6</ele>
        <time>2020-07-30T13:32:16Z</time>
      </trkpt>
      <trkpt lat="42.3184720" lon="2.1083950">
        <ele>1121.4</ele>
        <time>2020-07-30T13:32:17Z</time>
      </trkpt>
      <trkpt lat="42.3185000" lon="2.1086840">
        <ele>1120.4</ele>
        <time>2020-07-30T13:32:19Z</time>
      </trkpt>
      <trkpt lat="42.3186260" lon="2.1088890">
        <ele>1119.2</ele>
        <time>2020-07-30T13:32:21Z</time>
      </trkpt>
      <trkpt lat="42.3189240" lon="2.1090190">
        <ele>1117.6</ele>
        <time>2020-07-30T13:32:24Z</time>
      </trkpt>
      <trkpt lat="42.3190320" lon="2.1090570">
        <ele>1117.0</ele>
        <time>2020-07-30T13:32:25Z</time>
      </trkpt>
      <trkpt lat="42.3192460" lon="2.1091620">
        <ele>1116.6</ele>
        <time>2020-07-30T13:32:27Z</time>
      </trkpt>
      <trkpt lat="42.3193510" lon="2.1092270">
        <ele>1116.4</ele>
        <time>2020-07-30T13:32:28Z</time>
      </trkpt>
      <trkpt lat="42.3194540" lon="2.1093010">
        <ele>1116.4</ele>
        <time>2020-07-30T13:32:29Z</time>
      </trkpt>
      <trkpt lat="42.3196610" lon="2.1094520">
        <ele>1115.8</ele>
        <time>2020-07-30T13:32:31Z</time>
      </trkpt>
      <trkpt lat="42.3197580" lon="2.1095350">
        <ele>1115.4</ele>
        <time>2020-07-30T13:32:32Z</time>
      </trkpt>
      <trkpt lat="42.3198510" lon="2.1096290">
        <ele>1114.8</ele>
        <time>2020-07-30T13:32:33Z</time>
      </trkpt>
      <trkpt lat="42.3199360" lon="2.1097430">
        <ele>1114.4</ele>
        <time>2020-07-30T13:32:34Z</time>
      </trkpt>
      <trkpt lat="42.3200410" lon="2.1100270">
        <ele>1112.2</ele>
        <time>2020-07-30T13:32:36Z</time>
      </trkpt>
      <trkpt lat="42.3200580" lon="2.1101810">
        <ele>1111.2</ele>
        <time>2020-07-30T13:32:37Z</time>
      </trkpt>
      <trkpt lat="42.3200660" lon="2.1103370">
        <ele>1110.6</ele>
        <time>2020-07-30T13:32:38Z</time>
      </trkpt>
      <trkpt lat="42.3200820" lon="2.1104900">
        <ele>1110.2</ele>
        <time>2020-07-30T13:32:39Z</time>
      </trkpt>
      <trkpt lat="42.3202010" lon="2.1110980">
        <ele>1109.0</ele>
        <time>2020-07-30T13:32:43Z</time>
      </trkpt>
      <trkpt lat="42.3202620" lon="2.1115720">
        <ele>1107.6</ele>
        <time>2020-07-30T13:32:46Z</time>
      </trkpt>
      <trkpt lat="42.3202610" lon="2.1117350">
        <ele>1107.4</ele>
        <time>2020-07-30T13:32:47Z</time>
      </trkpt>
      <trkpt lat="42.3202340" lon="2.1120530">
        <ele>1106.4</ele>
        <time>2020-07-30T13:32:49Z</time>
      </trkpt>
      <trkpt lat="42.3201790" lon="2.1123490">
        <ele>1105.8</ele>
        <time>2020-07-30T13:32:51Z</time>
      </trkpt>
      <trkpt lat="42.3200390" lon="2.1125650">
        <ele>1105.0</ele>
        <time>2020-07-30T13:32:53Z</time>
      </trkpt>
      <trkpt lat="42.3197190" lon="2.1127640">
        <ele>1103.6</ele>
        <time>2020-07-30T13:32:56Z</time>
      </trkpt>
      <trkpt lat="42.3196040" lon="2.1128220">
        <ele>1102.6</ele>
        <time>2020-07-30T13:32:57Z</time>
      </trkpt>
      <trkpt lat="42.3193680" lon="2.1129380">
        <ele>1101.4</ele>
        <time>2020-07-30T13:32:59Z</time>
      </trkpt>
      <trkpt lat="42.3192480" lon="2.1129670">
        <ele>1100.8</ele>
        <time>2020-07-30T13:33:00Z</time>
      </trkpt>
      <trkpt lat="42.3191230" lon="2.1129980">
        <ele>1100.4</ele>
        <time>2020-07-30T13:33:01Z</time>
      </trkpt>
      <trkpt lat="42.3187450" lon="2.1130430">
        <ele>1097.8</ele>
        <time>2020-07-30T13:33:04Z</time>
      </trkpt>
      <trkpt lat="42.3186190" lon="2.1130480">
        <ele>1097.0</ele>
        <time>2020-07-30T13:33:05Z</time>
      </trkpt>
      <trkpt lat="42.3184920" lon="2.1130550">
        <ele>1096.4</ele>
        <time>2020-07-30T13:33:06Z</time>
      </trkpt>
      <trkpt lat="42.3183670" lon="2.1130660">
        <ele>1095.0</ele>
        <time>2020-07-30T13:33:07Z</time>
      </trkpt>
      <trkpt lat="42.3181160" lon="2.1130970">
        <ele>1093.4</ele>
        <time>2020-07-30T13:33:09Z</time>
      </trkpt>
      <trkpt lat="42.3178680" lon="2.1131370">
        <ele>1092.8</ele>
        <time>2020-07-30T13:33:11Z</time>
      </trkpt>
      <trkpt lat="42.3177470" lon="2.1131670">
        <ele>1092.2</ele>
        <time>2020-07-30T13:33:12Z</time>
      </trkpt>
      <trkpt lat="42.3175080" lon="2.1132540">
        <ele>1090.8</ele>
        <time>2020-07-30T13:33:14Z</time>
      </trkpt>
      <trkpt lat="42.3173920" lon="2.1133170">
        <ele>1090.4</ele>
        <time>2020-07-30T13:33:15Z</time>
      </trkpt>
      <trkpt lat="42.3172760" lon="2.1133830">
        <ele>1089.8</ele>
        <time>2020-07-30T13:33:16Z</time>
      </trkpt>
      <trkpt lat="42.3170490" lon="2.1135250">
        <ele>1089.0</ele>
        <time>2020-07-30T13:33:18Z</time>
      </trkpt>
      <trkpt lat="42.3169290" lon="2.1135800">
        <ele>1088.0</ele>
        <time>2020-07-30T13:33:19Z</time>
      </trkpt>
      <trkpt lat="42.3168030" lon="2.1136290">
        <ele>1087.4</ele>
        <time>2020-07-30T13:33:20Z</time>
      </trkpt>
      <trkpt lat="42.3164290" lon="2.1137320">
        <ele>1086.4</ele>
        <time>2020-07-30T13:33:23Z</time>
      </trkpt>
      <trkpt lat="42.3163090" lon="2.1137770">
        <ele>1085.6</ele>
        <time>2020-07-30T13:33:24Z</time>
      </trkpt>
      <trkpt lat="42.3162140" lon="2.1138520">
        <ele>1085.0</ele>
        <time>2020-07-30T13:33:25Z</time>
      </trkpt>
      <trkpt lat="42.3161340" lon="2.1139610">
        <ele>1084.4</ele>
        <time>2020-07-30T13:33:26Z</time>
      </trkpt>
      <trkpt lat="42.3160740" lon="2.1140870">
        <ele>1083.6</ele>
        <time>2020-07-30T13:33:27Z</time>
      </trkpt>
      <trkpt lat="42.3159970" lon="2.1143730">
        <ele>1082.0</ele>
        <time>2020-07-30T13:33:29Z</time>
      </trkpt>
      <trkpt lat="42.3159750" lon="2.1145300">
        <ele>1080.8</ele>
        <time>2020-07-30T13:33:30Z</time>
      </trkpt>
      <trkpt lat="42.3159600" lon="2.1148500">
        <ele>1079.4</ele>
        <time>2020-07-30T13:33:32Z</time>
      </trkpt>
      <trkpt lat="42.3159600" lon="2.1150160">
        <ele>1078.8</ele>
        <time>2020-07-30T13:33:33Z</time>
      </trkpt>
      <trkpt lat="42.3159590" lon="2.1153460">
        <ele>1078.4</ele>
        <time>2020-07-30T13:33:35Z</time>
      </trkpt>
      <trkpt lat="42.3159500" lon="2.1158510">
        <ele>1077.2</ele>
        <time>2020-07-30T13:33:38Z</time>
      </trkpt>
      <trkpt lat="42.3159380" lon="2.1161990">
        <ele>1076.0</ele>
        <time>2020-07-30T13:33:40Z</time>
      </trkpt>
      <trkpt lat="42.3159120" lon="2.1163690">
        <ele>1075.2</ele>
        <time>2020-07-30T13:33:41Z</time>
      </trkpt>
      <trkpt lat="42.3158660" lon="2.1165300">
        <ele>1074.6</ele>
        <time>2020-07-30T13:33:42Z</time>
      </trkpt>
      <trkpt lat="42.3158030" lon="2.1166840">
        <ele>1074.0</ele>
        <time>2020-07-30T13:33:43Z</time>
      </trkpt>
      <trkpt lat="42.3157340" lon="2.1168260">
        <ele>1073.2</ele>
        <time>2020-07-30T13:33:44Z</time>
      </trkpt>
      <trkpt lat="42.3156690" lon="2.1169720">
        <ele>1072.4</ele>
        <time>2020-07-30T13:33:45Z</time>
      </trkpt>
      <trkpt lat="42.3156150" lon="2.1171250">
        <ele>1071.8</ele>
        <time>2020-07-30T13:33:46Z</time>
      </trkpt>
      <trkpt lat="42.3155690" lon="2.1172860">
        <ele>1071.4</ele>
        <time>2020-07-30T13:33:47Z</time>
      </trkpt>
      <trkpt lat="42.3155050" lon="2.1176100">
        <ele>1070.2</ele>
        <time>2020-07-30T13:33:49Z</time>
      </trkpt>
      <trkpt lat="42.3154870" lon="2.1177710">
        <ele>1069.0</ele>
        <time>2020-07-30T13:33:50Z</time>
      </trkpt>
      <trkpt lat="42.3154670" lon="2.1179370">
        <ele>1066.8</ele>
        <time>2020-07-30T13:33:51Z</time>
      </trkpt>
      <trkpt lat="42.3153840" lon="2.1182600">
        <ele>1065.2</ele>
        <time>2020-07-30T13:33:53Z</time>
      </trkpt>
      <trkpt lat="42.3153470" lon="2.1184190">
        <ele>1064.8</ele>
        <time>2020-07-30T13:33:54Z</time>
      </trkpt>
      <trkpt lat="42.3153530" lon="2.1187330">
        <ele>1064.2</ele>
        <time>2020-07-30T13:33:56Z</time>
      </trkpt>
      <trkpt lat="42.3154300" lon="2.1191830">
        <ele>1063.6</ele>
        <time>2020-07-30T13:33:59Z</time>
      </trkpt>
      <trkpt lat="42.3153430" lon="2.1194530">
        <ele>1063.0</ele>
        <time>2020-07-30T13:34:01Z</time>
      </trkpt>
      <trkpt lat="42.3151690" lon="2.1195820">
        <ele>1062.8</ele>
        <time>2020-07-30T13:34:03Z</time>
      </trkpt>
      <trkpt lat="42.3149250" lon="2.1198570">
        <ele>1062.4</ele>
        <time>2020-07-30T13:34:06Z</time>
      </trkpt>
      <trkpt lat="42.3148770" lon="2.1201270">
        <ele>1062.4</ele>
        <time>2020-07-30T13:34:08Z</time>
      </trkpt>
      <trkpt lat="42.3149170" lon="2.1204120">
        <ele>1062.4</ele>
        <time>2020-07-30T13:34:10Z</time>
      </trkpt>
      <trkpt lat="42.3149370" lon="2.1205580">
        <ele>1061.8</ele>
        <time>2020-07-30T13:34:11Z</time>
      </trkpt>
      <trkpt lat="42.3149250" lon="2.1206970">
        <ele>1060.8</ele>
        <time>2020-07-30T13:34:12Z</time>
      </trkpt>
      <trkpt lat="42.3148760" lon="2.1208170">
        <ele>1059.6</ele>
        <time>2020-07-30T13:34:13Z</time>
      </trkpt>
      <trkpt lat="42.3147100" lon="2.1209990">
        <ele>1058.6</ele>
        <time>2020-07-30T13:34:15Z</time>
      </trkpt>
      <trkpt lat="42.3146190" lon="2.1210860">
        <ele>1058.4</ele>
        <time>2020-07-30T13:34:16Z</time>
      </trkpt>
      <trkpt lat="42.3145410" lon="2.1211910">
        <ele>1058.2</ele>
        <time>2020-07-30T13:34:17Z</time>
      </trkpt>
      <trkpt lat="42.3144830" lon="2.1213130">
        <ele>1058.0</ele>
        <time>2020-07-30T13:34:18Z</time>
      </trkpt>
      <trkpt lat="42.3143600" lon="2.1217130">
        <ele>1057.4</ele>
        <time>2020-07-30T13:34:21Z</time>
      </trkpt>
      <trkpt lat="42.3143270" lon="2.1218580">
        <ele>1056.6</ele>
        <time>2020-07-30T13:34:22Z</time>
      </trkpt>
      <trkpt lat="42.3142990" lon="2.1219980">
        <ele>1055.4</ele>
        <time>2020-07-30T13:34:23Z</time>
      </trkpt>
      <trkpt lat="42.3142700" lon="2.1221400">
        <ele>1054.4</ele>
        <time>2020-07-30T13:34:24Z</time>
      </trkpt>
      <trkpt lat="42.3142210" lon="2.1222650">
        <ele>1053.6</ele>
        <time>2020-07-30T13:34:25Z</time>
      </trkpt>
      <trkpt lat="42.3141500" lon="2.1223720">
        <ele>1053.2</ele>
        <time>2020-07-30T13:34:26Z</time>
      </trkpt>
      <trkpt lat="42.3140060" lon="2.1225840">
        <ele>1052.4</ele>
        <time>2020-07-30T13:34:28Z</time>
      </trkpt>
      <trkpt lat="42.3139540" lon="2.1227090">
        <ele>1052.2</ele>
        <time>2020-07-30T13:34:29Z</time>
      </trkpt>
      <trkpt lat="42.3139120" lon="2.1228410">
        <ele>1051.8</ele>
        <time>2020-07-30T13:34:30Z</time>
      </trkpt>
      <trkpt lat="42.3138450" lon="2.1231170">
        <ele>1051.0</ele>
        <time>2020-07-30T13:34:32Z</time>
      </trkpt>
      <trkpt lat="42.3137840" lon="2.1234010">
        <ele>1049.2</ele>
        <time>2020-07-30T13:34:34Z</time>
      </trkpt>
      <trkpt lat="42.3137670" lon="2.1235480">
        <ele>1048.0</ele>
        <time>2020-07-30T13:34:35Z</time>
      </trkpt>
      <trkpt lat="42.3137690" lon="2.1238520">
        <ele>1046.8</ele>
        <time>2020-07-30T13:34:37Z</time>
      </trkpt>
      <trkpt lat="42.3138830" lon="2.1244620">
        <ele>1046.0</ele>
        <time>2020-07-30T13:34:41Z</time>
      </trkpt>
      <trkpt lat="42.3139230" lon="2.1246150">
        <ele>1045.8</ele>
        <time>2020-07-30T13:34:42Z</time>
      </trkpt>
      <trkpt lat="42.3140590" lon="2.1250750">
        <ele>1044.8</ele>
        <time>2020-07-30T13:34:45Z</time>
      </trkpt>
      <trkpt lat="42.3141740" lon="2.1253570">
        <ele>1044.2</ele>
        <time>2020-07-30T13:34:47Z</time>
      </trkpt>
      <trkpt lat="42.3142510" lon="2.1254720">
        <ele>1043.6</ele>
        <time>2020-07-30T13:34:48Z</time>
      </trkpt>
      <trkpt lat="42.3144370" lon="2.1256590">
        <ele>1042.6</ele>
        <time>2020-07-30T13:34:50Z</time>
      </trkpt>
      <trkpt lat="42.3145300" lon="2.1257570">
        <ele>1041.6</ele>
        <time>2020-07-30T13:34:51Z</time>
      </trkpt>
      <trkpt lat="42.3146170" lon="2.1258660">
        <ele>1041.4</ele>
        <time>2020-07-30T13:34:52Z</time>
      </trkpt>
      <trkpt lat="42.3146970" lon="2.1259890">
        <ele>1040.6</ele>
        <time>2020-07-30T13:34:53Z</time>
      </trkpt>
      <trkpt lat="42.3147700" lon="2.1261180">
        <ele>1039.8</ele>
        <time>2020-07-30T13:34:54Z</time>
      </trkpt>
      <trkpt lat="42.3149210" lon="2.1263620">
        <ele>1038.4</ele>
        <time>2020-07-30T13:34:56Z</time>
      </trkpt>
      <trkpt lat="42.3150030" lon="2.1264650">
        <ele>1037.4</ele>
        <time>2020-07-30T13:34:57Z</time>
      </trkpt>
      <trkpt lat="42.3150870" lon="2.1265530">
        <ele>1036.6</ele>
        <time>2020-07-30T13:34:58Z</time>
      </trkpt>
      <trkpt lat="42.3151700" lon="2.1266390">
        <ele>1036.4</ele>
        <time>2020-07-30T13:34:59Z</time>
      </trkpt>
      <trkpt lat="42.3152320" lon="2.1267450">
        <ele>1036.2</ele>
        <time>2020-07-30T13:35:00Z</time>
      </trkpt>
      <trkpt lat="42.3152500" lon="2.1268610">
        <ele>1036.0</ele>
        <time>2020-07-30T13:35:01Z</time>
      </trkpt>
      <trkpt lat="42.3151670" lon="2.1270380">
        <ele>1036.0</ele>
        <time>2020-07-30T13:35:03Z</time>
      </trkpt>
      <trkpt lat="42.3150050" lon="2.1270950">
        <ele>1036.0</ele>
        <time>2020-07-30T13:35:05Z</time>
      </trkpt>
      <trkpt lat="42.3148300" lon="2.1270940">
        <ele>1035.8</ele>
        <time>2020-07-30T13:35:07Z</time>
      </trkpt>
      <trkpt lat="42.3145560" lon="2.1271040">
        <ele>1035.8</ele>
        <time>2020-07-30T13:35:10Z</time>
      </trkpt>
      <trkpt lat="42.3142890" lon="2.1272460">
        <ele>1035.6</ele>
        <time>2020-07-30T13:35:13Z</time>
      </trkpt>
      <trkpt lat="42.3141270" lon="2.1274150">
        <ele>1035.4</ele>
        <time>2020-07-30T13:35:15Z</time>
      </trkpt>
      <trkpt lat="42.3140480" lon="2.1275110">
        <ele>1035.0</ele>
        <time>2020-07-30T13:35:16Z</time>
      </trkpt>
      <trkpt lat="42.3139690" lon="2.1276080">
        <ele>1034.4</ele>
        <time>2020-07-30T13:35:17Z</time>
      </trkpt>
      <trkpt lat="42.3136050" lon="2.1279660">
        <ele>1033.6</ele>
        <time>2020-07-30T13:35:21Z</time>
      </trkpt>
      <trkpt lat="42.3135190" lon="2.1280640">
        <ele>1033.4</ele>
        <time>2020-07-30T13:35:22Z</time>
      </trkpt>
      <trkpt lat="42.3133890" lon="2.1283070">
        <ele>1032.6</ele>
        <time>2020-07-30T13:35:24Z</time>
      </trkpt>
      <trkpt lat="42.3133460" lon="2.1284460">
        <ele>1032.2</ele>
        <time>2020-07-30T13:35:25Z</time>
      </trkpt>
      <trkpt lat="42.3132740" lon="2.1287410">
        <ele>1031.0</ele>
        <time>2020-07-30T13:35:27Z</time>
      </trkpt>
      <trkpt lat="42.3132390" lon="2.1288870">
        <ele>1030.0</ele>
        <time>2020-07-30T13:35:28Z</time>
      </trkpt>
      <trkpt lat="42.3132160" lon="2.1290370">
        <ele>1029.2</ele>
        <time>2020-07-30T13:35:29Z</time>
      </trkpt>
      <trkpt lat="42.3132040" lon="2.1293550">
        <ele>1027.4</ele>
        <time>2020-07-30T13:35:31Z</time>
      </trkpt>
      <trkpt lat="42.3133400" lon="2.1297800">
        <ele>1026.0</ele>
        <time>2020-07-30T13:35:34Z</time>
      </trkpt>
      <trkpt lat="42.3134010" lon="2.1299110">
        <ele>1025.4</ele>
        <time>2020-07-30T13:35:35Z</time>
      </trkpt>
      <trkpt lat="42.3134490" lon="2.1300520">
        <ele>1025.0</ele>
        <time>2020-07-30T13:35:36Z</time>
      </trkpt>
      <trkpt lat="42.3134650" lon="2.1302030">
        <ele>1024.2</ele>
        <time>2020-07-30T13:35:37Z</time>
      </trkpt>
      <trkpt lat="42.3134460" lon="2.1303460">
        <ele>1023.6</ele>
        <time>2020-07-30T13:35:38Z</time>
      </trkpt>
      <trkpt lat="42.3133920" lon="2.1304620">
        <ele>1022.8</ele>
        <time>2020-07-30T13:35:39Z</time>
      </trkpt>
      <trkpt lat="42.3133040" lon="2.1305410">
        <ele>1022.6</ele>
        <time>2020-07-30T13:35:40Z</time>
      </trkpt>
      <trkpt lat="42.3132030" lon="2.1305820">
        <ele>1022.2</ele>
        <time>2020-07-30T13:35:41Z</time>
      </trkpt>
      <trkpt lat="42.3130990" lon="2.1306090">
        <ele>1022.2</ele>
        <time>2020-07-30T13:35:42Z</time>
      </trkpt>
      <trkpt lat="42.3127830" lon="2.1307490">
        <ele>1021.4</ele>
        <time>2020-07-30T13:35:45Z</time>
      </trkpt>
      <trkpt lat="42.3124820" lon="2.1310020">
        <ele>1020.2</ele>
        <time>2020-07-30T13:35:48Z</time>
      </trkpt>
      <trkpt lat="42.3123860" lon="2.1311060">
        <ele>1019.6</ele>
        <time>2020-07-30T13:35:49Z</time>
      </trkpt>
      <trkpt lat="42.3122260" lon="2.1313450">
        <ele>1019.0</ele>
        <time>2020-07-30T13:35:51Z</time>
      </trkpt>
      <trkpt lat="42.3121630" lon="2.1314850">
        <ele>1018.4</ele>
        <time>2020-07-30T13:35:52Z</time>
      </trkpt>
      <trkpt lat="42.3120620" lon="2.1317850">
        <ele>1017.8</ele>
        <time>2020-07-30T13:35:54Z</time>
      </trkpt>
      <trkpt lat="42.3119050" lon="2.1322180">
        <ele>1016.2</ele>
        <time>2020-07-30T13:35:57Z</time>
      </trkpt>
      <trkpt lat="42.3117090" lon="2.1326050">
        <ele>1014.8</ele>
        <time>2020-07-30T13:36:00Z</time>
      </trkpt>
      <trkpt lat="42.3116640" lon="2.1327470">
        <ele>1014.2</ele>
        <time>2020-07-30T13:36:01Z</time>
      </trkpt>
      <trkpt lat="42.3116420" lon="2.1329010">
        <ele>1013.8</ele>
        <time>2020-07-30T13:36:02Z</time>
      </trkpt>
      <trkpt lat="42.3116340" lon="2.1332140">
        <ele>1011.8</ele>
        <time>2020-07-30T13:36:04Z</time>
      </trkpt>
      <trkpt lat="42.3116320" lon="2.1333710">
        <ele>1010.4</ele>
        <time>2020-07-30T13:36:05Z</time>
      </trkpt>
      <trkpt lat="42.3116310" lon="2.1335250">
        <ele>1008.8</ele>
        <time>2020-07-30T13:36:06Z</time>
      </trkpt>
      <trkpt lat="42.3116460" lon="2.1341260">
        <ele>1007.8</ele>
        <time>2020-07-30T13:36:10Z</time>
      </trkpt>
      <trkpt lat="42.3116490" lon="2.1342720">
        <ele>1007.8</ele>
        <time>2020-07-30T13:36:11Z</time>
      </trkpt>
      <trkpt lat="42.3116490" lon="2.1345650">
        <ele>1006.6</ele>
        <time>2020-07-30T13:36:13Z</time>
      </trkpt>
      <trkpt lat="42.3116540" lon="2.1348530">
        <ele>1005.2</ele>
        <time>2020-07-30T13:36:15Z</time>
      </trkpt>
      <trkpt lat="42.3116680" lon="2.1349950">
        <ele>1004.8</ele>
        <time>2020-07-30T13:36:16Z</time>
      </trkpt>
      <trkpt lat="42.3116980" lon="2.1351270">
        <ele>1004.6</ele>
        <time>2020-07-30T13:36:17Z</time>
      </trkpt>
      <trkpt lat="42.3118010" lon="2.1353590">
        <ele>1004.2</ele>
        <time>2020-07-30T13:36:19Z</time>
      </trkpt>
      <trkpt lat="42.3118530" lon="2.1354750">
        <ele>1004.2</ele>
        <time>2020-07-30T13:36:20Z</time>
      </trkpt>
      <trkpt lat="42.3118550" lon="2.1356050">
        <ele>1004.2</ele>
        <time>2020-07-30T13:36:21Z</time>
      </trkpt>
      <trkpt lat="42.3118130" lon="2.1357040">
        <ele>1004.0</ele>
        <time>2020-07-30T13:36:22Z</time>
      </trkpt>
      <trkpt lat="42.3116670" lon="2.1358520">
        <ele>1003.8</ele>
        <time>2020-07-30T13:36:24Z</time>
      </trkpt>
      <trkpt lat="42.3115850" lon="2.1359190">
        <ele>1003.8</ele>
        <time>2020-07-30T13:36:25Z</time>
      </trkpt>
      <trkpt lat="42.3114330" lon="2.1360870">
        <ele>1003.8</ele>
        <time>2020-07-30T13:36:27Z</time>
      </trkpt>
      <trkpt lat="42.3113840" lon="2.1362080">
        <ele>1003.6</ele>
        <time>2020-07-30T13:36:28Z</time>
      </trkpt>
      <trkpt lat="42.3113600" lon="2.1366160">
        <ele>1003.6</ele>
        <time>2020-07-30T13:36:31Z</time>
      </trkpt>
      <trkpt lat="42.3113720" lon="2.1367550">
        <ele>1001.8</ele>
        <time>2020-07-30T13:36:32Z</time>
      </trkpt>
      <trkpt lat="42.3113850" lon="2.1368910">
        <ele>1000.8</ele>
        <time>2020-07-30T13:36:33Z</time>
      </trkpt>
      <trkpt lat="42.3113990" lon="2.1370270">
        <ele>999.2</ele>
        <time>2020-07-30T13:36:34Z</time>
      </trkpt>
      <trkpt lat="42.3114180" lon="2.1371620">
        <ele>998.2</ele>
        <time>2020-07-30T13:36:35Z</time>
      </trkpt>
      <trkpt lat="42.3114390" lon="2.1372960">
        <ele>997.4</ele>
        <time>2020-07-30T13:36:36Z</time>
      </trkpt>
      <trkpt lat="42.3114720" lon="2.1375710">
        <ele>996.2</ele>
        <time>2020-07-30T13:36:38Z</time>
      </trkpt>
      <trkpt lat="42.3114970" lon="2.1378410">
        <ele>995.2</ele>
        <time>2020-07-30T13:36:40Z</time>
      </trkpt>
      <trkpt lat="42.3115300" lon="2.1384060">
        <ele>994.4</ele>
        <time>2020-07-30T13:36:44Z</time>
      </trkpt>
      <trkpt lat="42.3115390" lon="2.1385500">
        <ele>993.8</ele>
        <time>2020-07-30T13:36:45Z</time>
      </trkpt>
      <trkpt lat="42.3115880" lon="2.1389890">
        <ele>992.4</ele>
        <time>2020-07-30T13:36:48Z</time>
      </trkpt>
      <trkpt lat="42.3116180" lon="2.1391360">
        <ele>992.2</ele>
        <time>2020-07-30T13:36:49Z</time>
      </trkpt>
      <trkpt lat="42.3116530" lon="2.1394360">
        <ele>991.4</ele>
        <time>2020-07-30T13:36:51Z</time>
      </trkpt>
      <trkpt lat="42.3116310" lon="2.1395840">
        <ele>991.4</ele>
        <time>2020-07-30T13:36:52Z</time>
      </trkpt>
      <trkpt lat="42.3114990" lon="2.1398250">
        <ele>991.2</ele>
        <time>2020-07-30T13:36:54Z</time>
      </trkpt>
      <trkpt lat="42.3114330" lon="2.1399460">
        <ele>991.0</ele>
        <time>2020-07-30T13:36:55Z</time>
      </trkpt>
      <trkpt lat="42.3113910" lon="2.1400850">
        <ele>990.8</ele>
        <time>2020-07-30T13:36:56Z</time>
      </trkpt>
      <trkpt lat="42.3113810" lon="2.1405490">
        <ele>989.4</ele>
        <time>2020-07-30T13:36:59Z</time>
      </trkpt>
      <trkpt lat="42.3114290" lon="2.1410210">
        <ele>988.4</ele>
        <time>2020-07-30T13:37:02Z</time>
      </trkpt>
      <trkpt lat="42.3115150" lon="2.1416270">
        <ele>986.8</ele>
        <time>2020-07-30T13:37:06Z</time>
      </trkpt>
      <trkpt lat="42.3115780" lon="2.1419170">
        <ele>986.0</ele>
        <time>2020-07-30T13:37:08Z</time>
      </trkpt>
      <trkpt lat="42.3116660" lon="2.1421880">
        <ele>985.2</ele>
        <time>2020-07-30T13:37:10Z</time>
      </trkpt>
      <trkpt lat="42.3117190" lon="2.1423150">
        <ele>985.0</ele>
        <time>2020-07-30T13:37:11Z</time>
      </trkpt>
      <trkpt lat="42.3118610" lon="2.1425190">
        <ele>984.6</ele>
        <time>2020-07-30T13:37:13Z</time>
      </trkpt>
      <trkpt lat="42.3120270" lon="2.1426740">
        <ele>984.0</ele>
        <time>2020-07-30T13:37:15Z</time>
      </trkpt>
      <trkpt lat="42.3121110" lon="2.1427480">
        <ele>984.0</ele>
        <time>2020-07-30T13:37:16Z</time>
      </trkpt>
      <trkpt lat="42.3121910" lon="2.1428330">
        <ele>983.8</ele>
        <time>2020-07-30T13:37:17Z</time>
      </trkpt>
      <trkpt lat="42.3123340" lon="2.1431880">
        <ele>983.4</ele>
        <time>2020-07-30T13:37:20Z</time>
      </trkpt>
      <trkpt lat="42.3123530" lon="2.1434620">
        <ele>983.0</ele>
        <time>2020-07-30T13:37:22Z</time>
      </trkpt>
      <trkpt lat="42.3124100" lon="2.1437290">
        <ele>982.6</ele>
        <time>2020-07-30T13:37:24Z</time>
      </trkpt>
      <trkpt lat="42.3124540" lon="2.1438610">
        <ele>982.4</ele>
        <time>2020-07-30T13:37:25Z</time>
      </trkpt>
      <trkpt lat="42.3125320" lon="2.1441400">
        <ele>981.8</ele>
        <time>2020-07-30T13:37:27Z</time>
      </trkpt>
      <trkpt lat="42.3125620" lon="2.1442890">
        <ele>981.0</ele>
        <time>2020-07-30T13:37:28Z</time>
      </trkpt>
      <trkpt lat="42.3125860" lon="2.1444430">
        <ele>980.6</ele>
        <time>2020-07-30T13:37:29Z</time>
      </trkpt>
      <trkpt lat="42.3126250" lon="2.1447640">
        <ele>979.2</ele>
        <time>2020-07-30T13:37:31Z</time>
      </trkpt>
      <trkpt lat="42.3126530" lon="2.1450760">
        <ele>977.8</ele>
        <time>2020-07-30T13:37:33Z</time>
      </trkpt>
      <trkpt lat="42.3126840" lon="2.1452220">
        <ele>977.4</ele>
        <time>2020-07-30T13:37:34Z</time>
      </trkpt>
      <trkpt lat="42.3127700" lon="2.1455000">
        <ele>976.4</ele>
        <time>2020-07-30T13:37:36Z</time>
      </trkpt>
      <trkpt lat="42.3128640" lon="2.1459230">
        <ele>973.6</ele>
        <time>2020-07-30T13:37:39Z</time>
      </trkpt>
      <trkpt lat="42.3128770" lon="2.1460720">
        <ele>971.6</ele>
        <time>2020-07-30T13:37:40Z</time>
      </trkpt>
      <trkpt lat="42.3128870" lon="2.1462210">
        <ele>970.6</ele>
        <time>2020-07-30T13:37:41Z</time>
      </trkpt>
      <trkpt lat="42.3129260" lon="2.1466830">
        <ele>969.4</ele>
        <time>2020-07-30T13:37:44Z</time>
      </trkpt>
      <trkpt lat="42.3129520" lon="2.1470040">
        <ele>969.0</ele>
        <time>2020-07-30T13:37:46Z</time>
      </trkpt>
      <trkpt lat="42.3129670" lon="2.1473330">
        <ele>968.8</ele>
        <time>2020-07-30T13:37:48Z</time>
      </trkpt>
      <trkpt lat="42.3129440" lon="2.1474960">
        <ele>968.8</ele>
        <time>2020-07-30T13:37:49Z</time>
      </trkpt>
      <trkpt lat="42.3128310" lon="2.1477960">
        <ele>968.6</ele>
        <time>2020-07-30T13:37:51Z</time>
      </trkpt>
      <trkpt lat="42.3127580" lon="2.1479340">
        <ele>968.4</ele>
        <time>2020-07-30T13:37:52Z</time>
      </trkpt>
      <trkpt lat="42.3124460" lon="2.1485140">
        <ele>967.2</ele>
        <time>2020-07-30T13:37:56Z</time>
      </trkpt>
      <trkpt lat="42.3122840" lon="2.1488090">
        <ele>964.8</ele>
        <time>2020-07-30T13:37:58Z</time>
      </trkpt>
      <trkpt lat="42.3122030" lon="2.1489580">
        <ele>963.0</ele>
        <time>2020-07-30T13:37:59Z</time>
      </trkpt>
      <trkpt lat="42.3121220" lon="2.1491040">
        <ele>961.0</ele>
        <time>2020-07-30T13:38:00Z</time>
      </trkpt>
      <trkpt lat="42.3120390" lon="2.1492510">
        <ele>959.8</ele>
        <time>2020-07-30T13:38:01Z</time>
      </trkpt>
      <trkpt lat="42.3118740" lon="2.1495450">
        <ele>957.6</ele>
        <time>2020-07-30T13:38:03Z</time>
      </trkpt>
      <trkpt lat="42.3118070" lon="2.1497040">
        <ele>956.2</ele>
        <time>2020-07-30T13:38:04Z</time>
      </trkpt>
      <trkpt lat="42.3117540" lon="2.1498710">
        <ele>955.0</ele>
        <time>2020-07-30T13:38:05Z</time>
      </trkpt>
      <trkpt lat="42.3117130" lon="2.1500400">
        <ele>953.8</ele>
        <time>2020-07-30T13:38:06Z</time>
      </trkpt>
      <trkpt lat="42.3116800" lon="2.1502090">
        <ele>952.6</ele>
        <time>2020-07-30T13:38:07Z</time>
      </trkpt>
      <trkpt lat="42.3116520" lon="2.1503880">
        <ele>951.6</ele>
        <time>2020-07-30T13:38:08Z</time>
      </trkpt>
      <trkpt lat="42.3116330" lon="2.1505550">
        <ele>950.8</ele>
        <time>2020-07-30T13:38:09Z</time>
      </trkpt>
      <trkpt lat="42.3116090" lon="2.1508890">
        <ele>948.8</ele>
        <time>2020-07-30T13:38:11Z</time>
      </trkpt>
      <trkpt lat="42.3115800" lon="2.1512210">
        <ele>947.2</ele>
        <time>2020-07-30T13:38:13Z</time>
      </trkpt>
      <trkpt lat="42.3115530" lon="2.1513820">
        <ele>947.0</ele>
        <time>2020-07-30T13:38:14Z</time>
      </trkpt>
      <trkpt lat="42.3115050" lon="2.1515240">
        <ele>946.6</ele>
        <time>2020-07-30T13:38:15Z</time>
      </trkpt>
      <trkpt lat="42.3114330" lon="2.1516360">
        <ele>946.0</ele>
        <time>2020-07-30T13:38:16Z</time>
      </trkpt>
      <trkpt lat="42.3113390" lon="2.1517070">
        <ele>945.6</ele>
        <time>2020-07-30T13:38:17Z</time>
      </trkpt>
      <trkpt lat="42.3111200" lon="2.1517540">
        <ele>945.0</ele>
        <time>2020-07-30T13:38:19Z</time>
      </trkpt>
      <trkpt lat="42.3110030" lon="2.1517560">
        <ele>944.8</ele>
        <time>2020-07-30T13:38:20Z</time>
      </trkpt>
      <trkpt lat="42.3107670" lon="2.1517630">
        <ele>944.0</ele>
        <time>2020-07-30T13:38:22Z</time>
      </trkpt>
      <trkpt lat="42.3106490" lon="2.1517820">
        <ele>943.8</ele>
        <time>2020-07-30T13:38:23Z</time>
      </trkpt>
      <trkpt lat="42.3105310" lon="2.1518160">
        <ele>943.6</ele>
        <time>2020-07-30T13:38:24Z</time>
      </trkpt>
      <trkpt lat="42.3103030" lon="2.1519100">
        <ele>943.0</ele>
        <time>2020-07-30T13:38:26Z</time>
      </trkpt>
      <trkpt lat="42.3100860" lon="2.1520300">
        <ele>941.0</ele>
        <time>2020-07-30T13:38:28Z</time>
      </trkpt>
      <trkpt lat="42.3099950" lon="2.1521260">
        <ele>939.8</ele>
        <time>2020-07-30T13:38:29Z</time>
      </trkpt>
      <trkpt lat="42.3098750" lon="2.1524030">
        <ele>938.6</ele>
        <time>2020-07-30T13:38:31Z</time>
      </trkpt>
      <trkpt lat="42.3097950" lon="2.1528800">
        <ele>937.2</ele>
        <time>2020-07-30T13:38:34Z</time>
      </trkpt>
      <trkpt lat="42.3098460" lon="2.1532020">
        <ele>936.0</ele>
        <time>2020-07-30T13:38:36Z</time>
      </trkpt>
      <trkpt lat="42.3098880" lon="2.1533530">
        <ele>935.4</ele>
        <time>2020-07-30T13:38:37Z</time>
      </trkpt>
      <trkpt lat="42.3099330" lon="2.1535070">
        <ele>934.8</ele>
        <time>2020-07-30T13:38:38Z</time>
      </trkpt>
      <trkpt lat="42.3100690" lon="2.1539660">
        <ele>933.6</ele>
        <time>2020-07-30T13:38:41Z</time>
      </trkpt>
      <trkpt lat="42.3101360" lon="2.1542780">
        <ele>932.2</ele>
        <time>2020-07-30T13:38:43Z</time>
      </trkpt>
      <trkpt lat="42.3101400" lon="2.1544370">
        <ele>931.8</ele>
        <time>2020-07-30T13:38:44Z</time>
      </trkpt>
      <trkpt lat="42.3101300" lon="2.1545940">
        <ele>931.2</ele>
        <time>2020-07-30T13:38:45Z</time>
      </trkpt>
      <trkpt lat="42.3100850" lon="2.1549090">
        <ele>929.2</ele>
        <time>2020-07-30T13:38:47Z</time>
      </trkpt>
      <trkpt lat="42.3100590" lon="2.1550680">
        <ele>928.0</ele>
        <time>2020-07-30T13:38:48Z</time>
      </trkpt>
      <trkpt lat="42.3099400" lon="2.1557140">
        <ele>927.0</ele>
        <time>2020-07-30T13:38:52Z</time>
      </trkpt>
      <trkpt lat="42.3098700" lon="2.1560260">
        <ele>926.0</ele>
        <time>2020-07-30T13:38:54Z</time>
      </trkpt>
      <trkpt lat="42.3098360" lon="2.1561850">
        <ele>925.6</ele>
        <time>2020-07-30T13:38:55Z</time>
      </trkpt>
      <trkpt lat="42.3097710" lon="2.1565050">
        <ele>923.4</ele>
        <time>2020-07-30T13:38:57Z</time>
      </trkpt>
      <trkpt lat="42.3097400" lon="2.1566630">
        <ele>922.4</ele>
        <time>2020-07-30T13:38:58Z</time>
      </trkpt>
      <trkpt lat="42.3096780" lon="2.1569810">
        <ele>921.2</ele>
        <time>2020-07-30T13:39:00Z</time>
      </trkpt>
      <trkpt lat="42.3096510" lon="2.1571380">
        <ele>920.8</ele>
        <time>2020-07-30T13:39:01Z</time>
      </trkpt>
      <trkpt lat="42.3095740" lon="2.1576130">
        <ele>919.6</ele>
        <time>2020-07-30T13:39:04Z</time>
      </trkpt>
      <trkpt lat="42.3094490" lon="2.1583990">
        <ele>918.4</ele>
        <time>2020-07-30T13:39:09Z</time>
      </trkpt>
      <trkpt lat="42.3093970" lon="2.1586930">
        <ele>917.6</ele>
        <time>2020-07-30T13:39:11Z</time>
      </trkpt>
      <trkpt lat="42.3093600" lon="2.1588380">
        <ele>916.8</ele>
        <time>2020-07-30T13:39:12Z</time>
      </trkpt>
      <trkpt lat="42.3093060" lon="2.1589550">
        <ele>915.8</ele>
        <time>2020-07-30T13:39:13Z</time>
      </trkpt>
      <trkpt lat="42.3091530" lon="2.1591700">
        <ele>913.8</ele>
        <time>2020-07-30T13:39:15Z</time>
      </trkpt>
      <trkpt lat="42.3090690" lon="2.1592770">
        <ele>913.6</ele>
        <time>2020-07-30T13:39:16Z</time>
      </trkpt>
      <trkpt lat="42.3090060" lon="2.1593970">
        <ele>913.4</ele>
        <time>2020-07-30T13:39:17Z</time>
      </trkpt>
      <trkpt lat="42.3089350" lon="2.1596670">
        <ele>913.2</ele>
        <time>2020-07-30T13:39:19Z</time>
      </trkpt>
      <trkpt lat="42.3089610" lon="2.1599730">
        <ele>912.8</ele>
        <time>2020-07-30T13:39:21Z</time>
      </trkpt>
      <trkpt lat="42.3089970" lon="2.1601220">
        <ele>912.8</ele>
        <time>2020-07-30T13:39:22Z</time>
      </trkpt>
      <trkpt lat="42.3090380" lon="2.1602710">
        <ele>912.6</ele>
        <time>2020-07-30T13:39:23Z</time>
      </trkpt>
      <trkpt lat="42.3091150" lon="2.1605660">
        <ele>911.6</ele>
        <time>2020-07-30T13:39:25Z</time>
      </trkpt>
      <trkpt lat="42.3091360" lon="2.1607190">
        <ele>911.0</ele>
        <time>2020-07-30T13:39:26Z</time>
      </trkpt>
      <trkpt lat="42.3091320" lon="2.1608750">
        <ele>910.0</ele>
        <time>2020-07-30T13:39:27Z</time>
      </trkpt>
      <trkpt lat="42.3091010" lon="2.1610190">
        <ele>909.8</ele>
        <time>2020-07-30T13:39:28Z</time>
      </trkpt>
      <trkpt lat="42.3090380" lon="2.1611360">
        <ele>909.0</ele>
        <time>2020-07-30T13:39:29Z</time>
      </trkpt>
      <trkpt lat="42.3089600" lon="2.1612490">
        <ele>908.2</ele>
        <time>2020-07-30T13:39:30Z</time>
      </trkpt>
      <trkpt lat="42.3088860" lon="2.1613760">
        <ele>907.6</ele>
        <time>2020-07-30T13:39:31Z</time>
      </trkpt>
      <trkpt lat="42.3087760" lon="2.1616490">
        <ele>906.8</ele>
        <time>2020-07-30T13:39:33Z</time>
      </trkpt>
      <trkpt lat="42.3086850" lon="2.1619320">
        <ele>906.0</ele>
        <time>2020-07-30T13:39:35Z</time>
      </trkpt>
      <trkpt lat="42.3086030" lon="2.1622140">
        <ele>904.8</ele>
        <time>2020-07-30T13:39:37Z</time>
      </trkpt>
      <trkpt lat="42.3085760" lon="2.1623600">
        <ele>903.8</ele>
        <time>2020-07-30T13:39:38Z</time>
      </trkpt>
      <trkpt lat="42.3085180" lon="2.1626410">
        <ele>902.6</ele>
        <time>2020-07-30T13:39:40Z</time>
      </trkpt>
      <trkpt lat="42.3084650" lon="2.1629100">
        <ele>902.2</ele>
        <time>2020-07-30T13:39:42Z</time>
      </trkpt>
      <trkpt lat="42.3084370" lon="2.1630420">
        <ele>901.0</ele>
        <time>2020-07-30T13:39:43Z</time>
      </trkpt>
      <trkpt lat="42.3083750" lon="2.1633070">
        <ele>899.6</ele>
        <time>2020-07-30T13:39:45Z</time>
      </trkpt>
      <trkpt lat="42.3083170" lon="2.1635750">
        <ele>897.6</ele>
        <time>2020-07-30T13:39:47Z</time>
      </trkpt>
      <trkpt lat="42.3082420" lon="2.1638530">
        <ele>896.6</ele>
        <time>2020-07-30T13:39:49Z</time>
      </trkpt>
      <trkpt lat="42.3082030" lon="2.1639860">
        <ele>896.4</ele>
        <time>2020-07-30T13:39:50Z</time>
      </trkpt>
      <trkpt lat="42.3080520" lon="2.1643390">
        <ele>895.8</ele>
        <time>2020-07-30T13:39:52Z</time>
      </trkpt>
      <trkpt lat="42.3079900" lon="2.1644460">
        <ele>895.8</ele>
        <time>2020-07-30T13:39:53Z</time>
      </trkpt>
      <trkpt lat="42.3078610" lon="2.1646480">
        <ele>895.4</ele>
        <time>2020-07-30T13:39:56Z</time>
      </trkpt>
      <trkpt lat="42.3075870" lon="2.1650370">
        <ele>894.6</ele>
        <time>2020-07-30T13:40:00Z</time>
      </trkpt>
      <trkpt lat="42.3073200" lon="2.1654030">
        <ele>893.6</ele>
        <time>2020-07-30T13:40:04Z</time>
      </trkpt>
      <trkpt lat="42.3071230" lon="2.1656530">
        <ele>893.2</ele>
        <time>2020-07-30T13:40:07Z</time>
      </trkpt>
      <trkpt lat="42.3068030" lon="2.1661070">
        <ele>892.4</ele>
        <time>2020-07-30T13:40:12Z</time>
      </trkpt>
      <trkpt lat="42.3066160" lon="2.1663640">
        <ele>891.6</ele>
        <time>2020-07-30T13:40:15Z</time>
      </trkpt>
      <trkpt lat="42.3065600" lon="2.1664490">
        <ele>891.4</ele>
        <time>2020-07-30T13:40:16Z</time>
      </trkpt>
      <trkpt lat="42.3064000" lon="2.1666780">
        <ele>890.4</ele>
        <time>2020-07-30T13:40:19Z</time>
      </trkpt>
      <trkpt lat="42.3063500" lon="2.1667500">
        <ele>890.2</ele>
        <time>2020-07-30T13:40:20Z</time>
      </trkpt>
      <trkpt lat="42.3062950" lon="2.1668070">
        <ele>890.0</ele>
        <time>2020-07-30T13:40:21Z</time>
      </trkpt>
      <trkpt lat="42.3061700" lon="2.1668770">
        <ele>890.0</ele>
        <time>2020-07-30T13:40:23Z</time>
      </trkpt>
      <trkpt lat="42.3058880" lon="2.1668520">
        <ele>903.6</ele>
        <time>2020-07-31T05:24:32Z</time>
      </trkpt>
      <trkpt lat="42.3058700" lon="2.1668980">
        <ele>903.6</ele>
        <time>2020-07-31T05:24:36Z</time>
      </trkpt>
      <trkpt lat="42.3058370" lon="2.1668920">
        <ele>903.6</ele>
        <time>2020-07-31T05:24:37Z</time>
      </trkpt>
      <trkpt lat="42.3056000" lon="2.1668600">
        <ele>902.8</ele>
        <time>2020-07-31T05:24:41Z</time>
      </trkpt>
      <trkpt lat="42.3055130" lon="2.1668760">
        <ele>902.8</ele>
        <time>2020-07-31T05:24:42Z</time>
      </trkpt>
      <trkpt lat="42.3053990" lon="2.1668710">
        <ele>902.4</ele>
        <time>2020-07-31T05:24:44Z</time>
      </trkpt>
      <trkpt lat="42.3053530" lon="2.1668660">
        <ele>902.2</ele>
        <time>2020-07-31T05:24:45Z</time>
      </trkpt>
      <trkpt lat="42.3050570" lon="2.1668020">
        <ele>901.8</ele>
        <time>2020-07-31T05:24:51Z</time>
      </trkpt>
      <trkpt lat="42.3049520" lon="2.1667990">
        <ele>901.2</ele>
        <time>2020-07-31T05:24:53Z</time>
      </trkpt>
      <trkpt lat="42.3047510" lon="2.1667260">
        <ele>900.8</ele>
        <time>2020-07-31T05:24:56Z</time>
      </trkpt>
      <trkpt lat="42.3043850" lon="2.1666850">
        <ele>900.4</ele>
        <time>2020-07-31T05:24:59Z</time>
      </trkpt>
      <trkpt lat="42.3041970" lon="2.1666710">
        <ele>900.0</ele>
        <time>2020-07-31T05:25:01Z</time>
      </trkpt>
      <trkpt lat="42.3040190" lon="2.1666130">
        <ele>899.6</ele>
        <time>2020-07-31T05:25:03Z</time>
      </trkpt>
      <trkpt lat="42.3037180" lon="2.1665190">
        <ele>899.0</ele>
        <time>2020-07-31T05:25:06Z</time>
      </trkpt>
      <trkpt lat="42.3035190" lon="2.1664760">
        <ele>898.2</ele>
        <time>2020-07-31T05:25:08Z</time>
      </trkpt>
      <trkpt lat="42.3034110" lon="2.1664610">
        <ele>897.8</ele>
        <time>2020-07-31T05:25:09Z</time>
      </trkpt>
      <trkpt lat="42.3030930" lon="2.1664010">
        <ele>896.8</ele>
        <time>2020-07-31T05:25:12Z</time>
      </trkpt>
      <trkpt lat="42.3029570" lon="2.1664190">
        <ele>896.2</ele>
        <time>2020-07-31T05:25:13Z</time>
      </trkpt>
      <trkpt lat="42.3026420" lon="2.1664210">
        <ele>895.4</ele>
        <time>2020-07-31T05:25:16Z</time>
      </trkpt>
      <trkpt lat="42.3024730" lon="2.1664460">
        <ele>895.2</ele>
        <time>2020-07-31T05:25:18Z</time>
      </trkpt>
      <trkpt lat="42.3023420" lon="2.1664810">
        <ele>895.2</ele>
        <time>2020-07-31T05:25:20Z</time>
      </trkpt>
      <trkpt lat="42.3021990" lon="2.1665340">
        <ele>895.2</ele>
        <time>2020-07-31T05:25:22Z</time>
      </trkpt>
      <trkpt lat="42.3019090" lon="2.1666480">
        <ele>895.4</ele>
        <time>2020-07-31T05:25:26Z</time>
      </trkpt>
      <trkpt lat="42.3017020" lon="2.1667040">
        <ele>895.6</ele>
        <time>2020-07-31T05:25:29Z</time>
      </trkpt>
      <trkpt lat="42.3015750" lon="2.1668650">
        <ele>895.8</ele>
        <time>2020-07-31T05:25:31Z</time>
      </trkpt>
      <trkpt lat="42.3013230" lon="2.1669410">
        <ele>895.8</ele>
        <time>2020-07-31T05:25:35Z</time>
      </trkpt>
      <trkpt lat="42.3012560" lon="2.1668280">
        <ele>895.8</ele>
        <time>2020-07-31T05:25:37Z</time>
      </trkpt>
      <trkpt lat="42.3010800" lon="2.1667110">
        <ele>895.8</ele>
        <time>2020-07-31T05:25:40Z</time>
      </trkpt>
      <trkpt lat="42.3006780" lon="2.1665670">
        <ele>895.8</ele>
        <time>2020-07-31T05:25:46Z</time>
      </trkpt>
      <trkpt lat="42.3002500" lon="2.1664260">
        <ele>895.6</ele>
        <time>2020-07-31T05:25:52Z</time>
      </trkpt>
      <trkpt lat="42.2997810" lon="2.1662490">
        <ele>895.2</ele>
        <time>2020-07-31T05:25:58Z</time>
      </trkpt>
      <trkpt lat="42.2994000" lon="2.1660530">
        <ele>893.8</ele>
        <time>2020-07-31T05:26:03Z</time>
      </trkpt>
      <trkpt lat="42.2993220" lon="2.1660000">
        <ele>893.4</ele>
        <time>2020-07-31T05:26:04Z</time>
      </trkpt>
      <trkpt lat="42.2990960" lon="2.1658000">
        <ele>892.6</ele>
        <time>2020-07-31T05:26:07Z</time>
      </trkpt>
      <trkpt lat="42.2989420" lon="2.1656660">
        <ele>891.6</ele>
        <time>2020-07-31T05:26:09Z</time>
      </trkpt>
      <trkpt lat="42.2988660" lon="2.1656000">
        <ele>891.2</ele>
        <time>2020-07-31T05:26:10Z</time>
      </trkpt>
      <trkpt lat="42.2986000" lon="2.1654160">
        <ele>890.2</ele>
        <time>2020-07-31T05:26:13Z</time>
      </trkpt>
      <trkpt lat="42.2984090" lon="2.1653360">
        <ele>889.8</ele>
        <time>2020-07-31T05:26:15Z</time>
      </trkpt>
      <trkpt lat="42.2982140" lon="2.1652910">
        <ele>889.2</ele>
        <time>2020-07-31T05:26:17Z</time>
      </trkpt>
      <trkpt lat="42.2981270" lon="2.1652710">
        <ele>888.8</ele>
        <time>2020-07-31T05:26:18Z</time>
      </trkpt>
      <trkpt lat="42.2980460" lon="2.1652480">
        <ele>888.4</ele>
        <time>2020-07-31T05:26:19Z</time>
      </trkpt>
      <trkpt lat="42.2978730" lon="2.1651900">
        <ele>887.8</ele>
        <time>2020-07-31T05:26:21Z</time>
      </trkpt>
      <trkpt lat="42.2974920" lon="2.1650930">
        <ele>887.0</ele>
        <time>2020-07-31T05:26:25Z</time>
      </trkpt>
      <trkpt lat="42.2973950" lon="2.1650700">
        <ele>886.4</ele>
        <time>2020-07-31T05:26:26Z</time>
      </trkpt>
      <trkpt lat="42.2969400" lon="2.1650180">
        <ele>885.4</ele>
        <time>2020-07-31T05:26:30Z</time>
      </trkpt>
      <trkpt lat="42.2968230" lon="2.1650120">
        <ele>885.0</ele>
        <time>2020-07-31T05:26:31Z</time>
      </trkpt>
      <trkpt lat="42.2962400" lon="2.1649600">
        <ele>883.8</ele>
        <time>2020-07-31T05:26:36Z</time>
      </trkpt>
      <trkpt lat="42.2961290" lon="2.1649460">
        <ele>883.4</ele>
        <time>2020-07-31T05:26:37Z</time>
      </trkpt>
      <trkpt lat="42.2958180" lon="2.1648650">
        <ele>882.4</ele>
        <time>2020-07-31T05:26:40Z</time>
      </trkpt>
      <trkpt lat="42.2956230" lon="2.1648090">
        <ele>881.8</ele>
        <time>2020-07-31T05:26:42Z</time>
      </trkpt>
      <trkpt lat="42.2955190" lon="2.1647780">
        <ele>881.6</ele>
        <time>2020-07-31T05:26:43Z</time>
      </trkpt>
      <trkpt lat="42.2953810" lon="2.1647750">
        <ele>881.2</ele>
        <time>2020-07-31T05:26:45Z</time>
      </trkpt>
      <trkpt lat="42.2949350" lon="2.1645710">
        <ele>880.2</ele>
        <time>2020-07-31T05:26:50Z</time>
      </trkpt>
      <trkpt lat="42.2948570" lon="2.1645030">
        <ele>880.0</ele>
        <time>2020-07-31T05:26:51Z</time>
      </trkpt>
      <trkpt lat="42.2947170" lon="2.1643350">
        <ele>879.0</ele>
        <time>2020-07-31T05:26:53Z</time>
      </trkpt>
      <trkpt lat="42.2944980" lon="2.1639220">
        <ele>878.4</ele>
        <time>2020-07-31T05:26:57Z</time>
      </trkpt>
      <trkpt lat="42.2944470" lon="2.1638140">
        <ele>878.0</ele>
        <time>2020-07-31T05:26:58Z</time>
      </trkpt>
      <trkpt lat="42.2944000" lon="2.1637050">
        <ele>877.8</ele>
        <time>2020-07-31T05:26:59Z</time>
      </trkpt>
      <trkpt lat="42.2941950" lon="2.1631440">
        <ele>877.4</ele>
        <time>2020-07-31T05:27:04Z</time>
      </trkpt>
      <trkpt lat="42.2940460" lon="2.1625610">
        <ele>877.4</ele>
        <time>2020-07-31T05:27:09Z</time>
      </trkpt>
      <trkpt lat="42.2940050" lon="2.1624430">
        <ele>877.4</ele>
        <time>2020-07-31T05:27:10Z</time>
      </trkpt>
      <trkpt lat="42.2937190" lon="2.1617800">
        <ele>877.2</ele>
        <time>2020-07-31T05:27:16Z</time>
      </trkpt>
      <trkpt lat="42.2933870" lon="2.1612110">
        <ele>877.0</ele>
        <time>2020-07-31T05:27:22Z</time>
      </trkpt>
      <trkpt lat="42.2933190" lon="2.1611330">
        <ele>877.0</ele>
        <time>2020-07-31T05:27:23Z</time>
      </trkpt>
      <trkpt lat="42.2930990" lon="2.1608350">
        <ele>876.6</ele>
        <time>2020-07-31T05:27:27Z</time>
      </trkpt>
      <trkpt lat="42.2930280" lon="2.1607720">
        <ele>876.4</ele>
        <time>2020-07-31T05:27:28Z</time>
      </trkpt>
      <trkpt lat="42.2929740" lon="2.1607110">
        <ele>876.4</ele>
        <time>2020-07-31T05:27:29Z</time>
      </trkpt>
      <trkpt lat="42.2928930" lon="2.1606590">
        <ele>876.4</ele>
        <time>2020-07-31T05:27:30Z</time>
      </trkpt>
      <trkpt lat="42.2928080" lon="2.1606130">
        <ele>876.2</ele>
        <time>2020-07-31T05:27:31Z</time>
      </trkpt>
      <trkpt lat="42.2923600" lon="2.1605150">
        <ele>876.0</ele>
        <time>2020-07-31T05:27:35Z</time>
      </trkpt>
      <trkpt lat="42.2921270" lon="2.1605190">
        <ele>875.8</ele>
        <time>2020-07-31T05:27:37Z</time>
      </trkpt>
      <trkpt lat="42.2920160" lon="2.1605430">
        <ele>875.6</ele>
        <time>2020-07-31T05:27:38Z</time>
      </trkpt>
      <trkpt lat="42.2917980" lon="2.1606100">
        <ele>875.6</ele>
        <time>2020-07-31T05:27:40Z</time>
      </trkpt>
      <trkpt lat="42.2915680" lon="2.1606780">
        <ele>875.2</ele>
        <time>2020-07-31T05:27:42Z</time>
      </trkpt>
      <trkpt lat="42.2914530" lon="2.1606930">
        <ele>874.8</ele>
        <time>2020-07-31T05:27:43Z</time>
      </trkpt>
      <trkpt lat="42.2911260" lon="2.1606610">
        <ele>874.2</ele>
        <time>2020-07-31T05:27:46Z</time>
      </trkpt>
      <trkpt lat="42.2910200" lon="2.1606420">
        <ele>873.8</ele>
        <time>2020-07-31T05:27:47Z</time>
      </trkpt>
      <trkpt lat="42.2907230" lon="2.1605880">
        <ele>872.6</ele>
        <time>2020-07-31T05:27:50Z</time>
      </trkpt>
      <trkpt lat="42.2905160" lon="2.1605420">
        <ele>871.6</ele>
        <time>2020-07-31T05:27:52Z</time>
      </trkpt>
      <trkpt lat="42.2904170" lon="2.1605180">
        <ele>871.2</ele>
        <time>2020-07-31T05:27:53Z</time>
      </trkpt>
      <trkpt lat="42.2902210" lon="2.1604440">
        <ele>871.0</ele>
        <time>2020-07-31T05:27:55Z</time>
      </trkpt>
      <trkpt lat="42.2901250" lon="2.1603830">
        <ele>871.0</ele>
        <time>2020-07-31T05:27:56Z</time>
      </trkpt>
      <trkpt lat="42.2897250" lon="2.1601360">
        <ele>870.2</ele>
        <time>2020-07-31T05:28:00Z</time>
      </trkpt>
      <trkpt lat="42.2896220" lon="2.1600820">
        <ele>870.0</ele>
        <time>2020-07-31T05:28:01Z</time>
      </trkpt>
      <trkpt lat="42.2891820" lon="2.1599020">
        <ele>868.8</ele>
        <time>2020-07-31T05:28:05Z</time>
      </trkpt>
      <trkpt lat="42.2889520" lon="2.1598450">
        <ele>867.8</ele>
        <time>2020-07-31T05:28:07Z</time>
      </trkpt>
      <trkpt lat="42.2888360" lon="2.1598380">
        <ele>867.6</ele>
        <time>2020-07-31T05:28:08Z</time>
      </trkpt>
      <trkpt lat="42.2886140" lon="2.1598590">
        <ele>867.0</ele>
        <time>2020-07-31T05:28:10Z</time>
      </trkpt>
      <trkpt lat="42.2885080" lon="2.1598820">
        <ele>866.4</ele>
        <time>2020-07-31T05:28:11Z</time>
      </trkpt>
      <trkpt lat="42.2881930" lon="2.1599740">
        <ele>865.0</ele>
        <time>2020-07-31T05:28:14Z</time>
      </trkpt>
      <trkpt lat="42.2879870" lon="2.1600450">
        <ele>864.2</ele>
        <time>2020-07-31T05:28:16Z</time>
      </trkpt>
      <trkpt lat="42.2878600" lon="2.1601450">
        <ele>863.8</ele>
        <time>2020-07-31T05:28:17Z</time>
      </trkpt>
      <trkpt lat="42.2873620" lon="2.1603060">
        <ele>863.0</ele>
        <time>2020-07-31T05:28:22Z</time>
      </trkpt>
      <trkpt lat="42.2870710" lon="2.1603650">
        <ele>862.4</ele>
        <time>2020-07-31T05:28:25Z</time>
      </trkpt>
      <trkpt lat="42.2867700" lon="2.1603680">
        <ele>862.0</ele>
        <time>2020-07-31T05:28:28Z</time>
      </trkpt>
      <trkpt lat="42.2862830" lon="2.1602210">
        <ele>861.6</ele>
        <time>2020-07-31T05:28:33Z</time>
      </trkpt>
      <trkpt lat="42.2861920" lon="2.1601710">
        <ele>861.4</ele>
        <time>2020-07-31T05:28:34Z</time>
      </trkpt>
      <trkpt lat="42.2859250" lon="2.1599990">
        <ele>860.0</ele>
        <time>2020-07-31T05:28:37Z</time>
      </trkpt>
      <trkpt lat="42.2858470" lon="2.1599290">
        <ele>859.8</ele>
        <time>2020-07-31T05:28:38Z</time>
      </trkpt>
      <trkpt lat="42.2854600" lon="2.1595690">
        <ele>858.8</ele>
        <time>2020-07-31T05:28:43Z</time>
      </trkpt>
      <trkpt lat="42.2852370" lon="2.1593460">
        <ele>858.2</ele>
        <time>2020-07-31T05:28:46Z</time>
      </trkpt>
      <trkpt lat="42.2848530" lon="2.1589540">
        <ele>857.6</ele>
        <time>2020-07-31T05:28:51Z</time>
      </trkpt>
      <trkpt lat="42.2846170" lon="2.1587490">
        <ele>857.6</ele>
        <time>2020-07-31T05:28:54Z</time>
      </trkpt>
      <trkpt lat="42.2845370" lon="2.1586960">
        <ele>857.6</ele>
        <time>2020-07-31T05:28:55Z</time>
      </trkpt>
      <trkpt lat="42.2844540" lon="2.1586600">
        <ele>857.4</ele>
        <time>2020-07-31T05:28:56Z</time>
      </trkpt>
      <trkpt lat="42.2842750" lon="2.1586490">
        <ele>857.4</ele>
        <time>2020-07-31T05:28:58Z</time>
      </trkpt>
      <trkpt lat="42.2840060" lon="2.1587580">
        <ele>857.4</ele>
        <time>2020-07-31T05:29:01Z</time>
      </trkpt>
      <trkpt lat="42.2838370" lon="2.1588740">
        <ele>857.2</ele>
        <time>2020-07-31T05:29:03Z</time>
      </trkpt>
      <trkpt lat="42.2835750" lon="2.1590440">
        <ele>856.6</ele>
        <time>2020-07-31T05:29:06Z</time>
      </trkpt>
      <trkpt lat="42.2833920" lon="2.1591320">
        <ele>856.0</ele>
        <time>2020-07-31T05:29:08Z</time>
      </trkpt>
      <trkpt lat="42.2832060" lon="2.1591780">
        <ele>855.4</ele>
        <time>2020-07-31T05:29:10Z</time>
      </trkpt>
      <trkpt lat="42.2831140" lon="2.1591850">
        <ele>855.0</ele>
        <time>2020-07-31T05:29:11Z</time>
      </trkpt>
      <trkpt lat="42.2829340" lon="2.1591960">
        <ele>853.6</ele>
        <time>2020-07-31T05:29:13Z</time>
      </trkpt>
      <trkpt lat="42.2826870" lon="2.1591850">
        <ele>852.4</ele>
        <time>2020-07-31T05:29:16Z</time>
      </trkpt>
      <trkpt lat="42.2821390" lon="2.1591540">
        <ele>851.8</ele>
        <time>2020-07-31T05:29:22Z</time>
      </trkpt>
      <trkpt lat="42.2815760" lon="2.1589910">
        <ele>851.4</ele>
        <time>2020-07-31T05:29:28Z</time>
      </trkpt>
      <trkpt lat="42.2810510" lon="2.1590170">
        <ele>851.4</ele>
        <time>2020-07-31T05:29:33Z</time>
      </trkpt>
      <trkpt lat="42.2809500" lon="2.1590470">
        <ele>851.4</ele>
        <time>2020-07-31T05:29:34Z</time>
      </trkpt>
      <trkpt lat="42.2806650" lon="2.1591380">
        <ele>851.0</ele>
        <time>2020-07-31T05:29:37Z</time>
      </trkpt>
      <trkpt lat="42.2803110" lon="2.1592580">
        <ele>849.8</ele>
        <time>2020-07-31T05:29:41Z</time>
      </trkpt>
      <trkpt lat="42.2801290" lon="2.1593330">
        <ele>849.6</ele>
        <time>2020-07-31T05:29:43Z</time>
      </trkpt>
      <trkpt lat="42.2796620" lon="2.1595280">
        <ele>848.8</ele>
        <time>2020-07-31T05:29:48Z</time>
      </trkpt>
      <trkpt lat="42.2795630" lon="2.1595490">
        <ele>848.4</ele>
        <time>2020-07-31T05:29:49Z</time>
      </trkpt>
      <trkpt lat="42.2792550" lon="2.1595400">
        <ele>847.8</ele>
        <time>2020-07-31T05:29:52Z</time>
      </trkpt>
      <trkpt lat="42.2791540" lon="2.1595140">
        <ele>847.4</ele>
        <time>2020-07-31T05:29:53Z</time>
      </trkpt>
      <trkpt lat="42.2790500" lon="2.1594910">
        <ele>847.2</ele>
        <time>2020-07-31T05:29:54Z</time>
      </trkpt>
      <trkpt lat="42.2787450" lon="2.1593990">
        <ele>846.0</ele>
        <time>2020-07-31T05:29:57Z</time>
      </trkpt>
      <trkpt lat="42.2785410" lon="2.1593440">
        <ele>844.8</ele>
        <time>2020-07-31T05:29:59Z</time>
      </trkpt>
      <trkpt lat="42.2783490" lon="2.1592850">
        <ele>843.6</ele>
        <time>2020-07-31T05:30:01Z</time>
      </trkpt>
      <trkpt lat="42.2780590" lon="2.1592080">
        <ele>842.4</ele>
        <time>2020-07-31T05:30:04Z</time>
      </trkpt>
      <trkpt lat="42.2779630" lon="2.1591870">
        <ele>842.2</ele>
        <time>2020-07-31T05:30:05Z</time>
      </trkpt>
      <trkpt lat="42.2776610" lon="2.1591630">
        <ele>841.4</ele>
        <time>2020-07-31T05:30:08Z</time>
      </trkpt>
      <trkpt lat="42.2773130" lon="2.1592380">
        <ele>840.8</ele>
        <time>2020-07-31T05:30:11Z</time>
      </trkpt>
      <trkpt lat="42.2769640" lon="2.1593710">
        <ele>840.2</ele>
        <time>2020-07-31T05:30:14Z</time>
      </trkpt>
      <trkpt lat="42.2767200" lon="2.1594910">
        <ele>840.0</ele>
        <time>2020-07-31T05:30:16Z</time>
      </trkpt>
      <trkpt lat="42.2762960" lon="2.1596280">
        <ele>838.8</ele>
        <time>2020-07-31T05:30:20Z</time>
      </trkpt>
      <trkpt lat="42.2760870" lon="2.1596910">
        <ele>838.0</ele>
        <time>2020-07-31T05:30:22Z</time>
      </trkpt>
      <trkpt lat="42.2759830" lon="2.1597230">
        <ele>837.8</ele>
        <time>2020-07-31T05:30:23Z</time>
      </trkpt>
      <trkpt lat="42.2755800" lon="2.1597890">
        <ele>836.4</ele>
        <time>2020-07-31T05:30:27Z</time>
      </trkpt>
      <trkpt lat="42.2751010" lon="2.1596780">
        <ele>835.0</ele>
        <time>2020-07-31T05:30:32Z</time>
      </trkpt>
      <trkpt lat="42.2745940" lon="2.1594860">
        <ele>834.0</ele>
        <time>2020-07-31T05:30:37Z</time>
      </trkpt>
      <trkpt lat="42.2745010" lon="2.1594250">
        <ele>833.4</ele>
        <time>2020-07-31T05:30:38Z</time>
      </trkpt>
      <trkpt lat="42.2742330" lon="2.1592110">
        <ele>832.6</ele>
        <time>2020-07-31T05:30:41Z</time>
      </trkpt>
      <trkpt lat="42.2740350" lon="2.1590970">
        <ele>832.2</ele>
        <time>2020-07-31T05:30:43Z</time>
      </trkpt>
      <trkpt lat="42.2737280" lon="2.1589640">
        <ele>831.6</ele>
        <time>2020-07-31T05:30:46Z</time>
      </trkpt>
      <trkpt lat="42.2734040" lon="2.1589130">
        <ele>831.2</ele>
        <time>2020-07-31T05:30:49Z</time>
      </trkpt>
      <trkpt lat="42.2733010" lon="2.1589110">
        <ele>830.6</ele>
        <time>2020-07-31T05:30:50Z</time>
      </trkpt>
      <trkpt lat="42.2732060" lon="2.1589120">
        <ele>830.4</ele>
        <time>2020-07-31T05:30:51Z</time>
      </trkpt>
      <trkpt lat="42.2730150" lon="2.1589700">
        <ele>829.8</ele>
        <time>2020-07-31T05:30:53Z</time>
      </trkpt>
      <trkpt lat="42.2724730" lon="2.1592270">
        <ele>828.6</ele>
        <time>2020-07-31T05:30:59Z</time>
      </trkpt>
      <trkpt lat="42.2723860" lon="2.1592680">
        <ele>828.6</ele>
        <time>2020-07-31T05:31:00Z</time>
      </trkpt>
      <trkpt lat="42.2719680" lon="2.1593950">
        <ele>828.4</ele>
        <time>2020-07-31T05:31:05Z</time>
      </trkpt>
      <trkpt lat="42.2718870" lon="2.1593850">
        <ele>828.4</ele>
        <time>2020-07-31T05:31:06Z</time>
      </trkpt>
      <trkpt lat="42.2715940" lon="2.1592100">
        <ele>828.8</ele>
        <time>2020-07-31T05:31:10Z</time>
      </trkpt>
      <trkpt lat="42.2711050" lon="2.1589900">
        <ele>828.8</ele>
        <time>2020-07-31T05:31:16Z</time>
      </trkpt>
      <trkpt lat="42.2706570" lon="2.1589180">
        <ele>828.8</ele>
        <time>2020-07-31T05:31:21Z</time>
      </trkpt>
      <trkpt lat="42.2701310" lon="2.1589820">
        <ele>827.8</ele>
        <time>2020-07-31T05:31:27Z</time>
      </trkpt>
      <trkpt lat="42.2695610" lon="2.1590370">
        <ele>828.0</ele>
        <time>2020-07-31T05:31:34Z</time>
      </trkpt>
      <trkpt lat="42.2690750" lon="2.1592940">
        <ele>828.4</ele>
        <time>2020-07-31T05:31:39Z</time>
      </trkpt>
      <trkpt lat="42.2685690" lon="2.1595760">
        <ele>828.4</ele>
        <time>2020-07-31T05:31:44Z</time>
      </trkpt>
      <trkpt lat="42.2684660" lon="2.1596310">
        <ele>828.4</ele>
        <time>2020-07-31T05:31:45Z</time>
      </trkpt>
      <trkpt lat="42.2679510" lon="2.1599310">
        <ele>826.4</ele>
        <time>2020-07-31T05:31:50Z</time>
      </trkpt>
      <trkpt lat="42.2676670" lon="2.1600950">
        <ele>824.8</ele>
        <time>2020-07-31T05:31:53Z</time>
      </trkpt>
      <trkpt lat="42.2674820" lon="2.1601840">
        <ele>822.8</ele>
        <time>2020-07-31T05:31:55Z</time>
      </trkpt>
      <trkpt lat="42.2673000" lon="2.1602680">
        <ele>821.6</ele>
        <time>2020-07-31T05:31:57Z</time>
      </trkpt>
      <trkpt lat="42.2671060" lon="2.1603520">
        <ele>820.2</ele>
        <time>2020-07-31T05:31:59Z</time>
      </trkpt>
      <trkpt lat="42.2668160" lon="2.1604840">
        <ele>819.0</ele>
        <time>2020-07-31T05:32:02Z</time>
      </trkpt>
      <trkpt lat="42.2665130" lon="2.1606730">
        <ele>818.2</ele>
        <time>2020-07-31T05:32:05Z</time>
      </trkpt>
      <trkpt lat="42.2664230" lon="2.1607560">
        <ele>817.8</ele>
        <time>2020-07-31T05:32:06Z</time>
      </trkpt>
      <trkpt lat="42.2661900" lon="2.1610370">
        <ele>817.2</ele>
        <time>2020-07-31T05:32:09Z</time>
      </trkpt>
      <trkpt lat="42.2660060" lon="2.1613570">
        <ele>816.8</ele>
        <time>2020-07-31T05:32:12Z</time>
      </trkpt>
      <trkpt lat="42.2659560" lon="2.1614720">
        <ele>816.6</ele>
        <time>2020-07-31T05:32:13Z</time>
      </trkpt>
      <trkpt lat="42.2658180" lon="2.1618310">
        <ele>815.8</ele>
        <time>2020-07-31T05:32:16Z</time>
      </trkpt>
      <trkpt lat="42.2656820" lon="2.1621890">
        <ele>815.0</ele>
        <time>2020-07-31T05:32:19Z</time>
      </trkpt>
      <trkpt lat="42.2655680" lon="2.1624460">
        <ele>814.6</ele>
        <time>2020-07-31T05:32:21Z</time>
      </trkpt>
      <trkpt lat="42.2653740" lon="2.1627800">
        <ele>814.0</ele>
        <time>2020-07-31T05:32:24Z</time>
      </trkpt>
      <trkpt lat="42.2652730" lon="2.1629040">
        <ele>813.4</ele>
        <time>2020-07-31T05:32:25Z</time>
      </trkpt>
      <trkpt lat="42.2650470" lon="2.1631230">
        <ele>812.6</ele>
        <time>2020-07-31T05:32:27Z</time>
      </trkpt>
      <trkpt lat="42.2647130" lon="2.1632860">
        <ele>811.6</ele>
        <time>2020-07-31T05:32:30Z</time>
      </trkpt>
      <trkpt lat="42.2644370" lon="2.1632160">
        <ele>811.4</ele>
        <time>2020-07-31T05:32:33Z</time>
      </trkpt>
      <trkpt lat="42.2643480" lon="2.1631690">
        <ele>811.4</ele>
        <time>2020-07-31T05:32:34Z</time>
      </trkpt>
      <trkpt lat="42.2642570" lon="2.1631180">
        <ele>811.2</ele>
        <time>2020-07-31T05:32:35Z</time>
      </trkpt>
      <trkpt lat="42.2640070" lon="2.1629610">
        <ele>810.6</ele>
        <time>2020-07-31T05:32:38Z</time>
      </trkpt>
      <trkpt lat="42.2639280" lon="2.1629020">
        <ele>810.2</ele>
        <time>2020-07-31T05:32:39Z</time>
      </trkpt>
      <trkpt lat="42.2636350" lon="2.1626760">
        <ele>809.8</ele>
        <time>2020-07-31T05:32:43Z</time>
      </trkpt>
      <trkpt lat="42.2632610" lon="2.1624410">
        <ele>809.6</ele>
        <time>2020-07-31T05:32:48Z</time>
      </trkpt>
      <trkpt lat="42.2628580" lon="2.1623310">
        <ele>809.4</ele>
        <time>2020-07-31T05:32:52Z</time>
      </trkpt>
      <trkpt lat="42.2627570" lon="2.1623300">
        <ele>809.4</ele>
        <time>2020-07-31T05:32:53Z</time>
      </trkpt>
      <trkpt lat="42.2625580" lon="2.1623560">
        <ele>809.4</ele>
        <time>2020-07-31T05:32:55Z</time>
      </trkpt>
      <trkpt lat="42.2623770" lon="2.1624360">
        <ele>809.4</ele>
        <time>2020-07-31T05:32:57Z</time>
      </trkpt>
      <trkpt lat="42.2622980" lon="2.1624880">
        <ele>809.0</ele>
        <time>2020-07-31T05:32:58Z</time>
      </trkpt>
      <trkpt lat="42.2620780" lon="2.1627220">
        <ele>808.4</ele>
        <time>2020-07-31T05:33:01Z</time>
      </trkpt>
      <trkpt lat="42.2619210" lon="2.1629690">
        <ele>808.0</ele>
        <time>2020-07-31T05:33:03Z</time>
      </trkpt>
      <trkpt lat="42.2617800" lon="2.1632080">
        <ele>807.0</ele>
        <time>2020-07-31T05:33:05Z</time>
      </trkpt>
      <trkpt lat="42.2614610" lon="2.1638290">
        <ele>805.8</ele>
        <time>2020-07-31T05:33:10Z</time>
      </trkpt>
      <trkpt lat="42.2613990" lon="2.1639430">
        <ele>805.6</ele>
        <time>2020-07-31T05:33:11Z</time>
      </trkpt>
      <trkpt lat="42.2611950" lon="2.1642630">
        <ele>804.4</ele>
        <time>2020-07-31T05:33:14Z</time>
      </trkpt>
      <trkpt lat="42.2611180" lon="2.1643520">
        <ele>803.6</ele>
        <time>2020-07-31T05:33:15Z</time>
      </trkpt>
      <trkpt lat="42.2610380" lon="2.1644320">
        <ele>803.2</ele>
        <time>2020-07-31T05:33:16Z</time>
      </trkpt>
      <trkpt lat="42.2607860" lon="2.1646080">
        <ele>802.6</ele>
        <time>2020-07-31T05:33:19Z</time>
      </trkpt>
      <trkpt lat="42.2602670" lon="2.1648500">
        <ele>802.2</ele>
        <time>2020-07-31T05:33:25Z</time>
      </trkpt>
      <trkpt lat="42.2598060" lon="2.1650630">
        <ele>802.0</ele>
        <time>2020-07-31T05:33:30Z</time>
      </trkpt>
      <trkpt lat="42.2596160" lon="2.1651510">
        <ele>801.8</ele>
        <time>2020-07-31T05:33:32Z</time>
      </trkpt>
      <trkpt lat="42.2590750" lon="2.1653890">
        <ele>801.4</ele>
        <time>2020-07-31T05:33:38Z</time>
      </trkpt>
      <trkpt lat="42.2588140" lon="2.1654800">
        <ele>801.2</ele>
        <time>2020-07-31T05:33:41Z</time>
      </trkpt>
      <trkpt lat="42.2586520" lon="2.1655370">
        <ele>801.0</ele>
        <time>2020-07-31T05:33:43Z</time>
      </trkpt>
      <trkpt lat="42.2584110" lon="2.1655870">
        <ele>800.8</ele>
        <time>2020-07-31T05:33:46Z</time>
      </trkpt>
      <trkpt lat="42.2582140" lon="2.1654980">
        <ele>800.6</ele>
        <time>2020-07-31T05:33:49Z</time>
      </trkpt>
      <trkpt lat="42.2579220" lon="2.1652820">
        <ele>800.4</ele>
        <time>2020-07-31T05:33:53Z</time>
      </trkpt>
      <trkpt lat="42.2577270" lon="2.1650250">
        <ele>800.0</ele>
        <time>2020-07-31T05:33:56Z</time>
      </trkpt>
      <trkpt lat="42.2576690" lon="2.1649290">
        <ele>800.0</ele>
        <time>2020-07-31T05:33:57Z</time>
      </trkpt>
      <trkpt lat="42.2576150" lon="2.1648320">
        <ele>800.0</ele>
        <time>2020-07-31T05:33:58Z</time>
      </trkpt>
      <trkpt lat="42.2575550" lon="2.1647370">
        <ele>799.8</ele>
        <time>2020-07-31T05:33:59Z</time>
      </trkpt>
      <trkpt lat="42.2574220" lon="2.1645670">
        <ele>799.6</ele>
        <time>2020-07-31T05:34:01Z</time>
      </trkpt>
      <trkpt lat="42.2572660" lon="2.1644200">
        <ele>799.6</ele>
        <time>2020-07-31T05:34:03Z</time>
      </trkpt>
      <trkpt lat="42.2570830" lon="2.1643140">
        <ele>799.4</ele>
        <time>2020-07-31T05:34:05Z</time>
      </trkpt>
      <trkpt lat="42.2569910" lon="2.1642790">
        <ele>799.4</ele>
        <time>2020-07-31T05:34:06Z</time>
      </trkpt>
      <trkpt lat="42.2567090" lon="2.1642330">
        <ele>799.0</ele>
        <time>2020-07-31T05:34:09Z</time>
      </trkpt>
      <trkpt lat="42.2566130" lon="2.1642440">
        <ele>798.8</ele>
        <time>2020-07-31T05:34:10Z</time>
      </trkpt>
      <trkpt lat="42.2564270" lon="2.1643110">
        <ele>798.6</ele>
        <time>2020-07-31T05:34:12Z</time>
      </trkpt>
      <trkpt lat="42.2561080" lon="2.1645550">
        <ele>798.4</ele>
        <time>2020-07-31T05:34:16Z</time>
      </trkpt>
      <trkpt lat="42.2556990" lon="2.1649590">
        <ele>798.0</ele>
        <time>2020-07-31T05:34:22Z</time>
      </trkpt>
      <trkpt lat="42.2556320" lon="2.1650210">
        <ele>797.4</ele>
        <time>2020-07-31T05:34:23Z</time>
      </trkpt>
      <trkpt lat="42.2553160" lon="2.1652580">
        <ele>797.0</ele>
        <time>2020-07-31T05:34:27Z</time>
      </trkpt>
      <trkpt lat="42.2552240" lon="2.1652960">
        <ele>796.8</ele>
        <time>2020-07-31T05:34:28Z</time>
      </trkpt>
      <trkpt lat="42.2549030" lon="2.1653930">
        <ele>796.6</ele>
        <time>2020-07-31T05:34:31Z</time>
      </trkpt>
      <trkpt lat="42.2548060" lon="2.1654130">
        <ele>796.6</ele>
        <time>2020-07-31T05:34:32Z</time>
      </trkpt>
      <trkpt lat="42.2542800" lon="2.1654160">
        <ele>796.4</ele>
        <time>2020-07-31T05:34:37Z</time>
      </trkpt>
      <trkpt lat="42.2541760" lon="2.1653840">
        <ele>796.2</ele>
        <time>2020-07-31T05:34:38Z</time>
      </trkpt>
      <trkpt lat="42.2538650" lon="2.1652490">
        <ele>795.2</ele>
        <time>2020-07-31T05:34:41Z</time>
      </trkpt>
      <trkpt lat="42.2536600" lon="2.1651340">
        <ele>794.0</ele>
        <time>2020-07-31T05:34:43Z</time>
      </trkpt>
      <trkpt lat="42.2534650" lon="2.1650020">
        <ele>792.8</ele>
        <time>2020-07-31T05:34:45Z</time>
      </trkpt>
      <trkpt lat="42.2533760" lon="2.1649280">
        <ele>792.2</ele>
        <time>2020-07-31T05:34:46Z</time>
      </trkpt>
      <trkpt lat="42.2532900" lon="2.1648500">
        <ele>791.6</ele>
        <time>2020-07-31T05:34:47Z</time>
      </trkpt>
      <trkpt lat="42.2530440" lon="2.1645900">
        <ele>790.4</ele>
        <time>2020-07-31T05:34:50Z</time>
      </trkpt>
      <trkpt lat="42.2529690" lon="2.1644950">
        <ele>790.0</ele>
        <time>2020-07-31T05:34:51Z</time>
      </trkpt>
      <trkpt lat="42.2527420" lon="2.1641970">
        <ele>789.4</ele>
        <time>2020-07-31T05:34:54Z</time>
      </trkpt>
      <trkpt lat="42.2524770" lon="2.1639590">
        <ele>789.0</ele>
        <time>2020-07-31T05:34:57Z</time>
      </trkpt>
      <trkpt lat="42.2521470" lon="2.1638890">
        <ele>789.0</ele>
        <time>2020-07-31T05:35:00Z</time>
      </trkpt>
      <trkpt lat="42.2518240" lon="2.1639740">
        <ele>788.8</ele>
        <time>2020-07-31T05:35:03Z</time>
      </trkpt>
      <trkpt lat="42.2515720" lon="2.1642080">
        <ele>788.6</ele>
        <time>2020-07-31T05:35:06Z</time>
      </trkpt>
      <trkpt lat="42.2515000" lon="2.1642990">
        <ele>788.2</ele>
        <time>2020-07-31T05:35:07Z</time>
      </trkpt>
      <trkpt lat="42.2512180" lon="2.1647110">
        <ele>787.2</ele>
        <time>2020-07-31T05:35:11Z</time>
      </trkpt>
      <trkpt lat="42.2511500" lon="2.1648170">
        <ele>786.8</ele>
        <time>2020-07-31T05:35:12Z</time>
      </trkpt>
      <trkpt lat="42.2509530" lon="2.1651310">
        <ele>786.2</ele>
        <time>2020-07-31T05:35:15Z</time>
      </trkpt>
      <trkpt lat="42.2507290" lon="2.1654260">
        <ele>785.8</ele>
        <time>2020-07-31T05:35:18Z</time>
      </trkpt>
      <trkpt lat="42.2506470" lon="2.1655170">
        <ele>785.8</ele>
        <time>2020-07-31T05:35:19Z</time>
      </trkpt>
      <trkpt lat="42.2504520" lon="2.1656280">
        <ele>785.4</ele>
        <time>2020-07-31T05:35:21Z</time>
      </trkpt>
      <trkpt lat="42.2501540" lon="2.1656510">
        <ele>785.4</ele>
        <time>2020-07-31T05:35:24Z</time>
      </trkpt>
      <trkpt lat="42.2499620" lon="2.1656010">
        <ele>785.2</ele>
        <time>2020-07-31T05:35:26Z</time>
      </trkpt>
      <trkpt lat="42.2497900" lon="2.1655160">
        <ele>784.6</ele>
        <time>2020-07-31T05:35:28Z</time>
      </trkpt>
      <trkpt lat="42.2496320" lon="2.1654060">
        <ele>784.2</ele>
        <time>2020-07-31T05:35:30Z</time>
      </trkpt>
      <trkpt lat="42.2495010" lon="2.1652580">
        <ele>784.2</ele>
        <time>2020-07-31T05:35:32Z</time>
      </trkpt>
      <trkpt lat="42.2493570" lon="2.1649840">
        <ele>784.0</ele>
        <time>2020-07-31T05:35:35Z</time>
      </trkpt>
      <trkpt lat="42.2493110" lon="2.1648880">
        <ele>784.0</ele>
        <time>2020-07-31T05:35:36Z</time>
      </trkpt>
      <trkpt lat="42.2490480" lon="2.1644490">
        <ele>784.2</ele>
        <time>2020-07-31T05:35:41Z</time>
      </trkpt>
      <trkpt lat="42.2489840" lon="2.1643770">
        <ele>784.6</ele>
        <time>2020-07-31T05:35:42Z</time>
      </trkpt>
      <trkpt lat="42.2489020" lon="2.1643260">
        <ele>785.0</ele>
        <time>2020-07-31T05:35:43Z</time>
      </trkpt>
      <trkpt lat="42.2487170" lon="2.1642530">
        <ele>785.8</ele>
        <time>2020-07-31T05:35:45Z</time>
      </trkpt>
      <trkpt lat="42.2486200" lon="2.1642320">
        <ele>786.0</ele>
        <time>2020-07-31T05:35:46Z</time>
      </trkpt>
      <trkpt lat="42.2485210" lon="2.1642140">
        <ele>786.2</ele>
        <time>2020-07-31T05:35:47Z</time>
      </trkpt>
      <trkpt lat="42.2482200" lon="2.1641490">
        <ele>786.2</ele>
        <time>2020-07-31T05:35:50Z</time>
      </trkpt>
      <trkpt lat="42.2476040" lon="2.1639010">
        <ele>784.6</ele>
        <time>2020-07-31T05:35:56Z</time>
      </trkpt>
      <trkpt lat="42.2474950" lon="2.1638740">
        <ele>784.2</ele>
        <time>2020-07-31T05:35:57Z</time>
      </trkpt>
      <trkpt lat="42.2472740" lon="2.1638640">
        <ele>783.2</ele>
        <time>2020-07-31T05:35:59Z</time>
      </trkpt>
      <trkpt lat="42.2469620" lon="2.1639450">
        <ele>782.4</ele>
        <time>2020-07-31T05:36:02Z</time>
      </trkpt>
      <trkpt lat="42.2468630" lon="2.1639930">
        <ele>782.2</ele>
        <time>2020-07-31T05:36:03Z</time>
      </trkpt>
      <trkpt lat="42.2463570" lon="2.1641780">
        <ele>780.8</ele>
        <time>2020-07-31T05:36:08Z</time>
      </trkpt>
      <trkpt lat="42.2462540" lon="2.1642130">
        <ele>780.0</ele>
        <time>2020-07-31T05:36:09Z</time>
      </trkpt>
      <trkpt lat="42.2461510" lon="2.1642440">
        <ele>779.6</ele>
        <time>2020-07-31T05:36:10Z</time>
      </trkpt>
      <trkpt lat="42.2459530" lon="2.1643020">
        <ele>778.4</ele>
        <time>2020-07-31T05:36:12Z</time>
      </trkpt>
      <trkpt lat="42.2457450" lon="2.1643670">
        <ele>777.4</ele>
        <time>2020-07-31T05:36:14Z</time>
      </trkpt>
      <trkpt lat="42.2453930" lon="2.1645090">
        <ele>776.2</ele>
        <time>2020-07-31T05:36:17Z</time>
      </trkpt>
      <trkpt lat="42.2452630" lon="2.1645720">
        <ele>776.0</ele>
        <time>2020-07-31T05:36:18Z</time>
      </trkpt>
      <trkpt lat="42.2446860" lon="2.1648060">
        <ele>775.2</ele>
        <time>2020-07-31T05:36:23Z</time>
      </trkpt>
      <trkpt lat="42.2445660" lon="2.1648630">
        <ele>774.8</ele>
        <time>2020-07-31T05:36:24Z</time>
      </trkpt>
      <trkpt lat="42.2439620" lon="2.1650670">
        <ele>774.2</ele>
        <time>2020-07-31T05:36:29Z</time>
      </trkpt>
      <trkpt lat="42.2438420" lon="2.1650750">
        <ele>774.0</ele>
        <time>2020-07-31T05:36:30Z</time>
      </trkpt>
      <trkpt lat="42.2436150" lon="2.1650610">
        <ele>772.4</ele>
        <time>2020-07-31T05:36:32Z</time>
      </trkpt>
      <trkpt lat="42.2435070" lon="2.1650390">
        <ele>771.6</ele>
        <time>2020-07-31T05:36:33Z</time>
      </trkpt>
      <trkpt lat="42.2434010" lon="2.1650100">
        <ele>771.0</ele>
        <time>2020-07-31T05:36:34Z</time>
      </trkpt>
      <trkpt lat="42.2431960" lon="2.1649390">
        <ele>769.8</ele>
        <time>2020-07-31T05:36:36Z</time>
      </trkpt>
      <trkpt lat="42.2430040" lon="2.1648640">
        <ele>769.4</ele>
        <time>2020-07-31T05:36:38Z</time>
      </trkpt>
      <trkpt lat="42.2424580" lon="2.1646630">
        <ele>769.4</ele>
        <time>2020-07-31T05:36:44Z</time>
      </trkpt>
      <trkpt lat="42.2419430" lon="2.1645270">
        <ele>769.8</ele>
        <time>2020-07-31T05:36:50Z</time>
      </trkpt>
      <trkpt lat="42.2416920" lon="2.1645960">
        <ele>770.0</ele>
        <time>2020-07-31T05:36:53Z</time>
      </trkpt>
      <trkpt lat="42.2414680" lon="2.1647530">
        <ele>770.0</ele>
        <time>2020-07-31T05:36:56Z</time>
      </trkpt>
      <trkpt lat="42.2413980" lon="2.1648140">
        <ele>770.0</ele>
        <time>2020-07-31T05:36:57Z</time>
      </trkpt>
      <trkpt lat="42.2409270" lon="2.1652620">
        <ele>770.0</ele>
        <time>2020-07-31T05:37:04Z</time>
      </trkpt>
      <trkpt lat="42.2408580" lon="2.1653270">
        <ele>770.0</ele>
        <time>2020-07-31T05:37:05Z</time>
      </trkpt>
      <trkpt lat="42.2403750" lon="2.1657880">
        <ele>769.6</ele>
        <time>2020-07-31T05:37:12Z</time>
      </trkpt>
      <trkpt lat="42.2402430" lon="2.1659120">
        <ele>769.0</ele>
        <time>2020-07-31T05:37:14Z</time>
      </trkpt>
      <trkpt lat="42.2401760" lon="2.1659760">
        <ele>769.0</ele>
        <time>2020-07-31T05:37:15Z</time>
      </trkpt>
      <trkpt lat="42.2399060" lon="2.1662220">
        <ele>767.8</ele>
        <time>2020-07-31T05:37:19Z</time>
      </trkpt>
      <trkpt lat="42.2396940" lon="2.1664080">
        <ele>767.2</ele>
        <time>2020-07-31T05:37:22Z</time>
      </trkpt>
      <trkpt lat="42.2392460" lon="2.1668320">
        <ele>766.4</ele>
        <time>2020-07-31T05:37:28Z</time>
      </trkpt>
      <trkpt lat="42.2389520" lon="2.1671000">
        <ele>765.2</ele>
        <time>2020-07-31T05:37:32Z</time>
      </trkpt>
      <trkpt lat="42.2388800" lon="2.1671630">
        <ele>764.6</ele>
        <time>2020-07-31T05:37:33Z</time>
      </trkpt>
      <trkpt lat="42.2387450" lon="2.1672820">
        <ele>764.0</ele>
        <time>2020-07-31T05:37:35Z</time>
      </trkpt>
      <trkpt lat="42.2384210" lon="2.1675680">
        <ele>763.0</ele>
        <time>2020-07-31T05:37:40Z</time>
      </trkpt>
      <trkpt lat="42.2382970" lon="2.1676730">
        <ele>763.0</ele>
        <time>2020-07-31T05:37:42Z</time>
      </trkpt>
      <trkpt lat="42.2380470" lon="2.1678380">
        <ele>763.0</ele>
        <time>2020-07-31T05:37:46Z</time>
      </trkpt>
      <trkpt lat="42.2379160" lon="2.1679070">
        <ele>763.0</ele>
        <time>2020-07-31T05:37:48Z</time>
      </trkpt>
      <trkpt lat="42.2376960" lon="2.1679750">
        <ele>763.0</ele>
        <time>2020-07-31T05:37:51Z</time>
      </trkpt>
      <trkpt lat="42.2372870" lon="2.1680460">
        <ele>762.8</ele>
        <time>2020-07-31T05:37:56Z</time>
      </trkpt>
      <trkpt lat="42.2369310" lon="2.1681150">
        <ele>761.8</ele>
        <time>2020-07-31T05:38:00Z</time>
      </trkpt>
      <trkpt lat="42.2367550" lon="2.1681280">
        <ele>761.2</ele>
        <time>2020-07-31T05:38:02Z</time>
      </trkpt>
      <trkpt lat="42.2365790" lon="2.1681290">
        <ele>760.6</ele>
        <time>2020-07-31T05:38:04Z</time>
      </trkpt>
      <trkpt lat="42.2363070" lon="2.1680860">
        <ele>760.0</ele>
        <time>2020-07-31T05:38:07Z</time>
      </trkpt>
      <trkpt lat="42.2362130" lon="2.1680710">
        <ele>759.6</ele>
        <time>2020-07-31T05:38:08Z</time>
      </trkpt>
      <trkpt lat="42.2358490" lon="2.1679910">
        <ele>758.4</ele>
        <time>2020-07-31T05:38:12Z</time>
      </trkpt>
      <trkpt lat="42.2356690" lon="2.1679560">
        <ele>758.0</ele>
        <time>2020-07-31T05:38:14Z</time>
      </trkpt>
      <trkpt lat="42.2354990" lon="2.1679370">
        <ele>757.4</ele>
        <time>2020-07-31T05:38:16Z</time>
      </trkpt>
      <trkpt lat="42.2351750" lon="2.1679490">
        <ele>757.0</ele>
        <time>2020-07-31T05:38:20Z</time>
      </trkpt>
      <trkpt lat="42.2346240" lon="2.1679940">
        <ele>757.0</ele>
        <time>2020-07-31T05:38:26Z</time>
      </trkpt>
      <trkpt lat="42.2345300" lon="2.1680110">
        <ele>756.8</ele>
        <time>2020-07-31T05:38:27Z</time>
      </trkpt>
      <trkpt lat="42.2339750" lon="2.1681050">
        <ele>756.8</ele>
        <time>2020-07-31T05:38:33Z</time>
      </trkpt>
      <trkpt lat="42.2336220" lon="2.1681510">
        <ele>756.4</ele>
        <time>2020-07-31T05:38:37Z</time>
      </trkpt>
      <trkpt lat="42.2335340" lon="2.1681620">
        <ele>756.0</ele>
        <time>2020-07-31T05:38:38Z</time>
      </trkpt>
      <trkpt lat="42.2332760" lon="2.1681960">
        <ele>755.0</ele>
        <time>2020-07-31T05:38:41Z</time>
      </trkpt>
      <trkpt lat="42.2328590" lon="2.1682500">
        <ele>754.8</ele>
        <time>2020-07-31T05:38:46Z</time>
      </trkpt>
      <trkpt lat="42.2324010" lon="2.1683000">
        <ele>754.6</ele>
        <time>2020-07-31T05:38:52Z</time>
      </trkpt>
      <trkpt lat="42.2319040" lon="2.1683750">
        <ele>754.2</ele>
        <time>2020-07-31T05:38:59Z</time>
      </trkpt>
      <trkpt lat="42.2316790" lon="2.1684450">
        <ele>754.0</ele>
        <time>2020-07-31T05:39:02Z</time>
      </trkpt>
      <trkpt lat="42.2314340" lon="2.1685220">
        <ele>754.0</ele>
        <time>2020-07-31T05:39:05Z</time>
      </trkpt>
      <trkpt lat="42.2310520" lon="2.1686200">
        <ele>753.2</ele>
        <time>2020-07-31T05:39:10Z</time>
      </trkpt>
      <trkpt lat="42.2309690" lon="2.1686430">
        <ele>752.6</ele>
        <time>2020-07-31T05:39:11Z</time>
      </trkpt>
      <trkpt lat="42.2307090" lon="2.1687450">
        <ele>751.2</ele>
        <time>2020-07-31T05:39:14Z</time>
      </trkpt>
      <trkpt lat="42.2304560" lon="2.1688300">
        <ele>750.0</ele>
        <time>2020-07-31T05:39:17Z</time>
      </trkpt>
      <trkpt lat="42.2300680" lon="2.1689560">
        <ele>749.2</ele>
        <time>2020-07-31T05:39:21Z</time>
      </trkpt>
      <trkpt lat="42.2299690" lon="2.1689840">
        <ele>748.8</ele>
        <time>2020-07-31T05:39:22Z</time>
      </trkpt>
      <trkpt lat="42.2295740" lon="2.1691020">
        <ele>747.6</ele>
        <time>2020-07-31T05:39:26Z</time>
      </trkpt>
      <trkpt lat="42.2294740" lon="2.1691310">
        <ele>747.4</ele>
        <time>2020-07-31T05:39:27Z</time>
      </trkpt>
      <trkpt lat="42.2291780" lon="2.1692230">
        <ele>746.4</ele>
        <time>2020-07-31T05:39:30Z</time>
      </trkpt>
      <trkpt lat="42.2288700" lon="2.1693340">
        <ele>745.4</ele>
        <time>2020-07-31T05:39:33Z</time>
      </trkpt>
      <trkpt lat="42.2287730" lon="2.1693670">
        <ele>745.2</ele>
        <time>2020-07-31T05:39:34Z</time>
      </trkpt>
      <trkpt lat="42.2282880" lon="2.1695180">
        <ele>744.0</ele>
        <time>2020-07-31T05:39:39Z</time>
      </trkpt>
      <trkpt lat="42.2280880" lon="2.1695830">
        <ele>743.6</ele>
        <time>2020-07-31T05:39:41Z</time>
      </trkpt>
      <trkpt lat="42.2278920" lon="2.1696460">
        <ele>743.0</ele>
        <time>2020-07-31T05:39:43Z</time>
      </trkpt>
      <trkpt lat="42.2275080" lon="2.1697600">
        <ele>742.0</ele>
        <time>2020-07-31T05:39:47Z</time>
      </trkpt>
      <trkpt lat="42.2273220" lon="2.1698020">
        <ele>741.4</ele>
        <time>2020-07-31T05:39:49Z</time>
      </trkpt>
      <trkpt lat="42.2269550" lon="2.1698890">
        <ele>741.0</ele>
        <time>2020-07-31T05:39:53Z</time>
      </trkpt>
      <trkpt lat="42.2267780" lon="2.1699380">
        <ele>740.2</ele>
        <time>2020-07-31T05:39:55Z</time>
      </trkpt>
      <trkpt lat="42.2266000" lon="2.1699740">
        <ele>740.0</ele>
        <time>2020-07-31T05:39:57Z</time>
      </trkpt>
      <trkpt lat="42.2262500" lon="2.1700530">
        <ele>739.4</ele>
        <time>2020-07-31T05:40:01Z</time>
      </trkpt>
      <trkpt lat="42.2260010" lon="2.1701220">
        <ele>738.8</ele>
        <time>2020-07-31T05:40:04Z</time>
      </trkpt>
      <trkpt lat="42.2256610" lon="2.1702400">
        <ele>738.8</ele>
        <time>2020-07-31T05:40:08Z</time>
      </trkpt>
      <trkpt lat="42.2251040" lon="2.1704000">
        <ele>739.0</ele>
        <time>2020-07-31T05:40:15Z</time>
      </trkpt>
      <trkpt lat="42.2250230" lon="2.1704270">
        <ele>739.0</ele>
        <time>2020-07-31T05:40:16Z</time>
      </trkpt>
      <trkpt lat="42.2245520" lon="2.1705420">
        <ele>739.4</ele>
        <time>2020-07-31T05:40:22Z</time>
      </trkpt>
      <trkpt lat="42.2241280" lon="2.1706180">
        <ele>739.8</ele>
        <time>2020-07-31T05:40:28Z</time>
      </trkpt>
      <trkpt lat="42.2240080" lon="2.1706340">
        <ele>740.0</ele>
        <time>2020-07-31T05:40:30Z</time>
      </trkpt>
      <trkpt lat="42.2237820" lon="2.1706520">
        <ele>741.4</ele>
        <time>2020-07-31T05:40:34Z</time>
      </trkpt>
      <trkpt lat="42.2237240" lon="2.1706570">
        <ele>741.8</ele>
        <time>2020-07-31T05:40:35Z</time>
      </trkpt>
      <trkpt lat="42.2235380" lon="2.1706550">
        <ele>742.8</ele>
        <time>2020-07-31T05:40:38Z</time>
      </trkpt>
      <trkpt lat="42.2232660" lon="2.1706450">
        <ele>743.2</ele>
        <time>2020-07-31T05:40:42Z</time>
      </trkpt>
      <trkpt lat="42.2227660" lon="2.1706130">
        <ele>743.2</ele>
        <time>2020-07-31T05:40:48Z</time>
      </trkpt>
      <trkpt lat="42.2223020" lon="2.1705760">
        <ele>741.6</ele>
        <time>2020-07-31T05:40:53Z</time>
      </trkpt>
      <trkpt lat="42.2222060" lon="2.1705690">
        <ele>741.0</ele>
        <time>2020-07-31T05:40:54Z</time>
      </trkpt>
      <trkpt lat="42.2221060" lon="2.1705630">
        <ele>740.6</ele>
        <time>2020-07-31T05:40:55Z</time>
      </trkpt>
      <trkpt lat="42.2218170" lon="2.1705270">
        <ele>739.2</ele>
        <time>2020-07-31T05:40:58Z</time>
      </trkpt>
      <trkpt lat="42.2216170" lon="2.1705000">
        <ele>737.8</ele>
        <time>2020-07-31T05:41:00Z</time>
      </trkpt>
      <trkpt lat="42.2215180" lon="2.1704870">
        <ele>737.2</ele>
        <time>2020-07-31T05:41:01Z</time>
      </trkpt>
      <trkpt lat="42.2214260" lon="2.1704670">
        <ele>736.4</ele>
        <time>2020-07-31T05:41:02Z</time>
      </trkpt>
      <trkpt lat="42.2210960" lon="2.1703340">
        <ele>735.4</ele>
        <time>2020-07-31T05:41:06Z</time>
      </trkpt>
      <trkpt lat="42.2205360" lon="2.1700240">
        <ele>735.0</ele>
        <time>2020-07-31T05:41:13Z</time>
      </trkpt>
      <trkpt lat="42.2199460" lon="2.1697590">
        <ele>734.8</ele>
        <time>2020-07-31T05:41:20Z</time>
      </trkpt>
      <trkpt lat="42.2198590" lon="2.1697210">
        <ele>734.8</ele>
        <time>2020-07-31T05:41:21Z</time>
      </trkpt>
      <trkpt lat="42.2193090" lon="2.1695000">
        <ele>734.4</ele>
        <time>2020-07-31T05:41:27Z</time>
      </trkpt>
      <trkpt lat="42.2192120" lon="2.1694640">
        <ele>734.2</ele>
        <time>2020-07-31T05:41:28Z</time>
      </trkpt>
      <trkpt lat="42.2189200" lon="2.1693740">
        <ele>733.2</ele>
        <time>2020-07-31T05:41:31Z</time>
      </trkpt>
      <trkpt lat="42.2186050" lon="2.1692790">
        <ele>732.4</ele>
        <time>2020-07-31T05:41:34Z</time>
      </trkpt>
      <trkpt lat="42.2185010" lon="2.1692490">
        <ele>732.0</ele>
        <time>2020-07-31T05:41:35Z</time>
      </trkpt>
      <trkpt lat="42.2181870" lon="2.1691570">
        <ele>731.2</ele>
        <time>2020-07-31T05:41:38Z</time>
      </trkpt>
      <trkpt lat="42.2178770" lon="2.1690640">
        <ele>729.8</ele>
        <time>2020-07-31T05:41:41Z</time>
      </trkpt>
      <trkpt lat="42.2175700" lon="2.1689730">
        <ele>728.6</ele>
        <time>2020-07-31T05:41:44Z</time>
      </trkpt>
      <trkpt lat="42.2172680" lon="2.1688830">
        <ele>727.4</ele>
        <time>2020-07-31T05:41:47Z</time>
      </trkpt>
      <trkpt lat="42.2166790" lon="2.1686960">
        <ele>726.4</ele>
        <time>2020-07-31T05:41:53Z</time>
      </trkpt>
      <trkpt lat="42.2165800" lon="2.1686660">
        <ele>726.2</ele>
        <time>2020-07-31T05:41:54Z</time>
      </trkpt>
      <trkpt lat="42.2160820" lon="2.1685330">
        <ele>725.2</ele>
        <time>2020-07-31T05:41:59Z</time>
      </trkpt>
      <trkpt lat="42.2157840" lon="2.1684880">
        <ele>724.6</ele>
        <time>2020-07-31T05:42:02Z</time>
      </trkpt>
      <trkpt lat="42.2153870" lon="2.1685100">
        <ele>724.2</ele>
        <time>2020-07-31T05:42:06Z</time>
      </trkpt>
      <trkpt lat="42.2152890" lon="2.1685270">
        <ele>724.0</ele>
        <time>2020-07-31T05:42:07Z</time>
      </trkpt>
      <trkpt lat="42.2147280" lon="2.1686710">
        <ele>723.4</ele>
        <time>2020-07-31T05:42:13Z</time>
      </trkpt>
      <trkpt lat="42.2146370" lon="2.1686930">
        <ele>723.4</ele>
        <time>2020-07-31T05:42:14Z</time>
      </trkpt>
      <trkpt lat="42.2140200" lon="2.1688480">
        <ele>723.4</ele>
        <time>2020-07-31T05:42:21Z</time>
      </trkpt>
      <trkpt lat="42.2135030" lon="2.1689810">
        <ele>723.8</ele>
        <time>2020-07-31T05:42:27Z</time>
      </trkpt>
      <trkpt lat="42.2128990" lon="2.1691330">
        <ele>723.8</ele>
        <time>2020-07-31T05:42:34Z</time>
      </trkpt>
      <trkpt lat="42.2127250" lon="2.1691770">
        <ele>723.6</ele>
        <time>2020-07-31T05:42:36Z</time>
      </trkpt>
      <trkpt lat="42.2122890" lon="2.1692830">
        <ele>723.2</ele>
        <time>2020-07-31T05:42:41Z</time>
      </trkpt>
      <trkpt lat="42.2118520" lon="2.1694120">
        <ele>723.0</ele>
        <time>2020-07-31T05:42:46Z</time>
      </trkpt>
      <trkpt lat="42.2113160" lon="2.1695670">
        <ele>722.2</ele>
        <time>2020-07-31T05:42:52Z</time>
      </trkpt>
      <trkpt lat="42.2108520" lon="2.1697090">
        <ele>721.6</ele>
        <time>2020-07-31T05:42:57Z</time>
      </trkpt>
      <trkpt lat="42.2103800" lon="2.1698340">
        <ele>721.4</ele>
        <time>2020-07-31T05:43:02Z</time>
      </trkpt>
      <trkpt lat="42.2099060" lon="2.1699540">
        <ele>720.6</ele>
        <time>2020-07-31T05:43:07Z</time>
      </trkpt>
      <trkpt lat="42.2097150" lon="2.1700140">
        <ele>720.4</ele>
        <time>2020-07-31T05:43:09Z</time>
      </trkpt>
      <trkpt lat="42.2094440" lon="2.1701390">
        <ele>720.0</ele>
        <time>2020-07-31T05:43:12Z</time>
      </trkpt>
      <trkpt lat="42.2089980" lon="2.1704320">
        <ele>719.0</ele>
        <time>2020-07-31T05:43:17Z</time>
      </trkpt>
      <trkpt lat="42.2089090" lon="2.1704930">
        <ele>718.8</ele>
        <time>2020-07-31T05:43:18Z</time>
      </trkpt>
      <trkpt lat="42.2086430" lon="2.1706630">
        <ele>718.0</ele>
        <time>2020-07-31T05:43:21Z</time>
      </trkpt>
      <trkpt lat="42.2082860" lon="2.1709160">
        <ele>716.8</ele>
        <time>2020-07-31T05:43:25Z</time>
      </trkpt>
      <trkpt lat="42.2079200" lon="2.1712180">
        <ele>715.8</ele>
        <time>2020-07-31T05:43:29Z</time>
      </trkpt>
      <trkpt lat="42.2075660" lon="2.1714840">
        <ele>715.2</ele>
        <time>2020-07-31T05:43:33Z</time>
      </trkpt>
      <trkpt lat="42.2072220" lon="2.1717520">
        <ele>714.8</ele>
        <time>2020-07-31T05:43:37Z</time>
      </trkpt>
      <trkpt lat="42.2070650" lon="2.1719160">
        <ele>714.4</ele>
        <time>2020-07-31T05:43:39Z</time>
      </trkpt>
      <trkpt lat="42.2069910" lon="2.1720130">
        <ele>714.2</ele>
        <time>2020-07-31T05:43:40Z</time>
      </trkpt>
      <trkpt lat="42.2067990" lon="2.1723380">
        <ele>713.2</ele>
        <time>2020-07-31T05:43:43Z</time>
      </trkpt>
      <trkpt lat="42.2065520" lon="2.1729250">
        <ele>712.2</ele>
        <time>2020-07-31T05:43:48Z</time>
      </trkpt>
      <trkpt lat="42.2065030" lon="2.1730410">
        <ele>712.0</ele>
        <time>2020-07-31T05:43:49Z</time>
      </trkpt>
      <trkpt lat="42.2063560" lon="2.1733850">
        <ele>711.2</ele>
        <time>2020-07-31T05:43:52Z</time>
      </trkpt>
      <trkpt lat="42.2061710" lon="2.1738180">
        <ele>710.8</ele>
        <time>2020-07-31T05:43:56Z</time>
      </trkpt>
      <trkpt lat="42.2058840" lon="2.1745150">
        <ele>710.8</ele>
        <time>2020-07-31T05:44:03Z</time>
      </trkpt>
      <trkpt lat="42.2056030" lon="2.1751660">
        <ele>711.2</ele>
        <time>2020-07-31T05:44:10Z</time>
      </trkpt>
      <trkpt lat="42.2055610" lon="2.1752650">
        <ele>711.2</ele>
        <time>2020-07-31T05:44:11Z</time>
      </trkpt>
      <trkpt lat="42.2052490" lon="2.1759840">
        <ele>711.0</ele>
        <time>2020-07-31T05:44:18Z</time>
      </trkpt>
      <trkpt lat="42.2052010" lon="2.1760960">
        <ele>710.6</ele>
        <time>2020-07-31T05:44:19Z</time>
      </trkpt>
      <trkpt lat="42.2051100" lon="2.1763210">
        <ele>710.2</ele>
        <time>2020-07-31T05:44:21Z</time>
      </trkpt>
      <trkpt lat="42.2048610" lon="2.1768850">
        <ele>709.2</ele>
        <time>2020-07-31T05:44:26Z</time>
      </trkpt>
      <trkpt lat="42.2047100" lon="2.1772260">
        <ele>708.8</ele>
        <time>2020-07-31T05:44:29Z</time>
      </trkpt>
      <trkpt lat="42.2044890" lon="2.1778250">
        <ele>708.0</ele>
        <time>2020-07-31T05:44:34Z</time>
      </trkpt>
      <trkpt lat="42.2044550" lon="2.1779520">
        <ele>707.8</ele>
        <time>2020-07-31T05:44:35Z</time>
      </trkpt>
      <trkpt lat="42.2043810" lon="2.1784690">
        <ele>707.4</ele>
        <time>2020-07-31T05:44:39Z</time>
      </trkpt>
      <trkpt lat="42.2043680" lon="2.1787280">
        <ele>706.8</ele>
        <time>2020-07-31T05:44:41Z</time>
      </trkpt>
      <trkpt lat="42.2043510" lon="2.1792450">
        <ele>706.2</ele>
        <time>2020-07-31T05:44:45Z</time>
      </trkpt>
      <trkpt lat="42.2043010" lon="2.1798410">
        <ele>706.0</ele>
        <time>2020-07-31T05:44:50Z</time>
      </trkpt>
      <trkpt lat="42.2042930" lon="2.1806270">
        <ele>706.0</ele>
        <time>2020-07-31T05:44:57Z</time>
      </trkpt>
      <trkpt lat="42.2042470" lon="2.1809460">
        <ele>706.4</ele>
        <time>2020-07-31T05:45:00Z</time>
      </trkpt>
      <trkpt lat="42.2041920" lon="2.1811480">
        <ele>706.6</ele>
        <time>2020-07-31T05:45:02Z</time>
      </trkpt>
      <trkpt lat="42.2039920" lon="2.1816650">
        <ele>706.8</ele>
        <time>2020-07-31T05:45:08Z</time>
      </trkpt>
      <trkpt lat="42.2037240" lon="2.1821050">
        <ele>707.0</ele>
        <time>2020-07-31T05:45:14Z</time>
      </trkpt>
      <trkpt lat="42.2033450" lon="2.1824630">
        <ele>707.4</ele>
        <time>2020-07-31T05:45:20Z</time>
      </trkpt>
      <trkpt lat="42.2031370" lon="2.1825970">
        <ele>707.4</ele>
        <time>2020-07-31T05:45:23Z</time>
      </trkpt>
      <trkpt lat="42.2030800" lon="2.1826620">
        <ele>707.4</ele>
        <time>2020-07-31T05:45:24Z</time>
      </trkpt>
      <trkpt lat="42.2029640" lon="2.1829310">
        <ele>707.2</ele>
        <time>2020-07-31T05:45:27Z</time>
      </trkpt>
      <trkpt lat="42.2029350" lon="2.1830310">
        <ele>707.2</ele>
        <time>2020-07-31T05:45:28Z</time>
      </trkpt>
      <trkpt lat="42.2027870" lon="2.1833950">
        <ele>707.2</ele>
        <time>2020-07-31T05:45:32Z</time>
      </trkpt>
      <trkpt lat="42.2027660" lon="2.1834810">
        <ele>707.0</ele>
        <time>2020-07-31T05:45:33Z</time>
      </trkpt>
      <trkpt lat="42.2026910" lon="2.1837680">
        <ele>706.8</ele>
        <time>2020-07-31T05:45:36Z</time>
      </trkpt>
      <trkpt lat="42.2024890" lon="2.1844190">
        <ele>705.6</ele>
        <time>2020-07-31T05:45:42Z</time>
      </trkpt>
      <trkpt lat="42.2024140" lon="2.1846470">
        <ele>704.4</ele>
        <time>2020-07-31T05:45:44Z</time>
      </trkpt>
      <trkpt lat="42.2022700" lon="2.1850930">
        <ele>703.4</ele>
        <time>2020-07-31T05:45:48Z</time>
      </trkpt>
      <trkpt lat="42.2021760" lon="2.1854180">
        <ele>702.2</ele>
        <time>2020-07-31T05:45:51Z</time>
      </trkpt>
      <trkpt lat="42.2020490" lon="2.1857460">
        <ele>701.0</ele>
        <time>2020-07-31T05:45:54Z</time>
      </trkpt>
      <trkpt lat="42.2018110" lon="2.1863780">
        <ele>700.4</ele>
        <time>2020-07-31T05:46:00Z</time>
      </trkpt>
      <trkpt lat="42.2015170" lon="2.1871090">
        <ele>700.0</ele>
        <time>2020-07-31T05:46:07Z</time>
      </trkpt>
      <trkpt lat="42.2014330" lon="2.1873130">
        <ele>700.0</ele>
        <time>2020-07-31T05:46:09Z</time>
      </trkpt>
      <trkpt lat="42.2012440" lon="2.1878510">
        <ele>699.4</ele>
        <time>2020-07-31T05:46:14Z</time>
      </trkpt>
      <trkpt lat="42.2011590" lon="2.1881570">
        <ele>699.2</ele>
        <time>2020-07-31T05:46:17Z</time>
      </trkpt>
      <trkpt lat="42.2011220" lon="2.1882390">
        <ele>698.8</ele>
        <time>2020-07-31T05:46:18Z</time>
      </trkpt>
      <trkpt lat="42.2010680" lon="2.1883110">
        <ele>699.0</ele>
        <time>2020-07-31T05:46:19Z</time>
      </trkpt>
      <trkpt lat="42.2007840" lon="2.1884930">
        <ele>698.6</ele>
        <time>2020-07-31T05:46:23Z</time>
      </trkpt>
      <trkpt lat="42.2003520" lon="2.1886550">
        <ele>698.0</ele>
        <time>2020-07-31T05:46:29Z</time>
      </trkpt>
      <trkpt lat="42.1999930" lon="2.1887930">
        <ele>697.4</ele>
        <time>2020-07-31T05:46:33Z</time>
      </trkpt>
      <trkpt lat="42.1998510" lon="2.1888580">
        <ele>697.2</ele>
        <time>2020-07-31T05:46:35Z</time>
      </trkpt>
      <trkpt lat="42.1997110" lon="2.1888920">
        <ele>696.8</ele>
        <time>2020-07-31T05:46:37Z</time>
      </trkpt>
      <trkpt lat="42.1995150" lon="2.1889600">
        <ele>695.8</ele>
        <time>2020-07-31T05:46:40Z</time>
      </trkpt>
      <trkpt lat="42.1994580" lon="2.1889860">
        <ele>695.6</ele>
        <time>2020-07-31T05:46:41Z</time>
      </trkpt>
      <trkpt lat="42.1994030" lon="2.1890260">
        <ele>695.2</ele>
        <time>2020-07-31T05:46:42Z</time>
      </trkpt>
      <trkpt lat="42.1993000" lon="2.1891030">
        <ele>695.2</ele>
        <time>2020-07-31T05:46:44Z</time>
      </trkpt>
      <trkpt lat="42.1992510" lon="2.1891520">
        <ele>695.0</ele>
        <time>2020-07-31T05:46:45Z</time>
      </trkpt>
      <trkpt lat="42.1991770" lon="2.1893350">
        <ele>694.4</ele>
        <time>2020-07-31T05:46:47Z</time>
      </trkpt>
      <trkpt lat="42.1991370" lon="2.1894920">
        <ele>694.2</ele>
        <time>2020-07-31T05:46:49Z</time>
      </trkpt>
      <trkpt lat="42.1990730" lon="2.1897460">
        <ele>693.6</ele>
        <time>2020-07-31T05:46:52Z</time>
      </trkpt>
      <trkpt lat="42.1990590" lon="2.1898260">
        <ele>693.4</ele>
        <time>2020-07-31T05:46:53Z</time>
      </trkpt>
      <trkpt lat="42.1988920" lon="2.1901260">
        <ele>693.2</ele>
        <time>2020-07-31T05:46:57Z</time>
      </trkpt>
      <trkpt lat="42.1988590" lon="2.1902730">
        <ele>693.2</ele>
        <time>2020-07-31T05:46:59Z</time>
      </trkpt>
      <trkpt lat="42.1988150" lon="2.1904600">
        <ele>693.2</ele>
        <time>2020-07-31T05:47:02Z</time>
      </trkpt>
      <trkpt lat="42.1988160" lon="2.1905180">
        <ele>693.2</ele>
        <time>2020-07-31T05:47:03Z</time>
      </trkpt>
      <trkpt lat="42.1987860" lon="2.1907000">
        <ele>693.2</ele>
        <time>2020-07-31T05:47:06Z</time>
      </trkpt>
      <trkpt lat="42.1987630" lon="2.1907630">
        <ele>693.2</ele>
        <time>2020-07-31T05:47:07Z</time>
      </trkpt>
      <trkpt lat="42.1986230" lon="2.1908150">
        <ele>693.2</ele>
        <time>2020-07-31T05:47:08Z</time>
      </trkpt>
      <trkpt lat="42.1986900" lon="2.1909940">
        <ele>693.2</ele>
        <time>2020-07-31T05:47:10Z</time>
      </trkpt>
      <trkpt lat="42.1985220" lon="2.1910370">
        <ele>693.0</ele>
        <time>2020-07-31T05:47:13Z</time>
      </trkpt>
      <trkpt lat="42.1984130" lon="2.1909830">
        <ele>692.4</ele>
        <time>2020-07-31T05:47:15Z</time>
      </trkpt>
      <trkpt lat="42.1983720" lon="2.1909640">
        <ele>692.4</ele>
        <time>2020-07-31T05:47:16Z</time>
      </trkpt>
      <trkpt lat="42.1983490" lon="2.1909940">
        <ele>692.0</ele>
        <time>2020-07-31T05:47:17Z</time>
      </trkpt>
      <trkpt lat="42.1983200" lon="2.1911400">
        <ele>691.8</ele>
        <time>2020-07-31T05:47:19Z</time>
      </trkpt>
      <trkpt lat="42.1982440" lon="2.1913290">
        <ele>691.4</ele>
        <time>2020-07-31T05:47:21Z</time>
      </trkpt>
      <trkpt lat="42.1981550" lon="2.1917280">
        <ele>691.2</ele>
        <time>2020-07-31T05:47:25Z</time>
      </trkpt>
      <trkpt lat="42.1980750" lon="2.1924360">
        <ele>690.8</ele>
        <time>2020-07-31T05:47:32Z</time>
      </trkpt>
      <trkpt lat="42.1980440" lon="2.1927030">
        <ele>690.8</ele>
        <time>2020-07-31T05:47:35Z</time>
      </trkpt>
      <trkpt lat="42.1980410" lon="2.1934260">
        <ele>692.8</ele>
        <time>2020-07-31T05:48:11Z</time>
      </trkpt>
      <trkpt lat="42.1980550" lon="2.1934540">
        <ele>692.8</ele>
        <time>2020-07-31T05:48:12Z</time>
      </trkpt>
      <trkpt lat="42.1982250" lon="2.1936930">
        <ele>692.4</ele>
        <time>2020-07-31T05:48:16Z</time>
      </trkpt>
      <trkpt lat="42.1983650" lon="2.1938340">
        <ele>692.2</ele>
        <time>2020-07-31T05:48:18Z</time>
      </trkpt>
      <trkpt lat="42.1986090" lon="2.1941750">
        <ele>692.0</ele>
        <time>2020-07-31T05:48:24Z</time>
      </trkpt>
      <trkpt lat="42.1987060" lon="2.1943630">
        <ele>692.2</ele>
        <time>2020-07-31T05:48:27Z</time>
      </trkpt>
      <trkpt lat="42.1985830" lon="2.1945050">
        <ele>693.0</ele>
        <time>2020-07-31T05:48:29Z</time>
      </trkpt>
      <trkpt lat="42.1984770" lon="2.1946200">
        <ele>693.4</ele>
        <time>2020-07-31T05:48:31Z</time>
      </trkpt>
      <trkpt lat="42.1984370" lon="2.1946720">
        <ele>693.4</ele>
        <time>2020-07-31T05:48:32Z</time>
      </trkpt>
      <trkpt lat="42.1983240" lon="2.1948500">
        <ele>694.0</ele>
        <time>2020-07-31T05:48:35Z</time>
      </trkpt>
      <trkpt lat="42.1982570" lon="2.1949690">
        <ele>694.4</ele>
        <time>2020-07-31T05:48:37Z</time>
      </trkpt>
      <trkpt lat="42.1982220" lon="2.1950190">
        <ele>694.6</ele>
        <time>2020-07-31T05:48:38Z</time>
      </trkpt>
      <trkpt lat="42.1980460" lon="2.1952810">
        <ele>695.0</ele>
        <time>2020-07-31T05:48:43Z</time>
      </trkpt>
      <trkpt lat="42.1979720" lon="2.1953670">
        <ele>695.0</ele>
        <time>2020-07-31T05:48:45Z</time>
      </trkpt>
      <trkpt lat="42.1979440" lon="2.1954230">
        <ele>695.2</ele>
        <time>2020-07-31T05:48:46Z</time>
      </trkpt>
      <trkpt lat="42.1978630" lon="2.1955490">
        <ele>695.6</ele>
        <time>2020-07-31T05:48:48Z</time>
      </trkpt>
      <trkpt lat="42.1977640" lon="2.1957490">
        <ele>696.2</ele>
        <time>2020-07-31T05:48:51Z</time>
      </trkpt>
      <trkpt lat="42.1977220" lon="2.1958890">
        <ele>696.4</ele>
        <time>2020-07-31T05:48:53Z</time>
      </trkpt>
      <trkpt lat="42.1976380" lon="2.1963180">
        <ele>697.2</ele>
        <time>2020-07-31T05:49:00Z</time>
      </trkpt>
      <trkpt lat="42.1975580" lon="2.1965540">
        <ele>698.2</ele>
        <time>2020-07-31T05:49:04Z</time>
      </trkpt>
      <trkpt lat="42.1975420" lon="2.1966180">
        <ele>698.6</ele>
        <time>2020-07-31T05:49:05Z</time>
      </trkpt>
      <trkpt lat="42.1975270" lon="2.1966790">
        <ele>699.0</ele>
        <time>2020-07-31T05:49:06Z</time>
      </trkpt>
      <trkpt lat="42.1975140" lon="2.1967400">
        <ele>699.4</ele>
        <time>2020-07-31T05:49:07Z</time>
      </trkpt>
      <trkpt lat="42.1974910" lon="2.1967970">
        <ele>699.6</ele>
        <time>2020-07-31T05:49:08Z</time>
      </trkpt>
      <trkpt lat="42.1974380" lon="2.1969120">
        <ele>700.2</ele>
        <time>2020-07-31T05:49:10Z</time>
      </trkpt>
      <trkpt lat="42.1974190" lon="2.1969680">
        <ele>700.6</ele>
        <time>2020-07-31T05:49:11Z</time>
      </trkpt>
      <trkpt lat="42.1973970" lon="2.1970250">
        <ele>700.8</ele>
        <time>2020-07-31T05:49:12Z</time>
      </trkpt>
      <trkpt lat="42.1973180" lon="2.1972460">
        <ele>701.6</ele>
        <time>2020-07-31T05:49:16Z</time>
      </trkpt>
      <trkpt lat="42.1973130" lon="2.1973660">
        <ele>702.2</ele>
        <time>2020-07-31T05:49:18Z</time>
      </trkpt>
      <trkpt lat="42.1972760" lon="2.1975710">
        <ele>702.8</ele>
        <time>2020-07-31T05:49:22Z</time>
      </trkpt>
      <trkpt lat="42.1972440" lon="2.1976700">
        <ele>703.2</ele>
        <time>2020-07-31T05:49:24Z</time>
      </trkpt>
      <trkpt lat="42.1971770" lon="2.1977250">
        <ele>703.4</ele>
        <time>2020-07-31T05:49:26Z</time>
      </trkpt>
      <trkpt lat="42.1970880" lon="2.1978230">
        <ele>703.8</ele>
        <time>2020-07-31T05:49:29Z</time>
      </trkpt>
      <trkpt lat="42.1970640" lon="2.1978640">
        <ele>704.0</ele>
        <time>2020-07-31T05:49:30Z</time>
      </trkpt>
      <trkpt lat="42.1969550" lon="2.1979920">
        <ele>704.8</ele>
        <time>2020-07-31T05:49:34Z</time>
      </trkpt>
      <trkpt lat="42.1968620" lon="2.1980780">
        <ele>705.4</ele>
        <time>2020-07-31T05:49:37Z</time>
      </trkpt>
      <trkpt lat="42.1967100" lon="2.1981800">
        <ele>706.0</ele>
        <time>2020-07-31T05:49:41Z</time>
      </trkpt>
      <trkpt lat="42.1966650" lon="2.1982120">
        <ele>706.2</ele>
        <time>2020-07-31T05:49:42Z</time>
      </trkpt>
      <trkpt lat="42.1966150" lon="2.1982440">
        <ele>706.4</ele>
        <time>2020-07-31T05:49:43Z</time>
      </trkpt>
      <trkpt lat="42.1964730" lon="2.1983460">
        <ele>707.0</ele>
        <time>2020-07-31T05:49:46Z</time>
      </trkpt>
      <trkpt lat="42.1963660" lon="2.1984120">
        <ele>707.2</ele>
        <time>2020-07-31T05:49:48Z</time>
      </trkpt>
      <trkpt lat="42.1962600" lon="2.1984470">
        <ele>707.6</ele>
        <time>2020-07-31T05:49:50Z</time>
      </trkpt>
      <trkpt lat="42.1960220" lon="2.1984910">
        <ele>708.0</ele>
        <time>2020-07-31T05:49:55Z</time>
      </trkpt>
      <trkpt lat="42.1959850" lon="2.1985120">
        <ele>708.0</ele>
        <time>2020-07-31T05:49:56Z</time>
      </trkpt>
      <trkpt lat="42.1959170" lon="2.1985720">
        <ele>708.2</ele>
        <time>2020-07-31T05:49:58Z</time>
      </trkpt>
      <trkpt lat="42.1958680" lon="2.1986560">
        <ele>709.0</ele>
        <time>2020-07-31T05:50:00Z</time>
      </trkpt>
      <trkpt lat="42.1958420" lon="2.1986990">
        <ele>709.4</ele>
        <time>2020-07-31T05:50:01Z</time>
      </trkpt>
      <trkpt lat="42.1958110" lon="2.1987390">
        <ele>709.6</ele>
        <time>2020-07-31T05:50:02Z</time>
      </trkpt>
      <trkpt lat="42.1956890" lon="2.1988810">
        <ele>710.6</ele>
        <time>2020-07-31T05:50:06Z</time>
      </trkpt>
      <trkpt lat="42.1956100" lon="2.1989800">
        <ele>711.0</ele>
        <time>2020-07-31T05:50:09Z</time>
      </trkpt>
      <trkpt lat="42.1955280" lon="2.1990700">
        <ele>711.6</ele>
        <time>2020-07-31T05:50:12Z</time>
      </trkpt>
      <trkpt lat="42.1954330" lon="2.1991790">
        <ele>712.8</ele>
        <time>2020-07-31T05:50:16Z</time>
      </trkpt>
      <trkpt lat="42.1954040" lon="2.1992010">
        <ele>713.2</ele>
        <time>2020-07-31T05:50:17Z</time>
      </trkpt>
      <trkpt lat="42.1953130" lon="2.1992560">
        <ele>714.0</ele>
        <time>2020-07-31T05:50:20Z</time>
      </trkpt>
      <trkpt lat="42.1952210" lon="2.1993100">
        <ele>715.0</ele>
        <time>2020-07-31T05:50:23Z</time>
      </trkpt>
      <trkpt lat="42.1951530" lon="2.1993420">
        <ele>715.6</ele>
        <time>2020-07-31T05:50:25Z</time>
      </trkpt>
      <trkpt lat="42.1950940" lon="2.1993800">
        <ele>716.8</ele>
        <time>2020-07-31T05:50:27Z</time>
      </trkpt>
      <trkpt lat="42.1949860" lon="2.1994670">
        <ele>717.8</ele>
        <time>2020-07-31T05:50:31Z</time>
      </trkpt>
      <trkpt lat="42.1949290" lon="2.1995070">
        <ele>718.4</ele>
        <time>2020-07-31T05:50:33Z</time>
      </trkpt>
      <trkpt lat="42.1948460" lon="2.1995690">
        <ele>719.0</ele>
        <time>2020-07-31T05:50:36Z</time>
      </trkpt>
      <trkpt lat="42.1947360" lon="2.1996470">
        <ele>719.8</ele>
        <time>2020-07-31T05:50:40Z</time>
      </trkpt>
      <trkpt lat="42.1946550" lon="2.1996830">
        <ele>720.2</ele>
        <time>2020-07-31T05:50:42Z</time>
      </trkpt>
      <trkpt lat="42.1945520" lon="2.1997620">
        <ele>720.8</ele>
        <time>2020-07-31T05:50:45Z</time>
      </trkpt>
      <trkpt lat="42.1944940" lon="2.1998390">
        <ele>721.4</ele>
        <time>2020-07-31T05:50:47Z</time>
      </trkpt>
      <trkpt lat="42.1944470" lon="2.1999720">
        <ele>722.0</ele>
        <time>2020-07-31T05:50:50Z</time>
      </trkpt>
      <trkpt lat="42.1944530" lon="2.2001830">
        <ele>722.6</ele>
        <time>2020-07-31T05:50:54Z</time>
      </trkpt>
      <trkpt lat="42.1944690" lon="2.2002300">
        <ele>722.8</ele>
        <time>2020-07-31T05:50:55Z</time>
      </trkpt>
      <trkpt lat="42.1945180" lon="2.2003710">
        <ele>723.8</ele>
        <time>2020-07-31T05:50:58Z</time>
      </trkpt>
      <trkpt lat="42.1946200" lon="2.2006130">
        <ele>724.8</ele>
        <time>2020-07-31T05:51:04Z</time>
      </trkpt>
      <trkpt lat="42.1946380" lon="2.2006470">
        <ele>725.2</ele>
        <time>2020-07-31T05:51:05Z</time>
      </trkpt>
      <trkpt lat="42.1947260" lon="2.2008760">
        <ele>727.6</ele>
        <time>2020-07-31T05:53:19Z</time>
      </trkpt>
      <trkpt lat="42.1947260" lon="2.2009690">
        <ele>727.6</ele>
        <time>2020-07-31T05:53:21Z</time>
      </trkpt>
      <trkpt lat="42.1947660" lon="2.2012840">
        <ele>727.6</ele>
        <time>2020-07-31T05:53:27Z</time>
      </trkpt>
      <trkpt lat="42.1948340" lon="2.2016330">
        <ele>728.8</ele>
        <time>2020-07-31T05:53:34Z</time>
      </trkpt>
      <trkpt lat="42.1948410" lon="2.2016840">
        <ele>729.2</ele>
        <time>2020-07-31T05:53:35Z</time>
      </trkpt>
      <trkpt lat="42.1948780" lon="2.2018780">
        <ele>730.0</ele>
        <time>2020-07-31T05:53:39Z</time>
      </trkpt>
      <trkpt lat="42.1949000" lon="2.2021270">
        <ele>731.2</ele>
        <time>2020-07-31T05:53:44Z</time>
      </trkpt>
      <trkpt lat="42.1948890" lon="2.2022670">
        <ele>732.2</ele>
        <time>2020-07-31T05:53:47Z</time>
      </trkpt>
      <trkpt lat="42.1949020" lon="2.2023570">
        <ele>732.8</ele>
        <time>2020-07-31T05:53:49Z</time>
      </trkpt>
      <trkpt lat="42.1949460" lon="2.2024490">
        <ele>733.4</ele>
        <time>2020-07-31T05:53:51Z</time>
      </trkpt>
      <trkpt lat="42.1950110" lon="2.2025670">
        <ele>734.0</ele>
        <time>2020-07-31T05:53:54Z</time>
      </trkpt>
      <trkpt lat="42.1950720" lon="2.2026720">
        <ele>734.6</ele>
        <time>2020-07-31T05:53:57Z</time>
      </trkpt>
      <trkpt lat="42.1951380" lon="2.2027480">
        <ele>735.0</ele>
        <time>2020-07-31T05:53:59Z</time>
      </trkpt>
      <trkpt lat="42.1952150" lon="2.2028610">
        <ele>735.6</ele>
        <time>2020-07-31T05:54:02Z</time>
      </trkpt>
      <trkpt lat="42.1952850" lon="2.2029820">
        <ele>736.0</ele>
        <time>2020-07-31T05:54:05Z</time>
      </trkpt>
      <trkpt lat="42.1953700" lon="2.2032240">
        <ele>736.8</ele>
        <time>2020-07-31T05:54:09Z</time>
      </trkpt>
      <trkpt lat="42.1953870" lon="2.2032940">
        <ele>737.0</ele>
        <time>2020-07-31T05:54:10Z</time>
      </trkpt>
      <trkpt lat="42.1953950" lon="2.2034950">
        <ele>737.4</ele>
        <time>2020-07-31T05:54:13Z</time>
      </trkpt>
      <trkpt lat="42.1953780" lon="2.2035500">
        <ele>737.4</ele>
        <time>2020-07-31T05:54:14Z</time>
      </trkpt>
      <trkpt lat="42.1953140" lon="2.2037550">
        <ele>737.4</ele>
        <time>2020-07-31T05:54:18Z</time>
      </trkpt>
      <trkpt lat="42.1951950" lon="2.2039660">
        <ele>738.0</ele>
        <time>2020-07-31T05:54:23Z</time>
      </trkpt>
      <trkpt lat="42.1951330" lon="2.2040210">
        <ele>738.4</ele>
        <time>2020-07-31T05:54:25Z</time>
      </trkpt>
      <trkpt lat="42.1950570" lon="2.2040810">
        <ele>739.0</ele>
        <time>2020-07-31T05:54:27Z</time>
      </trkpt>
      <trkpt lat="42.1949200" lon="2.2042070">
        <ele>740.2</ele>
        <time>2020-07-31T05:54:31Z</time>
      </trkpt>
      <trkpt lat="42.1948090" lon="2.2043690">
        <ele>741.2</ele>
        <time>2020-07-31T05:54:35Z</time>
      </trkpt>
      <trkpt lat="42.1947540" lon="2.2045060">
        <ele>742.2</ele>
        <time>2020-07-31T05:54:38Z</time>
      </trkpt>
      <trkpt lat="42.1947390" lon="2.2045520">
        <ele>742.4</ele>
        <time>2020-07-31T05:54:39Z</time>
      </trkpt>
      <trkpt lat="42.1947070" lon="2.2046990">
        <ele>743.6</ele>
        <time>2020-07-31T05:54:42Z</time>
      </trkpt>
      <trkpt lat="42.1946920" lon="2.2048530">
        <ele>744.4</ele>
        <time>2020-07-31T05:54:45Z</time>
      </trkpt>
      <trkpt lat="42.1946880" lon="2.2049070">
        <ele>744.8</ele>
        <time>2020-07-31T05:54:46Z</time>
      </trkpt>
      <trkpt lat="42.1947010" lon="2.2051060">
        <ele>745.8</ele>
        <time>2020-07-31T05:54:50Z</time>
      </trkpt>
      <trkpt lat="42.1947140" lon="2.2051520">
        <ele>746.2</ele>
        <time>2020-07-31T05:54:51Z</time>
      </trkpt>
      <trkpt lat="42.1947870" lon="2.2053190">
        <ele>747.0</ele>
        <time>2020-07-31T05:54:55Z</time>
      </trkpt>
      <trkpt lat="42.1948500" lon="2.2054350">
        <ele>748.0</ele>
        <time>2020-07-31T05:54:58Z</time>
      </trkpt>
      <trkpt lat="42.1948730" lon="2.2054740">
        <ele>748.2</ele>
        <time>2020-07-31T05:54:59Z</time>
      </trkpt>
      <trkpt lat="42.1949660" lon="2.2057250">
        <ele>749.4</ele>
        <time>2020-07-31T05:55:05Z</time>
      </trkpt>
      <trkpt lat="42.1949750" lon="2.2059510">
        <ele>750.6</ele>
        <time>2020-07-31T05:55:10Z</time>
      </trkpt>
      <trkpt lat="42.1949740" lon="2.2060900">
        <ele>751.0</ele>
        <time>2020-07-31T05:55:13Z</time>
      </trkpt>
      <trkpt lat="42.1949720" lon="2.2062280">
        <ele>751.8</ele>
        <time>2020-07-31T05:55:16Z</time>
      </trkpt>
      <trkpt lat="42.1949680" lon="2.2063670">
        <ele>752.8</ele>
        <time>2020-07-31T05:55:19Z</time>
      </trkpt>
      <trkpt lat="42.1949580" lon="2.2066030">
        <ele>753.6</ele>
        <time>2020-07-31T05:55:24Z</time>
      </trkpt>
      <trkpt lat="42.1949550" lon="2.2066500">
        <ele>753.8</ele>
        <time>2020-07-31T05:55:25Z</time>
      </trkpt>
      <trkpt lat="42.1949470" lon="2.2069290">
        <ele>755.2</ele>
        <time>2020-07-31T05:55:31Z</time>
      </trkpt>
      <trkpt lat="42.1949430" lon="2.2071180">
        <ele>756.2</ele>
        <time>2020-07-31T05:55:35Z</time>
      </trkpt>
      <trkpt lat="42.1949420" lon="2.2071660">
        <ele>756.2</ele>
        <time>2020-07-31T05:55:36Z</time>
      </trkpt>
      <trkpt lat="42.1949650" lon="2.2073580">
        <ele>757.4</ele>
        <time>2020-07-31T05:55:40Z</time>
      </trkpt>
      <trkpt lat="42.1949770" lon="2.2074060">
        <ele>757.6</ele>
        <time>2020-07-31T05:55:41Z</time>
      </trkpt>
      <trkpt lat="42.1950240" lon="2.2075390">
        <ele>758.4</ele>
        <time>2020-07-31T05:55:44Z</time>
      </trkpt>
      <trkpt lat="42.1950700" lon="2.2076650">
        <ele>759.0</ele>
        <time>2020-07-31T05:55:47Z</time>
      </trkpt>
      <trkpt lat="42.1951270" lon="2.2077790">
        <ele>759.6</ele>
        <time>2020-07-31T05:55:50Z</time>
      </trkpt>
      <trkpt lat="42.1951670" lon="2.2078540">
        <ele>759.8</ele>
        <time>2020-07-31T05:55:52Z</time>
      </trkpt>
      <trkpt lat="42.1952460" lon="2.2080080">
        <ele>760.8</ele>
        <time>2020-07-31T05:55:56Z</time>
      </trkpt>
      <trkpt lat="42.1952970" lon="2.2081600">
        <ele>761.4</ele>
        <time>2020-07-31T05:56:00Z</time>
      </trkpt>
      <trkpt lat="42.1953240" lon="2.2082410">
        <ele>761.8</ele>
        <time>2020-07-31T05:56:02Z</time>
      </trkpt>
      <trkpt lat="42.1953720" lon="2.2084160">
        <ele>763.0</ele>
        <time>2020-07-31T05:56:06Z</time>
      </trkpt>
      <trkpt lat="42.1953790" lon="2.2085080">
        <ele>763.6</ele>
        <time>2020-07-31T05:56:08Z</time>
      </trkpt>
      <trkpt lat="42.1953780" lon="2.2085950">
        <ele>764.2</ele>
        <time>2020-07-31T05:56:10Z</time>
      </trkpt>
      <trkpt lat="42.1953630" lon="2.2087710">
        <ele>765.2</ele>
        <time>2020-07-31T05:56:14Z</time>
      </trkpt>
      <trkpt lat="42.1953470" lon="2.2088580">
        <ele>765.6</ele>
        <time>2020-07-31T05:56:16Z</time>
      </trkpt>
      <trkpt lat="42.1953280" lon="2.2089470">
        <ele>766.2</ele>
        <time>2020-07-31T05:56:18Z</time>
      </trkpt>
      <trkpt lat="42.1952900" lon="2.2091670">
        <ele>767.2</ele>
        <time>2020-07-31T05:56:23Z</time>
      </trkpt>
      <trkpt lat="42.1952590" lon="2.2094220">
        <ele>768.4</ele>
        <time>2020-07-31T05:56:29Z</time>
      </trkpt>
      <trkpt lat="42.1952680" lon="2.2095480">
        <ele>768.8</ele>
        <time>2020-07-31T05:56:32Z</time>
      </trkpt>
      <trkpt lat="42.1952850" lon="2.2096300">
        <ele>769.6</ele>
        <time>2020-07-31T05:56:34Z</time>
      </trkpt>
      <trkpt lat="42.1953370" lon="2.2098060">
        <ele>770.4</ele>
        <time>2020-07-31T05:56:38Z</time>
      </trkpt>
      <trkpt lat="42.1953550" lon="2.2098530">
        <ele>770.6</ele>
        <time>2020-07-31T05:56:39Z</time>
      </trkpt>
      <trkpt lat="42.1954270" lon="2.2100770">
        <ele>771.8</ele>
        <time>2020-07-31T05:56:44Z</time>
      </trkpt>
      <trkpt lat="42.1954600" lon="2.2101620">
        <ele>772.2</ele>
        <time>2020-07-31T05:56:46Z</time>
      </trkpt>
      <trkpt lat="42.1955260" lon="2.2102950">
        <ele>772.8</ele>
        <time>2020-07-31T05:56:49Z</time>
      </trkpt>
      <trkpt lat="42.1955980" lon="2.2104450">
        <ele>773.8</ele>
        <time>2020-07-31T05:56:52Z</time>
      </trkpt>
      <trkpt lat="42.1956160" lon="2.2104980">
        <ele>774.0</ele>
        <time>2020-07-31T05:56:53Z</time>
      </trkpt>
      <trkpt lat="42.1956610" lon="2.2106060">
        <ele>774.6</ele>
        <time>2020-07-31T05:56:55Z</time>
      </trkpt>
      <trkpt lat="42.1957170" lon="2.2107960">
        <ele>775.0</ele>
        <time>2020-07-31T05:56:58Z</time>
      </trkpt>
      <trkpt lat="42.1957240" lon="2.2108650">
        <ele>775.2</ele>
        <time>2020-07-31T05:56:59Z</time>
      </trkpt>
      <trkpt lat="42.1957000" lon="2.2110750">
        <ele>775.2</ele>
        <time>2020-07-31T05:57:02Z</time>
      </trkpt>
      <trkpt lat="42.1955890" lon="2.2112390">
        <ele>775.2</ele>
        <time>2020-07-31T05:57:05Z</time>
      </trkpt>
      <trkpt lat="42.1954910" lon="2.2113180">
        <ele>775.4</ele>
        <time>2020-07-31T05:57:07Z</time>
      </trkpt>
      <trkpt lat="42.1953930" lon="2.2113990">
        <ele>775.4</ele>
        <time>2020-07-31T05:57:09Z</time>
      </trkpt>
      <trkpt lat="42.1953110" lon="2.2115030">
        <ele>775.4</ele>
        <time>2020-07-31T05:57:11Z</time>
      </trkpt>
      <trkpt lat="42.1952160" lon="2.2117650">
        <ele>775.4</ele>
        <time>2020-07-31T05:57:15Z</time>
      </trkpt>
      <trkpt lat="42.1951730" lon="2.2119030">
        <ele>775.6</ele>
        <time>2020-07-31T05:57:17Z</time>
      </trkpt>
      <trkpt lat="42.1950850" lon="2.2121040">
        <ele>775.6</ele>
        <time>2020-07-31T05:57:20Z</time>
      </trkpt>
      <trkpt lat="42.1949800" lon="2.2123620">
        <ele>775.8</ele>
        <time>2020-07-31T05:57:24Z</time>
      </trkpt>
      <trkpt lat="42.1949530" lon="2.2124920">
        <ele>775.8</ele>
        <time>2020-07-31T05:57:26Z</time>
      </trkpt>
      <trkpt lat="42.1949270" lon="2.2127550">
        <ele>776.2</ele>
        <time>2020-07-31T05:57:30Z</time>
      </trkpt>
      <trkpt lat="42.1949010" lon="2.2130060">
        <ele>776.8</ele>
        <time>2020-07-31T05:57:34Z</time>
      </trkpt>
      <trkpt lat="42.1948760" lon="2.2131360">
        <ele>777.2</ele>
        <time>2020-07-31T05:57:36Z</time>
      </trkpt>
      <trkpt lat="42.1948410" lon="2.2133700">
        <ele>778.4</ele>
        <time>2020-07-31T05:57:40Z</time>
      </trkpt>
      <trkpt lat="42.1948330" lon="2.2134840">
        <ele>779.2</ele>
        <time>2020-07-31T05:57:42Z</time>
      </trkpt>
      <trkpt lat="42.1948500" lon="2.2135910">
        <ele>779.6</ele>
        <time>2020-07-31T05:57:44Z</time>
      </trkpt>
      <trkpt lat="42.1948860" lon="2.2136850">
        <ele>780.0</ele>
        <time>2020-07-31T05:57:46Z</time>
      </trkpt>
      <trkpt lat="42.1949210" lon="2.2137550">
        <ele>780.6</ele>
        <time>2020-07-31T05:57:48Z</time>
      </trkpt>
      <trkpt lat="42.1949890" lon="2.2138140">
        <ele>781.2</ele>
        <time>2020-07-31T05:57:51Z</time>
      </trkpt>
      <trkpt lat="42.1951030" lon="2.2138640">
        <ele>781.8</ele>
        <time>2020-07-31T05:57:54Z</time>
      </trkpt>
      <trkpt lat="42.1952170" lon="2.2139080">
        <ele>782.8</ele>
        <time>2020-07-31T05:57:57Z</time>
      </trkpt>
      <trkpt lat="42.1953520" lon="2.2140130">
        <ele>783.8</ele>
        <time>2020-07-31T05:58:01Z</time>
      </trkpt>
      <trkpt lat="42.1953780" lon="2.2140530">
        <ele>784.0</ele>
        <time>2020-07-31T05:58:02Z</time>
      </trkpt>
      <trkpt lat="42.1954660" lon="2.2142460">
        <ele>784.8</ele>
        <time>2020-07-31T05:58:06Z</time>
      </trkpt>
      <trkpt lat="42.1954620" lon="2.2142920">
        <ele>785.0</ele>
        <time>2020-07-31T05:58:07Z</time>
      </trkpt>
      <trkpt lat="42.1953710" lon="2.2144420">
        <ele>785.6</ele>
        <time>2020-07-31T05:58:11Z</time>
      </trkpt>
      <trkpt lat="42.1953360" lon="2.2144690">
        <ele>785.8</ele>
        <time>2020-07-31T05:58:12Z</time>
      </trkpt>
      <trkpt lat="42.1951830" lon="2.2145460">
        <ele>786.8</ele>
        <time>2020-07-31T05:58:16Z</time>
      </trkpt>
      <trkpt lat="42.1951430" lon="2.2145650">
        <ele>787.0</ele>
        <time>2020-07-31T05:58:17Z</time>
      </trkpt>
      <trkpt lat="42.1949420" lon="2.2147420">
        <ele>788.4</ele>
        <time>2020-07-31T05:58:23Z</time>
      </trkpt>
      <trkpt lat="42.1948690" lon="2.2149060">
        <ele>789.6</ele>
        <time>2020-07-31T05:58:27Z</time>
      </trkpt>
      <trkpt lat="42.1948390" lon="2.2149930">
        <ele>790.0</ele>
        <time>2020-07-31T05:58:29Z</time>
      </trkpt>
      <trkpt lat="42.1947980" lon="2.2151300">
        <ele>790.8</ele>
        <time>2020-07-31T05:58:32Z</time>
      </trkpt>
      <trkpt lat="42.1947600" lon="2.2153310">
        <ele>791.4</ele>
        <time>2020-07-31T05:58:36Z</time>
      </trkpt>
      <trkpt lat="42.1947470" lon="2.2154310">
        <ele>791.8</ele>
        <time>2020-07-31T05:58:38Z</time>
      </trkpt>
      <trkpt lat="42.1947620" lon="2.2156360">
        <ele>792.6</ele>
        <time>2020-07-31T05:58:42Z</time>
      </trkpt>
      <trkpt lat="42.1947860" lon="2.2157300">
        <ele>793.0</ele>
        <time>2020-07-31T05:58:44Z</time>
      </trkpt>
      <trkpt lat="42.1948520" lon="2.2159680">
        <ele>794.0</ele>
        <time>2020-07-31T05:58:49Z</time>
      </trkpt>
      <trkpt lat="42.1949420" lon="2.2161610">
        <ele>795.6</ele>
        <time>2020-07-31T05:58:54Z</time>
      </trkpt>
      <trkpt lat="42.1950040" lon="2.2162610">
        <ele>796.2</ele>
        <time>2020-07-31T05:58:57Z</time>
      </trkpt>
      <trkpt lat="42.1950480" lon="2.2163350">
        <ele>796.8</ele>
        <time>2020-07-31T05:58:59Z</time>
      </trkpt>
      <trkpt lat="42.1950940" lon="2.2165180">
        <ele>797.6</ele>
        <time>2020-07-31T05:59:03Z</time>
      </trkpt>
      <trkpt lat="42.1950970" lon="2.2165660">
        <ele>797.8</ele>
        <time>2020-07-31T05:59:04Z</time>
      </trkpt>
      <trkpt lat="42.1950900" lon="2.2168070">
        <ele>798.6</ele>
        <time>2020-07-31T05:59:09Z</time>
      </trkpt>
      <trkpt lat="42.1950660" lon="2.2168910">
        <ele>798.8</ele>
        <time>2020-07-31T05:59:11Z</time>
      </trkpt>
      <trkpt lat="42.1949970" lon="2.2170460">
        <ele>799.6</ele>
        <time>2020-07-31T05:59:15Z</time>
      </trkpt>
      <trkpt lat="42.1949640" lon="2.2171320">
        <ele>800.0</ele>
        <time>2020-07-31T05:59:17Z</time>
      </trkpt>
      <trkpt lat="42.1949260" lon="2.2173150">
        <ele>801.0</ele>
        <time>2020-07-31T05:59:21Z</time>
      </trkpt>
      <trkpt lat="42.1949140" lon="2.2174220">
        <ele>801.4</ele>
        <time>2020-07-31T05:59:23Z</time>
      </trkpt>
      <trkpt lat="42.1949040" lon="2.2177030">
        <ele>802.6</ele>
        <time>2020-07-31T05:59:28Z</time>
      </trkpt>
      <trkpt lat="42.1948980" lon="2.2179980">
        <ele>803.8</ele>
        <time>2020-07-31T05:59:34Z</time>
      </trkpt>
      <trkpt lat="42.1948980" lon="2.2181880">
        <ele>804.8</ele>
        <time>2020-07-31T05:59:38Z</time>
      </trkpt>
      <trkpt lat="42.1949000" lon="2.2182360">
        <ele>805.0</ele>
        <time>2020-07-31T05:59:39Z</time>
      </trkpt>
      <trkpt lat="42.1949060" lon="2.2184760">
        <ele>806.0</ele>
        <time>2020-07-31T05:59:44Z</time>
      </trkpt>
      <trkpt lat="42.1949180" lon="2.2186700">
        <ele>806.8</ele>
        <time>2020-07-31T05:59:48Z</time>
      </trkpt>
      <trkpt lat="42.1949240" lon="2.2187160">
        <ele>807.2</ele>
        <time>2020-07-31T05:59:49Z</time>
      </trkpt>
      <trkpt lat="42.1949480" lon="2.2189050">
        <ele>808.2</ele>
        <time>2020-07-31T05:59:53Z</time>
      </trkpt>
      <trkpt lat="42.1949920" lon="2.2190950">
        <ele>809.4</ele>
        <time>2020-07-31T05:59:57Z</time>
      </trkpt>
      <trkpt lat="42.1950600" lon="2.2193070">
        <ele>810.6</ele>
        <time>2020-07-31T06:00:02Z</time>
      </trkpt>
      <trkpt lat="42.1950970" lon="2.2193830">
        <ele>811.2</ele>
        <time>2020-07-31T06:00:04Z</time>
      </trkpt>
      <trkpt lat="42.1951480" lon="2.2194600">
        <ele>811.6</ele>
        <time>2020-07-31T06:00:06Z</time>
      </trkpt>
      <trkpt lat="42.1952450" lon="2.2196560">
        <ele>812.4</ele>
        <time>2020-07-31T06:00:11Z</time>
      </trkpt>
      <trkpt lat="42.1952660" lon="2.2197480">
        <ele>812.6</ele>
        <time>2020-07-31T06:00:13Z</time>
      </trkpt>
      <trkpt lat="42.1952840" lon="2.2199320">
        <ele>813.2</ele>
        <time>2020-07-31T06:00:17Z</time>
      </trkpt>
      <trkpt lat="42.1952840" lon="2.2200170">
        <ele>814.4</ele>
        <time>2020-07-31T06:00:19Z</time>
      </trkpt>
      <trkpt lat="42.1953020" lon="2.2201850">
        <ele>815.4</ele>
        <time>2020-07-31T06:00:23Z</time>
      </trkpt>
      <trkpt lat="42.1953110" lon="2.2202290">
        <ele>815.6</ele>
        <time>2020-07-31T06:00:24Z</time>
      </trkpt>
      <trkpt lat="42.1953650" lon="2.2204520">
        <ele>816.6</ele>
        <time>2020-07-31T06:00:29Z</time>
      </trkpt>
      <trkpt lat="42.1953830" lon="2.2206390">
        <ele>817.4</ele>
        <time>2020-07-31T06:00:33Z</time>
      </trkpt>
      <trkpt lat="42.1953820" lon="2.2206830">
        <ele>817.6</ele>
        <time>2020-07-31T06:00:34Z</time>
      </trkpt>
      <trkpt lat="42.1953400" lon="2.2208470">
        <ele>818.6</ele>
        <time>2020-07-31T06:00:38Z</time>
      </trkpt>
      <trkpt lat="42.1953250" lon="2.2208830">
        <ele>818.8</ele>
        <time>2020-07-31T06:00:39Z</time>
      </trkpt>
      <trkpt lat="42.1952040" lon="2.2210690">
        <ele>820.2</ele>
        <time>2020-07-31T06:00:45Z</time>
      </trkpt>
      <trkpt lat="42.1951470" lon="2.2211800">
        <ele>821.2</ele>
        <time>2020-07-31T06:00:48Z</time>
      </trkpt>
      <trkpt lat="42.1950890" lon="2.2213520">
        <ele>822.2</ele>
        <time>2020-07-31T06:00:52Z</time>
      </trkpt>
      <trkpt lat="42.1950400" lon="2.2216300">
        <ele>823.4</ele>
        <time>2020-07-31T06:00:58Z</time>
      </trkpt>
      <trkpt lat="42.1950320" lon="2.2216720">
        <ele>823.6</ele>
        <time>2020-07-31T06:00:59Z</time>
      </trkpt>
      <trkpt lat="42.1950000" lon="2.2218320">
        <ele>824.4</ele>
        <time>2020-07-31T06:01:03Z</time>
      </trkpt>
      <trkpt lat="42.1949700" lon="2.2220120">
        <ele>825.2</ele>
        <time>2020-07-31T06:01:07Z</time>
      </trkpt>
      <trkpt lat="42.1949580" lon="2.2221070">
        <ele>825.6</ele>
        <time>2020-07-31T06:01:09Z</time>
      </trkpt>
      <trkpt lat="42.1949350" lon="2.2223410">
        <ele>826.6</ele>
        <time>2020-07-31T06:01:14Z</time>
      </trkpt>
      <trkpt lat="42.1949260" lon="2.2224850">
        <ele>827.8</ele>
        <time>2020-07-31T06:01:17Z</time>
      </trkpt>
      <trkpt lat="42.1949160" lon="2.2227190">
        <ele>828.8</ele>
        <time>2020-07-31T06:01:22Z</time>
      </trkpt>
      <trkpt lat="42.1949080" lon="2.2228550">
        <ele>829.4</ele>
        <time>2020-07-31T06:01:25Z</time>
      </trkpt>
      <trkpt lat="42.1948970" lon="2.2229890">
        <ele>830.0</ele>
        <time>2020-07-31T06:01:28Z</time>
      </trkpt>
      <trkpt lat="42.1948840" lon="2.2232090">
        <ele>831.2</ele>
        <time>2020-07-31T06:01:33Z</time>
      </trkpt>
      <trkpt lat="42.1948750" lon="2.2232910">
        <ele>831.6</ele>
        <time>2020-07-31T06:01:35Z</time>
      </trkpt>
      <trkpt lat="42.1948580" lon="2.2234120">
        <ele>832.4</ele>
        <time>2020-07-31T06:01:38Z</time>
      </trkpt>
      <trkpt lat="42.1948290" lon="2.2236190">
        <ele>833.8</ele>
        <time>2020-07-31T06:01:43Z</time>
      </trkpt>
      <trkpt lat="42.1948230" lon="2.2236600">
        <ele>834.0</ele>
        <time>2020-07-31T06:01:44Z</time>
      </trkpt>
      <trkpt lat="42.1948030" lon="2.2238770">
        <ele>835.0</ele>
        <time>2020-07-31T06:01:49Z</time>
      </trkpt>
      <trkpt lat="42.1947850" lon="2.2240080">
        <ele>835.6</ele>
        <time>2020-07-31T06:01:52Z</time>
      </trkpt>
      <trkpt lat="42.1947700" lon="2.2240920">
        <ele>836.2</ele>
        <time>2020-07-31T06:01:54Z</time>
      </trkpt>
      <trkpt lat="42.1947490" lon="2.2243060">
        <ele>837.4</ele>
        <time>2020-07-31T06:01:59Z</time>
      </trkpt>
      <trkpt lat="42.1947480" lon="2.2243480">
        <ele>837.8</ele>
        <time>2020-07-31T06:02:00Z</time>
      </trkpt>
      <trkpt lat="42.1947280" lon="2.2245120">
        <ele>838.4</ele>
        <time>2020-07-31T06:02:04Z</time>
      </trkpt>
      <trkpt lat="42.1947080" lon="2.2247170">
        <ele>839.4</ele>
        <time>2020-07-31T06:02:09Z</time>
      </trkpt>
      <trkpt lat="42.1947070" lon="2.2247620">
        <ele>839.6</ele>
        <time>2020-07-31T06:02:10Z</time>
      </trkpt>
      <trkpt lat="42.1947030" lon="2.2249150">
        <ele>840.6</ele>
        <time>2020-07-31T06:02:13Z</time>
      </trkpt>
      <trkpt lat="42.1947060" lon="2.2250090">
        <ele>841.2</ele>
        <time>2020-07-31T06:02:15Z</time>
      </trkpt>
      <trkpt lat="42.1947270" lon="2.2251350">
        <ele>841.8</ele>
        <time>2020-07-31T06:02:18Z</time>
      </trkpt>
      <trkpt lat="42.1947470" lon="2.2253140">
        <ele>842.8</ele>
        <time>2020-07-31T06:02:22Z</time>
      </trkpt>
      <trkpt lat="42.1947480" lon="2.2253590">
        <ele>843.0</ele>
        <time>2020-07-31T06:02:23Z</time>
      </trkpt>
      <trkpt lat="42.1947870" lon="2.2255730">
        <ele>844.2</ele>
        <time>2020-07-31T06:02:28Z</time>
      </trkpt>
      <trkpt lat="42.1947950" lon="2.2256170">
        <ele>844.4</ele>
        <time>2020-07-31T06:02:29Z</time>
      </trkpt>
      <trkpt lat="42.1948190" lon="2.2258380">
        <ele>845.2</ele>
        <time>2020-07-31T06:02:34Z</time>
      </trkpt>
      <trkpt lat="42.1948570" lon="2.2260130">
        <ele>846.2</ele>
        <time>2020-07-31T06:02:38Z</time>
      </trkpt>
      <trkpt lat="42.1948690" lon="2.2260560">
        <ele>846.8</ele>
        <time>2020-07-31T06:02:39Z</time>
      </trkpt>
      <trkpt lat="42.1949230" lon="2.2262680">
        <ele>848.0</ele>
        <time>2020-07-31T06:02:44Z</time>
      </trkpt>
      <trkpt lat="42.1949700" lon="2.2264310">
        <ele>849.0</ele>
        <time>2020-07-31T06:02:48Z</time>
      </trkpt>
      <trkpt lat="42.1950010" lon="2.2266540">
        <ele>850.2</ele>
        <time>2020-07-31T06:02:53Z</time>
      </trkpt>
      <trkpt lat="42.1949950" lon="2.2267420">
        <ele>850.6</ele>
        <time>2020-07-31T06:02:55Z</time>
      </trkpt>
      <trkpt lat="42.1949580" lon="2.2268920">
        <ele>851.2</ele>
        <time>2020-07-31T06:02:59Z</time>
      </trkpt>
      <trkpt lat="42.1949330" lon="2.2269660">
        <ele>851.6</ele>
        <time>2020-07-31T06:03:01Z</time>
      </trkpt>
      <trkpt lat="42.1948950" lon="2.2271080">
        <ele>852.6</ele>
        <time>2020-07-31T06:03:05Z</time>
      </trkpt>
      <trkpt lat="42.1948850" lon="2.2271420">
        <ele>852.8</ele>
        <time>2020-07-31T06:03:06Z</time>
      </trkpt>
      <trkpt lat="42.1948620" lon="2.2272670">
        <ele>853.6</ele>
        <time>2020-07-31T06:03:09Z</time>
      </trkpt>
      <trkpt lat="42.1948450" lon="2.2273970">
        <ele>854.2</ele>
        <time>2020-07-31T06:03:12Z</time>
      </trkpt>
      <trkpt lat="42.1948380" lon="2.2274650">
        <ele>854.6</ele>
        <time>2020-07-31T06:03:14Z</time>
      </trkpt>
      <trkpt lat="42.1948090" lon="2.2275880">
        <ele>855.6</ele>
        <time>2020-07-31T06:03:17Z</time>
      </trkpt>
      <trkpt lat="42.1948000" lon="2.2276270">
        <ele>855.8</ele>
        <time>2020-07-31T06:03:18Z</time>
      </trkpt>
      <trkpt lat="42.1947250" lon="2.2278220">
        <ele>857.2</ele>
        <time>2020-07-31T06:03:23Z</time>
      </trkpt>
      <trkpt lat="42.1946370" lon="2.2280810">
        <ele>858.2</ele>
        <time>2020-07-31T06:03:29Z</time>
      </trkpt>
      <trkpt lat="42.1946180" lon="2.2281790">
        <ele>858.8</ele>
        <time>2020-07-31T06:03:31Z</time>
      </trkpt>
      <trkpt lat="42.1945910" lon="2.2283230">
        <ele>859.4</ele>
        <time>2020-07-31T06:03:34Z</time>
      </trkpt>
      <trkpt lat="42.1945730" lon="2.2285060">
        <ele>860.4</ele>
        <time>2020-07-31T06:03:38Z</time>
      </trkpt>
      <trkpt lat="42.1945640" lon="2.2285550">
        <ele>860.6</ele>
        <time>2020-07-31T06:03:39Z</time>
      </trkpt>
      <trkpt lat="42.1945410" lon="2.2286960">
        <ele>861.4</ele>
        <time>2020-07-31T06:03:42Z</time>
      </trkpt>
      <trkpt lat="42.1945390" lon="2.2288200">
        <ele>862.2</ele>
        <time>2020-07-31T06:03:45Z</time>
      </trkpt>
      <trkpt lat="42.1945360" lon="2.2288640">
        <ele>862.6</ele>
        <time>2020-07-31T06:03:46Z</time>
      </trkpt>
      <trkpt lat="42.1945360" lon="2.2290580">
        <ele>863.4</ele>
        <time>2020-07-31T06:03:50Z</time>
      </trkpt>
      <trkpt lat="42.1945380" lon="2.2291520">
        <ele>864.0</ele>
        <time>2020-07-31T06:03:52Z</time>
      </trkpt>
      <trkpt lat="42.1945340" lon="2.2292810">
        <ele>864.8</ele>
        <time>2020-07-31T06:03:55Z</time>
      </trkpt>
      <trkpt lat="42.1944990" lon="2.2294870">
        <ele>866.0</ele>
        <time>2020-07-31T06:04:00Z</time>
      </trkpt>
      <trkpt lat="42.1944810" lon="2.2296140">
        <ele>867.2</ele>
        <time>2020-07-31T06:04:03Z</time>
      </trkpt>
      <trkpt lat="42.1944440" lon="2.2298070">
        <ele>868.6</ele>
        <time>2020-07-31T06:04:07Z</time>
      </trkpt>
      <trkpt lat="42.1944390" lon="2.2299010">
        <ele>869.2</ele>
        <time>2020-07-31T06:04:09Z</time>
      </trkpt>
      <trkpt lat="42.1944320" lon="2.2299920">
        <ele>869.6</ele>
        <time>2020-07-31T06:04:11Z</time>
      </trkpt>
      <trkpt lat="42.1944120" lon="2.2301370">
        <ele>870.4</ele>
        <time>2020-07-31T06:04:14Z</time>
      </trkpt>
      <trkpt lat="42.1943880" lon="2.2302490">
        <ele>870.8</ele>
        <time>2020-07-31T06:04:16Z</time>
      </trkpt>
      <trkpt lat="42.1943080" lon="2.2305290">
        <ele>871.8</ele>
        <time>2020-07-31T06:04:22Z</time>
      </trkpt>
      <trkpt lat="42.1942100" lon="2.2307680">
        <ele>872.6</ele>
        <time>2020-07-31T06:04:27Z</time>
      </trkpt>
      <trkpt lat="42.1941430" lon="2.2309580">
        <ele>874.0</ele>
        <time>2020-07-31T06:04:31Z</time>
      </trkpt>
      <trkpt lat="42.1940930" lon="2.2311440">
        <ele>875.0</ele>
        <time>2020-07-31T06:04:35Z</time>
      </trkpt>
      <trkpt lat="42.1940570" lon="2.2313330">
        <ele>876.0</ele>
        <time>2020-07-31T06:04:39Z</time>
      </trkpt>
      <trkpt lat="42.1940580" lon="2.2315410">
        <ele>877.2</ele>
        <time>2020-07-31T06:04:43Z</time>
      </trkpt>
      <trkpt lat="42.1940650" lon="2.2316470">
        <ele>877.8</ele>
        <time>2020-07-31T06:04:45Z</time>
      </trkpt>
      <trkpt lat="42.1940870" lon="2.2317490">
        <ele>878.2</ele>
        <time>2020-07-31T06:04:47Z</time>
      </trkpt>
      <trkpt lat="42.1941580" lon="2.2319310">
        <ele>879.4</ele>
        <time>2020-07-31T06:04:51Z</time>
      </trkpt>
      <trkpt lat="42.1941790" lon="2.2319780">
        <ele>879.6</ele>
        <time>2020-07-31T06:04:52Z</time>
      </trkpt>
      <trkpt lat="42.1942500" lon="2.2321060">
        <ele>880.4</ele>
        <time>2020-07-31T06:04:55Z</time>
      </trkpt>
      <trkpt lat="42.1943850" lon="2.2323050">
        <ele>881.2</ele>
        <time>2020-07-31T06:04:59Z</time>
      </trkpt>
      <trkpt lat="42.1944850" lon="2.2324780">
        <ele>881.4</ele>
        <time>2020-07-31T06:05:02Z</time>
      </trkpt>
      <trkpt lat="42.1945690" lon="2.2326810">
        <ele>881.6</ele>
        <time>2020-07-31T06:05:05Z</time>
      </trkpt>
      <trkpt lat="42.1948030" lon="2.2332680">
        <ele>881.8</ele>
        <time>2020-07-31T06:05:13Z</time>
      </trkpt>
      <trkpt lat="42.1949060" lon="2.2334730">
        <ele>881.8</ele>
        <time>2020-07-31T06:05:16Z</time>
      </trkpt>
      <trkpt lat="42.1949950" lon="2.2335830">
        <ele>881.8</ele>
        <time>2020-07-31T06:05:18Z</time>
      </trkpt>
      <trkpt lat="42.1950990" lon="2.2336730">
        <ele>882.0</ele>
        <time>2020-07-31T06:05:20Z</time>
      </trkpt>
      <trkpt lat="42.1953220" lon="2.2338640">
        <ele>882.2</ele>
        <time>2020-07-31T06:05:24Z</time>
      </trkpt>
      <trkpt lat="42.1955970" lon="2.2341130">
        <ele>882.4</ele>
        <time>2020-07-31T06:05:29Z</time>
      </trkpt>
      <trkpt lat="42.1957750" lon="2.2341610">
        <ele>882.4</ele>
        <time>2020-07-31T06:05:33Z</time>
      </trkpt>
      <trkpt lat="42.1960600" lon="2.2341480">
        <ele>882.2</ele>
        <time>2020-07-31T06:05:39Z</time>
      </trkpt>
      <trkpt lat="42.1963740" lon="2.2341390">
        <ele>882.0</ele>
        <time>2020-07-31T06:05:44Z</time>
      </trkpt>
      <trkpt lat="42.1964120" lon="2.2341450">
        <ele>882.0</ele>
        <time>2020-07-31T06:05:45Z</time>
      </trkpt>
      <trkpt lat="42.1965780" lon="2.2342260">
        <ele>882.0</ele>
        <time>2020-07-31T06:05:48Z</time>
      </trkpt>
      <trkpt lat="42.1968370" lon="2.2345140">
        <ele>882.2</ele>
        <time>2020-07-31T06:05:52Z</time>
      </trkpt>
      <trkpt lat="42.1969810" lon="2.2348910">
        <ele>882.4</ele>
        <time>2020-07-31T06:05:56Z</time>
      </trkpt>
      <trkpt lat="42.1969950" lon="2.2349860">
        <ele>882.6</ele>
        <time>2020-07-31T06:05:57Z</time>
      </trkpt>
      <trkpt lat="42.1970030" lon="2.2350800">
        <ele>882.6</ele>
        <time>2020-07-31T06:05:58Z</time>
      </trkpt>
      <trkpt lat="42.1970260" lon="2.2354650">
        <ele>882.6</ele>
        <time>2020-07-31T06:06:02Z</time>
      </trkpt>
      <trkpt lat="42.1969610" lon="2.2361870">
        <ele>882.8</ele>
        <time>2020-07-31T06:06:10Z</time>
      </trkpt>
      <trkpt lat="42.1969430" lon="2.2363690">
        <ele>882.8</ele>
        <time>2020-07-31T06:06:12Z</time>
      </trkpt>
      <trkpt lat="42.1968730" lon="2.2369200">
        <ele>882.8</ele>
        <time>2020-07-31T06:06:18Z</time>
      </trkpt>
      <trkpt lat="42.1968510" lon="2.2370090">
        <ele>882.8</ele>
        <time>2020-07-31T06:06:19Z</time>
      </trkpt>
      <trkpt lat="42.1967010" lon="2.2373140">
        <ele>883.0</ele>
        <time>2020-07-31T06:06:23Z</time>
      </trkpt>
      <trkpt lat="42.1966520" lon="2.2373840">
        <ele>883.0</ele>
        <time>2020-07-31T06:06:24Z</time>
      </trkpt>
      <trkpt lat="42.1963040" lon="2.2378620">
        <ele>883.0</ele>
        <time>2020-07-31T06:06:31Z</time>
      </trkpt>
      <trkpt lat="42.1961230" lon="2.2382250">
        <ele>883.2</ele>
        <time>2020-07-31T06:06:36Z</time>
      </trkpt>
      <trkpt lat="42.1960750" lon="2.2383980">
        <ele>883.4</ele>
        <time>2020-07-31T06:06:38Z</time>
      </trkpt>
      <trkpt lat="42.1960000" lon="2.2387510">
        <ele>883.4</ele>
        <time>2020-07-31T06:06:42Z</time>
      </trkpt>
      <trkpt lat="42.1959830" lon="2.2389310">
        <ele>883.6</ele>
        <time>2020-07-31T06:06:44Z</time>
      </trkpt>
      <trkpt lat="42.1959860" lon="2.2391180">
        <ele>883.6</ele>
        <time>2020-07-31T06:06:46Z</time>
      </trkpt>
      <trkpt lat="42.1960060" lon="2.2393110">
        <ele>883.8</ele>
        <time>2020-07-31T06:06:48Z</time>
      </trkpt>
      <trkpt lat="42.1960620" lon="2.2397160">
        <ele>883.8</ele>
        <time>2020-07-31T06:06:52Z</time>
      </trkpt>
      <trkpt lat="42.1960710" lon="2.2399210">
        <ele>883.8</ele>
        <time>2020-07-31T06:06:54Z</time>
      </trkpt>
      <trkpt lat="42.1960450" lon="2.2401160">
        <ele>883.6</ele>
        <time>2020-07-31T06:06:56Z</time>
      </trkpt>
      <trkpt lat="42.1959960" lon="2.2402980">
        <ele>883.6</ele>
        <time>2020-07-31T06:06:58Z</time>
      </trkpt>
      <trkpt lat="42.1959130" lon="2.2405650">
        <ele>883.8</ele>
        <time>2020-07-31T06:07:01Z</time>
      </trkpt>
      <trkpt lat="42.1956990" lon="2.2412680">
        <ele>884.0</ele>
        <time>2020-07-31T06:07:09Z</time>
      </trkpt>
      <trkpt lat="42.1956800" lon="2.2413580">
        <ele>884.0</ele>
        <time>2020-07-31T06:07:10Z</time>
      </trkpt>
      <trkpt lat="42.1956520" lon="2.2417700">
        <ele>884.2</ele>
        <time>2020-07-31T06:07:14Z</time>
      </trkpt>
      <trkpt lat="42.1956720" lon="2.2425280">
        <ele>884.2</ele>
        <time>2020-07-31T06:07:21Z</time>
      </trkpt>
      <trkpt lat="42.1956960" lon="2.2430620">
        <ele>883.8</ele>
        <time>2020-07-31T06:07:26Z</time>
      </trkpt>
      <trkpt lat="42.1957230" lon="2.2438900">
        <ele>883.2</ele>
        <time>2020-07-31T06:07:34Z</time>
      </trkpt>
      <trkpt lat="42.1957150" lon="2.2439930">
        <ele>883.2</ele>
        <time>2020-07-31T06:07:35Z</time>
      </trkpt>
      <trkpt lat="42.1955980" lon="2.2447740">
        <ele>883.0</ele>
        <time>2020-07-31T06:07:43Z</time>
      </trkpt>
      <trkpt lat="42.1954550" lon="2.2454940">
        <ele>883.4</ele>
        <time>2020-07-31T06:07:51Z</time>
      </trkpt>
      <trkpt lat="42.1952530" lon="2.2460650">
        <ele>883.8</ele>
        <time>2020-07-31T06:07:58Z</time>
      </trkpt>
      <trkpt lat="42.1951600" lon="2.2466030">
        <ele>884.2</ele>
        <time>2020-07-31T06:08:04Z</time>
      </trkpt>
      <trkpt lat="42.1951340" lon="2.2471840">
        <ele>884.4</ele>
        <time>2020-07-31T06:08:10Z</time>
      </trkpt>
      <trkpt lat="42.1951210" lon="2.2477710">
        <ele>884.2</ele>
        <time>2020-07-31T06:08:16Z</time>
      </trkpt>
      <trkpt lat="42.1951140" lon="2.2479660">
        <ele>884.2</ele>
        <time>2020-07-31T06:08:18Z</time>
      </trkpt>
      <trkpt lat="42.1950640" lon="2.2482630">
        <ele>884.2</ele>
        <time>2020-07-31T06:08:21Z</time>
      </trkpt>
      <trkpt lat="42.1950340" lon="2.2483600">
        <ele>884.2</ele>
        <time>2020-07-31T06:08:22Z</time>
      </trkpt>
      <trkpt lat="42.1949190" lon="2.2486140">
        <ele>884.0</ele>
        <time>2020-07-31T06:08:25Z</time>
      </trkpt>
      <trkpt lat="42.1948730" lon="2.2486880">
        <ele>883.8</ele>
        <time>2020-07-31T06:08:26Z</time>
      </trkpt>
      <trkpt lat="42.1946250" lon="2.2490510">
        <ele>883.8</ele>
        <time>2020-07-31T06:08:31Z</time>
      </trkpt>
      <trkpt lat="42.1945520" lon="2.2492180">
        <ele>883.8</ele>
        <time>2020-07-31T06:08:33Z</time>
      </trkpt>
      <trkpt lat="42.1945220" lon="2.2494070">
        <ele>883.6</ele>
        <time>2020-07-31T06:08:35Z</time>
      </trkpt>
      <trkpt lat="42.1946150" lon="2.2496060">
        <ele>883.6</ele>
        <time>2020-07-31T06:08:38Z</time>
      </trkpt>
      <trkpt lat="42.1947250" lon="2.2497190">
        <ele>883.6</ele>
        <time>2020-07-31T06:08:40Z</time>
      </trkpt>
      <trkpt lat="42.1948950" lon="2.2498690">
        <ele>883.8</ele>
        <time>2020-07-31T06:08:43Z</time>
      </trkpt>
      <trkpt lat="42.1951600" lon="2.2499460">
        <ele>883.8</ele>
        <time>2020-07-31T06:08:47Z</time>
      </trkpt>
      <trkpt lat="42.1953100" lon="2.2499290">
        <ele>883.8</ele>
        <time>2020-07-31T06:08:49Z</time>
      </trkpt>
      <trkpt lat="42.1953890" lon="2.2499250">
        <ele>883.8</ele>
        <time>2020-07-31T06:08:50Z</time>
      </trkpt>
      <trkpt lat="42.1954580" lon="2.2499290">
        <ele>883.8</ele>
        <time>2020-07-31T06:08:51Z</time>
      </trkpt>
      <trkpt lat="42.1955950" lon="2.2499320">
        <ele>884.0</ele>
        <time>2020-07-31T06:08:53Z</time>
      </trkpt>
      <trkpt lat="42.1956700" lon="2.2499180">
        <ele>884.0</ele>
        <time>2020-07-31T06:08:54Z</time>
      </trkpt>
      <trkpt lat="42.1960080" lon="2.2498120">
        <ele>884.2</ele>
        <time>2020-07-31T06:08:59Z</time>
      </trkpt>
      <trkpt lat="42.1961500" lon="2.2497610">
        <ele>884.2</ele>
        <time>2020-07-31T06:09:01Z</time>
      </trkpt>
      <trkpt lat="42.1963110" lon="2.2497560">
        <ele>884.2</ele>
        <time>2020-07-31T06:09:03Z</time>
      </trkpt>
      <trkpt lat="42.1964960" lon="2.2499050">
        <ele>884.2</ele>
        <time>2020-07-31T06:09:06Z</time>
      </trkpt>
      <trkpt lat="42.1965810" lon="2.2501820">
        <ele>884.4</ele>
        <time>2020-07-31T06:09:09Z</time>
      </trkpt>
      <trkpt lat="42.1965560" lon="2.2504550">
        <ele>884.4</ele>
        <time>2020-07-31T06:09:12Z</time>
      </trkpt>
      <trkpt lat="42.1965530" lon="2.2506400">
        <ele>884.4</ele>
        <time>2020-07-31T06:09:14Z</time>
      </trkpt>
      <trkpt lat="42.1966000" lon="2.2508290">
        <ele>884.4</ele>
        <time>2020-07-31T06:09:16Z</time>
      </trkpt>
      <trkpt lat="42.1967340" lon="2.2510690">
        <ele>884.4</ele>
        <time>2020-07-31T06:09:19Z</time>
      </trkpt>
      <trkpt lat="42.1969450" lon="2.2511550">
        <ele>884.6</ele>
        <time>2020-07-31T06:09:22Z</time>
      </trkpt>
      <trkpt lat="42.1970240" lon="2.2511800">
        <ele>884.6</ele>
        <time>2020-07-31T06:09:23Z</time>
      </trkpt>
      <trkpt lat="42.1971450" lon="2.2513020">
        <ele>884.2</ele>
        <time>2020-07-31T06:09:25Z</time>
      </trkpt>
      <trkpt lat="42.1972340" lon="2.2514800">
        <ele>884.0</ele>
        <time>2020-07-31T06:09:27Z</time>
      </trkpt>
      <trkpt lat="42.1973290" lon="2.2516440">
        <ele>883.4</ele>
        <time>2020-07-31T06:09:29Z</time>
      </trkpt>
      <trkpt lat="42.1973850" lon="2.2517220">
        <ele>883.0</ele>
        <time>2020-07-31T06:09:30Z</time>
      </trkpt>
      <trkpt lat="42.1975460" lon="2.2519850">
        <ele>882.2</ele>
        <time>2020-07-31T06:09:33Z</time>
      </trkpt>
      <trkpt lat="42.1975780" lon="2.2520860">
        <ele>882.2</ele>
        <time>2020-07-31T06:09:34Z</time>
      </trkpt>
      <trkpt lat="42.1976030" lon="2.2521950">
        <ele>882.0</ele>
        <time>2020-07-31T06:09:35Z</time>
      </trkpt>
      <trkpt lat="42.1976380" lon="2.2524410">
        <ele>881.6</ele>
        <time>2020-07-31T06:09:37Z</time>
      </trkpt>
      <trkpt lat="42.1976660" lon="2.2525640">
        <ele>881.6</ele>
        <time>2020-07-31T06:09:38Z</time>
      </trkpt>
      <trkpt lat="42.1977840" lon="2.2527360">
        <ele>880.8</ele>
        <time>2020-07-31T06:09:40Z</time>
      </trkpt>
      <trkpt lat="42.1979540" lon="2.2527390">
        <ele>880.2</ele>
        <time>2020-07-31T06:09:42Z</time>
      </trkpt>
      <trkpt lat="42.1980400" lon="2.2527290">
        <ele>879.6</ele>
        <time>2020-07-31T06:09:43Z</time>
      </trkpt>
      <trkpt lat="42.1982120" lon="2.2528120">
        <ele>878.8</ele>
        <time>2020-07-31T06:09:45Z</time>
      </trkpt>
      <trkpt lat="42.1982800" lon="2.2529080">
        <ele>878.6</ele>
        <time>2020-07-31T06:09:46Z</time>
      </trkpt>
      <trkpt lat="42.1983260" lon="2.2530240">
        <ele>878.0</ele>
        <time>2020-07-31T06:09:47Z</time>
      </trkpt>
      <trkpt lat="42.1983620" lon="2.2532810">
        <ele>877.6</ele>
        <time>2020-07-31T06:09:49Z</time>
      </trkpt>
      <trkpt lat="42.1983890" lon="2.2534040">
        <ele>877.4</ele>
        <time>2020-07-31T06:09:50Z</time>
      </trkpt>
      <trkpt lat="42.1984260" lon="2.2535160">
        <ele>877.0</ele>
        <time>2020-07-31T06:09:51Z</time>
      </trkpt>
      <trkpt lat="42.1985550" lon="2.2536880">
        <ele>876.2</ele>
        <time>2020-07-31T06:09:53Z</time>
      </trkpt>
      <trkpt lat="42.1986320" lon="2.2537530">
        <ele>875.8</ele>
        <time>2020-07-31T06:09:54Z</time>
      </trkpt>
      <trkpt lat="42.1989060" lon="2.2538730">
        <ele>875.4</ele>
        <time>2020-07-31T06:09:57Z</time>
      </trkpt>
      <trkpt lat="42.1989950" lon="2.2539010">
        <ele>875.2</ele>
        <time>2020-07-31T06:09:58Z</time>
      </trkpt>
      <trkpt lat="42.1990850" lon="2.2539390">
        <ele>875.0</ele>
        <time>2020-07-31T06:09:59Z</time>
      </trkpt>
      <trkpt lat="42.1992370" lon="2.2540590">
        <ele>874.8</ele>
        <time>2020-07-31T06:10:01Z</time>
      </trkpt>
      <trkpt lat="42.1994070" lon="2.2543230">
        <ele>873.8</ele>
        <time>2020-07-31T06:10:04Z</time>
      </trkpt>
      <trkpt lat="42.1994370" lon="2.2544290">
        <ele>873.6</ele>
        <time>2020-07-31T06:10:05Z</time>
      </trkpt>
      <trkpt lat="42.1993500" lon="2.2547840">
        <ele>873.2</ele>
        <time>2020-07-31T06:10:08Z</time>
      </trkpt>
      <trkpt lat="42.1991880" lon="2.2550920">
        <ele>873.0</ele>
        <time>2020-07-31T06:10:11Z</time>
      </trkpt>
      <trkpt lat="42.1990630" lon="2.2552990">
        <ele>872.6</ele>
        <time>2020-07-31T06:10:13Z</time>
      </trkpt>
      <trkpt lat="42.1989210" lon="2.2556510">
        <ele>871.6</ele>
        <time>2020-07-31T06:10:16Z</time>
      </trkpt>
      <trkpt lat="42.1988930" lon="2.2557800">
        <ele>871.4</ele>
        <time>2020-07-31T06:10:17Z</time>
      </trkpt>
      <trkpt lat="42.1988490" lon="2.2561800">
        <ele>870.6</ele>
        <time>2020-07-31T06:10:20Z</time>
      </trkpt>
      <trkpt lat="42.1988440" lon="2.2563130">
        <ele>870.4</ele>
        <time>2020-07-31T06:10:21Z</time>
      </trkpt>
      <trkpt lat="42.1988410" lon="2.2565810">
        <ele>869.6</ele>
        <time>2020-07-31T06:10:23Z</time>
      </trkpt>
      <trkpt lat="42.1988460" lon="2.2567150">
        <ele>869.2</ele>
        <time>2020-07-31T06:10:24Z</time>
      </trkpt>
      <trkpt lat="42.1988640" lon="2.2568510">
        <ele>869.2</ele>
        <time>2020-07-31T06:10:25Z</time>
      </trkpt>
      <trkpt lat="42.1989760" lon="2.2575130">
        <ele>868.2</ele>
        <time>2020-07-31T06:10:30Z</time>
      </trkpt>
      <trkpt lat="42.1990060" lon="2.2576400">
        <ele>868.0</ele>
        <time>2020-07-31T06:10:31Z</time>
      </trkpt>
      <trkpt lat="42.1990570" lon="2.2577600">
        <ele>867.8</ele>
        <time>2020-07-31T06:10:32Z</time>
      </trkpt>
      <trkpt lat="42.1991960" lon="2.2579670">
        <ele>867.6</ele>
        <time>2020-07-31T06:10:34Z</time>
      </trkpt>
      <trkpt lat="42.1993470" lon="2.2581460">
        <ele>866.8</ele>
        <time>2020-07-31T06:10:36Z</time>
      </trkpt>
      <trkpt lat="42.1995000" lon="2.2583220">
        <ele>866.6</ele>
        <time>2020-07-31T06:10:38Z</time>
      </trkpt>
      <trkpt lat="42.1997190" lon="2.2585970">
        <ele>866.2</ele>
        <time>2020-07-31T06:10:41Z</time>
      </trkpt>
      <trkpt lat="42.1998010" lon="2.2586790">
        <ele>866.2</ele>
        <time>2020-07-31T06:10:42Z</time>
      </trkpt>
      <trkpt lat="42.2000790" lon="2.2588500">
        <ele>865.4</ele>
        <time>2020-07-31T06:10:45Z</time>
      </trkpt>
      <trkpt lat="42.2002640" lon="2.2588820">
        <ele>864.2</ele>
        <time>2020-07-31T06:10:47Z</time>
      </trkpt>
      <trkpt lat="42.2003670" lon="2.2588730">
        <ele>863.8</ele>
        <time>2020-07-31T06:10:48Z</time>
      </trkpt>
      <trkpt lat="42.2004690" lon="2.2588710">
        <ele>863.2</ele>
        <time>2020-07-31T06:10:49Z</time>
      </trkpt>
      <trkpt lat="42.2006570" lon="2.2589490">
        <ele>862.6</ele>
        <time>2020-07-31T06:10:51Z</time>
      </trkpt>
      <trkpt lat="42.2007480" lon="2.2590170">
        <ele>862.2</ele>
        <time>2020-07-31T06:10:52Z</time>
      </trkpt>
      <trkpt lat="42.2008360" lon="2.2590940">
        <ele>861.6</ele>
        <time>2020-07-31T06:10:53Z</time>
      </trkpt>
      <trkpt lat="42.2010080" lon="2.2592260">
        <ele>861.0</ele>
        <time>2020-07-31T06:10:55Z</time>
      </trkpt>
      <trkpt lat="42.2010890" lon="2.2592780">
        <ele>860.8</ele>
        <time>2020-07-31T06:10:56Z</time>
      </trkpt>
      <trkpt lat="42.2013560" lon="2.2593410">
        <ele>860.2</ele>
        <time>2020-07-31T06:10:59Z</time>
      </trkpt>
      <trkpt lat="42.2014330" lon="2.2593440">
        <ele>860.2</ele>
        <time>2020-07-31T06:11:00Z</time>
      </trkpt>
      <trkpt lat="42.2017960" lon="2.2593120">
        <ele>860.0</ele>
        <time>2020-07-31T06:11:04Z</time>
      </trkpt>
      <trkpt lat="42.2018980" lon="2.2592980">
        <ele>860.0</ele>
        <time>2020-07-31T06:11:05Z</time>
      </trkpt>
      <trkpt lat="42.2023900" lon="2.2592260">
        <ele>859.4</ele>
        <time>2020-07-31T06:11:10Z</time>
      </trkpt>
      <trkpt lat="42.2026800" lon="2.2592630">
        <ele>859.2</ele>
        <time>2020-07-31T06:11:13Z</time>
      </trkpt>
      <trkpt lat="42.2027530" lon="2.2593250">
        <ele>859.2</ele>
        <time>2020-07-31T06:11:14Z</time>
      </trkpt>
      <trkpt lat="42.2028380" lon="2.2595220">
        <ele>859.2</ele>
        <time>2020-07-31T06:11:16Z</time>
      </trkpt>
      <trkpt lat="42.2028330" lon="2.2598760">
        <ele>859.0</ele>
        <time>2020-07-31T06:11:19Z</time>
      </trkpt>
      <trkpt lat="42.2028180" lon="2.2599910">
        <ele>858.8</ele>
        <time>2020-07-31T06:11:20Z</time>
      </trkpt>
      <trkpt lat="42.2027680" lon="2.2600940">
        <ele>858.6</ele>
        <time>2020-07-31T06:11:21Z</time>
      </trkpt>
      <trkpt lat="42.2027130" lon="2.2601820">
        <ele>858.4</ele>
        <time>2020-07-31T06:11:22Z</time>
      </trkpt>
      <trkpt lat="42.2025080" lon="2.2603320">
        <ele>858.2</ele>
        <time>2020-07-31T06:11:25Z</time>
      </trkpt>
      <trkpt lat="42.2024390" lon="2.2603550">
        <ele>858.2</ele>
        <time>2020-07-31T06:11:26Z</time>
      </trkpt>
      <trkpt lat="42.2021750" lon="2.2603920">
        <ele>858.2</ele>
        <time>2020-07-31T06:11:30Z</time>
      </trkpt>
      <trkpt lat="42.2020620" lon="2.2603650">
        <ele>858.4</ele>
        <time>2020-07-31T06:11:32Z</time>
      </trkpt>
      <trkpt lat="42.2020070" lon="2.2603300">
        <ele>859.2</ele>
        <time>2020-07-31T06:11:33Z</time>
      </trkpt>
      <trkpt lat="42.2019530" lon="2.2603000">
        <ele>859.6</ele>
        <time>2020-07-31T06:11:34Z</time>
      </trkpt>
      <trkpt lat="42.2018420" lon="2.2602530">
        <ele>860.2</ele>
        <time>2020-07-31T06:11:36Z</time>
      </trkpt>
      <trkpt lat="42.2017250" lon="2.2602550">
        <ele>861.0</ele>
        <time>2020-07-31T06:11:38Z</time>
      </trkpt>
      <trkpt lat="42.2015530" lon="2.2603330">
        <ele>861.8</ele>
        <time>2020-07-31T06:11:41Z</time>
      </trkpt>
      <trkpt lat="42.2014940" lon="2.2603830">
        <ele>862.0</ele>
        <time>2020-07-31T06:11:42Z</time>
      </trkpt>
      <trkpt lat="42.2011280" lon="2.2606300">
        <ele>862.8</ele>
        <time>2020-07-31T06:11:48Z</time>
      </trkpt>
      <trkpt lat="42.2010630" lon="2.2606560">
        <ele>862.8</ele>
        <time>2020-07-31T06:11:49Z</time>
      </trkpt>
      <trkpt lat="42.2009360" lon="2.2606520">
        <ele>862.8</ele>
        <time>2020-07-31T06:11:51Z</time>
      </trkpt>
      <trkpt lat="42.2005880" lon="2.2606160">
        <ele>863.0</ele>
        <time>2020-07-31T06:11:56Z</time>
      </trkpt>
      <trkpt lat="42.2005160" lon="2.2606280">
        <ele>863.2</ele>
        <time>2020-07-31T06:11:57Z</time>
      </trkpt>
      <trkpt lat="42.2001160" lon="2.2607480">
        <ele>863.4</ele>
        <time>2020-07-31T06:12:03Z</time>
      </trkpt>
      <trkpt lat="42.1996920" lon="2.2609320">
        <ele>863.8</ele>
        <time>2020-07-31T06:12:10Z</time>
      </trkpt>
      <trkpt lat="42.1995850" lon="2.2609940">
        <ele>864.2</ele>
        <time>2020-07-31T06:12:12Z</time>
      </trkpt>
      <trkpt lat="42.1993180" lon="2.2611520">
        <ele>864.8</ele>
        <time>2020-07-31T06:12:17Z</time>
      </trkpt>
      <trkpt lat="42.1991760" lon="2.2612470">
        <ele>865.2</ele>
        <time>2020-07-31T06:12:20Z</time>
      </trkpt>
      <trkpt lat="42.1990810" lon="2.2613140">
        <ele>865.4</ele>
        <time>2020-07-31T06:12:22Z</time>
      </trkpt>
      <trkpt lat="42.1989900" lon="2.2613920">
        <ele>865.8</ele>
        <time>2020-07-31T06:12:24Z</time>
      </trkpt>
      <trkpt lat="42.1988720" lon="2.2615460">
        <ele>866.2</ele>
        <time>2020-07-31T06:12:27Z</time>
      </trkpt>
      <trkpt lat="42.1988470" lon="2.2616090">
        <ele>866.4</ele>
        <time>2020-07-31T06:12:28Z</time>
      </trkpt>
      <trkpt lat="42.1987800" lon="2.2618800">
        <ele>867.2</ele>
        <time>2020-07-31T06:12:32Z</time>
      </trkpt>
      <trkpt lat="42.1987640" lon="2.2619460">
        <ele>867.4</ele>
        <time>2020-07-31T06:12:33Z</time>
      </trkpt>
      <trkpt lat="42.1986660" lon="2.2623270">
        <ele>868.2</ele>
        <time>2020-07-31T06:12:39Z</time>
      </trkpt>
      <trkpt lat="42.1986350" lon="2.2624520">
        <ele>868.4</ele>
        <time>2020-07-31T06:12:41Z</time>
      </trkpt>
      <trkpt lat="42.1985690" lon="2.2626140">
        <ele>868.8</ele>
        <time>2020-07-31T06:12:44Z</time>
      </trkpt>
      <trkpt lat="42.1984670" lon="2.2627620">
        <ele>869.0</ele>
        <time>2020-07-31T06:12:47Z</time>
      </trkpt>
      <trkpt lat="42.1984110" lon="2.2628150">
        <ele>869.2</ele>
        <time>2020-07-31T06:12:48Z</time>
      </trkpt>
      <trkpt lat="42.1983120" lon="2.2628900">
        <ele>869.4</ele>
        <time>2020-07-31T06:12:50Z</time>
      </trkpt>
      <trkpt lat="42.1982680" lon="2.2629120">
        <ele>869.6</ele>
        <time>2020-07-31T06:12:51Z</time>
      </trkpt>
      <trkpt lat="42.1982230" lon="2.2629350">
        <ele>869.8</ele>
        <time>2020-07-31T06:12:52Z</time>
      </trkpt>
      <trkpt lat="42.1980960" lon="2.2629980">
        <ele>870.6</ele>
        <time>2020-07-31T06:12:55Z</time>
      </trkpt>
      <trkpt lat="42.1980230" lon="2.2630720">
        <ele>871.4</ele>
        <time>2020-07-31T06:12:57Z</time>
      </trkpt>
      <trkpt lat="42.1979980" lon="2.2631200">
        <ele>871.6</ele>
        <time>2020-07-31T06:12:58Z</time>
      </trkpt>
      <trkpt lat="42.1979580" lon="2.2633080">
        <ele>872.8</ele>
        <time>2020-07-31T06:13:02Z</time>
      </trkpt>
      <trkpt lat="42.1979600" lon="2.2635450">
        <ele>874.0</ele>
        <time>2020-07-31T06:13:07Z</time>
      </trkpt>
      <trkpt lat="42.1978600" lon="2.2637700">
        <ele>875.2</ele>
        <time>2020-07-31T06:13:12Z</time>
      </trkpt>
      <trkpt lat="42.1976900" lon="2.2639290">
        <ele>876.0</ele>
        <time>2020-07-31T06:13:16Z</time>
      </trkpt>
      <trkpt lat="42.1976490" lon="2.2639630">
        <ele>876.2</ele>
        <time>2020-07-31T06:13:17Z</time>
      </trkpt>
      <trkpt lat="42.1974370" lon="2.2641500">
        <ele>877.2</ele>
        <time>2020-07-31T06:13:22Z</time>
      </trkpt>
      <trkpt lat="42.1974080" lon="2.2642160">
        <ele>877.2</ele>
        <time>2020-07-31T06:13:23Z</time>
      </trkpt>
      <trkpt lat="42.1973100" lon="2.2645260">
        <ele>877.2</ele>
        <time>2020-07-31T06:13:27Z</time>
      </trkpt>
      <trkpt lat="42.1973170" lon="2.2648870">
        <ele>877.2</ele>
        <time>2020-07-31T06:13:31Z</time>
      </trkpt>
      <trkpt lat="42.1973310" lon="2.2649730">
        <ele>877.2</ele>
        <time>2020-07-31T06:13:32Z</time>
      </trkpt>
      <trkpt lat="42.1973820" lon="2.2653310">
        <ele>877.2</ele>
        <time>2020-07-31T06:13:36Z</time>
      </trkpt>
      <trkpt lat="42.1973570" lon="2.2655100">
        <ele>877.2</ele>
        <time>2020-07-31T06:13:38Z</time>
      </trkpt>
      <trkpt lat="42.1972820" lon="2.2656660">
        <ele>877.0</ele>
        <time>2020-07-31T06:13:40Z</time>
      </trkpt>
      <trkpt lat="42.1972030" lon="2.2658040">
        <ele>877.0</ele>
        <time>2020-07-31T06:13:42Z</time>
      </trkpt>
      <trkpt lat="42.1970620" lon="2.2661680">
        <ele>877.2</ele>
        <time>2020-07-31T06:13:47Z</time>
      </trkpt>
      <trkpt lat="42.1969800" lon="2.2665200">
        <ele>877.8</ele>
        <time>2020-07-31T06:13:53Z</time>
      </trkpt>
      <trkpt lat="42.1969680" lon="2.2665750">
        <ele>878.4</ele>
        <time>2020-07-31T06:13:54Z</time>
      </trkpt>
      <trkpt lat="42.1969370" lon="2.2667470">
        <ele>879.4</ele>
        <time>2020-07-31T06:13:57Z</time>
      </trkpt>
      <trkpt lat="42.1968990" lon="2.2669930">
        <ele>880.4</ele>
        <time>2020-07-31T06:14:01Z</time>
      </trkpt>
      <trkpt lat="42.1968920" lon="2.2670530">
        <ele>880.6</ele>
        <time>2020-07-31T06:14:02Z</time>
      </trkpt>
      <trkpt lat="42.1968780" lon="2.2672980">
        <ele>881.8</ele>
        <time>2020-07-31T06:14:06Z</time>
      </trkpt>
      <trkpt lat="42.1968800" lon="2.2674890">
        <ele>882.4</ele>
        <time>2020-07-31T06:14:09Z</time>
      </trkpt>
      <trkpt lat="42.1968910" lon="2.2676020">
        <ele>883.0</ele>
        <time>2020-07-31T06:14:11Z</time>
      </trkpt>
      <trkpt lat="42.1969170" lon="2.2677640">
        <ele>883.4</ele>
        <time>2020-07-31T06:14:14Z</time>
      </trkpt>
      <trkpt lat="42.1969340" lon="2.2678260">
        <ele>883.6</ele>
        <time>2020-07-31T06:14:15Z</time>
      </trkpt>
      <trkpt lat="42.1969560" lon="2.2679590">
        <ele>884.0</ele>
        <time>2020-07-31T06:14:17Z</time>
      </trkpt>
      <trkpt lat="42.1970330" lon="2.2682990">
        <ele>884.8</ele>
        <time>2020-07-31T06:14:22Z</time>
      </trkpt>
      <trkpt lat="42.1970680" lon="2.2684260">
        <ele>885.2</ele>
        <time>2020-07-31T06:14:24Z</time>
      </trkpt>
      <trkpt lat="42.1971390" lon="2.2687650">
        <ele>885.6</ele>
        <time>2020-07-31T06:14:29Z</time>
      </trkpt>
      <trkpt lat="42.1972070" lon="2.2690830">
        <ele>886.2</ele>
        <time>2020-07-31T06:14:34Z</time>
      </trkpt>
      <trkpt lat="42.1972170" lon="2.2692180">
        <ele>886.4</ele>
        <time>2020-07-31T06:14:36Z</time>
      </trkpt>
      <trkpt lat="42.1973270" lon="2.2696450">
        <ele>887.2</ele>
        <time>2020-07-31T06:14:42Z</time>
      </trkpt>
      <trkpt lat="42.1973480" lon="2.2697140">
        <ele>887.4</ele>
        <time>2020-07-31T06:14:43Z</time>
      </trkpt>
      <trkpt lat="42.1975690" lon="2.2703640">
        <ele>887.8</ele>
        <time>2020-07-31T06:14:53Z</time>
      </trkpt>
      <trkpt lat="42.1976120" lon="2.2704860">
        <ele>888.2</ele>
        <time>2020-07-31T06:14:55Z</time>
      </trkpt>
      <trkpt lat="42.1977360" lon="2.2708580">
        <ele>889.2</ele>
        <time>2020-07-31T06:15:01Z</time>
      </trkpt>
      <trkpt lat="42.1976960" lon="2.2711150">
        <ele>889.2</ele>
        <time>2020-07-31T06:15:05Z</time>
      </trkpt>
      <trkpt lat="42.1976630" lon="2.2711620">
        <ele>889.4</ele>
        <time>2020-07-31T06:15:06Z</time>
      </trkpt>
      <trkpt lat="42.1975420" lon="2.2712520">
        <ele>889.6</ele>
        <time>2020-07-31T06:15:09Z</time>
      </trkpt>
      <trkpt lat="42.1975020" lon="2.2712700">
        <ele>889.8</ele>
        <time>2020-07-31T06:15:10Z</time>
      </trkpt>
      <trkpt lat="42.1973810" lon="2.2713180">
        <ele>890.4</ele>
        <time>2020-07-31T06:15:13Z</time>
      </trkpt>
      <trkpt lat="42.1972970" lon="2.2713570">
        <ele>890.8</ele>
        <time>2020-07-31T06:15:15Z</time>
      </trkpt>
      <trkpt lat="42.1972280" lon="2.2714140">
        <ele>891.4</ele>
        <time>2020-07-31T06:15:17Z</time>
      </trkpt>
      <trkpt lat="42.1971910" lon="2.2714490">
        <ele>892.0</ele>
        <time>2020-07-31T06:15:18Z</time>
      </trkpt>
      <trkpt lat="42.1971310" lon="2.2715230">
        <ele>892.4</ele>
        <time>2020-07-31T06:15:20Z</time>
      </trkpt>
      <trkpt lat="42.1970850" lon="2.2716630">
        <ele>893.0</ele>
        <time>2020-07-31T06:15:23Z</time>
      </trkpt>
      <trkpt lat="42.1970760" lon="2.2717680">
        <ele>893.6</ele>
        <time>2020-07-31T06:15:25Z</time>
      </trkpt>
      <trkpt lat="42.1970990" lon="2.2719760">
        <ele>894.2</ele>
        <time>2020-07-31T06:15:29Z</time>
      </trkpt>
      <trkpt lat="42.1971150" lon="2.2720280">
        <ele>894.4</ele>
        <time>2020-07-31T06:15:30Z</time>
      </trkpt>
      <trkpt lat="42.1971810" lon="2.2721650">
        <ele>895.2</ele>
        <time>2020-07-31T06:15:33Z</time>
      </trkpt>
      <trkpt lat="42.1972450" lon="2.2722390">
        <ele>895.6</ele>
        <time>2020-07-31T06:15:35Z</time>
      </trkpt>
      <trkpt lat="42.1973580" lon="2.2723240">
        <ele>896.2</ele>
        <time>2020-07-31T06:15:38Z</time>
      </trkpt>
      <trkpt lat="42.1974710" lon="2.2723860">
        <ele>897.0</ele>
        <time>2020-07-31T06:15:41Z</time>
      </trkpt>
      <trkpt lat="42.1975070" lon="2.2724050">
        <ele>897.2</ele>
        <time>2020-07-31T06:15:42Z</time>
      </trkpt>
      <trkpt lat="42.1976530" lon="2.2724760">
        <ele>898.4</ele>
        <time>2020-07-31T06:15:46Z</time>
      </trkpt>
      <trkpt lat="42.1976930" lon="2.2724920">
        <ele>898.8</ele>
        <time>2020-07-31T06:15:47Z</time>
      </trkpt>
      <trkpt lat="42.1977740" lon="2.2725330">
        <ele>899.4</ele>
        <time>2020-07-31T06:15:49Z</time>
      </trkpt>
      <trkpt lat="42.1978130" lon="2.2725640">
        <ele>899.6</ele>
        <time>2020-07-31T06:15:50Z</time>
      </trkpt>
      <trkpt lat="42.1978730" lon="2.2726460">
        <ele>899.8</ele>
        <time>2020-07-31T06:15:52Z</time>
      </trkpt>
      <trkpt lat="42.1979010" lon="2.2726890">
        <ele>900.0</ele>
        <time>2020-07-31T06:15:53Z</time>
      </trkpt>
      <trkpt lat="42.1979240" lon="2.2727370">
        <ele>900.2</ele>
        <time>2020-07-31T06:15:54Z</time>
      </trkpt>
      <trkpt lat="42.1979580" lon="2.2729050">
        <ele>900.4</ele>
        <time>2020-07-31T06:15:57Z</time>
      </trkpt>
      <trkpt lat="42.1979660" lon="2.2729650">
        <ele>900.6</ele>
        <time>2020-07-31T06:15:58Z</time>
      </trkpt>
      <trkpt lat="42.1980330" lon="2.2734120">
        <ele>901.2</ele>
        <time>2020-07-31T06:16:05Z</time>
      </trkpt>
      <trkpt lat="42.1981360" lon="2.2736440">
        <ele>901.6</ele>
        <time>2020-07-31T06:16:09Z</time>
      </trkpt>
      <trkpt lat="42.1981930" lon="2.2737490">
        <ele>901.8</ele>
        <time>2020-07-31T06:16:11Z</time>
      </trkpt>
      <trkpt lat="42.1983220" lon="2.2739480">
        <ele>903.0</ele>
        <time>2020-07-31T06:16:15Z</time>
      </trkpt>
      <trkpt lat="42.1984520" lon="2.2741420">
        <ele>903.2</ele>
        <time>2020-07-31T06:16:19Z</time>
      </trkpt>
      <trkpt lat="42.1985900" lon="2.2743300">
        <ele>903.8</ele>
        <time>2020-07-31T06:16:23Z</time>
      </trkpt>
      <trkpt lat="42.1986460" lon="2.2744330">
        <ele>904.0</ele>
        <time>2020-07-31T06:16:25Z</time>
      </trkpt>
      <trkpt lat="42.1986700" lon="2.2744900">
        <ele>904.2</ele>
        <time>2020-07-31T06:16:26Z</time>
      </trkpt>
      <trkpt lat="42.1986940" lon="2.2745510">
        <ele>904.2</ele>
        <time>2020-07-31T06:16:27Z</time>
      </trkpt>
      <trkpt lat="42.1987320" lon="2.2746780">
        <ele>904.4</ele>
        <time>2020-07-31T06:16:29Z</time>
      </trkpt>
      <trkpt lat="42.1987490" lon="2.2748070">
        <ele>904.6</ele>
        <time>2020-07-31T06:16:31Z</time>
      </trkpt>
      <trkpt lat="42.1987930" lon="2.2751220">
        <ele>905.0</ele>
        <time>2020-07-31T06:16:36Z</time>
      </trkpt>
      <trkpt lat="42.1988170" lon="2.2752560">
        <ele>905.4</ele>
        <time>2020-07-31T06:16:38Z</time>
      </trkpt>
      <trkpt lat="42.1988370" lon="2.2753220">
        <ele>905.6</ele>
        <time>2020-07-31T06:16:39Z</time>
      </trkpt>
      <trkpt lat="42.1989510" lon="2.2755660">
        <ele>906.2</ele>
        <time>2020-07-31T06:16:43Z</time>
      </trkpt>
      <trkpt lat="42.1991600" lon="2.2759180">
        <ele>906.6</ele>
        <time>2020-07-31T06:16:49Z</time>
      </trkpt>
      <trkpt lat="42.1991910" lon="2.2759860">
        <ele>906.6</ele>
        <time>2020-07-31T06:16:50Z</time>
      </trkpt>
      <trkpt lat="42.1992380" lon="2.2762140">
        <ele>906.6</ele>
        <time>2020-07-31T06:16:53Z</time>
      </trkpt>
      <trkpt lat="42.1992240" lon="2.2764360">
        <ele>906.6</ele>
        <time>2020-07-31T06:16:56Z</time>
      </trkpt>
      <trkpt lat="42.1991970" lon="2.2766530">
        <ele>906.8</ele>
        <time>2020-07-31T06:16:59Z</time>
      </trkpt>
      <trkpt lat="42.1991630" lon="2.2769490">
        <ele>907.4</ele>
        <time>2020-07-31T06:17:03Z</time>
      </trkpt>
      <trkpt lat="42.1991470" lon="2.2772820">
        <ele>908.2</ele>
        <time>2020-07-31T06:17:07Z</time>
      </trkpt>
      <trkpt lat="42.1991620" lon="2.2776020">
        <ele>908.4</ele>
        <time>2020-07-31T06:17:11Z</time>
      </trkpt>
      <trkpt lat="42.1991850" lon="2.2778980">
        <ele>908.6</ele>
        <time>2020-07-31T06:17:15Z</time>
      </trkpt>
      <trkpt lat="42.1992160" lon="2.2782540">
        <ele>909.4</ele>
        <time>2020-07-31T06:17:20Z</time>
      </trkpt>
      <trkpt lat="42.1992160" lon="2.2783950">
        <ele>909.8</ele>
        <time>2020-07-31T06:17:22Z</time>
      </trkpt>
      <trkpt lat="42.1992070" lon="2.2784630">
        <ele>909.8</ele>
        <time>2020-07-31T06:17:23Z</time>
      </trkpt>
      <trkpt lat="42.1991160" lon="2.2787120">
        <ele>910.2</ele>
        <time>2020-07-31T06:17:27Z</time>
      </trkpt>
      <trkpt lat="42.1990260" lon="2.2788880">
        <ele>910.6</ele>
        <time>2020-07-31T06:17:30Z</time>
      </trkpt>
      <trkpt lat="42.1988480" lon="2.2792520">
        <ele>911.6</ele>
        <time>2020-07-31T06:17:36Z</time>
      </trkpt>
      <trkpt lat="42.1988220" lon="2.2793130">
        <ele>911.6</ele>
        <time>2020-07-31T06:17:37Z</time>
      </trkpt>
      <trkpt lat="42.1986800" lon="2.2797630">
        <ele>912.4</ele>
        <time>2020-07-31T06:17:44Z</time>
      </trkpt>
      <trkpt lat="42.1986300" lon="2.2799590">
        <ele>912.8</ele>
        <time>2020-07-31T06:17:47Z</time>
      </trkpt>
      <trkpt lat="42.1985850" lon="2.2802730">
        <ele>913.6</ele>
        <time>2020-07-31T06:17:52Z</time>
      </trkpt>
      <trkpt lat="42.1985890" lon="2.2804610">
        <ele>913.8</ele>
        <time>2020-07-31T06:17:55Z</time>
      </trkpt>
      <trkpt lat="42.1986020" lon="2.2806690">
        <ele>914.4</ele>
        <time>2020-07-31T06:17:58Z</time>
      </trkpt>
      <trkpt lat="42.1986030" lon="2.2807370">
        <ele>914.4</ele>
        <time>2020-07-31T06:17:59Z</time>
      </trkpt>
      <trkpt lat="42.1986030" lon="2.2808690">
        <ele>914.8</ele>
        <time>2020-07-31T06:18:01Z</time>
      </trkpt>
      <trkpt lat="42.1985930" lon="2.2810000">
        <ele>915.2</ele>
        <time>2020-07-31T06:18:03Z</time>
      </trkpt>
      <trkpt lat="42.1985870" lon="2.2810640">
        <ele>915.2</ele>
        <time>2020-07-31T06:18:04Z</time>
      </trkpt>
      <trkpt lat="42.1985440" lon="2.2812530">
        <ele>916.2</ele>
        <time>2020-07-31T06:18:07Z</time>
      </trkpt>
      <trkpt lat="42.1984730" lon="2.2815980">
        <ele>917.2</ele>
        <time>2020-07-31T06:18:13Z</time>
      </trkpt>
      <trkpt lat="42.1983860" lon="2.2820200">
        <ele>918.2</ele>
        <time>2020-07-31T06:18:20Z</time>
      </trkpt>
      <trkpt lat="42.1983930" lon="2.2820670">
        <ele>918.4</ele>
        <time>2020-07-31T06:18:21Z</time>
      </trkpt>
      <trkpt lat="42.1984050" lon="2.2821210">
        <ele>918.6</ele>
        <time>2020-07-31T06:18:22Z</time>
      </trkpt>
      <trkpt lat="42.1984730" lon="2.2825100">
        <ele>919.2</ele>
        <time>2020-07-31T06:18:28Z</time>
      </trkpt>
      <trkpt lat="42.1984830" lon="2.2825780">
        <ele>919.4</ele>
        <time>2020-07-31T06:18:29Z</time>
      </trkpt>
      <trkpt lat="42.1985530" lon="2.2830390">
        <ele>920.2</ele>
        <time>2020-07-31T06:18:36Z</time>
      </trkpt>
      <trkpt lat="42.1985640" lon="2.2831000">
        <ele>920.4</ele>
        <time>2020-07-31T06:18:37Z</time>
      </trkpt>
      <trkpt lat="42.1985940" lon="2.2832120">
        <ele>920.6</ele>
        <time>2020-07-31T06:18:39Z</time>
      </trkpt>
      <trkpt lat="42.1986730" lon="2.2834120">
        <ele>921.2</ele>
        <time>2020-07-31T06:18:43Z</time>
      </trkpt>
      <trkpt lat="42.1986930" lon="2.2834620">
        <ele>921.4</ele>
        <time>2020-07-31T06:18:44Z</time>
      </trkpt>
      <trkpt lat="42.1988130" lon="2.2837500">
        <ele>922.8</ele>
        <time>2020-07-31T06:18:50Z</time>
      </trkpt>
      <trkpt lat="42.1988480" lon="2.2838480">
        <ele>923.2</ele>
        <time>2020-07-31T06:18:52Z</time>
      </trkpt>
      <trkpt lat="42.1989040" lon="2.2839830">
        <ele>924.0</ele>
        <time>2020-07-31T06:18:55Z</time>
      </trkpt>
      <trkpt lat="42.1989660" lon="2.2841600">
        <ele>925.2</ele>
        <time>2020-07-31T06:18:59Z</time>
      </trkpt>
      <trkpt lat="42.1989840" lon="2.2842030">
        <ele>925.6</ele>
        <time>2020-07-31T06:19:00Z</time>
      </trkpt>
      <trkpt lat="42.1990310" lon="2.2843520">
        <ele>926.8</ele>
        <time>2020-07-31T06:19:03Z</time>
      </trkpt>
      <trkpt lat="42.1990360" lon="2.2844600">
        <ele>927.2</ele>
        <time>2020-07-31T06:19:05Z</time>
      </trkpt>
      <trkpt lat="42.1990140" lon="2.2846340">
        <ele>928.0</ele>
        <time>2020-07-31T06:19:08Z</time>
      </trkpt>
      <trkpt lat="42.1989690" lon="2.2848160">
        <ele>928.6</ele>
        <time>2020-07-31T06:19:11Z</time>
      </trkpt>
      <trkpt lat="42.1989420" lon="2.2848710">
        <ele>928.8</ele>
        <time>2020-07-31T06:19:12Z</time>
      </trkpt>
      <trkpt lat="42.1989110" lon="2.2849230">
        <ele>929.0</ele>
        <time>2020-07-31T06:19:13Z</time>
      </trkpt>
      <trkpt lat="42.1988300" lon="2.2850150">
        <ele>929.2</ele>
        <time>2020-07-31T06:19:15Z</time>
      </trkpt>
      <trkpt lat="42.1987860" lon="2.2850490">
        <ele>929.2</ele>
        <time>2020-07-31T06:19:16Z</time>
      </trkpt>
      <trkpt lat="42.1985510" lon="2.2852470">
        <ele>929.4</ele>
        <time>2020-07-31T06:19:21Z</time>
      </trkpt>
      <trkpt lat="42.1980590" lon="2.2856420">
        <ele>929.4</ele>
        <time>2020-07-31T06:19:31Z</time>
      </trkpt>
      <trkpt lat="42.1980180" lon="2.2856950">
        <ele>929.4</ele>
        <time>2020-07-31T06:19:32Z</time>
      </trkpt>
      <trkpt lat="42.1979560" lon="2.2858910">
        <ele>929.6</ele>
        <time>2020-07-31T06:19:35Z</time>
      </trkpt>
      <trkpt lat="42.1979690" lon="2.2861080">
        <ele>929.6</ele>
        <time>2020-07-31T06:19:38Z</time>
      </trkpt>
      <trkpt lat="42.1979800" lon="2.2861820">
        <ele>929.6</ele>
        <time>2020-07-31T06:19:39Z</time>
      </trkpt>
      <trkpt lat="42.1979960" lon="2.2862560">
        <ele>929.6</ele>
        <time>2020-07-31T06:19:40Z</time>
      </trkpt>
      <trkpt lat="42.1980950" lon="2.2865460">
        <ele>929.8</ele>
        <time>2020-07-31T06:19:44Z</time>
      </trkpt>
      <trkpt lat="42.1982050" lon="2.2869150">
        <ele>930.0</ele>
        <time>2020-07-31T06:19:49Z</time>
      </trkpt>
      <trkpt lat="42.1982310" lon="2.2869860">
        <ele>930.0</ele>
        <time>2020-07-31T06:19:50Z</time>
      </trkpt>
      <trkpt lat="42.1983200" lon="2.2873180">
        <ele>930.6</ele>
        <time>2020-07-31T06:19:55Z</time>
      </trkpt>
      <trkpt lat="42.1983560" lon="2.2874370">
        <ele>930.8</ele>
        <time>2020-07-31T06:19:57Z</time>
      </trkpt>
      <trkpt lat="42.1983950" lon="2.2875560">
        <ele>931.2</ele>
        <time>2020-07-31T06:19:59Z</time>
      </trkpt>
      <trkpt lat="42.1984720" lon="2.2877600">
        <ele>931.6</ele>
        <time>2020-07-31T06:20:03Z</time>
      </trkpt>
      <trkpt lat="42.1985140" lon="2.2878610">
        <ele>932.2</ele>
        <time>2020-07-31T06:20:05Z</time>
      </trkpt>
      <trkpt lat="42.1985610" lon="2.2879630">
        <ele>933.6</ele>
        <time>2020-07-31T06:20:07Z</time>
      </trkpt>
      <trkpt lat="42.1986390" lon="2.2881240">
        <ele>934.6</ele>
        <time>2020-07-31T06:20:10Z</time>
      </trkpt>
      <trkpt lat="42.1987860" lon="2.2884330">
        <ele>935.4</ele>
        <time>2020-07-31T06:20:16Z</time>
      </trkpt>
      <trkpt lat="42.1988610" lon="2.2885770">
        <ele>935.8</ele>
        <time>2020-07-31T06:20:19Z</time>
      </trkpt>
      <trkpt lat="42.1989350" lon="2.2887720">
        <ele>936.4</ele>
        <time>2020-07-31T06:20:23Z</time>
      </trkpt>
      <trkpt lat="42.1990010" lon="2.2889330">
        <ele>936.8</ele>
        <time>2020-07-31T06:20:26Z</time>
      </trkpt>
      <trkpt lat="42.1990370" lon="2.2890910">
        <ele>937.8</ele>
        <time>2020-07-31T06:20:29Z</time>
      </trkpt>
      <trkpt lat="42.1990470" lon="2.2891990">
        <ele>938.0</ele>
        <time>2020-07-31T06:20:31Z</time>
      </trkpt>
      <trkpt lat="42.1990640" lon="2.2894740">
        <ele>939.0</ele>
        <time>2020-07-31T06:20:36Z</time>
      </trkpt>
      <trkpt lat="42.1990430" lon="2.2896390">
        <ele>940.0</ele>
        <time>2020-07-31T06:20:39Z</time>
      </trkpt>
      <trkpt lat="42.1989920" lon="2.2898400">
        <ele>941.0</ele>
        <time>2020-07-31T06:20:43Z</time>
      </trkpt>
      <trkpt lat="42.1989060" lon="2.2900700">
        <ele>942.2</ele>
        <time>2020-07-31T06:20:48Z</time>
      </trkpt>
      <trkpt lat="42.1988450" lon="2.2902190">
        <ele>943.0</ele>
        <time>2020-07-31T06:20:51Z</time>
      </trkpt>
      <trkpt lat="42.1988230" lon="2.2902650">
        <ele>943.2</ele>
        <time>2020-07-31T06:20:52Z</time>
      </trkpt>
      <trkpt lat="42.1987340" lon="2.2904470">
        <ele>944.4</ele>
        <time>2020-07-31T06:20:56Z</time>
      </trkpt>
      <trkpt lat="42.1986630" lon="2.2905890">
        <ele>944.8</ele>
        <time>2020-07-31T06:20:59Z</time>
      </trkpt>
      <trkpt lat="42.1985930" lon="2.2907310">
        <ele>945.6</ele>
        <time>2020-07-31T06:21:02Z</time>
      </trkpt>
      <trkpt lat="42.1985020" lon="2.2909040">
        <ele>946.0</ele>
        <time>2020-07-31T06:21:06Z</time>
      </trkpt>
      <trkpt lat="42.1984600" lon="2.2909920">
        <ele>946.6</ele>
        <time>2020-07-31T06:21:08Z</time>
      </trkpt>
      <trkpt lat="42.1983530" lon="2.2912200">
        <ele>947.6</ele>
        <time>2020-07-31T06:21:13Z</time>
      </trkpt>
      <trkpt lat="42.1983340" lon="2.2912650">
        <ele>947.8</ele>
        <time>2020-07-31T06:21:14Z</time>
      </trkpt>
      <trkpt lat="42.1982830" lon="2.2914410">
        <ele>948.8</ele>
        <time>2020-07-31T06:21:18Z</time>
      </trkpt>
      <trkpt lat="42.1982680" lon="2.2914960">
        <ele>948.8</ele>
        <time>2020-07-31T06:21:19Z</time>
      </trkpt>
      <trkpt lat="42.1981780" lon="2.2918490">
        <ele>949.8</ele>
        <time>2020-07-31T06:21:26Z</time>
      </trkpt>
      <trkpt lat="42.1981480" lon="2.2920430">
        <ele>951.0</ele>
        <time>2020-07-31T06:21:30Z</time>
      </trkpt>
      <trkpt lat="42.1981330" lon="2.2921490">
        <ele>951.2</ele>
        <time>2020-07-31T06:21:32Z</time>
      </trkpt>
      <trkpt lat="42.1980980" lon="2.2924290">
        <ele>952.0</ele>
        <time>2020-07-31T06:21:37Z</time>
      </trkpt>
      <trkpt lat="42.1981000" lon="2.2926590">
        <ele>953.0</ele>
        <time>2020-07-31T06:21:41Z</time>
      </trkpt>
      <trkpt lat="42.1980960" lon="2.2927250">
        <ele>953.2</ele>
        <time>2020-07-31T06:21:42Z</time>
      </trkpt>
      <trkpt lat="42.1980860" lon="2.2927930">
        <ele>953.4</ele>
        <time>2020-07-31T06:21:43Z</time>
      </trkpt>
      <trkpt lat="42.1980830" lon="2.2931170">
        <ele>954.4</ele>
        <time>2020-07-31T06:21:48Z</time>
      </trkpt>
      <trkpt lat="42.1980870" lon="2.2932590">
        <ele>954.6</ele>
        <time>2020-07-31T06:21:50Z</time>
      </trkpt>
      <trkpt lat="42.1981190" lon="2.2935250">
        <ele>955.0</ele>
        <time>2020-07-31T06:21:54Z</time>
      </trkpt>
      <trkpt lat="42.1981330" lon="2.2936570">
        <ele>955.6</ele>
        <time>2020-07-31T06:21:56Z</time>
      </trkpt>
      <trkpt lat="42.1981480" lon="2.2939810">
        <ele>956.0</ele>
        <time>2020-07-31T06:22:01Z</time>
      </trkpt>
      <trkpt lat="42.1981640" lon="2.2942960">
        <ele>956.8</ele>
        <time>2020-07-31T06:22:06Z</time>
      </trkpt>
      <trkpt lat="42.1981680" lon="2.2944260">
        <ele>957.0</ele>
        <time>2020-07-31T06:22:08Z</time>
      </trkpt>
      <trkpt lat="42.1981780" lon="2.2948130">
        <ele>957.8</ele>
        <time>2020-07-31T06:22:14Z</time>
      </trkpt>
      <trkpt lat="42.1981770" lon="2.2948750">
        <ele>957.8</ele>
        <time>2020-07-31T06:22:15Z</time>
      </trkpt>
      <trkpt lat="42.1981640" lon="2.2950840">
        <ele>958.2</ele>
        <time>2020-07-31T06:22:19Z</time>
      </trkpt>
      <trkpt lat="42.1981550" lon="2.2951890">
        <ele>958.6</ele>
        <time>2020-07-31T06:22:21Z</time>
      </trkpt>
      <trkpt lat="42.1981480" lon="2.2952340">
        <ele>958.8</ele>
        <time>2020-07-31T06:22:22Z</time>
      </trkpt>
      <trkpt lat="42.1980520" lon="2.2954620">
        <ele>959.8</ele>
        <time>2020-07-31T06:22:27Z</time>
      </trkpt>
      <trkpt lat="42.1979190" lon="2.2956440">
        <ele>961.0</ele>
        <time>2020-07-31T06:22:32Z</time>
      </trkpt>
      <trkpt lat="42.1978640" lon="2.2957220">
        <ele>961.2</ele>
        <time>2020-07-31T06:22:34Z</time>
      </trkpt>
      <trkpt lat="42.1977730" lon="2.2958280">
        <ele>962.0</ele>
        <time>2020-07-31T06:22:37Z</time>
      </trkpt>
      <trkpt lat="42.1976990" lon="2.2959110">
        <ele>962.4</ele>
        <time>2020-07-31T06:22:39Z</time>
      </trkpt>
      <trkpt lat="42.1975000" lon="2.2960880">
        <ele>963.0</ele>
        <time>2020-07-31T06:22:44Z</time>
      </trkpt>
      <trkpt lat="42.1974570" lon="2.2961340">
        <ele>963.2</ele>
        <time>2020-07-31T06:22:45Z</time>
      </trkpt>
      <trkpt lat="42.1972610" lon="2.2964290">
        <ele>963.8</ele>
        <time>2020-07-31T06:22:50Z</time>
      </trkpt>
      <trkpt lat="42.1970130" lon="2.2968670">
        <ele>963.8</ele>
        <time>2020-07-31T06:22:56Z</time>
      </trkpt>
      <trkpt lat="42.1969740" lon="2.2969600">
        <ele>963.8</ele>
        <time>2020-07-31T06:22:57Z</time>
      </trkpt>
      <trkpt lat="42.1969230" lon="2.2971910">
        <ele>963.8</ele>
        <time>2020-07-31T06:22:59Z</time>
      </trkpt>
      <trkpt lat="42.1969380" lon="2.2975800">
        <ele>963.2</ele>
        <time>2020-07-31T06:23:02Z</time>
      </trkpt>
      <trkpt lat="42.1969610" lon="2.2977020">
        <ele>963.0</ele>
        <time>2020-07-31T06:23:03Z</time>
      </trkpt>
      <trkpt lat="42.1969980" lon="2.2979650">
        <ele>962.2</ele>
        <time>2020-07-31T06:23:05Z</time>
      </trkpt>
      <trkpt lat="42.1970090" lon="2.2980950">
        <ele>961.6</ele>
        <time>2020-07-31T06:23:06Z</time>
      </trkpt>
      <trkpt lat="42.1970070" lon="2.2982240">
        <ele>960.8</ele>
        <time>2020-07-31T06:23:07Z</time>
      </trkpt>
      <trkpt lat="42.1970000" lon="2.2983480">
        <ele>960.0</ele>
        <time>2020-07-31T06:23:08Z</time>
      </trkpt>
      <trkpt lat="42.1969870" lon="2.2984670">
        <ele>959.4</ele>
        <time>2020-07-31T06:23:09Z</time>
      </trkpt>
      <trkpt lat="42.1969790" lon="2.2985850">
        <ele>958.8</ele>
        <time>2020-07-31T06:23:10Z</time>
      </trkpt>
      <trkpt lat="42.1969840" lon="2.2987020">
        <ele>958.4</ele>
        <time>2020-07-31T06:23:11Z</time>
      </trkpt>
      <trkpt lat="42.1970210" lon="2.2989220">
        <ele>957.6</ele>
        <time>2020-07-31T06:23:13Z</time>
      </trkpt>
      <trkpt lat="42.1970800" lon="2.2991490">
        <ele>957.2</ele>
        <time>2020-07-31T06:23:15Z</time>
      </trkpt>
      <trkpt lat="42.1972520" lon="2.2996110">
        <ele>956.6</ele>
        <time>2020-07-31T06:23:19Z</time>
      </trkpt>
      <trkpt lat="42.1973050" lon="2.2997240">
        <ele>956.4</ele>
        <time>2020-07-31T06:23:20Z</time>
      </trkpt>
      <trkpt lat="42.1974600" lon="2.3000630">
        <ele>955.2</ele>
        <time>2020-07-31T06:23:23Z</time>
      </trkpt>
      <trkpt lat="42.1975580" lon="2.3002750">
        <ele>954.2</ele>
        <time>2020-07-31T06:23:25Z</time>
      </trkpt>
      <trkpt lat="42.1976070" lon="2.3003760">
        <ele>953.6</ele>
        <time>2020-07-31T06:23:26Z</time>
      </trkpt>
      <trkpt lat="42.1978880" lon="2.3009780">
        <ele>952.8</ele>
        <time>2020-07-31T06:23:32Z</time>
      </trkpt>
      <trkpt lat="42.1980900" lon="2.3015990">
        <ele>952.8</ele>
        <time>2020-07-31T06:23:38Z</time>
      </trkpt>
      <trkpt lat="42.1981950" lon="2.3023350">
        <ele>953.0</ele>
        <time>2020-07-31T06:23:45Z</time>
      </trkpt>
      <trkpt lat="42.1982010" lon="2.3024360">
        <ele>952.8</ele>
        <time>2020-07-31T06:23:46Z</time>
      </trkpt>
      <trkpt lat="42.1981800" lon="2.3026340">
        <ele>953.0</ele>
        <time>2020-07-31T06:23:48Z</time>
      </trkpt>
      <trkpt lat="42.1980970" lon="2.3028830">
        <ele>953.0</ele>
        <time>2020-07-31T06:23:51Z</time>
      </trkpt>
      <trkpt lat="42.1980740" lon="2.3029570">
        <ele>953.0</ele>
        <time>2020-07-31T06:23:52Z</time>
      </trkpt>
      <trkpt lat="42.1980410" lon="2.3030990">
        <ele>953.0</ele>
        <time>2020-07-31T06:23:54Z</time>
      </trkpt>
      <trkpt lat="42.1980370" lon="2.3032350">
        <ele>953.4</ele>
        <time>2020-07-31T06:23:56Z</time>
      </trkpt>
      <trkpt lat="42.1980450" lon="2.3033680">
        <ele>954.0</ele>
        <time>2020-07-31T06:23:58Z</time>
      </trkpt>
      <trkpt lat="42.1980530" lon="2.3034290">
        <ele>954.6</ele>
        <time>2020-07-31T06:23:59Z</time>
      </trkpt>
      <trkpt lat="42.1980870" lon="2.3036080">
        <ele>956.0</ele>
        <time>2020-07-31T06:24:02Z</time>
      </trkpt>
      <trkpt lat="42.1981530" lon="2.3038310">
        <ele>957.0</ele>
        <time>2020-07-31T06:24:06Z</time>
      </trkpt>
      <trkpt lat="42.1982390" lon="2.3040420">
        <ele>958.2</ele>
        <time>2020-07-31T06:24:10Z</time>
      </trkpt>
      <trkpt lat="42.1982600" lon="2.3040910">
        <ele>958.6</ele>
        <time>2020-07-31T06:24:11Z</time>
      </trkpt>
      <trkpt lat="42.1982990" lon="2.3041820">
        <ele>959.4</ele>
        <time>2020-07-31T06:24:13Z</time>
      </trkpt>
      <trkpt lat="42.1983830" lon="2.3043700">
        <ele>960.6</ele>
        <time>2020-07-31T06:24:17Z</time>
      </trkpt>
      <trkpt lat="42.1983990" lon="2.3044140">
        <ele>960.8</ele>
        <time>2020-07-31T06:24:18Z</time>
      </trkpt>
      <trkpt lat="42.1984640" lon="2.3046600">
        <ele>961.8</ele>
        <time>2020-07-31T06:24:23Z</time>
      </trkpt>
      <trkpt lat="42.1984730" lon="2.3047680">
        <ele>962.0</ele>
        <time>2020-07-31T06:24:25Z</time>
      </trkpt>
      <trkpt lat="42.1984970" lon="2.3049910">
        <ele>962.8</ele>
        <time>2020-07-31T06:24:29Z</time>
      </trkpt>
      <trkpt lat="42.1985470" lon="2.3052870">
        <ele>963.8</ele>
        <time>2020-07-31T06:24:34Z</time>
      </trkpt>
      <trkpt lat="42.1985510" lon="2.3053440">
        <ele>964.0</ele>
        <time>2020-07-31T06:24:35Z</time>
      </trkpt>
      <trkpt lat="42.1985130" lon="2.3055530">
        <ele>964.8</ele>
        <time>2020-07-31T06:24:39Z</time>
      </trkpt>
      <trkpt lat="42.1984980" lon="2.3055990">
        <ele>965.2</ele>
        <time>2020-07-31T06:24:40Z</time>
      </trkpt>
      <trkpt lat="42.1983790" lon="2.3058870">
        <ele>966.2</ele>
        <time>2020-07-31T06:24:46Z</time>
      </trkpt>
      <trkpt lat="42.1982380" lon="2.3062070">
        <ele>967.0</ele>
        <time>2020-07-31T06:24:52Z</time>
      </trkpt>
      <trkpt lat="42.1982240" lon="2.3062730">
        <ele>967.0</ele>
        <time>2020-07-31T06:24:53Z</time>
      </trkpt>
      <trkpt lat="42.1982160" lon="2.3063410">
        <ele>967.2</ele>
        <time>2020-07-31T06:24:54Z</time>
      </trkpt>
      <trkpt lat="42.1982210" lon="2.3065690">
        <ele>967.6</ele>
        <time>2020-07-31T06:24:57Z</time>
      </trkpt>
      <trkpt lat="42.1982750" lon="2.3067820">
        <ele>967.6</ele>
        <time>2020-07-31T06:25:00Z</time>
      </trkpt>
      <trkpt lat="42.1983350" lon="2.3069850">
        <ele>968.0</ele>
        <time>2020-07-31T06:25:03Z</time>
      </trkpt>
      <trkpt lat="42.1983810" lon="2.3071070">
        <ele>968.2</ele>
        <time>2020-07-31T06:25:05Z</time>
      </trkpt>
      <trkpt lat="42.1985210" lon="2.3075480">
        <ele>969.4</ele>
        <time>2020-07-31T06:25:12Z</time>
      </trkpt>
      <trkpt lat="42.1986600" lon="2.3079500">
        <ele>970.4</ele>
        <time>2020-07-31T06:25:19Z</time>
      </trkpt>
      <trkpt lat="42.1987280" lon="2.3081760">
        <ele>971.2</ele>
        <time>2020-07-31T06:25:23Z</time>
      </trkpt>
      <trkpt lat="42.1987640" lon="2.3082810">
        <ele>971.6</ele>
        <time>2020-07-31T06:25:25Z</time>
      </trkpt>
      <trkpt lat="42.1988820" lon="2.3086700">
        <ele>972.8</ele>
        <time>2020-07-31T06:25:32Z</time>
      </trkpt>
      <trkpt lat="42.1989400" lon="2.3088310">
        <ele>973.2</ele>
        <time>2020-07-31T06:25:35Z</time>
      </trkpt>
      <trkpt lat="42.1990100" lon="2.3090460">
        <ele>974.0</ele>
        <time>2020-07-31T06:25:39Z</time>
      </trkpt>
      <trkpt lat="42.1990330" lon="2.3091590">
        <ele>974.4</ele>
        <time>2020-07-31T06:25:41Z</time>
      </trkpt>
      <trkpt lat="42.1990380" lon="2.3092150">
        <ele>974.6</ele>
        <time>2020-07-31T06:25:42Z</time>
      </trkpt>
      <trkpt lat="42.1990320" lon="2.3093820">
        <ele>975.2</ele>
        <time>2020-07-31T06:25:45Z</time>
      </trkpt>
      <trkpt lat="42.1990290" lon="2.3094380">
        <ele>975.4</ele>
        <time>2020-07-31T06:25:46Z</time>
      </trkpt>
      <trkpt lat="42.1990140" lon="2.3096640">
        <ele>976.4</ele>
        <time>2020-07-31T06:25:50Z</time>
      </trkpt>
      <trkpt lat="42.1990000" lon="2.3098830">
        <ele>977.4</ele>
        <time>2020-07-31T06:25:54Z</time>
      </trkpt>
      <trkpt lat="42.1989970" lon="2.3099370">
        <ele>977.4</ele>
        <time>2020-07-31T06:25:55Z</time>
      </trkpt>
      <trkpt lat="42.1989770" lon="2.3103680">
        <ele>978.6</ele>
        <time>2020-07-31T06:26:03Z</time>
      </trkpt>
      <trkpt lat="42.1989740" lon="2.3104210">
        <ele>978.8</ele>
        <time>2020-07-31T06:26:04Z</time>
      </trkpt>
      <trkpt lat="42.1988890" lon="2.3107090">
        <ele>979.6</ele>
        <time>2020-07-31T06:26:10Z</time>
      </trkpt>
      <trkpt lat="42.1987600" lon="2.3109080">
        <ele>980.8</ele>
        <time>2020-07-31T06:26:15Z</time>
      </trkpt>
      <trkpt lat="42.1987060" lon="2.3109870">
        <ele>981.4</ele>
        <time>2020-07-31T06:26:17Z</time>
      </trkpt>
      <trkpt lat="42.1986490" lon="2.3110640">
        <ele>982.0</ele>
        <time>2020-07-31T06:26:19Z</time>
      </trkpt>
      <trkpt lat="42.1985320" lon="2.3112210">
        <ele>983.0</ele>
        <time>2020-07-31T06:26:23Z</time>
      </trkpt>
      <trkpt lat="42.1984260" lon="2.3113750">
        <ele>983.6</ele>
        <time>2020-07-31T06:26:27Z</time>
      </trkpt>
      <trkpt lat="42.1984050" lon="2.3114130">
        <ele>983.8</ele>
        <time>2020-07-31T06:26:28Z</time>
      </trkpt>
      <trkpt lat="42.1983030" lon="2.3116250">
        <ele>985.0</ele>
        <time>2020-07-31T06:26:33Z</time>
      </trkpt>
      <trkpt lat="42.1982630" lon="2.3117160">
        <ele>985.6</ele>
        <time>2020-07-31T06:26:35Z</time>
      </trkpt>
      <trkpt lat="42.1982340" lon="2.3118060">
        <ele>986.2</ele>
        <time>2020-07-31T06:26:37Z</time>
      </trkpt>
      <trkpt lat="42.1982170" lon="2.3120000">
        <ele>987.0</ele>
        <time>2020-07-31T06:26:41Z</time>
      </trkpt>
      <trkpt lat="42.1982220" lon="2.3120480">
        <ele>987.2</ele>
        <time>2020-07-31T06:26:42Z</time>
      </trkpt>
      <trkpt lat="42.1982800" lon="2.3122770">
        <ele>988.2</ele>
        <time>2020-07-31T06:26:47Z</time>
      </trkpt>
      <trkpt lat="42.1983930" lon="2.3124250">
        <ele>989.4</ele>
        <time>2020-07-31T06:26:52Z</time>
      </trkpt>
      <trkpt lat="42.1984180" lon="2.3124500">
        <ele>989.6</ele>
        <time>2020-07-31T06:26:53Z</time>
      </trkpt>
      <trkpt lat="42.1985330" lon="2.3125620">
        <ele>990.4</ele>
        <time>2020-07-31T06:26:57Z</time>
      </trkpt>
      <trkpt lat="42.1986240" lon="2.3126460">
        <ele>990.8</ele>
        <time>2020-07-31T06:27:00Z</time>
      </trkpt>
      <trkpt lat="42.1987160" lon="2.3127400">
        <ele>991.6</ele>
        <time>2020-07-31T06:27:03Z</time>
      </trkpt>
      <trkpt lat="42.1988040" lon="2.3129060">
        <ele>992.4</ele>
        <time>2020-07-31T06:27:07Z</time>
      </trkpt>
      <trkpt lat="42.1988030" lon="2.3130010">
        <ele>992.8</ele>
        <time>2020-07-31T06:27:09Z</time>
      </trkpt>
      <trkpt lat="42.1987730" lon="2.3130840">
        <ele>993.2</ele>
        <time>2020-07-31T06:27:11Z</time>
      </trkpt>
      <trkpt lat="42.1987060" lon="2.3132130">
        <ele>994.0</ele>
        <time>2020-07-31T06:27:14Z</time>
      </trkpt>
      <trkpt lat="42.1986330" lon="2.3133390">
        <ele>995.0</ele>
        <time>2020-07-31T06:27:17Z</time>
      </trkpt>
      <trkpt lat="42.1986110" lon="2.3133790">
        <ele>995.4</ele>
        <time>2020-07-31T06:27:18Z</time>
      </trkpt>
      <trkpt lat="42.1985490" lon="2.3134880">
        <ele>996.2</ele>
        <time>2020-07-31T06:27:21Z</time>
      </trkpt>
      <trkpt lat="42.1984450" lon="2.3136880">
        <ele>997.2</ele>
        <time>2020-07-31T06:27:26Z</time>
      </trkpt>
      <trkpt lat="42.1984180" lon="2.3137660">
        <ele>997.8</ele>
        <time>2020-07-31T06:27:28Z</time>
      </trkpt>
      <trkpt lat="42.1983790" lon="2.3138860">
        <ele>998.4</ele>
        <time>2020-07-31T06:27:31Z</time>
      </trkpt>
      <trkpt lat="42.1983220" lon="2.3141360">
        <ele>999.4</ele>
        <time>2020-07-31T06:27:37Z</time>
      </trkpt>
      <trkpt lat="42.1983030" lon="2.3143780">
        <ele>1000.6</ele>
        <time>2020-07-31T06:27:42Z</time>
      </trkpt>
      <trkpt lat="42.1982850" lon="2.3145190">
        <ele>1001.0</ele>
        <time>2020-07-31T06:27:45Z</time>
      </trkpt>
      <trkpt lat="42.1982540" lon="2.3146540">
        <ele>1001.6</ele>
        <time>2020-07-31T06:27:48Z</time>
      </trkpt>
      <trkpt lat="42.1981890" lon="2.3149240">
        <ele>1002.6</ele>
        <time>2020-07-31T06:27:54Z</time>
      </trkpt>
      <trkpt lat="42.1981820" lon="2.3149720">
        <ele>1003.0</ele>
        <time>2020-07-31T06:27:55Z</time>
      </trkpt>
      <trkpt lat="42.1981660" lon="2.3151770">
        <ele>1003.8</ele>
        <time>2020-07-31T06:27:59Z</time>
      </trkpt>
      <trkpt lat="42.1981470" lon="2.3153920">
        <ele>1005.0</ele>
        <time>2020-07-31T06:28:03Z</time>
      </trkpt>
      <trkpt lat="42.1980800" lon="2.3157560">
        <ele>1006.0</ele>
        <time>2020-07-31T06:28:10Z</time>
      </trkpt>
      <trkpt lat="42.1980640" lon="2.3158660">
        <ele>1006.2</ele>
        <time>2020-07-31T06:28:12Z</time>
      </trkpt>
      <trkpt lat="42.1980580" lon="2.3159260">
        <ele>1006.4</ele>
        <time>2020-07-31T06:28:13Z</time>
      </trkpt>
      <trkpt lat="42.1980790" lon="2.3161580">
        <ele>1007.2</ele>
        <time>2020-07-31T06:28:17Z</time>
      </trkpt>
      <trkpt lat="42.1981900" lon="2.3164910">
        <ele>1007.6</ele>
        <time>2020-07-31T06:28:24Z</time>
      </trkpt>
      <trkpt lat="42.1982300" lon="2.3165800">
        <ele>1008.2</ele>
        <time>2020-07-31T06:28:26Z</time>
      </trkpt>
      <trkpt lat="42.1983450" lon="2.3167330">
        <ele>1009.0</ele>
        <time>2020-07-31T06:28:30Z</time>
      </trkpt>
      <trkpt lat="42.1983840" lon="2.3167580">
        <ele>1009.4</ele>
        <time>2020-07-31T06:28:31Z</time>
      </trkpt>
      <trkpt lat="42.1985680" lon="2.3168720">
        <ele>1010.0</ele>
        <time>2020-07-31T06:28:36Z</time>
      </trkpt>
      <trkpt lat="42.1986520" lon="2.3169080">
        <ele>1010.2</ele>
        <time>2020-07-31T06:28:38Z</time>
      </trkpt>
      <trkpt lat="42.1987330" lon="2.3169460">
        <ele>1010.4</ele>
        <time>2020-07-31T06:28:40Z</time>
      </trkpt>
      <trkpt lat="42.1988130" lon="2.3169810">
        <ele>1010.6</ele>
        <time>2020-07-31T06:28:42Z</time>
      </trkpt>
      <trkpt lat="42.1990080" lon="2.3171620">
        <ele>1011.2</ele>
        <time>2020-07-31T06:28:48Z</time>
      </trkpt>
      <trkpt lat="42.1990230" lon="2.3172050">
        <ele>1011.6</ele>
        <time>2020-07-31T06:28:49Z</time>
      </trkpt>
      <trkpt lat="42.1990350" lon="2.3173500">
        <ele>1012.2</ele>
        <time>2020-07-31T06:28:52Z</time>
      </trkpt>
      <trkpt lat="42.1990190" lon="2.3173980">
        <ele>1012.8</ele>
        <time>2020-07-31T06:28:53Z</time>
      </trkpt>
      <trkpt lat="42.1989890" lon="2.3174440">
        <ele>1013.2</ele>
        <time>2020-07-31T06:28:54Z</time>
      </trkpt>
      <trkpt lat="42.1989150" lon="2.3175170">
        <ele>1013.8</ele>
        <time>2020-07-31T06:28:56Z</time>
      </trkpt>
      <trkpt lat="42.1988790" lon="2.3175530">
        <ele>1014.0</ele>
        <time>2020-07-31T06:28:57Z</time>
      </trkpt>
      <trkpt lat="42.1988200" lon="2.3176300">
        <ele>1014.6</ele>
        <time>2020-07-31T06:28:59Z</time>
      </trkpt>
      <trkpt lat="42.1987620" lon="2.3177510">
        <ele>1015.0</ele>
        <time>2020-07-31T06:29:01Z</time>
      </trkpt>
      <trkpt lat="42.1987390" lon="2.3178100">
        <ele>1015.2</ele>
        <time>2020-07-31T06:29:02Z</time>
      </trkpt>
      <trkpt lat="42.1986720" lon="2.3180460">
        <ele>1015.6</ele>
        <time>2020-07-31T06:29:06Z</time>
      </trkpt>
      <trkpt lat="42.1986520" lon="2.3181720">
        <ele>1015.8</ele>
        <time>2020-07-31T06:29:08Z</time>
      </trkpt>
      <trkpt lat="42.1986250" lon="2.3183740">
        <ele>1016.4</ele>
        <time>2020-07-31T06:29:11Z</time>
      </trkpt>
      <trkpt lat="42.1985750" lon="2.3188010">
        <ele>1016.8</ele>
        <time>2020-07-31T06:29:17Z</time>
      </trkpt>
      <trkpt lat="42.1985650" lon="2.3190390">
        <ele>1017.2</ele>
        <time>2020-07-31T06:29:20Z</time>
      </trkpt>
      <trkpt lat="42.1985810" lon="2.3191940">
        <ele>1017.2</ele>
        <time>2020-07-31T06:29:22Z</time>
      </trkpt>
      <trkpt lat="42.1986000" lon="2.3193520">
        <ele>1017.4</ele>
        <time>2020-07-31T06:29:24Z</time>
      </trkpt>
      <trkpt lat="42.1986940" lon="2.3198500">
        <ele>1017.6</ele>
        <time>2020-07-31T06:29:31Z</time>
      </trkpt>
      <trkpt lat="42.1987090" lon="2.3199950">
        <ele>1017.8</ele>
        <time>2020-07-31T06:29:33Z</time>
      </trkpt>
      <trkpt lat="42.1986970" lon="2.3202140">
        <ele>1018.2</ele>
        <time>2020-07-31T06:29:36Z</time>
      </trkpt>
      <trkpt lat="42.1986710" lon="2.3203510">
        <ele>1018.4</ele>
        <time>2020-07-31T06:29:38Z</time>
      </trkpt>
      <trkpt lat="42.1986240" lon="2.3206770">
        <ele>1018.6</ele>
        <time>2020-07-31T06:29:43Z</time>
      </trkpt>
      <trkpt lat="42.1986180" lon="2.3208060">
        <ele>1018.8</ele>
        <time>2020-07-31T06:29:45Z</time>
      </trkpt>
      <trkpt lat="42.1986220" lon="2.3209390">
        <ele>1019.4</ele>
        <time>2020-07-31T06:29:47Z</time>
      </trkpt>
      <trkpt lat="42.1986330" lon="2.3211350">
        <ele>1020.2</ele>
        <time>2020-07-31T06:29:50Z</time>
      </trkpt>
      <trkpt lat="42.1986360" lon="2.3211980">
        <ele>1020.4</ele>
        <time>2020-07-31T06:29:51Z</time>
      </trkpt>
      <trkpt lat="42.1986900" lon="2.3215060">
        <ele>1021.4</ele>
        <time>2020-07-31T06:29:56Z</time>
      </trkpt>
      <trkpt lat="42.1987060" lon="2.3215690">
        <ele>1021.4</ele>
        <time>2020-07-31T06:29:57Z</time>
      </trkpt>
      <trkpt lat="42.1987680" lon="2.3217360">
        <ele>1021.6</ele>
        <time>2020-07-31T06:30:00Z</time>
      </trkpt>
      <trkpt lat="42.1987880" lon="2.3217880">
        <ele>1021.6</ele>
        <time>2020-07-31T06:30:01Z</time>
      </trkpt>
      <trkpt lat="42.1988070" lon="2.3218460">
        <ele>1021.6</ele>
        <time>2020-07-31T06:30:02Z</time>
      </trkpt>
      <trkpt lat="42.1988250" lon="2.3220390">
        <ele>1021.8</ele>
        <time>2020-07-31T06:30:05Z</time>
      </trkpt>
      <trkpt lat="42.1987510" lon="2.3222720">
        <ele>1022.0</ele>
        <time>2020-07-31T06:30:09Z</time>
      </trkpt>
      <trkpt lat="42.1986700" lon="2.3223410">
        <ele>1022.4</ele>
        <time>2020-07-31T06:30:11Z</time>
      </trkpt>
      <trkpt lat="42.1985810" lon="2.3223900">
        <ele>1022.8</ele>
        <time>2020-07-31T06:30:13Z</time>
      </trkpt>
      <trkpt lat="42.1984010" lon="2.3224770">
        <ele>1023.4</ele>
        <time>2020-07-31T06:30:17Z</time>
      </trkpt>
      <trkpt lat="42.1983610" lon="2.3225090">
        <ele>1023.6</ele>
        <time>2020-07-31T06:30:18Z</time>
      </trkpt>
      <trkpt lat="42.1983260" lon="2.3225410">
        <ele>1023.8</ele>
        <time>2020-07-31T06:30:19Z</time>
      </trkpt>
      <trkpt lat="42.1982300" lon="2.3226410">
        <ele>1024.4</ele>
        <time>2020-07-31T06:30:22Z</time>
      </trkpt>
      <trkpt lat="42.1981070" lon="2.3228370">
        <ele>1024.8</ele>
        <time>2020-07-31T06:30:27Z</time>
      </trkpt>
      <trkpt lat="42.1980250" lon="2.3229440">
        <ele>1025.6</ele>
        <time>2020-07-31T06:30:30Z</time>
      </trkpt>
      <trkpt lat="42.1978960" lon="2.3231370">
        <ele>1026.8</ele>
        <time>2020-07-31T06:30:35Z</time>
      </trkpt>
      <trkpt lat="42.1978710" lon="2.3231760">
        <ele>1026.8</ele>
        <time>2020-07-31T06:30:36Z</time>
      </trkpt>
      <trkpt lat="42.1977740" lon="2.3233480">
        <ele>1027.8</ele>
        <time>2020-07-31T06:30:40Z</time>
      </trkpt>
      <trkpt lat="42.1977180" lon="2.3234690">
        <ele>1028.4</ele>
        <time>2020-07-31T06:30:43Z</time>
      </trkpt>
      <trkpt lat="42.1976910" lon="2.3235460">
        <ele>1029.2</ele>
        <time>2020-07-31T06:30:45Z</time>
      </trkpt>
      <trkpt lat="42.1976380" lon="2.3237120">
        <ele>1030.4</ele>
        <time>2020-07-31T06:30:49Z</time>
      </trkpt>
      <trkpt lat="42.1976180" lon="2.3239320">
        <ele>1031.6</ele>
        <time>2020-07-31T06:30:53Z</time>
      </trkpt>
      <trkpt lat="42.1976180" lon="2.3240920">
        <ele>1032.2</ele>
        <time>2020-07-31T06:30:56Z</time>
      </trkpt>
      <trkpt lat="42.1976280" lon="2.3241930">
        <ele>1032.6</ele>
        <time>2020-07-31T06:30:58Z</time>
      </trkpt>
      <trkpt lat="42.1976310" lon="2.3244300">
        <ele>1033.8</ele>
        <time>2020-07-31T06:31:03Z</time>
      </trkpt>
      <trkpt lat="42.1976440" lon="2.3246540">
        <ele>1034.6</ele>
        <time>2020-07-31T06:31:08Z</time>
      </trkpt>
      <trkpt lat="42.1976590" lon="2.3247450">
        <ele>1035.2</ele>
        <time>2020-07-31T06:31:10Z</time>
      </trkpt>
      <trkpt lat="42.1976880" lon="2.3248710">
        <ele>1035.8</ele>
        <time>2020-07-31T06:31:13Z</time>
      </trkpt>
      <trkpt lat="42.1977100" lon="2.3250650">
        <ele>1036.6</ele>
        <time>2020-07-31T06:31:18Z</time>
      </trkpt>
      <trkpt lat="42.1977210" lon="2.3251540">
        <ele>1037.0</ele>
        <time>2020-07-31T06:31:20Z</time>
      </trkpt>
      <trkpt lat="42.1977690" lon="2.3253460">
        <ele>1037.6</ele>
        <time>2020-07-31T06:31:23Z</time>
      </trkpt>
      <trkpt lat="42.1978060" lon="2.3255520">
        <ele>1038.2</ele>
        <time>2020-07-31T06:31:27Z</time>
      </trkpt>
      <trkpt lat="42.1978250" lon="2.3256530">
        <ele>1038.6</ele>
        <time>2020-07-31T06:31:29Z</time>
      </trkpt>
      <trkpt lat="42.1978770" lon="2.3258400">
        <ele>1039.2</ele>
        <time>2020-07-31T06:31:33Z</time>
      </trkpt>
      <trkpt lat="42.1979470" lon="2.3260270">
        <ele>1040.0</ele>
        <time>2020-07-31T06:31:37Z</time>
      </trkpt>
      <trkpt lat="42.1979940" lon="2.3261200">
        <ele>1040.4</ele>
        <time>2020-07-31T06:31:39Z</time>
      </trkpt>
      <trkpt lat="42.1980970" lon="2.3263540">
        <ele>1041.6</ele>
        <time>2020-07-31T06:31:44Z</time>
      </trkpt>
      <trkpt lat="42.1981190" lon="2.3263990">
        <ele>1041.6</ele>
        <time>2020-07-31T06:31:45Z</time>
      </trkpt>
      <trkpt lat="42.1982560" lon="2.3267200">
        <ele>1042.2</ele>
        <time>2020-07-31T06:31:52Z</time>
      </trkpt>
      <trkpt lat="42.1982690" lon="2.3268240">
        <ele>1042.4</ele>
        <time>2020-07-31T06:31:54Z</time>
      </trkpt>
      <trkpt lat="42.1982500" lon="2.3270080">
        <ele>1042.8</ele>
        <time>2020-07-31T06:31:57Z</time>
      </trkpt>
      <trkpt lat="42.1982180" lon="2.3271540">
        <ele>1043.6</ele>
        <time>2020-07-31T06:32:00Z</time>
      </trkpt>
      <trkpt lat="42.1981750" lon="2.3272520">
        <ele>1044.2</ele>
        <time>2020-07-31T06:32:02Z</time>
      </trkpt>
      <trkpt lat="42.1981500" lon="2.3272920">
        <ele>1044.4</ele>
        <time>2020-07-31T06:32:03Z</time>
      </trkpt>
      <trkpt lat="42.1980920" lon="2.3273640">
        <ele>1044.8</ele>
        <time>2020-07-31T06:32:05Z</time>
      </trkpt>
      <trkpt lat="42.1980620" lon="2.3273990">
        <ele>1045.0</ele>
        <time>2020-07-31T06:32:06Z</time>
      </trkpt>
      <trkpt lat="42.1979630" lon="2.3274810">
        <ele>1045.8</ele>
        <time>2020-07-31T06:32:09Z</time>
      </trkpt>
      <trkpt lat="42.1979280" lon="2.3275030">
        <ele>1046.0</ele>
        <time>2020-07-31T06:32:10Z</time>
      </trkpt>
      <trkpt lat="42.1977450" lon="2.3276020">
        <ele>1047.0</ele>
        <time>2020-07-31T06:32:15Z</time>
      </trkpt>
      <trkpt lat="42.1976790" lon="2.3276430">
        <ele>1047.4</ele>
        <time>2020-07-31T06:32:17Z</time>
      </trkpt>
      <trkpt lat="42.1975600" lon="2.3277500">
        <ele>1048.0</ele>
        <time>2020-07-31T06:32:21Z</time>
      </trkpt>
      <trkpt lat="42.1974810" lon="2.3278660">
        <ele>1048.6</ele>
        <time>2020-07-31T06:32:24Z</time>
      </trkpt>
      <trkpt lat="42.1974080" lon="2.3280610">
        <ele>1049.2</ele>
        <time>2020-07-31T06:32:28Z</time>
      </trkpt>
      <trkpt lat="42.1973810" lon="2.3281650">
        <ele>1049.4</ele>
        <time>2020-07-31T06:32:30Z</time>
      </trkpt>
      <trkpt lat="42.1973130" lon="2.3284860">
        <ele>1050.0</ele>
        <time>2020-07-31T06:32:36Z</time>
      </trkpt>
      <trkpt lat="42.1972630" lon="2.3287580">
        <ele>1050.8</ele>
        <time>2020-07-31T06:32:41Z</time>
      </trkpt>
      <trkpt lat="42.1972410" lon="2.3288650">
        <ele>1051.0</ele>
        <time>2020-07-31T06:32:43Z</time>
      </trkpt>
      <trkpt lat="42.1971820" lon="2.3291300">
        <ele>1051.8</ele>
        <time>2020-07-31T06:32:48Z</time>
      </trkpt>
      <trkpt lat="42.1971510" lon="2.3292320">
        <ele>1052.0</ele>
        <time>2020-07-31T06:32:50Z</time>
      </trkpt>
      <trkpt lat="42.1969990" lon="2.3296360">
        <ele>1053.2</ele>
        <time>2020-07-31T06:32:58Z</time>
      </trkpt>
      <trkpt lat="42.1968560" lon="2.3300340">
        <ele>1054.2</ele>
        <time>2020-07-31T06:33:05Z</time>
      </trkpt>
      <trkpt lat="42.1968250" lon="2.3301480">
        <ele>1054.6</ele>
        <time>2020-07-31T06:33:07Z</time>
      </trkpt>
      <trkpt lat="42.1968140" lon="2.3304800">
        <ele>1055.0</ele>
        <time>2020-07-31T06:33:12Z</time>
      </trkpt>
      <trkpt lat="42.1968270" lon="2.3306120">
        <ele>1055.2</ele>
        <time>2020-07-31T06:33:14Z</time>
      </trkpt>
      <trkpt lat="42.1968760" lon="2.3309170">
        <ele>1056.2</ele>
        <time>2020-07-31T06:33:19Z</time>
      </trkpt>
      <trkpt lat="42.1968860" lon="2.3309770">
        <ele>1056.4</ele>
        <time>2020-07-31T06:33:20Z</time>
      </trkpt>
      <trkpt lat="42.1969070" lon="2.3312120">
        <ele>1056.8</ele>
        <time>2020-07-31T06:33:24Z</time>
      </trkpt>
      <trkpt lat="42.1968950" lon="2.3313910">
        <ele>1057.2</ele>
        <time>2020-07-31T06:33:27Z</time>
      </trkpt>
      <trkpt lat="42.1968850" lon="2.3315150">
        <ele>1057.4</ele>
        <time>2020-07-31T06:33:29Z</time>
      </trkpt>
      <trkpt lat="42.1968470" lon="2.3317630">
        <ele>1057.6</ele>
        <time>2020-07-31T06:33:33Z</time>
      </trkpt>
      <trkpt lat="42.1968400" lon="2.3320880">
        <ele>1058.6</ele>
        <time>2020-07-31T06:33:38Z</time>
      </trkpt>
      <trkpt lat="42.1968490" lon="2.3321520">
        <ele>1058.8</ele>
        <time>2020-07-31T06:33:39Z</time>
      </trkpt>
      <trkpt lat="42.1969240" lon="2.3324930">
        <ele>1059.6</ele>
        <time>2020-07-31T06:33:45Z</time>
      </trkpt>
      <trkpt lat="42.1969710" lon="2.3326520">
        <ele>1060.2</ele>
        <time>2020-07-31T06:33:48Z</time>
      </trkpt>
      <trkpt lat="42.1970460" lon="2.3328650">
        <ele>1060.8</ele>
        <time>2020-07-31T06:33:52Z</time>
      </trkpt>
      <trkpt lat="42.1971250" lon="2.3331440">
        <ele>1061.6</ele>
        <time>2020-07-31T06:33:57Z</time>
      </trkpt>
      <trkpt lat="42.1971400" lon="2.3331990">
        <ele>1061.8</ele>
        <time>2020-07-31T06:33:58Z</time>
      </trkpt>
      <trkpt lat="42.1972240" lon="2.3335750">
        <ele>1062.6</ele>
        <time>2020-07-31T06:34:05Z</time>
      </trkpt>
      <trkpt lat="42.1972900" lon="2.3339180">
        <ele>1063.8</ele>
        <time>2020-07-31T06:34:11Z</time>
      </trkpt>
      <trkpt lat="42.1973340" lon="2.3340800">
        <ele>1064.2</ele>
        <time>2020-07-31T06:34:14Z</time>
      </trkpt>
      <trkpt lat="42.1974020" lon="2.3342300">
        <ele>1064.8</ele>
        <time>2020-07-31T06:34:17Z</time>
      </trkpt>
      <trkpt lat="42.1974310" lon="2.3342760">
        <ele>1065.0</ele>
        <time>2020-07-31T06:34:18Z</time>
      </trkpt>
      <trkpt lat="42.1974630" lon="2.3343180">
        <ele>1065.2</ele>
        <time>2020-07-31T06:34:19Z</time>
      </trkpt>
      <trkpt lat="42.1976220" lon="2.3344300">
        <ele>1066.0</ele>
        <time>2020-07-31T06:34:23Z</time>
      </trkpt>
      <trkpt lat="42.1976650" lon="2.3344480">
        <ele>1066.0</ele>
        <time>2020-07-31T06:34:24Z</time>
      </trkpt>
      <trkpt lat="42.1978850" lon="2.3345270">
        <ele>1067.2</ele>
        <time>2020-07-31T06:34:29Z</time>
      </trkpt>
      <trkpt lat="42.1980180" lon="2.3345770">
        <ele>1067.6</ele>
        <time>2020-07-31T06:34:32Z</time>
      </trkpt>
      <trkpt lat="42.1982760" lon="2.3346740">
        <ele>1068.0</ele>
        <time>2020-07-31T06:34:38Z</time>
      </trkpt>
      <trkpt lat="42.1983180" lon="2.3346920">
        <ele>1068.0</ele>
        <time>2020-07-31T06:34:39Z</time>
      </trkpt>
      <trkpt lat="42.1986160" lon="2.3348350">
        <ele>1068.8</ele>
        <time>2020-07-31T06:34:46Z</time>
      </trkpt>
      <trkpt lat="42.1986960" lon="2.3348830">
        <ele>1069.0</ele>
        <time>2020-07-31T06:34:48Z</time>
      </trkpt>
      <trkpt lat="42.1987250" lon="2.3349100">
        <ele>1069.0</ele>
        <time>2020-07-31T06:34:49Z</time>
      </trkpt>
      <trkpt lat="42.1987650" lon="2.3349900">
        <ele>1069.4</ele>
        <time>2020-07-31T06:34:51Z</time>
      </trkpt>
      <trkpt lat="42.1987410" lon="2.3352160">
        <ele>1069.8</ele>
        <time>2020-07-31T06:34:55Z</time>
      </trkpt>
      <trkpt lat="42.1986980" lon="2.3353150">
        <ele>1070.2</ele>
        <time>2020-07-31T06:34:57Z</time>
      </trkpt>
      <trkpt lat="42.1986390" lon="2.3353810">
        <ele>1071.0</ele>
        <time>2020-07-31T06:34:59Z</time>
      </trkpt>
      <trkpt lat="42.1985660" lon="2.3354240">
        <ele>1071.6</ele>
        <time>2020-07-31T06:35:01Z</time>
      </trkpt>
      <trkpt lat="42.1984420" lon="2.3354860">
        <ele>1072.4</ele>
        <time>2020-07-31T06:35:04Z</time>
      </trkpt>
      <trkpt lat="42.1983970" lon="2.3355060">
        <ele>1072.6</ele>
        <time>2020-07-31T06:35:05Z</time>
      </trkpt>
      <trkpt lat="42.1982220" lon="2.3355950">
        <ele>1073.2</ele>
        <time>2020-07-31T06:35:09Z</time>
      </trkpt>
      <trkpt lat="42.1981790" lon="2.3356310">
        <ele>1073.2</ele>
        <time>2020-07-31T06:35:10Z</time>
      </trkpt>
      <trkpt lat="42.1980700" lon="2.3357520">
        <ele>1073.4</ele>
        <time>2020-07-31T06:35:13Z</time>
      </trkpt>
      <trkpt lat="42.1979790" lon="2.3358810">
        <ele>1073.4</ele>
        <time>2020-07-31T06:35:16Z</time>
      </trkpt>
      <trkpt lat="42.1979010" lon="2.3360510">
        <ele>1073.6</ele>
        <time>2020-07-31T06:35:19Z</time>
      </trkpt>
      <trkpt lat="42.1978360" lon="2.3362470">
        <ele>1074.4</ele>
        <time>2020-07-31T06:35:22Z</time>
      </trkpt>
      <trkpt lat="42.1978170" lon="2.3363080">
        <ele>1074.8</ele>
        <time>2020-07-31T06:35:23Z</time>
      </trkpt>
      <trkpt lat="42.1977470" lon="2.3365420">
        <ele>1075.8</ele>
        <time>2020-07-31T06:35:27Z</time>
      </trkpt>
      <trkpt lat="42.1977340" lon="2.3366030">
        <ele>1076.0</ele>
        <time>2020-07-31T06:35:28Z</time>
      </trkpt>
      <trkpt lat="42.1977220" lon="2.3366620">
        <ele>1076.2</ele>
        <time>2020-07-31T06:35:29Z</time>
      </trkpt>
      <trkpt lat="42.1976560" lon="2.3368750">
        <ele>1076.8</ele>
        <time>2020-07-31T06:35:33Z</time>
      </trkpt>
      <trkpt lat="42.1975970" lon="2.3370800">
        <ele>1077.6</ele>
        <time>2020-07-31T06:35:37Z</time>
      </trkpt>
      <trkpt lat="42.1975860" lon="2.3371330">
        <ele>1078.0</ele>
        <time>2020-07-31T06:35:38Z</time>
      </trkpt>
      <trkpt lat="42.1975410" lon="2.3373360">
        <ele>1079.0</ele>
        <time>2020-07-31T06:35:42Z</time>
      </trkpt>
      <trkpt lat="42.1975160" lon="2.3374900">
        <ele>1079.6</ele>
        <time>2020-07-31T06:35:45Z</time>
      </trkpt>
      <trkpt lat="42.1975010" lon="2.3375990">
        <ele>1080.2</ele>
        <time>2020-07-31T06:35:47Z</time>
      </trkpt>
      <trkpt lat="42.1974930" lon="2.3378310">
        <ele>1080.6</ele>
        <time>2020-07-31T06:35:51Z</time>
      </trkpt>
      <trkpt lat="42.1974880" lon="2.3380060">
        <ele>1081.4</ele>
        <time>2020-07-31T06:35:54Z</time>
      </trkpt>
      <trkpt lat="42.1974760" lon="2.3382840">
        <ele>1082.4</ele>
        <time>2020-07-31T06:35:59Z</time>
      </trkpt>
      <trkpt lat="42.1974750" lon="2.3383910">
        <ele>1082.6</ele>
        <time>2020-07-31T06:36:01Z</time>
      </trkpt>
      <trkpt lat="42.1974690" lon="2.3386560">
        <ele>1083.4</ele>
        <time>2020-07-31T06:36:06Z</time>
      </trkpt>
      <trkpt lat="42.1974530" lon="2.3389000">
        <ele>1084.4</ele>
        <time>2020-07-31T06:36:11Z</time>
      </trkpt>
      <trkpt lat="42.1973930" lon="2.3391590">
        <ele>1085.6</ele>
        <time>2020-07-31T06:36:17Z</time>
      </trkpt>
      <trkpt lat="42.1973790" lon="2.3392000">
        <ele>1085.8</ele>
        <time>2020-07-31T06:36:18Z</time>
      </trkpt>
      <trkpt lat="42.1973350" lon="2.3393640">
        <ele>1087.0</ele>
        <time>2020-07-31T06:36:22Z</time>
      </trkpt>
      <trkpt lat="42.1972950" lon="2.3395300">
        <ele>1087.8</ele>
        <time>2020-07-31T06:36:26Z</time>
      </trkpt>
      <trkpt lat="42.1972790" lon="2.3396230">
        <ele>1088.2</ele>
        <time>2020-07-31T06:36:28Z</time>
      </trkpt>
      <trkpt lat="42.1972690" lon="2.3398240">
        <ele>1089.0</ele>
        <time>2020-07-31T06:36:32Z</time>
      </trkpt>
      <trkpt lat="42.1972710" lon="2.3398750">
        <ele>1089.2</ele>
        <time>2020-07-31T06:36:33Z</time>
      </trkpt>
      <trkpt lat="42.1973210" lon="2.3402120">
        <ele>1090.2</ele>
        <time>2020-07-31T06:36:40Z</time>
      </trkpt>
      <trkpt lat="42.1974210" lon="2.3405290">
        <ele>1091.4</ele>
        <time>2020-07-31T06:36:47Z</time>
      </trkpt>
      <trkpt lat="42.1974360" lon="2.3405780">
        <ele>1091.6</ele>
        <time>2020-07-31T06:36:48Z</time>
      </trkpt>
      <trkpt lat="42.1975080" lon="2.3408140">
        <ele>1093.0</ele>
        <time>2020-07-31T06:36:53Z</time>
      </trkpt>
      <trkpt lat="42.1975540" lon="2.3409430">
        <ele>1093.8</ele>
        <time>2020-07-31T06:36:56Z</time>
      </trkpt>
      <trkpt lat="42.1975970" lon="2.3410690">
        <ele>1094.0</ele>
        <time>2020-07-31T06:36:59Z</time>
      </trkpt>
      <trkpt lat="42.1976730" lon="2.3412830">
        <ele>1094.8</ele>
        <time>2020-07-31T06:37:04Z</time>
      </trkpt>
      <trkpt lat="42.1977070" lon="2.3413690">
        <ele>1095.2</ele>
        <time>2020-07-31T06:37:06Z</time>
      </trkpt>
      <trkpt lat="42.1977710" lon="2.3416360">
        <ele>1096.4</ele>
        <time>2020-07-31T06:37:12Z</time>
      </trkpt>
      <trkpt lat="42.1977610" lon="2.3418800">
        <ele>1097.4</ele>
        <time>2020-07-31T06:37:17Z</time>
      </trkpt>
      <trkpt lat="42.1977520" lon="2.3420270">
        <ele>1098.2</ele>
        <time>2020-07-31T06:37:20Z</time>
      </trkpt>
      <trkpt lat="42.1977510" lon="2.3420760">
        <ele>1098.4</ele>
        <time>2020-07-31T06:37:21Z</time>
      </trkpt>
      <trkpt lat="42.1977680" lon="2.3423710">
        <ele>1099.2</ele>
        <time>2020-07-31T06:37:27Z</time>
      </trkpt>
      <trkpt lat="42.1977740" lon="2.3426310">
        <ele>1100.4</ele>
        <time>2020-07-31T06:37:32Z</time>
      </trkpt>
      <trkpt lat="42.1977590" lon="2.3427870">
        <ele>1100.8</ele>
        <time>2020-07-31T06:37:35Z</time>
      </trkpt>
      <trkpt lat="42.1976890" lon="2.3430110">
        <ele>1101.4</ele>
        <time>2020-07-31T06:37:40Z</time>
      </trkpt>
      <trkpt lat="42.1976210" lon="2.3432930">
        <ele>1102.8</ele>
        <time>2020-07-31T06:37:46Z</time>
      </trkpt>
      <trkpt lat="42.1976060" lon="2.3433970">
        <ele>1103.4</ele>
        <time>2020-07-31T06:37:48Z</time>
      </trkpt>
      <trkpt lat="42.1975840" lon="2.3436100">
        <ele>1104.0</ele>
        <time>2020-07-31T06:37:52Z</time>
      </trkpt>
      <trkpt lat="42.1975730" lon="2.3438800">
        <ele>1104.8</ele>
        <time>2020-07-31T06:37:57Z</time>
      </trkpt>
      <trkpt lat="42.1975690" lon="2.3439890">
        <ele>1105.0</ele>
        <time>2020-07-31T06:37:59Z</time>
      </trkpt>
      <trkpt lat="42.1975590" lon="2.3442730">
        <ele>1105.8</ele>
        <time>2020-07-31T06:38:04Z</time>
      </trkpt>
      <trkpt lat="42.1975540" lon="2.3443760">
        <ele>1106.2</ele>
        <time>2020-07-31T06:38:06Z</time>
      </trkpt>
      <trkpt lat="42.1975130" lon="2.3446270">
        <ele>1106.8</ele>
        <time>2020-07-31T06:38:11Z</time>
      </trkpt>
      <trkpt lat="42.1974900" lon="2.3446690">
        <ele>1107.0</ele>
        <time>2020-07-31T06:38:12Z</time>
      </trkpt>
      <trkpt lat="42.1973950" lon="2.3448110">
        <ele>1108.2</ele>
        <time>2020-07-31T06:38:16Z</time>
      </trkpt>
      <trkpt lat="42.1973210" lon="2.3449130">
        <ele>1108.4</ele>
        <time>2020-07-31T06:38:19Z</time>
      </trkpt>
      <trkpt lat="42.1972430" lon="2.3450910">
        <ele>1109.4</ele>
        <time>2020-07-31T06:38:23Z</time>
      </trkpt>
      <trkpt lat="42.1971980" lon="2.3452490">
        <ele>1110.0</ele>
        <time>2020-07-31T06:38:26Z</time>
      </trkpt>
      <trkpt lat="42.1971700" lon="2.3454200">
        <ele>1110.4</ele>
        <time>2020-07-31T06:38:29Z</time>
      </trkpt>
      <trkpt lat="42.1971620" lon="2.3454760">
        <ele>1110.4</ele>
        <time>2020-07-31T06:38:30Z</time>
      </trkpt>
      <trkpt lat="42.1971520" lon="2.3458290">
        <ele>1113.0</ele>
        <time>2020-07-31T06:40:48Z</time>
      </trkpt>
      <trkpt lat="42.1971620" lon="2.3459370">
        <ele>1113.2</ele>
        <time>2020-07-31T06:40:50Z</time>
      </trkpt>
      <trkpt lat="42.1972430" lon="2.3461730">
        <ele>1113.2</ele>
        <time>2020-07-31T06:40:54Z</time>
      </trkpt>
      <trkpt lat="42.1972720" lon="2.3462350">
        <ele>1113.0</ele>
        <time>2020-07-31T06:40:55Z</time>
      </trkpt>
      <trkpt lat="42.1975170" lon="2.3467950">
        <ele>1113.2</ele>
        <time>2020-07-31T06:41:03Z</time>
      </trkpt>
      <trkpt lat="42.1977070" lon="2.3473110">
        <ele>1113.2</ele>
        <time>2020-07-31T06:41:09Z</time>
      </trkpt>
      <trkpt lat="42.1978640" lon="2.3478750">
        <ele>1112.6</ele>
        <time>2020-07-31T06:41:14Z</time>
      </trkpt>
      <trkpt lat="42.1980170" lon="2.3483770">
        <ele>1111.8</ele>
        <time>2020-07-31T06:41:18Z</time>
      </trkpt>
      <trkpt lat="42.1980690" lon="2.3484990">
        <ele>1111.4</ele>
        <time>2020-07-31T06:41:19Z</time>
      </trkpt>
      <trkpt lat="42.1981340" lon="2.3486130">
        <ele>1111.0</ele>
        <time>2020-07-31T06:41:20Z</time>
      </trkpt>
      <trkpt lat="42.1982790" lon="2.3488290">
        <ele>1110.4</ele>
        <time>2020-07-31T06:41:22Z</time>
      </trkpt>
      <trkpt lat="42.1983390" lon="2.3489470">
        <ele>1109.8</ele>
        <time>2020-07-31T06:41:23Z</time>
      </trkpt>
      <trkpt lat="42.1983810" lon="2.3490800">
        <ele>1109.2</ele>
        <time>2020-07-31T06:41:24Z</time>
      </trkpt>
      <trkpt lat="42.1985090" lon="2.3494810">
        <ele>1108.0</ele>
        <time>2020-07-31T06:41:27Z</time>
      </trkpt>
      <trkpt lat="42.1986830" lon="2.3496290">
        <ele>1106.8</ele>
        <time>2020-07-31T06:41:29Z</time>
      </trkpt>
      <trkpt lat="42.1988900" lon="2.3497240">
        <ele>1105.2</ele>
        <time>2020-07-31T06:41:31Z</time>
      </trkpt>
      <trkpt lat="42.1989870" lon="2.3497910">
        <ele>1103.0</ele>
        <time>2020-07-31T06:41:32Z</time>
      </trkpt>
      <trkpt lat="42.1990670" lon="2.3498870">
        <ele>1102.6</ele>
        <time>2020-07-31T06:41:33Z</time>
      </trkpt>
      <trkpt lat="42.1991830" lon="2.3501510">
        <ele>1102.0</ele>
        <time>2020-07-31T06:41:35Z</time>
      </trkpt>
      <trkpt lat="42.1992210" lon="2.3503050">
        <ele>1101.6</ele>
        <time>2020-07-31T06:41:36Z</time>
      </trkpt>
      <trkpt lat="42.1992530" lon="2.3504590">
        <ele>1101.0</ele>
        <time>2020-07-31T06:41:37Z</time>
      </trkpt>
      <trkpt lat="42.1992850" lon="2.3506140">
        <ele>1100.2</ele>
        <time>2020-07-31T06:41:38Z</time>
      </trkpt>
      <trkpt lat="42.1993220" lon="2.3507700">
        <ele>1098.8</ele>
        <time>2020-07-31T06:41:39Z</time>
      </trkpt>
      <trkpt lat="42.1993690" lon="2.3509150">
        <ele>1097.8</ele>
        <time>2020-07-31T06:41:40Z</time>
      </trkpt>
      <trkpt lat="42.1994340" lon="2.3510400">
        <ele>1097.0</ele>
        <time>2020-07-31T06:41:41Z</time>
      </trkpt>
      <trkpt lat="42.1995210" lon="2.3511310">
        <ele>1096.4</ele>
        <time>2020-07-31T06:41:42Z</time>
      </trkpt>
      <trkpt lat="42.1996210" lon="2.3511920">
        <ele>1095.8</ele>
        <time>2020-07-31T06:41:43Z</time>
      </trkpt>
      <trkpt lat="42.1997300" lon="2.3512220">
        <ele>1095.2</ele>
        <time>2020-07-31T06:41:44Z</time>
      </trkpt>
      <trkpt lat="42.1998460" lon="2.3512430">
        <ele>1094.4</ele>
        <time>2020-07-31T06:41:45Z</time>
      </trkpt>
      <trkpt lat="42.1999650" lon="2.3512700">
        <ele>1093.6</ele>
        <time>2020-07-31T06:41:46Z</time>
      </trkpt>
      <trkpt lat="42.2000770" lon="2.3513190">
        <ele>1092.6</ele>
        <time>2020-07-31T06:41:47Z</time>
      </trkpt>
      <trkpt lat="42.2002520" lon="2.3515110">
        <ele>1091.0</ele>
        <time>2020-07-31T06:41:49Z</time>
      </trkpt>
      <trkpt lat="42.2003740" lon="2.3517720">
        <ele>1090.0</ele>
        <time>2020-07-31T06:41:51Z</time>
      </trkpt>
      <trkpt lat="42.2004230" lon="2.3519060">
        <ele>1089.2</ele>
        <time>2020-07-31T06:41:52Z</time>
      </trkpt>
      <trkpt lat="42.2004450" lon="2.3520520">
        <ele>1088.4</ele>
        <time>2020-07-31T06:41:53Z</time>
      </trkpt>
      <trkpt lat="42.2004440" lon="2.3521960">
        <ele>1087.8</ele>
        <time>2020-07-31T06:41:54Z</time>
      </trkpt>
      <trkpt lat="42.2004170" lon="2.3524840">
        <ele>1086.0</ele>
        <time>2020-07-31T06:41:56Z</time>
      </trkpt>
      <trkpt lat="42.2004000" lon="2.3527740">
        <ele>1084.8</ele>
        <time>2020-07-31T06:41:58Z</time>
      </trkpt>
      <trkpt lat="42.2004030" lon="2.3529200">
        <ele>1084.2</ele>
        <time>2020-07-31T06:41:59Z</time>
      </trkpt>
      <trkpt lat="42.2004320" lon="2.3530640">
        <ele>1084.0</ele>
        <time>2020-07-31T06:42:00Z</time>
      </trkpt>
      <trkpt lat="42.2004800" lon="2.3531980">
        <ele>1083.6</ele>
        <time>2020-07-31T06:42:01Z</time>
      </trkpt>
      <trkpt lat="42.2006320" lon="2.3534240">
        <ele>1083.4</ele>
        <time>2020-07-31T06:42:03Z</time>
      </trkpt>
      <trkpt lat="42.2009120" lon="2.3536240">
        <ele>1083.2</ele>
        <time>2020-07-31T06:42:06Z</time>
      </trkpt>
      <trkpt lat="42.2010210" lon="2.3536610">
        <ele>1082.8</ele>
        <time>2020-07-31T06:42:07Z</time>
      </trkpt>
      <trkpt lat="42.2011290" lon="2.3537100">
        <ele>1082.6</ele>
        <time>2020-07-31T06:42:08Z</time>
      </trkpt>
      <trkpt lat="42.2012270" lon="2.3537810">
        <ele>1082.4</ele>
        <time>2020-07-31T06:42:09Z</time>
      </trkpt>
      <trkpt lat="42.2012960" lon="2.3538760">
        <ele>1081.8</ele>
        <time>2020-07-31T06:42:10Z</time>
      </trkpt>
      <trkpt lat="42.2013340" lon="2.3540010">
        <ele>1080.8</ele>
        <time>2020-07-31T06:42:11Z</time>
      </trkpt>
      <trkpt lat="42.2013610" lon="2.3541270">
        <ele>1079.8</ele>
        <time>2020-07-31T06:42:12Z</time>
      </trkpt>
      <trkpt lat="42.2013820" lon="2.3542740">
        <ele>1079.0</ele>
        <time>2020-07-31T06:42:13Z</time>
      </trkpt>
      <trkpt lat="42.2014150" lon="2.3544170">
        <ele>1078.2</ele>
        <time>2020-07-31T06:42:14Z</time>
      </trkpt>
      <trkpt lat="42.2014650" lon="2.3545500">
        <ele>1077.6</ele>
        <time>2020-07-31T06:42:15Z</time>
      </trkpt>
      <trkpt lat="42.2015140" lon="2.3546840">
        <ele>1077.2</ele>
        <time>2020-07-31T06:42:16Z</time>
      </trkpt>
      <trkpt lat="42.2015580" lon="2.3548250">
        <ele>1076.6</ele>
        <time>2020-07-31T06:42:17Z</time>
      </trkpt>
      <trkpt lat="42.2016030" lon="2.3551150">
        <ele>1075.2</ele>
        <time>2020-07-31T06:42:19Z</time>
      </trkpt>
      <trkpt lat="42.2015710" lon="2.3552700">
        <ele>1074.6</ele>
        <time>2020-07-31T06:42:20Z</time>
      </trkpt>
      <trkpt lat="42.2015140" lon="2.3554110">
        <ele>1074.0</ele>
        <time>2020-07-31T06:42:21Z</time>
      </trkpt>
      <trkpt lat="42.2014400" lon="2.3555250">
        <ele>1073.4</ele>
        <time>2020-07-31T06:42:22Z</time>
      </trkpt>
      <trkpt lat="42.2013610" lon="2.3556290">
        <ele>1072.8</ele>
        <time>2020-07-31T06:42:23Z</time>
      </trkpt>
      <trkpt lat="42.2012790" lon="2.3557330">
        <ele>1072.2</ele>
        <time>2020-07-31T06:42:24Z</time>
      </trkpt>
      <trkpt lat="42.2012100" lon="2.3558510">
        <ele>1071.4</ele>
        <time>2020-07-31T06:42:25Z</time>
      </trkpt>
      <trkpt lat="42.2011490" lon="2.3559800">
        <ele>1070.8</ele>
        <time>2020-07-31T06:42:26Z</time>
      </trkpt>
      <trkpt lat="42.2011030" lon="2.3561160">
        <ele>1069.8</ele>
        <time>2020-07-31T06:42:27Z</time>
      </trkpt>
      <trkpt lat="42.2011120" lon="2.3564210">
        <ele>1069.0</ele>
        <time>2020-07-31T06:42:29Z</time>
      </trkpt>
      <trkpt lat="42.2012210" lon="2.3567010">
        <ele>1068.6</ele>
        <time>2020-07-31T06:42:31Z</time>
      </trkpt>
      <trkpt lat="42.2012880" lon="2.3568380">
        <ele>1068.6</ele>
        <time>2020-07-31T06:42:32Z</time>
      </trkpt>
      <trkpt lat="42.2014300" lon="2.3571040">
        <ele>1068.4</ele>
        <time>2020-07-31T06:42:34Z</time>
      </trkpt>
      <trkpt lat="42.2014720" lon="2.3572540">
        <ele>1068.4</ele>
        <time>2020-07-31T06:42:35Z</time>
      </trkpt>
      <trkpt lat="42.2014290" lon="2.3575540">
        <ele>1068.0</ele>
        <time>2020-07-31T06:42:37Z</time>
      </trkpt>
      <trkpt lat="42.2013850" lon="2.3576900">
        <ele>1067.4</ele>
        <time>2020-07-31T06:42:38Z</time>
      </trkpt>
      <trkpt lat="42.2013440" lon="2.3579690">
        <ele>1065.6</ele>
        <time>2020-07-31T06:42:40Z</time>
      </trkpt>
      <trkpt lat="42.2013590" lon="2.3581240">
        <ele>1064.6</ele>
        <time>2020-07-31T06:42:41Z</time>
      </trkpt>
      <trkpt lat="42.2014550" lon="2.3584200">
        <ele>1062.8</ele>
        <time>2020-07-31T06:42:43Z</time>
      </trkpt>
      <trkpt lat="42.2015120" lon="2.3585670">
        <ele>1062.0</ele>
        <time>2020-07-31T06:42:44Z</time>
      </trkpt>
      <trkpt lat="42.2015500" lon="2.3587250">
        <ele>1061.4</ele>
        <time>2020-07-31T06:42:45Z</time>
      </trkpt>
      <trkpt lat="42.2015520" lon="2.3588900">
        <ele>1061.2</ele>
        <time>2020-07-31T06:42:46Z</time>
      </trkpt>
      <trkpt lat="42.2014420" lon="2.3593550">
        <ele>1060.4</ele>
        <time>2020-07-31T06:42:49Z</time>
      </trkpt>
      <trkpt lat="42.2013330" lon="2.3596610">
        <ele>1059.0</ele>
        <time>2020-07-31T06:42:51Z</time>
      </trkpt>
      <trkpt lat="42.2012550" lon="2.3598000">
        <ele>1057.8</ele>
        <time>2020-07-31T06:42:52Z</time>
      </trkpt>
      <trkpt lat="42.2011790" lon="2.3599410">
        <ele>1056.8</ele>
        <time>2020-07-31T06:42:53Z</time>
      </trkpt>
      <trkpt lat="42.2011150" lon="2.3600910">
        <ele>1055.8</ele>
        <time>2020-07-31T06:42:54Z</time>
      </trkpt>
      <trkpt lat="42.2010670" lon="2.3602490">
        <ele>1053.8</ele>
        <time>2020-07-31T06:42:55Z</time>
      </trkpt>
      <trkpt lat="42.2010430" lon="2.3605700">
        <ele>1053.0</ele>
        <time>2020-07-31T06:42:57Z</time>
      </trkpt>
      <trkpt lat="42.2010730" lon="2.3607250">
        <ele>1052.2</ele>
        <time>2020-07-31T06:42:58Z</time>
      </trkpt>
      <trkpt lat="42.2011320" lon="2.3608670">
        <ele>1051.8</ele>
        <time>2020-07-31T06:42:59Z</time>
      </trkpt>
      <trkpt lat="42.2012880" lon="2.3611100">
        <ele>1051.4</ele>
        <time>2020-07-31T06:43:01Z</time>
      </trkpt>
      <trkpt lat="42.2013600" lon="2.3612330">
        <ele>1051.2</ele>
        <time>2020-07-31T06:43:02Z</time>
      </trkpt>
      <trkpt lat="42.2014450" lon="2.3616620">
        <ele>1051.0</ele>
        <time>2020-07-31T06:43:05Z</time>
      </trkpt>
      <trkpt lat="42.2013370" lon="2.3619390">
        <ele>1050.0</ele>
        <time>2020-07-31T06:43:07Z</time>
      </trkpt>
      <trkpt lat="42.2012800" lon="2.3620770">
        <ele>1048.4</ele>
        <time>2020-07-31T06:43:08Z</time>
      </trkpt>
      <trkpt lat="42.2012370" lon="2.3622160">
        <ele>1047.0</ele>
        <time>2020-07-31T06:43:09Z</time>
      </trkpt>
      <trkpt lat="42.2012110" lon="2.3623790">
        <ele>1046.4</ele>
        <time>2020-07-31T06:43:10Z</time>
      </trkpt>
      <trkpt lat="42.2011940" lon="2.3625450">
        <ele>1045.4</ele>
        <time>2020-07-31T06:43:11Z</time>
      </trkpt>
      <trkpt lat="42.2011970" lon="2.3628850">
        <ele>1043.8</ele>
        <time>2020-07-31T06:43:13Z</time>
      </trkpt>
      <trkpt lat="42.2013400" lon="2.3633880">
        <ele>1042.6</ele>
        <time>2020-07-31T06:43:16Z</time>
      </trkpt>
      <trkpt lat="42.2015750" lon="2.3640350">
        <ele>1041.6</ele>
        <time>2020-07-31T06:43:20Z</time>
      </trkpt>
      <trkpt lat="42.2015920" lon="2.3642100">
        <ele>1041.2</ele>
        <time>2020-07-31T06:43:21Z</time>
      </trkpt>
      <trkpt lat="42.2016160" lon="2.3645490">
        <ele>1039.0</ele>
        <time>2020-07-31T06:43:23Z</time>
      </trkpt>
      <trkpt lat="42.2016440" lon="2.3647220">
        <ele>1037.4</ele>
        <time>2020-07-31T06:43:24Z</time>
      </trkpt>
      <trkpt lat="42.2016920" lon="2.3648870">
        <ele>1035.8</ele>
        <time>2020-07-31T06:43:25Z</time>
      </trkpt>
      <trkpt lat="42.2017630" lon="2.3650370">
        <ele>1034.6</ele>
        <time>2020-07-31T06:43:26Z</time>
      </trkpt>
      <trkpt lat="42.2018480" lon="2.3651680">
        <ele>1034.0</ele>
        <time>2020-07-31T06:43:27Z</time>
      </trkpt>
      <trkpt lat="42.2019440" lon="2.3652720">
        <ele>1033.4</ele>
        <time>2020-07-31T06:43:28Z</time>
      </trkpt>
      <trkpt lat="42.2021710" lon="2.3654400">
        <ele>1031.8</ele>
        <time>2020-07-31T06:43:30Z</time>
      </trkpt>
      <trkpt lat="42.2022790" lon="2.3655460">
        <ele>1031.4</ele>
        <time>2020-07-31T06:43:31Z</time>
      </trkpt>
      <trkpt lat="42.2024500" lon="2.3657870">
        <ele>1030.4</ele>
        <time>2020-07-31T06:43:33Z</time>
      </trkpt>
      <trkpt lat="42.2025200" lon="2.3660620">
        <ele>1029.4</ele>
        <time>2020-07-31T06:43:35Z</time>
      </trkpt>
      <trkpt lat="42.2025180" lon="2.3661930">
        <ele>1028.4</ele>
        <time>2020-07-31T06:43:36Z</time>
      </trkpt>
      <trkpt lat="42.2025200" lon="2.3663400">
        <ele>1027.2</ele>
        <time>2020-07-31T06:43:37Z</time>
      </trkpt>
      <trkpt lat="42.2025390" lon="2.3664660">
        <ele>1026.2</ele>
        <time>2020-07-31T06:43:38Z</time>
      </trkpt>
      <trkpt lat="42.2025700" lon="2.3665890">
        <ele>1025.0</ele>
        <time>2020-07-31T06:43:39Z</time>
      </trkpt>
      <trkpt lat="42.2026220" lon="2.3667000">
        <ele>1024.0</ele>
        <time>2020-07-31T06:43:40Z</time>
      </trkpt>
      <trkpt lat="42.2027100" lon="2.3669580">
        <ele>1022.4</ele>
        <time>2020-07-31T06:43:42Z</time>
      </trkpt>
      <trkpt lat="42.2027040" lon="2.3672680">
        <ele>1021.6</ele>
        <time>2020-07-31T06:43:44Z</time>
      </trkpt>
      <trkpt lat="42.2027040" lon="2.3674200">
        <ele>1021.2</ele>
        <time>2020-07-31T06:43:45Z</time>
      </trkpt>
      <trkpt lat="42.2027560" lon="2.3677210">
        <ele>1020.6</ele>
        <time>2020-07-31T06:43:47Z</time>
      </trkpt>
      <trkpt lat="42.2028120" lon="2.3678590">
        <ele>1020.2</ele>
        <time>2020-07-31T06:43:48Z</time>
      </trkpt>
      <trkpt lat="42.2029440" lon="2.3681240">
        <ele>1017.4</ele>
        <time>2020-07-31T06:43:50Z</time>
      </trkpt>
      <trkpt lat="42.2030750" lon="2.3683970">
        <ele>1016.2</ele>
        <time>2020-07-31T06:43:52Z</time>
      </trkpt>
      <trkpt lat="42.2031240" lon="2.3685480">
        <ele>1015.8</ele>
        <time>2020-07-31T06:43:53Z</time>
      </trkpt>
      <trkpt lat="42.2031730" lon="2.3686990">
        <ele>1015.6</ele>
        <time>2020-07-31T06:43:54Z</time>
      </trkpt>
      <trkpt lat="42.2032950" lon="2.3689790">
        <ele>1014.6</ele>
        <time>2020-07-31T06:43:56Z</time>
      </trkpt>
      <trkpt lat="42.2033310" lon="2.3691280">
        <ele>1013.6</ele>
        <time>2020-07-31T06:43:57Z</time>
      </trkpt>
      <trkpt lat="42.2033430" lon="2.3692840">
        <ele>1013.0</ele>
        <time>2020-07-31T06:43:58Z</time>
      </trkpt>
      <trkpt lat="42.2033500" lon="2.3694460">
        <ele>1012.2</ele>
        <time>2020-07-31T06:43:59Z</time>
      </trkpt>
      <trkpt lat="42.2033600" lon="2.3696090">
        <ele>1011.4</ele>
        <time>2020-07-31T06:44:00Z</time>
      </trkpt>
      <trkpt lat="42.2033890" lon="2.3699480">
        <ele>1009.8</ele>
        <time>2020-07-31T06:44:02Z</time>
      </trkpt>
      <trkpt lat="42.2034390" lon="2.3702970">
        <ele>1008.2</ele>
        <time>2020-07-31T06:44:04Z</time>
      </trkpt>
      <trkpt lat="42.2035690" lon="2.3708030">
        <ele>1007.2</ele>
        <time>2020-07-31T06:44:07Z</time>
      </trkpt>
      <trkpt lat="42.2036030" lon="2.3709760">
        <ele>1007.0</ele>
        <time>2020-07-31T06:44:08Z</time>
      </trkpt>
      <trkpt lat="42.2036920" lon="2.3714790">
        <ele>1005.6</ele>
        <time>2020-07-31T06:44:11Z</time>
      </trkpt>
      <trkpt lat="42.2037340" lon="2.3718170">
        <ele>1004.2</ele>
        <time>2020-07-31T06:44:13Z</time>
      </trkpt>
      <trkpt lat="42.2037490" lon="2.3719850">
        <ele>1003.6</ele>
        <time>2020-07-31T06:44:14Z</time>
      </trkpt>
      <trkpt lat="42.2037610" lon="2.3721560">
        <ele>1002.8</ele>
        <time>2020-07-31T06:44:15Z</time>
      </trkpt>
      <trkpt lat="42.2038080" lon="2.3727020">
        <ele>1000.2</ele>
        <time>2020-07-31T06:44:18Z</time>
      </trkpt>
      <trkpt lat="42.2038130" lon="2.3728890">
        <ele>999.6</ele>
        <time>2020-07-31T06:44:19Z</time>
      </trkpt>
      <trkpt lat="42.2038120" lon="2.3730730">
        <ele>999.0</ele>
        <time>2020-07-31T06:44:20Z</time>
      </trkpt>
      <trkpt lat="42.2038030" lon="2.3734440">
        <ele>997.2</ele>
        <time>2020-07-31T06:44:22Z</time>
      </trkpt>
      <trkpt lat="42.2037800" lon="2.3738230">
        <ele>995.6</ele>
        <time>2020-07-31T06:44:24Z</time>
      </trkpt>
      <trkpt lat="42.2037600" lon="2.3741970">
        <ele>993.8</ele>
        <time>2020-07-31T06:44:26Z</time>
      </trkpt>
      <trkpt lat="42.2037480" lon="2.3743890">
        <ele>992.6</ele>
        <time>2020-07-31T06:44:27Z</time>
      </trkpt>
      <trkpt lat="42.2037380" lon="2.3745850">
        <ele>991.4</ele>
        <time>2020-07-31T06:44:28Z</time>
      </trkpt>
      <trkpt lat="42.2037300" lon="2.3749750">
        <ele>989.8</ele>
        <time>2020-07-31T06:44:30Z</time>
      </trkpt>
      <trkpt lat="42.2037380" lon="2.3753570">
        <ele>988.4</ele>
        <time>2020-07-31T06:44:32Z</time>
      </trkpt>
      <trkpt lat="42.2037580" lon="2.3757400">
        <ele>986.8</ele>
        <time>2020-07-31T06:44:34Z</time>
      </trkpt>
      <trkpt lat="42.2037740" lon="2.3759310">
        <ele>986.2</ele>
        <time>2020-07-31T06:44:35Z</time>
      </trkpt>
      <trkpt lat="42.2037910" lon="2.3761190">
        <ele>985.4</ele>
        <time>2020-07-31T06:44:36Z</time>
      </trkpt>
      <trkpt lat="42.2038370" lon="2.3764820">
        <ele>983.4</ele>
        <time>2020-07-31T06:44:38Z</time>
      </trkpt>
      <trkpt lat="42.2038640" lon="2.3766710">
        <ele>982.4</ele>
        <time>2020-07-31T06:44:39Z</time>
      </trkpt>
      <trkpt lat="42.2038900" lon="2.3768530">
        <ele>981.2</ele>
        <time>2020-07-31T06:44:40Z</time>
      </trkpt>
      <trkpt lat="42.2039200" lon="2.3772300">
        <ele>980.0</ele>
        <time>2020-07-31T06:44:42Z</time>
      </trkpt>
      <trkpt lat="42.2039120" lon="2.3775910">
        <ele>978.4</ele>
        <time>2020-07-31T06:44:44Z</time>
      </trkpt>
      <trkpt lat="42.2038860" lon="2.3777610">
        <ele>977.0</ele>
        <time>2020-07-31T06:44:45Z</time>
      </trkpt>
      <trkpt lat="42.2038000" lon="2.3780790">
        <ele>975.8</ele>
        <time>2020-07-31T06:44:47Z</time>
      </trkpt>
      <trkpt lat="42.2036820" lon="2.3783700">
        <ele>974.8</ele>
        <time>2020-07-31T06:44:49Z</time>
      </trkpt>
      <trkpt lat="42.2036160" lon="2.3785110">
        <ele>974.2</ele>
        <time>2020-07-31T06:44:50Z</time>
      </trkpt>
      <trkpt lat="42.2035500" lon="2.3786430">
        <ele>973.8</ele>
        <time>2020-07-31T06:44:51Z</time>
      </trkpt>
      <trkpt lat="42.2032100" lon="2.3792780">
        <ele>972.8</ele>
        <time>2020-07-31T06:44:56Z</time>
      </trkpt>
      <trkpt lat="42.2031390" lon="2.3794030">
        <ele>972.6</ele>
        <time>2020-07-31T06:44:57Z</time>
      </trkpt>
      <trkpt lat="42.2028630" lon="2.3799010">
        <ele>971.8</ele>
        <time>2020-07-31T06:45:01Z</time>
      </trkpt>
      <trkpt lat="42.2027850" lon="2.3803390">
        <ele>970.4</ele>
        <time>2020-07-31T06:45:04Z</time>
      </trkpt>
      <trkpt lat="42.2027790" lon="2.3806530">
        <ele>970.0</ele>
        <time>2020-07-31T06:45:06Z</time>
      </trkpt>
      <trkpt lat="42.2027690" lon="2.3811260">
        <ele>969.6</ele>
        <time>2020-07-31T06:45:09Z</time>
      </trkpt>
      <trkpt lat="42.2027710" lon="2.3814430">
        <ele>969.2</ele>
        <time>2020-07-31T06:45:11Z</time>
      </trkpt>
      <trkpt lat="42.2027740" lon="2.3816050">
        <ele>967.6</ele>
        <time>2020-07-31T06:45:12Z</time>
      </trkpt>
      <trkpt lat="42.2027710" lon="2.3817660">
        <ele>966.4</ele>
        <time>2020-07-31T06:45:13Z</time>
      </trkpt>
      <trkpt lat="42.2027630" lon="2.3819320">
        <ele>965.2</ele>
        <time>2020-07-31T06:45:14Z</time>
      </trkpt>
      <trkpt lat="42.2027680" lon="2.3820970">
        <ele>964.6</ele>
        <time>2020-07-31T06:45:15Z</time>
      </trkpt>
      <trkpt lat="42.2027800" lon="2.3822630">
        <ele>964.2</ele>
        <time>2020-07-31T06:45:16Z</time>
      </trkpt>
      <trkpt lat="42.2027860" lon="2.3824270">
        <ele>963.4</ele>
        <time>2020-07-31T06:45:17Z</time>
      </trkpt>
      <trkpt lat="42.2027890" lon="2.3825920">
        <ele>962.8</ele>
        <time>2020-07-31T06:45:18Z</time>
      </trkpt>
      <trkpt lat="42.2027820" lon="2.3829120">
        <ele>961.6</ele>
        <time>2020-07-31T06:45:20Z</time>
      </trkpt>
      <trkpt lat="42.2027590" lon="2.3830790">
        <ele>960.8</ele>
        <time>2020-07-31T06:45:21Z</time>
      </trkpt>
      <trkpt lat="42.2027250" lon="2.3832420">
        <ele>960.2</ele>
        <time>2020-07-31T06:45:22Z</time>
      </trkpt>
      <trkpt lat="42.2026330" lon="2.3835600">
        <ele>958.8</ele>
        <time>2020-07-31T06:45:24Z</time>
      </trkpt>
      <trkpt lat="42.2025850" lon="2.3837230">
        <ele>958.0</ele>
        <time>2020-07-31T06:45:25Z</time>
      </trkpt>
      <trkpt lat="42.2025370" lon="2.3838850">
        <ele>957.4</ele>
        <time>2020-07-31T06:45:26Z</time>
      </trkpt>
      <trkpt lat="42.2024460" lon="2.3842100">
        <ele>955.8</ele>
        <time>2020-07-31T06:45:28Z</time>
      </trkpt>
      <trkpt lat="42.2023500" lon="2.3845390">
        <ele>954.4</ele>
        <time>2020-07-31T06:45:30Z</time>
      </trkpt>
      <trkpt lat="42.2022970" lon="2.3847030">
        <ele>954.0</ele>
        <time>2020-07-31T06:45:31Z</time>
      </trkpt>
      <trkpt lat="42.2021980" lon="2.3850290">
        <ele>953.2</ele>
        <time>2020-07-31T06:45:33Z</time>
      </trkpt>
      <trkpt lat="42.2020910" lon="2.3853620">
        <ele>952.0</ele>
        <time>2020-07-31T06:45:35Z</time>
      </trkpt>
      <trkpt lat="42.2020290" lon="2.3855280">
        <ele>951.4</ele>
        <time>2020-07-31T06:45:36Z</time>
      </trkpt>
      <trkpt lat="42.2019600" lon="2.3856950">
        <ele>950.4</ele>
        <time>2020-07-31T06:45:37Z</time>
      </trkpt>
      <trkpt lat="42.2018320" lon="2.3860370">
        <ele>949.0</ele>
        <time>2020-07-31T06:45:39Z</time>
      </trkpt>
      <trkpt lat="42.2017700" lon="2.3862040">
        <ele>947.4</ele>
        <time>2020-07-31T06:45:40Z</time>
      </trkpt>
      <trkpt lat="42.2016350" lon="2.3865460">
        <ele>945.2</ele>
        <time>2020-07-31T06:45:42Z</time>
      </trkpt>
      <trkpt lat="42.2015650" lon="2.3867150">
        <ele>944.2</ele>
        <time>2020-07-31T06:45:43Z</time>
      </trkpt>
      <trkpt lat="42.2015090" lon="2.3868870">
        <ele>943.2</ele>
        <time>2020-07-31T06:45:44Z</time>
      </trkpt>
      <trkpt lat="42.2014470" lon="2.3872660">
        <ele>942.2</ele>
        <time>2020-07-31T06:45:46Z</time>
      </trkpt>
      <trkpt lat="42.2014350" lon="2.3874660">
        <ele>940.8</ele>
        <time>2020-07-31T06:45:47Z</time>
      </trkpt>
      <trkpt lat="42.2014250" lon="2.3876670">
        <ele>939.6</ele>
        <time>2020-07-31T06:45:48Z</time>
      </trkpt>
      <trkpt lat="42.2013950" lon="2.3880750">
        <ele>938.4</ele>
        <time>2020-07-31T06:45:50Z</time>
      </trkpt>
      <trkpt lat="42.2013580" lon="2.3884750">
        <ele>936.8</ele>
        <time>2020-07-31T06:45:52Z</time>
      </trkpt>
      <trkpt lat="42.2013250" lon="2.3886740">
        <ele>935.8</ele>
        <time>2020-07-31T06:45:53Z</time>
      </trkpt>
      <trkpt lat="42.2012760" lon="2.3888670">
        <ele>934.8</ele>
        <time>2020-07-31T06:45:54Z</time>
      </trkpt>
      <trkpt lat="42.2012200" lon="2.3890580">
        <ele>933.6</ele>
        <time>2020-07-31T06:45:55Z</time>
      </trkpt>
      <trkpt lat="42.2011640" lon="2.3892450">
        <ele>932.2</ele>
        <time>2020-07-31T06:45:56Z</time>
      </trkpt>
      <trkpt lat="42.2011050" lon="2.3894360">
        <ele>931.0</ele>
        <time>2020-07-31T06:45:57Z</time>
      </trkpt>
      <trkpt lat="42.2010400" lon="2.3896250">
        <ele>929.6</ele>
        <time>2020-07-31T06:45:58Z</time>
      </trkpt>
      <trkpt lat="42.2009590" lon="2.3898110">
        <ele>928.6</ele>
        <time>2020-07-31T06:45:59Z</time>
      </trkpt>
      <trkpt lat="42.2008660" lon="2.3899890">
        <ele>927.6</ele>
        <time>2020-07-31T06:46:00Z</time>
      </trkpt>
      <trkpt lat="42.2006580" lon="2.3903060">
        <ele>925.8</ele>
        <time>2020-07-31T06:46:02Z</time>
      </trkpt>
      <trkpt lat="42.2005560" lon="2.3904670">
        <ele>924.8</ele>
        <time>2020-07-31T06:46:03Z</time>
      </trkpt>
      <trkpt lat="42.2004500" lon="2.3906200">
        <ele>923.8</ele>
        <time>2020-07-31T06:46:04Z</time>
      </trkpt>
      <trkpt lat="42.2003390" lon="2.3907690">
        <ele>922.8</ele>
        <time>2020-07-31T06:46:05Z</time>
      </trkpt>
      <trkpt lat="42.2002260" lon="2.3909140">
        <ele>921.8</ele>
        <time>2020-07-31T06:46:06Z</time>
      </trkpt>
      <trkpt lat="42.2001080" lon="2.3910600">
        <ele>920.8</ele>
        <time>2020-07-31T06:46:07Z</time>
      </trkpt>
      <trkpt lat="42.1999920" lon="2.3911960">
        <ele>919.0</ele>
        <time>2020-07-31T06:46:08Z</time>
      </trkpt>
      <trkpt lat="42.1998800" lon="2.3913330">
        <ele>918.0</ele>
        <time>2020-07-31T06:46:09Z</time>
      </trkpt>
      <trkpt lat="42.1996880" lon="2.3916010">
        <ele>916.4</ele>
        <time>2020-07-31T06:46:11Z</time>
      </trkpt>
      <trkpt lat="42.1996110" lon="2.3917390">
        <ele>915.6</ele>
        <time>2020-07-31T06:46:12Z</time>
      </trkpt>
      <trkpt lat="42.1995570" lon="2.3918930">
        <ele>914.4</ele>
        <time>2020-07-31T06:46:13Z</time>
      </trkpt>
      <trkpt lat="42.1995270" lon="2.3920640">
        <ele>913.0</ele>
        <time>2020-07-31T06:46:14Z</time>
      </trkpt>
      <trkpt lat="42.1995030" lon="2.3922380">
        <ele>911.8</ele>
        <time>2020-07-31T06:46:15Z</time>
      </trkpt>
      <trkpt lat="42.1994520" lon="2.3925950">
        <ele>910.4</ele>
        <time>2020-07-31T06:46:17Z</time>
      </trkpt>
      <trkpt lat="42.1994220" lon="2.3931460">
        <ele>909.4</ele>
        <time>2020-07-31T06:46:20Z</time>
      </trkpt>
      <trkpt lat="42.1994390" lon="2.3933280">
        <ele>908.6</ele>
        <time>2020-07-31T06:46:21Z</time>
      </trkpt>
      <trkpt lat="42.1995100" lon="2.3936880">
        <ele>906.8</ele>
        <time>2020-07-31T06:46:23Z</time>
      </trkpt>
      <trkpt lat="42.1995560" lon="2.3938680">
        <ele>906.0</ele>
        <time>2020-07-31T06:46:24Z</time>
      </trkpt>
      <trkpt lat="42.1996040" lon="2.3940460">
        <ele>905.2</ele>
        <time>2020-07-31T06:46:25Z</time>
      </trkpt>
      <trkpt lat="42.1996980" lon="2.3944100">
        <ele>903.4</ele>
        <time>2020-07-31T06:46:27Z</time>
      </trkpt>
      <trkpt lat="42.1997950" lon="2.3947710">
        <ele>901.4</ele>
        <time>2020-07-31T06:46:29Z</time>
      </trkpt>
      <trkpt lat="42.1998420" lon="2.3949500">
        <ele>900.4</ele>
        <time>2020-07-31T06:46:30Z</time>
      </trkpt>
      <trkpt lat="42.1998740" lon="2.3951310">
        <ele>899.2</ele>
        <time>2020-07-31T06:46:31Z</time>
      </trkpt>
      <trkpt lat="42.1998780" lon="2.3953220">
        <ele>898.4</ele>
        <time>2020-07-31T06:46:32Z</time>
      </trkpt>
      <trkpt lat="42.1998600" lon="2.3955060">
        <ele>897.2</ele>
        <time>2020-07-31T06:46:33Z</time>
      </trkpt>
      <trkpt lat="42.1998350" lon="2.3956890">
        <ele>896.2</ele>
        <time>2020-07-31T06:46:34Z</time>
      </trkpt>
      <trkpt lat="42.1998150" lon="2.3958740">
        <ele>894.6</ele>
        <time>2020-07-31T06:46:35Z</time>
      </trkpt>
      <trkpt lat="42.1998100" lon="2.3960670">
        <ele>894.0</ele>
        <time>2020-07-31T06:46:36Z</time>
      </trkpt>
      <trkpt lat="42.1998220" lon="2.3962610">
        <ele>893.2</ele>
        <time>2020-07-31T06:46:37Z</time>
      </trkpt>
      <trkpt lat="42.1998450" lon="2.3964490">
        <ele>892.6</ele>
        <time>2020-07-31T06:46:38Z</time>
      </trkpt>
      <trkpt lat="42.1998690" lon="2.3966330">
        <ele>891.8</ele>
        <time>2020-07-31T06:46:39Z</time>
      </trkpt>
      <trkpt lat="42.1998780" lon="2.3968200">
        <ele>891.2</ele>
        <time>2020-07-31T06:46:40Z</time>
      </trkpt>
      <trkpt lat="42.1998620" lon="2.3970010">
        <ele>890.4</ele>
        <time>2020-07-31T06:46:41Z</time>
      </trkpt>
      <trkpt lat="42.1997450" lon="2.3973140">
        <ele>889.2</ele>
        <time>2020-07-31T06:46:43Z</time>
      </trkpt>
      <trkpt lat="42.1995490" lon="2.3975390">
        <ele>887.2</ele>
        <time>2020-07-31T06:46:45Z</time>
      </trkpt>
      <trkpt lat="42.1994480" lon="2.3976400">
        <ele>886.2</ele>
        <time>2020-07-31T06:46:46Z</time>
      </trkpt>
      <trkpt lat="42.1993480" lon="2.3977640">
        <ele>885.2</ele>
        <time>2020-07-31T06:46:47Z</time>
      </trkpt>
      <trkpt lat="42.1992540" lon="2.3978970">
        <ele>884.2</ele>
        <time>2020-07-31T06:46:48Z</time>
      </trkpt>
      <trkpt lat="42.1991630" lon="2.3980380">
        <ele>883.4</ele>
        <time>2020-07-31T06:46:49Z</time>
      </trkpt>
      <trkpt lat="42.1990680" lon="2.3981820">
        <ele>882.8</ele>
        <time>2020-07-31T06:46:50Z</time>
      </trkpt>
      <trkpt lat="42.1988780" lon="2.3984710">
        <ele>881.8</ele>
        <time>2020-07-31T06:46:52Z</time>
      </trkpt>
      <trkpt lat="42.1986970" lon="2.3987590">
        <ele>880.8</ele>
        <time>2020-07-31T06:46:54Z</time>
      </trkpt>
      <trkpt lat="42.1986110" lon="2.3989020">
        <ele>880.4</ele>
        <time>2020-07-31T06:46:55Z</time>
      </trkpt>
      <trkpt lat="42.1985350" lon="2.3990520">
        <ele>879.2</ele>
        <time>2020-07-31T06:46:56Z</time>
      </trkpt>
      <trkpt lat="42.1984710" lon="2.3992110">
        <ele>878.0</ele>
        <time>2020-07-31T06:46:57Z</time>
      </trkpt>
      <trkpt lat="42.1984250" lon="2.3993860">
        <ele>877.0</ele>
        <time>2020-07-31T06:46:58Z</time>
      </trkpt>
      <trkpt lat="42.1983960" lon="2.3995680">
        <ele>876.0</ele>
        <time>2020-07-31T06:46:59Z</time>
      </trkpt>
      <trkpt lat="42.1983790" lon="2.3997530">
        <ele>874.8</ele>
        <time>2020-07-31T06:47:00Z</time>
      </trkpt>
      <trkpt lat="42.1983660" lon="2.4001320">
        <ele>871.8</ele>
        <time>2020-07-31T06:47:02Z</time>
      </trkpt>
      <trkpt lat="42.1983600" lon="2.4005260">
        <ele>870.6</ele>
        <time>2020-07-31T06:47:04Z</time>
      </trkpt>
      <trkpt lat="42.1983540" lon="2.4009140">
        <ele>869.2</ele>
        <time>2020-07-31T06:47:06Z</time>
      </trkpt>
      <trkpt lat="42.1984030" lon="2.4012910">
        <ele>866.8</ele>
        <time>2020-07-31T06:47:08Z</time>
      </trkpt>
      <trkpt lat="42.1984570" lon="2.4014710">
        <ele>865.8</ele>
        <time>2020-07-31T06:47:09Z</time>
      </trkpt>
      <trkpt lat="42.1985340" lon="2.4016310">
        <ele>865.0</ele>
        <time>2020-07-31T06:47:10Z</time>
      </trkpt>
      <trkpt lat="42.1986210" lon="2.4017760">
        <ele>864.2</ele>
        <time>2020-07-31T06:47:11Z</time>
      </trkpt>
      <trkpt lat="42.1987860" lon="2.4020530">
        <ele>862.4</ele>
        <time>2020-07-31T06:47:13Z</time>
      </trkpt>
      <trkpt lat="42.1988450" lon="2.4022120">
        <ele>861.6</ele>
        <time>2020-07-31T06:47:14Z</time>
      </trkpt>
      <trkpt lat="42.1989370" lon="2.4025560">
        <ele>860.2</ele>
        <time>2020-07-31T06:47:16Z</time>
      </trkpt>
      <trkpt lat="42.1990440" lon="2.4029050">
        <ele>859.0</ele>
        <time>2020-07-31T06:47:18Z</time>
      </trkpt>
      <trkpt lat="42.1991750" lon="2.4032490">
        <ele>857.2</ele>
        <time>2020-07-31T06:47:20Z</time>
      </trkpt>
      <trkpt lat="42.1992970" lon="2.4036050">
        <ele>855.4</ele>
        <time>2020-07-31T06:47:22Z</time>
      </trkpt>
      <trkpt lat="42.1993920" lon="2.4039780">
        <ele>853.8</ele>
        <time>2020-07-31T06:47:24Z</time>
      </trkpt>
      <trkpt lat="42.1994190" lon="2.4041660">
        <ele>853.0</ele>
        <time>2020-07-31T06:47:25Z</time>
      </trkpt>
      <trkpt lat="42.1994160" lon="2.4043550">
        <ele>852.0</ele>
        <time>2020-07-31T06:47:26Z</time>
      </trkpt>
      <trkpt lat="42.1993800" lon="2.4045350">
        <ele>850.6</ele>
        <time>2020-07-31T06:47:27Z</time>
      </trkpt>
      <trkpt lat="42.1993140" lon="2.4047030">
        <ele>849.2</ele>
        <time>2020-07-31T06:47:28Z</time>
      </trkpt>
      <trkpt lat="42.1992260" lon="2.4048510">
        <ele>847.8</ele>
        <time>2020-07-31T06:47:29Z</time>
      </trkpt>
      <trkpt lat="42.1991250" lon="2.4049860">
        <ele>845.0</ele>
        <time>2020-07-31T06:47:30Z</time>
      </trkpt>
      <trkpt lat="42.1990170" lon="2.4051120">
        <ele>844.0</ele>
        <time>2020-07-31T06:47:31Z</time>
      </trkpt>
      <trkpt lat="42.1989070" lon="2.4052360">
        <ele>842.6</ele>
        <time>2020-07-31T06:47:32Z</time>
      </trkpt>
      <trkpt lat="42.1987970" lon="2.4053670">
        <ele>841.4</ele>
        <time>2020-07-31T06:47:33Z</time>
      </trkpt>
      <trkpt lat="42.1985780" lon="2.4056250">
        <ele>839.6</ele>
        <time>2020-07-31T06:47:35Z</time>
      </trkpt>
      <trkpt lat="42.1983530" lon="2.4058910">
        <ele>837.8</ele>
        <time>2020-07-31T06:47:37Z</time>
      </trkpt>
      <trkpt lat="42.1982540" lon="2.4060450">
        <ele>836.8</ele>
        <time>2020-07-31T06:47:38Z</time>
      </trkpt>
      <trkpt lat="42.1981750" lon="2.4062140">
        <ele>835.8</ele>
        <time>2020-07-31T06:47:39Z</time>
      </trkpt>
      <trkpt lat="42.1981170" lon="2.4063990">
        <ele>834.6</ele>
        <time>2020-07-31T06:47:40Z</time>
      </trkpt>
      <trkpt lat="42.1980780" lon="2.4065860">
        <ele>833.2</ele>
        <time>2020-07-31T06:47:41Z</time>
      </trkpt>
      <trkpt lat="42.1980440" lon="2.4067800">
        <ele>831.8</ele>
        <time>2020-07-31T06:47:42Z</time>
      </trkpt>
      <trkpt lat="42.1980150" lon="2.4069820">
        <ele>830.6</ele>
        <time>2020-07-31T06:47:43Z</time>
      </trkpt>
      <trkpt lat="42.1979880" lon="2.4071810">
        <ele>829.4</ele>
        <time>2020-07-31T06:47:44Z</time>
      </trkpt>
      <trkpt lat="42.1979600" lon="2.4073830">
        <ele>828.2</ele>
        <time>2020-07-31T06:47:45Z</time>
      </trkpt>
      <trkpt lat="42.1979310" lon="2.4075860">
        <ele>827.0</ele>
        <time>2020-07-31T06:47:46Z</time>
      </trkpt>
      <trkpt lat="42.1979010" lon="2.4077870">
        <ele>825.6</ele>
        <time>2020-07-31T06:47:47Z</time>
      </trkpt>
      <trkpt lat="42.1978700" lon="2.4079970">
        <ele>824.0</ele>
        <time>2020-07-31T06:47:48Z</time>
      </trkpt>
      <trkpt lat="42.1978380" lon="2.4082050">
        <ele>822.8</ele>
        <time>2020-07-31T06:47:49Z</time>
      </trkpt>
      <trkpt lat="42.1978090" lon="2.4084130">
        <ele>821.2</ele>
        <time>2020-07-31T06:47:50Z</time>
      </trkpt>
      <trkpt lat="42.1977840" lon="2.4086250">
        <ele>819.8</ele>
        <time>2020-07-31T06:47:51Z</time>
      </trkpt>
      <trkpt lat="42.1977650" lon="2.4088340">
        <ele>818.4</ele>
        <time>2020-07-31T06:47:52Z</time>
      </trkpt>
      <trkpt lat="42.1977490" lon="2.4090410">
        <ele>817.0</ele>
        <time>2020-07-31T06:47:53Z</time>
      </trkpt>
      <trkpt lat="42.1977320" lon="2.4092440">
        <ele>815.4</ele>
        <time>2020-07-31T06:47:54Z</time>
      </trkpt>
      <trkpt lat="42.1977140" lon="2.4094490">
        <ele>814.0</ele>
        <time>2020-07-31T06:47:55Z</time>
      </trkpt>
      <trkpt lat="42.1977000" lon="2.4096540">
        <ele>812.8</ele>
        <time>2020-07-31T06:47:56Z</time>
      </trkpt>
      <trkpt lat="42.1976880" lon="2.4098580">
        <ele>810.0</ele>
        <time>2020-07-31T06:47:57Z</time>
      </trkpt>
      <trkpt lat="42.1976770" lon="2.4100650">
        <ele>808.4</ele>
        <time>2020-07-31T06:47:58Z</time>
      </trkpt>
      <trkpt lat="42.1976610" lon="2.4104650">
        <ele>806.6</ele>
        <time>2020-07-31T06:48:00Z</time>
      </trkpt>
      <trkpt lat="42.1976480" lon="2.4108780">
        <ele>804.8</ele>
        <time>2020-07-31T06:48:02Z</time>
      </trkpt>
      <trkpt lat="42.1976390" lon="2.4112880">
        <ele>803.0</ele>
        <time>2020-07-31T06:48:04Z</time>
      </trkpt>
      <trkpt lat="42.1976400" lon="2.4117010">
        <ele>801.4</ele>
        <time>2020-07-31T06:48:06Z</time>
      </trkpt>
      <trkpt lat="42.1976400" lon="2.4121110">
        <ele>799.8</ele>
        <time>2020-07-31T06:48:08Z</time>
      </trkpt>
      <trkpt lat="42.1976460" lon="2.4125200">
        <ele>798.0</ele>
        <time>2020-07-31T06:48:10Z</time>
      </trkpt>
      <trkpt lat="42.1976520" lon="2.4129260">
        <ele>796.4</ele>
        <time>2020-07-31T06:48:12Z</time>
      </trkpt>
      <trkpt lat="42.1976770" lon="2.4133380">
        <ele>794.6</ele>
        <time>2020-07-31T06:48:14Z</time>
      </trkpt>
      <trkpt lat="42.1977110" lon="2.4137460">
        <ele>792.8</ele>
        <time>2020-07-31T06:48:16Z</time>
      </trkpt>
      <trkpt lat="42.1977300" lon="2.4139520">
        <ele>791.8</ele>
        <time>2020-07-31T06:48:17Z</time>
      </trkpt>
      <trkpt lat="42.1977740" lon="2.4143650">
        <ele>790.0</ele>
        <time>2020-07-31T06:48:19Z</time>
      </trkpt>
      <trkpt lat="42.1978230" lon="2.4147750">
        <ele>788.0</ele>
        <time>2020-07-31T06:48:21Z</time>
      </trkpt>
      <trkpt lat="42.1978560" lon="2.4149760">
        <ele>786.8</ele>
        <time>2020-07-31T06:48:22Z</time>
      </trkpt>
      <trkpt lat="42.1978940" lon="2.4151760">
        <ele>785.6</ele>
        <time>2020-07-31T06:48:23Z</time>
      </trkpt>
      <trkpt lat="42.1979390" lon="2.4153740">
        <ele>783.6</ele>
        <time>2020-07-31T06:48:24Z</time>
      </trkpt>
      <trkpt lat="42.1980000" lon="2.4157780">
        <ele>782.0</ele>
        <time>2020-07-31T06:48:26Z</time>
      </trkpt>
      <trkpt lat="42.1980040" lon="2.4159840">
        <ele>780.8</ele>
        <time>2020-07-31T06:48:27Z</time>
      </trkpt>
      <trkpt lat="42.1979900" lon="2.4161860">
        <ele>779.8</ele>
        <time>2020-07-31T06:48:28Z</time>
      </trkpt>
      <trkpt lat="42.1979690" lon="2.4163870">
        <ele>778.8</ele>
        <time>2020-07-31T06:48:29Z</time>
      </trkpt>
      <trkpt lat="42.1979460" lon="2.4165870">
        <ele>778.0</ele>
        <time>2020-07-31T06:48:30Z</time>
      </trkpt>
      <trkpt lat="42.1979220" lon="2.4167900">
        <ele>777.0</ele>
        <time>2020-07-31T06:48:31Z</time>
      </trkpt>
      <trkpt lat="42.1979030" lon="2.4169910">
        <ele>776.0</ele>
        <time>2020-07-31T06:48:32Z</time>
      </trkpt>
      <trkpt lat="42.1978680" lon="2.4173970">
        <ele>774.0</ele>
        <time>2020-07-31T06:48:34Z</time>
      </trkpt>
      <trkpt lat="42.1978540" lon="2.4176000">
        <ele>773.0</ele>
        <time>2020-07-31T06:48:35Z</time>
      </trkpt>
      <trkpt lat="42.1978390" lon="2.4178000">
        <ele>772.0</ele>
        <time>2020-07-31T06:48:36Z</time>
      </trkpt>
      <trkpt lat="42.1978180" lon="2.4180020">
        <ele>771.4</ele>
        <time>2020-07-31T06:48:37Z</time>
      </trkpt>
      <trkpt lat="42.1977550" lon="2.4184070">
        <ele>769.8</ele>
        <time>2020-07-31T06:48:39Z</time>
      </trkpt>
      <trkpt lat="42.1977210" lon="2.4186110">
        <ele>769.4</ele>
        <time>2020-07-31T06:48:40Z</time>
      </trkpt>
      <trkpt lat="42.1976840" lon="2.4188130">
        <ele>767.8</ele>
        <time>2020-07-31T06:48:41Z</time>
      </trkpt>
      <trkpt lat="42.1976020" lon="2.4192110">
        <ele>766.4</ele>
        <time>2020-07-31T06:48:43Z</time>
      </trkpt>
      <trkpt lat="42.1974470" lon="2.4197900">
        <ele>764.0</ele>
        <time>2020-07-31T06:48:46Z</time>
      </trkpt>
      <trkpt lat="42.1973340" lon="2.4201700">
        <ele>761.6</ele>
        <time>2020-07-31T06:48:48Z</time>
      </trkpt>
      <trkpt lat="42.1972770" lon="2.4203600">
        <ele>760.4</ele>
        <time>2020-07-31T06:48:49Z</time>
      </trkpt>
      <trkpt lat="42.1972220" lon="2.4205500">
        <ele>759.0</ele>
        <time>2020-07-31T06:48:50Z</time>
      </trkpt>
      <trkpt lat="42.1971340" lon="2.4209300">
        <ele>756.8</ele>
        <time>2020-07-31T06:48:52Z</time>
      </trkpt>
      <trkpt lat="42.1971050" lon="2.4211230">
        <ele>755.8</ele>
        <time>2020-07-31T06:48:53Z</time>
      </trkpt>
      <trkpt lat="42.1970880" lon="2.4213140">
        <ele>754.8</ele>
        <time>2020-07-31T06:48:54Z</time>
      </trkpt>
      <trkpt lat="42.1970750" lon="2.4215080">
        <ele>753.4</ele>
        <time>2020-07-31T06:48:55Z</time>
      </trkpt>
      <trkpt lat="42.1970600" lon="2.4218510">
        <ele>751.8</ele>
        <time>2020-07-31T06:48:57Z</time>
      </trkpt>
      <trkpt lat="42.1970560" lon="2.4220070">
        <ele>751.0</ele>
        <time>2020-07-31T06:48:58Z</time>
      </trkpt>
      <trkpt lat="42.1970540" lon="2.4221470">
        <ele>750.2</ele>
        <time>2020-07-31T06:48:59Z</time>
      </trkpt>
      <trkpt lat="42.1970340" lon="2.4223700">
        <ele>748.8</ele>
        <time>2020-07-31T06:49:01Z</time>
      </trkpt>
      <trkpt lat="42.1969400" lon="2.4224750">
        <ele>748.2</ele>
        <time>2020-07-31T06:49:03Z</time>
      </trkpt>
      <trkpt lat="42.1968530" lon="2.4224190">
        <ele>748.0</ele>
        <time>2020-07-31T06:49:05Z</time>
      </trkpt>
      <trkpt lat="42.1968380" lon="2.4223290">
        <ele>747.8</ele>
        <time>2020-07-31T06:49:06Z</time>
      </trkpt>
      <trkpt lat="42.1968420" lon="2.4222300">
        <ele>747.8</ele>
        <time>2020-07-31T06:49:07Z</time>
      </trkpt>
      <trkpt lat="42.1968500" lon="2.4221250">
        <ele>747.6</ele>
        <time>2020-07-31T06:49:08Z</time>
      </trkpt>
      <trkpt lat="42.1968980" lon="2.4215190">
        <ele>746.8</ele>
        <time>2020-07-31T06:49:13Z</time>
      </trkpt>
      <trkpt lat="42.1969060" lon="2.4213820">
        <ele>746.8</ele>
        <time>2020-07-31T06:49:14Z</time>
      </trkpt>
      <trkpt lat="42.1969330" lon="2.4209480">
        <ele>745.6</ele>
        <time>2020-07-31T06:49:17Z</time>
      </trkpt>
      <trkpt lat="42.1969710" lon="2.4206440">
        <ele>743.6</ele>
        <time>2020-07-31T06:49:19Z</time>
      </trkpt>
      <trkpt lat="42.1970110" lon="2.4203250">
        <ele>742.0</ele>
        <time>2020-07-31T06:49:21Z</time>
      </trkpt>
      <trkpt lat="42.1970500" lon="2.4199980">
        <ele>740.8</ele>
        <time>2020-07-31T06:49:23Z</time>
      </trkpt>
      <trkpt lat="42.1971150" lon="2.4194940">
        <ele>739.4</ele>
        <time>2020-07-31T06:49:26Z</time>
      </trkpt>
      <trkpt lat="42.1971350" lon="2.4193170">
        <ele>738.2</ele>
        <time>2020-07-31T06:49:27Z</time>
      </trkpt>
      <trkpt lat="42.1971530" lon="2.4191360">
        <ele>737.0</ele>
        <time>2020-07-31T06:49:28Z</time>
      </trkpt>
      <trkpt lat="42.1971730" lon="2.4189580">
        <ele>736.2</ele>
        <time>2020-07-31T06:49:29Z</time>
      </trkpt>
      <trkpt lat="42.1971930" lon="2.4187850">
        <ele>735.4</ele>
        <time>2020-07-31T06:49:30Z</time>
      </trkpt>
      <trkpt lat="42.1972230" lon="2.4184320">
        <ele>733.8</ele>
        <time>2020-07-31T06:49:32Z</time>
      </trkpt>
      <trkpt lat="42.1972320" lon="2.4180940">
        <ele>732.0</ele>
        <time>2020-07-31T06:49:34Z</time>
      </trkpt>
      <trkpt lat="42.1972150" lon="2.4177340">
        <ele>730.6</ele>
        <time>2020-07-31T06:49:36Z</time>
      </trkpt>
      <trkpt lat="42.1971750" lon="2.4173650">
        <ele>729.0</ele>
        <time>2020-07-31T06:49:38Z</time>
      </trkpt>
      <trkpt lat="42.1971590" lon="2.4171860">
        <ele>728.0</ele>
        <time>2020-07-31T06:49:39Z</time>
      </trkpt>
      <trkpt lat="42.1971200" lon="2.4168330">
        <ele>726.4</ele>
        <time>2020-07-31T06:49:41Z</time>
      </trkpt>
      <trkpt lat="42.1970780" lon="2.4165390">
        <ele>724.8</ele>
        <time>2020-07-31T06:49:43Z</time>
      </trkpt>
      <trkpt lat="42.1970480" lon="2.4164220">
        <ele>724.2</ele>
        <time>2020-07-31T06:49:44Z</time>
      </trkpt>
      <trkpt lat="42.1969880" lon="2.4163160">
        <ele>723.4</ele>
        <time>2020-07-31T06:49:45Z</time>
      </trkpt>
      <trkpt lat="42.1969140" lon="2.4162450">
        <ele>722.4</ele>
        <time>2020-07-31T06:49:46Z</time>
      </trkpt>
      <trkpt lat="42.1968410" lon="2.4162270">
        <ele>722.0</ele>
        <time>2020-07-31T06:49:47Z</time>
      </trkpt>
      <trkpt lat="42.1967270" lon="2.4163000">
        <ele>721.8</ele>
        <time>2020-07-31T06:49:49Z</time>
      </trkpt>
      <trkpt lat="42.1967000" lon="2.4165080">
        <ele>721.4</ele>
        <time>2020-07-31T06:49:51Z</time>
      </trkpt>
      <trkpt lat="42.1966950" lon="2.4166380">
        <ele>721.2</ele>
        <time>2020-07-31T06:49:52Z</time>
      </trkpt>
      <trkpt lat="42.1966950" lon="2.4167750">
        <ele>721.0</ele>
        <time>2020-07-31T06:49:53Z</time>
      </trkpt>
      <trkpt lat="42.1966990" lon="2.4170600">
        <ele>720.8</ele>
        <time>2020-07-31T06:49:55Z</time>
      </trkpt>
      <trkpt lat="42.1966990" lon="2.4174920">
        <ele>720.0</ele>
        <time>2020-07-31T06:49:58Z</time>
      </trkpt>
      <trkpt lat="42.1966950" lon="2.4178040">
        <ele>718.8</ele>
        <time>2020-07-31T06:50:00Z</time>
      </trkpt>
      <trkpt lat="42.1966820" lon="2.4179640">
        <ele>718.0</ele>
        <time>2020-07-31T06:50:01Z</time>
      </trkpt>
      <trkpt lat="42.1966540" lon="2.4181200">
        <ele>717.4</ele>
        <time>2020-07-31T06:50:02Z</time>
      </trkpt>
      <trkpt lat="42.1965670" lon="2.4184360">
        <ele>716.0</ele>
        <time>2020-07-31T06:50:04Z</time>
      </trkpt>
      <trkpt lat="42.1964860" lon="2.4187550">
        <ele>714.8</ele>
        <time>2020-07-31T06:50:06Z</time>
      </trkpt>
      <trkpt lat="42.1964190" lon="2.4190940">
        <ele>713.2</ele>
        <time>2020-07-31T06:50:08Z</time>
      </trkpt>
      <trkpt lat="42.1963600" lon="2.4194350">
        <ele>711.6</ele>
        <time>2020-07-31T06:50:10Z</time>
      </trkpt>
      <trkpt lat="42.1962970" lon="2.4197800">
        <ele>710.0</ele>
        <time>2020-07-31T06:50:12Z</time>
      </trkpt>
      <trkpt lat="42.1962650" lon="2.4199560">
        <ele>708.4</ele>
        <time>2020-07-31T06:50:13Z</time>
      </trkpt>
      <trkpt lat="42.1962320" lon="2.4201320">
        <ele>707.6</ele>
        <time>2020-07-31T06:50:14Z</time>
      </trkpt>
      <trkpt lat="42.1961960" lon="2.4203090">
        <ele>706.8</ele>
        <time>2020-07-31T06:50:15Z</time>
      </trkpt>
      <trkpt lat="42.1961230" lon="2.4206600">
        <ele>705.2</ele>
        <time>2020-07-31T06:50:17Z</time>
      </trkpt>
      <trkpt lat="42.1960510" lon="2.4210180">
        <ele>704.2</ele>
        <time>2020-07-31T06:50:19Z</time>
      </trkpt>
      <trkpt lat="42.1959720" lon="2.4213840">
        <ele>702.8</ele>
        <time>2020-07-31T06:50:21Z</time>
      </trkpt>
      <trkpt lat="42.1959010" lon="2.4217550">
        <ele>701.2</ele>
        <time>2020-07-31T06:50:23Z</time>
      </trkpt>
      <trkpt lat="42.1958320" lon="2.4221240">
        <ele>699.4</ele>
        <time>2020-07-31T06:50:25Z</time>
      </trkpt>
      <trkpt lat="42.1957980" lon="2.4223080">
        <ele>698.4</ele>
        <time>2020-07-31T06:50:26Z</time>
      </trkpt>
      <trkpt lat="42.1957740" lon="2.4224890">
        <ele>697.8</ele>
        <time>2020-07-31T06:50:27Z</time>
      </trkpt>
      <trkpt lat="42.1957540" lon="2.4226710">
        <ele>696.6</ele>
        <time>2020-07-31T06:50:28Z</time>
      </trkpt>
      <trkpt lat="42.1957380" lon="2.4228540">
        <ele>695.6</ele>
        <time>2020-07-31T06:50:29Z</time>
      </trkpt>
      <trkpt lat="42.1957280" lon="2.4230440">
        <ele>694.6</ele>
        <time>2020-07-31T06:50:30Z</time>
      </trkpt>
      <trkpt lat="42.1957230" lon="2.4232340">
        <ele>693.8</ele>
        <time>2020-07-31T06:50:31Z</time>
      </trkpt>
      <trkpt lat="42.1957100" lon="2.4234220">
        <ele>693.0</ele>
        <time>2020-07-31T06:50:32Z</time>
      </trkpt>
      <trkpt lat="42.1956980" lon="2.4236070">
        <ele>692.0</ele>
        <time>2020-07-31T06:50:33Z</time>
      </trkpt>
      <trkpt lat="42.1956850" lon="2.4237950">
        <ele>691.2</ele>
        <time>2020-07-31T06:50:34Z</time>
      </trkpt>
      <trkpt lat="42.1956710" lon="2.4239800">
        <ele>690.6</ele>
        <time>2020-07-31T06:50:35Z</time>
      </trkpt>
      <trkpt lat="42.1956450" lon="2.4243500">
        <ele>689.0</ele>
        <time>2020-07-31T06:50:37Z</time>
      </trkpt>
      <trkpt lat="42.1956230" lon="2.4247190">
        <ele>687.4</ele>
        <time>2020-07-31T06:50:39Z</time>
      </trkpt>
      <trkpt lat="42.1956060" lon="2.4249110">
        <ele>686.4</ele>
        <time>2020-07-31T06:50:40Z</time>
      </trkpt>
      <trkpt lat="42.1955910" lon="2.4250980">
        <ele>684.8</ele>
        <time>2020-07-31T06:50:41Z</time>
      </trkpt>
      <trkpt lat="42.1955770" lon="2.4254780">
        <ele>683.2</ele>
        <time>2020-07-31T06:50:43Z</time>
      </trkpt>
      <trkpt lat="42.1955770" lon="2.4256660">
        <ele>682.6</ele>
        <time>2020-07-31T06:50:44Z</time>
      </trkpt>
      <trkpt lat="42.1955720" lon="2.4258640">
        <ele>681.4</ele>
        <time>2020-07-31T06:50:45Z</time>
      </trkpt>
      <trkpt lat="42.1955730" lon="2.4262550">
        <ele>680.0</ele>
        <time>2020-07-31T06:50:47Z</time>
      </trkpt>
      <trkpt lat="42.1955710" lon="2.4266470">
        <ele>678.4</ele>
        <time>2020-07-31T06:50:49Z</time>
      </trkpt>
      <trkpt lat="42.1955680" lon="2.4270430">
        <ele>676.4</ele>
        <time>2020-07-31T06:50:51Z</time>
      </trkpt>
      <trkpt lat="42.1955780" lon="2.4274240">
        <ele>674.6</ele>
        <time>2020-07-31T06:50:53Z</time>
      </trkpt>
      <trkpt lat="42.1955770" lon="2.4276220">
        <ele>673.4</ele>
        <time>2020-07-31T06:50:54Z</time>
      </trkpt>
      <trkpt lat="42.1955740" lon="2.4280170">
        <ele>671.0</ele>
        <time>2020-07-31T06:50:56Z</time>
      </trkpt>
      <trkpt lat="42.1955770" lon="2.4284250">
        <ele>669.6</ele>
        <time>2020-07-31T06:50:58Z</time>
      </trkpt>
      <trkpt lat="42.1955780" lon="2.4286290">
        <ele>669.0</ele>
        <time>2020-07-31T06:50:59Z</time>
      </trkpt>
      <trkpt lat="42.1955750" lon="2.4288280">
        <ele>667.8</ele>
        <time>2020-07-31T06:51:00Z</time>
      </trkpt>
      <trkpt lat="42.1955750" lon="2.4292250">
        <ele>666.2</ele>
        <time>2020-07-31T06:51:02Z</time>
      </trkpt>
      <trkpt lat="42.1955810" lon="2.4294210">
        <ele>665.2</ele>
        <time>2020-07-31T06:51:03Z</time>
      </trkpt>
      <trkpt lat="42.1955900" lon="2.4298190">
        <ele>663.2</ele>
        <time>2020-07-31T06:51:05Z</time>
      </trkpt>
      <trkpt lat="42.1955980" lon="2.4302250">
        <ele>661.2</ele>
        <time>2020-07-31T06:51:07Z</time>
      </trkpt>
      <trkpt lat="42.1955980" lon="2.4304200">
        <ele>659.0</ele>
        <time>2020-07-31T06:51:08Z</time>
      </trkpt>
      <trkpt lat="42.1956030" lon="2.4306100">
        <ele>658.0</ele>
        <time>2020-07-31T06:51:09Z</time>
      </trkpt>
      <trkpt lat="42.1956040" lon="2.4309800">
        <ele>656.0</ele>
        <time>2020-07-31T06:51:11Z</time>
      </trkpt>
      <trkpt lat="42.1955890" lon="2.4313820">
        <ele>654.4</ele>
        <time>2020-07-31T06:51:13Z</time>
      </trkpt>
      <trkpt lat="42.1955670" lon="2.4315790">
        <ele>653.6</ele>
        <time>2020-07-31T06:51:14Z</time>
      </trkpt>
      <trkpt lat="42.1955390" lon="2.4317720">
        <ele>652.8</ele>
        <time>2020-07-31T06:51:15Z</time>
      </trkpt>
      <trkpt lat="42.1954630" lon="2.4321450">
        <ele>651.4</ele>
        <time>2020-07-31T06:51:17Z</time>
      </trkpt>
      <trkpt lat="42.1953870" lon="2.4325180">
        <ele>650.0</ele>
        <time>2020-07-31T06:51:19Z</time>
      </trkpt>
      <trkpt lat="42.1953540" lon="2.4327110">
        <ele>649.4</ele>
        <time>2020-07-31T06:51:20Z</time>
      </trkpt>
      <trkpt lat="42.1953300" lon="2.4329070">
        <ele>648.8</ele>
        <time>2020-07-31T06:51:21Z</time>
      </trkpt>
      <trkpt lat="42.1953110" lon="2.4331010">
        <ele>648.0</ele>
        <time>2020-07-31T06:51:22Z</time>
      </trkpt>
      <trkpt lat="42.1952980" lon="2.4332920">
        <ele>647.4</ele>
        <time>2020-07-31T06:51:23Z</time>
      </trkpt>
      <trkpt lat="42.1952590" lon="2.4336970">
        <ele>646.2</ele>
        <time>2020-07-31T06:51:25Z</time>
      </trkpt>
      <trkpt lat="42.1952520" lon="2.4338920">
        <ele>645.6</ele>
        <time>2020-07-31T06:51:26Z</time>
      </trkpt>
      <trkpt lat="42.1952550" lon="2.4340850">
        <ele>644.8</ele>
        <time>2020-07-31T06:51:27Z</time>
      </trkpt>
      <trkpt lat="42.1952850" lon="2.4344690">
        <ele>643.6</ele>
        <time>2020-07-31T06:51:29Z</time>
      </trkpt>
      <trkpt lat="42.1953090" lon="2.4346630">
        <ele>642.6</ele>
        <time>2020-07-31T06:51:30Z</time>
      </trkpt>
      <trkpt lat="42.1953280" lon="2.4348580">
        <ele>641.8</ele>
        <time>2020-07-31T06:51:31Z</time>
      </trkpt>
      <trkpt lat="42.1953510" lon="2.4350450">
        <ele>640.6</ele>
        <time>2020-07-31T06:51:32Z</time>
      </trkpt>
      <trkpt lat="42.1953770" lon="2.4352300">
        <ele>639.6</ele>
        <time>2020-07-31T06:51:33Z</time>
      </trkpt>
      <trkpt lat="42.1954400" lon="2.4355980">
        <ele>637.8</ele>
        <time>2020-07-31T06:51:35Z</time>
      </trkpt>
      <trkpt lat="42.1954700" lon="2.4357810">
        <ele>636.4</ele>
        <time>2020-07-31T06:51:36Z</time>
      </trkpt>
      <trkpt lat="42.1955290" lon="2.4361430">
        <ele>635.4</ele>
        <time>2020-07-31T06:51:38Z</time>
      </trkpt>
      <trkpt lat="42.1956230" lon="2.4366820">
        <ele>634.6</ele>
        <time>2020-07-31T06:51:41Z</time>
      </trkpt>
      <trkpt lat="42.1956540" lon="2.4368610">
        <ele>634.0</ele>
        <time>2020-07-31T06:51:42Z</time>
      </trkpt>
      <trkpt lat="42.1957190" lon="2.4372140">
        <ele>632.8</ele>
        <time>2020-07-31T06:51:44Z</time>
      </trkpt>
      <trkpt lat="42.1957790" lon="2.4375520">
        <ele>631.6</ele>
        <time>2020-07-31T06:51:46Z</time>
      </trkpt>
      <trkpt lat="42.1958100" lon="2.4377150">
        <ele>631.2</ele>
        <time>2020-07-31T06:51:47Z</time>
      </trkpt>
      <trkpt lat="42.1958360" lon="2.4378810">
        <ele>630.6</ele>
        <time>2020-07-31T06:51:48Z</time>
      </trkpt>
      <trkpt lat="42.1958640" lon="2.4382330">
        <ele>629.2</ele>
        <time>2020-07-31T06:51:50Z</time>
      </trkpt>
      <trkpt lat="42.1958600" lon="2.4384070">
        <ele>628.8</ele>
        <time>2020-07-31T06:51:51Z</time>
      </trkpt>
      <trkpt lat="42.1958240" lon="2.4387540">
        <ele>627.6</ele>
        <time>2020-07-31T06:51:53Z</time>
      </trkpt>
      <trkpt lat="42.1957480" lon="2.4392730">
        <ele>626.6</ele>
        <time>2020-07-31T06:51:56Z</time>
      </trkpt>
      <trkpt lat="42.1956600" lon="2.4397960">
        <ele>624.8</ele>
        <time>2020-07-31T06:51:59Z</time>
      </trkpt>
      <trkpt lat="42.1955960" lon="2.4401450">
        <ele>623.2</ele>
        <time>2020-07-31T06:52:01Z</time>
      </trkpt>
      <trkpt lat="42.1955360" lon="2.4405060">
        <ele>620.6</ele>
        <time>2020-07-31T06:52:03Z</time>
      </trkpt>
      <trkpt lat="42.1954800" lon="2.4408600">
        <ele>618.6</ele>
        <time>2020-07-31T06:52:05Z</time>
      </trkpt>
      <trkpt lat="42.1954270" lon="2.4412050">
        <ele>617.0</ele>
        <time>2020-07-31T06:52:07Z</time>
      </trkpt>
      <trkpt lat="42.1953760" lon="2.4415460">
        <ele>615.4</ele>
        <time>2020-07-31T06:52:09Z</time>
      </trkpt>
      <trkpt lat="42.1953490" lon="2.4417130">
        <ele>614.6</ele>
        <time>2020-07-31T06:52:10Z</time>
      </trkpt>
      <trkpt lat="42.1953220" lon="2.4418790">
        <ele>614.0</ele>
        <time>2020-07-31T06:52:11Z</time>
      </trkpt>
      <trkpt lat="42.1952940" lon="2.4420500">
        <ele>612.8</ele>
        <time>2020-07-31T06:52:12Z</time>
      </trkpt>
      <trkpt lat="42.1952410" lon="2.4423810">
        <ele>611.4</ele>
        <time>2020-07-31T06:52:14Z</time>
      </trkpt>
      <trkpt lat="42.1951660" lon="2.4428700">
        <ele>610.4</ele>
        <time>2020-07-31T06:52:17Z</time>
      </trkpt>
      <trkpt lat="42.1951440" lon="2.4430300">
        <ele>610.2</ele>
        <time>2020-07-31T06:52:18Z</time>
      </trkpt>
      <trkpt lat="42.1950790" lon="2.4435190">
        <ele>609.6</ele>
        <time>2020-07-31T06:52:21Z</time>
      </trkpt>
      <trkpt lat="42.1950300" lon="2.4436760">
        <ele>609.4</ele>
        <time>2020-07-31T06:52:22Z</time>
      </trkpt>
      <trkpt lat="42.1948640" lon="2.4439350">
        <ele>609.0</ele>
        <time>2020-07-31T06:52:24Z</time>
      </trkpt>
      <trkpt lat="42.1945170" lon="2.4442090">
        <ele>608.0</ele>
        <time>2020-07-31T06:52:27Z</time>
      </trkpt>
      <trkpt lat="42.1942680" lon="2.4443750">
        <ele>607.0</ele>
        <time>2020-07-31T06:52:29Z</time>
      </trkpt>
      <trkpt lat="42.1941480" lon="2.4444600">
        <ele>605.4</ele>
        <time>2020-07-31T06:52:30Z</time>
      </trkpt>
      <trkpt lat="42.1939160" lon="2.4446350">
        <ele>603.4</ele>
        <time>2020-07-31T06:52:32Z</time>
      </trkpt>
      <trkpt lat="42.1938090" lon="2.4447420">
        <ele>602.6</ele>
        <time>2020-07-31T06:52:33Z</time>
      </trkpt>
      <trkpt lat="42.1937160" lon="2.4448660">
        <ele>601.4</ele>
        <time>2020-07-31T06:52:34Z</time>
      </trkpt>
      <trkpt lat="42.1936450" lon="2.4449870">
        <ele>600.2</ele>
        <time>2020-07-31T06:52:35Z</time>
      </trkpt>
      <trkpt lat="42.1935820" lon="2.4451260">
        <ele>599.0</ele>
        <time>2020-07-31T06:52:36Z</time>
      </trkpt>
      <trkpt lat="42.1935190" lon="2.4452850">
        <ele>598.0</ele>
        <time>2020-07-31T06:52:37Z</time>
      </trkpt>
      <trkpt lat="42.1933980" lon="2.4456120">
        <ele>596.4</ele>
        <time>2020-07-31T06:52:39Z</time>
      </trkpt>
      <trkpt lat="42.1933370" lon="2.4457870">
        <ele>595.6</ele>
        <time>2020-07-31T06:52:40Z</time>
      </trkpt>
      <trkpt lat="42.1932820" lon="2.4459480">
        <ele>594.8</ele>
        <time>2020-07-31T06:52:41Z</time>
      </trkpt>
      <trkpt lat="42.1931570" lon="2.4462750">
        <ele>593.0</ele>
        <time>2020-07-31T06:52:43Z</time>
      </trkpt>
      <trkpt lat="42.1930910" lon="2.4464400">
        <ele>591.8</ele>
        <time>2020-07-31T06:52:44Z</time>
      </trkpt>
      <trkpt lat="42.1930300" lon="2.4466050">
        <ele>590.6</ele>
        <time>2020-07-31T06:52:45Z</time>
      </trkpt>
      <trkpt lat="42.1929810" lon="2.4467730">
        <ele>589.4</ele>
        <time>2020-07-31T06:52:46Z</time>
      </trkpt>
      <trkpt lat="42.1929580" lon="2.4471150">
        <ele>587.6</ele>
        <time>2020-07-31T06:52:48Z</time>
      </trkpt>
      <trkpt lat="42.1929840" lon="2.4473090">
        <ele>586.6</ele>
        <time>2020-07-31T06:52:49Z</time>
      </trkpt>
      <trkpt lat="42.1930180" lon="2.4475050">
        <ele>585.8</ele>
        <time>2020-07-31T06:52:50Z</time>
      </trkpt>
      <trkpt lat="42.1930510" lon="2.4477080">
        <ele>585.0</ele>
        <time>2020-07-31T06:52:51Z</time>
      </trkpt>
      <trkpt lat="42.1931180" lon="2.4480910">
        <ele>583.6</ele>
        <time>2020-07-31T06:52:53Z</time>
      </trkpt>
      <trkpt lat="42.1931910" lon="2.4484670">
        <ele>582.2</ele>
        <time>2020-07-31T06:52:55Z</time>
      </trkpt>
      <trkpt lat="42.1932860" lon="2.4488260">
        <ele>579.2</ele>
        <time>2020-07-31T06:52:57Z</time>
      </trkpt>
      <trkpt lat="42.1933710" lon="2.4491520">
        <ele>577.4</ele>
        <time>2020-07-31T06:52:59Z</time>
      </trkpt>
      <trkpt lat="42.1933780" lon="2.4493210">
        <ele>576.4</ele>
        <time>2020-07-31T06:53:00Z</time>
      </trkpt>
      <trkpt lat="42.1933470" lon="2.4494650">
        <ele>575.6</ele>
        <time>2020-07-31T06:53:01Z</time>
      </trkpt>
      <trkpt lat="42.1932870" lon="2.4495940">
        <ele>574.8</ele>
        <time>2020-07-31T06:53:02Z</time>
      </trkpt>
      <trkpt lat="42.1932220" lon="2.4497210">
        <ele>573.8</ele>
        <time>2020-07-31T06:53:03Z</time>
      </trkpt>
      <trkpt lat="42.1931690" lon="2.4498630">
        <ele>573.0</ele>
        <time>2020-07-31T06:53:04Z</time>
      </trkpt>
      <trkpt lat="42.1931480" lon="2.4500150">
        <ele>572.2</ele>
        <time>2020-07-31T06:53:05Z</time>
      </trkpt>
      <trkpt lat="42.1931880" lon="2.4503060">
        <ele>571.0</ele>
        <time>2020-07-31T06:53:07Z</time>
      </trkpt>
      <trkpt lat="42.1932290" lon="2.4504570">
        <ele>570.4</ele>
        <time>2020-07-31T06:53:08Z</time>
      </trkpt>
      <trkpt lat="42.1932770" lon="2.4506130">
        <ele>569.8</ele>
        <time>2020-07-31T06:53:09Z</time>
      </trkpt>
      <trkpt lat="42.1933760" lon="2.4509360">
        <ele>569.0</ele>
        <time>2020-07-31T06:53:11Z</time>
      </trkpt>
      <trkpt lat="42.1934130" lon="2.4511100">
        <ele>568.4</ele>
        <time>2020-07-31T06:53:12Z</time>
      </trkpt>
      <trkpt lat="42.1934580" lon="2.4514670">
        <ele>566.8</ele>
        <time>2020-07-31T06:53:14Z</time>
      </trkpt>
      <trkpt lat="42.1934670" lon="2.4516490">
        <ele>566.0</ele>
        <time>2020-07-31T06:53:15Z</time>
      </trkpt>
      <trkpt lat="42.1934720" lon="2.4518280">
        <ele>565.0</ele>
        <time>2020-07-31T06:53:16Z</time>
      </trkpt>
      <trkpt lat="42.1934800" lon="2.4520050">
        <ele>564.0</ele>
        <time>2020-07-31T06:53:17Z</time>
      </trkpt>
      <trkpt lat="42.1934980" lon="2.4523540">
        <ele>562.2</ele>
        <time>2020-07-31T06:53:19Z</time>
      </trkpt>
      <trkpt lat="42.1935160" lon="2.4526890">
        <ele>560.4</ele>
        <time>2020-07-31T06:53:21Z</time>
      </trkpt>
      <trkpt lat="42.1935200" lon="2.4528640">
        <ele>559.6</ele>
        <time>2020-07-31T06:53:22Z</time>
      </trkpt>
      <trkpt lat="42.1935270" lon="2.4530270">
        <ele>559.0</ele>
        <time>2020-07-31T06:53:23Z</time>
      </trkpt>
      <trkpt lat="42.1935320" lon="2.4531840">
        <ele>557.4</ele>
        <time>2020-07-31T06:53:24Z</time>
      </trkpt>
      <trkpt lat="42.1935470" lon="2.4534990">
        <ele>556.4</ele>
        <time>2020-07-31T06:53:26Z</time>
      </trkpt>
      <trkpt lat="42.1935590" lon="2.4536500">
        <ele>556.2</ele>
        <time>2020-07-31T06:53:27Z</time>
      </trkpt>
      <trkpt lat="42.1935910" lon="2.4542850">
        <ele>556.0</ele>
        <time>2020-07-31T06:53:31Z</time>
      </trkpt>
      <trkpt lat="42.1935030" lon="2.4545720">
        <ele>555.6</ele>
        <time>2020-07-31T06:53:33Z</time>
      </trkpt>
      <trkpt lat="42.1934110" lon="2.4546790">
        <ele>555.0</ele>
        <time>2020-07-31T06:53:34Z</time>
      </trkpt>
      <trkpt lat="42.1933100" lon="2.4547730">
        <ele>554.4</ele>
        <time>2020-07-31T06:53:35Z</time>
      </trkpt>
      <trkpt lat="42.1932130" lon="2.4548650">
        <ele>554.0</ele>
        <time>2020-07-31T06:53:36Z</time>
      </trkpt>
      <trkpt lat="42.1930750" lon="2.4551110">
        <ele>552.6</ele>
        <time>2020-07-31T06:53:38Z</time>
      </trkpt>
      <trkpt lat="42.1930410" lon="2.4554110">
        <ele>550.8</ele>
        <time>2020-07-31T06:53:40Z</time>
      </trkpt>
      <trkpt lat="42.1930580" lon="2.4557350">
        <ele>549.6</ele>
        <time>2020-07-31T06:53:42Z</time>
      </trkpt>
      <trkpt lat="42.1930800" lon="2.4560680">
        <ele>548.8</ele>
        <time>2020-07-31T06:53:44Z</time>
      </trkpt>
      <trkpt lat="42.1930920" lon="2.4562350">
        <ele>548.4</ele>
        <time>2020-07-31T06:53:45Z</time>
      </trkpt>
      <trkpt lat="42.1931300" lon="2.4565630">
        <ele>547.2</ele>
        <time>2020-07-31T06:53:47Z</time>
      </trkpt>
      <trkpt lat="42.1931640" lon="2.4567200">
        <ele>546.2</ele>
        <time>2020-07-31T06:53:48Z</time>
      </trkpt>
      <trkpt lat="42.1932210" lon="2.4568620">
        <ele>545.2</ele>
        <time>2020-07-31T06:53:49Z</time>
      </trkpt>
      <trkpt lat="42.1934000" lon="2.4570840">
        <ele>542.6</ele>
        <time>2020-07-31T06:53:51Z</time>
      </trkpt>
      <trkpt lat="42.1936210" lon="2.4572250">
        <ele>541.2</ele>
        <time>2020-07-31T06:53:53Z</time>
      </trkpt>
      <trkpt lat="42.1937450" lon="2.4572810">
        <ele>540.4</ele>
        <time>2020-07-31T06:53:54Z</time>
      </trkpt>
      <trkpt lat="42.1938630" lon="2.4573310">
        <ele>540.0</ele>
        <time>2020-07-31T06:53:55Z</time>
      </trkpt>
      <trkpt lat="42.1941060" lon="2.4574010">
        <ele>538.8</ele>
        <time>2020-07-31T06:53:57Z</time>
      </trkpt>
      <trkpt lat="42.1942240" lon="2.4574530">
        <ele>538.0</ele>
        <time>2020-07-31T06:53:58Z</time>
      </trkpt>
      <trkpt lat="42.1943320" lon="2.4575180">
        <ele>537.2</ele>
        <time>2020-07-31T06:53:59Z</time>
      </trkpt>
      <trkpt lat="42.1945090" lon="2.4577290">
        <ele>535.8</ele>
        <time>2020-07-31T06:54:01Z</time>
      </trkpt>
      <trkpt lat="42.1945350" lon="2.4580540">
        <ele>534.4</ele>
        <time>2020-07-31T06:54:03Z</time>
      </trkpt>
      <trkpt lat="42.1945110" lon="2.4582150">
        <ele>533.8</ele>
        <time>2020-07-31T06:54:04Z</time>
      </trkpt>
      <trkpt lat="42.1944350" lon="2.4583700">
        <ele>533.2</ele>
        <time>2020-07-31T06:54:05Z</time>
      </trkpt>
      <trkpt lat="42.1943850" lon="2.4587250">
        <ele>531.8</ele>
        <time>2020-07-31T06:54:07Z</time>
      </trkpt>
      <trkpt lat="42.1943520" lon="2.4590530">
        <ele>530.6</ele>
        <time>2020-07-31T06:54:09Z</time>
      </trkpt>
      <trkpt lat="42.1943430" lon="2.4593770">
        <ele>529.0</ele>
        <time>2020-07-31T06:54:11Z</time>
      </trkpt>
      <trkpt lat="42.1944010" lon="2.4596980">
        <ele>527.8</ele>
        <time>2020-07-31T06:54:13Z</time>
      </trkpt>
      <trkpt lat="42.1944610" lon="2.4598460">
        <ele>527.4</ele>
        <time>2020-07-31T06:54:14Z</time>
      </trkpt>
      <trkpt lat="42.1946120" lon="2.4601160">
        <ele>526.8</ele>
        <time>2020-07-31T06:54:16Z</time>
      </trkpt>
      <trkpt lat="42.1947010" lon="2.4602300">
        <ele>526.4</ele>
        <time>2020-07-31T06:54:17Z</time>
      </trkpt>
      <trkpt lat="42.1948440" lon="2.4604200">
        <ele>525.6</ele>
        <time>2020-07-31T06:54:19Z</time>
      </trkpt>
      <trkpt lat="42.1948250" lon="2.4606900">
        <ele>524.8</ele>
        <time>2020-07-31T06:54:21Z</time>
      </trkpt>
      <trkpt lat="42.1947850" lon="2.4608150">
        <ele>524.4</ele>
        <time>2020-07-31T06:54:22Z</time>
      </trkpt>
      <trkpt lat="42.1947340" lon="2.4609410">
        <ele>523.8</ele>
        <time>2020-07-31T06:54:23Z</time>
      </trkpt>
      <trkpt lat="42.1946350" lon="2.4612100">
        <ele>523.2</ele>
        <time>2020-07-31T06:54:25Z</time>
      </trkpt>
      <trkpt lat="42.1944580" lon="2.4619030">
        <ele>522.4</ele>
        <time>2020-07-31T06:54:30Z</time>
      </trkpt>
      <trkpt lat="42.1944510" lon="2.4620400">
        <ele>522.4</ele>
        <time>2020-07-31T06:54:31Z</time>
      </trkpt>
      <trkpt lat="42.1944540" lon="2.4621820">
        <ele>522.0</ele>
        <time>2020-07-31T06:54:32Z</time>
      </trkpt>
      <trkpt lat="42.1944660" lon="2.4623260">
        <ele>521.8</ele>
        <time>2020-07-31T06:54:33Z</time>
      </trkpt>
      <trkpt lat="42.1945220" lon="2.4627500">
        <ele>521.0</ele>
        <time>2020-07-31T06:54:36Z</time>
      </trkpt>
      <trkpt lat="42.1945390" lon="2.4628950">
        <ele>520.8</ele>
        <time>2020-07-31T06:54:37Z</time>
      </trkpt>
      <trkpt lat="42.1945440" lon="2.4630350">
        <ele>520.4</ele>
        <time>2020-07-31T06:54:38Z</time>
      </trkpt>
      <trkpt lat="42.1945080" lon="2.4633280">
        <ele>520.0</ele>
        <time>2020-07-31T06:54:40Z</time>
      </trkpt>
      <trkpt lat="42.1944750" lon="2.4634740">
        <ele>519.8</ele>
        <time>2020-07-31T06:54:41Z</time>
      </trkpt>
      <trkpt lat="42.1944270" lon="2.4637760">
        <ele>519.0</ele>
        <time>2020-07-31T06:54:43Z</time>
      </trkpt>
      <trkpt lat="42.1944310" lon="2.4639370">
        <ele>518.8</ele>
        <time>2020-07-31T06:54:44Z</time>
      </trkpt>
      <trkpt lat="42.1944790" lon="2.4642510">
        <ele>517.2</ele>
        <time>2020-07-31T06:54:46Z</time>
      </trkpt>
      <trkpt lat="42.1945150" lon="2.4644080">
        <ele>516.8</ele>
        <time>2020-07-31T06:54:47Z</time>
      </trkpt>
      <trkpt lat="42.1945540" lon="2.4645690">
        <ele>516.2</ele>
        <time>2020-07-31T06:54:48Z</time>
      </trkpt>
      <trkpt lat="42.1946210" lon="2.4649020">
        <ele>515.0</ele>
        <time>2020-07-31T06:54:50Z</time>
      </trkpt>
      <trkpt lat="42.1946940" lon="2.4652300">
        <ele>513.6</ele>
        <time>2020-07-31T06:54:52Z</time>
      </trkpt>
      <trkpt lat="42.1947400" lon="2.4653940">
        <ele>512.8</ele>
        <time>2020-07-31T06:54:53Z</time>
      </trkpt>
      <trkpt lat="42.1947940" lon="2.4655550">
        <ele>512.2</ele>
        <time>2020-07-31T06:54:54Z</time>
      </trkpt>
      <trkpt lat="42.1949130" lon="2.4658920">
        <ele>510.6</ele>
        <time>2020-07-31T06:54:56Z</time>
      </trkpt>
      <trkpt lat="42.1949660" lon="2.4660600">
        <ele>510.0</ele>
        <time>2020-07-31T06:54:57Z</time>
      </trkpt>
      <trkpt lat="42.1950020" lon="2.4662320">
        <ele>509.2</ele>
        <time>2020-07-31T06:54:58Z</time>
      </trkpt>
      <trkpt lat="42.1950140" lon="2.4664100">
        <ele>508.2</ele>
        <time>2020-07-31T06:54:59Z</time>
      </trkpt>
      <trkpt lat="42.1950040" lon="2.4665860">
        <ele>507.6</ele>
        <time>2020-07-31T06:55:00Z</time>
      </trkpt>
      <trkpt lat="42.1949660" lon="2.4667430">
        <ele>506.8</ele>
        <time>2020-07-31T06:55:01Z</time>
      </trkpt>
      <trkpt lat="42.1949030" lon="2.4668740">
        <ele>506.0</ele>
        <time>2020-07-31T06:55:02Z</time>
      </trkpt>
      <trkpt lat="42.1948200" lon="2.4669620">
        <ele>505.4</ele>
        <time>2020-07-31T06:55:03Z</time>
      </trkpt>
      <trkpt lat="42.1947180" lon="2.4670100">
        <ele>504.6</ele>
        <time>2020-07-31T06:55:04Z</time>
      </trkpt>
      <trkpt lat="42.1946100" lon="2.4670350">
        <ele>503.8</ele>
        <time>2020-07-31T06:55:05Z</time>
      </trkpt>
      <trkpt lat="42.1945010" lon="2.4670530">
        <ele>503.0</ele>
        <time>2020-07-31T06:55:06Z</time>
      </trkpt>
      <trkpt lat="42.1942860" lon="2.4671090">
        <ele>501.4</ele>
        <time>2020-07-31T06:55:08Z</time>
      </trkpt>
      <trkpt lat="42.1941840" lon="2.4671600">
        <ele>500.6</ele>
        <time>2020-07-31T06:55:09Z</time>
      </trkpt>
      <trkpt lat="42.1940910" lon="2.4672350">
        <ele>500.0</ele>
        <time>2020-07-31T06:55:10Z</time>
      </trkpt>
      <trkpt lat="42.1939340" lon="2.4674520">
        <ele>499.2</ele>
        <time>2020-07-31T06:55:12Z</time>
      </trkpt>
      <trkpt lat="42.1938710" lon="2.4675800">
        <ele>498.6</ele>
        <time>2020-07-31T06:55:13Z</time>
      </trkpt>
      <trkpt lat="42.1937750" lon="2.4678440">
        <ele>497.6</ele>
        <time>2020-07-31T06:55:15Z</time>
      </trkpt>
      <trkpt lat="42.1937270" lon="2.4679860">
        <ele>497.0</ele>
        <time>2020-07-31T06:55:16Z</time>
      </trkpt>
      <trkpt lat="42.1936810" lon="2.4681180">
        <ele>496.4</ele>
        <time>2020-07-31T06:55:17Z</time>
      </trkpt>
      <trkpt lat="42.1935850" lon="2.4683880">
        <ele>495.4</ele>
        <time>2020-07-31T06:55:19Z</time>
      </trkpt>
      <trkpt lat="42.1934680" lon="2.4686650">
        <ele>494.2</ele>
        <time>2020-07-31T06:55:21Z</time>
      </trkpt>
      <trkpt lat="42.1933730" lon="2.4689500">
        <ele>492.8</ele>
        <time>2020-07-31T06:55:23Z</time>
      </trkpt>
      <trkpt lat="42.1933400" lon="2.4691040">
        <ele>492.0</ele>
        <time>2020-07-31T06:55:24Z</time>
      </trkpt>
      <trkpt lat="42.1933170" lon="2.4692610">
        <ele>491.4</ele>
        <time>2020-07-31T06:55:25Z</time>
      </trkpt>
      <trkpt lat="42.1933060" lon="2.4694220">
        <ele>490.6</ele>
        <time>2020-07-31T06:55:26Z</time>
      </trkpt>
      <trkpt lat="42.1933090" lon="2.4695870">
        <ele>490.0</ele>
        <time>2020-07-31T06:55:27Z</time>
      </trkpt>
      <trkpt lat="42.1933440" lon="2.4698800">
        <ele>488.8</ele>
        <time>2020-07-31T06:55:29Z</time>
      </trkpt>
      <trkpt lat="42.1933610" lon="2.4700500">
        <ele>488.2</ele>
        <time>2020-07-31T06:55:30Z</time>
      </trkpt>
      <trkpt lat="42.1933810" lon="2.4702230">
        <ele>487.6</ele>
        <time>2020-07-31T06:55:31Z</time>
      </trkpt>
      <trkpt lat="42.1934180" lon="2.4705930">
        <ele>486.6</ele>
        <time>2020-07-31T06:55:33Z</time>
      </trkpt>
      <trkpt lat="42.1934430" lon="2.4709690">
        <ele>485.2</ele>
        <time>2020-07-31T06:55:35Z</time>
      </trkpt>
      <trkpt lat="42.1934480" lon="2.4711540">
        <ele>484.6</ele>
        <time>2020-07-31T06:55:36Z</time>
      </trkpt>
      <trkpt lat="42.1934460" lon="2.4713340">
        <ele>483.8</ele>
        <time>2020-07-31T06:55:37Z</time>
      </trkpt>
      <trkpt lat="42.1934310" lon="2.4715080">
        <ele>483.0</ele>
        <time>2020-07-31T06:55:38Z</time>
      </trkpt>
      <trkpt lat="42.1934050" lon="2.4716780">
        <ele>482.2</ele>
        <time>2020-07-31T06:55:39Z</time>
      </trkpt>
      <trkpt lat="42.1933720" lon="2.4718530">
        <ele>480.0</ele>
        <time>2020-07-31T06:55:40Z</time>
      </trkpt>
      <trkpt lat="42.1933100" lon="2.4721860">
        <ele>478.4</ele>
        <time>2020-07-31T06:55:42Z</time>
      </trkpt>
      <trkpt lat="42.1932450" lon="2.4725150">
        <ele>476.6</ele>
        <time>2020-07-31T06:55:44Z</time>
      </trkpt>
      <trkpt lat="42.1932100" lon="2.4726760">
        <ele>476.2</ele>
        <time>2020-07-31T06:55:45Z</time>
      </trkpt>
      <trkpt lat="42.1931690" lon="2.4728350">
        <ele>475.6</ele>
        <time>2020-07-31T06:55:46Z</time>
      </trkpt>
      <trkpt lat="42.1930810" lon="2.4731420">
        <ele>473.6</ele>
        <time>2020-07-31T06:55:48Z</time>
      </trkpt>
      <trkpt lat="42.1930420" lon="2.4732750">
        <ele>472.8</ele>
        <time>2020-07-31T06:55:49Z</time>
      </trkpt>
      <trkpt lat="42.1930010" lon="2.4734050">
        <ele>471.8</ele>
        <time>2020-07-31T06:55:50Z</time>
      </trkpt>
      <trkpt lat="42.1929550" lon="2.4735210">
        <ele>470.8</ele>
        <time>2020-07-31T06:55:51Z</time>
      </trkpt>
      <trkpt lat="42.1929010" lon="2.4736380">
        <ele>470.0</ele>
        <time>2020-07-31T06:55:52Z</time>
      </trkpt>
      <trkpt lat="42.1928420" lon="2.4737660">
        <ele>469.4</ele>
        <time>2020-07-31T06:55:53Z</time>
      </trkpt>
      <trkpt lat="42.1927870" lon="2.4738970">
        <ele>469.0</ele>
        <time>2020-07-31T06:55:54Z</time>
      </trkpt>
      <trkpt lat="42.1926190" lon="2.4743130">
        <ele>467.8</ele>
        <time>2020-07-31T06:55:57Z</time>
      </trkpt>
      <trkpt lat="42.1925590" lon="2.4744540">
        <ele>467.6</ele>
        <time>2020-07-31T06:55:58Z</time>
      </trkpt>
      <trkpt lat="42.1923680" lon="2.4748790">
        <ele>466.2</ele>
        <time>2020-07-31T06:56:01Z</time>
      </trkpt>
      <trkpt lat="42.1922380" lon="2.4751600">
        <ele>464.2</ele>
        <time>2020-07-31T06:56:03Z</time>
      </trkpt>
      <trkpt lat="42.1921760" lon="2.4752990">
        <ele>463.0</ele>
        <time>2020-07-31T06:56:04Z</time>
      </trkpt>
      <trkpt lat="42.1920650" lon="2.4755840">
        <ele>461.6</ele>
        <time>2020-07-31T06:56:06Z</time>
      </trkpt>
      <trkpt lat="42.1920170" lon="2.4757260">
        <ele>459.6</ele>
        <time>2020-07-31T06:56:07Z</time>
      </trkpt>
      <trkpt lat="42.1919320" lon="2.4760180">
        <ele>458.2</ele>
        <time>2020-07-31T06:56:09Z</time>
      </trkpt>
      <trkpt lat="42.1918580" lon="2.4763060">
        <ele>457.4</ele>
        <time>2020-07-31T06:56:11Z</time>
      </trkpt>
      <trkpt lat="42.1918030" lon="2.4765850">
        <ele>457.2</ele>
        <time>2020-07-31T06:56:13Z</time>
      </trkpt>
      <trkpt lat="42.1917560" lon="2.4770060">
        <ele>457.0</ele>
        <time>2020-07-31T06:56:16Z</time>
      </trkpt>
      <trkpt lat="42.1917370" lon="2.4774280">
        <ele>456.4</ele>
        <time>2020-07-31T06:56:19Z</time>
      </trkpt>
      <trkpt lat="42.1917490" lon="2.4778570">
        <ele>455.6</ele>
        <time>2020-07-31T06:56:22Z</time>
      </trkpt>
      <trkpt lat="42.1917930" lon="2.4782420">
        <ele>455.2</ele>
        <time>2020-07-31T06:56:25Z</time>
      </trkpt>
      <trkpt lat="42.1918370" lon="2.4784690">
        <ele>455.2</ele>
        <time>2020-07-31T06:56:27Z</time>
      </trkpt>
      <trkpt lat="42.1912530" lon="2.4800300">
        <ele>451.2</ele>
        <time>2020-07-31T06:59:32Z</time>
      </trkpt>
      <trkpt lat="42.1908180" lon="2.4795730">
        <ele>451.2</ele>
        <time>2020-07-31T06:59:40Z</time>
      </trkpt>
      <trkpt lat="42.1907680" lon="2.4795190">
        <ele>451.2</ele>
        <time>2020-07-31T06:59:41Z</time>
      </trkpt>
      <trkpt lat="42.1904550" lon="2.4790930">
        <ele>451.4</ele>
        <time>2020-07-31T06:59:48Z</time>
      </trkpt>
      <trkpt lat="42.1902860" lon="2.4786440">
        <ele>451.8</ele>
        <time>2020-07-31T06:59:54Z</time>
      </trkpt>
      <trkpt lat="42.1900650" lon="2.4778360">
        <ele>454.2</ele>
        <time>2020-07-31T07:01:44Z</time>
      </trkpt>
      <trkpt lat="42.1900590" lon="2.4778090">
        <ele>454.2</ele>
        <time>2020-07-31T07:01:45Z</time>
      </trkpt>
      <trkpt lat="42.1899750" lon="2.4776640">
        <ele>454.0</ele>
        <time>2020-07-31T07:01:48Z</time>
      </trkpt>
      <trkpt lat="42.1898560" lon="2.4776900">
        <ele>454.0</ele>
        <time>2020-07-31T07:01:51Z</time>
      </trkpt>
      <trkpt lat="42.1897350" lon="2.4778870">
        <ele>454.0</ele>
        <time>2020-07-31T07:01:55Z</time>
      </trkpt>
      <trkpt lat="42.1896190" lon="2.4779720">
        <ele>454.0</ele>
        <time>2020-07-31T07:01:58Z</time>
      </trkpt>
      <trkpt lat="42.1895390" lon="2.4780200">
        <ele>454.0</ele>
        <time>2020-07-31T07:02:00Z</time>
      </trkpt>
      <trkpt lat="42.1893430" lon="2.4781440">
        <ele>454.4</ele>
        <time>2020-07-31T07:02:05Z</time>
      </trkpt>
      <trkpt lat="42.1892670" lon="2.4781870">
        <ele>454.6</ele>
        <time>2020-07-31T07:02:07Z</time>
      </trkpt>
      <trkpt lat="42.1891380" lon="2.4782600">
        <ele>455.6</ele>
        <time>2020-07-31T07:02:10Z</time>
      </trkpt>
      <trkpt lat="42.1890550" lon="2.4783060">
        <ele>455.8</ele>
        <time>2020-07-31T07:02:12Z</time>
      </trkpt>
      <trkpt lat="42.1887590" lon="2.4784510">
        <ele>456.8</ele>
        <time>2020-07-31T07:02:19Z</time>
      </trkpt>
      <trkpt lat="42.1884970" lon="2.4785970">
        <ele>457.6</ele>
        <time>2020-07-31T07:02:25Z</time>
      </trkpt>
      <trkpt lat="42.1883260" lon="2.4786920">
        <ele>458.2</ele>
        <time>2020-07-31T07:02:29Z</time>
      </trkpt>
      <trkpt lat="42.1881580" lon="2.4787830">
        <ele>458.4</ele>
        <time>2020-07-31T07:02:33Z</time>
      </trkpt>
      <trkpt lat="42.1879080" lon="2.4789240">
        <ele>459.4</ele>
        <time>2020-07-31T07:02:39Z</time>
      </trkpt>
      <trkpt lat="42.1877820" lon="2.4790000">
        <ele>459.8</ele>
        <time>2020-07-31T07:02:42Z</time>
      </trkpt>
      <trkpt lat="42.1875220" lon="2.4791510">
        <ele>460.4</ele>
        <time>2020-07-31T07:02:48Z</time>
      </trkpt>
      <trkpt lat="42.1874810" lon="2.4791700">
        <ele>460.6</ele>
        <time>2020-07-31T07:02:49Z</time>
      </trkpt>
      <trkpt lat="42.1871270" lon="2.4793780">
        <ele>461.6</ele>
        <time>2020-07-31T07:02:57Z</time>
      </trkpt>
      <trkpt lat="42.1870820" lon="2.4794020">
        <ele>461.8</ele>
        <time>2020-07-31T07:02:58Z</time>
      </trkpt>
      <trkpt lat="42.1867210" lon="2.4795860">
        <ele>462.8</ele>
        <time>2020-07-31T07:03:06Z</time>
      </trkpt>
      <trkpt lat="42.1866750" lon="2.4796100">
        <ele>463.0</ele>
        <time>2020-07-31T07:03:07Z</time>
      </trkpt>
      <trkpt lat="42.1864470" lon="2.4797350">
        <ele>464.2</ele>
        <time>2020-07-31T07:03:12Z</time>
      </trkpt>
      <trkpt lat="42.1863460" lon="2.4797760">
        <ele>464.2</ele>
        <time>2020-07-31T07:03:14Z</time>
      </trkpt>
      <trkpt lat="42.1862490" lon="2.4798010">
        <ele>464.4</ele>
        <time>2020-07-31T07:03:16Z</time>
      </trkpt>
      <trkpt lat="42.1861170" lon="2.4798770">
        <ele>464.8</ele>
        <time>2020-07-31T07:03:19Z</time>
      </trkpt>
      <trkpt lat="42.1859210" lon="2.4799650">
        <ele>465.0</ele>
        <time>2020-07-31T07:03:23Z</time>
      </trkpt>
      <trkpt lat="42.1858660" lon="2.4799680">
        <ele>465.2</ele>
        <time>2020-07-31T07:03:24Z</time>
      </trkpt>
      <trkpt lat="42.1856840" lon="2.4798850">
        <ele>465.8</ele>
        <time>2020-07-31T07:03:28Z</time>
      </trkpt>
      <trkpt lat="42.1856340" lon="2.4798220">
        <ele>465.8</ele>
        <time>2020-07-31T07:03:31Z</time>
      </trkpt>
      <trkpt lat="42.1856450" lon="2.4798660">
        <ele>466.0</ele>
        <time>2020-07-31T07:03:34Z</time>
      </trkpt>
      <trkpt lat="42.1856630" lon="2.4799030">
        <ele>466.6</ele>
        <time>2020-07-31T07:03:35Z</time>
      </trkpt>
      <trkpt lat="42.1856820" lon="2.4799350">
        <ele>467.0</ele>
        <time>2020-07-31T07:03:36Z</time>
      </trkpt>
      <trkpt lat="42.1857460" lon="2.4800010">
        <ele>467.2</ele>
        <time>2020-07-31T07:03:38Z</time>
      </trkpt>
      <trkpt lat="42.1858420" lon="2.4800190">
        <ele>467.2</ele>
        <time>2020-07-31T07:03:40Z</time>
      </trkpt>
      <trkpt lat="42.1860570" lon="2.4799390">
        <ele>467.2</ele>
        <time>2020-07-31T07:03:44Z</time>
      </trkpt>
      <trkpt lat="42.1861090" lon="2.4799100">
        <ele>467.2</ele>
        <time>2020-07-31T07:03:45Z</time>
      </trkpt>
      <trkpt lat="42.1862400" lon="2.4798990">
        <ele>466.0</ele>
        <time>2020-07-31T07:04:01Z</time>
      </trkpt>
      <trkpt lat="42.1860830" lon="2.4799850">
        <ele>466.0</ele>
        <time>2020-07-31T07:04:05Z</time>
      </trkpt>
      <trkpt lat="42.1857230" lon="2.4801930">
        <ele>466.0</ele>
        <time>2020-07-31T07:04:12Z</time>
      </trkpt>
      <trkpt lat="42.1853320" lon="2.4804240">
        <ele>465.8</ele>
        <time>2020-07-31T07:04:19Z</time>
      </trkpt>
      <trkpt lat="42.1848260" lon="2.4807190">
        <ele>466.0</ele>
        <time>2020-07-31T07:04:28Z</time>
      </trkpt>
      <trkpt lat="42.1845480" lon="2.4808550">
        <ele>466.0</ele>
        <time>2020-07-31T07:04:33Z</time>
      </trkpt>
      <trkpt lat="42.1844910" lon="2.4808810">
        <ele>466.0</ele>
        <time>2020-07-31T07:04:34Z</time>
      </trkpt>
      <trkpt lat="42.1842450" lon="2.4810510">
        <ele>466.0</ele>
        <time>2020-07-31T07:04:39Z</time>
      </trkpt>
      <trkpt lat="42.1840970" lon="2.4811600">
        <ele>466.0</ele>
        <time>2020-07-31T07:04:42Z</time>
      </trkpt>
      <trkpt lat="42.1839730" lon="2.4812290">
        <ele>466.0</ele>
        <time>2020-07-31T07:04:44Z</time>
      </trkpt>
      <trkpt lat="42.1835550" lon="2.4814230">
        <ele>466.0</ele>
        <time>2020-07-31T07:04:51Z</time>
      </trkpt>
      <trkpt lat="42.1834980" lon="2.4814360">
        <ele>466.0</ele>
        <time>2020-07-31T07:04:52Z</time>
      </trkpt>
      <trkpt lat="42.1832570" lon="2.4815720">
        <ele>465.8</ele>
        <time>2020-07-31T07:04:56Z</time>
      </trkpt>
      <trkpt lat="42.1829030" lon="2.4817860">
        <ele>466.0</ele>
        <time>2020-07-31T07:05:02Z</time>
      </trkpt>
      <trkpt lat="42.1826390" lon="2.4819730">
        <ele>466.0</ele>
        <time>2020-07-31T07:05:07Z</time>
      </trkpt>
      <trkpt lat="42.1825760" lon="2.4820070">
        <ele>466.0</ele>
        <time>2020-07-31T07:05:08Z</time>
      </trkpt>
      <trkpt lat="42.1824000" lon="2.4820980">
        <ele>466.0</ele>
        <time>2020-07-31T07:05:11Z</time>
      </trkpt>
      <trkpt lat="42.1822350" lon="2.4821690">
        <ele>466.0</ele>
        <time>2020-07-31T07:05:14Z</time>
      </trkpt>
      <trkpt lat="42.1821870" lon="2.4822030">
        <ele>466.0</ele>
        <time>2020-07-31T07:05:15Z</time>
      </trkpt>
      <trkpt lat="42.1818720" lon="2.4824260">
        <ele>466.0</ele>
        <time>2020-07-31T07:05:21Z</time>
      </trkpt>
      <trkpt lat="42.1816480" lon="2.4824890">
        <ele>466.0</ele>
        <time>2020-07-31T07:05:25Z</time>
      </trkpt>
      <trkpt lat="42.1815880" lon="2.4825250">
        <ele>466.0</ele>
        <time>2020-07-31T07:05:26Z</time>
      </trkpt>
      <trkpt lat="42.1814630" lon="2.4825730">
        <ele>466.0</ele>
        <time>2020-07-31T07:05:28Z</time>
      </trkpt>
      <trkpt lat="42.1812820" lon="2.4826460">
        <ele>466.0</ele>
        <time>2020-07-31T07:05:31Z</time>
      </trkpt>
      <trkpt lat="42.1811510" lon="2.4827330">
        <ele>465.8</ele>
        <time>2020-07-31T07:05:33Z</time>
      </trkpt>
      <trkpt lat="42.1809180" lon="2.4828890">
        <ele>465.8</ele>
        <time>2020-07-31T07:05:37Z</time>
      </trkpt>
      <trkpt lat="42.1807080" lon="2.4832390">
        <ele>465.8</ele>
        <time>2020-07-31T07:05:41Z</time>
      </trkpt>
      <trkpt lat="42.1804890" lon="2.4836800">
        <ele>465.8</ele>
        <time>2020-07-31T07:05:46Z</time>
      </trkpt>
      <trkpt lat="42.1802950" lon="2.4840720">
        <ele>465.8</ele>
        <time>2020-07-31T07:05:51Z</time>
      </trkpt>
      <trkpt lat="42.1802660" lon="2.4841690">
        <ele>466.0</ele>
        <time>2020-07-31T07:05:52Z</time>
      </trkpt>
      <trkpt lat="42.1802290" lon="2.4842530">
        <ele>466.0</ele>
        <time>2020-07-31T07:05:53Z</time>
      </trkpt>
      <trkpt lat="42.1801330" lon="2.4845390">
        <ele>466.0</ele>
        <time>2020-07-31T07:05:56Z</time>
      </trkpt>
      <trkpt lat="42.1799800" lon="2.4848700">
        <ele>465.8</ele>
        <time>2020-07-31T07:06:00Z</time>
      </trkpt>
      <trkpt lat="42.1799480" lon="2.4849490">
        <ele>465.8</ele>
        <time>2020-07-31T07:06:01Z</time>
      </trkpt>
      <trkpt lat="42.1798640" lon="2.4850860">
        <ele>465.8</ele>
        <time>2020-07-31T07:06:04Z</time>
      </trkpt>
      <trkpt lat="42.1798090" lon="2.4851750">
        <ele>465.8</ele>
        <time>2020-07-31T07:06:06Z</time>
      </trkpt>
      <trkpt lat="42.1797780" lon="2.4852190">
        <ele>465.8</ele>
        <time>2020-07-31T07:06:07Z</time>
      </trkpt>
      <trkpt lat="42.1797500" lon="2.4852800">
        <ele>465.6</ele>
        <time>2020-07-31T07:06:08Z</time>
      </trkpt>
      <trkpt lat="42.1795570" lon="2.4856850">
        <ele>465.4</ele>
        <time>2020-07-31T07:06:14Z</time>
      </trkpt>
      <trkpt lat="42.1793460" lon="2.4860580">
        <ele>465.2</ele>
        <time>2020-07-31T07:06:20Z</time>
      </trkpt>
      <trkpt lat="42.1792520" lon="2.4862280">
        <ele>464.8</ele>
        <time>2020-07-31T07:06:24Z</time>
      </trkpt>
      <trkpt lat="42.1792210" lon="2.4862340">
        <ele>464.8</ele>
        <time>2020-07-31T07:06:25Z</time>
      </trkpt>
      <trkpt lat="42.1791820" lon="2.4862260">
        <ele>464.8</ele>
        <time>2020-07-31T07:06:27Z</time>
      </trkpt>
      <trkpt lat="42.1791970" lon="2.4862550">
        <ele>464.8</ele>
        <time>2020-07-31T07:06:30Z</time>
      </trkpt>
      <trkpt lat="42.1792610" lon="2.4862290">
        <ele>465.2</ele>
        <time>2020-07-31T07:06:34Z</time>
      </trkpt>
      <trkpt lat="42.1797690" lon="2.4853990">
        <ele>465.2</ele>
        <time>2020-07-31T07:06:57Z</time>
      </trkpt>
      <trkpt lat="42.1797700" lon="2.4853300">
        <ele>465.4</ele>
        <time>2020-07-31T07:06:59Z</time>
      </trkpt>
      <trkpt lat="42.1797360" lon="2.4851350">
        <ele>465.4</ele>
        <time>2020-07-31T07:07:03Z</time>
      </trkpt>
      <trkpt lat="42.1797110" lon="2.4850840">
        <ele>465.4</ele>
        <time>2020-07-31T07:07:04Z</time>
      </trkpt>
      <trkpt lat="42.1795890" lon="2.4848810">
        <ele>465.4</ele>
        <time>2020-07-31T07:07:08Z</time>
      </trkpt>
      <trkpt lat="42.1795240" lon="2.4848240">
        <ele>465.4</ele>
        <time>2020-07-31T07:07:09Z</time>
      </trkpt>
      <trkpt lat="42.1793400" lon="2.4846420">
        <ele>465.2</ele>
        <time>2020-07-31T07:07:12Z</time>
      </trkpt>
      <trkpt lat="42.1790430" lon="2.4843690">
        <ele>465.0</ele>
        <time>2020-07-31T07:07:17Z</time>
      </trkpt>
      <trkpt lat="42.1788170" lon="2.4841840">
        <ele>464.8</ele>
        <time>2020-07-31T07:07:21Z</time>
      </trkpt>
      <trkpt lat="42.1787050" lon="2.4841020">
        <ele>464.6</ele>
        <time>2020-07-31T07:07:23Z</time>
      </trkpt>
      <trkpt lat="42.1783750" lon="2.4837510">
        <ele>464.6</ele>
        <time>2020-07-31T07:07:29Z</time>
      </trkpt>
      <trkpt lat="42.1782440" lon="2.4835250">
        <ele>464.4</ele>
        <time>2020-07-31T07:07:33Z</time>
      </trkpt>
      <trkpt lat="42.1781540" lon="2.4834760">
        <ele>464.4</ele>
        <time>2020-07-31T07:07:34Z</time>
      </trkpt>
      <trkpt lat="42.1779890" lon="2.4833640">
        <ele>464.0</ele>
        <time>2020-07-31T07:07:36Z</time>
      </trkpt>
      <trkpt lat="42.1777580" lon="2.4831850">
        <ele>463.8</ele>
        <time>2020-07-31T07:07:39Z</time>
      </trkpt>
      <trkpt lat="42.1774640" lon="2.4829280">
        <ele>463.6</ele>
        <time>2020-07-31T07:07:43Z</time>
      </trkpt>
      <trkpt lat="42.1769860" lon="2.4825430">
        <ele>463.6</ele>
        <time>2020-07-31T07:07:50Z</time>
      </trkpt>
      <trkpt lat="42.1766150" lon="2.4822300">
        <ele>463.0</ele>
        <time>2020-07-31T07:07:56Z</time>
      </trkpt>
      <trkpt lat="42.1761340" lon="2.4819100">
        <ele>463.2</ele>
        <time>2020-07-31T07:08:03Z</time>
      </trkpt>
      <trkpt lat="42.1756580" lon="2.4815030">
        <ele>463.8</ele>
        <time>2020-07-31T07:08:11Z</time>
      </trkpt>
      <trkpt lat="42.1755560" lon="2.4814090">
        <ele>464.0</ele>
        <time>2020-07-31T07:08:13Z</time>
      </trkpt>
      <trkpt lat="42.1755060" lon="2.4813600">
        <ele>464.2</ele>
        <time>2020-07-31T07:08:14Z</time>
      </trkpt>
      <trkpt lat="42.1752090" lon="2.4811270">
        <ele>464.4</ele>
        <time>2020-07-31T07:08:19Z</time>
      </trkpt>
      <trkpt lat="42.1748340" lon="2.4807860">
        <ele>464.4</ele>
        <time>2020-07-31T07:08:26Z</time>
      </trkpt>
      <trkpt lat="42.1744820" lon="2.4805040">
        <ele>464.4</ele>
        <time>2020-07-31T07:08:32Z</time>
      </trkpt>
      <trkpt lat="42.1741200" lon="2.4802100">
        <ele>464.8</ele>
        <time>2020-07-31T07:08:39Z</time>
      </trkpt>
      <trkpt lat="42.1738260" lon="2.4799520">
        <ele>465.4</ele>
        <time>2020-07-31T07:08:45Z</time>
      </trkpt>
      <trkpt lat="42.1737730" lon="2.4799060">
        <ele>465.6</ele>
        <time>2020-07-31T07:08:46Z</time>
      </trkpt>
      <trkpt lat="42.1735550" lon="2.4797110">
        <ele>465.8</ele>
        <time>2020-07-31T07:08:50Z</time>
      </trkpt>
      <trkpt lat="42.1732670" lon="2.4794690">
        <ele>466.4</ele>
        <time>2020-07-31T07:08:56Z</time>
      </trkpt>
      <trkpt lat="42.1732260" lon="2.4794290">
        <ele>466.6</ele>
        <time>2020-07-31T07:08:57Z</time>
      </trkpt>
      <trkpt lat="42.1730870" lon="2.4792660">
        <ele>467.2</ele>
        <time>2020-07-31T07:09:01Z</time>
      </trkpt>
      <trkpt lat="42.1730310" lon="2.4792190">
        <ele>467.2</ele>
        <time>2020-07-31T07:09:02Z</time>
      </trkpt>
      <trkpt lat="42.1728130" lon="2.4790530">
        <ele>467.6</ele>
        <time>2020-07-31T07:09:06Z</time>
      </trkpt>
      <trkpt lat="42.1726730" lon="2.4789190">
        <ele>467.8</ele>
        <time>2020-07-31T07:09:09Z</time>
      </trkpt>
      <trkpt lat="42.1726280" lon="2.4788700">
        <ele>467.8</ele>
        <time>2020-07-31T07:09:10Z</time>
      </trkpt>
      <trkpt lat="42.1724930" lon="2.4787440">
        <ele>468.2</ele>
        <time>2020-07-31T07:09:13Z</time>
      </trkpt>
      <trkpt lat="42.1723100" lon="2.4785950">
        <ele>468.6</ele>
        <time>2020-07-31T07:09:17Z</time>
      </trkpt>
      <trkpt lat="42.1721870" lon="2.4785120">
        <ele>468.8</ele>
        <time>2020-07-31T07:09:19Z</time>
      </trkpt>
      <trkpt lat="42.1720660" lon="2.4784170">
        <ele>468.8</ele>
        <time>2020-07-31T07:09:21Z</time>
      </trkpt>
      <trkpt lat="42.1717090" lon="2.4781060">
        <ele>469.6</ele>
        <time>2020-07-31T07:09:28Z</time>
      </trkpt>
      <trkpt lat="42.1715340" lon="2.4779350">
        <ele>470.2</ele>
        <time>2020-07-31T07:09:32Z</time>
      </trkpt>
      <trkpt lat="42.1714050" lon="2.4778140">
        <ele>470.4</ele>
        <time>2020-07-31T07:09:35Z</time>
      </trkpt>
      <trkpt lat="42.1710880" lon="2.4775760">
        <ele>471.2</ele>
        <time>2020-07-31T07:09:41Z</time>
      </trkpt>
      <trkpt lat="42.1708090" lon="2.4773230">
        <ele>471.4</ele>
        <time>2020-07-31T07:09:47Z</time>
      </trkpt>
      <trkpt lat="42.1705960" lon="2.4771020">
        <ele>471.6</ele>
        <time>2020-07-31T07:09:52Z</time>
      </trkpt>
      <trkpt lat="42.1705420" lon="2.4770600">
        <ele>471.6</ele>
        <time>2020-07-31T07:09:53Z</time>
      </trkpt>
      <trkpt lat="42.1701710" lon="2.4767910">
        <ele>472.0</ele>
        <time>2020-07-31T07:10:00Z</time>
      </trkpt>
      <trkpt lat="42.1700280" lon="2.4766820">
        <ele>472.2</ele>
        <time>2020-07-31T07:10:03Z</time>
      </trkpt>
      <trkpt lat="42.1694080" lon="2.4761790">
        <ele>475.0</ele>
        <time>2020-07-31T07:10:28Z</time>
      </trkpt>
      <trkpt lat="42.1693860" lon="2.4761380">
        <ele>475.2</ele>
        <time>2020-07-31T07:10:29Z</time>
      </trkpt>
      <trkpt lat="42.1692060" lon="2.4759460">
        <ele>475.2</ele>
        <time>2020-07-31T07:10:34Z</time>
      </trkpt>
      <trkpt lat="42.1689510" lon="2.4756960">
        <ele>475.0</ele>
        <time>2020-07-31T07:10:41Z</time>
      </trkpt>
      <trkpt lat="42.1686190" lon="2.4754250">
        <ele>475.2</ele>
        <time>2020-07-31T07:10:48Z</time>
      </trkpt>
      <trkpt lat="42.1683020" lon="2.4751380">
        <ele>475.8</ele>
        <time>2020-07-31T07:10:55Z</time>
      </trkpt>
      <trkpt lat="42.1680410" lon="2.4749330">
        <ele>476.0</ele>
        <time>2020-07-31T07:11:01Z</time>
      </trkpt>
      <trkpt lat="42.1679680" lon="2.4748580">
        <ele>476.4</ele>
        <time>2020-07-31T07:11:04Z</time>
      </trkpt>
      <trkpt lat="42.1679280" lon="2.4748140">
        <ele>476.4</ele>
        <time>2020-07-31T07:11:06Z</time>
      </trkpt>
      <trkpt lat="42.1677530" lon="2.4746710">
        <ele>477.2</ele>
        <time>2020-07-31T07:11:11Z</time>
      </trkpt>
      <trkpt lat="42.1674580" lon="2.4744640">
        <ele>477.4</ele>
        <time>2020-07-31T07:11:17Z</time>
      </trkpt>
      <trkpt lat="42.1671030" lon="2.4741860">
        <ele>477.4</ele>
        <time>2020-07-31T07:11:24Z</time>
      </trkpt>
      <trkpt lat="42.1670340" lon="2.4740820">
        <ele>477.6</ele>
        <time>2020-07-31T07:11:26Z</time>
      </trkpt>
      <trkpt lat="42.1669910" lon="2.4739620">
        <ele>477.6</ele>
        <time>2020-07-31T07:11:28Z</time>
      </trkpt>
      <trkpt lat="42.1669780" lon="2.4738990">
        <ele>477.8</ele>
        <time>2020-07-31T07:11:29Z</time>
      </trkpt>
      <trkpt lat="42.1669310" lon="2.4737120">
        <ele>478.6</ele>
        <time>2020-07-31T07:11:32Z</time>
      </trkpt>
      <trkpt lat="42.1669040" lon="2.4736590">
        <ele>478.8</ele>
        <time>2020-07-31T07:11:33Z</time>
      </trkpt>
      <trkpt lat="42.1668730" lon="2.4736130">
        <ele>479.2</ele>
        <time>2020-07-31T07:11:34Z</time>
      </trkpt>
      <trkpt lat="42.1667560" lon="2.4735230">
        <ele>480.0</ele>
        <time>2020-07-31T07:11:37Z</time>
      </trkpt>
      <trkpt lat="42.1667150" lon="2.4735110">
        <ele>480.2</ele>
        <time>2020-07-31T07:11:38Z</time>
      </trkpt>
      <trkpt lat="42.1665890" lon="2.4735220">
        <ele>480.8</ele>
        <time>2020-07-31T07:11:41Z</time>
      </trkpt>
      <trkpt lat="42.1665450" lon="2.4735310">
        <ele>481.0</ele>
        <time>2020-07-31T07:11:42Z</time>
      </trkpt>
      <trkpt lat="42.1665010" lon="2.4735350">
        <ele>481.4</ele>
        <time>2020-07-31T07:11:43Z</time>
      </trkpt>
      <trkpt lat="42.1663690" lon="2.4735120">
        <ele>482.0</ele>
        <time>2020-07-31T07:11:46Z</time>
      </trkpt>
      <trkpt lat="42.1662890" lon="2.4734630">
        <ele>482.6</ele>
        <time>2020-07-31T07:11:48Z</time>
      </trkpt>
      <trkpt lat="42.1662130" lon="2.4734060">
        <ele>483.4</ele>
        <time>2020-07-31T07:11:50Z</time>
      </trkpt>
      <trkpt lat="42.1661040" lon="2.4733200">
        <ele>484.6</ele>
        <time>2020-07-31T07:11:53Z</time>
      </trkpt>
      <trkpt lat="42.1659990" lon="2.4732360">
        <ele>485.2</ele>
        <time>2020-07-31T07:11:56Z</time>
      </trkpt>
      <trkpt lat="42.1659280" lon="2.4731840">
        <ele>485.6</ele>
        <time>2020-07-31T07:11:58Z</time>
      </trkpt>
      <trkpt lat="42.1658270" lon="2.4731020">
        <ele>486.8</ele>
        <time>2020-07-31T07:12:01Z</time>
      </trkpt>
      <trkpt lat="42.1656950" lon="2.4729870">
        <ele>487.8</ele>
        <time>2020-07-31T07:12:05Z</time>
      </trkpt>
      <trkpt lat="42.1656590" lon="2.4729570">
        <ele>488.2</ele>
        <time>2020-07-31T07:12:06Z</time>
      </trkpt>
      <trkpt lat="42.1655550" lon="2.4728760">
        <ele>489.0</ele>
        <time>2020-07-31T07:12:09Z</time>
      </trkpt>
      <trkpt lat="42.1654250" lon="2.4727580">
        <ele>490.0</ele>
        <time>2020-07-31T07:12:13Z</time>
      </trkpt>
      <trkpt lat="42.1653600" lon="2.4727040">
        <ele>490.4</ele>
        <time>2020-07-31T07:12:15Z</time>
      </trkpt>
      <trkpt lat="42.1652630" lon="2.4726260">
        <ele>491.2</ele>
        <time>2020-07-31T07:12:18Z</time>
      </trkpt>
      <trkpt lat="42.1651360" lon="2.4725190">
        <ele>492.4</ele>
        <time>2020-07-31T07:12:22Z</time>
      </trkpt>
      <trkpt lat="42.1650470" lon="2.4724480">
        <ele>493.4</ele>
        <time>2020-07-31T07:12:25Z</time>
      </trkpt>
      <trkpt lat="42.1649880" lon="2.4724050">
        <ele>493.8</ele>
        <time>2020-07-31T07:12:27Z</time>
      </trkpt>
      <trkpt lat="42.1648600" lon="2.4723020">
        <ele>495.0</ele>
        <time>2020-07-31T07:12:31Z</time>
      </trkpt>
      <trkpt lat="42.1646380" lon="2.4721050">
        <ele>496.2</ele>
        <time>2020-07-31T07:12:38Z</time>
      </trkpt>
      <trkpt lat="42.1646050" lon="2.4720770">
        <ele>496.4</ele>
        <time>2020-07-31T07:12:39Z</time>
      </trkpt>
      <trkpt lat="42.1644270" lon="2.4719660">
        <ele>497.4</ele>
        <time>2020-07-31T07:12:44Z</time>
      </trkpt>
      <trkpt lat="42.1643930" lon="2.4719380">
        <ele>497.8</ele>
        <time>2020-07-31T07:12:45Z</time>
      </trkpt>
      <trkpt lat="42.1641930" lon="2.4717570">
        <ele>498.6</ele>
        <time>2020-07-31T07:12:51Z</time>
      </trkpt>
      <trkpt lat="42.1640840" lon="2.4716640">
        <ele>499.8</ele>
        <time>2020-07-31T07:12:54Z</time>
      </trkpt>
      <trkpt lat="42.1640470" lon="2.4716310">
        <ele>500.2</ele>
        <time>2020-07-31T07:12:55Z</time>
      </trkpt>
      <trkpt lat="42.1639340" lon="2.4715330">
        <ele>500.8</ele>
        <time>2020-07-31T07:12:58Z</time>
      </trkpt>
      <trkpt lat="42.1637660" lon="2.4713870">
        <ele>501.2</ele>
        <time>2020-07-31T07:13:02Z</time>
      </trkpt>
      <trkpt lat="42.1634490" lon="2.4711060">
        <ele>501.8</ele>
        <time>2020-07-31T07:13:09Z</time>
      </trkpt>
      <trkpt lat="42.1631140" lon="2.4708290">
        <ele>502.0</ele>
        <time>2020-07-31T07:13:16Z</time>
      </trkpt>
      <trkpt lat="42.1630200" lon="2.4707450">
        <ele>502.0</ele>
        <time>2020-07-31T07:13:18Z</time>
      </trkpt>
      <trkpt lat="42.1626480" lon="2.4704190">
        <ele>502.4</ele>
        <time>2020-07-31T07:13:26Z</time>
      </trkpt>
      <trkpt lat="42.1622070" lon="2.4700420">
        <ele>502.4</ele>
        <time>2020-07-31T07:13:34Z</time>
      </trkpt>
      <trkpt lat="42.1617190" lon="2.4696230">
        <ele>501.6</ele>
        <time>2020-07-31T07:13:42Z</time>
      </trkpt>
      <trkpt lat="42.1615890" lon="2.4695160">
        <ele>501.6</ele>
        <time>2020-07-31T07:13:44Z</time>
      </trkpt>
      <trkpt lat="42.1614600" lon="2.4694050">
        <ele>501.2</ele>
        <time>2020-07-31T07:13:46Z</time>
      </trkpt>
      <trkpt lat="42.1609900" lon="2.4690090">
        <ele>500.2</ele>
        <time>2020-07-31T07:13:53Z</time>
      </trkpt>
      <trkpt lat="42.1604950" lon="2.4685900">
        <ele>499.6</ele>
        <time>2020-07-31T07:14:00Z</time>
      </trkpt>
      <trkpt lat="42.1602060" lon="2.4683440">
        <ele>499.0</ele>
        <time>2020-07-31T07:14:04Z</time>
      </trkpt>
      <trkpt lat="42.1597690" lon="2.4679710">
        <ele>498.4</ele>
        <time>2020-07-31T07:14:10Z</time>
      </trkpt>
      <trkpt lat="42.1596940" lon="2.4679040">
        <ele>498.0</ele>
        <time>2020-07-31T07:14:11Z</time>
      </trkpt>
      <trkpt lat="42.1593140" lon="2.4675750">
        <ele>497.0</ele>
        <time>2020-07-31T07:14:16Z</time>
      </trkpt>
      <trkpt lat="42.1590870" lon="2.4673770">
        <ele>496.6</ele>
        <time>2020-07-31T07:14:19Z</time>
      </trkpt>
      <trkpt lat="42.1588700" lon="2.4671760">
        <ele>495.8</ele>
        <time>2020-07-31T07:14:22Z</time>
      </trkpt>
      <trkpt lat="42.1585690" lon="2.4669090">
        <ele>495.6</ele>
        <time>2020-07-31T07:14:26Z</time>
      </trkpt>
      <trkpt lat="42.1581730" lon="2.4665760">
        <ele>495.0</ele>
        <time>2020-07-31T07:14:31Z</time>
      </trkpt>
      <trkpt lat="42.1580180" lon="2.4664410">
        <ele>494.6</ele>
        <time>2020-07-31T07:14:33Z</time>
      </trkpt>
      <trkpt lat="42.1577010" lon="2.4661540">
        <ele>493.8</ele>
        <time>2020-07-31T07:14:37Z</time>
      </trkpt>
      <trkpt lat="42.1576150" lon="2.4660800">
        <ele>493.6</ele>
        <time>2020-07-31T07:14:38Z</time>
      </trkpt>
      <trkpt lat="42.1572600" lon="2.4658100">
        <ele>492.6</ele>
        <time>2020-07-31T07:14:42Z</time>
      </trkpt>
      <trkpt lat="42.1570750" lon="2.4656860">
        <ele>491.8</ele>
        <time>2020-07-31T07:14:44Z</time>
      </trkpt>
      <trkpt lat="42.1569810" lon="2.4656260">
        <ele>491.6</ele>
        <time>2020-07-31T07:14:45Z</time>
      </trkpt>
      <trkpt lat="42.1566960" lon="2.4654490">
        <ele>490.2</ele>
        <time>2020-07-31T07:14:48Z</time>
      </trkpt>
      <trkpt lat="42.1562180" lon="2.4651720">
        <ele>488.8</ele>
        <time>2020-07-31T07:14:53Z</time>
      </trkpt>
      <trkpt lat="42.1559450" lon="2.4650190">
        <ele>487.8</ele>
        <time>2020-07-31T07:14:56Z</time>
      </trkpt>
      <trkpt lat="42.1555140" lon="2.4647870">
        <ele>487.0</ele>
        <time>2020-07-31T07:15:01Z</time>
      </trkpt>
      <trkpt lat="42.1549320" lon="2.4644870">
        <ele>487.2</ele>
        <time>2020-07-31T07:15:08Z</time>
      </trkpt>
      <trkpt lat="42.1546910" lon="2.4643640">
        <ele>487.4</ele>
        <time>2020-07-31T07:15:11Z</time>
      </trkpt>
      <trkpt lat="42.1541500" lon="2.4640630">
        <ele>488.2</ele>
        <time>2020-07-31T07:15:18Z</time>
      </trkpt>
      <trkpt lat="42.1538480" lon="2.4638940">
        <ele>488.2</ele>
        <time>2020-07-31T07:15:22Z</time>
      </trkpt>
      <trkpt lat="42.1533360" lon="2.4635840">
        <ele>488.4</ele>
        <time>2020-07-31T07:15:29Z</time>
      </trkpt>
      <trkpt lat="42.1530490" lon="2.4634110">
        <ele>488.4</ele>
        <time>2020-07-31T07:15:33Z</time>
      </trkpt>
      <trkpt lat="42.1524820" lon="2.4630900">
        <ele>488.4</ele>
        <time>2020-07-31T07:15:41Z</time>
      </trkpt>
      <trkpt lat="42.1523410" lon="2.4630120">
        <ele>488.6</ele>
        <time>2020-07-31T07:15:43Z</time>
      </trkpt>
      <trkpt lat="42.1521300" lon="2.4628980">
        <ele>489.2</ele>
        <time>2020-07-31T07:15:46Z</time>
      </trkpt>
      <trkpt lat="42.1517200" lon="2.4626580">
        <ele>489.2</ele>
        <time>2020-07-31T07:15:52Z</time>
      </trkpt>
      <trkpt lat="42.1511780" lon="2.4623590">
        <ele>489.4</ele>
        <time>2020-07-31T07:16:00Z</time>
      </trkpt>
      <trkpt lat="42.1509720" lon="2.4622460">
        <ele>489.6</ele>
        <time>2020-07-31T07:16:03Z</time>
      </trkpt>
      <trkpt lat="42.1504360" lon="2.4619390">
        <ele>489.6</ele>
        <time>2020-07-31T07:16:11Z</time>
      </trkpt>
      <trkpt lat="42.1502450" lon="2.4618290">
        <ele>489.8</ele>
        <time>2020-07-31T07:16:14Z</time>
      </trkpt>
      <trkpt lat="42.1497210" lon="2.4615360">
        <ele>489.8</ele>
        <time>2020-07-31T07:16:22Z</time>
      </trkpt>
      <trkpt lat="42.1495250" lon="2.4614250">
        <ele>489.8</ele>
        <time>2020-07-31T07:16:25Z</time>
      </trkpt>
      <trkpt lat="42.1489960" lon="2.4611330">
        <ele>490.4</ele>
        <time>2020-07-31T07:16:33Z</time>
      </trkpt>
      <trkpt lat="42.1488640" lon="2.4610610">
        <ele>490.6</ele>
        <time>2020-07-31T07:16:35Z</time>
      </trkpt>
      <trkpt lat="42.1486670" lon="2.4609600">
        <ele>490.8</ele>
        <time>2020-07-31T07:16:38Z</time>
      </trkpt>
      <trkpt lat="42.1482900" lon="2.4607240">
        <ele>490.8</ele>
        <time>2020-07-31T07:16:44Z</time>
      </trkpt>
      <trkpt lat="42.1477380" lon="2.4604460">
        <ele>491.2</ele>
        <time>2020-07-31T07:16:52Z</time>
      </trkpt>
      <trkpt lat="42.1471910" lon="2.4601410">
        <ele>491.6</ele>
        <time>2020-07-31T07:17:00Z</time>
      </trkpt>
      <trkpt lat="42.1471250" lon="2.4601020">
        <ele>491.6</ele>
        <time>2020-07-31T07:17:01Z</time>
      </trkpt>
      <trkpt lat="42.1467260" lon="2.4598710">
        <ele>491.8</ele>
        <time>2020-07-31T07:17:07Z</time>
      </trkpt>
      <trkpt lat="42.1464770" lon="2.4597260">
        <ele>492.0</ele>
        <time>2020-07-31T07:17:11Z</time>
      </trkpt>
      <trkpt lat="42.1462060" lon="2.4595800">
        <ele>492.2</ele>
        <time>2020-07-31T07:17:16Z</time>
      </trkpt>
      <trkpt lat="42.1458430" lon="2.4593760">
        <ele>492.6</ele>
        <time>2020-07-31T07:17:22Z</time>
      </trkpt>
      <trkpt lat="42.1453240" lon="2.4590810">
        <ele>492.6</ele>
        <time>2020-07-31T07:17:30Z</time>
      </trkpt>
      <trkpt lat="42.1447770" lon="2.4587620">
        <ele>492.6</ele>
        <time>2020-07-31T07:17:38Z</time>
      </trkpt>
      <trkpt lat="42.1444400" lon="2.4585740">
        <ele>492.8</ele>
        <time>2020-07-31T07:17:44Z</time>
      </trkpt>
      <trkpt lat="42.1443830" lon="2.4585430">
        <ele>493.0</ele>
        <time>2020-07-31T07:17:46Z</time>
      </trkpt>
      <trkpt lat="42.1443710" lon="2.4585380">
        <ele>493.2</ele>
        <time>2020-07-31T07:17:48Z</time>
      </trkpt>
      <trkpt lat="42.1443810" lon="2.4585480">
        <ele>494.2</ele>
        <time>2020-07-31T07:18:06Z</time>
      </trkpt>
      <trkpt lat="42.1443100" lon="2.4585070">
        <ele>494.2</ele>
        <time>2020-07-31T07:18:12Z</time>
      </trkpt>
      <trkpt lat="42.1441370" lon="2.4584100">
        <ele>494.2</ele>
        <time>2020-07-31T07:18:16Z</time>
      </trkpt>
      <trkpt lat="42.1437260" lon="2.4581770">
        <ele>493.6</ele>
        <time>2020-07-31T07:18:23Z</time>
      </trkpt>
      <trkpt lat="42.1432790" lon="2.4579230">
        <ele>493.2</ele>
        <time>2020-07-31T07:18:30Z</time>
      </trkpt>
      <trkpt lat="42.1427580" lon="2.4576290">
        <ele>493.2</ele>
        <time>2020-07-31T07:18:38Z</time>
      </trkpt>
      <trkpt lat="42.1426270" lon="2.4575570">
        <ele>493.2</ele>
        <time>2020-07-31T07:18:40Z</time>
      </trkpt>
      <trkpt lat="42.1421080" lon="2.4572720">
        <ele>493.2</ele>
        <time>2020-07-31T07:18:48Z</time>
      </trkpt>
      <trkpt lat="42.1419110" lon="2.4571610">
        <ele>493.2</ele>
        <time>2020-07-31T07:18:51Z</time>
      </trkpt>
      <trkpt lat="42.1413920" lon="2.4568700">
        <ele>493.4</ele>
        <time>2020-07-31T07:18:59Z</time>
      </trkpt>
      <trkpt lat="42.1411970" lon="2.4567580">
        <ele>493.6</ele>
        <time>2020-07-31T07:19:02Z</time>
      </trkpt>
      <trkpt lat="42.1406730" lon="2.4564580">
        <ele>493.6</ele>
        <time>2020-07-31T07:19:10Z</time>
      </trkpt>
      <trkpt lat="42.1406060" lon="2.4564200">
        <ele>493.6</ele>
        <time>2020-07-31T07:19:11Z</time>
      </trkpt>
      <trkpt lat="42.1400630" lon="2.4561240">
        <ele>493.8</ele>
        <time>2020-07-31T07:19:19Z</time>
      </trkpt>
      <trkpt lat="42.1398660" lon="2.4560090">
        <ele>493.8</ele>
        <time>2020-07-31T07:19:22Z</time>
      </trkpt>
      <trkpt lat="42.1393300" lon="2.4557040">
        <ele>494.0</ele>
        <time>2020-07-31T07:19:30Z</time>
      </trkpt>
      <trkpt lat="42.1391250" lon="2.4555900">
        <ele>494.2</ele>
        <time>2020-07-31T07:19:33Z</time>
      </trkpt>
      <trkpt lat="42.1387100" lon="2.4553580">
        <ele>495.0</ele>
        <time>2020-07-31T07:19:39Z</time>
      </trkpt>
      <trkpt lat="42.1383000" lon="2.4551270">
        <ele>495.4</ele>
        <time>2020-07-31T07:19:45Z</time>
      </trkpt>
      <trkpt lat="42.1377640" lon="2.4548270">
        <ele>495.4</ele>
        <time>2020-07-31T07:19:53Z</time>
      </trkpt>
      <trkpt lat="42.1372960" lon="2.4545620">
        <ele>495.6</ele>
        <time>2020-07-31T07:20:00Z</time>
      </trkpt>
      <trkpt lat="42.1367610" lon="2.4542610">
        <ele>495.8</ele>
        <time>2020-07-31T07:20:08Z</time>
      </trkpt>
      <trkpt lat="42.1364930" lon="2.4541090">
        <ele>496.0</ele>
        <time>2020-07-31T07:20:12Z</time>
      </trkpt>
      <trkpt lat="42.1360260" lon="2.4538430">
        <ele>496.4</ele>
        <time>2020-07-31T07:20:19Z</time>
      </trkpt>
      <trkpt lat="42.1356250" lon="2.4536190">
        <ele>496.8</ele>
        <time>2020-07-31T07:20:25Z</time>
      </trkpt>
      <trkpt lat="42.1350930" lon="2.4533170">
        <ele>497.0</ele>
        <time>2020-07-31T07:20:33Z</time>
      </trkpt>
      <trkpt lat="42.1347580" lon="2.4531260">
        <ele>497.4</ele>
        <time>2020-07-31T07:20:38Z</time>
      </trkpt>
      <trkpt lat="42.1344900" lon="2.4529770">
        <ele>497.6</ele>
        <time>2020-07-31T07:20:42Z</time>
      </trkpt>
      <trkpt lat="42.1342250" lon="2.4528300">
        <ele>497.6</ele>
        <time>2020-07-31T07:20:46Z</time>
      </trkpt>
      <trkpt lat="42.1336940" lon="2.4525230">
        <ele>497.8</ele>
        <time>2020-07-31T07:20:54Z</time>
      </trkpt>
      <trkpt lat="42.1331620" lon="2.4522280">
        <ele>498.4</ele>
        <time>2020-07-31T07:21:02Z</time>
      </trkpt>
      <trkpt lat="42.1328960" lon="2.4520770">
        <ele>498.4</ele>
        <time>2020-07-31T07:21:06Z</time>
      </trkpt>
      <trkpt lat="42.1323600" lon="2.4517790">
        <ele>498.6</ele>
        <time>2020-07-31T07:21:14Z</time>
      </trkpt>
      <trkpt lat="42.1320780" lon="2.4516340">
        <ele>498.8</ele>
        <time>2020-07-31T07:21:18Z</time>
      </trkpt>
      <trkpt lat="42.1315090" lon="2.4513470">
        <ele>499.8</ele>
        <time>2020-07-31T07:21:26Z</time>
      </trkpt>
      <trkpt lat="42.1313660" lon="2.4512750">
        <ele>499.8</ele>
        <time>2020-07-31T07:21:28Z</time>
      </trkpt>
      <trkpt lat="42.1308500" lon="2.4510220">
        <ele>499.8</ele>
        <time>2020-07-31T07:21:35Z</time>
      </trkpt>
      <trkpt lat="42.1305500" lon="2.4508860">
        <ele>499.8</ele>
        <time>2020-07-31T07:21:39Z</time>
      </trkpt>
      <trkpt lat="42.1301960" lon="2.4507190">
        <ele>499.4</ele>
        <time>2020-07-31T07:21:44Z</time>
      </trkpt>
      <trkpt lat="42.1296990" lon="2.4504150">
        <ele>499.6</ele>
        <time>2020-07-31T07:21:51Z</time>
      </trkpt>
      <trkpt lat="42.1292640" lon="2.4499900">
        <ele>499.6</ele>
        <time>2020-07-31T07:21:58Z</time>
      </trkpt>
      <trkpt lat="42.1288000" lon="2.4494550">
        <ele>499.8</ele>
        <time>2020-07-31T07:22:06Z</time>
      </trkpt>
      <trkpt lat="42.1286400" lon="2.4492600">
        <ele>500.0</ele>
        <time>2020-07-31T07:22:09Z</time>
      </trkpt>
      <trkpt lat="42.1285760" lon="2.4490870">
        <ele>500.0</ele>
        <time>2020-07-31T07:22:11Z</time>
      </trkpt>
      <trkpt lat="42.1283980" lon="2.4489360">
        <ele>500.0</ele>
        <time>2020-07-31T07:22:14Z</time>
      </trkpt>
      <trkpt lat="42.1282780" lon="2.4490140">
        <ele>500.0</ele>
        <time>2020-07-31T07:22:16Z</time>
      </trkpt>
      <trkpt lat="42.1281920" lon="2.4492670">
        <ele>500.0</ele>
        <time>2020-07-31T07:22:19Z</time>
      </trkpt>
      <trkpt lat="42.1281620" lon="2.4493540">
        <ele>500.0</ele>
        <time>2020-07-31T07:22:20Z</time>
      </trkpt>
      <trkpt lat="42.1280730" lon="2.4494990">
        <ele>500.0</ele>
        <time>2020-07-31T07:22:22Z</time>
      </trkpt>
      <trkpt lat="42.1279670" lon="2.4496210">
        <ele>500.0</ele>
        <time>2020-07-31T07:22:24Z</time>
      </trkpt>
      <trkpt lat="42.1277560" lon="2.4498710">
        <ele>500.2</ele>
        <time>2020-07-31T07:22:28Z</time>
      </trkpt>
      <trkpt lat="42.1274720" lon="2.4502930">
        <ele>500.4</ele>
        <time>2020-07-31T07:22:34Z</time>
      </trkpt>
      <trkpt lat="42.1273750" lon="2.4504350">
        <ele>500.4</ele>
        <time>2020-07-31T07:22:36Z</time>
      </trkpt>
      <trkpt lat="42.1270850" lon="2.4508500">
        <ele>500.6</ele>
        <time>2020-07-31T07:22:42Z</time>
      </trkpt>
      <trkpt lat="42.1267230" lon="2.4513860">
        <ele>500.6</ele>
        <time>2020-07-31T07:22:50Z</time>
      </trkpt>
      <trkpt lat="42.1265160" lon="2.4517070">
        <ele>501.6</ele>
        <time>2020-07-31T07:22:55Z</time>
      </trkpt>
      <trkpt lat="42.1264350" lon="2.4518340">
        <ele>502.2</ele>
        <time>2020-07-31T07:22:57Z</time>
      </trkpt>
      <trkpt lat="42.1263410" lon="2.4519860">
        <ele>502.6</ele>
        <time>2020-07-31T07:22:59Z</time>
      </trkpt>
      <trkpt lat="42.1261030" lon="2.4523310">
        <ele>503.8</ele>
        <time>2020-07-31T07:23:05Z</time>
      </trkpt>
      <trkpt lat="42.1258590" lon="2.4526930">
        <ele>505.0</ele>
        <time>2020-07-31T07:23:12Z</time>
      </trkpt>
      <trkpt lat="42.1258250" lon="2.4527460">
        <ele>505.2</ele>
        <time>2020-07-31T07:23:13Z</time>
      </trkpt>
      <trkpt lat="42.1256530" lon="2.4530180">
        <ele>506.2</ele>
        <time>2020-07-31T07:23:18Z</time>
      </trkpt>
      <trkpt lat="42.1255420" lon="2.4531930">
        <ele>506.8</ele>
        <time>2020-07-31T07:23:21Z</time>
      </trkpt>
      <trkpt lat="42.1254660" lon="2.4533060">
        <ele>507.2</ele>
        <time>2020-07-31T07:23:23Z</time>
      </trkpt>
      <trkpt lat="42.1253040" lon="2.4536020">
        <ele>508.2</ele>
        <time>2020-07-31T07:23:28Z</time>
      </trkpt>
      <trkpt lat="42.1252740" lon="2.4536680">
        <ele>508.4</ele>
        <time>2020-07-31T07:23:29Z</time>
      </trkpt>
      <trkpt lat="42.1251050" lon="2.4540900">
        <ele>509.6</ele>
        <time>2020-07-31T07:23:35Z</time>
      </trkpt>
      <trkpt lat="42.1250530" lon="2.4542440">
        <ele>509.8</ele>
        <time>2020-07-31T07:23:37Z</time>
      </trkpt>
      <trkpt lat="42.1249160" lon="2.4546960">
        <ele>510.6</ele>
        <time>2020-07-31T07:23:43Z</time>
      </trkpt>
      <trkpt lat="42.1248620" lon="2.4549310">
        <ele>510.8</ele>
        <time>2020-07-31T07:23:46Z</time>
      </trkpt>
      <trkpt lat="42.1248080" lon="2.4552480">
        <ele>511.8</ele>
        <time>2020-07-31T07:23:50Z</time>
      </trkpt>
      <trkpt lat="42.1247690" lon="2.4555600">
        <ele>512.8</ele>
        <time>2020-07-31T07:23:54Z</time>
      </trkpt>
      <trkpt lat="42.1247600" lon="2.4556420">
        <ele>513.0</ele>
        <time>2020-07-31T07:23:55Z</time>
      </trkpt>
      <trkpt lat="42.1247600" lon="2.4556420">
        <ele>514.2</ele>
        <time>2020-07-31T07:24:07Z</time>
      </trkpt>
      <trkpt lat="42.1246400" lon="2.4559640">
        <ele>515.0</ele>
        <time>2020-07-31T07:24:14Z</time>
      </trkpt>
      <trkpt lat="42.1245190" lon="2.4562860">
        <ele>516.0</ele>
        <time>2020-07-31T07:24:25Z</time>
      </trkpt>
      <trkpt lat="42.1243990" lon="2.4566080">
        <ele>517.0</ele>
        <time>2020-07-31T07:24:33Z</time>
      </trkpt>
      <trkpt lat="42.1242780" lon="2.4569300">
        <ele>518.2</ele>
        <time>2020-07-31T07:24:41Z</time>
      </trkpt>
      <trkpt lat="42.1241580" lon="2.4572520">
        <ele>519.4</ele>
        <time>2020-07-31T07:24:49Z</time>
      </trkpt>
      <trkpt lat="42.1240370" lon="2.4575740">
        <ele>520.4</ele>
        <time>2020-07-31T07:24:56Z</time>
      </trkpt>
      <trkpt lat="42.1239170" lon="2.4578960">
        <ele>521.4</ele>
        <time>2020-07-31T07:25:03Z</time>
      </trkpt>
      <trkpt lat="42.1237960" lon="2.4582180">
        <ele>522.6</ele>
        <time>2020-07-31T07:25:08Z</time>
      </trkpt>
      <trkpt lat="42.1236760" lon="2.4585400">
        <ele>523.8</ele>
        <time>2020-07-31T07:25:23Z</time>
      </trkpt>
      <trkpt lat="42.1235550" lon="2.4588620">
        <ele>524.8</ele>
        <time>2020-07-31T07:25:31Z</time>
      </trkpt>
      <trkpt lat="42.1234350" lon="2.4591840">
        <ele>526.0</ele>
        <time>2020-07-31T07:25:42Z</time>
      </trkpt>
      <trkpt lat="42.1233140" lon="2.4595060">
        <ele>527.0</ele>
        <time>2020-07-31T07:25:48Z</time>
      </trkpt>
      <trkpt lat="42.1231940" lon="2.4598280">
        <ele>528.2</ele>
        <time>2020-07-31T07:25:57Z</time>
      </trkpt>
      <trkpt lat="42.1230730" lon="2.4601500">
        <ele>528.8</ele>
        <time>2020-07-31T07:26:01Z</time>
      </trkpt>
      <trkpt lat="42.1229530" lon="2.4604720">
        <ele>529.4</ele>
        <time>2020-07-31T07:26:04Z</time>
      </trkpt>
      <trkpt lat="42.1228320" lon="2.4607940">
        <ele>530.0</ele>
        <time>2020-07-31T07:26:08Z</time>
      </trkpt>
      <trkpt lat="42.1209040" lon="2.4659450">
        <ele>530.2</ele>
        <time>2020-07-31T07:26:12Z</time>
      </trkpt>
      <trkpt lat="42.1208550" lon="2.4660220">
        <ele>530.4</ele>
        <time>2020-07-31T07:26:13Z</time>
      </trkpt>
      <trkpt lat="42.1208120" lon="2.4663120">
        <ele>530.8</ele>
        <time>2020-07-31T07:26:16Z</time>
      </trkpt>
      <trkpt lat="42.1206480" lon="2.4670700">
        <ele>531.4</ele>
        <time>2020-07-31T07:26:25Z</time>
      </trkpt>
      <trkpt lat="42.1206250" lon="2.4673360">
        <ele>531.6</ele>
        <time>2020-07-31T07:26:28Z</time>
      </trkpt>
      <trkpt lat="42.1205990" lon="2.4678970">
        <ele>531.6</ele>
        <time>2020-07-31T07:26:34Z</time>
      </trkpt>
      <trkpt lat="42.1206330" lon="2.4685430">
        <ele>531.4</ele>
        <time>2020-07-31T07:26:41Z</time>
      </trkpt>
      <trkpt lat="42.1207270" lon="2.4692490">
        <ele>531.4</ele>
        <time>2020-07-31T07:26:49Z</time>
      </trkpt>
      <trkpt lat="42.1208830" lon="2.4699040">
        <ele>532.2</ele>
        <time>2020-07-31T07:26:57Z</time>
      </trkpt>
      <trkpt lat="42.1209620" lon="2.4701210">
        <ele>532.8</ele>
        <time>2020-07-31T07:27:00Z</time>
      </trkpt>
      <trkpt lat="42.1210660" lon="2.4704000">
        <ele>533.8</ele>
        <time>2020-07-31T07:27:04Z</time>
      </trkpt>
      <trkpt lat="42.1210930" lon="2.4704670">
        <ele>533.8</ele>
        <time>2020-07-31T07:27:05Z</time>
      </trkpt>
      <trkpt lat="42.1212480" lon="2.4708540">
        <ele>535.4</ele>
        <time>2020-07-31T07:27:11Z</time>
      </trkpt>
      <trkpt lat="42.1212930" lon="2.4709780">
        <ele>535.8</ele>
        <time>2020-07-31T07:27:13Z</time>
      </trkpt>
      <trkpt lat="42.1213690" lon="2.4712180">
        <ele>536.6</ele>
        <time>2020-07-31T07:27:17Z</time>
      </trkpt>
      <trkpt lat="42.1214550" lon="2.4714490">
        <ele>537.4</ele>
        <time>2020-07-31T07:27:21Z</time>
      </trkpt>
      <trkpt lat="42.1214780" lon="2.4715070">
        <ele>537.6</ele>
        <time>2020-07-31T07:27:22Z</time>
      </trkpt>
      <trkpt lat="42.1215840" lon="2.4717670">
        <ele>539.2</ele>
        <time>2020-07-31T07:27:27Z</time>
      </trkpt>
      <trkpt lat="42.1216130" lon="2.4718040">
        <ele>541.0</ele>
        <time>2020-07-31T07:29:39Z</time>
      </trkpt>
      <trkpt lat="42.1216990" lon="2.4720190">
        <ele>541.2</ele>
        <time>2020-07-31T07:29:44Z</time>
      </trkpt>
      <trkpt lat="42.1218890" lon="2.4724420">
        <ele>542.2</ele>
        <time>2020-07-31T07:29:53Z</time>
      </trkpt>
      <trkpt lat="42.1220270" lon="2.4727200">
        <ele>543.4</ele>
        <time>2020-07-31T07:29:59Z</time>
      </trkpt>
      <trkpt lat="42.1220710" lon="2.4728160">
        <ele>543.6</ele>
        <time>2020-07-31T07:30:01Z</time>
      </trkpt>
      <trkpt lat="42.1221690" lon="2.4730030">
        <ele>544.4</ele>
        <time>2020-07-31T07:30:05Z</time>
      </trkpt>
      <trkpt lat="42.1222650" lon="2.4731990">
        <ele>545.0</ele>
        <time>2020-07-31T07:30:09Z</time>
      </trkpt>
      <trkpt lat="42.1223620" lon="2.4733880">
        <ele>545.4</ele>
        <time>2020-07-31T07:30:13Z</time>
      </trkpt>
      <trkpt lat="42.1224870" lon="2.4736360">
        <ele>546.6</ele>
        <time>2020-07-31T07:30:18Z</time>
      </trkpt>
      <trkpt lat="42.1226050" lon="2.4738980">
        <ele>548.0</ele>
        <time>2020-07-31T07:30:23Z</time>
      </trkpt>
      <trkpt lat="42.1227300" lon="2.4742270">
        <ele>549.0</ele>
        <time>2020-07-31T07:30:29Z</time>
      </trkpt>
      <trkpt lat="42.1228490" lon="2.4747220">
        <ele>550.2</ele>
        <time>2020-07-31T07:30:37Z</time>
      </trkpt>
      <trkpt lat="42.1228790" lon="2.4751040">
        <ele>551.2</ele>
        <time>2020-07-31T07:30:43Z</time>
      </trkpt>
      <trkpt lat="42.1228780" lon="2.4751680">
        <ele>551.4</ele>
        <time>2020-07-31T07:30:44Z</time>
      </trkpt>
      <trkpt lat="42.1228760" lon="2.4752330">
        <ele>551.6</ele>
        <time>2020-07-31T07:30:45Z</time>
      </trkpt>
      <trkpt lat="42.1228440" lon="2.4757530">
        <ele>552.4</ele>
        <time>2020-07-31T07:30:53Z</time>
      </trkpt>
      <trkpt lat="42.1228170" lon="2.4760240">
        <ele>553.2</ele>
        <time>2020-07-31T07:30:57Z</time>
      </trkpt>
      <trkpt lat="42.1227900" lon="2.4762340">
        <ele>553.6</ele>
        <time>2020-07-31T07:31:00Z</time>
      </trkpt>
      <trkpt lat="42.1227480" lon="2.4766070">
        <ele>554.2</ele>
        <time>2020-07-31T07:31:05Z</time>
      </trkpt>
      <trkpt lat="42.1227190" lon="2.4768410">
        <ele>554.6</ele>
        <time>2020-07-31T07:31:08Z</time>
      </trkpt>
      <trkpt lat="42.1226680" lon="2.4773290">
        <ele>555.2</ele>
        <time>2020-07-31T07:31:14Z</time>
      </trkpt>
      <trkpt lat="42.1225840" lon="2.4781090">
        <ele>555.6</ele>
        <time>2020-07-31T07:31:23Z</time>
      </trkpt>
      <trkpt lat="42.1225730" lon="2.4781970">
        <ele>555.6</ele>
        <time>2020-07-31T07:31:24Z</time>
      </trkpt>
      <trkpt lat="42.1224840" lon="2.4789560">
        <ele>555.6</ele>
        <time>2020-07-31T07:31:33Z</time>
      </trkpt>
      <trkpt lat="42.1224490" lon="2.4793520">
        <ele>556.0</ele>
        <time>2020-07-31T07:31:38Z</time>
      </trkpt>
      <trkpt lat="42.1224360" lon="2.4795820">
        <ele>556.6</ele>
        <time>2020-07-31T07:31:41Z</time>
      </trkpt>
      <trkpt lat="42.1224330" lon="2.4798100">
        <ele>557.0</ele>
        <time>2020-07-31T07:31:44Z</time>
      </trkpt>
      <trkpt lat="42.1224620" lon="2.4801850">
        <ele>558.2</ele>
        <time>2020-07-31T07:31:49Z</time>
      </trkpt>
      <trkpt lat="42.1224730" lon="2.4802590">
        <ele>558.4</ele>
        <time>2020-07-31T07:31:50Z</time>
      </trkpt>
      <trkpt lat="42.1224970" lon="2.4804040">
        <ele>559.4</ele>
        <time>2020-07-31T07:31:52Z</time>
      </trkpt>
      <trkpt lat="42.1226060" lon="2.4808200">
        <ele>560.6</ele>
        <time>2020-07-31T07:31:58Z</time>
      </trkpt>
      <trkpt lat="42.1226300" lon="2.4808850">
        <ele>560.6</ele>
        <time>2020-07-31T07:31:59Z</time>
      </trkpt>
      <trkpt lat="42.1227780" lon="2.4811850">
        <ele>561.8</ele>
        <time>2020-07-31T07:32:04Z</time>
      </trkpt>
      <trkpt lat="42.1229100" lon="2.4814230">
        <ele>562.8</ele>
        <time>2020-07-31T07:32:08Z</time>
      </trkpt>
      <trkpt lat="42.1230550" lon="2.4816520">
        <ele>564.0</ele>
        <time>2020-07-31T07:32:12Z</time>
      </trkpt>
      <trkpt lat="42.1230910" lon="2.4817090">
        <ele>564.0</ele>
        <time>2020-07-31T07:32:13Z</time>
      </trkpt>
      <trkpt lat="42.1233910" lon="2.4821870">
        <ele>564.6</ele>
        <time>2020-07-31T07:32:21Z</time>
      </trkpt>
      <trkpt lat="42.1235470" lon="2.4825330">
        <ele>565.0</ele>
        <time>2020-07-31T07:32:26Z</time>
      </trkpt>
      <trkpt lat="42.1235970" lon="2.4826840">
        <ele>565.2</ele>
        <time>2020-07-31T07:32:28Z</time>
      </trkpt>
      <trkpt lat="42.1236720" lon="2.4831500">
        <ele>565.8</ele>
        <time>2020-07-31T07:32:34Z</time>
      </trkpt>
      <trkpt lat="42.1236730" lon="2.4832990">
        <ele>566.0</ele>
        <time>2020-07-31T07:32:36Z</time>
      </trkpt>
      <trkpt lat="42.1236350" lon="2.4836560">
        <ele>566.4</ele>
        <time>2020-07-31T07:32:41Z</time>
      </trkpt>
      <trkpt lat="42.1235260" lon="2.4840170">
        <ele>567.2</ele>
        <time>2020-07-31T07:32:47Z</time>
      </trkpt>
      <trkpt lat="42.1234320" lon="2.4842720">
        <ele>568.4</ele>
        <time>2020-07-31T07:32:52Z</time>
      </trkpt>
      <trkpt lat="42.1233540" lon="2.4844780">
        <ele>569.8</ele>
        <time>2020-07-31T07:32:56Z</time>
      </trkpt>
      <trkpt lat="42.1232920" lon="2.4846360">
        <ele>570.8</ele>
        <time>2020-07-31T07:32:59Z</time>
      </trkpt>
      <trkpt lat="42.1231880" lon="2.4849020">
        <ele>572.0</ele>
        <time>2020-07-31T07:33:04Z</time>
      </trkpt>
      <trkpt lat="42.1231250" lon="2.4850650">
        <ele>573.0</ele>
        <time>2020-07-31T07:33:07Z</time>
      </trkpt>
      <trkpt lat="42.1231040" lon="2.4851200">
        <ele>573.2</ele>
        <time>2020-07-31T07:33:08Z</time>
      </trkpt>
      <trkpt lat="42.1229890" lon="2.4854250">
        <ele>574.2</ele>
        <time>2020-07-31T07:33:14Z</time>
      </trkpt>
      <trkpt lat="42.1229260" lon="2.4855840">
        <ele>575.4</ele>
        <time>2020-07-31T07:33:17Z</time>
      </trkpt>
      <trkpt lat="42.1228610" lon="2.4857530">
        <ele>576.4</ele>
        <time>2020-07-31T07:33:20Z</time>
      </trkpt>
      <trkpt lat="42.1228160" lon="2.4858660">
        <ele>576.6</ele>
        <time>2020-07-31T07:33:22Z</time>
      </trkpt>
      <trkpt lat="42.1226640" lon="2.4862650">
        <ele>577.4</ele>
        <time>2020-07-31T07:33:29Z</time>
      </trkpt>
      <trkpt lat="42.1225930" lon="2.4864420">
        <ele>577.8</ele>
        <time>2020-07-31T07:33:32Z</time>
      </trkpt>
      <trkpt lat="42.1225220" lon="2.4866300">
        <ele>578.6</ele>
        <time>2020-07-31T07:33:35Z</time>
      </trkpt>
      <trkpt lat="42.1224000" lon="2.4869500">
        <ele>580.0</ele>
        <time>2020-07-31T07:33:40Z</time>
      </trkpt>
      <trkpt lat="42.1221770" lon="2.4875330">
        <ele>580.6</ele>
        <time>2020-07-31T07:33:49Z</time>
      </trkpt>
      <trkpt lat="42.1220260" lon="2.4879360">
        <ele>581.0</ele>
        <time>2020-07-31T07:33:55Z</time>
      </trkpt>
      <trkpt lat="42.1219400" lon="2.4881290">
        <ele>581.2</ele>
        <time>2020-07-31T07:33:58Z</time>
      </trkpt>
      <trkpt lat="42.1217220" lon="2.4885340">
        <ele>581.8</ele>
        <time>2020-07-31T07:34:05Z</time>
      </trkpt>
      <trkpt lat="42.1215610" lon="2.4887310">
        <ele>582.0</ele>
        <time>2020-07-31T07:34:09Z</time>
      </trkpt>
      <trkpt lat="42.1214240" lon="2.4888640">
        <ele>582.4</ele>
        <time>2020-07-31T07:34:12Z</time>
      </trkpt>
      <trkpt lat="42.1212290" lon="2.4890180">
        <ele>583.0</ele>
        <time>2020-07-31T07:34:16Z</time>
      </trkpt>
      <trkpt lat="42.1210740" lon="2.4891190">
        <ele>583.4</ele>
        <time>2020-07-31T07:34:19Z</time>
      </trkpt>
      <trkpt lat="42.1207890" lon="2.4893040">
        <ele>583.8</ele>
        <time>2020-07-31T07:34:25Z</time>
      </trkpt>
      <trkpt lat="42.1206840" lon="2.4893960">
        <ele>584.0</ele>
        <time>2020-07-31T07:34:28Z</time>
      </trkpt>
      <trkpt lat="42.1206550" lon="2.4894190">
        <ele>584.2</ele>
        <time>2020-07-31T07:34:29Z</time>
      </trkpt>
      <trkpt lat="42.1206230" lon="2.4894440">
        <ele>584.4</ele>
        <time>2020-07-31T07:34:30Z</time>
      </trkpt>
      <trkpt lat="42.1189910" lon="2.4905870">
        <ele>584.6</ele>
        <time>2020-07-31T07:34:55Z</time>
      </trkpt>
      <trkpt lat="42.1189750" lon="2.4906090">
        <ele>584.6</ele>
        <time>2020-07-31T07:34:56Z</time>
      </trkpt>
      <trkpt lat="42.1188550" lon="2.4906210">
        <ele>584.4</ele>
        <time>2020-07-31T07:34:57Z</time>
      </trkpt>
      <trkpt lat="42.1185870" lon="2.4907260">
        <ele>584.4</ele>
        <time>2020-07-31T07:35:00Z</time>
      </trkpt>
      <trkpt lat="42.1181440" lon="2.4907810">
        <ele>584.2</ele>
        <time>2020-07-31T07:35:06Z</time>
      </trkpt>
      <trkpt lat="42.1180560" lon="2.4907760">
        <ele>584.2</ele>
        <time>2020-07-31T07:35:07Z</time>
      </trkpt>
      <trkpt lat="42.1177910" lon="2.4907050">
        <ele>584.0</ele>
        <time>2020-07-31T07:35:10Z</time>
      </trkpt>
      <trkpt lat="42.1174600" lon="2.4905380">
        <ele>582.6</ele>
        <time>2020-07-31T07:35:14Z</time>
      </trkpt>
      <trkpt lat="42.1173810" lon="2.4904860">
        <ele>582.0</ele>
        <time>2020-07-31T07:35:15Z</time>
      </trkpt>
      <trkpt lat="42.1172320" lon="2.4903660">
        <ele>581.6</ele>
        <time>2020-07-31T07:35:17Z</time>
      </trkpt>
      <trkpt lat="42.1170200" lon="2.4901590">
        <ele>581.0</ele>
        <time>2020-07-31T07:35:20Z</time>
      </trkpt>
      <trkpt lat="42.1166590" lon="2.4898110">
        <ele>580.4</ele>
        <time>2020-07-31T07:35:25Z</time>
      </trkpt>
      <trkpt lat="42.1164320" lon="2.4896090">
        <ele>579.6</ele>
        <time>2020-07-31T07:35:28Z</time>
      </trkpt>
      <trkpt lat="42.1162810" lon="2.4894660">
        <ele>579.4</ele>
        <time>2020-07-31T07:35:30Z</time>
      </trkpt>
      <trkpt lat="42.1159100" lon="2.4891260">
        <ele>578.2</ele>
        <time>2020-07-31T07:35:35Z</time>
      </trkpt>
      <trkpt lat="42.1158270" lon="2.4890750">
        <ele>578.0</ele>
        <time>2020-07-31T07:35:36Z</time>
      </trkpt>
      <trkpt lat="42.1157400" lon="2.4890330">
        <ele>577.8</ele>
        <time>2020-07-31T07:35:37Z</time>
      </trkpt>
      <trkpt lat="42.1154680" lon="2.4889550">
        <ele>577.2</ele>
        <time>2020-07-31T07:35:40Z</time>
      </trkpt>
      <trkpt lat="42.1150880" lon="2.4889120">
        <ele>576.0</ele>
        <time>2020-07-31T07:35:44Z</time>
      </trkpt>
      <trkpt lat="42.1148930" lon="2.4889030">
        <ele>575.2</ele>
        <time>2020-07-31T07:35:46Z</time>
      </trkpt>
      <trkpt lat="42.1147940" lon="2.4889010">
        <ele>574.8</ele>
        <time>2020-07-31T07:35:47Z</time>
      </trkpt>
      <trkpt lat="42.1143680" lon="2.4889800">
        <ele>573.6</ele>
        <time>2020-07-31T07:35:51Z</time>
      </trkpt>
      <trkpt lat="42.1140420" lon="2.4891330">
        <ele>572.2</ele>
        <time>2020-07-31T07:35:54Z</time>
      </trkpt>
      <trkpt lat="42.1139350" lon="2.4892010">
        <ele>571.2</ele>
        <time>2020-07-31T07:35:55Z</time>
      </trkpt>
      <trkpt lat="42.1137390" lon="2.4893420">
        <ele>570.0</ele>
        <time>2020-07-31T07:35:57Z</time>
      </trkpt>
      <trkpt lat="42.1135330" lon="2.4894970">
        <ele>569.0</ele>
        <time>2020-07-31T07:35:59Z</time>
      </trkpt>
      <trkpt lat="42.1133300" lon="2.4896480">
        <ele>567.4</ele>
        <time>2020-07-31T07:36:01Z</time>
      </trkpt>
      <trkpt lat="42.1132290" lon="2.4897170">
        <ele>566.6</ele>
        <time>2020-07-31T07:36:02Z</time>
      </trkpt>
      <trkpt lat="42.1131280" lon="2.4897800">
        <ele>565.8</ele>
        <time>2020-07-31T07:36:03Z</time>
      </trkpt>
      <trkpt lat="42.1129270" lon="2.4898840">
        <ele>564.8</ele>
        <time>2020-07-31T07:36:05Z</time>
      </trkpt>
      <trkpt lat="42.1127280" lon="2.4899580">
        <ele>563.8</ele>
        <time>2020-07-31T07:36:07Z</time>
      </trkpt>
      <trkpt lat="42.1126320" lon="2.4899830">
        <ele>563.6</ele>
        <time>2020-07-31T07:36:08Z</time>
      </trkpt>
      <trkpt lat="42.1122110" lon="2.4900360">
        <ele>563.0</ele>
        <time>2020-07-31T07:36:12Z</time>
      </trkpt>
      <trkpt lat="42.1119930" lon="2.4900300">
        <ele>562.4</ele>
        <time>2020-07-31T07:36:14Z</time>
      </trkpt>
      <trkpt lat="42.1116680" lon="2.4899810">
        <ele>562.0</ele>
        <time>2020-07-31T07:36:17Z</time>
      </trkpt>
      <trkpt lat="42.1113420" lon="2.4899220">
        <ele>561.2</ele>
        <time>2020-07-31T07:36:20Z</time>
      </trkpt>
      <trkpt lat="42.1110140" lon="2.4898980">
        <ele>560.2</ele>
        <time>2020-07-31T07:36:23Z</time>
      </trkpt>
      <trkpt lat="42.1109020" lon="2.4899050">
        <ele>560.0</ele>
        <time>2020-07-31T07:36:24Z</time>
      </trkpt>
      <trkpt lat="42.1106820" lon="2.4899340">
        <ele>559.2</ele>
        <time>2020-07-31T07:36:26Z</time>
      </trkpt>
      <trkpt lat="42.1103540" lon="2.4900340">
        <ele>558.2</ele>
        <time>2020-07-31T07:36:29Z</time>
      </trkpt>
      <trkpt lat="42.1102460" lon="2.4900800">
        <ele>558.0</ele>
        <time>2020-07-31T07:36:30Z</time>
      </trkpt>
      <trkpt lat="42.1099220" lon="2.4902150">
        <ele>556.6</ele>
        <time>2020-07-31T07:36:33Z</time>
      </trkpt>
      <trkpt lat="42.1096160" lon="2.4903360">
        <ele>555.6</ele>
        <time>2020-07-31T07:36:36Z</time>
      </trkpt>
      <trkpt lat="42.1095210" lon="2.4903730">
        <ele>555.2</ele>
        <time>2020-07-31T07:36:37Z</time>
      </trkpt>
      <trkpt lat="42.1094260" lon="2.4904120">
        <ele>554.2</ele>
        <time>2020-07-31T07:36:38Z</time>
      </trkpt>
      <trkpt lat="42.1092260" lon="2.4904860">
        <ele>552.8</ele>
        <time>2020-07-31T07:36:40Z</time>
      </trkpt>
      <trkpt lat="42.1089200" lon="2.4906160">
        <ele>551.8</ele>
        <time>2020-07-31T07:36:43Z</time>
      </trkpt>
      <trkpt lat="42.1083960" lon="2.4908450">
        <ele>550.8</ele>
        <time>2020-07-31T07:36:48Z</time>
      </trkpt>
      <trkpt lat="42.1079900" lon="2.4909980">
        <ele>549.6</ele>
        <time>2020-07-31T07:36:52Z</time>
      </trkpt>
      <trkpt lat="42.1074610" lon="2.4911870">
        <ele>548.6</ele>
        <time>2020-07-31T07:36:57Z</time>
      </trkpt>
      <trkpt lat="42.1070260" lon="2.4913470">
        <ele>547.6</ele>
        <time>2020-07-31T07:37:01Z</time>
      </trkpt>
      <trkpt lat="42.1069140" lon="2.4913900">
        <ele>547.4</ele>
        <time>2020-07-31T07:37:02Z</time>
      </trkpt>
      <trkpt lat="42.1064740" lon="2.4915500">
        <ele>546.4</ele>
        <time>2020-07-31T07:37:06Z</time>
      </trkpt>
      <trkpt lat="42.1061520" lon="2.4916660">
        <ele>545.2</ele>
        <time>2020-07-31T07:37:09Z</time>
      </trkpt>
      <trkpt lat="42.1060450" lon="2.4917020">
        <ele>545.0</ele>
        <time>2020-07-31T07:37:10Z</time>
      </trkpt>
      <trkpt lat="42.1058290" lon="2.4917710">
        <ele>544.0</ele>
        <time>2020-07-31T07:37:12Z</time>
      </trkpt>
      <trkpt lat="42.1055080" lon="2.4918790">
        <ele>543.4</ele>
        <time>2020-07-31T07:37:15Z</time>
      </trkpt>
      <trkpt lat="42.1054030" lon="2.4919180">
        <ele>542.8</ele>
        <time>2020-07-31T07:37:16Z</time>
      </trkpt>
      <trkpt lat="42.1050810" lon="2.4920310">
        <ele>541.2</ele>
        <time>2020-07-31T07:37:19Z</time>
      </trkpt>
      <trkpt lat="42.1046640" lon="2.4922350">
        <ele>540.0</ele>
        <time>2020-07-31T07:37:23Z</time>
      </trkpt>
      <trkpt lat="42.1044670" lon="2.4923800">
        <ele>539.4</ele>
        <time>2020-07-31T07:37:25Z</time>
      </trkpt>
      <trkpt lat="42.1042860" lon="2.4925530">
        <ele>538.8</ele>
        <time>2020-07-31T07:37:27Z</time>
      </trkpt>
      <trkpt lat="42.1040390" lon="2.4928560">
        <ele>538.0</ele>
        <time>2020-07-31T07:37:30Z</time>
      </trkpt>
      <trkpt lat="42.1039670" lon="2.4929680">
        <ele>537.6</ele>
        <time>2020-07-31T07:37:31Z</time>
      </trkpt>
      <trkpt lat="42.1037770" lon="2.4933260">
        <ele>536.2</ele>
        <time>2020-07-31T07:37:34Z</time>
      </trkpt>
      <trkpt lat="42.1036140" lon="2.4937090">
        <ele>535.0</ele>
        <time>2020-07-31T07:37:37Z</time>
      </trkpt>
      <trkpt lat="42.1034650" lon="2.4940960">
        <ele>533.8</ele>
        <time>2020-07-31T07:37:40Z</time>
      </trkpt>
      <trkpt lat="42.1034140" lon="2.4942230">
        <ele>533.6</ele>
        <time>2020-07-31T07:37:41Z</time>
      </trkpt>
      <trkpt lat="42.1031640" lon="2.4946920">
        <ele>532.8</ele>
        <time>2020-07-31T07:37:45Z</time>
      </trkpt>
      <trkpt lat="42.1030910" lon="2.4947960">
        <ele>532.4</ele>
        <time>2020-07-31T07:37:46Z</time>
      </trkpt>
      <trkpt lat="42.1030120" lon="2.4948920">
        <ele>531.6</ele>
        <time>2020-07-31T07:37:47Z</time>
      </trkpt>
      <trkpt lat="42.1027520" lon="2.4951400">
        <ele>530.8</ele>
        <time>2020-07-31T07:37:50Z</time>
      </trkpt>
      <trkpt lat="42.1026610" lon="2.4952090">
        <ele>530.6</ele>
        <time>2020-07-31T07:37:51Z</time>
      </trkpt>
      <trkpt lat="42.1023730" lon="2.4953730">
        <ele>529.6</ele>
        <time>2020-07-31T07:37:54Z</time>
      </trkpt>
      <trkpt lat="42.1022750" lon="2.4954100">
        <ele>529.2</ele>
        <time>2020-07-31T07:37:55Z</time>
      </trkpt>
      <trkpt lat="42.1017860" lon="2.4954830">
        <ele>528.4</ele>
        <time>2020-07-31T07:38:00Z</time>
      </trkpt>
      <trkpt lat="42.1012370" lon="2.4954790">
        <ele>528.4</ele>
        <time>2020-07-31T07:38:06Z</time>
      </trkpt>
      <trkpt lat="42.1010510" lon="2.4954870">
        <ele>528.6</ele>
        <time>2020-07-31T07:38:08Z</time>
      </trkpt>
      <trkpt lat="42.1004310" lon="2.4955020">
        <ele>529.0</ele>
        <time>2020-07-31T07:38:15Z</time>
      </trkpt>
      <trkpt lat="42.0998400" lon="2.4955010">
        <ele>529.4</ele>
        <time>2020-07-31T07:38:22Z</time>
      </trkpt>
      <trkpt lat="42.0995940" lon="2.4954940">
        <ele>529.4</ele>
        <time>2020-07-31T07:38:25Z</time>
      </trkpt>
      <trkpt lat="42.0990350" lon="2.4954850">
        <ele>529.6</ele>
        <time>2020-07-31T07:38:32Z</time>
      </trkpt>
      <trkpt lat="42.0987870" lon="2.4954880">
        <ele>529.6</ele>
        <time>2020-07-31T07:38:35Z</time>
      </trkpt>
      <trkpt lat="42.0984540" lon="2.4955020">
        <ele>529.6</ele>
        <time>2020-07-31T07:38:39Z</time>
      </trkpt>
      <trkpt lat="42.0980470" lon="2.4955020">
        <ele>529.8</ele>
        <time>2020-07-31T07:38:44Z</time>
      </trkpt>
      <trkpt lat="42.0974930" lon="2.4955020">
        <ele>529.6</ele>
        <time>2020-07-31T07:38:51Z</time>
      </trkpt>
      <trkpt lat="42.0973350" lon="2.4955030">
        <ele>529.6</ele>
        <time>2020-07-31T07:38:53Z</time>
      </trkpt>
      <trkpt lat="42.0967850" lon="2.4954980">
        <ele>529.6</ele>
        <time>2020-07-31T07:39:00Z</time>
      </trkpt>
      <trkpt lat="42.0966230" lon="2.4954890">
        <ele>529.6</ele>
        <time>2020-07-31T07:39:02Z</time>
      </trkpt>
      <trkpt lat="42.0960680" lon="2.4953730">
        <ele>529.6</ele>
        <time>2020-07-31T07:39:09Z</time>
      </trkpt>
      <trkpt lat="42.0956270" lon="2.4951300">
        <ele>529.4</ele>
        <time>2020-07-31T07:39:15Z</time>
      </trkpt>
      <trkpt lat="42.0951950" lon="2.4947840">
        <ele>529.4</ele>
        <time>2020-07-31T07:39:21Z</time>
      </trkpt>
      <trkpt lat="42.0947190" lon="2.4942380">
        <ele>528.8</ele>
        <time>2020-07-31T07:39:28Z</time>
      </trkpt>
      <trkpt lat="42.0943690" lon="2.4938000">
        <ele>528.6</ele>
        <time>2020-07-31T07:39:33Z</time>
      </trkpt>
      <trkpt lat="42.0941400" lon="2.4935270">
        <ele>528.4</ele>
        <time>2020-07-31T07:39:36Z</time>
      </trkpt>
      <trkpt lat="42.0937730" lon="2.4932210">
        <ele>527.8</ele>
        <time>2020-07-31T07:39:40Z</time>
      </trkpt>
      <trkpt lat="42.0936680" lon="2.4931590">
        <ele>527.4</ele>
        <time>2020-07-31T07:39:41Z</time>
      </trkpt>
      <trkpt lat="42.0934470" lon="2.4930650">
        <ele>526.4</ele>
        <time>2020-07-31T07:39:43Z</time>
      </trkpt>
      <trkpt lat="42.0933310" lon="2.4930310">
        <ele>526.0</ele>
        <time>2020-07-31T07:39:44Z</time>
      </trkpt>
      <trkpt lat="42.0930950" lon="2.4929960">
        <ele>525.0</ele>
        <time>2020-07-31T07:39:46Z</time>
      </trkpt>
      <trkpt lat="42.0928590" lon="2.4930040">
        <ele>523.8</ele>
        <time>2020-07-31T07:39:48Z</time>
      </trkpt>
      <trkpt lat="42.0926330" lon="2.4930420">
        <ele>522.2</ele>
        <time>2020-07-31T07:39:50Z</time>
      </trkpt>
      <trkpt lat="42.0924150" lon="2.4931000">
        <ele>520.8</ele>
        <time>2020-07-31T07:39:52Z</time>
      </trkpt>
      <trkpt lat="42.0923080" lon="2.4931350">
        <ele>519.8</ele>
        <time>2020-07-31T07:39:53Z</time>
      </trkpt>
      <trkpt lat="42.0922010" lon="2.4931730">
        <ele>519.2</ele>
        <time>2020-07-31T07:39:54Z</time>
      </trkpt>
      <trkpt lat="42.0919910" lon="2.4932580">
        <ele>518.0</ele>
        <time>2020-07-31T07:39:56Z</time>
      </trkpt>
      <trkpt lat="42.0915900" lon="2.4934610">
        <ele>517.2</ele>
        <time>2020-07-31T07:40:00Z</time>
      </trkpt>
      <trkpt lat="42.0913030" lon="2.4936300">
        <ele>517.2</ele>
        <time>2020-07-31T07:40:03Z</time>
      </trkpt>
      <trkpt lat="42.0909390" lon="2.4938840">
        <ele>516.8</ele>
        <time>2020-07-31T07:40:07Z</time>
      </trkpt>
      <trkpt lat="42.0905790" lon="2.4941500">
        <ele>516.2</ele>
        <time>2020-07-31T07:40:11Z</time>
      </trkpt>
      <trkpt lat="42.0900440" lon="2.4945480">
        <ele>515.0</ele>
        <time>2020-07-31T07:40:17Z</time>
      </trkpt>
      <trkpt lat="42.0899560" lon="2.4946130">
        <ele>514.8</ele>
        <time>2020-07-31T07:40:18Z</time>
      </trkpt>
      <trkpt lat="42.0894290" lon="2.4950050">
        <ele>514.4</ele>
        <time>2020-07-31T07:40:24Z</time>
      </trkpt>
      <trkpt lat="42.0889950" lon="2.4953280">
        <ele>514.4</ele>
        <time>2020-07-31T07:40:29Z</time>
      </trkpt>
      <trkpt lat="42.0884840" lon="2.4957070">
        <ele>514.2</ele>
        <time>2020-07-31T07:40:35Z</time>
      </trkpt>
      <trkpt lat="42.0884000" lon="2.4957680">
        <ele>514.2</ele>
        <time>2020-07-31T07:40:36Z</time>
      </trkpt>
      <trkpt lat="42.0879860" lon="2.4960750">
        <ele>514.0</ele>
        <time>2020-07-31T07:40:41Z</time>
      </trkpt>
      <trkpt lat="42.0875610" lon="2.4963960">
        <ele>513.8</ele>
        <time>2020-07-31T07:40:46Z</time>
      </trkpt>
      <trkpt lat="42.0870000" lon="2.4968090">
        <ele>513.2</ele>
        <time>2020-07-31T07:40:52Z</time>
      </trkpt>
      <trkpt lat="42.0869050" lon="2.4968800">
        <ele>513.0</ele>
        <time>2020-07-31T07:40:53Z</time>
      </trkpt>
      <trkpt lat="42.0868100" lon="2.4969510">
        <ele>512.8</ele>
        <time>2020-07-31T07:40:54Z</time>
      </trkpt>
      <trkpt lat="42.0864320" lon="2.4972280">
        <ele>511.4</ele>
        <time>2020-07-31T07:40:58Z</time>
      </trkpt>
      <trkpt lat="42.0862380" lon="2.4973570">
        <ele>510.2</ele>
        <time>2020-07-31T07:41:00Z</time>
      </trkpt>
      <trkpt lat="42.0861390" lon="2.4974110">
        <ele>509.6</ele>
        <time>2020-07-31T07:41:01Z</time>
      </trkpt>
      <trkpt lat="42.0860400" lon="2.4974590">
        <ele>509.0</ele>
        <time>2020-07-31T07:41:02Z</time>
      </trkpt>
      <trkpt lat="42.0858350" lon="2.4975370">
        <ele>508.0</ele>
        <time>2020-07-31T07:41:04Z</time>
      </trkpt>
      <trkpt lat="42.0856350" lon="2.4975920">
        <ele>507.8</ele>
        <time>2020-07-31T07:41:06Z</time>
      </trkpt>
      <trkpt lat="42.0850470" lon="2.4976510">
        <ele>507.6</ele>
        <time>2020-07-31T07:41:12Z</time>
      </trkpt>
      <trkpt lat="42.0844730" lon="2.4976900">
        <ele>507.8</ele>
        <time>2020-07-31T07:41:18Z</time>
      </trkpt>
      <trkpt lat="42.0839980" lon="2.4978570">
        <ele>507.8</ele>
        <time>2020-07-31T07:41:23Z</time>
      </trkpt>
      <trkpt lat="42.0835590" lon="2.4981420">
        <ele>507.6</ele>
        <time>2020-07-31T07:41:28Z</time>
      </trkpt>
      <trkpt lat="42.0833150" lon="2.4983610">
        <ele>506.8</ele>
        <time>2020-07-31T07:41:31Z</time>
      </trkpt>
      <trkpt lat="42.0830010" lon="2.4986740">
        <ele>505.8</ele>
        <time>2020-07-31T07:41:35Z</time>
      </trkpt>
      <trkpt lat="42.0829250" lon="2.4987530">
        <ele>505.6</ele>
        <time>2020-07-31T07:41:36Z</time>
      </trkpt>
      <trkpt lat="42.0825500" lon="2.4991410">
        <ele>504.6</ele>
        <time>2020-07-31T07:41:41Z</time>
      </trkpt>
      <trkpt lat="42.0824040" lon="2.4992900">
        <ele>504.2</ele>
        <time>2020-07-31T07:41:43Z</time>
      </trkpt>
      <trkpt lat="42.0819140" lon="2.4997900">
        <ele>504.0</ele>
        <time>2020-07-31T07:41:50Z</time>
      </trkpt>
      <trkpt lat="42.0817140" lon="2.5000010">
        <ele>503.8</ele>
        <time>2020-07-31T07:41:53Z</time>
      </trkpt>
      <trkpt lat="42.0812740" lon="2.5005090">
        <ele>504.0</ele>
        <time>2020-07-31T07:42:00Z</time>
      </trkpt>
      <trkpt lat="42.0810990" lon="2.5007390">
        <ele>504.0</ele>
        <time>2020-07-31T07:42:03Z</time>
      </trkpt>
      <trkpt lat="42.0807010" lon="2.5013040">
        <ele>504.0</ele>
        <time>2020-07-31T07:42:10Z</time>
      </trkpt>
      <trkpt lat="42.0805860" lon="2.5014580">
        <ele>503.8</ele>
        <time>2020-07-31T07:42:12Z</time>
      </trkpt>
      <trkpt lat="42.0804600" lon="2.5015970">
        <ele>503.6</ele>
        <time>2020-07-31T07:42:14Z</time>
      </trkpt>
      <trkpt lat="42.0803930" lon="2.5016620">
        <ele>503.4</ele>
        <time>2020-07-31T07:42:15Z</time>
      </trkpt>
      <trkpt lat="42.0802560" lon="2.5017850">
        <ele>503.4</ele>
        <time>2020-07-31T07:42:17Z</time>
      </trkpt>
      <trkpt lat="42.0798150" lon="2.5021130">
        <ele>503.2</ele>
        <time>2020-07-31T07:42:23Z</time>
      </trkpt>
      <trkpt lat="42.0795110" lon="2.5023320">
        <ele>503.0</ele>
        <time>2020-07-31T07:42:27Z</time>
      </trkpt>
      <trkpt lat="42.0793770" lon="2.5024740">
        <ele>503.0</ele>
        <time>2020-07-31T07:42:29Z</time>
      </trkpt>
      <trkpt lat="42.0792270" lon="2.5027680">
        <ele>503.0</ele>
        <time>2020-07-31T07:42:32Z</time>
      </trkpt>
      <trkpt lat="42.0791890" lon="2.5028790">
        <ele>502.8</ele>
        <time>2020-07-31T07:42:33Z</time>
      </trkpt>
      <trkpt lat="42.0790270" lon="2.5033240">
        <ele>502.4</ele>
        <time>2020-07-31T07:42:37Z</time>
      </trkpt>
      <trkpt lat="42.0789850" lon="2.5034370">
        <ele>502.2</ele>
        <time>2020-07-31T07:42:38Z</time>
      </trkpt>
      <trkpt lat="42.0787740" lon="2.5039890">
        <ele>501.2</ele>
        <time>2020-07-31T07:42:43Z</time>
      </trkpt>
      <trkpt lat="42.0785740" lon="2.5045240">
        <ele>500.0</ele>
        <time>2020-07-31T07:42:48Z</time>
      </trkpt>
      <trkpt lat="42.0782830" lon="2.5052410">
        <ele>499.6</ele>
        <time>2020-07-31T07:42:55Z</time>
      </trkpt>
      <trkpt lat="42.0782010" lon="2.5054380">
        <ele>499.6</ele>
        <time>2020-07-31T07:42:57Z</time>
      </trkpt>
      <trkpt lat="42.0779190" lon="2.5061210">
        <ele>499.6</ele>
        <time>2020-07-31T07:43:04Z</time>
      </trkpt>
      <trkpt lat="42.0778200" lon="2.5064150">
        <ele>499.6</ele>
        <time>2020-07-31T07:43:07Z</time>
      </trkpt>
      <trkpt lat="42.0777960" lon="2.5066220">
        <ele>499.6</ele>
        <time>2020-07-31T07:43:09Z</time>
      </trkpt>
      <trkpt lat="42.0778570" lon="2.5069320">
        <ele>499.6</ele>
        <time>2020-07-31T07:43:12Z</time>
      </trkpt>
      <trkpt lat="42.0779190" lon="2.5071180">
        <ele>499.8</ele>
        <time>2020-07-31T07:43:14Z</time>
      </trkpt>
      <trkpt lat="42.0780810" lon="2.5075110">
        <ele>500.0</ele>
        <time>2020-07-31T07:43:18Z</time>
      </trkpt>
      <trkpt lat="42.0783520" lon="2.5082770">
        <ele>499.8</ele>
        <time>2020-07-31T07:43:25Z</time>
      </trkpt>
      <trkpt lat="42.0783880" lon="2.5083930">
        <ele>499.8</ele>
        <time>2020-07-31T07:43:26Z</time>
      </trkpt>
      <trkpt lat="42.0785230" lon="2.5087410">
        <ele>498.8</ele>
        <time>2020-07-31T07:43:29Z</time>
      </trkpt>
      <trkpt lat="42.0786100" lon="2.5089840">
        <ele>497.8</ele>
        <time>2020-07-31T07:43:31Z</time>
      </trkpt>
      <trkpt lat="42.0786380" lon="2.5091140">
        <ele>497.4</ele>
        <time>2020-07-31T07:43:32Z</time>
      </trkpt>
      <trkpt lat="42.0786020" lon="2.5093730">
        <ele>496.6</ele>
        <time>2020-07-31T07:43:34Z</time>
      </trkpt>
      <trkpt lat="42.0784760" lon="2.5095880">
        <ele>496.0</ele>
        <time>2020-07-31T07:43:36Z</time>
      </trkpt>
      <trkpt lat="42.0783200" lon="2.5097740">
        <ele>495.4</ele>
        <time>2020-07-31T07:43:38Z</time>
      </trkpt>
      <trkpt lat="42.0780800" lon="2.5100480">
        <ele>493.8</ele>
        <time>2020-07-31T07:43:41Z</time>
      </trkpt>
      <trkpt lat="42.0780010" lon="2.5101410">
        <ele>493.2</ele>
        <time>2020-07-31T07:43:42Z</time>
      </trkpt>
      <trkpt lat="42.0779220" lon="2.5102310">
        <ele>492.6</ele>
        <time>2020-07-31T07:43:43Z</time>
      </trkpt>
      <trkpt lat="42.0777670" lon="2.5104090">
        <ele>491.6</ele>
        <time>2020-07-31T07:43:45Z</time>
      </trkpt>
      <trkpt lat="42.0775430" lon="2.5106710">
        <ele>490.6</ele>
        <time>2020-07-31T07:43:48Z</time>
      </trkpt>
      <trkpt lat="42.0774720" lon="2.5107530">
        <ele>490.4</ele>
        <time>2020-07-31T07:43:49Z</time>
      </trkpt>
      <trkpt lat="42.0770610" lon="2.5112430">
        <ele>490.0</ele>
        <time>2020-07-31T07:43:55Z</time>
      </trkpt>
      <trkpt lat="42.0768590" lon="2.5114740">
        <ele>489.6</ele>
        <time>2020-07-31T07:43:58Z</time>
      </trkpt>
      <trkpt lat="42.0764020" lon="2.5120190">
        <ele>489.6</ele>
        <time>2020-07-31T07:44:05Z</time>
      </trkpt>
      <trkpt lat="42.0762740" lon="2.5121670">
        <ele>489.6</ele>
        <time>2020-07-31T07:44:07Z</time>
      </trkpt>
      <trkpt lat="42.0759490" lon="2.5125500">
        <ele>489.4</ele>
        <time>2020-07-31T07:44:12Z</time>
      </trkpt>
      <trkpt lat="42.0757420" lon="2.5127960">
        <ele>489.4</ele>
        <time>2020-07-31T07:44:15Z</time>
      </trkpt>
      <trkpt lat="42.0753250" lon="2.5133080">
        <ele>488.8</ele>
        <time>2020-07-31T07:44:21Z</time>
      </trkpt>
      <trkpt lat="42.0751800" lon="2.5134790">
        <ele>488.2</ele>
        <time>2020-07-31T07:44:23Z</time>
      </trkpt>
      <trkpt lat="42.0750370" lon="2.5136570">
        <ele>487.0</ele>
        <time>2020-07-31T07:44:25Z</time>
      </trkpt>
      <trkpt lat="42.0749720" lon="2.5137530">
        <ele>486.6</ele>
        <time>2020-07-31T07:44:26Z</time>
      </trkpt>
      <trkpt lat="42.0748640" lon="2.5139750">
        <ele>486.2</ele>
        <time>2020-07-31T07:44:28Z</time>
      </trkpt>
      <trkpt lat="42.0747790" lon="2.5142150">
        <ele>485.8</ele>
        <time>2020-07-31T07:44:30Z</time>
      </trkpt>
      <trkpt lat="42.0745760" lon="2.5148050">
        <ele>485.2</ele>
        <time>2020-07-31T07:44:35Z</time>
      </trkpt>
      <trkpt lat="42.0745290" lon="2.5149140">
        <ele>484.8</ele>
        <time>2020-07-31T07:44:36Z</time>
      </trkpt>
      <trkpt lat="42.0744720" lon="2.5150140">
        <ele>484.6</ele>
        <time>2020-07-31T07:44:37Z</time>
      </trkpt>
      <trkpt lat="42.0744030" lon="2.5151000">
        <ele>484.6</ele>
        <time>2020-07-31T07:44:38Z</time>
      </trkpt>
      <trkpt lat="42.0741610" lon="2.5152700">
        <ele>484.4</ele>
        <time>2020-07-31T07:44:41Z</time>
      </trkpt>
      <trkpt lat="42.0739940" lon="2.5153440">
        <ele>484.4</ele>
        <time>2020-07-31T07:44:43Z</time>
      </trkpt>
      <trkpt lat="42.0735850" lon="2.5155130">
        <ele>484.2</ele>
        <time>2020-07-31T07:44:48Z</time>
      </trkpt>
      <trkpt lat="42.0732080" lon="2.5157380">
        <ele>484.2</ele>
        <time>2020-07-31T07:44:53Z</time>
      </trkpt>
      <trkpt lat="42.0731430" lon="2.5158020">
        <ele>484.2</ele>
        <time>2020-07-31T07:44:54Z</time>
      </trkpt>
      <trkpt lat="42.0729710" lon="2.5160300">
        <ele>484.2</ele>
        <time>2020-07-31T07:44:57Z</time>
      </trkpt>
      <trkpt lat="42.0725990" lon="2.5165970">
        <ele>484.8</ele>
        <time>2020-07-31T07:45:04Z</time>
      </trkpt>
      <trkpt lat="42.0725520" lon="2.5166830">
        <ele>484.8</ele>
        <time>2020-07-31T07:45:05Z</time>
      </trkpt>
      <trkpt lat="42.0724500" lon="2.5169650">
        <ele>484.8</ele>
        <time>2020-07-31T07:45:08Z</time>
      </trkpt>
      <trkpt lat="42.0724290" lon="2.5170690">
        <ele>485.0</ele>
        <time>2020-07-31T07:45:09Z</time>
      </trkpt>
      <trkpt lat="42.0723810" lon="2.5177020">
        <ele>485.4</ele>
        <time>2020-07-31T07:45:15Z</time>
      </trkpt>
      <trkpt lat="42.0724240" lon="2.5184040">
        <ele>485.4</ele>
        <time>2020-07-31T07:45:21Z</time>
      </trkpt>
      <trkpt lat="42.0724740" lon="2.5192300">
        <ele>484.6</ele>
        <time>2020-07-31T07:45:27Z</time>
      </trkpt>
      <trkpt lat="42.0724570" lon="2.5195270">
        <ele>483.6</ele>
        <time>2020-07-31T07:45:29Z</time>
      </trkpt>
      <trkpt lat="42.0723880" lon="2.5199820">
        <ele>482.4</ele>
        <time>2020-07-31T07:45:32Z</time>
      </trkpt>
      <trkpt lat="42.0723070" lon="2.5202870">
        <ele>481.2</ele>
        <time>2020-07-31T07:45:34Z</time>
      </trkpt>
      <trkpt lat="42.0721970" lon="2.5205710">
        <ele>479.6</ele>
        <time>2020-07-31T07:45:36Z</time>
      </trkpt>
      <trkpt lat="42.0720610" lon="2.5208370">
        <ele>478.0</ele>
        <time>2020-07-31T07:45:38Z</time>
      </trkpt>
      <trkpt lat="42.0719120" lon="2.5210910">
        <ele>476.6</ele>
        <time>2020-07-31T07:45:40Z</time>
      </trkpt>
      <trkpt lat="42.0717590" lon="2.5213400">
        <ele>475.2</ele>
        <time>2020-07-31T07:45:42Z</time>
      </trkpt>
      <trkpt lat="42.0716810" lon="2.5214620">
        <ele>474.0</ele>
        <time>2020-07-31T07:45:43Z</time>
      </trkpt>
      <trkpt lat="42.0715220" lon="2.5217040">
        <ele>472.8</ele>
        <time>2020-07-31T07:45:45Z</time>
      </trkpt>
      <trkpt lat="42.0712800" lon="2.5220560">
        <ele>471.6</ele>
        <time>2020-07-31T07:45:48Z</time>
      </trkpt>
      <trkpt lat="42.0710370" lon="2.5224000">
        <ele>470.4</ele>
        <time>2020-07-31T07:45:51Z</time>
      </trkpt>
      <trkpt lat="42.0708700" lon="2.5226170">
        <ele>469.0</ele>
        <time>2020-07-31T07:45:53Z</time>
      </trkpt>
      <trkpt lat="42.0705990" lon="2.5229110">
        <ele>467.8</ele>
        <time>2020-07-31T07:45:56Z</time>
      </trkpt>
      <trkpt lat="42.0701960" lon="2.5231950">
        <ele>466.6</ele>
        <time>2020-07-31T07:46:00Z</time>
      </trkpt>
      <trkpt lat="42.0698840" lon="2.5233450">
        <ele>465.2</ele>
        <time>2020-07-31T07:46:03Z</time>
      </trkpt>
      <trkpt lat="42.0695740" lon="2.5234920">
        <ele>464.0</ele>
        <time>2020-07-31T07:46:06Z</time>
      </trkpt>
      <trkpt lat="42.0693680" lon="2.5236150">
        <ele>463.8</ele>
        <time>2020-07-31T07:46:08Z</time>
      </trkpt>
      <trkpt lat="42.0690170" lon="2.5239670">
        <ele>463.2</ele>
        <time>2020-07-31T07:46:12Z</time>
      </trkpt>
      <trkpt lat="42.0688560" lon="2.5241810">
        <ele>463.0</ele>
        <time>2020-07-31T07:46:14Z</time>
      </trkpt>
      <trkpt lat="42.0685450" lon="2.5246400">
        <ele>462.0</ele>
        <time>2020-07-31T07:46:18Z</time>
      </trkpt>
      <trkpt lat="42.0684670" lon="2.5247610">
        <ele>461.4</ele>
        <time>2020-07-31T07:46:19Z</time>
      </trkpt>
      <trkpt lat="42.0683110" lon="2.5250080">
        <ele>460.4</ele>
        <time>2020-07-31T07:46:21Z</time>
      </trkpt>
      <trkpt lat="42.0681560" lon="2.5252610">
        <ele>459.2</ele>
        <time>2020-07-31T07:46:23Z</time>
      </trkpt>
      <trkpt lat="42.0680020" lon="2.5255240">
        <ele>458.0</ele>
        <time>2020-07-31T07:46:25Z</time>
      </trkpt>
      <trkpt lat="42.0679250" lon="2.5256590">
        <ele>457.4</ele>
        <time>2020-07-31T07:46:26Z</time>
      </trkpt>
      <trkpt lat="42.0678500" lon="2.5257960">
        <ele>456.8</ele>
        <time>2020-07-31T07:46:27Z</time>
      </trkpt>
      <trkpt lat="42.0677000" lon="2.5260760">
        <ele>455.4</ele>
        <time>2020-07-31T07:46:29Z</time>
      </trkpt>
      <trkpt lat="42.0675510" lon="2.5263610">
        <ele>453.8</ele>
        <time>2020-07-31T07:46:31Z</time>
      </trkpt>
      <trkpt lat="42.0674020" lon="2.5266510">
        <ele>452.4</ele>
        <time>2020-07-31T07:46:33Z</time>
      </trkpt>
      <trkpt lat="42.0672530" lon="2.5269480">
        <ele>451.2</ele>
        <time>2020-07-31T07:46:35Z</time>
      </trkpt>
      <trkpt lat="42.0671080" lon="2.5272540">
        <ele>449.8</ele>
        <time>2020-07-31T07:46:37Z</time>
      </trkpt>
      <trkpt lat="42.0670350" lon="2.5274110">
        <ele>448.6</ele>
        <time>2020-07-31T07:46:38Z</time>
      </trkpt>
      <trkpt lat="42.0669620" lon="2.5275700">
        <ele>447.6</ele>
        <time>2020-07-31T07:46:39Z</time>
      </trkpt>
      <trkpt lat="42.0668890" lon="2.5277290">
        <ele>446.4</ele>
        <time>2020-07-31T07:46:40Z</time>
      </trkpt>
      <trkpt lat="42.0667370" lon="2.5280490">
        <ele>444.6</ele>
        <time>2020-07-31T07:46:42Z</time>
      </trkpt>
      <trkpt lat="42.0666580" lon="2.5282070">
        <ele>443.4</ele>
        <time>2020-07-31T07:46:43Z</time>
      </trkpt>
      <trkpt lat="42.0665800" lon="2.5283680">
        <ele>442.2</ele>
        <time>2020-07-31T07:46:44Z</time>
      </trkpt>
      <trkpt lat="42.0665040" lon="2.5285280">
        <ele>441.4</ele>
        <time>2020-07-31T07:46:45Z</time>
      </trkpt>
      <trkpt lat="42.0664270" lon="2.5286880">
        <ele>440.4</ele>
        <time>2020-07-31T07:46:46Z</time>
      </trkpt>
      <trkpt lat="42.0663520" lon="2.5288460">
        <ele>439.4</ele>
        <time>2020-07-31T07:46:47Z</time>
      </trkpt>
      <trkpt lat="42.0662010" lon="2.5291630">
        <ele>437.6</ele>
        <time>2020-07-31T07:46:49Z</time>
      </trkpt>
      <trkpt lat="42.0660470" lon="2.5294740">
        <ele>435.6</ele>
        <time>2020-07-31T07:46:51Z</time>
      </trkpt>
      <trkpt lat="42.0659680" lon="2.5296270">
        <ele>434.4</ele>
        <time>2020-07-31T07:46:52Z</time>
      </trkpt>
      <trkpt lat="42.0658870" lon="2.5297740">
        <ele>433.2</ele>
        <time>2020-07-31T07:46:53Z</time>
      </trkpt>
      <trkpt lat="42.0658030" lon="2.5299170">
        <ele>432.2</ele>
        <time>2020-07-31T07:46:54Z</time>
      </trkpt>
      <trkpt lat="42.0656280" lon="2.5301830">
        <ele>430.6</ele>
        <time>2020-07-31T07:46:56Z</time>
      </trkpt>
      <trkpt lat="42.0654450" lon="2.5304210">
        <ele>429.6</ele>
        <time>2020-07-31T07:46:58Z</time>
      </trkpt>
      <trkpt lat="42.0652580" lon="2.5306350">
        <ele>428.2</ele>
        <time>2020-07-31T07:47:00Z</time>
      </trkpt>
      <trkpt lat="42.0649660" lon="2.5309150">
        <ele>427.2</ele>
        <time>2020-07-31T07:47:03Z</time>
      </trkpt>
      <trkpt lat="42.0644430" lon="2.5312890">
        <ele>426.2</ele>
        <time>2020-07-31T07:47:08Z</time>
      </trkpt>
      <trkpt lat="42.0642220" lon="2.5314030">
        <ele>426.2</ele>
        <time>2020-07-31T07:47:10Z</time>
      </trkpt>
      <trkpt lat="42.0638850" lon="2.5315720">
        <ele>425.2</ele>
        <time>2020-07-31T07:47:13Z</time>
      </trkpt>
      <trkpt lat="42.0635440" lon="2.5317420">
        <ele>424.0</ele>
        <time>2020-07-31T07:47:16Z</time>
      </trkpt>
      <trkpt lat="42.0633190" lon="2.5318790">
        <ele>422.8</ele>
        <time>2020-07-31T07:47:18Z</time>
      </trkpt>
      <trkpt lat="42.0631010" lon="2.5320430">
        <ele>421.4</ele>
        <time>2020-07-31T07:47:20Z</time>
      </trkpt>
      <trkpt lat="42.0629950" lon="2.5321340">
        <ele>420.8</ele>
        <time>2020-07-31T07:47:21Z</time>
      </trkpt>
      <trkpt lat="42.0628920" lon="2.5322320">
        <ele>420.2</ele>
        <time>2020-07-31T07:47:22Z</time>
      </trkpt>
      <trkpt lat="42.0626970" lon="2.5324480">
        <ele>419.2</ele>
        <time>2020-07-31T07:47:24Z</time>
      </trkpt>
      <trkpt lat="42.0626050" lon="2.5325650">
        <ele>418.8</ele>
        <time>2020-07-31T07:47:25Z</time>
      </trkpt>
      <trkpt lat="42.0625150" lon="2.5326870">
        <ele>418.2</ele>
        <time>2020-07-31T07:47:26Z</time>
      </trkpt>
      <trkpt lat="42.0623460" lon="2.5329530">
        <ele>416.8</ele>
        <time>2020-07-31T07:47:28Z</time>
      </trkpt>
      <trkpt lat="42.0621850" lon="2.5332390">
        <ele>415.4</ele>
        <time>2020-07-31T07:47:30Z</time>
      </trkpt>
      <trkpt lat="42.0620240" lon="2.5335310">
        <ele>413.4</ele>
        <time>2020-07-31T07:47:32Z</time>
      </trkpt>
      <trkpt lat="42.0618610" lon="2.5338290">
        <ele>410.8</ele>
        <time>2020-07-31T07:47:34Z</time>
      </trkpt>
      <trkpt lat="42.0617800" lon="2.5339780">
        <ele>409.6</ele>
        <time>2020-07-31T07:47:35Z</time>
      </trkpt>
      <trkpt lat="42.0616980" lon="2.5341270">
        <ele>408.6</ele>
        <time>2020-07-31T07:47:36Z</time>
      </trkpt>
      <trkpt lat="42.0615340" lon="2.5344230">
        <ele>406.8</ele>
        <time>2020-07-31T07:47:38Z</time>
      </trkpt>
      <trkpt lat="42.0614500" lon="2.5345730">
        <ele>405.8</ele>
        <time>2020-07-31T07:47:39Z</time>
      </trkpt>
      <trkpt lat="42.0613640" lon="2.5347210">
        <ele>404.6</ele>
        <time>2020-07-31T07:47:40Z</time>
      </trkpt>
      <trkpt lat="42.0611800" lon="2.5350040">
        <ele>403.2</ele>
        <time>2020-07-31T07:47:42Z</time>
      </trkpt>
      <trkpt lat="42.0609780" lon="2.5352620">
        <ele>401.2</ele>
        <time>2020-07-31T07:47:44Z</time>
      </trkpt>
      <trkpt lat="42.0607630" lon="2.5354940">
        <ele>399.2</ele>
        <time>2020-07-31T07:47:46Z</time>
      </trkpt>
      <trkpt lat="42.0606550" lon="2.5355980">
        <ele>398.0</ele>
        <time>2020-07-31T07:47:47Z</time>
      </trkpt>
      <trkpt lat="42.0604380" lon="2.5357980">
        <ele>396.2</ele>
        <time>2020-07-31T07:47:49Z</time>
      </trkpt>
      <trkpt lat="42.0603320" lon="2.5358960">
        <ele>395.0</ele>
        <time>2020-07-31T07:47:50Z</time>
      </trkpt>
      <trkpt lat="42.0602290" lon="2.5359930">
        <ele>394.0</ele>
        <time>2020-07-31T07:47:51Z</time>
      </trkpt>
      <trkpt lat="42.0600260" lon="2.5361810">
        <ele>392.4</ele>
        <time>2020-07-31T07:47:53Z</time>
      </trkpt>
      <trkpt lat="42.0598280" lon="2.5363590">
        <ele>391.4</ele>
        <time>2020-07-31T07:47:55Z</time>
      </trkpt>
      <trkpt lat="42.0597320" lon="2.5364460">
        <ele>391.0</ele>
        <time>2020-07-31T07:47:56Z</time>
      </trkpt>
      <trkpt lat="42.0595420" lon="2.5366150">
        <ele>390.4</ele>
        <time>2020-07-31T07:47:58Z</time>
      </trkpt>
      <trkpt lat="42.0591910" lon="2.5369450">
        <ele>390.0</ele>
        <time>2020-07-31T07:48:02Z</time>
      </trkpt>
      <trkpt lat="42.0588290" lon="2.5373940">
        <ele>390.2</ele>
        <time>2020-07-31T07:48:07Z</time>
      </trkpt>
      <trkpt lat="42.0584370" lon="2.5379240">
        <ele>391.0</ele>
        <time>2020-07-31T07:48:13Z</time>
      </trkpt>
      <trkpt lat="42.0583090" lon="2.5380950">
        <ele>391.4</ele>
        <time>2020-07-31T07:48:15Z</time>
      </trkpt>
      <trkpt lat="42.0582460" lon="2.5381790">
        <ele>391.6</ele>
        <time>2020-07-31T07:48:16Z</time>
      </trkpt>
      <trkpt lat="42.0578630" lon="2.5387050">
        <ele>391.8</ele>
        <time>2020-07-31T07:48:22Z</time>
      </trkpt>
      <trkpt lat="42.0575980" lon="2.5390690">
        <ele>391.8</ele>
        <time>2020-07-31T07:48:26Z</time>
      </trkpt>
      <trkpt lat="42.0571870" lon="2.5396300">
        <ele>390.4</ele>
        <time>2020-07-31T07:48:32Z</time>
      </trkpt>
      <trkpt lat="42.0569120" lon="2.5400110">
        <ele>389.4</ele>
        <time>2020-07-31T07:48:36Z</time>
      </trkpt>
      <trkpt lat="42.0568460" lon="2.5401090">
        <ele>389.0</ele>
        <time>2020-07-31T07:48:37Z</time>
      </trkpt>
      <trkpt lat="42.0565050" lon="2.5405670">
        <ele>388.0</ele>
        <time>2020-07-31T07:48:42Z</time>
      </trkpt>
      <trkpt lat="42.0562350" lon="2.5409350">
        <ele>386.8</ele>
        <time>2020-07-31T07:48:46Z</time>
      </trkpt>
      <trkpt lat="42.0559050" lon="2.5413920">
        <ele>386.0</ele>
        <time>2020-07-31T07:48:51Z</time>
      </trkpt>
      <trkpt lat="42.0558380" lon="2.5414810">
        <ele>385.8</ele>
        <time>2020-07-31T07:48:52Z</time>
      </trkpt>
      <trkpt lat="42.0554400" lon="2.5420240">
        <ele>384.4</ele>
        <time>2020-07-31T07:48:58Z</time>
      </trkpt>
      <trkpt lat="42.0553700" lon="2.5421160">
        <ele>383.8</ele>
        <time>2020-07-31T07:48:59Z</time>
      </trkpt>
      <trkpt lat="42.0552290" lon="2.5423030">
        <ele>383.0</ele>
        <time>2020-07-31T07:49:01Z</time>
      </trkpt>
      <trkpt lat="42.0548120" lon="2.5428800">
        <ele>382.2</ele>
        <time>2020-07-31T07:49:07Z</time>
      </trkpt>
      <trkpt lat="42.0547420" lon="2.5429780">
        <ele>381.8</ele>
        <time>2020-07-31T07:49:08Z</time>
      </trkpt>
      <trkpt lat="42.0545240" lon="2.5432760">
        <ele>380.6</ele>
        <time>2020-07-31T07:49:11Z</time>
      </trkpt>
      <trkpt lat="42.0542290" lon="2.5436770">
        <ele>379.6</ele>
        <time>2020-07-31T07:49:15Z</time>
      </trkpt>
      <trkpt lat="42.0540030" lon="2.5439840">
        <ele>378.0</ele>
        <time>2020-07-31T07:49:18Z</time>
      </trkpt>
      <trkpt lat="42.0537760" lon="2.5442950">
        <ele>376.6</ele>
        <time>2020-07-31T07:49:21Z</time>
      </trkpt>
      <trkpt lat="42.0535510" lon="2.5446080">
        <ele>375.4</ele>
        <time>2020-07-31T07:49:24Z</time>
      </trkpt>
      <trkpt lat="42.0534030" lon="2.5448100">
        <ele>374.4</ele>
        <time>2020-07-31T07:49:26Z</time>
      </trkpt>
      <trkpt lat="42.0532520" lon="2.5450100">
        <ele>373.2</ele>
        <time>2020-07-31T07:49:28Z</time>
      </trkpt>
      <trkpt lat="42.0528930" lon="2.5455050">
        <ele>372.0</ele>
        <time>2020-07-31T07:49:33Z</time>
      </trkpt>
      <trkpt lat="42.0528220" lon="2.5456040">
        <ele>371.8</ele>
        <time>2020-07-31T07:49:34Z</time>
      </trkpt>
      <trkpt lat="42.0524010" lon="2.5461810">
        <ele>371.0</ele>
        <time>2020-07-31T07:49:40Z</time>
      </trkpt>
      <trkpt lat="42.0523320" lon="2.5462740">
        <ele>370.8</ele>
        <time>2020-07-31T07:49:41Z</time>
      </trkpt>
      <trkpt lat="42.0521250" lon="2.5465520">
        <ele>370.2</ele>
        <time>2020-07-31T07:49:44Z</time>
      </trkpt>
      <trkpt lat="42.0519910" lon="2.5467360">
        <ele>370.0</ele>
        <time>2020-07-31T07:49:46Z</time>
      </trkpt>
      <trkpt lat="42.0516080" lon="2.5472640">
        <ele>369.4</ele>
        <time>2020-07-31T07:49:52Z</time>
      </trkpt>
      <trkpt lat="42.0514870" lon="2.5474340">
        <ele>369.4</ele>
        <time>2020-07-31T07:49:54Z</time>
      </trkpt>
      <trkpt lat="42.0510990" lon="2.5479610">
        <ele>369.2</ele>
        <time>2020-07-31T07:50:00Z</time>
      </trkpt>
      <trkpt lat="42.0507250" lon="2.5484730">
        <ele>368.6</ele>
        <time>2020-07-31T07:50:05Z</time>
      </trkpt>
      <trkpt lat="42.0505640" lon="2.5486910">
        <ele>367.4</ele>
        <time>2020-07-31T07:50:07Z</time>
      </trkpt>
      <trkpt lat="42.0503990" lon="2.5489190">
        <ele>366.4</ele>
        <time>2020-07-31T07:50:09Z</time>
      </trkpt>
      <trkpt lat="42.0502390" lon="2.5491650">
        <ele>364.6</ele>
        <time>2020-07-31T07:50:11Z</time>
      </trkpt>
      <trkpt lat="42.0500830" lon="2.5494220">
        <ele>363.2</ele>
        <time>2020-07-31T07:50:13Z</time>
      </trkpt>
      <trkpt lat="42.0499340" lon="2.5496960">
        <ele>361.2</ele>
        <time>2020-07-31T07:50:15Z</time>
      </trkpt>
      <trkpt lat="42.0497880" lon="2.5499710">
        <ele>359.4</ele>
        <time>2020-07-31T07:50:17Z</time>
      </trkpt>
      <trkpt lat="42.0496540" lon="2.5502360">
        <ele>357.6</ele>
        <time>2020-07-31T07:50:19Z</time>
      </trkpt>
      <trkpt lat="42.0495100" lon="2.5504540">
        <ele>356.0</ele>
        <time>2020-07-31T07:50:21Z</time>
      </trkpt>
      <trkpt lat="42.0494150" lon="2.5505150">
        <ele>354.8</ele>
        <time>2020-07-31T07:50:22Z</time>
      </trkpt>
      <trkpt lat="42.0492170" lon="2.5505370">
        <ele>354.4</ele>
        <time>2020-07-31T07:50:24Z</time>
      </trkpt>
      <trkpt lat="42.0489340" lon="2.5504890">
        <ele>354.4</ele>
        <time>2020-07-31T07:50:27Z</time>
      </trkpt>
      <trkpt lat="42.0488390" lon="2.5504840">
        <ele>354.0</ele>
        <time>2020-07-31T07:50:28Z</time>
      </trkpt>
      <trkpt lat="42.0487400" lon="2.5504950">
        <ele>354.0</ele>
        <time>2020-07-31T07:50:29Z</time>
      </trkpt>
      <trkpt lat="42.0485360" lon="2.5505260">
        <ele>353.8</ele>
        <time>2020-07-31T07:50:31Z</time>
      </trkpt>
      <trkpt lat="42.0484310" lon="2.5505440">
        <ele>353.4</ele>
        <time>2020-07-31T07:50:32Z</time>
      </trkpt>
      <trkpt lat="42.0478620" lon="2.5506100">
        <ele>352.8</ele>
        <time>2020-07-31T07:50:37Z</time>
      </trkpt>
      <trkpt lat="42.0477420" lon="2.5506180">
        <ele>352.4</ele>
        <time>2020-07-31T07:50:38Z</time>
      </trkpt>
      <trkpt lat="42.0472600" lon="2.5507380">
        <ele>350.8</ele>
        <time>2020-07-31T07:50:42Z</time>
      </trkpt>
      <trkpt lat="42.0471460" lon="2.5507930">
        <ele>350.2</ele>
        <time>2020-07-31T07:50:43Z</time>
      </trkpt>
      <trkpt lat="42.0470350" lon="2.5508560">
        <ele>349.6</ele>
        <time>2020-07-31T07:50:44Z</time>
      </trkpt>
      <trkpt lat="42.0468290" lon="2.5510110">
        <ele>348.2</ele>
        <time>2020-07-31T07:50:46Z</time>
      </trkpt>
      <trkpt lat="42.0467300" lon="2.5511040">
        <ele>347.8</ele>
        <time>2020-07-31T07:50:47Z</time>
      </trkpt>
      <trkpt lat="42.0466310" lon="2.5512090">
        <ele>347.0</ele>
        <time>2020-07-31T07:50:48Z</time>
      </trkpt>
      <trkpt lat="42.0464480" lon="2.5514560">
        <ele>345.2</ele>
        <time>2020-07-31T07:50:50Z</time>
      </trkpt>
      <trkpt lat="42.0463680" lon="2.5515930">
        <ele>344.6</ele>
        <time>2020-07-31T07:50:51Z</time>
      </trkpt>
      <trkpt lat="42.0462920" lon="2.5517380">
        <ele>343.8</ele>
        <time>2020-07-31T07:50:52Z</time>
      </trkpt>
      <trkpt lat="42.0461540" lon="2.5520410">
        <ele>342.4</ele>
        <time>2020-07-31T07:50:54Z</time>
      </trkpt>
      <trkpt lat="42.0460250" lon="2.5523530">
        <ele>340.8</ele>
        <time>2020-07-31T07:50:56Z</time>
      </trkpt>
      <trkpt lat="42.0459020" lon="2.5526640">
        <ele>339.0</ele>
        <time>2020-07-31T07:50:58Z</time>
      </trkpt>
      <trkpt lat="42.0457820" lon="2.5529800">
        <ele>337.6</ele>
        <time>2020-07-31T07:51:00Z</time>
      </trkpt>
      <trkpt lat="42.0456870" lon="2.5533070">
        <ele>336.0</ele>
        <time>2020-07-31T07:51:02Z</time>
      </trkpt>
      <trkpt lat="42.0456510" lon="2.5534750">
        <ele>335.2</ele>
        <time>2020-07-31T07:51:03Z</time>
      </trkpt>
      <trkpt lat="42.0456230" lon="2.5536460">
        <ele>334.2</ele>
        <time>2020-07-31T07:51:04Z</time>
      </trkpt>
      <trkpt lat="42.0455880" lon="2.5539950">
        <ele>333.0</ele>
        <time>2020-07-31T07:51:06Z</time>
      </trkpt>
      <trkpt lat="42.0455820" lon="2.5541720">
        <ele>332.4</ele>
        <time>2020-07-31T07:51:07Z</time>
      </trkpt>
      <trkpt lat="42.0455850" lon="2.5543550">
        <ele>331.8</ele>
        <time>2020-07-31T07:51:08Z</time>
      </trkpt>
      <trkpt lat="42.0456160" lon="2.5547190">
        <ele>330.6</ele>
        <time>2020-07-31T07:51:10Z</time>
      </trkpt>
      <trkpt lat="42.0456430" lon="2.5549010">
        <ele>330.0</ele>
        <time>2020-07-31T07:51:11Z</time>
      </trkpt>
      <trkpt lat="42.0456800" lon="2.5550800">
        <ele>329.6</ele>
        <time>2020-07-31T07:51:12Z</time>
      </trkpt>
      <trkpt lat="42.0458330" lon="2.5556150">
        <ele>328.8</ele>
        <time>2020-07-31T07:51:15Z</time>
      </trkpt>
      <trkpt lat="42.0458940" lon="2.5557900">
        <ele>328.4</ele>
        <time>2020-07-31T07:51:16Z</time>
      </trkpt>
      <trkpt lat="42.0460120" lon="2.5561420">
        <ele>326.4</ele>
        <time>2020-07-31T07:51:18Z</time>
      </trkpt>
      <trkpt lat="42.0461130" lon="2.5565080">
        <ele>324.8</ele>
        <time>2020-07-31T07:51:20Z</time>
      </trkpt>
      <trkpt lat="42.0461520" lon="2.5566960">
        <ele>324.0</ele>
        <time>2020-07-31T07:51:21Z</time>
      </trkpt>
      <trkpt lat="42.0461810" lon="2.5568850">
        <ele>323.2</ele>
        <time>2020-07-31T07:51:22Z</time>
      </trkpt>
      <trkpt lat="42.0462070" lon="2.5572650">
        <ele>321.4</ele>
        <time>2020-07-31T07:51:24Z</time>
      </trkpt>
      <trkpt lat="42.0462060" lon="2.5574510">
        <ele>320.8</ele>
        <time>2020-07-31T07:51:25Z</time>
      </trkpt>
      <trkpt lat="42.0461950" lon="2.5576330">
        <ele>320.0</ele>
        <time>2020-07-31T07:51:26Z</time>
      </trkpt>
      <trkpt lat="42.0461750" lon="2.5578100">
        <ele>319.0</ele>
        <time>2020-07-31T07:51:27Z</time>
      </trkpt>
      <trkpt lat="42.0461140" lon="2.5581460">
        <ele>317.0</ele>
        <time>2020-07-31T07:51:29Z</time>
      </trkpt>
      <trkpt lat="42.0460230" lon="2.5584610">
        <ele>315.4</ele>
        <time>2020-07-31T07:51:31Z</time>
      </trkpt>
      <trkpt lat="42.0459040" lon="2.5587490">
        <ele>313.8</ele>
        <time>2020-07-31T07:51:33Z</time>
      </trkpt>
      <trkpt lat="42.0457730" lon="2.5590130">
        <ele>312.6</ele>
        <time>2020-07-31T07:51:35Z</time>
      </trkpt>
      <trkpt lat="42.0455100" lon="2.5595080">
        <ele>311.6</ele>
        <time>2020-07-31T07:51:39Z</time>
      </trkpt>
      <trkpt lat="42.0451400" lon="2.5602150">
        <ele>311.0</ele>
        <time>2020-07-31T07:51:45Z</time>
      </trkpt>
      <trkpt lat="42.0450810" lon="2.5603300">
        <ele>310.6</ele>
        <time>2020-07-31T07:51:46Z</time>
      </trkpt>
      <trkpt lat="42.0450220" lon="2.5604420">
        <ele>310.6</ele>
        <time>2020-07-31T07:51:47Z</time>
      </trkpt>
      <trkpt lat="42.0447330" lon="2.5609950">
        <ele>309.4</ele>
        <time>2020-07-31T07:51:52Z</time>
      </trkpt>
      <trkpt lat="42.0444440" lon="2.5615520">
        <ele>308.6</ele>
        <time>2020-07-31T07:51:57Z</time>
      </trkpt>
      <trkpt lat="42.0442670" lon="2.5618920">
        <ele>308.2</ele>
        <time>2020-07-31T07:52:00Z</time>
      </trkpt>
      <trkpt lat="42.0440300" lon="2.5623490">
        <ele>307.2</ele>
        <time>2020-07-31T07:52:04Z</time>
      </trkpt>
      <trkpt lat="42.0439110" lon="2.5625800">
        <ele>306.6</ele>
        <time>2020-07-31T07:52:06Z</time>
      </trkpt>
      <trkpt lat="42.0437900" lon="2.5628080">
        <ele>306.0</ele>
        <time>2020-07-31T07:52:08Z</time>
      </trkpt>
      <trkpt lat="42.0436040" lon="2.5631480">
        <ele>304.8</ele>
        <time>2020-07-31T07:52:11Z</time>
      </trkpt>
      <trkpt lat="42.0433960" lon="2.5634730">
        <ele>303.8</ele>
        <time>2020-07-31T07:52:14Z</time>
      </trkpt>
      <trkpt lat="42.0431660" lon="2.5637810">
        <ele>302.6</ele>
        <time>2020-07-31T07:52:17Z</time>
      </trkpt>
      <trkpt lat="42.0429080" lon="2.5640680">
        <ele>301.6</ele>
        <time>2020-07-31T07:52:20Z</time>
      </trkpt>
      <trkpt lat="42.0427200" lon="2.5642500">
        <ele>300.4</ele>
        <time>2020-07-31T07:52:22Z</time>
      </trkpt>
      <trkpt lat="42.0424090" lon="2.5644950">
        <ele>299.2</ele>
        <time>2020-07-31T07:52:25Z</time>
      </trkpt>
      <trkpt lat="42.0420700" lon="2.5647050">
        <ele>297.8</ele>
        <time>2020-07-31T07:52:28Z</time>
      </trkpt>
      <trkpt lat="42.0418340" lon="2.5648280">
        <ele>296.4</ele>
        <time>2020-07-31T07:52:30Z</time>
      </trkpt>
      <trkpt lat="42.0415940" lon="2.5649540">
        <ele>294.8</ele>
        <time>2020-07-31T07:52:32Z</time>
      </trkpt>
      <trkpt lat="42.0413520" lon="2.5650840">
        <ele>292.8</ele>
        <time>2020-07-31T07:52:34Z</time>
      </trkpt>
      <trkpt lat="42.0412320" lon="2.5651530">
        <ele>291.6</ele>
        <time>2020-07-31T07:52:35Z</time>
      </trkpt>
      <trkpt lat="42.0411110" lon="2.5652290">
        <ele>290.6</ele>
        <time>2020-07-31T07:52:36Z</time>
      </trkpt>
      <trkpt lat="42.0409930" lon="2.5653120">
        <ele>289.6</ele>
        <time>2020-07-31T07:52:37Z</time>
      </trkpt>
      <trkpt lat="42.0407630" lon="2.5655030">
        <ele>288.2</ele>
        <time>2020-07-31T07:52:39Z</time>
      </trkpt>
      <trkpt lat="42.0406590" lon="2.5656160">
        <ele>287.6</ele>
        <time>2020-07-31T07:52:40Z</time>
      </trkpt>
      <trkpt lat="42.0405580" lon="2.5657360">
        <ele>286.0</ele>
        <time>2020-07-31T07:52:41Z</time>
      </trkpt>
      <trkpt lat="42.0404620" lon="2.5658640">
        <ele>285.0</ele>
        <time>2020-07-31T07:52:42Z</time>
      </trkpt>
      <trkpt lat="42.0403710" lon="2.5659990">
        <ele>283.8</ele>
        <time>2020-07-31T07:52:43Z</time>
      </trkpt>
      <trkpt lat="42.0402100" lon="2.5662850">
        <ele>282.2</ele>
        <time>2020-07-31T07:52:45Z</time>
      </trkpt>
      <trkpt lat="42.0400790" lon="2.5665850">
        <ele>280.6</ele>
        <time>2020-07-31T07:52:47Z</time>
      </trkpt>
      <trkpt lat="42.0399790" lon="2.5668950">
        <ele>278.8</ele>
        <time>2020-07-31T07:52:49Z</time>
      </trkpt>
      <trkpt lat="42.0399040" lon="2.5672100">
        <ele>276.8</ele>
        <time>2020-07-31T07:52:51Z</time>
      </trkpt>
      <trkpt lat="42.0398760" lon="2.5673670">
        <ele>275.6</ele>
        <time>2020-07-31T07:52:52Z</time>
      </trkpt>
      <trkpt lat="42.0398500" lon="2.5675240">
        <ele>274.8</ele>
        <time>2020-07-31T07:52:53Z</time>
      </trkpt>
      <trkpt lat="42.0398260" lon="2.5676820">
        <ele>274.4</ele>
        <time>2020-07-31T07:52:54Z</time>
      </trkpt>
      <trkpt lat="42.0397130" lon="2.5684540">
        <ele>273.4</ele>
        <time>2020-07-31T07:52:59Z</time>
      </trkpt>
      <trkpt lat="42.0396920" lon="2.5686070">
        <ele>273.2</ele>
        <time>2020-07-31T07:53:00Z</time>
      </trkpt>
      <trkpt lat="42.0395970" lon="2.5693590">
        <ele>272.8</ele>
        <time>2020-07-31T07:53:05Z</time>
      </trkpt>
      <trkpt lat="42.0395560" lon="2.5696530">
        <ele>272.2</ele>
        <time>2020-07-31T07:53:07Z</time>
      </trkpt>
      <trkpt lat="42.0395350" lon="2.5697970">
        <ele>272.0</ele>
        <time>2020-07-31T07:53:08Z</time>
      </trkpt>
      <trkpt lat="42.0394090" lon="2.5706450">
        <ele>271.0</ele>
        <time>2020-07-31T07:53:14Z</time>
      </trkpt>
      <trkpt lat="42.0393490" lon="2.5710600">
        <ele>270.0</ele>
        <time>2020-07-31T07:53:17Z</time>
      </trkpt>
      <trkpt lat="42.0392270" lon="2.5718550">
        <ele>269.0</ele>
        <time>2020-07-31T07:53:23Z</time>
      </trkpt>
      <trkpt lat="42.0392060" lon="2.5719840">
        <ele>268.8</ele>
        <time>2020-07-31T07:53:24Z</time>
      </trkpt>
      <trkpt lat="42.0391600" lon="2.5722330">
        <ele>268.0</ele>
        <time>2020-07-31T07:53:26Z</time>
      </trkpt>
      <trkpt lat="42.0390690" lon="2.5728460">
        <ele>267.4</ele>
        <time>2020-07-31T07:53:31Z</time>
      </trkpt>
      <trkpt lat="42.0389570" lon="2.5736760">
        <ele>267.4</ele>
        <time>2020-07-31T07:53:38Z</time>
      </trkpt>
      <trkpt lat="42.0389380" lon="2.5737930">
        <ele>267.4</ele>
        <time>2020-07-31T07:53:39Z</time>
      </trkpt>
      <trkpt lat="42.0387560" lon="2.5745750">
        <ele>267.2</ele>
        <time>2020-07-31T07:53:46Z</time>
      </trkpt>
      <trkpt lat="42.0386880" lon="2.5747900">
        <ele>267.0</ele>
        <time>2020-07-31T07:53:48Z</time>
      </trkpt>
      <trkpt lat="42.0386530" lon="2.5748960">
        <ele>266.8</ele>
        <time>2020-07-31T07:53:49Z</time>
      </trkpt>
      <trkpt lat="42.0383720" lon="2.5756450">
        <ele>266.4</ele>
        <time>2020-07-31T07:53:56Z</time>
      </trkpt>
      <trkpt lat="42.0380990" lon="2.5763440">
        <ele>265.8</ele>
        <time>2020-07-31T07:54:02Z</time>
      </trkpt>
      <trkpt lat="42.0380530" lon="2.5764610">
        <ele>265.8</ele>
        <time>2020-07-31T07:54:03Z</time>
      </trkpt>
      <trkpt lat="42.0379150" lon="2.5768120">
        <ele>265.0</ele>
        <time>2020-07-31T07:54:06Z</time>
      </trkpt>
      <trkpt lat="42.0378660" lon="2.5769290">
        <ele>265.0</ele>
        <time>2020-07-31T07:54:07Z</time>
      </trkpt>
      <trkpt lat="42.0377000" lon="2.5772640">
        <ele>264.0</ele>
        <time>2020-07-31T07:54:10Z</time>
      </trkpt>
      <trkpt lat="42.0375770" lon="2.5774780">
        <ele>263.4</ele>
        <time>2020-07-31T07:54:12Z</time>
      </trkpt>
      <trkpt lat="42.0374410" lon="2.5776770">
        <ele>263.0</ele>
        <time>2020-07-31T07:54:14Z</time>
      </trkpt>
      <trkpt lat="42.0372200" lon="2.5779470">
        <ele>262.2</ele>
        <time>2020-07-31T07:54:17Z</time>
      </trkpt>
      <trkpt lat="42.0371410" lon="2.5780300">
        <ele>261.8</ele>
        <time>2020-07-31T07:54:18Z</time>
      </trkpt>
      <trkpt lat="42.0368130" lon="2.5783260">
        <ele>260.6</ele>
        <time>2020-07-31T07:54:22Z</time>
      </trkpt>
      <trkpt lat="42.0367290" lon="2.5783940">
        <ele>260.4</ele>
        <time>2020-07-31T07:54:23Z</time>
      </trkpt>
      <trkpt lat="42.0363980" lon="2.5786660">
        <ele>259.6</ele>
        <time>2020-07-31T07:54:27Z</time>
      </trkpt>
      <trkpt lat="42.0360700" lon="2.5789250">
        <ele>258.6</ele>
        <time>2020-07-31T07:54:31Z</time>
      </trkpt>
      <trkpt lat="42.0359890" lon="2.5789920">
        <ele>258.4</ele>
        <time>2020-07-31T07:54:32Z</time>
      </trkpt>
      <trkpt lat="42.0355190" lon="2.5794020">
        <ele>257.8</ele>
        <time>2020-07-31T07:54:38Z</time>
      </trkpt>
      <trkpt lat="42.0353790" lon="2.5795470">
        <ele>257.6</ele>
        <time>2020-07-31T07:54:40Z</time>
      </trkpt>
      <trkpt lat="42.0349200" lon="2.5800890">
        <ele>257.8</ele>
        <time>2020-07-31T07:54:47Z</time>
      </trkpt>
      <trkpt lat="42.0348560" lon="2.5801670">
        <ele>257.8</ele>
        <time>2020-07-31T07:54:48Z</time>
      </trkpt>
      <trkpt lat="42.0344370" lon="2.5807430">
        <ele>257.6</ele>
        <time>2020-07-31T07:54:55Z</time>
      </trkpt>
      <trkpt lat="42.0343800" lon="2.5808270">
        <ele>257.6</ele>
        <time>2020-07-31T07:54:56Z</time>
      </trkpt>
      <trkpt lat="42.0343260" lon="2.5809100">
        <ele>257.6</ele>
        <time>2020-07-31T07:54:57Z</time>
      </trkpt>
      <trkpt lat="42.0339340" lon="2.5815000">
        <ele>257.4</ele>
        <time>2020-07-31T07:55:04Z</time>
      </trkpt>
      <trkpt lat="42.0338770" lon="2.5815820">
        <ele>257.4</ele>
        <time>2020-07-31T07:55:05Z</time>
      </trkpt>
      <trkpt lat="42.0334670" lon="2.5821240">
        <ele>257.0</ele>
        <time>2020-07-31T07:55:12Z</time>
      </trkpt>
      <trkpt lat="42.0334040" lon="2.5821940">
        <ele>256.8</ele>
        <time>2020-07-31T07:55:13Z</time>
      </trkpt>
      <trkpt lat="42.0332020" lon="2.5823980">
        <ele>256.6</ele>
        <time>2020-07-31T07:55:16Z</time>
      </trkpt>
      <trkpt lat="42.0328360" lon="2.5827310">
        <ele>255.8</ele>
        <time>2020-07-31T07:55:21Z</time>
      </trkpt>
      <trkpt lat="42.0326850" lon="2.5828470">
        <ele>255.4</ele>
        <time>2020-07-31T07:55:23Z</time>
      </trkpt>
      <trkpt lat="42.0322960" lon="2.5831360">
        <ele>254.8</ele>
        <time>2020-07-31T07:55:28Z</time>
      </trkpt>
      <trkpt lat="42.0320020" lon="2.5833710">
        <ele>254.4</ele>
        <time>2020-07-31T07:55:32Z</time>
      </trkpt>
      <trkpt lat="42.0318570" lon="2.5834930">
        <ele>254.2</ele>
        <time>2020-07-31T07:55:34Z</time>
      </trkpt>
      <trkpt lat="42.0313890" lon="2.5838710">
        <ele>254.0</ele>
        <time>2020-07-31T07:55:41Z</time>
      </trkpt>
      <trkpt lat="42.0309030" lon="2.5842080">
        <ele>253.8</ele>
        <time>2020-07-31T07:55:48Z</time>
      </trkpt>
      <trkpt lat="42.0307620" lon="2.5842990">
        <ele>253.8</ele>
        <time>2020-07-31T07:55:50Z</time>
      </trkpt>
      <trkpt lat="42.0302900" lon="2.5845640">
        <ele>254.2</ele>
        <time>2020-07-31T07:55:57Z</time>
      </trkpt>
      <trkpt lat="42.0297340" lon="2.5847850">
        <ele>254.6</ele>
        <time>2020-07-31T07:56:05Z</time>
      </trkpt>
      <trkpt lat="42.0294660" lon="2.5849140">
        <ele>254.6</ele>
        <time>2020-07-31T07:56:09Z</time>
      </trkpt>
      <trkpt lat="42.0291440" lon="2.5851290">
        <ele>254.8</ele>
        <time>2020-07-31T07:56:14Z</time>
      </trkpt>
      <trkpt lat="42.0289530" lon="2.5852870">
        <ele>255.0</ele>
        <time>2020-07-31T07:56:17Z</time>
      </trkpt>
      <trkpt lat="42.0284620" lon="2.5857600">
        <ele>255.0</ele>
        <time>2020-07-31T07:56:25Z</time>
      </trkpt>
      <trkpt lat="42.0282820" lon="2.5859380">
        <ele>255.0</ele>
        <time>2020-07-31T07:56:28Z</time>
      </trkpt>
      <trkpt lat="42.0278100" lon="2.5864020">
        <ele>254.6</ele>
        <time>2020-07-31T07:56:36Z</time>
      </trkpt>
      <trkpt lat="42.0274540" lon="2.5867490">
        <ele>254.4</ele>
        <time>2020-07-31T07:56:42Z</time>
      </trkpt>
      <trkpt lat="42.0270030" lon="2.5871870">
        <ele>254.6</ele>
        <time>2020-07-31T07:56:49Z</time>
      </trkpt>
      <trkpt lat="42.0269340" lon="2.5872550">
        <ele>254.6</ele>
        <time>2020-07-31T07:56:50Z</time>
      </trkpt>
      <trkpt lat="42.0264280" lon="2.5877520">
        <ele>254.0</ele>
        <time>2020-07-31T07:56:57Z</time>
      </trkpt>
      <trkpt lat="42.0263530" lon="2.5878250">
        <ele>253.8</ele>
        <time>2020-07-31T07:56:58Z</time>
      </trkpt>
      <trkpt lat="42.0262780" lon="2.5878970">
        <ele>253.8</ele>
        <time>2020-07-31T07:56:59Z</time>
      </trkpt>
      <trkpt lat="42.0260540" lon="2.5881170">
        <ele>252.8</ele>
        <time>2020-07-31T07:57:02Z</time>
      </trkpt>
      <trkpt lat="42.0258270" lon="2.5883440">
        <ele>252.0</ele>
        <time>2020-07-31T07:57:05Z</time>
      </trkpt>
      <trkpt lat="42.0255960" lon="2.5885740">
        <ele>250.8</ele>
        <time>2020-07-31T07:57:08Z</time>
      </trkpt>
      <trkpt lat="42.0255170" lon="2.5886490">
        <ele>250.4</ele>
        <time>2020-07-31T07:57:09Z</time>
      </trkpt>
      <trkpt lat="42.0252800" lon="2.5888780">
        <ele>249.6</ele>
        <time>2020-07-31T07:57:12Z</time>
      </trkpt>
      <trkpt lat="42.0248800" lon="2.5892650">
        <ele>248.6</ele>
        <time>2020-07-31T07:57:17Z</time>
      </trkpt>
      <trkpt lat="42.0246380" lon="2.5895000">
        <ele>247.4</ele>
        <time>2020-07-31T07:57:20Z</time>
      </trkpt>
      <trkpt lat="42.0243160" lon="2.5898170">
        <ele>246.0</ele>
        <time>2020-07-31T07:57:24Z</time>
      </trkpt>
      <trkpt lat="42.0239900" lon="2.5901320">
        <ele>245.0</ele>
        <time>2020-07-31T07:57:28Z</time>
      </trkpt>
      <trkpt lat="42.0236650" lon="2.5904470">
        <ele>244.0</ele>
        <time>2020-07-31T07:57:32Z</time>
      </trkpt>
      <trkpt lat="42.0235850" lon="2.5905260">
        <ele>243.8</ele>
        <time>2020-07-31T07:57:33Z</time>
      </trkpt>
      <trkpt lat="42.0230920" lon="2.5910040">
        <ele>242.4</ele>
        <time>2020-07-31T07:57:39Z</time>
      </trkpt>
      <trkpt lat="42.0228370" lon="2.5912490">
        <ele>241.6</ele>
        <time>2020-07-31T07:57:42Z</time>
      </trkpt>
      <trkpt lat="42.0227510" lon="2.5913310">
        <ele>241.4</ele>
        <time>2020-07-31T07:57:43Z</time>
      </trkpt>
      <trkpt lat="42.0223120" lon="2.5917590">
        <ele>240.4</ele>
        <time>2020-07-31T07:57:48Z</time>
      </trkpt>
      <trkpt lat="42.0222230" lon="2.5918430">
        <ele>240.2</ele>
        <time>2020-07-31T07:57:49Z</time>
      </trkpt>
      <trkpt lat="42.0217030" lon="2.5923450">
        <ele>238.8</ele>
        <time>2020-07-31T07:57:55Z</time>
      </trkpt>
      <trkpt lat="42.0216160" lon="2.5924300">
        <ele>238.4</ele>
        <time>2020-07-31T07:57:56Z</time>
      </trkpt>
      <trkpt lat="42.0214420" lon="2.5925990">
        <ele>237.6</ele>
        <time>2020-07-31T07:57:58Z</time>
      </trkpt>
      <trkpt lat="42.0211000" lon="2.5929320">
        <ele>236.4</ele>
        <time>2020-07-31T07:58:02Z</time>
      </trkpt>
      <trkpt lat="42.0206850" lon="2.5933380">
        <ele>235.4</ele>
        <time>2020-07-31T07:58:07Z</time>
      </trkpt>
      <trkpt lat="42.0203660" lon="2.5936510">
        <ele>234.2</ele>
        <time>2020-07-31T07:58:11Z</time>
      </trkpt>
      <trkpt lat="42.0199810" lon="2.5940240">
        <ele>233.6</ele>
        <time>2020-07-31T07:58:16Z</time>
      </trkpt>
      <trkpt lat="42.0197610" lon="2.5942400">
        <ele>233.2</ele>
        <time>2020-07-31T07:58:19Z</time>
      </trkpt>
      <trkpt lat="42.0196150" lon="2.5943670">
        <ele>233.2</ele>
        <time>2020-07-31T07:58:21Z</time>
      </trkpt>
      <trkpt lat="42.0195340" lon="2.5944000">
        <ele>233.2</ele>
        <time>2020-07-31T07:58:22Z</time>
      </trkpt>
      <trkpt lat="42.0192970" lon="2.5944830">
        <ele>233.2</ele>
        <time>2020-07-31T07:58:25Z</time>
      </trkpt>
      <trkpt lat="42.0191470" lon="2.5947560">
        <ele>232.8</ele>
        <time>2020-07-31T07:58:28Z</time>
      </trkpt>
      <trkpt lat="42.0190390" lon="2.5949370">
        <ele>233.0</ele>
        <time>2020-07-31T07:58:30Z</time>
      </trkpt>
      <trkpt lat="42.0189710" lon="2.5950100">
        <ele>233.0</ele>
        <time>2020-07-31T07:58:31Z</time>
      </trkpt>
      <trkpt lat="42.0184910" lon="2.5954760">
        <ele>232.6</ele>
        <time>2020-07-31T07:58:38Z</time>
      </trkpt>
      <trkpt lat="42.0183550" lon="2.5956080">
        <ele>232.4</ele>
        <time>2020-07-31T07:58:40Z</time>
      </trkpt>
      <trkpt lat="42.0182880" lon="2.5956740">
        <ele>232.4</ele>
        <time>2020-07-31T07:58:41Z</time>
      </trkpt>
      <trkpt lat="42.0178220" lon="2.5961270">
        <ele>232.2</ele>
        <time>2020-07-31T07:58:48Z</time>
      </trkpt>
      <trkpt lat="42.0176910" lon="2.5962550">
        <ele>232.0</ele>
        <time>2020-07-31T07:58:50Z</time>
      </trkpt>
      <trkpt lat="42.0172350" lon="2.5967040">
        <ele>232.0</ele>
        <time>2020-07-31T07:58:57Z</time>
      </trkpt>
      <trkpt lat="42.0169080" lon="2.5970120">
        <ele>232.2</ele>
        <time>2020-07-31T07:59:02Z</time>
      </trkpt>
      <trkpt lat="42.0164370" lon="2.5974610">
        <ele>232.2</ele>
        <time>2020-07-31T07:59:09Z</time>
      </trkpt>
      <trkpt lat="42.0163020" lon="2.5976000">
        <ele>232.2</ele>
        <time>2020-07-31T07:59:11Z</time>
      </trkpt>
      <trkpt lat="42.0162310" lon="2.5976660">
        <ele>232.0</ele>
        <time>2020-07-31T07:59:12Z</time>
      </trkpt>
      <trkpt lat="42.0160700" lon="2.5977500">
        <ele>232.0</ele>
        <time>2020-07-31T07:59:14Z</time>
      </trkpt>
      <trkpt lat="42.0158620" lon="2.5979440">
        <ele>231.6</ele>
        <time>2020-07-31T07:59:17Z</time>
      </trkpt>
      <trkpt lat="42.0158120" lon="2.5980400">
        <ele>231.6</ele>
        <time>2020-07-31T07:59:18Z</time>
      </trkpt>
      <trkpt lat="42.0156230" lon="2.5982870">
        <ele>231.4</ele>
        <time>2020-07-31T07:59:21Z</time>
      </trkpt>
      <trkpt lat="42.0153350" lon="2.5985600">
        <ele>230.6</ele>
        <time>2020-07-31T07:59:25Z</time>
      </trkpt>
      <trkpt lat="42.0149790" lon="2.5989050">
        <ele>229.8</ele>
        <time>2020-07-31T07:59:30Z</time>
      </trkpt>
      <trkpt lat="42.0148390" lon="2.5990440">
        <ele>229.4</ele>
        <time>2020-07-31T07:59:32Z</time>
      </trkpt>
      <trkpt lat="42.0143570" lon="2.5995080">
        <ele>228.4</ele>
        <time>2020-07-31T07:59:39Z</time>
      </trkpt>
      <trkpt lat="42.0142900" lon="2.5995750">
        <ele>228.4</ele>
        <time>2020-07-31T07:59:40Z</time>
      </trkpt>
      <trkpt lat="42.0142230" lon="2.5996420">
        <ele>228.4</ele>
        <time>2020-07-31T07:59:41Z</time>
      </trkpt>
      <trkpt lat="42.0137650" lon="2.6000870">
        <ele>228.2</ele>
        <time>2020-07-31T07:59:48Z</time>
      </trkpt>
      <trkpt lat="42.0135770" lon="2.6002710">
        <ele>228.2</ele>
        <time>2020-07-31T07:59:51Z</time>
      </trkpt>
      <trkpt lat="42.0130800" lon="2.6007540">
        <ele>228.2</ele>
        <time>2020-07-31T07:59:59Z</time>
      </trkpt>
      <trkpt lat="42.0129570" lon="2.6008770">
        <ele>228.2</ele>
        <time>2020-07-31T08:00:01Z</time>
      </trkpt>
      <trkpt lat="42.0124590" lon="2.6013620">
        <ele>228.0</ele>
        <time>2020-07-31T08:00:09Z</time>
      </trkpt>
      <trkpt lat="42.0120720" lon="2.6017370">
        <ele>227.6</ele>
        <time>2020-07-31T08:00:15Z</time>
      </trkpt>
      <trkpt lat="42.0120090" lon="2.6017970">
        <ele>227.2</ele>
        <time>2020-07-31T08:00:16Z</time>
      </trkpt>
      <trkpt lat="42.0116310" lon="2.6021690">
        <ele>226.2</ele>
        <time>2020-07-31T08:00:22Z</time>
      </trkpt>
      <trkpt lat="42.0114390" lon="2.6023590">
        <ele>226.0</ele>
        <time>2020-07-31T08:00:25Z</time>
      </trkpt>
      <trkpt lat="42.0109930" lon="2.6028010">
        <ele>225.2</ele>
        <time>2020-07-31T08:00:32Z</time>
      </trkpt>
      <trkpt lat="42.0109310" lon="2.6028600">
        <ele>225.0</ele>
        <time>2020-07-31T08:00:33Z</time>
      </trkpt>
      <trkpt lat="42.0105550" lon="2.6032280">
        <ele>224.2</ele>
        <time>2020-07-31T08:00:39Z</time>
      </trkpt>
      <trkpt lat="42.0103740" lon="2.6034080">
        <ele>224.0</ele>
        <time>2020-07-31T08:00:42Z</time>
      </trkpt>
      <trkpt lat="42.0099970" lon="2.6037800">
        <ele>223.2</ele>
        <time>2020-07-31T08:00:48Z</time>
      </trkpt>
      <trkpt lat="42.0098110" lon="2.6039610">
        <ele>223.0</ele>
        <time>2020-07-31T08:00:51Z</time>
      </trkpt>
      <trkpt lat="42.0096310" lon="2.6041390">
        <ele>222.8</ele>
        <time>2020-07-31T08:00:54Z</time>
      </trkpt>
      <trkpt lat="42.0093830" lon="2.6043010">
        <ele>224.4</ele>
        <time>2020-07-31T08:02:05Z</time>
      </trkpt>
      <trkpt lat="42.0093550" lon="2.6043170">
        <ele>224.4</ele>
        <time>2020-07-31T08:02:06Z</time>
      </trkpt>
      <trkpt lat="42.0092040" lon="2.6044120">
        <ele>224.4</ele>
        <time>2020-07-31T08:02:10Z</time>
      </trkpt>
      <trkpt lat="42.0089320" lon="2.6045010">
        <ele>224.0</ele>
        <time>2020-07-31T08:02:15Z</time>
      </trkpt>
      <trkpt lat="42.0085200" lon="2.6046280">
        <ele>223.2</ele>
        <time>2020-07-31T08:02:22Z</time>
      </trkpt>
      <trkpt lat="42.0082100" lon="2.6047280">
        <ele>222.6</ele>
        <time>2020-07-31T08:02:27Z</time>
      </trkpt>
      <trkpt lat="42.0081290" lon="2.6047620">
        <ele>222.6</ele>
        <time>2020-07-31T08:02:28Z</time>
      </trkpt>
      <trkpt lat="42.0075860" lon="2.6049200">
        <ele>222.2</ele>
        <time>2020-07-31T08:02:35Z</time>
      </trkpt>
      <trkpt lat="42.0070090" lon="2.6050500">
        <ele>221.6</ele>
        <time>2020-07-31T08:02:42Z</time>
      </trkpt>
      <trkpt lat="42.0069310" lon="2.6050730">
        <ele>221.6</ele>
        <time>2020-07-31T08:02:43Z</time>
      </trkpt>
      <trkpt lat="42.0064040" lon="2.6052250">
        <ele>221.2</ele>
        <time>2020-07-31T08:02:50Z</time>
      </trkpt>
      <trkpt lat="42.0060320" lon="2.6053100">
        <ele>221.0</ele>
        <time>2020-07-31T08:02:55Z</time>
      </trkpt>
      <trkpt lat="42.0058870" lon="2.6053090">
        <ele>221.0</ele>
        <time>2020-07-31T08:02:57Z</time>
      </trkpt>
      <trkpt lat="42.0053290" lon="2.6052850">
        <ele>221.2</ele>
        <time>2020-07-31T08:03:05Z</time>
      </trkpt>
      <trkpt lat="42.0047330" lon="2.6052480">
        <ele>222.6</ele>
        <time>2020-07-31T08:03:14Z</time>
      </trkpt>
      <trkpt lat="42.0041540" lon="2.6052130">
        <ele>223.0</ele>
        <time>2020-07-31T08:03:23Z</time>
      </trkpt>
      <trkpt lat="42.0040900" lon="2.6052060">
        <ele>223.2</ele>
        <time>2020-07-31T08:03:24Z</time>
      </trkpt>
      <trkpt lat="42.0036190" lon="2.6051780">
        <ele>224.0</ele>
        <time>2020-07-31T08:03:32Z</time>
      </trkpt>
      <trkpt lat="42.0035130" lon="2.6051760">
        <ele>224.4</ele>
        <time>2020-07-31T08:03:34Z</time>
      </trkpt>
      <trkpt lat="42.0033090" lon="2.6051680">
        <ele>225.4</ele>
        <time>2020-07-31T08:03:38Z</time>
      </trkpt>
      <trkpt lat="42.0031600" lon="2.6051640">
        <ele>226.2</ele>
        <time>2020-07-31T08:03:41Z</time>
      </trkpt>
      <trkpt lat="42.0030620" lon="2.6051600">
        <ele>226.6</ele>
        <time>2020-07-31T08:03:43Z</time>
      </trkpt>
      <trkpt lat="42.0028650" lon="2.6051530">
        <ele>227.8</ele>
        <time>2020-07-31T08:03:47Z</time>
      </trkpt>
      <trkpt lat="42.0027150" lon="2.6051410">
        <ele>229.0</ele>
        <time>2020-07-31T08:03:50Z</time>
      </trkpt>
      <trkpt lat="42.0026170" lon="2.6051380">
        <ele>229.8</ele>
        <time>2020-07-31T08:03:52Z</time>
      </trkpt>
      <trkpt lat="42.0025680" lon="2.6051370">
        <ele>230.2</ele>
        <time>2020-07-31T08:03:53Z</time>
      </trkpt>
      <trkpt lat="42.0023290" lon="2.6051280">
        <ele>231.2</ele>
        <time>2020-07-31T08:03:58Z</time>
      </trkpt>
      <trkpt lat="42.0020930" lon="2.6051170">
        <ele>232.2</ele>
        <time>2020-07-31T08:04:03Z</time>
      </trkpt>
      <trkpt lat="42.0020460" lon="2.6051150">
        <ele>232.4</ele>
        <time>2020-07-31T08:04:04Z</time>
      </trkpt>
      <trkpt lat="42.0018560" lon="2.6051050">
        <ele>233.4</ele>
        <time>2020-07-31T08:04:08Z</time>
      </trkpt>
      <trkpt lat="42.0015790" lon="2.6050990">
        <ele>234.8</ele>
        <time>2020-07-31T08:04:14Z</time>
      </trkpt>
      <trkpt lat="42.0015340" lon="2.6050970">
        <ele>235.0</ele>
        <time>2020-07-31T08:04:15Z</time>
      </trkpt>
      <trkpt lat="42.0013520" lon="2.6050890">
        <ele>235.8</ele>
        <time>2020-07-31T08:04:19Z</time>
      </trkpt>
      <trkpt lat="42.0013090" lon="2.6050830">
        <ele>236.2</ele>
        <time>2020-07-31T08:04:20Z</time>
      </trkpt>
      <trkpt lat="42.0012210" lon="2.6050670">
        <ele>236.8</ele>
        <time>2020-07-31T08:04:22Z</time>
      </trkpt>
      <trkpt lat="42.0011730" lon="2.6050620">
        <ele>237.0</ele>
        <time>2020-07-31T08:04:23Z</time>
      </trkpt>
      <trkpt lat="42.0008950" lon="2.6050640">
        <ele>237.6</ele>
        <time>2020-07-31T08:04:28Z</time>
      </trkpt>
      <trkpt lat="42.0004890" lon="2.6051210">
        <ele>237.6</ele>
        <time>2020-07-31T08:04:34Z</time>
      </trkpt>
      <trkpt lat="42.0000640" lon="2.6052740">
        <ele>237.0</ele>
        <time>2020-07-31T08:04:39Z</time>
      </trkpt>
      <trkpt lat="41.9996080" lon="2.6055740">
        <ele>235.4</ele>
        <time>2020-07-31T08:04:44Z</time>
      </trkpt>
      <trkpt lat="41.9994320" lon="2.6057400">
        <ele>234.0</ele>
        <time>2020-07-31T08:04:46Z</time>
      </trkpt>
      <trkpt lat="41.9992640" lon="2.6059220">
        <ele>231.8</ele>
        <time>2020-07-31T08:04:48Z</time>
      </trkpt>
      <trkpt lat="41.9991840" lon="2.6060170">
        <ele>231.4</ele>
        <time>2020-07-31T08:04:49Z</time>
      </trkpt>
      <trkpt lat="41.9991070" lon="2.6061110">
        <ele>231.0</ele>
        <time>2020-07-31T08:04:50Z</time>
      </trkpt>
      <trkpt lat="41.9988120" lon="2.6064550">
        <ele>230.0</ele>
        <time>2020-07-31T08:04:54Z</time>
      </trkpt>
      <trkpt lat="41.9987450" lon="2.6065340">
        <ele>229.8</ele>
        <time>2020-07-31T08:04:55Z</time>
      </trkpt>
      <trkpt lat="41.9983850" lon="2.6069560">
        <ele>229.8</ele>
        <time>2020-07-31T08:05:01Z</time>
      </trkpt>
      <trkpt lat="41.9983250" lon="2.6070160">
        <ele>230.2</ele>
        <time>2020-07-31T08:05:02Z</time>
      </trkpt>
      <trkpt lat="41.9981970" lon="2.6071200">
        <ele>231.2</ele>
        <time>2020-07-31T08:05:04Z</time>
      </trkpt>
      <trkpt lat="41.9980720" lon="2.6072200">
        <ele>232.0</ele>
        <time>2020-07-31T08:05:06Z</time>
      </trkpt>
      <trkpt lat="41.9980130" lon="2.6072750">
        <ele>232.4</ele>
        <time>2020-07-31T08:05:07Z</time>
      </trkpt>
      <trkpt lat="41.9978380" lon="2.6074220">
        <ele>233.6</ele>
        <time>2020-07-31T08:05:10Z</time>
      </trkpt>
      <trkpt lat="41.9977180" lon="2.6075090">
        <ele>234.2</ele>
        <time>2020-07-31T08:05:12Z</time>
      </trkpt>
      <trkpt lat="41.9975320" lon="2.6076290">
        <ele>234.8</ele>
        <time>2020-07-31T08:05:15Z</time>
      </trkpt>
      <trkpt lat="41.9972780" lon="2.6077700">
        <ele>235.6</ele>
        <time>2020-07-31T08:05:19Z</time>
      </trkpt>
      <trkpt lat="41.9970770" lon="2.6078820">
        <ele>235.8</ele>
        <time>2020-07-31T08:05:22Z</time>
      </trkpt>
      <trkpt lat="41.9967180" lon="2.6080930">
        <ele>235.8</ele>
        <time>2020-07-31T08:05:27Z</time>
      </trkpt>
      <trkpt lat="41.9961790" lon="2.6083910">
        <ele>235.2</ele>
        <time>2020-07-31T08:05:34Z</time>
      </trkpt>
      <trkpt lat="41.9960980" lon="2.6084340">
        <ele>235.0</ele>
        <time>2020-07-31T08:05:35Z</time>
      </trkpt>
      <trkpt lat="41.9958540" lon="2.6085730">
        <ele>233.8</ele>
        <time>2020-07-31T08:05:38Z</time>
      </trkpt>
      <trkpt lat="41.9956190" lon="2.6087410">
        <ele>232.6</ele>
        <time>2020-07-31T08:05:41Z</time>
      </trkpt>
      <trkpt lat="41.9955430" lon="2.6088070">
        <ele>232.2</ele>
        <time>2020-07-31T08:05:42Z</time>
      </trkpt>
      <trkpt lat="41.9953950" lon="2.6089480">
        <ele>231.2</ele>
        <time>2020-07-31T08:05:44Z</time>
      </trkpt>
      <trkpt lat="41.9950420" lon="2.6093300">
        <ele>230.6</ele>
        <time>2020-07-31T08:05:49Z</time>
      </trkpt>
      <trkpt lat="41.9947670" lon="2.6096320">
        <ele>230.0</ele>
        <time>2020-07-31T08:05:53Z</time>
      </trkpt>
      <trkpt lat="41.9944100" lon="2.6099760">
        <ele>229.4</ele>
        <time>2020-07-31T08:05:58Z</time>
      </trkpt>
      <trkpt lat="41.9939420" lon="2.6102820">
        <ele>229.0</ele>
        <time>2020-07-31T08:06:04Z</time>
      </trkpt>
      <trkpt lat="41.9938620" lon="2.6103230">
        <ele>229.0</ele>
        <time>2020-07-31T08:06:05Z</time>
      </trkpt>
      <trkpt lat="41.9935490" lon="2.6104740">
        <ele>228.8</ele>
        <time>2020-07-31T08:06:09Z</time>
      </trkpt>
      <trkpt lat="41.9931550" lon="2.6106600">
        <ele>228.4</ele>
        <time>2020-07-31T08:06:14Z</time>
      </trkpt>
      <trkpt lat="41.9926570" lon="2.6107900">
        <ele>228.0</ele>
        <time>2020-07-31T08:06:20Z</time>
      </trkpt>
      <trkpt lat="41.9925710" lon="2.6107950">
        <ele>227.8</ele>
        <time>2020-07-31T08:06:21Z</time>
      </trkpt>
      <trkpt lat="41.9922310" lon="2.6107580">
        <ele>227.6</ele>
        <time>2020-07-31T08:06:25Z</time>
      </trkpt>
      <trkpt lat="41.9918190" lon="2.6105880">
        <ele>227.4</ele>
        <time>2020-07-31T08:06:30Z</time>
      </trkpt>
      <trkpt lat="41.9915210" lon="2.6103510">
        <ele>227.0</ele>
        <time>2020-07-31T08:06:34Z</time>
      </trkpt>
      <trkpt lat="41.9914520" lon="2.6102770">
        <ele>227.0</ele>
        <time>2020-07-31T08:06:35Z</time>
      </trkpt>
      <trkpt lat="41.9911420" lon="2.6098390">
        <ele>226.8</ele>
        <time>2020-07-31T08:06:40Z</time>
      </trkpt>
      <trkpt lat="41.9908350" lon="2.6092360">
        <ele>226.2</ele>
        <time>2020-07-31T08:06:46Z</time>
      </trkpt>
      <trkpt lat="41.9907860" lon="2.6091360">
        <ele>226.0</ele>
        <time>2020-07-31T08:06:47Z</time>
      </trkpt>
      <trkpt lat="41.9907360" lon="2.6090350">
        <ele>226.0</ele>
        <time>2020-07-31T08:06:48Z</time>
      </trkpt>
      <trkpt lat="41.9904170" lon="2.6084630">
        <ele>225.0</ele>
        <time>2020-07-31T08:06:54Z</time>
      </trkpt>
      <trkpt lat="41.9903590" lon="2.6083750">
        <ele>224.8</ele>
        <time>2020-07-31T08:06:55Z</time>
      </trkpt>
      <trkpt lat="41.9899720" lon="2.6078670">
        <ele>224.6</ele>
        <time>2020-07-31T08:07:01Z</time>
      </trkpt>
      <trkpt lat="41.9899000" lon="2.6077850">
        <ele>224.6</ele>
        <time>2020-07-31T08:07:02Z</time>
      </trkpt>
      <trkpt lat="41.9896710" lon="2.6075390">
        <ele>224.0</ele>
        <time>2020-07-31T08:07:05Z</time>
      </trkpt>
      <trkpt lat="41.9894370" lon="2.6072830">
        <ele>222.6</ele>
        <time>2020-07-31T08:07:08Z</time>
      </trkpt>
      <trkpt lat="41.9892820" lon="2.6071110">
        <ele>222.0</ele>
        <time>2020-07-31T08:07:10Z</time>
      </trkpt>
      <trkpt lat="41.9891350" lon="2.6069410">
        <ele>221.4</ele>
        <time>2020-07-31T08:07:12Z</time>
      </trkpt>
      <trkpt lat="41.9889150" lon="2.6067070">
        <ele>220.2</ele>
        <time>2020-07-31T08:07:15Z</time>
      </trkpt>
      <trkpt lat="41.9887770" lon="2.6065560">
        <ele>220.0</ele>
        <time>2020-07-31T08:07:17Z</time>
      </trkpt>
      <trkpt lat="41.9883080" lon="2.6060540">
        <ele>219.8</ele>
        <time>2020-07-31T08:07:24Z</time>
      </trkpt>
      <trkpt lat="41.9881140" lon="2.6058360">
        <ele>220.2</ele>
        <time>2020-07-31T08:07:27Z</time>
      </trkpt>
      <trkpt lat="41.9877000" lon="2.6052650">
        <ele>220.4</ele>
        <time>2020-07-31T08:07:34Z</time>
      </trkpt>
      <trkpt lat="41.9876480" lon="2.6051730">
        <ele>220.4</ele>
        <time>2020-07-31T08:07:35Z</time>
      </trkpt>
      <trkpt lat="41.9872770" lon="2.6045060">
        <ele>220.2</ele>
        <time>2020-07-31T08:07:42Z</time>
      </trkpt>
      <trkpt lat="41.9872220" lon="2.6044140">
        <ele>220.2</ele>
        <time>2020-07-31T08:07:43Z</time>
      </trkpt>
      <trkpt lat="41.9869110" lon="2.6040170">
        <ele>219.2</ele>
        <time>2020-07-31T08:07:48Z</time>
      </trkpt>
      <trkpt lat="41.9868400" lon="2.6039580">
        <ele>219.2</ele>
        <time>2020-07-31T08:07:49Z</time>
      </trkpt>
      <trkpt lat="41.9866100" lon="2.6038320">
        <ele>219.0</ele>
        <time>2020-07-31T08:07:52Z</time>
      </trkpt>
      <trkpt lat="41.9862830" lon="2.6038040">
        <ele>218.8</ele>
        <time>2020-07-31T08:07:56Z</time>
      </trkpt>
      <trkpt lat="41.9858190" lon="2.6039160">
        <ele>218.6</ele>
        <time>2020-07-31T08:08:02Z</time>
      </trkpt>
      <trkpt lat="41.9852900" lon="2.6040810">
        <ele>218.6</ele>
        <time>2020-07-31T08:08:09Z</time>
      </trkpt>
      <trkpt lat="41.9851540" lon="2.6041600">
        <ele>218.6</ele>
        <time>2020-07-31T08:08:11Z</time>
      </trkpt>
      <trkpt lat="41.9850290" lon="2.6042610">
        <ele>218.8</ele>
        <time>2020-07-31T08:08:13Z</time>
      </trkpt>
      <trkpt lat="41.9848700" lon="2.6044460">
        <ele>218.8</ele>
        <time>2020-07-31T08:08:16Z</time>
      </trkpt>
      <trkpt lat="41.9845930" lon="2.6047820">
        <ele>218.8</ele>
        <time>2020-07-31T08:08:22Z</time>
      </trkpt>
      <trkpt lat="41.9844360" lon="2.6050750">
        <ele>219.0</ele>
        <time>2020-07-31T08:08:27Z</time>
      </trkpt>
      <trkpt lat="41.9844230" lon="2.6051370">
        <ele>219.0</ele>
        <time>2020-07-31T08:08:28Z</time>
      </trkpt>
      <trkpt lat="41.9844000" lon="2.6053000">
        <ele>219.2</ele>
        <time>2020-07-31T08:08:32Z</time>
      </trkpt>
      <trkpt lat="41.9844040" lon="2.6053310">
        <ele>219.4</ele>
        <time>2020-07-31T08:08:36Z</time>
      </trkpt>
      <trkpt lat="41.9837820" lon="2.6060620">
        <ele>219.0</ele>
        <time>2020-07-31T08:12:22Z</time>
      </trkpt>
      <trkpt lat="41.9837510" lon="2.6061040">
        <ele>219.0</ele>
        <time>2020-07-31T08:12:23Z</time>
      </trkpt>
      <trkpt lat="41.9835060" lon="2.6064400">
        <ele>218.8</ele>
        <time>2020-07-31T08:12:29Z</time>
      </trkpt>
      <trkpt lat="41.9831310" lon="2.6069560">
        <ele>218.2</ele>
        <time>2020-07-31T08:12:37Z</time>
      </trkpt>
      <trkpt lat="41.9830820" lon="2.6070190">
        <ele>218.0</ele>
        <time>2020-07-31T08:12:38Z</time>
      </trkpt>
      <trkpt lat="41.9826680" lon="2.6075820">
        <ele>217.2</ele>
        <time>2020-07-31T08:12:46Z</time>
      </trkpt>
      <trkpt lat="41.9826160" lon="2.6076550">
        <ele>217.2</ele>
        <time>2020-07-31T08:12:47Z</time>
      </trkpt>
      <trkpt lat="41.9825620" lon="2.6077290">
        <ele>217.0</ele>
        <time>2020-07-31T08:12:48Z</time>
      </trkpt>
      <trkpt lat="41.9821380" lon="2.6083210">
        <ele>216.6</ele>
        <time>2020-07-31T08:12:56Z</time>
      </trkpt>
      <trkpt lat="41.9820860" lon="2.6083930">
        <ele>216.6</ele>
        <time>2020-07-31T08:12:57Z</time>
      </trkpt>
      <trkpt lat="41.9816810" lon="2.6089650">
        <ele>216.6</ele>
        <time>2020-07-31T08:13:05Z</time>
      </trkpt>
      <trkpt lat="41.9814330" lon="2.6093190">
        <ele>216.6</ele>
        <time>2020-07-31T08:13:10Z</time>
      </trkpt>
      <trkpt lat="41.9810310" lon="2.6098870">
        <ele>217.0</ele>
        <time>2020-07-31T08:13:18Z</time>
      </trkpt>
      <trkpt lat="41.9809300" lon="2.6100260">
        <ele>216.8</ele>
        <time>2020-07-31T08:13:20Z</time>
      </trkpt>
      <trkpt lat="41.9805280" lon="2.6105790">
        <ele>217.2</ele>
        <time>2020-07-31T08:13:28Z</time>
      </trkpt>
      <trkpt lat="41.9803760" lon="2.6107830">
        <ele>217.2</ele>
        <time>2020-07-31T08:13:31Z</time>
      </trkpt>
      <trkpt lat="41.9800460" lon="2.6112820">
        <ele>217.2</ele>
        <time>2020-07-31T08:13:38Z</time>
      </trkpt>
      <trkpt lat="41.9797130" lon="2.6119110">
        <ele>217.0</ele>
        <time>2020-07-31T08:13:46Z</time>
      </trkpt>
      <trkpt lat="41.9794180" lon="2.6125810">
        <ele>216.4</ele>
        <time>2020-07-31T08:13:54Z</time>
      </trkpt>
      <trkpt lat="41.9793550" lon="2.6127530">
        <ele>216.2</ele>
        <time>2020-07-31T08:13:56Z</time>
      </trkpt>
      <trkpt lat="41.9791260" lon="2.6134670">
        <ele>215.6</ele>
        <time>2020-07-31T08:14:04Z</time>
      </trkpt>
      <trkpt lat="41.9791020" lon="2.6135580">
        <ele>215.6</ele>
        <time>2020-07-31T08:14:05Z</time>
      </trkpt>
      <trkpt lat="41.9789470" lon="2.6141980">
        <ele>215.8</ele>
        <time>2020-07-31T08:14:12Z</time>
      </trkpt>
      <trkpt lat="41.9788620" lon="2.6148420">
        <ele>216.2</ele>
        <time>2020-07-31T08:14:19Z</time>
      </trkpt>
      <trkpt lat="41.9788140" lon="2.6155950">
        <ele>216.8</ele>
        <time>2020-07-31T08:14:27Z</time>
      </trkpt>
      <trkpt lat="41.9788100" lon="2.6163690">
        <ele>217.4</ele>
        <time>2020-07-31T08:14:35Z</time>
      </trkpt>
      <trkpt lat="41.9788100" lon="2.6165600">
        <ele>217.6</ele>
        <time>2020-07-31T08:14:37Z</time>
      </trkpt>
      <trkpt lat="41.9787800" lon="2.6173350">
        <ele>217.8</ele>
        <time>2020-07-31T08:14:45Z</time>
      </trkpt>
      <trkpt lat="41.9787530" lon="2.6176360">
        <ele>217.8</ele>
        <time>2020-07-31T08:14:48Z</time>
      </trkpt>
      <trkpt lat="41.9786440" lon="2.6183650">
        <ele>217.8</ele>
        <time>2020-07-31T08:14:55Z</time>
      </trkpt>
      <trkpt lat="41.9786240" lon="2.6184730">
        <ele>217.8</ele>
        <time>2020-07-31T08:14:56Z</time>
      </trkpt>
      <trkpt lat="41.9784340" lon="2.6192600">
        <ele>216.8</ele>
        <time>2020-07-31T08:15:03Z</time>
      </trkpt>
      <trkpt lat="41.9783990" lon="2.6193740">
        <ele>216.6</ele>
        <time>2020-07-31T08:15:04Z</time>
      </trkpt>
      <trkpt lat="41.9782920" lon="2.6197050">
        <ele>215.4</ele>
        <time>2020-07-31T08:15:07Z</time>
      </trkpt>
      <trkpt lat="41.9781260" lon="2.6201360">
        <ele>214.2</ele>
        <time>2020-07-31T08:15:11Z</time>
      </trkpt>
      <trkpt lat="41.9779850" lon="2.6204550">
        <ele>213.0</ele>
        <time>2020-07-31T08:15:14Z</time>
      </trkpt>
      <trkpt lat="41.9777740" lon="2.6208660">
        <ele>211.8</ele>
        <time>2020-07-31T08:15:18Z</time>
      </trkpt>
      <trkpt lat="41.9774190" lon="2.6214540">
        <ele>210.6</ele>
        <time>2020-07-31T08:15:24Z</time>
      </trkpt>
      <trkpt lat="41.9772880" lon="2.6216400">
        <ele>210.0</ele>
        <time>2020-07-31T08:15:26Z</time>
      </trkpt>
      <trkpt lat="41.9770110" lon="2.6219930">
        <ele>209.4</ele>
        <time>2020-07-31T08:15:30Z</time>
      </trkpt>
      <trkpt lat="41.9767910" lon="2.6222410">
        <ele>208.4</ele>
        <time>2020-07-31T08:15:33Z</time>
      </trkpt>
      <trkpt lat="41.9767160" lon="2.6223210">
        <ele>208.2</ele>
        <time>2020-07-31T08:15:34Z</time>
      </trkpt>
      <trkpt lat="41.9765020" lon="2.6225460">
        <ele>207.2</ele>
        <time>2020-07-31T08:15:37Z</time>
      </trkpt>
      <trkpt lat="41.9763450" lon="2.6226840">
        <ele>206.8</ele>
        <time>2020-07-31T08:15:39Z</time>
      </trkpt>
      <trkpt lat="41.9760210" lon="2.6229370">
        <ele>206.2</ele>
        <time>2020-07-31T08:15:43Z</time>
      </trkpt>
      <trkpt lat="41.9757660" lon="2.6231020">
        <ele>205.4</ele>
        <time>2020-07-31T08:15:46Z</time>
      </trkpt>
      <trkpt lat="41.9756740" lon="2.6231560">
        <ele>205.0</ele>
        <time>2020-07-31T08:15:47Z</time>
      </trkpt>
      <trkpt lat="41.9753110" lon="2.6233450">
        <ele>203.8</ele>
        <time>2020-07-31T08:15:51Z</time>
      </trkpt>
      <trkpt lat="41.9752200" lon="2.6233890">
        <ele>203.6</ele>
        <time>2020-07-31T08:15:52Z</time>
      </trkpt>
      <trkpt lat="41.9747590" lon="2.6235740">
        <ele>202.6</ele>
        <time>2020-07-31T08:15:57Z</time>
      </trkpt>
      <trkpt lat="41.9745680" lon="2.6236300">
        <ele>202.0</ele>
        <time>2020-07-31T08:15:59Z</time>
      </trkpt>
      <trkpt lat="41.9743760" lon="2.6236780">
        <ele>201.6</ele>
        <time>2020-07-31T08:16:01Z</time>
      </trkpt>
      <trkpt lat="41.9739080" lon="2.6237510">
        <ele>200.2</ele>
        <time>2020-07-31T08:16:06Z</time>
      </trkpt>
      <trkpt lat="41.9735280" lon="2.6238110">
        <ele>199.0</ele>
        <time>2020-07-31T08:16:10Z</time>
      </trkpt>
      <trkpt lat="41.9729520" lon="2.6239100">
        <ele>198.4</ele>
        <time>2020-07-31T08:16:16Z</time>
      </trkpt>
      <trkpt lat="41.9728550" lon="2.6239270">
        <ele>198.0</ele>
        <time>2020-07-31T08:16:17Z</time>
      </trkpt>
      <trkpt lat="41.9725640" lon="2.6239820">
        <ele>197.0</ele>
        <time>2020-07-31T08:16:20Z</time>
      </trkpt>
      <trkpt lat="41.9720750" lon="2.6240650">
        <ele>195.6</ele>
        <time>2020-07-31T08:16:25Z</time>
      </trkpt>
      <trkpt lat="41.9717880" lon="2.6241170">
        <ele>195.0</ele>
        <time>2020-07-31T08:16:28Z</time>
      </trkpt>
      <trkpt lat="41.9715070" lon="2.6241680">
        <ele>194.6</ele>
        <time>2020-07-31T08:16:31Z</time>
      </trkpt>
      <trkpt lat="41.9709610" lon="2.6242720">
        <ele>194.4</ele>
        <time>2020-07-31T08:16:37Z</time>
      </trkpt>
      <trkpt lat="41.9708730" lon="2.6242890">
        <ele>194.4</ele>
        <time>2020-07-31T08:16:38Z</time>
      </trkpt>
      <trkpt lat="41.9702590" lon="2.6243960">
        <ele>194.8</ele>
        <time>2020-07-31T08:16:45Z</time>
      </trkpt>
      <trkpt lat="41.9697490" lon="2.6244890">
        <ele>194.6</ele>
        <time>2020-07-31T08:16:51Z</time>
      </trkpt>
      <trkpt lat="41.9691660" lon="2.6245900">
        <ele>194.0</ele>
        <time>2020-07-31T08:16:58Z</time>
      </trkpt>
      <trkpt lat="41.9690830" lon="2.6246040">
        <ele>193.8</ele>
        <time>2020-07-31T08:16:59Z</time>
      </trkpt>
      <trkpt lat="41.9687580" lon="2.6246710">
        <ele>193.8</ele>
        <time>2020-07-31T08:17:03Z</time>
      </trkpt>
      <trkpt lat="41.9682770" lon="2.6247560">
        <ele>193.8</ele>
        <time>2020-07-31T08:17:09Z</time>
      </trkpt>
      <trkpt lat="41.9677240" lon="2.6248330">
        <ele>193.8</ele>
        <time>2020-07-31T08:17:16Z</time>
      </trkpt>
      <trkpt lat="41.9676490" lon="2.6248360">
        <ele>193.8</ele>
        <time>2020-07-31T08:17:17Z</time>
      </trkpt>
      <trkpt lat="41.9675060" lon="2.6248240">
        <ele>193.8</ele>
        <time>2020-07-31T08:17:19Z</time>
      </trkpt>
      <trkpt lat="41.9673830" lon="2.6247580">
        <ele>193.8</ele>
        <time>2020-07-31T08:17:21Z</time>
      </trkpt>
      <trkpt lat="41.9672090" lon="2.6246890">
        <ele>194.0</ele>
        <time>2020-07-31T08:17:24Z</time>
      </trkpt>
      <trkpt lat="41.9671060" lon="2.6247800">
        <ele>194.6</ele>
        <time>2020-07-31T08:17:26Z</time>
      </trkpt>
      <trkpt lat="41.9670270" lon="2.6250360">
        <ele>194.8</ele>
        <time>2020-07-31T08:17:29Z</time>
      </trkpt>
      <trkpt lat="41.9669960" lon="2.6251280">
        <ele>194.8</ele>
        <time>2020-07-31T08:17:30Z</time>
      </trkpt>
      <trkpt lat="41.9668520" lon="2.6253730">
        <ele>194.8</ele>
        <time>2020-07-31T08:17:33Z</time>
      </trkpt>
      <trkpt lat="41.9664240" lon="2.6258520">
        <ele>194.0</ele>
        <time>2020-07-31T08:17:40Z</time>
      </trkpt>
      <trkpt lat="41.9661790" lon="2.6261280">
        <ele>194.0</ele>
        <time>2020-07-31T08:17:44Z</time>
      </trkpt>
      <trkpt lat="41.9658610" lon="2.6264820">
        <ele>193.8</ele>
        <time>2020-07-31T08:17:49Z</time>
      </trkpt>
      <trkpt lat="41.9653820" lon="2.6270090">
        <ele>192.8</ele>
        <time>2020-07-31T08:17:56Z</time>
      </trkpt>
      <trkpt lat="41.9651750" lon="2.6272370">
        <ele>192.4</ele>
        <time>2020-07-31T08:17:59Z</time>
      </trkpt>
      <trkpt lat="41.9649700" lon="2.6274630">
        <ele>191.8</ele>
        <time>2020-07-31T08:18:02Z</time>
      </trkpt>
      <trkpt lat="41.9644890" lon="2.6279840">
        <ele>191.2</ele>
        <time>2020-07-31T08:18:09Z</time>
      </trkpt>
      <trkpt lat="41.9644230" lon="2.6280580">
        <ele>191.2</ele>
        <time>2020-07-31T08:18:10Z</time>
      </trkpt>
      <trkpt lat="41.9639450" lon="2.6285780">
        <ele>191.0</ele>
        <time>2020-07-31T08:18:17Z</time>
      </trkpt>
      <trkpt lat="41.9637450" lon="2.6287940">
        <ele>190.8</ele>
        <time>2020-07-31T08:18:20Z</time>
      </trkpt>
      <trkpt lat="41.9636800" lon="2.6288660">
        <ele>190.8</ele>
        <time>2020-07-31T08:18:21Z</time>
      </trkpt>
      <trkpt lat="41.9632340" lon="2.6293530">
        <ele>190.6</ele>
        <time>2020-07-31T08:18:28Z</time>
      </trkpt>
      <trkpt lat="41.9631140" lon="2.6294840">
        <ele>190.4</ele>
        <time>2020-07-31T08:18:30Z</time>
      </trkpt>
      <trkpt lat="41.9626780" lon="2.6299590">
        <ele>191.2</ele>
        <time>2020-07-31T08:18:38Z</time>
      </trkpt>
      <trkpt lat="41.9625740" lon="2.6300720">
        <ele>191.8</ele>
        <time>2020-07-31T08:18:40Z</time>
      </trkpt>
      <trkpt lat="41.9625220" lon="2.6301260">
        <ele>192.2</ele>
        <time>2020-07-31T08:18:41Z</time>
      </trkpt>
      <trkpt lat="41.9622250" lon="2.6304420">
        <ele>193.4</ele>
        <time>2020-07-31T08:18:47Z</time>
      </trkpt>
      <trkpt lat="41.9621760" lon="2.6304940">
        <ele>193.6</ele>
        <time>2020-07-31T08:18:48Z</time>
      </trkpt>
      <trkpt lat="41.9619360" lon="2.6307550">
        <ele>194.6</ele>
        <time>2020-07-31T08:18:53Z</time>
      </trkpt>
      <trkpt lat="41.9617810" lon="2.6309200">
        <ele>195.0</ele>
        <time>2020-07-31T08:18:56Z</time>
      </trkpt>
      <trkpt lat="41.9613400" lon="2.6314050">
        <ele>195.4</ele>
        <time>2020-07-31T08:19:04Z</time>
      </trkpt>
      <trkpt lat="41.9609260" lon="2.6318850">
        <ele>195.6</ele>
        <time>2020-07-31T08:19:11Z</time>
      </trkpt>
      <trkpt lat="41.9604670" lon="2.6324000">
        <ele>194.2</ele>
        <time>2020-07-31T08:19:18Z</time>
      </trkpt>
      <trkpt lat="41.9602560" lon="2.6326290">
        <ele>193.6</ele>
        <time>2020-07-31T08:19:21Z</time>
      </trkpt>
      <trkpt lat="41.9600430" lon="2.6328640">
        <ele>192.6</ele>
        <time>2020-07-31T08:19:24Z</time>
      </trkpt>
      <trkpt lat="41.9598340" lon="2.6330960">
        <ele>191.6</ele>
        <time>2020-07-31T08:19:27Z</time>
      </trkpt>
      <trkpt lat="41.9596970" lon="2.6332470">
        <ele>191.6</ele>
        <time>2020-07-31T08:19:29Z</time>
      </trkpt>
      <trkpt lat="41.9593210" lon="2.6336630">
        <ele>191.2</ele>
        <time>2020-07-31T08:19:35Z</time>
      </trkpt>
      <trkpt lat="41.9589670" lon="2.6340460">
        <ele>191.2</ele>
        <time>2020-07-31T08:19:41Z</time>
      </trkpt>
      <trkpt lat="41.9587190" lon="2.6343590">
        <ele>191.6</ele>
        <time>2020-07-31T08:19:46Z</time>
      </trkpt>
      <trkpt lat="41.9585390" lon="2.6344310">
        <ele>191.8</ele>
        <time>2020-07-31T08:19:49Z</time>
      </trkpt>
      <trkpt lat="41.9583340" lon="2.6346100">
        <ele>192.6</ele>
        <time>2020-07-31T08:19:53Z</time>
      </trkpt>
      <trkpt lat="41.9582840" lon="2.6346800">
        <ele>193.0</ele>
        <time>2020-07-31T08:19:54Z</time>
      </trkpt>
      <trkpt lat="41.9580370" lon="2.6350140">
        <ele>193.6</ele>
        <time>2020-07-31T08:19:59Z</time>
      </trkpt>
      <trkpt lat="41.9577040" lon="2.6354130">
        <ele>193.8</ele>
        <time>2020-07-31T08:20:06Z</time>
      </trkpt>
      <trkpt lat="41.9574170" lon="2.6357260">
        <ele>194.0</ele>
        <time>2020-07-31T08:20:12Z</time>
      </trkpt>
      <trkpt lat="41.9573180" lon="2.6358280">
        <ele>194.4</ele>
        <time>2020-07-31T08:20:14Z</time>
      </trkpt>
      <trkpt lat="41.9568470" lon="2.6363320">
        <ele>194.8</ele>
        <time>2020-07-31T08:20:23Z</time>
      </trkpt>
      <trkpt lat="41.9567990" lon="2.6363870">
        <ele>195.0</ele>
        <time>2020-07-31T08:20:24Z</time>
      </trkpt>
      <trkpt lat="41.9567470" lon="2.6364450">
        <ele>195.0</ele>
        <time>2020-07-31T08:20:25Z</time>
      </trkpt>
      <trkpt lat="41.9564150" lon="2.6368100">
        <ele>195.8</ele>
        <time>2020-07-31T08:20:31Z</time>
      </trkpt>
      <trkpt lat="41.9559730" lon="2.6373160">
        <ele>196.2</ele>
        <time>2020-07-31T08:20:40Z</time>
      </trkpt>
      <trkpt lat="41.9556850" lon="2.6376560">
        <ele>197.2</ele>
        <time>2020-07-31T08:20:47Z</time>
      </trkpt>
      <trkpt lat="41.9552170" lon="2.6381730">
        <ele>199.4</ele>
        <time>2020-07-31T08:21:53Z</time>
      </trkpt>
      <trkpt lat="41.9550140" lon="2.6383840">
        <ele>199.4</ele>
        <time>2020-07-31T08:21:58Z</time>
      </trkpt>
      <trkpt lat="41.9546340" lon="2.6387990">
        <ele>198.6</ele>
        <time>2020-07-31T08:22:06Z</time>
      </trkpt>
      <trkpt lat="41.9545870" lon="2.6388550">
        <ele>198.4</ele>
        <time>2020-07-31T08:22:07Z</time>
      </trkpt>
      <trkpt lat="41.9542470" lon="2.6392650">
        <ele>198.0</ele>
        <time>2020-07-31T08:22:14Z</time>
      </trkpt>
      <trkpt lat="41.9537840" lon="2.6397550">
        <ele>198.0</ele>
        <time>2020-07-31T08:22:22Z</time>
      </trkpt>
      <trkpt lat="41.9533390" lon="2.6402240">
        <ele>198.4</ele>
        <time>2020-07-31T08:22:31Z</time>
      </trkpt>
      <trkpt lat="41.9532080" lon="2.6403510">
        <ele>199.8</ele>
        <time>2020-07-31T08:22:34Z</time>
      </trkpt>
      <trkpt lat="41.9531130" lon="2.6404210">
        <ele>200.8</ele>
        <time>2020-07-31T08:22:36Z</time>
      </trkpt>
      <trkpt lat="41.9530660" lon="2.6404450">
        <ele>201.2</ele>
        <time>2020-07-31T08:22:37Z</time>
      </trkpt>
      <trkpt lat="41.9529380" lon="2.6404640">
        <ele>201.8</ele>
        <time>2020-07-31T08:22:40Z</time>
      </trkpt>
      <trkpt lat="41.9528430" lon="2.6404620">
        <ele>202.2</ele>
        <time>2020-07-31T08:22:42Z</time>
      </trkpt>
      <trkpt lat="41.9525750" lon="2.6404740">
        <ele>203.0</ele>
        <time>2020-07-31T08:22:47Z</time>
      </trkpt>
      <trkpt lat="41.9524540" lon="2.6404780">
        <ele>203.6</ele>
        <time>2020-07-31T08:22:49Z</time>
      </trkpt>
      <trkpt lat="41.9523350" lon="2.6404860">
        <ele>204.2</ele>
        <time>2020-07-31T08:22:51Z</time>
      </trkpt>
      <trkpt lat="41.9520210" lon="2.6404870">
        <ele>204.6</ele>
        <time>2020-07-31T08:22:56Z</time>
      </trkpt>
      <trkpt lat="41.9515250" lon="2.6404930">
        <ele>205.2</ele>
        <time>2020-07-31T08:23:04Z</time>
      </trkpt>
      <trkpt lat="41.9513510" lon="2.6404970">
        <ele>205.2</ele>
        <time>2020-07-31T08:23:07Z</time>
      </trkpt>
      <trkpt lat="41.9510950" lon="2.6405100">
        <ele>206.0</ele>
        <time>2020-07-31T08:23:12Z</time>
      </trkpt>
      <trkpt lat="41.9509600" lon="2.6405040">
        <ele>206.4</ele>
        <time>2020-07-31T08:23:15Z</time>
      </trkpt>
      <trkpt lat="41.9508200" lon="2.6405100">
        <ele>207.4</ele>
        <time>2020-07-31T08:23:18Z</time>
      </trkpt>
      <trkpt lat="41.9507750" lon="2.6405120">
        <ele>207.8</ele>
        <time>2020-07-31T08:23:19Z</time>
      </trkpt>
      <trkpt lat="41.9505900" lon="2.6405200">
        <ele>208.6</ele>
        <time>2020-07-31T08:23:23Z</time>
      </trkpt>
      <trkpt lat="41.9504470" lon="2.6405270">
        <ele>209.4</ele>
        <time>2020-07-31T08:23:26Z</time>
      </trkpt>
      <trkpt lat="41.9503990" lon="2.6405290">
        <ele>209.8</ele>
        <time>2020-07-31T08:23:27Z</time>
      </trkpt>
      <trkpt lat="41.9502680" lon="2.6405260">
        <ele>210.8</ele>
        <time>2020-07-31T08:23:30Z</time>
      </trkpt>
      <trkpt lat="41.9501740" lon="2.6404930">
        <ele>211.2</ele>
        <time>2020-07-31T08:23:32Z</time>
      </trkpt>
      <trkpt lat="41.9500810" lon="2.6404410">
        <ele>211.8</ele>
        <time>2020-07-31T08:23:34Z</time>
      </trkpt>
      <trkpt lat="41.9499850" lon="2.6404350">
        <ele>212.4</ele>
        <time>2020-07-31T08:23:36Z</time>
      </trkpt>
      <trkpt lat="41.9498510" lon="2.6405370">
        <ele>213.0</ele>
        <time>2020-07-31T08:23:39Z</time>
      </trkpt>
      <trkpt lat="41.9498060" lon="2.6405740">
        <ele>213.2</ele>
        <time>2020-07-31T08:23:40Z</time>
      </trkpt>
      <trkpt lat="41.9497000" lon="2.6406130">
        <ele>213.6</ele>
        <time>2020-07-31T08:23:42Z</time>
      </trkpt>
      <trkpt lat="41.9495360" lon="2.6406520">
        <ele>214.0</ele>
        <time>2020-07-31T08:23:45Z</time>
      </trkpt>
      <trkpt lat="41.9492700" lon="2.6407220">
        <ele>214.6</ele>
        <time>2020-07-31T08:23:50Z</time>
      </trkpt>
      <trkpt lat="41.9490550" lon="2.6407890">
        <ele>215.2</ele>
        <time>2020-07-31T08:23:54Z</time>
      </trkpt>
      <trkpt lat="41.9487860" lon="2.6408860">
        <ele>216.0</ele>
        <time>2020-07-31T08:23:59Z</time>
      </trkpt>
      <trkpt lat="41.9486790" lon="2.6409200">
        <ele>216.4</ele>
        <time>2020-07-31T08:24:01Z</time>
      </trkpt>
      <trkpt lat="41.9484310" lon="2.6410110">
        <ele>216.8</ele>
        <time>2020-07-31T08:24:06Z</time>
      </trkpt>
      <trkpt lat="41.9481580" lon="2.6411130">
        <ele>217.6</ele>
        <time>2020-07-31T08:24:12Z</time>
      </trkpt>
      <trkpt lat="41.9480570" lon="2.6411550">
        <ele>218.0</ele>
        <time>2020-07-31T08:24:14Z</time>
      </trkpt>
      <trkpt lat="41.9479090" lon="2.6412150">
        <ele>218.6</ele>
        <time>2020-07-31T08:24:17Z</time>
      </trkpt>
      <trkpt lat="41.9477070" lon="2.6413020">
        <ele>220.0</ele>
        <time>2020-07-31T08:24:21Z</time>
      </trkpt>
      <trkpt lat="41.9476060" lon="2.6413370">
        <ele>220.6</ele>
        <time>2020-07-31T08:24:23Z</time>
      </trkpt>
      <trkpt lat="41.9475600" lon="2.6413550">
        <ele>221.2</ele>
        <time>2020-07-31T08:24:24Z</time>
      </trkpt>
      <trkpt lat="41.9473700" lon="2.6414260">
        <ele>222.4</ele>
        <time>2020-07-31T08:24:28Z</time>
      </trkpt>
      <trkpt lat="41.9471750" lon="2.6415030">
        <ele>223.4</ele>
        <time>2020-07-31T08:24:32Z</time>
      </trkpt>
      <trkpt lat="41.9471260" lon="2.6415240">
        <ele>223.6</ele>
        <time>2020-07-31T08:24:33Z</time>
      </trkpt>
      <trkpt lat="41.9469320" lon="2.6415980">
        <ele>224.4</ele>
        <time>2020-07-31T08:24:37Z</time>
      </trkpt>
      <trkpt lat="41.9467590" lon="2.6416680">
        <ele>225.2</ele>
        <time>2020-07-31T08:24:41Z</time>
      </trkpt>
      <trkpt lat="41.9466660" lon="2.6417030">
        <ele>225.6</ele>
        <time>2020-07-31T08:24:43Z</time>
      </trkpt>
      <trkpt lat="41.9464370" lon="2.6417890">
        <ele>226.8</ele>
        <time>2020-07-31T08:24:48Z</time>
      </trkpt>
      <trkpt lat="41.9463440" lon="2.6418210">
        <ele>227.2</ele>
        <time>2020-07-31T08:24:50Z</time>
      </trkpt>
      <trkpt lat="41.9462460" lon="2.6418510">
        <ele>228.0</ele>
        <time>2020-07-31T08:24:52Z</time>
      </trkpt>
      <trkpt lat="41.9458820" lon="2.6419500">
        <ele>229.0</ele>
        <time>2020-07-31T08:24:59Z</time>
      </trkpt>
      <trkpt lat="41.9454620" lon="2.6420270">
        <ele>230.0</ele>
        <time>2020-07-31T08:25:07Z</time>
      </trkpt>
      <trkpt lat="41.9454100" lon="2.6420340">
        <ele>230.0</ele>
        <time>2020-07-31T08:25:08Z</time>
      </trkpt>
      <trkpt lat="41.9449430" lon="2.6420780">
        <ele>230.8</ele>
        <time>2020-07-31T08:25:17Z</time>
      </trkpt>
      <trkpt lat="41.9448920" lon="2.6420810">
        <ele>231.0</ele>
        <time>2020-07-31T08:25:18Z</time>
      </trkpt>
      <trkpt lat="41.9445420" lon="2.6421050">
        <ele>232.0</ele>
        <time>2020-07-31T08:25:25Z</time>
      </trkpt>
      <trkpt lat="41.9444860" lon="2.6421080">
        <ele>232.2</ele>
        <time>2020-07-31T08:25:26Z</time>
      </trkpt>
      <trkpt lat="41.9441090" lon="2.6421210">
        <ele>233.2</ele>
        <time>2020-07-31T08:25:33Z</time>
      </trkpt>
      <trkpt lat="41.9440570" lon="2.6421220">
        <ele>233.2</ele>
        <time>2020-07-31T08:25:34Z</time>
      </trkpt>
      <trkpt lat="41.9436500" lon="2.6421220">
        <ele>234.6</ele>
        <time>2020-07-31T08:25:42Z</time>
      </trkpt>
      <trkpt lat="41.9434570" lon="2.6421230">
        <ele>235.6</ele>
        <time>2020-07-31T08:25:46Z</time>
      </trkpt>
      <trkpt lat="41.9433610" lon="2.6421210">
        <ele>236.4</ele>
        <time>2020-07-31T08:25:48Z</time>
      </trkpt>
      <trkpt lat="41.9433110" lon="2.6421250">
        <ele>236.6</ele>
        <time>2020-07-31T08:25:49Z</time>
      </trkpt>
      <trkpt lat="41.9432640" lon="2.6421280">
        <ele>236.8</ele>
        <time>2020-07-31T08:25:50Z</time>
      </trkpt>
      <trkpt lat="41.9431220" lon="2.6421280">
        <ele>237.6</ele>
        <time>2020-07-31T08:25:53Z</time>
      </trkpt>
      <trkpt lat="41.9430740" lon="2.6421280">
        <ele>237.8</ele>
        <time>2020-07-31T08:25:54Z</time>
      </trkpt>
      <trkpt lat="41.9428290" lon="2.6421300">
        <ele>238.8</ele>
        <time>2020-07-31T08:25:59Z</time>
      </trkpt>
      <trkpt lat="41.9427810" lon="2.6421270">
        <ele>239.0</ele>
        <time>2020-07-31T08:26:00Z</time>
      </trkpt>
      <trkpt lat="41.9425510" lon="2.6421430">
        <ele>240.0</ele>
        <time>2020-07-31T08:26:04Z</time>
      </trkpt>
      <trkpt lat="41.9424420" lon="2.6421440">
        <ele>240.6</ele>
        <time>2020-07-31T08:26:06Z</time>
      </trkpt>
      <trkpt lat="41.9422830" lon="2.6421430">
        <ele>241.2</ele>
        <time>2020-07-31T08:26:09Z</time>
      </trkpt>
      <trkpt lat="41.9422340" lon="2.6421380">
        <ele>241.4</ele>
        <time>2020-07-31T08:26:10Z</time>
      </trkpt>
      <trkpt lat="41.9421330" lon="2.6421260">
        <ele>241.8</ele>
        <time>2020-07-31T08:26:12Z</time>
      </trkpt>
      <trkpt lat="41.9420380" lon="2.6421180">
        <ele>242.4</ele>
        <time>2020-07-31T08:26:14Z</time>
      </trkpt>
      <trkpt lat="41.9419930" lon="2.6421210">
        <ele>242.8</ele>
        <time>2020-07-31T08:26:15Z</time>
      </trkpt>
      <trkpt lat="41.9418510" lon="2.6421050">
        <ele>243.4</ele>
        <time>2020-07-31T08:26:18Z</time>
      </trkpt>
      <trkpt lat="41.9418060" lon="2.6421030">
        <ele>243.6</ele>
        <time>2020-07-31T08:26:19Z</time>
      </trkpt>
      <trkpt lat="41.9416030" lon="2.6421080">
        <ele>244.6</ele>
        <time>2020-07-31T08:26:23Z</time>
      </trkpt>
      <trkpt lat="41.9412230" lon="2.6420950">
        <ele>245.6</ele>
        <time>2020-07-31T08:26:30Z</time>
      </trkpt>
      <trkpt lat="41.9409790" lon="2.6420660">
        <ele>246.8</ele>
        <time>2020-07-31T08:26:35Z</time>
      </trkpt>
      <trkpt lat="41.9408370" lon="2.6420520">
        <ele>247.8</ele>
        <time>2020-07-31T08:26:38Z</time>
      </trkpt>
      <trkpt lat="41.9407510" lon="2.6420360">
        <ele>248.0</ele>
        <time>2020-07-31T08:26:40Z</time>
      </trkpt>
      <trkpt lat="41.9406160" lon="2.6420210">
        <ele>249.0</ele>
        <time>2020-07-31T08:26:43Z</time>
      </trkpt>
      <trkpt lat="41.9404480" lon="2.6419800">
        <ele>249.6</ele>
        <time>2020-07-31T08:26:47Z</time>
      </trkpt>
      <trkpt lat="41.9403570" lon="2.6419720">
        <ele>250.2</ele>
        <time>2020-07-31T08:26:49Z</time>
      </trkpt>
      <trkpt lat="41.9401420" lon="2.6419450">
        <ele>251.2</ele>
        <time>2020-07-31T08:26:54Z</time>
      </trkpt>
      <trkpt lat="41.9400260" lon="2.6419160">
        <ele>251.8</ele>
        <time>2020-07-31T08:26:57Z</time>
      </trkpt>
      <trkpt lat="41.9398830" lon="2.6419170">
        <ele>252.2</ele>
        <time>2020-07-31T08:27:00Z</time>
      </trkpt>
      <trkpt lat="41.9397380" lon="2.6419160">
        <ele>253.0</ele>
        <time>2020-07-31T08:27:03Z</time>
      </trkpt>
      <trkpt lat="41.9396570" lon="2.6419080">
        <ele>253.4</ele>
        <time>2020-07-31T08:27:05Z</time>
      </trkpt>
      <trkpt lat="41.9394650" lon="2.6418800">
        <ele>254.4</ele>
        <time>2020-07-31T08:27:10Z</time>
      </trkpt>
      <trkpt lat="41.9392710" lon="2.6418560">
        <ele>255.6</ele>
        <time>2020-07-31T08:27:15Z</time>
      </trkpt>
      <trkpt lat="41.9391850" lon="2.6418560">
        <ele>256.2</ele>
        <time>2020-07-31T08:27:17Z</time>
      </trkpt>
      <trkpt lat="41.9391010" lon="2.6418650">
        <ele>256.6</ele>
        <time>2020-07-31T08:27:19Z</time>
      </trkpt>
      <trkpt lat="41.9388260" lon="2.6419130">
        <ele>257.8</ele>
        <time>2020-07-31T08:27:25Z</time>
      </trkpt>
      <trkpt lat="41.9387740" lon="2.6419250">
        <ele>258.0</ele>
        <time>2020-07-31T08:27:26Z</time>
      </trkpt>
      <trkpt lat="41.9385060" lon="2.6419980">
        <ele>259.0</ele>
        <time>2020-07-31T08:27:31Z</time>
      </trkpt>
      <trkpt lat="41.9383390" lon="2.6420450">
        <ele>259.6</ele>
        <time>2020-07-31T08:27:34Z</time>
      </trkpt>
      <trkpt lat="41.9380600" lon="2.6421410">
        <ele>260.2</ele>
        <time>2020-07-31T08:27:39Z</time>
      </trkpt>
      <trkpt lat="41.9377890" lon="2.6422490">
        <ele>261.0</ele>
        <time>2020-07-31T08:27:44Z</time>
      </trkpt>
      <trkpt lat="41.9377340" lon="2.6422730">
        <ele>261.2</ele>
        <time>2020-07-31T08:27:45Z</time>
      </trkpt>
      <trkpt lat="41.9373050" lon="2.6424740">
        <ele>261.4</ele>
        <time>2020-07-31T08:27:53Z</time>
      </trkpt>
      <trkpt lat="41.9367570" lon="2.6427380">
        <ele>261.8</ele>
        <time>2020-07-31T08:28:03Z</time>
      </trkpt>
      <trkpt lat="41.9364940" lon="2.6428670">
        <ele>262.4</ele>
        <time>2020-07-31T08:28:08Z</time>
      </trkpt>
      <trkpt lat="41.9363430" lon="2.6429380">
        <ele>262.6</ele>
        <time>2020-07-31T08:28:11Z</time>
      </trkpt>
      <trkpt lat="41.9360440" lon="2.6430830">
        <ele>263.4</ele>
        <time>2020-07-31T08:28:17Z</time>
      </trkpt>
      <trkpt lat="41.9358920" lon="2.6431570">
        <ele>264.0</ele>
        <time>2020-07-31T08:28:20Z</time>
      </trkpt>
      <trkpt lat="41.9357930" lon="2.6432070">
        <ele>264.6</ele>
        <time>2020-07-31T08:28:22Z</time>
      </trkpt>
      <trkpt lat="41.9355470" lon="2.6433320">
        <ele>265.8</ele>
        <time>2020-07-31T08:28:27Z</time>
      </trkpt>
      <trkpt lat="41.9353040" lon="2.6434530">
        <ele>266.6</ele>
        <time>2020-07-31T08:28:32Z</time>
      </trkpt>
      <trkpt lat="41.9352070" lon="2.6435010">
        <ele>267.0</ele>
        <time>2020-07-31T08:28:34Z</time>
      </trkpt>
      <trkpt lat="41.9349590" lon="2.6436200">
        <ele>268.0</ele>
        <time>2020-07-31T08:28:39Z</time>
      </trkpt>
      <trkpt lat="41.9346320" lon="2.6437780">
        <ele>269.6</ele>
        <time>2020-07-31T08:28:46Z</time>
      </trkpt>
      <trkpt lat="41.9344540" lon="2.6438620">
        <ele>270.2</ele>
        <time>2020-07-31T08:28:50Z</time>
      </trkpt>
      <trkpt lat="41.9343210" lon="2.6439290">
        <ele>270.6</ele>
        <time>2020-07-31T08:28:53Z</time>
      </trkpt>
      <trkpt lat="41.9341480" lon="2.6440190">
        <ele>271.6</ele>
        <time>2020-07-31T08:28:57Z</time>
      </trkpt>
      <trkpt lat="41.9340590" lon="2.6440690">
        <ele>272.0</ele>
        <time>2020-07-31T08:28:59Z</time>
      </trkpt>
      <trkpt lat="41.9339270" lon="2.6441450">
        <ele>272.8</ele>
        <time>2020-07-31T08:29:02Z</time>
      </trkpt>
      <trkpt lat="41.9336160" lon="2.6443450">
        <ele>273.2</ele>
        <time>2020-07-31T08:29:09Z</time>
      </trkpt>
      <trkpt lat="41.9332320" lon="2.6446300">
        <ele>273.8</ele>
        <time>2020-07-31T08:29:17Z</time>
      </trkpt>
      <trkpt lat="41.9328070" lon="2.6450330">
        <ele>274.0</ele>
        <time>2020-07-31T08:29:25Z</time>
      </trkpt>
      <trkpt lat="41.9324480" lon="2.6454360">
        <ele>273.6</ele>
        <time>2020-07-31T08:29:31Z</time>
      </trkpt>
      <trkpt lat="41.9321140" lon="2.6458610">
        <ele>272.6</ele>
        <time>2020-07-31T08:29:36Z</time>
      </trkpt>
      <trkpt lat="41.9320440" lon="2.6459540">
        <ele>272.2</ele>
        <time>2020-07-31T08:29:37Z</time>
      </trkpt>
      <trkpt lat="41.9319000" lon="2.6461470">
        <ele>271.2</ele>
        <time>2020-07-31T08:29:39Z</time>
      </trkpt>
      <trkpt lat="41.9316780" lon="2.6464610">
        <ele>270.0</ele>
        <time>2020-07-31T08:29:42Z</time>
      </trkpt>
      <trkpt lat="41.9315220" lon="2.6466820">
        <ele>268.8</ele>
        <time>2020-07-31T08:29:44Z</time>
      </trkpt>
      <trkpt lat="41.9313550" lon="2.6469040">
        <ele>267.4</ele>
        <time>2020-07-31T08:29:46Z</time>
      </trkpt>
      <trkpt lat="41.9311830" lon="2.6471290">
        <ele>266.0</ele>
        <time>2020-07-31T08:29:48Z</time>
      </trkpt>
      <trkpt lat="41.9311000" lon="2.6472400">
        <ele>265.4</ele>
        <time>2020-07-31T08:29:49Z</time>
      </trkpt>
      <trkpt lat="41.9310180" lon="2.6473570">
        <ele>264.8</ele>
        <time>2020-07-31T08:29:50Z</time>
      </trkpt>
      <trkpt lat="41.9308530" lon="2.6475890">
        <ele>262.8</ele>
        <time>2020-07-31T08:29:52Z</time>
      </trkpt>
      <trkpt lat="41.9306950" lon="2.6478120">
        <ele>261.4</ele>
        <time>2020-07-31T08:29:54Z</time>
      </trkpt>
      <trkpt lat="41.9306170" lon="2.6479150">
        <ele>261.0</ele>
        <time>2020-07-31T08:29:55Z</time>
      </trkpt>
      <trkpt lat="41.9302070" lon="2.6484700">
        <ele>260.6</ele>
        <time>2020-07-31T08:30:01Z</time>
      </trkpt>
      <trkpt lat="41.9298510" lon="2.6489060">
        <ele>261.2</ele>
        <time>2020-07-31T08:30:07Z</time>
      </trkpt>
      <trkpt lat="41.9296380" lon="2.6491320">
        <ele>263.0</ele>
        <time>2020-07-31T08:30:11Z</time>
      </trkpt>
      <trkpt lat="41.9294870" lon="2.6492790">
        <ele>264.2</ele>
        <time>2020-07-31T08:30:14Z</time>
      </trkpt>
      <trkpt lat="41.9293900" lon="2.6493640">
        <ele>265.2</ele>
        <time>2020-07-31T08:30:16Z</time>
      </trkpt>
      <trkpt lat="41.9292970" lon="2.6494440">
        <ele>266.2</ele>
        <time>2020-07-31T08:30:18Z</time>
      </trkpt>
      <trkpt lat="41.9291610" lon="2.6495560">
        <ele>267.6</ele>
        <time>2020-07-31T08:30:21Z</time>
      </trkpt>
      <trkpt lat="41.9290300" lon="2.6496610">
        <ele>268.8</ele>
        <time>2020-07-31T08:30:24Z</time>
      </trkpt>
      <trkpt lat="41.9289030" lon="2.6497580">
        <ele>269.8</ele>
        <time>2020-07-31T08:30:27Z</time>
      </trkpt>
      <trkpt lat="41.9288190" lon="2.6498200">
        <ele>271.0</ele>
        <time>2020-07-31T08:30:29Z</time>
      </trkpt>
      <trkpt lat="41.9286940" lon="2.6499090">
        <ele>272.0</ele>
        <time>2020-07-31T08:30:32Z</time>
      </trkpt>
      <trkpt lat="41.9284770" lon="2.6500590">
        <ele>273.2</ele>
        <time>2020-07-31T08:30:37Z</time>
      </trkpt>
      <trkpt lat="41.9284340" lon="2.6500910">
        <ele>273.2</ele>
        <time>2020-07-31T08:30:38Z</time>
      </trkpt>
      <trkpt lat="41.9281560" lon="2.6502820">
        <ele>274.2</ele>
        <time>2020-07-31T08:30:44Z</time>
      </trkpt>
      <trkpt lat="41.9280130" lon="2.6503760">
        <ele>275.0</ele>
        <time>2020-07-31T08:30:47Z</time>
      </trkpt>
      <trkpt lat="41.9279180" lon="2.6504430">
        <ele>275.2</ele>
        <time>2020-07-31T08:30:49Z</time>
      </trkpt>
      <trkpt lat="41.9275510" lon="2.6506920">
        <ele>275.8</ele>
        <time>2020-07-31T08:30:56Z</time>
      </trkpt>
      <trkpt lat="41.9270120" lon="2.6510380">
        <ele>276.0</ele>
        <time>2020-07-31T08:31:05Z</time>
      </trkpt>
      <trkpt lat="41.9265950" lon="2.6512420">
        <ele>276.4</ele>
        <time>2020-07-31T08:31:12Z</time>
      </trkpt>
      <trkpt lat="41.9264810" lon="2.6512890">
        <ele>276.6</ele>
        <time>2020-07-31T08:31:14Z</time>
      </trkpt>
      <trkpt lat="41.9261940" lon="2.6513720">
        <ele>277.6</ele>
        <time>2020-07-31T08:31:19Z</time>
      </trkpt>
      <trkpt lat="41.9259850" lon="2.6514230">
        <ele>278.6</ele>
        <time>2020-07-31T08:31:23Z</time>
      </trkpt>
      <trkpt lat="41.9258390" lon="2.6514470">
        <ele>279.2</ele>
        <time>2020-07-31T08:31:26Z</time>
      </trkpt>
      <trkpt lat="41.9257000" lon="2.6514710">
        <ele>279.8</ele>
        <time>2020-07-31T08:31:29Z</time>
      </trkpt>
      <trkpt lat="41.9255690" lon="2.6514930">
        <ele>281.4</ele>
        <time>2020-07-31T08:31:32Z</time>
      </trkpt>
      <trkpt lat="41.9254840" lon="2.6515030">
        <ele>282.2</ele>
        <time>2020-07-31T08:31:34Z</time>
      </trkpt>
      <trkpt lat="41.9254410" lon="2.6515090">
        <ele>282.6</ele>
        <time>2020-07-31T08:31:35Z</time>
      </trkpt>
      <trkpt lat="41.9252310" lon="2.6515350">
        <ele>283.6</ele>
        <time>2020-07-31T08:31:40Z</time>
      </trkpt>
      <trkpt lat="41.9250670" lon="2.6515580">
        <ele>284.8</ele>
        <time>2020-07-31T08:31:44Z</time>
      </trkpt>
      <trkpt lat="41.9249060" lon="2.6515760">
        <ele>285.8</ele>
        <time>2020-07-31T08:31:48Z</time>
      </trkpt>
      <trkpt lat="41.9247460" lon="2.6515930">
        <ele>287.0</ele>
        <time>2020-07-31T08:31:52Z</time>
      </trkpt>
      <trkpt lat="41.9247070" lon="2.6515980">
        <ele>287.2</ele>
        <time>2020-07-31T08:31:53Z</time>
      </trkpt>
      <trkpt lat="41.9245180" lon="2.6516190">
        <ele>288.2</ele>
        <time>2020-07-31T08:31:58Z</time>
      </trkpt>
      <trkpt lat="41.9243680" lon="2.6516260">
        <ele>289.2</ele>
        <time>2020-07-31T08:32:02Z</time>
      </trkpt>
      <trkpt lat="41.9243300" lon="2.6516270">
        <ele>289.4</ele>
        <time>2020-07-31T08:32:03Z</time>
      </trkpt>
      <trkpt lat="41.9241310" lon="2.6516330">
        <ele>290.4</ele>
        <time>2020-07-31T08:32:08Z</time>
      </trkpt>
      <trkpt lat="41.9240130" lon="2.6516230">
        <ele>291.4</ele>
        <time>2020-07-31T08:32:11Z</time>
      </trkpt>
      <trkpt lat="41.9239340" lon="2.6516130">
        <ele>291.8</ele>
        <time>2020-07-31T08:32:13Z</time>
      </trkpt>
      <trkpt lat="41.9237400" lon="2.6515730">
        <ele>293.0</ele>
        <time>2020-07-31T08:32:18Z</time>
      </trkpt>
      <trkpt lat="41.9237010" lon="2.6515630">
        <ele>293.2</ele>
        <time>2020-07-31T08:32:19Z</time>
      </trkpt>
      <trkpt lat="41.9235840" lon="2.6515320">
        <ele>294.2</ele>
        <time>2020-07-31T08:32:22Z</time>
      </trkpt>
      <trkpt lat="41.9233550" lon="2.6514480">
        <ele>295.2</ele>
        <time>2020-07-31T08:32:28Z</time>
      </trkpt>
      <trkpt lat="41.9233170" lon="2.6514310">
        <ele>295.6</ele>
        <time>2020-07-31T08:32:29Z</time>
      </trkpt>
      <trkpt lat="41.9231690" lon="2.6513550">
        <ele>296.6</ele>
        <time>2020-07-31T08:32:33Z</time>
      </trkpt>
      <trkpt lat="41.9230260" lon="2.6512830">
        <ele>297.8</ele>
        <time>2020-07-31T08:32:37Z</time>
      </trkpt>
      <trkpt lat="41.9228000" lon="2.6511460">
        <ele>298.6</ele>
        <time>2020-07-31T08:32:43Z</time>
      </trkpt>
      <trkpt lat="41.9227590" lon="2.6511220">
        <ele>298.8</ele>
        <time>2020-07-31T08:32:44Z</time>
      </trkpt>
      <trkpt lat="41.9226750" lon="2.6510720">
        <ele>299.2</ele>
        <time>2020-07-31T08:32:46Z</time>
      </trkpt>
      <trkpt lat="41.9225910" lon="2.6510170">
        <ele>299.8</ele>
        <time>2020-07-31T08:32:48Z</time>
      </trkpt>
      <trkpt lat="41.9224070" lon="2.6509400">
        <ele>300.8</ele>
        <time>2020-07-31T08:32:52Z</time>
      </trkpt>
      <trkpt lat="41.9223600" lon="2.6509230">
        <ele>301.0</ele>
        <time>2020-07-31T08:32:53Z</time>
      </trkpt>
      <trkpt lat="41.9220180" lon="2.6508420">
        <ele>301.6</ele>
        <time>2020-07-31T08:33:00Z</time>
      </trkpt>
      <trkpt lat="41.9219210" lon="2.6508310">
        <ele>302.0</ele>
        <time>2020-07-31T08:33:02Z</time>
      </trkpt>
      <trkpt lat="41.9217710" lon="2.6508180">
        <ele>302.6</ele>
        <time>2020-07-31T08:33:05Z</time>
      </trkpt>
      <trkpt lat="41.9216710" lon="2.6508210">
        <ele>302.8</ele>
        <time>2020-07-31T08:33:07Z</time>
      </trkpt>
      <trkpt lat="41.9214230" lon="2.6508680">
        <ele>303.0</ele>
        <time>2020-07-31T08:33:12Z</time>
      </trkpt>
      <trkpt lat="41.9213220" lon="2.6508990">
        <ele>303.4</ele>
        <time>2020-07-31T08:33:14Z</time>
      </trkpt>
      <trkpt lat="41.9209350" lon="2.6510960">
        <ele>304.2</ele>
        <time>2020-07-31T08:33:22Z</time>
      </trkpt>
      <trkpt lat="41.9205730" lon="2.6513590">
        <ele>304.8</ele>
        <time>2020-07-31T08:33:30Z</time>
      </trkpt>
      <trkpt lat="41.9203910" lon="2.6515170">
        <ele>305.2</ele>
        <time>2020-07-31T08:33:34Z</time>
      </trkpt>
      <trkpt lat="41.9201210" lon="2.6517750">
        <ele>305.8</ele>
        <time>2020-07-31T08:33:40Z</time>
      </trkpt>
      <trkpt lat="41.9199150" lon="2.6520100">
        <ele>306.4</ele>
        <time>2020-07-31T08:33:45Z</time>
      </trkpt>
      <trkpt lat="41.9197870" lon="2.6521590">
        <ele>306.8</ele>
        <time>2020-07-31T08:33:48Z</time>
      </trkpt>
      <trkpt lat="41.9195230" lon="2.6525050">
        <ele>307.4</ele>
        <time>2020-07-31T08:33:54Z</time>
      </trkpt>
      <trkpt lat="41.9194330" lon="2.6526370">
        <ele>307.4</ele>
        <time>2020-07-31T08:33:56Z</time>
      </trkpt>
      <trkpt lat="41.9191470" lon="2.6531110">
        <ele>307.4</ele>
        <time>2020-07-31T08:34:02Z</time>
      </trkpt>
      <trkpt lat="41.9188130" lon="2.6537120">
        <ele>306.6</ele>
        <time>2020-07-31T08:34:08Z</time>
      </trkpt>
      <trkpt lat="41.9187520" lon="2.6538240">
        <ele>306.4</ele>
        <time>2020-07-31T08:34:09Z</time>
      </trkpt>
      <trkpt lat="41.9186260" lon="2.6540550">
        <ele>305.4</ele>
        <time>2020-07-31T08:34:11Z</time>
      </trkpt>
      <trkpt lat="41.9185590" lon="2.6541730">
        <ele>304.0</ele>
        <time>2020-07-31T08:34:12Z</time>
      </trkpt>
      <trkpt lat="41.9184190" lon="2.6544110">
        <ele>302.2</ele>
        <time>2020-07-31T08:34:14Z</time>
      </trkpt>
      <trkpt lat="41.9183440" lon="2.6545320">
        <ele>301.2</ele>
        <time>2020-07-31T08:34:15Z</time>
      </trkpt>
      <trkpt lat="41.9181010" lon="2.6548880">
        <ele>299.6</ele>
        <time>2020-07-31T08:34:18Z</time>
      </trkpt>
      <trkpt lat="41.9180140" lon="2.6550000">
        <ele>298.8</ele>
        <time>2020-07-31T08:34:19Z</time>
      </trkpt>
      <trkpt lat="41.9179240" lon="2.6551080">
        <ele>298.2</ele>
        <time>2020-07-31T08:34:20Z</time>
      </trkpt>
      <trkpt lat="41.9177420" lon="2.6553050">
        <ele>296.6</ele>
        <time>2020-07-31T08:34:22Z</time>
      </trkpt>
      <trkpt lat="41.9175520" lon="2.6554850">
        <ele>295.2</ele>
        <time>2020-07-31T08:34:24Z</time>
      </trkpt>
      <trkpt lat="41.9174550" lon="2.6555700">
        <ele>293.4</ele>
        <time>2020-07-31T08:34:25Z</time>
      </trkpt>
      <trkpt lat="41.9173580" lon="2.6556510">
        <ele>292.0</ele>
        <time>2020-07-31T08:34:26Z</time>
      </trkpt>
      <trkpt lat="41.9171630" lon="2.6558040">
        <ele>290.8</ele>
        <time>2020-07-31T08:34:28Z</time>
      </trkpt>
      <trkpt lat="41.9168730" lon="2.6560240">
        <ele>289.8</ele>
        <time>2020-07-31T08:34:31Z</time>
      </trkpt>
      <trkpt lat="41.9167780" lon="2.6560960">
        <ele>289.6</ele>
        <time>2020-07-31T08:34:32Z</time>
      </trkpt>
      <trkpt lat="41.9163060" lon="2.6564580">
        <ele>288.2</ele>
        <time>2020-07-31T08:34:37Z</time>
      </trkpt>
      <trkpt lat="41.9159310" lon="2.6567410">
        <ele>287.2</ele>
        <time>2020-07-31T08:34:41Z</time>
      </trkpt>
      <trkpt lat="41.9156480" lon="2.6569530">
        <ele>286.0</ele>
        <time>2020-07-31T08:34:44Z</time>
      </trkpt>
      <trkpt lat="41.9150880" lon="2.6573820">
        <ele>285.0</ele>
        <time>2020-07-31T08:34:50Z</time>
      </trkpt>
      <trkpt lat="41.9149950" lon="2.6574540">
        <ele>284.6</ele>
        <time>2020-07-31T08:34:51Z</time>
      </trkpt>
      <trkpt lat="41.9148100" lon="2.6575950">
        <ele>283.8</ele>
        <time>2020-07-31T08:34:53Z</time>
      </trkpt>
      <trkpt lat="41.9145320" lon="2.6578040">
        <ele>282.2</ele>
        <time>2020-07-31T08:34:56Z</time>
      </trkpt>
      <trkpt lat="41.9143480" lon="2.6579450">
        <ele>281.2</ele>
        <time>2020-07-31T08:34:58Z</time>
      </trkpt>
      <trkpt lat="41.9140680" lon="2.6581570">
        <ele>279.8</ele>
        <time>2020-07-31T08:35:01Z</time>
      </trkpt>
      <trkpt lat="41.9138770" lon="2.6583020">
        <ele>278.8</ele>
        <time>2020-07-31T08:35:03Z</time>
      </trkpt>
      <trkpt lat="41.9136830" lon="2.6584480">
        <ele>277.4</ele>
        <time>2020-07-31T08:35:05Z</time>
      </trkpt>
      <trkpt lat="41.9133930" lon="2.6586710">
        <ele>276.4</ele>
        <time>2020-07-31T08:35:08Z</time>
      </trkpt>
      <trkpt lat="41.9132970" lon="2.6587440">
        <ele>276.2</ele>
        <time>2020-07-31T08:35:09Z</time>
      </trkpt>
      <trkpt lat="41.9130100" lon="2.6589590">
        <ele>275.0</ele>
        <time>2020-07-31T08:35:12Z</time>
      </trkpt>
      <trkpt lat="41.9128220" lon="2.6591010">
        <ele>273.4</ele>
        <time>2020-07-31T08:35:14Z</time>
      </trkpt>
      <trkpt lat="41.9126310" lon="2.6592370">
        <ele>272.4</ele>
        <time>2020-07-31T08:35:16Z</time>
      </trkpt>
      <trkpt lat="41.9124350" lon="2.6593600">
        <ele>271.6</ele>
        <time>2020-07-31T08:35:18Z</time>
      </trkpt>
      <trkpt lat="41.9123340" lon="2.6594150">
        <ele>271.4</ele>
        <time>2020-07-31T08:35:19Z</time>
      </trkpt>
      <trkpt lat="41.9119160" lon="2.6595830">
        <ele>270.8</ele>
        <time>2020-07-31T08:35:23Z</time>
      </trkpt>
      <trkpt lat="41.9116930" lon="2.6596380">
        <ele>270.4</ele>
        <time>2020-07-31T08:35:25Z</time>
      </trkpt>
      <trkpt lat="41.9113420" lon="2.6596690">
        <ele>269.2</ele>
        <time>2020-07-31T08:35:28Z</time>
      </trkpt>
      <trkpt lat="41.9108600" lon="2.6596190">
        <ele>267.6</ele>
        <time>2020-07-31T08:35:32Z</time>
      </trkpt>
      <trkpt lat="41.9107370" lon="2.6595920">
        <ele>267.2</ele>
        <time>2020-07-31T08:35:33Z</time>
      </trkpt>
      <trkpt lat="41.9106150" lon="2.6595630">
        <ele>266.4</ele>
        <time>2020-07-31T08:35:34Z</time>
      </trkpt>
      <trkpt lat="41.9103660" lon="2.6595020">
        <ele>263.4</ele>
        <time>2020-07-31T08:35:36Z</time>
      </trkpt>
      <trkpt lat="41.9101160" lon="2.6594560">
        <ele>262.0</ele>
        <time>2020-07-31T08:35:38Z</time>
      </trkpt>
      <trkpt lat="41.9099920" lon="2.6594420">
        <ele>261.2</ele>
        <time>2020-07-31T08:35:39Z</time>
      </trkpt>
      <trkpt lat="41.9098710" lon="2.6594340">
        <ele>260.8</ele>
        <time>2020-07-31T08:35:40Z</time>
      </trkpt>
      <trkpt lat="41.9096370" lon="2.6594450">
        <ele>259.4</ele>
        <time>2020-07-31T08:35:42Z</time>
      </trkpt>
      <trkpt lat="41.9095250" lon="2.6594630">
        <ele>258.8</ele>
        <time>2020-07-31T08:35:43Z</time>
      </trkpt>
      <trkpt lat="41.9094170" lon="2.6594880">
        <ele>258.0</ele>
        <time>2020-07-31T08:35:44Z</time>
      </trkpt>
      <trkpt lat="41.9091190" lon="2.6596030">
        <ele>257.0</ele>
        <time>2020-07-31T08:35:47Z</time>
      </trkpt>
      <trkpt lat="41.9087830" lon="2.6598520">
        <ele>256.8</ele>
        <time>2020-07-31T08:35:51Z</time>
      </trkpt>
      <trkpt lat="41.9083630" lon="2.6603090">
        <ele>257.4</ele>
        <time>2020-07-31T08:35:57Z</time>
      </trkpt>
      <trkpt lat="41.9082940" lon="2.6603850">
        <ele>257.6</ele>
        <time>2020-07-31T08:35:58Z</time>
      </trkpt>
      <trkpt lat="41.9078230" lon="2.6609120">
        <ele>258.0</ele>
        <time>2020-07-31T08:36:05Z</time>
      </trkpt>
      <trkpt lat="41.9076190" lon="2.6611330">
        <ele>258.0</ele>
        <time>2020-07-31T08:36:08Z</time>
      </trkpt>
      <trkpt lat="41.9071990" lon="2.6615980">
        <ele>258.0</ele>
        <time>2020-07-31T08:36:14Z</time>
      </trkpt>
      <trkpt lat="41.9070420" lon="2.6617560">
        <ele>257.8</ele>
        <time>2020-07-31T08:36:16Z</time>
      </trkpt>
      <trkpt lat="41.9065980" lon="2.6621290">
        <ele>257.0</ele>
        <time>2020-07-31T08:36:21Z</time>
      </trkpt>
      <trkpt lat="41.9065170" lon="2.6621840">
        <ele>256.6</ele>
        <time>2020-07-31T08:36:22Z</time>
      </trkpt>
      <trkpt lat="41.9062830" lon="2.6623180">
        <ele>256.2</ele>
        <time>2020-07-31T08:36:25Z</time>
      </trkpt>
      <trkpt lat="41.9061080" lon="2.6624080">
        <ele>255.4</ele>
        <time>2020-07-31T08:36:27Z</time>
      </trkpt>
      <trkpt lat="41.9058290" lon="2.6625190">
        <ele>254.2</ele>
        <time>2020-07-31T08:36:30Z</time>
      </trkpt>
      <trkpt lat="41.9055390" lon="2.6625880">
        <ele>252.8</ele>
        <time>2020-07-31T08:36:33Z</time>
      </trkpt>
      <trkpt lat="41.9052470" lon="2.6626350">
        <ele>252.0</ele>
        <time>2020-07-31T08:36:36Z</time>
      </trkpt>
      <trkpt lat="41.9050510" lon="2.6626440">
        <ele>251.6</ele>
        <time>2020-07-31T08:36:38Z</time>
      </trkpt>
      <trkpt lat="41.9045800" lon="2.6626070">
        <ele>251.2</ele>
        <time>2020-07-31T08:36:43Z</time>
      </trkpt>
      <trkpt lat="41.9040520" lon="2.6624270">
        <ele>251.0</ele>
        <time>2020-07-31T08:36:49Z</time>
      </trkpt>
      <trkpt lat="41.9039700" lon="2.6623840">
        <ele>251.0</ele>
        <time>2020-07-31T08:36:50Z</time>
      </trkpt>
      <trkpt lat="41.9034050" lon="2.6620700">
        <ele>251.2</ele>
        <time>2020-07-31T08:36:57Z</time>
      </trkpt>
      <trkpt lat="41.9033280" lon="2.6620250">
        <ele>251.4</ele>
        <time>2020-07-31T08:36:58Z</time>
      </trkpt>
      <trkpt lat="41.9030310" lon="2.6618470">
        <ele>252.8</ele>
        <time>2020-07-31T08:37:02Z</time>
      </trkpt>
      <trkpt lat="41.9027480" lon="2.6616740">
        <ele>253.8</ele>
        <time>2020-07-31T08:37:06Z</time>
      </trkpt>
      <trkpt lat="41.9026800" lon="2.6616310">
        <ele>254.0</ele>
        <time>2020-07-31T08:37:07Z</time>
      </trkpt>
      <trkpt lat="41.9022960" lon="2.6613900">
        <ele>254.4</ele>
        <time>2020-07-31T08:37:13Z</time>
      </trkpt>
      <trkpt lat="41.9019070" lon="2.6611460">
        <ele>255.2</ele>
        <time>2020-07-31T08:37:20Z</time>
      </trkpt>
      <trkpt lat="41.9017080" lon="2.6610260">
        <ele>256.4</ele>
        <time>2020-07-31T08:37:24Z</time>
      </trkpt>
      <trkpt lat="41.9015330" lon="2.6609150">
        <ele>257.6</ele>
        <time>2020-07-31T08:37:28Z</time>
      </trkpt>
      <trkpt lat="41.9014100" lon="2.6608410">
        <ele>258.6</ele>
        <time>2020-07-31T08:37:31Z</time>
      </trkpt>
      <trkpt lat="41.9012950" lon="2.6607650">
        <ele>259.8</ele>
        <time>2020-07-31T08:37:34Z</time>
      </trkpt>
      <trkpt lat="41.9011830" lon="2.6606930">
        <ele>260.8</ele>
        <time>2020-07-31T08:37:37Z</time>
      </trkpt>
      <trkpt lat="41.9011470" lon="2.6606680">
        <ele>261.0</ele>
        <time>2020-07-31T08:37:38Z</time>
      </trkpt>
      <trkpt lat="41.9010020" lon="2.6605770">
        <ele>262.2</ele>
        <time>2020-07-31T08:37:42Z</time>
      </trkpt>
      <trkpt lat="41.9008980" lon="2.6605060">
        <ele>263.2</ele>
        <time>2020-07-31T08:37:45Z</time>
      </trkpt>
      <trkpt lat="41.9008640" lon="2.6604830">
        <ele>263.6</ele>
        <time>2020-07-31T08:37:46Z</time>
      </trkpt>
      <trkpt lat="41.9007230" lon="2.6603880">
        <ele>264.4</ele>
        <time>2020-07-31T08:37:50Z</time>
      </trkpt>
      <trkpt lat="41.9005100" lon="2.6602260">
        <ele>265.6</ele>
        <time>2020-07-31T08:37:56Z</time>
      </trkpt>
      <trkpt lat="41.9004070" lon="2.6601360">
        <ele>266.6</ele>
        <time>2020-07-31T08:37:59Z</time>
      </trkpt>
      <trkpt lat="41.9002360" lon="2.6599830">
        <ele>267.8</ele>
        <time>2020-07-31T08:38:04Z</time>
      </trkpt>
      <trkpt lat="41.9001330" lon="2.6598890">
        <ele>268.6</ele>
        <time>2020-07-31T08:38:07Z</time>
      </trkpt>
      <trkpt lat="41.9001000" lon="2.6598590">
        <ele>269.0</ele>
        <time>2020-07-31T08:38:08Z</time>
      </trkpt>
      <trkpt lat="41.8999760" lon="2.6597350">
        <ele>270.0</ele>
        <time>2020-07-31T08:38:12Z</time>
      </trkpt>
      <trkpt lat="41.8999180" lon="2.6596760">
        <ele>270.6</ele>
        <time>2020-07-31T08:38:14Z</time>
      </trkpt>
      <trkpt lat="41.8998580" lon="2.6596110">
        <ele>271.2</ele>
        <time>2020-07-31T08:38:16Z</time>
      </trkpt>
      <trkpt lat="41.8997410" lon="2.6594790">
        <ele>272.2</ele>
        <time>2020-07-31T08:38:20Z</time>
      </trkpt>
      <trkpt lat="41.8996160" lon="2.6593570">
        <ele>273.6</ele>
        <time>2020-07-31T08:38:24Z</time>
      </trkpt>
      <trkpt lat="41.8995840" lon="2.6593270">
        <ele>274.0</ele>
        <time>2020-07-31T08:38:25Z</time>
      </trkpt>
      <trkpt lat="41.8994890" lon="2.6592310">
        <ele>274.8</ele>
        <time>2020-07-31T08:38:28Z</time>
      </trkpt>
      <trkpt lat="41.8993650" lon="2.6590980">
        <ele>276.0</ele>
        <time>2020-07-31T08:38:32Z</time>
      </trkpt>
      <trkpt lat="41.8993330" lon="2.6590630">
        <ele>276.2</ele>
        <time>2020-07-31T08:38:33Z</time>
      </trkpt>
      <trkpt lat="41.8992030" lon="2.6589340">
        <ele>277.2</ele>
        <time>2020-07-31T08:38:37Z</time>
      </trkpt>
      <trkpt lat="41.8990880" lon="2.6587960">
        <ele>278.0</ele>
        <time>2020-07-31T08:38:41Z</time>
      </trkpt>
      <trkpt lat="41.8989970" lon="2.6586840">
        <ele>278.4</ele>
        <time>2020-07-31T08:38:44Z</time>
      </trkpt>
      <trkpt lat="41.8988920" lon="2.6585750">
        <ele>279.0</ele>
        <time>2020-07-31T08:38:47Z</time>
      </trkpt>
      <trkpt lat="41.8987800" lon="2.6584460">
        <ele>279.6</ele>
        <time>2020-07-31T08:38:50Z</time>
      </trkpt>
      <trkpt lat="41.8985770" lon="2.6581510">
        <ele>280.8</ele>
        <time>2020-07-31T08:38:56Z</time>
      </trkpt>
      <trkpt lat="41.8985450" lon="2.6581000">
        <ele>281.0</ele>
        <time>2020-07-31T08:38:57Z</time>
      </trkpt>
      <trkpt lat="41.8983560" lon="2.6577870">
        <ele>282.0</ele>
        <time>2020-07-31T08:39:03Z</time>
      </trkpt>
      <trkpt lat="41.8982720" lon="2.6576230">
        <ele>282.4</ele>
        <time>2020-07-31T08:39:06Z</time>
      </trkpt>
      <trkpt lat="41.8981180" lon="2.6572960">
        <ele>283.0</ele>
        <time>2020-07-31T08:39:12Z</time>
      </trkpt>
      <trkpt lat="41.8980250" lon="2.6570840">
        <ele>283.6</ele>
        <time>2020-07-31T08:39:16Z</time>
      </trkpt>
      <trkpt lat="41.8979520" lon="2.6569300">
        <ele>284.2</ele>
        <time>2020-07-31T08:39:19Z</time>
      </trkpt>
      <trkpt lat="41.8978390" lon="2.6566770">
        <ele>285.4</ele>
        <time>2020-07-31T08:39:24Z</time>
      </trkpt>
      <trkpt lat="41.8977940" lon="2.6565790">
        <ele>286.0</ele>
        <time>2020-07-31T08:39:26Z</time>
      </trkpt>
      <trkpt lat="41.8977260" lon="2.6564370">
        <ele>286.8</ele>
        <time>2020-07-31T08:39:29Z</time>
      </trkpt>
      <trkpt lat="41.8976400" lon="2.6562390">
        <ele>287.8</ele>
        <time>2020-07-31T08:39:33Z</time>
      </trkpt>
      <trkpt lat="41.8975450" lon="2.6560500">
        <ele>288.6</ele>
        <time>2020-07-31T08:39:37Z</time>
      </trkpt>
      <trkpt lat="41.8975210" lon="2.6560030">
        <ele>289.0</ele>
        <time>2020-07-31T08:39:38Z</time>
      </trkpt>
      <trkpt lat="41.8974290" lon="2.6558160">
        <ele>290.0</ele>
        <time>2020-07-31T08:39:42Z</time>
      </trkpt>
      <trkpt lat="41.8973300" lon="2.6556390">
        <ele>291.0</ele>
        <time>2020-07-31T08:39:46Z</time>
      </trkpt>
      <trkpt lat="41.8972770" lon="2.6555500">
        <ele>291.6</ele>
        <time>2020-07-31T08:39:48Z</time>
      </trkpt>
      <trkpt lat="41.8972270" lon="2.6554660">
        <ele>292.4</ele>
        <time>2020-07-31T08:39:50Z</time>
      </trkpt>
      <trkpt lat="41.8971480" lon="2.6553350">
        <ele>293.6</ele>
        <time>2020-07-31T08:39:53Z</time>
      </trkpt>
      <trkpt lat="41.8970600" lon="2.6551910">
        <ele>294.4</ele>
        <time>2020-07-31T08:39:56Z</time>
      </trkpt>
      <trkpt lat="41.8970260" lon="2.6551440">
        <ele>294.6</ele>
        <time>2020-07-31T08:39:57Z</time>
      </trkpt>
      <trkpt lat="41.8968020" lon="2.6548450">
        <ele>295.2</ele>
        <time>2020-07-31T08:40:03Z</time>
      </trkpt>
      <trkpt lat="41.8965000" lon="2.6544880">
        <ele>295.6</ele>
        <time>2020-07-31T08:40:10Z</time>
      </trkpt>
      <trkpt lat="41.8961750" lon="2.6541690">
        <ele>295.8</ele>
        <time>2020-07-31T08:40:16Z</time>
      </trkpt>
      <trkpt lat="41.8958300" lon="2.6539330">
        <ele>295.8</ele>
        <time>2020-07-31T08:40:21Z</time>
      </trkpt>
      <trkpt lat="41.8953300" lon="2.6537450">
        <ele>295.2</ele>
        <time>2020-07-31T08:40:27Z</time>
      </trkpt>
      <trkpt lat="41.8950400" lon="2.6537090">
        <ele>294.4</ele>
        <time>2020-07-31T08:40:30Z</time>
      </trkpt>
      <trkpt lat="41.8948350" lon="2.6537060">
        <ele>293.8</ele>
        <time>2020-07-31T08:40:32Z</time>
      </trkpt>
      <trkpt lat="41.8947280" lon="2.6537070">
        <ele>293.4</ele>
        <time>2020-07-31T08:40:33Z</time>
      </trkpt>
      <trkpt lat="41.8945090" lon="2.6537120">
        <ele>292.2</ele>
        <time>2020-07-31T08:40:35Z</time>
      </trkpt>
      <trkpt lat="41.8942840" lon="2.6537290">
        <ele>290.8</ele>
        <time>2020-07-31T08:40:37Z</time>
      </trkpt>
      <trkpt lat="41.8941680" lon="2.6537400">
        <ele>290.2</ele>
        <time>2020-07-31T08:40:38Z</time>
      </trkpt>
      <trkpt lat="41.8940520" lon="2.6537540">
        <ele>289.4</ele>
        <time>2020-07-31T08:40:39Z</time>
      </trkpt>
      <trkpt lat="41.8938190" lon="2.6537970">
        <ele>288.0</ele>
        <time>2020-07-31T08:40:41Z</time>
      </trkpt>
      <trkpt lat="41.8935850" lon="2.6538580">
        <ele>286.6</ele>
        <time>2020-07-31T08:40:43Z</time>
      </trkpt>
      <trkpt lat="41.8934680" lon="2.6538980">
        <ele>286.0</ele>
        <time>2020-07-31T08:40:44Z</time>
      </trkpt>
      <trkpt lat="41.8933500" lon="2.6539430">
        <ele>285.4</ele>
        <time>2020-07-31T08:40:45Z</time>
      </trkpt>
      <trkpt lat="41.8932320" lon="2.6539950">
        <ele>284.0</ele>
        <time>2020-07-31T08:40:46Z</time>
      </trkpt>
      <trkpt lat="41.8928760" lon="2.6541980">
        <ele>282.4</ele>
        <time>2020-07-31T08:40:49Z</time>
      </trkpt>
      <trkpt lat="41.8926400" lon="2.6543660">
        <ele>281.4</ele>
        <time>2020-07-31T08:40:51Z</time>
      </trkpt>
      <trkpt lat="41.8922910" lon="2.6546670">
        <ele>280.2</ele>
        <time>2020-07-31T08:40:54Z</time>
      </trkpt>
      <trkpt lat="41.8919370" lon="2.6549920">
        <ele>278.8</ele>
        <time>2020-07-31T08:40:57Z</time>
      </trkpt>
      <trkpt lat="41.8916980" lon="2.6552070">
        <ele>277.6</ele>
        <time>2020-07-31T08:40:59Z</time>
      </trkpt>
      <trkpt lat="41.8914550" lon="2.6554120">
        <ele>275.6</ele>
        <time>2020-07-31T08:41:01Z</time>
      </trkpt>
      <trkpt lat="41.8913330" lon="2.6555090">
        <ele>274.8</ele>
        <time>2020-07-31T08:41:02Z</time>
      </trkpt>
      <trkpt lat="41.8912110" lon="2.6556010">
        <ele>274.0</ele>
        <time>2020-07-31T08:41:03Z</time>
      </trkpt>
      <trkpt lat="41.8909700" lon="2.6557710">
        <ele>271.8</ele>
        <time>2020-07-31T08:41:05Z</time>
      </trkpt>
      <trkpt lat="41.8908530" lon="2.6558490">
        <ele>270.4</ele>
        <time>2020-07-31T08:41:06Z</time>
      </trkpt>
      <trkpt lat="41.8907360" lon="2.6559240">
        <ele>269.6</ele>
        <time>2020-07-31T08:41:07Z</time>
      </trkpt>
      <trkpt lat="41.8905040" lon="2.6560530">
        <ele>267.6</ele>
        <time>2020-07-31T08:41:09Z</time>
      </trkpt>
      <trkpt lat="41.8901610" lon="2.6562170">
        <ele>266.8</ele>
        <time>2020-07-31T08:41:12Z</time>
      </trkpt>
      <trkpt lat="41.8899390" lon="2.6563140">
        <ele>266.8</ele>
        <time>2020-07-31T08:41:14Z</time>
      </trkpt>
      <trkpt lat="41.8895140" lon="2.6564940">
        <ele>266.6</ele>
        <time>2020-07-31T08:41:18Z</time>
      </trkpt>
      <trkpt lat="41.8889100" lon="2.6567490">
        <ele>266.4</ele>
        <time>2020-07-31T08:41:24Z</time>
      </trkpt>
      <trkpt lat="41.8886190" lon="2.6568740">
        <ele>266.4</ele>
        <time>2020-07-31T08:41:27Z</time>
      </trkpt>
      <trkpt lat="41.8880620" lon="2.6571020">
        <ele>266.0</ele>
        <time>2020-07-31T08:41:33Z</time>
      </trkpt>
      <trkpt lat="41.8879710" lon="2.6571400">
        <ele>265.8</ele>
        <time>2020-07-31T08:41:34Z</time>
      </trkpt>
      <trkpt lat="41.8878820" lon="2.6571760">
        <ele>265.8</ele>
        <time>2020-07-31T08:41:35Z</time>
      </trkpt>
      <trkpt lat="41.8873470" lon="2.6573700">
        <ele>265.4</ele>
        <time>2020-07-31T08:41:41Z</time>
      </trkpt>
      <trkpt lat="41.8872570" lon="2.6573970">
        <ele>265.4</ele>
        <time>2020-07-31T08:41:42Z</time>
      </trkpt>
      <trkpt lat="41.8866910" lon="2.6575620">
        <ele>265.4</ele>
        <time>2020-07-31T08:41:48Z</time>
      </trkpt>
      <trkpt lat="41.8863900" lon="2.6576440">
        <ele>264.8</ele>
        <time>2020-07-31T08:41:51Z</time>
      </trkpt>
      <trkpt lat="41.8862860" lon="2.6576700">
        <ele>264.4</ele>
        <time>2020-07-31T08:41:52Z</time>
      </trkpt>
      <trkpt lat="41.8858670" lon="2.6577890">
        <ele>263.0</ele>
        <time>2020-07-31T08:41:56Z</time>
      </trkpt>
      <trkpt lat="41.8856560" lon="2.6578430">
        <ele>261.8</ele>
        <time>2020-07-31T08:41:58Z</time>
      </trkpt>
      <trkpt lat="41.8855500" lon="2.6578690">
        <ele>261.4</ele>
        <time>2020-07-31T08:41:59Z</time>
      </trkpt>
      <trkpt lat="41.8853380" lon="2.6579160">
        <ele>260.4</ele>
        <time>2020-07-31T08:42:01Z</time>
      </trkpt>
      <trkpt lat="41.8851240" lon="2.6579540">
        <ele>259.0</ele>
        <time>2020-07-31T08:42:03Z</time>
      </trkpt>
      <trkpt lat="41.8849130" lon="2.6579770">
        <ele>257.8</ele>
        <time>2020-07-31T08:42:05Z</time>
      </trkpt>
      <trkpt lat="41.8848090" lon="2.6579860">
        <ele>257.2</ele>
        <time>2020-07-31T08:42:06Z</time>
      </trkpt>
      <trkpt lat="41.8846040" lon="2.6579990">
        <ele>256.6</ele>
        <time>2020-07-31T08:42:08Z</time>
      </trkpt>
      <trkpt lat="41.8841980" lon="2.6580110">
        <ele>255.4</ele>
        <time>2020-07-31T08:42:12Z</time>
      </trkpt>
      <trkpt lat="41.8838960" lon="2.6580130">
        <ele>254.6</ele>
        <time>2020-07-31T08:42:15Z</time>
      </trkpt>
      <trkpt lat="41.8835960" lon="2.6580130">
        <ele>254.4</ele>
        <time>2020-07-31T08:42:18Z</time>
      </trkpt>
      <trkpt lat="41.8829940" lon="2.6580360">
        <ele>253.4</ele>
        <time>2020-07-31T08:42:24Z</time>
      </trkpt>
      <trkpt lat="41.8828930" lon="2.6580420">
        <ele>253.4</ele>
        <time>2020-07-31T08:42:25Z</time>
      </trkpt>
      <trkpt lat="41.8822880" lon="2.6580930">
        <ele>253.0</ele>
        <time>2020-07-31T08:42:31Z</time>
      </trkpt>
      <trkpt lat="41.8821870" lon="2.6581050">
        <ele>252.6</ele>
        <time>2020-07-31T08:42:32Z</time>
      </trkpt>
      <trkpt lat="41.8820850" lon="2.6581160">
        <ele>252.4</ele>
        <time>2020-07-31T08:42:33Z</time>
      </trkpt>
      <trkpt lat="41.8816740" lon="2.6581680">
        <ele>251.2</ele>
        <time>2020-07-31T08:42:37Z</time>
      </trkpt>
      <trkpt lat="41.8812590" lon="2.6582050">
        <ele>250.4</ele>
        <time>2020-07-31T08:42:41Z</time>
      </trkpt>
      <trkpt lat="41.8811550" lon="2.6582110">
        <ele>250.2</ele>
        <time>2020-07-31T08:42:42Z</time>
      </trkpt>
      <trkpt lat="41.8808430" lon="2.6582090">
        <ele>248.8</ele>
        <time>2020-07-31T08:42:45Z</time>
      </trkpt>
      <trkpt lat="41.8806340" lon="2.6581880">
        <ele>247.6</ele>
        <time>2020-07-31T08:42:47Z</time>
      </trkpt>
      <trkpt lat="41.8805300" lon="2.6581720">
        <ele>247.2</ele>
        <time>2020-07-31T08:42:48Z</time>
      </trkpt>
      <trkpt lat="41.8803200" lon="2.6581370">
        <ele>246.6</ele>
        <time>2020-07-31T08:42:50Z</time>
      </trkpt>
      <trkpt lat="41.8798960" lon="2.6580410">
        <ele>245.4</ele>
        <time>2020-07-31T08:42:54Z</time>
      </trkpt>
      <trkpt lat="41.8797900" lon="2.6580140">
        <ele>245.0</ele>
        <time>2020-07-31T08:42:55Z</time>
      </trkpt>
      <trkpt lat="41.8795810" lon="2.6579540">
        <ele>244.2</ele>
        <time>2020-07-31T08:42:57Z</time>
      </trkpt>
      <trkpt lat="41.8791680" lon="2.6578670">
        <ele>243.2</ele>
        <time>2020-07-31T08:43:01Z</time>
      </trkpt>
      <trkpt lat="41.8789600" lon="2.6578310">
        <ele>242.0</ele>
        <time>2020-07-31T08:43:03Z</time>
      </trkpt>
      <trkpt lat="41.8787530" lon="2.6578060">
        <ele>240.8</ele>
        <time>2020-07-31T08:43:05Z</time>
      </trkpt>
      <trkpt lat="41.8785410" lon="2.6578000">
        <ele>239.8</ele>
        <time>2020-07-31T08:43:07Z</time>
      </trkpt>
      <trkpt lat="41.8783320" lon="2.6578110">
        <ele>238.4</ele>
        <time>2020-07-31T08:43:09Z</time>
      </trkpt>
      <trkpt lat="41.8777330" lon="2.6579000">
        <ele>237.6</ele>
        <time>2020-07-31T08:43:15Z</time>
      </trkpt>
      <trkpt lat="41.8776390" lon="2.6579230">
        <ele>237.6</ele>
        <time>2020-07-31T08:43:16Z</time>
      </trkpt>
      <trkpt lat="41.8770970" lon="2.6581240">
        <ele>237.8</ele>
        <time>2020-07-31T08:43:22Z</time>
      </trkpt>
      <trkpt lat="41.8770120" lon="2.6581660">
        <ele>238.0</ele>
        <time>2020-07-31T08:43:23Z</time>
      </trkpt>
      <trkpt lat="41.8764450" lon="2.6585170">
        <ele>238.2</ele>
        <time>2020-07-31T08:43:30Z</time>
      </trkpt>
      <trkpt lat="41.8763700" lon="2.6585740">
        <ele>238.2</ele>
        <time>2020-07-31T08:43:31Z</time>
      </trkpt>
      <trkpt lat="41.8758470" lon="2.6589610">
        <ele>237.8</ele>
        <time>2020-07-31T08:43:38Z</time>
      </trkpt>
      <trkpt lat="41.8757020" lon="2.6590690">
        <ele>237.6</ele>
        <time>2020-07-31T08:43:40Z</time>
      </trkpt>
      <trkpt lat="41.8755570" lon="2.6591760">
        <ele>237.4</ele>
        <time>2020-07-31T08:43:42Z</time>
      </trkpt>
      <trkpt lat="41.8751330" lon="2.6594880">
        <ele>237.0</ele>
        <time>2020-07-31T08:43:48Z</time>
      </trkpt>
      <trkpt lat="41.8746850" lon="2.6598150">
        <ele>236.6</ele>
        <time>2020-07-31T08:43:54Z</time>
      </trkpt>
      <trkpt lat="41.8744390" lon="2.6599940">
        <ele>236.4</ele>
        <time>2020-07-31T08:43:57Z</time>
      </trkpt>
      <trkpt lat="41.8740950" lon="2.6602470">
        <ele>235.2</ele>
        <time>2020-07-31T08:44:01Z</time>
      </trkpt>
      <trkpt lat="41.8739220" lon="2.6603770">
        <ele>233.8</ele>
        <time>2020-07-31T08:44:03Z</time>
      </trkpt>
      <trkpt lat="41.8736510" lon="2.6605750">
        <ele>232.6</ele>
        <time>2020-07-31T08:44:06Z</time>
      </trkpt>
      <trkpt lat="41.8733760" lon="2.6607810">
        <ele>231.4</ele>
        <time>2020-07-31T08:44:09Z</time>
      </trkpt>
      <trkpt lat="41.8731910" lon="2.6609170">
        <ele>230.6</ele>
        <time>2020-07-31T08:44:11Z</time>
      </trkpt>
      <trkpt lat="41.8730960" lon="2.6609840">
        <ele>230.4</ele>
        <time>2020-07-31T08:44:12Z</time>
      </trkpt>
      <trkpt lat="41.8728100" lon="2.6611970">
        <ele>229.0</ele>
        <time>2020-07-31T08:44:15Z</time>
      </trkpt>
      <trkpt lat="41.8726110" lon="2.6613400">
        <ele>227.4</ele>
        <time>2020-07-31T08:44:17Z</time>
      </trkpt>
      <trkpt lat="41.8725090" lon="2.6614160">
        <ele>226.4</ele>
        <time>2020-07-31T08:44:18Z</time>
      </trkpt>
      <trkpt lat="41.8724080" lon="2.6614910">
        <ele>225.8</ele>
        <time>2020-07-31T08:44:19Z</time>
      </trkpt>
      <trkpt lat="41.8722030" lon="2.6616400">
        <ele>224.6</ele>
        <time>2020-07-31T08:44:21Z</time>
      </trkpt>
      <trkpt lat="41.8719940" lon="2.6617920">
        <ele>223.4</ele>
        <time>2020-07-31T08:44:23Z</time>
      </trkpt>
      <trkpt lat="41.8716810" lon="2.6620210">
        <ele>222.2</ele>
        <time>2020-07-31T08:44:26Z</time>
      </trkpt>
      <trkpt lat="41.8715780" lon="2.6620970">
        <ele>221.2</ele>
        <time>2020-07-31T08:44:27Z</time>
      </trkpt>
      <trkpt lat="41.8714770" lon="2.6621770">
        <ele>220.4</ele>
        <time>2020-07-31T08:44:28Z</time>
      </trkpt>
      <trkpt lat="41.8712820" lon="2.6623390">
        <ele>218.0</ele>
        <time>2020-07-31T08:44:30Z</time>
      </trkpt>
      <trkpt lat="41.8711880" lon="2.6624200">
        <ele>216.8</ele>
        <time>2020-07-31T08:44:31Z</time>
      </trkpt>
      <trkpt lat="41.8710080" lon="2.6625830">
        <ele>215.4</ele>
        <time>2020-07-31T08:44:33Z</time>
      </trkpt>
      <trkpt lat="41.8708360" lon="2.6627480">
        <ele>214.2</ele>
        <time>2020-07-31T08:44:35Z</time>
      </trkpt>
      <trkpt lat="41.8706730" lon="2.6629130">
        <ele>213.0</ele>
        <time>2020-07-31T08:44:37Z</time>
      </trkpt>
      <trkpt lat="41.8705180" lon="2.6630760">
        <ele>212.6</ele>
        <time>2020-07-31T08:44:39Z</time>
      </trkpt>
      <trkpt lat="41.8700810" lon="2.6635410">
        <ele>212.4</ele>
        <time>2020-07-31T08:44:45Z</time>
      </trkpt>
      <trkpt lat="41.8699570" lon="2.6636730">
        <ele>212.6</ele>
        <time>2020-07-31T08:44:47Z</time>
      </trkpt>
      <trkpt lat="41.8695710" lon="2.6640670">
        <ele>213.4</ele>
        <time>2020-07-31T08:44:53Z</time>
      </trkpt>
      <trkpt lat="41.8691240" lon="2.6643990">
        <ele>213.4</ele>
        <time>2020-07-31T08:44:59Z</time>
      </trkpt>
      <trkpt lat="41.8689640" lon="2.6644780">
        <ele>213.2</ele>
        <time>2020-07-31T08:45:01Z</time>
      </trkpt>
      <trkpt lat="41.8687110" lon="2.6645460">
        <ele>212.8</ele>
        <time>2020-07-31T08:45:04Z</time>
      </trkpt>
      <trkpt lat="41.8681730" lon="2.6645810">
        <ele>212.6</ele>
        <time>2020-07-31T08:45:10Z</time>
      </trkpt>
      <trkpt lat="41.8675930" lon="2.6645690">
        <ele>212.2</ele>
        <time>2020-07-31T08:45:16Z</time>
      </trkpt>
      <trkpt lat="41.8673960" lon="2.6645640">
        <ele>212.0</ele>
        <time>2020-07-31T08:45:18Z</time>
      </trkpt>
      <trkpt lat="41.8668130" lon="2.6645380">
        <ele>211.0</ele>
        <time>2020-07-31T08:45:24Z</time>
      </trkpt>
      <trkpt lat="41.8666250" lon="2.6645340">
        <ele>210.4</ele>
        <time>2020-07-31T08:45:26Z</time>
      </trkpt>
      <trkpt lat="41.8665320" lon="2.6645310">
        <ele>209.8</ele>
        <time>2020-07-31T08:45:27Z</time>
      </trkpt>
      <trkpt lat="41.8659750" lon="2.6644950">
        <ele>209.4</ele>
        <time>2020-07-31T08:45:33Z</time>
      </trkpt>
      <trkpt lat="41.8658830" lon="2.6644920">
        <ele>209.2</ele>
        <time>2020-07-31T08:45:34Z</time>
      </trkpt>
      <trkpt lat="41.8654980" lon="2.6644960">
        <ele>208.8</ele>
        <time>2020-07-31T08:45:38Z</time>
      </trkpt>
      <trkpt lat="41.8652910" lon="2.6645170">
        <ele>208.4</ele>
        <time>2020-07-31T08:45:40Z</time>
      </trkpt>
      <trkpt lat="41.8649750" lon="2.6646090">
        <ele>208.0</ele>
        <time>2020-07-31T08:45:43Z</time>
      </trkpt>
      <trkpt lat="41.8648730" lon="2.6646640">
        <ele>207.6</ele>
        <time>2020-07-31T08:45:44Z</time>
      </trkpt>
      <trkpt lat="41.8646810" lon="2.6648170">
        <ele>206.4</ele>
        <time>2020-07-31T08:45:46Z</time>
      </trkpt>
      <trkpt lat="41.8645920" lon="2.6649120">
        <ele>205.8</ele>
        <time>2020-07-31T08:45:47Z</time>
      </trkpt>
      <trkpt lat="41.8645030" lon="2.6650110">
        <ele>205.0</ele>
        <time>2020-07-31T08:45:48Z</time>
      </trkpt>
      <trkpt lat="41.8643250" lon="2.6652180">
        <ele>203.6</ele>
        <time>2020-07-31T08:45:50Z</time>
      </trkpt>
      <trkpt lat="41.8641460" lon="2.6654280">
        <ele>201.8</ele>
        <time>2020-07-31T08:45:52Z</time>
      </trkpt>
      <trkpt lat="41.8640560" lon="2.6655350">
        <ele>201.0</ele>
        <time>2020-07-31T08:45:53Z</time>
      </trkpt>
      <trkpt lat="41.8639720" lon="2.6656470">
        <ele>200.0</ele>
        <time>2020-07-31T08:45:54Z</time>
      </trkpt>
      <trkpt lat="41.8638880" lon="2.6657530">
        <ele>198.2</ele>
        <time>2020-07-31T08:45:55Z</time>
      </trkpt>
      <trkpt lat="41.8638050" lon="2.6658510">
        <ele>197.4</ele>
        <time>2020-07-31T08:45:56Z</time>
      </trkpt>
      <trkpt lat="41.8637200" lon="2.6659410">
        <ele>196.6</ele>
        <time>2020-07-31T08:45:57Z</time>
      </trkpt>
      <trkpt lat="41.8635700" lon="2.6660860">
        <ele>194.8</ele>
        <time>2020-07-31T08:45:59Z</time>
      </trkpt>
      <trkpt lat="41.8635060" lon="2.6661410">
        <ele>194.0</ele>
        <time>2020-07-31T08:46:00Z</time>
      </trkpt>
      <trkpt lat="41.8634520" lon="2.6661830">
        <ele>193.4</ele>
        <time>2020-07-31T08:46:01Z</time>
      </trkpt>
      <trkpt lat="41.8633780" lon="2.6662340">
        <ele>192.0</ele>
        <time>2020-07-31T08:46:03Z</time>
      </trkpt>
      <trkpt lat="41.8632660" lon="2.6662890">
        <ele>191.2</ele>
        <time>2020-07-31T08:46:07Z</time>
      </trkpt>
      <trkpt lat="41.8632170" lon="2.6663250">
        <ele>191.0</ele>
        <time>2020-07-31T08:46:12Z</time>
      </trkpt>
      <trkpt lat="41.8631690" lon="2.6663610">
        <ele>191.0</ele>
        <time>2020-07-31T08:46:13Z</time>
      </trkpt>
      <trkpt lat="41.8631200" lon="2.6663970">
        <ele>191.0</ele>
        <time>2020-07-31T08:46:28Z</time>
      </trkpt>
      <trkpt lat="41.8630710" lon="2.6664330">
        <ele>191.2</ele>
        <time>2020-07-31T08:46:29Z</time>
      </trkpt>
      <trkpt lat="41.8627220" lon="2.6667040">
        <ele>190.0</ele>
        <time>2020-07-31T08:46:34Z</time>
      </trkpt>
      <trkpt lat="41.8624730" lon="2.6668960">
        <ele>188.6</ele>
        <time>2020-07-31T08:46:37Z</time>
      </trkpt>
      <trkpt lat="41.8622930" lon="2.6670350">
        <ele>187.0</ele>
        <time>2020-07-31T08:46:39Z</time>
      </trkpt>
      <trkpt lat="41.8622020" lon="2.6671050">
        <ele>186.4</ele>
        <time>2020-07-31T08:46:40Z</time>
      </trkpt>
      <trkpt lat="41.8621080" lon="2.6671770">
        <ele>185.6</ele>
        <time>2020-07-31T08:46:41Z</time>
      </trkpt>
      <trkpt lat="41.8619200" lon="2.6673230">
        <ele>183.8</ele>
        <time>2020-07-31T08:46:43Z</time>
      </trkpt>
      <trkpt lat="41.8617350" lon="2.6674670">
        <ele>182.0</ele>
        <time>2020-07-31T08:46:45Z</time>
      </trkpt>
      <trkpt lat="41.8615550" lon="2.6676080">
        <ele>180.4</ele>
        <time>2020-07-31T08:46:47Z</time>
      </trkpt>
      <trkpt lat="41.8613690" lon="2.6677380">
        <ele>178.8</ele>
        <time>2020-07-31T08:46:49Z</time>
      </trkpt>
      <trkpt lat="41.8612740" lon="2.6677840">
        <ele>178.2</ele>
        <time>2020-07-31T08:46:50Z</time>
      </trkpt>
      <trkpt lat="41.8611850" lon="2.6678080">
        <ele>177.4</ele>
        <time>2020-07-31T08:46:51Z</time>
      </trkpt>
      <trkpt lat="41.8611150" lon="2.6678080">
        <ele>177.0</ele>
        <time>2020-07-31T08:46:52Z</time>
      </trkpt>
      <trkpt lat="41.8610640" lon="2.6677920">
        <ele>176.8</ele>
        <time>2020-07-31T08:46:53Z</time>
      </trkpt>
      <trkpt lat="41.8605930" lon="2.6679620">
        <ele>176.8</ele>
        <time>2020-07-31T08:47:36Z</time>
      </trkpt>
      <trkpt lat="41.8605670" lon="2.6679840">
        <ele>176.8</ele>
        <time>2020-07-31T08:47:37Z</time>
      </trkpt>
      <trkpt lat="41.8605150" lon="2.6680110">
        <ele>176.6</ele>
        <time>2020-07-31T08:47:38Z</time>
      </trkpt>
      <trkpt lat="41.8603410" lon="2.6680860">
        <ele>176.2</ele>
        <time>2020-07-31T08:47:41Z</time>
      </trkpt>
      <trkpt lat="41.8602840" lon="2.6681220">
        <ele>176.0</ele>
        <time>2020-07-31T08:47:42Z</time>
      </trkpt>
      <trkpt lat="41.8600860" lon="2.6682010">
        <ele>175.0</ele>
        <time>2020-07-31T08:47:45Z</time>
      </trkpt>
      <trkpt lat="41.8598900" lon="2.6683010">
        <ele>174.0</ele>
        <time>2020-07-31T08:47:48Z</time>
      </trkpt>
      <trkpt lat="41.8598210" lon="2.6683310">
        <ele>174.0</ele>
        <time>2020-07-31T08:47:49Z</time>
      </trkpt>
      <trkpt lat="41.8596900" lon="2.6683630">
        <ele>173.4</ele>
        <time>2020-07-31T08:47:51Z</time>
      </trkpt>
      <trkpt lat="41.8595350" lon="2.6683780">
        <ele>173.2</ele>
        <time>2020-07-31T08:47:53Z</time>
      </trkpt>
      <trkpt lat="41.8593730" lon="2.6683940">
        <ele>173.2</ele>
        <time>2020-07-31T08:47:55Z</time>
      </trkpt>
      <trkpt lat="41.8592160" lon="2.6684090">
        <ele>172.8</ele>
        <time>2020-07-31T08:47:57Z</time>
      </trkpt>
      <trkpt lat="41.8589180" lon="2.6684220">
        <ele>172.4</ele>
        <time>2020-07-31T08:48:01Z</time>
      </trkpt>
      <trkpt lat="41.8587780" lon="2.6683580">
        <ele>172.2</ele>
        <time>2020-07-31T08:48:03Z</time>
      </trkpt>
      <trkpt lat="41.8585570" lon="2.6683830">
        <ele>172.0</ele>
        <time>2020-07-31T08:48:06Z</time>
      </trkpt>
      <trkpt lat="41.8583420" lon="2.6684530">
        <ele>172.0</ele>
        <time>2020-07-31T08:48:09Z</time>
      </trkpt>
      <trkpt lat="41.8577250" lon="2.6684360">
        <ele>171.2</ele>
        <time>2020-07-31T08:48:17Z</time>
      </trkpt>
      <trkpt lat="41.8576470" lon="2.6684340">
        <ele>171.0</ele>
        <time>2020-07-31T08:48:18Z</time>
      </trkpt>
      <trkpt lat="41.8570890" lon="2.6684140">
        <ele>170.8</ele>
        <time>2020-07-31T08:48:25Z</time>
      </trkpt>
      <trkpt lat="41.8567800" lon="2.6684020">
        <ele>170.8</ele>
        <time>2020-07-31T08:48:29Z</time>
      </trkpt>
      <trkpt lat="41.8566380" lon="2.6683620">
        <ele>170.8</ele>
        <time>2020-07-31T08:48:31Z</time>
      </trkpt>
      <trkpt lat="41.8565790" lon="2.6683120">
        <ele>170.8</ele>
        <time>2020-07-31T08:48:32Z</time>
      </trkpt>
      <trkpt lat="41.8564650" lon="2.6682060">
        <ele>170.8</ele>
        <time>2020-07-31T08:48:34Z</time>
      </trkpt>
      <trkpt lat="41.8563280" lon="2.6681810">
        <ele>170.8</ele>
        <time>2020-07-31T08:48:36Z</time>
      </trkpt>
      <trkpt lat="41.8561460" lon="2.6683210">
        <ele>170.8</ele>
        <time>2020-07-31T08:48:39Z</time>
      </trkpt>
      <trkpt lat="41.8560570" lon="2.6684720">
        <ele>170.8</ele>
        <time>2020-07-31T08:48:41Z</time>
      </trkpt>
      <trkpt lat="41.8559560" lon="2.6686120">
        <ele>170.8</ele>
        <time>2020-07-31T08:48:43Z</time>
      </trkpt>
      <trkpt lat="41.8555000" lon="2.6691480">
        <ele>170.0</ele>
        <time>2020-07-31T08:48:51Z</time>
      </trkpt>
      <trkpt lat="41.8554440" lon="2.6692210">
        <ele>170.0</ele>
        <time>2020-07-31T08:48:52Z</time>
      </trkpt>
      <trkpt lat="41.8550530" lon="2.6697210">
        <ele>169.4</ele>
        <time>2020-07-31T08:48:59Z</time>
      </trkpt>
      <trkpt lat="41.8549420" lon="2.6698640">
        <ele>169.4</ele>
        <time>2020-07-31T08:49:01Z</time>
      </trkpt>
      <trkpt lat="41.8548330" lon="2.6700180">
        <ele>169.0</ele>
        <time>2020-07-31T08:49:03Z</time>
      </trkpt>
      <trkpt lat="41.8545380" lon="2.6703650">
        <ele>168.4</ele>
        <time>2020-07-31T08:49:08Z</time>
      </trkpt>
      <trkpt lat="41.8543200" lon="2.6705310">
        <ele>168.4</ele>
        <time>2020-07-31T08:49:12Z</time>
      </trkpt>
      <trkpt lat="41.8542810" lon="2.6705640">
        <ele>168.4</ele>
        <time>2020-07-31T08:49:13Z</time>
      </trkpt>
      <trkpt lat="41.8542540" lon="2.6706510">
        <ele>168.4</ele>
        <time>2020-07-31T08:49:15Z</time>
      </trkpt>
      <trkpt lat="41.8543280" lon="2.6707710">
        <ele>168.4</ele>
        <time>2020-07-31T08:49:18Z</time>
      </trkpt>
      <trkpt lat="41.8545110" lon="2.6710260">
        <ele>168.6</ele>
        <time>2020-07-31T08:49:23Z</time>
      </trkpt>
      <trkpt lat="41.8547310" lon="2.6714210">
        <ele>168.6</ele>
        <time>2020-07-31T08:49:29Z</time>
      </trkpt>
      <trkpt lat="41.8550090" lon="2.6718740">
        <ele>168.4</ele>
        <time>2020-07-31T08:49:36Z</time>
      </trkpt>
      <trkpt lat="41.8552760" lon="2.6723350">
        <ele>168.4</ele>
        <time>2020-07-31T08:49:43Z</time>
      </trkpt>
      <trkpt lat="41.8554880" lon="2.6727350">
        <ele>168.4</ele>
        <time>2020-07-31T08:49:49Z</time>
      </trkpt>
      <trkpt lat="41.8556110" lon="2.6731660">
        <ele>168.4</ele>
        <time>2020-07-31T08:49:55Z</time>
      </trkpt>
      <trkpt lat="41.8556340" lon="2.6732350">
        <ele>168.4</ele>
        <time>2020-07-31T08:49:56Z</time>
      </trkpt>
      <trkpt lat="41.8557350" lon="2.6733940">
        <ele>168.4</ele>
        <time>2020-07-31T08:49:59Z</time>
      </trkpt>
      <trkpt lat="41.8560470" lon="2.6737130">
        <ele>168.4</ele>
        <time>2020-07-31T08:50:06Z</time>
      </trkpt>
      <trkpt lat="41.8563910" lon="2.6740430">
        <ele>168.8</ele>
        <time>2020-07-31T08:50:13Z</time>
      </trkpt>
      <trkpt lat="41.8565770" lon="2.6742350">
        <ele>169.0</ele>
        <time>2020-07-31T08:50:17Z</time>
      </trkpt>
      <trkpt lat="41.8566020" lon="2.6742860">
        <ele>169.0</ele>
        <time>2020-07-31T08:50:18Z</time>
      </trkpt>
      <trkpt lat="41.8565680" lon="2.6744570">
        <ele>169.2</ele>
        <time>2020-07-31T08:50:21Z</time>
      </trkpt>
      <trkpt lat="41.8564600" lon="2.6746180">
        <ele>169.4</ele>
        <time>2020-07-31T08:50:24Z</time>
      </trkpt>
      <trkpt lat="41.8563850" lon="2.6747390">
        <ele>169.4</ele>
        <time>2020-07-31T08:50:26Z</time>
      </trkpt>
      <trkpt lat="41.8561540" lon="2.6751840">
        <ele>169.4</ele>
        <time>2020-07-31T08:50:33Z</time>
      </trkpt>
      <trkpt lat="41.8561330" lon="2.6752510">
        <ele>169.4</ele>
        <time>2020-07-31T08:50:34Z</time>
      </trkpt>
      <trkpt lat="41.8561290" lon="2.6753730">
        <ele>169.2</ele>
        <time>2020-07-31T08:50:36Z</time>
      </trkpt>
      <trkpt lat="41.8562050" lon="2.6755090">
        <ele>169.2</ele>
        <time>2020-07-31T08:50:39Z</time>
      </trkpt>
      <trkpt lat="41.8562850" lon="2.6755710">
        <ele>169.2</ele>
        <time>2020-07-31T08:50:41Z</time>
      </trkpt>
      <trkpt lat="41.8564400" lon="2.6757010">
        <ele>169.4</ele>
        <time>2020-07-31T08:50:45Z</time>
      </trkpt>
      <trkpt lat="41.8567730" lon="2.6755430">
        <ele>173.0</ele>
        <time>2020-07-31T09:02:40Z</time>
      </trkpt>
      <trkpt lat="41.8567560" lon="2.6755740">
        <ele>173.0</ele>
        <time>2020-07-31T09:02:41Z</time>
      </trkpt>
      <trkpt lat="41.8565050" lon="2.6760310">
        <ele>172.4</ele>
        <time>2020-07-31T09:02:48Z</time>
      </trkpt>
      <trkpt lat="41.8562480" lon="2.6765000">
        <ele>172.0</ele>
        <time>2020-07-31T09:02:55Z</time>
      </trkpt>
      <trkpt lat="41.8562100" lon="2.6765690">
        <ele>172.0</ele>
        <time>2020-07-31T09:02:56Z</time>
      </trkpt>
      <trkpt lat="41.8559770" lon="2.6770670">
        <ele>171.6</ele>
        <time>2020-07-31T09:03:02Z</time>
      </trkpt>
      <trkpt lat="41.8557720" lon="2.6774500">
        <ele>171.4</ele>
        <time>2020-07-31T09:03:07Z</time>
      </trkpt>
      <trkpt lat="41.8556090" lon="2.6777470">
        <ele>171.2</ele>
        <time>2020-07-31T09:03:11Z</time>
      </trkpt>
      <trkpt lat="41.8552850" lon="2.6783390">
        <ele>171.0</ele>
        <time>2020-07-31T09:03:19Z</time>
      </trkpt>
      <trkpt lat="41.8552450" lon="2.6784130">
        <ele>171.0</ele>
        <time>2020-07-31T09:03:20Z</time>
      </trkpt>
      <trkpt lat="41.8549580" lon="2.6789540">
        <ele>171.0</ele>
        <time>2020-07-31T09:03:27Z</time>
      </trkpt>
      <trkpt lat="41.8546970" lon="2.6794440">
        <ele>170.8</ele>
        <time>2020-07-31T09:03:33Z</time>
      </trkpt>
      <trkpt lat="41.8546530" lon="2.6795260">
        <ele>170.8</ele>
        <time>2020-07-31T09:03:34Z</time>
      </trkpt>
      <trkpt lat="41.8543410" lon="2.6801220">
        <ele>170.2</ele>
        <time>2020-07-31T09:03:41Z</time>
      </trkpt>
      <trkpt lat="41.8542960" lon="2.6802070">
        <ele>170.0</ele>
        <time>2020-07-31T09:03:42Z</time>
      </trkpt>
      <trkpt lat="41.8542510" lon="2.6802940">
        <ele>170.0</ele>
        <time>2020-07-31T09:03:43Z</time>
      </trkpt>
      <trkpt lat="41.8540250" lon="2.6807230">
        <ele>168.8</ele>
        <time>2020-07-31T09:03:48Z</time>
      </trkpt>
      <trkpt lat="41.8537950" lon="2.6811560">
        <ele>168.4</ele>
        <time>2020-07-31T09:03:53Z</time>
      </trkpt>
      <trkpt lat="41.8537030" lon="2.6813340">
        <ele>168.2</ele>
        <time>2020-07-31T09:03:55Z</time>
      </trkpt>
      <trkpt lat="41.8533740" lon="2.6819600">
        <ele>168.0</ele>
        <time>2020-07-31T09:04:02Z</time>
      </trkpt>
      <trkpt lat="41.8532330" lon="2.6822280">
        <ele>168.0</ele>
        <time>2020-07-31T09:04:05Z</time>
      </trkpt>
      <trkpt lat="41.8529090" lon="2.6828430">
        <ele>167.8</ele>
        <time>2020-07-31T09:04:12Z</time>
      </trkpt>
      <trkpt lat="41.8528150" lon="2.6830220">
        <ele>167.8</ele>
        <time>2020-07-31T09:04:14Z</time>
      </trkpt>
      <trkpt lat="41.8527210" lon="2.6832000">
        <ele>167.8</ele>
        <time>2020-07-31T09:04:16Z</time>
      </trkpt>
      <trkpt lat="41.8524040" lon="2.6838060">
        <ele>167.2</ele>
        <time>2020-07-31T09:04:23Z</time>
      </trkpt>
      <trkpt lat="41.8523590" lon="2.6838910">
        <ele>167.2</ele>
        <time>2020-07-31T09:04:24Z</time>
      </trkpt>
      <trkpt lat="41.8520040" lon="2.6845660">
        <ele>167.8</ele>
        <time>2020-07-31T09:04:32Z</time>
      </trkpt>
      <trkpt lat="41.8518670" lon="2.6848230">
        <ele>168.0</ele>
        <time>2020-07-31T09:04:35Z</time>
      </trkpt>
      <trkpt lat="41.8515520" lon="2.6854130">
        <ele>167.8</ele>
        <time>2020-07-31T09:04:42Z</time>
      </trkpt>
      <trkpt lat="41.8513710" lon="2.6857490">
        <ele>167.2</ele>
        <time>2020-07-31T09:04:46Z</time>
      </trkpt>
      <trkpt lat="41.8510560" lon="2.6863470">
        <ele>166.8</ele>
        <time>2020-07-31T09:04:53Z</time>
      </trkpt>
      <trkpt lat="41.8510110" lon="2.6864330">
        <ele>166.8</ele>
        <time>2020-07-31T09:04:54Z</time>
      </trkpt>
      <trkpt lat="41.8508760" lon="2.6866900">
        <ele>166.8</ele>
        <time>2020-07-31T09:04:57Z</time>
      </trkpt>
      <trkpt lat="41.8505590" lon="2.6872980">
        <ele>166.6</ele>
        <time>2020-07-31T09:05:04Z</time>
      </trkpt>
      <trkpt lat="41.8505130" lon="2.6873820">
        <ele>166.6</ele>
        <time>2020-07-31T09:05:05Z</time>
      </trkpt>
      <trkpt lat="41.8503770" lon="2.6876400">
        <ele>166.4</ele>
        <time>2020-07-31T09:05:08Z</time>
      </trkpt>
      <trkpt lat="41.8501540" lon="2.6880710">
        <ele>166.0</ele>
        <time>2020-07-31T09:05:13Z</time>
      </trkpt>
      <trkpt lat="41.8498750" lon="2.6885820">
        <ele>166.0</ele>
        <time>2020-07-31T09:05:19Z</time>
      </trkpt>
      <trkpt lat="41.8495120" lon="2.6891720">
        <ele>165.8</ele>
        <time>2020-07-31T09:05:26Z</time>
      </trkpt>
      <trkpt lat="41.8494530" lon="2.6892540">
        <ele>165.8</ele>
        <time>2020-07-31T09:05:27Z</time>
      </trkpt>
      <trkpt lat="41.8490100" lon="2.6898110">
        <ele>165.2</ele>
        <time>2020-07-31T09:05:34Z</time>
      </trkpt>
      <trkpt lat="41.8488770" lon="2.6899620">
        <ele>165.0</ele>
        <time>2020-07-31T09:05:36Z</time>
      </trkpt>
      <trkpt lat="41.8486100" lon="2.6902620">
        <ele>163.6</ele>
        <time>2020-07-31T09:05:40Z</time>
      </trkpt>
      <trkpt lat="41.8483430" lon="2.6905640">
        <ele>162.4</ele>
        <time>2020-07-31T09:05:44Z</time>
      </trkpt>
      <trkpt lat="41.8481440" lon="2.6907850">
        <ele>161.6</ele>
        <time>2020-07-31T09:05:47Z</time>
      </trkpt>
      <trkpt lat="41.8478190" lon="2.6911550">
        <ele>161.2</ele>
        <time>2020-07-31T09:05:52Z</time>
      </trkpt>
      <trkpt lat="41.8474340" lon="2.6915870">
        <ele>161.0</ele>
        <time>2020-07-31T09:05:58Z</time>
      </trkpt>
      <trkpt lat="41.8470010" lon="2.6920850">
        <ele>161.2</ele>
        <time>2020-07-31T09:06:05Z</time>
      </trkpt>
      <trkpt lat="41.8466900" lon="2.6924370">
        <ele>161.2</ele>
        <time>2020-07-31T09:06:10Z</time>
      </trkpt>
      <trkpt lat="41.8462490" lon="2.6929350">
        <ele>160.6</ele>
        <time>2020-07-31T09:06:17Z</time>
      </trkpt>
      <trkpt lat="41.8461220" lon="2.6930790">
        <ele>160.4</ele>
        <time>2020-07-31T09:06:19Z</time>
      </trkpt>
      <trkpt lat="41.8459320" lon="2.6932970">
        <ele>160.2</ele>
        <time>2020-07-31T09:06:22Z</time>
      </trkpt>
      <trkpt lat="41.8456780" lon="2.6935910">
        <ele>159.4</ele>
        <time>2020-07-31T09:06:26Z</time>
      </trkpt>
      <trkpt lat="41.8452130" lon="2.6941130">
        <ele>158.8</ele>
        <time>2020-07-31T09:06:33Z</time>
      </trkpt>
      <trkpt lat="41.8450780" lon="2.6942660">
        <ele>158.4</ele>
        <time>2020-07-31T09:06:35Z</time>
      </trkpt>
      <trkpt lat="41.8450100" lon="2.6943420">
        <ele>158.2</ele>
        <time>2020-07-31T09:06:36Z</time>
      </trkpt>
      <trkpt lat="41.8446040" lon="2.6947980">
        <ele>156.8</ele>
        <time>2020-07-31T09:06:42Z</time>
      </trkpt>
      <trkpt lat="41.8442780" lon="2.6951670">
        <ele>156.2</ele>
        <time>2020-07-31T09:06:47Z</time>
      </trkpt>
      <trkpt lat="41.8438490" lon="2.6956450">
        <ele>156.2</ele>
        <time>2020-07-31T09:06:54Z</time>
      </trkpt>
      <trkpt lat="41.8436720" lon="2.6958430">
        <ele>156.2</ele>
        <time>2020-07-31T09:06:57Z</time>
      </trkpt>
      <trkpt lat="41.8432490" lon="2.6963300">
        <ele>156.2</ele>
        <time>2020-07-31T09:07:04Z</time>
      </trkpt>
      <trkpt lat="41.8430020" lon="2.6966140">
        <ele>156.2</ele>
        <time>2020-07-31T09:07:08Z</time>
      </trkpt>
      <trkpt lat="41.8426960" lon="2.6969650">
        <ele>155.8</ele>
        <time>2020-07-31T09:07:13Z</time>
      </trkpt>
      <trkpt lat="41.8425140" lon="2.6971740">
        <ele>154.8</ele>
        <time>2020-07-31T09:07:16Z</time>
      </trkpt>
      <trkpt lat="41.8424530" lon="2.6972440">
        <ele>154.6</ele>
        <time>2020-07-31T09:07:17Z</time>
      </trkpt>
      <trkpt lat="41.8420170" lon="2.6977350">
        <ele>153.8</ele>
        <time>2020-07-31T09:07:24Z</time>
      </trkpt>
      <trkpt lat="41.8419540" lon="2.6978050">
        <ele>153.8</ele>
        <time>2020-07-31T09:07:25Z</time>
      </trkpt>
      <trkpt lat="41.8418930" lon="2.6978750">
        <ele>153.6</ele>
        <time>2020-07-31T09:07:26Z</time>
      </trkpt>
      <trkpt lat="41.8414290" lon="2.6984100">
        <ele>152.6</ele>
        <time>2020-07-31T09:07:34Z</time>
      </trkpt>
      <trkpt lat="41.8413730" lon="2.6984730">
        <ele>152.6</ele>
        <time>2020-07-31T09:07:35Z</time>
      </trkpt>
      <trkpt lat="41.8409310" lon="2.6989460">
        <ele>152.6</ele>
        <time>2020-07-31T09:07:43Z</time>
      </trkpt>
      <trkpt lat="41.8407130" lon="2.6991610">
        <ele>153.6</ele>
        <time>2020-07-31T09:07:47Z</time>
      </trkpt>
      <trkpt lat="41.8406000" lon="2.6992830">
        <ele>153.8</ele>
        <time>2020-07-31T09:07:49Z</time>
      </trkpt>
      <trkpt lat="41.8402030" lon="2.6997260">
        <ele>153.8</ele>
        <time>2020-07-31T09:07:56Z</time>
      </trkpt>
      <trkpt lat="41.8397770" lon="2.7002270">
        <ele>153.4</ele>
        <time>2020-07-31T09:08:03Z</time>
      </trkpt>
      <trkpt lat="41.8393940" lon="2.7006810">
        <ele>152.4</ele>
        <time>2020-07-31T09:08:09Z</time>
      </trkpt>
      <trkpt lat="41.8392060" lon="2.7009030">
        <ele>152.2</ele>
        <time>2020-07-31T09:08:12Z</time>
      </trkpt>
      <trkpt lat="41.8389060" lon="2.7012520">
        <ele>151.6</ele>
        <time>2020-07-31T09:08:17Z</time>
      </trkpt>
      <trkpt lat="41.8386130" lon="2.7015890">
        <ele>151.0</ele>
        <time>2020-07-31T09:08:22Z</time>
      </trkpt>
      <trkpt lat="41.8382040" lon="2.7020610">
        <ele>150.6</ele>
        <time>2020-07-31T09:08:29Z</time>
      </trkpt>
      <trkpt lat="41.8380280" lon="2.7022590">
        <ele>150.4</ele>
        <time>2020-07-31T09:08:32Z</time>
      </trkpt>
      <trkpt lat="41.8375600" lon="2.7027960">
        <ele>150.2</ele>
        <time>2020-07-31T09:08:40Z</time>
      </trkpt>
      <trkpt lat="41.8373120" lon="2.7030790">
        <ele>150.2</ele>
        <time>2020-07-31T09:08:44Z</time>
      </trkpt>
      <trkpt lat="41.8370040" lon="2.7034310">
        <ele>149.2</ele>
        <time>2020-07-31T09:08:49Z</time>
      </trkpt>
      <trkpt lat="41.8369420" lon="2.7035010">
        <ele>149.0</ele>
        <time>2020-07-31T09:08:50Z</time>
      </trkpt>
      <trkpt lat="41.8365150" lon="2.7039860">
        <ele>148.2</ele>
        <time>2020-07-31T09:08:57Z</time>
      </trkpt>
      <trkpt lat="41.8362770" lon="2.7042720">
        <ele>147.4</ele>
        <time>2020-07-31T09:09:01Z</time>
      </trkpt>
      <trkpt lat="41.8362210" lon="2.7043460">
        <ele>147.2</ele>
        <time>2020-07-31T09:09:02Z</time>
      </trkpt>
      <trkpt lat="41.8359090" lon="2.7048300">
        <ele>147.0</ele>
        <time>2020-07-31T09:09:08Z</time>
      </trkpt>
      <trkpt lat="41.8355840" lon="2.7054730">
        <ele>146.6</ele>
        <time>2020-07-31T09:09:15Z</time>
      </trkpt>
      <trkpt lat="41.8355380" lon="2.7055690">
        <ele>146.4</ele>
        <time>2020-07-31T09:09:16Z</time>
      </trkpt>
      <trkpt lat="41.8354910" lon="2.7056650">
        <ele>146.2</ele>
        <time>2020-07-31T09:09:17Z</time>
      </trkpt>
      <trkpt lat="41.8351640" lon="2.7063340">
        <ele>145.8</ele>
        <time>2020-07-31T09:09:24Z</time>
      </trkpt>
      <trkpt lat="41.8350700" lon="2.7065250">
        <ele>145.0</ele>
        <time>2020-07-31T09:09:26Z</time>
      </trkpt>
      <trkpt lat="41.8350230" lon="2.7066200">
        <ele>144.8</ele>
        <time>2020-07-31T09:09:27Z</time>
      </trkpt>
      <trkpt lat="41.8347470" lon="2.7071880">
        <ele>144.0</ele>
        <time>2020-07-31T09:09:33Z</time>
      </trkpt>
      <trkpt lat="41.8345100" lon="2.7076480">
        <ele>143.4</ele>
        <time>2020-07-31T09:09:38Z</time>
      </trkpt>
      <trkpt lat="41.8343430" lon="2.7079080">
        <ele>143.0</ele>
        <time>2020-07-31T09:09:41Z</time>
      </trkpt>
      <trkpt lat="41.8341530" lon="2.7081390">
        <ele>142.6</ele>
        <time>2020-07-31T09:09:44Z</time>
      </trkpt>
      <trkpt lat="41.8338830" lon="2.7084070">
        <ele>141.8</ele>
        <time>2020-07-31T09:09:48Z</time>
      </trkpt>
      <trkpt lat="41.8336710" lon="2.7085810">
        <ele>141.6</ele>
        <time>2020-07-31T09:09:51Z</time>
      </trkpt>
      <trkpt lat="41.8331690" lon="2.7089730">
        <ele>141.2</ele>
        <time>2020-07-31T09:09:58Z</time>
      </trkpt>
      <trkpt lat="41.8327400" lon="2.7093090">
        <ele>141.0</ele>
        <time>2020-07-31T09:10:04Z</time>
      </trkpt>
      <trkpt lat="41.8324710" lon="2.7095180">
        <ele>140.8</ele>
        <time>2020-07-31T09:10:08Z</time>
      </trkpt>
      <trkpt lat="41.8322120" lon="2.7097090">
        <ele>140.6</ele>
        <time>2020-07-31T09:10:12Z</time>
      </trkpt>
      <trkpt lat="41.8317240" lon="2.7100990">
        <ele>140.6</ele>
        <time>2020-07-31T09:10:20Z</time>
      </trkpt>
      <trkpt lat="41.8316630" lon="2.7101460">
        <ele>140.6</ele>
        <time>2020-07-31T09:10:21Z</time>
      </trkpt>
      <trkpt lat="41.8311710" lon="2.7105320">
        <ele>141.6</ele>
        <time>2020-07-31T09:10:29Z</time>
      </trkpt>
      <trkpt lat="41.8310460" lon="2.7106280">
        <ele>141.6</ele>
        <time>2020-07-31T09:10:31Z</time>
      </trkpt>
      <trkpt lat="41.8305500" lon="2.7110240">
        <ele>141.6</ele>
        <time>2020-07-31T09:10:39Z</time>
      </trkpt>
      <trkpt lat="41.8303590" lon="2.7111740">
        <ele>141.4</ele>
        <time>2020-07-31T09:10:42Z</time>
      </trkpt>
      <trkpt lat="41.8298300" lon="2.7115970">
        <ele>141.2</ele>
        <time>2020-07-31T09:10:50Z</time>
      </trkpt>
      <trkpt lat="41.8296230" lon="2.7117620">
        <ele>141.0</ele>
        <time>2020-07-31T09:10:53Z</time>
      </trkpt>
      <trkpt lat="41.8291300" lon="2.7121630">
        <ele>140.8</ele>
        <time>2020-07-31T09:11:00Z</time>
      </trkpt>
      <trkpt lat="41.8289150" lon="2.7123410">
        <ele>140.4</ele>
        <time>2020-07-31T09:11:03Z</time>
      </trkpt>
      <trkpt lat="41.8288420" lon="2.7124000">
        <ele>140.2</ele>
        <time>2020-07-31T09:11:04Z</time>
      </trkpt>
      <trkpt lat="41.8283350" lon="2.7128160">
        <ele>139.4</ele>
        <time>2020-07-31T09:11:11Z</time>
      </trkpt>
      <trkpt lat="41.8281880" lon="2.7129360">
        <ele>139.4</ele>
        <time>2020-07-31T09:11:13Z</time>
      </trkpt>
      <trkpt lat="41.8280400" lon="2.7130560">
        <ele>139.0</ele>
        <time>2020-07-31T09:11:15Z</time>
      </trkpt>
      <trkpt lat="41.8275900" lon="2.7134270">
        <ele>138.4</ele>
        <time>2020-07-31T09:11:21Z</time>
      </trkpt>
      <trkpt lat="41.8272270" lon="2.7137350">
        <ele>138.0</ele>
        <time>2020-07-31T09:11:26Z</time>
      </trkpt>
      <trkpt lat="41.8270650" lon="2.7138100">
        <ele>137.6</ele>
        <time>2020-07-31T09:11:28Z</time>
      </trkpt>
      <trkpt lat="41.8268700" lon="2.7139660">
        <ele>136.8</ele>
        <time>2020-07-31T09:11:31Z</time>
      </trkpt>
      <trkpt lat="41.8266700" lon="2.7142750">
        <ele>136.4</ele>
        <time>2020-07-31T09:11:35Z</time>
      </trkpt>
      <trkpt lat="41.8266030" lon="2.7143460">
        <ele>136.2</ele>
        <time>2020-07-31T09:11:36Z</time>
      </trkpt>
      <trkpt lat="41.8263890" lon="2.7145660">
        <ele>135.8</ele>
        <time>2020-07-31T09:11:39Z</time>
      </trkpt>
      <trkpt lat="41.8262450" lon="2.7147190">
        <ele>135.4</ele>
        <time>2020-07-31T09:11:41Z</time>
      </trkpt>
      <trkpt lat="41.8260230" lon="2.7149480">
        <ele>134.4</ele>
        <time>2020-07-31T09:11:44Z</time>
      </trkpt>
      <trkpt lat="41.8258030" lon="2.7151850">
        <ele>133.2</ele>
        <time>2020-07-31T09:11:47Z</time>
      </trkpt>
      <trkpt lat="41.8256520" lon="2.7153430">
        <ele>132.6</ele>
        <time>2020-07-31T09:11:49Z</time>
      </trkpt>
      <trkpt lat="41.8255750" lon="2.7154230">
        <ele>132.0</ele>
        <time>2020-07-31T09:11:50Z</time>
      </trkpt>
      <trkpt lat="41.8252670" lon="2.7157470">
        <ele>130.8</ele>
        <time>2020-07-31T09:11:54Z</time>
      </trkpt>
      <trkpt lat="41.8250400" lon="2.7159780">
        <ele>129.8</ele>
        <time>2020-07-31T09:11:57Z</time>
      </trkpt>
      <trkpt lat="41.8248960" lon="2.7161300">
        <ele>129.6</ele>
        <time>2020-07-31T09:11:59Z</time>
      </trkpt>
      <trkpt lat="41.8244330" lon="2.7166480">
        <ele>129.2</ele>
        <time>2020-07-31T09:12:06Z</time>
      </trkpt>
      <trkpt lat="41.8240980" lon="2.7170760">
        <ele>128.8</ele>
        <time>2020-07-31T09:12:12Z</time>
      </trkpt>
      <trkpt lat="41.8240020" lon="2.7172080">
        <ele>128.8</ele>
        <time>2020-07-31T09:12:14Z</time>
      </trkpt>
      <trkpt lat="41.8239070" lon="2.7173240">
        <ele>128.8</ele>
        <time>2020-07-31T09:12:16Z</time>
      </trkpt>
      <trkpt lat="41.8238040" lon="2.7175630">
        <ele>128.8</ele>
        <time>2020-07-31T09:12:20Z</time>
      </trkpt>
      <trkpt lat="41.8236820" lon="2.7180100">
        <ele>129.4</ele>
        <time>2020-07-31T09:12:26Z</time>
      </trkpt>
      <trkpt lat="41.8235180" lon="2.7186720">
        <ele>129.6</ele>
        <time>2020-07-31T09:12:33Z</time>
      </trkpt>
      <trkpt lat="41.8233570" lon="2.7193960">
        <ele>129.4</ele>
        <time>2020-07-31T09:12:40Z</time>
      </trkpt>
      <trkpt lat="41.8231930" lon="2.7200860">
        <ele>129.2</ele>
        <time>2020-07-31T09:12:47Z</time>
      </trkpt>
      <trkpt lat="41.8230400" lon="2.7207570">
        <ele>130.0</ele>
        <time>2020-07-31T09:12:54Z</time>
      </trkpt>
      <trkpt lat="41.8228550" lon="2.7215350">
        <ele>130.4</ele>
        <time>2020-07-31T09:13:02Z</time>
      </trkpt>
      <trkpt lat="41.8228310" lon="2.7216400">
        <ele>130.4</ele>
        <time>2020-07-31T09:13:03Z</time>
      </trkpt>
      <trkpt lat="41.8226420" lon="2.7223980">
        <ele>129.8</ele>
        <time>2020-07-31T09:13:10Z</time>
      </trkpt>
      <trkpt lat="41.8225930" lon="2.7224900">
        <ele>130.0</ele>
        <time>2020-07-31T09:13:11Z</time>
      </trkpt>
      <trkpt lat="41.8224880" lon="2.7226640">
        <ele>129.6</ele>
        <time>2020-07-31T09:13:13Z</time>
      </trkpt>
      <trkpt lat="41.8224400" lon="2.7228640">
        <ele>129.0</ele>
        <time>2020-07-31T09:13:15Z</time>
      </trkpt>
      <trkpt lat="41.8224490" lon="2.7230730">
        <ele>128.6</ele>
        <time>2020-07-31T09:13:17Z</time>
      </trkpt>
      <trkpt lat="41.8224500" lon="2.7231780">
        <ele>128.4</ele>
        <time>2020-07-31T09:13:18Z</time>
      </trkpt>
      <trkpt lat="41.8224390" lon="2.7232830">
        <ele>128.2</ele>
        <time>2020-07-31T09:13:19Z</time>
      </trkpt>
      <trkpt lat="41.8223710" lon="2.7235880">
        <ele>128.0</ele>
        <time>2020-07-31T09:13:22Z</time>
      </trkpt>
      <trkpt lat="41.8222980" lon="2.7238800">
        <ele>128.0</ele>
        <time>2020-07-31T09:13:25Z</time>
      </trkpt>
      <trkpt lat="41.8221210" lon="2.7246160">
        <ele>128.2</ele>
        <time>2020-07-31T09:13:33Z</time>
      </trkpt>
      <trkpt lat="41.8220200" lon="2.7250400">
        <ele>129.0</ele>
        <time>2020-07-31T09:13:38Z</time>
      </trkpt>
      <trkpt lat="41.8219600" lon="2.7252820">
        <ele>129.6</ele>
        <time>2020-07-31T09:13:41Z</time>
      </trkpt>
      <trkpt lat="41.8219190" lon="2.7254490">
        <ele>130.2</ele>
        <time>2020-07-31T09:13:43Z</time>
      </trkpt>
      <trkpt lat="41.8217690" lon="2.7260130">
        <ele>131.0</ele>
        <time>2020-07-31T09:13:50Z</time>
      </trkpt>
      <trkpt lat="41.8216840" lon="2.7262430">
        <ele>131.4</ele>
        <time>2020-07-31T09:13:53Z</time>
      </trkpt>
      <trkpt lat="41.8215430" lon="2.7265220">
        <ele>132.0</ele>
        <time>2020-07-31T09:13:57Z</time>
      </trkpt>
      <trkpt lat="41.8213570" lon="2.7268380">
        <ele>132.4</ele>
        <time>2020-07-31T09:14:02Z</time>
      </trkpt>
      <trkpt lat="41.8212500" lon="2.7270000">
        <ele>132.8</ele>
        <time>2020-07-31T09:14:05Z</time>
      </trkpt>
      <trkpt lat="41.8211140" lon="2.7272200">
        <ele>133.6</ele>
        <time>2020-07-31T09:14:09Z</time>
      </trkpt>
      <trkpt lat="41.8209800" lon="2.7274370">
        <ele>134.8</ele>
        <time>2020-07-31T09:14:13Z</time>
      </trkpt>
      <trkpt lat="41.8209480" lon="2.7274910">
        <ele>135.0</ele>
        <time>2020-07-31T09:14:14Z</time>
      </trkpt>
      <trkpt lat="41.8208200" lon="2.7277030">
        <ele>136.0</ele>
        <time>2020-07-31T09:14:18Z</time>
      </trkpt>
      <trkpt lat="41.8207200" lon="2.7278630">
        <ele>137.2</ele>
        <time>2020-07-31T09:14:21Z</time>
      </trkpt>
      <trkpt lat="41.8206540" lon="2.7279660">
        <ele>138.2</ele>
        <time>2020-07-31T09:14:23Z</time>
      </trkpt>
      <trkpt lat="41.8206190" lon="2.7280180">
        <ele>138.8</ele>
        <time>2020-07-31T09:14:24Z</time>
      </trkpt>
      <trkpt lat="41.8204040" lon="2.7283750">
        <ele>139.6</ele>
        <time>2020-07-31T09:14:30Z</time>
      </trkpt>
      <trkpt lat="41.8203280" lon="2.7284980">
        <ele>139.8</ele>
        <time>2020-07-31T09:14:32Z</time>
      </trkpt>
      <trkpt lat="41.8200870" lon="2.7288810">
        <ele>140.0</ele>
        <time>2020-07-31T09:14:38Z</time>
      </trkpt>
      <trkpt lat="41.8197110" lon="2.7294710">
        <ele>140.0</ele>
        <time>2020-07-31T09:14:47Z</time>
      </trkpt>
      <trkpt lat="41.8196310" lon="2.7295970">
        <ele>140.0</ele>
        <time>2020-07-31T09:14:49Z</time>
      </trkpt>
      <trkpt lat="41.8192760" lon="2.7301700">
        <ele>140.4</ele>
        <time>2020-07-31T09:14:58Z</time>
      </trkpt>
      <trkpt lat="41.8191960" lon="2.7302970">
        <ele>140.4</ele>
        <time>2020-07-31T09:15:00Z</time>
      </trkpt>
      <trkpt lat="41.8188350" lon="2.7308760">
        <ele>141.0</ele>
        <time>2020-07-31T09:15:09Z</time>
      </trkpt>
      <trkpt lat="41.8187130" lon="2.7310680">
        <ele>141.2</ele>
        <time>2020-07-31T09:15:12Z</time>
      </trkpt>
      <trkpt lat="41.8184010" lon="2.7314590">
        <ele>141.6</ele>
        <time>2020-07-31T09:15:19Z</time>
      </trkpt>
      <trkpt lat="41.8182440" lon="2.7315090">
        <ele>142.0</ele>
        <time>2020-07-31T09:15:22Z</time>
      </trkpt>
      <trkpt lat="41.8181890" lon="2.7315170">
        <ele>142.0</ele>
        <time>2020-07-31T09:15:23Z</time>
      </trkpt>
      <trkpt lat="41.8180430" lon="2.7316290">
        <ele>142.4</ele>
        <time>2020-07-31T09:15:26Z</time>
      </trkpt>
      <trkpt lat="41.8179930" lon="2.7318610">
        <ele>143.0</ele>
        <time>2020-07-31T09:15:29Z</time>
      </trkpt>
      <trkpt lat="41.8179920" lon="2.7319480">
        <ele>143.2</ele>
        <time>2020-07-31T09:15:30Z</time>
      </trkpt>
      <trkpt lat="41.8179900" lon="2.7320350">
        <ele>143.2</ele>
        <time>2020-07-31T09:15:31Z</time>
      </trkpt>
      <trkpt lat="41.8179560" lon="2.7322040">
        <ele>143.4</ele>
        <time>2020-07-31T09:15:33Z</time>
      </trkpt>
      <trkpt lat="41.8178100" lon="2.7325040">
        <ele>143.8</ele>
        <time>2020-07-31T09:15:37Z</time>
      </trkpt>
      <trkpt lat="41.8177670" lon="2.7325760">
        <ele>143.8</ele>
        <time>2020-07-31T09:15:38Z</time>
      </trkpt>
      <trkpt lat="41.8173940" lon="2.7331820">
        <ele>143.6</ele>
        <time>2020-07-31T09:15:46Z</time>
      </trkpt>
      <trkpt lat="41.8170390" lon="2.7337410">
        <ele>143.2</ele>
        <time>2020-07-31T09:15:53Z</time>
      </trkpt>
      <trkpt lat="41.8169390" lon="2.7339050">
        <ele>143.0</ele>
        <time>2020-07-31T09:15:55Z</time>
      </trkpt>
      <trkpt lat="41.8167880" lon="2.7341530">
        <ele>142.2</ele>
        <time>2020-07-31T09:15:58Z</time>
      </trkpt>
      <trkpt lat="41.8164890" lon="2.7346360">
        <ele>141.0</ele>
        <time>2020-07-31T09:16:04Z</time>
      </trkpt>
      <trkpt lat="41.8161250" lon="2.7352140">
        <ele>140.8</ele>
        <time>2020-07-31T09:16:11Z</time>
      </trkpt>
      <trkpt lat="41.8159620" lon="2.7354790">
        <ele>140.8</ele>
        <time>2020-07-31T09:16:14Z</time>
      </trkpt>
      <trkpt lat="41.8155620" lon="2.7360710">
        <ele>140.4</ele>
        <time>2020-07-31T09:16:21Z</time>
      </trkpt>
      <trkpt lat="41.8154420" lon="2.7362350">
        <ele>139.8</ele>
        <time>2020-07-31T09:16:23Z</time>
      </trkpt>
      <trkpt lat="41.8150210" lon="2.7367810">
        <ele>139.2</ele>
        <time>2020-07-31T09:16:30Z</time>
      </trkpt>
      <trkpt lat="41.8148340" lon="2.7370050">
        <ele>139.2</ele>
        <time>2020-07-31T09:16:33Z</time>
      </trkpt>
      <trkpt lat="41.8145720" lon="2.7373180">
        <ele>139.0</ele>
        <time>2020-07-31T09:16:37Z</time>
      </trkpt>
      <trkpt lat="41.8145100" lon="2.7374040">
        <ele>139.0</ele>
        <time>2020-07-31T09:16:38Z</time>
      </trkpt>
      <trkpt lat="41.8144030" lon="2.7375910">
        <ele>138.8</ele>
        <time>2020-07-31T09:16:40Z</time>
      </trkpt>
      <trkpt lat="41.8142940" lon="2.7377740">
        <ele>138.6</ele>
        <time>2020-07-31T09:16:42Z</time>
      </trkpt>
      <trkpt lat="41.8141530" lon="2.7379020">
        <ele>138.4</ele>
        <time>2020-07-31T09:16:44Z</time>
      </trkpt>
      <trkpt lat="41.8140080" lon="2.7380340">
        <ele>138.0</ele>
        <time>2020-07-31T09:16:46Z</time>
      </trkpt>
      <trkpt lat="41.8139580" lon="2.7381280">
        <ele>137.8</ele>
        <time>2020-07-31T09:16:47Z</time>
      </trkpt>
      <trkpt lat="41.8139150" lon="2.7382350">
        <ele>137.6</ele>
        <time>2020-07-31T09:16:48Z</time>
      </trkpt>
      <trkpt lat="41.8138610" lon="2.7383340">
        <ele>137.2</ele>
        <time>2020-07-31T09:16:49Z</time>
      </trkpt>
      <trkpt lat="41.8137900" lon="2.7384140">
        <ele>137.0</ele>
        <time>2020-07-31T09:16:50Z</time>
      </trkpt>
      <trkpt lat="41.8135320" lon="2.7385650">
        <ele>136.4</ele>
        <time>2020-07-31T09:16:53Z</time>
      </trkpt>
      <trkpt lat="41.8132980" lon="2.7387760">
        <ele>135.8</ele>
        <time>2020-07-31T09:16:56Z</time>
      </trkpt>
      <trkpt lat="41.8132250" lon="2.7388520">
        <ele>135.4</ele>
        <time>2020-07-31T09:16:57Z</time>
      </trkpt>
      <trkpt lat="41.8130810" lon="2.7390090">
        <ele>134.8</ele>
        <time>2020-07-31T09:16:59Z</time>
      </trkpt>
      <trkpt lat="41.8129390" lon="2.7391720">
        <ele>133.6</ele>
        <time>2020-07-31T09:17:01Z</time>
      </trkpt>
      <trkpt lat="41.8125770" lon="2.7395760">
        <ele>132.6</ele>
        <time>2020-07-31T09:17:06Z</time>
      </trkpt>
      <trkpt lat="41.8125050" lon="2.7396560">
        <ele>132.6</ele>
        <time>2020-07-31T09:17:07Z</time>
      </trkpt>
      <trkpt lat="41.8122200" lon="2.7399820">
        <ele>131.6</ele>
        <time>2020-07-31T09:17:11Z</time>
      </trkpt>
      <trkpt lat="41.8119960" lon="2.7402380">
        <ele>130.6</ele>
        <time>2020-07-31T09:17:14Z</time>
      </trkpt>
      <trkpt lat="41.8119200" lon="2.7403260">
        <ele>130.4</ele>
        <time>2020-07-31T09:17:15Z</time>
      </trkpt>
      <trkpt lat="41.8116840" lon="2.7405960">
        <ele>129.4</ele>
        <time>2020-07-31T09:17:18Z</time>
      </trkpt>
      <trkpt lat="41.8113590" lon="2.7409640">
        <ele>128.2</ele>
        <time>2020-07-31T09:17:22Z</time>
      </trkpt>
      <trkpt lat="41.8111170" lon="2.7412410">
        <ele>127.2</ele>
        <time>2020-07-31T09:17:25Z</time>
      </trkpt>
      <trkpt lat="41.8108730" lon="2.7415200">
        <ele>125.8</ele>
        <time>2020-07-31T09:17:28Z</time>
      </trkpt>
      <trkpt lat="41.8105460" lon="2.7418940">
        <ele>124.6</ele>
        <time>2020-07-31T09:17:32Z</time>
      </trkpt>
      <trkpt lat="41.8102970" lon="2.7421700">
        <ele>123.8</ele>
        <time>2020-07-31T09:17:35Z</time>
      </trkpt>
      <trkpt lat="41.8102170" lon="2.7422650">
        <ele>123.6</ele>
        <time>2020-07-31T09:17:36Z</time>
      </trkpt>
      <trkpt lat="41.8099830" lon="2.7425410">
        <ele>122.4</ele>
        <time>2020-07-31T09:17:39Z</time>
      </trkpt>
      <trkpt lat="41.8097530" lon="2.7428050">
        <ele>121.4</ele>
        <time>2020-07-31T09:17:42Z</time>
      </trkpt>
      <trkpt lat="41.8096770" lon="2.7428910">
        <ele>121.0</ele>
        <time>2020-07-31T09:17:43Z</time>
      </trkpt>
      <trkpt lat="41.8093140" lon="2.7433030">
        <ele>120.4</ele>
        <time>2020-07-31T09:17:48Z</time>
      </trkpt>
      <trkpt lat="41.8091030" lon="2.7435340">
        <ele>120.2</ele>
        <time>2020-07-31T09:17:51Z</time>
      </trkpt>
      <trkpt lat="41.8086400" lon="2.7440540">
        <ele>119.4</ele>
        <time>2020-07-31T09:17:58Z</time>
      </trkpt>
      <trkpt lat="41.8083960" lon="2.7443570">
        <ele>119.4</ele>
        <time>2020-07-31T09:18:02Z</time>
      </trkpt>
      <trkpt lat="41.8083570" lon="2.7444490">
        <ele>119.4</ele>
        <time>2020-07-31T09:18:03Z</time>
      </trkpt>
      <trkpt lat="41.8083420" lon="2.7445440">
        <ele>119.4</ele>
        <time>2020-07-31T09:18:04Z</time>
      </trkpt>
      <trkpt lat="41.8083460" lon="2.7446360">
        <ele>119.4</ele>
        <time>2020-07-31T09:18:05Z</time>
      </trkpt>
      <trkpt lat="41.8084090" lon="2.7449010">
        <ele>119.4</ele>
        <time>2020-07-31T09:18:08Z</time>
      </trkpt>
      <trkpt lat="41.8084340" lon="2.7449860">
        <ele>119.4</ele>
        <time>2020-07-31T09:18:09Z</time>
      </trkpt>
      <trkpt lat="41.8085950" lon="2.7456030">
        <ele>119.8</ele>
        <time>2020-07-31T09:18:16Z</time>
      </trkpt>
      <trkpt lat="41.8086710" lon="2.7458550">
        <ele>120.6</ele>
        <time>2020-07-31T09:18:19Z</time>
      </trkpt>
      <trkpt lat="41.8087130" lon="2.7460250">
        <ele>121.2</ele>
        <time>2020-07-31T09:18:21Z</time>
      </trkpt>
      <trkpt lat="41.8087270" lon="2.7461120">
        <ele>121.4</ele>
        <time>2020-07-31T09:18:22Z</time>
      </trkpt>
      <trkpt lat="41.8087400" lon="2.7462000">
        <ele>121.8</ele>
        <time>2020-07-31T09:18:23Z</time>
      </trkpt>
      <trkpt lat="41.8088200" lon="2.7465220">
        <ele>123.0</ele>
        <time>2020-07-31T09:18:27Z</time>
      </trkpt>
      <trkpt lat="41.8089380" lon="2.7468980">
        <ele>124.0</ele>
        <time>2020-07-31T09:18:32Z</time>
      </trkpt>
      <trkpt lat="41.8089600" lon="2.7470530">
        <ele>124.6</ele>
        <time>2020-07-31T09:18:34Z</time>
      </trkpt>
      <trkpt lat="41.8088780" lon="2.7472410">
        <ele>124.8</ele>
        <time>2020-07-31T09:18:37Z</time>
      </trkpt>
      <trkpt lat="41.8087910" lon="2.7473270">
        <ele>125.2</ele>
        <time>2020-07-31T09:18:39Z</time>
      </trkpt>
      <trkpt lat="41.8087440" lon="2.7473660">
        <ele>125.4</ele>
        <time>2020-07-31T09:18:40Z</time>
      </trkpt>
      <trkpt lat="41.8085980" lon="2.7474890">
        <ele>125.8</ele>
        <time>2020-07-31T09:18:43Z</time>
      </trkpt>
      <trkpt lat="41.8084370" lon="2.7476100">
        <ele>126.2</ele>
        <time>2020-07-31T09:18:46Z</time>
      </trkpt>
      <trkpt lat="41.8083100" lon="2.7476770">
        <ele>126.6</ele>
        <time>2020-07-31T09:18:48Z</time>
      </trkpt>
      <trkpt lat="41.8082380" lon="2.7477020">
        <ele>126.6</ele>
        <time>2020-07-31T09:18:49Z</time>
      </trkpt>
      <trkpt lat="41.8078220" lon="2.7477810">
        <ele>126.6</ele>
        <time>2020-07-31T09:18:54Z</time>
      </trkpt>
      <trkpt lat="41.8073230" lon="2.7478620">
        <ele>125.0</ele>
        <time>2020-07-31T09:18:59Z</time>
      </trkpt>
      <trkpt lat="41.8072210" lon="2.7478910">
        <ele>124.6</ele>
        <time>2020-07-31T09:19:00Z</time>
      </trkpt>
      <trkpt lat="41.8071230" lon="2.7479360">
        <ele>124.0</ele>
        <time>2020-07-31T09:19:01Z</time>
      </trkpt>
      <trkpt lat="41.8069540" lon="2.7480760">
        <ele>122.6</ele>
        <time>2020-07-31T09:19:03Z</time>
      </trkpt>
      <trkpt lat="41.8068340" lon="2.7482780">
        <ele>121.4</ele>
        <time>2020-07-31T09:19:05Z</time>
      </trkpt>
      <trkpt lat="41.8067930" lon="2.7483950">
        <ele>120.6</ele>
        <time>2020-07-31T09:19:06Z</time>
      </trkpt>
      <trkpt lat="41.8067600" lon="2.7485190">
        <ele>120.0</ele>
        <time>2020-07-31T09:19:07Z</time>
      </trkpt>
      <trkpt lat="41.8067320" lon="2.7486440">
        <ele>119.6</ele>
        <time>2020-07-31T09:19:08Z</time>
      </trkpt>
      <trkpt lat="41.8066410" lon="2.7490160">
        <ele>119.2</ele>
        <time>2020-07-31T09:19:11Z</time>
      </trkpt>
      <trkpt lat="41.8065320" lon="2.7495830">
        <ele>119.2</ele>
        <time>2020-07-31T09:19:16Z</time>
      </trkpt>
      <trkpt lat="41.8063770" lon="2.7503370">
        <ele>119.6</ele>
        <time>2020-07-31T09:19:23Z</time>
      </trkpt>
      <trkpt lat="41.8063350" lon="2.7505350">
        <ele>119.6</ele>
        <time>2020-07-31T09:19:25Z</time>
      </trkpt>
      <trkpt lat="41.8061730" lon="2.7512880">
        <ele>120.2</ele>
        <time>2020-07-31T09:19:33Z</time>
      </trkpt>
      <trkpt lat="41.8061540" lon="2.7513800">
        <ele>120.2</ele>
        <time>2020-07-31T09:19:34Z</time>
      </trkpt>
      <trkpt lat="41.8060230" lon="2.7519240">
        <ele>121.2</ele>
        <time>2020-07-31T09:19:40Z</time>
      </trkpt>
      <trkpt lat="41.8059740" lon="2.7521070">
        <ele>121.4</ele>
        <time>2020-07-31T09:19:42Z</time>
      </trkpt>
      <trkpt lat="41.8058260" lon="2.7527850">
        <ele>121.4</ele>
        <time>2020-07-31T09:19:49Z</time>
      </trkpt>
      <trkpt lat="41.8056800" lon="2.7535660">
        <ele>120.8</ele>
        <time>2020-07-31T09:19:56Z</time>
      </trkpt>
      <trkpt lat="41.8055880" lon="2.7539280">
        <ele>120.2</ele>
        <time>2020-07-31T09:19:59Z</time>
      </trkpt>
      <trkpt lat="41.8054740" lon="2.7542910">
        <ele>118.8</ele>
        <time>2020-07-31T09:20:02Z</time>
      </trkpt>
      <trkpt lat="41.8053500" lon="2.7546450">
        <ele>117.2</ele>
        <time>2020-07-31T09:20:05Z</time>
      </trkpt>
      <trkpt lat="41.8052690" lon="2.7548680">
        <ele>116.0</ele>
        <time>2020-07-31T09:20:07Z</time>
      </trkpt>
      <trkpt lat="41.8051870" lon="2.7550870">
        <ele>114.8</ele>
        <time>2020-07-31T09:20:09Z</time>
      </trkpt>
      <trkpt lat="41.8049180" lon="2.7558280">
        <ele>114.2</ele>
        <time>2020-07-31T09:20:16Z</time>
      </trkpt>
      <trkpt lat="41.8048120" lon="2.7561340">
        <ele>114.2</ele>
        <time>2020-07-31T09:20:19Z</time>
      </trkpt>
      <trkpt lat="41.8046380" lon="2.7568590">
        <ele>114.8</ele>
        <time>2020-07-31T09:20:26Z</time>
      </trkpt>
      <trkpt lat="41.8045410" lon="2.7576210">
        <ele>116.2</ele>
        <time>2020-07-31T09:20:34Z</time>
      </trkpt>
      <trkpt lat="41.8045000" lon="2.7579780">
        <ele>117.2</ele>
        <time>2020-07-31T09:20:38Z</time>
      </trkpt>
      <trkpt lat="41.8044520" lon="2.7583960">
        <ele>118.4</ele>
        <time>2020-07-31T09:20:43Z</time>
      </trkpt>
      <trkpt lat="41.8044160" lon="2.7587170">
        <ele>119.4</ele>
        <time>2020-07-31T09:20:47Z</time>
      </trkpt>
      <trkpt lat="41.8043730" lon="2.7590980">
        <ele>120.4</ele>
        <time>2020-07-31T09:20:52Z</time>
      </trkpt>
      <trkpt lat="41.8043220" lon="2.7595550">
        <ele>121.6</ele>
        <time>2020-07-31T09:20:58Z</time>
      </trkpt>
      <trkpt lat="41.8043040" lon="2.7597090">
        <ele>121.8</ele>
        <time>2020-07-31T09:21:00Z</time>
      </trkpt>
      <trkpt lat="41.8042300" lon="2.7603820">
        <ele>122.2</ele>
        <time>2020-07-31T09:21:08Z</time>
      </trkpt>
      <trkpt lat="41.8041370" lon="2.7611690">
        <ele>122.4</ele>
        <time>2020-07-31T09:21:17Z</time>
      </trkpt>
      <trkpt lat="41.8041270" lon="2.7612580">
        <ele>122.4</ele>
        <time>2020-07-31T09:21:18Z</time>
      </trkpt>
      <trkpt lat="41.8040420" lon="2.7620270">
        <ele>122.4</ele>
        <time>2020-07-31T09:21:27Z</time>
      </trkpt>
      <trkpt lat="41.8040320" lon="2.7621070">
        <ele>122.4</ele>
        <time>2020-07-31T09:21:28Z</time>
      </trkpt>
      <trkpt lat="41.8040240" lon="2.7621870">
        <ele>122.6</ele>
        <time>2020-07-31T09:21:29Z</time>
      </trkpt>
      <trkpt lat="41.8039780" lon="2.7625680">
        <ele>123.6</ele>
        <time>2020-07-31T09:21:34Z</time>
      </trkpt>
      <trkpt lat="41.8039690" lon="2.7626350">
        <ele>123.8</ele>
        <time>2020-07-31T09:21:35Z</time>
      </trkpt>
      <trkpt lat="41.8039290" lon="2.7628940">
        <ele>124.8</ele>
        <time>2020-07-31T09:21:39Z</time>
      </trkpt>
      <trkpt lat="41.8038820" lon="2.7630800">
        <ele>125.8</ele>
        <time>2020-07-31T09:21:42Z</time>
      </trkpt>
      <trkpt lat="41.8038630" lon="2.7631350">
        <ele>126.0</ele>
        <time>2020-07-31T09:21:43Z</time>
      </trkpt>
      <trkpt lat="41.8038180" lon="2.7632400">
        <ele>126.2</ele>
        <time>2020-07-31T09:21:45Z</time>
      </trkpt>
      <trkpt lat="41.8037600" lon="2.7633370">
        <ele>126.6</ele>
        <time>2020-07-31T09:21:47Z</time>
      </trkpt>
      <trkpt lat="41.8037250" lon="2.7633820">
        <ele>126.6</ele>
        <time>2020-07-31T09:21:48Z</time>
      </trkpt>
      <trkpt lat="41.8036470" lon="2.7634690">
        <ele>127.2</ele>
        <time>2020-07-31T09:21:50Z</time>
      </trkpt>
      <trkpt lat="41.8035180" lon="2.7636050">
        <ele>128.2</ele>
        <time>2020-07-31T09:21:53Z</time>
      </trkpt>
      <trkpt lat="41.8034810" lon="2.7636660">
        <ele>128.6</ele>
        <time>2020-07-31T09:21:54Z</time>
      </trkpt>
      <trkpt lat="41.8033780" lon="2.7639480">
        <ele>128.8</ele>
        <time>2020-07-31T09:21:58Z</time>
      </trkpt>
      <trkpt lat="41.8033510" lon="2.7641010">
        <ele>128.8</ele>
        <time>2020-07-31T09:22:00Z</time>
      </trkpt>
      <trkpt lat="41.8033410" lon="2.7642560">
        <ele>129.0</ele>
        <time>2020-07-31T09:22:02Z</time>
      </trkpt>
      <trkpt lat="41.8033450" lon="2.7643330">
        <ele>129.0</ele>
        <time>2020-07-31T09:22:03Z</time>
      </trkpt>
      <trkpt lat="41.8034160" lon="2.7646220">
        <ele>129.2</ele>
        <time>2020-07-31T09:22:07Z</time>
      </trkpt>
      <trkpt lat="41.8034840" lon="2.7647510">
        <ele>129.2</ele>
        <time>2020-07-31T09:22:09Z</time>
      </trkpt>
      <trkpt lat="41.8035180" lon="2.7648180">
        <ele>129.2</ele>
        <time>2020-07-31T09:22:10Z</time>
      </trkpt>
      <trkpt lat="41.8035750" lon="2.7649650">
        <ele>129.2</ele>
        <time>2020-07-31T09:22:12Z</time>
      </trkpt>
      <trkpt lat="41.8036220" lon="2.7652860">
        <ele>129.6</ele>
        <time>2020-07-31T09:22:16Z</time>
      </trkpt>
      <trkpt lat="41.8036140" lon="2.7654450">
        <ele>129.6</ele>
        <time>2020-07-31T09:22:18Z</time>
      </trkpt>
      <trkpt lat="41.8035840" lon="2.7657620">
        <ele>129.8</ele>
        <time>2020-07-31T09:22:22Z</time>
      </trkpt>
      <trkpt lat="41.8035000" lon="2.7664860">
        <ele>130.2</ele>
        <time>2020-07-31T09:22:31Z</time>
      </trkpt>
      <trkpt lat="41.8034550" lon="2.7668890">
        <ele>130.6</ele>
        <time>2020-07-31T09:22:36Z</time>
      </trkpt>
      <trkpt lat="41.8034300" lon="2.7671310">
        <ele>130.8</ele>
        <time>2020-07-31T09:22:39Z</time>
      </trkpt>
      <trkpt lat="41.8033620" lon="2.7676710">
        <ele>131.8</ele>
        <time>2020-07-31T09:22:46Z</time>
      </trkpt>
      <trkpt lat="41.8033400" lon="2.7678990">
        <ele>132.6</ele>
        <time>2020-07-31T09:22:49Z</time>
      </trkpt>
      <trkpt lat="41.8033250" lon="2.7680470">
        <ele>133.0</ele>
        <time>2020-07-31T09:22:51Z</time>
      </trkpt>
      <trkpt lat="41.8032650" lon="2.7685500">
        <ele>133.6</ele>
        <time>2020-07-31T09:22:58Z</time>
      </trkpt>
      <trkpt lat="41.8032390" lon="2.7687630">
        <ele>134.0</ele>
        <time>2020-07-31T09:23:01Z</time>
      </trkpt>
      <trkpt lat="41.8031660" lon="2.7691980">
        <ele>135.0</ele>
        <time>2020-07-31T09:23:07Z</time>
      </trkpt>
      <trkpt lat="41.8030510" lon="2.7696630">
        <ele>136.0</ele>
        <time>2020-07-31T09:23:13Z</time>
      </trkpt>
      <trkpt lat="41.8029960" lon="2.7698200">
        <ele>136.2</ele>
        <time>2020-07-31T09:23:15Z</time>
      </trkpt>
      <trkpt lat="41.8028470" lon="2.7701210">
        <ele>136.2</ele>
        <time>2020-07-31T09:23:19Z</time>
      </trkpt>
      <trkpt lat="41.8025410" lon="2.7705350">
        <ele>136.2</ele>
        <time>2020-07-31T09:23:25Z</time>
      </trkpt>
      <trkpt lat="41.8020850" lon="2.7709850">
        <ele>135.4</ele>
        <time>2020-07-31T09:23:32Z</time>
      </trkpt>
      <trkpt lat="41.8018790" lon="2.7711830">
        <ele>135.0</ele>
        <time>2020-07-31T09:23:35Z</time>
      </trkpt>
      <trkpt lat="41.8016750" lon="2.7713680">
        <ele>134.0</ele>
        <time>2020-07-31T09:23:38Z</time>
      </trkpt>
      <trkpt lat="41.8014800" lon="2.7715450">
        <ele>133.2</ele>
        <time>2020-07-31T09:23:41Z</time>
      </trkpt>
      <trkpt lat="41.8014190" lon="2.7716010">
        <ele>132.8</ele>
        <time>2020-07-31T09:23:42Z</time>
      </trkpt>
      <trkpt lat="41.8010690" lon="2.7718980">
        <ele>132.4</ele>
        <time>2020-07-31T09:23:48Z</time>
      </trkpt>
      <trkpt lat="41.8006950" lon="2.7722320">
        <ele>133.0</ele>
        <time>2020-07-31T09:23:55Z</time>
      </trkpt>
      <trkpt lat="41.8004280" lon="2.7724670">
        <ele>134.0</ele>
        <time>2020-07-31T09:24:00Z</time>
      </trkpt>
      <trkpt lat="41.8002630" lon="2.7726150">
        <ele>135.2</ele>
        <time>2020-07-31T09:24:03Z</time>
      </trkpt>
      <trkpt lat="41.8000350" lon="2.7728130">
        <ele>135.8</ele>
        <time>2020-07-31T09:24:07Z</time>
      </trkpt>
      <trkpt lat="41.7995690" lon="2.7732210">
        <ele>136.0</ele>
        <time>2020-07-31T09:24:15Z</time>
      </trkpt>
      <trkpt lat="41.7990880" lon="2.7736380">
        <ele>136.0</ele>
        <time>2020-07-31T09:24:23Z</time>
      </trkpt>
      <trkpt lat="41.7989680" lon="2.7737440">
        <ele>136.0</ele>
        <time>2020-07-31T09:24:25Z</time>
      </trkpt>
      <trkpt lat="41.7984870" lon="2.7741800">
        <ele>135.6</ele>
        <time>2020-07-31T09:24:33Z</time>
      </trkpt>
      <trkpt lat="41.7982550" lon="2.7744010">
        <ele>135.6</ele>
        <time>2020-07-31T09:24:37Z</time>
      </trkpt>
      <trkpt lat="41.7977910" lon="2.7748190">
        <ele>135.4</ele>
        <time>2020-07-31T09:24:45Z</time>
      </trkpt>
      <trkpt lat="41.7977320" lon="2.7748670">
        <ele>135.4</ele>
        <time>2020-07-31T09:24:46Z</time>
      </trkpt>
      <trkpt lat="41.7973270" lon="2.7752140">
        <ele>135.6</ele>
        <time>2020-07-31T09:24:53Z</time>
      </trkpt>
      <trkpt lat="41.7972110" lon="2.7753180">
        <ele>135.6</ele>
        <time>2020-07-31T09:24:55Z</time>
      </trkpt>
      <trkpt lat="41.7970340" lon="2.7754770">
        <ele>136.0</ele>
        <time>2020-07-31T09:24:58Z</time>
      </trkpt>
      <trkpt lat="41.7969710" lon="2.7755190">
        <ele>136.2</ele>
        <time>2020-07-31T09:24:59Z</time>
      </trkpt>
      <trkpt lat="41.7969120" lon="2.7755750">
        <ele>136.4</ele>
        <time>2020-07-31T09:25:00Z</time>
      </trkpt>
      <trkpt lat="41.7967850" lon="2.7756690">
        <ele>136.4</ele>
        <time>2020-07-31T09:25:02Z</time>
      </trkpt>
      <trkpt lat="41.7965970" lon="2.7757730">
        <ele>136.6</ele>
        <time>2020-07-31T09:25:05Z</time>
      </trkpt>
      <trkpt lat="41.7965230" lon="2.7757900">
        <ele>136.6</ele>
        <time>2020-07-31T09:25:06Z</time>
      </trkpt>
      <trkpt lat="41.7964070" lon="2.7758740">
        <ele>136.6</ele>
        <time>2020-07-31T09:25:08Z</time>
      </trkpt>
      <trkpt lat="41.7963680" lon="2.7759360">
        <ele>136.6</ele>
        <time>2020-07-31T09:25:09Z</time>
      </trkpt>
      <trkpt lat="41.7963150" lon="2.7759730">
        <ele>136.8</ele>
        <time>2020-07-31T09:25:10Z</time>
      </trkpt>
      <trkpt lat="41.7960450" lon="2.7760480">
        <ele>136.8</ele>
        <time>2020-07-31T09:25:14Z</time>
      </trkpt>
      <trkpt lat="41.7959770" lon="2.7760730">
        <ele>136.8</ele>
        <time>2020-07-31T09:25:15Z</time>
      </trkpt>
      <trkpt lat="41.7958350" lon="2.7761300">
        <ele>136.6</ele>
        <time>2020-07-31T09:25:17Z</time>
      </trkpt>
      <trkpt lat="41.7956900" lon="2.7762070">
        <ele>136.6</ele>
        <time>2020-07-31T09:25:19Z</time>
      </trkpt>
      <trkpt lat="41.7954650" lon="2.7763280">
        <ele>136.6</ele>
        <time>2020-07-31T09:25:22Z</time>
      </trkpt>
      <trkpt lat="41.7954100" lon="2.7763960">
        <ele>136.4</ele>
        <time>2020-07-31T09:25:23Z</time>
      </trkpt>
      <trkpt lat="41.7952740" lon="2.7764830">
        <ele>136.2</ele>
        <time>2020-07-31T09:25:25Z</time>
      </trkpt>
      <trkpt lat="41.7951900" lon="2.7765060">
        <ele>135.8</ele>
        <time>2020-07-31T09:25:26Z</time>
      </trkpt>
      <trkpt lat="41.7951070" lon="2.7765290">
        <ele>135.0</ele>
        <time>2020-07-31T09:25:27Z</time>
      </trkpt>
      <trkpt lat="41.7948590" lon="2.7765700">
        <ele>134.2</ele>
        <time>2020-07-31T09:25:30Z</time>
      </trkpt>
      <trkpt lat="41.7947800" lon="2.7765920">
        <ele>134.0</ele>
        <time>2020-07-31T09:25:31Z</time>
      </trkpt>
      <trkpt lat="41.7946270" lon="2.7766380">
        <ele>133.4</ele>
        <time>2020-07-31T09:25:33Z</time>
      </trkpt>
      <trkpt lat="41.7944870" lon="2.7766060">
        <ele>133.2</ele>
        <time>2020-07-31T09:25:35Z</time>
      </trkpt>
      <trkpt lat="41.7942790" lon="2.7766210">
        <ele>133.2</ele>
        <time>2020-07-31T09:25:38Z</time>
      </trkpt>
      <trkpt lat="41.7940230" lon="2.7767990">
        <ele>133.2</ele>
        <time>2020-07-31T09:25:42Z</time>
      </trkpt>
      <trkpt lat="41.7939480" lon="2.7768250">
        <ele>133.2</ele>
        <time>2020-07-31T09:25:43Z</time>
      </trkpt>
      <trkpt lat="41.7936040" lon="2.7769750">
        <ele>133.0</ele>
        <time>2020-07-31T09:25:48Z</time>
      </trkpt>
      <trkpt lat="41.7934810" lon="2.7770450">
        <ele>133.0</ele>
        <time>2020-07-31T09:25:50Z</time>
      </trkpt>
      <trkpt lat="41.7931510" lon="2.7771120">
        <ele>133.0</ele>
        <time>2020-07-31T09:25:54Z</time>
      </trkpt>
      <trkpt lat="41.7929710" lon="2.7771440">
        <ele>133.0</ele>
        <time>2020-07-31T09:25:56Z</time>
      </trkpt>
      <trkpt lat="41.7923830" lon="2.7772290">
        <ele>132.6</ele>
        <time>2020-07-31T09:26:02Z</time>
      </trkpt>
      <trkpt lat="41.7922830" lon="2.7772430">
        <ele>132.0</ele>
        <time>2020-07-31T09:26:03Z</time>
      </trkpt>
      <trkpt lat="41.7920890" lon="2.7772720">
        <ele>130.8</ele>
        <time>2020-07-31T09:26:05Z</time>
      </trkpt>
      <trkpt lat="41.7918990" lon="2.7773020">
        <ele>129.6</ele>
        <time>2020-07-31T09:26:07Z</time>
      </trkpt>
      <trkpt lat="41.7916210" lon="2.7773470">
        <ele>128.2</ele>
        <time>2020-07-31T09:26:10Z</time>
      </trkpt>
      <trkpt lat="41.7915300" lon="2.7773630">
        <ele>128.2</ele>
        <time>2020-07-31T09:26:11Z</time>
      </trkpt>
      <trkpt lat="41.7909950" lon="2.7774620">
        <ele>128.0</ele>
        <time>2020-07-31T09:26:17Z</time>
      </trkpt>
      <trkpt lat="41.7906230" lon="2.7775160">
        <ele>128.0</ele>
        <time>2020-07-31T09:26:22Z</time>
      </trkpt>
      <trkpt lat="41.7904260" lon="2.7775490">
        <ele>128.4</ele>
        <time>2020-07-31T09:26:25Z</time>
      </trkpt>
      <trkpt lat="41.7903000" lon="2.7775240">
        <ele>129.0</ele>
        <time>2020-07-31T09:26:27Z</time>
      </trkpt>
      <trkpt lat="41.7901790" lon="2.7775050">
        <ele>129.4</ele>
        <time>2020-07-31T09:26:29Z</time>
      </trkpt>
      <trkpt lat="41.7901300" lon="2.7775140">
        <ele>129.8</ele>
        <time>2020-07-31T09:26:30Z</time>
      </trkpt>
      <trkpt lat="41.7900770" lon="2.7775160">
        <ele>130.2</ele>
        <time>2020-07-31T09:26:31Z</time>
      </trkpt>
      <trkpt lat="41.7900200" lon="2.7775030">
        <ele>130.6</ele>
        <time>2020-07-31T09:26:32Z</time>
      </trkpt>
      <trkpt lat="41.7899100" lon="2.7774380">
        <ele>131.2</ele>
        <time>2020-07-31T09:26:34Z</time>
      </trkpt>
      <trkpt lat="41.7898560" lon="2.7773980">
        <ele>131.2</ele>
        <time>2020-07-31T09:26:35Z</time>
      </trkpt>
      <trkpt lat="41.7897440" lon="2.7773110">
        <ele>131.6</ele>
        <time>2020-07-31T09:26:37Z</time>
      </trkpt>
      <trkpt lat="41.7895820" lon="2.7772060">
        <ele>132.8</ele>
        <time>2020-07-31T09:26:40Z</time>
      </trkpt>
      <trkpt lat="41.7895340" lon="2.7771750">
        <ele>133.2</ele>
        <time>2020-07-31T09:26:41Z</time>
      </trkpt>
      <trkpt lat="41.7894400" lon="2.7771040">
        <ele>133.8</ele>
        <time>2020-07-31T09:26:43Z</time>
      </trkpt>
      <trkpt lat="41.7892250" lon="2.7769610">
        <ele>134.8</ele>
        <time>2020-07-31T09:26:47Z</time>
      </trkpt>
      <trkpt lat="41.7891690" lon="2.7769250">
        <ele>135.0</ele>
        <time>2020-07-31T09:26:48Z</time>
      </trkpt>
      <trkpt lat="41.7889960" lon="2.7768290">
        <ele>136.0</ele>
        <time>2020-07-31T09:26:51Z</time>
      </trkpt>
      <trkpt lat="41.7887510" lon="2.7766780">
        <ele>136.2</ele>
        <time>2020-07-31T09:26:55Z</time>
      </trkpt>
      <trkpt lat="41.7882790" lon="2.7764030">
        <ele>136.2</ele>
        <time>2020-07-31T09:27:02Z</time>
      </trkpt>
      <trkpt lat="41.7877960" lon="2.7761240">
        <ele>135.0</ele>
        <time>2020-07-31T09:27:08Z</time>
      </trkpt>
      <trkpt lat="41.7877070" lon="2.7760740">
        <ele>134.6</ele>
        <time>2020-07-31T09:27:09Z</time>
      </trkpt>
      <trkpt lat="41.7874390" lon="2.7759380">
        <ele>133.6</ele>
        <time>2020-07-31T09:27:12Z</time>
      </trkpt>
      <trkpt lat="41.7872560" lon="2.7758890">
        <ele>132.6</ele>
        <time>2020-07-31T09:27:14Z</time>
      </trkpt>
      <trkpt lat="41.7871610" lon="2.7758800">
        <ele>132.2</ele>
        <time>2020-07-31T09:27:15Z</time>
      </trkpt>
      <trkpt lat="41.7869640" lon="2.7758780">
        <ele>130.6</ele>
        <time>2020-07-31T09:27:17Z</time>
      </trkpt>
      <trkpt lat="41.7868690" lon="2.7758940">
        <ele>129.8</ele>
        <time>2020-07-31T09:27:18Z</time>
      </trkpt>
      <trkpt lat="41.7867740" lon="2.7759100">
        <ele>128.8</ele>
        <time>2020-07-31T09:27:19Z</time>
      </trkpt>
      <trkpt lat="41.7864930" lon="2.7759550">
        <ele>127.4</ele>
        <time>2020-07-31T09:27:22Z</time>
      </trkpt>
      <trkpt lat="41.7861240" lon="2.7760140">
        <ele>126.6</ele>
        <time>2020-07-31T09:27:26Z</time>
      </trkpt>
      <trkpt lat="41.7855150" lon="2.7761250">
        <ele>126.4</ele>
        <time>2020-07-31T09:27:33Z</time>
      </trkpt>
      <trkpt lat="41.7854360" lon="2.7761430">
        <ele>126.4</ele>
        <time>2020-07-31T09:27:34Z</time>
      </trkpt>
      <trkpt lat="41.7850080" lon="2.7762160">
        <ele>126.8</ele>
        <time>2020-07-31T09:27:40Z</time>
      </trkpt>
      <trkpt lat="41.7846940" lon="2.7762690">
        <ele>128.8</ele>
        <time>2020-07-31T09:27:45Z</time>
      </trkpt>
      <trkpt lat="41.7845720" lon="2.7762910">
        <ele>129.8</ele>
        <time>2020-07-31T09:27:47Z</time>
      </trkpt>
      <trkpt lat="41.7843880" lon="2.7763220">
        <ele>130.8</ele>
        <time>2020-07-31T09:27:50Z</time>
      </trkpt>
      <trkpt lat="41.7840760" lon="2.7763670">
        <ele>131.8</ele>
        <time>2020-07-31T09:27:55Z</time>
      </trkpt>
      <trkpt lat="41.7840140" lon="2.7763720">
        <ele>132.0</ele>
        <time>2020-07-31T09:27:56Z</time>
      </trkpt>
      <trkpt lat="41.7835760" lon="2.7764460">
        <ele>132.6</ele>
        <time>2020-07-31T09:28:03Z</time>
      </trkpt>
      <trkpt lat="41.7830000" lon="2.7765520">
        <ele>132.6</ele>
        <time>2020-07-31T09:28:11Z</time>
      </trkpt>
      <trkpt lat="41.7824110" lon="2.7766700">
        <ele>131.2</ele>
        <time>2020-07-31T09:28:18Z</time>
      </trkpt>
      <trkpt lat="41.7820500" lon="2.7767440">
        <ele>130.0</ele>
        <time>2020-07-31T09:28:22Z</time>
      </trkpt>
      <trkpt lat="41.7817010" lon="2.7768060">
        <ele>128.8</ele>
        <time>2020-07-31T09:28:26Z</time>
      </trkpt>
      <trkpt lat="41.7815320" lon="2.7768390">
        <ele>128.4</ele>
        <time>2020-07-31T09:28:28Z</time>
      </trkpt>
      <trkpt lat="41.7809440" lon="2.7769690">
        <ele>128.2</ele>
        <time>2020-07-31T09:28:35Z</time>
      </trkpt>
      <trkpt lat="41.7806140" lon="2.7770410">
        <ele>128.0</ele>
        <time>2020-07-31T09:28:39Z</time>
      </trkpt>
      <trkpt lat="41.7800590" lon="2.7771620">
        <ele>127.8</ele>
        <time>2020-07-31T09:28:46Z</time>
      </trkpt>
      <trkpt lat="41.7795970" lon="2.7772540">
        <ele>127.8</ele>
        <time>2020-07-31T09:28:52Z</time>
      </trkpt>
      <trkpt lat="41.7790080" lon="2.7773580">
        <ele>128.6</ele>
        <time>2020-07-31T09:29:00Z</time>
      </trkpt>
      <trkpt lat="41.7784520" lon="2.7774630">
        <ele>129.8</ele>
        <time>2020-07-31T09:29:08Z</time>
      </trkpt>
      <trkpt lat="41.7783810" lon="2.7774770">
        <ele>130.0</ele>
        <time>2020-07-31T09:29:09Z</time>
      </trkpt>
      <trkpt lat="41.7781660" lon="2.7775100">
        <ele>130.8</ele>
        <time>2020-07-31T09:29:12Z</time>
      </trkpt>
      <trkpt lat="41.7780260" lon="2.7775390">
        <ele>131.2</ele>
        <time>2020-07-31T09:29:14Z</time>
      </trkpt>
      <trkpt lat="41.7774780" lon="2.7776390">
        <ele>132.0</ele>
        <time>2020-07-31T09:29:22Z</time>
      </trkpt>
      <trkpt lat="41.7774110" lon="2.7776520">
        <ele>132.0</ele>
        <time>2020-07-31T09:29:23Z</time>
      </trkpt>
      <trkpt lat="41.7770800" lon="2.7777100">
        <ele>132.2</ele>
        <time>2020-07-31T09:29:28Z</time>
      </trkpt>
      <trkpt lat="41.7765540" lon="2.7778120">
        <ele>133.4</ele>
        <time>2020-07-31T09:29:36Z</time>
      </trkpt>
      <trkpt lat="41.7760200" lon="2.7779130">
        <ele>134.4</ele>
        <time>2020-07-31T09:29:44Z</time>
      </trkpt>
      <trkpt lat="41.7758830" lon="2.7779370">
        <ele>134.6</ele>
        <time>2020-07-31T09:29:46Z</time>
      </trkpt>
      <trkpt lat="41.7754010" lon="2.7780220">
        <ele>135.6</ele>
        <time>2020-07-31T09:29:53Z</time>
      </trkpt>
      <trkpt lat="41.7751280" lon="2.7780720">
        <ele>135.8</ele>
        <time>2020-07-31T09:29:57Z</time>
      </trkpt>
      <trkpt lat="41.7745290" lon="2.7781840">
        <ele>136.0</ele>
        <time>2020-07-31T09:30:06Z</time>
      </trkpt>
      <trkpt lat="41.7744610" lon="2.7781950">
        <ele>135.8</ele>
        <time>2020-07-31T09:30:07Z</time>
      </trkpt>
      <trkpt lat="41.7739240" lon="2.7783000">
        <ele>136.6</ele>
        <time>2020-07-31T09:30:15Z</time>
      </trkpt>
      <trkpt lat="41.7737230" lon="2.7783530">
        <ele>136.6</ele>
        <time>2020-07-31T09:30:18Z</time>
      </trkpt>
      <trkpt lat="41.7735910" lon="2.7784020">
        <ele>136.8</ele>
        <time>2020-07-31T09:30:20Z</time>
      </trkpt>
      <trkpt lat="41.7733270" lon="2.7785510">
        <ele>137.6</ele>
        <time>2020-07-31T09:30:24Z</time>
      </trkpt>
      <trkpt lat="41.7730120" lon="2.7788290">
        <ele>137.6</ele>
        <time>2020-07-31T09:30:29Z</time>
      </trkpt>
      <trkpt lat="41.7726660" lon="2.7792850">
        <ele>137.4</ele>
        <time>2020-07-31T09:30:35Z</time>
      </trkpt>
      <trkpt lat="41.7722260" lon="2.7798220">
        <ele>136.0</ele>
        <time>2020-07-31T09:30:42Z</time>
      </trkpt>
      <trkpt lat="41.7720810" lon="2.7799400">
        <ele>135.4</ele>
        <time>2020-07-31T09:30:44Z</time>
      </trkpt>
      <trkpt lat="41.7718540" lon="2.7800740">
        <ele>134.8</ele>
        <time>2020-07-31T09:30:47Z</time>
      </trkpt>
      <trkpt lat="41.7714670" lon="2.7801730">
        <ele>134.6</ele>
        <time>2020-07-31T09:30:52Z</time>
      </trkpt>
      <trkpt lat="41.7710990" lon="2.7801830">
        <ele>134.6</ele>
        <time>2020-07-31T09:30:57Z</time>
      </trkpt>
      <trkpt lat="41.7705070" lon="2.7802630">
        <ele>135.4</ele>
        <time>2020-07-31T09:31:05Z</time>
      </trkpt>
      <trkpt lat="41.7704330" lon="2.7802740">
        <ele>135.4</ele>
        <time>2020-07-31T09:31:06Z</time>
      </trkpt>
      <trkpt lat="41.7699280" lon="2.7803640">
        <ele>135.6</ele>
        <time>2020-07-31T09:31:13Z</time>
      </trkpt>
      <trkpt lat="41.7693490" lon="2.7804680">
        <ele>136.0</ele>
        <time>2020-07-31T09:31:21Z</time>
      </trkpt>
      <trkpt lat="41.7691390" lon="2.7805000">
        <ele>136.4</ele>
        <time>2020-07-31T09:31:24Z</time>
      </trkpt>
      <trkpt lat="41.7688660" lon="2.7805440">
        <ele>136.8</ele>
        <time>2020-07-31T09:31:28Z</time>
      </trkpt>
      <trkpt lat="41.7683290" lon="2.7806270">
        <ele>137.6</ele>
        <time>2020-07-31T09:31:36Z</time>
      </trkpt>
      <trkpt lat="41.7681960" lon="2.7806460">
        <ele>137.8</ele>
        <time>2020-07-31T09:31:38Z</time>
      </trkpt>
      <trkpt lat="41.7676050" lon="2.7807240">
        <ele>138.2</ele>
        <time>2020-07-31T09:31:47Z</time>
      </trkpt>
      <trkpt lat="41.7674700" lon="2.7807400">
        <ele>138.4</ele>
        <time>2020-07-31T09:31:49Z</time>
      </trkpt>
      <trkpt lat="41.7672010" lon="2.7807800">
        <ele>138.8</ele>
        <time>2020-07-31T09:31:53Z</time>
      </trkpt>
      <trkpt lat="41.7667910" lon="2.7808450">
        <ele>139.4</ele>
        <time>2020-07-31T09:31:59Z</time>
      </trkpt>
      <trkpt lat="41.7662360" lon="2.7809260">
        <ele>139.4</ele>
        <time>2020-07-31T09:32:07Z</time>
      </trkpt>
      <trkpt lat="41.7659620" lon="2.7809740">
        <ele>139.6</ele>
        <time>2020-07-31T09:32:11Z</time>
      </trkpt>
      <trkpt lat="41.7654180" lon="2.7810640">
        <ele>139.8</ele>
        <time>2020-07-31T09:32:19Z</time>
      </trkpt>
      <trkpt lat="41.7652830" lon="2.7810890">
        <ele>140.0</ele>
        <time>2020-07-31T09:32:21Z</time>
      </trkpt>
      <trkpt lat="41.7648280" lon="2.7812400">
        <ele>140.0</ele>
        <time>2020-07-31T09:32:28Z</time>
      </trkpt>
      <trkpt lat="41.7643290" lon="2.7815510">
        <ele>140.6</ele>
        <time>2020-07-31T09:32:36Z</time>
      </trkpt>
      <trkpt lat="41.7639700" lon="2.7818060">
        <ele>141.0</ele>
        <time>2020-07-31T09:32:42Z</time>
      </trkpt>
      <trkpt lat="41.7637940" lon="2.7819240">
        <ele>141.2</ele>
        <time>2020-07-31T09:32:45Z</time>
      </trkpt>
      <trkpt lat="41.7634190" lon="2.7821580">
        <ele>141.4</ele>
        <time>2020-07-31T09:32:51Z</time>
      </trkpt>
      <trkpt lat="41.7632220" lon="2.7822620">
        <ele>141.6</ele>
        <time>2020-07-31T09:32:54Z</time>
      </trkpt>
      <trkpt lat="41.7630160" lon="2.7823360">
        <ele>141.8</ele>
        <time>2020-07-31T09:32:57Z</time>
      </trkpt>
      <trkpt lat="41.7629460" lon="2.7823490">
        <ele>141.8</ele>
        <time>2020-07-31T09:32:58Z</time>
      </trkpt>
      <trkpt lat="41.7628080" lon="2.7823610">
        <ele>141.8</ele>
        <time>2020-07-31T09:33:00Z</time>
      </trkpt>
      <trkpt lat="41.7627360" lon="2.7823620">
        <ele>141.8</ele>
        <time>2020-07-31T09:33:01Z</time>
      </trkpt>
      <trkpt lat="41.7624600" lon="2.7823130">
        <ele>141.8</ele>
        <time>2020-07-31T09:33:05Z</time>
      </trkpt>
      <trkpt lat="41.7623930" lon="2.7822890">
        <ele>141.8</ele>
        <time>2020-07-31T09:33:06Z</time>
      </trkpt>
      <trkpt lat="41.7620250" lon="2.7820760">
        <ele>142.0</ele>
        <time>2020-07-31T09:33:12Z</time>
      </trkpt>
      <trkpt lat="41.7619700" lon="2.7820340">
        <ele>142.2</ele>
        <time>2020-07-31T09:33:13Z</time>
      </trkpt>
      <trkpt lat="41.7616450" lon="2.7817640">
        <ele>143.0</ele>
        <time>2020-07-31T09:33:19Z</time>
      </trkpt>
      <trkpt lat="41.7615300" lon="2.7816740">
        <ele>143.4</ele>
        <time>2020-07-31T09:33:21Z</time>
      </trkpt>
      <trkpt lat="41.7614130" lon="2.7815950">
        <ele>143.8</ele>
        <time>2020-07-31T09:33:23Z</time>
      </trkpt>
      <trkpt lat="41.7612910" lon="2.7815360">
        <ele>144.2</ele>
        <time>2020-07-31T09:33:25Z</time>
      </trkpt>
      <trkpt lat="41.7612260" lon="2.7815130">
        <ele>144.4</ele>
        <time>2020-07-31T09:33:26Z</time>
      </trkpt>
      <trkpt lat="41.7610170" lon="2.7814770">
        <ele>144.4</ele>
        <time>2020-07-31T09:33:29Z</time>
      </trkpt>
      <trkpt lat="41.7606710" lon="2.7815320">
        <ele>145.0</ele>
        <time>2020-07-31T09:33:34Z</time>
      </trkpt>
      <trkpt lat="41.7603460" lon="2.7817230">
        <ele>145.2</ele>
        <time>2020-07-31T09:33:39Z</time>
      </trkpt>
      <trkpt lat="41.7602290" lon="2.7818360">
        <ele>145.4</ele>
        <time>2020-07-31T09:33:41Z</time>
      </trkpt>
      <trkpt lat="41.7600730" lon="2.7820440">
        <ele>145.4</ele>
        <time>2020-07-31T09:33:44Z</time>
      </trkpt>
      <trkpt lat="41.7598830" lon="2.7824730">
        <ele>145.4</ele>
        <time>2020-07-31T09:33:49Z</time>
      </trkpt>
      <trkpt lat="41.7597880" lon="2.7829720">
        <ele>145.4</ele>
        <time>2020-07-31T09:33:54Z</time>
      </trkpt>
      <trkpt lat="41.7597010" lon="2.7836960">
        <ele>145.6</ele>
        <time>2020-07-31T09:34:01Z</time>
      </trkpt>
      <trkpt lat="41.7595200" lon="2.7842700">
        <ele>145.6</ele>
        <time>2020-07-31T09:34:07Z</time>
      </trkpt>
      <trkpt lat="41.7592840" lon="2.7846540">
        <ele>145.2</ele>
        <time>2020-07-31T09:34:12Z</time>
      </trkpt>
      <trkpt lat="41.7588470" lon="2.7851520">
        <ele>145.4</ele>
        <time>2020-07-31T09:34:20Z</time>
      </trkpt>
      <trkpt lat="41.7587270" lon="2.7852670">
        <ele>146.0</ele>
        <time>2020-07-31T09:34:22Z</time>
      </trkpt>
      <trkpt lat="41.7584590" lon="2.7854360">
        <ele>146.4</ele>
        <time>2020-07-31T09:34:26Z</time>
      </trkpt>
      <trkpt lat="41.7583880" lon="2.7854640">
        <ele>146.4</ele>
        <time>2020-07-31T09:34:27Z</time>
      </trkpt>
      <trkpt lat="41.7583160" lon="2.7854840">
        <ele>146.6</ele>
        <time>2020-07-31T09:34:28Z</time>
      </trkpt>
      <trkpt lat="41.7581000" lon="2.7854940">
        <ele>146.6</ele>
        <time>2020-07-31T09:34:31Z</time>
      </trkpt>
      <trkpt lat="41.7577570" lon="2.7853720">
        <ele>146.8</ele>
        <time>2020-07-31T09:34:36Z</time>
      </trkpt>
      <trkpt lat="41.7573320" lon="2.7850760">
        <ele>147.0</ele>
        <time>2020-07-31T09:34:43Z</time>
      </trkpt>
      <trkpt lat="41.7570800" lon="2.7849340">
        <ele>147.6</ele>
        <time>2020-07-31T09:34:47Z</time>
      </trkpt>
      <trkpt lat="41.7569500" lon="2.7848860">
        <ele>147.8</ele>
        <time>2020-07-31T09:34:49Z</time>
      </trkpt>
      <trkpt lat="41.7566810" lon="2.7848470">
        <ele>148.6</ele>
        <time>2020-07-31T09:34:53Z</time>
      </trkpt>
      <trkpt lat="41.7565460" lon="2.7848590">
        <ele>148.6</ele>
        <time>2020-07-31T09:34:55Z</time>
      </trkpt>
      <trkpt lat="41.7562270" lon="2.7849780">
        <ele>148.8</ele>
        <time>2020-07-31T09:35:00Z</time>
      </trkpt>
      <trkpt lat="41.7559520" lon="2.7852050">
        <ele>148.8</ele>
        <time>2020-07-31T09:35:05Z</time>
      </trkpt>
      <trkpt lat="41.7556940" lon="2.7856010">
        <ele>149.0</ele>
        <time>2020-07-31T09:35:11Z</time>
      </trkpt>
      <trkpt lat="41.7555780" lon="2.7859210">
        <ele>149.8</ele>
        <time>2020-07-31T09:35:15Z</time>
      </trkpt>
      <trkpt lat="41.7555360" lon="2.7860910">
        <ele>149.8</ele>
        <time>2020-07-31T09:35:17Z</time>
      </trkpt>
      <trkpt lat="41.7554190" lon="2.7867860">
        <ele>150.0</ele>
        <time>2020-07-31T09:35:25Z</time>
      </trkpt>
      <trkpt lat="41.7553000" lon="2.7875600">
        <ele>150.8</ele>
        <time>2020-07-31T09:35:34Z</time>
      </trkpt>
      <trkpt lat="41.7552860" lon="2.7876460">
        <ele>151.0</ele>
        <time>2020-07-31T09:35:35Z</time>
      </trkpt>
      <trkpt lat="41.7551740" lon="2.7883580">
        <ele>151.6</ele>
        <time>2020-07-31T09:35:43Z</time>
      </trkpt>
      <trkpt lat="41.7551460" lon="2.7885410">
        <ele>151.8</ele>
        <time>2020-07-31T09:35:45Z</time>
      </trkpt>
      <trkpt lat="41.7551030" lon="2.7888140">
        <ele>151.8</ele>
        <time>2020-07-31T09:35:48Z</time>
      </trkpt>
      <trkpt lat="41.7550160" lon="2.7893710">
        <ele>152.0</ele>
        <time>2020-07-31T09:35:54Z</time>
      </trkpt>
      <trkpt lat="41.7549000" lon="2.7901010">
        <ele>152.2</ele>
        <time>2020-07-31T09:36:02Z</time>
      </trkpt>
      <trkpt lat="41.7548860" lon="2.7901860">
        <ele>152.2</ele>
        <time>2020-07-31T09:36:03Z</time>
      </trkpt>
      <trkpt lat="41.7548120" lon="2.7906800">
        <ele>153.0</ele>
        <time>2020-07-31T09:36:09Z</time>
      </trkpt>
      <trkpt lat="41.7547760" lon="2.7909190">
        <ele>153.2</ele>
        <time>2020-07-31T09:36:12Z</time>
      </trkpt>
      <trkpt lat="41.7547260" lon="2.7912430">
        <ele>154.0</ele>
        <time>2020-07-31T09:36:16Z</time>
      </trkpt>
      <trkpt lat="41.7546880" lon="2.7914830">
        <ele>155.0</ele>
        <time>2020-07-31T09:36:19Z</time>
      </trkpt>
      <trkpt lat="41.7546400" lon="2.7917870">
        <ele>155.8</ele>
        <time>2020-07-31T09:36:23Z</time>
      </trkpt>
      <trkpt lat="41.7546300" lon="2.7918600">
        <ele>156.2</ele>
        <time>2020-07-31T09:36:24Z</time>
      </trkpt>
      <trkpt lat="41.7545870" lon="2.7923760">
        <ele>157.2</ele>
        <time>2020-07-31T09:36:31Z</time>
      </trkpt>
      <trkpt lat="41.7545870" lon="2.7924590">
        <ele>157.2</ele>
        <time>2020-07-31T09:36:32Z</time>
      </trkpt>
      <trkpt lat="41.7546050" lon="2.7929550">
        <ele>158.2</ele>
        <time>2020-07-31T09:36:38Z</time>
      </trkpt>
      <trkpt lat="41.7546540" lon="2.7937240">
        <ele>158.8</ele>
        <time>2020-07-31T09:36:47Z</time>
      </trkpt>
      <trkpt lat="41.7546700" lon="2.7939910">
        <ele>158.8</ele>
        <time>2020-07-31T09:36:50Z</time>
      </trkpt>
      <trkpt lat="41.7547250" lon="2.7947140">
        <ele>159.4</ele>
        <time>2020-07-31T09:36:58Z</time>
      </trkpt>
      <trkpt lat="41.7547550" lon="2.7948930">
        <ele>159.6</ele>
        <time>2020-07-31T09:37:00Z</time>
      </trkpt>
      <trkpt lat="41.7549290" lon="2.7955160">
        <ele>159.8</ele>
        <time>2020-07-31T09:37:07Z</time>
      </trkpt>
      <trkpt lat="41.7551630" lon="2.7962120">
        <ele>159.2</ele>
        <time>2020-07-31T09:37:15Z</time>
      </trkpt>
      <trkpt lat="41.7552160" lon="2.7963850">
        <ele>159.0</ele>
        <time>2020-07-31T09:37:17Z</time>
      </trkpt>
      <trkpt lat="41.7553670" lon="2.7971190">
        <ele>158.6</ele>
        <time>2020-07-31T09:37:25Z</time>
      </trkpt>
      <trkpt lat="41.7553680" lon="2.7977000">
        <ele>158.8</ele>
        <time>2020-07-31T09:37:31Z</time>
      </trkpt>
      <trkpt lat="41.7552720" lon="2.7982570">
        <ele>159.0</ele>
        <time>2020-07-31T09:37:37Z</time>
      </trkpt>
      <trkpt lat="41.7550870" lon="2.7988700">
        <ele>159.6</ele>
        <time>2020-07-31T09:37:44Z</time>
      </trkpt>
      <trkpt lat="41.7548460" lon="2.7995900">
        <ele>160.0</ele>
        <time>2020-07-31T09:37:52Z</time>
      </trkpt>
      <trkpt lat="41.7548160" lon="2.7996810">
        <ele>160.2</ele>
        <time>2020-07-31T09:37:53Z</time>
      </trkpt>
      <trkpt lat="41.7546220" lon="2.8002280">
        <ele>160.4</ele>
        <time>2020-07-31T09:37:59Z</time>
      </trkpt>
      <trkpt lat="41.7543570" lon="2.8009390">
        <ele>160.6</ele>
        <time>2020-07-31T09:38:07Z</time>
      </trkpt>
      <trkpt lat="41.7541590" lon="2.8014340">
        <ele>161.2</ele>
        <time>2020-07-31T09:38:13Z</time>
      </trkpt>
      <trkpt lat="41.7540350" lon="2.8017520">
        <ele>161.6</ele>
        <time>2020-07-31T09:38:17Z</time>
      </trkpt>
      <trkpt lat="41.7539200" lon="2.8020710">
        <ele>162.4</ele>
        <time>2020-07-31T09:38:21Z</time>
      </trkpt>
      <trkpt lat="41.7538370" lon="2.8023970">
        <ele>163.0</ele>
        <time>2020-07-31T09:38:25Z</time>
      </trkpt>
      <trkpt lat="41.7538090" lon="2.8025720">
        <ele>163.4</ele>
        <time>2020-07-31T09:38:27Z</time>
      </trkpt>
      <trkpt lat="41.7537610" lon="2.8030330">
        <ele>164.6</ele>
        <time>2020-07-31T09:38:32Z</time>
      </trkpt>
      <trkpt lat="41.7536510" lon="2.8037810">
        <ele>165.6</ele>
        <time>2020-07-31T09:38:40Z</time>
      </trkpt>
      <trkpt lat="41.7536320" lon="2.8038690">
        <ele>165.6</ele>
        <time>2020-07-31T09:38:41Z</time>
      </trkpt>
      <trkpt lat="41.7534810" lon="2.8044550">
        <ele>165.6</ele>
        <time>2020-07-31T09:38:48Z</time>
      </trkpt>
      <trkpt lat="41.7532900" lon="2.8051900">
        <ele>166.0</ele>
        <time>2020-07-31T09:38:57Z</time>
      </trkpt>
      <trkpt lat="41.7532450" lon="2.8053520">
        <ele>166.0</ele>
        <time>2020-07-31T09:38:59Z</time>
      </trkpt>
      <trkpt lat="41.7531230" lon="2.8058220">
        <ele>166.2</ele>
        <time>2020-07-31T09:39:05Z</time>
      </trkpt>
      <trkpt lat="41.7531020" lon="2.8058990">
        <ele>166.4</ele>
        <time>2020-07-31T09:39:06Z</time>
      </trkpt>
      <trkpt lat="41.7530430" lon="2.8061260">
        <ele>167.0</ele>
        <time>2020-07-31T09:39:09Z</time>
      </trkpt>
      <trkpt lat="41.7529810" lon="2.8063500">
        <ele>167.6</ele>
        <time>2020-07-31T09:39:12Z</time>
      </trkpt>
      <trkpt lat="41.7528430" lon="2.8068720">
        <ele>168.8</ele>
        <time>2020-07-31T09:39:19Z</time>
      </trkpt>
      <trkpt lat="41.7526580" lon="2.8075210">
        <ele>170.0</ele>
        <time>2020-07-31T09:39:28Z</time>
      </trkpt>
      <trkpt lat="41.7526330" lon="2.8075910">
        <ele>170.2</ele>
        <time>2020-07-31T09:39:29Z</time>
      </trkpt>
      <trkpt lat="41.7524070" lon="2.8080980">
        <ele>171.0</ele>
        <time>2020-07-31T09:39:37Z</time>
      </trkpt>
      <trkpt lat="41.7523770" lon="2.8081600">
        <ele>171.0</ele>
        <time>2020-07-31T09:39:38Z</time>
      </trkpt>
      <trkpt lat="41.7521690" lon="2.8085880">
        <ele>171.2</ele>
        <time>2020-07-31T09:39:45Z</time>
      </trkpt>
      <trkpt lat="41.7520130" lon="2.8089170">
        <ele>172.0</ele>
        <time>2020-07-31T09:39:50Z</time>
      </trkpt>
      <trkpt lat="41.7519110" lon="2.8091260">
        <ele>172.4</ele>
        <time>2020-07-31T09:39:53Z</time>
      </trkpt>
      <trkpt lat="41.7515930" lon="2.8097810">
        <ele>173.0</ele>
        <time>2020-07-31T09:40:02Z</time>
      </trkpt>
      <trkpt lat="41.7515600" lon="2.8098560">
        <ele>173.2</ele>
        <time>2020-07-31T09:40:03Z</time>
      </trkpt>
      <trkpt lat="41.7512680" lon="2.8105460">
        <ele>174.0</ele>
        <time>2020-07-31T09:40:12Z</time>
      </trkpt>
      <trkpt lat="41.7512360" lon="2.8106300">
        <ele>174.0</ele>
        <time>2020-07-31T09:40:13Z</time>
      </trkpt>
      <trkpt lat="41.7511400" lon="2.8108870">
        <ele>174.2</ele>
        <time>2020-07-31T09:40:16Z</time>
      </trkpt>
      <trkpt lat="41.7509500" lon="2.8114260">
        <ele>174.2</ele>
        <time>2020-07-31T09:40:22Z</time>
      </trkpt>
      <trkpt lat="41.7506870" lon="2.8121670">
        <ele>174.6</ele>
        <time>2020-07-31T09:40:30Z</time>
      </trkpt>
      <trkpt lat="41.7504230" lon="2.8128950">
        <ele>174.8</ele>
        <time>2020-07-31T09:40:38Z</time>
      </trkpt>
      <trkpt lat="41.7503590" lon="2.8130740">
        <ele>175.2</ele>
        <time>2020-07-31T09:40:40Z</time>
      </trkpt>
      <trkpt lat="41.7503270" lon="2.8131630">
        <ele>175.2</ele>
        <time>2020-07-31T09:40:41Z</time>
      </trkpt>
      <trkpt lat="41.7501700" lon="2.8135970">
        <ele>175.4</ele>
        <time>2020-07-31T09:40:46Z</time>
      </trkpt>
      <trkpt lat="41.7499400" lon="2.8142660">
        <ele>175.8</ele>
        <time>2020-07-31T09:40:54Z</time>
      </trkpt>
      <trkpt lat="41.7498490" lon="2.8145100">
        <ele>176.0</ele>
        <time>2020-07-31T09:40:57Z</time>
      </trkpt>
      <trkpt lat="41.7496780" lon="2.8148920">
        <ele>176.2</ele>
        <time>2020-07-31T09:41:02Z</time>
      </trkpt>
      <trkpt lat="41.7494140" lon="2.8152820">
        <ele>177.0</ele>
        <time>2020-07-31T09:41:08Z</time>
      </trkpt>
      <trkpt lat="41.7493670" lon="2.8153370">
        <ele>177.2</ele>
        <time>2020-07-31T09:41:09Z</time>
      </trkpt>
      <trkpt lat="41.7491080" lon="2.8155540">
        <ele>177.8</ele>
        <time>2020-07-31T09:41:14Z</time>
      </trkpt>
      <trkpt lat="41.7490020" lon="2.8156100">
        <ele>178.6</ele>
        <time>2020-07-31T09:41:16Z</time>
      </trkpt>
      <trkpt lat="41.7487310" lon="2.8157040">
        <ele>179.2</ele>
        <time>2020-07-31T09:41:21Z</time>
      </trkpt>
      <trkpt lat="41.7485230" lon="2.8157680">
        <ele>179.8</ele>
        <time>2020-07-31T09:41:25Z</time>
      </trkpt>
      <trkpt lat="41.7483160" lon="2.8158240">
        <ele>180.8</ele>
        <time>2020-07-31T09:41:29Z</time>
      </trkpt>
      <trkpt lat="41.7481680" lon="2.8158660">
        <ele>182.0</ele>
        <time>2020-07-31T09:41:32Z</time>
      </trkpt>
      <trkpt lat="41.7478440" lon="2.8159600">
        <ele>183.2</ele>
        <time>2020-07-31T09:41:39Z</time>
      </trkpt>
      <trkpt lat="41.7476090" lon="2.8160400">
        <ele>184.4</ele>
        <time>2020-07-31T09:41:44Z</time>
      </trkpt>
      <trkpt lat="41.7474270" lon="2.8160850">
        <ele>185.0</ele>
        <time>2020-07-31T09:41:48Z</time>
      </trkpt>
      <trkpt lat="41.7473820" lon="2.8160990">
        <ele>185.4</ele>
        <time>2020-07-31T09:41:49Z</time>
      </trkpt>
      <trkpt lat="41.7471310" lon="2.8161570">
        <ele>186.4</ele>
        <time>2020-07-31T09:41:55Z</time>
      </trkpt>
      <trkpt lat="41.7469290" lon="2.8161830">
        <ele>187.2</ele>
        <time>2020-07-31T09:42:00Z</time>
      </trkpt>
      <trkpt lat="41.7468470" lon="2.8161850">
        <ele>187.4</ele>
        <time>2020-07-31T09:42:02Z</time>
      </trkpt>
      <trkpt lat="41.7467260" lon="2.8161830">
        <ele>188.4</ele>
        <time>2020-07-31T09:42:05Z</time>
      </trkpt>
      <trkpt lat="41.7465650" lon="2.8161740">
        <ele>189.8</ele>
        <time>2020-07-31T09:42:09Z</time>
      </trkpt>
      <trkpt lat="41.7464860" lon="2.8161630">
        <ele>190.0</ele>
        <time>2020-07-31T09:42:11Z</time>
      </trkpt>
      <trkpt lat="41.7463700" lon="2.8161410">
        <ele>190.8</ele>
        <time>2020-07-31T09:42:14Z</time>
      </trkpt>
      <trkpt lat="41.7462170" lon="2.8161110">
        <ele>191.8</ele>
        <time>2020-07-31T09:42:18Z</time>
      </trkpt>
      <trkpt lat="41.7461800" lon="2.8161030">
        <ele>192.0</ele>
        <time>2020-07-31T09:42:19Z</time>
      </trkpt>
      <trkpt lat="41.7459860" lon="2.8160540">
        <ele>193.0</ele>
        <time>2020-07-31T09:42:24Z</time>
      </trkpt>
      <trkpt lat="41.7459140" lon="2.8160300">
        <ele>194.0</ele>
        <time>2020-07-31T09:42:26Z</time>
      </trkpt>
      <trkpt lat="41.7458750" lon="2.8160220">
        <ele>194.2</ele>
        <time>2020-07-31T09:42:27Z</time>
      </trkpt>
      <trkpt lat="41.7457600" lon="2.8159850">
        <ele>195.2</ele>
        <time>2020-07-31T09:42:30Z</time>
      </trkpt>
      <trkpt lat="41.7456450" lon="2.8159510">
        <ele>196.2</ele>
        <time>2020-07-31T09:42:33Z</time>
      </trkpt>
      <trkpt lat="41.7456110" lon="2.8159340">
        <ele>196.4</ele>
        <time>2020-07-31T09:42:34Z</time>
      </trkpt>
      <trkpt lat="41.7454690" lon="2.8158790">
        <ele>197.0</ele>
        <time>2020-07-31T09:42:38Z</time>
      </trkpt>
      <trkpt lat="41.7453140" lon="2.8158530">
        <ele>198.2</ele>
        <time>2020-07-31T09:42:42Z</time>
      </trkpt>
      <trkpt lat="41.7451740" lon="2.8158030">
        <ele>199.4</ele>
        <time>2020-07-31T09:42:46Z</time>
      </trkpt>
      <trkpt lat="41.7450690" lon="2.8157630">
        <ele>200.2</ele>
        <time>2020-07-31T09:42:49Z</time>
      </trkpt>
      <trkpt lat="41.7450300" lon="2.8157600">
        <ele>200.4</ele>
        <time>2020-07-31T09:42:50Z</time>
      </trkpt>
      <trkpt lat="41.7448840" lon="2.8157280">
        <ele>201.6</ele>
        <time>2020-07-31T09:42:54Z</time>
      </trkpt>
      <trkpt lat="41.7447400" lon="2.8156930">
        <ele>202.8</ele>
        <time>2020-07-31T09:42:58Z</time>
      </trkpt>
      <trkpt lat="41.7445600" lon="2.8156580">
        <ele>203.8</ele>
        <time>2020-07-31T09:43:03Z</time>
      </trkpt>
      <trkpt lat="41.7444070" lon="2.8156330">
        <ele>204.6</ele>
        <time>2020-07-31T09:43:07Z</time>
      </trkpt>
      <trkpt lat="41.7443690" lon="2.8156290">
        <ele>204.8</ele>
        <time>2020-07-31T09:43:08Z</time>
      </trkpt>
      <trkpt lat="41.7441700" lon="2.8156450">
        <ele>205.8</ele>
        <time>2020-07-31T09:43:13Z</time>
      </trkpt>
      <trkpt lat="41.7440940" lon="2.8156430">
        <ele>206.2</ele>
        <time>2020-07-31T09:43:15Z</time>
      </trkpt>
      <trkpt lat="41.7439760" lon="2.8156390">
        <ele>207.2</ele>
        <time>2020-07-31T09:43:18Z</time>
      </trkpt>
      <trkpt lat="41.7438640" lon="2.8156390">
        <ele>208.4</ele>
        <time>2020-07-31T09:43:21Z</time>
      </trkpt>
      <trkpt lat="41.7437900" lon="2.8156310">
        <ele>209.2</ele>
        <time>2020-07-31T09:43:23Z</time>
      </trkpt>
      <trkpt lat="41.7437140" lon="2.8156340">
        <ele>209.6</ele>
        <time>2020-07-31T09:43:25Z</time>
      </trkpt>
      <trkpt lat="41.7434890" lon="2.8156470">
        <ele>210.6</ele>
        <time>2020-07-31T09:43:31Z</time>
      </trkpt>
      <trkpt lat="41.7433080" lon="2.8156570">
        <ele>211.6</ele>
        <time>2020-07-31T09:43:36Z</time>
      </trkpt>
      <trkpt lat="41.7431920" lon="2.8156700">
        <ele>212.6</ele>
        <time>2020-07-31T09:43:39Z</time>
      </trkpt>
      <trkpt lat="41.7431540" lon="2.8156800">
        <ele>212.8</ele>
        <time>2020-07-31T09:43:40Z</time>
      </trkpt>
      <trkpt lat="41.7429640" lon="2.8156920">
        <ele>213.8</ele>
        <time>2020-07-31T09:43:45Z</time>
      </trkpt>
      <trkpt lat="41.7428860" lon="2.8156980">
        <ele>214.0</ele>
        <time>2020-07-31T09:43:47Z</time>
      </trkpt>
      <trkpt lat="41.7427610" lon="2.8157140">
        <ele>215.0</ele>
        <time>2020-07-31T09:43:50Z</time>
      </trkpt>
      <trkpt lat="41.7426090" lon="2.8157780">
        <ele>216.2</ele>
        <time>2020-07-31T09:43:53Z</time>
      </trkpt>
      <trkpt lat="41.7424380" lon="2.8158130">
        <ele>217.0</ele>
        <time>2020-07-31T09:43:57Z</time>
      </trkpt>
      <trkpt lat="41.7423180" lon="2.8158120">
        <ele>217.4</ele>
        <time>2020-07-31T09:44:00Z</time>
      </trkpt>
      <trkpt lat="41.7421560" lon="2.8158170">
        <ele>218.6</ele>
        <time>2020-07-31T09:44:04Z</time>
      </trkpt>
      <trkpt lat="41.7420750" lon="2.8158130">
        <ele>219.0</ele>
        <time>2020-07-31T09:44:06Z</time>
      </trkpt>
      <trkpt lat="41.7419570" lon="2.8158000">
        <ele>219.6</ele>
        <time>2020-07-31T09:44:09Z</time>
      </trkpt>
      <trkpt lat="41.7417670" lon="2.8157820">
        <ele>220.8</ele>
        <time>2020-07-31T09:44:14Z</time>
      </trkpt>
      <trkpt lat="41.7416700" lon="2.8157290">
        <ele>222.0</ele>
        <time>2020-07-31T09:44:17Z</time>
      </trkpt>
      <trkpt lat="41.7415420" lon="2.8156590">
        <ele>223.0</ele>
        <time>2020-07-31T09:44:21Z</time>
      </trkpt>
      <trkpt lat="41.7414130" lon="2.8155840">
        <ele>224.2</ele>
        <time>2020-07-31T09:44:25Z</time>
      </trkpt>
      <trkpt lat="41.7413800" lon="2.8155630">
        <ele>224.4</ele>
        <time>2020-07-31T09:44:26Z</time>
      </trkpt>
      <trkpt lat="41.7413800" lon="2.8155630">
        <ele>225.2</ele>
        <time>2020-07-31T09:44:31Z</time>
      </trkpt>
      <trkpt lat="41.7413800" lon="2.8155630">
        <ele>226.2</ele>
        <time>2020-07-31T09:44:40Z</time>
      </trkpt>
      <trkpt lat="41.7399310" lon="2.8156460">
        <ele>227.0</ele>
        <time>2020-07-31T09:44:52Z</time>
      </trkpt>
      <trkpt lat="41.7398390" lon="2.8156760">
        <ele>227.0</ele>
        <time>2020-07-31T09:44:53Z</time>
      </trkpt>
      <trkpt lat="41.7395610" lon="2.8157670">
        <ele>226.6</ele>
        <time>2020-07-31T09:44:56Z</time>
      </trkpt>
      <trkpt lat="41.7394700" lon="2.8157940">
        <ele>226.4</ele>
        <time>2020-07-31T09:44:57Z</time>
      </trkpt>
      <trkpt lat="41.7389950" lon="2.8159730">
        <ele>225.0</ele>
        <time>2020-07-31T09:45:02Z</time>
      </trkpt>
      <trkpt lat="41.7386900" lon="2.8161300">
        <ele>223.4</ele>
        <time>2020-07-31T09:45:05Z</time>
      </trkpt>
      <trkpt lat="41.7384800" lon="2.8162510">
        <ele>222.2</ele>
        <time>2020-07-31T09:45:07Z</time>
      </trkpt>
      <trkpt lat="41.7382690" lon="2.8163790">
        <ele>220.6</ele>
        <time>2020-07-31T09:45:09Z</time>
      </trkpt>
      <trkpt lat="41.7380460" lon="2.8165010">
        <ele>219.0</ele>
        <time>2020-07-31T09:45:11Z</time>
      </trkpt>
      <trkpt lat="41.7378060" lon="2.8165980">
        <ele>217.4</ele>
        <time>2020-07-31T09:45:13Z</time>
      </trkpt>
      <trkpt lat="41.7375540" lon="2.8166600">
        <ele>215.0</ele>
        <time>2020-07-31T09:45:15Z</time>
      </trkpt>
      <trkpt lat="41.7372930" lon="2.8166840">
        <ele>213.8</ele>
        <time>2020-07-31T09:45:17Z</time>
      </trkpt>
      <trkpt lat="41.7371590" lon="2.8166790">
        <ele>212.4</ele>
        <time>2020-07-31T09:45:18Z</time>
      </trkpt>
      <trkpt lat="41.7368960" lon="2.8166210">
        <ele>210.4</ele>
        <time>2020-07-31T09:45:20Z</time>
      </trkpt>
      <trkpt lat="41.7366380" lon="2.8165290">
        <ele>209.0</ele>
        <time>2020-07-31T09:45:22Z</time>
      </trkpt>
      <trkpt lat="41.7365100" lon="2.8164800">
        <ele>207.8</ele>
        <time>2020-07-31T09:45:23Z</time>
      </trkpt>
      <trkpt lat="41.7363840" lon="2.8164320">
        <ele>206.6</ele>
        <time>2020-07-31T09:45:24Z</time>
      </trkpt>
      <trkpt lat="41.7362570" lon="2.8163850">
        <ele>205.6</ele>
        <time>2020-07-31T09:45:25Z</time>
      </trkpt>
      <trkpt lat="41.7361300" lon="2.8163380">
        <ele>204.8</ele>
        <time>2020-07-31T09:45:26Z</time>
      </trkpt>
      <trkpt lat="41.7358770" lon="2.8162470">
        <ele>203.2</ele>
        <time>2020-07-31T09:45:28Z</time>
      </trkpt>
      <trkpt lat="41.7357500" lon="2.8162040">
        <ele>202.0</ele>
        <time>2020-07-31T09:45:29Z</time>
      </trkpt>
      <trkpt lat="41.7356250" lon="2.8161620">
        <ele>200.6</ele>
        <time>2020-07-31T09:45:30Z</time>
      </trkpt>
      <trkpt lat="41.7355050" lon="2.8161200">
        <ele>199.4</ele>
        <time>2020-07-31T09:45:31Z</time>
      </trkpt>
      <trkpt lat="41.7353930" lon="2.8160810">
        <ele>198.4</ele>
        <time>2020-07-31T09:45:32Z</time>
      </trkpt>
      <trkpt lat="41.7352840" lon="2.8160460">
        <ele>197.8</ele>
        <time>2020-07-31T09:45:33Z</time>
      </trkpt>
      <trkpt lat="41.7350800" lon="2.8159960">
        <ele>196.0</ele>
        <time>2020-07-31T09:45:35Z</time>
      </trkpt>
      <trkpt lat="41.7349860" lon="2.8159800">
        <ele>195.2</ele>
        <time>2020-07-31T09:45:36Z</time>
      </trkpt>
      <trkpt lat="41.7348940" lon="2.8159670">
        <ele>194.6</ele>
        <time>2020-07-31T09:45:37Z</time>
      </trkpt>
      <trkpt lat="41.7345650" lon="2.8159480">
        <ele>193.2</ele>
        <time>2020-07-31T09:45:41Z</time>
      </trkpt>
      <trkpt lat="41.7343600" lon="2.8159520">
        <ele>191.4</ele>
        <time>2020-07-31T09:45:45Z</time>
      </trkpt>
      <trkpt lat="41.7343040" lon="2.8159570">
        <ele>190.4</ele>
        <time>2020-07-31T09:45:47Z</time>
      </trkpt>
      <trkpt lat="41.7342810" lon="2.8159630">
        <ele>190.4</ele>
        <time>2020-07-31T09:45:49Z</time>
      </trkpt>
      <trkpt lat="41.7342880" lon="2.8159700">
        <ele>190.4</ele>
        <time>2020-07-31T09:46:00Z</time>
      </trkpt>
      <trkpt lat="41.7342230" lon="2.8159920">
        <ele>190.6</ele>
        <time>2020-07-31T09:46:07Z</time>
      </trkpt>
      <trkpt lat="41.7340800" lon="2.8160140">
        <ele>190.6</ele>
        <time>2020-07-31T09:46:10Z</time>
      </trkpt>
      <trkpt lat="41.7337090" lon="2.8160710">
        <ele>190.0</ele>
        <time>2020-07-31T09:46:15Z</time>
      </trkpt>
      <trkpt lat="41.7336230" lon="2.8160790">
        <ele>189.4</ele>
        <time>2020-07-31T09:46:16Z</time>
      </trkpt>
      <trkpt lat="41.7334340" lon="2.8160740">
        <ele>187.8</ele>
        <time>2020-07-31T09:46:18Z</time>
      </trkpt>
      <trkpt lat="41.7333340" lon="2.8160540">
        <ele>187.2</ele>
        <time>2020-07-31T09:46:19Z</time>
      </trkpt>
      <trkpt lat="41.7332340" lon="2.8160190">
        <ele>186.6</ele>
        <time>2020-07-31T09:46:20Z</time>
      </trkpt>
      <trkpt lat="41.7330370" lon="2.8159020">
        <ele>185.0</ele>
        <time>2020-07-31T09:46:22Z</time>
      </trkpt>
      <trkpt lat="41.7329400" lon="2.8158270">
        <ele>184.2</ele>
        <time>2020-07-31T09:46:23Z</time>
      </trkpt>
      <trkpt lat="41.7328440" lon="2.8157500">
        <ele>183.6</ele>
        <time>2020-07-31T09:46:24Z</time>
      </trkpt>
      <trkpt lat="41.7325380" lon="2.8155630">
        <ele>182.0</ele>
        <time>2020-07-31T09:46:27Z</time>
      </trkpt>
      <trkpt lat="41.7323180" lon="2.8155010">
        <ele>180.2</ele>
        <time>2020-07-31T09:46:29Z</time>
      </trkpt>
      <trkpt lat="41.7322070" lon="2.8154900">
        <ele>179.2</ele>
        <time>2020-07-31T09:46:30Z</time>
      </trkpt>
      <trkpt lat="41.7319830" lon="2.8155030">
        <ele>177.2</ele>
        <time>2020-07-31T09:46:32Z</time>
      </trkpt>
      <trkpt lat="41.7317620" lon="2.8155550">
        <ele>175.8</ele>
        <time>2020-07-31T09:46:34Z</time>
      </trkpt>
      <trkpt lat="41.7315450" lon="2.8156220">
        <ele>174.6</ele>
        <time>2020-07-31T09:46:36Z</time>
      </trkpt>
      <trkpt lat="41.7311310" lon="2.8157580">
        <ele>173.2</ele>
        <time>2020-07-31T09:46:40Z</time>
      </trkpt>
      <trkpt lat="41.7310330" lon="2.8157930">
        <ele>172.8</ele>
        <time>2020-07-31T09:46:41Z</time>
      </trkpt>
      <trkpt lat="41.7308450" lon="2.8158570">
        <ele>172.0</ele>
        <time>2020-07-31T09:46:43Z</time>
      </trkpt>
      <trkpt lat="41.7304930" lon="2.8159720">
        <ele>171.4</ele>
        <time>2020-07-31T09:46:47Z</time>
      </trkpt>
      <trkpt lat="41.7299320" lon="2.8161540">
        <ele>171.0</ele>
        <time>2020-07-31T09:46:54Z</time>
      </trkpt>
      <trkpt lat="41.7293420" lon="2.8163180">
        <ele>171.2</ele>
        <time>2020-07-31T09:47:02Z</time>
      </trkpt>
      <trkpt lat="41.7287700" lon="2.8164020">
        <ele>171.2</ele>
        <time>2020-07-31T09:47:10Z</time>
      </trkpt>
      <trkpt lat="41.7281960" lon="2.8164300">
        <ele>171.4</ele>
        <time>2020-07-31T09:47:18Z</time>
      </trkpt>
      <trkpt lat="41.7281220" lon="2.8164340">
        <ele>171.4</ele>
        <time>2020-07-31T09:47:19Z</time>
      </trkpt>
      <trkpt lat="41.7275100" lon="2.8164990">
        <ele>171.8</ele>
        <time>2020-07-31T09:47:27Z</time>
      </trkpt>
      <trkpt lat="41.7270280" lon="2.8166780">
        <ele>171.6</ele>
        <time>2020-07-31T09:47:33Z</time>
      </trkpt>
      <trkpt lat="41.7267860" lon="2.8168460">
        <ele>171.2</ele>
        <time>2020-07-31T09:47:36Z</time>
      </trkpt>
      <trkpt lat="41.7266300" lon="2.8169930">
        <ele>170.4</ele>
        <time>2020-07-31T09:47:38Z</time>
      </trkpt>
      <trkpt lat="41.7264830" lon="2.8171630">
        <ele>169.6</ele>
        <time>2020-07-31T09:47:40Z</time>
      </trkpt>
      <trkpt lat="41.7262700" lon="2.8174660">
        <ele>168.4</ele>
        <time>2020-07-31T09:47:43Z</time>
      </trkpt>
      <trkpt lat="41.7261270" lon="2.8176890">
        <ele>167.4</ele>
        <time>2020-07-31T09:47:45Z</time>
      </trkpt>
      <trkpt lat="41.7259830" lon="2.8179240">
        <ele>165.8</ele>
        <time>2020-07-31T09:47:47Z</time>
      </trkpt>
      <trkpt lat="41.7257720" lon="2.8182890">
        <ele>164.4</ele>
        <time>2020-07-31T09:47:50Z</time>
      </trkpt>
      <trkpt lat="41.7256360" lon="2.8185480">
        <ele>163.2</ele>
        <time>2020-07-31T09:47:52Z</time>
      </trkpt>
      <trkpt lat="41.7255090" lon="2.8188210">
        <ele>161.6</ele>
        <time>2020-07-31T09:47:54Z</time>
      </trkpt>
      <trkpt lat="41.7254520" lon="2.8189630">
        <ele>160.6</ele>
        <time>2020-07-31T09:47:55Z</time>
      </trkpt>
      <trkpt lat="41.7253970" lon="2.8191050">
        <ele>159.6</ele>
        <time>2020-07-31T09:47:56Z</time>
      </trkpt>
      <trkpt lat="41.7252890" lon="2.8193930">
        <ele>157.8</ele>
        <time>2020-07-31T09:47:58Z</time>
      </trkpt>
      <trkpt lat="41.7251840" lon="2.8196900">
        <ele>156.0</ele>
        <time>2020-07-31T09:48:00Z</time>
      </trkpt>
      <trkpt lat="41.7250740" lon="2.8199980">
        <ele>154.6</ele>
        <time>2020-07-31T09:48:02Z</time>
      </trkpt>
      <trkpt lat="41.7250200" lon="2.8201560">
        <ele>153.6</ele>
        <time>2020-07-31T09:48:03Z</time>
      </trkpt>
      <trkpt lat="41.7249090" lon="2.8204740">
        <ele>152.0</ele>
        <time>2020-07-31T09:48:05Z</time>
      </trkpt>
      <trkpt lat="41.7247970" lon="2.8207960">
        <ele>150.8</ele>
        <time>2020-07-31T09:48:07Z</time>
      </trkpt>
      <trkpt lat="41.7247400" lon="2.8209590">
        <ele>149.6</ele>
        <time>2020-07-31T09:48:08Z</time>
      </trkpt>
      <trkpt lat="41.7246270" lon="2.8212890">
        <ele>148.0</ele>
        <time>2020-07-31T09:48:10Z</time>
      </trkpt>
      <trkpt lat="41.7245700" lon="2.8214540">
        <ele>147.0</ele>
        <time>2020-07-31T09:48:11Z</time>
      </trkpt>
      <trkpt lat="41.7245110" lon="2.8216210">
        <ele>145.8</ele>
        <time>2020-07-31T09:48:12Z</time>
      </trkpt>
      <trkpt lat="41.7243950" lon="2.8219540">
        <ele>144.0</ele>
        <time>2020-07-31T09:48:14Z</time>
      </trkpt>
      <trkpt lat="41.7242810" lon="2.8222880">
        <ele>142.4</ele>
        <time>2020-07-31T09:48:16Z</time>
      </trkpt>
      <trkpt lat="41.7241660" lon="2.8226220">
        <ele>141.0</ele>
        <time>2020-07-31T09:48:18Z</time>
      </trkpt>
      <trkpt lat="41.7240490" lon="2.8229510">
        <ele>139.8</ele>
        <time>2020-07-31T09:48:20Z</time>
      </trkpt>
      <trkpt lat="41.7239900" lon="2.8231150">
        <ele>139.2</ele>
        <time>2020-07-31T09:48:21Z</time>
      </trkpt>
      <trkpt lat="41.7239290" lon="2.8232770">
        <ele>138.4</ele>
        <time>2020-07-31T09:48:22Z</time>
      </trkpt>
      <trkpt lat="41.7238630" lon="2.8234360">
        <ele>137.2</ele>
        <time>2020-07-31T09:48:23Z</time>
      </trkpt>
      <trkpt lat="41.7237930" lon="2.8235920">
        <ele>136.2</ele>
        <time>2020-07-31T09:48:24Z</time>
      </trkpt>
      <trkpt lat="41.7236380" lon="2.8238910">
        <ele>134.8</ele>
        <time>2020-07-31T09:48:26Z</time>
      </trkpt>
      <trkpt lat="41.7235530" lon="2.8240350">
        <ele>133.4</ele>
        <time>2020-07-31T09:48:27Z</time>
      </trkpt>
      <trkpt lat="41.7234660" lon="2.8241740">
        <ele>132.0</ele>
        <time>2020-07-31T09:48:28Z</time>
      </trkpt>
      <trkpt lat="41.7232920" lon="2.8244480">
        <ele>130.6</ele>
        <time>2020-07-31T09:48:30Z</time>
      </trkpt>
      <trkpt lat="41.7231080" lon="2.8247080">
        <ele>129.2</ele>
        <time>2020-07-31T09:48:32Z</time>
      </trkpt>
      <trkpt lat="41.7229020" lon="2.8249410">
        <ele>127.6</ele>
        <time>2020-07-31T09:48:34Z</time>
      </trkpt>
      <trkpt lat="41.7227880" lon="2.8250400">
        <ele>126.2</ele>
        <time>2020-07-31T09:48:35Z</time>
      </trkpt>
      <trkpt lat="41.7226660" lon="2.8251160">
        <ele>123.8</ele>
        <time>2020-07-31T09:48:36Z</time>
      </trkpt>
      <trkpt lat="41.7222710" lon="2.8252190">
        <ele>122.2</ele>
        <time>2020-07-31T09:48:39Z</time>
      </trkpt>
      <trkpt lat="41.7220060" lon="2.8251910">
        <ele>120.2</ele>
        <time>2020-07-31T09:48:41Z</time>
      </trkpt>
      <trkpt lat="41.7218750" lon="2.8251650">
        <ele>119.2</ele>
        <time>2020-07-31T09:48:42Z</time>
      </trkpt>
      <trkpt lat="41.7217440" lon="2.8251370">
        <ele>118.0</ele>
        <time>2020-07-31T09:48:43Z</time>
      </trkpt>
      <trkpt lat="41.7214820" lon="2.8250890">
        <ele>116.2</ele>
        <time>2020-07-31T09:48:45Z</time>
      </trkpt>
      <trkpt lat="41.7213520" lon="2.8250800">
        <ele>115.2</ele>
        <time>2020-07-31T09:48:46Z</time>
      </trkpt>
      <trkpt lat="41.7212220" lon="2.8250840">
        <ele>114.4</ele>
        <time>2020-07-31T09:48:47Z</time>
      </trkpt>
      <trkpt lat="41.7210940" lon="2.8251040">
        <ele>113.4</ele>
        <time>2020-07-31T09:48:48Z</time>
      </trkpt>
      <trkpt lat="41.7208470" lon="2.8251810">
        <ele>112.0</ele>
        <time>2020-07-31T09:48:50Z</time>
      </trkpt>
      <trkpt lat="41.7207280" lon="2.8252300">
        <ele>111.4</ele>
        <time>2020-07-31T09:48:51Z</time>
      </trkpt>
      <trkpt lat="41.7206120" lon="2.8252820">
        <ele>110.6</ele>
        <time>2020-07-31T09:48:52Z</time>
      </trkpt>
      <trkpt lat="41.7203820" lon="2.8253860">
        <ele>109.0</ele>
        <time>2020-07-31T09:48:54Z</time>
      </trkpt>
      <trkpt lat="41.7201480" lon="2.8254750">
        <ele>107.0</ele>
        <time>2020-07-31T09:48:56Z</time>
      </trkpt>
      <trkpt lat="41.7200270" lon="2.8255050">
        <ele>106.2</ele>
        <time>2020-07-31T09:48:57Z</time>
      </trkpt>
      <trkpt lat="41.7199040" lon="2.8255220">
        <ele>105.6</ele>
        <time>2020-07-31T09:48:58Z</time>
      </trkpt>
      <trkpt lat="41.7196590" lon="2.8255290">
        <ele>103.6</ele>
        <time>2020-07-31T09:49:00Z</time>
      </trkpt>
      <trkpt lat="41.7195370" lon="2.8255290">
        <ele>103.0</ele>
        <time>2020-07-31T09:49:01Z</time>
      </trkpt>
      <trkpt lat="41.7192970" lon="2.8255470">
        <ele>102.2</ele>
        <time>2020-07-31T09:49:03Z</time>
      </trkpt>
      <trkpt lat="41.7190630" lon="2.8256070">
        <ele>101.0</ele>
        <time>2020-07-31T09:49:05Z</time>
      </trkpt>
      <trkpt lat="41.7188420" lon="2.8257200">
        <ele>99.8</ele>
        <time>2020-07-31T09:49:07Z</time>
      </trkpt>
      <trkpt lat="41.7187370" lon="2.8257930">
        <ele>99.4</ele>
        <time>2020-07-31T09:49:08Z</time>
      </trkpt>
      <trkpt lat="41.7186370" lon="2.8258810">
        <ele>98.8</ele>
        <time>2020-07-31T09:49:09Z</time>
      </trkpt>
      <trkpt lat="41.7184550" lon="2.8260870">
        <ele>97.6</ele>
        <time>2020-07-31T09:49:11Z</time>
      </trkpt>
      <trkpt lat="41.7182350" lon="2.8264770">
        <ele>95.8</ele>
        <time>2020-07-31T09:49:14Z</time>
      </trkpt>
      <trkpt lat="41.7181740" lon="2.8266240">
        <ele>95.4</ele>
        <time>2020-07-31T09:49:15Z</time>
      </trkpt>
      <trkpt lat="41.7181200" lon="2.8267740">
        <ele>94.8</ele>
        <time>2020-07-31T09:49:16Z</time>
      </trkpt>
      <trkpt lat="41.7180780" lon="2.8269300">
        <ele>94.0</ele>
        <time>2020-07-31T09:49:17Z</time>
      </trkpt>
      <trkpt lat="41.7180380" lon="2.8270940">
        <ele>93.6</ele>
        <time>2020-07-31T09:49:18Z</time>
      </trkpt>
      <trkpt lat="41.7179800" lon="2.8274330">
        <ele>92.8</ele>
        <time>2020-07-31T09:49:20Z</time>
      </trkpt>
      <trkpt lat="41.7179430" lon="2.8277710">
        <ele>92.2</ele>
        <time>2020-07-31T09:49:22Z</time>
      </trkpt>
      <trkpt lat="41.7179190" lon="2.8279420">
        <ele>91.8</ele>
        <time>2020-07-31T09:49:23Z</time>
      </trkpt>
      <trkpt lat="41.7178450" lon="2.8282750">
        <ele>90.0</ele>
        <time>2020-07-31T09:49:25Z</time>
      </trkpt>
      <trkpt lat="41.7177900" lon="2.8284320">
        <ele>89.2</ele>
        <time>2020-07-31T09:49:26Z</time>
      </trkpt>
      <trkpt lat="41.7177240" lon="2.8285800">
        <ele>88.4</ele>
        <time>2020-07-31T09:49:27Z</time>
      </trkpt>
      <trkpt lat="41.7175600" lon="2.8288420">
        <ele>86.6</ele>
        <time>2020-07-31T09:49:29Z</time>
      </trkpt>
      <trkpt lat="41.7173610" lon="2.8290530">
        <ele>84.8</ele>
        <time>2020-07-31T09:49:31Z</time>
      </trkpt>
      <trkpt lat="41.7172530" lon="2.8291410">
        <ele>83.8</ele>
        <time>2020-07-31T09:49:32Z</time>
      </trkpt>
      <trkpt lat="41.7171420" lon="2.8292190">
        <ele>81.0</ele>
        <time>2020-07-31T09:49:33Z</time>
      </trkpt>
      <trkpt lat="41.7170270" lon="2.8292900">
        <ele>79.6</ele>
        <time>2020-07-31T09:49:34Z</time>
      </trkpt>
      <trkpt lat="41.7167960" lon="2.8294240">
        <ele>77.8</ele>
        <time>2020-07-31T09:49:36Z</time>
      </trkpt>
      <trkpt lat="41.7166810" lon="2.8294920">
        <ele>77.4</ele>
        <time>2020-07-31T09:49:37Z</time>
      </trkpt>
      <trkpt lat="41.7165670" lon="2.8295590">
        <ele>76.6</ele>
        <time>2020-07-31T09:49:38Z</time>
      </trkpt>
      <trkpt lat="41.7163400" lon="2.8296910">
        <ele>75.4</ele>
        <time>2020-07-31T09:49:40Z</time>
      </trkpt>
      <trkpt lat="41.7160100" lon="2.8298870">
        <ele>74.0</ele>
        <time>2020-07-31T09:49:43Z</time>
      </trkpt>
      <trkpt lat="41.7157960" lon="2.8300040">
        <ele>72.6</ele>
        <time>2020-07-31T09:49:45Z</time>
      </trkpt>
      <trkpt lat="41.7155890" lon="2.8301210">
        <ele>70.8</ele>
        <time>2020-07-31T09:49:47Z</time>
      </trkpt>
      <trkpt lat="41.7152860" lon="2.8302970">
        <ele>69.6</ele>
        <time>2020-07-31T09:49:50Z</time>
      </trkpt>
      <trkpt lat="41.7150960" lon="2.8304100">
        <ele>68.8</ele>
        <time>2020-07-31T09:49:52Z</time>
      </trkpt>
      <trkpt lat="41.7149150" lon="2.8305150">
        <ele>68.4</ele>
        <time>2020-07-31T09:49:54Z</time>
      </trkpt>
      <trkpt lat="41.7145840" lon="2.8307030">
        <ele>67.6</ele>
        <time>2020-07-31T09:49:58Z</time>
      </trkpt>
      <trkpt lat="41.7144310" lon="2.8307920">
        <ele>67.4</ele>
        <time>2020-07-31T09:50:00Z</time>
      </trkpt>
      <trkpt lat="41.7143580" lon="2.8308330">
        <ele>67.2</ele>
        <time>2020-07-31T09:50:01Z</time>
      </trkpt>
      <trkpt lat="41.7142160" lon="2.8308960">
        <ele>67.2</ele>
        <time>2020-07-31T09:50:03Z</time>
      </trkpt>
      <trkpt lat="41.7141520" lon="2.8309050">
        <ele>67.2</ele>
        <time>2020-07-31T09:50:04Z</time>
      </trkpt>
      <trkpt lat="41.7139420" lon="2.8309060">
        <ele>67.2</ele>
        <time>2020-07-31T09:50:08Z</time>
      </trkpt>
      <trkpt lat="41.7138200" lon="2.8310540">
        <ele>67.4</ele>
        <time>2020-07-31T09:50:11Z</time>
      </trkpt>
      <trkpt lat="41.7137310" lon="2.8311670">
        <ele>67.4</ele>
        <time>2020-07-31T09:50:13Z</time>
      </trkpt>
      <trkpt lat="41.7136220" lon="2.8312580">
        <ele>67.4</ele>
        <time>2020-07-31T09:50:15Z</time>
      </trkpt>
      <trkpt lat="41.7132880" lon="2.8314350">
        <ele>67.4</ele>
        <time>2020-07-31T09:50:20Z</time>
      </trkpt>
      <trkpt lat="41.7127070" lon="2.8315930">
        <ele>66.8</ele>
        <time>2020-07-31T09:50:28Z</time>
      </trkpt>
      <trkpt lat="41.7122080" lon="2.8316780">
        <ele>66.2</ele>
        <time>2020-07-31T09:50:35Z</time>
      </trkpt>
      <trkpt lat="41.7118470" lon="2.8317360">
        <ele>66.0</ele>
        <time>2020-07-31T09:50:40Z</time>
      </trkpt>
      <trkpt lat="41.7112700" lon="2.8318210">
        <ele>65.8</ele>
        <time>2020-07-31T09:50:48Z</time>
      </trkpt>
      <trkpt lat="41.7111260" lon="2.8318490">
        <ele>65.4</ele>
        <time>2020-07-31T09:50:50Z</time>
      </trkpt>
      <trkpt lat="41.7109120" lon="2.8318900">
        <ele>65.2</ele>
        <time>2020-07-31T09:50:53Z</time>
      </trkpt>
      <trkpt lat="41.7104920" lon="2.8319700">
        <ele>64.6</ele>
        <time>2020-07-31T09:50:59Z</time>
      </trkpt>
      <trkpt lat="41.7100200" lon="2.8320480">
        <ele>64.4</ele>
        <time>2020-07-31T09:51:06Z</time>
      </trkpt>
      <trkpt lat="41.7099530" lon="2.8320570">
        <ele>64.4</ele>
        <time>2020-07-31T09:51:07Z</time>
      </trkpt>
      <trkpt lat="41.7093700" lon="2.8321780">
        <ele>64.0</ele>
        <time>2020-07-31T09:51:16Z</time>
      </trkpt>
      <trkpt lat="41.7092140" lon="2.8322120">
        <ele>63.8</ele>
        <time>2020-07-31T09:51:19Z</time>
      </trkpt>
      <trkpt lat="41.7091720" lon="2.8322030">
        <ele>63.8</ele>
        <time>2020-07-31T09:51:20Z</time>
      </trkpt>
      <trkpt lat="41.7089770" lon="2.8322100">
        <ele>63.8</ele>
        <time>2020-07-31T09:51:24Z</time>
      </trkpt>
      <trkpt lat="41.7088350" lon="2.8323770">
        <ele>63.8</ele>
        <time>2020-07-31T09:51:27Z</time>
      </trkpt>
      <trkpt lat="41.7087870" lon="2.8324430">
        <ele>63.8</ele>
        <time>2020-07-31T09:51:28Z</time>
      </trkpt>
      <trkpt lat="41.7087340" lon="2.8325030">
        <ele>63.8</ele>
        <time>2020-07-31T09:51:29Z</time>
      </trkpt>
      <trkpt lat="41.7084930" lon="2.8327120">
        <ele>63.6</ele>
        <time>2020-07-31T09:51:33Z</time>
      </trkpt>
      <trkpt lat="41.7083750" lon="2.8328200">
        <ele>63.2</ele>
        <time>2020-07-31T09:51:35Z</time>
      </trkpt>
      <trkpt lat="41.7081580" lon="2.8330590">
        <ele>61.8</ele>
        <time>2020-07-31T09:51:39Z</time>
      </trkpt>
      <trkpt lat="41.7081060" lon="2.8331220">
        <ele>61.6</ele>
        <time>2020-07-31T09:51:40Z</time>
      </trkpt>
      <trkpt lat="41.7077040" lon="2.8336770">
        <ele>61.0</ele>
        <time>2020-07-31T09:51:48Z</time>
      </trkpt>
      <trkpt lat="41.7072830" lon="2.8342260">
        <ele>61.2</ele>
        <time>2020-07-31T09:51:56Z</time>
      </trkpt>
      <trkpt lat="41.7072270" lon="2.8342890">
        <ele>61.0</ele>
        <time>2020-07-31T09:51:57Z</time>
      </trkpt>
      <trkpt lat="41.7068100" lon="2.8346630">
        <ele>60.6</ele>
        <time>2020-07-31T09:52:04Z</time>
      </trkpt>
      <trkpt lat="41.7064280" lon="2.8348790">
        <ele>60.0</ele>
        <time>2020-07-31T09:52:10Z</time>
      </trkpt>
      <trkpt lat="41.7063640" lon="2.8349090">
        <ele>60.0</ele>
        <time>2020-07-31T09:52:11Z</time>
      </trkpt>
      <trkpt lat="41.7059270" lon="2.8351050">
        <ele>60.2</ele>
        <time>2020-07-31T09:52:18Z</time>
      </trkpt>
      <trkpt lat="41.7053530" lon="2.8353520">
        <ele>60.4</ele>
        <time>2020-07-31T09:52:27Z</time>
      </trkpt>
      <trkpt lat="41.7052880" lon="2.8353770">
        <ele>60.4</ele>
        <time>2020-07-31T09:52:28Z</time>
      </trkpt>
      <trkpt lat="41.7047210" lon="2.8355900">
        <ele>60.0</ele>
        <time>2020-07-31T09:52:37Z</time>
      </trkpt>
      <trkpt lat="41.7046590" lon="2.8356130">
        <ele>60.0</ele>
        <time>2020-07-31T09:52:38Z</time>
      </trkpt>
      <trkpt lat="41.7045970" lon="2.8356260">
        <ele>60.0</ele>
        <time>2020-07-31T09:52:39Z</time>
      </trkpt>
      <trkpt lat="41.7044730" lon="2.8355880">
        <ele>60.0</ele>
        <time>2020-07-31T09:52:41Z</time>
      </trkpt>
      <trkpt lat="41.7043010" lon="2.8355660">
        <ele>60.0</ele>
        <time>2020-07-31T09:52:44Z</time>
      </trkpt>
      <trkpt lat="41.7041800" lon="2.8357140">
        <ele>60.2</ele>
        <time>2020-07-31T09:52:47Z</time>
      </trkpt>
      <trkpt lat="41.7041550" lon="2.8357710">
        <ele>60.4</ele>
        <time>2020-07-31T09:52:48Z</time>
      </trkpt>
      <trkpt lat="41.7040960" lon="2.8358900">
        <ele>61.0</ele>
        <time>2020-07-31T09:52:51Z</time>
      </trkpt>
      <trkpt lat="41.7040650" lon="2.8359270">
        <ele>61.0</ele>
        <time>2020-07-31T09:52:52Z</time>
      </trkpt>
      <trkpt lat="41.7039330" lon="2.8360110">
        <ele>61.2</ele>
        <time>2020-07-31T09:52:55Z</time>
      </trkpt>
      <trkpt lat="41.7038260" lon="2.8360660">
        <ele>61.4</ele>
        <time>2020-07-31T09:52:57Z</time>
      </trkpt>
      <trkpt lat="41.7035900" lon="2.8361930">
        <ele>61.4</ele>
        <time>2020-07-31T09:53:01Z</time>
      </trkpt>
      <trkpt lat="41.7032730" lon="2.8363680">
        <ele>61.2</ele>
        <time>2020-07-31T09:53:06Z</time>
      </trkpt>
      <trkpt lat="41.7032120" lon="2.8364090">
        <ele>61.4</ele>
        <time>2020-07-31T09:53:07Z</time>
      </trkpt>
      <trkpt lat="41.7029730" lon="2.8365720">
        <ele>61.0</ele>
        <time>2020-07-31T09:53:11Z</time>
      </trkpt>
      <trkpt lat="41.7024660" lon="2.8368980">
        <ele>60.8</ele>
        <time>2020-07-31T09:53:19Z</time>
      </trkpt>
      <trkpt lat="41.7020150" lon="2.8371920">
        <ele>60.2</ele>
        <time>2020-07-31T09:53:26Z</time>
      </trkpt>
      <trkpt lat="41.7019500" lon="2.8372310">
        <ele>60.2</ele>
        <time>2020-07-31T09:53:27Z</time>
      </trkpt>
      <trkpt lat="41.7018150" lon="2.8372830">
        <ele>60.2</ele>
        <time>2020-07-31T09:53:29Z</time>
      </trkpt>
      <trkpt lat="41.7016850" lon="2.8372870">
        <ele>60.2</ele>
        <time>2020-07-31T09:53:31Z</time>
      </trkpt>
      <trkpt lat="41.7014710" lon="2.8371750">
        <ele>60.2</ele>
        <time>2020-07-31T09:53:35Z</time>
      </trkpt>
      <trkpt lat="41.7013290" lon="2.8369860">
        <ele>61.0</ele>
        <time>2020-07-31T09:53:39Z</time>
      </trkpt>
      <trkpt lat="41.7013020" lon="2.8369310">
        <ele>61.4</ele>
        <time>2020-07-31T09:53:40Z</time>
      </trkpt>
      <trkpt lat="41.7012350" lon="2.8367630">
        <ele>62.8</ele>
        <time>2020-07-31T09:53:43Z</time>
      </trkpt>
      <trkpt lat="41.7011760" lon="2.8365750">
        <ele>64.0</ele>
        <time>2020-07-31T09:53:46Z</time>
      </trkpt>
      <trkpt lat="41.7011050" lon="2.8363530">
        <ele>65.2</ele>
        <time>2020-07-31T09:53:49Z</time>
      </trkpt>
      <trkpt lat="41.7010530" lon="2.8361830">
        <ele>65.6</ele>
        <time>2020-07-31T09:53:51Z</time>
      </trkpt>
      <trkpt lat="41.7008860" lon="2.8355860">
        <ele>65.6</ele>
        <time>2020-07-31T09:53:57Z</time>
      </trkpt>
      <trkpt lat="41.7007150" lon="2.8350830">
        <ele>64.2</ele>
        <time>2020-07-31T09:54:02Z</time>
      </trkpt>
      <trkpt lat="41.7006640" lon="2.8350100">
        <ele>64.0</ele>
        <time>2020-07-31T09:54:03Z</time>
      </trkpt>
      <trkpt lat="41.7005460" lon="2.8348670">
        <ele>63.0</ele>
        <time>2020-07-31T09:54:06Z</time>
      </trkpt>
      <trkpt lat="41.7005060" lon="2.8347380">
        <ele>62.8</ele>
        <time>2020-07-31T09:54:09Z</time>
      </trkpt>
      <trkpt lat="41.7004810" lon="2.8345350">
        <ele>62.6</ele>
        <time>2020-07-31T09:54:12Z</time>
      </trkpt>
      <trkpt lat="41.7004600" lon="2.8343760">
        <ele>62.4</ele>
        <time>2020-07-31T09:54:14Z</time>
      </trkpt>
      <trkpt lat="41.7004170" lon="2.8340820">
        <ele>62.2</ele>
        <time>2020-07-31T09:54:17Z</time>
      </trkpt>
      <trkpt lat="41.7003740" lon="2.8338590">
        <ele>62.2</ele>
        <time>2020-07-31T09:54:19Z</time>
      </trkpt>
      <trkpt lat="41.7003000" lon="2.8335150">
        <ele>62.0</ele>
        <time>2020-07-31T09:54:22Z</time>
      </trkpt>
      <trkpt lat="41.7002150" lon="2.8331750">
        <ele>60.8</ele>
        <time>2020-07-31T09:54:25Z</time>
      </trkpt>
      <trkpt lat="41.7001850" lon="2.8330630">
        <ele>60.4</ele>
        <time>2020-07-31T09:54:26Z</time>
      </trkpt>
      <trkpt lat="41.7000960" lon="2.8327330">
        <ele>59.6</ele>
        <time>2020-07-31T09:54:29Z</time>
      </trkpt>
      <trkpt lat="41.7000080" lon="2.8324240">
        <ele>58.8</ele>
        <time>2020-07-31T09:54:32Z</time>
      </trkpt>
      <trkpt lat="41.6999720" lon="2.8322280">
        <ele>58.4</ele>
        <time>2020-07-31T09:54:34Z</time>
      </trkpt>
      <trkpt lat="41.6999340" lon="2.8320870">
        <ele>58.2</ele>
        <time>2020-07-31T09:54:36Z</time>
      </trkpt>
      <trkpt lat="41.6998930" lon="2.8319560">
        <ele>58.2</ele>
        <time>2020-07-31T09:54:40Z</time>
      </trkpt>
      <trkpt lat="41.6998430" lon="2.8317760">
        <ele>58.2</ele>
        <time>2020-07-31T09:54:41Z</time>
      </trkpt>
      <trkpt lat="41.6997930" lon="2.8316100">
        <ele>59.8</ele>
        <time>2020-07-31T09:54:53Z</time>
      </trkpt>
      <trkpt lat="41.6997440" lon="2.8314440">
        <ele>59.8</ele>
        <time>2020-07-31T09:54:54Z</time>
      </trkpt>
      <trkpt lat="41.6996310" lon="2.8310230">
        <ele>59.8</ele>
        <time>2020-07-31T09:54:59Z</time>
      </trkpt>
      <trkpt lat="41.6994620" lon="2.8304070">
        <ele>58.8</ele>
        <time>2020-07-31T09:55:06Z</time>
      </trkpt>
      <trkpt lat="41.6994380" lon="2.8303200">
        <ele>58.6</ele>
        <time>2020-07-31T09:55:07Z</time>
      </trkpt>
      <trkpt lat="41.6992270" lon="2.8296290">
        <ele>58.6</ele>
        <time>2020-07-31T09:55:15Z</time>
      </trkpt>
      <trkpt lat="41.6990060" lon="2.8288670">
        <ele>58.6</ele>
        <time>2020-07-31T09:55:23Z</time>
      </trkpt>
      <trkpt lat="41.6988040" lon="2.8281780">
        <ele>58.2</ele>
        <time>2020-07-31T09:55:30Z</time>
      </trkpt>
      <trkpt lat="41.6987190" lon="2.8278790">
        <ele>57.6</ele>
        <time>2020-07-31T09:55:33Z</time>
      </trkpt>
      <trkpt lat="41.6986900" lon="2.8277810">
        <ele>57.6</ele>
        <time>2020-07-31T09:55:34Z</time>
      </trkpt>
      <trkpt lat="41.6986050" lon="2.8274960">
        <ele>57.2</ele>
        <time>2020-07-31T09:55:37Z</time>
      </trkpt>
      <trkpt lat="41.6983630" lon="2.8266560">
        <ele>58.0</ele>
        <time>2020-07-31T09:56:02Z</time>
      </trkpt>
      <trkpt lat="41.6983540" lon="2.8266240">
        <ele>58.0</ele>
        <time>2020-07-31T09:56:03Z</time>
      </trkpt>
      <trkpt lat="41.6982260" lon="2.8261770">
        <ele>58.0</ele>
        <time>2020-07-31T09:56:09Z</time>
      </trkpt>
      <trkpt lat="41.6980390" lon="2.8254980">
        <ele>57.6</ele>
        <time>2020-07-31T09:56:17Z</time>
      </trkpt>
      <trkpt lat="41.6979670" lon="2.8252410">
        <ele>57.6</ele>
        <time>2020-07-31T09:56:20Z</time>
      </trkpt>
      <trkpt lat="41.6977670" lon="2.8245620">
        <ele>58.0</ele>
        <time>2020-07-31T09:56:28Z</time>
      </trkpt>
      <trkpt lat="41.6977240" lon="2.8243900">
        <ele>58.2</ele>
        <time>2020-07-31T09:56:30Z</time>
      </trkpt>
      <trkpt lat="41.6975110" lon="2.8236420">
        <ele>58.8</ele>
        <time>2020-07-31T09:56:39Z</time>
      </trkpt>
      <trkpt lat="41.6973340" lon="2.8230310">
        <ele>60.0</ele>
        <time>2020-07-31T09:56:47Z</time>
      </trkpt>
      <trkpt lat="41.6971840" lon="2.8225860">
        <ele>61.0</ele>
        <time>2020-07-31T09:56:53Z</time>
      </trkpt>
      <trkpt lat="41.6971250" lon="2.8224470">
        <ele>61.4</ele>
        <time>2020-07-31T09:56:55Z</time>
      </trkpt>
      <trkpt lat="41.6970070" lon="2.8221800">
        <ele>62.2</ele>
        <time>2020-07-31T09:56:59Z</time>
      </trkpt>
      <trkpt lat="41.6969020" lon="2.8219150">
        <ele>63.2</ele>
        <time>2020-07-31T09:57:03Z</time>
      </trkpt>
      <trkpt lat="41.6968860" lon="2.8218460">
        <ele>63.6</ele>
        <time>2020-07-31T09:57:04Z</time>
      </trkpt>
      <trkpt lat="41.6968730" lon="2.8217100">
        <ele>64.0</ele>
        <time>2020-07-31T09:57:06Z</time>
      </trkpt>
      <trkpt lat="41.6968780" lon="2.8216410">
        <ele>64.2</ele>
        <time>2020-07-31T09:57:07Z</time>
      </trkpt>
      <trkpt lat="41.6968920" lon="2.8215030">
        <ele>64.8</ele>
        <time>2020-07-31T09:57:09Z</time>
      </trkpt>
      <trkpt lat="41.6968460" lon="2.8212930">
        <ele>65.6</ele>
        <time>2020-07-31T09:57:12Z</time>
      </trkpt>
      <trkpt lat="41.6968110" lon="2.8212350">
        <ele>66.0</ele>
        <time>2020-07-31T09:57:13Z</time>
      </trkpt>
      <trkpt lat="41.6967130" lon="2.8211430">
        <ele>66.6</ele>
        <time>2020-07-31T09:57:15Z</time>
      </trkpt>
      <trkpt lat="41.6965880" lon="2.8210810">
        <ele>66.8</ele>
        <time>2020-07-31T09:57:17Z</time>
      </trkpt>
      <trkpt lat="41.6964520" lon="2.8210150">
        <ele>66.8</ele>
        <time>2020-07-31T09:57:19Z</time>
      </trkpt>
      <trkpt lat="41.6962170" lon="2.8207810">
        <ele>67.0</ele>
        <time>2020-07-31T09:57:23Z</time>
      </trkpt>
      <trkpt lat="41.6961300" lon="2.8206340">
        <ele>67.0</ele>
        <time>2020-07-31T09:57:25Z</time>
      </trkpt>
      <trkpt lat="41.6959780" lon="2.8203440">
        <ele>67.2</ele>
        <time>2020-07-31T09:57:29Z</time>
      </trkpt>
      <trkpt lat="41.6957570" lon="2.8198080">
        <ele>68.2</ele>
        <time>2020-07-31T09:57:37Z</time>
      </trkpt>
      <trkpt lat="41.6956680" lon="2.8195540">
        <ele>69.4</ele>
        <time>2020-07-31T09:57:41Z</time>
      </trkpt>
      <trkpt lat="41.6955490" lon="2.8191790">
        <ele>70.4</ele>
        <time>2020-07-31T09:57:47Z</time>
      </trkpt>
      <trkpt lat="41.6954780" lon="2.8189250">
        <ele>71.6</ele>
        <time>2020-07-31T09:57:51Z</time>
      </trkpt>
      <trkpt lat="41.6953900" lon="2.8186060">
        <ele>72.6</ele>
        <time>2020-07-31T09:57:56Z</time>
      </trkpt>
      <trkpt lat="41.6953730" lon="2.8185430">
        <ele>72.8</ele>
        <time>2020-07-31T09:57:57Z</time>
      </trkpt>
      <trkpt lat="41.6953040" lon="2.8182970">
        <ele>73.8</ele>
        <time>2020-07-31T09:58:01Z</time>
      </trkpt>
      <trkpt lat="41.6951830" lon="2.8178580">
        <ele>74.6</ele>
        <time>2020-07-31T09:58:08Z</time>
      </trkpt>
      <trkpt lat="41.6951650" lon="2.8177940">
        <ele>75.0</ele>
        <time>2020-07-31T09:58:09Z</time>
      </trkpt>
      <trkpt lat="41.6950940" lon="2.8175410">
        <ele>76.4</ele>
        <time>2020-07-31T09:58:13Z</time>
      </trkpt>
      <trkpt lat="41.6950070" lon="2.8172250">
        <ele>77.4</ele>
        <time>2020-07-31T09:58:18Z</time>
      </trkpt>
      <trkpt lat="41.6949900" lon="2.8171610">
        <ele>77.6</ele>
        <time>2020-07-31T09:58:19Z</time>
      </trkpt>
      <trkpt lat="41.6949240" lon="2.8169110">
        <ele>78.4</ele>
        <time>2020-07-31T09:58:23Z</time>
      </trkpt>
      <trkpt lat="41.6948370" lon="2.8166050">
        <ele>79.6</ele>
        <time>2020-07-31T09:58:28Z</time>
      </trkpt>
      <trkpt lat="41.6947410" lon="2.8162550">
        <ele>80.8</ele>
        <time>2020-07-31T09:58:34Z</time>
      </trkpt>
      <trkpt lat="41.6946690" lon="2.8160080">
        <ele>81.6</ele>
        <time>2020-07-31T09:58:38Z</time>
      </trkpt>
      <trkpt lat="41.6946320" lon="2.8158860">
        <ele>82.0</ele>
        <time>2020-07-31T09:58:40Z</time>
      </trkpt>
      <trkpt lat="41.6945470" lon="2.8156410">
        <ele>83.0</ele>
        <time>2020-07-31T09:58:44Z</time>
      </trkpt>
      <trkpt lat="41.6944870" lon="2.8154580">
        <ele>83.8</ele>
        <time>2020-07-31T09:58:47Z</time>
      </trkpt>
      <trkpt lat="41.6944700" lon="2.8153960">
        <ele>84.0</ele>
        <time>2020-07-31T09:58:48Z</time>
      </trkpt>
      <trkpt lat="41.6944600" lon="2.8153330">
        <ele>84.4</ele>
        <time>2020-07-31T09:58:49Z</time>
      </trkpt>
      <trkpt lat="41.6944540" lon="2.8152050">
        <ele>84.6</ele>
        <time>2020-07-31T09:58:51Z</time>
      </trkpt>
      <trkpt lat="41.6944480" lon="2.8151410">
        <ele>84.8</ele>
        <time>2020-07-31T09:58:52Z</time>
      </trkpt>
      <trkpt lat="41.6943970" lon="2.8149660">
        <ele>85.2</ele>
        <time>2020-07-31T09:58:55Z</time>
      </trkpt>
      <trkpt lat="41.6943720" lon="2.8149110">
        <ele>85.4</ele>
        <time>2020-07-31T09:58:56Z</time>
      </trkpt>
      <trkpt lat="41.6942750" lon="2.8146850">
        <ele>86.6</ele>
        <time>2020-07-31T09:59:00Z</time>
      </trkpt>
      <trkpt lat="41.6942140" lon="2.8145110">
        <ele>87.8</ele>
        <time>2020-07-31T09:59:03Z</time>
      </trkpt>
      <trkpt lat="41.6940810" lon="2.8140980">
        <ele>89.0</ele>
        <time>2020-07-31T09:59:10Z</time>
      </trkpt>
      <trkpt lat="41.6940110" lon="2.8138590">
        <ele>89.4</ele>
        <time>2020-07-31T09:59:14Z</time>
      </trkpt>
      <trkpt lat="41.6939500" lon="2.8136900">
        <ele>90.0</ele>
        <time>2020-07-31T09:59:17Z</time>
      </trkpt>
      <trkpt lat="41.6938320" lon="2.8134180">
        <ele>91.2</ele>
        <time>2020-07-31T09:59:22Z</time>
      </trkpt>
      <trkpt lat="41.6937370" lon="2.8131960">
        <ele>92.4</ele>
        <time>2020-07-31T09:59:26Z</time>
      </trkpt>
      <trkpt lat="41.6936270" lon="2.8129820">
        <ele>93.0</ele>
        <time>2020-07-31T09:59:30Z</time>
      </trkpt>
      <trkpt lat="41.6935740" lon="2.8128760">
        <ele>93.4</ele>
        <time>2020-07-31T09:59:32Z</time>
      </trkpt>
      <trkpt lat="41.6933890" lon="2.8125190">
        <ele>94.0</ele>
        <time>2020-07-31T09:59:39Z</time>
      </trkpt>
      <trkpt lat="41.6933150" lon="2.8123660">
        <ele>94.4</ele>
        <time>2020-07-31T09:59:42Z</time>
      </trkpt>
      <trkpt lat="41.6931980" lon="2.8121370">
        <ele>95.4</ele>
        <time>2020-07-31T09:59:47Z</time>
      </trkpt>
      <trkpt lat="41.6931770" lon="2.8120890">
        <ele>95.6</ele>
        <time>2020-07-31T09:59:48Z</time>
      </trkpt>
      <trkpt lat="41.6930570" lon="2.8118270">
        <ele>97.0</ele>
        <time>2020-07-31T09:59:53Z</time>
      </trkpt>
      <trkpt lat="41.6929060" lon="2.8114460">
        <ele>98.0</ele>
        <time>2020-07-31T09:59:59Z</time>
      </trkpt>
      <trkpt lat="41.6928820" lon="2.8113730">
        <ele>98.0</ele>
        <time>2020-07-31T10:00:00Z</time>
      </trkpt>
      <trkpt lat="41.6927350" lon="2.8109120">
        <ele>98.4</ele>
        <time>2020-07-31T10:00:06Z</time>
      </trkpt>
      <trkpt lat="41.6925760" lon="2.8103820">
        <ele>98.6</ele>
        <time>2020-07-31T10:00:12Z</time>
      </trkpt>
      <trkpt lat="41.6924000" lon="2.8097530">
        <ele>98.6</ele>
        <time>2020-07-31T10:00:18Z</time>
      </trkpt>
      <trkpt lat="41.6921980" lon="2.8090070">
        <ele>97.0</ele>
        <time>2020-07-31T10:00:24Z</time>
      </trkpt>
      <trkpt lat="41.6921610" lon="2.8088720">
        <ele>96.4</ele>
        <time>2020-07-31T10:00:25Z</time>
      </trkpt>
      <trkpt lat="41.6920490" lon="2.8084570">
        <ele>95.0</ele>
        <time>2020-07-31T10:00:28Z</time>
      </trkpt>
      <trkpt lat="41.6919310" lon="2.8080340">
        <ele>93.8</ele>
        <time>2020-07-31T10:00:31Z</time>
      </trkpt>
      <trkpt lat="41.6918010" lon="2.8076100">
        <ele>92.2</ele>
        <time>2020-07-31T10:00:34Z</time>
      </trkpt>
      <trkpt lat="41.6917060" lon="2.8073280">
        <ele>90.4</ele>
        <time>2020-07-31T10:00:36Z</time>
      </trkpt>
      <trkpt lat="41.6915990" lon="2.8070510">
        <ele>89.4</ele>
        <time>2020-07-31T10:00:38Z</time>
      </trkpt>
      <trkpt lat="41.6913400" lon="2.8065130">
        <ele>88.2</ele>
        <time>2020-07-31T10:00:42Z</time>
      </trkpt>
      <trkpt lat="41.6911970" lon="2.8062530">
        <ele>87.0</ele>
        <time>2020-07-31T10:00:44Z</time>
      </trkpt>
      <trkpt lat="41.6910430" lon="2.8060060">
        <ele>85.6</ele>
        <time>2020-07-31T10:00:46Z</time>
      </trkpt>
      <trkpt lat="41.6908070" lon="2.8056440">
        <ele>84.2</ele>
        <time>2020-07-31T10:00:49Z</time>
      </trkpt>
      <trkpt lat="41.6906510" lon="2.8054070">
        <ele>82.4</ele>
        <time>2020-07-31T10:00:51Z</time>
      </trkpt>
      <trkpt lat="41.6904970" lon="2.8051740">
        <ele>80.8</ele>
        <time>2020-07-31T10:00:53Z</time>
      </trkpt>
      <trkpt lat="41.6903470" lon="2.8049430">
        <ele>79.6</ele>
        <time>2020-07-31T10:00:55Z</time>
      </trkpt>
      <trkpt lat="41.6901230" lon="2.8045970">
        <ele>78.4</ele>
        <time>2020-07-31T10:00:58Z</time>
      </trkpt>
      <trkpt lat="41.6898320" lon="2.8041290">
        <ele>77.2</ele>
        <time>2020-07-31T10:01:02Z</time>
      </trkpt>
      <trkpt lat="41.6896340" lon="2.8037540">
        <ele>76.4</ele>
        <time>2020-07-31T10:01:05Z</time>
      </trkpt>
      <trkpt lat="41.6895740" lon="2.8036270">
        <ele>76.2</ele>
        <time>2020-07-31T10:01:06Z</time>
      </trkpt>
      <trkpt lat="41.6893780" lon="2.8031120">
        <ele>75.4</ele>
        <time>2020-07-31T10:01:10Z</time>
      </trkpt>
      <trkpt lat="41.6893010" lon="2.8028490">
        <ele>74.8</ele>
        <time>2020-07-31T10:01:12Z</time>
      </trkpt>
      <trkpt lat="41.6892740" lon="2.8027140">
        <ele>74.4</ele>
        <time>2020-07-31T10:01:13Z</time>
      </trkpt>
      <trkpt lat="41.6892590" lon="2.8025800">
        <ele>73.8</ele>
        <time>2020-07-31T10:01:14Z</time>
      </trkpt>
      <trkpt lat="41.6892540" lon="2.8024490">
        <ele>73.6</ele>
        <time>2020-07-31T10:01:15Z</time>
      </trkpt>
      <trkpt lat="41.6892330" lon="2.8020680">
        <ele>73.0</ele>
        <time>2020-07-31T10:01:18Z</time>
      </trkpt>
      <trkpt lat="41.6891060" lon="2.8017330">
        <ele>72.6</ele>
        <time>2020-07-31T10:01:21Z</time>
      </trkpt>
      <trkpt lat="41.6890620" lon="2.8016210">
        <ele>72.6</ele>
        <time>2020-07-31T10:01:22Z</time>
      </trkpt>
      <trkpt lat="41.6890090" lon="2.8013770">
        <ele>72.4</ele>
        <time>2020-07-31T10:01:24Z</time>
      </trkpt>
      <trkpt lat="41.6888810" lon="2.8006320">
        <ele>71.8</ele>
        <time>2020-07-31T10:01:30Z</time>
      </trkpt>
      <trkpt lat="41.6888340" lon="2.8003870">
        <ele>71.2</ele>
        <time>2020-07-31T10:01:32Z</time>
      </trkpt>
      <trkpt lat="41.6887820" lon="2.8001490">
        <ele>70.6</ele>
        <time>2020-07-31T10:01:34Z</time>
      </trkpt>
      <trkpt lat="41.6886940" lon="2.7998080">
        <ele>70.0</ele>
        <time>2020-07-31T10:01:37Z</time>
      </trkpt>
      <trkpt lat="41.6885590" lon="2.7993810">
        <ele>69.0</ele>
        <time>2020-07-31T10:01:41Z</time>
      </trkpt>
      <trkpt lat="41.6885230" lon="2.7992770">
        <ele>69.0</ele>
        <time>2020-07-31T10:01:42Z</time>
      </trkpt>
      <trkpt lat="41.6882640" lon="2.7986840">
        <ele>68.8</ele>
        <time>2020-07-31T10:01:48Z</time>
      </trkpt>
      <trkpt lat="41.6879030" lon="2.7980280">
        <ele>68.6</ele>
        <time>2020-07-31T10:01:55Z</time>
      </trkpt>
      <trkpt lat="41.6877390" lon="2.7977500">
        <ele>68.4</ele>
        <time>2020-07-31T10:01:58Z</time>
      </trkpt>
      <trkpt lat="41.6874690" lon="2.7972840">
        <ele>68.2</ele>
        <time>2020-07-31T10:02:03Z</time>
      </trkpt>
      <trkpt lat="41.6874160" lon="2.7971920">
        <ele>67.8</ele>
        <time>2020-07-31T10:02:04Z</time>
      </trkpt>
      <trkpt lat="41.6872570" lon="2.7969240">
        <ele>67.8</ele>
        <time>2020-07-31T10:02:07Z</time>
      </trkpt>
      <trkpt lat="41.6870120" lon="2.7964760">
        <ele>67.4</ele>
        <time>2020-07-31T10:02:12Z</time>
      </trkpt>
      <trkpt lat="41.6869870" lon="2.7963740">
        <ele>67.6</ele>
        <time>2020-07-31T10:02:13Z</time>
      </trkpt>
      <trkpt lat="41.6869410" lon="2.7961700">
        <ele>67.2</ele>
        <time>2020-07-31T10:02:15Z</time>
      </trkpt>
      <trkpt lat="41.6868960" lon="2.7960830">
        <ele>67.2</ele>
        <time>2020-07-31T10:02:16Z</time>
      </trkpt>
      <trkpt lat="41.6866990" lon="2.7958950">
        <ele>67.4</ele>
        <time>2020-07-31T10:02:19Z</time>
      </trkpt>
      <trkpt lat="41.6866310" lon="2.7958330">
        <ele>67.2</ele>
        <time>2020-07-31T10:02:20Z</time>
      </trkpt>
      <trkpt lat="41.6865110" lon="2.7956820">
        <ele>67.0</ele>
        <time>2020-07-31T10:02:22Z</time>
      </trkpt>
      <trkpt lat="41.6864560" lon="2.7955990">
        <ele>66.8</ele>
        <time>2020-07-31T10:02:23Z</time>
      </trkpt>
      <trkpt lat="41.6861360" lon="2.7950940">
        <ele>66.0</ele>
        <time>2020-07-31T10:02:29Z</time>
      </trkpt>
      <trkpt lat="41.6859180" lon="2.7947590">
        <ele>65.4</ele>
        <time>2020-07-31T10:02:33Z</time>
      </trkpt>
      <trkpt lat="41.6855820" lon="2.7942490">
        <ele>65.0</ele>
        <time>2020-07-31T10:02:39Z</time>
      </trkpt>
      <trkpt lat="41.6854880" lon="2.7940620">
        <ele>64.8</ele>
        <time>2020-07-31T10:02:41Z</time>
      </trkpt>
      <trkpt lat="41.6854230" lon="2.7937500">
        <ele>64.6</ele>
        <time>2020-07-31T10:02:44Z</time>
      </trkpt>
      <trkpt lat="41.6853250" lon="2.7935990">
        <ele>64.6</ele>
        <time>2020-07-31T10:02:46Z</time>
      </trkpt>
      <trkpt lat="41.6850720" lon="2.7933640">
        <ele>64.6</ele>
        <time>2020-07-31T10:02:50Z</time>
      </trkpt>
      <trkpt lat="41.6850150" lon="2.7932850">
        <ele>64.4</ele>
        <time>2020-07-31T10:02:51Z</time>
      </trkpt>
      <trkpt lat="41.6846770" lon="2.7927680">
        <ele>64.0</ele>
        <time>2020-07-31T10:02:57Z</time>
      </trkpt>
      <trkpt lat="41.6846190" lon="2.7926800">
        <ele>63.8</ele>
        <time>2020-07-31T10:02:58Z</time>
      </trkpt>
      <trkpt lat="41.6842130" lon="2.7920450">
        <ele>63.2</ele>
        <time>2020-07-31T10:03:05Z</time>
      </trkpt>
      <trkpt lat="41.6840380" lon="2.7917770">
        <ele>63.0</ele>
        <time>2020-07-31T10:03:08Z</time>
      </trkpt>
      <trkpt lat="41.6839260" lon="2.7916030">
        <ele>62.8</ele>
        <time>2020-07-31T10:03:10Z</time>
      </trkpt>
      <trkpt lat="41.6835550" lon="2.7910240">
        <ele>62.8</ele>
        <time>2020-07-31T10:03:17Z</time>
      </trkpt>
      <trkpt lat="41.6834610" lon="2.7908680">
        <ele>63.2</ele>
        <time>2020-07-31T10:03:19Z</time>
      </trkpt>
      <trkpt lat="41.6834070" lon="2.7906950">
        <ele>63.6</ele>
        <time>2020-07-31T10:03:21Z</time>
      </trkpt>
      <trkpt lat="41.6833880" lon="2.7906070">
        <ele>63.8</ele>
        <time>2020-07-31T10:03:22Z</time>
      </trkpt>
      <trkpt lat="41.6833120" lon="2.7904590">
        <ele>64.4</ele>
        <time>2020-07-31T10:03:24Z</time>
      </trkpt>
      <trkpt lat="41.6831170" lon="2.7903370">
        <ele>65.0</ele>
        <time>2020-07-31T10:03:27Z</time>
      </trkpt>
      <trkpt lat="41.6829410" lon="2.7901570">
        <ele>66.0</ele>
        <time>2020-07-31T10:03:30Z</time>
      </trkpt>
      <trkpt lat="41.6828940" lon="2.7900820">
        <ele>66.2</ele>
        <time>2020-07-31T10:03:31Z</time>
      </trkpt>
      <trkpt lat="41.6825840" lon="2.7896020">
        <ele>67.2</ele>
        <time>2020-07-31T10:03:38Z</time>
      </trkpt>
      <trkpt lat="41.6825410" lon="2.7895360">
        <ele>67.2</ele>
        <time>2020-07-31T10:03:39Z</time>
      </trkpt>
      <trkpt lat="41.6822490" lon="2.7890820">
        <ele>67.6</ele>
        <time>2020-07-31T10:03:46Z</time>
      </trkpt>
      <trkpt lat="41.6819520" lon="2.7886330">
        <ele>68.2</ele>
        <time>2020-07-31T10:03:53Z</time>
      </trkpt>
      <trkpt lat="41.6818690" lon="2.7885030">
        <ele>68.6</ele>
        <time>2020-07-31T10:03:55Z</time>
      </trkpt>
      <trkpt lat="41.6817410" lon="2.7883100">
        <ele>69.4</ele>
        <time>2020-07-31T10:03:58Z</time>
      </trkpt>
      <trkpt lat="41.6814910" lon="2.7879180">
        <ele>70.6</ele>
        <time>2020-07-31T10:04:04Z</time>
      </trkpt>
      <trkpt lat="41.6811990" lon="2.7874550">
        <ele>71.6</ele>
        <time>2020-07-31T10:04:11Z</time>
      </trkpt>
      <trkpt lat="41.6809590" lon="2.7870500">
        <ele>72.8</ele>
        <time>2020-07-31T10:04:17Z</time>
      </trkpt>
      <trkpt lat="41.6809230" lon="2.7869790">
        <ele>73.0</ele>
        <time>2020-07-31T10:04:18Z</time>
      </trkpt>
      <trkpt lat="41.6807020" lon="2.7865670">
        <ele>74.0</ele>
        <time>2020-07-31T10:04:24Z</time>
      </trkpt>
      <trkpt lat="41.6806670" lon="2.7864960">
        <ele>74.0</ele>
        <time>2020-07-31T10:04:25Z</time>
      </trkpt>
      <trkpt lat="41.6804280" lon="2.7859630">
        <ele>75.0</ele>
        <time>2020-07-31T10:04:32Z</time>
      </trkpt>
      <trkpt lat="41.6803630" lon="2.7858030">
        <ele>75.4</ele>
        <time>2020-07-31T10:04:34Z</time>
      </trkpt>
      <trkpt lat="41.6801210" lon="2.7851280">
        <ele>75.8</ele>
        <time>2020-07-31T10:04:42Z</time>
      </trkpt>
      <trkpt lat="41.6800590" lon="2.7849480">
        <ele>75.8</ele>
        <time>2020-07-31T10:04:44Z</time>
      </trkpt>
      <trkpt lat="41.6798740" lon="2.7842580">
        <ele>75.8</ele>
        <time>2020-07-31T10:04:51Z</time>
      </trkpt>
      <trkpt lat="41.6798160" lon="2.7837210">
        <ele>75.8</ele>
        <time>2020-07-31T10:04:56Z</time>
      </trkpt>
      <trkpt lat="41.6797800" lon="2.7831430">
        <ele>75.6</ele>
        <time>2020-07-31T10:05:02Z</time>
      </trkpt>
      <trkpt lat="41.6797820" lon="2.7830750">
        <ele>75.6</ele>
        <time>2020-07-31T10:05:03Z</time>
      </trkpt>
      <trkpt lat="41.6798220" lon="2.7828620">
        <ele>75.6</ele>
        <time>2020-07-31T10:05:06Z</time>
      </trkpt>
      <trkpt lat="41.6797800" lon="2.7826130">
        <ele>75.8</ele>
        <time>2020-07-31T10:05:09Z</time>
      </trkpt>
      <trkpt lat="41.6796170" lon="2.7824250">
        <ele>75.8</ele>
        <time>2020-07-31T10:05:12Z</time>
      </trkpt>
      <trkpt lat="41.6794710" lon="2.7822090">
        <ele>75.8</ele>
        <time>2020-07-31T10:05:15Z</time>
      </trkpt>
      <trkpt lat="41.6794280" lon="2.7820100">
        <ele>75.8</ele>
        <time>2020-07-31T10:05:17Z</time>
      </trkpt>
      <trkpt lat="41.6793710" lon="2.7817000">
        <ele>75.4</ele>
        <time>2020-07-31T10:05:20Z</time>
      </trkpt>
      <trkpt lat="41.6792330" lon="2.7809580">
        <ele>74.8</ele>
        <time>2020-07-31T10:05:27Z</time>
      </trkpt>
      <trkpt lat="41.6791300" lon="2.7804220">
        <ele>74.4</ele>
        <time>2020-07-31T10:05:32Z</time>
      </trkpt>
      <trkpt lat="41.6789870" lon="2.7796640">
        <ele>74.2</ele>
        <time>2020-07-31T10:05:39Z</time>
      </trkpt>
      <trkpt lat="41.6789260" lon="2.7793450">
        <ele>74.0</ele>
        <time>2020-07-31T10:05:42Z</time>
      </trkpt>
      <trkpt lat="41.6788690" lon="2.7790190">
        <ele>73.8</ele>
        <time>2020-07-31T10:05:45Z</time>
      </trkpt>
      <trkpt lat="41.6787260" lon="2.7782370">
        <ele>73.4</ele>
        <time>2020-07-31T10:05:52Z</time>
      </trkpt>
      <trkpt lat="41.6785800" lon="2.7774450">
        <ele>73.0</ele>
        <time>2020-07-31T10:05:59Z</time>
      </trkpt>
      <trkpt lat="41.6785340" lon="2.7772110">
        <ele>72.8</ele>
        <time>2020-07-31T10:06:01Z</time>
      </trkpt>
      <trkpt lat="41.6785090" lon="2.7770930">
        <ele>72.6</ele>
        <time>2020-07-31T10:06:02Z</time>
      </trkpt>
      <trkpt lat="41.6783710" lon="2.7763460">
        <ele>72.4</ele>
        <time>2020-07-31T10:06:08Z</time>
      </trkpt>
      <trkpt lat="41.6782970" lon="2.7759670">
        <ele>72.0</ele>
        <time>2020-07-31T10:06:11Z</time>
      </trkpt>
      <trkpt lat="41.6782480" lon="2.7757170">
        <ele>71.4</ele>
        <time>2020-07-31T10:06:13Z</time>
      </trkpt>
      <trkpt lat="41.6781490" lon="2.7752230">
        <ele>70.0</ele>
        <time>2020-07-31T10:06:17Z</time>
      </trkpt>
      <trkpt lat="41.6781070" lon="2.7749770">
        <ele>69.0</ele>
        <time>2020-07-31T10:06:19Z</time>
      </trkpt>
      <trkpt lat="41.6780870" lon="2.7748540">
        <ele>68.8</ele>
        <time>2020-07-31T10:06:20Z</time>
      </trkpt>
      <trkpt lat="41.6780050" lon="2.7743950">
        <ele>67.8</ele>
        <time>2020-07-31T10:06:24Z</time>
      </trkpt>
      <trkpt lat="41.6779700" lon="2.7742000">
        <ele>67.4</ele>
        <time>2020-07-31T10:06:26Z</time>
      </trkpt>
      <trkpt lat="41.6779650" lon="2.7741040">
        <ele>67.2</ele>
        <time>2020-07-31T10:06:27Z</time>
      </trkpt>
      <trkpt lat="41.6779790" lon="2.7740080">
        <ele>66.6</ele>
        <time>2020-07-31T10:06:28Z</time>
      </trkpt>
      <trkpt lat="41.6780070" lon="2.7739140">
        <ele>66.6</ele>
        <time>2020-07-31T10:06:29Z</time>
      </trkpt>
      <trkpt lat="41.6780180" lon="2.7737040">
        <ele>66.4</ele>
        <time>2020-07-31T10:06:31Z</time>
      </trkpt>
      <trkpt lat="41.6778860" lon="2.7734100">
        <ele>66.4</ele>
        <time>2020-07-31T10:06:34Z</time>
      </trkpt>
      <trkpt lat="41.6777920" lon="2.7731990">
        <ele>66.0</ele>
        <time>2020-07-31T10:06:36Z</time>
      </trkpt>
      <trkpt lat="41.6777600" lon="2.7730810">
        <ele>66.0</ele>
        <time>2020-07-31T10:06:37Z</time>
      </trkpt>
      <trkpt lat="41.6777120" lon="2.7728300">
        <ele>65.8</ele>
        <time>2020-07-31T10:06:39Z</time>
      </trkpt>
      <trkpt lat="41.6776420" lon="2.7724420">
        <ele>64.6</ele>
        <time>2020-07-31T10:06:42Z</time>
      </trkpt>
      <trkpt lat="41.6775700" lon="2.7720530">
        <ele>63.6</ele>
        <time>2020-07-31T10:06:45Z</time>
      </trkpt>
      <trkpt lat="41.6775010" lon="2.7716720">
        <ele>62.4</ele>
        <time>2020-07-31T10:06:48Z</time>
      </trkpt>
      <trkpt lat="41.6774300" lon="2.7713060">
        <ele>61.2</ele>
        <time>2020-07-31T10:06:51Z</time>
      </trkpt>
      <trkpt lat="41.6774080" lon="2.7711840">
        <ele>60.6</ele>
        <time>2020-07-31T10:06:52Z</time>
      </trkpt>
      <trkpt lat="41.6773640" lon="2.7709410">
        <ele>60.0</ele>
        <time>2020-07-31T10:06:54Z</time>
      </trkpt>
      <trkpt lat="41.6772120" lon="2.7702370">
        <ele>59.8</ele>
        <time>2020-07-31T10:07:00Z</time>
      </trkpt>
      <trkpt lat="41.6771790" lon="2.7701250">
        <ele>59.8</ele>
        <time>2020-07-31T10:07:01Z</time>
      </trkpt>
      <trkpt lat="41.6769320" lon="2.7693900">
        <ele>60.2</ele>
        <time>2020-07-31T10:07:08Z</time>
      </trkpt>
      <trkpt lat="41.6768940" lon="2.7692950">
        <ele>60.2</ele>
        <time>2020-07-31T10:07:09Z</time>
      </trkpt>
      <trkpt lat="41.6766100" lon="2.7686650">
        <ele>60.4</ele>
        <time>2020-07-31T10:07:16Z</time>
      </trkpt>
      <trkpt lat="41.6765260" lon="2.7684950">
        <ele>60.4</ele>
        <time>2020-07-31T10:07:18Z</time>
      </trkpt>
      <trkpt lat="41.6762550" lon="2.7680200">
        <ele>61.2</ele>
        <time>2020-07-31T10:07:24Z</time>
      </trkpt>
      <trkpt lat="41.6761150" lon="2.7677900">
        <ele>61.8</ele>
        <time>2020-07-31T10:07:27Z</time>
      </trkpt>
      <trkpt lat="41.6759110" lon="2.7675010">
        <ele>62.2</ele>
        <time>2020-07-31T10:07:31Z</time>
      </trkpt>
      <trkpt lat="41.6756520" lon="2.7671530">
        <ele>62.6</ele>
        <time>2020-07-31T10:07:36Z</time>
      </trkpt>
      <trkpt lat="41.6752090" lon="2.7666020">
        <ele>62.8</ele>
        <time>2020-07-31T10:07:44Z</time>
      </trkpt>
      <trkpt lat="41.6751520" lon="2.7665300">
        <ele>62.8</ele>
        <time>2020-07-31T10:07:45Z</time>
      </trkpt>
      <trkpt lat="41.6749790" lon="2.7663130">
        <ele>62.8</ele>
        <time>2020-07-31T10:07:48Z</time>
      </trkpt>
      <trkpt lat="41.6745670" lon="2.7657950">
        <ele>62.6</ele>
        <time>2020-07-31T10:07:55Z</time>
      </trkpt>
      <trkpt lat="41.6745070" lon="2.7657190">
        <ele>62.6</ele>
        <time>2020-07-31T10:07:56Z</time>
      </trkpt>
      <trkpt lat="41.6740690" lon="2.7651790">
        <ele>61.6</ele>
        <time>2020-07-31T10:08:03Z</time>
      </trkpt>
      <trkpt lat="41.6740060" lon="2.7651000">
        <ele>61.6</ele>
        <time>2020-07-31T10:08:04Z</time>
      </trkpt>
      <trkpt lat="41.6737530" lon="2.7647780">
        <ele>61.2</ele>
        <time>2020-07-31T10:08:08Z</time>
      </trkpt>
      <trkpt lat="41.6733090" lon="2.7642240">
        <ele>60.6</ele>
        <time>2020-07-31T10:08:15Z</time>
      </trkpt>
      <trkpt lat="41.6732470" lon="2.7641450">
        <ele>60.2</ele>
        <time>2020-07-31T10:08:16Z</time>
      </trkpt>
      <trkpt lat="41.6731840" lon="2.7640680">
        <ele>60.2</ele>
        <time>2020-07-31T10:08:17Z</time>
      </trkpt>
      <trkpt lat="41.6728770" lon="2.7636770">
        <ele>59.2</ele>
        <time>2020-07-31T10:08:22Z</time>
      </trkpt>
      <trkpt lat="41.6724560" lon="2.7631310">
        <ele>58.8</ele>
        <time>2020-07-31T10:08:29Z</time>
      </trkpt>
      <trkpt lat="41.6720840" lon="2.7625660">
        <ele>58.6</ele>
        <time>2020-07-31T10:08:36Z</time>
      </trkpt>
      <trkpt lat="41.6720370" lon="2.7624820">
        <ele>58.6</ele>
        <time>2020-07-31T10:08:37Z</time>
      </trkpt>
      <trkpt lat="41.6717210" lon="2.7617900">
        <ele>58.8</ele>
        <time>2020-07-31T10:08:45Z</time>
      </trkpt>
      <trkpt lat="41.6714340" lon="2.7611560">
        <ele>59.4</ele>
        <time>2020-07-31T10:08:53Z</time>
      </trkpt>
      <trkpt lat="41.6713980" lon="2.7610770">
        <ele>59.6</ele>
        <time>2020-07-31T10:08:54Z</time>
      </trkpt>
      <trkpt lat="41.6711080" lon="2.7604410">
        <ele>60.2</ele>
        <time>2020-07-31T10:09:02Z</time>
      </trkpt>
      <trkpt lat="41.6708190" lon="2.7597710">
        <ele>60.2</ele>
        <time>2020-07-31T10:09:10Z</time>
      </trkpt>
      <trkpt lat="41.6707420" lon="2.7596010">
        <ele>60.0</ele>
        <time>2020-07-31T10:09:12Z</time>
      </trkpt>
      <trkpt lat="41.6705820" lon="2.7592600">
        <ele>59.8</ele>
        <time>2020-07-31T10:09:16Z</time>
      </trkpt>
      <trkpt lat="41.6704880" lon="2.7591030">
        <ele>59.6</ele>
        <time>2020-07-31T10:09:18Z</time>
      </trkpt>
      <trkpt lat="41.6702870" lon="2.7586630">
        <ele>59.6</ele>
        <time>2020-07-31T10:09:23Z</time>
      </trkpt>
      <trkpt lat="41.6700000" lon="2.7580370">
        <ele>59.2</ele>
        <time>2020-07-31T10:09:30Z</time>
      </trkpt>
      <trkpt lat="41.6698280" lon="2.7576770">
        <ele>58.8</ele>
        <time>2020-07-31T10:09:34Z</time>
      </trkpt>
      <trkpt lat="41.6696960" lon="2.7574070">
        <ele>58.6</ele>
        <time>2020-07-31T10:09:37Z</time>
      </trkpt>
      <trkpt lat="41.6696270" lon="2.7572160">
        <ele>58.6</ele>
        <time>2020-07-31T10:09:39Z</time>
      </trkpt>
      <trkpt lat="41.6696130" lon="2.7571130">
        <ele>58.6</ele>
        <time>2020-07-31T10:09:40Z</time>
      </trkpt>
      <trkpt lat="41.6695380" lon="2.7568320">
        <ele>58.4</ele>
        <time>2020-07-31T10:09:43Z</time>
      </trkpt>
      <trkpt lat="41.6693330" lon="2.7566960">
        <ele>58.0</ele>
        <time>2020-07-31T10:09:46Z</time>
      </trkpt>
      <trkpt lat="41.6692580" lon="2.7566520">
        <ele>58.0</ele>
        <time>2020-07-31T10:09:47Z</time>
      </trkpt>
      <trkpt lat="41.6691320" lon="2.7565090">
        <ele>57.8</ele>
        <time>2020-07-31T10:09:49Z</time>
      </trkpt>
      <trkpt lat="41.6688930" lon="2.7561820">
        <ele>57.6</ele>
        <time>2020-07-31T10:09:53Z</time>
      </trkpt>
      <trkpt lat="41.6687710" lon="2.7560240">
        <ele>57.2</ele>
        <time>2020-07-31T10:09:55Z</time>
      </trkpt>
      <trkpt lat="41.6686040" lon="2.7558040">
        <ele>56.6</ele>
        <time>2020-07-31T10:09:58Z</time>
      </trkpt>
      <trkpt lat="41.6683880" lon="2.7555280">
        <ele>56.2</ele>
        <time>2020-07-31T10:10:02Z</time>
      </trkpt>
      <trkpt lat="41.6679600" lon="2.7549780">
        <ele>56.4</ele>
        <time>2020-07-31T10:10:10Z</time>
      </trkpt>
      <trkpt lat="41.6679060" lon="2.7549100">
        <ele>56.4</ele>
        <time>2020-07-31T10:10:11Z</time>
      </trkpt>
      <trkpt lat="41.6674730" lon="2.7543610">
        <ele>56.6</ele>
        <time>2020-07-31T10:10:19Z</time>
      </trkpt>
      <trkpt lat="41.6672530" lon="2.7540770">
        <ele>56.8</ele>
        <time>2020-07-31T10:10:23Z</time>
      </trkpt>
      <trkpt lat="41.6668600" lon="2.7535690">
        <ele>57.0</ele>
        <time>2020-07-31T10:10:30Z</time>
      </trkpt>
      <trkpt lat="41.6665880" lon="2.7531920">
        <ele>57.0</ele>
        <time>2020-07-31T10:10:35Z</time>
      </trkpt>
      <trkpt lat="41.6662510" lon="2.7526200">
        <ele>57.2</ele>
        <time>2020-07-31T10:10:42Z</time>
      </trkpt>
      <trkpt lat="41.6661630" lon="2.7524480">
        <ele>57.2</ele>
        <time>2020-07-31T10:10:44Z</time>
      </trkpt>
      <trkpt lat="41.6658870" lon="2.7518220">
        <ele>57.4</ele>
        <time>2020-07-31T10:10:51Z</time>
      </trkpt>
      <trkpt lat="41.6658090" lon="2.7516410">
        <ele>57.4</ele>
        <time>2020-07-31T10:10:53Z</time>
      </trkpt>
      <trkpt lat="41.6655540" lon="2.7510090">
        <ele>57.4</ele>
        <time>2020-07-31T10:11:00Z</time>
      </trkpt>
      <trkpt lat="41.6653670" lon="2.7504270">
        <ele>57.6</ele>
        <time>2020-07-31T10:11:07Z</time>
      </trkpt>
      <trkpt lat="41.6653540" lon="2.7503440">
        <ele>57.6</ele>
        <time>2020-07-31T10:11:08Z</time>
      </trkpt>
      <trkpt lat="41.6649050" lon="2.7498710">
        <ele>58.4</ele>
        <time>2020-07-31T10:12:12Z</time>
      </trkpt>
      <trkpt lat="41.6648040" lon="2.7500460">
        <ele>58.4</ele>
        <time>2020-07-31T10:12:15Z</time>
      </trkpt>
      <trkpt lat="41.6647590" lon="2.7500930">
        <ele>58.4</ele>
        <time>2020-07-31T10:12:16Z</time>
      </trkpt>
      <trkpt lat="41.6646000" lon="2.7501770">
        <ele>58.0</ele>
        <time>2020-07-31T10:12:19Z</time>
      </trkpt>
      <trkpt lat="41.6645450" lon="2.7502000">
        <ele>57.6</ele>
        <time>2020-07-31T10:12:20Z</time>
      </trkpt>
      <trkpt lat="41.6644920" lon="2.7502250">
        <ele>57.2</ele>
        <time>2020-07-31T10:12:21Z</time>
      </trkpt>
      <trkpt lat="41.6642780" lon="2.7503240">
        <ele>56.6</ele>
        <time>2020-07-31T10:12:25Z</time>
      </trkpt>
      <trkpt lat="41.6641400" lon="2.7504340">
        <ele>56.6</ele>
        <time>2020-07-31T10:12:28Z</time>
      </trkpt>
      <trkpt lat="41.6640160" lon="2.7506280">
        <ele>56.6</ele>
        <time>2020-07-31T10:12:32Z</time>
      </trkpt>
      <trkpt lat="41.6637920" lon="2.7511060">
        <ele>58.6</ele>
        <time>2020-07-31T10:12:41Z</time>
      </trkpt>
      <trkpt lat="41.6637670" lon="2.7511550">
        <ele>59.0</ele>
        <time>2020-07-31T10:12:42Z</time>
      </trkpt>
      <trkpt lat="41.6636660" lon="2.7513500">
        <ele>59.8</ele>
        <time>2020-07-31T10:12:46Z</time>
      </trkpt>
      <trkpt lat="41.6635940" lon="2.7514980">
        <ele>61.0</ele>
        <time>2020-07-31T10:12:49Z</time>
      </trkpt>
      <trkpt lat="41.6635510" lon="2.7515980">
        <ele>61.4</ele>
        <time>2020-07-31T10:12:51Z</time>
      </trkpt>
      <trkpt lat="41.6635010" lon="2.7516970">
        <ele>62.2</ele>
        <time>2020-07-31T10:12:53Z</time>
      </trkpt>
      <trkpt lat="41.6634710" lon="2.7517450">
        <ele>62.6</ele>
        <time>2020-07-31T10:12:54Z</time>
      </trkpt>
      <trkpt lat="41.6634050" lon="2.7518340">
        <ele>63.4</ele>
        <time>2020-07-31T10:12:56Z</time>
      </trkpt>
      <trkpt lat="41.6633680" lon="2.7518750">
        <ele>63.6</ele>
        <time>2020-07-31T10:12:57Z</time>
      </trkpt>
      <trkpt lat="41.6632460" lon="2.7519810">
        <ele>64.2</ele>
        <time>2020-07-31T10:13:00Z</time>
      </trkpt>
      <trkpt lat="41.6631590" lon="2.7520260">
        <ele>64.8</ele>
        <time>2020-07-31T10:13:02Z</time>
      </trkpt>
      <trkpt lat="41.6631140" lon="2.7520390">
        <ele>65.2</ele>
        <time>2020-07-31T10:13:03Z</time>
      </trkpt>
      <trkpt lat="41.6630690" lon="2.7520470">
        <ele>65.2</ele>
        <time>2020-07-31T10:13:04Z</time>
      </trkpt>
      <trkpt lat="41.6629230" lon="2.7520480">
        <ele>66.2</ele>
        <time>2020-07-31T10:13:07Z</time>
      </trkpt>
      <trkpt lat="41.6628720" lon="2.7520410">
        <ele>66.6</ele>
        <time>2020-07-31T10:13:08Z</time>
      </trkpt>
      <trkpt lat="41.6628200" lon="2.7520350">
        <ele>67.0</ele>
        <time>2020-07-31T10:13:09Z</time>
      </trkpt>
      <trkpt lat="41.6624270" lon="2.7520120">
        <ele>67.6</ele>
        <time>2020-07-31T10:13:16Z</time>
      </trkpt>
      <trkpt lat="41.6619990" lon="2.7520900">
        <ele>67.4</ele>
        <time>2020-07-31T10:13:23Z</time>
      </trkpt>
      <trkpt lat="41.6615610" lon="2.7521870">
        <ele>67.2</ele>
        <time>2020-07-31T10:13:29Z</time>
      </trkpt>
      <trkpt lat="41.6612410" lon="2.7522440">
        <ele>66.4</ele>
        <time>2020-07-31T10:13:33Z</time>
      </trkpt>
      <trkpt lat="41.6611760" lon="2.7522310">
        <ele>66.2</ele>
        <time>2020-07-31T10:13:34Z</time>
      </trkpt>
      <trkpt lat="41.6610160" lon="2.7521350">
        <ele>65.8</ele>
        <time>2020-07-31T10:13:37Z</time>
      </trkpt>
      <trkpt lat="41.6609550" lon="2.7521330">
        <ele>65.4</ele>
        <time>2020-07-31T10:13:38Z</time>
      </trkpt>
      <trkpt lat="41.6608270" lon="2.7521600">
        <ele>65.0</ele>
        <time>2020-07-31T10:13:40Z</time>
      </trkpt>
      <trkpt lat="41.6606400" lon="2.7521220">
        <ele>64.4</ele>
        <time>2020-07-31T10:13:43Z</time>
      </trkpt>
      <trkpt lat="41.6604490" lon="2.7519970">
        <ele>63.8</ele>
        <time>2020-07-31T10:13:46Z</time>
      </trkpt>
      <trkpt lat="41.6603800" lon="2.7519400">
        <ele>63.6</ele>
        <time>2020-07-31T10:13:47Z</time>
      </trkpt>
      <trkpt lat="41.6600830" lon="2.7516640">
        <ele>63.2</ele>
        <time>2020-07-31T10:13:51Z</time>
      </trkpt>
      <trkpt lat="41.6600010" lon="2.7515950">
        <ele>63.2</ele>
        <time>2020-07-31T10:13:52Z</time>
      </trkpt>
      <trkpt lat="41.6599110" lon="2.7515370">
        <ele>63.0</ele>
        <time>2020-07-31T10:13:53Z</time>
      </trkpt>
      <trkpt lat="41.6597080" lon="2.7514750">
        <ele>62.6</ele>
        <time>2020-07-31T10:13:55Z</time>
      </trkpt>
      <trkpt lat="41.6596010" lon="2.7514610">
        <ele>62.4</ele>
        <time>2020-07-31T10:13:56Z</time>
      </trkpt>
      <trkpt lat="41.6594910" lon="2.7514530">
        <ele>62.0</ele>
        <time>2020-07-31T10:13:57Z</time>
      </trkpt>
      <trkpt lat="41.6592720" lon="2.7514420">
        <ele>61.2</ele>
        <time>2020-07-31T10:13:59Z</time>
      </trkpt>
      <trkpt lat="41.6591620" lon="2.7514400">
        <ele>60.4</ele>
        <time>2020-07-31T10:14:00Z</time>
      </trkpt>
      <trkpt lat="41.6590520" lon="2.7514410">
        <ele>59.8</ele>
        <time>2020-07-31T10:14:01Z</time>
      </trkpt>
      <trkpt lat="41.6588360" lon="2.7514410">
        <ele>57.8</ele>
        <time>2020-07-31T10:14:03Z</time>
      </trkpt>
      <trkpt lat="41.6586220" lon="2.7514430">
        <ele>56.4</ele>
        <time>2020-07-31T10:14:05Z</time>
      </trkpt>
      <trkpt lat="41.6583170" lon="2.7514520">
        <ele>55.6</ele>
        <time>2020-07-31T10:14:08Z</time>
      </trkpt>
      <trkpt lat="41.6582240" lon="2.7514470">
        <ele>55.4</ele>
        <time>2020-07-31T10:14:09Z</time>
      </trkpt>
      <trkpt lat="41.6580580" lon="2.7513660">
        <ele>54.4</ele>
        <time>2020-07-31T10:14:11Z</time>
      </trkpt>
      <trkpt lat="41.6579980" lon="2.7512870">
        <ele>54.0</ele>
        <time>2020-07-31T10:14:12Z</time>
      </trkpt>
      <trkpt lat="41.6579180" lon="2.7510990">
        <ele>53.6</ele>
        <time>2020-07-31T10:14:14Z</time>
      </trkpt>
      <trkpt lat="41.6578260" lon="2.7508410">
        <ele>53.6</ele>
        <time>2020-07-31T10:14:17Z</time>
      </trkpt>
      <trkpt lat="41.6578030" lon="2.7506730">
        <ele>53.6</ele>
        <time>2020-07-31T10:14:19Z</time>
      </trkpt>
      <trkpt lat="41.6577670" lon="2.7503540">
        <ele>54.4</ele>
        <time>2020-07-31T10:14:23Z</time>
      </trkpt>
      <trkpt lat="41.6576650" lon="2.7502440">
        <ele>55.2</ele>
        <time>2020-07-31T10:14:25Z</time>
      </trkpt>
      <trkpt lat="41.6576080" lon="2.7501990">
        <ele>55.4</ele>
        <time>2020-07-31T10:14:26Z</time>
      </trkpt>
      <trkpt lat="41.6575540" lon="2.7501450">
        <ele>55.6</ele>
        <time>2020-07-31T10:14:27Z</time>
      </trkpt>
      <trkpt lat="41.6574760" lon="2.7500010">
        <ele>56.2</ele>
        <time>2020-07-31T10:14:29Z</time>
      </trkpt>
      <trkpt lat="41.6574450" lon="2.7499210">
        <ele>56.2</ele>
        <time>2020-07-31T10:14:30Z</time>
      </trkpt>
      <trkpt lat="41.6572000" lon="2.7492680">
        <ele>56.8</ele>
        <time>2020-07-31T10:14:38Z</time>
      </trkpt>
      <trkpt lat="41.6571700" lon="2.7491900">
        <ele>57.0</ele>
        <time>2020-07-31T10:14:39Z</time>
      </trkpt>
      <trkpt lat="41.6570890" lon="2.7489570">
        <ele>57.4</ele>
        <time>2020-07-31T10:14:42Z</time>
      </trkpt>
      <trkpt lat="41.6569770" lon="2.7486620">
        <ele>57.8</ele>
        <time>2020-07-31T10:14:46Z</time>
      </trkpt>
      <trkpt lat="41.6569020" lon="2.7484560">
        <ele>58.4</ele>
        <time>2020-07-31T10:14:49Z</time>
      </trkpt>
      <trkpt lat="41.6567960" lon="2.7481930">
        <ele>59.0</ele>
        <time>2020-07-31T10:14:53Z</time>
      </trkpt>
      <trkpt lat="41.6567420" lon="2.7480640">
        <ele>59.6</ele>
        <time>2020-07-31T10:14:55Z</time>
      </trkpt>
      <trkpt lat="41.6566650" lon="2.7478620">
        <ele>60.8</ele>
        <time>2020-07-31T10:14:58Z</time>
      </trkpt>
      <trkpt lat="41.6566110" lon="2.7477300">
        <ele>61.2</ele>
        <time>2020-07-31T10:15:00Z</time>
      </trkpt>
      <trkpt lat="41.6564510" lon="2.7473250">
        <ele>61.8</ele>
        <time>2020-07-31T10:15:06Z</time>
      </trkpt>
      <trkpt lat="41.6563690" lon="2.7471170">
        <ele>62.0</ele>
        <time>2020-07-31T10:15:09Z</time>
      </trkpt>
      <trkpt lat="41.6561490" lon="2.7465560">
        <ele>62.8</ele>
        <time>2020-07-31T10:15:17Z</time>
      </trkpt>
      <trkpt lat="41.6560640" lon="2.7463430">
        <ele>63.2</ele>
        <time>2020-07-31T10:15:20Z</time>
      </trkpt>
      <trkpt lat="41.6558990" lon="2.7459230">
        <ele>64.0</ele>
        <time>2020-07-31T10:15:26Z</time>
      </trkpt>
      <trkpt lat="41.6557850" lon="2.7456420">
        <ele>64.8</ele>
        <time>2020-07-31T10:15:30Z</time>
      </trkpt>
      <trkpt lat="41.6557280" lon="2.7455020">
        <ele>65.0</ele>
        <time>2020-07-31T10:15:32Z</time>
      </trkpt>
      <trkpt lat="41.6554930" lon="2.7449340">
        <ele>65.6</ele>
        <time>2020-07-31T10:15:40Z</time>
      </trkpt>
      <trkpt lat="41.6553870" lon="2.7446410">
        <ele>66.0</ele>
        <time>2020-07-31T10:15:44Z</time>
      </trkpt>
      <trkpt lat="41.6553730" lon="2.7445620">
        <ele>66.0</ele>
        <time>2020-07-31T10:15:45Z</time>
      </trkpt>
      <trkpt lat="41.6553700" lon="2.7444810">
        <ele>66.2</ele>
        <time>2020-07-31T10:15:46Z</time>
      </trkpt>
      <trkpt lat="41.6553760" lon="2.7441690">
        <ele>66.6</ele>
        <time>2020-07-31T10:15:50Z</time>
      </trkpt>
      <trkpt lat="41.6552920" lon="2.7440780">
        <ele>66.8</ele>
        <time>2020-07-31T10:15:52Z</time>
      </trkpt>
      <trkpt lat="41.6551820" lon="2.7441100">
        <ele>66.8</ele>
        <time>2020-07-31T10:15:54Z</time>
      </trkpt>
      <trkpt lat="41.6551010" lon="2.7443340">
        <ele>66.8</ele>
        <time>2020-07-31T10:15:57Z</time>
      </trkpt>
      <trkpt lat="41.6550990" lon="2.7444180">
        <ele>66.8</ele>
        <time>2020-07-31T10:15:58Z</time>
      </trkpt>
      <trkpt lat="41.6550930" lon="2.7444970">
        <ele>66.8</ele>
        <time>2020-07-31T10:15:59Z</time>
      </trkpt>
      <trkpt lat="41.6550350" lon="2.7446030">
        <ele>66.8</ele>
        <time>2020-07-31T10:16:01Z</time>
      </trkpt>
      <trkpt lat="41.6549430" lon="2.7445880">
        <ele>66.8</ele>
        <time>2020-07-31T10:16:03Z</time>
      </trkpt>
      <trkpt lat="41.6547640" lon="2.7444490">
        <ele>66.6</ele>
        <time>2020-07-31T10:16:07Z</time>
      </trkpt>
      <trkpt lat="41.6547190" lon="2.7443990">
        <ele>66.6</ele>
        <time>2020-07-31T10:16:08Z</time>
      </trkpt>
      <trkpt lat="41.6545520" lon="2.7441490">
        <ele>66.6</ele>
        <time>2020-07-31T10:16:12Z</time>
      </trkpt>
      <trkpt lat="41.6543720" lon="2.7440350">
        <ele>66.4</ele>
        <time>2020-07-31T10:16:15Z</time>
      </trkpt>
      <trkpt lat="41.6541590" lon="2.7440750">
        <ele>65.8</ele>
        <time>2020-07-31T10:16:18Z</time>
      </trkpt>
      <trkpt lat="41.6539750" lon="2.7442500">
        <ele>64.6</ele>
        <time>2020-07-31T10:16:21Z</time>
      </trkpt>
      <trkpt lat="41.6537920" lon="2.7446050">
        <ele>64.0</ele>
        <time>2020-07-31T10:16:25Z</time>
      </trkpt>
      <trkpt lat="41.6537150" lon="2.7448080">
        <ele>63.6</ele>
        <time>2020-07-31T10:16:27Z</time>
      </trkpt>
      <trkpt lat="41.6535640" lon="2.7452360">
        <ele>62.6</ele>
        <time>2020-07-31T10:16:31Z</time>
      </trkpt>
      <trkpt lat="41.6534830" lon="2.7454530">
        <ele>62.2</ele>
        <time>2020-07-31T10:16:33Z</time>
      </trkpt>
      <trkpt lat="41.6533770" lon="2.7456400">
        <ele>61.4</ele>
        <time>2020-07-31T10:16:35Z</time>
      </trkpt>
      <trkpt lat="41.6532670" lon="2.7458050">
        <ele>60.6</ele>
        <time>2020-07-31T10:16:37Z</time>
      </trkpt>
      <trkpt lat="41.6532380" lon="2.7459010">
        <ele>60.2</ele>
        <time>2020-07-31T10:16:38Z</time>
      </trkpt>
      <trkpt lat="41.6532320" lon="2.7460030">
        <ele>59.6</ele>
        <time>2020-07-31T10:16:39Z</time>
      </trkpt>
      <trkpt lat="41.6532350" lon="2.7461070">
        <ele>59.0</ele>
        <time>2020-07-31T10:16:40Z</time>
      </trkpt>
      <trkpt lat="41.6532270" lon="2.7462100">
        <ele>58.6</ele>
        <time>2020-07-31T10:16:41Z</time>
      </trkpt>
      <trkpt lat="41.6531970" lon="2.7463060">
        <ele>57.8</ele>
        <time>2020-07-31T10:16:42Z</time>
      </trkpt>
      <trkpt lat="41.6530170" lon="2.7466490">
        <ele>56.6</ele>
        <time>2020-07-31T10:16:46Z</time>
      </trkpt>
      <trkpt lat="41.6526840" lon="2.7471120">
        <ele>55.6</ele>
        <time>2020-07-31T10:16:52Z</time>
      </trkpt>
      <trkpt lat="41.6523460" lon="2.7474130">
        <ele>54.4</ele>
        <time>2020-07-31T10:16:57Z</time>
      </trkpt>
      <trkpt lat="41.6522200" lon="2.7475400">
        <ele>53.8</ele>
        <time>2020-07-31T10:16:59Z</time>
      </trkpt>
      <trkpt lat="41.6521010" lon="2.7476590">
        <ele>53.2</ele>
        <time>2020-07-31T10:17:01Z</time>
      </trkpt>
      <trkpt lat="41.6520430" lon="2.7477110">
        <ele>53.0</ele>
        <time>2020-07-31T10:17:02Z</time>
      </trkpt>
      <trkpt lat="41.6519190" lon="2.7478000">
        <ele>52.4</ele>
        <time>2020-07-31T10:17:04Z</time>
      </trkpt>
      <trkpt lat="41.6518580" lon="2.7478480">
        <ele>52.0</ele>
        <time>2020-07-31T10:17:05Z</time>
      </trkpt>
      <trkpt lat="41.6517040" lon="2.7479860">
        <ele>51.8</ele>
        <time>2020-07-31T10:17:08Z</time>
      </trkpt>
      <trkpt lat="41.6516610" lon="2.7480060">
        <ele>51.8</ele>
        <time>2020-07-31T10:17:09Z</time>
      </trkpt>
      <trkpt lat="41.6515800" lon="2.7479590">
        <ele>51.8</ele>
        <time>2020-07-31T10:17:11Z</time>
      </trkpt>
      <trkpt lat="41.6515220" lon="2.7478460">
        <ele>51.8</ele>
        <time>2020-07-31T10:17:13Z</time>
      </trkpt>
      <trkpt lat="41.6514530" lon="2.7477180">
        <ele>51.8</ele>
        <time>2020-07-31T10:17:15Z</time>
      </trkpt>
      <trkpt lat="41.6511340" lon="2.7471560">
        <ele>51.2</ele>
        <time>2020-07-31T10:17:23Z</time>
      </trkpt>
      <trkpt lat="41.6510930" lon="2.7470850">
        <ele>51.0</ele>
        <time>2020-07-31T10:17:24Z</time>
      </trkpt>
      <trkpt lat="41.6509760" lon="2.7468670">
        <ele>50.8</ele>
        <time>2020-07-31T10:17:27Z</time>
      </trkpt>
      <trkpt lat="41.6509050" lon="2.7467160">
        <ele>50.8</ele>
        <time>2020-07-31T10:17:29Z</time>
      </trkpt>
      <trkpt lat="41.6507220" lon="2.7464460">
        <ele>50.8</ele>
        <time>2020-07-31T10:17:33Z</time>
      </trkpt>
      <trkpt lat="41.6504520" lon="2.7459090">
        <ele>50.8</ele>
        <time>2020-07-31T10:17:40Z</time>
      </trkpt>
      <trkpt lat="41.6501910" lon="2.7454410">
        <ele>50.6</ele>
        <time>2020-07-31T10:17:47Z</time>
      </trkpt>
      <trkpt lat="41.6500080" lon="2.7450980">
        <ele>51.0</ele>
        <time>2020-07-31T10:17:53Z</time>
      </trkpt>
      <trkpt lat="41.6498590" lon="2.7447980">
        <ele>51.4</ele>
        <time>2020-07-31T10:17:58Z</time>
      </trkpt>
      <trkpt lat="41.6498130" lon="2.7446770">
        <ele>51.4</ele>
        <time>2020-07-31T10:18:00Z</time>
      </trkpt>
      <trkpt lat="41.6497930" lon="2.7445510">
        <ele>51.4</ele>
        <time>2020-07-31T10:18:02Z</time>
      </trkpt>
      <trkpt lat="41.6497250" lon="2.7444920">
        <ele>51.4</ele>
        <time>2020-07-31T10:18:05Z</time>
      </trkpt>
      <trkpt lat="41.6496620" lon="2.7446160">
        <ele>51.4</ele>
        <time>2020-07-31T10:18:08Z</time>
      </trkpt>
      <trkpt lat="41.6495190" lon="2.7447620">
        <ele>51.4</ele>
        <time>2020-07-31T10:18:12Z</time>
      </trkpt>
      <trkpt lat="41.6492000" lon="2.7450140">
        <ele>51.2</ele>
        <time>2020-07-31T10:18:18Z</time>
      </trkpt>
      <trkpt lat="41.6487180" lon="2.7454230">
        <ele>50.8</ele>
        <time>2020-07-31T10:18:27Z</time>
      </trkpt>
      <trkpt lat="41.6483820" lon="2.7457280">
        <ele>50.6</ele>
        <time>2020-07-31T10:18:34Z</time>
      </trkpt>
      <trkpt lat="41.6482440" lon="2.7458470">
        <ele>50.6</ele>
        <time>2020-07-31T10:18:38Z</time>
      </trkpt>
      <trkpt lat="41.6482160" lon="2.7458630">
        <ele>50.8</ele>
        <time>2020-07-31T10:18:39Z</time>
      </trkpt>
      <trkpt lat="41.6481870" lon="2.7458610">
        <ele>50.8</ele>
        <time>2020-07-31T10:18:41Z</time>
      </trkpt>
    </trkseg>
  </trk>
</gpx>
